<?xml version="1.0" encoding="UTF-8"?>
<gpx version="1.1" creator="https://www.youtrack.es" xsi:schemaLocation="http://www.topografix.com/GPX/1/1 http://www.topografix.com/GPX/1/1/gpx.xsd http://www.garmin.com/xmlschemas/GpxExtensions/v3 http://www.garmin.com/xmlschemas/GpxExtensionsv3.xsd http://www.garmin.com/xmlschemas/TrackPointExtension/v1 http://www.garmin.com/xmlschemas/TrackPointExtensionv1.xsd" xmlns:gpxtpx="http://www.garmin.com/xmlschemas/TrackPointExtension/v1" xmlns:gpxx="http://www.garmin.com/xmlschemas/GpxExtensions/v3" xmlns:xsi="http://www.w3.org/2001/XMLSchema-instance">
  <metadata>
    <link href="https://www.youtrack.es">
      <text>YouTrack.es</text>
    </link>
    <time>2026-05-10T13:39:21Z</time>
  </metadata>
  <trk>
    <src>https://www.youtrack.es</src>
    <link href="https://www.youtrack.es/ruta/1877-priligy-dapoxetine-online">
      <text>YouTrack.es</text>
    </link>
    <trkseg>
      <trkpt lat="46.375383" lon="6.476413">
        <ele>372.076</ele>
        <time>2018-07-01T08:38:43Z</time>
      </trkpt>
      <trkpt lat="46.375074" lon="6.476732">
        <ele>372.090</ele>
        <time>2018-07-01T08:39:03Z</time>
      </trkpt>
      <trkpt lat="46.375074" lon="6.476732">
        <ele>372.019</ele>
        <time>2018-07-01T08:39:23Z</time>
      </trkpt>
      <trkpt lat="46.375017" lon="6.477141">
        <ele>372.708</ele>
        <time>2018-07-01T08:39:43Z</time>
      </trkpt>
      <trkpt lat="46.375017" lon="6.477141">
        <ele>372.779</ele>
        <time>2018-07-01T08:40:03Z</time>
      </trkpt>
      <trkpt lat="46.374681" lon="6.477258">
        <ele>380.295</ele>
        <time>2018-07-01T08:40:23Z</time>
      </trkpt>
      <trkpt lat="46.374681" lon="6.477258">
        <ele>380.247</ele>
        <time>2018-07-01T08:40:43Z</time>
      </trkpt>
      <trkpt lat="46.374147" lon="6.477979">
        <ele>393.163</ele>
        <time>2018-07-01T08:41:03Z</time>
      </trkpt>
      <trkpt lat="46.374147" lon="6.477979">
        <ele>393.175</ele>
        <time>2018-07-01T08:41:23Z</time>
      </trkpt>
      <trkpt lat="46.374136" lon="6.478647">
        <ele>400.772</ele>
        <time>2018-07-01T08:41:43Z</time>
      </trkpt>
      <trkpt lat="46.374136" lon="6.478647">
        <ele>400.718</ele>
        <time>2018-07-01T08:42:03Z</time>
      </trkpt>
      <trkpt lat="46.373863" lon="6.478266">
        <ele>407.343</ele>
        <time>2018-07-01T08:42:23Z</time>
      </trkpt>
      <trkpt lat="46.373863" lon="6.478266">
        <ele>407.377</ele>
        <time>2018-07-01T08:42:43Z</time>
      </trkpt>
      <trkpt lat="46.373750" lon="6.478343">
        <ele>413.661</ele>
        <time>2018-07-01T08:43:03Z</time>
      </trkpt>
      <trkpt lat="46.373750" lon="6.478343">
        <ele>413.627</ele>
        <time>2018-07-01T08:43:23Z</time>
      </trkpt>
      <trkpt lat="46.373848" lon="6.478722">
        <ele>412.908</ele>
        <time>2018-07-01T08:43:43Z</time>
      </trkpt>
      <trkpt lat="46.373848" lon="6.478722">
        <ele>412.929</ele>
        <time>2018-07-01T08:44:03Z</time>
      </trkpt>
      <trkpt lat="46.373654" lon="6.479496">
        <ele>424.125</ele>
        <time>2018-07-01T08:44:23Z</time>
      </trkpt>
      <trkpt lat="46.373654" lon="6.479496">
        <ele>424.187</ele>
        <time>2018-07-01T08:44:43Z</time>
      </trkpt>
      <trkpt lat="46.372880" lon="6.480530">
        <ele>427.623</ele>
        <time>2018-07-01T08:45:03Z</time>
      </trkpt>
      <trkpt lat="46.372880" lon="6.480530">
        <ele>427.675</ele>
        <time>2018-07-01T08:45:23Z</time>
      </trkpt>
      <trkpt lat="46.371900" lon="6.480600">
        <ele>429.012</ele>
        <time>2018-07-01T08:45:43Z</time>
      </trkpt>
      <trkpt lat="46.371900" lon="6.480600">
        <ele>429.038</ele>
        <time>2018-07-01T08:46:03Z</time>
      </trkpt>
      <trkpt lat="46.371970" lon="6.480839">
        <ele>429.063</ele>
        <time>2018-07-01T08:46:23Z</time>
      </trkpt>
      <trkpt lat="46.371970" lon="6.480839">
        <ele>429.015</ele>
        <time>2018-07-01T08:46:43Z</time>
      </trkpt>
      <trkpt lat="46.371502" lon="6.481243">
        <ele>430.465</ele>
        <time>2018-07-01T08:47:03Z</time>
      </trkpt>
      <trkpt lat="46.371502" lon="6.481243">
        <ele>430.411</ele>
        <time>2018-07-01T08:47:23Z</time>
      </trkpt>
      <trkpt lat="46.371612" lon="6.481444">
        <ele>430.208</ele>
        <time>2018-07-01T08:47:43Z</time>
      </trkpt>
      <trkpt lat="46.371612" lon="6.481444">
        <ele>430.243</ele>
        <time>2018-07-01T08:48:03Z</time>
      </trkpt>
      <trkpt lat="46.370986" lon="6.481712">
        <ele>432.469</ele>
        <time>2018-07-01T08:48:23Z</time>
      </trkpt>
      <trkpt lat="46.370986" lon="6.481712">
        <ele>432.461</ele>
        <time>2018-07-01T08:48:43Z</time>
      </trkpt>
      <trkpt lat="46.370870" lon="6.481905">
        <ele>432.967</ele>
        <time>2018-07-01T08:49:03Z</time>
      </trkpt>
      <trkpt lat="46.370870" lon="6.481905">
        <ele>432.919</ele>
        <time>2018-07-01T08:49:23Z</time>
      </trkpt>
      <trkpt lat="46.369367" lon="6.482413">
        <ele>436.056</ele>
        <time>2018-07-01T08:49:43Z</time>
      </trkpt>
      <trkpt lat="46.369367" lon="6.482413">
        <ele>436.052</ele>
        <time>2018-07-01T08:50:03Z</time>
      </trkpt>
      <trkpt lat="46.368816" lon="6.482934">
        <ele>438.817</ele>
        <time>2018-07-01T08:50:23Z</time>
      </trkpt>
      <trkpt lat="46.368816" lon="6.482934">
        <ele>438.887</ele>
        <time>2018-07-01T08:50:43Z</time>
      </trkpt>
      <trkpt lat="46.368528" lon="6.483047">
        <ele>440.942</ele>
        <time>2018-07-01T08:51:03Z</time>
      </trkpt>
      <trkpt lat="46.368528" lon="6.483047">
        <ele>440.926</ele>
        <time>2018-07-01T08:51:23Z</time>
      </trkpt>
      <trkpt lat="46.368371" lon="6.482894">
        <ele>442.008</ele>
        <time>2018-07-01T08:51:43Z</time>
      </trkpt>
      <trkpt lat="46.368371" lon="6.482894">
        <ele>442.020</ele>
        <time>2018-07-01T08:52:03Z</time>
      </trkpt>
      <trkpt lat="46.367834" lon="6.482950">
        <ele>445.016</ele>
        <time>2018-07-01T08:52:23Z</time>
      </trkpt>
      <trkpt lat="46.367834" lon="6.482950">
        <ele>445.038</ele>
        <time>2018-07-01T08:52:43Z</time>
      </trkpt>
      <trkpt lat="46.367550" lon="6.482598">
        <ele>445.024</ele>
        <time>2018-07-01T08:53:03Z</time>
      </trkpt>
      <trkpt lat="46.367550" lon="6.482598">
        <ele>445.056</ele>
        <time>2018-07-01T08:53:23Z</time>
      </trkpt>
      <trkpt lat="46.367178" lon="6.482588">
        <ele>445.023</ele>
        <time>2018-07-01T08:53:43Z</time>
      </trkpt>
      <trkpt lat="46.367178" lon="6.482588">
        <ele>445.069</ele>
        <time>2018-07-01T08:54:03Z</time>
      </trkpt>
      <trkpt lat="46.366762" lon="6.481496">
        <ele>445.084</ele>
        <time>2018-07-01T08:54:23Z</time>
      </trkpt>
      <trkpt lat="46.366762" lon="6.481496">
        <ele>445.054</ele>
        <time>2018-07-01T08:54:43Z</time>
      </trkpt>
      <trkpt lat="46.365519" lon="6.481260">
        <ele>440.956</ele>
        <time>2018-07-01T08:55:03Z</time>
      </trkpt>
      <trkpt lat="46.365519" lon="6.481260">
        <ele>440.911</ele>
        <time>2018-07-01T08:55:23Z</time>
      </trkpt>
      <trkpt lat="46.363495" lon="6.481258">
        <ele>454.808</ele>
        <time>2018-07-01T08:55:43Z</time>
      </trkpt>
      <trkpt lat="46.363495" lon="6.481258">
        <ele>454.857</ele>
        <time>2018-07-01T08:56:03Z</time>
      </trkpt>
      <trkpt lat="46.362716" lon="6.482222">
        <ele>456.693</ele>
        <time>2018-07-01T08:56:23Z</time>
      </trkpt>
      <trkpt lat="46.362716" lon="6.482222">
        <ele>456.625</ele>
        <time>2018-07-01T08:56:43Z</time>
      </trkpt>
      <trkpt lat="46.362195" lon="6.482565">
        <ele>451.631</ele>
        <time>2018-07-01T08:57:03Z</time>
      </trkpt>
      <trkpt lat="46.362195" lon="6.482565">
        <ele>451.683</ele>
        <time>2018-07-01T08:57:23Z</time>
      </trkpt>
      <trkpt lat="46.361467" lon="6.483903">
        <ele>452.290</ele>
        <time>2018-07-01T08:57:43Z</time>
      </trkpt>
      <trkpt lat="46.361467" lon="6.483903">
        <ele>452.256</ele>
        <time>2018-07-01T08:58:03Z</time>
      </trkpt>
      <trkpt lat="46.359880" lon="6.484892">
        <ele>470.831</ele>
        <time>2018-07-01T08:58:23Z</time>
      </trkpt>
      <trkpt lat="46.359880" lon="6.484892">
        <ele>470.896</ele>
        <time>2018-07-01T08:58:43Z</time>
      </trkpt>
      <trkpt lat="46.357024" lon="6.488333">
        <ele>485.031</ele>
        <time>2018-07-01T08:59:03Z</time>
      </trkpt>
      <trkpt lat="46.357024" lon="6.488333">
        <ele>485.024</ele>
        <time>2018-07-01T08:59:23Z</time>
      </trkpt>
      <trkpt lat="46.355703" lon="6.489665">
        <ele>490.308</ele>
        <time>2018-07-01T08:59:43Z</time>
      </trkpt>
      <trkpt lat="46.355703" lon="6.489665">
        <ele>490.341</ele>
        <time>2018-07-01T09:00:03Z</time>
      </trkpt>
      <trkpt lat="46.355395" lon="6.490244">
        <ele>491.297</ele>
        <time>2018-07-01T09:00:23Z</time>
      </trkpt>
      <trkpt lat="46.355395" lon="6.490244">
        <ele>491.219</ele>
        <time>2018-07-01T09:00:43Z</time>
      </trkpt>
      <trkpt lat="46.355350" lon="6.491185">
        <ele>492.585</ele>
        <time>2018-07-01T09:01:03Z</time>
      </trkpt>
      <trkpt lat="46.355350" lon="6.491185">
        <ele>492.517</ele>
        <time>2018-07-01T09:01:23Z</time>
      </trkpt>
      <trkpt lat="46.355008" lon="6.491653">
        <ele>499.124</ele>
        <time>2018-07-01T09:01:43Z</time>
      </trkpt>
      <trkpt lat="46.355008" lon="6.491653">
        <ele>499.160</ele>
        <time>2018-07-01T09:02:03Z</time>
      </trkpt>
      <trkpt lat="46.354196" lon="6.491877">
        <ele>505.465</ele>
        <time>2018-07-01T09:02:23Z</time>
      </trkpt>
      <trkpt lat="46.354196" lon="6.491877">
        <ele>505.494</ele>
        <time>2018-07-01T09:02:43Z</time>
      </trkpt>
      <trkpt lat="46.353649" lon="6.492441">
        <ele>500.957</ele>
        <time>2018-07-01T09:03:03Z</time>
      </trkpt>
      <trkpt lat="46.353649" lon="6.492441">
        <ele>500.922</ele>
        <time>2018-07-01T09:03:23Z</time>
      </trkpt>
      <trkpt lat="46.353626" lon="6.492591">
        <ele>500.708</ele>
        <time>2018-07-01T09:03:43Z</time>
      </trkpt>
      <trkpt lat="46.353626" lon="6.492591">
        <ele>500.731</ele>
        <time>2018-07-01T09:04:03Z</time>
      </trkpt>
      <trkpt lat="46.354118" lon="6.492312">
        <ele>499.457</ele>
        <time>2018-07-01T09:04:23Z</time>
      </trkpt>
      <trkpt lat="46.354118" lon="6.492312">
        <ele>499.469</ele>
        <time>2018-07-01T09:04:43Z</time>
      </trkpt>
      <trkpt lat="46.354343" lon="6.492314">
        <ele>499.375</ele>
        <time>2018-07-01T09:05:03Z</time>
      </trkpt>
      <trkpt lat="46.354343" lon="6.492314">
        <ele>499.367</ele>
        <time>2018-07-01T09:05:23Z</time>
      </trkpt>
      <trkpt lat="46.354782" lon="6.492652">
        <ele>499.714</ele>
        <time>2018-07-01T09:05:43Z</time>
      </trkpt>
      <trkpt lat="46.354782" lon="6.492652">
        <ele>499.730</ele>
        <time>2018-07-01T09:06:03Z</time>
      </trkpt>
      <trkpt lat="46.355726" lon="6.492930">
        <ele>494.985</ele>
        <time>2018-07-01T09:06:23Z</time>
      </trkpt>
      <trkpt lat="46.355726" lon="6.492930">
        <ele>494.988</ele>
        <time>2018-07-01T09:06:43Z</time>
      </trkpt>
      <trkpt lat="46.356992" lon="6.494108">
        <ele>489.024</ele>
        <time>2018-07-01T09:07:03Z</time>
      </trkpt>
      <trkpt lat="46.356992" lon="6.494108">
        <ele>489.026</ele>
        <time>2018-07-01T09:07:23Z</time>
      </trkpt>
      <trkpt lat="46.356755" lon="6.494998">
        <ele>500.808</ele>
        <time>2018-07-01T09:07:43Z</time>
      </trkpt>
      <trkpt lat="46.356755" lon="6.494998">
        <ele>500.870</ele>
        <time>2018-07-01T09:08:03Z</time>
      </trkpt>
      <trkpt lat="46.357305" lon="6.496868">
        <ele>521.156</ele>
        <time>2018-07-01T09:08:23Z</time>
      </trkpt>
      <trkpt lat="46.357305" lon="6.496868">
        <ele>521.128</ele>
        <time>2018-07-01T09:08:43Z</time>
      </trkpt>
      <trkpt lat="46.357763" lon="6.497798">
        <ele>526.614</ele>
        <time>2018-07-01T09:09:03Z</time>
      </trkpt>
      <trkpt lat="46.357763" lon="6.497798">
        <ele>526.676</ele>
        <time>2018-07-01T09:09:23Z</time>
      </trkpt>
      <trkpt lat="46.357121" lon="6.499443">
        <ele>555.123</ele>
        <time>2018-07-01T09:09:43Z</time>
      </trkpt>
      <trkpt lat="46.357121" lon="6.499443">
        <ele>555.119</ele>
        <time>2018-07-01T09:10:03Z</time>
      </trkpt>
      <trkpt lat="46.357317" lon="6.500096">
        <ele>557.594</ele>
        <time>2018-07-01T09:10:23Z</time>
      </trkpt>
      <trkpt lat="46.357317" lon="6.500096">
        <ele>557.582</ele>
        <time>2018-07-01T09:10:43Z</time>
      </trkpt>
      <trkpt lat="46.356387" lon="6.500852">
        <ele>565.143</ele>
        <time>2018-07-01T09:11:03Z</time>
      </trkpt>
      <trkpt lat="46.356387" lon="6.500852">
        <ele>565.117</ele>
        <time>2018-07-01T09:11:23Z</time>
      </trkpt>
      <trkpt lat="46.356248" lon="6.500908">
        <ele>565.308</ele>
        <time>2018-07-01T09:11:43Z</time>
      </trkpt>
      <trkpt lat="46.356248" lon="6.500908">
        <ele>565.310</ele>
        <time>2018-07-01T09:12:03Z</time>
      </trkpt>
      <trkpt lat="46.356413" lon="6.501225">
        <ele>566.466</ele>
        <time>2018-07-01T09:12:23Z</time>
      </trkpt>
      <trkpt lat="46.356413" lon="6.501225">
        <ele>566.478</ele>
        <time>2018-07-01T09:12:43Z</time>
      </trkpt>
      <trkpt lat="46.356470" lon="6.501327">
        <ele>566.864</ele>
        <time>2018-07-01T09:13:03Z</time>
      </trkpt>
      <trkpt lat="46.356470" lon="6.501327">
        <ele>566.866</ele>
        <time>2018-07-01T09:13:23Z</time>
      </trkpt>
      <trkpt lat="46.356566" lon="6.501391">
        <ele>567.023</ele>
        <time>2018-07-01T09:13:43Z</time>
      </trkpt>
      <trkpt lat="46.356566" lon="6.501391">
        <ele>567.089</ele>
        <time>2018-07-01T09:14:03Z</time>
      </trkpt>
      <trkpt lat="46.356776" lon="6.501666">
        <ele>568.664</ele>
        <time>2018-07-01T09:14:23Z</time>
      </trkpt>
      <trkpt lat="46.356776" lon="6.501666">
        <ele>568.665</ele>
        <time>2018-07-01T09:14:43Z</time>
      </trkpt>
      <trkpt lat="46.356112" lon="6.501715">
        <ele>577.468</ele>
        <time>2018-07-01T09:15:03Z</time>
      </trkpt>
      <trkpt lat="46.356112" lon="6.501715">
        <ele>577.414</ele>
        <time>2018-07-01T09:15:23Z</time>
      </trkpt>
      <trkpt lat="46.355103" lon="6.500855">
        <ele>588.108</ele>
        <time>2018-07-01T09:15:43Z</time>
      </trkpt>
      <trkpt lat="46.355103" lon="6.500855">
        <ele>588.148</ele>
        <time>2018-07-01T09:16:03Z</time>
      </trkpt>
      <trkpt lat="46.354634" lon="6.500895">
        <ele>596.944</ele>
        <time>2018-07-01T09:16:23Z</time>
      </trkpt>
      <trkpt lat="46.354634" lon="6.500895">
        <ele>596.986</ele>
        <time>2018-07-01T09:16:43Z</time>
      </trkpt>
      <trkpt lat="46.355537" lon="6.501923">
        <ele>595.172</ele>
        <time>2018-07-01T09:17:03Z</time>
      </trkpt>
      <trkpt lat="46.355537" lon="6.501923">
        <ele>595.164</ele>
        <time>2018-07-01T09:17:23Z</time>
      </trkpt>
      <trkpt lat="46.356242" lon="6.503482">
        <ele>600.021</ele>
        <time>2018-07-01T09:17:43Z</time>
      </trkpt>
      <trkpt lat="46.356242" lon="6.503482">
        <ele>600.037</ele>
        <time>2018-07-01T09:18:03Z</time>
      </trkpt>
      <trkpt lat="46.356168" lon="6.503733">
        <ele>599.752</ele>
        <time>2018-07-01T09:18:23Z</time>
      </trkpt>
      <trkpt lat="46.356168" lon="6.503733">
        <ele>599.791</ele>
        <time>2018-07-01T09:18:43Z</time>
      </trkpt>
      <trkpt lat="46.356376" lon="6.504279">
        <ele>600.081</ele>
        <time>2018-07-01T09:19:03Z</time>
      </trkpt>
      <trkpt lat="46.356376" lon="6.504279">
        <ele>600.019</ele>
        <time>2018-07-01T09:19:23Z</time>
      </trkpt>
      <trkpt lat="46.355941" lon="6.506598">
        <ele>594.308</ele>
        <time>2018-07-01T09:19:43Z</time>
      </trkpt>
      <trkpt lat="46.355941" lon="6.506598">
        <ele>594.321</ele>
        <time>2018-07-01T09:20:03Z</time>
      </trkpt>
      <trkpt lat="46.356061" lon="6.507827">
        <ele>598.637</ele>
        <time>2018-07-01T09:20:23Z</time>
      </trkpt>
      <trkpt lat="46.356061" lon="6.507827">
        <ele>598.699</ele>
        <time>2018-07-01T09:20:43Z</time>
      </trkpt>
      <trkpt lat="46.355952" lon="6.508947">
        <ele>590.585</ele>
        <time>2018-07-01T09:21:03Z</time>
      </trkpt>
      <trkpt lat="46.355952" lon="6.508947">
        <ele>590.537</ele>
        <time>2018-07-01T09:21:23Z</time>
      </trkpt>
      <trkpt lat="46.356080" lon="6.509337">
        <ele>593.514</ele>
        <time>2018-07-01T09:21:43Z</time>
      </trkpt>
      <trkpt lat="46.356080" lon="6.509337">
        <ele>593.530</ele>
        <time>2018-07-01T09:22:03Z</time>
      </trkpt>
      <trkpt lat="46.356817" lon="6.510178">
        <ele>592.155</ele>
        <time>2018-07-01T09:22:23Z</time>
      </trkpt>
      <trkpt lat="46.356817" lon="6.510178">
        <ele>592.125</ele>
        <time>2018-07-01T09:22:43Z</time>
      </trkpt>
      <trkpt lat="46.356977" lon="6.511285">
        <ele>596.826</ele>
        <time>2018-07-01T09:23:03Z</time>
      </trkpt>
      <trkpt lat="46.356977" lon="6.511285">
        <ele>596.808</ele>
        <time>2018-07-01T09:23:23Z</time>
      </trkpt>
      <trkpt lat="46.357282" lon="6.511834">
        <ele>599.508</ele>
        <time>2018-07-01T09:23:43Z</time>
      </trkpt>
      <trkpt lat="46.357282" lon="6.511834">
        <ele>599.574</ele>
        <time>2018-07-01T09:24:03Z</time>
      </trkpt>
      <trkpt lat="46.357779" lon="6.511754">
        <ele>602.670</ele>
        <time>2018-07-01T09:24:23Z</time>
      </trkpt>
      <trkpt lat="46.357779" lon="6.511754">
        <ele>602.612</ele>
        <time>2018-07-01T09:24:43Z</time>
      </trkpt>
      <trkpt lat="46.357995" lon="6.511532">
        <ele>604.528</ele>
        <time>2018-07-01T09:25:03Z</time>
      </trkpt>
      <trkpt lat="46.357995" lon="6.511532">
        <ele>604.560</ele>
        <time>2018-07-01T09:25:23Z</time>
      </trkpt>
      <trkpt lat="46.358042" lon="6.510119">
        <ele>602.257</ele>
        <time>2018-07-01T09:25:43Z</time>
      </trkpt>
      <trkpt lat="46.358042" lon="6.510119">
        <ele>602.263</ele>
        <time>2018-07-01T09:26:03Z</time>
      </trkpt>
      <trkpt lat="46.358275" lon="6.510090">
        <ele>606.358</ele>
        <time>2018-07-01T09:26:23Z</time>
      </trkpt>
      <trkpt lat="46.358275" lon="6.510090">
        <ele>606.365</ele>
        <time>2018-07-01T09:26:43Z</time>
      </trkpt>
      <trkpt lat="46.358307" lon="6.510223">
        <ele>607.368</ele>
        <time>2018-07-01T09:27:03Z</time>
      </trkpt>
      <trkpt lat="46.358307" lon="6.510223">
        <ele>607.314</ele>
        <time>2018-07-01T09:27:23Z</time>
      </trkpt>
      <trkpt lat="46.358258" lon="6.511844">
        <ele>609.308</ele>
        <time>2018-07-01T09:27:43Z</time>
      </trkpt>
      <trkpt lat="46.358258" lon="6.511844">
        <ele>609.328</ele>
        <time>2018-07-01T09:28:03Z</time>
      </trkpt>
      <trkpt lat="46.357669" lon="6.513192">
        <ele>610.044</ele>
        <time>2018-07-01T09:28:23Z</time>
      </trkpt>
      <trkpt lat="46.357669" lon="6.513192">
        <ele>610.046</ele>
        <time>2018-07-01T09:28:43Z</time>
      </trkpt>
      <trkpt lat="46.356754" lon="6.514628">
        <ele>602.832</ele>
        <time>2018-07-01T09:29:03Z</time>
      </trkpt>
      <trkpt lat="46.356754" lon="6.514628">
        <ele>602.864</ele>
        <time>2018-07-01T09:29:23Z</time>
      </trkpt>
      <trkpt lat="46.358103" lon="6.514557">
        <ele>600.061</ele>
        <time>2018-07-01T09:29:43Z</time>
      </trkpt>
      <trkpt lat="46.358103" lon="6.514557">
        <ele>600.067</ele>
        <time>2018-07-01T09:30:03Z</time>
      </trkpt>
      <trkpt lat="46.358548" lon="6.515661">
        <ele>595.922</ele>
        <time>2018-07-01T09:30:23Z</time>
      </trkpt>
      <trkpt lat="46.358548" lon="6.515661">
        <ele>595.967</ele>
        <time>2018-07-01T09:30:43Z</time>
      </trkpt>
      <trkpt lat="46.358116" lon="6.516034">
        <ele>604.981</ele>
        <time>2018-07-01T09:31:03Z</time>
      </trkpt>
      <trkpt lat="46.358116" lon="6.516034">
        <ele>604.919</ele>
        <time>2018-07-01T09:31:23Z</time>
      </trkpt>
      <trkpt lat="46.357213" lon="6.516158">
        <ele>610.008</ele>
        <time>2018-07-01T09:31:43Z</time>
      </trkpt>
      <trkpt lat="46.357213" lon="6.516158">
        <ele>610.088</ele>
        <time>2018-07-01T09:32:03Z</time>
      </trkpt>
      <trkpt lat="46.356551" lon="6.516837">
        <ele>610.044</ele>
        <time>2018-07-01T09:32:23Z</time>
      </trkpt>
      <trkpt lat="46.356551" lon="6.516837">
        <ele>610.026</ele>
        <time>2018-07-01T09:32:43Z</time>
      </trkpt>
      <trkpt lat="46.356078" lon="6.516894">
        <ele>610.012</ele>
        <time>2018-07-01T09:33:03Z</time>
      </trkpt>
      <trkpt lat="46.356078" lon="6.516894">
        <ele>610.064</ele>
        <time>2018-07-01T09:33:23Z</time>
      </trkpt>
      <trkpt lat="46.355955" lon="6.517111">
        <ele>610.021</ele>
        <time>2018-07-01T09:33:43Z</time>
      </trkpt>
      <trkpt lat="46.355955" lon="6.517111">
        <ele>610.027</ele>
        <time>2018-07-01T09:34:03Z</time>
      </trkpt>
      <trkpt lat="46.355099" lon="6.517538">
        <ele>610.062</ele>
        <time>2018-07-01T09:34:23Z</time>
      </trkpt>
      <trkpt lat="46.355099" lon="6.517538">
        <ele>610.041</ele>
        <time>2018-07-01T09:34:43Z</time>
      </trkpt>
      <trkpt lat="46.353888" lon="6.518043">
        <ele>610.081</ele>
        <time>2018-07-01T09:35:03Z</time>
      </trkpt>
      <trkpt lat="46.353888" lon="6.518043">
        <ele>610.009</ele>
        <time>2018-07-01T09:35:23Z</time>
      </trkpt>
      <trkpt lat="46.353613" lon="6.517630">
        <ele>611.008</ele>
        <time>2018-07-01T09:35:43Z</time>
      </trkpt>
      <trkpt lat="46.353613" lon="6.517630">
        <ele>611.076</ele>
        <time>2018-07-01T09:36:03Z</time>
      </trkpt>
      <trkpt lat="46.352121" lon="6.519038">
        <ele>619.362</ele>
        <time>2018-07-01T09:36:23Z</time>
      </trkpt>
      <trkpt lat="46.352121" lon="6.519038">
        <ele>619.314</ele>
        <time>2018-07-01T09:36:43Z</time>
      </trkpt>
      <trkpt lat="46.350615" lon="6.520028">
        <ele>627.790</ele>
        <time>2018-07-01T09:37:03Z</time>
      </trkpt>
      <trkpt lat="46.350615" lon="6.520028">
        <ele>627.742</ele>
        <time>2018-07-01T09:37:23Z</time>
      </trkpt>
      <trkpt lat="46.350140" lon="6.521155">
        <ele>629.579</ele>
        <time>2018-07-01T09:37:43Z</time>
      </trkpt>
      <trkpt lat="46.350140" lon="6.521155">
        <ele>629.595</ele>
        <time>2018-07-01T09:38:03Z</time>
      </trkpt>
      <trkpt lat="46.350564" lon="6.522091">
        <ele>621.970</ele>
        <time>2018-07-01T09:38:23Z</time>
      </trkpt>
      <trkpt lat="46.350564" lon="6.522091">
        <ele>621.983</ele>
        <time>2018-07-01T09:38:43Z</time>
      </trkpt>
      <trkpt lat="46.349907" lon="6.524111">
        <ele>616.325</ele>
        <time>2018-07-01T09:39:03Z</time>
      </trkpt>
      <trkpt lat="46.349907" lon="6.524111">
        <ele>616.317</ele>
        <time>2018-07-01T09:39:23Z</time>
      </trkpt>
      <trkpt lat="46.348978" lon="6.524718">
        <ele>632.808</ele>
        <time>2018-07-01T09:39:43Z</time>
      </trkpt>
      <trkpt lat="46.348978" lon="6.524718">
        <ele>632.870</ele>
        <time>2018-07-01T09:40:03Z</time>
      </trkpt>
      <trkpt lat="46.348481" lon="6.525563">
        <ele>633.596</ele>
        <time>2018-07-01T09:40:23Z</time>
      </trkpt>
      <trkpt lat="46.348481" lon="6.525563">
        <ele>633.598</ele>
        <time>2018-07-01T09:40:43Z</time>
      </trkpt>
      <trkpt lat="46.348244" lon="6.528414">
        <ele>641.234</ele>
        <time>2018-07-01T09:41:03Z</time>
      </trkpt>
      <trkpt lat="46.348244" lon="6.528414">
        <ele>641.276</ele>
        <time>2018-07-01T09:41:23Z</time>
      </trkpt>
      <trkpt lat="46.347784" lon="6.528660">
        <ele>636.113</ele>
        <time>2018-07-01T09:41:43Z</time>
      </trkpt>
      <trkpt lat="46.347784" lon="6.528660">
        <ele>636.199</ele>
        <time>2018-07-01T09:42:03Z</time>
      </trkpt>
      <trkpt lat="46.346838" lon="6.527925">
        <ele>640.864</ele>
        <time>2018-07-01T09:42:23Z</time>
      </trkpt>
      <trkpt lat="46.346838" lon="6.527925">
        <ele>640.849</ele>
        <time>2018-07-01T09:42:43Z</time>
      </trkpt>
      <trkpt lat="46.346336" lon="6.528266">
        <ele>635.302</ele>
        <time>2018-07-01T09:43:03Z</time>
      </trkpt>
      <trkpt lat="46.346336" lon="6.528266">
        <ele>635.322</ele>
        <time>2018-07-01T09:43:23Z</time>
      </trkpt>
      <trkpt lat="46.345772" lon="6.528255">
        <ele>637.508</ele>
        <time>2018-07-01T09:43:43Z</time>
      </trkpt>
      <trkpt lat="46.345772" lon="6.528255">
        <ele>637.596</ele>
        <time>2018-07-01T09:44:03Z</time>
      </trkpt>
      <trkpt lat="46.345254" lon="6.529235">
        <ele>633.322</ele>
        <time>2018-07-01T09:44:23Z</time>
      </trkpt>
      <trkpt lat="46.345254" lon="6.529235">
        <ele>633.364</ele>
        <time>2018-07-01T09:44:43Z</time>
      </trkpt>
      <trkpt lat="46.344687" lon="6.529302">
        <ele>644.910</ele>
        <time>2018-07-01T09:45:03Z</time>
      </trkpt>
      <trkpt lat="46.344687" lon="6.529302">
        <ele>644.962</ele>
        <time>2018-07-01T09:45:23Z</time>
      </trkpt>
      <trkpt lat="46.344711" lon="6.530047">
        <ele>627.989</ele>
        <time>2018-07-01T09:45:43Z</time>
      </trkpt>
      <trkpt lat="46.344711" lon="6.530047">
        <ele>627.925</ele>
        <time>2018-07-01T09:46:03Z</time>
      </trkpt>
      <trkpt lat="46.344153" lon="6.530362">
        <ele>640.330</ele>
        <time>2018-07-01T09:46:23Z</time>
      </trkpt>
      <trkpt lat="46.344153" lon="6.530362">
        <ele>640.346</ele>
        <time>2018-07-01T09:46:43Z</time>
      </trkpt>
      <trkpt lat="46.344121" lon="6.530634">
        <ele>641.188</ele>
        <time>2018-07-01T09:47:03Z</time>
      </trkpt>
      <trkpt lat="46.344121" lon="6.530634">
        <ele>641.116</ele>
        <time>2018-07-01T09:47:23Z</time>
      </trkpt>
      <trkpt lat="46.344800" lon="6.531873">
        <ele>654.508</ele>
        <time>2018-07-01T09:47:43Z</time>
      </trkpt>
      <trkpt lat="46.344800" lon="6.531873">
        <ele>654.586</ele>
        <time>2018-07-01T09:48:03Z</time>
      </trkpt>
      <trkpt lat="46.344722" lon="6.531957">
        <ele>656.722</ele>
        <time>2018-07-01T09:48:23Z</time>
      </trkpt>
      <trkpt lat="46.344722" lon="6.531957">
        <ele>656.714</ele>
        <time>2018-07-01T09:48:43Z</time>
      </trkpt>
      <trkpt lat="46.344140" lon="6.531815">
        <ele>668.830</ele>
        <time>2018-07-01T09:49:03Z</time>
      </trkpt>
      <trkpt lat="46.344140" lon="6.531815">
        <ele>668.842</ele>
        <time>2018-07-01T09:49:23Z</time>
      </trkpt>
      <trkpt lat="46.343043" lon="6.530705">
        <ele>688.339</ele>
        <time>2018-07-01T09:49:43Z</time>
      </trkpt>
      <trkpt lat="46.343043" lon="6.530705">
        <ele>688.315</ele>
        <time>2018-07-01T09:50:03Z</time>
      </trkpt>
      <trkpt lat="46.343058" lon="6.529944">
        <ele>683.790</ele>
        <time>2018-07-01T09:50:23Z</time>
      </trkpt>
      <trkpt lat="46.343058" lon="6.529944">
        <ele>683.785</ele>
        <time>2018-07-01T09:50:43Z</time>
      </trkpt>
      <trkpt lat="46.342949" lon="6.529668">
        <ele>688.489</ele>
        <time>2018-07-01T09:51:03Z</time>
      </trkpt>
      <trkpt lat="46.342949" lon="6.529668">
        <ele>688.417</ele>
        <time>2018-07-01T09:51:23Z</time>
      </trkpt>
      <trkpt lat="46.340730" lon="6.531327">
        <ele>716.108</ele>
        <time>2018-07-01T09:51:43Z</time>
      </trkpt>
      <trkpt lat="46.340730" lon="6.531327">
        <ele>716.140</ele>
        <time>2018-07-01T09:52:03Z</time>
      </trkpt>
      <trkpt lat="46.339897" lon="6.532221">
        <ele>720.036</ele>
        <time>2018-07-01T09:52:23Z</time>
      </trkpt>
      <trkpt lat="46.339897" lon="6.532221">
        <ele>720.048</ele>
        <time>2018-07-01T09:52:43Z</time>
      </trkpt>
      <trkpt lat="46.338916" lon="6.535598">
        <ele>737.064</ele>
        <time>2018-07-01T09:53:03Z</time>
      </trkpt>
      <trkpt lat="46.338916" lon="6.535598">
        <ele>737.086</ele>
        <time>2018-07-01T09:53:23Z</time>
      </trkpt>
      <trkpt lat="46.339085" lon="6.537472">
        <ele>750.263</ele>
        <time>2018-07-01T09:53:43Z</time>
      </trkpt>
      <trkpt lat="46.339085" lon="6.537472">
        <ele>750.229</ele>
        <time>2018-07-01T09:54:03Z</time>
      </trkpt>
      <trkpt lat="46.339664" lon="6.540067">
        <ele>762.974</ele>
        <time>2018-07-01T09:54:23Z</time>
      </trkpt>
      <trkpt lat="46.339664" lon="6.540067">
        <ele>762.984</ele>
        <time>2018-07-01T09:54:43Z</time>
      </trkpt>
      <trkpt lat="46.339429" lon="6.542232">
        <ele>784.207</ele>
        <time>2018-07-01T09:55:03Z</time>
      </trkpt>
      <trkpt lat="46.339429" lon="6.542232">
        <ele>784.217</ele>
        <time>2018-07-01T09:55:23Z</time>
      </trkpt>
      <trkpt lat="46.339482" lon="6.544370">
        <ele>775.908</ele>
        <time>2018-07-01T09:55:43Z</time>
      </trkpt>
      <trkpt lat="46.339482" lon="6.544370">
        <ele>775.970</ele>
        <time>2018-07-01T09:56:03Z</time>
      </trkpt>
      <trkpt lat="46.339186" lon="6.544878">
        <ele>778.716</ele>
        <time>2018-07-01T09:56:23Z</time>
      </trkpt>
      <trkpt lat="46.339186" lon="6.544878">
        <ele>778.718</ele>
        <time>2018-07-01T09:56:43Z</time>
      </trkpt>
      <trkpt lat="46.337560" lon="6.545705">
        <ele>782.354</ele>
        <time>2018-07-01T09:57:03Z</time>
      </trkpt>
      <trkpt lat="46.337560" lon="6.545705">
        <ele>782.386</ele>
        <time>2018-07-01T09:57:23Z</time>
      </trkpt>
      <trkpt lat="46.337554" lon="6.545717">
        <ele>782.363</ele>
        <time>2018-07-01T09:57:43Z</time>
      </trkpt>
      <trkpt lat="46.337554" lon="6.545717">
        <ele>782.329</ele>
        <time>2018-07-01T09:58:03Z</time>
      </trkpt>
      <trkpt lat="46.337546" lon="6.545729">
        <ele>782.594</ele>
        <time>2018-07-01T09:58:23Z</time>
      </trkpt>
      <trkpt lat="46.337546" lon="6.545729">
        <ele>782.567</ele>
        <time>2018-07-01T09:58:43Z</time>
      </trkpt>
      <trkpt lat="46.337543" lon="6.545747">
        <ele>782.381</ele>
        <time>2018-07-01T09:59:03Z</time>
      </trkpt>
      <trkpt lat="46.337543" lon="6.545747">
        <ele>782.319</ele>
        <time>2018-07-01T09:59:23Z</time>
      </trkpt>
      <trkpt lat="46.337507" lon="6.545801">
        <ele>783.108</ele>
        <time>2018-07-01T09:59:43Z</time>
      </trkpt>
      <trkpt lat="46.337507" lon="6.545801">
        <ele>783.138</ele>
        <time>2018-07-01T10:00:03Z</time>
      </trkpt>
      <trkpt lat="46.337482" lon="6.545917">
        <ele>784.724</ele>
        <time>2018-07-01T10:00:23Z</time>
      </trkpt>
      <trkpt lat="46.337482" lon="6.545917">
        <ele>784.746</ele>
        <time>2018-07-01T10:00:43Z</time>
      </trkpt>
      <trkpt lat="46.337480" lon="6.545935">
        <ele>785.062</ele>
        <time>2018-07-01T10:01:03Z</time>
      </trkpt>
      <trkpt lat="46.337480" lon="6.545935">
        <ele>785.064</ele>
        <time>2018-07-01T10:01:23Z</time>
      </trkpt>
      <trkpt lat="46.337476" lon="6.545970">
        <ele>785.681</ele>
        <time>2018-07-01T10:01:43Z</time>
      </trkpt>
      <trkpt lat="46.337476" lon="6.545970">
        <ele>785.617</ele>
        <time>2018-07-01T10:02:03Z</time>
      </trkpt>
      <trkpt lat="46.337554" lon="6.546458">
        <ele>788.152</ele>
        <time>2018-07-01T10:02:23Z</time>
      </trkpt>
      <trkpt lat="46.337554" lon="6.546458">
        <ele>788.112</ele>
        <time>2018-07-01T10:02:43Z</time>
      </trkpt>
      <trkpt lat="46.337666" lon="6.546780">
        <ele>782.932</ele>
        <time>2018-07-01T10:03:03Z</time>
      </trkpt>
      <trkpt lat="46.337666" lon="6.546780">
        <ele>782.905</ele>
        <time>2018-07-01T10:03:23Z</time>
      </trkpt>
      <trkpt lat="46.337752" lon="6.547020">
        <ele>777.308</ele>
        <time>2018-07-01T10:03:43Z</time>
      </trkpt>
      <trkpt lat="46.337752" lon="6.547020">
        <ele>777.343</ele>
        <time>2018-07-01T10:04:03Z</time>
      </trkpt>
      <trkpt lat="46.337577" lon="6.547376">
        <ele>778.719</ele>
        <time>2018-07-01T10:04:23Z</time>
      </trkpt>
      <trkpt lat="46.337577" lon="6.547376">
        <ele>778.791</ele>
        <time>2018-07-01T10:04:43Z</time>
      </trkpt>
      <trkpt lat="46.337465" lon="6.547402">
        <ele>783.587</ele>
        <time>2018-07-01T10:05:03Z</time>
      </trkpt>
      <trkpt lat="46.337465" lon="6.547402">
        <ele>783.549</ele>
        <time>2018-07-01T10:05:23Z</time>
      </trkpt>
      <trkpt lat="46.337443" lon="6.547545">
        <ele>783.596</ele>
        <time>2018-07-01T10:05:43Z</time>
      </trkpt>
      <trkpt lat="46.337443" lon="6.547545">
        <ele>783.572</ele>
        <time>2018-07-01T10:06:03Z</time>
      </trkpt>
      <trkpt lat="46.337685" lon="6.547986">
        <ele>778.727</ele>
        <time>2018-07-01T10:06:23Z</time>
      </trkpt>
      <trkpt lat="46.337685" lon="6.547986">
        <ele>778.714</ele>
        <time>2018-07-01T10:06:43Z</time>
      </trkpt>
      <trkpt lat="46.337714" lon="6.548414">
        <ele>783.054</ele>
        <time>2018-07-01T10:07:03Z</time>
      </trkpt>
      <trkpt lat="46.337714" lon="6.548414">
        <ele>783.009</ele>
        <time>2018-07-01T10:07:23Z</time>
      </trkpt>
      <trkpt lat="46.337319" lon="6.548662">
        <ele>793.108</ele>
        <time>2018-07-01T10:07:43Z</time>
      </trkpt>
      <trkpt lat="46.337319" lon="6.548662">
        <ele>793.183</ele>
        <time>2018-07-01T10:08:03Z</time>
      </trkpt>
      <trkpt lat="46.337360" lon="6.548793">
        <ele>788.089</ele>
        <time>2018-07-01T10:08:23Z</time>
      </trkpt>
      <trkpt lat="46.337360" lon="6.548793">
        <ele>788.021</ele>
        <time>2018-07-01T10:08:43Z</time>
      </trkpt>
      <trkpt lat="46.337257" lon="6.549034">
        <ele>782.587</ele>
        <time>2018-07-01T10:09:03Z</time>
      </trkpt>
      <trkpt lat="46.337257" lon="6.549034">
        <ele>782.549</ele>
        <time>2018-07-01T10:09:23Z</time>
      </trkpt>
      <trkpt lat="46.336865" lon="6.549273">
        <ele>788.066</ele>
        <time>2018-07-01T10:09:43Z</time>
      </trkpt>
      <trkpt lat="46.336865" lon="6.549273">
        <ele>788.082</ele>
        <time>2018-07-01T10:10:03Z</time>
      </trkpt>
      <trkpt lat="46.336505" lon="6.550285">
        <ele>770.427</ele>
        <time>2018-07-01T10:10:23Z</time>
      </trkpt>
      <trkpt lat="46.336505" lon="6.550285">
        <ele>770.477</ele>
        <time>2018-07-01T10:10:43Z</time>
      </trkpt>
      <trkpt lat="46.336193" lon="6.550389">
        <ele>784.661</ele>
        <time>2018-07-01T10:11:03Z</time>
      </trkpt>
      <trkpt lat="46.336193" lon="6.550389">
        <ele>784.627</ele>
        <time>2018-07-01T10:11:23Z</time>
      </trkpt>
      <trkpt lat="46.336057" lon="6.550598">
        <ele>789.308</ele>
        <time>2018-07-01T10:11:43Z</time>
      </trkpt>
      <trkpt lat="46.336057" lon="6.550598">
        <ele>789.349</ele>
        <time>2018-07-01T10:12:03Z</time>
      </trkpt>
      <trkpt lat="46.336000" lon="6.551289">
        <ele>783.365</ele>
        <time>2018-07-01T10:12:23Z</time>
      </trkpt>
      <trkpt lat="46.336000" lon="6.551289">
        <ele>783.397</ele>
        <time>2018-07-01T10:12:43Z</time>
      </trkpt>
      <trkpt lat="46.336091" lon="6.551361">
        <ele>775.833</ele>
        <time>2018-07-01T10:13:03Z</time>
      </trkpt>
      <trkpt lat="46.336091" lon="6.551361">
        <ele>775.815</ele>
        <time>2018-07-01T10:13:23Z</time>
      </trkpt>
      <trkpt lat="46.336083" lon="6.551669">
        <ele>770.132</ele>
        <time>2018-07-01T10:13:43Z</time>
      </trkpt>
      <trkpt lat="46.336083" lon="6.551669">
        <ele>770.188</ele>
        <time>2018-07-01T10:14:03Z</time>
      </trkpt>
      <trkpt lat="46.335949" lon="6.551894">
        <ele>775.863</ele>
        <time>2018-07-01T10:14:23Z</time>
      </trkpt>
      <trkpt lat="46.335949" lon="6.551894">
        <ele>775.821</ele>
        <time>2018-07-01T10:14:43Z</time>
      </trkpt>
      <trkpt lat="46.335845" lon="6.552404">
        <ele>773.841</ele>
        <time>2018-07-01T10:15:03Z</time>
      </trkpt>
      <trkpt lat="46.335845" lon="6.552404">
        <ele>773.805</ele>
        <time>2018-07-01T10:15:23Z</time>
      </trkpt>
      <trkpt lat="46.335432" lon="6.552990">
        <ele>795.008</ele>
        <time>2018-07-01T10:15:43Z</time>
      </trkpt>
      <trkpt lat="46.335432" lon="6.552990">
        <ele>795.094</ele>
        <time>2018-07-01T10:16:03Z</time>
      </trkpt>
      <trkpt lat="46.335088" lon="6.553857">
        <ele>801.130</ele>
        <time>2018-07-01T10:16:23Z</time>
      </trkpt>
      <trkpt lat="46.335088" lon="6.553857">
        <ele>801.182</ele>
        <time>2018-07-01T10:16:43Z</time>
      </trkpt>
      <trkpt lat="46.335205" lon="6.554361">
        <ele>794.628</ele>
        <time>2018-07-01T10:17:03Z</time>
      </trkpt>
      <trkpt lat="46.335205" lon="6.554361">
        <ele>794.660</ele>
        <time>2018-07-01T10:17:23Z</time>
      </trkpt>
      <trkpt lat="46.335193" lon="6.554909">
        <ele>795.977</ele>
        <time>2018-07-01T10:17:43Z</time>
      </trkpt>
      <trkpt lat="46.335193" lon="6.554909">
        <ele>795.973</ele>
        <time>2018-07-01T10:18:03Z</time>
      </trkpt>
      <trkpt lat="46.335056" lon="6.555416">
        <ele>800.458</ele>
        <time>2018-07-01T10:18:23Z</time>
      </trkpt>
      <trkpt lat="46.335056" lon="6.555416">
        <ele>800.474</ele>
        <time>2018-07-01T10:18:43Z</time>
      </trkpt>
      <trkpt lat="46.334679" lon="6.555922">
        <ele>810.856</ele>
        <time>2018-07-01T10:19:03Z</time>
      </trkpt>
      <trkpt lat="46.334679" lon="6.555922">
        <ele>810.821</ele>
        <time>2018-07-01T10:19:23Z</time>
      </trkpt>
      <trkpt lat="46.334522" lon="6.556556">
        <ele>811.208</ele>
        <time>2018-07-01T10:19:43Z</time>
      </trkpt>
      <trkpt lat="46.334522" lon="6.556556">
        <ele>811.249</ele>
        <time>2018-07-01T10:20:03Z</time>
      </trkpt>
      <trkpt lat="46.334627" lon="6.556769">
        <ele>801.595</ele>
        <time>2018-07-01T10:20:23Z</time>
      </trkpt>
      <trkpt lat="46.334627" lon="6.556769">
        <ele>801.537</ele>
        <time>2018-07-01T10:20:43Z</time>
      </trkpt>
      <trkpt lat="46.334533" lon="6.557387">
        <ele>801.183</ele>
        <time>2018-07-01T10:21:03Z</time>
      </trkpt>
      <trkpt lat="46.334533" lon="6.557387">
        <ele>801.115</ele>
        <time>2018-07-01T10:21:23Z</time>
      </trkpt>
      <trkpt lat="46.334543" lon="6.557790">
        <ele>796.152</ele>
        <time>2018-07-01T10:21:43Z</time>
      </trkpt>
      <trkpt lat="46.334543" lon="6.557790">
        <ele>796.138</ele>
        <time>2018-07-01T10:22:03Z</time>
      </trkpt>
      <trkpt lat="46.334617" lon="6.557865">
        <ele>790.893</ele>
        <time>2018-07-01T10:22:23Z</time>
      </trkpt>
      <trkpt lat="46.334617" lon="6.557865">
        <ele>790.895</ele>
        <time>2018-07-01T10:22:43Z</time>
      </trkpt>
      <trkpt lat="46.334593" lon="6.558100">
        <ele>788.949</ele>
        <time>2018-07-01T10:23:03Z</time>
      </trkpt>
      <trkpt lat="46.334593" lon="6.558100">
        <ele>788.923</ele>
        <time>2018-07-01T10:23:23Z</time>
      </trkpt>
      <trkpt lat="46.334503" lon="6.558361">
        <ele>790.908</ele>
        <time>2018-07-01T10:23:43Z</time>
      </trkpt>
      <trkpt lat="46.334503" lon="6.558361">
        <ele>790.931</ele>
        <time>2018-07-01T10:24:03Z</time>
      </trkpt>
      <trkpt lat="46.334487" lon="6.558854">
        <ele>784.287</ele>
        <time>2018-07-01T10:24:23Z</time>
      </trkpt>
      <trkpt lat="46.334487" lon="6.558854">
        <ele>784.289</ele>
        <time>2018-07-01T10:24:43Z</time>
      </trkpt>
      <trkpt lat="46.334528" lon="6.559757">
        <ele>767.835</ele>
        <time>2018-07-01T10:25:03Z</time>
      </trkpt>
      <trkpt lat="46.334528" lon="6.559757">
        <ele>767.887</ele>
        <time>2018-07-01T10:25:23Z</time>
      </trkpt>
      <trkpt lat="46.334377" lon="6.560224">
        <ele>766.664</ele>
        <time>2018-07-01T10:25:43Z</time>
      </trkpt>
      <trkpt lat="46.334377" lon="6.560224">
        <ele>766.630</ele>
        <time>2018-07-01T10:26:03Z</time>
      </trkpt>
      <trkpt lat="46.334274" lon="6.560691">
        <ele>764.335</ele>
        <time>2018-07-01T10:26:23Z</time>
      </trkpt>
      <trkpt lat="46.334274" lon="6.560691">
        <ele>764.367</ele>
        <time>2018-07-01T10:26:43Z</time>
      </trkpt>
      <trkpt lat="46.334145" lon="6.561230">
        <ele>762.881</ele>
        <time>2018-07-01T10:27:03Z</time>
      </trkpt>
      <trkpt lat="46.334145" lon="6.561230">
        <ele>762.819</ele>
        <time>2018-07-01T10:27:23Z</time>
      </trkpt>
      <trkpt lat="46.334068" lon="6.561562">
        <ele>761.108</ele>
        <time>2018-07-01T10:27:43Z</time>
      </trkpt>
      <trkpt lat="46.334068" lon="6.561562">
        <ele>761.148</ele>
        <time>2018-07-01T10:28:03Z</time>
      </trkpt>
      <trkpt lat="46.333969" lon="6.562017">
        <ele>758.814</ele>
        <time>2018-07-01T10:28:23Z</time>
      </trkpt>
      <trkpt lat="46.333969" lon="6.562017">
        <ele>758.846</ele>
        <time>2018-07-01T10:28:43Z</time>
      </trkpt>
      <trkpt lat="46.333833" lon="6.562231">
        <ele>762.062</ele>
        <time>2018-07-01T10:29:03Z</time>
      </trkpt>
      <trkpt lat="46.333833" lon="6.562231">
        <ele>762.064</ele>
        <time>2018-07-01T10:29:23Z</time>
      </trkpt>
      <trkpt lat="46.333739" lon="6.562199">
        <ele>766.311</ele>
        <time>2018-07-01T10:29:43Z</time>
      </trkpt>
      <trkpt lat="46.333739" lon="6.562199">
        <ele>766.397</ele>
        <time>2018-07-01T10:30:03Z</time>
      </trkpt>
      <trkpt lat="46.333495" lon="6.562897">
        <ele>757.052</ele>
        <time>2018-07-01T10:30:23Z</time>
      </trkpt>
      <trkpt lat="46.333495" lon="6.562897">
        <ele>757.018</ele>
        <time>2018-07-01T10:30:43Z</time>
      </trkpt>
      <trkpt lat="46.333404" lon="6.562888">
        <ele>762.098</ele>
        <time>2018-07-01T10:31:03Z</time>
      </trkpt>
      <trkpt lat="46.333404" lon="6.562888">
        <ele>762.017</ele>
        <time>2018-07-01T10:31:23Z</time>
      </trkpt>
      <trkpt lat="46.333205" lon="6.563335">
        <ele>754.608</ele>
        <time>2018-07-01T10:31:43Z</time>
      </trkpt>
      <trkpt lat="46.333205" lon="6.563335">
        <ele>754.683</ele>
        <time>2018-07-01T10:32:03Z</time>
      </trkpt>
      <trkpt lat="46.333214" lon="6.563492">
        <ele>749.549</ele>
        <time>2018-07-01T10:32:23Z</time>
      </trkpt>
      <trkpt lat="46.333214" lon="6.563492">
        <ele>749.591</ele>
        <time>2018-07-01T10:32:43Z</time>
      </trkpt>
      <trkpt lat="46.332846" lon="6.564019">
        <ele>748.667</ele>
        <time>2018-07-01T10:33:03Z</time>
      </trkpt>
      <trkpt lat="46.332846" lon="6.564019">
        <ele>748.679</ele>
        <time>2018-07-01T10:33:23Z</time>
      </trkpt>
      <trkpt lat="46.332646" lon="6.564291">
        <ele>750.196</ele>
        <time>2018-07-01T10:33:43Z</time>
      </trkpt>
      <trkpt lat="46.332646" lon="6.564291">
        <ele>750.172</ele>
        <time>2018-07-01T10:34:03Z</time>
      </trkpt>
      <trkpt lat="46.332477" lon="6.564459">
        <ele>752.777</ele>
        <time>2018-07-01T10:34:23Z</time>
      </trkpt>
      <trkpt lat="46.332477" lon="6.564459">
        <ele>752.735</ele>
        <time>2018-07-01T10:34:43Z</time>
      </trkpt>
      <trkpt lat="46.332220" lon="6.564749">
        <ele>755.386</ele>
        <time>2018-07-01T10:35:03Z</time>
      </trkpt>
      <trkpt lat="46.332220" lon="6.564749">
        <ele>755.314</ele>
        <time>2018-07-01T10:35:23Z</time>
      </trkpt>
      <trkpt lat="46.331847" lon="6.565071">
        <ele>747.708</ele>
        <time>2018-07-01T10:35:43Z</time>
      </trkpt>
      <trkpt lat="46.331847" lon="6.565071">
        <ele>747.715</ele>
        <time>2018-07-01T10:36:03Z</time>
      </trkpt>
      <trkpt lat="46.331580" lon="6.565114">
        <ele>746.571</ele>
        <time>2018-07-01T10:36:23Z</time>
      </trkpt>
      <trkpt lat="46.331580" lon="6.565114">
        <ele>746.593</ele>
        <time>2018-07-01T10:36:43Z</time>
      </trkpt>
      <trkpt lat="46.330954" lon="6.565289">
        <ele>736.889</ele>
        <time>2018-07-01T10:37:03Z</time>
      </trkpt>
      <trkpt lat="46.330954" lon="6.565289">
        <ele>736.861</ele>
        <time>2018-07-01T10:37:23Z</time>
      </trkpt>
      <trkpt lat="46.330555" lon="6.565283">
        <ele>730.898</ele>
        <time>2018-07-01T10:37:43Z</time>
      </trkpt>
      <trkpt lat="46.330555" lon="6.565283">
        <ele>730.834</ele>
        <time>2018-07-01T10:38:03Z</time>
      </trkpt>
      <trkpt lat="46.330478" lon="6.565384">
        <ele>727.179</ele>
        <time>2018-07-01T10:38:23Z</time>
      </trkpt>
      <trkpt lat="46.330478" lon="6.565384">
        <ele>727.156</ele>
        <time>2018-07-01T10:38:43Z</time>
      </trkpt>
      <trkpt lat="46.330182" lon="6.565368">
        <ele>726.159</ele>
        <time>2018-07-01T10:39:03Z</time>
      </trkpt>
      <trkpt lat="46.330182" lon="6.565368">
        <ele>726.114</ele>
        <time>2018-07-01T10:39:23Z</time>
      </trkpt>
      <trkpt lat="46.329416" lon="6.565982">
        <ele>717.208</ele>
        <time>2018-07-01T10:39:43Z</time>
      </trkpt>
      <trkpt lat="46.329416" lon="6.565982">
        <ele>717.267</ele>
        <time>2018-07-01T10:40:03Z</time>
      </trkpt>
      <trkpt lat="46.328991" lon="6.568000">
        <ele>707.723</ele>
        <time>2018-07-01T10:40:23Z</time>
      </trkpt>
      <trkpt lat="46.328991" lon="6.568000">
        <ele>707.765</ele>
        <time>2018-07-01T10:40:43Z</time>
      </trkpt>
      <trkpt lat="46.328541" lon="6.569408">
        <ele>703.351</ele>
        <time>2018-07-01T10:41:03Z</time>
      </trkpt>
      <trkpt lat="46.328541" lon="6.569408">
        <ele>703.333</ele>
        <time>2018-07-01T10:41:23Z</time>
      </trkpt>
      <trkpt lat="46.328357" lon="6.570937">
        <ele>698.410</ele>
        <time>2018-07-01T10:41:43Z</time>
      </trkpt>
      <trkpt lat="46.328357" lon="6.570937">
        <ele>698.486</ele>
        <time>2018-07-01T10:42:03Z</time>
      </trkpt>
      <trkpt lat="46.328159" lon="6.571752">
        <ele>698.891</ele>
        <time>2018-07-01T10:42:23Z</time>
      </trkpt>
      <trkpt lat="46.328159" lon="6.571752">
        <ele>698.811</ele>
        <time>2018-07-01T10:42:43Z</time>
      </trkpt>
      <trkpt lat="46.327372" lon="6.573136">
        <ele>707.821</ele>
        <time>2018-07-01T10:43:03Z</time>
      </trkpt>
      <trkpt lat="46.327372" lon="6.573136">
        <ele>707.803</ele>
        <time>2018-07-01T10:43:23Z</time>
      </trkpt>
      <trkpt lat="46.327322" lon="6.573864">
        <ele>707.808</ele>
        <time>2018-07-01T10:43:43Z</time>
      </trkpt>
      <trkpt lat="46.327322" lon="6.573864">
        <ele>707.833</ele>
        <time>2018-07-01T10:44:03Z</time>
      </trkpt>
      <trkpt lat="46.327104" lon="6.574978">
        <ele>708.269</ele>
        <time>2018-07-01T10:44:23Z</time>
      </trkpt>
      <trkpt lat="46.327104" lon="6.574978">
        <ele>708.291</ele>
        <time>2018-07-01T10:44:43Z</time>
      </trkpt>
      <trkpt lat="46.326781" lon="6.575699">
        <ele>708.447</ele>
        <time>2018-07-01T10:45:03Z</time>
      </trkpt>
      <trkpt lat="46.326781" lon="6.575699">
        <ele>708.459</ele>
        <time>2018-07-01T10:45:23Z</time>
      </trkpt>
      <trkpt lat="46.326583" lon="6.575862">
        <ele>708.996</ele>
        <time>2018-07-01T10:45:43Z</time>
      </trkpt>
      <trkpt lat="46.326583" lon="6.575862">
        <ele>708.992</ele>
        <time>2018-07-01T10:46:03Z</time>
      </trkpt>
      <trkpt lat="46.326199" lon="6.576491">
        <ele>706.917</ele>
        <time>2018-07-01T10:46:23Z</time>
      </trkpt>
      <trkpt lat="46.326199" lon="6.576491">
        <ele>706.991</ele>
        <time>2018-07-01T10:46:43Z</time>
      </trkpt>
      <trkpt lat="46.325532" lon="6.577207">
        <ele>704.781</ele>
        <time>2018-07-01T10:47:03Z</time>
      </trkpt>
      <trkpt lat="46.325532" lon="6.577207">
        <ele>704.719</ele>
        <time>2018-07-01T10:47:23Z</time>
      </trkpt>
      <trkpt lat="46.325654" lon="6.578365">
        <ele>696.108</ele>
        <time>2018-07-01T10:47:43Z</time>
      </trkpt>
      <trkpt lat="46.325654" lon="6.578365">
        <ele>696.191</ele>
        <time>2018-07-01T10:48:03Z</time>
      </trkpt>
      <trkpt lat="46.325775" lon="6.579595">
        <ele>686.537</ele>
        <time>2018-07-01T10:48:23Z</time>
      </trkpt>
      <trkpt lat="46.325775" lon="6.579595">
        <ele>686.589</ele>
        <time>2018-07-01T10:48:43Z</time>
      </trkpt>
      <trkpt lat="46.325531" lon="6.580897">
        <ele>681.165</ele>
        <time>2018-07-01T10:49:03Z</time>
      </trkpt>
      <trkpt lat="46.325531" lon="6.580897">
        <ele>681.197</ele>
        <time>2018-07-01T10:49:23Z</time>
      </trkpt>
      <trkpt lat="46.325307" lon="6.581356">
        <ele>677.264</ele>
        <time>2018-07-01T10:49:43Z</time>
      </trkpt>
      <trkpt lat="46.325307" lon="6.581356">
        <ele>677.220</ele>
        <time>2018-07-01T10:50:03Z</time>
      </trkpt>
      <trkpt lat="46.325712" lon="6.581326">
        <ele>672.185</ele>
        <time>2018-07-01T10:50:23Z</time>
      </trkpt>
      <trkpt lat="46.325712" lon="6.581326">
        <ele>672.158</ele>
        <time>2018-07-01T10:50:43Z</time>
      </trkpt>
      <trkpt lat="46.325981" lon="6.581503">
        <ele>658.152</ele>
        <time>2018-07-01T10:51:03Z</time>
      </trkpt>
      <trkpt lat="46.325981" lon="6.581503">
        <ele>658.117</ele>
        <time>2018-07-01T10:51:23Z</time>
      </trkpt>
      <trkpt lat="46.325727" lon="6.581849">
        <ele>665.308</ele>
        <time>2018-07-01T10:51:43Z</time>
      </trkpt>
      <trkpt lat="46.325727" lon="6.581849">
        <ele>665.387</ele>
        <time>2018-07-01T10:52:03Z</time>
      </trkpt>
      <trkpt lat="46.325298" lon="6.582162">
        <ele>660.943</ele>
        <time>2018-07-01T10:52:23Z</time>
      </trkpt>
      <trkpt lat="46.325298" lon="6.582162">
        <ele>660.925</ele>
        <time>2018-07-01T10:52:43Z</time>
      </trkpt>
      <trkpt lat="46.325129" lon="6.582679">
        <ele>643.951</ele>
        <time>2018-07-01T10:53:03Z</time>
      </trkpt>
      <trkpt lat="46.325129" lon="6.582679">
        <ele>643.913</ele>
        <time>2018-07-01T10:53:23Z</time>
      </trkpt>
      <trkpt lat="46.324848" lon="6.582718">
        <ele>642.280</ele>
        <time>2018-07-01T10:53:43Z</time>
      </trkpt>
      <trkpt lat="46.324848" lon="6.582718">
        <ele>642.246</ele>
        <time>2018-07-01T10:54:03Z</time>
      </trkpt>
      <trkpt lat="46.324743" lon="6.582936">
        <ele>632.451</ele>
        <time>2018-07-01T10:54:23Z</time>
      </trkpt>
      <trkpt lat="46.324743" lon="6.582936">
        <ele>632.464</ele>
        <time>2018-07-01T10:54:43Z</time>
      </trkpt>
      <trkpt lat="46.324819" lon="6.583043">
        <ele>629.206</ele>
        <time>2018-07-01T10:55:03Z</time>
      </trkpt>
      <trkpt lat="46.324819" lon="6.583043">
        <ele>629.216</ele>
        <time>2018-07-01T10:55:23Z</time>
      </trkpt>
      <trkpt lat="46.324919" lon="6.583007">
        <ele>632.308</ele>
        <time>2018-07-01T10:55:43Z</time>
      </trkpt>
      <trkpt lat="46.324919" lon="6.583007">
        <ele>632.358</ele>
        <time>2018-07-01T10:56:03Z</time>
      </trkpt>
      <trkpt lat="46.324924" lon="6.583139">
        <ele>627.894</ele>
        <time>2018-07-01T10:56:23Z</time>
      </trkpt>
      <trkpt lat="46.324924" lon="6.583139">
        <ele>627.816</ele>
        <time>2018-07-01T10:56:43Z</time>
      </trkpt>
      <trkpt lat="46.325028" lon="6.583127">
        <ele>629.922</ele>
        <time>2018-07-01T10:57:03Z</time>
      </trkpt>
      <trkpt lat="46.325028" lon="6.583127">
        <ele>629.994</ele>
        <time>2018-07-01T10:57:23Z</time>
      </trkpt>
      <trkpt lat="46.325220" lon="6.582987">
        <ele>635.441</ele>
        <time>2018-07-01T10:57:43Z</time>
      </trkpt>
      <trkpt lat="46.325220" lon="6.582987">
        <ele>635.477</ele>
        <time>2018-07-01T10:58:03Z</time>
      </trkpt>
      <trkpt lat="46.325299" lon="6.582957">
        <ele>636.722</ele>
        <time>2018-07-01T10:58:23Z</time>
      </trkpt>
      <trkpt lat="46.325299" lon="6.582957">
        <ele>636.758</ele>
        <time>2018-07-01T10:58:43Z</time>
      </trkpt>
      <trkpt lat="46.325361" lon="6.583005">
        <ele>636.152</ele>
        <time>2018-07-01T10:59:03Z</time>
      </trkpt>
      <trkpt lat="46.325361" lon="6.583005">
        <ele>636.117</ele>
        <time>2018-07-01T10:59:23Z</time>
      </trkpt>
      <trkpt lat="46.325440" lon="6.583034">
        <ele>636.208</ele>
        <time>2018-07-01T10:59:43Z</time>
      </trkpt>
      <trkpt lat="46.325440" lon="6.583034">
        <ele>636.287</ele>
        <time>2018-07-01T11:00:03Z</time>
      </trkpt>
      <trkpt lat="46.325509" lon="6.583158">
        <ele>634.583</ele>
        <time>2018-07-01T11:00:23Z</time>
      </trkpt>
      <trkpt lat="46.325509" lon="6.583158">
        <ele>634.565</ele>
        <time>2018-07-01T11:00:43Z</time>
      </trkpt>
      <trkpt lat="46.325568" lon="6.583897">
        <ele>623.381</ele>
        <time>2018-07-01T11:01:03Z</time>
      </trkpt>
      <trkpt lat="46.325568" lon="6.583897">
        <ele>623.373</ele>
        <time>2018-07-01T11:01:23Z</time>
      </trkpt>
      <trkpt lat="46.325774" lon="6.584339">
        <ele>621.740</ele>
        <time>2018-07-01T11:01:43Z</time>
      </trkpt>
      <trkpt lat="46.325774" lon="6.584339">
        <ele>621.796</ele>
        <time>2018-07-01T11:02:03Z</time>
      </trkpt>
      <trkpt lat="46.325759" lon="6.584500">
        <ele>617.161</ele>
        <time>2018-07-01T11:02:23Z</time>
      </trkpt>
      <trkpt lat="46.325759" lon="6.584500">
        <ele>617.142</ele>
        <time>2018-07-01T11:02:43Z</time>
      </trkpt>
      <trkpt lat="46.325570" lon="6.584423">
        <ele>612.922</ele>
        <time>2018-07-01T11:03:03Z</time>
      </trkpt>
      <trkpt lat="46.325570" lon="6.584423">
        <ele>612.914</ele>
        <time>2018-07-01T11:03:23Z</time>
      </trkpt>
      <trkpt lat="46.325494" lon="6.584530">
        <ele>607.208</ele>
        <time>2018-07-01T11:03:43Z</time>
      </trkpt>
      <trkpt lat="46.325494" lon="6.584530">
        <ele>607.276</ele>
        <time>2018-07-01T11:04:03Z</time>
      </trkpt>
      <trkpt lat="46.325000" lon="6.584361">
        <ele>596.412</ele>
        <time>2018-07-01T11:04:23Z</time>
      </trkpt>
      <trkpt lat="46.325000" lon="6.584361">
        <ele>596.424</ele>
        <time>2018-07-01T11:04:43Z</time>
      </trkpt>
      <trkpt lat="46.324625" lon="6.584452">
        <ele>587.430</ele>
        <time>2018-07-01T11:05:03Z</time>
      </trkpt>
      <trkpt lat="46.324625" lon="6.584452">
        <ele>587.462</ele>
        <time>2018-07-01T11:05:23Z</time>
      </trkpt>
      <trkpt lat="46.323940" lon="6.584927">
        <ele>574.519</ele>
        <time>2018-07-01T11:05:43Z</time>
      </trkpt>
      <trkpt lat="46.323940" lon="6.584927">
        <ele>574.555</ele>
        <time>2018-07-01T11:06:03Z</time>
      </trkpt>
      <trkpt lat="46.323978" lon="6.585046">
        <ele>570.710</ele>
        <time>2018-07-01T11:06:23Z</time>
      </trkpt>
      <trkpt lat="46.323978" lon="6.585046">
        <ele>570.737</ele>
        <time>2018-07-01T11:06:43Z</time>
      </trkpt>
      <trkpt lat="46.324278" lon="6.585158">
        <ele>564.549</ele>
        <time>2018-07-01T11:07:03Z</time>
      </trkpt>
      <trkpt lat="46.324278" lon="6.585158">
        <ele>564.513</ele>
        <time>2018-07-01T11:07:23Z</time>
      </trkpt>
      <trkpt lat="46.324119" lon="6.585317">
        <ele>559.908</ele>
        <time>2018-07-01T11:07:43Z</time>
      </trkpt>
      <trkpt lat="46.324119" lon="6.585317">
        <ele>559.925</ele>
        <time>2018-07-01T11:08:03Z</time>
      </trkpt>
      <trkpt lat="46.323919" lon="6.585355">
        <ele>559.831</ele>
        <time>2018-07-01T11:08:23Z</time>
      </trkpt>
      <trkpt lat="46.323919" lon="6.585355">
        <ele>559.883</ele>
        <time>2018-07-01T11:08:43Z</time>
      </trkpt>
      <trkpt lat="46.323713" lon="6.585638">
        <ele>549.599</ele>
        <time>2018-07-01T11:09:03Z</time>
      </trkpt>
      <trkpt lat="46.323713" lon="6.585638">
        <ele>549.531</ele>
        <time>2018-07-01T11:09:23Z</time>
      </trkpt>
      <trkpt lat="46.324163" lon="6.585613">
        <ele>549.138</ele>
        <time>2018-07-01T11:09:43Z</time>
      </trkpt>
      <trkpt lat="46.324163" lon="6.585613">
        <ele>549.124</ele>
        <time>2018-07-01T11:10:03Z</time>
      </trkpt>
      <trkpt lat="46.324569" lon="6.585722">
        <ele>542.939</ele>
        <time>2018-07-01T11:10:23Z</time>
      </trkpt>
      <trkpt lat="46.324569" lon="6.585722">
        <ele>542.989</ele>
        <time>2018-07-01T11:10:43Z</time>
      </trkpt>
      <trkpt lat="46.324503" lon="6.585964">
        <ele>536.706</ele>
        <time>2018-07-01T11:11:03Z</time>
      </trkpt>
      <trkpt lat="46.324503" lon="6.585964">
        <ele>536.726</ele>
        <time>2018-07-01T11:11:23Z</time>
      </trkpt>
      <trkpt lat="46.323757" lon="6.586233">
        <ele>532.308</ele>
        <time>2018-07-01T11:11:43Z</time>
      </trkpt>
      <trkpt lat="46.323757" lon="6.586233">
        <ele>532.380</ele>
        <time>2018-07-01T11:12:03Z</time>
      </trkpt>
      <trkpt lat="46.323854" lon="6.586279">
        <ele>531.966</ele>
        <time>2018-07-01T11:12:23Z</time>
      </trkpt>
      <trkpt lat="46.323854" lon="6.586279">
        <ele>531.938</ele>
        <time>2018-07-01T11:12:43Z</time>
      </trkpt>
      <trkpt lat="46.324233" lon="6.586241">
        <ele>533.374</ele>
        <time>2018-07-01T11:13:03Z</time>
      </trkpt>
      <trkpt lat="46.324233" lon="6.586241">
        <ele>533.366</ele>
        <time>2018-07-01T11:13:23Z</time>
      </trkpt>
      <trkpt lat="46.324625" lon="6.586090">
        <ele>532.683</ele>
        <time>2018-07-01T11:13:43Z</time>
      </trkpt>
      <trkpt lat="46.324625" lon="6.586090">
        <ele>532.629</ele>
        <time>2018-07-01T11:14:03Z</time>
      </trkpt>
      <trkpt lat="46.324937" lon="6.586096">
        <ele>529.144</ele>
        <time>2018-07-01T11:14:23Z</time>
      </trkpt>
      <trkpt lat="46.324937" lon="6.586096">
        <ele>529.181</ele>
        <time>2018-07-01T11:14:43Z</time>
      </trkpt>
      <trkpt lat="46.324962" lon="6.586226">
        <ele>528.761</ele>
        <time>2018-07-01T11:15:03Z</time>
      </trkpt>
      <trkpt lat="46.324962" lon="6.586226">
        <ele>528.717</ele>
        <time>2018-07-01T11:15:23Z</time>
      </trkpt>
      <trkpt lat="46.324599" lon="6.587061">
        <ele>530.008</ele>
        <time>2018-07-01T11:15:43Z</time>
      </trkpt>
      <trkpt lat="46.324599" lon="6.587061">
        <ele>530.080</ele>
        <time>2018-07-01T11:16:03Z</time>
      </trkpt>
      <trkpt lat="46.324400" lon="6.587227">
        <ele>530.066</ele>
        <time>2018-07-01T11:16:23Z</time>
      </trkpt>
      <trkpt lat="46.324400" lon="6.587227">
        <ele>530.098</ele>
        <time>2018-07-01T11:16:43Z</time>
      </trkpt>
      <trkpt lat="46.324338" lon="6.587234">
        <ele>530.054</ele>
        <time>2018-07-01T11:17:03Z</time>
      </trkpt>
      <trkpt lat="46.324338" lon="6.587234">
        <ele>530.076</ele>
        <time>2018-07-01T11:17:23Z</time>
      </trkpt>
      <trkpt lat="46.324269" lon="6.587330">
        <ele>530.263</ele>
        <time>2018-07-01T11:17:43Z</time>
      </trkpt>
      <trkpt lat="46.324269" lon="6.587330">
        <ele>530.239</ele>
        <time>2018-07-01T11:18:03Z</time>
      </trkpt>
      <trkpt lat="46.323986" lon="6.588666">
        <ele>544.224</ele>
        <time>2018-07-01T11:18:23Z</time>
      </trkpt>
      <trkpt lat="46.323986" lon="6.588666">
        <ele>544.264</ele>
        <time>2018-07-01T11:18:43Z</time>
      </trkpt>
      <trkpt lat="46.324142" lon="6.590068">
        <ele>545.106</ele>
        <time>2018-07-01T11:19:03Z</time>
      </trkpt>
      <trkpt lat="46.324142" lon="6.590068">
        <ele>545.116</ele>
        <time>2018-07-01T11:19:23Z</time>
      </trkpt>
      <trkpt lat="46.324413" lon="6.591276">
        <ele>532.108</ele>
        <time>2018-07-01T11:19:43Z</time>
      </trkpt>
      <trkpt lat="46.324413" lon="6.591276">
        <ele>532.168</ele>
        <time>2018-07-01T11:20:03Z</time>
      </trkpt>
      <trkpt lat="46.324499" lon="6.592237">
        <ele>530.424</ele>
        <time>2018-07-01T11:20:23Z</time>
      </trkpt>
      <trkpt lat="46.324499" lon="6.592237">
        <ele>530.416</ele>
        <time>2018-07-01T11:20:43Z</time>
      </trkpt>
      <trkpt lat="46.324766" lon="6.592571">
        <ele>534.392</ele>
        <time>2018-07-01T11:21:03Z</time>
      </trkpt>
      <trkpt lat="46.324766" lon="6.592571">
        <ele>534.374</ele>
        <time>2018-07-01T11:21:23Z</time>
      </trkpt>
      <trkpt lat="46.324998" lon="6.592149">
        <ele>542.471</ele>
        <time>2018-07-01T11:21:43Z</time>
      </trkpt>
      <trkpt lat="46.324998" lon="6.592149">
        <ele>542.477</ele>
        <time>2018-07-01T11:22:03Z</time>
      </trkpt>
      <trkpt lat="46.325084" lon="6.592171">
        <ele>545.052</ele>
        <time>2018-07-01T11:22:23Z</time>
      </trkpt>
      <trkpt lat="46.325084" lon="6.592171">
        <ele>545.024</ele>
        <time>2018-07-01T11:22:43Z</time>
      </trkpt>
      <trkpt lat="46.325335" lon="6.592535">
        <ele>558.004</ele>
        <time>2018-07-01T11:23:03Z</time>
      </trkpt>
      <trkpt lat="46.325335" lon="6.592535">
        <ele>558.014</ele>
        <time>2018-07-01T11:23:23Z</time>
      </trkpt>
      <trkpt lat="46.325533" lon="6.592543">
        <ele>567.708</ele>
        <time>2018-07-01T11:23:43Z</time>
      </trkpt>
      <trkpt lat="46.325533" lon="6.592543">
        <ele>567.754</ele>
        <time>2018-07-01T11:24:03Z</time>
      </trkpt>
      <trkpt lat="46.325700" lon="6.592197">
        <ele>571.760</ele>
        <time>2018-07-01T11:24:23Z</time>
      </trkpt>
      <trkpt lat="46.325700" lon="6.592197">
        <ele>571.782</ele>
        <time>2018-07-01T11:24:43Z</time>
      </trkpt>
      <trkpt lat="46.326110" lon="6.592543">
        <ele>601.118</ele>
        <time>2018-07-01T11:25:03Z</time>
      </trkpt>
      <trkpt lat="46.326110" lon="6.592543">
        <ele>601.160</ele>
        <time>2018-07-01T11:25:23Z</time>
      </trkpt>
      <trkpt lat="46.326223" lon="6.592327">
        <ele>604.657</ele>
        <time>2018-07-01T11:25:43Z</time>
      </trkpt>
      <trkpt lat="46.326223" lon="6.592327">
        <ele>604.613</ele>
        <time>2018-07-01T11:26:03Z</time>
      </trkpt>
      <trkpt lat="46.326404" lon="6.592266">
        <ele>611.038</ele>
        <time>2018-07-01T11:26:23Z</time>
      </trkpt>
      <trkpt lat="46.326404" lon="6.592266">
        <ele>611.016</ele>
        <time>2018-07-01T11:26:43Z</time>
      </trkpt>
      <trkpt lat="46.326369" lon="6.591982">
        <ele>607.676</ele>
        <time>2018-07-01T11:27:03Z</time>
      </trkpt>
      <trkpt lat="46.326369" lon="6.591982">
        <ele>607.613</ele>
        <time>2018-07-01T11:27:23Z</time>
      </trkpt>
      <trkpt lat="46.326434" lon="6.591719">
        <ele>609.808</ele>
        <time>2018-07-01T11:27:43Z</time>
      </trkpt>
      <trkpt lat="46.326434" lon="6.591719">
        <ele>609.893</ele>
        <time>2018-07-01T11:28:03Z</time>
      </trkpt>
      <trkpt lat="46.326596" lon="6.591579">
        <ele>616.449</ele>
        <time>2018-07-01T11:28:23Z</time>
      </trkpt>
      <trkpt lat="46.326596" lon="6.591579">
        <ele>616.421</ele>
        <time>2018-07-01T11:28:43Z</time>
      </trkpt>
      <trkpt lat="46.326683" lon="6.591367">
        <ele>620.467</ele>
        <time>2018-07-01T11:29:03Z</time>
      </trkpt>
      <trkpt lat="46.326683" lon="6.591367">
        <ele>620.499</ele>
        <time>2018-07-01T11:29:23Z</time>
      </trkpt>
      <trkpt lat="46.326954" lon="6.591760">
        <ele>628.016</ele>
        <time>2018-07-01T11:29:43Z</time>
      </trkpt>
      <trkpt lat="46.326954" lon="6.591760">
        <ele>628.042</ele>
        <time>2018-07-01T11:30:03Z</time>
      </trkpt>
      <trkpt lat="46.327032" lon="6.591631">
        <ele>631.837</ele>
        <time>2018-07-01T11:30:23Z</time>
      </trkpt>
      <trkpt lat="46.327032" lon="6.591631">
        <ele>631.859</ele>
        <time>2018-07-01T11:30:43Z</time>
      </trkpt>
      <trkpt lat="46.327126" lon="6.591630">
        <ele>635.503</ele>
        <time>2018-07-01T11:31:03Z</time>
      </trkpt>
      <trkpt lat="46.327126" lon="6.591630">
        <ele>635.523</ele>
        <time>2018-07-01T11:31:23Z</time>
      </trkpt>
      <trkpt lat="46.327160" lon="6.591225">
        <ele>636.808</ele>
        <time>2018-07-01T11:31:43Z</time>
      </trkpt>
      <trkpt lat="46.327160" lon="6.591225">
        <ele>636.827</ele>
        <time>2018-07-01T11:32:03Z</time>
      </trkpt>
      <trkpt lat="46.327350" lon="6.591330">
        <ele>647.073</ele>
        <time>2018-07-01T11:32:23Z</time>
      </trkpt>
      <trkpt lat="46.327350" lon="6.591330">
        <ele>647.035</ele>
        <time>2018-07-01T11:32:43Z</time>
      </trkpt>
      <trkpt lat="46.327403" lon="6.591186">
        <ele>647.321</ele>
        <time>2018-07-01T11:33:03Z</time>
      </trkpt>
      <trkpt lat="46.327403" lon="6.591186">
        <ele>647.353</ele>
        <time>2018-07-01T11:33:23Z</time>
      </trkpt>
      <trkpt lat="46.327495" lon="6.591222">
        <ele>652.480</ele>
        <time>2018-07-01T11:33:43Z</time>
      </trkpt>
      <trkpt lat="46.327495" lon="6.591222">
        <ele>652.496</ele>
        <time>2018-07-01T11:34:03Z</time>
      </trkpt>
      <trkpt lat="46.327535" lon="6.591361">
        <ele>655.741</ele>
        <time>2018-07-01T11:34:23Z</time>
      </trkpt>
      <trkpt lat="46.327535" lon="6.591361">
        <ele>655.756</ele>
        <time>2018-07-01T11:34:43Z</time>
      </trkpt>
      <trkpt lat="46.327724" lon="6.591304">
        <ele>661.059</ele>
        <time>2018-07-01T11:35:03Z</time>
      </trkpt>
      <trkpt lat="46.327724" lon="6.591304">
        <ele>661.014</ele>
        <time>2018-07-01T11:35:23Z</time>
      </trkpt>
      <trkpt lat="46.328138" lon="6.591470">
        <ele>674.208</ele>
        <time>2018-07-01T11:35:43Z</time>
      </trkpt>
      <trkpt lat="46.328138" lon="6.591470">
        <ele>674.267</ele>
        <time>2018-07-01T11:36:03Z</time>
      </trkpt>
      <trkpt lat="46.328293" lon="6.591635">
        <ele>679.543</ele>
        <time>2018-07-01T11:36:23Z</time>
      </trkpt>
      <trkpt lat="46.328293" lon="6.591635">
        <ele>679.555</ele>
        <time>2018-07-01T11:36:43Z</time>
      </trkpt>
      <trkpt lat="46.328813" lon="6.591480">
        <ele>690.721</ele>
        <time>2018-07-01T11:37:03Z</time>
      </trkpt>
      <trkpt lat="46.328813" lon="6.591480">
        <ele>690.783</ele>
        <time>2018-07-01T11:37:23Z</time>
      </trkpt>
      <trkpt lat="46.328950" lon="6.591311">
        <ele>693.350</ele>
        <time>2018-07-01T11:37:43Z</time>
      </trkpt>
      <trkpt lat="46.328950" lon="6.591311">
        <ele>693.316</ele>
        <time>2018-07-01T11:38:03Z</time>
      </trkpt>
      <trkpt lat="46.329210" lon="6.590176">
        <ele>700.751</ele>
        <time>2018-07-01T11:38:23Z</time>
      </trkpt>
      <trkpt lat="46.329210" lon="6.590176">
        <ele>700.795</ele>
        <time>2018-07-01T11:38:43Z</time>
      </trkpt>
      <trkpt lat="46.329987" lon="6.589245">
        <ele>711.149</ele>
        <time>2018-07-01T11:39:03Z</time>
      </trkpt>
      <trkpt lat="46.329987" lon="6.589245">
        <ele>711.123</ele>
        <time>2018-07-01T11:39:23Z</time>
      </trkpt>
      <trkpt lat="46.330283" lon="6.589600">
        <ele>717.208</ele>
        <time>2018-07-01T11:39:43Z</time>
      </trkpt>
      <trkpt lat="46.330283" lon="6.589600">
        <ele>717.221</ele>
        <time>2018-07-01T11:40:03Z</time>
      </trkpt>
      <trkpt lat="46.330573" lon="6.590159">
        <ele>721.017</ele>
        <time>2018-07-01T11:40:23Z</time>
      </trkpt>
      <trkpt lat="46.330573" lon="6.590159">
        <ele>721.069</ele>
        <time>2018-07-01T11:40:43Z</time>
      </trkpt>
      <trkpt lat="46.330836" lon="6.590568">
        <ele>723.065</ele>
        <time>2018-07-01T11:41:03Z</time>
      </trkpt>
      <trkpt lat="46.330836" lon="6.590568">
        <ele>723.017</ele>
        <time>2018-07-01T11:41:23Z</time>
      </trkpt>
      <trkpt lat="46.331288" lon="6.591049">
        <ele>726.334</ele>
        <time>2018-07-01T11:41:43Z</time>
      </trkpt>
      <trkpt lat="46.331288" lon="6.591049">
        <ele>726.350</ele>
        <time>2018-07-01T11:42:03Z</time>
      </trkpt>
      <trkpt lat="46.331304" lon="6.591184">
        <ele>727.215</ele>
        <time>2018-07-01T11:42:23Z</time>
      </trkpt>
      <trkpt lat="46.331304" lon="6.591184">
        <ele>727.295</ele>
        <time>2018-07-01T11:42:43Z</time>
      </trkpt>
      <trkpt lat="46.330982" lon="6.591853">
        <ele>729.149</ele>
        <time>2018-07-01T11:43:03Z</time>
      </trkpt>
      <trkpt lat="46.330982" lon="6.591853">
        <ele>729.123</ele>
        <time>2018-07-01T11:43:23Z</time>
      </trkpt>
      <trkpt lat="46.330868" lon="6.592365">
        <ele>730.108</ele>
        <time>2018-07-01T11:43:43Z</time>
      </trkpt>
      <trkpt lat="46.330868" lon="6.592365">
        <ele>730.171</ele>
        <time>2018-07-01T11:44:03Z</time>
      </trkpt>
      <trkpt lat="46.330575" lon="6.592934">
        <ele>727.247</ele>
        <time>2018-07-01T11:44:23Z</time>
      </trkpt>
      <trkpt lat="46.330575" lon="6.592934">
        <ele>727.269</ele>
        <time>2018-07-01T11:44:43Z</time>
      </trkpt>
      <trkpt lat="46.330460" lon="6.593661">
        <ele>728.685</ele>
        <time>2018-07-01T11:45:03Z</time>
      </trkpt>
      <trkpt lat="46.330460" lon="6.593661">
        <ele>728.667</ele>
        <time>2018-07-01T11:45:23Z</time>
      </trkpt>
      <trkpt lat="46.330605" lon="6.593799">
        <ele>730.484</ele>
        <time>2018-07-01T11:45:43Z</time>
      </trkpt>
      <trkpt lat="46.330605" lon="6.593799">
        <ele>730.460</ele>
        <time>2018-07-01T11:46:03Z</time>
      </trkpt>
      <trkpt lat="46.330796" lon="6.593784">
        <ele>731.735</ele>
        <time>2018-07-01T11:46:23Z</time>
      </trkpt>
      <trkpt lat="46.330796" lon="6.593784">
        <ele>731.732</ele>
        <time>2018-07-01T11:46:43Z</time>
      </trkpt>
      <trkpt lat="46.331246" lon="6.594005">
        <ele>736.292</ele>
        <time>2018-07-01T11:47:03Z</time>
      </trkpt>
      <trkpt lat="46.331246" lon="6.594005">
        <ele>736.211</ele>
        <time>2018-07-01T11:47:23Z</time>
      </trkpt>
      <trkpt lat="46.331838" lon="6.593938">
        <ele>740.408</ele>
        <time>2018-07-01T11:47:43Z</time>
      </trkpt>
      <trkpt lat="46.331838" lon="6.593938">
        <ele>740.435</ele>
        <time>2018-07-01T11:48:03Z</time>
      </trkpt>
      <trkpt lat="46.332472" lon="6.594292">
        <ele>745.461</ele>
        <time>2018-07-01T11:48:23Z</time>
      </trkpt>
      <trkpt lat="46.332472" lon="6.594292">
        <ele>745.413</ele>
        <time>2018-07-01T11:48:43Z</time>
      </trkpt>
      <trkpt lat="46.332852" lon="6.594284">
        <ele>748.099</ele>
        <time>2018-07-01T11:49:03Z</time>
      </trkpt>
      <trkpt lat="46.332852" lon="6.594284">
        <ele>748.041</ele>
        <time>2018-07-01T11:49:23Z</time>
      </trkpt>
      <trkpt lat="46.333260" lon="6.594617">
        <ele>750.688</ele>
        <time>2018-07-01T11:49:43Z</time>
      </trkpt>
      <trkpt lat="46.333260" lon="6.594617">
        <ele>750.694</ele>
        <time>2018-07-01T11:50:03Z</time>
      </trkpt>
      <trkpt lat="46.333835" lon="6.594535">
        <ele>750.369</ele>
        <time>2018-07-01T11:50:23Z</time>
      </trkpt>
      <trkpt lat="46.333835" lon="6.594535">
        <ele>750.377</ele>
        <time>2018-07-01T11:50:43Z</time>
      </trkpt>
      <trkpt lat="46.334225" lon="6.594590">
        <ele>752.261</ele>
        <time>2018-07-01T11:51:03Z</time>
      </trkpt>
      <trkpt lat="46.334225" lon="6.594590">
        <ele>752.227</ele>
        <time>2018-07-01T11:51:23Z</time>
      </trkpt>
      <trkpt lat="46.334642" lon="6.594730">
        <ele>754.108</ele>
        <time>2018-07-01T11:51:43Z</time>
      </trkpt>
      <trkpt lat="46.334642" lon="6.594730">
        <ele>754.169</ele>
        <time>2018-07-01T11:52:03Z</time>
      </trkpt>
      <trkpt lat="46.334992" lon="6.594963">
        <ele>757.345</ele>
        <time>2018-07-01T11:52:23Z</time>
      </trkpt>
      <trkpt lat="46.334992" lon="6.594963">
        <ele>757.367</ele>
        <time>2018-07-01T11:52:43Z</time>
      </trkpt>
      <trkpt lat="46.335392" lon="6.595574">
        <ele>766.633</ele>
        <time>2018-07-01T11:53:03Z</time>
      </trkpt>
      <trkpt lat="46.335392" lon="6.595574">
        <ele>766.635</ele>
        <time>2018-07-01T11:53:23Z</time>
      </trkpt>
      <trkpt lat="46.335783" lon="6.595953">
        <ele>773.722</ele>
        <time>2018-07-01T11:53:43Z</time>
      </trkpt>
      <trkpt lat="46.335783" lon="6.595953">
        <ele>773.798</ele>
        <time>2018-07-01T11:54:03Z</time>
      </trkpt>
      <trkpt lat="46.335878" lon="6.596179">
        <ele>777.383</ele>
        <time>2018-07-01T11:54:23Z</time>
      </trkpt>
      <trkpt lat="46.335878" lon="6.596179">
        <ele>777.347</ele>
        <time>2018-07-01T11:54:43Z</time>
      </trkpt>
      <trkpt lat="46.335873" lon="6.596424">
        <ele>778.529</ele>
        <time>2018-07-01T11:55:03Z</time>
      </trkpt>
      <trkpt lat="46.335873" lon="6.596424">
        <ele>778.521</ele>
        <time>2018-07-01T11:55:23Z</time>
      </trkpt>
      <trkpt lat="46.336585" lon="6.597193">
        <ele>788.008</ele>
        <time>2018-07-01T11:55:43Z</time>
      </trkpt>
      <trkpt lat="46.336585" lon="6.597193">
        <ele>788.016</ele>
        <time>2018-07-01T11:56:03Z</time>
      </trkpt>
      <trkpt lat="46.337078" lon="6.598393">
        <ele>790.932</ele>
        <time>2018-07-01T11:56:23Z</time>
      </trkpt>
      <trkpt lat="46.337078" lon="6.598393">
        <ele>790.934</ele>
        <time>2018-07-01T11:56:43Z</time>
      </trkpt>
      <trkpt lat="46.337213" lon="6.600312">
        <ele>790.950</ele>
        <time>2018-07-01T11:57:03Z</time>
      </trkpt>
      <trkpt lat="46.337213" lon="6.600312">
        <ele>790.912</ele>
        <time>2018-07-01T11:57:23Z</time>
      </trkpt>
      <trkpt lat="46.337160" lon="6.601411">
        <ele>788.979</ele>
        <time>2018-07-01T11:57:43Z</time>
      </trkpt>
      <trkpt lat="46.337160" lon="6.601411">
        <ele>788.955</ele>
        <time>2018-07-01T11:58:03Z</time>
      </trkpt>
      <trkpt lat="46.337271" lon="6.602356">
        <ele>789.320</ele>
        <time>2018-07-01T11:58:23Z</time>
      </trkpt>
      <trkpt lat="46.337271" lon="6.602356">
        <ele>789.333</ele>
        <time>2018-07-01T11:58:43Z</time>
      </trkpt>
      <trkpt lat="46.337625" lon="6.603937">
        <ele>794.323</ele>
        <time>2018-07-01T11:59:03Z</time>
      </trkpt>
      <trkpt lat="46.337625" lon="6.603937">
        <ele>794.315</ele>
        <time>2018-07-01T11:59:23Z</time>
      </trkpt>
      <trkpt lat="46.337928" lon="6.604785">
        <ele>797.908</ele>
        <time>2018-07-01T11:59:43Z</time>
      </trkpt>
      <trkpt lat="46.337928" lon="6.604785">
        <ele>797.985</ele>
        <time>2018-07-01T12:00:03Z</time>
      </trkpt>
      <trkpt lat="46.338342" lon="6.605372">
        <ele>805.611</ele>
        <time>2018-07-01T12:00:23Z</time>
      </trkpt>
      <trkpt lat="46.338342" lon="6.605372">
        <ele>805.663</ele>
        <time>2018-07-01T12:00:43Z</time>
      </trkpt>
      <trkpt lat="46.338414" lon="6.606044">
        <ele>805.119</ele>
        <time>2018-07-01T12:01:03Z</time>
      </trkpt>
      <trkpt lat="46.338414" lon="6.606044">
        <ele>805.151</ele>
        <time>2018-07-01T12:01:23Z</time>
      </trkpt>
      <trkpt lat="46.338798" lon="6.606830">
        <ele>811.988</ele>
        <time>2018-07-01T12:01:43Z</time>
      </trkpt>
      <trkpt lat="46.338798" lon="6.606830">
        <ele>811.924</ele>
        <time>2018-07-01T12:02:03Z</time>
      </trkpt>
      <trkpt lat="46.339123" lon="6.608077">
        <ele>810.899</ele>
        <time>2018-07-01T12:02:23Z</time>
      </trkpt>
      <trkpt lat="46.339123" lon="6.608077">
        <ele>810.884</ele>
        <time>2018-07-01T12:02:43Z</time>
      </trkpt>
      <trkpt lat="46.339759" lon="6.609146">
        <ele>815.707</ele>
        <time>2018-07-01T12:03:03Z</time>
      </trkpt>
      <trkpt lat="46.339759" lon="6.609146">
        <ele>815.717</ele>
        <time>2018-07-01T12:03:23Z</time>
      </trkpt>
      <trkpt lat="46.340015" lon="6.610183">
        <ele>813.008</ele>
        <time>2018-07-01T12:03:43Z</time>
      </trkpt>
      <trkpt lat="46.340015" lon="6.610183">
        <ele>813.060</ele>
        <time>2018-07-01T12:04:03Z</time>
      </trkpt>
      <trkpt lat="46.340752" lon="6.612169">
        <ele>815.546</ele>
        <time>2018-07-01T12:04:23Z</time>
      </trkpt>
      <trkpt lat="46.340752" lon="6.612169">
        <ele>815.538</ele>
        <time>2018-07-01T12:04:43Z</time>
      </trkpt>
      <trkpt lat="46.340899" lon="6.613780">
        <ele>819.284</ele>
        <time>2018-07-01T12:05:03Z</time>
      </trkpt>
      <trkpt lat="46.340899" lon="6.613780">
        <ele>819.226</ele>
        <time>2018-07-01T12:05:23Z</time>
      </trkpt>
      <trkpt lat="46.341130" lon="6.614438">
        <ele>824.253</ele>
        <time>2018-07-01T12:05:43Z</time>
      </trkpt>
      <trkpt lat="46.341130" lon="6.614438">
        <ele>824.289</ele>
        <time>2018-07-01T12:06:03Z</time>
      </trkpt>
      <trkpt lat="46.341500" lon="6.614902">
        <ele>826.134</ele>
        <time>2018-07-01T12:06:23Z</time>
      </trkpt>
      <trkpt lat="46.341500" lon="6.614902">
        <ele>826.152</ele>
        <time>2018-07-01T12:06:43Z</time>
      </trkpt>
      <trkpt lat="46.342203" lon="6.616225">
        <ele>825.353</ele>
        <time>2018-07-01T12:07:03Z</time>
      </trkpt>
      <trkpt lat="46.342203" lon="6.616225">
        <ele>825.308</ele>
        <time>2018-07-01T12:07:23Z</time>
      </trkpt>
      <trkpt lat="46.342363" lon="6.617156">
        <ele>827.508</ele>
        <time>2018-07-01T12:07:43Z</time>
      </trkpt>
      <trkpt lat="46.342363" lon="6.617156">
        <ele>827.577</ele>
        <time>2018-07-01T12:08:03Z</time>
      </trkpt>
      <trkpt lat="46.343079" lon="6.618389">
        <ele>828.333</ele>
        <time>2018-07-01T12:08:23Z</time>
      </trkpt>
      <trkpt lat="46.343079" lon="6.618389">
        <ele>828.325</ele>
        <time>2018-07-01T12:08:43Z</time>
      </trkpt>
      <trkpt lat="46.343442" lon="6.619982">
        <ele>828.411</ele>
        <time>2018-07-01T12:09:03Z</time>
      </trkpt>
      <trkpt lat="46.343442" lon="6.619982">
        <ele>828.433</ele>
        <time>2018-07-01T12:09:23Z</time>
      </trkpt>
      <trkpt lat="46.343884" lon="6.620743">
        <ele>832.380</ele>
        <time>2018-07-01T12:09:43Z</time>
      </trkpt>
      <trkpt lat="46.343884" lon="6.620743">
        <ele>832.396</ele>
        <time>2018-07-01T12:10:03Z</time>
      </trkpt>
      <trkpt lat="46.343913" lon="6.621993">
        <ele>828.361</ele>
        <time>2018-07-01T12:10:23Z</time>
      </trkpt>
      <trkpt lat="46.343913" lon="6.621993">
        <ele>828.355</ele>
        <time>2018-07-01T12:10:43Z</time>
      </trkpt>
      <trkpt lat="46.343671" lon="6.623071">
        <ele>818.907</ele>
        <time>2018-07-01T12:11:03Z</time>
      </trkpt>
      <trkpt lat="46.343671" lon="6.623071">
        <ele>818.917</ele>
        <time>2018-07-01T12:11:23Z</time>
      </trkpt>
      <trkpt lat="46.343764" lon="6.623608">
        <ele>815.908</ele>
        <time>2018-07-01T12:11:43Z</time>
      </trkpt>
      <trkpt lat="46.343764" lon="6.623608">
        <ele>815.917</ele>
        <time>2018-07-01T12:12:03Z</time>
      </trkpt>
      <trkpt lat="46.343967" lon="6.623911">
        <ele>813.843</ele>
        <time>2018-07-01T12:12:23Z</time>
      </trkpt>
      <trkpt lat="46.343967" lon="6.623911">
        <ele>813.845</ele>
        <time>2018-07-01T12:12:43Z</time>
      </trkpt>
      <trkpt lat="46.344433" lon="6.623955">
        <ele>815.061</ele>
        <time>2018-07-01T12:13:03Z</time>
      </trkpt>
      <trkpt lat="46.344433" lon="6.623955">
        <ele>815.053</ele>
        <time>2018-07-01T12:13:23Z</time>
      </trkpt>
      <trkpt lat="46.344944" lon="6.624349">
        <ele>813.810</ele>
        <time>2018-07-01T12:13:43Z</time>
      </trkpt>
      <trkpt lat="46.344944" lon="6.624349">
        <ele>813.826</ele>
        <time>2018-07-01T12:14:03Z</time>
      </trkpt>
      <trkpt lat="46.344958" lon="6.625044">
        <ele>806.021</ele>
        <time>2018-07-01T12:14:23Z</time>
      </trkpt>
      <trkpt lat="46.344958" lon="6.625044">
        <ele>806.013</ele>
        <time>2018-07-01T12:14:43Z</time>
      </trkpt>
      <trkpt lat="46.345735" lon="6.626749">
        <ele>809.643</ele>
        <time>2018-07-01T12:15:03Z</time>
      </trkpt>
      <trkpt lat="46.345735" lon="6.626749">
        <ele>809.607</ele>
        <time>2018-07-01T12:15:23Z</time>
      </trkpt>
      <trkpt lat="46.346055" lon="6.627774">
        <ele>796.908</ele>
        <time>2018-07-01T12:15:43Z</time>
      </trkpt>
      <trkpt lat="46.346055" lon="6.627774">
        <ele>796.943</ele>
        <time>2018-07-01T12:16:03Z</time>
      </trkpt>
      <trkpt lat="46.346210" lon="6.627930">
        <ele>794.399</ele>
        <time>2018-07-01T12:16:23Z</time>
      </trkpt>
      <trkpt lat="46.346210" lon="6.627930">
        <ele>794.381</ele>
        <time>2018-07-01T12:16:43Z</time>
      </trkpt>
      <trkpt lat="46.346579" lon="6.628069">
        <ele>789.417</ele>
        <time>2018-07-01T12:17:03Z</time>
      </trkpt>
      <trkpt lat="46.346579" lon="6.628069">
        <ele>789.469</ele>
        <time>2018-07-01T12:17:23Z</time>
      </trkpt>
      <trkpt lat="46.346846" lon="6.628415">
        <ele>785.966</ele>
        <time>2018-07-01T12:17:43Z</time>
      </trkpt>
      <trkpt lat="46.346846" lon="6.628415">
        <ele>785.942</ele>
        <time>2018-07-01T12:18:03Z</time>
      </trkpt>
      <trkpt lat="46.346473" lon="6.629114">
        <ele>780.787</ele>
        <time>2018-07-01T12:18:23Z</time>
      </trkpt>
      <trkpt lat="46.346473" lon="6.629114">
        <ele>780.754</ele>
        <time>2018-07-01T12:18:43Z</time>
      </trkpt>
      <trkpt lat="46.346550" lon="6.629535">
        <ele>788.556</ele>
        <time>2018-07-01T12:19:03Z</time>
      </trkpt>
      <trkpt lat="46.346550" lon="6.629535">
        <ele>788.511</ele>
        <time>2018-07-01T12:19:23Z</time>
      </trkpt>
      <trkpt lat="46.346438" lon="6.629744">
        <ele>796.808</ele>
        <time>2018-07-01T12:19:43Z</time>
      </trkpt>
      <trkpt lat="46.346438" lon="6.629744">
        <ele>796.897</ele>
        <time>2018-07-01T12:20:03Z</time>
      </trkpt>
      <trkpt lat="46.346171" lon="6.629880">
        <ele>806.223</ele>
        <time>2018-07-01T12:20:23Z</time>
      </trkpt>
      <trkpt lat="46.346171" lon="6.629880">
        <ele>806.285</ele>
        <time>2018-07-01T12:20:43Z</time>
      </trkpt>
      <trkpt lat="46.346121" lon="6.629989">
        <ele>812.251</ele>
        <time>2018-07-01T12:21:03Z</time>
      </trkpt>
      <trkpt lat="46.346121" lon="6.629989">
        <ele>812.283</ele>
        <time>2018-07-01T12:21:23Z</time>
      </trkpt>
      <trkpt lat="46.346315" lon="6.630263">
        <ele>815.490</ele>
        <time>2018-07-01T12:21:43Z</time>
      </trkpt>
      <trkpt lat="46.346315" lon="6.630263">
        <ele>815.486</ele>
        <time>2018-07-01T12:22:03Z</time>
      </trkpt>
      <trkpt lat="46.346179" lon="6.630607">
        <ele>826.961</ele>
        <time>2018-07-01T12:22:23Z</time>
      </trkpt>
      <trkpt lat="46.346179" lon="6.630607">
        <ele>826.947</ele>
        <time>2018-07-01T12:22:43Z</time>
      </trkpt>
      <trkpt lat="46.345457" lon="6.630982">
        <ele>840.029</ele>
        <time>2018-07-01T12:23:03Z</time>
      </trkpt>
      <trkpt lat="46.345457" lon="6.630982">
        <ele>840.021</ele>
        <time>2018-07-01T12:23:23Z</time>
      </trkpt>
      <trkpt lat="46.345256" lon="6.631147">
        <ele>847.708</ele>
        <time>2018-07-01T12:23:43Z</time>
      </trkpt>
      <trkpt lat="46.345256" lon="6.631147">
        <ele>847.726</ele>
        <time>2018-07-01T12:24:03Z</time>
      </trkpt>
      <trkpt lat="46.345156" lon="6.631308">
        <ele>855.082</ele>
        <time>2018-07-01T12:24:23Z</time>
      </trkpt>
      <trkpt lat="46.345156" lon="6.631308">
        <ele>855.034</ele>
        <time>2018-07-01T12:24:43Z</time>
      </trkpt>
      <trkpt lat="46.345062" lon="6.631495">
        <ele>862.690</ele>
        <time>2018-07-01T12:25:03Z</time>
      </trkpt>
      <trkpt lat="46.345062" lon="6.631495">
        <ele>862.612</ele>
        <time>2018-07-01T12:25:23Z</time>
      </trkpt>
      <trkpt lat="46.344981" lon="6.631713">
        <ele>870.289</ele>
        <time>2018-07-01T12:25:43Z</time>
      </trkpt>
      <trkpt lat="46.344981" lon="6.631713">
        <ele>870.225</ele>
        <time>2018-07-01T12:26:03Z</time>
      </trkpt>
      <trkpt lat="46.344426" lon="6.631578">
        <ele>871.240</ele>
        <time>2018-07-01T12:26:23Z</time>
      </trkpt>
      <trkpt lat="46.344426" lon="6.631578">
        <ele>871.294</ele>
        <time>2018-07-01T12:26:43Z</time>
      </trkpt>
      <trkpt lat="46.343098" lon="6.630786">
        <ele>881.357</ele>
        <time>2018-07-01T12:27:03Z</time>
      </trkpt>
      <trkpt lat="46.343098" lon="6.630786">
        <ele>881.322</ele>
        <time>2018-07-01T12:27:23Z</time>
      </trkpt>
      <trkpt lat="46.342808" lon="6.630750">
        <ele>882.308</ele>
        <time>2018-07-01T12:27:43Z</time>
      </trkpt>
      <trkpt lat="46.342808" lon="6.630750">
        <ele>882.351</ele>
        <time>2018-07-01T12:28:03Z</time>
      </trkpt>
      <trkpt lat="46.342442" lon="6.630864">
        <ele>885.247</ele>
        <time>2018-07-01T12:28:23Z</time>
      </trkpt>
      <trkpt lat="46.342442" lon="6.630864">
        <ele>885.239</ele>
        <time>2018-07-01T12:28:43Z</time>
      </trkpt>
      <trkpt lat="46.342203" lon="6.631761">
        <ele>892.545</ele>
        <time>2018-07-01T12:29:03Z</time>
      </trkpt>
      <trkpt lat="46.342203" lon="6.631761">
        <ele>892.527</ele>
        <time>2018-07-01T12:29:23Z</time>
      </trkpt>
      <trkpt lat="46.342217" lon="6.632292">
        <ele>897.464</ele>
        <time>2018-07-01T12:29:43Z</time>
      </trkpt>
      <trkpt lat="46.342217" lon="6.632292">
        <ele>897.430</ele>
        <time>2018-07-01T12:30:03Z</time>
      </trkpt>
      <trkpt lat="46.342404" lon="6.632914">
        <ele>901.015</ele>
        <time>2018-07-01T12:30:23Z</time>
      </trkpt>
      <trkpt lat="46.342404" lon="6.632914">
        <ele>901.011</ele>
        <time>2018-07-01T12:30:43Z</time>
      </trkpt>
      <trkpt lat="46.342537" lon="6.633096">
        <ele>902.621</ele>
        <time>2018-07-01T12:31:03Z</time>
      </trkpt>
      <trkpt lat="46.342537" lon="6.633096">
        <ele>902.603</ele>
        <time>2018-07-01T12:31:23Z</time>
      </trkpt>
      <trkpt lat="46.343164" lon="6.633337">
        <ele>910.508</ele>
        <time>2018-07-01T12:31:43Z</time>
      </trkpt>
      <trkpt lat="46.343164" lon="6.633337">
        <ele>910.513</ele>
        <time>2018-07-01T12:32:03Z</time>
      </trkpt>
      <trkpt lat="46.343194" lon="6.633468">
        <ele>913.499</ele>
        <time>2018-07-01T12:32:23Z</time>
      </trkpt>
      <trkpt lat="46.343194" lon="6.633468">
        <ele>913.471</ele>
        <time>2018-07-01T12:32:43Z</time>
      </trkpt>
      <trkpt lat="46.343020" lon="6.633840">
        <ele>917.347</ele>
        <time>2018-07-01T12:33:03Z</time>
      </trkpt>
      <trkpt lat="46.342944" lon="6.633906">
        <ele>915.939</ele>
        <time>2018-07-02T07:26:24Z</time>
      </trkpt>
      <trkpt lat="46.342994" lon="6.633902">
        <ele>917.386</ele>
        <time>2018-07-02T07:27:19Z</time>
      </trkpt>
      <trkpt lat="46.343041" lon="6.633897">
        <ele>918.662</ele>
        <time>2018-07-02T07:27:25Z</time>
      </trkpt>
      <trkpt lat="46.343083" lon="6.633866">
        <ele>919.177</ele>
        <time>2018-07-02T07:27:31Z</time>
      </trkpt>
      <trkpt lat="46.343128" lon="6.633883">
        <ele>920.278</ele>
        <time>2018-07-02T07:27:42Z</time>
      </trkpt>
      <trkpt lat="46.343179" lon="6.633883">
        <ele>921.133</ele>
        <time>2018-07-02T07:27:56Z</time>
      </trkpt>
      <trkpt lat="46.343224" lon="6.633862">
        <ele>921.526</ele>
        <time>2018-07-02T07:28:02Z</time>
      </trkpt>
      <trkpt lat="46.343268" lon="6.633843">
        <ele>921.908</ele>
        <time>2018-07-02T07:28:08Z</time>
      </trkpt>
      <trkpt lat="46.343314" lon="6.633827">
        <ele>922.369</ele>
        <time>2018-07-02T07:28:23Z</time>
      </trkpt>
      <trkpt lat="46.343361" lon="6.633811">
        <ele>922.535</ele>
        <time>2018-07-02T07:28:29Z</time>
      </trkpt>
      <trkpt lat="46.343414" lon="6.633812">
        <ele>923.057</ele>
        <time>2018-07-02T07:28:35Z</time>
      </trkpt>
      <trkpt lat="46.343458" lon="6.633837">
        <ele>924.063</ele>
        <time>2018-07-02T07:28:40Z</time>
      </trkpt>
      <trkpt lat="46.343488" lon="6.633893">
        <ele>925.855</ele>
        <time>2018-07-02T07:28:46Z</time>
      </trkpt>
      <trkpt lat="46.343504" lon="6.633957">
        <ele>927.562</ele>
        <time>2018-07-02T07:28:52Z</time>
      </trkpt>
      <trkpt lat="46.343506" lon="6.634026">
        <ele>929.388</ele>
        <time>2018-07-02T07:28:58Z</time>
      </trkpt>
      <trkpt lat="46.343483" lon="6.634083">
        <ele>930.263</ele>
        <time>2018-07-02T07:29:04Z</time>
      </trkpt>
      <trkpt lat="46.343458" lon="6.634146">
        <ele>931.277</ele>
        <time>2018-07-02T07:29:11Z</time>
      </trkpt>
      <trkpt lat="46.343435" lon="6.634207">
        <ele>931.961</ele>
        <time>2018-07-02T07:29:17Z</time>
      </trkpt>
      <trkpt lat="46.343425" lon="6.634282">
        <ele>932.927</ele>
        <time>2018-07-02T07:29:24Z</time>
      </trkpt>
      <trkpt lat="46.343444" lon="6.634342">
        <ele>934.408</ele>
        <time>2018-07-02T07:29:36Z</time>
      </trkpt>
      <trkpt lat="46.343470" lon="6.634407">
        <ele>936.399</ele>
        <time>2018-07-02T07:29:43Z</time>
      </trkpt>
      <trkpt lat="46.343499" lon="6.634460">
        <ele>937.825</ele>
        <time>2018-07-02T07:29:49Z</time>
      </trkpt>
      <trkpt lat="46.343531" lon="6.634514">
        <ele>939.057</ele>
        <time>2018-07-02T07:29:55Z</time>
      </trkpt>
      <trkpt lat="46.343565" lon="6.634567">
        <ele>940.483</ele>
        <time>2018-07-02T07:30:02Z</time>
      </trkpt>
      <trkpt lat="46.343599" lon="6.634614">
        <ele>941.815</ele>
        <time>2018-07-02T07:30:09Z</time>
      </trkpt>
      <trkpt lat="46.343631" lon="6.634664">
        <ele>943.172</ele>
        <time>2018-07-02T07:30:17Z</time>
      </trkpt>
      <trkpt lat="46.343664" lon="6.634712">
        <ele>944.288</ele>
        <time>2018-07-02T07:30:24Z</time>
      </trkpt>
      <trkpt lat="46.343692" lon="6.634771">
        <ele>945.083</ele>
        <time>2018-07-02T07:30:31Z</time>
      </trkpt>
      <trkpt lat="46.343731" lon="6.634818">
        <ele>946.058</ele>
        <time>2018-07-02T07:30:38Z</time>
      </trkpt>
      <trkpt lat="46.343770" lon="6.634867">
        <ele>947.152</ele>
        <time>2018-07-02T07:30:45Z</time>
      </trkpt>
      <trkpt lat="46.343807" lon="6.634909">
        <ele>948.217</ele>
        <time>2018-07-02T07:30:52Z</time>
      </trkpt>
      <trkpt lat="46.343831" lon="6.634974">
        <ele>949.108</ele>
        <time>2018-07-02T07:31:01Z</time>
      </trkpt>
      <trkpt lat="46.343860" lon="6.635033">
        <ele>949.987</ele>
        <time>2018-07-02T07:31:07Z</time>
      </trkpt>
      <trkpt lat="46.343877" lon="6.635096">
        <ele>950.333</ele>
        <time>2018-07-02T07:31:13Z</time>
      </trkpt>
      <trkpt lat="46.343901" lon="6.635155">
        <ele>950.985</ele>
        <time>2018-07-02T07:31:19Z</time>
      </trkpt>
      <trkpt lat="46.343937" lon="6.635208">
        <ele>952.271</ele>
        <time>2018-07-02T07:31:25Z</time>
      </trkpt>
      <trkpt lat="46.343969" lon="6.635261">
        <ele>953.573</ele>
        <time>2018-07-02T07:31:31Z</time>
      </trkpt>
      <trkpt lat="46.344005" lon="6.635316">
        <ele>954.730</ele>
        <time>2018-07-02T07:31:37Z</time>
      </trkpt>
      <trkpt lat="46.344022" lon="6.635377">
        <ele>954.916</ele>
        <time>2018-07-02T07:31:43Z</time>
      </trkpt>
      <trkpt lat="46.344059" lon="6.635425">
        <ele>956.081</ele>
        <time>2018-07-02T07:31:50Z</time>
      </trkpt>
      <trkpt lat="46.344091" lon="6.635473">
        <ele>956.826</ele>
        <time>2018-07-02T07:31:56Z</time>
      </trkpt>
      <trkpt lat="46.344119" lon="6.635531">
        <ele>957.447</ele>
        <time>2018-07-02T07:32:01Z</time>
      </trkpt>
      <trkpt lat="46.344143" lon="6.635589">
        <ele>957.711</ele>
        <time>2018-07-02T07:32:06Z</time>
      </trkpt>
      <trkpt lat="46.344169" lon="6.635645">
        <ele>958.108</ele>
        <time>2018-07-02T07:32:11Z</time>
      </trkpt>
      <trkpt lat="46.344200" lon="6.635708">
        <ele>958.994</ele>
        <time>2018-07-02T07:32:17Z</time>
      </trkpt>
      <trkpt lat="46.344226" lon="6.635765">
        <ele>959.560</ele>
        <time>2018-07-02T07:32:23Z</time>
      </trkpt>
      <trkpt lat="46.344254" lon="6.635817">
        <ele>960.322</ele>
        <time>2018-07-02T07:32:29Z</time>
      </trkpt>
      <trkpt lat="46.344280" lon="6.635877">
        <ele>961.128</ele>
        <time>2018-07-02T07:32:35Z</time>
      </trkpt>
      <trkpt lat="46.344306" lon="6.635936">
        <ele>962.020</ele>
        <time>2018-07-02T07:32:42Z</time>
      </trkpt>
      <trkpt lat="46.344336" lon="6.635993">
        <ele>962.917</ele>
        <time>2018-07-02T07:32:49Z</time>
      </trkpt>
      <trkpt lat="46.344369" lon="6.636048">
        <ele>963.873</ele>
        <time>2018-07-02T07:32:56Z</time>
      </trkpt>
      <trkpt lat="46.344406" lon="6.636096">
        <ele>964.888</ele>
        <time>2018-07-02T07:33:02Z</time>
      </trkpt>
      <trkpt lat="46.344439" lon="6.636151">
        <ele>965.513</ele>
        <time>2018-07-02T07:33:08Z</time>
      </trkpt>
      <trkpt lat="46.344465" lon="6.636213">
        <ele>966.243</ele>
        <time>2018-07-02T07:33:14Z</time>
      </trkpt>
      <trkpt lat="46.344487" lon="6.636281">
        <ele>966.707</ele>
        <time>2018-07-02T07:33:20Z</time>
      </trkpt>
      <trkpt lat="46.344508" lon="6.636340">
        <ele>967.308</ele>
        <time>2018-07-02T07:33:26Z</time>
      </trkpt>
      <trkpt lat="46.344523" lon="6.636408">
        <ele>967.593</ele>
        <time>2018-07-02T07:33:37Z</time>
      </trkpt>
      <trkpt lat="46.344539" lon="6.636473">
        <ele>967.879</ele>
        <time>2018-07-02T07:34:00Z</time>
      </trkpt>
      <trkpt lat="46.344559" lon="6.636534">
        <ele>968.341</ele>
        <time>2018-07-02T07:34:07Z</time>
      </trkpt>
      <trkpt lat="46.344591" lon="6.636583">
        <ele>969.557</ele>
        <time>2018-07-02T07:34:14Z</time>
      </trkpt>
      <trkpt lat="46.344622" lon="6.636634">
        <ele>970.589</ele>
        <time>2018-07-02T07:34:20Z</time>
      </trkpt>
      <trkpt lat="46.344652" lon="6.636691">
        <ele>971.626</ele>
        <time>2018-07-02T07:34:26Z</time>
      </trkpt>
      <trkpt lat="46.344687" lon="6.636747">
        <ele>972.812</ele>
        <time>2018-07-02T07:34:32Z</time>
      </trkpt>
      <trkpt lat="46.344713" lon="6.636803">
        <ele>973.687</ele>
        <time>2018-07-02T07:34:38Z</time>
      </trkpt>
      <trkpt lat="46.344747" lon="6.636847">
        <ele>974.353</ele>
        <time>2018-07-02T07:34:44Z</time>
      </trkpt>
      <trkpt lat="46.344777" lon="6.636900">
        <ele>974.604</ele>
        <time>2018-07-02T07:34:50Z</time>
      </trkpt>
      <trkpt lat="46.344809" lon="6.636952">
        <ele>975.114</ele>
        <time>2018-07-02T07:35:04Z</time>
      </trkpt>
      <trkpt lat="46.344836" lon="6.637010">
        <ele>975.508</ele>
        <time>2018-07-02T07:35:10Z</time>
      </trkpt>
      <trkpt lat="46.344864" lon="6.637070">
        <ele>975.977</ele>
        <time>2018-07-02T07:35:15Z</time>
      </trkpt>
      <trkpt lat="46.344895" lon="6.637126">
        <ele>976.583</ele>
        <time>2018-07-02T07:35:20Z</time>
      </trkpt>
      <trkpt lat="46.344924" lon="6.637188">
        <ele>977.035</ele>
        <time>2018-07-02T07:35:25Z</time>
      </trkpt>
      <trkpt lat="46.344952" lon="6.637244">
        <ele>977.461</ele>
        <time>2018-07-02T07:35:29Z</time>
      </trkpt>
      <trkpt lat="46.344983" lon="6.637297">
        <ele>977.793</ele>
        <time>2018-07-02T07:35:33Z</time>
      </trkpt>
      <trkpt lat="46.345014" lon="6.637353">
        <ele>977.710</ele>
        <time>2018-07-02T07:35:37Z</time>
      </trkpt>
      <trkpt lat="46.345047" lon="6.637417">
        <ele>977.486</ele>
        <time>2018-07-02T07:35:42Z</time>
      </trkpt>
      <trkpt lat="46.345073" lon="6.637470">
        <ele>977.381</ele>
        <time>2018-07-02T07:35:46Z</time>
      </trkpt>
      <trkpt lat="46.345100" lon="6.637526">
        <ele>977.194</ele>
        <time>2018-07-02T07:35:50Z</time>
      </trkpt>
      <trkpt lat="46.345128" lon="6.637581">
        <ele>976.957</ele>
        <time>2018-07-02T07:35:54Z</time>
      </trkpt>
      <trkpt lat="46.345158" lon="6.637634">
        <ele>976.922</ele>
        <time>2018-07-02T07:35:58Z</time>
      </trkpt>
      <trkpt lat="46.345187" lon="6.637685">
        <ele>976.908</ele>
        <time>2018-07-02T07:36:02Z</time>
      </trkpt>
      <trkpt lat="46.345215" lon="6.637737">
        <ele>977.041</ele>
        <time>2018-07-02T07:36:06Z</time>
      </trkpt>
      <trkpt lat="46.345248" lon="6.637798">
        <ele>977.177</ele>
        <time>2018-07-02T07:36:11Z</time>
      </trkpt>
      <trkpt lat="46.345285" lon="6.637858">
        <ele>976.999</ele>
        <time>2018-07-02T07:36:16Z</time>
      </trkpt>
      <trkpt lat="46.345322" lon="6.637912">
        <ele>976.745</ele>
        <time>2018-07-02T07:36:21Z</time>
      </trkpt>
      <trkpt lat="46.345360" lon="6.637966">
        <ele>976.777</ele>
        <time>2018-07-02T07:36:26Z</time>
      </trkpt>
      <trkpt lat="46.345403" lon="6.638012">
        <ele>977.044</ele>
        <time>2018-07-02T07:36:31Z</time>
      </trkpt>
      <trkpt lat="46.345446" lon="6.638054">
        <ele>977.670</ele>
        <time>2018-07-02T07:36:36Z</time>
      </trkpt>
      <trkpt lat="46.345485" lon="6.638096">
        <ele>978.115</ele>
        <time>2018-07-02T07:36:41Z</time>
      </trkpt>
      <trkpt lat="46.345526" lon="6.638137">
        <ele>978.781</ele>
        <time>2018-07-02T07:36:46Z</time>
      </trkpt>
      <trkpt lat="46.345563" lon="6.638173">
        <ele>979.261</ele>
        <time>2018-07-02T07:36:50Z</time>
      </trkpt>
      <trkpt lat="46.345605" lon="6.638216">
        <ele>979.017</ele>
        <time>2018-07-02T07:36:55Z</time>
      </trkpt>
      <trkpt lat="46.345642" lon="6.638259">
        <ele>979.008</ele>
        <time>2018-07-02T07:37:00Z</time>
      </trkpt>
      <trkpt lat="46.345683" lon="6.638306">
        <ele>979.020</ele>
        <time>2018-07-02T07:37:05Z</time>
      </trkpt>
      <trkpt lat="46.345725" lon="6.638346">
        <ele>979.176</ele>
        <time>2018-07-02T07:37:10Z</time>
      </trkpt>
      <trkpt lat="46.345763" lon="6.638381">
        <ele>979.218</ele>
        <time>2018-07-02T07:37:15Z</time>
      </trkpt>
      <trkpt lat="46.345806" lon="6.638429">
        <ele>979.454</ele>
        <time>2018-07-02T07:37:21Z</time>
      </trkpt>
      <trkpt lat="46.345845" lon="6.638469">
        <ele>979.586</ele>
        <time>2018-07-02T07:37:26Z</time>
      </trkpt>
      <trkpt lat="46.345880" lon="6.638514">
        <ele>979.523</ele>
        <time>2018-07-02T07:37:32Z</time>
      </trkpt>
      <trkpt lat="46.345913" lon="6.638561">
        <ele>979.439</ele>
        <time>2018-07-02T07:37:38Z</time>
      </trkpt>
      <trkpt lat="46.345954" lon="6.638603">
        <ele>979.594</ele>
        <time>2018-07-02T07:37:44Z</time>
      </trkpt>
      <trkpt lat="46.345991" lon="6.638642">
        <ele>979.547</ele>
        <time>2018-07-02T07:37:49Z</time>
      </trkpt>
      <trkpt lat="46.346032" lon="6.638686">
        <ele>979.629</ele>
        <time>2018-07-02T07:37:54Z</time>
      </trkpt>
      <trkpt lat="46.346069" lon="6.638730">
        <ele>979.721</ele>
        <time>2018-07-02T07:37:59Z</time>
      </trkpt>
      <trkpt lat="46.346106" lon="6.638768">
        <ele>980.008</ele>
        <time>2018-07-02T07:38:04Z</time>
      </trkpt>
      <trkpt lat="46.346142" lon="6.638808">
        <ele>980.526</ele>
        <time>2018-07-02T07:38:09Z</time>
      </trkpt>
      <trkpt lat="46.346177" lon="6.638855">
        <ele>981.292</ele>
        <time>2018-07-02T07:38:14Z</time>
      </trkpt>
      <trkpt lat="46.346208" lon="6.638909">
        <ele>981.844</ele>
        <time>2018-07-02T07:38:19Z</time>
      </trkpt>
      <trkpt lat="46.346243" lon="6.638963">
        <ele>982.570</ele>
        <time>2018-07-02T07:38:24Z</time>
      </trkpt>
      <trkpt lat="46.346277" lon="6.639022">
        <ele>983.332</ele>
        <time>2018-07-02T07:38:29Z</time>
      </trkpt>
      <trkpt lat="46.346315" lon="6.639078">
        <ele>984.239</ele>
        <time>2018-07-02T07:38:34Z</time>
      </trkpt>
      <trkpt lat="46.346351" lon="6.639129">
        <ele>985.135</ele>
        <time>2018-07-02T07:38:39Z</time>
      </trkpt>
      <trkpt lat="46.346383" lon="6.639190">
        <ele>986.060</ele>
        <time>2018-07-02T07:38:44Z</time>
      </trkpt>
      <trkpt lat="46.346409" lon="6.639256">
        <ele>986.623</ele>
        <time>2018-07-02T07:38:49Z</time>
      </trkpt>
      <trkpt lat="46.346432" lon="6.639328">
        <ele>987.183</ele>
        <time>2018-07-02T07:38:54Z</time>
      </trkpt>
      <trkpt lat="46.346451" lon="6.639393">
        <ele>987.711</ele>
        <time>2018-07-02T07:38:59Z</time>
      </trkpt>
      <trkpt lat="46.346458" lon="6.639466">
        <ele>988.208</ele>
        <time>2018-07-02T07:39:05Z</time>
      </trkpt>
      <trkpt lat="46.346447" lon="6.639534">
        <ele>988.874</ele>
        <time>2018-07-02T07:39:10Z</time>
      </trkpt>
      <trkpt lat="46.346436" lon="6.639600">
        <ele>989.420</ele>
        <time>2018-07-02T07:39:15Z</time>
      </trkpt>
      <trkpt lat="46.346427" lon="6.639674">
        <ele>990.022</ele>
        <time>2018-07-02T07:39:21Z</time>
      </trkpt>
      <trkpt lat="46.346417" lon="6.639740">
        <ele>990.548</ele>
        <time>2018-07-02T07:39:27Z</time>
      </trkpt>
      <trkpt lat="46.346413" lon="6.639810">
        <ele>991.040</ele>
        <time>2018-07-02T07:39:33Z</time>
      </trkpt>
      <trkpt lat="46.346399" lon="6.639878">
        <ele>991.337</ele>
        <time>2018-07-02T07:40:54Z</time>
      </trkpt>
      <trkpt lat="46.346416" lon="6.639948">
        <ele>992.133</ele>
        <time>2018-07-02T07:41:11Z</time>
      </trkpt>
      <trkpt lat="46.346430" lon="6.640012">
        <ele>992.998</ele>
        <time>2018-07-02T07:41:24Z</time>
      </trkpt>
      <trkpt lat="46.346449" lon="6.640073">
        <ele>993.965</ele>
        <time>2018-07-02T07:41:35Z</time>
      </trkpt>
      <trkpt lat="46.346468" lon="6.640145">
        <ele>995.068</ele>
        <time>2018-07-02T07:41:47Z</time>
      </trkpt>
      <trkpt lat="46.346483" lon="6.640210">
        <ele>996.014</ele>
        <time>2018-07-02T07:41:56Z</time>
      </trkpt>
      <trkpt lat="46.346507" lon="6.640275">
        <ele>997.108</ele>
        <time>2018-07-02T07:42:07Z</time>
      </trkpt>
      <trkpt lat="46.346535" lon="6.640331">
        <ele>998.128</ele>
        <time>2018-07-02T07:42:14Z</time>
      </trkpt>
      <trkpt lat="46.346554" lon="6.640399">
        <ele>999.124</ele>
        <time>2018-07-02T07:42:22Z</time>
      </trkpt>
      <trkpt lat="46.346559" lon="6.640471">
        <ele>999.956</ele>
        <time>2018-07-02T07:42:30Z</time>
      </trkpt>
      <trkpt lat="46.346588" lon="6.640523">
        <ele>1001.082</ele>
        <time>2018-07-02T07:42:37Z</time>
      </trkpt>
      <trkpt lat="46.346607" lon="6.640591">
        <ele>1002.164</ele>
        <time>2018-07-02T07:42:47Z</time>
      </trkpt>
      <trkpt lat="46.346636" lon="6.640643">
        <ele>1003.271</ele>
        <time>2018-07-02T07:42:54Z</time>
      </trkpt>
      <trkpt lat="46.346671" lon="6.640683">
        <ele>1004.477</ele>
        <time>2018-07-02T07:43:01Z</time>
      </trkpt>
      <trkpt lat="46.346696" lon="6.640738">
        <ele>1005.562</ele>
        <time>2018-07-02T07:43:09Z</time>
      </trkpt>
      <trkpt lat="46.346698" lon="6.640807">
        <ele>1006.419</ele>
        <time>2018-07-02T07:43:21Z</time>
      </trkpt>
      <trkpt lat="46.346738" lon="6.640846">
        <ele>1007.709</ele>
        <time>2018-07-02T07:43:32Z</time>
      </trkpt>
      <trkpt lat="46.346781" lon="6.640881">
        <ele>1009.019</ele>
        <time>2018-07-02T07:43:42Z</time>
      </trkpt>
      <trkpt lat="46.346829" lon="6.640893">
        <ele>1010.308</ele>
        <time>2018-07-02T07:43:49Z</time>
      </trkpt>
      <trkpt lat="46.346875" lon="6.640919">
        <ele>1011.823</ele>
        <time>2018-07-02T07:43:56Z</time>
      </trkpt>
      <trkpt lat="46.346918" lon="6.640962">
        <ele>1013.639</ele>
        <time>2018-07-02T07:44:08Z</time>
      </trkpt>
      <trkpt lat="46.346959" lon="6.641009">
        <ele>1015.471</ele>
        <time>2018-07-02T07:44:16Z</time>
      </trkpt>
      <trkpt lat="46.346990" lon="6.641065">
        <ele>1016.827</ele>
        <time>2018-07-02T07:44:24Z</time>
      </trkpt>
      <trkpt lat="46.347025" lon="6.641116">
        <ele>1018.299</ele>
        <time>2018-07-02T07:44:32Z</time>
      </trkpt>
      <trkpt lat="46.347038" lon="6.641185">
        <ele>1019.116</ele>
        <time>2018-07-02T07:44:49Z</time>
      </trkpt>
      <trkpt lat="46.347044" lon="6.641251">
        <ele>1019.922</ele>
        <time>2018-07-02T07:44:57Z</time>
      </trkpt>
      <trkpt lat="46.347067" lon="6.641308">
        <ele>1020.967</ele>
        <time>2018-07-02T07:45:04Z</time>
      </trkpt>
      <trkpt lat="46.347092" lon="6.641364">
        <ele>1021.922</ele>
        <time>2018-07-02T07:45:12Z</time>
      </trkpt>
      <trkpt lat="46.347123" lon="6.641439">
        <ele>1023.262</ele>
        <time>2018-07-02T07:45:21Z</time>
      </trkpt>
      <trkpt lat="46.347132" lon="6.641503">
        <ele>1024.208</ele>
        <time>2018-07-02T07:45:30Z</time>
      </trkpt>
      <trkpt lat="46.347111" lon="6.641620">
        <ele>1025.408</ele>
        <time>2018-07-02T07:45:42Z</time>
      </trkpt>
      <trkpt lat="46.347086" lon="6.641676">
        <ele>1025.714</ele>
        <time>2018-07-02T07:45:48Z</time>
      </trkpt>
      <trkpt lat="46.347091" lon="6.641743">
        <ele>1026.750</ele>
        <time>2018-07-02T07:46:07Z</time>
      </trkpt>
      <trkpt lat="46.347122" lon="6.641800">
        <ele>1028.152</ele>
        <time>2018-07-02T07:46:17Z</time>
      </trkpt>
      <trkpt lat="46.347133" lon="6.641867">
        <ele>1029.368</ele>
        <time>2018-07-02T07:46:24Z</time>
      </trkpt>
      <trkpt lat="46.347150" lon="6.641933">
        <ele>1030.540</ele>
        <time>2018-07-02T07:46:32Z</time>
      </trkpt>
      <trkpt lat="46.347156" lon="6.641999">
        <ele>1031.677</ele>
        <time>2018-07-02T07:46:38Z</time>
      </trkpt>
      <trkpt lat="46.347181" lon="6.642076">
        <ele>1033.233</ele>
        <time>2018-07-02T07:46:56Z</time>
      </trkpt>
      <trkpt lat="46.347198" lon="6.642140">
        <ele>1034.498</ele>
        <time>2018-07-02T07:47:09Z</time>
      </trkpt>
      <trkpt lat="46.347237" lon="6.642180">
        <ele>1035.776</ele>
        <time>2018-07-02T07:47:23Z</time>
      </trkpt>
      <trkpt lat="46.347263" lon="6.642233">
        <ele>1036.990</ele>
        <time>2018-07-02T07:47:31Z</time>
      </trkpt>
      <trkpt lat="46.347297" lon="6.642280">
        <ele>1038.419</ele>
        <time>2018-07-02T07:47:41Z</time>
      </trkpt>
      <trkpt lat="46.347346" lon="6.642304">
        <ele>1039.708</ele>
        <time>2018-07-02T07:47:49Z</time>
      </trkpt>
      <trkpt lat="46.347388" lon="6.642358">
        <ele>1041.449</ele>
        <time>2018-07-02T07:47:58Z</time>
      </trkpt>
      <trkpt lat="46.347382" lon="6.642425">
        <ele>1042.555</ele>
        <time>2018-07-02T07:48:17Z</time>
      </trkpt>
      <trkpt lat="46.347374" lon="6.642497">
        <ele>1043.717</ele>
        <time>2018-07-02T07:48:34Z</time>
      </trkpt>
      <trkpt lat="46.347372" lon="6.642568">
        <ele>1045.443</ele>
        <time>2018-07-02T07:48:55Z</time>
      </trkpt>
      <trkpt lat="46.347367" lon="6.642649">
        <ele>1047.485</ele>
        <time>2018-07-02T07:49:16Z</time>
      </trkpt>
      <trkpt lat="46.347356" lon="6.642720">
        <ele>1049.062</ele>
        <time>2018-07-02T07:49:24Z</time>
      </trkpt>
      <trkpt lat="46.347331" lon="6.642797">
        <ele>1050.498</ele>
        <time>2018-07-02T07:49:33Z</time>
      </trkpt>
      <trkpt lat="46.347323" lon="6.642866">
        <ele>1052.033</ele>
        <time>2018-07-02T07:49:45Z</time>
      </trkpt>
      <trkpt lat="46.347299" lon="6.642922">
        <ele>1052.867</ele>
        <time>2018-07-02T07:49:51Z</time>
      </trkpt>
      <trkpt lat="46.347267" lon="6.642984">
        <ele>1053.581</ele>
        <time>2018-07-02T07:49:56Z</time>
      </trkpt>
      <trkpt lat="46.347246" lon="6.643051">
        <ele>1054.519</ele>
        <time>2018-07-02T07:50:00Z</time>
      </trkpt>
      <trkpt lat="46.347222" lon="6.643113">
        <ele>1055.408</ele>
        <time>2018-07-02T07:50:04Z</time>
      </trkpt>
      <trkpt lat="46.347188" lon="6.643163">
        <ele>1055.868</ele>
        <time>2018-07-02T07:50:10Z</time>
      </trkpt>
      <trkpt lat="46.347185" lon="6.643235">
        <ele>1057.484</ele>
        <time>2018-07-02T07:50:22Z</time>
      </trkpt>
      <trkpt lat="46.347196" lon="6.643317">
        <ele>1059.886</ele>
        <time>2018-07-02T07:50:39Z</time>
      </trkpt>
      <trkpt lat="46.347203" lon="6.643382">
        <ele>1061.472</ele>
        <time>2018-07-02T07:50:48Z</time>
      </trkpt>
      <trkpt lat="46.347208" lon="6.643447">
        <ele>1063.044</ele>
        <time>2018-07-02T07:50:59Z</time>
      </trkpt>
      <trkpt lat="46.347222" lon="6.643523">
        <ele>1065.191</ele>
        <time>2018-07-02T07:51:07Z</time>
      </trkpt>
      <trkpt lat="46.347228" lon="6.643595">
        <ele>1066.977</ele>
        <time>2018-07-02T07:51:11Z</time>
      </trkpt>
      <trkpt lat="46.347226" lon="6.643665">
        <ele>1068.552</ele>
        <time>2018-07-02T07:51:17Z</time>
      </trkpt>
      <trkpt lat="46.347231" lon="6.643735">
        <ele>1070.488</ele>
        <time>2018-07-02T07:51:29Z</time>
      </trkpt>
      <trkpt lat="46.347233" lon="6.643808">
        <ele>1072.324</ele>
        <time>2018-07-02T07:51:37Z</time>
      </trkpt>
      <trkpt lat="46.347230" lon="6.643888">
        <ele>1074.226</ele>
        <time>2018-07-02T07:51:50Z</time>
      </trkpt>
      <trkpt lat="46.347242" lon="6.643953">
        <ele>1075.708</ele>
        <time>2018-07-02T07:51:59Z</time>
      </trkpt>
      <trkpt lat="46.347244" lon="6.644027">
        <ele>1077.160</ele>
        <time>2018-07-02T07:52:05Z</time>
      </trkpt>
      <trkpt lat="46.347238" lon="6.644098">
        <ele>1078.286</ele>
        <time>2018-07-02T07:52:18Z</time>
      </trkpt>
      <trkpt lat="46.347226" lon="6.644208">
        <ele>1079.548</ele>
        <time>2018-07-02T07:52:35Z</time>
      </trkpt>
      <trkpt lat="46.347210" lon="6.644270">
        <ele>1079.764</ele>
        <time>2018-07-02T07:52:44Z</time>
      </trkpt>
      <trkpt lat="46.347178" lon="6.644319">
        <ele>1079.246</ele>
        <time>2018-07-02T07:52:57Z</time>
      </trkpt>
      <trkpt lat="46.347161" lon="6.644384">
        <ele>1079.523</ele>
        <time>2018-07-02T07:53:08Z</time>
      </trkpt>
      <trkpt lat="46.347142" lon="6.644449">
        <ele>1079.729</ele>
        <time>2018-07-02T07:53:15Z</time>
      </trkpt>
      <trkpt lat="46.347141" lon="6.644535">
        <ele>1080.774</ele>
        <time>2018-07-02T07:53:26Z</time>
      </trkpt>
      <trkpt lat="46.347140" lon="6.644605">
        <ele>1081.559</ele>
        <time>2018-07-02T07:53:39Z</time>
      </trkpt>
      <trkpt lat="46.347146" lon="6.644670">
        <ele>1082.503</ele>
        <time>2018-07-02T07:53:47Z</time>
      </trkpt>
      <trkpt lat="46.347157" lon="6.644760">
        <ele>1083.823</ele>
        <time>2018-07-02T07:54:11Z</time>
      </trkpt>
      <trkpt lat="46.347203" lon="6.644818">
        <ele>1085.608</ele>
        <time>2018-07-02T07:54:38Z</time>
      </trkpt>
      <trkpt lat="46.347246" lon="6.644845">
        <ele>1086.857</ele>
        <time>2018-07-02T07:54:51Z</time>
      </trkpt>
      <trkpt lat="46.347292" lon="6.644858">
        <ele>1088.073</ele>
        <time>2018-07-02T07:55:00Z</time>
      </trkpt>
      <trkpt lat="46.347314" lon="6.644923">
        <ele>1089.285</ele>
        <time>2018-07-02T07:55:10Z</time>
      </trkpt>
      <trkpt lat="46.347342" lon="6.644984">
        <ele>1090.481</ele>
        <time>2018-07-02T07:55:17Z</time>
      </trkpt>
      <trkpt lat="46.347374" lon="6.645035">
        <ele>1091.813</ele>
        <time>2018-07-02T07:55:25Z</time>
      </trkpt>
      <trkpt lat="46.347413" lon="6.645077">
        <ele>1093.020</ele>
        <time>2018-07-02T07:55:32Z</time>
      </trkpt>
      <trkpt lat="46.347447" lon="6.645128">
        <ele>1094.126</ele>
        <time>2018-07-02T07:55:38Z</time>
      </trkpt>
      <trkpt lat="46.347480" lon="6.645184">
        <ele>1095.141</ele>
        <time>2018-07-02T07:55:45Z</time>
      </trkpt>
      <trkpt lat="46.347509" lon="6.645238">
        <ele>1095.771</ele>
        <time>2018-07-02T07:55:51Z</time>
      </trkpt>
      <trkpt lat="46.347541" lon="6.645294">
        <ele>1095.941</ele>
        <time>2018-07-02T07:55:58Z</time>
      </trkpt>
      <trkpt lat="46.347569" lon="6.645347">
        <ele>1096.215</ele>
        <time>2018-07-02T07:56:04Z</time>
      </trkpt>
      <trkpt lat="46.347596" lon="6.645400">
        <ele>1096.508</ele>
        <time>2018-07-02T07:56:10Z</time>
      </trkpt>
      <trkpt lat="46.347609" lon="6.645465">
        <ele>1097.049</ele>
        <time>2018-07-02T07:56:17Z</time>
      </trkpt>
      <trkpt lat="46.347621" lon="6.645537">
        <ele>1097.515</ele>
        <time>2018-07-02T07:56:24Z</time>
      </trkpt>
      <trkpt lat="46.347640" lon="6.645597">
        <ele>1097.847</ele>
        <time>2018-07-02T07:56:30Z</time>
      </trkpt>
      <trkpt lat="46.347657" lon="6.645669">
        <ele>1098.173</ele>
        <time>2018-07-02T07:56:36Z</time>
      </trkpt>
      <trkpt lat="46.347674" lon="6.645734">
        <ele>1098.295</ele>
        <time>2018-07-02T07:56:41Z</time>
      </trkpt>
      <trkpt lat="46.347684" lon="6.645799">
        <ele>1098.512</ele>
        <time>2018-07-02T07:56:46Z</time>
      </trkpt>
      <trkpt lat="46.347695" lon="6.645864">
        <ele>1098.778</ele>
        <time>2018-07-02T07:56:51Z</time>
      </trkpt>
      <trkpt lat="46.347706" lon="6.645927">
        <ele>1099.193</ele>
        <time>2018-07-02T07:56:56Z</time>
      </trkpt>
      <trkpt lat="46.347714" lon="6.645994">
        <ele>1099.466</ele>
        <time>2018-07-02T07:57:01Z</time>
      </trkpt>
      <trkpt lat="46.347726" lon="6.646066">
        <ele>1099.829</ele>
        <time>2018-07-02T07:57:06Z</time>
      </trkpt>
      <trkpt lat="46.347733" lon="6.646141">
        <ele>1100.221</ele>
        <time>2018-07-02T07:57:11Z</time>
      </trkpt>
      <trkpt lat="46.347737" lon="6.646221">
        <ele>1100.708</ele>
        <time>2018-07-02T07:57:16Z</time>
      </trkpt>
      <trkpt lat="46.347741" lon="6.646297">
        <ele>1101.278</ele>
        <time>2018-07-02T07:57:21Z</time>
      </trkpt>
      <trkpt lat="46.347745" lon="6.646371">
        <ele>1101.774</ele>
        <time>2018-07-02T07:57:26Z</time>
      </trkpt>
      <trkpt lat="46.347751" lon="6.646442">
        <ele>1102.116</ele>
        <time>2018-07-02T07:57:31Z</time>
      </trkpt>
      <trkpt lat="46.347759" lon="6.646513">
        <ele>1102.482</ele>
        <time>2018-07-02T07:57:36Z</time>
      </trkpt>
      <trkpt lat="46.347760" lon="6.646589">
        <ele>1102.974</ele>
        <time>2018-07-02T07:57:41Z</time>
      </trkpt>
      <trkpt lat="46.347764" lon="6.646665">
        <ele>1103.451</ele>
        <time>2018-07-02T07:57:46Z</time>
      </trkpt>
      <trkpt lat="46.347762" lon="6.646740">
        <ele>1103.727</ele>
        <time>2018-07-02T07:57:51Z</time>
      </trkpt>
      <trkpt lat="46.347768" lon="6.646818">
        <ele>1103.892</ele>
        <time>2018-07-02T07:57:56Z</time>
      </trkpt>
      <trkpt lat="46.347775" lon="6.646891">
        <ele>1103.913</ele>
        <time>2018-07-02T07:58:01Z</time>
      </trkpt>
      <trkpt lat="46.347786" lon="6.646960">
        <ele>1103.843</ele>
        <time>2018-07-02T07:58:06Z</time>
      </trkpt>
      <trkpt lat="46.347775" lon="6.646976">
        <ele>1104.207</ele>
        <time>2018-07-02T08:01:20Z</time>
      </trkpt>
      <trkpt lat="46.347786" lon="6.647045">
        <ele>1104.208</ele>
        <time>2018-07-02T08:01:28Z</time>
      </trkpt>
      <trkpt lat="46.347789" lon="6.647119">
        <ele>1104.393</ele>
        <time>2018-07-02T08:01:36Z</time>
      </trkpt>
      <trkpt lat="46.347803" lon="6.647186">
        <ele>1104.289</ele>
        <time>2018-07-02T08:01:41Z</time>
      </trkpt>
      <trkpt lat="46.347824" lon="6.647245">
        <ele>1103.911</ele>
        <time>2018-07-02T08:02:35Z</time>
      </trkpt>
      <trkpt lat="46.347819" lon="6.647320">
        <ele>1104.377</ele>
        <time>2018-07-02T08:02:44Z</time>
      </trkpt>
      <trkpt lat="46.347804" lon="6.647383">
        <ele>1104.959</ele>
        <time>2018-07-02T08:02:49Z</time>
      </trkpt>
      <trkpt lat="46.347794" lon="6.647449">
        <ele>1105.486</ele>
        <time>2018-07-02T08:02:54Z</time>
      </trkpt>
      <trkpt lat="46.347770" lon="6.647509">
        <ele>1106.312</ele>
        <time>2018-07-02T08:03:09Z</time>
      </trkpt>
      <trkpt lat="46.347763" lon="6.647573">
        <ele>1107.087</ele>
        <time>2018-07-02T08:03:16Z</time>
      </trkpt>
      <trkpt lat="46.347753" lon="6.647649">
        <ele>1107.821</ele>
        <time>2018-07-02T08:03:23Z</time>
      </trkpt>
      <trkpt lat="46.347744" lon="6.647721">
        <ele>1108.641</ele>
        <time>2018-07-02T08:03:30Z</time>
      </trkpt>
      <trkpt lat="46.347732" lon="6.647784">
        <ele>1109.305</ele>
        <time>2018-07-02T08:03:36Z</time>
      </trkpt>
      <trkpt lat="46.347723" lon="6.647855">
        <ele>1109.908</ele>
        <time>2018-07-02T08:03:43Z</time>
      </trkpt>
      <trkpt lat="46.347719" lon="6.647926">
        <ele>1110.334</ele>
        <time>2018-07-02T08:03:52Z</time>
      </trkpt>
      <trkpt lat="46.347713" lon="6.647994">
        <ele>1110.860</ele>
        <time>2018-07-02T08:03:59Z</time>
      </trkpt>
      <trkpt lat="46.347709" lon="6.648059">
        <ele>1111.312</ele>
        <time>2018-07-02T08:04:07Z</time>
      </trkpt>
      <trkpt lat="46.347707" lon="6.648125">
        <ele>1111.888</ele>
        <time>2018-07-02T08:04:14Z</time>
      </trkpt>
      <trkpt lat="46.347692" lon="6.648188">
        <ele>1112.740</ele>
        <time>2018-07-02T08:04:26Z</time>
      </trkpt>
      <trkpt lat="46.347688" lon="6.648259">
        <ele>1113.417</ele>
        <time>2018-07-02T08:04:36Z</time>
      </trkpt>
      <trkpt lat="46.347685" lon="6.648329">
        <ele>1114.073</ele>
        <time>2018-07-02T08:04:43Z</time>
      </trkpt>
      <trkpt lat="46.347670" lon="6.648391">
        <ele>1114.948</ele>
        <time>2018-07-02T08:04:49Z</time>
      </trkpt>
      <trkpt lat="46.347652" lon="6.648461">
        <ele>1116.068</ele>
        <time>2018-07-02T08:04:57Z</time>
      </trkpt>
      <trkpt lat="46.347638" lon="6.648525">
        <ele>1116.942</ele>
        <time>2018-07-02T08:05:04Z</time>
      </trkpt>
      <trkpt lat="46.347622" lon="6.648592">
        <ele>1117.926</ele>
        <time>2018-07-02T08:05:14Z</time>
      </trkpt>
      <trkpt lat="46.347602" lon="6.648655">
        <ele>1119.208</ele>
        <time>2018-07-02T08:05:24Z</time>
      </trkpt>
      <trkpt lat="46.347588" lon="6.648722">
        <ele>1120.378</ele>
        <time>2018-07-02T08:05:35Z</time>
      </trkpt>
      <trkpt lat="46.347579" lon="6.648787">
        <ele>1121.394</ele>
        <time>2018-07-02T08:05:42Z</time>
      </trkpt>
      <trkpt lat="46.347569" lon="6.648855">
        <ele>1122.426</ele>
        <time>2018-07-02T08:05:50Z</time>
      </trkpt>
      <trkpt lat="46.347555" lon="6.648923">
        <ele>1123.532</ele>
        <time>2018-07-02T08:05:58Z</time>
      </trkpt>
      <trkpt lat="46.347547" lon="6.648992">
        <ele>1124.364</ele>
        <time>2018-07-02T08:06:07Z</time>
      </trkpt>
      <trkpt lat="46.347547" lon="6.649058">
        <ele>1124.881</ele>
        <time>2018-07-02T08:06:14Z</time>
      </trkpt>
      <trkpt lat="46.347545" lon="6.649129">
        <ele>1125.497</ele>
        <time>2018-07-02T08:06:21Z</time>
      </trkpt>
      <trkpt lat="46.347535" lon="6.649195">
        <ele>1126.332</ele>
        <time>2018-07-02T08:06:28Z</time>
      </trkpt>
      <trkpt lat="46.347538" lon="6.649264">
        <ele>1127.032</ele>
        <time>2018-07-02T08:06:36Z</time>
      </trkpt>
      <trkpt lat="46.347531" lon="6.649336">
        <ele>1127.992</ele>
        <time>2018-07-02T08:06:45Z</time>
      </trkpt>
      <trkpt lat="46.347524" lon="6.649404">
        <ele>1128.911</ele>
        <time>2018-07-02T08:06:53Z</time>
      </trkpt>
      <trkpt lat="46.347514" lon="6.649474">
        <ele>1129.808</ele>
        <time>2018-07-02T08:07:01Z</time>
      </trkpt>
      <trkpt lat="46.347505" lon="6.649542">
        <ele>1130.615</ele>
        <time>2018-07-02T08:07:30Z</time>
      </trkpt>
      <trkpt lat="46.347498" lon="6.649606">
        <ele>1131.231</ele>
        <time>2018-07-02T08:07:36Z</time>
      </trkpt>
      <trkpt lat="46.347488" lon="6.649678">
        <ele>1132.023</ele>
        <time>2018-07-02T08:07:43Z</time>
      </trkpt>
      <trkpt lat="46.347478" lon="6.649750">
        <ele>1132.839</ele>
        <time>2018-07-02T08:07:50Z</time>
      </trkpt>
      <trkpt lat="46.347470" lon="6.649822">
        <ele>1133.551</ele>
        <time>2018-07-02T08:07:57Z</time>
      </trkpt>
      <trkpt lat="46.347467" lon="6.649887">
        <ele>1134.198</ele>
        <time>2018-07-02T08:08:03Z</time>
      </trkpt>
      <trkpt lat="46.347452" lon="6.649956">
        <ele>1135.044</ele>
        <time>2018-07-02T08:08:09Z</time>
      </trkpt>
      <trkpt lat="46.347432" lon="6.650023">
        <ele>1136.249</ele>
        <time>2018-07-02T08:08:15Z</time>
      </trkpt>
      <trkpt lat="46.347419" lon="6.650088">
        <ele>1137.294</ele>
        <time>2018-07-02T08:08:21Z</time>
      </trkpt>
      <trkpt lat="46.347419" lon="6.650163">
        <ele>1137.857</ele>
        <time>2018-07-02T08:08:28Z</time>
      </trkpt>
      <trkpt lat="46.347408" lon="6.650233">
        <ele>1138.922</ele>
        <time>2018-07-02T08:08:35Z</time>
      </trkpt>
      <trkpt lat="46.347396" lon="6.650299">
        <ele>1140.108</ele>
        <time>2018-07-02T08:08:41Z</time>
      </trkpt>
      <trkpt lat="46.347398" lon="6.650372">
        <ele>1141.231</ele>
        <time>2018-07-02T08:08:48Z</time>
      </trkpt>
      <trkpt lat="46.347409" lon="6.650436">
        <ele>1141.797</ele>
        <time>2018-07-02T08:08:54Z</time>
      </trkpt>
      <trkpt lat="46.347421" lon="6.650499">
        <ele>1142.329</ele>
        <time>2018-07-02T08:09:00Z</time>
      </trkpt>
      <trkpt lat="46.347423" lon="6.650567">
        <ele>1143.285</ele>
        <time>2018-07-02T08:09:07Z</time>
      </trkpt>
      <trkpt lat="46.347431" lon="6.650639">
        <ele>1143.967</ele>
        <time>2018-07-02T08:09:14Z</time>
      </trkpt>
      <trkpt lat="46.347438" lon="6.650709">
        <ele>1144.514</ele>
        <time>2018-07-02T08:09:22Z</time>
      </trkpt>
      <trkpt lat="46.347453" lon="6.650773">
        <ele>1144.920</ele>
        <time>2018-07-02T08:09:30Z</time>
      </trkpt>
      <trkpt lat="46.347460" lon="6.650845">
        <ele>1145.685</ele>
        <time>2018-07-02T08:09:39Z</time>
      </trkpt>
      <trkpt lat="46.347479" lon="6.650910">
        <ele>1146.118</ele>
        <time>2018-07-02T08:09:46Z</time>
      </trkpt>
      <trkpt lat="46.347496" lon="6.650976">
        <ele>1146.798</ele>
        <time>2018-07-02T08:09:55Z</time>
      </trkpt>
      <trkpt lat="46.347508" lon="6.651042">
        <ele>1147.517</ele>
        <time>2018-07-02T08:10:01Z</time>
      </trkpt>
      <trkpt lat="46.347507" lon="6.651116">
        <ele>1148.808</ele>
        <time>2018-07-02T08:10:08Z</time>
      </trkpt>
      <trkpt lat="46.347527" lon="6.651184">
        <ele>1149.083</ele>
        <time>2018-07-02T08:10:16Z</time>
      </trkpt>
      <trkpt lat="46.347522" lon="6.651250">
        <ele>1150.139</ele>
        <time>2018-07-02T08:10:23Z</time>
      </trkpt>
      <trkpt lat="46.347513" lon="6.651317">
        <ele>1151.531</ele>
        <time>2018-07-02T08:10:31Z</time>
      </trkpt>
      <trkpt lat="46.347507" lon="6.651386">
        <ele>1152.757</ele>
        <time>2018-07-02T08:10:41Z</time>
      </trkpt>
      <trkpt lat="46.347503" lon="6.651451">
        <ele>1153.859</ele>
        <time>2018-07-02T08:10:59Z</time>
      </trkpt>
      <trkpt lat="46.347502" lon="6.651523">
        <ele>1154.996</ele>
        <time>2018-07-02T08:11:11Z</time>
      </trkpt>
      <trkpt lat="46.347511" lon="6.651588">
        <ele>1155.512</ele>
        <time>2018-07-02T08:11:18Z</time>
      </trkpt>
      <trkpt lat="46.347510" lon="6.651659">
        <ele>1156.687</ele>
        <time>2018-07-02T08:11:29Z</time>
      </trkpt>
      <trkpt lat="46.347500" lon="6.651729">
        <ele>1157.995</ele>
        <time>2018-07-02T08:11:38Z</time>
      </trkpt>
      <trkpt lat="46.347490" lon="6.651800">
        <ele>1159.149</ele>
        <time>2018-07-02T08:11:46Z</time>
      </trkpt>
      <trkpt lat="46.347472" lon="6.651871">
        <ele>1160.323</ele>
        <time>2018-07-02T08:11:53Z</time>
      </trkpt>
      <trkpt lat="46.347455" lon="6.651934">
        <ele>1161.308</ele>
        <time>2018-07-02T08:12:01Z</time>
      </trkpt>
      <trkpt lat="46.347441" lon="6.651998">
        <ele>1162.211</ele>
        <time>2018-07-02T08:12:10Z</time>
      </trkpt>
      <trkpt lat="46.347435" lon="6.652068">
        <ele>1162.967</ele>
        <time>2018-07-02T08:12:19Z</time>
      </trkpt>
      <trkpt lat="46.347433" lon="6.652134">
        <ele>1163.649</ele>
        <time>2018-07-02T08:12:26Z</time>
      </trkpt>
      <trkpt lat="46.347426" lon="6.652210">
        <ele>1164.475</ele>
        <time>2018-07-02T08:12:34Z</time>
      </trkpt>
      <trkpt lat="46.347428" lon="6.652280">
        <ele>1165.227</ele>
        <time>2018-07-02T08:12:43Z</time>
      </trkpt>
      <trkpt lat="46.347425" lon="6.652351">
        <ele>1166.144</ele>
        <time>2018-07-02T08:12:52Z</time>
      </trkpt>
      <trkpt lat="46.347429" lon="6.652416">
        <ele>1166.970</ele>
        <time>2018-07-02T08:13:00Z</time>
      </trkpt>
      <trkpt lat="46.347432" lon="6.652486">
        <ele>1167.825</ele>
        <time>2018-07-02T08:13:10Z</time>
      </trkpt>
      <trkpt lat="46.347428" lon="6.652556">
        <ele>1168.837</ele>
        <time>2018-07-02T08:13:19Z</time>
      </trkpt>
      <trkpt lat="46.347436" lon="6.652621">
        <ele>1169.649</ele>
        <time>2018-07-02T08:13:27Z</time>
      </trkpt>
      <trkpt lat="46.347449" lon="6.652685">
        <ele>1170.513</ele>
        <time>2018-07-02T08:13:36Z</time>
      </trkpt>
      <trkpt lat="46.347457" lon="6.652751">
        <ele>1171.508</ele>
        <time>2018-07-02T08:13:45Z</time>
      </trkpt>
      <trkpt lat="46.347479" lon="6.652810">
        <ele>1172.435</ele>
        <time>2018-07-02T08:14:01Z</time>
      </trkpt>
      <trkpt lat="46.347499" lon="6.652875">
        <ele>1173.431</ele>
        <time>2018-07-02T08:14:10Z</time>
      </trkpt>
      <trkpt lat="46.347520" lon="6.652940">
        <ele>1173.913</ele>
        <time>2018-07-02T08:14:18Z</time>
      </trkpt>
      <trkpt lat="46.347527" lon="6.653005">
        <ele>1174.799</ele>
        <time>2018-07-02T08:14:26Z</time>
      </trkpt>
      <trkpt lat="46.347516" lon="6.653071">
        <ele>1175.951</ele>
        <time>2018-07-02T08:14:34Z</time>
      </trkpt>
      <trkpt lat="46.347514" lon="6.653142">
        <ele>1176.978</ele>
        <time>2018-07-02T08:14:41Z</time>
      </trkpt>
      <trkpt lat="46.347532" lon="6.653208">
        <ele>1177.444</ele>
        <time>2018-07-02T08:14:56Z</time>
      </trkpt>
      <trkpt lat="46.347539" lon="6.653274">
        <ele>1178.189</ele>
        <time>2018-07-02T08:15:03Z</time>
      </trkpt>
      <trkpt lat="46.347551" lon="6.653346">
        <ele>1178.785</ele>
        <time>2018-07-02T08:15:10Z</time>
      </trkpt>
      <trkpt lat="46.347572" lon="6.653410">
        <ele>1178.889</ele>
        <time>2018-07-02T08:15:17Z</time>
      </trkpt>
      <trkpt lat="46.347591" lon="6.653474">
        <ele>1178.917</ele>
        <time>2018-07-02T08:15:23Z</time>
      </trkpt>
      <trkpt lat="46.347598" lon="6.653546">
        <ele>1179.508</ele>
        <time>2018-07-02T08:15:29Z</time>
      </trkpt>
      <trkpt lat="46.347587" lon="6.653618">
        <ele>1180.610</ele>
        <time>2018-07-02T08:15:35Z</time>
      </trkpt>
      <trkpt lat="46.347596" lon="6.653692">
        <ele>1181.246</ele>
        <time>2018-07-02T08:15:41Z</time>
      </trkpt>
      <trkpt lat="46.347604" lon="6.653759">
        <ele>1181.718</ele>
        <time>2018-07-02T08:15:47Z</time>
      </trkpt>
      <trkpt lat="46.347599" lon="6.653830">
        <ele>1182.744</ele>
        <time>2018-07-02T08:15:54Z</time>
      </trkpt>
      <trkpt lat="46.347596" lon="6.653898">
        <ele>1183.716</ele>
        <time>2018-07-02T08:16:02Z</time>
      </trkpt>
      <trkpt lat="46.347590" lon="6.653967">
        <ele>1184.783</ele>
        <time>2018-07-02T08:16:11Z</time>
      </trkpt>
      <trkpt lat="46.347583" lon="6.654035">
        <ele>1185.869</ele>
        <time>2018-07-02T08:16:20Z</time>
      </trkpt>
      <trkpt lat="46.347581" lon="6.654102">
        <ele>1186.754</ele>
        <time>2018-07-02T08:16:52Z</time>
      </trkpt>
      <trkpt lat="46.347575" lon="6.654178">
        <ele>1187.998</ele>
        <time>2018-07-02T08:17:07Z</time>
      </trkpt>
      <trkpt lat="46.347551" lon="6.654249">
        <ele>1189.915</ele>
        <time>2018-07-02T08:17:13Z</time>
      </trkpt>
      <trkpt lat="46.347533" lon="6.654320">
        <ele>1191.726</ele>
        <time>2018-07-02T08:17:19Z</time>
      </trkpt>
      <trkpt lat="46.347521" lon="6.654387">
        <ele>1193.108</ele>
        <time>2018-07-02T08:17:25Z</time>
      </trkpt>
      <trkpt lat="46.347495" lon="6.654440">
        <ele>1195.181</ele>
        <time>2018-07-02T08:17:30Z</time>
      </trkpt>
      <trkpt lat="46.347482" lon="6.654510">
        <ele>1196.527</ele>
        <time>2018-07-02T08:17:36Z</time>
      </trkpt>
      <trkpt lat="46.347487" lon="6.654585">
        <ele>1197.139</ele>
        <time>2018-07-02T08:17:43Z</time>
      </trkpt>
      <trkpt lat="46.347502" lon="6.654654">
        <ele>1197.285</ele>
        <time>2018-07-02T08:17:50Z</time>
      </trkpt>
      <trkpt lat="46.347513" lon="6.654720">
        <ele>1197.237</ele>
        <time>2018-07-02T08:17:56Z</time>
      </trkpt>
      <trkpt lat="46.347515" lon="6.654792">
        <ele>1198.454</ele>
        <time>2018-07-02T08:18:02Z</time>
      </trkpt>
      <trkpt lat="46.347520" lon="6.654857">
        <ele>1199.210</ele>
        <time>2018-07-02T08:18:08Z</time>
      </trkpt>
      <trkpt lat="46.347524" lon="6.654922">
        <ele>1200.065</ele>
        <time>2018-07-02T08:18:15Z</time>
      </trkpt>
      <trkpt lat="46.347527" lon="6.654989">
        <ele>1201.014</ele>
        <time>2018-07-02T08:18:21Z</time>
      </trkpt>
      <trkpt lat="46.347528" lon="6.655055">
        <ele>1201.754</ele>
        <time>2018-07-02T08:18:29Z</time>
      </trkpt>
      <trkpt lat="46.347530" lon="6.655126">
        <ele>1202.309</ele>
        <time>2018-07-02T08:18:36Z</time>
      </trkpt>
      <trkpt lat="46.347522" lon="6.655191">
        <ele>1203.508</ele>
        <time>2018-07-02T08:18:45Z</time>
      </trkpt>
      <trkpt lat="46.347503" lon="6.655252">
        <ele>1205.513</ele>
        <time>2018-07-02T08:18:55Z</time>
      </trkpt>
      <trkpt lat="46.347531" lon="6.655306">
        <ele>1204.239</ele>
        <time>2018-07-02T08:19:01Z</time>
      </trkpt>
      <trkpt lat="46.347537" lon="6.655376">
        <ele>1204.831</ele>
        <time>2018-07-02T08:19:14Z</time>
      </trkpt>
      <trkpt lat="46.347540" lon="6.655447">
        <ele>1205.637</ele>
        <time>2018-07-02T08:19:23Z</time>
      </trkpt>
      <trkpt lat="46.347562" lon="6.655506">
        <ele>1204.819</ele>
        <time>2018-07-02T08:19:32Z</time>
      </trkpt>
      <trkpt lat="46.347563" lon="6.655573">
        <ele>1205.746</ele>
        <time>2018-07-02T08:19:46Z</time>
      </trkpt>
      <trkpt lat="46.347548" lon="6.655640">
        <ele>1207.552</ele>
        <time>2018-07-02T08:19:56Z</time>
      </trkpt>
      <trkpt lat="46.347540" lon="6.655710">
        <ele>1208.967</ele>
        <time>2018-07-02T08:20:05Z</time>
      </trkpt>
      <trkpt lat="46.347519" lon="6.655777">
        <ele>1211.194</ele>
        <time>2018-07-02T08:20:12Z</time>
      </trkpt>
      <trkpt lat="46.347528" lon="6.655845">
        <ele>1211.357</ele>
        <time>2018-07-02T08:20:18Z</time>
      </trkpt>
      <trkpt lat="46.347547" lon="6.655908">
        <ele>1210.922</ele>
        <time>2018-07-02T08:20:23Z</time>
      </trkpt>
      <trkpt lat="46.347564" lon="6.655969">
        <ele>1210.608</ele>
        <time>2018-07-02T08:20:29Z</time>
      </trkpt>
      <trkpt lat="46.347584" lon="6.656031">
        <ele>1210.171</ele>
        <time>2018-07-02T08:20:37Z</time>
      </trkpt>
      <trkpt lat="46.347596" lon="6.656099">
        <ele>1210.377</ele>
        <time>2018-07-02T08:20:45Z</time>
      </trkpt>
      <trkpt lat="46.347579" lon="6.656163">
        <ele>1212.559</ele>
        <time>2018-07-02T08:20:54Z</time>
      </trkpt>
      <trkpt lat="46.347595" lon="6.656234">
        <ele>1212.665</ele>
        <time>2018-07-02T08:21:07Z</time>
      </trkpt>
      <trkpt lat="46.347585" lon="6.656306">
        <ele>1214.497</ele>
        <time>2018-07-02T08:21:14Z</time>
      </trkpt>
      <trkpt lat="46.347618" lon="6.656378">
        <ele>1213.614</ele>
        <time>2018-07-02T08:21:25Z</time>
      </trkpt>
      <trkpt lat="46.347632" lon="6.656446">
        <ele>1214.090</ele>
        <time>2018-07-02T08:21:33Z</time>
      </trkpt>
      <trkpt lat="46.347633" lon="6.656514">
        <ele>1215.155</ele>
        <time>2018-07-02T08:21:40Z</time>
      </trkpt>
      <trkpt lat="46.347655" lon="6.656574">
        <ele>1214.841</ele>
        <time>2018-07-02T08:21:46Z</time>
      </trkpt>
      <trkpt lat="46.347652" lon="6.656649">
        <ele>1216.481</ele>
        <time>2018-07-02T08:21:53Z</time>
      </trkpt>
      <trkpt lat="46.347672" lon="6.656714">
        <ele>1216.609</ele>
        <time>2018-07-02T08:21:59Z</time>
      </trkpt>
      <trkpt lat="46.347688" lon="6.656776">
        <ele>1217.108</ele>
        <time>2018-07-02T08:22:05Z</time>
      </trkpt>
      <trkpt lat="46.347559" lon="6.656860">
        <ele>1227.786</ele>
        <time>2018-07-02T08:24:39Z</time>
      </trkpt>
      <trkpt lat="46.347590" lon="6.656924">
        <ele>1227.372</ele>
        <time>2018-07-02T08:24:49Z</time>
      </trkpt>
      <trkpt lat="46.347592" lon="6.656993">
        <ele>1228.994</ele>
        <time>2018-07-02T08:25:00Z</time>
      </trkpt>
      <trkpt lat="46.347624" lon="6.657043">
        <ele>1228.060</ele>
        <time>2018-07-02T08:25:07Z</time>
      </trkpt>
      <trkpt lat="46.347647" lon="6.657100">
        <ele>1227.952</ele>
        <time>2018-07-02T08:25:12Z</time>
      </trkpt>
      <trkpt lat="46.347649" lon="6.657173">
        <ele>1229.679</ele>
        <time>2018-07-02T08:25:20Z</time>
      </trkpt>
      <trkpt lat="46.347671" lon="6.657230">
        <ele>1229.575</ele>
        <time>2018-07-02T08:25:42Z</time>
      </trkpt>
      <trkpt lat="46.347694" lon="6.657290">
        <ele>1229.680</ele>
        <time>2018-07-02T08:25:52Z</time>
      </trkpt>
      <trkpt lat="46.347701" lon="6.657355">
        <ele>1230.914</ele>
        <time>2018-07-02T08:26:02Z</time>
      </trkpt>
      <trkpt lat="46.347694" lon="6.657424">
        <ele>1233.354</ele>
        <time>2018-07-02T08:26:11Z</time>
      </trkpt>
      <trkpt lat="46.347685" lon="6.657491">
        <ele>1235.809</ele>
        <time>2018-07-02T08:26:24Z</time>
      </trkpt>
      <trkpt lat="46.347696" lon="6.657561">
        <ele>1237.008</ele>
        <time>2018-07-02T08:26:36Z</time>
      </trkpt>
      <trkpt lat="46.347737" lon="6.657637">
        <ele>1235.853</ele>
        <time>2018-07-02T08:26:49Z</time>
      </trkpt>
      <trkpt lat="46.347732" lon="6.657704">
        <ele>1238.129</ele>
        <time>2018-07-02T08:26:59Z</time>
      </trkpt>
      <trkpt lat="46.347716" lon="6.657766">
        <ele>1241.291</ele>
        <time>2018-07-02T08:27:12Z</time>
      </trkpt>
      <trkpt lat="46.347683" lon="6.657814">
        <ele>1245.537</ele>
        <time>2018-07-02T08:27:20Z</time>
      </trkpt>
      <trkpt lat="46.347661" lon="6.657872">
        <ele>1249.169</ele>
        <time>2018-07-02T08:27:28Z</time>
      </trkpt>
      <trkpt lat="46.347705" lon="6.657902">
        <ele>1246.036</ele>
        <time>2018-07-02T08:27:38Z</time>
      </trkpt>
      <trkpt lat="46.347713" lon="6.657968">
        <ele>1247.162</ele>
        <time>2018-07-02T08:27:54Z</time>
      </trkpt>
      <trkpt lat="46.347709" lon="6.658035">
        <ele>1249.497</ele>
        <time>2018-07-02T08:28:15Z</time>
      </trkpt>
      <trkpt lat="46.347736" lon="6.658097">
        <ele>1248.749</ele>
        <time>2018-07-02T08:28:37Z</time>
      </trkpt>
      <trkpt lat="46.347743" lon="6.658165">
        <ele>1250.002</ele>
        <time>2018-07-02T08:28:53Z</time>
      </trkpt>
      <trkpt lat="46.347740" lon="6.658236">
        <ele>1252.122</ele>
        <time>2018-07-02T08:29:10Z</time>
      </trkpt>
      <trkpt lat="46.347790" lon="6.658259">
        <ele>1248.908</ele>
        <time>2018-07-02T08:29:20Z</time>
      </trkpt>
      <trkpt lat="46.347810" lon="6.658323">
        <ele>1249.166</ele>
        <time>2018-07-02T08:29:37Z</time>
      </trkpt>
      <trkpt lat="46.347784" lon="6.658398">
        <ele>1253.192</ele>
        <time>2018-07-02T08:29:53Z</time>
      </trkpt>
      <trkpt lat="46.347779" lon="6.658466">
        <ele>1255.284</ele>
        <time>2018-07-02T08:30:05Z</time>
      </trkpt>
      <trkpt lat="46.347767" lon="6.658533">
        <ele>1257.870</ele>
        <time>2018-07-02T08:30:18Z</time>
      </trkpt>
      <trkpt lat="46.347731" lon="6.658589">
        <ele>1261.532</ele>
        <time>2018-07-02T08:30:38Z</time>
      </trkpt>
      <trkpt lat="46.347716" lon="6.658664">
        <ele>1264.369</ele>
        <time>2018-07-02T08:30:45Z</time>
      </trkpt>
      <trkpt lat="46.347761" lon="6.658704">
        <ele>1262.495</ele>
        <time>2018-07-02T08:30:51Z</time>
      </trkpt>
      <trkpt lat="46.347795" lon="6.658758">
        <ele>1261.410</ele>
        <time>2018-07-02T08:31:02Z</time>
      </trkpt>
      <trkpt lat="46.347820" lon="6.658826">
        <ele>1261.213</ele>
        <time>2018-07-02T08:31:52Z</time>
      </trkpt>
      <trkpt lat="46.347828" lon="6.658901">
        <ele>1262.543</ele>
        <time>2018-07-02T08:32:07Z</time>
      </trkpt>
      <trkpt lat="46.347859" lon="6.658959">
        <ele>1261.607</ele>
        <time>2018-07-02T08:32:20Z</time>
      </trkpt>
      <trkpt lat="46.347843" lon="6.659037">
        <ele>1264.708</ele>
        <time>2018-07-02T08:32:43Z</time>
      </trkpt>
      <trkpt lat="46.347871" lon="6.659101">
        <ele>1264.053</ele>
        <time>2018-07-02T08:33:03Z</time>
      </trkpt>
      <trkpt lat="46.347889" lon="6.659192">
        <ele>1264.729</ele>
        <time>2018-07-02T08:33:24Z</time>
      </trkpt>
      <trkpt lat="46.347895" lon="6.659257">
        <ele>1265.571</ele>
        <time>2018-07-02T08:33:50Z</time>
      </trkpt>
      <trkpt lat="46.347889" lon="6.659327">
        <ele>1267.357</ele>
        <time>2018-07-02T08:33:58Z</time>
      </trkpt>
      <trkpt lat="46.347871" lon="6.659397">
        <ele>1270.069</ele>
        <time>2018-07-02T08:34:08Z</time>
      </trkpt>
      <trkpt lat="46.347825" lon="6.659429">
        <ele>1274.186</ele>
        <time>2018-07-02T08:34:11Z</time>
      </trkpt>
      <trkpt lat="46.347759" lon="6.659481">
        <ele>1278.792</ele>
        <time>2018-07-02T08:34:26Z</time>
      </trkpt>
      <trkpt lat="46.347735" lon="6.659539">
        <ele>1279.627</ele>
        <time>2018-07-02T08:34:33Z</time>
      </trkpt>
      <trkpt lat="46.347713" lon="6.659597">
        <ele>1280.351</ele>
        <time>2018-07-02T08:34:41Z</time>
      </trkpt>
      <trkpt lat="46.347674" lon="6.659636">
        <ele>1281.601</ele>
        <time>2018-07-02T08:35:00Z</time>
      </trkpt>
      <trkpt lat="46.347615" lon="6.659659">
        <ele>1283.511</ele>
        <time>2018-07-02T08:35:12Z</time>
      </trkpt>
      <trkpt lat="46.347577" lon="6.659696">
        <ele>1284.608</ele>
        <time>2018-07-02T08:35:26Z</time>
      </trkpt>
      <trkpt lat="46.347530" lon="6.659706">
        <ele>1286.157</ele>
        <time>2018-07-02T08:35:32Z</time>
      </trkpt>
      <trkpt lat="46.347478" lon="6.659727">
        <ele>1287.563</ele>
        <time>2018-07-02T08:35:37Z</time>
      </trkpt>
      <trkpt lat="46.347425" lon="6.659759">
        <ele>1288.445</ele>
        <time>2018-07-02T08:35:41Z</time>
      </trkpt>
      <trkpt lat="46.347383" lon="6.659804">
        <ele>1288.871</ele>
        <time>2018-07-02T08:35:46Z</time>
      </trkpt>
      <trkpt lat="46.347340" lon="6.659847">
        <ele>1289.223</ele>
        <time>2018-07-02T08:35:51Z</time>
      </trkpt>
      <trkpt lat="46.347297" lon="6.659891">
        <ele>1289.730</ele>
        <time>2018-07-02T08:35:57Z</time>
      </trkpt>
      <trkpt lat="46.347260" lon="6.659931">
        <ele>1290.026</ele>
        <time>2018-07-02T08:36:02Z</time>
      </trkpt>
      <trkpt lat="46.347218" lon="6.659966">
        <ele>1290.731</ele>
        <time>2018-07-02T08:36:07Z</time>
      </trkpt>
      <trkpt lat="46.347185" lon="6.660021">
        <ele>1291.634</ele>
        <time>2018-07-02T08:36:13Z</time>
      </trkpt>
      <trkpt lat="46.347159" lon="6.660082">
        <ele>1292.355</ele>
        <time>2018-07-02T08:36:18Z</time>
      </trkpt>
      <trkpt lat="46.347130" lon="6.660146">
        <ele>1293.210</ele>
        <time>2018-07-02T08:36:24Z</time>
      </trkpt>
      <trkpt lat="46.347107" lon="6.660203">
        <ele>1294.108</ele>
        <time>2018-07-02T08:36:29Z</time>
      </trkpt>
      <trkpt lat="46.347069" lon="6.660257">
        <ele>1296.125</ele>
        <time>2018-07-02T08:36:38Z</time>
      </trkpt>
      <trkpt lat="46.347038" lon="6.660305">
        <ele>1298.011</ele>
        <time>2018-07-02T08:36:47Z</time>
      </trkpt>
      <trkpt lat="46.347015" lon="6.660366">
        <ele>1299.733</ele>
        <time>2018-07-02T08:36:59Z</time>
      </trkpt>
      <trkpt lat="46.347002" lon="6.660430">
        <ele>1300.879</ele>
        <time>2018-07-02T08:37:11Z</time>
      </trkpt>
      <trkpt lat="46.346971" lon="6.660487">
        <ele>1303.041</ele>
        <time>2018-07-02T08:37:22Z</time>
      </trkpt>
      <trkpt lat="46.346941" lon="6.660543">
        <ele>1305.238</ele>
        <time>2018-07-02T08:37:29Z</time>
      </trkpt>
      <trkpt lat="46.346987" lon="6.660557">
        <ele>1302.244</ele>
        <time>2018-07-02T08:39:57Z</time>
      </trkpt>
      <trkpt lat="46.346964" lon="6.660628">
        <ele>1303.829</ele>
        <time>2018-07-02T08:40:14Z</time>
      </trkpt>
      <trkpt lat="46.346944" lon="6.660693">
        <ele>1305.048</ele>
        <time>2018-07-02T08:40:21Z</time>
      </trkpt>
      <trkpt lat="46.346915" lon="6.660746">
        <ele>1306.761</ele>
        <time>2018-07-02T08:40:31Z</time>
      </trkpt>
      <trkpt lat="46.346893" lon="6.660816">
        <ele>1307.817</ele>
        <time>2018-07-02T08:40:45Z</time>
      </trkpt>
      <trkpt lat="46.346872" lon="6.660879">
        <ele>1308.508</ele>
        <time>2018-07-02T08:40:54Z</time>
      </trkpt>
      <trkpt lat="46.346845" lon="6.660942">
        <ele>1309.496</ele>
        <time>2018-07-02T08:41:03Z</time>
      </trkpt>
      <trkpt lat="46.346811" lon="6.660989">
        <ele>1310.892</ele>
        <time>2018-07-02T08:41:10Z</time>
      </trkpt>
      <trkpt lat="46.346780" lon="6.661043">
        <ele>1311.964</ele>
        <time>2018-07-02T08:41:16Z</time>
      </trkpt>
      <trkpt lat="46.346804" lon="6.661104">
        <ele>1310.120</ele>
        <time>2018-07-02T08:41:22Z</time>
      </trkpt>
      <trkpt lat="46.346801" lon="6.661180">
        <ele>1310.042</ele>
        <time>2018-07-02T08:41:29Z</time>
      </trkpt>
      <trkpt lat="46.346769" lon="6.661238">
        <ele>1311.369</ele>
        <time>2018-07-02T08:41:35Z</time>
      </trkpt>
      <trkpt lat="46.346758" lon="6.661307">
        <ele>1311.545</ele>
        <time>2018-07-02T08:41:41Z</time>
      </trkpt>
      <trkpt lat="46.346755" lon="6.661378">
        <ele>1311.270</ele>
        <time>2018-07-02T08:41:47Z</time>
      </trkpt>
      <trkpt lat="46.346747" lon="6.661447">
        <ele>1311.736</ele>
        <time>2018-07-02T08:41:57Z</time>
      </trkpt>
      <trkpt lat="46.346752" lon="6.661519">
        <ele>1311.617</ele>
        <time>2018-07-02T08:42:02Z</time>
      </trkpt>
      <trkpt lat="46.346744" lon="6.661583">
        <ele>1312.018</ele>
        <time>2018-07-02T08:42:08Z</time>
      </trkpt>
      <trkpt lat="46.346730" lon="6.661654">
        <ele>1312.708</ele>
        <time>2018-07-02T08:42:17Z</time>
      </trkpt>
      <trkpt lat="46.346722" lon="6.661721">
        <ele>1313.495</ele>
        <time>2018-07-02T08:42:22Z</time>
      </trkpt>
      <trkpt lat="46.346711" lon="6.661788">
        <ele>1314.271</ele>
        <time>2018-07-02T08:42:27Z</time>
      </trkpt>
      <trkpt lat="46.346698" lon="6.661852">
        <ele>1315.153</ele>
        <time>2018-07-02T08:42:33Z</time>
      </trkpt>
      <trkpt lat="46.346683" lon="6.661914">
        <ele>1316.139</ele>
        <time>2018-07-02T08:42:40Z</time>
      </trkpt>
      <trkpt lat="46.346654" lon="6.661975">
        <ele>1317.911</ele>
        <time>2018-07-02T08:42:48Z</time>
      </trkpt>
      <trkpt lat="46.346638" lon="6.662042">
        <ele>1319.368</ele>
        <time>2018-07-02T08:42:58Z</time>
      </trkpt>
      <trkpt lat="46.346611" lon="6.662101">
        <ele>1321.214</ele>
        <time>2018-07-02T08:43:05Z</time>
      </trkpt>
      <trkpt lat="46.346604" lon="6.662169">
        <ele>1322.269</ele>
        <time>2018-07-02T08:43:21Z</time>
      </trkpt>
      <trkpt lat="46.346583" lon="6.662238">
        <ele>1323.933</ele>
        <time>2018-07-02T08:43:31Z</time>
      </trkpt>
      <trkpt lat="46.346570" lon="6.662301">
        <ele>1324.823</ele>
        <time>2018-07-02T08:43:36Z</time>
      </trkpt>
      <trkpt lat="46.346559" lon="6.662369">
        <ele>1325.615</ele>
        <time>2018-07-02T08:43:43Z</time>
      </trkpt>
      <trkpt lat="46.346564" lon="6.662436">
        <ele>1325.608</ele>
        <time>2018-07-02T08:43:48Z</time>
      </trkpt>
      <trkpt lat="46.346568" lon="6.662503">
        <ele>1325.635</ele>
        <time>2018-07-02T08:43:53Z</time>
      </trkpt>
      <trkpt lat="46.346580" lon="6.662572">
        <ele>1324.331</ele>
        <time>2018-07-02T08:43:59Z</time>
      </trkpt>
      <trkpt lat="46.346590" lon="6.662641">
        <ele>1323.193</ele>
        <time>2018-07-02T08:44:06Z</time>
      </trkpt>
      <trkpt lat="46.346546" lon="6.662681">
        <ele>1324.769</ele>
        <time>2018-07-02T08:44:15Z</time>
      </trkpt>
      <trkpt lat="46.346499" lon="6.662691">
        <ele>1326.861</ele>
        <time>2018-07-02T08:44:22Z</time>
      </trkpt>
      <trkpt lat="46.346473" lon="6.662745">
        <ele>1327.498</ele>
        <time>2018-07-02T08:44:27Z</time>
      </trkpt>
      <trkpt lat="46.346457" lon="6.662821">
        <ele>1327.094</ele>
        <time>2018-07-02T08:44:32Z</time>
      </trkpt>
      <trkpt lat="46.346431" lon="6.662878">
        <ele>1327.269</ele>
        <time>2018-07-02T08:44:36Z</time>
      </trkpt>
      <trkpt lat="46.346400" lon="6.662934">
        <ele>1327.791</ele>
        <time>2018-07-02T08:44:41Z</time>
      </trkpt>
      <trkpt lat="46.346368" lon="6.662997">
        <ele>1327.781</ele>
        <time>2018-07-02T08:44:47Z</time>
      </trkpt>
      <trkpt lat="46.346330" lon="6.663046">
        <ele>1328.119</ele>
        <time>2018-07-02T08:44:53Z</time>
      </trkpt>
      <trkpt lat="46.346296" lon="6.663094">
        <ele>1328.108</ele>
        <time>2018-07-02T08:45:01Z</time>
      </trkpt>
      <trkpt lat="46.346276" lon="6.663161">
        <ele>1327.261</ele>
        <time>2018-07-02T08:45:06Z</time>
      </trkpt>
      <trkpt lat="46.346248" lon="6.663217">
        <ele>1327.147</ele>
        <time>2018-07-02T08:45:11Z</time>
      </trkpt>
      <trkpt lat="46.346209" lon="6.663262">
        <ele>1327.859</ele>
        <time>2018-07-02T08:45:16Z</time>
      </trkpt>
      <trkpt lat="46.346178" lon="6.663315">
        <ele>1328.285</ele>
        <time>2018-07-02T08:45:20Z</time>
      </trkpt>
      <trkpt lat="46.346141" lon="6.663372">
        <ele>1329.127</ele>
        <time>2018-07-02T08:45:25Z</time>
      </trkpt>
      <trkpt lat="46.346105" lon="6.663418">
        <ele>1330.364</ele>
        <time>2018-07-02T08:45:30Z</time>
      </trkpt>
      <trkpt lat="46.346065" lon="6.663463">
        <ele>1331.580</ele>
        <time>2018-07-02T08:45:36Z</time>
      </trkpt>
      <trkpt lat="46.346027" lon="6.663503">
        <ele>1332.715</ele>
        <time>2018-07-02T08:45:42Z</time>
      </trkpt>
      <trkpt lat="46.345992" lon="6.663548">
        <ele>1333.774</ele>
        <time>2018-07-02T08:45:52Z</time>
      </trkpt>
      <trkpt lat="46.345957" lon="6.663596">
        <ele>1334.856</ele>
        <time>2018-07-02T08:46:02Z</time>
      </trkpt>
      <trkpt lat="46.345924" lon="6.663643">
        <ele>1336.021</ele>
        <time>2018-07-02T08:46:10Z</time>
      </trkpt>
      <trkpt lat="46.345896" lon="6.663694">
        <ele>1336.908</ele>
        <time>2018-07-02T08:46:19Z</time>
      </trkpt>
      <trkpt lat="46.345865" lon="6.663749">
        <ele>1337.899</ele>
        <time>2018-07-02T08:46:29Z</time>
      </trkpt>
      <trkpt lat="46.345568" lon="6.663863">
        <ele>1345.915</ele>
        <time>2018-07-02T08:48:39Z</time>
      </trkpt>
      <trkpt lat="46.345674" lon="6.663850">
        <ele>1342.917</ele>
        <time>2018-07-02T08:48:40Z</time>
      </trkpt>
      <trkpt lat="46.345807" lon="6.663841">
        <ele>1339.143</ele>
        <time>2018-07-02T08:49:28Z</time>
      </trkpt>
      <trkpt lat="46.345813" lon="6.663906">
        <ele>1338.465</ele>
        <time>2018-07-02T08:49:34Z</time>
      </trkpt>
      <trkpt lat="46.345806" lon="6.663971">
        <ele>1337.922</ele>
        <time>2018-07-02T08:49:41Z</time>
      </trkpt>
      <trkpt lat="46.345812" lon="6.664052">
        <ele>1336.968</ele>
        <time>2018-07-02T08:49:56Z</time>
      </trkpt>
      <trkpt lat="46.345782" lon="6.664114">
        <ele>1337.093</ele>
        <time>2018-07-02T08:50:07Z</time>
      </trkpt>
      <trkpt lat="46.345764" lon="6.664179">
        <ele>1336.898</ele>
        <time>2018-07-02T08:50:12Z</time>
      </trkpt>
      <trkpt lat="46.345731" lon="6.664230">
        <ele>1337.115</ele>
        <time>2018-07-02T08:50:18Z</time>
      </trkpt>
      <trkpt lat="46.345705" lon="6.664287">
        <ele>1337.026</ele>
        <time>2018-07-02T08:50:22Z</time>
      </trkpt>
      <trkpt lat="46.345677" lon="6.664341">
        <ele>1336.908</ele>
        <time>2018-07-02T08:50:26Z</time>
      </trkpt>
      <trkpt lat="46.345645" lon="6.664394">
        <ele>1336.911</ele>
        <time>2018-07-02T08:50:31Z</time>
      </trkpt>
      <trkpt lat="46.345599" lon="6.664439">
        <ele>1337.257</ele>
        <time>2018-07-02T08:50:36Z</time>
      </trkpt>
      <trkpt lat="46.345567" lon="6.664502">
        <ele>1336.759</ele>
        <time>2018-07-02T08:50:41Z</time>
      </trkpt>
      <trkpt lat="46.345524" lon="6.664536">
        <ele>1336.825</ele>
        <time>2018-07-02T08:50:45Z</time>
      </trkpt>
      <trkpt lat="46.345493" lon="6.664589">
        <ele>1336.387</ele>
        <time>2018-07-02T08:50:49Z</time>
      </trkpt>
      <trkpt lat="46.345452" lon="6.664642">
        <ele>1335.884</ele>
        <time>2018-07-02T08:50:55Z</time>
      </trkpt>
      <trkpt lat="46.345410" lon="6.664677">
        <ele>1335.690</ele>
        <time>2018-07-02T08:50:59Z</time>
      </trkpt>
      <trkpt lat="46.345361" lon="6.664712">
        <ele>1335.315</ele>
        <time>2018-07-02T08:51:04Z</time>
      </trkpt>
      <trkpt lat="46.345318" lon="6.664761">
        <ele>1334.743</ele>
        <time>2018-07-02T08:51:09Z</time>
      </trkpt>
      <trkpt lat="46.345280" lon="6.664807">
        <ele>1334.164</ele>
        <time>2018-07-02T08:51:14Z</time>
      </trkpt>
      <trkpt lat="46.345242" lon="6.664853">
        <ele>1333.610</ele>
        <time>2018-07-02T08:51:19Z</time>
      </trkpt>
      <trkpt lat="46.345202" lon="6.664905">
        <ele>1333.008</ele>
        <time>2018-07-02T08:51:24Z</time>
      </trkpt>
      <trkpt lat="46.345167" lon="6.664967">
        <ele>1332.336</ele>
        <time>2018-07-02T08:51:29Z</time>
      </trkpt>
      <trkpt lat="46.345147" lon="6.665027">
        <ele>1331.632</ele>
        <time>2018-07-02T08:51:33Z</time>
      </trkpt>
      <trkpt lat="46.345127" lon="6.665092">
        <ele>1331.224</ele>
        <time>2018-07-02T08:51:37Z</time>
      </trkpt>
      <trkpt lat="46.345103" lon="6.665155">
        <ele>1330.880</ele>
        <time>2018-07-02T08:51:41Z</time>
      </trkpt>
      <trkpt lat="46.345084" lon="6.665215">
        <ele>1330.582</ele>
        <time>2018-07-02T08:51:45Z</time>
      </trkpt>
      <trkpt lat="46.345063" lon="6.665289">
        <ele>1330.139</ele>
        <time>2018-07-02T08:51:50Z</time>
      </trkpt>
      <trkpt lat="46.345048" lon="6.665364">
        <ele>1330.295</ele>
        <time>2018-07-02T08:51:55Z</time>
      </trkpt>
      <trkpt lat="46.345035" lon="6.665440">
        <ele>1330.390</ele>
        <time>2018-07-02T08:52:00Z</time>
      </trkpt>
      <trkpt lat="46.345023" lon="6.665505">
        <ele>1330.532</ele>
        <time>2018-07-02T08:52:05Z</time>
      </trkpt>
      <trkpt lat="46.345011" lon="6.665568">
        <ele>1330.892</ele>
        <time>2018-07-02T08:52:11Z</time>
      </trkpt>
      <trkpt lat="46.345000" lon="6.665634">
        <ele>1331.311</ele>
        <time>2018-07-02T08:52:17Z</time>
      </trkpt>
      <trkpt lat="46.344994" lon="6.665702">
        <ele>1331.708</ele>
        <time>2018-07-02T08:52:23Z</time>
      </trkpt>
      <trkpt lat="46.344983" lon="6.665767">
        <ele>1332.245</ele>
        <time>2018-07-02T08:52:29Z</time>
      </trkpt>
      <trkpt lat="46.344970" lon="6.665832">
        <ele>1332.871</ele>
        <time>2018-07-02T08:52:35Z</time>
      </trkpt>
      <trkpt lat="46.344963" lon="6.665899">
        <ele>1333.493</ele>
        <time>2018-07-02T08:52:41Z</time>
      </trkpt>
      <trkpt lat="46.344950" lon="6.665965">
        <ele>1334.279</ele>
        <time>2018-07-02T08:52:47Z</time>
      </trkpt>
      <trkpt lat="46.344943" lon="6.666031">
        <ele>1334.921</ele>
        <time>2018-07-02T08:52:53Z</time>
      </trkpt>
      <trkpt lat="46.344935" lon="6.666107">
        <ele>1335.668</ele>
        <time>2018-07-02T08:52:59Z</time>
      </trkpt>
      <trkpt lat="46.344927" lon="6.666173">
        <ele>1336.374</ele>
        <time>2018-07-02T08:53:04Z</time>
      </trkpt>
      <trkpt lat="46.344919" lon="6.666246">
        <ele>1337.099</ele>
        <time>2018-07-02T08:53:10Z</time>
      </trkpt>
      <trkpt lat="46.344913" lon="6.666312">
        <ele>1337.675</ele>
        <time>2018-07-02T08:53:15Z</time>
      </trkpt>
      <trkpt lat="46.344896" lon="6.666384">
        <ele>1338.628</ele>
        <time>2018-07-02T08:53:21Z</time>
      </trkpt>
      <trkpt lat="46.344893" lon="6.666460">
        <ele>1339.320</ele>
        <time>2018-07-02T08:53:27Z</time>
      </trkpt>
      <trkpt lat="46.344907" lon="6.666523">
        <ele>1339.508</ele>
        <time>2018-07-02T08:53:32Z</time>
      </trkpt>
      <trkpt lat="46.344918" lon="6.666588">
        <ele>1339.749</ele>
        <time>2018-07-02T08:53:37Z</time>
      </trkpt>
      <trkpt lat="46.344934" lon="6.666652">
        <ele>1339.835</ele>
        <time>2018-07-02T08:53:43Z</time>
      </trkpt>
      <trkpt lat="46.344953" lon="6.666714">
        <ele>1339.797</ele>
        <time>2018-07-02T08:53:54Z</time>
      </trkpt>
      <trkpt lat="46.344954" lon="6.666785">
        <ele>1340.263</ele>
        <time>2018-07-02T08:54:03Z</time>
      </trkpt>
      <trkpt lat="46.344941" lon="6.666854">
        <ele>1341.235</ele>
        <time>2018-07-02T08:54:13Z</time>
      </trkpt>
      <trkpt lat="46.344919" lon="6.666914">
        <ele>1342.432</ele>
        <time>2018-07-02T08:54:20Z</time>
      </trkpt>
      <trkpt lat="46.344919" lon="6.666988">
        <ele>1343.048</ele>
        <time>2018-07-02T08:54:28Z</time>
      </trkpt>
      <trkpt lat="46.344918" lon="6.667066">
        <ele>1343.783</ele>
        <time>2018-07-02T08:54:38Z</time>
      </trkpt>
      <trkpt lat="46.344909" lon="6.667130">
        <ele>1344.596</ele>
        <time>2018-07-02T08:54:46Z</time>
      </trkpt>
      <trkpt lat="46.344911" lon="6.667201">
        <ele>1345.131</ele>
        <time>2018-07-02T08:54:54Z</time>
      </trkpt>
      <trkpt lat="46.344908" lon="6.667268">
        <ele>1345.824</ele>
        <time>2018-07-02T08:55:00Z</time>
      </trkpt>
      <trkpt lat="46.344918" lon="6.667338">
        <ele>1346.208</ele>
        <time>2018-07-02T08:55:07Z</time>
      </trkpt>
      <trkpt lat="46.344936" lon="6.667400">
        <ele>1346.481</ele>
        <time>2018-07-02T08:55:14Z</time>
      </trkpt>
      <trkpt lat="46.344948" lon="6.667463">
        <ele>1346.767</ele>
        <time>2018-07-02T08:55:20Z</time>
      </trkpt>
      <trkpt lat="46.344954" lon="6.667533">
        <ele>1347.339</ele>
        <time>2018-07-02T08:55:29Z</time>
      </trkpt>
      <trkpt lat="46.344962" lon="6.667602">
        <ele>1347.925</ele>
        <time>2018-07-02T08:55:37Z</time>
      </trkpt>
      <trkpt lat="46.344972" lon="6.667668">
        <ele>1348.457</ele>
        <time>2018-07-02T08:55:44Z</time>
      </trkpt>
      <trkpt lat="46.344984" lon="6.667741">
        <ele>1348.964</ele>
        <time>2018-07-02T08:55:52Z</time>
      </trkpt>
      <trkpt lat="46.345002" lon="6.667809">
        <ele>1349.360</ele>
        <time>2018-07-02T08:56:03Z</time>
      </trkpt>
      <trkpt lat="46.345003" lon="6.667876">
        <ele>1350.025</ele>
        <time>2018-07-02T08:56:12Z</time>
      </trkpt>
      <trkpt lat="46.345009" lon="6.667946">
        <ele>1350.648</ele>
        <time>2018-07-02T08:56:19Z</time>
      </trkpt>
      <trkpt lat="46.345005" lon="6.668023">
        <ele>1351.561</ele>
        <time>2018-07-02T08:56:26Z</time>
      </trkpt>
      <trkpt lat="46.345000" lon="6.668093">
        <ele>1352.417</ele>
        <time>2018-07-02T08:56:32Z</time>
      </trkpt>
      <trkpt lat="46.344987" lon="6.668163">
        <ele>1353.408</ele>
        <time>2018-07-02T08:56:39Z</time>
      </trkpt>
      <trkpt lat="46.344969" lon="6.668229">
        <ele>1354.426</ele>
        <time>2018-07-02T08:56:46Z</time>
      </trkpt>
      <trkpt lat="46.344964" lon="6.668299">
        <ele>1355.212</ele>
        <time>2018-07-02T08:56:54Z</time>
      </trkpt>
      <trkpt lat="46.344954" lon="6.668364">
        <ele>1355.924</ele>
        <time>2018-07-02T08:57:02Z</time>
      </trkpt>
      <trkpt lat="46.344945" lon="6.668429">
        <ele>1356.690</ele>
        <time>2018-07-02T08:57:10Z</time>
      </trkpt>
      <trkpt lat="46.344938" lon="6.668494">
        <ele>1357.332</ele>
        <time>2018-07-02T08:57:17Z</time>
      </trkpt>
      <trkpt lat="46.344935" lon="6.668560">
        <ele>1358.099</ele>
        <time>2018-07-02T08:57:26Z</time>
      </trkpt>
      <trkpt lat="46.344936" lon="6.668628">
        <ele>1358.695</ele>
        <time>2018-07-02T08:57:33Z</time>
      </trkpt>
      <trkpt lat="46.344943" lon="6.668699">
        <ele>1359.530</ele>
        <time>2018-07-02T08:57:41Z</time>
      </trkpt>
      <trkpt lat="46.344948" lon="6.668764">
        <ele>1360.364</ele>
        <time>2018-07-02T08:57:50Z</time>
      </trkpt>
      <trkpt lat="46.344936" lon="6.668832">
        <ele>1361.606</ele>
        <time>2018-07-02T08:58:13Z</time>
      </trkpt>
      <trkpt lat="46.344939" lon="6.668900">
        <ele>1362.516</ele>
        <time>2018-07-02T08:58:21Z</time>
      </trkpt>
      <trkpt lat="46.344935" lon="6.668971">
        <ele>1364.008</ele>
        <time>2018-07-02T08:58:29Z</time>
      </trkpt>
      <trkpt lat="46.344923" lon="6.669041">
        <ele>1365.668</ele>
        <time>2018-07-02T08:58:38Z</time>
      </trkpt>
      <trkpt lat="46.344909" lon="6.669107">
        <ele>1367.254</ele>
        <time>2018-07-02T08:58:46Z</time>
      </trkpt>
      <trkpt lat="46.344906" lon="6.669173">
        <ele>1368.526</ele>
        <time>2018-07-02T08:58:55Z</time>
      </trkpt>
      <trkpt lat="46.344899" lon="6.669239">
        <ele>1369.782</ele>
        <time>2018-07-02T08:59:04Z</time>
      </trkpt>
      <trkpt lat="46.344900" lon="6.669305">
        <ele>1370.814</ele>
        <time>2018-07-02T08:59:13Z</time>
      </trkpt>
      <trkpt lat="46.344907" lon="6.669379">
        <ele>1371.931</ele>
        <time>2018-07-02T08:59:22Z</time>
      </trkpt>
      <trkpt lat="46.344919" lon="6.669446">
        <ele>1372.987</ele>
        <time>2018-07-02T08:59:30Z</time>
      </trkpt>
      <trkpt lat="46.344929" lon="6.669516">
        <ele>1373.992</ele>
        <time>2018-07-02T08:59:39Z</time>
      </trkpt>
      <trkpt lat="46.344931" lon="6.669586">
        <ele>1374.987</ele>
        <time>2018-07-02T08:59:48Z</time>
      </trkpt>
      <trkpt lat="46.344929" lon="6.669660">
        <ele>1376.142</ele>
        <time>2018-07-02T08:59:57Z</time>
      </trkpt>
      <trkpt lat="46.344936" lon="6.669727">
        <ele>1377.026</ele>
        <time>2018-07-02T09:00:04Z</time>
      </trkpt>
      <trkpt lat="46.344929" lon="6.669801">
        <ele>1377.908</ele>
        <time>2018-07-02T09:00:15Z</time>
      </trkpt>
      <trkpt lat="46.344934" lon="6.669868">
        <ele>1378.550</ele>
        <time>2018-07-02T09:00:24Z</time>
      </trkpt>
      <trkpt lat="46.344930" lon="6.669938">
        <ele>1379.366</ele>
        <time>2018-07-02T09:00:31Z</time>
      </trkpt>
      <trkpt lat="46.344929" lon="6.670004">
        <ele>1380.168</ele>
        <time>2018-07-02T09:00:38Z</time>
      </trkpt>
      <trkpt lat="46.344923" lon="6.670069">
        <ele>1381.144</ele>
        <time>2018-07-02T09:00:46Z</time>
      </trkpt>
      <trkpt lat="46.344923" lon="6.670135">
        <ele>1382.166</ele>
        <time>2018-07-02T09:00:54Z</time>
      </trkpt>
      <trkpt lat="46.344915" lon="6.670207">
        <ele>1383.263</ele>
        <time>2018-07-02T09:01:03Z</time>
      </trkpt>
      <trkpt lat="46.344902" lon="6.670272">
        <ele>1384.339</ele>
        <time>2018-07-02T09:01:11Z</time>
      </trkpt>
      <trkpt lat="46.344890" lon="6.670340">
        <ele>1385.334</ele>
        <time>2018-07-02T09:01:20Z</time>
      </trkpt>
      <trkpt lat="46.344873" lon="6.670403">
        <ele>1386.432</ele>
        <time>2018-07-02T09:01:29Z</time>
      </trkpt>
      <trkpt lat="46.344856" lon="6.670467">
        <ele>1387.592</ele>
        <time>2018-07-02T09:01:39Z</time>
      </trkpt>
      <trkpt lat="46.344831" lon="6.670522">
        <ele>1388.611</ele>
        <time>2018-07-02T09:01:48Z</time>
      </trkpt>
      <trkpt lat="46.344811" lon="6.670582">
        <ele>1389.708</ele>
        <time>2018-07-02T09:01:56Z</time>
      </trkpt>
      <trkpt lat="46.344821" lon="6.670633">
        <ele>1390.295</ele>
        <time>2018-07-02T09:16:02Z</time>
      </trkpt>
      <trkpt lat="46.344813" lon="6.670716">
        <ele>1391.341</ele>
        <time>2018-07-02T09:16:14Z</time>
      </trkpt>
      <trkpt lat="46.344797" lon="6.670782">
        <ele>1392.373</ele>
        <time>2018-07-02T09:16:19Z</time>
      </trkpt>
      <trkpt lat="46.344779" lon="6.670853">
        <ele>1393.439</ele>
        <time>2018-07-02T09:16:26Z</time>
      </trkpt>
      <trkpt lat="46.344767" lon="6.670926">
        <ele>1394.441</ele>
        <time>2018-07-02T09:16:34Z</time>
      </trkpt>
      <trkpt lat="46.344769" lon="6.670997">
        <ele>1395.188</ele>
        <time>2018-07-02T09:16:43Z</time>
      </trkpt>
      <trkpt lat="46.344773" lon="6.671069">
        <ele>1395.834</ele>
        <time>2018-07-02T09:16:52Z</time>
      </trkpt>
      <trkpt lat="46.344787" lon="6.671136">
        <ele>1396.339</ele>
        <time>2018-07-02T09:17:00Z</time>
      </trkpt>
      <trkpt lat="46.344808" lon="6.671197">
        <ele>1396.786</ele>
        <time>2018-07-02T09:17:08Z</time>
      </trkpt>
      <trkpt lat="46.344836" lon="6.671253">
        <ele>1396.960</ele>
        <time>2018-07-02T09:17:15Z</time>
      </trkpt>
      <trkpt lat="46.344846" lon="6.671321">
        <ele>1397.526</ele>
        <time>2018-07-02T09:17:32Z</time>
      </trkpt>
      <trkpt lat="46.344862" lon="6.671386">
        <ele>1398.008</ele>
        <time>2018-07-02T09:17:39Z</time>
      </trkpt>
      <trkpt lat="46.344878" lon="6.671454">
        <ele>1398.590</ele>
        <time>2018-07-02T09:17:45Z</time>
      </trkpt>
      <trkpt lat="46.344893" lon="6.671525">
        <ele>1399.066</ele>
        <time>2018-07-02T09:17:51Z</time>
      </trkpt>
      <trkpt lat="46.344908" lon="6.671590">
        <ele>1399.538</ele>
        <time>2018-07-02T09:17:56Z</time>
      </trkpt>
      <trkpt lat="46.344925" lon="6.671662">
        <ele>1400.024</ele>
        <time>2018-07-02T09:18:02Z</time>
      </trkpt>
      <trkpt lat="46.344938" lon="6.671734">
        <ele>1400.886</ele>
        <time>2018-07-02T09:18:08Z</time>
      </trkpt>
      <trkpt lat="46.344949" lon="6.671805">
        <ele>1401.513</ele>
        <time>2018-07-02T09:18:14Z</time>
      </trkpt>
      <trkpt lat="46.344962" lon="6.671872">
        <ele>1402.329</ele>
        <time>2018-07-02T09:18:20Z</time>
      </trkpt>
      <trkpt lat="46.344972" lon="6.671940">
        <ele>1403.174</ele>
        <time>2018-07-02T09:18:26Z</time>
      </trkpt>
      <trkpt lat="46.344980" lon="6.672010">
        <ele>1403.827</ele>
        <time>2018-07-02T09:18:33Z</time>
      </trkpt>
      <trkpt lat="46.345002" lon="6.672068">
        <ele>1404.368</ele>
        <time>2018-07-02T09:18:40Z</time>
      </trkpt>
      <trkpt lat="46.345027" lon="6.672129">
        <ele>1404.414</ele>
        <time>2018-07-02T09:18:47Z</time>
      </trkpt>
      <trkpt lat="46.345057" lon="6.672191">
        <ele>1404.408</ele>
        <time>2018-07-02T09:18:54Z</time>
      </trkpt>
      <trkpt lat="46.345087" lon="6.672249">
        <ele>1404.434</ele>
        <time>2018-07-02T09:19:01Z</time>
      </trkpt>
      <trkpt lat="46.345099" lon="6.672314">
        <ele>1405.090</ele>
        <time>2018-07-02T09:19:09Z</time>
      </trkpt>
      <trkpt lat="46.345107" lon="6.672383">
        <ele>1405.642</ele>
        <time>2018-07-02T09:19:18Z</time>
      </trkpt>
      <trkpt lat="46.345114" lon="6.672454">
        <ele>1406.438</ele>
        <time>2018-07-02T09:19:27Z</time>
      </trkpt>
      <trkpt lat="46.345118" lon="6.672519">
        <ele>1407.230</ele>
        <time>2018-07-02T09:19:35Z</time>
      </trkpt>
      <trkpt lat="46.345132" lon="6.672584">
        <ele>1408.157</ele>
        <time>2018-07-02T09:19:42Z</time>
      </trkpt>
      <trkpt lat="46.345146" lon="6.672653">
        <ele>1409.143</ele>
        <time>2018-07-02T09:20:06Z</time>
      </trkpt>
      <trkpt lat="46.345189" lon="6.672677">
        <ele>1408.888</ele>
        <time>2018-07-02T09:20:31Z</time>
      </trkpt>
      <trkpt lat="46.345211" lon="6.672742">
        <ele>1409.664</ele>
        <time>2018-07-02T09:20:55Z</time>
      </trkpt>
      <trkpt lat="46.345227" lon="6.672808">
        <ele>1410.506</ele>
        <time>2018-07-02T09:21:04Z</time>
      </trkpt>
      <trkpt lat="46.345234" lon="6.672877">
        <ele>1411.616</ele>
        <time>2018-07-02T09:21:16Z</time>
      </trkpt>
      <trkpt lat="46.345257" lon="6.672941">
        <ele>1412.308</ele>
        <time>2018-07-02T09:21:24Z</time>
      </trkpt>
      <trkpt lat="46.345287" lon="6.672996">
        <ele>1412.538</ele>
        <time>2018-07-02T09:21:30Z</time>
      </trkpt>
      <trkpt lat="46.345306" lon="6.673063">
        <ele>1412.994</ele>
        <time>2018-07-02T09:21:37Z</time>
      </trkpt>
      <trkpt lat="46.345325" lon="6.673132">
        <ele>1413.376</ele>
        <time>2018-07-02T09:21:44Z</time>
      </trkpt>
      <trkpt lat="46.345350" lon="6.673194">
        <ele>1413.472</ele>
        <time>2018-07-02T09:21:51Z</time>
      </trkpt>
      <trkpt lat="46.345368" lon="6.673253">
        <ele>1413.764</ele>
        <time>2018-07-02T09:21:56Z</time>
      </trkpt>
      <trkpt lat="46.345377" lon="6.673321">
        <ele>1414.541</ele>
        <time>2018-07-02T09:22:02Z</time>
      </trkpt>
      <trkpt lat="46.345397" lon="6.673381">
        <ele>1414.667</ele>
        <time>2018-07-02T09:22:07Z</time>
      </trkpt>
      <trkpt lat="46.345418" lon="6.673443">
        <ele>1414.732</ele>
        <time>2018-07-02T09:22:12Z</time>
      </trkpt>
      <trkpt lat="46.345441" lon="6.673511">
        <ele>1415.016</ele>
        <time>2018-07-02T09:22:18Z</time>
      </trkpt>
      <trkpt lat="46.345462" lon="6.673581">
        <ele>1415.576</ele>
        <time>2018-07-02T09:22:25Z</time>
      </trkpt>
      <trkpt lat="46.345486" lon="6.673645">
        <ele>1416.013</ele>
        <time>2018-07-02T09:22:33Z</time>
      </trkpt>
      <trkpt lat="46.345518" lon="6.673704">
        <ele>1416.508</ele>
        <time>2018-07-02T09:22:40Z</time>
      </trkpt>
      <trkpt lat="46.345545" lon="6.673760">
        <ele>1417.183</ele>
        <time>2018-07-02T09:22:47Z</time>
      </trkpt>
      <trkpt lat="46.345564" lon="6.673825">
        <ele>1418.279</ele>
        <time>2018-07-02T09:22:56Z</time>
      </trkpt>
      <trkpt lat="46.345593" lon="6.673881">
        <ele>1419.051</ele>
        <time>2018-07-02T09:23:05Z</time>
      </trkpt>
      <trkpt lat="46.345635" lon="6.673920">
        <ele>1419.277</ele>
        <time>2018-07-02T09:23:12Z</time>
      </trkpt>
      <trkpt lat="46.345662" lon="6.673980">
        <ele>1420.519</ele>
        <time>2018-07-02T09:23:22Z</time>
      </trkpt>
      <trkpt lat="46.345701" lon="6.674029">
        <ele>1421.286</ele>
        <time>2018-07-02T09:23:30Z</time>
      </trkpt>
      <trkpt lat="46.345738" lon="6.674077">
        <ele>1421.982</ele>
        <time>2018-07-02T09:23:38Z</time>
      </trkpt>
      <trkpt lat="46.345780" lon="6.674120">
        <ele>1422.547</ele>
        <time>2018-07-02T09:23:45Z</time>
      </trkpt>
      <trkpt lat="46.345814" lon="6.674174">
        <ele>1423.591</ele>
        <time>2018-07-02T09:23:52Z</time>
      </trkpt>
      <trkpt lat="46.345853" lon="6.674211">
        <ele>1423.681</ele>
        <time>2018-07-02T09:23:58Z</time>
      </trkpt>
      <trkpt lat="46.345886" lon="6.674263">
        <ele>1424.019</ele>
        <time>2018-07-02T09:24:06Z</time>
      </trkpt>
      <trkpt lat="46.345922" lon="6.674304">
        <ele>1424.108</ele>
        <time>2018-07-02T09:24:12Z</time>
      </trkpt>
      <trkpt lat="46.345958" lon="6.674348">
        <ele>1424.321</ele>
        <time>2018-07-02T09:24:19Z</time>
      </trkpt>
      <trkpt lat="46.345999" lon="6.674397">
        <ele>1424.587</ele>
        <time>2018-07-02T09:24:26Z</time>
      </trkpt>
      <trkpt lat="46.346030" lon="6.674447">
        <ele>1425.159</ele>
        <time>2018-07-02T09:24:32Z</time>
      </trkpt>
      <trkpt lat="46.346063" lon="6.674499">
        <ele>1425.665</ele>
        <time>2018-07-02T09:24:38Z</time>
      </trkpt>
      <trkpt lat="46.346091" lon="6.674550">
        <ele>1426.197</ele>
        <time>2018-07-02T09:24:43Z</time>
      </trkpt>
      <trkpt lat="46.346125" lon="6.674609">
        <ele>1426.814</ele>
        <time>2018-07-02T09:24:50Z</time>
      </trkpt>
      <trkpt lat="46.346168" lon="6.674655">
        <ele>1426.870</ele>
        <time>2018-07-02T09:24:56Z</time>
      </trkpt>
      <trkpt lat="46.346206" lon="6.674698">
        <ele>1427.045</ele>
        <time>2018-07-02T09:25:01Z</time>
      </trkpt>
      <trkpt lat="46.346238" lon="6.674748">
        <ele>1427.392</ele>
        <time>2018-07-02T09:25:06Z</time>
      </trkpt>
      <trkpt lat="46.346281" lon="6.674794">
        <ele>1427.073</ele>
        <time>2018-07-02T09:25:11Z</time>
      </trkpt>
      <trkpt lat="46.346314" lon="6.674843">
        <ele>1427.120</ele>
        <time>2018-07-02T09:25:16Z</time>
      </trkpt>
      <trkpt lat="46.346346" lon="6.674902">
        <ele>1427.308</ele>
        <time>2018-07-02T09:25:22Z</time>
      </trkpt>
      <trkpt lat="46.346366" lon="6.674963">
        <ele>1427.951</ele>
        <time>2018-07-02T09:25:28Z</time>
      </trkpt>
      <trkpt lat="46.346383" lon="6.675030">
        <ele>1428.617</ele>
        <time>2018-07-02T09:25:34Z</time>
      </trkpt>
      <trkpt lat="46.346401" lon="6.675098">
        <ele>1429.179</ele>
        <time>2018-07-02T09:25:40Z</time>
      </trkpt>
      <trkpt lat="46.346413" lon="6.675162">
        <ele>1429.745</ele>
        <time>2018-07-02T09:25:46Z</time>
      </trkpt>
      <trkpt lat="46.346420" lon="6.675234">
        <ele>1430.647</ele>
        <time>2018-07-02T09:25:53Z</time>
      </trkpt>
      <trkpt lat="46.346442" lon="6.675303">
        <ele>1430.984</ele>
        <time>2018-07-02T09:25:59Z</time>
      </trkpt>
      <trkpt lat="46.346467" lon="6.675369">
        <ele>1431.040</ele>
        <time>2018-07-02T09:26:05Z</time>
      </trkpt>
      <trkpt lat="46.346480" lon="6.675432">
        <ele>1431.465</ele>
        <time>2018-07-02T09:26:10Z</time>
      </trkpt>
      <trkpt lat="46.346492" lon="6.675508">
        <ele>1431.941</ele>
        <time>2018-07-02T09:26:16Z</time>
      </trkpt>
      <trkpt lat="46.346514" lon="6.675567">
        <ele>1432.081</ele>
        <time>2018-07-02T09:26:21Z</time>
      </trkpt>
      <trkpt lat="46.346528" lon="6.675631">
        <ele>1432.309</ele>
        <time>2018-07-02T09:26:26Z</time>
      </trkpt>
      <trkpt lat="46.346540" lon="6.675701">
        <ele>1432.808</ele>
        <time>2018-07-02T09:26:31Z</time>
      </trkpt>
      <trkpt lat="46.346547" lon="6.675778">
        <ele>1433.436</ele>
        <time>2018-07-02T09:26:36Z</time>
      </trkpt>
      <trkpt lat="46.346548" lon="6.675851">
        <ele>1434.022</ele>
        <time>2018-07-02T09:26:41Z</time>
      </trkpt>
      <trkpt lat="46.346551" lon="6.675928">
        <ele>1434.154</ele>
        <time>2018-07-02T09:26:46Z</time>
      </trkpt>
      <trkpt lat="46.346551" lon="6.676007">
        <ele>1434.320</ele>
        <time>2018-07-02T09:26:51Z</time>
      </trkpt>
      <trkpt lat="46.346545" lon="6.676075">
        <ele>1434.662</ele>
        <time>2018-07-02T09:26:56Z</time>
      </trkpt>
      <trkpt lat="46.346535" lon="6.676149">
        <ele>1434.779</ele>
        <time>2018-07-02T09:27:01Z</time>
      </trkpt>
      <trkpt lat="46.346517" lon="6.676224">
        <ele>1434.855</ele>
        <time>2018-07-02T09:27:06Z</time>
      </trkpt>
      <trkpt lat="46.346500" lon="6.676285">
        <ele>1434.840</ele>
        <time>2018-07-02T09:27:10Z</time>
      </trkpt>
      <trkpt lat="46.346482" lon="6.676346">
        <ele>1434.952</ele>
        <time>2018-07-02T09:27:15Z</time>
      </trkpt>
      <trkpt lat="46.346450" lon="6.676404">
        <ele>1435.053</ele>
        <time>2018-07-02T09:27:32Z</time>
      </trkpt>
      <trkpt lat="46.346412" lon="6.676454">
        <ele>1435.208</ele>
        <time>2018-07-02T09:28:47Z</time>
      </trkpt>
      <trkpt lat="46.346365" lon="6.676480">
        <ele>1435.508</ele>
        <time>2018-07-02T09:28:54Z</time>
      </trkpt>
      <trkpt lat="46.346317" lon="6.676513">
        <ele>1435.587</ele>
        <time>2018-07-02T09:28:59Z</time>
      </trkpt>
      <trkpt lat="46.346266" lon="6.676546">
        <ele>1435.533</ele>
        <time>2018-07-02T09:29:04Z</time>
      </trkpt>
      <trkpt lat="46.346219" lon="6.676568">
        <ele>1435.565</ele>
        <time>2018-07-02T09:29:08Z</time>
      </trkpt>
      <trkpt lat="46.346175" lon="6.676594">
        <ele>1435.581</ele>
        <time>2018-07-02T09:29:12Z</time>
      </trkpt>
      <trkpt lat="46.346131" lon="6.676617">
        <ele>1435.583</ele>
        <time>2018-07-02T09:29:16Z</time>
      </trkpt>
      <trkpt lat="46.346087" lon="6.676644">
        <ele>1435.270</ele>
        <time>2018-07-02T09:29:20Z</time>
      </trkpt>
      <trkpt lat="46.346045" lon="6.676680">
        <ele>1434.926</ele>
        <time>2018-07-02T09:29:24Z</time>
      </trkpt>
      <trkpt lat="46.346000" lon="6.676723">
        <ele>1434.891</ele>
        <time>2018-07-02T09:29:29Z</time>
      </trkpt>
      <trkpt lat="46.345959" lon="6.676769">
        <ele>1434.758</ele>
        <time>2018-07-02T09:29:34Z</time>
      </trkpt>
      <trkpt lat="46.345924" lon="6.676826">
        <ele>1434.652</ele>
        <time>2018-07-02T09:29:46Z</time>
      </trkpt>
      <trkpt lat="46.345888" lon="6.676889">
        <ele>1434.717</ele>
        <time>2018-07-02T09:29:51Z</time>
      </trkpt>
      <trkpt lat="46.345859" lon="6.676945">
        <ele>1434.808</ele>
        <time>2018-07-02T09:29:55Z</time>
      </trkpt>
      <trkpt lat="46.345829" lon="6.677012">
        <ele>1434.717</ele>
        <time>2018-07-02T09:30:00Z</time>
      </trkpt>
      <trkpt lat="46.345802" lon="6.677080">
        <ele>1434.353</ele>
        <time>2018-07-02T09:30:05Z</time>
      </trkpt>
      <trkpt lat="46.345774" lon="6.677144">
        <ele>1433.945</ele>
        <time>2018-07-02T09:30:10Z</time>
      </trkpt>
      <trkpt lat="46.345740" lon="6.677194">
        <ele>1433.791</ele>
        <time>2018-07-02T09:30:15Z</time>
      </trkpt>
      <trkpt lat="46.345702" lon="6.677250">
        <ele>1433.593</ele>
        <time>2018-07-02T09:30:20Z</time>
      </trkpt>
      <trkpt lat="46.345662" lon="6.677303">
        <ele>1433.590</ele>
        <time>2018-07-02T09:30:25Z</time>
      </trkpt>
      <trkpt lat="46.345630" lon="6.677357">
        <ele>1433.526</ele>
        <time>2018-07-02T09:30:30Z</time>
      </trkpt>
      <trkpt lat="46.345602" lon="6.677409">
        <ele>1433.641</ele>
        <time>2018-07-02T09:30:35Z</time>
      </trkpt>
      <trkpt lat="46.345574" lon="6.677462">
        <ele>1433.812</ele>
        <time>2018-07-02T09:30:41Z</time>
      </trkpt>
      <trkpt lat="46.345543" lon="6.677520">
        <ele>1434.132</ele>
        <time>2018-07-02T09:30:49Z</time>
      </trkpt>
      <trkpt lat="46.345510" lon="6.677570">
        <ele>1434.505</ele>
        <time>2018-07-02T09:30:56Z</time>
      </trkpt>
      <trkpt lat="46.345476" lon="6.677619">
        <ele>1435.108</ele>
        <time>2018-07-02T09:31:03Z</time>
      </trkpt>
      <trkpt lat="46.345449" lon="6.677683">
        <ele>1435.853</ele>
        <time>2018-07-02T09:31:10Z</time>
      </trkpt>
      <trkpt lat="46.345424" lon="6.677740">
        <ele>1436.669</ele>
        <time>2018-07-02T09:31:17Z</time>
      </trkpt>
      <trkpt lat="46.345398" lon="6.677798">
        <ele>1437.491</ele>
        <time>2018-07-02T09:31:30Z</time>
      </trkpt>
      <trkpt lat="46.345368" lon="6.677850">
        <ele>1438.177</ele>
        <time>2018-07-02T09:31:39Z</time>
      </trkpt>
      <trkpt lat="46.345338" lon="6.677907">
        <ele>1439.059</ele>
        <time>2018-07-02T09:31:47Z</time>
      </trkpt>
      <trkpt lat="46.345301" lon="6.677949">
        <ele>1439.866</ele>
        <time>2018-07-02T09:31:55Z</time>
      </trkpt>
      <trkpt lat="46.345266" lon="6.677998">
        <ele>1440.882</ele>
        <time>2018-07-02T09:32:03Z</time>
      </trkpt>
      <trkpt lat="46.345237" lon="6.678049">
        <ele>1441.747</ele>
        <time>2018-07-02T09:32:11Z</time>
      </trkpt>
      <trkpt lat="46.345208" lon="6.678108">
        <ele>1442.785</ele>
        <time>2018-07-02T09:32:21Z</time>
      </trkpt>
      <trkpt lat="46.345169" lon="6.678150">
        <ele>1443.889</ele>
        <time>2018-07-02T09:32:30Z</time>
      </trkpt>
      <trkpt lat="46.345136" lon="6.678202">
        <ele>1444.917</ele>
        <time>2018-07-02T09:32:38Z</time>
      </trkpt>
      <trkpt lat="46.345108" lon="6.678257">
        <ele>1446.008</ele>
        <time>2018-07-02T09:32:48Z</time>
      </trkpt>
      <trkpt lat="46.345076" lon="6.678307">
        <ele>1447.160</ele>
        <time>2018-07-02T09:32:57Z</time>
      </trkpt>
      <trkpt lat="46.345039" lon="6.678356">
        <ele>1448.446</ele>
        <time>2018-07-02T09:33:07Z</time>
      </trkpt>
      <trkpt lat="46.345005" lon="6.678407">
        <ele>1449.728</ele>
        <time>2018-07-02T09:33:17Z</time>
      </trkpt>
      <trkpt lat="46.344974" lon="6.678456">
        <ele>1450.724</ele>
        <time>2018-07-02T09:33:29Z</time>
      </trkpt>
      <trkpt lat="46.344936" lon="6.678498">
        <ele>1451.876</ele>
        <time>2018-07-02T09:33:40Z</time>
      </trkpt>
      <trkpt lat="46.344893" lon="6.678530">
        <ele>1452.923</ele>
        <time>2018-07-02T09:33:50Z</time>
      </trkpt>
      <trkpt lat="46.344854" lon="6.678573">
        <ele>1454.139</ele>
        <time>2018-07-02T09:34:01Z</time>
      </trkpt>
      <trkpt lat="46.344821" lon="6.678621">
        <ele>1455.444</ele>
        <time>2018-07-02T09:34:11Z</time>
      </trkpt>
      <trkpt lat="46.344785" lon="6.678664">
        <ele>1456.625</ele>
        <time>2018-07-02T09:34:20Z</time>
      </trkpt>
      <trkpt lat="46.344744" lon="6.678701">
        <ele>1457.926</ele>
        <time>2018-07-02T09:34:32Z</time>
      </trkpt>
      <trkpt lat="46.344713" lon="6.678756">
        <ele>1459.308</ele>
        <time>2018-07-02T09:34:42Z</time>
      </trkpt>
      <trkpt lat="46.344689" lon="6.678812">
        <ele>1460.808</ele>
        <time>2018-07-02T09:34:58Z</time>
      </trkpt>
      <trkpt lat="46.344662" lon="6.678865">
        <ele>1462.414</ele>
        <time>2018-07-02T09:35:11Z</time>
      </trkpt>
      <trkpt lat="46.344641" lon="6.678926">
        <ele>1463.970</ele>
        <time>2018-07-02T09:35:23Z</time>
      </trkpt>
      <trkpt lat="46.344626" lon="6.679000">
        <ele>1465.412</ele>
        <time>2018-07-02T09:35:40Z</time>
      </trkpt>
      <trkpt lat="46.344622" lon="6.679067">
        <ele>1466.548</ele>
        <time>2018-07-02T09:35:56Z</time>
      </trkpt>
      <trkpt lat="46.344621" lon="6.679137">
        <ele>1467.550</ele>
        <time>2018-07-02T09:36:05Z</time>
      </trkpt>
      <trkpt lat="46.344607" lon="6.679207">
        <ele>1468.857</ele>
        <time>2018-07-02T09:36:16Z</time>
      </trkpt>
      <trkpt lat="46.344594" lon="6.679279">
        <ele>1469.973</ele>
        <time>2018-07-02T09:36:24Z</time>
      </trkpt>
      <trkpt lat="46.344573" lon="6.679342">
        <ele>1471.268</ele>
        <time>2018-07-02T09:36:32Z</time>
      </trkpt>
      <trkpt lat="46.344557" lon="6.679404">
        <ele>1472.373</ele>
        <time>2018-07-02T09:36:40Z</time>
      </trkpt>
      <trkpt lat="46.344539" lon="6.679466">
        <ele>1473.585</ele>
        <time>2018-07-02T09:36:51Z</time>
      </trkpt>
      <trkpt lat="46.344519" lon="6.679531">
        <ele>1474.813</ele>
        <time>2018-07-02T09:37:01Z</time>
      </trkpt>
      <trkpt lat="46.344500" lon="6.679594">
        <ele>1476.008</ele>
        <time>2018-07-02T09:37:14Z</time>
      </trkpt>
      <trkpt lat="46.344473" lon="6.679648">
        <ele>1477.469</ele>
        <time>2018-07-02T09:37:26Z</time>
      </trkpt>
      <trkpt lat="46.344446" lon="6.679703">
        <ele>1478.785</ele>
        <time>2018-07-02T09:37:34Z</time>
      </trkpt>
      <trkpt lat="46.344420" lon="6.679766">
        <ele>1480.087</ele>
        <time>2018-07-02T09:37:43Z</time>
      </trkpt>
      <trkpt lat="46.344407" lon="6.679831">
        <ele>1480.983</ele>
        <time>2018-07-02T09:37:50Z</time>
      </trkpt>
      <trkpt lat="46.344407" lon="6.679904">
        <ele>1481.425</ele>
        <time>2018-07-02T09:37:56Z</time>
      </trkpt>
      <trkpt lat="46.344401" lon="6.679971">
        <ele>1482.082</ele>
        <time>2018-07-02T09:38:02Z</time>
      </trkpt>
      <trkpt lat="46.344385" lon="6.680041">
        <ele>1482.928</ele>
        <time>2018-07-02T09:38:08Z</time>
      </trkpt>
      <trkpt lat="46.344365" lon="6.680105">
        <ele>1483.713</ele>
        <time>2018-07-02T09:38:14Z</time>
      </trkpt>
      <trkpt lat="46.344346" lon="6.680172">
        <ele>1484.527</ele>
        <time>2018-07-02T09:38:21Z</time>
      </trkpt>
      <trkpt lat="46.344326" lon="6.680242">
        <ele>1485.368</ele>
        <time>2018-07-02T09:38:28Z</time>
      </trkpt>
      <trkpt lat="46.344308" lon="6.680307">
        <ele>1485.814</ele>
        <time>2018-07-02T09:38:33Z</time>
      </trkpt>
      <trkpt lat="46.344285" lon="6.680364">
        <ele>1486.308</ele>
        <time>2018-07-02T09:38:38Z</time>
      </trkpt>
      <trkpt lat="46.344252" lon="6.680415">
        <ele>1487.044</ele>
        <time>2018-07-02T09:38:45Z</time>
      </trkpt>
      <trkpt lat="46.344223" lon="6.680467">
        <ele>1487.720</ele>
        <time>2018-07-02T09:38:52Z</time>
      </trkpt>
      <trkpt lat="46.344185" lon="6.680514">
        <ele>1488.612</ele>
        <time>2018-07-02T09:38:58Z</time>
      </trkpt>
      <trkpt lat="46.344155" lon="6.680575">
        <ele>1489.318</ele>
        <time>2018-07-02T09:39:05Z</time>
      </trkpt>
      <trkpt lat="46.344134" lon="6.680648">
        <ele>1489.750</ele>
        <time>2018-07-02T09:39:11Z</time>
      </trkpt>
      <trkpt lat="46.344114" lon="6.680712">
        <ele>1490.067</ele>
        <time>2018-07-02T09:39:16Z</time>
      </trkpt>
      <trkpt lat="46.344106" lon="6.680778">
        <ele>1490.063</ele>
        <time>2018-07-02T09:39:21Z</time>
      </trkpt>
      <trkpt lat="46.344096" lon="6.680842">
        <ele>1490.078</ele>
        <time>2018-07-02T09:39:26Z</time>
      </trkpt>
      <trkpt lat="46.344079" lon="6.680904">
        <ele>1490.365</ele>
        <time>2018-07-02T09:39:31Z</time>
      </trkpt>
      <trkpt lat="46.344072" lon="6.680979">
        <ele>1490.268</ele>
        <time>2018-07-02T09:39:37Z</time>
      </trkpt>
      <trkpt lat="46.344058" lon="6.681047">
        <ele>1490.414</ele>
        <time>2018-07-02T09:39:42Z</time>
      </trkpt>
      <trkpt lat="46.344045" lon="6.681114">
        <ele>1490.508</ele>
        <time>2018-07-02T09:39:47Z</time>
      </trkpt>
      <trkpt lat="46.344024" lon="6.681184">
        <ele>1491.488</ele>
        <time>2018-07-02T09:39:54Z</time>
      </trkpt>
      <trkpt lat="46.344012" lon="6.681247">
        <ele>1492.064</ele>
        <time>2018-07-02T09:40:00Z</time>
      </trkpt>
      <trkpt lat="46.344007" lon="6.681312">
        <ele>1492.426</ele>
        <time>2018-07-02T09:40:06Z</time>
      </trkpt>
      <trkpt lat="46.344018" lon="6.681382">
        <ele>1492.312</ele>
        <time>2018-07-02T09:40:13Z</time>
      </trkpt>
      <trkpt lat="46.344027" lon="6.681453">
        <ele>1493.114</ele>
        <time>2018-07-02T09:40:21Z</time>
      </trkpt>
      <trkpt lat="46.344034" lon="6.681519">
        <ele>1493.971</ele>
        <time>2018-07-02T09:40:29Z</time>
      </trkpt>
      <trkpt lat="46.344046" lon="6.681585">
        <ele>1494.527</ele>
        <time>2018-07-02T09:40:37Z</time>
      </trkpt>
      <trkpt lat="46.344060" lon="6.681648">
        <ele>1494.922</ele>
        <time>2018-07-02T09:40:45Z</time>
      </trkpt>
      <trkpt lat="46.344071" lon="6.681716">
        <ele>1495.911</ele>
        <time>2018-07-02T09:40:53Z</time>
      </trkpt>
      <trkpt lat="46.344093" lon="6.681779">
        <ele>1496.521</ele>
        <time>2018-07-02T09:41:01Z</time>
      </trkpt>
      <trkpt lat="46.344114" lon="6.681844">
        <ele>1497.003</ele>
        <time>2018-07-02T09:41:09Z</time>
      </trkpt>
      <trkpt lat="46.344126" lon="6.681910">
        <ele>1498.008</ele>
        <time>2018-07-02T09:41:16Z</time>
      </trkpt>
      <trkpt lat="46.344153" lon="6.681971">
        <ele>1498.223</ele>
        <time>2018-07-02T09:41:25Z</time>
      </trkpt>
      <trkpt lat="46.344165" lon="6.682041">
        <ele>1499.529</ele>
        <time>2018-07-02T09:41:35Z</time>
      </trkpt>
      <trkpt lat="46.344162" lon="6.682123">
        <ele>1501.721</ele>
        <time>2018-07-02T09:41:59Z</time>
      </trkpt>
      <trkpt lat="46.344161" lon="6.682193">
        <ele>1503.577</ele>
        <time>2018-07-02T09:42:16Z</time>
      </trkpt>
      <trkpt lat="46.344174" lon="6.682257">
        <ele>1504.419</ele>
        <time>2018-07-02T09:42:37Z</time>
      </trkpt>
      <trkpt lat="46.344174" lon="6.682327">
        <ele>1506.026</ele>
        <time>2018-07-02T09:42:49Z</time>
      </trkpt>
      <trkpt lat="46.344174" lon="6.682398">
        <ele>1507.512</ele>
        <time>2018-07-02T09:43:01Z</time>
      </trkpt>
      <trkpt lat="46.344186" lon="6.682467">
        <ele>1508.537</ele>
        <time>2018-07-02T09:43:12Z</time>
      </trkpt>
      <trkpt lat="46.344177" lon="6.682535">
        <ele>1510.121</ele>
        <time>2018-07-02T09:43:23Z</time>
      </trkpt>
      <trkpt lat="46.344145" lon="6.682582">
        <ele>1511.641</ele>
        <time>2018-07-02T09:43:30Z</time>
      </trkpt>
      <trkpt lat="46.344109" lon="6.682630">
        <ele>1512.905</ele>
        <time>2018-07-02T09:43:36Z</time>
      </trkpt>
      <trkpt lat="46.344076" lon="6.682681">
        <ele>1514.008</ele>
        <time>2018-07-02T09:43:42Z</time>
      </trkpt>
      <trkpt lat="46.344049" lon="6.682745">
        <ele>1515.054</ele>
        <time>2018-07-02T09:43:49Z</time>
      </trkpt>
      <trkpt lat="46.344048" lon="6.682741">
        <ele>1515.080</ele>
        <time>2018-07-02T09:46:41Z</time>
      </trkpt>
      <trkpt lat="46.344026" lon="6.682798">
        <ele>1515.712</ele>
        <time>2018-07-02T09:46:47Z</time>
      </trkpt>
      <trkpt lat="46.344006" lon="6.682860">
        <ele>1516.258</ele>
        <time>2018-07-02T09:46:52Z</time>
      </trkpt>
      <trkpt lat="46.343988" lon="6.682929">
        <ele>1516.760</ele>
        <time>2018-07-02T09:46:57Z</time>
      </trkpt>
      <trkpt lat="46.343975" lon="6.682999">
        <ele>1517.137</ele>
        <time>2018-07-02T09:47:02Z</time>
      </trkpt>
      <trkpt lat="46.343974" lon="6.683073">
        <ele>1517.443</ele>
        <time>2018-07-02T09:47:08Z</time>
      </trkpt>
      <trkpt lat="46.343966" lon="6.683138">
        <ele>1517.598</ele>
        <time>2018-07-02T09:47:14Z</time>
      </trkpt>
      <trkpt lat="46.343944" lon="6.683209">
        <ele>1517.515</ele>
        <time>2018-07-02T09:47:25Z</time>
      </trkpt>
      <trkpt lat="46.343913" lon="6.683268">
        <ele>1517.365</ele>
        <time>2018-07-02T09:47:31Z</time>
      </trkpt>
      <trkpt lat="46.343888" lon="6.683327">
        <ele>1517.011</ele>
        <time>2018-07-02T09:47:37Z</time>
      </trkpt>
      <trkpt lat="46.343842" lon="6.683359">
        <ele>1515.008</ele>
        <time>2018-07-02T09:47:44Z</time>
      </trkpt>
      <trkpt lat="46.343800" lon="6.683390">
        <ele>1513.153</ele>
        <time>2018-07-02T09:47:58Z</time>
      </trkpt>
      <trkpt lat="46.343780" lon="6.683459">
        <ele>1511.419</ele>
        <time>2018-07-02T09:48:05Z</time>
      </trkpt>
      <trkpt lat="46.343770" lon="6.683524">
        <ele>1510.131</ele>
        <time>2018-07-02T09:48:17Z</time>
      </trkpt>
      <trkpt lat="46.343756" lon="6.683588">
        <ele>1508.667</ele>
        <time>2018-07-02T09:48:28Z</time>
      </trkpt>
      <trkpt lat="46.343751" lon="6.683653">
        <ele>1507.659</ele>
        <time>2018-07-02T09:48:33Z</time>
      </trkpt>
      <trkpt lat="46.343739" lon="6.683732">
        <ele>1506.246</ele>
        <time>2018-07-02T09:48:45Z</time>
      </trkpt>
      <trkpt lat="46.343739" lon="6.683798">
        <ele>1505.542</ele>
        <time>2018-07-02T09:48:53Z</time>
      </trkpt>
      <trkpt lat="46.343734" lon="6.683868">
        <ele>1504.447</ele>
        <time>2018-07-02T09:48:59Z</time>
      </trkpt>
      <trkpt lat="46.343743" lon="6.683934">
        <ele>1504.221</ele>
        <time>2018-07-02T09:49:04Z</time>
      </trkpt>
      <trkpt lat="46.343759" lon="6.684001">
        <ele>1504.341</ele>
        <time>2018-07-02T09:49:09Z</time>
      </trkpt>
      <trkpt lat="46.343753" lon="6.684075">
        <ele>1503.205</ele>
        <time>2018-07-02T09:49:16Z</time>
      </trkpt>
      <trkpt lat="46.343749" lon="6.684145">
        <ele>1502.208</ele>
        <time>2018-07-02T09:49:23Z</time>
      </trkpt>
      <trkpt lat="46.343769" lon="6.684211">
        <ele>1502.864</ele>
        <time>2018-07-02T09:49:31Z</time>
      </trkpt>
      <trkpt lat="46.343765" lon="6.684282">
        <ele>1502.120</ele>
        <time>2018-07-02T09:49:43Z</time>
      </trkpt>
      <trkpt lat="46.343772" lon="6.684348">
        <ele>1502.252</ele>
        <time>2018-07-02T09:49:48Z</time>
      </trkpt>
      <trkpt lat="46.343757" lon="6.684413">
        <ele>1500.788</ele>
        <time>2018-07-02T09:49:56Z</time>
      </trkpt>
      <trkpt lat="46.343712" lon="6.684442">
        <ele>1497.320</ele>
        <time>2018-07-02T09:50:07Z</time>
      </trkpt>
      <trkpt lat="46.343694" lon="6.684504">
        <ele>1495.237</ele>
        <time>2018-07-02T09:50:13Z</time>
      </trkpt>
      <trkpt lat="46.343680" lon="6.684568">
        <ele>1493.413</ele>
        <time>2018-07-02T09:50:18Z</time>
      </trkpt>
      <trkpt lat="46.343679" lon="6.684636">
        <ele>1492.588</ele>
        <time>2018-07-02T09:50:24Z</time>
      </trkpt>
      <trkpt lat="46.343692" lon="6.684710">
        <ele>1492.668</ele>
        <time>2018-07-02T09:50:29Z</time>
      </trkpt>
      <trkpt lat="46.343705" lon="6.684781">
        <ele>1492.642</ele>
        <time>2018-07-02T09:50:36Z</time>
      </trkpt>
      <trkpt lat="46.343708" lon="6.684853">
        <ele>1491.826</ele>
        <time>2018-07-02T09:50:43Z</time>
      </trkpt>
      <trkpt lat="46.343712" lon="6.684924">
        <ele>1491.108</ele>
        <time>2018-07-02T09:50:50Z</time>
      </trkpt>
      <trkpt lat="46.343722" lon="6.684993">
        <ele>1490.928</ele>
        <time>2018-07-02T09:50:56Z</time>
      </trkpt>
      <trkpt lat="46.343730" lon="6.685068">
        <ele>1490.614</ele>
        <time>2018-07-02T09:51:02Z</time>
      </trkpt>
      <trkpt lat="46.343721" lon="6.685133">
        <ele>1489.216</ele>
        <time>2018-07-02T09:51:09Z</time>
      </trkpt>
      <trkpt lat="46.343694" lon="6.685196">
        <ele>1486.282</ele>
        <time>2018-07-02T09:51:17Z</time>
      </trkpt>
      <trkpt lat="46.343688" lon="6.685267">
        <ele>1484.844</ele>
        <time>2018-07-02T09:51:24Z</time>
      </trkpt>
      <trkpt lat="46.343674" lon="6.685335">
        <ele>1482.981</ele>
        <time>2018-07-02T09:51:32Z</time>
      </trkpt>
      <trkpt lat="46.343672" lon="6.685410">
        <ele>1481.977</ele>
        <time>2018-07-02T09:51:38Z</time>
      </trkpt>
      <trkpt lat="46.343694" lon="6.685467">
        <ele>1483.312</ele>
        <time>2018-07-02T09:51:44Z</time>
      </trkpt>
      <trkpt lat="46.343697" lon="6.685532">
        <ele>1483.095</ele>
        <time>2018-07-02T09:51:51Z</time>
      </trkpt>
      <trkpt lat="46.343675" lon="6.685593">
        <ele>1480.349</ele>
        <time>2018-07-02T09:51:59Z</time>
      </trkpt>
      <trkpt lat="46.343662" lon="6.685662">
        <ele>1478.423</ele>
        <time>2018-07-02T09:52:07Z</time>
      </trkpt>
      <trkpt lat="46.343658" lon="6.685728">
        <ele>1477.308</ele>
        <time>2018-07-02T09:52:13Z</time>
      </trkpt>
      <trkpt lat="46.343661" lon="6.685794">
        <ele>1476.851</ele>
        <time>2018-07-02T09:52:18Z</time>
      </trkpt>
      <trkpt lat="46.343661" lon="6.685861">
        <ele>1476.087</ele>
        <time>2018-07-02T09:52:23Z</time>
      </trkpt>
      <trkpt lat="46.343646" lon="6.685924">
        <ele>1474.059</ele>
        <time>2018-07-02T09:52:29Z</time>
      </trkpt>
      <trkpt lat="46.343634" lon="6.685993">
        <ele>1472.245</ele>
        <time>2018-07-02T09:52:34Z</time>
      </trkpt>
      <trkpt lat="46.343626" lon="6.686070">
        <ele>1470.797</ele>
        <time>2018-07-02T09:52:40Z</time>
      </trkpt>
      <trkpt lat="46.343616" lon="6.686141">
        <ele>1469.214</ele>
        <time>2018-07-02T09:52:46Z</time>
      </trkpt>
      <trkpt lat="46.343610" lon="6.686207">
        <ele>1468.360</ele>
        <time>2018-07-02T09:52:51Z</time>
      </trkpt>
      <trkpt lat="46.343599" lon="6.686278">
        <ele>1467.285</ele>
        <time>2018-07-02T09:52:56Z</time>
      </trkpt>
      <trkpt lat="46.343585" lon="6.686345">
        <ele>1466.117</ele>
        <time>2018-07-02T09:53:02Z</time>
      </trkpt>
      <trkpt lat="46.343572" lon="6.686420">
        <ele>1464.887</ele>
        <time>2018-07-02T09:53:14Z</time>
      </trkpt>
      <trkpt lat="46.343563" lon="6.686486">
        <ele>1463.815</ele>
        <time>2018-07-02T09:53:23Z</time>
      </trkpt>
      <trkpt lat="46.343561" lon="6.686558">
        <ele>1462.908</ele>
        <time>2018-07-02T09:53:31Z</time>
      </trkpt>
      <trkpt lat="46.343552" lon="6.686630">
        <ele>1461.873</ele>
        <time>2018-07-02T09:53:38Z</time>
      </trkpt>
      <trkpt lat="46.343544" lon="6.686698">
        <ele>1460.799</ele>
        <time>2018-07-02T09:53:47Z</time>
      </trkpt>
      <trkpt lat="46.343546" lon="6.686769">
        <ele>1459.711</ele>
        <time>2018-07-02T09:53:54Z</time>
      </trkpt>
      <trkpt lat="46.343537" lon="6.686834">
        <ele>1458.487</ele>
        <time>2018-07-02T09:54:01Z</time>
      </trkpt>
      <trkpt lat="46.343530" lon="6.686902">
        <ele>1457.119</ele>
        <time>2018-07-02T09:54:08Z</time>
      </trkpt>
      <trkpt lat="46.343533" lon="6.686968">
        <ele>1456.286</ele>
        <time>2018-07-02T09:54:14Z</time>
      </trkpt>
      <trkpt lat="46.343534" lon="6.687043">
        <ele>1455.192</ele>
        <time>2018-07-02T09:54:21Z</time>
      </trkpt>
      <trkpt lat="46.343542" lon="6.687114">
        <ele>1454.337</ele>
        <time>2018-07-02T09:54:28Z</time>
      </trkpt>
      <trkpt lat="46.343532" lon="6.687187">
        <ele>1452.741</ele>
        <time>2018-07-02T09:54:35Z</time>
      </trkpt>
      <trkpt lat="46.343533" lon="6.687257">
        <ele>1451.581</ele>
        <time>2018-07-02T09:54:41Z</time>
      </trkpt>
      <trkpt lat="46.343513" lon="6.687333">
        <ele>1449.409</ele>
        <time>2018-07-02T09:54:59Z</time>
      </trkpt>
      <trkpt lat="46.343516" lon="6.687405">
        <ele>1448.108</ele>
        <time>2018-07-02T09:55:07Z</time>
      </trkpt>
      <trkpt lat="46.343519" lon="6.687481">
        <ele>1446.786</ele>
        <time>2018-07-02T09:55:13Z</time>
      </trkpt>
      <trkpt lat="46.343524" lon="6.687551">
        <ele>1445.792</ele>
        <time>2018-07-02T09:55:19Z</time>
      </trkpt>
      <trkpt lat="46.343515" lon="6.687619">
        <ele>1444.584</ele>
        <time>2018-07-02T09:55:25Z</time>
      </trkpt>
      <trkpt lat="46.343524" lon="6.687692">
        <ele>1443.750</ele>
        <time>2018-07-02T09:55:31Z</time>
      </trkpt>
      <trkpt lat="46.343538" lon="6.687754">
        <ele>1443.022</ele>
        <time>2018-07-02T09:55:35Z</time>
      </trkpt>
      <trkpt lat="46.343556" lon="6.687820">
        <ele>1442.569</ele>
        <time>2018-07-02T09:55:40Z</time>
      </trkpt>
      <trkpt lat="46.343578" lon="6.687886">
        <ele>1442.015</ele>
        <time>2018-07-02T09:55:45Z</time>
      </trkpt>
      <trkpt lat="46.343586" lon="6.687956">
        <ele>1441.240</ele>
        <time>2018-07-02T09:55:50Z</time>
      </trkpt>
      <trkpt lat="46.343583" lon="6.688035">
        <ele>1440.179</ele>
        <time>2018-07-02T09:55:56Z</time>
      </trkpt>
      <trkpt lat="46.343582" lon="6.688109">
        <ele>1439.605</ele>
        <time>2018-07-02T09:56:01Z</time>
      </trkpt>
      <trkpt lat="46.343580" lon="6.688182">
        <ele>1439.325</ele>
        <time>2018-07-02T09:56:06Z</time>
      </trkpt>
      <trkpt lat="46.343572" lon="6.688253">
        <ele>1439.008</ele>
        <time>2018-07-02T09:56:11Z</time>
      </trkpt>
      <trkpt lat="46.343562" lon="6.688318">
        <ele>1438.729</ele>
        <time>2018-07-02T09:56:15Z</time>
      </trkpt>
      <trkpt lat="46.343548" lon="6.688398">
        <ele>1438.495</ele>
        <time>2018-07-02T09:56:20Z</time>
      </trkpt>
      <trkpt lat="46.343535" lon="6.688464">
        <ele>1438.237</ele>
        <time>2018-07-02T09:56:24Z</time>
      </trkpt>
      <trkpt lat="46.343520" lon="6.688532">
        <ele>1438.133</ele>
        <time>2018-07-02T09:56:28Z</time>
      </trkpt>
      <trkpt lat="46.343502" lon="6.688597">
        <ele>1438.055</ele>
        <time>2018-07-02T09:56:32Z</time>
      </trkpt>
      <trkpt lat="46.343484" lon="6.688660">
        <ele>1437.952</ele>
        <time>2018-07-02T09:56:36Z</time>
      </trkpt>
      <trkpt lat="46.343469" lon="6.688735">
        <ele>1437.818</ele>
        <time>2018-07-02T09:56:41Z</time>
      </trkpt>
      <trkpt lat="46.343446" lon="6.688792">
        <ele>1437.723</ele>
        <time>2018-07-02T09:56:46Z</time>
      </trkpt>
      <trkpt lat="46.343416" lon="6.688833">
        <ele>1437.864</ele>
        <time>2018-07-02T09:58:44Z</time>
      </trkpt>
      <trkpt lat="46.343390" lon="6.688892">
        <ele>1437.806</ele>
        <time>2018-07-02T09:58:54Z</time>
      </trkpt>
      <trkpt lat="46.343373" lon="6.688960">
        <ele>1437.816</ele>
        <time>2018-07-02T09:59:00Z</time>
      </trkpt>
      <trkpt lat="46.343353" lon="6.689024">
        <ele>1437.908</ele>
        <time>2018-07-02T09:59:07Z</time>
      </trkpt>
      <trkpt lat="46.343337" lon="6.689091">
        <ele>1438.098</ele>
        <time>2018-07-02T09:59:14Z</time>
      </trkpt>
      <trkpt lat="46.343315" lon="6.689157">
        <ele>1438.044</ele>
        <time>2018-07-02T09:59:21Z</time>
      </trkpt>
      <trkpt lat="46.343296" lon="6.689221">
        <ele>1438.326</ele>
        <time>2018-07-02T09:59:36Z</time>
      </trkpt>
      <trkpt lat="46.343274" lon="6.689282">
        <ele>1438.742</ele>
        <time>2018-07-02T09:59:43Z</time>
      </trkpt>
      <trkpt lat="46.343250" lon="6.689344">
        <ele>1439.224</ele>
        <time>2018-07-02T09:59:50Z</time>
      </trkpt>
      <trkpt lat="46.343222" lon="6.689402">
        <ele>1439.921</ele>
        <time>2018-07-02T09:59:58Z</time>
      </trkpt>
      <trkpt lat="46.343186" lon="6.689446">
        <ele>1440.687</ele>
        <time>2018-07-02T10:00:08Z</time>
      </trkpt>
      <trkpt lat="46.343155" lon="6.689495">
        <ele>1441.582</ele>
        <time>2018-07-02T10:00:18Z</time>
      </trkpt>
      <trkpt lat="46.343126" lon="6.689547">
        <ele>1442.444</ele>
        <time>2018-07-02T10:00:29Z</time>
      </trkpt>
      <trkpt lat="46.343103" lon="6.689608">
        <ele>1443.505</ele>
        <time>2018-07-02T10:00:41Z</time>
      </trkpt>
      <trkpt lat="46.343096" lon="6.689677">
        <ele>1444.515</ele>
        <time>2018-07-02T10:00:55Z</time>
      </trkpt>
      <trkpt lat="46.343083" lon="6.689739">
        <ele>1445.608</ele>
        <time>2018-07-02T10:01:06Z</time>
      </trkpt>
      <trkpt lat="46.343078" lon="6.689810">
        <ele>1446.416</ele>
        <time>2018-07-02T10:01:14Z</time>
      </trkpt>
      <trkpt lat="46.343068" lon="6.689880">
        <ele>1447.452</ele>
        <time>2018-07-02T10:01:24Z</time>
      </trkpt>
      <trkpt lat="46.343057" lon="6.689945">
        <ele>1448.474</ele>
        <time>2018-07-02T10:01:31Z</time>
      </trkpt>
      <trkpt lat="46.343050" lon="6.690009">
        <ele>1449.250</ele>
        <time>2018-07-02T10:01:39Z</time>
      </trkpt>
      <trkpt lat="46.343042" lon="6.690080">
        <ele>1450.152</ele>
        <time>2018-07-02T10:01:48Z</time>
      </trkpt>
      <trkpt lat="46.343027" lon="6.690146">
        <ele>1451.129</ele>
        <time>2018-07-02T10:01:58Z</time>
      </trkpt>
      <trkpt lat="46.343003" lon="6.690207">
        <ele>1452.295</ele>
        <time>2018-07-02T10:02:06Z</time>
      </trkpt>
      <trkpt lat="46.342974" lon="6.690267">
        <ele>1453.460</ele>
        <time>2018-07-02T10:02:14Z</time>
      </trkpt>
      <trkpt lat="46.342956" lon="6.690338">
        <ele>1454.497</ele>
        <time>2018-07-02T10:02:22Z</time>
      </trkpt>
      <trkpt lat="46.342946" lon="6.690409">
        <ele>1455.423</ele>
        <time>2018-07-02T10:02:32Z</time>
      </trkpt>
      <trkpt lat="46.342929" lon="6.690477">
        <ele>1456.425</ele>
        <time>2018-07-02T10:02:52Z</time>
      </trkpt>
      <trkpt lat="46.342923" lon="6.690547">
        <ele>1457.308</ele>
        <time>2018-07-02T10:03:00Z</time>
      </trkpt>
      <trkpt lat="46.342914" lon="6.690617">
        <ele>1458.381</ele>
        <time>2018-07-02T10:03:10Z</time>
      </trkpt>
      <trkpt lat="46.342919" lon="6.690691">
        <ele>1459.287</ele>
        <time>2018-07-02T10:03:20Z</time>
      </trkpt>
      <trkpt lat="46.342922" lon="6.690758">
        <ele>1459.919</ele>
        <time>2018-07-02T10:03:28Z</time>
      </trkpt>
      <trkpt lat="46.342916" lon="6.690829">
        <ele>1461.015</ele>
        <time>2018-07-02T10:03:37Z</time>
      </trkpt>
      <trkpt lat="46.342901" lon="6.690892">
        <ele>1462.257</ele>
        <time>2018-07-02T10:03:45Z</time>
      </trkpt>
      <trkpt lat="46.342893" lon="6.690963">
        <ele>1463.434</ele>
        <time>2018-07-02T10:03:54Z</time>
      </trkpt>
      <trkpt lat="46.342861" lon="6.691009">
        <ele>1464.780</ele>
        <time>2018-07-02T10:04:21Z</time>
      </trkpt>
      <trkpt lat="46.342844" lon="6.691070">
        <ele>1466.035</ele>
        <time>2018-07-02T10:04:32Z</time>
      </trkpt>
      <trkpt lat="46.342837" lon="6.691143">
        <ele>1467.213</ele>
        <time>2018-07-02T10:04:48Z</time>
      </trkpt>
      <trkpt lat="46.342820" lon="6.691220">
        <ele>1468.743</ele>
        <time>2018-07-02T10:05:08Z</time>
      </trkpt>
      <trkpt lat="46.342792" lon="6.691272">
        <ele>1470.007</ele>
        <time>2018-07-02T10:05:49Z</time>
      </trkpt>
      <trkpt lat="46.342775" lon="6.691341">
        <ele>1471.408</ele>
        <time>2018-07-02T10:06:04Z</time>
      </trkpt>
      <trkpt lat="46.342764" lon="6.691406">
        <ele>1472.653</ele>
        <time>2018-07-02T10:06:17Z</time>
      </trkpt>
      <trkpt lat="46.342775" lon="6.691471">
        <ele>1473.829</ele>
        <time>2018-07-02T10:06:33Z</time>
      </trkpt>
      <trkpt lat="46.342757" lon="6.691538">
        <ele>1475.681</ele>
        <time>2018-07-02T10:06:48Z</time>
      </trkpt>
      <trkpt lat="46.342727" lon="6.691595">
        <ele>1477.247</ele>
        <time>2018-07-02T10:06:57Z</time>
      </trkpt>
      <trkpt lat="46.342701" lon="6.691650">
        <ele>1478.889</ele>
        <time>2018-07-02T10:07:06Z</time>
      </trkpt>
      <trkpt lat="46.342664" lon="6.691691">
        <ele>1480.016</ele>
        <time>2018-07-02T10:07:15Z</time>
      </trkpt>
      <trkpt lat="46.342616" lon="6.691740">
        <ele>1481.592</ele>
        <time>2018-07-02T10:24:12Z</time>
      </trkpt>
      <trkpt lat="46.342588" lon="6.691797">
        <ele>1482.887</ele>
        <time>2018-07-02T10:24:22Z</time>
      </trkpt>
      <trkpt lat="46.342581" lon="6.691870">
        <ele>1484.027</ele>
        <time>2018-07-02T10:24:34Z</time>
      </trkpt>
      <trkpt lat="46.342598" lon="6.691931">
        <ele>1484.768</ele>
        <time>2018-07-02T10:24:42Z</time>
      </trkpt>
      <trkpt lat="46.342593" lon="6.692000">
        <ele>1485.714</ele>
        <time>2018-07-02T10:24:49Z</time>
      </trkpt>
      <trkpt lat="46.342596" lon="6.692071">
        <ele>1486.508</ele>
        <time>2018-07-02T10:24:57Z</time>
      </trkpt>
      <trkpt lat="46.342593" lon="6.692139">
        <ele>1487.374</ele>
        <time>2018-07-02T10:25:05Z</time>
      </trkpt>
      <trkpt lat="46.342602" lon="6.692207">
        <ele>1488.180</ele>
        <time>2018-07-02T10:25:12Z</time>
      </trkpt>
      <trkpt lat="46.342598" lon="6.692276">
        <ele>1488.662</ele>
        <time>2018-07-02T10:25:20Z</time>
      </trkpt>
      <trkpt lat="46.342587" lon="6.692348">
        <ele>1489.188</ele>
        <time>2018-07-02T10:25:29Z</time>
      </trkpt>
      <trkpt lat="46.342582" lon="6.692417">
        <ele>1489.560</ele>
        <time>2018-07-02T10:25:35Z</time>
      </trkpt>
      <trkpt lat="46.342571" lon="6.692487">
        <ele>1489.967</ele>
        <time>2018-07-02T10:25:40Z</time>
      </trkpt>
      <trkpt lat="46.342564" lon="6.692555">
        <ele>1490.033</ele>
        <time>2018-07-02T10:25:45Z</time>
      </trkpt>
      <trkpt lat="46.342553" lon="6.692622">
        <ele>1490.018</ele>
        <time>2018-07-02T10:25:49Z</time>
      </trkpt>
      <trkpt lat="46.342540" lon="6.692700">
        <ele>1490.098</ele>
        <time>2018-07-02T10:25:54Z</time>
      </trkpt>
      <trkpt lat="46.342529" lon="6.692778">
        <ele>1490.015</ele>
        <time>2018-07-02T10:25:59Z</time>
      </trkpt>
      <trkpt lat="46.342516" lon="6.692856">
        <ele>1490.026</ele>
        <time>2018-07-02T10:26:04Z</time>
      </trkpt>
      <trkpt lat="46.342508" lon="6.692922">
        <ele>1490.008</ele>
        <time>2018-07-02T10:26:08Z</time>
      </trkpt>
      <trkpt lat="46.342505" lon="6.693004">
        <ele>1490.031</ele>
        <time>2018-07-02T10:26:13Z</time>
      </trkpt>
      <trkpt lat="46.342505" lon="6.693073">
        <ele>1490.087</ele>
        <time>2018-07-02T10:26:17Z</time>
      </trkpt>
      <trkpt lat="46.342508" lon="6.693144">
        <ele>1490.059</ele>
        <time>2018-07-02T10:26:21Z</time>
      </trkpt>
      <trkpt lat="46.342519" lon="6.693220">
        <ele>1490.055</ele>
        <time>2018-07-02T10:26:26Z</time>
      </trkpt>
      <trkpt lat="46.342538" lon="6.693289">
        <ele>1490.057</ele>
        <time>2018-07-02T10:26:31Z</time>
      </trkpt>
      <trkpt lat="46.342560" lon="6.693358">
        <ele>1490.064</ele>
        <time>2018-07-02T10:26:36Z</time>
      </trkpt>
      <trkpt lat="46.342580" lon="6.693419">
        <ele>1490.020</ele>
        <time>2018-07-02T10:26:40Z</time>
      </trkpt>
      <trkpt lat="46.342601" lon="6.693478">
        <ele>1490.065</ele>
        <time>2018-07-02T10:26:44Z</time>
      </trkpt>
      <trkpt lat="46.342622" lon="6.693542">
        <ele>1490.019</ele>
        <time>2018-07-02T10:26:48Z</time>
      </trkpt>
      <trkpt lat="46.342641" lon="6.693604">
        <ele>1490.009</ele>
        <time>2018-07-02T10:26:52Z</time>
      </trkpt>
      <trkpt lat="46.342657" lon="6.693670">
        <ele>1490.019</ele>
        <time>2018-07-02T10:26:56Z</time>
      </trkpt>
      <trkpt lat="46.342675" lon="6.693736">
        <ele>1490.008</ele>
        <time>2018-07-02T10:27:00Z</time>
      </trkpt>
      <trkpt lat="46.342693" lon="6.693803">
        <ele>1490.093</ele>
        <time>2018-07-02T10:27:04Z</time>
      </trkpt>
      <trkpt lat="46.342709" lon="6.693871">
        <ele>1490.069</ele>
        <time>2018-07-02T10:27:08Z</time>
      </trkpt>
      <trkpt lat="46.342719" lon="6.693941">
        <ele>1489.971</ele>
        <time>2018-07-02T10:27:12Z</time>
      </trkpt>
      <trkpt lat="46.342731" lon="6.694009">
        <ele>1489.927</ele>
        <time>2018-07-02T10:27:16Z</time>
      </trkpt>
      <trkpt lat="46.342743" lon="6.694079">
        <ele>1489.829</ele>
        <time>2018-07-02T10:27:20Z</time>
      </trkpt>
      <trkpt lat="46.342752" lon="6.694148">
        <ele>1489.856</ele>
        <time>2018-07-02T10:27:24Z</time>
      </trkpt>
      <trkpt lat="46.342767" lon="6.694215">
        <ele>1489.912</ele>
        <time>2018-07-02T10:27:28Z</time>
      </trkpt>
      <trkpt lat="46.342784" lon="6.694283">
        <ele>1489.937</ele>
        <time>2018-07-02T10:27:32Z</time>
      </trkpt>
      <trkpt lat="46.342798" lon="6.694356">
        <ele>1489.839</ele>
        <time>2018-07-02T10:27:36Z</time>
      </trkpt>
      <trkpt lat="46.342806" lon="6.694433">
        <ele>1489.801</ele>
        <time>2018-07-02T10:27:40Z</time>
      </trkpt>
      <trkpt lat="46.342814" lon="6.694510">
        <ele>1489.721</ele>
        <time>2018-07-02T10:27:44Z</time>
      </trkpt>
      <trkpt lat="46.342816" lon="6.694584">
        <ele>1489.708</ele>
        <time>2018-07-02T10:27:48Z</time>
      </trkpt>
      <trkpt lat="46.342819" lon="6.694659">
        <ele>1489.775</ele>
        <time>2018-07-02T10:27:52Z</time>
      </trkpt>
      <trkpt lat="46.342824" lon="6.694734">
        <ele>1489.631</ele>
        <time>2018-07-02T10:27:56Z</time>
      </trkpt>
      <trkpt lat="46.342829" lon="6.694810">
        <ele>1489.363</ele>
        <time>2018-07-02T10:28:00Z</time>
      </trkpt>
      <trkpt lat="46.342838" lon="6.694883">
        <ele>1489.099</ele>
        <time>2018-07-02T10:28:04Z</time>
      </trkpt>
      <trkpt lat="46.342843" lon="6.694955">
        <ele>1488.791</ele>
        <time>2018-07-02T10:28:08Z</time>
      </trkpt>
      <trkpt lat="46.342837" lon="6.695031">
        <ele>1488.268</ele>
        <time>2018-07-02T10:28:13Z</time>
      </trkpt>
      <trkpt lat="46.342827" lon="6.695106">
        <ele>1487.544</ele>
        <time>2018-07-02T10:28:19Z</time>
      </trkpt>
      <trkpt lat="46.342810" lon="6.695170">
        <ele>1486.939</ele>
        <time>2018-07-02T10:28:24Z</time>
      </trkpt>
      <trkpt lat="46.342771" lon="6.695213">
        <ele>1486.683</ele>
        <time>2018-07-02T10:28:29Z</time>
      </trkpt>
      <trkpt lat="46.342727" lon="6.695246">
        <ele>1485.325</ele>
        <time>2018-07-02T10:28:42Z</time>
      </trkpt>
      <trkpt lat="46.342682" lon="6.695247">
        <ele>1484.517</ele>
        <time>2018-07-02T10:29:48Z</time>
      </trkpt>
      <trkpt lat="46.342634" lon="6.695234">
        <ele>1483.608</ele>
        <time>2018-07-02T10:29:53Z</time>
      </trkpt>
      <trkpt lat="46.342579" lon="6.695223">
        <ele>1482.470</ele>
        <time>2018-07-02T10:29:58Z</time>
      </trkpt>
      <trkpt lat="46.342530" lon="6.695218">
        <ele>1481.476</ele>
        <time>2018-07-02T10:30:02Z</time>
      </trkpt>
      <trkpt lat="46.342481" lon="6.695229">
        <ele>1480.498</ele>
        <time>2018-07-02T10:30:06Z</time>
      </trkpt>
      <trkpt lat="46.342434" lon="6.695253">
        <ele>1479.774</ele>
        <time>2018-07-02T10:30:11Z</time>
      </trkpt>
      <trkpt lat="46.342392" lon="6.695280">
        <ele>1479.136</ele>
        <time>2018-07-02T10:30:16Z</time>
      </trkpt>
      <trkpt lat="46.342352" lon="6.695323">
        <ele>1478.673</ele>
        <time>2018-07-02T10:30:23Z</time>
      </trkpt>
      <trkpt lat="46.342312" lon="6.695368">
        <ele>1478.399</ele>
        <time>2018-07-02T10:30:34Z</time>
      </trkpt>
      <trkpt lat="46.342269" lon="6.695400">
        <ele>1477.964</ele>
        <time>2018-07-02T10:30:42Z</time>
      </trkpt>
      <trkpt lat="46.342248" lon="6.695461">
        <ele>1478.317</ele>
        <time>2018-07-02T10:30:47Z</time>
      </trkpt>
      <trkpt lat="46.342248" lon="6.695542">
        <ele>1479.187</ele>
        <time>2018-07-02T10:31:06Z</time>
      </trkpt>
      <trkpt lat="46.342247" lon="6.695559">
        <ele>1479.215</ele>
        <time>2018-07-02T10:32:20Z</time>
      </trkpt>
      <trkpt lat="46.342215" lon="6.695624">
        <ele>1479.108</ele>
        <time>2018-07-02T10:32:25Z</time>
      </trkpt>
      <trkpt lat="46.342191" lon="6.695689">
        <ele>1478.863</ele>
        <time>2018-07-02T10:32:30Z</time>
      </trkpt>
      <trkpt lat="46.342171" lon="6.695751">
        <ele>1478.659</ele>
        <time>2018-07-02T10:32:39Z</time>
      </trkpt>
      <trkpt lat="46.342140" lon="6.695805">
        <ele>1478.131</ele>
        <time>2018-07-02T10:32:44Z</time>
      </trkpt>
      <trkpt lat="46.342107" lon="6.695851">
        <ele>1477.697</ele>
        <time>2018-07-02T10:32:48Z</time>
      </trkpt>
      <trkpt lat="46.342075" lon="6.695920">
        <ele>1477.599</ele>
        <time>2018-07-02T10:32:57Z</time>
      </trkpt>
      <trkpt lat="46.342048" lon="6.695973">
        <ele>1477.576</ele>
        <time>2018-07-02T10:33:03Z</time>
      </trkpt>
      <trkpt lat="46.342012" lon="6.696012">
        <ele>1477.422</ele>
        <time>2018-07-02T10:33:07Z</time>
      </trkpt>
      <trkpt lat="46.341984" lon="6.696072">
        <ele>1477.897</ele>
        <time>2018-07-02T10:33:12Z</time>
      </trkpt>
      <trkpt lat="46.341962" lon="6.696132">
        <ele>1478.351</ele>
        <time>2018-07-02T10:33:16Z</time>
      </trkpt>
      <trkpt lat="46.341954" lon="6.696209">
        <ele>1479.101</ele>
        <time>2018-07-02T10:33:21Z</time>
      </trkpt>
      <trkpt lat="46.341913" lon="6.696253">
        <ele>1479.011</ele>
        <time>2018-07-02T10:33:25Z</time>
      </trkpt>
      <trkpt lat="46.341879" lon="6.696303">
        <ele>1479.208</ele>
        <time>2018-07-02T10:33:29Z</time>
      </trkpt>
      <trkpt lat="46.341844" lon="6.696348">
        <ele>1479.657</ele>
        <time>2018-07-02T10:33:34Z</time>
      </trkpt>
      <trkpt lat="46.341807" lon="6.696404">
        <ele>1480.473</ele>
        <time>2018-07-02T10:33:40Z</time>
      </trkpt>
      <trkpt lat="46.341774" lon="6.696450">
        <ele>1481.475</ele>
        <time>2018-07-02T10:33:45Z</time>
      </trkpt>
      <trkpt lat="46.341741" lon="6.696499">
        <ele>1482.851</ele>
        <time>2018-07-02T10:33:54Z</time>
      </trkpt>
      <trkpt lat="46.341709" lon="6.696550">
        <ele>1484.563</ele>
        <time>2018-07-02T10:34:04Z</time>
      </trkpt>
      <trkpt lat="46.341681" lon="6.696602">
        <ele>1486.580</ele>
        <time>2018-07-02T10:34:10Z</time>
      </trkpt>
      <trkpt lat="46.341654" lon="6.696656">
        <ele>1488.566</ele>
        <time>2018-07-02T10:34:16Z</time>
      </trkpt>
      <trkpt lat="46.341617" lon="6.696704">
        <ele>1489.041</ele>
        <time>2018-07-02T10:34:21Z</time>
      </trkpt>
      <trkpt lat="46.341572" lon="6.696735">
        <ele>1489.361</ele>
        <time>2018-07-02T10:34:26Z</time>
      </trkpt>
      <trkpt lat="46.341531" lon="6.696774">
        <ele>1490.121</ele>
        <time>2018-07-02T10:34:33Z</time>
      </trkpt>
      <trkpt lat="46.341487" lon="6.696804">
        <ele>1491.113</ele>
        <time>2018-07-02T10:34:37Z</time>
      </trkpt>
      <trkpt lat="46.341439" lon="6.696823">
        <ele>1492.108</ele>
        <time>2018-07-02T10:34:42Z</time>
      </trkpt>
      <trkpt lat="46.341395" lon="6.696853">
        <ele>1493.688</ele>
        <time>2018-07-02T10:34:53Z</time>
      </trkpt>
      <trkpt lat="46.341327" lon="6.696890">
        <ele>1495.224</ele>
        <time>2018-07-02T10:35:28Z</time>
      </trkpt>
      <trkpt lat="46.341271" lon="6.696921">
        <ele>1496.516</ele>
        <time>2018-07-02T10:35:37Z</time>
      </trkpt>
      <trkpt lat="46.341227" lon="6.696944">
        <ele>1497.662</ele>
        <time>2018-07-02T10:35:50Z</time>
      </trkpt>
      <trkpt lat="46.341177" lon="6.696954">
        <ele>1498.074</ele>
        <time>2018-07-02T10:36:03Z</time>
      </trkpt>
      <trkpt lat="46.341116" lon="6.696968">
        <ele>1498.781</ele>
        <time>2018-07-02T10:36:15Z</time>
      </trkpt>
      <trkpt lat="46.341095" lon="6.697036">
        <ele>1500.687</ele>
        <time>2018-07-02T10:36:28Z</time>
      </trkpt>
      <trkpt lat="46.341074" lon="6.697111">
        <ele>1502.972</ele>
        <time>2018-07-02T10:36:44Z</time>
      </trkpt>
      <trkpt lat="46.341022" lon="6.697117">
        <ele>1503.294</ele>
        <time>2018-07-02T10:36:55Z</time>
      </trkpt>
      <trkpt lat="46.340963" lon="6.697139">
        <ele>1504.257</ele>
        <time>2018-07-02T10:37:18Z</time>
      </trkpt>
      <trkpt lat="46.340914" lon="6.697145">
        <ele>1504.622</ele>
        <time>2018-07-02T10:37:27Z</time>
      </trkpt>
      <trkpt lat="46.340866" lon="6.697153">
        <ele>1505.108</ele>
        <time>2018-07-02T10:37:40Z</time>
      </trkpt>
      <trkpt lat="46.340829" lon="6.697205">
        <ele>1507.311</ele>
        <time>2018-07-02T10:37:45Z</time>
      </trkpt>
      <trkpt lat="46.340792" lon="6.697248">
        <ele>1507.857</ele>
        <time>2018-07-02T10:37:50Z</time>
      </trkpt>
      <trkpt lat="46.340747" lon="6.697270">
        <ele>1507.759</ele>
        <time>2018-07-02T10:37:55Z</time>
      </trkpt>
      <trkpt lat="46.340692" lon="6.697273">
        <ele>1507.495</ele>
        <time>2018-07-02T10:38:00Z</time>
      </trkpt>
      <trkpt lat="46.340647" lon="6.697284">
        <ele>1507.287</ele>
        <time>2018-07-02T10:38:04Z</time>
      </trkpt>
      <trkpt lat="46.340594" lon="6.697297">
        <ele>1507.044</ele>
        <time>2018-07-02T10:38:09Z</time>
      </trkpt>
      <trkpt lat="46.340550" lon="6.697310">
        <ele>1506.960</ele>
        <time>2018-07-02T10:38:14Z</time>
      </trkpt>
      <trkpt lat="46.340499" lon="6.697298">
        <ele>1506.395</ele>
        <time>2018-07-02T10:38:20Z</time>
      </trkpt>
      <trkpt lat="46.340452" lon="6.697288">
        <ele>1505.725</ele>
        <time>2018-07-02T10:38:26Z</time>
      </trkpt>
      <trkpt lat="46.340412" lon="6.697325">
        <ele>1506.026</ele>
        <time>2018-07-02T10:38:34Z</time>
      </trkpt>
      <trkpt lat="46.340364" lon="6.697348">
        <ele>1506.208</ele>
        <time>2018-07-02T10:38:41Z</time>
      </trkpt>
      <trkpt lat="46.340317" lon="6.697356">
        <ele>1506.108</ele>
        <time>2018-07-02T10:38:47Z</time>
      </trkpt>
      <trkpt lat="46.340270" lon="6.697359">
        <ele>1505.944</ele>
        <time>2018-07-02T10:38:54Z</time>
      </trkpt>
      <trkpt lat="46.340230" lon="6.697391">
        <ele>1506.610</ele>
        <time>2018-07-02T10:39:08Z</time>
      </trkpt>
      <trkpt lat="46.340213" lon="6.697452">
        <ele>1508.252</ele>
        <time>2018-07-02T10:39:23Z</time>
      </trkpt>
      <trkpt lat="46.340169" lon="6.697487">
        <ele>1508.948</ele>
        <time>2018-07-02T10:39:29Z</time>
      </trkpt>
      <trkpt lat="46.340134" lon="6.697537">
        <ele>1509.080</ele>
        <time>2018-07-02T10:39:35Z</time>
      </trkpt>
      <trkpt lat="46.340106" lon="6.697594">
        <ele>1509.087</ele>
        <time>2018-07-02T10:39:41Z</time>
      </trkpt>
      <trkpt lat="46.340073" lon="6.697656">
        <ele>1508.963</ele>
        <time>2018-07-02T10:39:47Z</time>
      </trkpt>
      <trkpt lat="46.340059" lon="6.697718">
        <ele>1509.098</ele>
        <time>2018-07-02T10:39:54Z</time>
      </trkpt>
      <trkpt lat="46.340042" lon="6.697778">
        <ele>1509.297</ele>
        <time>2018-07-02T10:40:01Z</time>
      </trkpt>
      <trkpt lat="46.340015" lon="6.697834">
        <ele>1509.023</ele>
        <time>2018-07-02T10:40:09Z</time>
      </trkpt>
      <trkpt lat="46.339980" lon="6.697886">
        <ele>1508.525</ele>
        <time>2018-07-02T10:40:27Z</time>
      </trkpt>
      <trkpt lat="46.339962" lon="6.697968">
        <ele>1508.108</ele>
        <time>2018-07-02T10:40:50Z</time>
      </trkpt>
      <trkpt lat="46.339947" lon="6.698030">
        <ele>1508.011</ele>
        <time>2018-07-02T10:41:51Z</time>
      </trkpt>
      <trkpt lat="46.339943" lon="6.698095">
        <ele>1508.397</ele>
        <time>2018-07-02T10:42:16Z</time>
      </trkpt>
      <trkpt lat="46.339900" lon="6.698134">
        <ele>1508.199</ele>
        <time>2018-07-02T10:42:22Z</time>
      </trkpt>
      <trkpt lat="46.339847" lon="6.698179">
        <ele>1507.975</ele>
        <time>2018-07-02T10:42:28Z</time>
      </trkpt>
      <trkpt lat="46.339810" lon="6.698226">
        <ele>1508.177</ele>
        <time>2018-07-02T10:42:34Z</time>
      </trkpt>
      <trkpt lat="46.339733" lon="6.698281">
        <ele>1508.224</ele>
        <time>2018-07-02T10:42:47Z</time>
      </trkpt>
      <trkpt lat="46.339695" lon="6.698322">
        <ele>1508.340</ele>
        <time>2018-07-02T10:42:57Z</time>
      </trkpt>
      <trkpt lat="46.339645" lon="6.698302">
        <ele>1507.085</ele>
        <time>2018-07-02T10:43:02Z</time>
      </trkpt>
      <trkpt lat="46.339594" lon="6.698306">
        <ele>1506.266</ele>
        <time>2018-07-02T10:43:08Z</time>
      </trkpt>
      <trkpt lat="46.339553" lon="6.698348">
        <ele>1506.329</ele>
        <time>2018-07-02T10:43:13Z</time>
      </trkpt>
      <trkpt lat="46.339518" lon="6.698400">
        <ele>1507.021</ele>
        <time>2018-07-02T10:43:18Z</time>
      </trkpt>
      <trkpt lat="46.339460" lon="6.698445">
        <ele>1507.108</ele>
        <time>2018-07-02T10:43:27Z</time>
      </trkpt>
      <trkpt lat="46.339419" lon="6.698486">
        <ele>1507.758</ele>
        <time>2018-07-02T10:43:33Z</time>
      </trkpt>
      <trkpt lat="46.339377" lon="6.698525">
        <ele>1508.474</ele>
        <time>2018-07-02T10:43:40Z</time>
      </trkpt>
      <trkpt lat="46.339318" lon="6.698554">
        <ele>1508.766</ele>
        <time>2018-07-02T10:43:44Z</time>
      </trkpt>
      <trkpt lat="46.339271" lon="6.698572">
        <ele>1508.972</ele>
        <time>2018-07-02T10:43:49Z</time>
      </trkpt>
      <trkpt lat="46.339234" lon="6.698613">
        <ele>1509.534</ele>
        <time>2018-07-02T10:43:56Z</time>
      </trkpt>
      <trkpt lat="46.339177" lon="6.698677">
        <ele>1511.271</ele>
        <time>2018-07-02T10:44:05Z</time>
      </trkpt>
      <trkpt lat="46.339132" lon="6.698690">
        <ele>1511.097</ele>
        <time>2018-07-02T10:44:14Z</time>
      </trkpt>
      <trkpt lat="46.339075" lon="6.698681">
        <ele>1509.972</ele>
        <time>2018-07-02T10:44:23Z</time>
      </trkpt>
      <trkpt lat="46.339038" lon="6.698723">
        <ele>1510.954</ele>
        <time>2018-07-02T10:44:34Z</time>
      </trkpt>
      <trkpt lat="46.338944" lon="6.698764">
        <ele>1511.356</ele>
        <time>2018-07-02T10:44:58Z</time>
      </trkpt>
      <trkpt lat="46.338898" lon="6.698779">
        <ele>1511.411</ele>
        <time>2018-07-02T10:45:12Z</time>
      </trkpt>
      <trkpt lat="46.338871" lon="6.698836">
        <ele>1513.108</ele>
        <time>2018-07-02T10:45:17Z</time>
      </trkpt>
      <trkpt lat="46.338846" lon="6.698893">
        <ele>1514.857</ele>
        <time>2018-07-02T10:45:22Z</time>
      </trkpt>
      <trkpt lat="46.338797" lon="6.698956">
        <ele>1516.673</ele>
        <time>2018-07-02T10:45:42Z</time>
      </trkpt>
      <trkpt lat="46.338778" lon="6.699047">
        <ele>1520.925</ele>
        <time>2018-07-02T10:45:45Z</time>
      </trkpt>
      <trkpt lat="46.338763" lon="6.699112">
        <ele>1524.081</ele>
        <time>2018-07-02T10:45:48Z</time>
      </trkpt>
      <trkpt lat="46.338724" lon="6.699155">
        <ele>1525.073</ele>
        <time>2018-07-02T10:45:57Z</time>
      </trkpt>
      <trkpt lat="46.338682" lon="6.699201">
        <ele>1526.040</ele>
        <time>2018-07-02T10:46:26Z</time>
      </trkpt>
      <trkpt lat="46.338639" lon="6.699259">
        <ele>1527.446</ele>
        <time>2018-07-02T10:46:38Z</time>
      </trkpt>
      <trkpt lat="46.338605" lon="6.699325">
        <ele>1529.281</ele>
        <time>2018-07-02T10:46:44Z</time>
      </trkpt>
      <trkpt lat="46.338573" lon="6.699401">
        <ele>1531.844</ele>
        <time>2018-07-02T10:46:47Z</time>
      </trkpt>
      <trkpt lat="46.338551" lon="6.699471">
        <ele>1534.305</ele>
        <time>2018-07-02T10:46:50Z</time>
      </trkpt>
      <trkpt lat="46.338513" lon="6.699513">
        <ele>1535.015</ele>
        <time>2018-07-02T10:47:34Z</time>
      </trkpt>
      <trkpt lat="46.338487" lon="6.699629">
        <ele>1539.608</ele>
        <time>2018-07-02T10:47:44Z</time>
      </trkpt>
      <trkpt lat="46.338430" lon="6.699664">
        <ele>1539.476</ele>
        <time>2018-07-02T10:48:04Z</time>
      </trkpt>
      <trkpt lat="46.338374" lon="6.699683">
        <ele>1538.512</ele>
        <time>2018-07-02T10:48:10Z</time>
      </trkpt>
      <trkpt lat="46.338304" lon="6.699748">
        <ele>1539.944</ele>
        <time>2018-07-02T10:48:25Z</time>
      </trkpt>
      <trkpt lat="46.338286" lon="6.699814">
        <ele>1543.020</ele>
        <time>2018-07-02T10:48:30Z</time>
      </trkpt>
      <trkpt lat="46.338255" lon="6.699911">
        <ele>1547.632</ele>
        <time>2018-07-02T10:49:18Z</time>
      </trkpt>
      <trkpt lat="46.338207" lon="6.699993">
        <ele>1551.349</ele>
        <time>2018-07-02T10:49:22Z</time>
      </trkpt>
      <trkpt lat="46.338159" lon="6.700027">
        <ele>1552.615</ele>
        <time>2018-07-02T10:49:26Z</time>
      </trkpt>
      <trkpt lat="46.338119" lon="6.700064">
        <ele>1554.190</ele>
        <time>2018-07-02T10:49:30Z</time>
      </trkpt>
      <trkpt lat="46.338043" lon="6.700136">
        <ele>1556.711</ele>
        <time>2018-07-02T10:50:13Z</time>
      </trkpt>
      <trkpt lat="46.338006" lon="6.700094">
        <ele>1554.321</ele>
        <time>2018-07-02T10:50:25Z</time>
      </trkpt>
      <trkpt lat="46.337963" lon="6.700113">
        <ele>1554.903</ele>
        <time>2018-07-02T10:51:21Z</time>
      </trkpt>
      <trkpt lat="46.337937" lon="6.700170">
        <ele>1557.508</ele>
        <time>2018-07-02T10:51:30Z</time>
      </trkpt>
      <trkpt lat="46.338032" lon="6.700330">
        <ele>1566.493</ele>
        <time>2018-07-02T10:52:19Z</time>
      </trkpt>
      <trkpt lat="46.338078" lon="6.700338">
        <ele>1567.539</ele>
        <time>2018-07-02T10:52:27Z</time>
      </trkpt>
      <trkpt lat="46.338074" lon="6.700518">
        <ele>1576.651</ele>
        <time>2018-07-02T11:02:44Z</time>
      </trkpt>
      <trkpt lat="46.338128" lon="6.700479">
        <ele>1575.947</ele>
        <time>2018-07-02T11:03:05Z</time>
      </trkpt>
      <trkpt lat="46.338160" lon="6.700542">
        <ele>1579.939</ele>
        <time>2018-07-02T11:03:24Z</time>
      </trkpt>
      <trkpt lat="46.338208" lon="6.700550">
        <ele>1581.696</ele>
        <time>2018-07-02T11:03:29Z</time>
      </trkpt>
      <trkpt lat="46.338281" lon="6.700541">
        <ele>1582.922</ele>
        <time>2018-07-02T11:03:44Z</time>
      </trkpt>
      <trkpt lat="46.338339" lon="6.700542">
        <ele>1584.397</ele>
        <time>2018-07-02T11:03:58Z</time>
      </trkpt>
      <trkpt lat="46.338384" lon="6.700539">
        <ele>1584.123</ele>
        <time>2018-07-02T11:04:03Z</time>
      </trkpt>
      <trkpt lat="46.338436" lon="6.700552">
        <ele>1584.883</ele>
        <time>2018-07-02T11:04:15Z</time>
      </trkpt>
      <trkpt lat="46.338466" lon="6.700498">
        <ele>1582.111</ele>
        <time>2018-07-02T11:04:31Z</time>
      </trkpt>
      <trkpt lat="46.338538" lon="6.700519">
        <ele>1583.208</ele>
        <time>2018-07-02T11:04:46Z</time>
      </trkpt>
      <trkpt lat="46.338582" lon="6.700566">
        <ele>1585.514</ele>
        <time>2018-07-02T11:04:54Z</time>
      </trkpt>
      <trkpt lat="46.338631" lon="6.700502">
        <ele>1583.040</ele>
        <time>2018-07-02T11:05:06Z</time>
      </trkpt>
      <trkpt lat="46.338675" lon="6.700461">
        <ele>1582.262</ele>
        <time>2018-07-02T11:05:13Z</time>
      </trkpt>
      <trkpt lat="46.338729" lon="6.700385">
        <ele>1580.378</ele>
        <time>2018-07-02T11:05:36Z</time>
      </trkpt>
      <trkpt lat="46.338787" lon="6.700361">
        <ele>1581.050</ele>
        <time>2018-07-02T11:06:00Z</time>
      </trkpt>
      <trkpt lat="46.338733" lon="6.700390">
        <ele>1580.737</ele>
        <time>2018-07-02T11:06:05Z</time>
      </trkpt>
      <trkpt lat="46.338683" lon="6.700440">
        <ele>1581.543</ele>
        <time>2018-07-02T11:06:18Z</time>
      </trkpt>
      <trkpt lat="46.338630" lon="6.700482">
        <ele>1582.018</ele>
        <time>2018-07-02T11:06:30Z</time>
      </trkpt>
      <trkpt lat="46.338669" lon="6.700531">
        <ele>1585.234</ele>
        <time>2018-07-02T11:06:55Z</time>
      </trkpt>
      <trkpt lat="46.338713" lon="6.700550">
        <ele>1587.055</ele>
        <time>2018-07-02T11:07:09Z</time>
      </trkpt>
      <trkpt lat="46.338706" lon="6.700625">
        <ele>1590.110</ele>
        <time>2018-07-02T11:07:25Z</time>
      </trkpt>
      <trkpt lat="46.338751" lon="6.700685">
        <ele>1593.608</ele>
        <time>2018-07-02T11:07:42Z</time>
      </trkpt>
      <trkpt lat="46.338794" lon="6.700713">
        <ele>1595.695</ele>
        <time>2018-07-02T11:08:06Z</time>
      </trkpt>
      <trkpt lat="46.338799" lon="6.700779">
        <ele>1598.461</ele>
        <time>2018-07-02T11:08:54Z</time>
      </trkpt>
      <trkpt lat="46.338777" lon="6.700837">
        <ele>1600.573</ele>
        <time>2018-07-02T11:09:00Z</time>
      </trkpt>
      <trkpt lat="46.338737" lon="6.700868">
        <ele>1601.079</ele>
        <time>2018-07-02T11:09:06Z</time>
      </trkpt>
      <trkpt lat="46.338689" lon="6.700889">
        <ele>1601.331</ele>
        <time>2018-07-02T11:09:11Z</time>
      </trkpt>
      <trkpt lat="46.338657" lon="6.700954">
        <ele>1603.898</ele>
        <time>2018-07-02T11:09:16Z</time>
      </trkpt>
      <trkpt lat="46.338616" lon="6.701002">
        <ele>1605.974</ele>
        <time>2018-07-02T11:09:20Z</time>
      </trkpt>
      <trkpt lat="46.338569" lon="6.701027">
        <ele>1607.499</ele>
        <time>2018-07-02T11:09:25Z</time>
      </trkpt>
      <trkpt lat="46.338517" lon="6.701052">
        <ele>1609.166</ele>
        <time>2018-07-02T11:09:38Z</time>
      </trkpt>
      <trkpt lat="46.338469" lon="6.701072">
        <ele>1610.629</ele>
        <time>2018-07-02T11:09:48Z</time>
      </trkpt>
      <trkpt lat="46.338435" lon="6.701115">
        <ele>1613.021</ele>
        <time>2018-07-02T11:09:59Z</time>
      </trkpt>
      <trkpt lat="46.338389" lon="6.701097">
        <ele>1612.708</ele>
        <time>2018-07-02T11:10:12Z</time>
      </trkpt>
      <trkpt lat="46.338341" lon="6.701113">
        <ele>1614.058</ele>
        <time>2018-07-02T11:10:41Z</time>
      </trkpt>
      <trkpt lat="46.338285" lon="6.701127">
        <ele>1613.634</ele>
        <time>2018-07-02T11:10:55Z</time>
      </trkpt>
      <trkpt lat="46.338245" lon="6.701171">
        <ele>1614.666</ele>
        <time>2018-07-02T11:11:05Z</time>
      </trkpt>
      <trkpt lat="46.338195" lon="6.701172">
        <ele>1614.112</ele>
        <time>2018-07-02T11:11:17Z</time>
      </trkpt>
      <trkpt lat="46.338144" lon="6.701189">
        <ele>1614.524</ele>
        <time>2018-07-02T11:11:26Z</time>
      </trkpt>
      <trkpt lat="46.338107" lon="6.701233">
        <ele>1616.651</ele>
        <time>2018-07-02T11:11:36Z</time>
      </trkpt>
      <trkpt lat="46.338062" lon="6.701250">
        <ele>1617.557</ele>
        <time>2018-07-02T11:12:01Z</time>
      </trkpt>
      <trkpt lat="46.338017" lon="6.701271">
        <ele>1618.892</ele>
        <time>2018-07-02T11:12:11Z</time>
      </trkpt>
      <trkpt lat="46.337979" lon="6.701306">
        <ele>1621.127</ele>
        <time>2018-07-02T11:12:24Z</time>
      </trkpt>
      <trkpt lat="46.337937" lon="6.701345">
        <ele>1623.868</ele>
        <time>2018-07-02T11:13:30Z</time>
      </trkpt>
      <trkpt lat="46.337891" lon="6.701363">
        <ele>1625.314</ele>
        <time>2018-07-02T11:13:39Z</time>
      </trkpt>
      <trkpt lat="46.337859" lon="6.701409">
        <ele>1628.408</ele>
        <time>2018-07-02T11:14:01Z</time>
      </trkpt>
      <trkpt lat="46.337819" lon="6.701444">
        <ele>1630.764</ele>
        <time>2018-07-02T11:14:11Z</time>
      </trkpt>
      <trkpt lat="46.337772" lon="6.701457">
        <ele>1632.270</ele>
        <time>2018-07-02T11:14:26Z</time>
      </trkpt>
      <trkpt lat="46.337707" lon="6.701460">
        <ele>1633.272</ele>
        <time>2018-07-02T11:14:56Z</time>
      </trkpt>
      <trkpt lat="46.337661" lon="6.701486">
        <ele>1635.588</ele>
        <time>2018-07-02T11:15:44Z</time>
      </trkpt>
      <trkpt lat="46.337618" lon="6.701521">
        <ele>1638.660</ele>
        <time>2018-07-02T11:16:04Z</time>
      </trkpt>
      <trkpt lat="46.337593" lon="6.701582">
        <ele>1643.557</ele>
        <time>2018-07-02T11:16:22Z</time>
      </trkpt>
      <trkpt lat="46.337625" lon="6.701640">
        <ele>1647.083</ele>
        <time>2018-07-02T11:17:07Z</time>
      </trkpt>
      <trkpt lat="46.337593" lon="6.701689">
        <ele>1650.848</ele>
        <time>2018-07-02T11:27:16Z</time>
      </trkpt>
      <trkpt lat="46.337605" lon="6.701752">
        <ele>1653.738</ele>
        <time>2018-07-02T11:27:24Z</time>
      </trkpt>
      <trkpt lat="46.337609" lon="6.701842">
        <ele>1658.170</ele>
        <time>2018-07-02T11:29:19Z</time>
      </trkpt>
      <trkpt lat="46.337575" lon="6.701887">
        <ele>1662.217</ele>
        <time>2018-07-02T11:29:31Z</time>
      </trkpt>
      <trkpt lat="46.337547" lon="6.701831">
        <ele>1660.508</ele>
        <time>2018-07-02T11:30:23Z</time>
      </trkpt>
      <trkpt lat="46.337500" lon="6.701853">
        <ele>1664.115</ele>
        <time>2018-07-02T11:31:01Z</time>
      </trkpt>
      <trkpt lat="46.337455" lon="6.701826">
        <ele>1664.291</ele>
        <time>2018-07-02T11:31:14Z</time>
      </trkpt>
      <trkpt lat="46.337404" lon="6.701841">
        <ele>1667.383</ele>
        <time>2018-07-02T11:31:49Z</time>
      </trkpt>
      <trkpt lat="46.337353" lon="6.701855">
        <ele>1670.489</ele>
        <time>2018-07-02T11:32:03Z</time>
      </trkpt>
      <trkpt lat="46.337308" lon="6.701889">
        <ele>1674.831</ele>
        <time>2018-07-02T11:32:22Z</time>
      </trkpt>
      <trkpt lat="46.337266" lon="6.701918">
        <ele>1678.988</ele>
        <time>2018-07-02T11:32:35Z</time>
      </trkpt>
      <trkpt lat="46.337223" lon="6.701900">
        <ele>1679.434</ele>
        <time>2018-07-02T11:33:00Z</time>
      </trkpt>
      <trkpt lat="46.337179" lon="6.701915">
        <ele>1682.159</ele>
        <time>2018-07-02T11:33:28Z</time>
      </trkpt>
      <trkpt lat="46.337116" lon="6.701951">
        <ele>1686.785</ele>
        <time>2018-07-02T11:33:54Z</time>
      </trkpt>
      <trkpt lat="46.337069" lon="6.701965">
        <ele>1688.789</ele>
        <time>2018-07-02T11:34:17Z</time>
      </trkpt>
      <trkpt lat="46.337031" lon="6.702001">
        <ele>1691.517</ele>
        <time>2018-07-02T11:34:31Z</time>
      </trkpt>
      <trkpt lat="46.337000" lon="6.702052">
        <ele>1694.808</ele>
        <time>2018-07-02T11:35:17Z</time>
      </trkpt>
      <trkpt lat="46.336959" lon="6.702083">
        <ele>1697.970</ele>
        <time>2018-07-02T11:35:39Z</time>
      </trkpt>
      <trkpt lat="46.336908" lon="6.702119">
        <ele>1700.966</ele>
        <time>2018-07-02T11:36:26Z</time>
      </trkpt>
      <trkpt lat="46.336866" lon="6.702119">
        <ele>1701.878</ele>
        <time>2018-07-02T11:42:22Z</time>
      </trkpt>
      <trkpt lat="46.336866" lon="6.702119">
        <ele>1701.864</ele>
        <time>2018-07-02T11:42:23Z</time>
      </trkpt>
      <trkpt lat="46.336843" lon="6.702120">
        <ele>1702.496</ele>
        <time>2018-07-02T11:44:12Z</time>
      </trkpt>
      <trkpt lat="46.336799" lon="6.702138">
        <ele>1704.253</ele>
        <time>2018-07-02T11:44:50Z</time>
      </trkpt>
      <trkpt lat="46.336752" lon="6.702186">
        <ele>1707.929</ele>
        <time>2018-07-02T11:45:22Z</time>
      </trkpt>
      <trkpt lat="46.336709" lon="6.702210">
        <ele>1710.274</ele>
        <time>2018-07-02T11:45:33Z</time>
      </trkpt>
      <trkpt lat="46.336669" lon="6.702245">
        <ele>1713.148</ele>
        <time>2018-07-02T11:45:52Z</time>
      </trkpt>
      <trkpt lat="46.336625" lon="6.702264">
        <ele>1714.261</ele>
        <time>2018-07-02T11:46:35Z</time>
      </trkpt>
      <trkpt lat="46.336590" lon="6.702312">
        <ele>1717.117</ele>
        <time>2018-07-02T11:47:11Z</time>
      </trkpt>
      <trkpt lat="46.336545" lon="6.702325">
        <ele>1718.208</ele>
        <time>2018-07-02T11:47:18Z</time>
      </trkpt>
      <trkpt lat="46.336497" lon="6.702352">
        <ele>1720.396</ele>
        <time>2018-07-02T11:47:34Z</time>
      </trkpt>
      <trkpt lat="46.336493" lon="6.702419">
        <ele>1724.642</ele>
        <time>2018-07-02T11:48:19Z</time>
      </trkpt>
      <trkpt lat="46.336532" lon="6.702462">
        <ele>1726.674</ele>
        <time>2018-07-02T11:48:31Z</time>
      </trkpt>
      <trkpt lat="46.336570" lon="6.702506">
        <ele>1728.430</ele>
        <time>2018-07-02T11:48:45Z</time>
      </trkpt>
      <trkpt lat="46.336593" lon="6.702564">
        <ele>1730.492</ele>
        <time>2018-07-02T11:48:54Z</time>
      </trkpt>
      <trkpt lat="46.336614" lon="6.702625">
        <ele>1732.429</ele>
        <time>2018-07-02T11:49:07Z</time>
      </trkpt>
      <trkpt lat="46.336611" lon="6.702691">
        <ele>1735.395</ele>
        <time>2018-07-02T11:49:20Z</time>
      </trkpt>
      <trkpt lat="46.336567" lon="6.702726">
        <ele>1738.330</ele>
        <time>2018-07-02T11:49:36Z</time>
      </trkpt>
      <trkpt lat="46.336521" lon="6.702754">
        <ele>1741.186</ele>
        <time>2018-07-02T11:50:09Z</time>
      </trkpt>
      <trkpt lat="46.336478" lon="6.702730">
        <ele>1741.460</ele>
        <time>2018-07-02T11:50:18Z</time>
      </trkpt>
      <trkpt lat="46.336430" lon="6.702725">
        <ele>1742.826</ele>
        <time>2018-07-02T11:50:27Z</time>
      </trkpt>
      <trkpt lat="46.336382" lon="6.702714">
        <ele>1743.708</ele>
        <time>2018-07-02T11:50:39Z</time>
      </trkpt>
      <trkpt lat="46.336338" lon="6.702690">
        <ele>1743.480</ele>
        <time>2018-07-02T11:51:03Z</time>
      </trkpt>
      <trkpt lat="46.336291" lon="6.702688">
        <ele>1744.496</ele>
        <time>2018-07-02T11:51:21Z</time>
      </trkpt>
      <trkpt lat="46.336243" lon="6.702692">
        <ele>1745.868</ele>
        <time>2018-07-02T11:51:42Z</time>
      </trkpt>
      <trkpt lat="46.336186" lon="6.702699">
        <ele>1747.614</ele>
        <time>2018-07-02T11:52:10Z</time>
      </trkpt>
      <trkpt lat="46.336139" lon="6.702696">
        <ele>1748.576</ele>
        <time>2018-07-02T11:52:17Z</time>
      </trkpt>
      <trkpt lat="46.336092" lon="6.702703">
        <ele>1750.023</ele>
        <time>2018-07-02T11:52:26Z</time>
      </trkpt>
      <trkpt lat="46.336046" lon="6.702703">
        <ele>1751.059</ele>
        <time>2018-07-02T11:52:39Z</time>
      </trkpt>
      <trkpt lat="46.335997" lon="6.702723">
        <ele>1753.414</ele>
        <time>2018-07-02T11:52:58Z</time>
      </trkpt>
      <trkpt lat="46.335952" lon="6.702712">
        <ele>1753.578</ele>
        <time>2018-07-02T11:53:06Z</time>
      </trkpt>
      <trkpt lat="46.335904" lon="6.702698">
        <ele>1753.633</ele>
        <time>2018-07-02T11:53:13Z</time>
      </trkpt>
      <trkpt lat="46.335856" lon="6.702708">
        <ele>1755.326</ele>
        <time>2018-07-02T11:53:23Z</time>
      </trkpt>
      <trkpt lat="46.335807" lon="6.702702">
        <ele>1755.108</ele>
        <time>2018-07-02T11:53:40Z</time>
      </trkpt>
      <trkpt lat="46.335759" lon="6.702721">
        <ele>1755.749</ele>
        <time>2018-07-02T11:53:50Z</time>
      </trkpt>
      <trkpt lat="46.335711" lon="6.702710">
        <ele>1754.445</ele>
        <time>2018-07-02T11:53:59Z</time>
      </trkpt>
      <trkpt lat="46.335667" lon="6.702734">
        <ele>1755.417</ele>
        <time>2018-07-02T11:54:14Z</time>
      </trkpt>
      <trkpt lat="46.335621" lon="6.702750">
        <ele>1755.943</ele>
        <time>2018-07-02T11:54:46Z</time>
      </trkpt>
      <trkpt lat="46.335576" lon="6.702765">
        <ele>1756.475</ele>
        <time>2018-07-02T11:54:55Z</time>
      </trkpt>
      <trkpt lat="46.335528" lon="6.702792">
        <ele>1756.922</ele>
        <time>2018-07-02T11:55:03Z</time>
      </trkpt>
      <trkpt lat="46.335567" lon="6.702830">
        <ele>1758.588</ele>
        <time>2018-07-02T11:57:03Z</time>
      </trkpt>
      <trkpt lat="46.335615" lon="6.702848">
        <ele>1759.583</ele>
        <time>2018-07-02T11:57:09Z</time>
      </trkpt>
      <trkpt lat="46.335664" lon="6.702861">
        <ele>1760.513</ele>
        <time>2018-07-02T11:57:21Z</time>
      </trkpt>
      <trkpt lat="46.335716" lon="6.702864">
        <ele>1761.343</ele>
        <time>2018-07-02T11:57:27Z</time>
      </trkpt>
      <trkpt lat="46.335764" lon="6.702894">
        <ele>1762.807</ele>
        <time>2018-07-02T11:57:32Z</time>
      </trkpt>
      <trkpt lat="46.335812" lon="6.702928">
        <ele>1764.608</ele>
        <time>2018-07-02T11:57:37Z</time>
      </trkpt>
      <trkpt lat="46.335860" lon="6.702959">
        <ele>1765.563</ele>
        <time>2018-07-02T11:57:43Z</time>
      </trkpt>
      <trkpt lat="46.335897" lon="6.703001">
        <ele>1766.579</ele>
        <time>2018-07-02T11:57:55Z</time>
      </trkpt>
      <trkpt lat="46.335931" lon="6.703046">
        <ele>1767.611</ele>
        <time>2018-07-02T11:58:01Z</time>
      </trkpt>
      <trkpt lat="46.335972" lon="6.703096">
        <ele>1767.317</ele>
        <time>2018-07-02T11:58:10Z</time>
      </trkpt>
      <trkpt lat="46.335995" lon="6.703153">
        <ele>1767.099</ele>
        <time>2018-07-02T11:58:15Z</time>
      </trkpt>
      <trkpt lat="46.336023" lon="6.703205">
        <ele>1767.056</ele>
        <time>2018-07-02T11:58:20Z</time>
      </trkpt>
      <trkpt lat="46.336045" lon="6.703266">
        <ele>1767.422</ele>
        <time>2018-07-02T11:58:25Z</time>
      </trkpt>
      <trkpt lat="46.336059" lon="6.703339">
        <ele>1767.887</ele>
        <time>2018-07-02T11:58:30Z</time>
      </trkpt>
      <trkpt lat="46.336068" lon="6.703418">
        <ele>1766.695</ele>
        <time>2018-07-02T11:58:35Z</time>
      </trkpt>
      <trkpt lat="46.336080" lon="6.703489">
        <ele>1765.749</ele>
        <time>2018-07-02T11:58:40Z</time>
      </trkpt>
      <trkpt lat="46.336096" lon="6.703561">
        <ele>1765.123</ele>
        <time>2018-07-02T11:58:45Z</time>
      </trkpt>
      <trkpt lat="46.336120" lon="6.703633">
        <ele>1764.508</ele>
        <time>2018-07-02T11:58:50Z</time>
      </trkpt>
      <trkpt lat="46.336143" lon="6.703692">
        <ele>1763.371</ele>
        <time>2018-07-02T11:58:54Z</time>
      </trkpt>
      <trkpt lat="46.336160" lon="6.703765">
        <ele>1762.177</ele>
        <time>2018-07-02T11:58:59Z</time>
      </trkpt>
      <trkpt lat="46.336174" lon="6.703834">
        <ele>1761.269</ele>
        <time>2018-07-02T11:59:04Z</time>
      </trkpt>
      <trkpt lat="46.336194" lon="6.703904">
        <ele>1760.645</ele>
        <time>2018-07-02T11:59:09Z</time>
      </trkpt>
      <trkpt lat="46.336220" lon="6.703961">
        <ele>1760.797</ele>
        <time>2018-07-02T11:59:14Z</time>
      </trkpt>
      <trkpt lat="46.336254" lon="6.704005">
        <ele>1761.364</ele>
        <time>2018-07-02T11:59:21Z</time>
      </trkpt>
      <trkpt lat="46.336287" lon="6.704058">
        <ele>1762.150</ele>
        <time>2018-07-02T11:59:27Z</time>
      </trkpt>
      <trkpt lat="46.336308" lon="6.704121">
        <ele>1762.645</ele>
        <time>2018-07-02T11:59:32Z</time>
      </trkpt>
      <trkpt lat="46.336326" lon="6.704190">
        <ele>1763.125</ele>
        <time>2018-07-02T11:59:37Z</time>
      </trkpt>
      <trkpt lat="46.336343" lon="6.704256">
        <ele>1763.526</ele>
        <time>2018-07-02T11:59:42Z</time>
      </trkpt>
      <trkpt lat="46.336361" lon="6.704321">
        <ele>1764.108</ele>
        <time>2018-07-02T11:59:47Z</time>
      </trkpt>
      <trkpt lat="46.336396" lon="6.704373">
        <ele>1765.008</ele>
        <time>2018-07-02T12:00:05Z</time>
      </trkpt>
      <trkpt lat="46.336400" lon="6.704439">
        <ele>1764.744</ele>
        <time>2018-07-02T12:00:45Z</time>
      </trkpt>
      <trkpt lat="46.336405" lon="6.704510">
        <ele>1763.910</ele>
        <time>2018-07-02T12:00:54Z</time>
      </trkpt>
      <trkpt lat="46.336425" lon="6.704576">
        <ele>1763.092</ele>
        <time>2018-07-02T12:01:00Z</time>
      </trkpt>
      <trkpt lat="46.336448" lon="6.704643">
        <ele>1762.498</ele>
        <time>2018-07-02T12:01:06Z</time>
      </trkpt>
      <trkpt lat="46.336479" lon="6.704714">
        <ele>1762.040</ele>
        <time>2018-07-02T12:01:17Z</time>
      </trkpt>
      <trkpt lat="46.336502" lon="6.704770">
        <ele>1762.157</ele>
        <time>2018-07-02T12:01:38Z</time>
      </trkpt>
      <trkpt lat="46.336526" lon="6.704828">
        <ele>1762.493</ele>
        <time>2018-07-02T12:01:43Z</time>
      </trkpt>
      <trkpt lat="46.336559" lon="6.704890">
        <ele>1763.088</ele>
        <time>2018-07-02T12:01:48Z</time>
      </trkpt>
      <trkpt lat="46.336587" lon="6.704941">
        <ele>1763.894</ele>
        <time>2018-07-02T12:01:53Z</time>
      </trkpt>
      <trkpt lat="46.336613" lon="6.704995">
        <ele>1764.857</ele>
        <time>2018-07-02T12:01:58Z</time>
      </trkpt>
      <trkpt lat="46.336643" lon="6.705060">
        <ele>1765.622</ele>
        <time>2018-07-02T12:02:03Z</time>
      </trkpt>
      <trkpt lat="46.336668" lon="6.705121">
        <ele>1766.408</ele>
        <time>2018-07-02T12:02:07Z</time>
      </trkpt>
      <trkpt lat="46.336688" lon="6.705181">
        <ele>1765.751</ele>
        <time>2018-07-02T12:02:11Z</time>
      </trkpt>
      <trkpt lat="46.336715" lon="6.705247">
        <ele>1765.257</ele>
        <time>2018-07-02T12:02:16Z</time>
      </trkpt>
      <trkpt lat="46.336739" lon="6.705311">
        <ele>1764.699</ele>
        <time>2018-07-02T12:02:21Z</time>
      </trkpt>
      <trkpt lat="46.336759" lon="6.705379">
        <ele>1764.045</ele>
        <time>2018-07-02T12:02:26Z</time>
      </trkpt>
      <trkpt lat="46.336767" lon="6.705449">
        <ele>1763.937</ele>
        <time>2018-07-02T12:02:31Z</time>
      </trkpt>
      <trkpt lat="46.336770" lon="6.705521">
        <ele>1764.064</ele>
        <time>2018-07-02T12:02:36Z</time>
      </trkpt>
      <trkpt lat="46.336791" lon="6.705586">
        <ele>1764.090</ele>
        <time>2018-07-02T12:02:41Z</time>
      </trkpt>
      <trkpt lat="46.336822" lon="6.705648">
        <ele>1764.385</ele>
        <time>2018-07-02T12:02:47Z</time>
      </trkpt>
      <trkpt lat="46.336850" lon="6.705704">
        <ele>1764.982</ele>
        <time>2018-07-02T12:02:52Z</time>
      </trkpt>
      <trkpt lat="46.336880" lon="6.705754">
        <ele>1765.743</ele>
        <time>2018-07-02T12:02:57Z</time>
      </trkpt>
      <trkpt lat="46.336907" lon="6.705818">
        <ele>1766.917</ele>
        <time>2018-07-02T12:03:03Z</time>
      </trkpt>
      <trkpt lat="46.336924" lon="6.705883">
        <ele>1767.508</ele>
        <time>2018-07-02T12:03:09Z</time>
      </trkpt>
      <trkpt lat="46.336944" lon="6.705954">
        <ele>1768.050</ele>
        <time>2018-07-02T12:03:15Z</time>
      </trkpt>
      <trkpt lat="46.336961" lon="6.706024">
        <ele>1767.386</ele>
        <time>2018-07-02T12:03:20Z</time>
      </trkpt>
      <trkpt lat="46.336976" lon="6.706094">
        <ele>1766.998</ele>
        <time>2018-07-02T12:03:25Z</time>
      </trkpt>
      <trkpt lat="46.336990" lon="6.706166">
        <ele>1766.284</ele>
        <time>2018-07-02T12:03:30Z</time>
      </trkpt>
      <trkpt lat="46.336988" lon="6.706235">
        <ele>1765.826</ele>
        <time>2018-07-02T12:03:35Z</time>
      </trkpt>
      <trkpt lat="46.336983" lon="6.706305">
        <ele>1765.553</ele>
        <time>2018-07-02T12:03:40Z</time>
      </trkpt>
      <trkpt lat="46.336975" lon="6.706380">
        <ele>1765.299</ele>
        <time>2018-07-02T12:03:46Z</time>
      </trkpt>
      <trkpt lat="46.336973" lon="6.706448">
        <ele>1764.794</ele>
        <time>2018-07-02T12:03:52Z</time>
      </trkpt>
      <trkpt lat="46.336957" lon="6.706516">
        <ele>1764.791</ele>
        <time>2018-07-02T12:05:42Z</time>
      </trkpt>
      <trkpt lat="46.336930" lon="6.706579">
        <ele>1764.181</ele>
        <time>2018-07-02T12:05:48Z</time>
      </trkpt>
      <trkpt lat="46.336907" lon="6.706643">
        <ele>1762.719</ele>
        <time>2018-07-02T12:05:53Z</time>
      </trkpt>
      <trkpt lat="46.336890" lon="6.706705">
        <ele>1761.508</ele>
        <time>2018-07-02T12:05:58Z</time>
      </trkpt>
      <trkpt lat="46.336866" lon="6.706770">
        <ele>1760.011</ele>
        <time>2018-07-02T12:06:03Z</time>
      </trkpt>
      <trkpt lat="46.336848" lon="6.706843">
        <ele>1758.727</ele>
        <time>2018-07-02T12:06:10Z</time>
      </trkpt>
      <trkpt lat="46.336852" lon="6.706924">
        <ele>1758.269</ele>
        <time>2018-07-02T12:06:16Z</time>
      </trkpt>
      <trkpt lat="46.336858" lon="6.706989">
        <ele>1757.925</ele>
        <time>2018-07-02T12:06:20Z</time>
      </trkpt>
      <trkpt lat="46.336857" lon="6.707069">
        <ele>1757.247</ele>
        <time>2018-07-02T12:06:25Z</time>
      </trkpt>
      <trkpt lat="46.336858" lon="6.707136">
        <ele>1756.794</ele>
        <time>2018-07-02T12:06:29Z</time>
      </trkpt>
      <trkpt lat="46.336860" lon="6.707203">
        <ele>1756.250</ele>
        <time>2018-07-02T12:06:33Z</time>
      </trkpt>
      <trkpt lat="46.336864" lon="6.707269">
        <ele>1755.765</ele>
        <time>2018-07-02T12:06:37Z</time>
      </trkpt>
      <trkpt lat="46.336869" lon="6.707341">
        <ele>1755.112</ele>
        <time>2018-07-02T12:06:42Z</time>
      </trkpt>
      <trkpt lat="46.336869" lon="6.707408">
        <ele>1754.332</ele>
        <time>2018-07-02T12:06:47Z</time>
      </trkpt>
      <trkpt lat="46.336875" lon="6.707478">
        <ele>1753.805</ele>
        <time>2018-07-02T12:06:52Z</time>
      </trkpt>
      <trkpt lat="46.336886" lon="6.707545">
        <ele>1753.408</ele>
        <time>2018-07-02T12:06:57Z</time>
      </trkpt>
      <trkpt lat="46.336895" lon="6.707615">
        <ele>1752.893</ele>
        <time>2018-07-02T12:07:02Z</time>
      </trkpt>
      <trkpt lat="46.336901" lon="6.707693">
        <ele>1751.989</ele>
        <time>2018-07-02T12:07:07Z</time>
      </trkpt>
      <trkpt lat="46.336911" lon="6.707768">
        <ele>1751.351</ele>
        <time>2018-07-02T12:07:12Z</time>
      </trkpt>
      <trkpt lat="46.336925" lon="6.707842">
        <ele>1751.017</ele>
        <time>2018-07-02T12:07:17Z</time>
      </trkpt>
      <trkpt lat="46.336937" lon="6.707911">
        <ele>1750.789</ele>
        <time>2018-07-02T12:07:22Z</time>
      </trkpt>
      <trkpt lat="46.336961" lon="6.707979">
        <ele>1749.866</ele>
        <time>2018-07-02T12:07:28Z</time>
      </trkpt>
      <trkpt lat="46.336984" lon="6.708047">
        <ele>1748.592</ele>
        <time>2018-07-02T12:07:34Z</time>
      </trkpt>
      <trkpt lat="46.337005" lon="6.708115">
        <ele>1747.127</ele>
        <time>2018-07-02T12:07:39Z</time>
      </trkpt>
      <trkpt lat="46.337030" lon="6.708170">
        <ele>1746.231</ele>
        <time>2018-07-02T12:07:43Z</time>
      </trkpt>
      <trkpt lat="46.337064" lon="6.708228">
        <ele>1745.661</ele>
        <time>2018-07-02T12:07:48Z</time>
      </trkpt>
      <trkpt lat="46.337099" lon="6.708286">
        <ele>1745.607</ele>
        <time>2018-07-02T12:07:54Z</time>
      </trkpt>
      <trkpt lat="46.337126" lon="6.708341">
        <ele>1745.808</ele>
        <time>2018-07-02T12:07:59Z</time>
      </trkpt>
      <trkpt lat="46.337158" lon="6.708403">
        <ele>1746.165</ele>
        <time>2018-07-02T12:08:05Z</time>
      </trkpt>
      <trkpt lat="46.337192" lon="6.708459">
        <ele>1746.631</ele>
        <time>2018-07-02T12:08:11Z</time>
      </trkpt>
      <trkpt lat="46.337219" lon="6.708521">
        <ele>1747.213</ele>
        <time>2018-07-02T12:08:17Z</time>
      </trkpt>
      <trkpt lat="46.337248" lon="6.708574">
        <ele>1746.899</ele>
        <time>2018-07-02T12:08:23Z</time>
      </trkpt>
      <trkpt lat="46.337280" lon="6.708628">
        <ele>1746.641</ele>
        <time>2018-07-02T12:08:32Z</time>
      </trkpt>
      <trkpt lat="46.337318" lon="6.708674">
        <ele>1746.988</ele>
        <time>2018-07-02T12:08:41Z</time>
      </trkpt>
      <trkpt lat="46.337341" lon="6.708732">
        <ele>1747.724</ele>
        <time>2018-07-02T12:09:14Z</time>
      </trkpt>
      <trkpt lat="46.337375" lon="6.708783">
        <ele>1749.139</ele>
        <time>2018-07-02T12:09:27Z</time>
      </trkpt>
      <trkpt lat="46.337411" lon="6.708824">
        <ele>1750.927</ele>
        <time>2018-07-02T12:09:36Z</time>
      </trkpt>
      <trkpt lat="46.337443" lon="6.708873">
        <ele>1753.368</ele>
        <time>2018-07-02T12:09:47Z</time>
      </trkpt>
      <trkpt lat="46.337483" lon="6.708914">
        <ele>1755.414</ele>
        <time>2018-07-02T12:10:04Z</time>
      </trkpt>
      <trkpt lat="46.337505" lon="6.708974">
        <ele>1756.208</ele>
        <time>2018-07-02T12:10:14Z</time>
      </trkpt>
      <trkpt lat="46.337531" lon="6.709033">
        <ele>1756.244</ele>
        <time>2018-07-02T12:10:23Z</time>
      </trkpt>
      <trkpt lat="46.337547" lon="6.709102">
        <ele>1756.820</ele>
        <time>2018-07-02T12:10:31Z</time>
      </trkpt>
      <trkpt lat="46.337578" lon="6.709155">
        <ele>1757.712</ele>
        <time>2018-07-02T12:10:38Z</time>
      </trkpt>
      <trkpt lat="46.337612" lon="6.709205">
        <ele>1758.348</ele>
        <time>2018-07-02T12:10:45Z</time>
      </trkpt>
      <trkpt lat="46.337647" lon="6.709254">
        <ele>1759.180</ele>
        <time>2018-07-02T12:10:53Z</time>
      </trkpt>
      <trkpt lat="46.337677" lon="6.709308">
        <ele>1760.327</ele>
        <time>2018-07-02T12:11:02Z</time>
      </trkpt>
      <trkpt lat="46.337708" lon="6.709366">
        <ele>1761.933</ele>
        <time>2018-07-02T12:11:11Z</time>
      </trkpt>
      <trkpt lat="46.337747" lon="6.709404">
        <ele>1763.998</ele>
        <time>2018-07-02T12:11:18Z</time>
      </trkpt>
      <trkpt lat="46.337790" lon="6.709382">
        <ele>1764.539</ele>
        <time>2018-07-02T12:11:22Z</time>
      </trkpt>
      <trkpt lat="46.337787" lon="6.709366">
        <ele>1764.201</ele>
        <time>2018-07-02T12:20:49Z</time>
      </trkpt>
      <trkpt lat="46.337787" lon="6.709438">
        <ele>1765.821</ele>
        <time>2018-07-02T12:21:01Z</time>
      </trkpt>
      <trkpt lat="46.337776" lon="6.709511">
        <ele>1765.708</ele>
        <time>2018-07-02T12:21:06Z</time>
      </trkpt>
      <trkpt lat="46.337760" lon="6.709580">
        <ele>1764.715</ele>
        <time>2018-07-02T12:21:11Z</time>
      </trkpt>
      <trkpt lat="46.337739" lon="6.709658">
        <ele>1763.441</ele>
        <time>2018-07-02T12:21:16Z</time>
      </trkpt>
      <trkpt lat="46.337711" lon="6.709714">
        <ele>1761.963</ele>
        <time>2018-07-02T12:21:22Z</time>
      </trkpt>
      <trkpt lat="46.337698" lon="6.709777">
        <ele>1760.789</ele>
        <time>2018-07-02T12:21:29Z</time>
      </trkpt>
      <trkpt lat="46.337677" lon="6.709845">
        <ele>1759.111</ele>
        <time>2018-07-02T12:21:36Z</time>
      </trkpt>
      <trkpt lat="46.337662" lon="6.709911">
        <ele>1757.888</ele>
        <time>2018-07-02T12:21:42Z</time>
      </trkpt>
      <trkpt lat="46.337645" lon="6.709977">
        <ele>1756.554</ele>
        <time>2018-07-02T12:21:48Z</time>
      </trkpt>
      <trkpt lat="46.337629" lon="6.710046">
        <ele>1755.279</ele>
        <time>2018-07-02T12:21:54Z</time>
      </trkpt>
      <trkpt lat="46.337614" lon="6.710119">
        <ele>1753.942</ele>
        <time>2018-07-02T12:22:00Z</time>
      </trkpt>
      <trkpt lat="46.337594" lon="6.710187">
        <ele>1752.522</ele>
        <time>2018-07-02T12:22:06Z</time>
      </trkpt>
      <trkpt lat="46.337575" lon="6.710255">
        <ele>1751.214</ele>
        <time>2018-07-02T12:22:12Z</time>
      </trkpt>
      <trkpt lat="46.337556" lon="6.710318">
        <ele>1750.108</ele>
        <time>2018-07-02T12:22:19Z</time>
      </trkpt>
      <trkpt lat="46.337531" lon="6.710383">
        <ele>1749.186</ele>
        <time>2018-07-02T12:22:26Z</time>
      </trkpt>
      <trkpt lat="46.337513" lon="6.710454">
        <ele>1748.412</ele>
        <time>2018-07-02T12:22:32Z</time>
      </trkpt>
      <trkpt lat="46.337496" lon="6.710520">
        <ele>1747.834</ele>
        <time>2018-07-02T12:22:37Z</time>
      </trkpt>
      <trkpt lat="46.337476" lon="6.710593">
        <ele>1747.270</ele>
        <time>2018-07-02T12:22:42Z</time>
      </trkpt>
      <trkpt lat="46.337460" lon="6.710664">
        <ele>1747.092</ele>
        <time>2018-07-02T12:22:47Z</time>
      </trkpt>
      <trkpt lat="46.337456" lon="6.710732">
        <ele>1747.419</ele>
        <time>2018-07-02T12:22:51Z</time>
      </trkpt>
      <trkpt lat="46.337460" lon="6.710806">
        <ele>1748.365</ele>
        <time>2018-07-02T12:22:56Z</time>
      </trkpt>
      <trkpt lat="46.337475" lon="6.710873">
        <ele>1749.860</ele>
        <time>2018-07-02T12:23:02Z</time>
      </trkpt>
      <trkpt lat="46.337485" lon="6.710945">
        <ele>1750.985</ele>
        <time>2018-07-02T12:23:10Z</time>
      </trkpt>
      <trkpt lat="46.337483" lon="6.711010">
        <ele>1751.389</ele>
        <time>2018-07-02T12:23:16Z</time>
      </trkpt>
      <trkpt lat="46.337493" lon="6.711077">
        <ele>1752.317</ele>
        <time>2018-07-02T12:23:23Z</time>
      </trkpt>
      <trkpt lat="46.337494" lon="6.711143">
        <ele>1753.008</ele>
        <time>2018-07-02T12:23:30Z</time>
      </trkpt>
      <trkpt lat="46.337496" lon="6.711216">
        <ele>1753.980</ele>
        <time>2018-07-02T12:23:39Z</time>
      </trkpt>
      <trkpt lat="46.337500" lon="6.711288">
        <ele>1754.926</ele>
        <time>2018-07-02T12:23:49Z</time>
      </trkpt>
      <trkpt lat="46.337498" lon="6.711357">
        <ele>1755.528</ele>
        <time>2018-07-02T12:23:59Z</time>
      </trkpt>
      <trkpt lat="46.337495" lon="6.711426">
        <ele>1756.184</ele>
        <time>2018-07-02T12:24:09Z</time>
      </trkpt>
      <trkpt lat="46.337493" lon="6.711496">
        <ele>1756.836</ele>
        <time>2018-07-02T12:24:19Z</time>
      </trkpt>
      <trkpt lat="46.337497" lon="6.711562">
        <ele>1757.763</ele>
        <time>2018-07-02T12:24:29Z</time>
      </trkpt>
      <trkpt lat="46.337496" lon="6.711628">
        <ele>1758.499</ele>
        <time>2018-07-02T12:24:47Z</time>
      </trkpt>
      <trkpt lat="46.337497" lon="6.711696">
        <ele>1759.464</ele>
        <time>2018-07-02T12:24:58Z</time>
      </trkpt>
      <trkpt lat="46.337505" lon="6.711767">
        <ele>1760.835</ele>
        <time>2018-07-02T12:25:08Z</time>
      </trkpt>
      <trkpt lat="46.337511" lon="6.711835">
        <ele>1762.086</ele>
        <time>2018-07-02T12:25:19Z</time>
      </trkpt>
      <trkpt lat="46.337509" lon="6.711902">
        <ele>1763.214</ele>
        <time>2018-07-02T12:25:30Z</time>
      </trkpt>
      <trkpt lat="46.337508" lon="6.711971">
        <ele>1764.508</ele>
        <time>2018-07-02T12:25:41Z</time>
      </trkpt>
      <trkpt lat="46.337506" lon="6.712037">
        <ele>1766.035</ele>
        <time>2018-07-02T12:25:53Z</time>
      </trkpt>
      <trkpt lat="46.337517" lon="6.712104">
        <ele>1767.431</ele>
        <time>2018-07-02T12:26:07Z</time>
      </trkpt>
      <trkpt lat="46.337517" lon="6.712170">
        <ele>1768.943</ele>
        <time>2018-07-02T12:26:21Z</time>
      </trkpt>
      <trkpt lat="46.337529" lon="6.712237">
        <ele>1770.579</ele>
        <time>2018-07-02T12:26:33Z</time>
      </trkpt>
      <trkpt lat="46.337526" lon="6.712307">
        <ele>1772.931</ele>
        <time>2018-07-02T12:26:48Z</time>
      </trkpt>
      <trkpt lat="46.337534" lon="6.712375">
        <ele>1775.278</ele>
        <time>2018-07-02T12:27:04Z</time>
      </trkpt>
      <trkpt lat="46.337544" lon="6.712440">
        <ele>1777.344</ele>
        <time>2018-07-02T12:27:16Z</time>
      </trkpt>
      <trkpt lat="46.337552" lon="6.712506">
        <ele>1779.499</ele>
        <time>2018-07-02T12:27:49Z</time>
      </trkpt>
      <trkpt lat="46.337564" lon="6.712570">
        <ele>1781.199</ele>
        <time>2018-07-02T12:28:05Z</time>
      </trkpt>
      <trkpt lat="46.337569" lon="6.712638">
        <ele>1783.007</ele>
        <time>2018-07-02T12:28:19Z</time>
      </trkpt>
      <trkpt lat="46.337585" lon="6.712699">
        <ele>1784.527</ele>
        <time>2018-07-02T12:28:29Z</time>
      </trkpt>
      <trkpt lat="46.337602" lon="6.712760">
        <ele>1786.008</ele>
        <time>2018-07-02T12:28:42Z</time>
      </trkpt>
      <trkpt lat="46.337613" lon="6.712826">
        <ele>1787.831</ele>
        <time>2018-07-02T12:28:55Z</time>
      </trkpt>
      <trkpt lat="46.337624" lon="6.712893">
        <ele>1789.717</ele>
        <time>2018-07-02T12:29:12Z</time>
      </trkpt>
      <trkpt lat="46.337632" lon="6.712963">
        <ele>1791.749</ele>
        <time>2018-07-02T12:29:40Z</time>
      </trkpt>
      <trkpt lat="46.337639" lon="6.713029">
        <ele>1793.795</ele>
        <time>2018-07-02T12:29:55Z</time>
      </trkpt>
      <trkpt lat="46.337638" lon="6.713098">
        <ele>1795.717</ele>
        <time>2018-07-02T12:30:09Z</time>
      </trkpt>
      <trkpt lat="46.337649" lon="6.713164">
        <ele>1797.654</ele>
        <time>2018-07-02T12:30:22Z</time>
      </trkpt>
      <trkpt lat="46.337663" lon="6.713232">
        <ele>1799.650</ele>
        <time>2018-07-02T12:30:59Z</time>
      </trkpt>
      <trkpt lat="46.337672" lon="6.713299">
        <ele>1801.685</ele>
        <time>2018-07-02T12:31:14Z</time>
      </trkpt>
      <trkpt lat="46.337691" lon="6.713380">
        <ele>1804.291</ele>
        <time>2018-07-02T12:31:45Z</time>
      </trkpt>
      <trkpt lat="46.337698" lon="6.713449">
        <ele>1806.481</ele>
        <time>2018-07-02T12:32:14Z</time>
      </trkpt>
      <trkpt lat="46.337714" lon="6.713512">
        <ele>1808.619</ele>
        <time>2018-07-02T12:32:27Z</time>
      </trkpt>
      <trkpt lat="46.337724" lon="6.713579">
        <ele>1811.008</ele>
        <time>2018-07-02T12:32:40Z</time>
      </trkpt>
      <trkpt lat="46.337732" lon="6.713647">
        <ele>1813.451</ele>
        <time>2018-07-02T12:33:02Z</time>
      </trkpt>
      <trkpt lat="46.337742" lon="6.713714">
        <ele>1815.987</ele>
        <time>2018-07-02T12:33:20Z</time>
      </trkpt>
      <trkpt lat="46.337737" lon="6.713784">
        <ele>1818.159</ele>
        <time>2018-07-02T12:33:31Z</time>
      </trkpt>
      <trkpt lat="46.337696" lon="6.713726">
        <ele>1815.215</ele>
        <time>2018-07-02T12:36:40Z</time>
      </trkpt>
      <trkpt lat="46.337670" lon="6.713782">
        <ele>1816.367</ele>
        <time>2018-07-02T12:37:07Z</time>
      </trkpt>
      <trkpt lat="46.337688" lon="6.713844">
        <ele>1818.774</ele>
        <time>2018-07-02T12:37:24Z</time>
      </trkpt>
      <trkpt lat="46.337732" lon="6.713876">
        <ele>1821.160</ele>
        <time>2018-07-02T12:37:35Z</time>
      </trkpt>
      <trkpt lat="46.337779" lon="6.713885">
        <ele>1822.875</ele>
        <time>2018-07-02T12:37:44Z</time>
      </trkpt>
      <trkpt lat="46.337824" lon="6.713886">
        <ele>1821.157</ele>
        <time>2018-07-02T12:37:55Z</time>
      </trkpt>
      <trkpt lat="46.337871" lon="6.713903">
        <ele>1819.700</ele>
        <time>2018-07-02T12:38:11Z</time>
      </trkpt>
      <trkpt lat="46.337914" lon="6.713923">
        <ele>1818.820</ele>
        <time>2018-07-02T12:38:20Z</time>
      </trkpt>
      <trkpt lat="46.337962" lon="6.713952">
        <ele>1818.008</ele>
        <time>2018-07-02T12:38:30Z</time>
      </trkpt>
      <trkpt lat="46.338013" lon="6.713962">
        <ele>1816.697</ele>
        <time>2018-07-02T12:38:37Z</time>
      </trkpt>
      <trkpt lat="46.338064" lon="6.713979">
        <ele>1815.573</ele>
        <time>2018-07-02T12:38:44Z</time>
      </trkpt>
      <trkpt lat="46.338109" lon="6.714006">
        <ele>1814.425</ele>
        <time>2018-07-02T12:38:49Z</time>
      </trkpt>
      <trkpt lat="46.338154" lon="6.714045">
        <ele>1813.781</ele>
        <time>2018-07-02T12:38:55Z</time>
      </trkpt>
      <trkpt lat="46.338193" lon="6.714079">
        <ele>1813.113</ele>
        <time>2018-07-02T12:39:00Z</time>
      </trkpt>
      <trkpt lat="46.338235" lon="6.714103">
        <ele>1811.910</ele>
        <time>2018-07-02T12:39:05Z</time>
      </trkpt>
      <trkpt lat="46.338279" lon="6.714131">
        <ele>1810.696</ele>
        <time>2018-07-02T12:39:10Z</time>
      </trkpt>
      <trkpt lat="46.338328" lon="6.714160">
        <ele>1809.091</ele>
        <time>2018-07-02T12:39:16Z</time>
      </trkpt>
      <trkpt lat="46.338377" lon="6.714178">
        <ele>1807.446</ele>
        <time>2018-07-02T12:39:22Z</time>
      </trkpt>
      <trkpt lat="46.338420" lon="6.714207">
        <ele>1806.688</ele>
        <time>2018-07-02T12:39:28Z</time>
      </trkpt>
      <trkpt lat="46.338465" lon="6.714245">
        <ele>1806.016</ele>
        <time>2018-07-02T12:39:34Z</time>
      </trkpt>
      <trkpt lat="46.338506" lon="6.714273">
        <ele>1805.008</ele>
        <time>2018-07-02T12:39:39Z</time>
      </trkpt>
      <trkpt lat="46.338545" lon="6.714308">
        <ele>1804.446</ele>
        <time>2018-07-02T12:39:44Z</time>
      </trkpt>
      <trkpt lat="46.338591" lon="6.714338">
        <ele>1803.252</ele>
        <time>2018-07-02T12:39:49Z</time>
      </trkpt>
      <trkpt lat="46.338634" lon="6.714380">
        <ele>1802.594</ele>
        <time>2018-07-02T12:39:54Z</time>
      </trkpt>
      <trkpt lat="46.338677" lon="6.714431">
        <ele>1802.010</ele>
        <time>2018-07-02T12:39:59Z</time>
      </trkpt>
      <trkpt lat="46.338713" lon="6.714471">
        <ele>1801.682</ele>
        <time>2018-07-02T12:40:03Z</time>
      </trkpt>
      <trkpt lat="46.338758" lon="6.714516">
        <ele>1800.939</ele>
        <time>2018-07-02T12:40:08Z</time>
      </trkpt>
      <trkpt lat="46.338794" lon="6.714568">
        <ele>1800.945</ele>
        <time>2018-07-02T12:40:14Z</time>
      </trkpt>
      <trkpt lat="46.338838" lon="6.714605">
        <ele>1799.740</ele>
        <time>2018-07-02T12:40:20Z</time>
      </trkpt>
      <trkpt lat="46.338876" lon="6.714643">
        <ele>1798.913</ele>
        <time>2018-07-02T12:40:25Z</time>
      </trkpt>
      <trkpt lat="46.338919" lon="6.714687">
        <ele>1798.543</ele>
        <time>2018-07-02T12:40:31Z</time>
      </trkpt>
      <trkpt lat="46.338965" lon="6.714715">
        <ele>1797.707</ele>
        <time>2018-07-02T12:40:36Z</time>
      </trkpt>
      <trkpt lat="46.339014" lon="6.714743">
        <ele>1796.908</ele>
        <time>2018-07-02T12:40:41Z</time>
      </trkpt>
      <trkpt lat="46.339061" lon="6.714772">
        <ele>1796.263</ele>
        <time>2018-07-02T12:40:46Z</time>
      </trkpt>
      <trkpt lat="46.339109" lon="6.714804">
        <ele>1795.629</ele>
        <time>2018-07-02T12:40:51Z</time>
      </trkpt>
      <trkpt lat="46.339156" lon="6.714833">
        <ele>1794.861</ele>
        <time>2018-07-02T12:40:56Z</time>
      </trkpt>
      <trkpt lat="46.339205" lon="6.714858">
        <ele>1794.017</ele>
        <time>2018-07-02T12:41:01Z</time>
      </trkpt>
      <trkpt lat="46.339255" lon="6.714881">
        <ele>1793.199</ele>
        <time>2018-07-02T12:41:07Z</time>
      </trkpt>
      <trkpt lat="46.339304" lon="6.714904">
        <ele>1792.316</ele>
        <time>2018-07-02T12:41:13Z</time>
      </trkpt>
      <trkpt lat="46.339350" lon="6.714941">
        <ele>1792.152</ele>
        <time>2018-07-02T12:41:18Z</time>
      </trkpt>
      <trkpt lat="46.339396" lon="6.714973">
        <ele>1791.737</ele>
        <time>2018-07-02T12:41:24Z</time>
      </trkpt>
      <trkpt lat="46.339443" lon="6.715007">
        <ele>1791.451</ele>
        <time>2018-07-02T12:41:29Z</time>
      </trkpt>
      <trkpt lat="46.339492" lon="6.715033">
        <ele>1790.701</ele>
        <time>2018-07-02T12:41:34Z</time>
      </trkpt>
      <trkpt lat="46.339536" lon="6.715053">
        <ele>1790.111</ele>
        <time>2018-07-02T12:41:38Z</time>
      </trkpt>
      <trkpt lat="46.339582" lon="6.715068">
        <ele>1789.108</ele>
        <time>2018-07-02T12:41:42Z</time>
      </trkpt>
      <trkpt lat="46.339626" lon="6.715087">
        <ele>1788.487</ele>
        <time>2018-07-02T12:41:46Z</time>
      </trkpt>
      <trkpt lat="46.339673" lon="6.715107">
        <ele>1787.753</ele>
        <time>2018-07-02T12:41:51Z</time>
      </trkpt>
      <trkpt lat="46.339724" lon="6.715111">
        <ele>1786.185</ele>
        <time>2018-07-02T12:42:05Z</time>
      </trkpt>
      <trkpt lat="46.339770" lon="6.715143">
        <ele>1786.331</ele>
        <time>2018-07-02T12:42:13Z</time>
      </trkpt>
      <trkpt lat="46.339819" lon="6.715175">
        <ele>1786.343</ele>
        <time>2018-07-02T12:42:18Z</time>
      </trkpt>
      <trkpt lat="46.339871" lon="6.715204">
        <ele>1786.070</ele>
        <time>2018-07-02T12:42:23Z</time>
      </trkpt>
      <trkpt lat="46.339915" lon="6.715232">
        <ele>1785.886</ele>
        <time>2018-07-02T12:42:29Z</time>
      </trkpt>
      <trkpt lat="46.339952" lon="6.715278">
        <ele>1786.661</ele>
        <time>2018-07-02T12:42:33Z</time>
      </trkpt>
      <trkpt lat="46.339998" lon="6.715330">
        <ele>1787.125</ele>
        <time>2018-07-02T12:42:39Z</time>
      </trkpt>
      <trkpt lat="46.340040" lon="6.715367">
        <ele>1787.226</ele>
        <time>2018-07-02T12:42:44Z</time>
      </trkpt>
      <trkpt lat="46.340067" lon="6.715423">
        <ele>1788.408</ele>
        <time>2018-07-02T12:42:48Z</time>
      </trkpt>
      <trkpt lat="46.340087" lon="6.715483">
        <ele>1789.908</ele>
        <time>2018-07-02T12:42:52Z</time>
      </trkpt>
      <trkpt lat="46.340114" lon="6.715547">
        <ele>1791.294</ele>
        <time>2018-07-02T12:42:57Z</time>
      </trkpt>
      <trkpt lat="46.340150" lon="6.715592">
        <ele>1791.040</ele>
        <time>2018-07-02T12:43:02Z</time>
      </trkpt>
      <trkpt lat="46.340175" lon="6.715648">
        <ele>1791.312</ele>
        <time>2018-07-02T12:43:07Z</time>
      </trkpt>
      <trkpt lat="46.340200" lon="6.715721">
        <ele>1792.038</ele>
        <time>2018-07-02T12:43:12Z</time>
      </trkpt>
      <trkpt lat="46.340214" lon="6.715793">
        <ele>1793.020</ele>
        <time>2018-07-02T12:43:17Z</time>
      </trkpt>
      <trkpt lat="46.340213" lon="6.715861">
        <ele>1794.077</ele>
        <time>2018-07-02T12:43:22Z</time>
      </trkpt>
      <trkpt lat="46.340208" lon="6.715931">
        <ele>1794.263</ele>
        <time>2018-07-02T12:43:27Z</time>
      </trkpt>
      <trkpt lat="46.340209" lon="6.716006">
        <ele>1794.198</ele>
        <time>2018-07-02T12:43:33Z</time>
      </trkpt>
      <trkpt lat="46.340216" lon="6.716078">
        <ele>1793.658</ele>
        <time>2018-07-02T12:43:38Z</time>
      </trkpt>
      <trkpt lat="46.340219" lon="6.716154">
        <ele>1792.452</ele>
        <time>2018-07-02T12:43:43Z</time>
      </trkpt>
      <trkpt lat="46.340217" lon="6.716225">
        <ele>1790.817</ele>
        <time>2018-07-02T12:43:48Z</time>
      </trkpt>
      <trkpt lat="46.340207" lon="6.716299">
        <ele>1789.508</ele>
        <time>2018-07-02T12:43:53Z</time>
      </trkpt>
      <trkpt lat="46.340204" lon="6.716367">
        <ele>1788.067</ele>
        <time>2018-07-02T12:43:57Z</time>
      </trkpt>
      <trkpt lat="46.340198" lon="6.716432">
        <ele>1786.773</ele>
        <time>2018-07-02T12:44:01Z</time>
      </trkpt>
      <trkpt lat="46.340195" lon="6.716505">
        <ele>1785.145</ele>
        <time>2018-07-02T12:44:07Z</time>
      </trkpt>
      <trkpt lat="46.340170" lon="6.716585">
        <ele>1784.341</ele>
        <time>2018-07-02T12:44:34Z</time>
      </trkpt>
      <trkpt lat="46.340176" lon="6.716650">
        <ele>1782.483</ele>
        <time>2018-07-02T12:45:29Z</time>
      </trkpt>
      <trkpt lat="46.340141" lon="6.716703">
        <ele>1782.470</ele>
        <time>2018-07-02T12:45:38Z</time>
      </trkpt>
      <trkpt lat="46.340136" lon="6.716772">
        <ele>1780.876</ele>
        <time>2018-07-02T12:45:44Z</time>
      </trkpt>
      <trkpt lat="46.340140" lon="6.716846">
        <ele>1778.671</ele>
        <time>2018-07-02T12:45:51Z</time>
      </trkpt>
      <trkpt lat="46.340128" lon="6.716915">
        <ele>1777.269</ele>
        <time>2018-07-02T12:45:57Z</time>
      </trkpt>
      <trkpt lat="46.340123" lon="6.716988">
        <ele>1775.404</ele>
        <time>2018-07-02T12:46:04Z</time>
      </trkpt>
      <trkpt lat="46.340132" lon="6.717066">
        <ele>1773.024</ele>
        <time>2018-07-02T12:46:10Z</time>
      </trkpt>
      <trkpt lat="46.340143" lon="6.717138">
        <ele>1770.608</ele>
        <time>2018-07-02T12:46:21Z</time>
      </trkpt>
      <trkpt lat="46.340156" lon="6.717203">
        <ele>1768.568</ele>
        <time>2018-07-02T12:46:27Z</time>
      </trkpt>
      <trkpt lat="46.340174" lon="6.717266">
        <ele>1766.624</ele>
        <time>2018-07-02T12:46:32Z</time>
      </trkpt>
      <trkpt lat="46.340195" lon="6.717326">
        <ele>1765.026</ele>
        <time>2018-07-02T12:46:37Z</time>
      </trkpt>
      <trkpt lat="46.340222" lon="6.717378">
        <ele>1763.642</ele>
        <time>2018-07-02T12:46:44Z</time>
      </trkpt>
      <trkpt lat="46.340243" lon="6.717445">
        <ele>1762.264</ele>
        <time>2018-07-02T12:46:51Z</time>
      </trkpt>
      <trkpt lat="46.340245" lon="6.717515">
        <ele>1761.231</ele>
        <time>2018-07-02T12:46:59Z</time>
      </trkpt>
      <trkpt lat="46.340228" lon="6.717582">
        <ele>1760.397</ele>
        <time>2018-07-02T12:47:07Z</time>
      </trkpt>
      <trkpt lat="46.340251" lon="6.717642">
        <ele>1759.172</ele>
        <time>2018-07-02T12:47:13Z</time>
      </trkpt>
      <trkpt lat="46.340276" lon="6.717698">
        <ele>1758.274</ele>
        <time>2018-07-02T12:47:17Z</time>
      </trkpt>
      <trkpt lat="46.340306" lon="6.717753">
        <ele>1756.056</ele>
        <time>2018-07-02T12:47:22Z</time>
      </trkpt>
      <trkpt lat="46.340315" lon="6.717823">
        <ele>1754.421</ele>
        <time>2018-07-02T12:47:40Z</time>
      </trkpt>
      <trkpt lat="46.340297" lon="6.717893">
        <ele>1753.808</ele>
        <time>2018-07-02T12:47:47Z</time>
      </trkpt>
      <trkpt lat="46.340284" lon="6.717957">
        <ele>1752.959</ele>
        <time>2018-07-02T12:47:53Z</time>
      </trkpt>
      <trkpt lat="46.340292" lon="6.718023">
        <ele>1751.445</ele>
        <time>2018-07-02T12:48:00Z</time>
      </trkpt>
      <trkpt lat="46.340309" lon="6.718090">
        <ele>1749.457</ele>
        <time>2018-07-02T12:48:06Z</time>
      </trkpt>
      <trkpt lat="46.340288" lon="6.718148">
        <ele>1748.273</ele>
        <time>2018-07-02T12:48:13Z</time>
      </trkpt>
      <trkpt lat="46.340238" lon="6.718158">
        <ele>1748.255</ele>
        <time>2018-07-02T12:48:19Z</time>
      </trkpt>
      <trkpt lat="46.340189" lon="6.718161">
        <ele>1748.282</ele>
        <time>2018-07-02T12:48:24Z</time>
      </trkpt>
      <trkpt lat="46.340136" lon="6.718153">
        <ele>1748.628</ele>
        <time>2018-07-02T12:48:30Z</time>
      </trkpt>
      <trkpt lat="46.340116" lon="6.718215">
        <ele>1747.553</ele>
        <time>2018-07-02T12:48:41Z</time>
      </trkpt>
      <trkpt lat="46.340128" lon="6.718287">
        <ele>1746.024</ele>
        <time>2018-07-02T12:48:48Z</time>
      </trkpt>
      <trkpt lat="46.340152" lon="6.718343">
        <ele>1744.704</ele>
        <time>2018-07-02T12:48:54Z</time>
      </trkpt>
      <trkpt lat="46.340179" lon="6.718411">
        <ele>1743.214</ele>
        <time>2018-07-02T12:49:00Z</time>
      </trkpt>
      <trkpt lat="46.340206" lon="6.718478">
        <ele>1741.708</ele>
        <time>2018-07-02T12:49:05Z</time>
      </trkpt>
      <trkpt lat="46.340241" lon="6.718532">
        <ele>1740.114</ele>
        <time>2018-07-02T12:49:10Z</time>
      </trkpt>
      <trkpt lat="46.340283" lon="6.718582">
        <ele>1738.450</ele>
        <time>2018-07-02T12:49:15Z</time>
      </trkpt>
      <trkpt lat="46.340328" lon="6.718628">
        <ele>1736.782</ele>
        <time>2018-07-02T12:49:20Z</time>
      </trkpt>
      <trkpt lat="46.340361" lon="6.718685">
        <ele>1736.158</ele>
        <time>2018-07-02T12:49:26Z</time>
      </trkpt>
      <trkpt lat="46.340379" lon="6.718755">
        <ele>1736.160</ele>
        <time>2018-07-02T12:49:31Z</time>
      </trkpt>
      <trkpt lat="46.340403" lon="6.718817">
        <ele>1736.137</ele>
        <time>2018-07-02T12:49:36Z</time>
      </trkpt>
      <trkpt lat="46.340428" lon="6.718879">
        <ele>1736.453</ele>
        <time>2018-07-02T12:49:42Z</time>
      </trkpt>
      <trkpt lat="46.340447" lon="6.718942">
        <ele>1737.538</ele>
        <time>2018-07-02T12:49:50Z</time>
      </trkpt>
      <trkpt lat="46.340457" lon="6.719009">
        <ele>1739.025</ele>
        <time>2018-07-02T12:50:19Z</time>
      </trkpt>
      <trkpt lat="46.340477" lon="6.719073">
        <ele>1740.626</ele>
        <time>2018-07-02T12:50:40Z</time>
      </trkpt>
      <trkpt lat="46.340491" lon="6.719135">
        <ele>1742.308</ele>
        <time>2018-07-02T12:51:01Z</time>
      </trkpt>
      <trkpt lat="46.340528" lon="6.719174">
        <ele>1743.808</ele>
        <time>2018-07-02T12:51:12Z</time>
      </trkpt>
      <trkpt lat="46.340567" lon="6.719214">
        <ele>1744.864</ele>
        <time>2018-07-02T12:51:21Z</time>
      </trkpt>
      <trkpt lat="46.340602" lon="6.719260">
        <ele>1745.010</ele>
        <time>2018-07-02T12:51:32Z</time>
      </trkpt>
      <trkpt lat="46.340630" lon="6.719314">
        <ele>1745.792</ele>
        <time>2018-07-02T12:51:39Z</time>
      </trkpt>
      <trkpt lat="46.340665" lon="6.719355">
        <ele>1746.098</ele>
        <time>2018-07-02T12:52:02Z</time>
      </trkpt>
      <trkpt lat="46.340688" lon="6.719414">
        <ele>1747.230</ele>
        <time>2018-07-02T12:52:13Z</time>
      </trkpt>
      <trkpt lat="46.340702" lon="6.719483">
        <ele>1749.187</ele>
        <time>2018-07-02T12:52:24Z</time>
      </trkpt>
      <trkpt lat="46.340713" lon="6.719553">
        <ele>1751.333</ele>
        <time>2018-07-02T12:52:41Z</time>
      </trkpt>
      <trkpt lat="46.340690" lon="6.719616">
        <ele>1753.648</ele>
        <time>2018-07-02T12:53:19Z</time>
      </trkpt>
      <trkpt lat="46.340726" lon="6.719705">
        <ele>1756.687</ele>
        <time>2018-07-02T12:53:51Z</time>
      </trkpt>
      <trkpt lat="46.340743" lon="6.719767">
        <ele>1758.642</ele>
        <time>2018-07-02T12:54:11Z</time>
      </trkpt>
      <trkpt lat="46.340774" lon="6.719814">
        <ele>1760.326</ele>
        <time>2018-07-02T12:54:28Z</time>
      </trkpt>
      <trkpt lat="46.340804" lon="6.719866">
        <ele>1762.308</ele>
        <time>2018-07-02T12:54:37Z</time>
      </trkpt>
      <trkpt lat="46.340795" lon="6.719940">
        <ele>1764.590</ele>
        <time>2018-07-02T12:55:01Z</time>
      </trkpt>
      <trkpt lat="46.340823" lon="6.719992">
        <ele>1766.616</ele>
        <time>2018-07-02T12:55:29Z</time>
      </trkpt>
      <trkpt lat="46.340860" lon="6.720031">
        <ele>1766.848</ele>
        <time>2018-07-02T12:55:43Z</time>
      </trkpt>
      <trkpt lat="46.340888" lon="6.720085">
        <ele>1767.694</ele>
        <time>2018-07-02T12:56:06Z</time>
      </trkpt>
      <trkpt lat="46.340906" lon="6.720149">
        <ele>1769.476</ele>
        <time>2018-07-02T12:56:25Z</time>
      </trkpt>
      <trkpt lat="46.340907" lon="6.720194">
        <ele>1771.063</ele>
        <time>2018-07-02T12:59:07Z</time>
      </trkpt>
      <trkpt lat="46.340911" lon="6.720208">
        <ele>1771.549</ele>
        <time>2018-07-02T13:08:41Z</time>
      </trkpt>
      <trkpt lat="46.340946" lon="6.720256">
        <ele>1773.194</ele>
        <time>2018-07-02T13:09:09Z</time>
      </trkpt>
      <trkpt lat="46.340977" lon="6.720313">
        <ele>1775.325</ele>
        <time>2018-07-02T13:09:19Z</time>
      </trkpt>
      <trkpt lat="46.341011" lon="6.720357">
        <ele>1776.926</ele>
        <time>2018-07-02T13:09:26Z</time>
      </trkpt>
      <trkpt lat="46.341035" lon="6.720413">
        <ele>1779.108</ele>
        <time>2018-07-02T13:09:36Z</time>
      </trkpt>
      <trkpt lat="46.341084" lon="6.720440">
        <ele>1780.308</ele>
        <time>2018-07-02T13:10:15Z</time>
      </trkpt>
      <trkpt lat="46.341096" lon="6.720503">
        <ele>1782.834</ele>
        <time>2018-07-02T13:10:25Z</time>
      </trkpt>
      <trkpt lat="46.341073" lon="6.720566">
        <ele>1785.120</ele>
        <time>2018-07-02T13:10:39Z</time>
      </trkpt>
      <trkpt lat="46.341075" lon="6.720633">
        <ele>1787.362</ele>
        <time>2018-07-02T13:10:54Z</time>
      </trkpt>
      <trkpt lat="46.341067" lon="6.720701">
        <ele>1789.648</ele>
        <time>2018-07-02T13:11:11Z</time>
      </trkpt>
      <trkpt lat="46.341080" lon="6.720768">
        <ele>1791.810</ele>
        <time>2018-07-02T13:11:26Z</time>
      </trkpt>
      <trkpt lat="46.341082" lon="6.720837">
        <ele>1794.127</ele>
        <time>2018-07-02T13:11:38Z</time>
      </trkpt>
      <trkpt lat="46.341055" lon="6.720889">
        <ele>1796.243</ele>
        <time>2018-07-02T13:11:51Z</time>
      </trkpt>
      <trkpt lat="46.341068" lon="6.720955">
        <ele>1798.778</ele>
        <time>2018-07-02T13:12:02Z</time>
      </trkpt>
      <trkpt lat="46.341084" lon="6.721025">
        <ele>1801.265</ele>
        <time>2018-07-02T13:12:14Z</time>
      </trkpt>
      <trkpt lat="46.341097" lon="6.721096">
        <ele>1803.768</ele>
        <time>2018-07-02T13:12:26Z</time>
      </trkpt>
      <trkpt lat="46.341098" lon="6.721168">
        <ele>1806.814</ele>
        <time>2018-07-02T13:12:35Z</time>
      </trkpt>
      <trkpt lat="46.341112" lon="6.721231">
        <ele>1809.108</ele>
        <time>2018-07-02T13:12:44Z</time>
      </trkpt>
      <trkpt lat="46.341135" lon="6.721297">
        <ele>1810.478</ele>
        <time>2018-07-02T13:12:53Z</time>
      </trkpt>
      <trkpt lat="46.341171" lon="6.721345">
        <ele>1809.784</ele>
        <time>2018-07-02T13:12:59Z</time>
      </trkpt>
      <trkpt lat="46.341154" lon="6.721409">
        <ele>1813.396</ele>
        <time>2018-07-02T13:13:08Z</time>
      </trkpt>
      <trkpt lat="46.341158" lon="6.721479">
        <ele>1815.192</ele>
        <time>2018-07-02T13:13:20Z</time>
      </trkpt>
      <trkpt lat="46.341191" lon="6.721528">
        <ele>1814.184</ele>
        <time>2018-07-02T13:13:29Z</time>
      </trkpt>
      <trkpt lat="46.341170" lon="6.721590">
        <ele>1817.541</ele>
        <time>2018-07-02T13:13:37Z</time>
      </trkpt>
      <trkpt lat="46.341195" lon="6.721646">
        <ele>1817.387</ele>
        <time>2018-07-02T13:13:45Z</time>
      </trkpt>
      <trkpt lat="46.341213" lon="6.721711">
        <ele>1817.912</ele>
        <time>2018-07-02T13:13:54Z</time>
      </trkpt>
      <trkpt lat="46.341236" lon="6.721779">
        <ele>1818.256</ele>
        <time>2018-07-02T13:14:05Z</time>
      </trkpt>
      <trkpt lat="46.341275" lon="6.721825">
        <ele>1816.859</ele>
        <time>2018-07-02T13:14:13Z</time>
      </trkpt>
      <trkpt lat="46.341294" lon="6.721890">
        <ele>1817.314</ele>
        <time>2018-07-02T13:14:23Z</time>
      </trkpt>
      <trkpt lat="46.341296" lon="6.721961">
        <ele>1819.108</ele>
        <time>2018-07-02T13:14:32Z</time>
      </trkpt>
      <trkpt lat="46.341304" lon="6.722026">
        <ele>1820.457</ele>
        <time>2018-07-02T13:14:41Z</time>
      </trkpt>
      <trkpt lat="46.341378" lon="6.722089">
        <ele>1816.923</ele>
        <time>2018-07-02T13:32:31Z</time>
      </trkpt>
      <trkpt lat="46.341425" lon="6.722132">
        <ele>1815.575</ele>
        <time>2018-07-02T13:33:36Z</time>
      </trkpt>
      <trkpt lat="46.341472" lon="6.722167">
        <ele>1814.211</ele>
        <time>2018-07-02T13:33:38Z</time>
      </trkpt>
      <trkpt lat="46.341522" lon="6.722201">
        <ele>1812.613</ele>
        <time>2018-07-02T13:33:41Z</time>
      </trkpt>
      <trkpt lat="46.341577" lon="6.722236">
        <ele>1811.090</ele>
        <time>2018-07-02T13:33:45Z</time>
      </trkpt>
      <trkpt lat="46.341620" lon="6.722347">
        <ele>1812.956</ele>
        <time>2018-07-02T13:34:21Z</time>
      </trkpt>
      <trkpt lat="46.341667" lon="6.722362">
        <ele>1811.061</ele>
        <time>2018-07-02T13:34:24Z</time>
      </trkpt>
      <trkpt lat="46.341643" lon="6.722444">
        <ele>1815.258</ele>
        <time>2018-07-02T13:34:27Z</time>
      </trkpt>
      <trkpt lat="46.341609" lon="6.722503">
        <ele>1819.252</ele>
        <time>2018-07-02T13:34:28Z</time>
      </trkpt>
      <trkpt lat="46.341584" lon="6.722576">
        <ele>1823.317</ele>
        <time>2018-07-02T13:34:31Z</time>
      </trkpt>
      <trkpt lat="46.341561" lon="6.722649">
        <ele>1827.308</ele>
        <time>2018-07-02T13:34:35Z</time>
      </trkpt>
      <trkpt lat="46.341538" lon="6.722715">
        <ele>1831.067</ele>
        <time>2018-07-02T13:34:39Z</time>
      </trkpt>
      <trkpt lat="46.341547" lon="6.722801">
        <ele>1833.423</ele>
        <time>2018-07-02T13:34:43Z</time>
      </trkpt>
      <trkpt lat="46.341460" lon="6.722846">
        <ele>1839.025</ele>
        <time>2018-07-02T13:34:48Z</time>
      </trkpt>
      <trkpt lat="46.341408" lon="6.722841">
        <ele>1841.791</ele>
        <time>2018-07-02T13:34:51Z</time>
      </trkpt>
      <trkpt lat="46.341456" lon="6.722821">
        <ele>1838.873</ele>
        <time>2018-07-02T13:34:56Z</time>
      </trkpt>
      <trkpt lat="46.341528" lon="6.722807">
        <ele>1834.690</ele>
        <time>2018-07-02T13:34:59Z</time>
      </trkpt>
      <trkpt lat="46.341586" lon="6.722851">
        <ele>1832.656</ele>
        <time>2018-07-02T13:36:13Z</time>
      </trkpt>
      <trkpt lat="46.341600" lon="6.722971">
        <ele>1835.141</ele>
        <time>2018-07-02T13:38:05Z</time>
      </trkpt>
      <trkpt lat="46.341621" lon="6.723032">
        <ele>1836.058</ele>
        <time>2018-07-02T13:38:07Z</time>
      </trkpt>
      <trkpt lat="46.341660" lon="6.723103">
        <ele>1834.252</ele>
        <time>2018-07-02T13:38:10Z</time>
      </trkpt>
      <trkpt lat="46.341711" lon="6.723146">
        <ele>1832.017</ele>
        <time>2018-07-02T13:38:13Z</time>
      </trkpt>
      <trkpt lat="46.341752" lon="6.723187">
        <ele>1830.708</ele>
        <time>2018-07-02T13:38:18Z</time>
      </trkpt>
      <trkpt lat="46.341791" lon="6.723221">
        <ele>1830.027</ele>
        <time>2018-07-02T13:38:21Z</time>
      </trkpt>
      <trkpt lat="46.341825" lon="6.723265">
        <ele>1829.863</ele>
        <time>2018-07-02T13:38:24Z</time>
      </trkpt>
      <trkpt lat="46.341853" lon="6.723322">
        <ele>1830.255</ele>
        <time>2018-07-02T13:38:28Z</time>
      </trkpt>
      <trkpt lat="46.341885" lon="6.723371">
        <ele>1830.451</ele>
        <time>2018-07-02T13:38:35Z</time>
      </trkpt>
      <trkpt lat="46.341933" lon="6.723432">
        <ele>1831.193</ele>
        <time>2018-07-02T13:38:42Z</time>
      </trkpt>
      <trkpt lat="46.341985" lon="6.723450">
        <ele>1831.390</ele>
        <time>2018-07-02T13:38:44Z</time>
      </trkpt>
      <trkpt lat="46.342029" lon="6.723484">
        <ele>1831.746</ele>
        <time>2018-07-02T13:38:52Z</time>
      </trkpt>
      <trkpt lat="46.342044" lon="6.723549">
        <ele>1832.881</ele>
        <time>2018-07-02T13:38:59Z</time>
      </trkpt>
      <trkpt lat="46.342068" lon="6.723619">
        <ele>1834.124</ele>
        <time>2018-07-02T13:39:01Z</time>
      </trkpt>
      <trkpt lat="46.342096" lon="6.723681">
        <ele>1833.504</ele>
        <time>2018-07-02T13:39:05Z</time>
      </trkpt>
      <trkpt lat="46.342144" lon="6.723655">
        <ele>1835.114</ele>
        <time>2018-07-02T13:39:19Z</time>
      </trkpt>
      <trkpt lat="46.342191" lon="6.723686">
        <ele>1836.108</ele>
        <time>2018-07-02T13:39:23Z</time>
      </trkpt>
      <trkpt lat="46.342239" lon="6.723726">
        <ele>1836.654</ele>
        <time>2018-07-02T13:39:27Z</time>
      </trkpt>
      <trkpt lat="46.342246" lon="6.723794">
        <ele>1836.690</ele>
        <time>2018-07-02T13:39:34Z</time>
      </trkpt>
      <trkpt lat="46.342276" lon="6.723846">
        <ele>1836.462</ele>
        <time>2018-07-02T13:39:46Z</time>
      </trkpt>
      <trkpt lat="46.342296" lon="6.723910">
        <ele>1836.188</ele>
        <time>2018-07-02T13:39:54Z</time>
      </trkpt>
      <trkpt lat="46.342327" lon="6.723959">
        <ele>1835.440</ele>
        <time>2018-07-02T13:40:01Z</time>
      </trkpt>
      <trkpt lat="46.342344" lon="6.724027">
        <ele>1834.837</ele>
        <time>2018-07-02T13:40:06Z</time>
      </trkpt>
      <trkpt lat="46.342327" lon="6.724099">
        <ele>1833.653</ele>
        <time>2018-07-02T13:40:11Z</time>
      </trkpt>
      <trkpt lat="46.342370" lon="6.724128">
        <ele>1834.518</ele>
        <time>2018-07-02T13:40:16Z</time>
      </trkpt>
      <trkpt lat="46.342419" lon="6.724163">
        <ele>1836.124</ele>
        <time>2018-07-02T13:40:18Z</time>
      </trkpt>
      <trkpt lat="46.342485" lon="6.724188">
        <ele>1837.904</ele>
        <time>2018-07-02T13:40:21Z</time>
      </trkpt>
      <trkpt lat="46.342535" lon="6.724205">
        <ele>1836.814</ele>
        <time>2018-07-02T13:40:23Z</time>
      </trkpt>
      <trkpt lat="46.342538" lon="6.724278">
        <ele>1835.308</ele>
        <time>2018-07-02T13:40:31Z</time>
      </trkpt>
      <trkpt lat="46.342548" lon="6.724347">
        <ele>1833.874</ele>
        <time>2018-07-02T13:40:36Z</time>
      </trkpt>
      <trkpt lat="46.342594" lon="6.724390">
        <ele>1832.610</ele>
        <time>2018-07-02T13:40:43Z</time>
      </trkpt>
      <trkpt lat="46.342630" lon="6.724432">
        <ele>1832.132</ele>
        <time>2018-07-02T13:40:47Z</time>
      </trkpt>
      <trkpt lat="46.342653" lon="6.724501">
        <ele>1830.728</ele>
        <time>2018-07-02T13:40:52Z</time>
      </trkpt>
      <trkpt lat="46.342670" lon="6.724562">
        <ele>1829.530</ele>
        <time>2018-07-02T13:40:55Z</time>
      </trkpt>
      <trkpt lat="46.342692" lon="6.724620">
        <ele>1828.877</ele>
        <time>2018-07-02T13:40:58Z</time>
      </trkpt>
      <trkpt lat="46.342712" lon="6.724681">
        <ele>1828.323</ele>
        <time>2018-07-02T13:41:05Z</time>
      </trkpt>
      <trkpt lat="46.342753" lon="6.724723">
        <ele>1829.168</ele>
        <time>2018-07-02T13:41:11Z</time>
      </trkpt>
      <trkpt lat="46.342750" lon="6.724795">
        <ele>1828.028</ele>
        <time>2018-07-02T13:41:21Z</time>
      </trkpt>
      <trkpt lat="46.342764" lon="6.724862">
        <ele>1827.889</ele>
        <time>2018-07-02T13:41:28Z</time>
      </trkpt>
      <trkpt lat="46.342777" lon="6.724926">
        <ele>1827.817</ele>
        <time>2018-07-02T13:41:33Z</time>
      </trkpt>
      <trkpt lat="46.342803" lon="6.724994">
        <ele>1826.508</ele>
        <time>2018-07-02T13:41:38Z</time>
      </trkpt>
      <trkpt lat="46.342818" lon="6.725061">
        <ele>1824.774</ele>
        <time>2018-07-02T13:41:43Z</time>
      </trkpt>
      <trkpt lat="46.342830" lon="6.725129">
        <ele>1823.130</ele>
        <time>2018-07-02T13:41:47Z</time>
      </trkpt>
      <trkpt lat="46.342869" lon="6.725170">
        <ele>1822.372</ele>
        <time>2018-07-02T13:41:52Z</time>
      </trkpt>
      <trkpt lat="46.342905" lon="6.725223">
        <ele>1821.968</ele>
        <time>2018-07-02T13:41:56Z</time>
      </trkpt>
      <trkpt lat="46.342931" lon="6.725295">
        <ele>1821.480</ele>
        <time>2018-07-02T13:42:01Z</time>
      </trkpt>
      <trkpt lat="46.342937" lon="6.725365">
        <ele>1820.327</ele>
        <time>2018-07-02T13:42:07Z</time>
      </trkpt>
      <trkpt lat="46.342941" lon="6.725432">
        <ele>1819.293</ele>
        <time>2018-07-02T13:42:15Z</time>
      </trkpt>
      <trkpt lat="46.342964" lon="6.725498">
        <ele>1818.918</ele>
        <time>2018-07-02T13:42:22Z</time>
      </trkpt>
      <trkpt lat="46.342966" lon="6.725575">
        <ele>1817.758</ele>
        <time>2018-07-02T13:42:27Z</time>
      </trkpt>
      <trkpt lat="46.342996" lon="6.725633">
        <ele>1817.852</ele>
        <time>2018-07-02T13:42:32Z</time>
      </trkpt>
      <trkpt lat="46.343000" lon="6.725698">
        <ele>1816.617</ele>
        <time>2018-07-02T13:42:36Z</time>
      </trkpt>
      <trkpt lat="46.343030" lon="6.725758">
        <ele>1817.008</ele>
        <time>2018-07-02T13:42:40Z</time>
      </trkpt>
      <trkpt lat="46.343063" lon="6.725810">
        <ele>1817.287</ele>
        <time>2018-07-02T13:42:44Z</time>
      </trkpt>
      <trkpt lat="46.343072" lon="6.725874">
        <ele>1815.543</ele>
        <time>2018-07-02T13:42:48Z</time>
      </trkpt>
      <trkpt lat="46.343060" lon="6.725943">
        <ele>1814.215</ele>
        <time>2018-07-02T13:42:54Z</time>
      </trkpt>
      <trkpt lat="46.343095" lon="6.725997">
        <ele>1812.651</ele>
        <time>2018-07-02T13:42:58Z</time>
      </trkpt>
      <trkpt lat="46.343102" lon="6.726069">
        <ele>1811.333</ele>
        <time>2018-07-02T13:43:03Z</time>
      </trkpt>
      <trkpt lat="46.343132" lon="6.726129">
        <ele>1810.560</ele>
        <time>2018-07-02T13:43:07Z</time>
      </trkpt>
      <trkpt lat="46.343175" lon="6.726185">
        <ele>1810.166</ele>
        <time>2018-07-02T13:43:10Z</time>
      </trkpt>
      <trkpt lat="46.343196" lon="6.726250">
        <ele>1809.541</ele>
        <time>2018-07-02T13:43:17Z</time>
      </trkpt>
      <trkpt lat="46.343199" lon="6.726320">
        <ele>1808.657</ele>
        <time>2018-07-02T13:43:21Z</time>
      </trkpt>
      <trkpt lat="46.343245" lon="6.726345">
        <ele>1809.900</ele>
        <time>2018-07-02T13:43:25Z</time>
      </trkpt>
      <trkpt lat="46.343255" lon="6.726445">
        <ele>1808.720</ele>
        <time>2018-07-02T13:43:28Z</time>
      </trkpt>
      <trkpt lat="46.343251" lon="6.726514">
        <ele>1807.008</ele>
        <time>2018-07-02T13:43:30Z</time>
      </trkpt>
      <trkpt lat="46.343292" lon="6.726547">
        <ele>1808.287</ele>
        <time>2018-07-02T13:43:35Z</time>
      </trkpt>
      <trkpt lat="46.343336" lon="6.726522">
        <ele>1810.533</ele>
        <time>2018-07-02T13:43:39Z</time>
      </trkpt>
      <trkpt lat="46.343384" lon="6.726578">
        <ele>1808.645</ele>
        <time>2018-07-02T13:43:42Z</time>
      </trkpt>
      <trkpt lat="46.343419" lon="6.726624">
        <ele>1807.841</ele>
        <time>2018-07-02T13:43:49Z</time>
      </trkpt>
      <trkpt lat="46.343399" lon="6.726688">
        <ele>1807.453</ele>
        <time>2018-07-02T13:43:53Z</time>
      </trkpt>
      <trkpt lat="46.343440" lon="6.726725">
        <ele>1806.950</ele>
        <time>2018-07-02T13:44:04Z</time>
      </trkpt>
      <trkpt lat="46.343461" lon="6.726806">
        <ele>1806.316</ele>
        <time>2018-07-02T13:44:10Z</time>
      </trkpt>
      <trkpt lat="46.343512" lon="6.726858">
        <ele>1807.231</ele>
        <time>2018-07-02T13:44:14Z</time>
      </trkpt>
      <trkpt lat="46.343541" lon="6.726926">
        <ele>1808.269</ele>
        <time>2018-07-02T13:44:21Z</time>
      </trkpt>
      <trkpt lat="46.343594" lon="6.726972">
        <ele>1809.904</ele>
        <time>2018-07-02T13:44:26Z</time>
      </trkpt>
      <trkpt lat="46.343630" lon="6.727048">
        <ele>1809.124</ele>
        <time>2018-07-02T13:44:32Z</time>
      </trkpt>
      <trkpt lat="46.343690" lon="6.727095">
        <ele>1807.508</ele>
        <time>2018-07-02T13:44:36Z</time>
      </trkpt>
      <trkpt lat="46.343712" lon="6.727155">
        <ele>1806.998</ele>
        <time>2018-07-02T13:44:41Z</time>
      </trkpt>
      <trkpt lat="46.343757" lon="6.727193">
        <ele>1806.544</ele>
        <time>2018-07-02T13:44:46Z</time>
      </trkpt>
      <trkpt lat="46.343759" lon="6.727258">
        <ele>1806.456</ele>
        <time>2018-07-02T13:44:52Z</time>
      </trkpt>
      <trkpt lat="46.343776" lon="6.727328">
        <ele>1806.332</ele>
        <time>2018-07-02T13:44:59Z</time>
      </trkpt>
      <trkpt lat="46.343809" lon="6.727373">
        <ele>1806.734</ele>
        <time>2018-07-02T13:45:09Z</time>
      </trkpt>
      <trkpt lat="46.343821" lon="6.727447">
        <ele>1807.161</ele>
        <time>2018-07-02T13:45:15Z</time>
      </trkpt>
      <trkpt lat="46.343833" lon="6.727510">
        <ele>1807.617</ele>
        <time>2018-07-02T13:45:19Z</time>
      </trkpt>
      <trkpt lat="46.343847" lon="6.727580">
        <ele>1808.382</ele>
        <time>2018-07-02T13:45:24Z</time>
      </trkpt>
      <trkpt lat="46.343872" lon="6.727638">
        <ele>1809.477</ele>
        <time>2018-07-02T13:45:28Z</time>
      </trkpt>
      <trkpt lat="46.343873" lon="6.727711">
        <ele>1809.961</ele>
        <time>2018-07-02T13:45:35Z</time>
      </trkpt>
      <trkpt lat="46.343889" lon="6.727775">
        <ele>1811.027</ele>
        <time>2018-07-02T13:45:42Z</time>
      </trkpt>
      <trkpt lat="46.343895" lon="6.727843">
        <ele>1811.208</ele>
        <time>2018-07-02T13:45:47Z</time>
      </trkpt>
      <trkpt lat="46.343929" lon="6.727887">
        <ele>1809.849</ele>
        <time>2018-07-02T13:45:53Z</time>
      </trkpt>
      <trkpt lat="46.343920" lon="6.727958">
        <ele>1810.955</ele>
        <time>2018-07-02T13:46:05Z</time>
      </trkpt>
      <trkpt lat="46.343916" lon="6.728024">
        <ele>1811.797</ele>
        <time>2018-07-02T13:48:36Z</time>
      </trkpt>
      <trkpt lat="46.343955" lon="6.727980">
        <ele>1809.643</ele>
        <time>2018-07-02T13:48:52Z</time>
      </trkpt>
      <trkpt lat="46.343989" lon="6.728044">
        <ele>1808.995</ele>
        <time>2018-07-02T13:48:57Z</time>
      </trkpt>
      <trkpt lat="46.344016" lon="6.728097">
        <ele>1808.722</ele>
        <time>2018-07-02T13:49:01Z</time>
      </trkpt>
      <trkpt lat="46.344028" lon="6.728165">
        <ele>1809.568</ele>
        <time>2018-07-02T13:49:09Z</time>
      </trkpt>
      <trkpt lat="46.344046" lon="6.728226">
        <ele>1810.073</ele>
        <time>2018-07-02T13:49:14Z</time>
      </trkpt>
      <trkpt lat="46.344069" lon="6.728287">
        <ele>1810.599</ele>
        <time>2018-07-02T13:49:19Z</time>
      </trkpt>
      <trkpt lat="46.344107" lon="6.728335">
        <ele>1810.507</ele>
        <time>2018-07-02T13:49:22Z</time>
      </trkpt>
      <trkpt lat="46.344143" lon="6.728383">
        <ele>1810.627</ele>
        <time>2018-07-02T13:49:27Z</time>
      </trkpt>
      <trkpt lat="46.344166" lon="6.728442">
        <ele>1811.408</ele>
        <time>2018-07-02T13:49:32Z</time>
      </trkpt>
      <trkpt lat="46.344160" lon="6.728511">
        <ele>1813.011</ele>
        <time>2018-07-02T13:49:40Z</time>
      </trkpt>
      <trkpt lat="46.344184" lon="6.728577">
        <ele>1813.047</ele>
        <time>2018-07-02T13:49:45Z</time>
      </trkpt>
      <trkpt lat="46.344217" lon="6.728635">
        <ele>1811.829</ele>
        <time>2018-07-02T13:49:50Z</time>
      </trkpt>
      <trkpt lat="46.344212" lon="6.728703">
        <ele>1813.565</ele>
        <time>2018-07-02T13:49:56Z</time>
      </trkpt>
      <trkpt lat="46.344215" lon="6.728776">
        <ele>1814.717</ele>
        <time>2018-07-02T13:50:03Z</time>
      </trkpt>
      <trkpt lat="46.344235" lon="6.728838">
        <ele>1814.614</ele>
        <time>2018-07-02T13:50:08Z</time>
      </trkpt>
      <trkpt lat="46.344277" lon="6.728886">
        <ele>1812.820</ele>
        <time>2018-07-02T13:50:12Z</time>
      </trkpt>
      <trkpt lat="46.344293" lon="6.728952">
        <ele>1812.495</ele>
        <time>2018-07-02T13:50:17Z</time>
      </trkpt>
      <trkpt lat="46.344302" lon="6.729029">
        <ele>1812.588</ele>
        <time>2018-07-02T13:50:22Z</time>
      </trkpt>
      <trkpt lat="46.344333" lon="6.729085">
        <ele>1810.824</ele>
        <time>2018-07-02T13:50:26Z</time>
      </trkpt>
      <trkpt lat="46.344370" lon="6.729136">
        <ele>1808.426</ele>
        <time>2018-07-02T13:50:30Z</time>
      </trkpt>
      <trkpt lat="46.344380" lon="6.729207">
        <ele>1808.208</ele>
        <time>2018-07-02T13:50:36Z</time>
      </trkpt>
      <trkpt lat="46.344394" lon="6.729271">
        <ele>1807.730</ele>
        <time>2018-07-02T13:50:42Z</time>
      </trkpt>
      <trkpt lat="46.344414" lon="6.729332">
        <ele>1806.696</ele>
        <time>2018-07-02T13:50:47Z</time>
      </trkpt>
      <trkpt lat="46.344448" lon="6.729396">
        <ele>1804.318</ele>
        <time>2018-07-02T13:50:52Z</time>
      </trkpt>
      <trkpt lat="46.344494" lon="6.729433">
        <ele>1799.874</ele>
        <time>2018-07-02T13:50:55Z</time>
      </trkpt>
      <trkpt lat="46.344529" lon="6.729480">
        <ele>1796.626</ele>
        <time>2018-07-02T13:50:59Z</time>
      </trkpt>
      <trkpt lat="46.344565" lon="6.729535">
        <ele>1793.323</ele>
        <time>2018-07-02T13:51:04Z</time>
      </trkpt>
      <trkpt lat="46.344579" lon="6.729603">
        <ele>1792.469</ele>
        <time>2018-07-02T13:51:09Z</time>
      </trkpt>
      <trkpt lat="46.344596" lon="6.729674">
        <ele>1791.114</ele>
        <time>2018-07-02T13:51:16Z</time>
      </trkpt>
      <trkpt lat="46.344605" lon="6.729745">
        <ele>1790.564</ele>
        <time>2018-07-02T13:51:22Z</time>
      </trkpt>
      <trkpt lat="46.344653" lon="6.729796">
        <ele>1784.906</ele>
        <time>2018-07-02T13:51:27Z</time>
      </trkpt>
      <trkpt lat="46.344638" lon="6.729864">
        <ele>1787.116</ele>
        <time>2018-07-02T13:51:32Z</time>
      </trkpt>
      <trkpt lat="46.344631" lon="6.729935">
        <ele>1788.408</ele>
        <time>2018-07-02T13:51:37Z</time>
      </trkpt>
      <trkpt lat="46.344653" lon="6.729997">
        <ele>1786.028</ele>
        <time>2018-07-02T13:51:41Z</time>
      </trkpt>
      <trkpt lat="46.344681" lon="6.730057">
        <ele>1782.774</ele>
        <time>2018-07-02T13:51:48Z</time>
      </trkpt>
      <trkpt lat="46.344706" lon="6.730130">
        <ele>1780.036</ele>
        <time>2018-07-02T13:51:53Z</time>
      </trkpt>
      <trkpt lat="46.344762" lon="6.730145">
        <ele>1774.582</ele>
        <time>2018-07-02T13:51:55Z</time>
      </trkpt>
      <trkpt lat="46.344702" lon="6.730194">
        <ele>1781.014</ele>
        <time>2018-07-02T13:52:00Z</time>
      </trkpt>
      <trkpt lat="46.344649" lon="6.730207">
        <ele>1787.841</ele>
        <time>2018-07-02T13:52:02Z</time>
      </trkpt>
      <trkpt lat="46.344693" lon="6.730236">
        <ele>1782.427</ele>
        <time>2018-07-02T13:52:09Z</time>
      </trkpt>
      <trkpt lat="46.344700" lon="6.730301">
        <ele>1781.942</ele>
        <time>2018-07-02T13:52:13Z</time>
      </trkpt>
      <trkpt lat="46.344741" lon="6.730354">
        <ele>1778.049</ele>
        <time>2018-07-02T13:52:17Z</time>
      </trkpt>
      <trkpt lat="46.344726" lon="6.730420">
        <ele>1779.702</ele>
        <time>2018-07-02T13:52:21Z</time>
      </trkpt>
      <trkpt lat="46.344691" lon="6.730466">
        <ele>1784.022</ele>
        <time>2018-07-02T13:52:23Z</time>
      </trkpt>
      <trkpt lat="46.344676" lon="6.730533">
        <ele>1786.008</ele>
        <time>2018-07-02T13:52:32Z</time>
      </trkpt>
      <trkpt lat="46.344718" lon="6.730558">
        <ele>1781.516</ele>
        <time>2018-07-02T13:52:39Z</time>
      </trkpt>
      <trkpt lat="46.344739" lon="6.730619">
        <ele>1780.232</ele>
        <time>2018-07-02T13:52:48Z</time>
      </trkpt>
      <trkpt lat="46.344802" lon="6.730619">
        <ele>1775.344</ele>
        <time>2018-07-02T13:52:50Z</time>
      </trkpt>
      <trkpt lat="46.344788" lon="6.730682">
        <ele>1776.910</ele>
        <time>2018-07-02T13:52:59Z</time>
      </trkpt>
      <trkpt lat="46.344736" lon="6.730689">
        <ele>1780.982</ele>
        <time>2018-07-02T13:53:08Z</time>
      </trkpt>
      <trkpt lat="46.344699" lon="6.730734">
        <ele>1784.689</ele>
        <time>2018-07-02T13:53:16Z</time>
      </trkpt>
      <trkpt lat="46.344734" lon="6.730784">
        <ele>1781.885</ele>
        <time>2018-07-02T13:53:21Z</time>
      </trkpt>
      <trkpt lat="46.344777" lon="6.730803">
        <ele>1778.860</ele>
        <time>2018-07-02T13:53:24Z</time>
      </trkpt>
      <trkpt lat="46.344818" lon="6.730850">
        <ele>1776.048</ele>
        <time>2018-07-02T13:53:30Z</time>
      </trkpt>
      <trkpt lat="46.344871" lon="6.730869">
        <ele>1772.261</ele>
        <time>2018-07-02T13:53:33Z</time>
      </trkpt>
      <trkpt lat="46.344842" lon="6.730933">
        <ele>1774.117</ele>
        <time>2018-07-02T13:53:43Z</time>
      </trkpt>
      <trkpt lat="46.344906" lon="6.730985">
        <ele>1769.908</ele>
        <time>2018-07-02T13:53:49Z</time>
      </trkpt>
      <trkpt lat="46.344893" lon="6.731050">
        <ele>1770.836</ele>
        <time>2018-07-02T13:53:57Z</time>
      </trkpt>
      <trkpt lat="46.344846" lon="6.731079">
        <ele>1773.472</ele>
        <time>2018-07-02T13:54:02Z</time>
      </trkpt>
      <trkpt lat="46.344884" lon="6.731120">
        <ele>1771.234</ele>
        <time>2018-07-02T13:54:07Z</time>
      </trkpt>
      <trkpt lat="46.344875" lon="6.731184">
        <ele>1771.410</ele>
        <time>2018-07-02T13:54:14Z</time>
      </trkpt>
      <trkpt lat="46.344831" lon="6.731217">
        <ele>1773.512</ele>
        <time>2018-07-02T13:54:17Z</time>
      </trkpt>
      <trkpt lat="46.344790" lon="6.731257">
        <ele>1775.499</ele>
        <time>2018-07-02T13:54:19Z</time>
      </trkpt>
      <trkpt lat="46.344833" lon="6.731303">
        <ele>1772.925</ele>
        <time>2018-07-02T13:54:24Z</time>
      </trkpt>
      <trkpt lat="46.344882" lon="6.731327">
        <ele>1770.390</ele>
        <time>2018-07-02T13:54:29Z</time>
      </trkpt>
      <trkpt lat="46.344867" lon="6.731393">
        <ele>1770.739</ele>
        <time>2018-07-02T13:54:34Z</time>
      </trkpt>
      <trkpt lat="46.344879" lon="6.731463">
        <ele>1769.901</ele>
        <time>2018-07-02T13:54:41Z</time>
      </trkpt>
      <trkpt lat="46.344875" lon="6.731528">
        <ele>1769.821</ele>
        <time>2018-07-02T13:54:46Z</time>
      </trkpt>
      <trkpt lat="46.344886" lon="6.731597">
        <ele>1769.108</ele>
        <time>2018-07-02T13:54:55Z</time>
      </trkpt>
      <trkpt lat="46.344867" lon="6.731660">
        <ele>1769.895</ele>
        <time>2018-07-02T13:55:00Z</time>
      </trkpt>
      <trkpt lat="46.344911" lon="6.731679">
        <ele>1767.891</ele>
        <time>2018-07-02T13:55:17Z</time>
      </trkpt>
      <trkpt lat="46.344963" lon="6.731688">
        <ele>1765.673</ele>
        <time>2018-07-02T13:55:29Z</time>
      </trkpt>
      <trkpt lat="46.345012" lon="6.731724">
        <ele>1763.879</ele>
        <time>2018-07-02T13:55:33Z</time>
      </trkpt>
      <trkpt lat="46.345067" lon="6.731756">
        <ele>1763.031</ele>
        <time>2018-07-02T13:55:36Z</time>
      </trkpt>
      <trkpt lat="46.345118" lon="6.731784">
        <ele>1762.198</ele>
        <time>2018-07-02T13:55:38Z</time>
      </trkpt>
      <trkpt lat="46.345174" lon="6.731784">
        <ele>1761.244</ele>
        <time>2018-07-02T13:55:40Z</time>
      </trkpt>
      <trkpt lat="46.345129" lon="6.731805">
        <ele>1761.999</ele>
        <time>2018-07-02T13:55:44Z</time>
      </trkpt>
      <trkpt lat="46.345123" lon="6.731904">
        <ele>1761.852</ele>
        <time>2018-07-02T13:57:15Z</time>
      </trkpt>
      <trkpt lat="46.345159" lon="6.731964">
        <ele>1760.953</ele>
        <time>2018-07-02T13:57:21Z</time>
      </trkpt>
      <trkpt lat="46.345231" lon="6.731986">
        <ele>1759.208</ele>
        <time>2018-07-02T13:57:23Z</time>
      </trkpt>
      <trkpt lat="46.345268" lon="6.732036">
        <ele>1757.608</ele>
        <time>2018-07-02T13:57:27Z</time>
      </trkpt>
      <trkpt lat="46.345308" lon="6.732093">
        <ele>1756.097</ele>
        <time>2018-07-02T13:57:33Z</time>
      </trkpt>
      <trkpt lat="46.345340" lon="6.732140">
        <ele>1754.863</ele>
        <time>2018-07-02T13:57:39Z</time>
      </trkpt>
      <trkpt lat="46.345405" lon="6.732147">
        <ele>1754.135</ele>
        <time>2018-07-02T13:57:45Z</time>
      </trkpt>
      <trkpt lat="46.345465" lon="6.732138">
        <ele>1753.651</ele>
        <time>2018-07-02T13:57:48Z</time>
      </trkpt>
      <trkpt lat="46.345430" lon="6.732200">
        <ele>1753.273</ele>
        <time>2018-07-02T13:57:55Z</time>
      </trkpt>
      <trkpt lat="46.345445" lon="6.732277">
        <ele>1752.210</ele>
        <time>2018-07-02T13:58:05Z</time>
      </trkpt>
      <trkpt lat="46.345487" lon="6.732328">
        <ele>1751.546</ele>
        <time>2018-07-02T13:58:09Z</time>
      </trkpt>
      <trkpt lat="46.345552" lon="6.732351">
        <ele>1751.161</ele>
        <time>2018-07-02T13:58:12Z</time>
      </trkpt>
      <trkpt lat="46.345599" lon="6.732332">
        <ele>1751.035</ele>
        <time>2018-07-02T13:58:17Z</time>
      </trkpt>
      <trkpt lat="46.345617" lon="6.732268">
        <ele>1751.386</ele>
        <time>2018-07-02T13:58:23Z</time>
      </trkpt>
      <trkpt lat="46.345622" lon="6.732183">
        <ele>1751.714</ele>
        <time>2018-07-02T13:58:27Z</time>
      </trkpt>
      <trkpt lat="46.345630" lon="6.732111">
        <ele>1752.008</ele>
        <time>2018-07-02T13:58:30Z</time>
      </trkpt>
      <trkpt lat="46.345644" lon="6.732042">
        <ele>1752.255</ele>
        <time>2018-07-02T13:58:34Z</time>
      </trkpt>
      <trkpt lat="46.345628" lon="6.731971">
        <ele>1752.871</ele>
        <time>2018-07-02T13:58:39Z</time>
      </trkpt>
      <trkpt lat="46.345631" lon="6.731890">
        <ele>1752.973</ele>
        <time>2018-07-02T13:58:42Z</time>
      </trkpt>
      <trkpt lat="46.345639" lon="6.731818">
        <ele>1752.829</ele>
        <time>2018-07-02T13:58:47Z</time>
      </trkpt>
      <trkpt lat="46.345640" lon="6.731722">
        <ele>1752.891</ele>
        <time>2018-07-02T13:58:49Z</time>
      </trkpt>
      <trkpt lat="46.345691" lon="6.731723">
        <ele>1752.088</ele>
        <time>2018-07-02T13:58:57Z</time>
      </trkpt>
      <trkpt lat="46.345710" lon="6.731785">
        <ele>1751.864</ele>
        <time>2018-07-02T13:59:16Z</time>
      </trkpt>
      <trkpt lat="46.345761" lon="6.731799">
        <ele>1751.089</ele>
        <time>2018-07-02T13:59:21Z</time>
      </trkpt>
      <trkpt lat="46.345807" lon="6.731812">
        <ele>1750.412</ele>
        <time>2018-07-02T13:59:25Z</time>
      </trkpt>
      <trkpt lat="46.345848" lon="6.731850">
        <ele>1750.032</ele>
        <time>2018-07-02T13:59:28Z</time>
      </trkpt>
      <trkpt lat="46.345899" lon="6.731888">
        <ele>1750.005</ele>
        <time>2018-07-02T13:59:32Z</time>
      </trkpt>
      <trkpt lat="46.345944" lon="6.731912">
        <ele>1750.008</ele>
        <time>2018-07-02T13:59:36Z</time>
      </trkpt>
      <trkpt lat="46.345989" lon="6.731928">
        <ele>1750.043</ele>
        <time>2018-07-02T13:59:40Z</time>
      </trkpt>
      <trkpt lat="46.346032" lon="6.731958">
        <ele>1750.099</ele>
        <time>2018-07-02T13:59:47Z</time>
      </trkpt>
      <trkpt lat="46.346085" lon="6.731971">
        <ele>1750.061</ele>
        <time>2018-07-02T13:59:51Z</time>
      </trkpt>
      <trkpt lat="46.346145" lon="6.731988">
        <ele>1750.377</ele>
        <time>2018-07-02T13:59:54Z</time>
      </trkpt>
      <trkpt lat="46.346190" lon="6.732011">
        <ele>1750.669</ele>
        <time>2018-07-02T13:59:56Z</time>
      </trkpt>
      <trkpt lat="46.346234" lon="6.732029">
        <ele>1750.936</ele>
        <time>2018-07-02T13:59:59Z</time>
      </trkpt>
      <trkpt lat="46.346274" lon="6.732062">
        <ele>1751.012</ele>
        <time>2018-07-02T14:00:01Z</time>
      </trkpt>
      <trkpt lat="46.346229" lon="6.732037">
        <ele>1750.837</ele>
        <time>2018-07-02T14:00:12Z</time>
      </trkpt>
      <trkpt lat="46.346275" lon="6.732047">
        <ele>1751.151</ele>
        <time>2018-07-02T14:00:33Z</time>
      </trkpt>
      <trkpt lat="46.346325" lon="6.732062">
        <ele>1751.301</ele>
        <time>2018-07-02T14:00:38Z</time>
      </trkpt>
      <trkpt lat="46.346369" lon="6.732104">
        <ele>1751.211</ele>
        <time>2018-07-02T14:00:41Z</time>
      </trkpt>
      <trkpt lat="46.346421" lon="6.732129">
        <ele>1751.908</ele>
        <time>2018-07-02T14:00:52Z</time>
      </trkpt>
      <trkpt lat="46.346464" lon="6.732150">
        <ele>1752.877</ele>
        <time>2018-07-02T14:00:56Z</time>
      </trkpt>
      <trkpt lat="46.346511" lon="6.732168">
        <ele>1753.983</ele>
        <time>2018-07-02T14:01:00Z</time>
      </trkpt>
      <trkpt lat="46.346560" lon="6.732183">
        <ele>1755.215</ele>
        <time>2018-07-02T14:01:03Z</time>
      </trkpt>
      <trkpt lat="46.346609" lon="6.732215">
        <ele>1756.461</ele>
        <time>2018-07-02T14:01:09Z</time>
      </trkpt>
      <trkpt lat="46.346623" lon="6.732279">
        <ele>1756.163</ele>
        <time>2018-07-02T14:01:15Z</time>
      </trkpt>
      <trkpt lat="46.346655" lon="6.732325">
        <ele>1756.270</ele>
        <time>2018-07-02T14:01:21Z</time>
      </trkpt>
      <trkpt lat="46.346699" lon="6.732368">
        <ele>1756.166</ele>
        <time>2018-07-02T14:01:28Z</time>
      </trkpt>
      <trkpt lat="46.346744" lon="6.732399">
        <ele>1756.211</ele>
        <time>2018-07-02T14:01:35Z</time>
      </trkpt>
      <trkpt lat="46.346754" lon="6.732469">
        <ele>1755.671</ele>
        <time>2018-07-02T14:01:42Z</time>
      </trkpt>
      <trkpt lat="46.346789" lon="6.732519">
        <ele>1755.741</ele>
        <time>2018-07-02T14:01:50Z</time>
      </trkpt>
      <trkpt lat="46.346766" lon="6.732576">
        <ele>1755.015</ele>
        <time>2018-07-02T14:01:54Z</time>
      </trkpt>
      <trkpt lat="46.346802" lon="6.732635">
        <ele>1755.208</ele>
        <time>2018-07-02T14:01:58Z</time>
      </trkpt>
      <trkpt lat="46.346834" lon="6.732693">
        <ele>1755.479</ele>
        <time>2018-07-02T14:02:02Z</time>
      </trkpt>
      <trkpt lat="46.346868" lon="6.732739">
        <ele>1755.895</ele>
        <time>2018-07-02T14:02:06Z</time>
      </trkpt>
      <trkpt lat="46.346856" lon="6.732815">
        <ele>1755.527</ele>
        <time>2018-07-02T14:02:17Z</time>
      </trkpt>
      <trkpt lat="46.346807" lon="6.732855">
        <ele>1754.893</ele>
        <time>2018-07-02T14:02:21Z</time>
      </trkpt>
      <trkpt lat="46.346835" lon="6.732910">
        <ele>1755.435</ele>
        <time>2018-07-02T14:02:28Z</time>
      </trkpt>
      <trkpt lat="46.346806" lon="6.732963">
        <ele>1755.232</ele>
        <time>2018-07-02T14:02:32Z</time>
      </trkpt>
      <trkpt lat="46.346828" lon="6.733029">
        <ele>1755.718</ele>
        <time>2018-07-02T14:02:38Z</time>
      </trkpt>
      <trkpt lat="46.346805" lon="6.733092">
        <ele>1755.943</ele>
        <time>2018-07-02T14:02:44Z</time>
      </trkpt>
      <trkpt lat="46.346762" lon="6.733135">
        <ele>1756.117</ele>
        <time>2018-07-02T14:02:47Z</time>
      </trkpt>
      <trkpt lat="46.346726" lon="6.733182">
        <ele>1756.587</ele>
        <time>2018-07-02T14:02:52Z</time>
      </trkpt>
      <trkpt lat="46.346800" lon="6.733140">
        <ele>1756.415</ele>
        <time>2018-07-02T14:03:03Z</time>
      </trkpt>
      <trkpt lat="46.346786" lon="6.733161">
        <ele>1756.508</ele>
        <time>2018-07-02T14:18:24Z</time>
      </trkpt>
      <trkpt lat="46.346817" lon="6.733214">
        <ele>1757.213</ele>
        <time>2018-07-02T14:18:38Z</time>
      </trkpt>
      <trkpt lat="46.346789" lon="6.733273">
        <ele>1757.989</ele>
        <time>2018-07-02T14:18:43Z</time>
      </trkpt>
      <trkpt lat="46.346783" lon="6.733349">
        <ele>1758.851</ele>
        <time>2018-07-02T14:18:49Z</time>
      </trkpt>
      <trkpt lat="46.346787" lon="6.733416">
        <ele>1759.727</ele>
        <time>2018-07-02T14:18:55Z</time>
      </trkpt>
      <trkpt lat="46.346749" lon="6.733463">
        <ele>1760.439</ele>
        <time>2018-07-02T14:19:01Z</time>
      </trkpt>
      <trkpt lat="46.346754" lon="6.733530">
        <ele>1761.316</ele>
        <time>2018-07-02T14:19:14Z</time>
      </trkpt>
      <trkpt lat="46.346748" lon="6.733633">
        <ele>1762.672</ele>
        <time>2018-07-02T14:19:48Z</time>
      </trkpt>
      <trkpt lat="46.346759" lon="6.733706">
        <ele>1763.857</ele>
        <time>2018-07-02T14:19:54Z</time>
      </trkpt>
      <trkpt lat="46.346761" lon="6.733772">
        <ele>1764.989</ele>
        <time>2018-07-02T14:19:58Z</time>
      </trkpt>
      <trkpt lat="46.346742" lon="6.733860">
        <ele>1766.106</ele>
        <time>2018-07-02T14:20:02Z</time>
      </trkpt>
      <trkpt lat="46.346733" lon="6.733943">
        <ele>1767.326</ele>
        <time>2018-07-02T14:21:09Z</time>
      </trkpt>
      <trkpt lat="46.346716" lon="6.734021">
        <ele>1768.308</ele>
        <time>2018-07-02T14:21:13Z</time>
      </trkpt>
      <trkpt lat="46.346718" lon="6.734092">
        <ele>1769.360</ele>
        <time>2018-07-02T14:21:16Z</time>
      </trkpt>
      <trkpt lat="46.346696" lon="6.734176">
        <ele>1770.346</ele>
        <time>2018-07-02T14:21:20Z</time>
      </trkpt>
      <trkpt lat="46.346675" lon="6.734239">
        <ele>1770.988</ele>
        <time>2018-07-02T14:21:23Z</time>
      </trkpt>
      <trkpt lat="46.346663" lon="6.734326">
        <ele>1771.724</ele>
        <time>2018-07-02T14:21:26Z</time>
      </trkpt>
      <trkpt lat="46.346669" lon="6.734396">
        <ele>1772.566</ele>
        <time>2018-07-02T14:21:29Z</time>
      </trkpt>
      <trkpt lat="46.346669" lon="6.734464">
        <ele>1773.363</ele>
        <time>2018-07-02T14:21:34Z</time>
      </trkpt>
      <trkpt lat="46.346632" lon="6.734525">
        <ele>1773.449</ele>
        <time>2018-07-02T14:21:39Z</time>
      </trkpt>
      <trkpt lat="46.346624" lon="6.734601">
        <ele>1774.034</ele>
        <time>2018-07-02T14:21:44Z</time>
      </trkpt>
      <trkpt lat="46.346649" lon="6.734688">
        <ele>1775.384</ele>
        <time>2018-07-02T14:21:49Z</time>
      </trkpt>
      <trkpt lat="46.346633" lon="6.734751">
        <ele>1775.707</ele>
        <time>2018-07-02T14:21:52Z</time>
      </trkpt>
      <trkpt lat="46.346615" lon="6.734816">
        <ele>1776.317</ele>
        <time>2018-07-02T14:21:59Z</time>
      </trkpt>
      <trkpt lat="46.346637" lon="6.734882">
        <ele>1778.008</ele>
        <time>2018-07-02T14:22:03Z</time>
      </trkpt>
      <trkpt lat="46.346667" lon="6.734933">
        <ele>1779.840</ele>
        <time>2018-07-02T14:22:09Z</time>
      </trkpt>
      <trkpt lat="46.346625" lon="6.734958">
        <ele>1778.866</ele>
        <time>2018-07-02T14:22:21Z</time>
      </trkpt>
      <trkpt lat="46.346594" lon="6.735011">
        <ele>1778.638</ele>
        <time>2018-07-02T14:22:38Z</time>
      </trkpt>
      <trkpt lat="46.346613" lon="6.735078">
        <ele>1780.564</ele>
        <time>2018-07-02T14:22:46Z</time>
      </trkpt>
      <trkpt lat="46.346608" lon="6.735146">
        <ele>1781.566</ele>
        <time>2018-07-02T14:22:50Z</time>
      </trkpt>
      <trkpt lat="46.346605" lon="6.735216">
        <ele>1782.723</ele>
        <time>2018-07-02T14:23:02Z</time>
      </trkpt>
      <trkpt lat="46.346628" lon="6.735275">
        <ele>1784.699</ele>
        <time>2018-07-02T14:23:12Z</time>
      </trkpt>
      <trkpt lat="46.346607" lon="6.735340">
        <ele>1785.094</ele>
        <time>2018-07-02T14:23:23Z</time>
      </trkpt>
      <trkpt lat="46.346596" lon="6.735410">
        <ele>1786.097</ele>
        <time>2018-07-02T14:23:32Z</time>
      </trkpt>
      <trkpt lat="46.346597" lon="6.735477">
        <ele>1787.323</ele>
        <time>2018-07-02T14:23:44Z</time>
      </trkpt>
      <trkpt lat="46.346576" lon="6.735535">
        <ele>1787.725</ele>
        <time>2018-07-02T14:24:20Z</time>
      </trkpt>
      <trkpt lat="46.346563" lon="6.735602">
        <ele>1788.708</ele>
        <time>2018-07-02T14:24:24Z</time>
      </trkpt>
      <trkpt lat="46.346552" lon="6.735667">
        <ele>1789.911</ele>
        <time>2018-07-02T14:24:28Z</time>
      </trkpt>
      <trkpt lat="46.346547" lon="6.735735">
        <ele>1791.497</ele>
        <time>2018-07-02T14:25:14Z</time>
      </trkpt>
      <trkpt lat="46.346535" lon="6.735805">
        <ele>1792.679</ele>
        <time>2018-07-02T14:25:18Z</time>
      </trkpt>
      <trkpt lat="46.346545" lon="6.735873">
        <ele>1794.565</ele>
        <time>2018-07-02T14:25:22Z</time>
      </trkpt>
      <trkpt lat="46.346540" lon="6.735948">
        <ele>1796.077</ele>
        <time>2018-07-02T14:25:28Z</time>
      </trkpt>
      <trkpt lat="46.346547" lon="6.736018">
        <ele>1797.884</ele>
        <time>2018-07-02T14:25:33Z</time>
      </trkpt>
      <trkpt lat="46.346518" lon="6.736077">
        <ele>1797.850</ele>
        <time>2018-07-02T14:25:39Z</time>
      </trkpt>
      <trkpt lat="46.346507" lon="6.736147">
        <ele>1798.735</ele>
        <time>2018-07-02T14:25:43Z</time>
      </trkpt>
      <trkpt lat="46.346501" lon="6.736216">
        <ele>1799.642</ele>
        <time>2018-07-02T14:25:54Z</time>
      </trkpt>
      <trkpt lat="46.346493" lon="6.736287">
        <ele>1800.422</ele>
        <time>2018-07-02T14:25:59Z</time>
      </trkpt>
      <trkpt lat="46.346467" lon="6.736346">
        <ele>1800.414</ele>
        <time>2018-07-02T14:26:04Z</time>
      </trkpt>
      <trkpt lat="46.346469" lon="6.736452">
        <ele>1801.808</ele>
        <time>2018-07-02T14:26:49Z</time>
      </trkpt>
      <trkpt lat="46.346455" lon="6.736524">
        <ele>1801.866</ele>
        <time>2018-07-02T14:26:50Z</time>
      </trkpt>
      <trkpt lat="46.346427" lon="6.736586">
        <ele>1801.152</ele>
        <time>2018-07-02T14:26:56Z</time>
      </trkpt>
      <trkpt lat="46.346491" lon="6.736614">
        <ele>1804.324</ele>
        <time>2018-07-02T14:26:59Z</time>
      </trkpt>
      <trkpt lat="46.346524" lon="6.736660">
        <ele>1806.360</ele>
        <time>2018-07-02T14:27:06Z</time>
      </trkpt>
      <trkpt lat="46.346550" lon="6.736757">
        <ele>1808.422</ele>
        <time>2018-07-02T14:28:17Z</time>
      </trkpt>
      <trkpt lat="46.346572" lon="6.736840">
        <ele>1810.219</ele>
        <time>2018-07-02T14:28:23Z</time>
      </trkpt>
      <trkpt lat="46.346613" lon="6.736908">
        <ele>1812.965</ele>
        <time>2018-07-02T14:28:26Z</time>
      </trkpt>
      <trkpt lat="46.346640" lon="6.736981">
        <ele>1815.140</ele>
        <time>2018-07-02T14:28:28Z</time>
      </trkpt>
      <trkpt lat="46.346653" lon="6.737053">
        <ele>1816.549</ele>
        <time>2018-07-02T14:28:31Z</time>
      </trkpt>
      <trkpt lat="46.346644" lon="6.737119">
        <ele>1816.802</ele>
        <time>2018-07-02T14:28:41Z</time>
      </trkpt>
      <trkpt lat="46.346681" lon="6.737169">
        <ele>1820.022</ele>
        <time>2018-07-02T14:28:46Z</time>
      </trkpt>
      <trkpt lat="46.346631" lon="6.737066">
        <ele>1815.608</ele>
        <time>2018-07-02T14:28:53Z</time>
      </trkpt>
      <trkpt lat="46.346640" lon="6.737134">
        <ele>1816.886</ele>
        <time>2018-07-02T14:29:02Z</time>
      </trkpt>
      <trkpt lat="46.346610" lon="6.737180">
        <ele>1815.932</ele>
        <time>2018-07-02T14:38:15Z</time>
      </trkpt>
      <trkpt lat="46.346568" lon="6.737109">
        <ele>1813.054</ele>
        <time>2018-07-02T14:39:30Z</time>
      </trkpt>
      <trkpt lat="46.346567" lon="6.737174">
        <ele>1813.880</ele>
        <time>2018-07-02T14:39:43Z</time>
      </trkpt>
      <trkpt lat="46.346585" lon="6.737235">
        <ele>1815.332</ele>
        <time>2018-07-02T14:39:54Z</time>
      </trkpt>
      <trkpt lat="46.346602" lon="6.737299">
        <ele>1816.599</ele>
        <time>2018-07-02T14:40:13Z</time>
      </trkpt>
      <trkpt lat="46.346621" lon="6.737361">
        <ele>1817.955</ele>
        <time>2018-07-02T14:40:28Z</time>
      </trkpt>
      <trkpt lat="46.346652" lon="6.737424">
        <ele>1819.820</ele>
        <time>2018-07-02T14:40:41Z</time>
      </trkpt>
      <trkpt lat="46.346681" lon="6.737477">
        <ele>1822.763</ele>
        <time>2018-07-02T14:40:52Z</time>
      </trkpt>
      <trkpt lat="46.346702" lon="6.737536">
        <ele>1826.044</ele>
        <time>2018-07-02T14:41:06Z</time>
      </trkpt>
      <trkpt lat="46.346693" lon="6.737608">
        <ele>1825.218</ele>
        <time>2018-07-02T14:41:13Z</time>
      </trkpt>
      <trkpt lat="46.346696" lon="6.737673">
        <ele>1826.108</ele>
        <time>2018-07-02T14:41:18Z</time>
      </trkpt>
      <trkpt lat="46.346685" lon="6.737737">
        <ele>1824.748</ele>
        <time>2018-07-02T14:41:23Z</time>
      </trkpt>
      <trkpt lat="46.346693" lon="6.737802">
        <ele>1827.024</ele>
        <time>2018-07-02T14:41:27Z</time>
      </trkpt>
      <trkpt lat="46.346704" lon="6.737867">
        <ele>1831.026</ele>
        <time>2018-07-02T14:41:32Z</time>
      </trkpt>
      <trkpt lat="46.346718" lon="6.737930">
        <ele>1835.782</ele>
        <time>2018-07-02T14:41:40Z</time>
      </trkpt>
      <trkpt lat="46.346726" lon="6.737996">
        <ele>1839.624</ele>
        <time>2018-07-02T14:41:49Z</time>
      </trkpt>
      <trkpt lat="46.346715" lon="6.738066">
        <ele>1840.211</ele>
        <time>2018-07-02T14:41:56Z</time>
      </trkpt>
      <trkpt lat="46.346729" lon="6.738129">
        <ele>1846.667</ele>
        <time>2018-07-02T14:42:07Z</time>
      </trkpt>
      <trkpt lat="46.346718" lon="6.738201">
        <ele>1848.532</ele>
        <time>2018-07-02T14:42:14Z</time>
      </trkpt>
      <trkpt lat="46.346684" lon="6.738250">
        <ele>1844.275</ele>
        <time>2018-07-02T14:42:25Z</time>
      </trkpt>
      <trkpt lat="46.346647" lon="6.738287">
        <ele>1840.928</ele>
        <time>2018-07-02T14:42:36Z</time>
      </trkpt>
      <trkpt lat="46.346623" lon="6.738347">
        <ele>1842.020</ele>
        <time>2018-07-02T14:42:48Z</time>
      </trkpt>
      <trkpt lat="46.346612" lon="6.738417">
        <ele>1844.708</ele>
        <time>2018-07-02T14:42:59Z</time>
      </trkpt>
      <trkpt lat="46.346599" lon="6.738484">
        <ele>1847.079</ele>
        <time>2018-07-02T14:43:08Z</time>
      </trkpt>
      <trkpt lat="46.346591" lon="6.738558">
        <ele>1850.255</ele>
        <time>2018-07-02T14:43:20Z</time>
      </trkpt>
      <trkpt lat="46.346563" lon="6.738613">
        <ele>1850.437</ele>
        <time>2018-07-02T14:43:33Z</time>
      </trkpt>
      <trkpt lat="46.346530" lon="6.738658">
        <ele>1849.793</ele>
        <time>2018-07-02T14:43:50Z</time>
      </trkpt>
      <trkpt lat="46.346520" lon="6.738723">
        <ele>1852.235</ele>
        <time>2018-07-02T14:44:09Z</time>
      </trkpt>
      <trkpt lat="46.346482" lon="6.738771">
        <ele>1850.842</ele>
        <time>2018-07-02T14:44:21Z</time>
      </trkpt>
      <trkpt lat="46.346460" lon="6.738829">
        <ele>1851.368</ele>
        <time>2018-07-02T14:44:32Z</time>
      </trkpt>
      <trkpt lat="46.346418" lon="6.738859">
        <ele>1848.053</ele>
        <time>2018-07-02T14:44:42Z</time>
      </trkpt>
      <trkpt lat="46.346449" lon="6.738908">
        <ele>1853.819</ele>
        <time>2018-07-02T14:45:24Z</time>
      </trkpt>
      <trkpt lat="46.346480" lon="6.738974">
        <ele>1860.809</ele>
        <time>2018-07-02T14:46:42Z</time>
      </trkpt>
      <trkpt lat="46.346453" lon="6.739034">
        <ele>1860.219</ele>
        <time>2018-07-02T14:46:53Z</time>
      </trkpt>
      <trkpt lat="46.346442" lon="6.739100">
        <ele>1861.808</ele>
        <time>2018-07-02T14:47:10Z</time>
      </trkpt>
      <trkpt lat="46.346416" lon="6.739155">
        <ele>1860.593</ele>
        <time>2018-07-02T14:47:25Z</time>
      </trkpt>
      <trkpt lat="46.346369" lon="6.739166">
        <ele>1856.759</ele>
        <time>2018-07-02T14:47:37Z</time>
      </trkpt>
      <trkpt lat="46.346322" lon="6.739176">
        <ele>1856.461</ele>
        <time>2018-07-02T14:48:00Z</time>
      </trkpt>
      <trkpt lat="46.346291" lon="6.739226">
        <ele>1857.997</ele>
        <time>2018-07-02T14:48:14Z</time>
      </trkpt>
      <trkpt lat="46.346292" lon="6.739294">
        <ele>1860.519</ele>
        <time>2018-07-02T14:48:28Z</time>
      </trkpt>
      <trkpt lat="46.346243" lon="6.739273">
        <ele>1858.746</ele>
        <time>2018-07-02T14:49:48Z</time>
      </trkpt>
      <trkpt lat="46.346226" lon="6.739334">
        <ele>1860.562</ele>
        <time>2018-07-02T14:50:01Z</time>
      </trkpt>
      <trkpt lat="46.346207" lon="6.739396">
        <ele>1862.177</ele>
        <time>2018-07-02T14:50:16Z</time>
      </trkpt>
      <trkpt lat="46.346210" lon="6.739461">
        <ele>1864.315</ele>
        <time>2018-07-02T14:50:29Z</time>
      </trkpt>
      <trkpt lat="46.346215" lon="6.739529">
        <ele>1866.265</ele>
        <time>2018-07-02T14:50:45Z</time>
      </trkpt>
      <trkpt lat="46.346190" lon="6.739588">
        <ele>1866.811</ele>
        <time>2018-07-02T14:51:06Z</time>
      </trkpt>
      <trkpt lat="46.346170" lon="6.739647">
        <ele>1867.508</ele>
        <time>2018-07-02T14:51:51Z</time>
      </trkpt>
      <trkpt lat="46.346157" lon="6.739709">
        <ele>1868.593</ele>
        <time>2018-07-02T14:52:00Z</time>
      </trkpt>
      <trkpt lat="46.346160" lon="6.739775">
        <ele>1870.019</ele>
        <time>2018-07-02T14:52:12Z</time>
      </trkpt>
      <trkpt lat="46.346143" lon="6.739840">
        <ele>1870.611</ele>
        <time>2018-07-02T14:52:23Z</time>
      </trkpt>
      <trkpt lat="46.346136" lon="6.739909">
        <ele>1871.657</ele>
        <time>2018-07-02T14:52:34Z</time>
      </trkpt>
      <trkpt lat="46.346137" lon="6.739979">
        <ele>1873.069</ele>
        <time>2018-07-02T14:52:43Z</time>
      </trkpt>
      <trkpt lat="46.346122" lon="6.740044">
        <ele>1873.746</ele>
        <time>2018-07-02T14:53:08Z</time>
      </trkpt>
      <trkpt lat="46.346107" lon="6.740109">
        <ele>1874.642</ele>
        <time>2018-07-02T14:53:20Z</time>
      </trkpt>
      <trkpt lat="46.346105" lon="6.740182">
        <ele>1876.347</ele>
        <time>2018-07-02T14:53:36Z</time>
      </trkpt>
      <trkpt lat="46.346113" lon="6.740249">
        <ele>1878.414</ele>
        <time>2018-07-02T14:54:13Z</time>
      </trkpt>
      <trkpt lat="46.346128" lon="6.740312">
        <ele>1880.754</ele>
        <time>2018-07-02T14:54:27Z</time>
      </trkpt>
      <trkpt lat="46.346163" lon="6.740358">
        <ele>1884.009</ele>
        <time>2018-07-02T14:54:40Z</time>
      </trkpt>
      <trkpt lat="46.346161" lon="6.740425">
        <ele>1885.508</ele>
        <time>2018-07-02T14:54:55Z</time>
      </trkpt>
      <trkpt lat="46.346177" lon="6.740493">
        <ele>1888.413</ele>
        <time>2018-07-02T14:55:22Z</time>
      </trkpt>
      <trkpt lat="46.346199" lon="6.740554">
        <ele>1891.629</ele>
        <time>2018-07-02T14:55:35Z</time>
      </trkpt>
      <trkpt lat="46.346207" lon="6.740626">
        <ele>1894.611</ele>
        <time>2018-07-02T14:55:44Z</time>
      </trkpt>
      <trkpt lat="46.346173" lon="6.740619">
        <ele>1891.477</ele>
        <time>2018-07-02T14:56:37Z</time>
      </trkpt>
      <trkpt lat="46.346145" lon="6.740606">
        <ele>1888.679</ele>
        <time>2018-07-02T15:07:33Z</time>
      </trkpt>
      <trkpt lat="46.346163" lon="6.740682">
        <ele>1892.066</ele>
        <time>2018-07-02T15:07:45Z</time>
      </trkpt>
      <trkpt lat="46.346186" lon="6.740745">
        <ele>1896.172</ele>
        <time>2018-07-02T15:07:55Z</time>
      </trkpt>
      <trkpt lat="46.346188" lon="6.740813">
        <ele>1898.457</ele>
        <time>2018-07-02T15:08:04Z</time>
      </trkpt>
      <trkpt lat="46.346195" lon="6.740881">
        <ele>1901.677</ele>
        <time>2018-07-02T15:08:14Z</time>
      </trkpt>
      <trkpt lat="46.346187" lon="6.740957">
        <ele>1903.361</ele>
        <time>2018-07-02T15:08:25Z</time>
      </trkpt>
      <trkpt lat="46.346185" lon="6.741025">
        <ele>1905.427</ele>
        <time>2018-07-02T15:08:36Z</time>
      </trkpt>
      <trkpt lat="46.346192" lon="6.741105">
        <ele>1909.508</ele>
        <time>2018-07-02T15:08:59Z</time>
      </trkpt>
      <trkpt lat="46.346152" lon="6.741153">
        <ele>1904.819</ele>
        <time>2018-07-02T15:09:13Z</time>
      </trkpt>
      <trkpt lat="46.346118" lon="6.741200">
        <ele>1901.355</ele>
        <time>2018-07-02T15:09:24Z</time>
      </trkpt>
      <trkpt lat="46.346122" lon="6.741278">
        <ele>1905.617</ele>
        <time>2018-07-02T15:09:42Z</time>
      </trkpt>
      <trkpt lat="46.346127" lon="6.741346">
        <ele>1909.653</ele>
        <time>2018-07-02T15:10:11Z</time>
      </trkpt>
      <trkpt lat="46.346141" lon="6.741412">
        <ele>1915.225</ele>
        <time>2018-07-02T15:10:27Z</time>
      </trkpt>
      <trkpt lat="46.346133" lon="6.741478">
        <ele>1917.862</ele>
        <time>2018-07-02T15:10:45Z</time>
      </trkpt>
      <trkpt lat="46.346150" lon="6.741555">
        <ele>1924.858</ele>
        <time>2018-07-02T15:10:54Z</time>
      </trkpt>
      <trkpt lat="46.346122" lon="6.741614">
        <ele>1924.373</ele>
        <time>2018-07-02T15:11:05Z</time>
      </trkpt>
      <trkpt lat="46.346071" lon="6.741634">
        <ele>1919.714</ele>
        <time>2018-07-02T15:11:10Z</time>
      </trkpt>
      <trkpt lat="46.346087" lon="6.741708">
        <ele>1924.954</ele>
        <time>2018-07-02T15:11:14Z</time>
      </trkpt>
      <trkpt lat="46.346091" lon="6.741778">
        <ele>1928.109</ele>
        <time>2018-07-02T15:11:20Z</time>
      </trkpt>
      <trkpt lat="46.346066" lon="6.741842">
        <ele>1927.808</ele>
        <time>2018-07-02T15:11:26Z</time>
      </trkpt>
      <trkpt lat="46.346021" lon="6.741881">
        <ele>1924.213</ele>
        <time>2018-07-02T15:11:32Z</time>
      </trkpt>
      <trkpt lat="46.345981" lon="6.741911">
        <ele>1920.799</ele>
        <time>2018-07-02T15:11:40Z</time>
      </trkpt>
      <trkpt lat="46.345948" lon="6.741962">
        <ele>1919.131</ele>
        <time>2018-07-02T15:11:48Z</time>
      </trkpt>
      <trkpt lat="46.345899" lon="6.742013">
        <ele>1915.887</ele>
        <time>2018-07-02T15:12:08Z</time>
      </trkpt>
      <trkpt lat="46.345907" lon="6.742081">
        <ele>1920.069</ele>
        <time>2018-07-02T15:12:27Z</time>
      </trkpt>
      <trkpt lat="46.345896" lon="6.742145">
        <ele>1921.716</ele>
        <time>2018-07-02T15:12:53Z</time>
      </trkpt>
      <trkpt lat="46.345881" lon="6.742215">
        <ele>1923.092</ele>
        <time>2018-07-02T15:13:09Z</time>
      </trkpt>
      <trkpt lat="46.345865" lon="6.742277">
        <ele>1923.897</ele>
        <time>2018-07-02T15:13:26Z</time>
      </trkpt>
      <trkpt lat="46.345831" lon="6.742324">
        <ele>1921.371</ele>
        <time>2018-07-02T15:13:40Z</time>
      </trkpt>
      <trkpt lat="46.345810" lon="6.742394">
        <ele>1923.541</ele>
        <time>2018-07-02T15:13:57Z</time>
      </trkpt>
      <trkpt lat="46.345779" lon="6.742448">
        <ele>1924.515</ele>
        <time>2018-07-02T15:14:15Z</time>
      </trkpt>
      <trkpt lat="46.345763" lon="6.742515">
        <ele>1926.608</ele>
        <time>2018-07-02T15:14:28Z</time>
      </trkpt>
      <trkpt lat="46.345737" lon="6.742576">
        <ele>1928.229</ele>
        <time>2018-07-02T15:14:40Z</time>
      </trkpt>
      <trkpt lat="46.345712" lon="6.742649">
        <ele>1930.425</ele>
        <time>2018-07-02T15:14:54Z</time>
      </trkpt>
      <trkpt lat="46.345698" lon="6.742711">
        <ele>1932.627</ele>
        <time>2018-07-02T15:15:04Z</time>
      </trkpt>
      <trkpt lat="46.345667" lon="6.742760">
        <ele>1933.683</ele>
        <time>2018-07-02T15:15:16Z</time>
      </trkpt>
      <trkpt lat="46.345653" lon="6.742826">
        <ele>1935.245</ele>
        <time>2018-07-02T15:15:28Z</time>
      </trkpt>
      <trkpt lat="46.345634" lon="6.742889">
        <ele>1936.342</ele>
        <time>2018-07-02T15:15:43Z</time>
      </trkpt>
      <trkpt lat="46.345615" lon="6.742952">
        <ele>1937.458</ele>
        <time>2018-07-02T15:16:01Z</time>
      </trkpt>
      <trkpt lat="46.345588" lon="6.742976">
        <ele>1937.063</ele>
        <time>2018-07-02T15:20:49Z</time>
      </trkpt>
      <trkpt lat="46.345593" lon="6.743048">
        <ele>1939.391</ele>
        <time>2018-07-02T15:21:02Z</time>
      </trkpt>
      <trkpt lat="46.345627" lon="6.743095">
        <ele>1939.381</ele>
        <time>2018-07-02T15:21:09Z</time>
      </trkpt>
      <trkpt lat="46.345649" lon="6.743153">
        <ele>1937.819</ele>
        <time>2018-07-02T15:21:16Z</time>
      </trkpt>
      <trkpt lat="46.345678" lon="6.743210">
        <ele>1936.708</ele>
        <time>2018-07-02T15:21:29Z</time>
      </trkpt>
      <trkpt lat="46.345716" lon="6.743247">
        <ele>1936.861</ele>
        <time>2018-07-02T15:21:44Z</time>
      </trkpt>
      <trkpt lat="46.345736" lon="6.743307">
        <ele>1935.237</ele>
        <time>2018-07-02T15:22:08Z</time>
      </trkpt>
      <trkpt lat="46.345772" lon="6.743354">
        <ele>1934.359</ele>
        <time>2018-07-02T15:22:56Z</time>
      </trkpt>
      <trkpt lat="46.345804" lon="6.743410">
        <ele>1932.055</ele>
        <time>2018-07-02T15:23:05Z</time>
      </trkpt>
      <trkpt lat="46.345839" lon="6.743453">
        <ele>1930.727</ele>
        <time>2018-07-02T15:23:17Z</time>
      </trkpt>
      <trkpt lat="46.345876" lon="6.743495">
        <ele>1930.964</ele>
        <time>2018-07-02T15:23:30Z</time>
      </trkpt>
      <trkpt lat="46.345912" lon="6.743537">
        <ele>1930.770</ele>
        <time>2018-07-02T15:23:40Z</time>
      </trkpt>
      <trkpt lat="46.345951" lon="6.743579">
        <ele>1930.285</ele>
        <time>2018-07-02T15:23:59Z</time>
      </trkpt>
      <trkpt lat="46.345990" lon="6.743622">
        <ele>1929.345</ele>
        <time>2018-07-02T15:24:30Z</time>
      </trkpt>
      <trkpt lat="46.346026" lon="6.743674">
        <ele>1927.047</ele>
        <time>2018-07-02T15:24:38Z</time>
      </trkpt>
      <trkpt lat="46.346075" lon="6.743702">
        <ele>1927.111</ele>
        <time>2018-07-02T15:24:46Z</time>
      </trkpt>
      <trkpt lat="46.346118" lon="6.743724">
        <ele>1927.308</ele>
        <time>2018-07-02T15:24:52Z</time>
      </trkpt>
      <trkpt lat="46.346163" lon="6.743710">
        <ele>1933.626</ele>
        <time>2018-07-02T15:24:57Z</time>
      </trkpt>
      <trkpt lat="46.346217" lon="6.743729">
        <ele>1937.142</ele>
        <time>2018-07-02T15:25:03Z</time>
      </trkpt>
      <trkpt lat="46.346268" lon="6.743737">
        <ele>1941.384</ele>
        <time>2018-07-02T15:25:08Z</time>
      </trkpt>
      <trkpt lat="46.346320" lon="6.743749">
        <ele>1944.820</ele>
        <time>2018-07-02T15:25:14Z</time>
      </trkpt>
      <trkpt lat="46.346370" lon="6.743751">
        <ele>1949.522</ele>
        <time>2018-07-02T15:25:19Z</time>
      </trkpt>
      <trkpt lat="46.346417" lon="6.743757">
        <ele>1953.189</ele>
        <time>2018-07-02T15:25:23Z</time>
      </trkpt>
      <trkpt lat="46.346467" lon="6.743772">
        <ele>1955.555</ele>
        <time>2018-07-02T15:25:27Z</time>
      </trkpt>
      <trkpt lat="46.346500" lon="6.743863">
        <ele>1944.640</ele>
        <time>2018-07-02T15:25:53Z</time>
      </trkpt>
      <trkpt lat="46.346549" lon="6.743857">
        <ele>1950.628</ele>
        <time>2018-07-02T15:26:10Z</time>
      </trkpt>
      <trkpt lat="46.346586" lon="6.743905">
        <ele>1947.889</ele>
        <time>2018-07-02T15:26:44Z</time>
      </trkpt>
      <trkpt lat="46.346611" lon="6.743969">
        <ele>1943.417</ele>
        <time>2018-07-02T15:26:50Z</time>
      </trkpt>
      <trkpt lat="46.346623" lon="6.744045">
        <ele>1936.308</ele>
        <time>2018-07-02T15:26:56Z</time>
      </trkpt>
      <trkpt lat="46.346643" lon="6.744108">
        <ele>1931.324</ele>
        <time>2018-07-02T15:27:03Z</time>
      </trkpt>
      <trkpt lat="46.346653" lon="6.744172">
        <ele>1925.370</ele>
        <time>2018-07-02T15:27:08Z</time>
      </trkpt>
      <trkpt lat="46.346660" lon="6.744242">
        <ele>1919.912</ele>
        <time>2018-07-02T15:27:13Z</time>
      </trkpt>
      <trkpt lat="46.346666" lon="6.744312">
        <ele>1914.438</ele>
        <time>2018-07-02T15:27:20Z</time>
      </trkpt>
      <trkpt lat="46.346655" lon="6.744376">
        <ele>1908.180</ele>
        <time>2018-07-02T15:27:29Z</time>
      </trkpt>
      <trkpt lat="46.346684" lon="6.744435">
        <ele>1906.017</ele>
        <time>2018-07-02T15:27:35Z</time>
      </trkpt>
      <trkpt lat="46.346705" lon="6.744499">
        <ele>1905.113</ele>
        <time>2018-07-02T15:27:41Z</time>
      </trkpt>
      <trkpt lat="46.346743" lon="6.744547">
        <ele>1907.038</ele>
        <time>2018-07-02T15:27:47Z</time>
      </trkpt>
      <trkpt lat="46.346767" lon="6.744608">
        <ele>1906.318</ele>
        <time>2018-07-02T15:27:54Z</time>
      </trkpt>
      <trkpt lat="46.346768" lon="6.744684">
        <ele>1902.098</ele>
        <time>2018-07-02T15:28:05Z</time>
      </trkpt>
      <trkpt lat="46.346737" lon="6.744683">
        <ele>1899.017</ele>
        <time>2018-07-02T15:30:01Z</time>
      </trkpt>
      <trkpt lat="46.346773" lon="6.744726">
        <ele>1900.208</ele>
        <time>2018-07-02T15:30:11Z</time>
      </trkpt>
      <trkpt lat="46.346758" lon="6.744794">
        <ele>1896.083</ele>
        <time>2018-07-02T15:30:18Z</time>
      </trkpt>
      <trkpt lat="46.346809" lon="6.744836">
        <ele>1898.719</ele>
        <time>2018-07-02T15:30:29Z</time>
      </trkpt>
      <trkpt lat="46.346841" lon="6.744890">
        <ele>1898.741</ele>
        <time>2018-07-02T15:30:38Z</time>
      </trkpt>
      <trkpt lat="46.346865" lon="6.744945">
        <ele>1897.727</ele>
        <time>2018-07-02T15:30:53Z</time>
      </trkpt>
      <trkpt lat="46.346863" lon="6.745012">
        <ele>1894.369</ele>
        <time>2018-07-02T15:31:04Z</time>
      </trkpt>
      <trkpt lat="46.346895" lon="6.745072">
        <ele>1894.136</ele>
        <time>2018-07-02T15:31:12Z</time>
      </trkpt>
      <trkpt lat="46.346926" lon="6.745124">
        <ele>1894.052</ele>
        <time>2018-07-02T15:31:17Z</time>
      </trkpt>
      <trkpt lat="46.346955" lon="6.745184">
        <ele>1894.417</ele>
        <time>2018-07-02T15:31:23Z</time>
      </trkpt>
      <trkpt lat="46.346998" lon="6.745212">
        <ele>1900.095</ele>
        <time>2018-07-02T15:31:33Z</time>
      </trkpt>
      <trkpt lat="46.347041" lon="6.745255">
        <ele>1904.449</ele>
        <time>2018-07-02T15:31:46Z</time>
      </trkpt>
      <trkpt lat="46.347073" lon="6.745310">
        <ele>1906.923</ele>
        <time>2018-07-02T15:31:56Z</time>
      </trkpt>
      <trkpt lat="46.347102" lon="6.745368">
        <ele>1908.908</ele>
        <time>2018-07-02T15:32:03Z</time>
      </trkpt>
      <trkpt lat="46.347118" lon="6.745434">
        <ele>1908.411</ele>
        <time>2018-07-02T15:32:12Z</time>
      </trkpt>
      <trkpt lat="46.347128" lon="6.745507">
        <ele>1906.577</ele>
        <time>2018-07-02T15:32:31Z</time>
      </trkpt>
      <trkpt lat="46.347143" lon="6.745576">
        <ele>1905.799</ele>
        <time>2018-07-02T15:32:49Z</time>
      </trkpt>
      <trkpt lat="46.347145" lon="6.745641">
        <ele>1904.895</ele>
        <time>2018-07-02T15:32:57Z</time>
      </trkpt>
      <trkpt lat="46.347150" lon="6.745711">
        <ele>1904.147</ele>
        <time>2018-07-02T15:33:07Z</time>
      </trkpt>
      <trkpt lat="46.347163" lon="6.745778">
        <ele>1904.184</ele>
        <time>2018-07-02T15:33:15Z</time>
      </trkpt>
      <trkpt lat="46.347180" lon="6.745842">
        <ele>1904.450</ele>
        <time>2018-07-02T15:33:23Z</time>
      </trkpt>
      <trkpt lat="46.347213" lon="6.745889">
        <ele>1906.325</ele>
        <time>2018-07-02T15:33:32Z</time>
      </trkpt>
      <trkpt lat="46.347218" lon="6.745958">
        <ele>1905.418</ele>
        <time>2018-07-02T15:33:41Z</time>
      </trkpt>
      <trkpt lat="46.347204" lon="6.746027">
        <ele>1903.198</ele>
        <time>2018-07-02T15:33:52Z</time>
      </trkpt>
      <trkpt lat="46.347214" lon="6.746093">
        <ele>1902.717</ele>
        <time>2018-07-02T15:33:59Z</time>
      </trkpt>
      <trkpt lat="46.347246" lon="6.746142">
        <ele>1904.708</ele>
        <time>2018-07-02T15:34:09Z</time>
      </trkpt>
      <trkpt lat="46.347282" lon="6.746188">
        <ele>1907.233</ele>
        <time>2018-07-02T15:34:23Z</time>
      </trkpt>
      <trkpt lat="46.347326" lon="6.746254">
        <ele>1910.049</ele>
        <time>2018-07-02T15:34:40Z</time>
      </trkpt>
      <trkpt lat="46.347365" lon="6.746297">
        <ele>1912.631</ele>
        <time>2018-07-02T15:34:44Z</time>
      </trkpt>
      <trkpt lat="46.347401" lon="6.746350">
        <ele>1914.837</ele>
        <time>2018-07-02T15:34:49Z</time>
      </trkpt>
      <trkpt lat="46.347424" lon="6.746416">
        <ele>1915.749</ele>
        <time>2018-07-02T15:34:55Z</time>
      </trkpt>
      <trkpt lat="46.347442" lon="6.746481">
        <ele>1916.566</ele>
        <time>2018-07-02T15:35:06Z</time>
      </trkpt>
      <trkpt lat="46.347481" lon="6.746516">
        <ele>1919.262</ele>
        <time>2018-07-02T15:35:19Z</time>
      </trkpt>
      <trkpt lat="46.347488" lon="6.746582">
        <ele>1919.057</ele>
        <time>2018-07-02T15:35:28Z</time>
      </trkpt>
      <trkpt lat="46.347503" lon="6.746649">
        <ele>1919.441</ele>
        <time>2018-07-02T15:35:38Z</time>
      </trkpt>
      <trkpt lat="46.347509" lon="6.746718">
        <ele>1919.681</ele>
        <time>2018-07-02T15:35:45Z</time>
      </trkpt>
      <trkpt lat="46.347531" lon="6.746776">
        <ele>1921.709</ele>
        <time>2018-07-02T15:35:53Z</time>
      </trkpt>
      <trkpt lat="46.347557" lon="6.746833">
        <ele>1924.708</ele>
        <time>2018-07-02T15:36:01Z</time>
      </trkpt>
      <trkpt lat="46.347573" lon="6.746902">
        <ele>1927.156</ele>
        <time>2018-07-02T15:36:12Z</time>
      </trkpt>
      <trkpt lat="46.347576" lon="6.746972">
        <ele>1928.132</ele>
        <time>2018-07-02T15:36:21Z</time>
      </trkpt>
      <trkpt lat="46.347590" lon="6.747043">
        <ele>1931.044</ele>
        <time>2018-07-02T15:36:30Z</time>
      </trkpt>
      <trkpt lat="46.347587" lon="6.747115">
        <ele>1931.570</ele>
        <time>2018-07-02T15:36:38Z</time>
      </trkpt>
      <trkpt lat="46.347576" lon="6.747179">
        <ele>1930.382</ele>
        <time>2018-07-02T15:36:47Z</time>
      </trkpt>
      <trkpt lat="46.347553" lon="6.747243">
        <ele>1926.679</ele>
        <time>2018-07-02T15:36:54Z</time>
      </trkpt>
      <trkpt lat="46.347553" lon="6.747312">
        <ele>1927.685</ele>
        <time>2018-07-02T15:36:59Z</time>
      </trkpt>
      <trkpt lat="46.347563" lon="6.747386">
        <ele>1930.810</ele>
        <time>2018-07-02T15:37:05Z</time>
      </trkpt>
      <trkpt lat="46.347573" lon="6.747452">
        <ele>1934.072</ele>
        <time>2018-07-02T15:37:18Z</time>
      </trkpt>
      <trkpt lat="46.347583" lon="6.747519">
        <ele>1937.213</ele>
        <time>2018-07-02T15:37:37Z</time>
      </trkpt>
      <trkpt lat="46.347598" lon="6.747590">
        <ele>1941.114</ele>
        <time>2018-07-02T15:37:48Z</time>
      </trkpt>
      <trkpt lat="46.347576" lon="6.747657">
        <ele>1936.508</ele>
        <time>2018-07-02T15:38:12Z</time>
      </trkpt>
      <trkpt lat="46.347591" lon="6.747719">
        <ele>1940.319</ele>
        <time>2018-07-02T15:38:27Z</time>
      </trkpt>
      <trkpt lat="46.347599" lon="6.747797">
        <ele>1942.675</ele>
        <time>2018-07-02T15:38:39Z</time>
      </trkpt>
      <trkpt lat="46.347615" lon="6.747868">
        <ele>1946.697</ele>
        <time>2018-07-02T15:38:46Z</time>
      </trkpt>
      <trkpt lat="46.347587" lon="6.747924">
        <ele>1940.843</ele>
        <time>2018-07-02T15:39:11Z</time>
      </trkpt>
      <trkpt lat="46.347554" lon="6.747889">
        <ele>1933.475</ele>
        <time>2018-07-02T15:45:03Z</time>
      </trkpt>
      <trkpt lat="46.347573" lon="6.747958">
        <ele>1938.152</ele>
        <time>2018-07-02T15:45:20Z</time>
      </trkpt>
      <trkpt lat="46.347580" lon="6.748023">
        <ele>1940.228</ele>
        <time>2018-07-02T15:45:29Z</time>
      </trkpt>
      <trkpt lat="46.347600" lon="6.748083">
        <ele>1944.993</ele>
        <time>2018-07-02T15:45:36Z</time>
      </trkpt>
      <trkpt lat="46.347608" lon="6.748151">
        <ele>1947.323</ele>
        <time>2018-07-02T15:45:44Z</time>
      </trkpt>
      <trkpt lat="46.347610" lon="6.748220">
        <ele>1948.683</ele>
        <time>2018-07-02T15:45:56Z</time>
      </trkpt>
      <trkpt lat="46.347599" lon="6.748289">
        <ele>1947.111</ele>
        <time>2018-07-02T15:46:02Z</time>
      </trkpt>
      <trkpt lat="46.347579" lon="6.748357">
        <ele>1944.008</ele>
        <time>2018-07-02T15:46:09Z</time>
      </trkpt>
      <trkpt lat="46.347572" lon="6.748426">
        <ele>1944.154</ele>
        <time>2018-07-02T15:46:19Z</time>
      </trkpt>
      <trkpt lat="46.347551" lon="6.748493">
        <ele>1940.850</ele>
        <time>2018-07-02T15:46:26Z</time>
      </trkpt>
      <trkpt lat="46.347529" lon="6.748551">
        <ele>1936.852</ele>
        <time>2018-07-02T15:46:32Z</time>
      </trkpt>
      <trkpt lat="46.347507" lon="6.748610">
        <ele>1932.618</ele>
        <time>2018-07-02T15:46:37Z</time>
      </trkpt>
      <trkpt lat="46.347482" lon="6.748671">
        <ele>1931.760</ele>
        <time>2018-07-02T15:46:42Z</time>
      </trkpt>
      <trkpt lat="46.347458" lon="6.748732">
        <ele>1932.097</ele>
        <time>2018-07-02T15:46:48Z</time>
      </trkpt>
      <trkpt lat="46.347432" lon="6.748787">
        <ele>1931.973</ele>
        <time>2018-07-02T15:46:53Z</time>
      </trkpt>
      <trkpt lat="46.347404" lon="6.748853">
        <ele>1932.028</ele>
        <time>2018-07-02T15:46:59Z</time>
      </trkpt>
      <trkpt lat="46.347382" lon="6.748916">
        <ele>1932.646</ele>
        <time>2018-07-02T15:47:06Z</time>
      </trkpt>
      <trkpt lat="46.347356" lon="6.748974">
        <ele>1932.888</ele>
        <time>2018-07-02T15:47:12Z</time>
      </trkpt>
      <trkpt lat="46.347331" lon="6.749036">
        <ele>1933.116</ele>
        <time>2018-07-02T15:47:18Z</time>
      </trkpt>
      <trkpt lat="46.347301" lon="6.749091">
        <ele>1932.508</ele>
        <time>2018-07-02T15:47:24Z</time>
      </trkpt>
      <trkpt lat="46.347274" lon="6.749153">
        <ele>1932.266</ele>
        <time>2018-07-02T15:47:30Z</time>
      </trkpt>
      <trkpt lat="46.347243" lon="6.749209">
        <ele>1931.262</ele>
        <time>2018-07-02T15:47:36Z</time>
      </trkpt>
      <trkpt lat="46.347201" lon="6.749257">
        <ele>1930.234</ele>
        <time>2018-07-02T15:47:42Z</time>
      </trkpt>
      <trkpt lat="46.347165" lon="6.749302">
        <ele>1930.440</ele>
        <time>2018-07-02T15:47:47Z</time>
      </trkpt>
      <trkpt lat="46.347124" lon="6.749334">
        <ele>1930.122</ele>
        <time>2018-07-02T15:47:53Z</time>
      </trkpt>
      <trkpt lat="46.347083" lon="6.749374">
        <ele>1930.179</ele>
        <time>2018-07-02T15:47:59Z</time>
      </trkpt>
      <trkpt lat="46.347046" lon="6.749420">
        <ele>1930.465</ele>
        <time>2018-07-02T15:48:05Z</time>
      </trkpt>
      <trkpt lat="46.347010" lon="6.749466">
        <ele>1930.570</ele>
        <time>2018-07-02T15:48:11Z</time>
      </trkpt>
      <trkpt lat="46.346973" lon="6.749513">
        <ele>1930.064</ele>
        <time>2018-07-02T15:48:16Z</time>
      </trkpt>
      <trkpt lat="46.346940" lon="6.749568">
        <ele>1929.806</ele>
        <time>2018-07-02T15:48:21Z</time>
      </trkpt>
      <trkpt lat="46.346907" lon="6.749613">
        <ele>1930.816</ele>
        <time>2018-07-02T15:48:27Z</time>
      </trkpt>
      <trkpt lat="46.346868" lon="6.749659">
        <ele>1931.908</ele>
        <time>2018-07-02T15:48:54Z</time>
      </trkpt>
      <trkpt lat="46.346872" lon="6.749731">
        <ele>1933.178</ele>
        <time>2018-07-02T15:50:05Z</time>
      </trkpt>
      <trkpt lat="46.346896" lon="6.749803">
        <ele>1933.354</ele>
        <time>2018-07-02T15:50:17Z</time>
      </trkpt>
      <trkpt lat="46.346914" lon="6.749867">
        <ele>1933.516</ele>
        <time>2018-07-02T15:50:24Z</time>
      </trkpt>
      <trkpt lat="46.346919" lon="6.749944">
        <ele>1934.082</ele>
        <time>2018-07-02T15:50:30Z</time>
      </trkpt>
      <trkpt lat="46.346917" lon="6.750020">
        <ele>1934.684</ele>
        <time>2018-07-02T15:50:35Z</time>
      </trkpt>
      <trkpt lat="46.346912" lon="6.750095">
        <ele>1935.221</ele>
        <time>2018-07-02T15:50:40Z</time>
      </trkpt>
      <trkpt lat="46.346907" lon="6.750171">
        <ele>1935.847</ele>
        <time>2018-07-02T15:50:45Z</time>
      </trkpt>
      <trkpt lat="46.346898" lon="6.750250">
        <ele>1936.562</ele>
        <time>2018-07-02T15:50:50Z</time>
      </trkpt>
      <trkpt lat="46.346882" lon="6.750326">
        <ele>1937.173</ele>
        <time>2018-07-02T15:50:55Z</time>
      </trkpt>
      <trkpt lat="46.346863" lon="6.750397">
        <ele>1937.685</ele>
        <time>2018-07-02T15:51:00Z</time>
      </trkpt>
      <trkpt lat="46.346845" lon="6.750471">
        <ele>1938.113</ele>
        <time>2018-07-02T15:51:05Z</time>
      </trkpt>
      <trkpt lat="46.346837" lon="6.750539">
        <ele>1938.508</ele>
        <time>2018-07-02T15:51:10Z</time>
      </trkpt>
      <trkpt lat="46.346847" lon="6.750606">
        <ele>1938.849</ele>
        <time>2018-07-02T15:51:15Z</time>
      </trkpt>
      <trkpt lat="46.346865" lon="6.750666">
        <ele>1938.955</ele>
        <time>2018-07-02T15:51:21Z</time>
      </trkpt>
      <trkpt lat="46.346888" lon="6.750725">
        <ele>1939.037</ele>
        <time>2018-07-02T15:51:27Z</time>
      </trkpt>
      <trkpt lat="46.346909" lon="6.750789">
        <ele>1939.243</ele>
        <time>2018-07-02T15:51:33Z</time>
      </trkpt>
      <trkpt lat="46.346925" lon="6.750861">
        <ele>1939.555</ele>
        <time>2018-07-02T15:51:40Z</time>
      </trkpt>
      <trkpt lat="46.346946" lon="6.750927">
        <ele>1939.732</ele>
        <time>2018-07-02T15:51:48Z</time>
      </trkpt>
      <trkpt lat="46.346953" lon="6.751000">
        <ele>1940.588</ele>
        <time>2018-07-02T15:51:58Z</time>
      </trkpt>
      <trkpt lat="46.346971" lon="6.751060">
        <ele>1941.423</ele>
        <time>2018-07-02T15:52:24Z</time>
      </trkpt>
      <trkpt lat="46.346977" lon="6.751129">
        <ele>1942.076</ele>
        <time>2018-07-02T15:52:35Z</time>
      </trkpt>
      <trkpt lat="46.346997" lon="6.751195">
        <ele>1942.990</ele>
        <time>2018-07-02T15:52:43Z</time>
      </trkpt>
      <trkpt lat="46.347025" lon="6.751254">
        <ele>1943.919</ele>
        <time>2018-07-02T15:52:50Z</time>
      </trkpt>
      <trkpt lat="46.347048" lon="6.751311">
        <ele>1944.608</ele>
        <time>2018-07-02T15:52:56Z</time>
      </trkpt>
      <trkpt lat="46.347072" lon="6.751375">
        <ele>1945.339</ele>
        <time>2018-07-02T15:53:02Z</time>
      </trkpt>
      <trkpt lat="46.347104" lon="6.751430">
        <ele>1945.835</ele>
        <time>2018-07-02T15:53:08Z</time>
      </trkpt>
      <trkpt lat="46.347134" lon="6.751481">
        <ele>1946.157</ele>
        <time>2018-07-02T15:53:13Z</time>
      </trkpt>
      <trkpt lat="46.347160" lon="6.751535">
        <ele>1946.243</ele>
        <time>2018-07-02T15:53:18Z</time>
      </trkpt>
      <trkpt lat="46.347186" lon="6.751593">
        <ele>1946.235</ele>
        <time>2018-07-02T15:53:23Z</time>
      </trkpt>
      <trkpt lat="46.347221" lon="6.751662">
        <ele>1946.042</ele>
        <time>2018-07-02T15:53:29Z</time>
      </trkpt>
      <trkpt lat="46.347221" lon="6.751662">
        <ele>1946.048</ele>
        <time>2018-07-02T15:53:29Z</time>
      </trkpt>
      <trkpt lat="46.347258" lon="6.751718">
        <ele>1946.393</ele>
        <time>2018-07-02T15:53:34Z</time>
      </trkpt>
      <trkpt lat="46.347294" lon="6.751760">
        <ele>1946.578</ele>
        <time>2018-07-02T15:53:38Z</time>
      </trkpt>
      <trkpt lat="46.347327" lon="6.751806">
        <ele>1946.733</ele>
        <time>2018-07-02T15:53:42Z</time>
      </trkpt>
      <trkpt lat="46.347361" lon="6.751864">
        <ele>1946.726</ele>
        <time>2018-07-02T15:53:47Z</time>
      </trkpt>
      <trkpt lat="46.347391" lon="6.751921">
        <ele>1946.708</ele>
        <time>2018-07-02T15:53:52Z</time>
      </trkpt>
      <trkpt lat="46.347425" lon="6.751975">
        <ele>1946.649</ele>
        <time>2018-07-02T15:53:57Z</time>
      </trkpt>
      <trkpt lat="46.347463" lon="6.752022">
        <ele>1946.745</ele>
        <time>2018-07-02T15:54:02Z</time>
      </trkpt>
      <trkpt lat="46.347504" lon="6.752062">
        <ele>1946.727</ele>
        <time>2018-07-02T15:54:08Z</time>
      </trkpt>
      <trkpt lat="46.347547" lon="6.752097">
        <ele>1946.083</ele>
        <time>2018-07-02T15:54:14Z</time>
      </trkpt>
      <trkpt lat="46.347586" lon="6.752132">
        <ele>1945.295</ele>
        <time>2018-07-02T15:54:19Z</time>
      </trkpt>
      <trkpt lat="46.347632" lon="6.752170">
        <ele>1944.332</ele>
        <time>2018-07-02T15:54:25Z</time>
      </trkpt>
      <trkpt lat="46.347667" lon="6.752215">
        <ele>1943.328</ele>
        <time>2018-07-02T15:54:30Z</time>
      </trkpt>
      <trkpt lat="46.347700" lon="6.752272">
        <ele>1942.223</ele>
        <time>2018-07-02T15:54:36Z</time>
      </trkpt>
      <trkpt lat="46.347734" lon="6.752324">
        <ele>1941.176</ele>
        <time>2018-07-02T15:54:42Z</time>
      </trkpt>
      <trkpt lat="46.347765" lon="6.752372">
        <ele>1940.090</ele>
        <time>2018-07-02T15:55:37Z</time>
      </trkpt>
      <trkpt lat="46.347801" lon="6.752415">
        <ele>1938.619</ele>
        <time>2018-07-02T15:55:46Z</time>
      </trkpt>
      <trkpt lat="46.347844" lon="6.752456">
        <ele>1936.608</ele>
        <time>2018-07-02T15:55:54Z</time>
      </trkpt>
      <trkpt lat="46.347875" lon="6.752513">
        <ele>1934.659</ele>
        <time>2018-07-02T15:56:03Z</time>
      </trkpt>
      <trkpt lat="46.347891" lon="6.752588">
        <ele>1932.915</ele>
        <time>2018-07-02T15:56:18Z</time>
      </trkpt>
      <trkpt lat="46.347914" lon="6.752646">
        <ele>1931.297</ele>
        <time>2018-07-02T15:56:31Z</time>
      </trkpt>
      <trkpt lat="46.347912" lon="6.752716">
        <ele>1930.223</ele>
        <time>2018-07-02T15:56:40Z</time>
      </trkpt>
      <trkpt lat="46.347920" lon="6.752783">
        <ele>1928.855</ele>
        <time>2018-07-02T15:56:53Z</time>
      </trkpt>
      <trkpt lat="46.347894" lon="6.752842">
        <ele>1928.692</ele>
        <time>2018-07-02T15:57:02Z</time>
      </trkpt>
      <trkpt lat="46.347875" lon="6.752902">
        <ele>1928.128</ele>
        <time>2018-07-02T15:57:09Z</time>
      </trkpt>
      <trkpt lat="46.347868" lon="6.752968">
        <ele>1927.173</ele>
        <time>2018-07-02T15:57:18Z</time>
      </trkpt>
      <trkpt lat="46.347870" lon="6.753034">
        <ele>1925.858</ele>
        <time>2018-07-02T15:57:28Z</time>
      </trkpt>
      <trkpt lat="46.347867" lon="6.753104">
        <ele>1924.052</ele>
        <time>2018-07-02T15:57:42Z</time>
      </trkpt>
      <trkpt lat="46.347849" lon="6.753167">
        <ele>1922.717</ele>
        <time>2018-07-02T15:57:56Z</time>
      </trkpt>
      <trkpt lat="46.347866" lon="6.753229">
        <ele>1920.108</ele>
        <time>2018-07-02T15:58:08Z</time>
      </trkpt>
      <trkpt lat="46.347915" lon="6.753221">
        <ele>1918.517</ele>
        <time>2018-07-02T15:58:23Z</time>
      </trkpt>
      <trkpt lat="46.347966" lon="6.753211">
        <ele>1916.933</ele>
        <time>2018-07-02T15:58:36Z</time>
      </trkpt>
      <trkpt lat="46.348014" lon="6.753206">
        <ele>1915.295</ele>
        <time>2018-07-02T15:58:51Z</time>
      </trkpt>
      <trkpt lat="46.348035" lon="6.753265">
        <ele>1912.741</ele>
        <time>2018-07-02T15:59:27Z</time>
      </trkpt>
      <trkpt lat="46.348021" lon="6.753335">
        <ele>1911.273</ele>
        <time>2018-07-02T15:59:39Z</time>
      </trkpt>
      <trkpt lat="46.348009" lon="6.753400">
        <ele>1910.330</ele>
        <time>2018-07-02T15:59:49Z</time>
      </trkpt>
      <trkpt lat="46.348003" lon="6.753472">
        <ele>1909.076</ele>
        <time>2018-07-02T15:59:59Z</time>
      </trkpt>
      <trkpt lat="46.347975" lon="6.753523">
        <ele>1909.091</ele>
        <time>2018-07-02T16:00:14Z</time>
      </trkpt>
      <trkpt lat="46.347993" lon="6.753588">
        <ele>1907.036</ele>
        <time>2018-07-02T16:00:39Z</time>
      </trkpt>
      <trkpt lat="46.348014" lon="6.753649">
        <ele>1905.317</ele>
        <time>2018-07-02T16:00:50Z</time>
      </trkpt>
      <trkpt lat="46.348053" lon="6.753690">
        <ele>1903.318</ele>
        <time>2018-07-02T16:01:24Z</time>
      </trkpt>
      <trkpt lat="46.348096" lon="6.753719">
        <ele>1901.608</ele>
        <time>2018-07-02T16:01:42Z</time>
      </trkpt>
      <trkpt lat="46.348123" lon="6.753771">
        <ele>1900.195</ele>
        <time>2018-07-02T16:01:49Z</time>
      </trkpt>
      <trkpt lat="46.348152" lon="6.753826">
        <ele>1898.461</ele>
        <time>2018-07-02T16:01:56Z</time>
      </trkpt>
      <trkpt lat="46.348172" lon="6.753888">
        <ele>1896.883</ele>
        <time>2018-07-02T16:02:04Z</time>
      </trkpt>
      <trkpt lat="46.348210" lon="6.753932">
        <ele>1895.839</ele>
        <time>2018-07-02T16:02:10Z</time>
      </trkpt>
      <trkpt lat="46.348255" lon="6.753971">
        <ele>1894.531</ele>
        <time>2018-07-02T16:02:16Z</time>
      </trkpt>
      <trkpt lat="46.348299" lon="6.754003">
        <ele>1893.478</ele>
        <time>2018-07-02T16:02:23Z</time>
      </trkpt>
      <trkpt lat="46.348335" lon="6.754050">
        <ele>1892.714</ele>
        <time>2018-07-02T16:02:30Z</time>
      </trkpt>
      <trkpt lat="46.348361" lon="6.754106">
        <ele>1892.339</ele>
        <time>2018-07-02T16:02:38Z</time>
      </trkpt>
      <trkpt lat="46.348399" lon="6.754148">
        <ele>1891.266</ele>
        <time>2018-07-02T16:02:45Z</time>
      </trkpt>
      <trkpt lat="46.348443" lon="6.754175">
        <ele>1889.829</ele>
        <time>2018-07-02T16:02:56Z</time>
      </trkpt>
      <trkpt lat="46.348480" lon="6.754220">
        <ele>1888.821</ele>
        <time>2018-07-02T16:03:17Z</time>
      </trkpt>
      <trkpt lat="46.348511" lon="6.754271">
        <ele>1888.008</ele>
        <time>2018-07-02T16:03:25Z</time>
      </trkpt>
      <trkpt lat="46.348538" lon="6.754330">
        <ele>1887.328</ele>
        <time>2018-07-02T16:03:38Z</time>
      </trkpt>
      <trkpt lat="46.348552" lon="6.754393">
        <ele>1887.084</ele>
        <time>2018-07-02T16:03:49Z</time>
      </trkpt>
      <trkpt lat="46.348572" lon="6.754458">
        <ele>1886.226</ele>
        <time>2018-07-02T16:03:58Z</time>
      </trkpt>
      <trkpt lat="46.348584" lon="6.754529">
        <ele>1884.952</ele>
        <time>2018-07-02T16:04:09Z</time>
      </trkpt>
      <trkpt lat="46.348586" lon="6.754601">
        <ele>1884.264</ele>
        <time>2018-07-02T16:04:18Z</time>
      </trkpt>
      <trkpt lat="46.348588" lon="6.754674">
        <ele>1883.591</ele>
        <time>2018-07-02T16:04:26Z</time>
      </trkpt>
      <trkpt lat="46.348584" lon="6.754747">
        <ele>1883.077</ele>
        <time>2018-07-02T16:04:32Z</time>
      </trkpt>
      <trkpt lat="46.348575" lon="6.754813">
        <ele>1882.932</ele>
        <time>2018-07-02T16:04:39Z</time>
      </trkpt>
      <trkpt lat="46.348568" lon="6.754879">
        <ele>1882.658</ele>
        <time>2018-07-02T16:04:45Z</time>
      </trkpt>
      <trkpt lat="46.348563" lon="6.754955">
        <ele>1882.052</ele>
        <time>2018-07-02T16:04:51Z</time>
      </trkpt>
      <trkpt lat="46.348556" lon="6.755022">
        <ele>1881.817</ele>
        <time>2018-07-02T16:04:56Z</time>
      </trkpt>
      <trkpt lat="46.348555" lon="6.755090">
        <ele>1880.908</ele>
        <time>2018-07-02T16:05:01Z</time>
      </trkpt>
      <trkpt lat="46.348541" lon="6.755155">
        <ele>1881.597</ele>
        <time>2018-07-02T16:05:06Z</time>
      </trkpt>
      <trkpt lat="46.348520" lon="6.755215">
        <ele>1882.833</ele>
        <time>2018-07-02T16:05:13Z</time>
      </trkpt>
      <trkpt lat="46.348523" lon="6.755288">
        <ele>1881.375</ele>
        <time>2018-07-02T16:05:21Z</time>
      </trkpt>
      <trkpt lat="46.348522" lon="6.755353">
        <ele>1880.261</ele>
        <time>2018-07-02T16:05:28Z</time>
      </trkpt>
      <trkpt lat="46.348512" lon="6.755426">
        <ele>1879.843</ele>
        <time>2018-07-02T16:05:35Z</time>
      </trkpt>
      <trkpt lat="46.348522" lon="6.755496">
        <ele>1877.580</ele>
        <time>2018-07-02T16:05:44Z</time>
      </trkpt>
      <trkpt lat="46.348531" lon="6.755560">
        <ele>1875.656</ele>
        <time>2018-07-02T16:05:51Z</time>
      </trkpt>
      <trkpt lat="46.348524" lon="6.755625">
        <ele>1875.771</ele>
        <time>2018-07-02T16:06:10Z</time>
      </trkpt>
      <trkpt lat="46.348532" lon="6.755699">
        <ele>1874.521</ele>
        <time>2018-07-02T16:06:20Z</time>
      </trkpt>
      <trkpt lat="46.348554" lon="6.755760">
        <ele>1872.741</ele>
        <time>2018-07-02T16:06:27Z</time>
      </trkpt>
      <trkpt lat="46.348563" lon="6.755831">
        <ele>1871.805</ele>
        <time>2018-07-02T16:06:35Z</time>
      </trkpt>
      <trkpt lat="46.348564" lon="6.755905">
        <ele>1871.608</ele>
        <time>2018-07-02T16:06:44Z</time>
      </trkpt>
      <trkpt lat="46.348565" lon="6.755980">
        <ele>1871.574</ele>
        <time>2018-07-02T16:06:51Z</time>
      </trkpt>
      <trkpt lat="46.348554" lon="6.756049">
        <ele>1872.090</ele>
        <time>2018-07-02T16:06:57Z</time>
      </trkpt>
      <trkpt lat="46.348545" lon="6.756124">
        <ele>1872.242</ele>
        <time>2018-07-02T16:07:03Z</time>
      </trkpt>
      <trkpt lat="46.348530" lon="6.756197">
        <ele>1872.148</ele>
        <time>2018-07-02T16:07:11Z</time>
      </trkpt>
      <trkpt lat="46.348520" lon="6.756272">
        <ele>1871.750</ele>
        <time>2018-07-02T16:07:17Z</time>
      </trkpt>
      <trkpt lat="46.348519" lon="6.756343">
        <ele>1870.947</ele>
        <time>2018-07-02T16:07:24Z</time>
      </trkpt>
      <trkpt lat="46.348518" lon="6.756414">
        <ele>1870.173</ele>
        <time>2018-07-02T16:07:30Z</time>
      </trkpt>
      <trkpt lat="46.348510" lon="6.756489">
        <ele>1869.938</ele>
        <time>2018-07-02T16:07:35Z</time>
      </trkpt>
      <trkpt lat="46.348510" lon="6.756556">
        <ele>1869.334</ele>
        <time>2018-07-02T16:07:40Z</time>
      </trkpt>
      <trkpt lat="46.348506" lon="6.756628">
        <ele>1868.955</ele>
        <time>2018-07-02T16:07:45Z</time>
      </trkpt>
      <trkpt lat="46.348499" lon="6.756696">
        <ele>1868.410</ele>
        <time>2018-07-02T16:07:50Z</time>
      </trkpt>
      <trkpt lat="46.348485" lon="6.756771">
        <ele>1867.808</ele>
        <time>2018-07-02T16:07:56Z</time>
      </trkpt>
      <trkpt lat="46.348466" lon="6.756843">
        <ele>1867.475</ele>
        <time>2018-07-02T16:08:01Z</time>
      </trkpt>
      <trkpt lat="46.348442" lon="6.756902">
        <ele>1867.281</ele>
        <time>2018-07-02T16:08:06Z</time>
      </trkpt>
      <trkpt lat="46.348406" lon="6.756950">
        <ele>1867.533</ele>
        <time>2018-07-02T16:08:17Z</time>
      </trkpt>
      <trkpt lat="46.348371" lon="6.756996">
        <ele>1867.149</ele>
        <time>2018-07-02T16:08:25Z</time>
      </trkpt>
      <trkpt lat="46.348332" lon="6.757041">
        <ele>1867.071</ele>
        <time>2018-07-02T16:08:31Z</time>
      </trkpt>
      <trkpt lat="46.348297" lon="6.757084">
        <ele>1868.798</ele>
        <time>2018-07-02T16:08:36Z</time>
      </trkpt>
      <trkpt lat="46.348261" lon="6.757132">
        <ele>1870.454</ele>
        <time>2018-07-02T16:08:43Z</time>
      </trkpt>
      <trkpt lat="46.348268" lon="6.757146">
        <ele>1869.489</ele>
        <time>2018-07-02T16:14:36Z</time>
      </trkpt>
      <trkpt lat="46.348249" lon="6.757209">
        <ele>1869.379</ele>
        <time>2018-07-02T16:15:51Z</time>
      </trkpt>
      <trkpt lat="46.348226" lon="6.757269">
        <ele>1869.105</ele>
        <time>2018-07-02T16:16:14Z</time>
      </trkpt>
      <trkpt lat="46.348205" lon="6.757329">
        <ele>1868.325</ele>
        <time>2018-07-02T16:16:43Z</time>
      </trkpt>
      <trkpt lat="46.348182" lon="6.757388">
        <ele>1867.508</ele>
        <time>2018-07-02T16:16:53Z</time>
      </trkpt>
      <trkpt lat="46.348151" lon="6.757437">
        <ele>1867.689</ele>
        <time>2018-07-02T16:17:24Z</time>
      </trkpt>
      <trkpt lat="46.348119" lon="6.757483">
        <ele>1867.555</ele>
        <time>2018-07-02T16:18:07Z</time>
      </trkpt>
      <trkpt lat="46.348114" lon="6.757550">
        <ele>1865.647</ele>
        <time>2018-07-02T16:18:16Z</time>
      </trkpt>
      <trkpt lat="46.348110" lon="6.757622">
        <ele>1863.983</ele>
        <time>2018-07-02T16:18:24Z</time>
      </trkpt>
      <trkpt lat="46.348116" lon="6.757687">
        <ele>1861.845</ele>
        <time>2018-07-02T16:18:31Z</time>
      </trkpt>
      <trkpt lat="46.348112" lon="6.757759">
        <ele>1860.182</ele>
        <time>2018-07-02T16:18:38Z</time>
      </trkpt>
      <trkpt lat="46.348107" lon="6.757824">
        <ele>1858.968</ele>
        <time>2018-07-02T16:18:51Z</time>
      </trkpt>
      <trkpt lat="46.348103" lon="6.757895">
        <ele>1857.873</ele>
        <time>2018-07-02T16:18:58Z</time>
      </trkpt>
      <trkpt lat="46.348099" lon="6.757972">
        <ele>1856.563</ele>
        <time>2018-07-02T16:19:04Z</time>
      </trkpt>
      <trkpt lat="46.348083" lon="6.758039">
        <ele>1856.044</ele>
        <time>2018-07-02T16:19:09Z</time>
      </trkpt>
      <trkpt lat="46.348054" lon="6.758090">
        <ele>1856.518</ele>
        <time>2018-07-02T16:19:14Z</time>
      </trkpt>
      <trkpt lat="46.348040" lon="6.758156">
        <ele>1856.108</ele>
        <time>2018-07-02T16:19:21Z</time>
      </trkpt>
      <trkpt lat="46.348020" lon="6.758224">
        <ele>1855.988</ele>
        <time>2018-07-02T16:19:27Z</time>
      </trkpt>
      <trkpt lat="46.348004" lon="6.758285">
        <ele>1855.684</ele>
        <time>2018-07-02T16:19:32Z</time>
      </trkpt>
      <trkpt lat="46.347988" lon="6.758360">
        <ele>1854.936</ele>
        <time>2018-07-02T16:19:38Z</time>
      </trkpt>
      <trkpt lat="46.347971" lon="6.758436">
        <ele>1854.272</ele>
        <time>2018-07-02T16:19:43Z</time>
      </trkpt>
      <trkpt lat="46.347957" lon="6.758499">
        <ele>1853.694</ele>
        <time>2018-07-02T16:19:47Z</time>
      </trkpt>
      <trkpt lat="46.347937" lon="6.758559">
        <ele>1853.251</ele>
        <time>2018-07-02T16:19:51Z</time>
      </trkpt>
      <trkpt lat="46.347913" lon="6.758615">
        <ele>1853.157</ele>
        <time>2018-07-02T16:19:55Z</time>
      </trkpt>
      <trkpt lat="46.347877" lon="6.758662">
        <ele>1853.552</ele>
        <time>2018-07-02T16:19:59Z</time>
      </trkpt>
      <trkpt lat="46.347840" lon="6.758702">
        <ele>1854.146</ele>
        <time>2018-07-02T16:20:03Z</time>
      </trkpt>
      <trkpt lat="46.347809" lon="6.758751">
        <ele>1854.288</ele>
        <time>2018-07-02T16:20:07Z</time>
      </trkpt>
      <trkpt lat="46.347775" lon="6.758800">
        <ele>1854.416</ele>
        <time>2018-07-02T16:20:11Z</time>
      </trkpt>
      <trkpt lat="46.347739" lon="6.758855">
        <ele>1854.508</ele>
        <time>2018-07-02T16:20:16Z</time>
      </trkpt>
      <trkpt lat="46.347699" lon="6.758903">
        <ele>1855.156</ele>
        <time>2018-07-02T16:20:24Z</time>
      </trkpt>
      <trkpt lat="46.347663" lon="6.758952">
        <ele>1855.592</ele>
        <time>2018-07-02T16:20:30Z</time>
      </trkpt>
      <trkpt lat="46.347635" lon="6.759012">
        <ele>1855.354</ele>
        <time>2018-07-02T16:20:37Z</time>
      </trkpt>
      <trkpt lat="46.347618" lon="6.759074">
        <ele>1854.650</ele>
        <time>2018-07-02T16:20:43Z</time>
      </trkpt>
      <trkpt lat="46.347586" lon="6.759132">
        <ele>1854.832</ele>
        <time>2018-07-02T16:20:51Z</time>
      </trkpt>
      <trkpt lat="46.347553" lon="6.759183">
        <ele>1855.319</ele>
        <time>2018-07-02T16:21:01Z</time>
      </trkpt>
      <trkpt lat="46.347520" lon="6.759236">
        <ele>1856.135</ele>
        <time>2018-07-02T16:21:09Z</time>
      </trkpt>
      <trkpt lat="46.347490" lon="6.759289">
        <ele>1856.790</ele>
        <time>2018-07-02T16:21:16Z</time>
      </trkpt>
      <trkpt lat="46.347458" lon="6.759335">
        <ele>1857.312</ele>
        <time>2018-07-02T16:21:25Z</time>
      </trkpt>
      <trkpt lat="46.347416" lon="6.759369">
        <ele>1858.432</ele>
        <time>2018-07-02T16:21:37Z</time>
      </trkpt>
      <trkpt lat="46.347404" lon="6.759417">
        <ele>1858.005</ele>
        <time>2018-07-02T16:37:41Z</time>
      </trkpt>
      <trkpt lat="46.347357" lon="6.759420">
        <ele>1859.608</ele>
        <time>2018-07-02T16:37:54Z</time>
      </trkpt>
      <trkpt lat="46.347305" lon="6.759446">
        <ele>1861.073</ele>
        <time>2018-07-02T16:38:22Z</time>
      </trkpt>
      <trkpt lat="46.347260" lon="6.759485">
        <ele>1862.129</ele>
        <time>2018-07-02T16:38:33Z</time>
      </trkpt>
      <trkpt lat="46.347234" lon="6.759542">
        <ele>1862.261</ele>
        <time>2018-07-02T16:38:44Z</time>
      </trkpt>
      <trkpt lat="46.347207" lon="6.759597">
        <ele>1862.527</ele>
        <time>2018-07-02T16:38:53Z</time>
      </trkpt>
      <trkpt lat="46.347166" lon="6.759637">
        <ele>1863.689</ele>
        <time>2018-07-02T16:39:01Z</time>
      </trkpt>
      <trkpt lat="46.347127" lon="6.759676">
        <ele>1864.496</ele>
        <time>2018-07-02T16:39:13Z</time>
      </trkpt>
      <trkpt lat="46.347087" lon="6.759709">
        <ele>1865.232</ele>
        <time>2018-07-02T16:39:29Z</time>
      </trkpt>
      <trkpt lat="46.347041" lon="6.759723">
        <ele>1866.567</ele>
        <time>2018-07-02T16:39:54Z</time>
      </trkpt>
      <trkpt lat="46.347003" lon="6.759763">
        <ele>1866.934</ele>
        <time>2018-07-02T16:40:12Z</time>
      </trkpt>
      <trkpt lat="46.346958" lon="6.759795">
        <ele>1867.555</ele>
        <time>2018-07-02T16:40:20Z</time>
      </trkpt>
      <trkpt lat="46.346915" lon="6.759822">
        <ele>1867.910</ele>
        <time>2018-07-02T16:40:31Z</time>
      </trkpt>
      <trkpt lat="46.346866" lon="6.759817">
        <ele>1869.308</ele>
        <time>2018-07-02T16:40:45Z</time>
      </trkpt>
      <trkpt lat="46.346810" lon="6.759819">
        <ele>1870.725</ele>
        <time>2018-07-02T16:41:34Z</time>
      </trkpt>
      <trkpt lat="46.346767" lon="6.759801">
        <ele>1872.611</ele>
        <time>2018-07-02T16:41:46Z</time>
      </trkpt>
      <trkpt lat="46.346722" lon="6.759796">
        <ele>1874.033</ele>
        <time>2018-07-02T16:41:59Z</time>
      </trkpt>
      <trkpt lat="46.346680" lon="6.759768">
        <ele>1876.519</ele>
        <time>2018-07-02T16:42:14Z</time>
      </trkpt>
      <trkpt lat="46.346649" lon="6.759717">
        <ele>1879.951</ele>
        <time>2018-07-02T16:43:10Z</time>
      </trkpt>
      <trkpt lat="46.346603" lon="6.759724">
        <ele>1881.088</ele>
        <time>2018-07-02T16:43:24Z</time>
      </trkpt>
      <trkpt lat="46.346558" lon="6.759742">
        <ele>1881.554</ele>
        <time>2018-07-02T16:43:32Z</time>
      </trkpt>
      <trkpt lat="46.346510" lon="6.759756">
        <ele>1882.429</ele>
        <time>2018-07-02T16:43:42Z</time>
      </trkpt>
      <trkpt lat="46.346467" lon="6.759736">
        <ele>1884.882</ele>
        <time>2018-07-02T16:44:01Z</time>
      </trkpt>
      <trkpt lat="46.346461" lon="6.759724">
        <ele>1885.643</ele>
        <time>2018-07-02T16:45:08Z</time>
      </trkpt>
      <trkpt lat="46.346430" lon="6.759783">
        <ele>1883.517</ele>
        <time>2018-07-02T16:50:58Z</time>
      </trkpt>
      <trkpt lat="46.346427" lon="6.759786">
        <ele>1883.408</ele>
        <time>2018-07-02T16:51:20Z</time>
      </trkpt>
      <trkpt lat="46.346378" lon="6.759790">
        <ele>1884.940</ele>
        <time>2018-07-02T16:51:31Z</time>
      </trkpt>
      <trkpt lat="46.346338" lon="6.759759">
        <ele>1888.866</ele>
        <time>2018-07-02T16:51:47Z</time>
      </trkpt>
      <trkpt lat="46.346299" lon="6.759792">
        <ele>1889.268</ele>
        <time>2018-07-02T16:52:02Z</time>
      </trkpt>
      <trkpt lat="46.346252" lon="6.759797">
        <ele>1891.574</ele>
        <time>2018-07-02T16:52:22Z</time>
      </trkpt>
      <trkpt lat="46.346202" lon="6.759807">
        <ele>1893.736</ele>
        <time>2018-07-02T16:52:32Z</time>
      </trkpt>
      <trkpt lat="46.346159" lon="6.759829">
        <ele>1895.023</ele>
        <time>2018-07-02T16:52:45Z</time>
      </trkpt>
      <trkpt lat="46.346113" lon="6.759864">
        <ele>1895.759</ele>
        <time>2018-07-02T16:52:57Z</time>
      </trkpt>
      <trkpt lat="46.346068" lon="6.759879">
        <ele>1897.854</ele>
        <time>2018-07-02T16:54:02Z</time>
      </trkpt>
      <trkpt lat="46.346022" lon="6.759906">
        <ele>1899.462</ele>
        <time>2018-07-02T16:54:13Z</time>
      </trkpt>
      <trkpt lat="46.345987" lon="6.759950">
        <ele>1899.783</ele>
        <time>2018-07-02T16:54:22Z</time>
      </trkpt>
      <trkpt lat="46.345947" lon="6.759996">
        <ele>1900.411</ele>
        <time>2018-07-02T16:54:33Z</time>
      </trkpt>
      <trkpt lat="46.345906" lon="6.760026">
        <ele>1902.408</ele>
        <time>2018-07-02T16:54:46Z</time>
      </trkpt>
      <trkpt lat="46.345875" lon="6.760076">
        <ele>1903.448</ele>
        <time>2018-07-02T16:54:58Z</time>
      </trkpt>
      <trkpt lat="46.345836" lon="6.760112">
        <ele>1905.434</ele>
        <time>2018-07-02T16:55:09Z</time>
      </trkpt>
      <trkpt lat="46.345804" lon="6.760161">
        <ele>1905.986</ele>
        <time>2018-07-02T16:55:20Z</time>
      </trkpt>
      <trkpt lat="46.345773" lon="6.760210">
        <ele>1906.582</ele>
        <time>2018-07-02T16:55:30Z</time>
      </trkpt>
      <trkpt lat="46.345733" lon="6.760247">
        <ele>1907.994</ele>
        <time>2018-07-02T16:55:40Z</time>
      </trkpt>
      <trkpt lat="46.345693" lon="6.760281">
        <ele>1909.621</ele>
        <time>2018-07-02T16:55:50Z</time>
      </trkpt>
      <trkpt lat="46.345651" lon="6.760311">
        <ele>1911.897</ele>
        <time>2018-07-02T16:56:08Z</time>
      </trkpt>
      <trkpt lat="46.345603" lon="6.760310">
        <ele>1914.432</ele>
        <time>2018-07-02T16:56:23Z</time>
      </trkpt>
      <trkpt lat="46.345478" lon="6.760326">
        <ele>1912.842</ele>
        <time>2018-07-02T16:58:41Z</time>
      </trkpt>
      <trkpt lat="46.345453" lon="6.760383">
        <ele>1911.822</ele>
        <time>2018-07-02T16:59:06Z</time>
      </trkpt>
      <trkpt lat="46.345412" lon="6.760416">
        <ele>1910.014</ele>
        <time>2018-07-02T16:59:16Z</time>
      </trkpt>
      <trkpt lat="46.345366" lon="6.760436">
        <ele>1908.008</ele>
        <time>2018-07-02T16:59:26Z</time>
      </trkpt>
      <trkpt lat="46.345322" lon="6.760452">
        <ele>1906.226</ele>
        <time>2018-07-02T16:59:38Z</time>
      </trkpt>
      <trkpt lat="46.345283" lon="6.760490">
        <ele>1905.012</ele>
        <time>2018-07-02T16:59:51Z</time>
      </trkpt>
      <trkpt lat="46.345244" lon="6.760523">
        <ele>1903.294</ele>
        <time>2018-07-02T17:00:15Z</time>
      </trkpt>
      <trkpt lat="46.345204" lon="6.760555">
        <ele>1901.230</ele>
        <time>2018-07-02T17:00:27Z</time>
      </trkpt>
      <trkpt lat="46.345161" lon="6.760584">
        <ele>1899.222</ele>
        <time>2018-07-02T17:00:39Z</time>
      </trkpt>
      <trkpt lat="46.345113" lon="6.760585">
        <ele>1896.199</ele>
        <time>2018-07-02T17:00:52Z</time>
      </trkpt>
      <trkpt lat="46.345071" lon="6.760613">
        <ele>1894.175</ele>
        <time>2018-07-02T17:01:02Z</time>
      </trkpt>
      <trkpt lat="46.345030" lon="6.760645">
        <ele>1892.260</ele>
        <time>2018-07-02T17:01:10Z</time>
      </trkpt>
      <trkpt lat="46.344988" lon="6.760612">
        <ele>1888.791</ele>
        <time>2018-07-02T17:01:22Z</time>
      </trkpt>
      <trkpt lat="46.344978" lon="6.760548">
        <ele>1886.581</ele>
        <time>2018-07-02T17:01:30Z</time>
      </trkpt>
      <trkpt lat="46.344978" lon="6.760479">
        <ele>1884.819</ele>
        <time>2018-07-02T17:01:38Z</time>
      </trkpt>
      <trkpt lat="46.344985" lon="6.760411">
        <ele>1883.508</ele>
        <time>2018-07-02T17:01:46Z</time>
      </trkpt>
      <trkpt lat="46.344968" lon="6.760343">
        <ele>1880.981</ele>
        <time>2018-07-02T17:01:54Z</time>
      </trkpt>
      <trkpt lat="46.344969" lon="6.760272">
        <ele>1879.287</ele>
        <time>2018-07-02T17:02:04Z</time>
      </trkpt>
      <trkpt lat="46.344921" lon="6.760258">
        <ele>1876.399</ele>
        <time>2018-07-02T17:02:16Z</time>
      </trkpt>
      <trkpt lat="46.344876" lon="6.760267">
        <ele>1874.125</ele>
        <time>2018-07-02T17:02:26Z</time>
      </trkpt>
      <trkpt lat="46.344839" lon="6.760311">
        <ele>1873.097</ele>
        <time>2018-07-02T17:02:38Z</time>
      </trkpt>
      <trkpt lat="46.344794" lon="6.760298">
        <ele>1870.334</ele>
        <time>2018-07-02T17:02:54Z</time>
      </trkpt>
      <trkpt lat="46.344760" lon="6.760248">
        <ele>1867.640</ele>
        <time>2018-07-02T17:03:03Z</time>
      </trkpt>
      <trkpt lat="46.344743" lon="6.760180">
        <ele>1865.725</ele>
        <time>2018-07-02T17:03:12Z</time>
      </trkpt>
      <trkpt lat="46.344710" lon="6.760128">
        <ele>1863.293</ele>
        <time>2018-07-02T17:03:22Z</time>
      </trkpt>
      <trkpt lat="46.344677" lon="6.760078">
        <ele>1860.865</ele>
        <time>2018-07-02T17:03:36Z</time>
      </trkpt>
      <trkpt lat="46.344645" lon="6.760030">
        <ele>1858.521</ele>
        <time>2018-07-02T17:03:48Z</time>
      </trkpt>
      <trkpt lat="46.344605" lon="6.759997">
        <ele>1856.108</ele>
        <time>2018-07-02T17:03:59Z</time>
      </trkpt>
      <trkpt lat="46.344593" lon="6.759931">
        <ele>1855.111</ele>
        <time>2018-07-02T17:04:10Z</time>
      </trkpt>
      <trkpt lat="46.344552" lon="6.759901">
        <ele>1852.857</ele>
        <time>2018-07-02T17:04:33Z</time>
      </trkpt>
      <trkpt lat="46.344507" lon="6.759913">
        <ele>1850.619</ele>
        <time>2018-07-02T17:04:47Z</time>
      </trkpt>
      <trkpt lat="46.344469" lon="6.759952">
        <ele>1848.945</ele>
        <time>2018-07-02T17:05:02Z</time>
      </trkpt>
      <trkpt lat="46.344431" lon="6.759995">
        <ele>1847.167</ele>
        <time>2018-07-02T17:05:22Z</time>
      </trkpt>
      <trkpt lat="46.344389" lon="6.760031">
        <ele>1845.174</ele>
        <time>2018-07-02T17:05:44Z</time>
      </trkpt>
      <trkpt lat="46.344349" lon="6.760070">
        <ele>1843.290</ele>
        <time>2018-07-02T17:05:56Z</time>
      </trkpt>
      <trkpt lat="46.344318" lon="6.760124">
        <ele>1842.025</ele>
        <time>2018-07-02T17:06:08Z</time>
      </trkpt>
      <trkpt lat="46.344275" lon="6.760148">
        <ele>1839.831</ele>
        <time>2018-07-02T17:06:29Z</time>
      </trkpt>
      <trkpt lat="46.344229" lon="6.760137">
        <ele>1836.861</ele>
        <time>2018-07-02T17:06:41Z</time>
      </trkpt>
      <trkpt lat="46.344184" lon="6.760114">
        <ele>1833.707</ele>
        <time>2018-07-02T17:07:03Z</time>
      </trkpt>
      <trkpt lat="46.344137" lon="6.760126">
        <ele>1831.308</ele>
        <time>2018-07-02T17:07:23Z</time>
      </trkpt>
      <trkpt lat="46.344091" lon="6.760108">
        <ele>1828.635</ele>
        <time>2018-07-02T17:07:43Z</time>
      </trkpt>
      <trkpt lat="46.344047" lon="6.760129">
        <ele>1826.661</ele>
        <time>2018-07-02T17:07:52Z</time>
      </trkpt>
      <trkpt lat="46.344001" lon="6.760104">
        <ele>1823.883</ele>
        <time>2018-07-02T17:08:04Z</time>
      </trkpt>
      <trkpt lat="46.343956" lon="6.760113">
        <ele>1821.699</ele>
        <time>2018-07-02T17:08:21Z</time>
      </trkpt>
      <trkpt lat="46.343922" lon="6.760162">
        <ele>1820.681</ele>
        <time>2018-07-02T17:08:37Z</time>
      </trkpt>
      <trkpt lat="46.343882" lon="6.760200">
        <ele>1819.328</ele>
        <time>2018-07-02T17:08:47Z</time>
      </trkpt>
      <trkpt lat="46.343832" lon="6.760203">
        <ele>1817.384</ele>
        <time>2018-07-02T17:08:55Z</time>
      </trkpt>
      <trkpt lat="46.343789" lon="6.760235">
        <ele>1816.269</ele>
        <time>2018-07-02T17:09:02Z</time>
      </trkpt>
      <trkpt lat="46.343740" lon="6.760237">
        <ele>1814.238</ele>
        <time>2018-07-02T17:09:10Z</time>
      </trkpt>
      <trkpt lat="46.343694" lon="6.760236">
        <ele>1812.370</ele>
        <time>2018-07-02T17:09:18Z</time>
      </trkpt>
      <trkpt lat="46.343649" lon="6.760237">
        <ele>1810.517</ele>
        <time>2018-07-02T17:09:27Z</time>
      </trkpt>
      <trkpt lat="46.343602" lon="6.760257">
        <ele>1809.108</ele>
        <time>2018-07-02T17:09:39Z</time>
      </trkpt>
      <trkpt lat="46.343556" lon="6.760261">
        <ele>1807.625</ele>
        <time>2018-07-02T17:09:50Z</time>
      </trkpt>
      <trkpt lat="46.343511" lon="6.760268">
        <ele>1806.131</ele>
        <time>2018-07-02T17:10:03Z</time>
      </trkpt>
      <trkpt lat="46.343465" lon="6.760254">
        <ele>1804.163</ele>
        <time>2018-07-02T17:10:14Z</time>
      </trkpt>
      <trkpt lat="46.343419" lon="6.760249">
        <ele>1802.399</ele>
        <time>2018-07-02T17:10:23Z</time>
      </trkpt>
      <trkpt lat="46.343374" lon="6.760269">
        <ele>1801.261</ele>
        <time>2018-07-02T17:10:32Z</time>
      </trkpt>
      <trkpt lat="46.343334" lon="6.760300">
        <ele>1800.628</ele>
        <time>2018-07-02T17:10:47Z</time>
      </trkpt>
      <trkpt lat="46.343290" lon="6.760285">
        <ele>1798.844</ele>
        <time>2018-07-02T17:10:58Z</time>
      </trkpt>
      <trkpt lat="46.343242" lon="6.760297">
        <ele>1797.539</ele>
        <time>2018-07-02T17:11:09Z</time>
      </trkpt>
      <trkpt lat="46.343196" lon="6.760296">
        <ele>1796.056</ele>
        <time>2018-07-02T17:11:17Z</time>
      </trkpt>
      <trkpt lat="46.343150" lon="6.760302">
        <ele>1794.759</ele>
        <time>2018-07-02T17:11:24Z</time>
      </trkpt>
      <trkpt lat="46.343104" lon="6.760301">
        <ele>1793.214</ele>
        <time>2018-07-02T17:11:31Z</time>
      </trkpt>
      <trkpt lat="46.343057" lon="6.760298">
        <ele>1791.608</ele>
        <time>2018-07-02T17:11:38Z</time>
      </trkpt>
      <trkpt lat="46.343006" lon="6.760302">
        <ele>1790.337</ele>
        <time>2018-07-02T17:11:45Z</time>
      </trkpt>
      <trkpt lat="46.342955" lon="6.760311">
        <ele>1789.013</ele>
        <time>2018-07-02T17:11:53Z</time>
      </trkpt>
      <trkpt lat="46.342908" lon="6.760322">
        <ele>1787.995</ele>
        <time>2018-07-02T17:12:00Z</time>
      </trkpt>
      <trkpt lat="46.342863" lon="6.760337">
        <ele>1787.031</ele>
        <time>2018-07-02T17:12:07Z</time>
      </trkpt>
      <trkpt lat="46.342816" lon="6.760337">
        <ele>1785.683</ele>
        <time>2018-07-02T17:12:15Z</time>
      </trkpt>
      <trkpt lat="46.342771" lon="6.760336">
        <ele>1784.380</ele>
        <time>2018-07-02T17:12:22Z</time>
      </trkpt>
      <trkpt lat="46.342724" lon="6.760330">
        <ele>1782.856</ele>
        <time>2018-07-02T17:12:31Z</time>
      </trkpt>
      <trkpt lat="46.342675" lon="6.760341">
        <ele>1781.681</ele>
        <time>2018-07-02T17:12:40Z</time>
      </trkpt>
      <trkpt lat="46.342629" lon="6.760339">
        <ele>1780.342</ele>
        <time>2018-07-02T17:12:50Z</time>
      </trkpt>
      <trkpt lat="46.342581" lon="6.760357">
        <ele>1779.322</ele>
        <time>2018-07-02T17:12:59Z</time>
      </trkpt>
      <trkpt lat="46.342535" lon="6.760376">
        <ele>1778.514</ele>
        <time>2018-07-02T17:13:06Z</time>
      </trkpt>
      <trkpt lat="46.342488" lon="6.760362">
        <ele>1776.708</ele>
        <time>2018-07-02T17:13:13Z</time>
      </trkpt>
      <trkpt lat="46.342437" lon="6.760358">
        <ele>1775.076</ele>
        <time>2018-07-02T17:13:21Z</time>
      </trkpt>
      <trkpt lat="46.342392" lon="6.760358">
        <ele>1773.532</ele>
        <time>2018-07-02T17:13:33Z</time>
      </trkpt>
      <trkpt lat="46.342347" lon="6.760341">
        <ele>1771.574</ele>
        <time>2018-07-02T17:13:44Z</time>
      </trkpt>
      <trkpt lat="46.342297" lon="6.760345">
        <ele>1769.910</ele>
        <time>2018-07-02T17:13:54Z</time>
      </trkpt>
      <trkpt lat="46.342250" lon="6.760362">
        <ele>1768.932</ele>
        <time>2018-07-02T17:14:02Z</time>
      </trkpt>
      <trkpt lat="46.342203" lon="6.760367">
        <ele>1767.559</ele>
        <time>2018-07-02T17:14:09Z</time>
      </trkpt>
      <trkpt lat="46.342159" lon="6.760381">
        <ele>1766.495</ele>
        <time>2018-07-02T17:14:18Z</time>
      </trkpt>
      <trkpt lat="46.342114" lon="6.760393">
        <ele>1765.330</ele>
        <time>2018-07-02T17:14:25Z</time>
      </trkpt>
      <trkpt lat="46.342068" lon="6.760410">
        <ele>1764.242</ele>
        <time>2018-07-02T17:14:31Z</time>
      </trkpt>
      <trkpt lat="46.342018" lon="6.760419">
        <ele>1762.722</ele>
        <time>2018-07-02T17:14:39Z</time>
      </trkpt>
      <trkpt lat="46.341972" lon="6.760417">
        <ele>1761.014</ele>
        <time>2018-07-02T17:14:47Z</time>
      </trkpt>
      <trkpt lat="46.341923" lon="6.760402">
        <ele>1758.808</ele>
        <time>2018-07-02T17:14:59Z</time>
      </trkpt>
      <trkpt lat="46.341877" lon="6.760420">
        <ele>1758.056</ele>
        <time>2018-07-02T17:15:06Z</time>
      </trkpt>
      <trkpt lat="46.341830" lon="6.760440">
        <ele>1757.272</ele>
        <time>2018-07-02T17:15:14Z</time>
      </trkpt>
      <trkpt lat="46.341784" lon="6.760450">
        <ele>1755.974</ele>
        <time>2018-07-02T17:15:22Z</time>
      </trkpt>
      <trkpt lat="46.341739" lon="6.760470">
        <ele>1754.960</ele>
        <time>2018-07-02T17:15:31Z</time>
      </trkpt>
      <trkpt lat="46.341691" lon="6.760474">
        <ele>1753.472</ele>
        <time>2018-07-02T17:15:40Z</time>
      </trkpt>
      <trkpt lat="46.341659" lon="6.760428">
        <ele>1751.569</ele>
        <time>2018-07-02T17:15:51Z</time>
      </trkpt>
      <trkpt lat="46.341615" lon="6.760406">
        <ele>1750.055</ele>
        <time>2018-07-02T17:15:58Z</time>
      </trkpt>
      <trkpt lat="46.341567" lon="6.760382">
        <ele>1748.670</ele>
        <time>2018-07-02T17:16:04Z</time>
      </trkpt>
      <trkpt lat="46.341519" lon="6.760406">
        <ele>1747.513</ele>
        <time>2018-07-02T17:16:10Z</time>
      </trkpt>
      <trkpt lat="46.341473" lon="6.760429">
        <ele>1746.243</ele>
        <time>2018-07-02T17:16:16Z</time>
      </trkpt>
      <trkpt lat="46.341427" lon="6.760443">
        <ele>1744.807</ele>
        <time>2018-07-02T17:16:23Z</time>
      </trkpt>
      <trkpt lat="46.341384" lon="6.760462">
        <ele>1743.208</ele>
        <time>2018-07-02T17:16:30Z</time>
      </trkpt>
      <trkpt lat="46.341335" lon="6.760465">
        <ele>1741.253</ele>
        <time>2018-07-02T17:16:38Z</time>
      </trkpt>
      <trkpt lat="46.341290" lon="6.760462">
        <ele>1739.689</ele>
        <time>2018-07-02T17:16:45Z</time>
      </trkpt>
      <trkpt lat="46.341243" lon="6.760448">
        <ele>1738.091</ele>
        <time>2018-07-02T17:16:54Z</time>
      </trkpt>
      <trkpt lat="46.341199" lon="6.760428">
        <ele>1736.647</ele>
        <time>2018-07-02T17:17:01Z</time>
      </trkpt>
      <trkpt lat="46.341153" lon="6.760422">
        <ele>1735.089</ele>
        <time>2018-07-02T17:17:08Z</time>
      </trkpt>
      <trkpt lat="46.341109" lon="6.760391">
        <ele>1733.936</ele>
        <time>2018-07-02T17:17:14Z</time>
      </trkpt>
      <trkpt lat="46.341065" lon="6.760356">
        <ele>1732.932</ele>
        <time>2018-07-02T17:17:20Z</time>
      </trkpt>
      <trkpt lat="46.341020" lon="6.760315">
        <ele>1731.837</ele>
        <time>2018-07-02T17:17:27Z</time>
      </trkpt>
      <trkpt lat="46.340986" lon="6.760262">
        <ele>1731.138</ele>
        <time>2018-07-02T17:17:33Z</time>
      </trkpt>
      <trkpt lat="46.340945" lon="6.760217">
        <ele>1729.770</ele>
        <time>2018-07-02T17:17:40Z</time>
      </trkpt>
      <trkpt lat="46.340904" lon="6.760173">
        <ele>1728.117</ele>
        <time>2018-07-02T17:17:47Z</time>
      </trkpt>
      <trkpt lat="46.340864" lon="6.760140">
        <ele>1726.408</ele>
        <time>2018-07-02T17:17:54Z</time>
      </trkpt>
      <trkpt lat="46.340843" lon="6.760073">
        <ele>1725.565</ele>
        <time>2018-07-02T17:18:02Z</time>
      </trkpt>
      <trkpt lat="46.340819" lon="6.760005">
        <ele>1724.421</ele>
        <time>2018-07-02T17:18:15Z</time>
      </trkpt>
      <trkpt lat="46.340773" lon="6.760001">
        <ele>1722.423</ele>
        <time>2018-07-02T17:18:30Z</time>
      </trkpt>
      <trkpt lat="46.340746" lon="6.760057">
        <ele>1721.359</ele>
        <time>2018-07-02T17:18:39Z</time>
      </trkpt>
      <trkpt lat="46.340702" lon="6.760090">
        <ele>1719.551</ele>
        <time>2018-07-02T17:18:49Z</time>
      </trkpt>
      <trkpt lat="46.340660" lon="6.760065">
        <ele>1717.718</ele>
        <time>2018-07-02T17:18:58Z</time>
      </trkpt>
      <trkpt lat="46.340618" lon="6.760024">
        <ele>1715.834</ele>
        <time>2018-07-02T17:19:08Z</time>
      </trkpt>
      <trkpt lat="46.340579" lon="6.759986">
        <ele>1714.029</ele>
        <time>2018-07-02T17:19:15Z</time>
      </trkpt>
      <trkpt lat="46.340535" lon="6.760013">
        <ele>1711.715</ele>
        <time>2018-07-02T17:19:25Z</time>
      </trkpt>
      <trkpt lat="46.340501" lon="6.760058">
        <ele>1709.665</ele>
        <time>2018-07-02T17:19:34Z</time>
      </trkpt>
      <trkpt lat="46.340472" lon="6.760113">
        <ele>1708.111</ele>
        <time>2018-07-02T17:19:49Z</time>
      </trkpt>
      <trkpt lat="46.340433" lon="6.760147">
        <ele>1705.808</ele>
        <time>2018-07-02T17:20:12Z</time>
      </trkpt>
      <trkpt lat="46.340398" lon="6.760200">
        <ele>1704.263</ele>
        <time>2018-07-02T17:20:23Z</time>
      </trkpt>
      <trkpt lat="46.340355" lon="6.760235">
        <ele>1702.029</ele>
        <time>2018-07-02T17:20:31Z</time>
      </trkpt>
      <trkpt lat="46.340313" lon="6.760277">
        <ele>1700.081</ele>
        <time>2018-07-02T17:20:38Z</time>
      </trkpt>
      <trkpt lat="46.340266" lon="6.760289">
        <ele>1697.287</ele>
        <time>2018-07-02T17:20:55Z</time>
      </trkpt>
      <trkpt lat="46.340241" lon="6.760232">
        <ele>1695.089</ele>
        <time>2018-07-02T17:21:24Z</time>
      </trkpt>
      <trkpt lat="46.340234" lon="6.760166">
        <ele>1693.686</ele>
        <time>2018-07-02T17:21:43Z</time>
      </trkpt>
      <trkpt lat="46.340215" lon="6.760104">
        <ele>1691.632</ele>
        <time>2018-07-02T17:22:01Z</time>
      </trkpt>
      <trkpt lat="46.340171" lon="6.760077">
        <ele>1688.597</ele>
        <time>2018-07-02T17:22:11Z</time>
      </trkpt>
      <trkpt lat="46.340132" lon="6.760119">
        <ele>1686.679</ele>
        <time>2018-07-02T17:22:24Z</time>
      </trkpt>
      <trkpt lat="46.340098" lon="6.760166">
        <ele>1685.005</ele>
        <time>2018-07-02T17:22:35Z</time>
      </trkpt>
      <trkpt lat="46.340061" lon="6.760205">
        <ele>1683.125</ele>
        <time>2018-07-02T17:22:43Z</time>
      </trkpt>
      <trkpt lat="46.340019" lon="6.760243">
        <ele>1680.808</ele>
        <time>2018-07-02T17:22:51Z</time>
      </trkpt>
      <trkpt lat="46.339975" lon="6.760268">
        <ele>1678.849</ele>
        <time>2018-07-02T17:23:02Z</time>
      </trkpt>
      <trkpt lat="46.339930" lon="6.760292">
        <ele>1677.285</ele>
        <time>2018-07-02T17:23:13Z</time>
      </trkpt>
      <trkpt lat="46.339885" lon="6.760322">
        <ele>1675.777</ele>
        <time>2018-07-02T17:23:22Z</time>
      </trkpt>
      <trkpt lat="46.339841" lon="6.760344">
        <ele>1674.083</ele>
        <time>2018-07-02T17:23:33Z</time>
      </trkpt>
      <trkpt lat="46.339802" lon="6.760391">
        <ele>1672.925</ele>
        <time>2018-07-02T17:23:43Z</time>
      </trkpt>
      <trkpt lat="46.339765" lon="6.760435">
        <ele>1671.752</ele>
        <time>2018-07-02T17:23:50Z</time>
      </trkpt>
      <trkpt lat="46.339730" lon="6.760476">
        <ele>1670.588</ele>
        <time>2018-07-02T17:23:58Z</time>
      </trkpt>
      <trkpt lat="46.339686" lon="6.760504">
        <ele>1668.923</ele>
        <time>2018-07-02T17:24:06Z</time>
      </trkpt>
      <trkpt lat="46.339639" lon="6.760525">
        <ele>1667.175</ele>
        <time>2018-07-02T17:24:15Z</time>
      </trkpt>
      <trkpt lat="46.339602" lon="6.760563">
        <ele>1665.828</ele>
        <time>2018-07-02T17:24:25Z</time>
      </trkpt>
      <trkpt lat="46.339568" lon="6.760606">
        <ele>1664.320</ele>
        <time>2018-07-02T17:24:32Z</time>
      </trkpt>
      <trkpt lat="46.339527" lon="6.760640">
        <ele>1662.508</ele>
        <time>2018-07-02T17:24:40Z</time>
      </trkpt>
      <trkpt lat="46.339492" lon="6.760690">
        <ele>1661.029</ele>
        <time>2018-07-02T17:25:00Z</time>
      </trkpt>
      <trkpt lat="46.339443" lon="6.760704">
        <ele>1659.015</ele>
        <time>2018-07-02T17:25:19Z</time>
      </trkpt>
      <trkpt lat="46.339407" lon="6.760747">
        <ele>1657.717</ele>
        <time>2018-07-02T17:25:26Z</time>
      </trkpt>
      <trkpt lat="46.339366" lon="6.760781">
        <ele>1656.273</ele>
        <time>2018-07-02T17:25:32Z</time>
      </trkpt>
      <trkpt lat="46.339320" lon="6.760800">
        <ele>1654.685</ele>
        <time>2018-07-02T17:25:38Z</time>
      </trkpt>
      <trkpt lat="46.339274" lon="6.760831">
        <ele>1652.962</ele>
        <time>2018-07-02T17:25:45Z</time>
      </trkpt>
      <trkpt lat="46.339232" lon="6.760800">
        <ele>1651.498</ele>
        <time>2018-07-02T17:25:55Z</time>
      </trkpt>
      <trkpt lat="46.339190" lon="6.760766">
        <ele>1650.163</ele>
        <time>2018-07-02T17:26:11Z</time>
      </trkpt>
      <trkpt lat="46.339144" lon="6.760792">
        <ele>1648.699</ele>
        <time>2018-07-02T17:26:20Z</time>
      </trkpt>
      <trkpt lat="46.339100" lon="6.760809">
        <ele>1647.407</ele>
        <time>2018-07-02T17:26:28Z</time>
      </trkpt>
      <trkpt lat="46.339055" lon="6.760836">
        <ele>1646.227</ele>
        <time>2018-07-02T17:26:37Z</time>
      </trkpt>
      <trkpt lat="46.339009" lon="6.760865">
        <ele>1644.708</ele>
        <time>2018-07-02T17:26:45Z</time>
      </trkpt>
      <trkpt lat="46.338959" lon="6.760865">
        <ele>1643.581</ele>
        <time>2018-07-02T17:26:54Z</time>
      </trkpt>
      <trkpt lat="46.338912" lon="6.760887">
        <ele>1642.087</ele>
        <time>2018-07-02T17:27:02Z</time>
      </trkpt>
      <trkpt lat="46.338862" lon="6.760899">
        <ele>1640.689</ele>
        <time>2018-07-02T17:27:08Z</time>
      </trkpt>
      <trkpt lat="46.338817" lon="6.760914">
        <ele>1639.275</ele>
        <time>2018-07-02T17:27:15Z</time>
      </trkpt>
      <trkpt lat="46.338775" lon="6.760950">
        <ele>1637.747</ele>
        <time>2018-07-02T17:27:21Z</time>
      </trkpt>
      <trkpt lat="46.338732" lon="6.760980">
        <ele>1636.264</ele>
        <time>2018-07-02T17:27:27Z</time>
      </trkpt>
      <trkpt lat="46.338683" lon="6.760993">
        <ele>1634.730</ele>
        <time>2018-07-02T17:27:33Z</time>
      </trkpt>
      <trkpt lat="46.338633" lon="6.760991">
        <ele>1633.375</ele>
        <time>2018-07-02T17:27:40Z</time>
      </trkpt>
      <trkpt lat="46.338585" lon="6.760986">
        <ele>1632.372</ele>
        <time>2018-07-02T17:27:48Z</time>
      </trkpt>
      <trkpt lat="46.338546" lon="6.760945">
        <ele>1632.213</ele>
        <time>2018-07-02T17:27:57Z</time>
      </trkpt>
      <trkpt lat="46.338496" lon="6.760937">
        <ele>1631.414</ele>
        <time>2018-07-02T17:28:12Z</time>
      </trkpt>
      <trkpt lat="46.338447" lon="6.760938">
        <ele>1630.508</ele>
        <time>2018-07-02T17:28:19Z</time>
      </trkpt>
      <trkpt lat="46.338400" lon="6.760967">
        <ele>1629.339</ele>
        <time>2018-07-02T17:28:26Z</time>
      </trkpt>
      <trkpt lat="46.338359" lon="6.760995">
        <ele>1628.175</ele>
        <time>2018-07-02T17:28:32Z</time>
      </trkpt>
      <trkpt lat="46.338314" lon="6.761025">
        <ele>1627.037</ele>
        <time>2018-07-02T17:28:39Z</time>
      </trkpt>
      <trkpt lat="46.338272" lon="6.761052">
        <ele>1626.033</ele>
        <time>2018-07-02T17:28:45Z</time>
      </trkpt>
      <trkpt lat="46.338227" lon="6.761082">
        <ele>1624.965</ele>
        <time>2018-07-02T17:28:52Z</time>
      </trkpt>
      <trkpt lat="46.338184" lon="6.761118">
        <ele>1623.782</ele>
        <time>2018-07-02T17:29:04Z</time>
      </trkpt>
      <trkpt lat="46.338140" lon="6.761154">
        <ele>1622.488</ele>
        <time>2018-07-02T17:29:15Z</time>
      </trkpt>
      <trkpt lat="46.338100" lon="6.761186">
        <ele>1621.263</ele>
        <time>2018-07-02T17:29:22Z</time>
      </trkpt>
      <trkpt lat="46.338057" lon="6.761204">
        <ele>1620.385</ele>
        <time>2018-07-02T17:29:32Z</time>
      </trkpt>
      <trkpt lat="46.338009" lon="6.761227">
        <ele>1618.889</ele>
        <time>2018-07-02T17:29:40Z</time>
      </trkpt>
      <trkpt lat="46.337962" lon="6.761254">
        <ele>1617.217</ele>
        <time>2018-07-02T17:29:59Z</time>
      </trkpt>
      <trkpt lat="46.337916" lon="6.761271">
        <ele>1615.908</ele>
        <time>2018-07-02T17:30:07Z</time>
      </trkpt>
      <trkpt lat="46.337877" lon="6.761303">
        <ele>1614.520</ele>
        <time>2018-07-02T17:30:16Z</time>
      </trkpt>
      <trkpt lat="46.337859" lon="6.761369">
        <ele>1613.146</ele>
        <time>2018-07-02T17:30:25Z</time>
      </trkpt>
      <trkpt lat="46.337828" lon="6.761419">
        <ele>1611.558</ele>
        <time>2018-07-02T17:30:33Z</time>
      </trkpt>
      <trkpt lat="46.337793" lon="6.761472">
        <ele>1609.834</ele>
        <time>2018-07-02T17:30:40Z</time>
      </trkpt>
      <trkpt lat="46.337754" lon="6.761507">
        <ele>1608.256</ele>
        <time>2018-07-02T17:30:48Z</time>
      </trkpt>
      <trkpt lat="46.337714" lon="6.761539">
        <ele>1606.533</ele>
        <time>2018-07-02T17:30:58Z</time>
      </trkpt>
      <trkpt lat="46.337671" lon="6.761569">
        <ele>1604.839</ele>
        <time>2018-07-02T17:31:06Z</time>
      </trkpt>
      <trkpt lat="46.337626" lon="6.761588">
        <ele>1603.324</ele>
        <time>2018-07-02T17:31:14Z</time>
      </trkpt>
      <trkpt lat="46.337576" lon="6.761602">
        <ele>1601.777</ele>
        <time>2018-07-02T17:31:21Z</time>
      </trkpt>
      <trkpt lat="46.337530" lon="6.761598">
        <ele>1600.661</ele>
        <time>2018-07-02T17:31:27Z</time>
      </trkpt>
      <trkpt lat="46.337485" lon="6.761607">
        <ele>1599.127</ele>
        <time>2018-07-02T17:31:37Z</time>
      </trkpt>
      <trkpt lat="46.337440" lon="6.761639">
        <ele>1597.108</ele>
        <time>2018-07-02T17:31:47Z</time>
      </trkpt>
      <trkpt lat="46.337401" lon="6.761681">
        <ele>1595.399</ele>
        <time>2018-07-02T17:31:59Z</time>
      </trkpt>
      <trkpt lat="46.337357" lon="6.761704">
        <ele>1593.525</ele>
        <time>2018-07-02T17:32:11Z</time>
      </trkpt>
      <trkpt lat="46.337332" lon="6.761760">
        <ele>1592.217</ele>
        <time>2018-07-02T17:32:21Z</time>
      </trkpt>
      <trkpt lat="46.337311" lon="6.761821">
        <ele>1591.173</ele>
        <time>2018-07-02T17:32:30Z</time>
      </trkpt>
      <trkpt lat="46.337278" lon="6.761870">
        <ele>1589.815</ele>
        <time>2018-07-02T17:32:38Z</time>
      </trkpt>
      <trkpt lat="46.337244" lon="6.761925">
        <ele>1588.622</ele>
        <time>2018-07-02T17:32:48Z</time>
      </trkpt>
      <trkpt lat="46.337217" lon="6.761979">
        <ele>1587.668</ele>
        <time>2018-07-02T17:32:56Z</time>
      </trkpt>
      <trkpt lat="46.337188" lon="6.762030">
        <ele>1586.453</ele>
        <time>2018-07-02T17:33:03Z</time>
      </trkpt>
      <trkpt lat="46.337165" lon="6.762090">
        <ele>1585.416</ele>
        <time>2018-07-02T17:33:10Z</time>
      </trkpt>
      <trkpt lat="46.337145" lon="6.762151">
        <ele>1584.676</ele>
        <time>2018-07-02T17:33:16Z</time>
      </trkpt>
      <trkpt lat="46.337123" lon="6.762213">
        <ele>1583.913</ele>
        <time>2018-07-02T17:33:23Z</time>
      </trkpt>
      <trkpt lat="46.337091" lon="6.762270">
        <ele>1582.608</ele>
        <time>2018-07-02T17:33:30Z</time>
      </trkpt>
      <trkpt lat="46.337065" lon="6.762327">
        <ele>1581.373</ele>
        <time>2018-07-02T17:33:36Z</time>
      </trkpt>
      <trkpt lat="46.337035" lon="6.762379">
        <ele>1580.169</ele>
        <time>2018-07-02T17:33:42Z</time>
      </trkpt>
      <trkpt lat="46.337010" lon="6.762444">
        <ele>1578.841</ele>
        <time>2018-07-02T17:33:48Z</time>
      </trkpt>
      <trkpt lat="46.336990" lon="6.762514">
        <ele>1577.687</ele>
        <time>2018-07-02T17:33:54Z</time>
      </trkpt>
      <trkpt lat="46.336969" lon="6.762581">
        <ele>1576.379</ele>
        <time>2018-07-02T17:34:01Z</time>
      </trkpt>
      <trkpt lat="46.336944" lon="6.762648">
        <ele>1574.976</ele>
        <time>2018-07-02T17:34:08Z</time>
      </trkpt>
      <trkpt lat="46.336913" lon="6.762706">
        <ele>1573.312</ele>
        <time>2018-07-02T17:34:14Z</time>
      </trkpt>
      <trkpt lat="46.336884" lon="6.762760">
        <ele>1571.997</ele>
        <time>2018-07-02T17:34:21Z</time>
      </trkpt>
      <trkpt lat="46.336850" lon="6.762822">
        <ele>1570.565</ele>
        <time>2018-07-02T17:34:28Z</time>
      </trkpt>
      <trkpt lat="46.336813" lon="6.762862">
        <ele>1569.468</ele>
        <time>2018-07-02T17:34:34Z</time>
      </trkpt>
      <trkpt lat="46.336765" lon="6.762885">
        <ele>1568.314</ele>
        <time>2018-07-02T17:34:43Z</time>
      </trkpt>
      <trkpt lat="46.336721" lon="6.762915">
        <ele>1567.408</ele>
        <time>2018-07-02T17:34:50Z</time>
      </trkpt>
      <trkpt lat="46.336682" lon="6.762963">
        <ele>1566.618</ele>
        <time>2018-07-02T17:34:58Z</time>
      </trkpt>
      <trkpt lat="46.336638" lon="6.762992">
        <ele>1565.544</ele>
        <time>2018-07-02T17:35:05Z</time>
      </trkpt>
      <trkpt lat="46.336605" lon="6.763037">
        <ele>1564.586</ele>
        <time>2018-07-02T17:35:12Z</time>
      </trkpt>
      <trkpt lat="46.336584" lon="6.763097">
        <ele>1563.622</ele>
        <time>2018-07-02T17:35:18Z</time>
      </trkpt>
      <trkpt lat="46.336553" lon="6.763148">
        <ele>1562.574</ele>
        <time>2018-07-02T17:35:24Z</time>
      </trkpt>
      <trkpt lat="46.336523" lon="6.763202">
        <ele>1561.381</ele>
        <time>2018-07-02T17:35:31Z</time>
      </trkpt>
      <trkpt lat="46.336495" lon="6.763259">
        <ele>1560.267</ele>
        <time>2018-07-02T17:35:38Z</time>
      </trkpt>
      <trkpt lat="46.336471" lon="6.763317">
        <ele>1559.292</ele>
        <time>2018-07-02T17:36:01Z</time>
      </trkpt>
      <trkpt lat="46.336491" lon="6.763383">
        <ele>1559.379</ele>
        <time>2018-07-02T17:36:23Z</time>
      </trkpt>
      <trkpt lat="46.336494" lon="6.763449">
        <ele>1559.105</ele>
        <time>2018-07-02T17:36:31Z</time>
      </trkpt>
      <trkpt lat="46.336493" lon="6.763518">
        <ele>1558.725</ele>
        <time>2018-07-02T17:36:41Z</time>
      </trkpt>
      <trkpt lat="46.336490" lon="6.763584">
        <ele>1558.308</ele>
        <time>2018-07-02T17:36:58Z</time>
      </trkpt>
      <trkpt lat="46.336452" lon="6.763622">
        <ele>1557.379</ele>
        <time>2018-07-02T17:38:17Z</time>
      </trkpt>
      <trkpt lat="46.336411" lon="6.763671">
        <ele>1556.385</ele>
        <time>2018-07-02T17:38:23Z</time>
      </trkpt>
      <trkpt lat="46.336367" lon="6.763706">
        <ele>1555.447</ele>
        <time>2018-07-02T17:38:29Z</time>
      </trkpt>
      <trkpt lat="46.336330" lon="6.763746">
        <ele>1554.873</ele>
        <time>2018-07-02T17:38:35Z</time>
      </trkpt>
      <trkpt lat="46.336288" lon="6.763777">
        <ele>1554.145</ele>
        <time>2018-07-02T17:38:41Z</time>
      </trkpt>
      <trkpt lat="46.336244" lon="6.763806">
        <ele>1553.452</ele>
        <time>2018-07-02T17:38:47Z</time>
      </trkpt>
      <trkpt lat="46.336212" lon="6.763852">
        <ele>1552.738</ele>
        <time>2018-07-02T17:38:52Z</time>
      </trkpt>
      <trkpt lat="46.336180" lon="6.763904">
        <ele>1551.943</ele>
        <time>2018-07-02T17:38:57Z</time>
      </trkpt>
      <trkpt lat="46.336138" lon="6.763952">
        <ele>1551.075</ele>
        <time>2018-07-02T17:39:03Z</time>
      </trkpt>
      <trkpt lat="46.336099" lon="6.764003">
        <ele>1550.128</ele>
        <time>2018-07-02T17:39:09Z</time>
      </trkpt>
      <trkpt lat="46.336056" lon="6.764049">
        <ele>1549.620</ele>
        <time>2018-07-02T17:39:15Z</time>
      </trkpt>
      <trkpt lat="46.336016" lon="6.764084">
        <ele>1549.308</ele>
        <time>2018-07-02T17:39:20Z</time>
      </trkpt>
      <trkpt lat="46.335970" lon="6.764114">
        <ele>1548.949</ele>
        <time>2018-07-02T17:39:25Z</time>
      </trkpt>
      <trkpt lat="46.335930" lon="6.764155">
        <ele>1548.485</ele>
        <time>2018-07-02T17:39:30Z</time>
      </trkpt>
      <trkpt lat="46.335894" lon="6.764209">
        <ele>1547.947</ele>
        <time>2018-07-02T17:39:35Z</time>
      </trkpt>
      <trkpt lat="46.335859" lon="6.764261">
        <ele>1547.433</ele>
        <time>2018-07-02T17:39:40Z</time>
      </trkpt>
      <trkpt lat="46.335822" lon="6.764313">
        <ele>1546.945</ele>
        <time>2018-07-02T17:39:45Z</time>
      </trkpt>
      <trkpt lat="46.335785" lon="6.764362">
        <ele>1546.562</ele>
        <time>2018-07-02T17:39:50Z</time>
      </trkpt>
      <trkpt lat="46.335745" lon="6.764418">
        <ele>1546.278</ele>
        <time>2018-07-02T17:39:55Z</time>
      </trkpt>
      <trkpt lat="46.335710" lon="6.764465">
        <ele>1545.913</ele>
        <time>2018-07-02T17:39:59Z</time>
      </trkpt>
      <trkpt lat="46.335681" lon="6.764515">
        <ele>1545.598</ele>
        <time>2018-07-02T17:40:03Z</time>
      </trkpt>
      <trkpt lat="46.335647" lon="6.764574">
        <ele>1545.115</ele>
        <time>2018-07-02T17:40:08Z</time>
      </trkpt>
      <trkpt lat="46.335612" lon="6.764632">
        <ele>1544.726</ele>
        <time>2018-07-02T17:40:13Z</time>
      </trkpt>
      <trkpt lat="46.335575" lon="6.764693">
        <ele>1544.208</ele>
        <time>2018-07-02T17:40:18Z</time>
      </trkpt>
      <trkpt lat="46.335537" lon="6.764747">
        <ele>1544.061</ele>
        <time>2018-07-02T17:40:23Z</time>
      </trkpt>
      <trkpt lat="46.335500" lon="6.764803">
        <ele>1543.947</ele>
        <time>2018-07-02T17:40:28Z</time>
      </trkpt>
      <trkpt lat="46.335468" lon="6.764864">
        <ele>1543.869</ele>
        <time>2018-07-02T17:40:33Z</time>
      </trkpt>
      <trkpt lat="46.335433" lon="6.764912">
        <ele>1543.895</ele>
        <time>2018-07-02T17:40:38Z</time>
      </trkpt>
      <trkpt lat="46.335397" lon="6.764968">
        <ele>1543.717</ele>
        <time>2018-07-02T17:40:44Z</time>
      </trkpt>
      <trkpt lat="46.335367" lon="6.765018">
        <ele>1543.664</ele>
        <time>2018-07-02T17:40:50Z</time>
      </trkpt>
      <trkpt lat="46.335354" lon="6.765082">
        <ele>1543.320</ele>
        <time>2018-07-02T17:40:56Z</time>
      </trkpt>
      <trkpt lat="46.335327" lon="6.765143">
        <ele>1543.275</ele>
        <time>2018-07-02T17:41:03Z</time>
      </trkpt>
      <trkpt lat="46.335308" lon="6.765210">
        <ele>1543.133</ele>
        <time>2018-07-02T17:41:09Z</time>
      </trkpt>
      <trkpt lat="46.335284" lon="6.765265">
        <ele>1543.023</ele>
        <time>2018-07-02T17:41:17Z</time>
      </trkpt>
      <trkpt lat="46.335251" lon="6.765311">
        <ele>1542.915</ele>
        <time>2018-07-02T17:41:23Z</time>
      </trkpt>
      <trkpt lat="46.335214" lon="6.765363">
        <ele>1542.708</ele>
        <time>2018-07-02T17:41:29Z</time>
      </trkpt>
      <trkpt lat="46.335173" lon="6.765401">
        <ele>1542.735</ele>
        <time>2018-07-02T17:41:35Z</time>
      </trkpt>
      <trkpt lat="46.335133" lon="6.765445">
        <ele>1542.611</ele>
        <time>2018-07-02T17:41:42Z</time>
      </trkpt>
      <trkpt lat="46.335090" lon="6.765473">
        <ele>1542.723</ele>
        <time>2018-07-02T17:41:48Z</time>
      </trkpt>
      <trkpt lat="46.335039" lon="6.765491">
        <ele>1543.029</ele>
        <time>2018-07-02T17:41:54Z</time>
      </trkpt>
      <trkpt lat="46.334990" lon="6.765508">
        <ele>1543.271</ele>
        <time>2018-07-02T17:42:00Z</time>
      </trkpt>
      <trkpt lat="46.334943" lon="6.765531">
        <ele>1543.358</ele>
        <time>2018-07-02T17:42:06Z</time>
      </trkpt>
      <trkpt lat="46.334899" lon="6.765550">
        <ele>1543.444</ele>
        <time>2018-07-02T17:42:12Z</time>
      </trkpt>
      <trkpt lat="46.334849" lon="6.765556">
        <ele>1543.599</ele>
        <time>2018-07-02T17:42:18Z</time>
      </trkpt>
      <trkpt lat="46.334802" lon="6.765569">
        <ele>1543.794</ele>
        <time>2018-07-02T17:42:24Z</time>
      </trkpt>
      <trkpt lat="46.334752" lon="6.765576">
        <ele>1543.857</ele>
        <time>2018-07-02T17:42:31Z</time>
      </trkpt>
      <trkpt lat="46.334706" lon="6.765590">
        <ele>1544.022</ele>
        <time>2018-07-02T17:42:37Z</time>
      </trkpt>
      <trkpt lat="46.334653" lon="6.765603">
        <ele>1544.208</ele>
        <time>2018-07-02T17:42:43Z</time>
      </trkpt>
      <trkpt lat="46.334607" lon="6.765612">
        <ele>1544.521</ele>
        <time>2018-07-02T17:42:48Z</time>
      </trkpt>
      <trkpt lat="46.334561" lon="6.765622">
        <ele>1544.647</ele>
        <time>2018-07-02T17:42:53Z</time>
      </trkpt>
      <trkpt lat="46.334512" lon="6.765633">
        <ele>1544.899</ele>
        <time>2018-07-02T17:42:58Z</time>
      </trkpt>
      <trkpt lat="46.334464" lon="6.765639">
        <ele>1545.085</ele>
        <time>2018-07-02T17:43:03Z</time>
      </trkpt>
      <trkpt lat="46.334417" lon="6.765638">
        <ele>1545.127</ele>
        <time>2018-07-02T17:43:08Z</time>
      </trkpt>
      <trkpt lat="46.334371" lon="6.765636">
        <ele>1545.184</ele>
        <time>2018-07-02T17:43:13Z</time>
      </trkpt>
      <trkpt lat="46.334323" lon="6.765631">
        <ele>1545.240</ele>
        <time>2018-07-02T17:43:18Z</time>
      </trkpt>
      <trkpt lat="46.334272" lon="6.765635">
        <ele>1545.185</ele>
        <time>2018-07-02T17:43:23Z</time>
      </trkpt>
      <trkpt lat="46.334222" lon="6.765648">
        <ele>1545.047</ele>
        <time>2018-07-02T17:43:28Z</time>
      </trkpt>
      <trkpt lat="46.334176" lon="6.765671">
        <ele>1544.829</ele>
        <time>2018-07-02T17:43:34Z</time>
      </trkpt>
      <trkpt lat="46.334135" lon="6.765703">
        <ele>1544.721</ele>
        <time>2018-07-02T17:43:39Z</time>
      </trkpt>
      <trkpt lat="46.334095" lon="6.765759">
        <ele>1544.308</ele>
        <time>2018-07-02T17:43:44Z</time>
      </trkpt>
      <trkpt lat="46.334054" lon="6.765794">
        <ele>1544.086</ele>
        <time>2018-07-02T17:43:49Z</time>
      </trkpt>
      <trkpt lat="46.334011" lon="6.765825">
        <ele>1543.732</ele>
        <time>2018-07-02T17:43:54Z</time>
      </trkpt>
      <trkpt lat="46.333967" lon="6.765850">
        <ele>1543.424</ele>
        <time>2018-07-02T17:44:01Z</time>
      </trkpt>
      <trkpt lat="46.333926" lon="6.765881">
        <ele>1542.910</ele>
        <time>2018-07-02T17:44:09Z</time>
      </trkpt>
      <trkpt lat="46.333880" lon="6.765924">
        <ele>1542.192</ele>
        <time>2018-07-02T17:44:16Z</time>
      </trkpt>
      <trkpt lat="46.333850" lon="6.765973">
        <ele>1541.139</ele>
        <time>2018-07-02T17:44:21Z</time>
      </trkpt>
      <trkpt lat="46.333813" lon="6.766028">
        <ele>1539.835</ele>
        <time>2018-07-02T17:44:26Z</time>
      </trkpt>
      <trkpt lat="46.333769" lon="6.766075">
        <ele>1538.680</ele>
        <time>2018-07-02T17:44:31Z</time>
      </trkpt>
      <trkpt lat="46.333724" lon="6.766117">
        <ele>1537.227</ele>
        <time>2018-07-02T17:44:36Z</time>
      </trkpt>
      <trkpt lat="46.333678" lon="6.766149">
        <ele>1536.268</ele>
        <time>2018-07-02T17:44:41Z</time>
      </trkpt>
      <trkpt lat="46.333629" lon="6.766176">
        <ele>1535.214</ele>
        <time>2018-07-02T17:44:46Z</time>
      </trkpt>
      <trkpt lat="46.333581" lon="6.766194">
        <ele>1534.708</ele>
        <time>2018-07-02T17:44:51Z</time>
      </trkpt>
      <trkpt lat="46.333534" lon="6.766196">
        <ele>1534.984</ele>
        <time>2018-07-02T17:44:56Z</time>
      </trkpt>
      <trkpt lat="46.333483" lon="6.766198">
        <ele>1535.080</ele>
        <time>2018-07-02T17:45:01Z</time>
      </trkpt>
      <trkpt lat="46.333434" lon="6.766200">
        <ele>1535.162</ele>
        <time>2018-07-02T17:45:06Z</time>
      </trkpt>
      <trkpt lat="46.333384" lon="6.766191">
        <ele>1535.788</ele>
        <time>2018-07-02T17:45:11Z</time>
      </trkpt>
      <trkpt lat="46.333332" lon="6.766187">
        <ele>1536.220</ele>
        <time>2018-07-02T17:45:16Z</time>
      </trkpt>
      <trkpt lat="46.333281" lon="6.766199">
        <ele>1535.947</ele>
        <time>2018-07-02T17:45:22Z</time>
      </trkpt>
      <trkpt lat="46.333235" lon="6.766220">
        <ele>1535.113</ele>
        <time>2018-07-02T17:45:27Z</time>
      </trkpt>
      <trkpt lat="46.333181" lon="6.766235">
        <ele>1534.688</ele>
        <time>2018-07-02T17:45:32Z</time>
      </trkpt>
      <trkpt lat="46.333136" lon="6.766255">
        <ele>1533.874</ele>
        <time>2018-07-02T17:45:37Z</time>
      </trkpt>
      <trkpt lat="46.333088" lon="6.766273">
        <ele>1533.156</ele>
        <time>2018-07-02T17:45:42Z</time>
      </trkpt>
      <trkpt lat="46.333037" lon="6.766294">
        <ele>1532.121</ele>
        <time>2018-07-02T17:45:47Z</time>
      </trkpt>
      <trkpt lat="46.332987" lon="6.766309">
        <ele>1531.108</ele>
        <time>2018-07-02T17:45:52Z</time>
      </trkpt>
      <trkpt lat="46.332939" lon="6.766320">
        <ele>1530.349</ele>
        <time>2018-07-02T17:45:57Z</time>
      </trkpt>
      <trkpt lat="46.332890" lon="6.766331">
        <ele>1529.575</ele>
        <time>2018-07-02T17:46:02Z</time>
      </trkpt>
      <trkpt lat="46.332842" lon="6.766333">
        <ele>1529.237</ele>
        <time>2018-07-02T17:46:06Z</time>
      </trkpt>
      <trkpt lat="46.332788" lon="6.766319">
        <ele>1529.853</ele>
        <time>2018-07-02T17:46:10Z</time>
      </trkpt>
      <trkpt lat="46.332743" lon="6.766296">
        <ele>1530.255</ele>
        <time>2018-07-02T17:46:14Z</time>
      </trkpt>
      <trkpt lat="46.332690" lon="6.766281">
        <ele>1529.762</ele>
        <time>2018-07-02T17:46:19Z</time>
      </trkpt>
      <trkpt lat="46.332642" lon="6.766286">
        <ele>1528.328</ele>
        <time>2018-07-02T17:46:23Z</time>
      </trkpt>
      <trkpt lat="46.332597" lon="6.766278">
        <ele>1527.613</ele>
        <time>2018-07-02T17:46:27Z</time>
      </trkpt>
      <trkpt lat="46.332544" lon="6.766265">
        <ele>1526.988</ele>
        <time>2018-07-02T17:46:32Z</time>
      </trkpt>
      <trkpt lat="46.332499" lon="6.766256">
        <ele>1526.224</ele>
        <time>2018-07-02T17:46:37Z</time>
      </trkpt>
      <trkpt lat="46.332447" lon="6.766243">
        <ele>1524.826</ele>
        <time>2018-07-02T17:46:43Z</time>
      </trkpt>
      <trkpt lat="46.332396" lon="6.766230">
        <ele>1523.408</ele>
        <time>2018-07-02T17:46:49Z</time>
      </trkpt>
      <trkpt lat="46.332346" lon="6.766213">
        <ele>1522.070</ele>
        <time>2018-07-02T17:46:55Z</time>
      </trkpt>
      <trkpt lat="46.332301" lon="6.766187">
        <ele>1521.126</ele>
        <time>2018-07-02T17:47:01Z</time>
      </trkpt>
      <trkpt lat="46.332257" lon="6.766164">
        <ele>1520.038</ele>
        <time>2018-07-02T17:47:08Z</time>
      </trkpt>
      <trkpt lat="46.332210" lon="6.766145">
        <ele>1518.794</ele>
        <time>2018-07-02T17:47:16Z</time>
      </trkpt>
      <trkpt lat="46.332162" lon="6.766129">
        <ele>1517.656</ele>
        <time>2018-07-02T17:47:23Z</time>
      </trkpt>
      <trkpt lat="46.332115" lon="6.766092">
        <ele>1517.043</ele>
        <time>2018-07-02T17:47:29Z</time>
      </trkpt>
      <trkpt lat="46.332072" lon="6.766056">
        <ele>1516.449</ele>
        <time>2018-07-02T17:47:35Z</time>
      </trkpt>
      <trkpt lat="46.332021" lon="6.766012">
        <ele>1515.644</ele>
        <time>2018-07-02T17:47:42Z</time>
      </trkpt>
      <trkpt lat="46.331980" lon="6.765971">
        <ele>1514.981</ele>
        <time>2018-07-02T17:47:47Z</time>
      </trkpt>
      <trkpt lat="46.331942" lon="6.765924">
        <ele>1514.361</ele>
        <time>2018-07-02T17:47:52Z</time>
      </trkpt>
      <trkpt lat="46.331898" lon="6.765872">
        <ele>1514.217</ele>
        <time>2018-07-02T17:47:57Z</time>
      </trkpt>
      <trkpt lat="46.331855" lon="6.765834">
        <ele>1513.708</ele>
        <time>2018-07-02T17:48:02Z</time>
      </trkpt>
      <trkpt lat="46.331822" lon="6.765790">
        <ele>1514.130</ele>
        <time>2018-07-02T17:48:07Z</time>
      </trkpt>
      <trkpt lat="46.331784" lon="6.765742">
        <ele>1514.356</ele>
        <time>2018-07-02T17:48:12Z</time>
      </trkpt>
      <trkpt lat="46.331736" lon="6.765713">
        <ele>1513.558</ele>
        <time>2018-07-02T17:48:17Z</time>
      </trkpt>
      <trkpt lat="46.331695" lon="6.765679">
        <ele>1512.874</ele>
        <time>2018-07-02T17:48:22Z</time>
      </trkpt>
      <trkpt lat="46.331651" lon="6.765643">
        <ele>1512.276</ele>
        <time>2018-07-02T17:48:28Z</time>
      </trkpt>
      <trkpt lat="46.331606" lon="6.765611">
        <ele>1511.933</ele>
        <time>2018-07-02T17:48:33Z</time>
      </trkpt>
      <trkpt lat="46.331559" lon="6.765585">
        <ele>1511.389</ele>
        <time>2018-07-02T17:48:38Z</time>
      </trkpt>
      <trkpt lat="46.331513" lon="6.765555">
        <ele>1510.774</ele>
        <time>2018-07-02T17:48:44Z</time>
      </trkpt>
      <trkpt lat="46.331465" lon="6.765541">
        <ele>1509.939</ele>
        <time>2018-07-02T17:48:49Z</time>
      </trkpt>
      <trkpt lat="46.331415" lon="6.765509">
        <ele>1509.401</ele>
        <time>2018-07-02T17:48:55Z</time>
      </trkpt>
      <trkpt lat="46.331369" lon="6.765494">
        <ele>1509.021</ele>
        <time>2018-07-02T17:49:00Z</time>
      </trkpt>
      <trkpt lat="46.331325" lon="6.765465">
        <ele>1509.208</ele>
        <time>2018-07-02T17:49:04Z</time>
      </trkpt>
      <trkpt lat="46.331283" lon="6.765439">
        <ele>1509.225</ele>
        <time>2018-07-02T17:49:08Z</time>
      </trkpt>
      <trkpt lat="46.331230" lon="6.765437">
        <ele>1508.861</ele>
        <time>2018-07-02T17:49:13Z</time>
      </trkpt>
      <trkpt lat="46.331180" lon="6.765429">
        <ele>1508.593</ele>
        <time>2018-07-02T17:49:18Z</time>
      </trkpt>
      <trkpt lat="46.331126" lon="6.765437">
        <ele>1508.049</ele>
        <time>2018-07-02T17:49:23Z</time>
      </trkpt>
      <trkpt lat="46.331087" lon="6.765471">
        <ele>1507.411</ele>
        <time>2018-07-02T17:49:27Z</time>
      </trkpt>
      <trkpt lat="46.331038" lon="6.765496">
        <ele>1506.878</ele>
        <time>2018-07-02T17:49:31Z</time>
      </trkpt>
      <trkpt lat="46.331003" lon="6.765549">
        <ele>1506.294</ele>
        <time>2018-07-02T17:49:37Z</time>
      </trkpt>
      <trkpt lat="46.330957" lon="6.765577">
        <ele>1505.749</ele>
        <time>2018-07-02T17:49:42Z</time>
      </trkpt>
      <trkpt lat="46.330912" lon="6.765591">
        <ele>1505.363</ele>
        <time>2018-07-02T17:49:47Z</time>
      </trkpt>
      <trkpt lat="46.330864" lon="6.765604">
        <ele>1504.944</ele>
        <time>2018-07-02T17:49:52Z</time>
      </trkpt>
      <trkpt lat="46.330809" lon="6.765610">
        <ele>1504.418</ele>
        <time>2018-07-02T17:50:04Z</time>
      </trkpt>
      <trkpt lat="46.330759" lon="6.765608">
        <ele>1503.908</ele>
        <time>2018-07-02T17:50:09Z</time>
      </trkpt>
      <trkpt lat="46.330705" lon="6.765607">
        <ele>1503.378</ele>
        <time>2018-07-02T17:50:14Z</time>
      </trkpt>
      <trkpt lat="46.330649" lon="6.765603">
        <ele>1502.864</ele>
        <time>2018-07-02T17:50:19Z</time>
      </trkpt>
      <trkpt lat="46.330595" lon="6.765603">
        <ele>1502.216</ele>
        <time>2018-07-02T17:50:24Z</time>
      </trkpt>
      <trkpt lat="46.330551" lon="6.765625">
        <ele>1501.712</ele>
        <time>2018-07-02T17:50:30Z</time>
      </trkpt>
      <trkpt lat="46.330549" lon="6.765709">
        <ele>1501.414</ele>
        <time>2018-07-03T06:28:58Z</time>
      </trkpt>
      <trkpt lat="46.330593" lon="6.765732">
        <ele>1501.771</ele>
        <time>2018-07-03T06:29:22Z</time>
      </trkpt>
      <trkpt lat="46.330634" lon="6.765776">
        <ele>1501.817</ele>
        <time>2018-07-03T06:29:27Z</time>
      </trkpt>
      <trkpt lat="46.330668" lon="6.765824">
        <ele>1501.942</ele>
        <time>2018-07-03T06:29:35Z</time>
      </trkpt>
      <trkpt lat="46.330671" lon="6.765892">
        <ele>1501.825</ele>
        <time>2018-07-03T06:29:42Z</time>
      </trkpt>
      <trkpt lat="46.330700" lon="6.765957">
        <ele>1502.026</ele>
        <time>2018-07-03T06:29:48Z</time>
      </trkpt>
      <trkpt lat="46.330726" lon="6.766023">
        <ele>1502.208</ele>
        <time>2018-07-03T06:29:54Z</time>
      </trkpt>
      <trkpt lat="46.330742" lon="6.766085">
        <ele>1502.308</ele>
        <time>2018-07-03T06:30:01Z</time>
      </trkpt>
      <trkpt lat="46.330757" lon="6.766149">
        <ele>1502.634</ele>
        <time>2018-07-03T06:30:14Z</time>
      </trkpt>
      <trkpt lat="46.330760" lon="6.766220">
        <ele>1502.990</ele>
        <time>2018-07-03T06:30:19Z</time>
      </trkpt>
      <trkpt lat="46.330779" lon="6.766292">
        <ele>1503.322</ele>
        <time>2018-07-03T06:30:24Z</time>
      </trkpt>
      <trkpt lat="46.330812" lon="6.766349">
        <ele>1503.758</ele>
        <time>2018-07-03T06:30:29Z</time>
      </trkpt>
      <trkpt lat="46.330847" lon="6.766398">
        <ele>1504.110</ele>
        <time>2018-07-03T06:30:34Z</time>
      </trkpt>
      <trkpt lat="46.330889" lon="6.766440">
        <ele>1504.667</ele>
        <time>2018-07-03T06:30:40Z</time>
      </trkpt>
      <trkpt lat="46.330936" lon="6.766473">
        <ele>1505.253</ele>
        <time>2018-07-03T06:30:46Z</time>
      </trkpt>
      <trkpt lat="46.330985" lon="6.766485">
        <ele>1505.628</ele>
        <time>2018-07-03T06:30:50Z</time>
      </trkpt>
      <trkpt lat="46.331034" lon="6.766491">
        <ele>1506.135</ele>
        <time>2018-07-03T06:30:54Z</time>
      </trkpt>
      <trkpt lat="46.331084" lon="6.766510">
        <ele>1506.686</ele>
        <time>2018-07-03T06:30:58Z</time>
      </trkpt>
      <trkpt lat="46.331126" lon="6.766551">
        <ele>1507.214</ele>
        <time>2018-07-03T06:31:03Z</time>
      </trkpt>
      <trkpt lat="46.331131" lon="6.766618">
        <ele>1507.708</ele>
        <time>2018-07-03T06:31:13Z</time>
      </trkpt>
      <trkpt lat="46.331173" lon="6.766665">
        <ele>1508.265</ele>
        <time>2018-07-03T06:31:19Z</time>
      </trkpt>
      <trkpt lat="46.331197" lon="6.766724">
        <ele>1508.521</ele>
        <time>2018-07-03T06:31:24Z</time>
      </trkpt>
      <trkpt lat="46.331170" lon="6.766777">
        <ele>1508.663</ele>
        <time>2018-07-03T06:31:42Z</time>
      </trkpt>
      <trkpt lat="46.331139" lon="6.766825">
        <ele>1508.759</ele>
        <time>2018-07-03T06:31:46Z</time>
      </trkpt>
      <trkpt lat="46.331108" lon="6.766879">
        <ele>1508.771</ele>
        <time>2018-07-03T06:31:50Z</time>
      </trkpt>
      <trkpt lat="46.331073" lon="6.766924">
        <ele>1508.518</ele>
        <time>2018-07-03T06:31:54Z</time>
      </trkpt>
      <trkpt lat="46.331031" lon="6.766953">
        <ele>1508.284</ele>
        <time>2018-07-03T06:31:58Z</time>
      </trkpt>
      <trkpt lat="46.330995" lon="6.767007">
        <ele>1508.129</ele>
        <time>2018-07-03T06:32:03Z</time>
      </trkpt>
      <trkpt lat="46.330969" lon="6.767076">
        <ele>1508.219</ele>
        <time>2018-07-03T06:32:08Z</time>
      </trkpt>
      <trkpt lat="46.330945" lon="6.767132">
        <ele>1508.209</ele>
        <time>2018-07-03T06:32:12Z</time>
      </trkpt>
      <trkpt lat="46.330915" lon="6.767187">
        <ele>1508.019</ele>
        <time>2018-07-03T06:32:17Z</time>
      </trkpt>
      <trkpt lat="46.330877" lon="6.767229">
        <ele>1507.708</ele>
        <time>2018-07-03T06:32:22Z</time>
      </trkpt>
      <trkpt lat="46.330850" lon="6.767284">
        <ele>1507.933</ele>
        <time>2018-07-03T06:32:27Z</time>
      </trkpt>
      <trkpt lat="46.330839" lon="6.767358">
        <ele>1508.619</ele>
        <time>2018-07-03T06:32:32Z</time>
      </trkpt>
      <trkpt lat="46.330810" lon="6.767415">
        <ele>1508.991</ele>
        <time>2018-07-03T06:32:37Z</time>
      </trkpt>
      <trkpt lat="46.330773" lon="6.767461">
        <ele>1509.137</ele>
        <time>2018-07-03T06:32:43Z</time>
      </trkpt>
      <trkpt lat="46.330733" lon="6.767500">
        <ele>1509.329</ele>
        <time>2018-07-03T06:32:50Z</time>
      </trkpt>
      <trkpt lat="46.330691" lon="6.767543">
        <ele>1510.146</ele>
        <time>2018-07-03T06:32:57Z</time>
      </trkpt>
      <trkpt lat="46.330662" lon="6.767596">
        <ele>1511.262</ele>
        <time>2018-07-03T06:33:05Z</time>
      </trkpt>
      <trkpt lat="46.330623" lon="6.767655">
        <ele>1512.447</ele>
        <time>2018-07-03T06:33:16Z</time>
      </trkpt>
      <trkpt lat="46.330589" lon="6.767700">
        <ele>1513.336</ele>
        <time>2018-07-03T06:33:25Z</time>
      </trkpt>
      <trkpt lat="46.330552" lon="6.767747">
        <ele>1514.117</ele>
        <time>2018-07-03T06:33:35Z</time>
      </trkpt>
      <trkpt lat="46.330513" lon="6.767781">
        <ele>1514.018</ele>
        <time>2018-07-03T06:33:43Z</time>
      </trkpt>
      <trkpt lat="46.330476" lon="6.767823">
        <ele>1514.408</ele>
        <time>2018-07-03T06:33:52Z</time>
      </trkpt>
      <trkpt lat="46.330445" lon="6.767873">
        <ele>1515.275</ele>
        <time>2018-07-03T06:33:59Z</time>
      </trkpt>
      <trkpt lat="46.330401" lon="6.767916">
        <ele>1515.661</ele>
        <time>2018-07-03T06:34:05Z</time>
      </trkpt>
      <trkpt lat="46.330364" lon="6.767970">
        <ele>1516.753</ele>
        <time>2018-07-03T06:34:11Z</time>
      </trkpt>
      <trkpt lat="46.330337" lon="6.768029">
        <ele>1518.229</ele>
        <time>2018-07-03T06:34:38Z</time>
      </trkpt>
      <trkpt lat="46.330294" lon="6.768064">
        <ele>1518.671</ele>
        <time>2018-07-03T06:34:59Z</time>
      </trkpt>
      <trkpt lat="46.330270" lon="6.768127">
        <ele>1520.348</ele>
        <time>2018-07-03T06:35:09Z</time>
      </trkpt>
      <trkpt lat="46.330244" lon="6.768183">
        <ele>1522.364</ele>
        <time>2018-07-03T06:35:22Z</time>
      </trkpt>
      <trkpt lat="46.330211" lon="6.768234">
        <ele>1524.219</ele>
        <time>2018-07-03T06:35:31Z</time>
      </trkpt>
      <trkpt lat="46.330176" lon="6.768284">
        <ele>1526.176</ele>
        <time>2018-07-03T06:35:39Z</time>
      </trkpt>
      <trkpt lat="46.330147" lon="6.768338">
        <ele>1528.190</ele>
        <time>2018-07-03T06:35:46Z</time>
      </trkpt>
      <trkpt lat="46.330109" lon="6.768387">
        <ele>1529.519</ele>
        <time>2018-07-03T06:35:57Z</time>
      </trkpt>
      <trkpt lat="46.330064" lon="6.768403">
        <ele>1530.208</ele>
        <time>2018-07-03T06:36:03Z</time>
      </trkpt>
      <trkpt lat="46.330015" lon="6.768379">
        <ele>1529.949</ele>
        <time>2018-07-03T06:36:10Z</time>
      </trkpt>
      <trkpt lat="46.329983" lon="6.768327">
        <ele>1529.725</ele>
        <time>2018-07-03T06:36:16Z</time>
      </trkpt>
      <trkpt lat="46.329942" lon="6.768293">
        <ele>1530.767</ele>
        <time>2018-07-03T06:36:23Z</time>
      </trkpt>
      <trkpt lat="46.329908" lon="6.768240">
        <ele>1530.653</ele>
        <time>2018-07-03T06:36:30Z</time>
      </trkpt>
      <trkpt lat="46.329886" lon="6.768182">
        <ele>1529.755</ele>
        <time>2018-07-03T06:36:37Z</time>
      </trkpt>
      <trkpt lat="46.329856" lon="6.768232">
        <ele>1533.172</ele>
        <time>2018-07-03T06:37:03Z</time>
      </trkpt>
      <trkpt lat="46.329865" lon="6.768296">
        <ele>1534.998</ele>
        <time>2018-07-03T06:37:14Z</time>
      </trkpt>
      <trkpt lat="46.329898" lon="6.768346">
        <ele>1534.863</ele>
        <time>2018-07-03T06:38:30Z</time>
      </trkpt>
      <trkpt lat="46.329925" lon="6.768404">
        <ele>1534.575</ele>
        <time>2018-07-03T06:38:47Z</time>
      </trkpt>
      <trkpt lat="46.329910" lon="6.768468">
        <ele>1536.628</ele>
        <time>2018-07-03T06:38:55Z</time>
      </trkpt>
      <trkpt lat="46.329911" lon="6.768540">
        <ele>1538.020</ele>
        <time>2018-07-03T06:39:09Z</time>
      </trkpt>
      <trkpt lat="46.329897" lon="6.768603">
        <ele>1540.008</ele>
        <time>2018-07-03T06:39:17Z</time>
      </trkpt>
      <trkpt lat="46.329848" lon="6.768595">
        <ele>1542.399</ele>
        <time>2018-07-03T06:39:26Z</time>
      </trkpt>
      <trkpt lat="46.329821" lon="6.768543">
        <ele>1542.715</ele>
        <time>2018-07-03T06:39:35Z</time>
      </trkpt>
      <trkpt lat="46.329782" lon="6.768581">
        <ele>1545.427</ele>
        <time>2018-07-03T06:39:58Z</time>
      </trkpt>
      <trkpt lat="46.329772" lon="6.768662">
        <ele>1547.143</ele>
        <time>2018-07-03T06:40:12Z</time>
      </trkpt>
      <trkpt lat="46.329762" lon="6.768726">
        <ele>1548.495</ele>
        <time>2018-07-03T06:40:21Z</time>
      </trkpt>
      <trkpt lat="46.329777" lon="6.768795">
        <ele>1548.662</ele>
        <time>2018-07-03T06:40:30Z</time>
      </trkpt>
      <trkpt lat="46.329758" lon="6.768857">
        <ele>1550.258</ele>
        <time>2018-07-03T06:40:39Z</time>
      </trkpt>
      <trkpt lat="46.329741" lon="6.768919">
        <ele>1551.653</ele>
        <time>2018-07-03T06:40:50Z</time>
      </trkpt>
      <trkpt lat="46.329713" lon="6.768973">
        <ele>1553.198</ele>
        <time>2018-07-03T06:41:04Z</time>
      </trkpt>
      <trkpt lat="46.329699" lon="6.769040">
        <ele>1554.015</ele>
        <time>2018-07-03T06:41:14Z</time>
      </trkpt>
      <trkpt lat="46.329704" lon="6.769109">
        <ele>1554.726</ele>
        <time>2018-07-03T06:41:32Z</time>
      </trkpt>
      <trkpt lat="46.329715" lon="6.769181">
        <ele>1555.308</ele>
        <time>2018-07-03T06:41:57Z</time>
      </trkpt>
      <trkpt lat="46.329741" lon="6.769246">
        <ele>1555.681</ele>
        <time>2018-07-03T06:42:03Z</time>
      </trkpt>
      <trkpt lat="46.329762" lon="6.769320">
        <ele>1556.277</ele>
        <time>2018-07-03T06:42:09Z</time>
      </trkpt>
      <trkpt lat="46.329773" lon="6.769391">
        <ele>1557.159</ele>
        <time>2018-07-03T06:42:15Z</time>
      </trkpt>
      <trkpt lat="46.329751" lon="6.769452">
        <ele>1558.565</ele>
        <time>2018-07-03T06:42:24Z</time>
      </trkpt>
      <trkpt lat="46.329727" lon="6.769512">
        <ele>1559.987</ele>
        <time>2018-07-03T06:42:34Z</time>
      </trkpt>
      <trkpt lat="46.329702" lon="6.769573">
        <ele>1561.064</ele>
        <time>2018-07-03T06:42:42Z</time>
      </trkpt>
      <trkpt lat="46.329683" lon="6.769633">
        <ele>1562.060</ele>
        <time>2018-07-03T06:42:49Z</time>
      </trkpt>
      <trkpt lat="46.329661" lon="6.769699">
        <ele>1563.185</ele>
        <time>2018-07-03T06:42:57Z</time>
      </trkpt>
      <trkpt lat="46.329624" lon="6.769755">
        <ele>1564.223</ele>
        <time>2018-07-03T06:43:09Z</time>
      </trkpt>
      <trkpt lat="46.329606" lon="6.769822">
        <ele>1565.383</ele>
        <time>2018-07-03T06:43:20Z</time>
      </trkpt>
      <trkpt lat="46.329572" lon="6.769871">
        <ele>1566.211</ele>
        <time>2018-07-03T06:43:28Z</time>
      </trkpt>
      <trkpt lat="46.329538" lon="6.769923">
        <ele>1567.208</ele>
        <time>2018-07-03T06:43:39Z</time>
      </trkpt>
      <trkpt lat="46.329510" lon="6.769980">
        <ele>1568.224</ele>
        <time>2018-07-03T06:43:48Z</time>
      </trkpt>
      <trkpt lat="46.329485" lon="6.770040">
        <ele>1569.690</ele>
        <time>2018-07-03T06:44:01Z</time>
      </trkpt>
      <trkpt lat="46.329467" lon="6.770101">
        <ele>1571.092</ele>
        <time>2018-07-03T06:44:10Z</time>
      </trkpt>
      <trkpt lat="46.329445" lon="6.770162">
        <ele>1572.578</ele>
        <time>2018-07-03T06:44:24Z</time>
      </trkpt>
      <trkpt lat="46.329442" lon="6.770228">
        <ele>1574.020</ele>
        <time>2018-07-03T06:44:36Z</time>
      </trkpt>
      <trkpt lat="46.329465" lon="6.770292">
        <ele>1575.327</ele>
        <time>2018-07-03T06:44:47Z</time>
      </trkpt>
      <trkpt lat="46.329443" lon="6.770352">
        <ele>1577.263</ele>
        <time>2018-07-03T06:45:06Z</time>
      </trkpt>
      <trkpt lat="46.329398" lon="6.770359">
        <ele>1578.938</ele>
        <time>2018-07-03T06:45:17Z</time>
      </trkpt>
      <trkpt lat="46.329372" lon="6.770419">
        <ele>1581.562</ele>
        <time>2018-07-03T06:45:34Z</time>
      </trkpt>
      <trkpt lat="46.329354" lon="6.770480">
        <ele>1584.083</ele>
        <time>2018-07-03T06:46:10Z</time>
      </trkpt>
      <trkpt lat="46.329311" lon="6.770508">
        <ele>1586.411</ele>
        <time>2018-07-03T06:46:34Z</time>
      </trkpt>
      <trkpt lat="46.329322" lon="6.770574">
        <ele>1588.008</ele>
        <time>2018-07-03T06:46:56Z</time>
      </trkpt>
      <trkpt lat="46.329285" lon="6.770614">
        <ele>1590.648</ele>
        <time>2018-07-03T06:47:10Z</time>
      </trkpt>
      <trkpt lat="46.329256" lon="6.770666">
        <ele>1593.234</ele>
        <time>2018-07-03T06:47:27Z</time>
      </trkpt>
      <trkpt lat="46.329230" lon="6.770727">
        <ele>1595.916</ele>
        <time>2018-07-03T06:47:49Z</time>
      </trkpt>
      <trkpt lat="46.329192" lon="6.770764">
        <ele>1598.272</ele>
        <time>2018-07-03T06:48:07Z</time>
      </trkpt>
      <trkpt lat="46.329158" lon="6.770716">
        <ele>1598.074</ele>
        <time>2018-07-03T06:48:24Z</time>
      </trkpt>
      <trkpt lat="46.329145" lon="6.770780">
        <ele>1600.421</ele>
        <time>2018-07-03T06:48:54Z</time>
      </trkpt>
      <trkpt lat="46.329114" lon="6.770838">
        <ele>1603.477</ele>
        <time>2018-07-03T06:49:12Z</time>
      </trkpt>
      <trkpt lat="46.329080" lon="6.770891">
        <ele>1606.422</ele>
        <time>2018-07-03T06:49:33Z</time>
      </trkpt>
      <trkpt lat="46.329035" lon="6.770874">
        <ele>1607.763</ele>
        <time>2018-07-03T06:49:46Z</time>
      </trkpt>
      <trkpt lat="46.328991" lon="6.770890">
        <ele>1609.944</ele>
        <time>2018-07-03T06:50:01Z</time>
      </trkpt>
      <trkpt lat="46.328945" lon="6.770919">
        <ele>1612.418</ele>
        <time>2018-07-03T06:50:23Z</time>
      </trkpt>
      <trkpt lat="46.328901" lon="6.770934">
        <ele>1614.408</ele>
        <time>2018-07-03T06:50:43Z</time>
      </trkpt>
      <trkpt lat="46.328882" lon="6.770994">
        <ele>1616.378</ele>
        <time>2018-07-03T06:51:03Z</time>
      </trkpt>
      <trkpt lat="46.328846" lon="6.771034">
        <ele>1619.084</ele>
        <time>2018-07-03T06:51:17Z</time>
      </trkpt>
      <trkpt lat="46.328802" lon="6.771051">
        <ele>1621.676</ele>
        <time>2018-07-03T06:51:32Z</time>
      </trkpt>
      <trkpt lat="46.328784" lon="6.771118">
        <ele>1623.472</ele>
        <time>2018-07-03T06:52:03Z</time>
      </trkpt>
      <trkpt lat="46.328746" lon="6.771162">
        <ele>1625.944</ele>
        <time>2018-07-03T06:52:12Z</time>
      </trkpt>
      <trkpt lat="46.328714" lon="6.771212">
        <ele>1627.991</ele>
        <time>2018-07-03T06:52:26Z</time>
      </trkpt>
      <trkpt lat="46.328674" lon="6.771242">
        <ele>1629.727</ele>
        <time>2018-07-03T06:52:38Z</time>
      </trkpt>
      <trkpt lat="46.328635" lon="6.771279">
        <ele>1631.282</ele>
        <time>2018-07-03T06:52:53Z</time>
      </trkpt>
      <trkpt lat="46.328604" lon="6.771335">
        <ele>1632.264</ele>
        <time>2018-07-03T06:53:08Z</time>
      </trkpt>
      <trkpt lat="46.328573" lon="6.771384">
        <ele>1633.206</ele>
        <time>2018-07-03T06:53:21Z</time>
      </trkpt>
      <trkpt lat="46.328546" lon="6.771436">
        <ele>1634.616</ele>
        <time>2018-07-03T06:53:35Z</time>
      </trkpt>
      <trkpt lat="46.328510" lon="6.771486">
        <ele>1636.208</ele>
        <time>2018-07-03T06:53:50Z</time>
      </trkpt>
      <trkpt lat="46.328463" lon="6.771499">
        <ele>1637.598</ele>
        <time>2018-07-03T06:54:01Z</time>
      </trkpt>
      <trkpt lat="46.328428" lon="6.771541">
        <ele>1638.734</ele>
        <time>2018-07-03T06:54:33Z</time>
      </trkpt>
      <trkpt lat="46.328390" lon="6.771578">
        <ele>1639.766</ele>
        <time>2018-07-03T06:54:46Z</time>
      </trkpt>
      <trkpt lat="46.328343" lon="6.771575">
        <ele>1640.892</ele>
        <time>2018-07-03T06:55:00Z</time>
      </trkpt>
      <trkpt lat="46.328314" lon="6.771626">
        <ele>1641.554</ele>
        <time>2018-07-03T06:55:21Z</time>
      </trkpt>
      <trkpt lat="46.328269" lon="6.771642">
        <ele>1642.681</ele>
        <time>2018-07-03T06:55:35Z</time>
      </trkpt>
      <trkpt lat="46.328238" lon="6.771693">
        <ele>1643.827</ele>
        <time>2018-07-03T06:55:49Z</time>
      </trkpt>
      <trkpt lat="46.328229" lon="6.771758">
        <ele>1644.992</ele>
        <time>2018-07-03T06:56:09Z</time>
      </trkpt>
      <trkpt lat="46.328190" lon="6.771797">
        <ele>1646.512</ele>
        <time>2018-07-03T06:56:20Z</time>
      </trkpt>
      <trkpt lat="46.328142" lon="6.771807">
        <ele>1647.832</ele>
        <time>2018-07-03T06:56:32Z</time>
      </trkpt>
      <trkpt lat="46.328098" lon="6.771821">
        <ele>1649.205</ele>
        <time>2018-07-03T06:56:47Z</time>
      </trkpt>
      <trkpt lat="46.328086" lon="6.771890">
        <ele>1650.408</ele>
        <time>2018-07-03T06:57:10Z</time>
      </trkpt>
      <trkpt lat="46.328056" lon="6.771963">
        <ele>1652.573</ele>
        <time>2018-07-03T06:57:55Z</time>
      </trkpt>
      <trkpt lat="46.328008" lon="6.771971">
        <ele>1654.089</ele>
        <time>2018-07-03T06:59:21Z</time>
      </trkpt>
      <trkpt lat="46.327963" lon="6.771983">
        <ele>1655.651</ele>
        <time>2018-07-03T06:59:35Z</time>
      </trkpt>
      <trkpt lat="46.327953" lon="6.772049">
        <ele>1657.447</ele>
        <time>2018-07-03T06:59:54Z</time>
      </trkpt>
      <trkpt lat="46.327923" lon="6.772098">
        <ele>1659.469</ele>
        <time>2018-07-03T07:00:08Z</time>
      </trkpt>
      <trkpt lat="46.327939" lon="6.772162">
        <ele>1660.556</ele>
        <time>2018-07-03T07:00:21Z</time>
      </trkpt>
      <trkpt lat="46.327900" lon="6.772200">
        <ele>1662.472</ele>
        <time>2018-07-03T07:00:36Z</time>
      </trkpt>
      <trkpt lat="46.327863" lon="6.772238">
        <ele>1664.267</ele>
        <time>2018-07-03T07:00:53Z</time>
      </trkpt>
      <trkpt lat="46.327835" lon="6.772290">
        <ele>1666.294</ele>
        <time>2018-07-03T07:01:03Z</time>
      </trkpt>
      <trkpt lat="46.327790" lon="6.772305">
        <ele>1667.557</ele>
        <time>2018-07-03T07:01:15Z</time>
      </trkpt>
      <trkpt lat="46.327759" lon="6.772353">
        <ele>1669.422</ele>
        <time>2018-07-03T07:01:28Z</time>
      </trkpt>
      <trkpt lat="46.327716" lon="6.772384">
        <ele>1671.408</ele>
        <time>2018-07-03T07:01:40Z</time>
      </trkpt>
      <trkpt lat="46.327684" lon="6.772434">
        <ele>1673.351</ele>
        <time>2018-07-03T07:02:05Z</time>
      </trkpt>
      <trkpt lat="46.327707" lon="6.772493">
        <ele>1673.777</ele>
        <time>2018-07-03T07:02:16Z</time>
      </trkpt>
      <trkpt lat="46.327667" lon="6.772530">
        <ele>1675.449</ele>
        <time>2018-07-03T07:02:28Z</time>
      </trkpt>
      <trkpt lat="46.327653" lon="6.772593">
        <ele>1677.075</ele>
        <time>2018-07-03T07:02:44Z</time>
      </trkpt>
      <trkpt lat="46.327607" lon="6.772603">
        <ele>1678.367</ele>
        <time>2018-07-03T07:02:59Z</time>
      </trkpt>
      <trkpt lat="46.327556" lon="6.772614">
        <ele>1679.724</ele>
        <time>2018-07-03T07:03:17Z</time>
      </trkpt>
      <trkpt lat="46.327560" lon="6.772680">
        <ele>1680.920</ele>
        <time>2018-07-03T07:03:44Z</time>
      </trkpt>
      <trkpt lat="46.327542" lon="6.772744">
        <ele>1682.595</ele>
        <time>2018-07-03T07:03:59Z</time>
      </trkpt>
      <trkpt lat="46.327523" lon="6.772808">
        <ele>1684.774</ele>
        <time>2018-07-03T07:04:16Z</time>
      </trkpt>
      <trkpt lat="46.327538" lon="6.772877">
        <ele>1687.256</ele>
        <time>2018-07-03T07:04:32Z</time>
      </trkpt>
      <trkpt lat="46.327530" lon="6.772942">
        <ele>1690.021</ele>
        <time>2018-07-03T07:04:53Z</time>
      </trkpt>
      <trkpt lat="46.327508" lon="6.772999">
        <ele>1692.608</ele>
        <time>2018-07-03T07:05:32Z</time>
      </trkpt>
      <trkpt lat="46.327516" lon="6.773065">
        <ele>1695.289</ele>
        <time>2018-07-03T07:05:50Z</time>
      </trkpt>
      <trkpt lat="46.327499" lon="6.773126">
        <ele>1698.185</ele>
        <time>2018-07-03T07:06:08Z</time>
      </trkpt>
      <trkpt lat="46.327497" lon="6.773192">
        <ele>1701.117</ele>
        <time>2018-07-03T07:06:38Z</time>
      </trkpt>
      <trkpt lat="46.327522" lon="6.773254">
        <ele>1703.363</ele>
        <time>2018-07-03T07:07:00Z</time>
      </trkpt>
      <trkpt lat="46.327560" lon="6.773290">
        <ele>1704.325</ele>
        <time>2018-07-03T07:07:12Z</time>
      </trkpt>
      <trkpt lat="46.327571" lon="6.773357">
        <ele>1706.942</ele>
        <time>2018-07-03T07:07:34Z</time>
      </trkpt>
      <trkpt lat="46.327596" lon="6.773438">
        <ele>1709.568</ele>
        <time>2018-07-03T07:08:15Z</time>
      </trkpt>
      <trkpt lat="46.327593" lon="6.773510">
        <ele>1712.293</ele>
        <time>2018-07-03T07:08:55Z</time>
      </trkpt>
      <trkpt lat="46.327620" lon="6.773566">
        <ele>1714.013</ele>
        <time>2018-07-03T07:09:18Z</time>
      </trkpt>
      <trkpt lat="46.327656" lon="6.773606">
        <ele>1715.143</ele>
        <time>2018-07-03T07:09:45Z</time>
      </trkpt>
      <trkpt lat="46.327683" lon="6.773658">
        <ele>1716.707</ele>
        <time>2018-07-03T07:10:04Z</time>
      </trkpt>
      <trkpt lat="46.327686" lon="6.773726">
        <ele>1719.108</ele>
        <time>2018-07-03T07:10:20Z</time>
      </trkpt>
      <trkpt lat="46.327692" lon="6.773791">
        <ele>1721.453</ele>
        <time>2018-07-03T07:10:39Z</time>
      </trkpt>
      <trkpt lat="46.327644" lon="6.773816">
        <ele>1722.879</ele>
        <time>2018-07-03T07:10:54Z</time>
      </trkpt>
      <trkpt lat="46.327664" lon="6.773895">
        <ele>1725.581</ele>
        <time>2018-07-03T07:11:08Z</time>
      </trkpt>
      <trkpt lat="46.327657" lon="6.773962">
        <ele>1728.147</ele>
        <time>2018-07-03T07:11:30Z</time>
      </trkpt>
      <trkpt lat="46.327656" lon="6.774029">
        <ele>1730.679</ele>
        <time>2018-07-03T07:12:00Z</time>
      </trkpt>
      <trkpt lat="46.327679" lon="6.774086">
        <ele>1732.496</ele>
        <time>2018-07-03T07:12:47Z</time>
      </trkpt>
      <trkpt lat="46.327727" lon="6.774109">
        <ele>1732.662</ele>
        <time>2018-07-03T07:13:03Z</time>
      </trkpt>
      <trkpt lat="46.327768" lon="6.774139">
        <ele>1733.187</ele>
        <time>2018-07-03T07:13:30Z</time>
      </trkpt>
      <trkpt lat="46.327793" lon="6.774196">
        <ele>1735.866</ele>
        <time>2018-07-03T07:14:06Z</time>
      </trkpt>
      <trkpt lat="46.327780" lon="6.774262">
        <ele>1738.229</ele>
        <time>2018-07-03T07:14:17Z</time>
      </trkpt>
      <trkpt lat="46.327768" lon="6.774328">
        <ele>1741.121</ele>
        <time>2018-07-03T07:14:25Z</time>
      </trkpt>
      <trkpt lat="46.327777" lon="6.774406">
        <ele>1744.308</ele>
        <time>2018-07-03T07:14:36Z</time>
      </trkpt>
      <trkpt lat="46.327727" lon="6.774396">
        <ele>1744.658</ele>
        <time>2018-07-03T07:14:49Z</time>
      </trkpt>
      <trkpt lat="46.327685" lon="6.774421">
        <ele>1746.324</ele>
        <time>2018-07-03T07:15:03Z</time>
      </trkpt>
      <trkpt lat="46.327711" lon="6.774481">
        <ele>1749.476</ele>
        <time>2018-07-03T07:15:24Z</time>
      </trkpt>
      <trkpt lat="46.327661" lon="6.774476">
        <ele>1749.782</ele>
        <time>2018-07-03T07:15:38Z</time>
      </trkpt>
      <trkpt lat="46.327616" lon="6.774484">
        <ele>1750.744</ele>
        <time>2018-07-03T07:15:46Z</time>
      </trkpt>
      <trkpt lat="46.327566" lon="6.774481">
        <ele>1751.111</ele>
        <time>2018-07-03T07:15:53Z</time>
      </trkpt>
      <trkpt lat="46.327523" lon="6.774456">
        <ele>1750.317</ele>
        <time>2018-07-03T07:16:00Z</time>
      </trkpt>
      <trkpt lat="46.327479" lon="6.774428">
        <ele>1749.732</ele>
        <time>2018-07-03T07:16:08Z</time>
      </trkpt>
      <trkpt lat="46.327434" lon="6.774443">
        <ele>1751.177</ele>
        <time>2018-07-03T07:16:21Z</time>
      </trkpt>
      <trkpt lat="46.327384" lon="6.774448">
        <ele>1752.361</ele>
        <time>2018-07-03T07:16:27Z</time>
      </trkpt>
      <trkpt lat="46.327335" lon="6.774451">
        <ele>1753.327</ele>
        <time>2018-07-03T07:16:36Z</time>
      </trkpt>
      <trkpt lat="46.327286" lon="6.774449">
        <ele>1754.108</ele>
        <time>2018-07-03T07:16:46Z</time>
      </trkpt>
      <trkpt lat="46.327291" lon="6.774518">
        <ele>1757.339</ele>
        <time>2018-07-03T07:17:01Z</time>
      </trkpt>
      <trkpt lat="46.327254" lon="6.774564">
        <ele>1760.125</ele>
        <time>2018-07-03T07:17:18Z</time>
      </trkpt>
      <trkpt lat="46.327276" lon="6.774627">
        <ele>1762.727</ele>
        <time>2018-07-03T07:17:33Z</time>
      </trkpt>
      <trkpt lat="46.327209" lon="6.774598">
        <ele>1762.773</ele>
        <time>2018-07-03T07:17:59Z</time>
      </trkpt>
      <trkpt lat="46.327177" lon="6.774660">
        <ele>1766.625</ele>
        <time>2018-07-03T07:18:17Z</time>
      </trkpt>
      <trkpt lat="46.327138" lon="6.774696">
        <ele>1769.382</ele>
        <time>2018-07-03T07:18:33Z</time>
      </trkpt>
      <trkpt lat="46.327092" lon="6.774699">
        <ele>1770.928</ele>
        <time>2018-07-03T07:18:44Z</time>
      </trkpt>
      <trkpt lat="46.327057" lon="6.774742">
        <ele>1773.683</ele>
        <time>2018-07-03T07:18:55Z</time>
      </trkpt>
      <trkpt lat="46.327018" lon="6.774784">
        <ele>1776.335</ele>
        <time>2018-07-03T07:19:10Z</time>
      </trkpt>
      <trkpt lat="46.326973" lon="6.774794">
        <ele>1777.886</ele>
        <time>2018-07-03T07:19:25Z</time>
      </trkpt>
      <trkpt lat="46.326942" lon="6.774746">
        <ele>1776.914</ele>
        <time>2018-07-03T07:19:33Z</time>
      </trkpt>
      <trkpt lat="46.326906" lon="6.774706">
        <ele>1776.908</ele>
        <time>2018-07-03T07:19:44Z</time>
      </trkpt>
      <trkpt lat="46.326876" lon="6.774652">
        <ele>1776.525</ele>
        <time>2018-07-03T07:19:53Z</time>
      </trkpt>
      <trkpt lat="46.326879" lon="6.774575">
        <ele>1774.271</ele>
        <time>2018-07-03T07:19:59Z</time>
      </trkpt>
      <trkpt lat="46.326878" lon="6.774503">
        <ele>1772.343</ele>
        <time>2018-07-03T07:20:05Z</time>
      </trkpt>
      <trkpt lat="46.326847" lon="6.774454">
        <ele>1772.179</ele>
        <time>2018-07-03T07:20:13Z</time>
      </trkpt>
      <trkpt lat="46.326818" lon="6.774397">
        <ele>1772.671</ele>
        <time>2018-07-03T07:20:18Z</time>
      </trkpt>
      <trkpt lat="46.326787" lon="6.774346">
        <ele>1773.458</ele>
        <time>2018-07-03T07:20:25Z</time>
      </trkpt>
      <trkpt lat="46.326739" lon="6.774340">
        <ele>1775.574</ele>
        <time>2018-07-03T07:20:34Z</time>
      </trkpt>
      <trkpt lat="46.326692" lon="6.774351">
        <ele>1777.689</ele>
        <time>2018-07-03T07:20:43Z</time>
      </trkpt>
      <trkpt lat="46.326641" lon="6.774323">
        <ele>1779.171</ele>
        <time>2018-07-03T07:20:52Z</time>
      </trkpt>
      <trkpt lat="46.326596" lon="6.774313">
        <ele>1780.141</ele>
        <time>2018-07-03T07:21:02Z</time>
      </trkpt>
      <trkpt lat="46.326556" lon="6.774281">
        <ele>1780.815</ele>
        <time>2018-07-03T07:21:08Z</time>
      </trkpt>
      <trkpt lat="46.326527" lon="6.774229">
        <ele>1781.208</ele>
        <time>2018-07-03T07:21:17Z</time>
      </trkpt>
      <trkpt lat="46.326487" lon="6.774196">
        <ele>1782.069</ele>
        <time>2018-07-03T07:21:26Z</time>
      </trkpt>
      <trkpt lat="46.326450" lon="6.774149">
        <ele>1782.715</ele>
        <time>2018-07-03T07:21:34Z</time>
      </trkpt>
      <trkpt lat="46.326416" lon="6.774093">
        <ele>1783.637</ele>
        <time>2018-07-03T07:21:40Z</time>
      </trkpt>
      <trkpt lat="46.326386" lon="6.774033">
        <ele>1784.693</ele>
        <time>2018-07-03T07:21:46Z</time>
      </trkpt>
      <trkpt lat="46.326355" lon="6.773986">
        <ele>1785.655</ele>
        <time>2018-07-03T07:21:52Z</time>
      </trkpt>
      <trkpt lat="46.326317" lon="6.773924">
        <ele>1786.932</ele>
        <time>2018-07-03T07:22:06Z</time>
      </trkpt>
      <trkpt lat="46.326287" lon="6.773863">
        <ele>1787.958</ele>
        <time>2018-07-03T07:22:21Z</time>
      </trkpt>
      <trkpt lat="46.326246" lon="6.773834">
        <ele>1789.293</ele>
        <time>2018-07-03T07:22:46Z</time>
      </trkpt>
      <trkpt lat="46.326203" lon="6.773814">
        <ele>1790.724</ele>
        <time>2018-07-03T07:22:51Z</time>
      </trkpt>
      <trkpt lat="46.326163" lon="6.773858">
        <ele>1791.704</ele>
        <time>2018-07-03T07:22:58Z</time>
      </trkpt>
      <trkpt lat="46.326126" lon="6.773905">
        <ele>1792.514</ele>
        <time>2018-07-03T07:23:07Z</time>
      </trkpt>
      <trkpt lat="46.326096" lon="6.773957">
        <ele>1793.308</ele>
        <time>2018-07-03T07:23:18Z</time>
      </trkpt>
      <trkpt lat="46.326049" lon="6.773978">
        <ele>1795.514</ele>
        <time>2018-07-03T07:23:29Z</time>
      </trkpt>
      <trkpt lat="46.326000" lon="6.773990">
        <ele>1797.960</ele>
        <time>2018-07-03T07:23:38Z</time>
      </trkpt>
      <trkpt lat="46.325963" lon="6.774028">
        <ele>1799.772</ele>
        <time>2018-07-03T07:23:49Z</time>
      </trkpt>
      <trkpt lat="46.325934" lon="6.774083">
        <ele>1801.248</ele>
        <time>2018-07-03T07:24:03Z</time>
      </trkpt>
      <trkpt lat="46.325908" lon="6.774137">
        <ele>1802.770</ele>
        <time>2018-07-03T07:24:19Z</time>
      </trkpt>
      <trkpt lat="46.325885" lon="6.774205">
        <ele>1804.367</ele>
        <time>2018-07-03T07:24:35Z</time>
      </trkpt>
      <trkpt lat="46.325873" lon="6.774277">
        <ele>1805.543</ele>
        <time>2018-07-03T07:24:49Z</time>
      </trkpt>
      <trkpt lat="46.325829" lon="6.774316">
        <ele>1808.258</ele>
        <time>2018-07-03T07:25:28Z</time>
      </trkpt>
      <trkpt lat="46.325788" lon="6.774347">
        <ele>1809.861</ele>
        <time>2018-07-03T07:26:03Z</time>
      </trkpt>
      <trkpt lat="46.325740" lon="6.774369">
        <ele>1811.521</ele>
        <time>2018-07-03T07:26:19Z</time>
      </trkpt>
      <trkpt lat="46.325698" lon="6.774396">
        <ele>1813.013</ele>
        <time>2018-07-03T07:26:28Z</time>
      </trkpt>
      <trkpt lat="46.325649" lon="6.774439">
        <ele>1814.908</ele>
        <time>2018-07-03T07:27:00Z</time>
      </trkpt>
      <trkpt lat="46.325604" lon="6.774444">
        <ele>1816.458</ele>
        <time>2018-07-03T07:28:22Z</time>
      </trkpt>
      <trkpt lat="46.325559" lon="6.774444">
        <ele>1817.984</ele>
        <time>2018-07-03T07:28:32Z</time>
      </trkpt>
      <trkpt lat="46.325513" lon="6.774424">
        <ele>1817.616</ele>
        <time>2018-07-03T07:28:40Z</time>
      </trkpt>
      <trkpt lat="46.325462" lon="6.774443">
        <ele>1817.382</ele>
        <time>2018-07-03T07:28:47Z</time>
      </trkpt>
      <trkpt lat="46.325413" lon="6.774451">
        <ele>1817.084</ele>
        <time>2018-07-03T07:28:52Z</time>
      </trkpt>
      <trkpt lat="46.325360" lon="6.774440">
        <ele>1816.671</ele>
        <time>2018-07-03T07:29:27Z</time>
      </trkpt>
      <trkpt lat="46.325313" lon="6.774443">
        <ele>1816.317</ele>
        <time>2018-07-03T07:29:33Z</time>
      </trkpt>
      <trkpt lat="46.325264" lon="6.774449">
        <ele>1815.832</ele>
        <time>2018-07-03T07:29:39Z</time>
      </trkpt>
      <trkpt lat="46.325216" lon="6.774474">
        <ele>1815.027</ele>
        <time>2018-07-03T07:29:45Z</time>
      </trkpt>
      <trkpt lat="46.325166" lon="6.774478">
        <ele>1814.368</ele>
        <time>2018-07-03T07:29:52Z</time>
      </trkpt>
      <trkpt lat="46.325124" lon="6.774508">
        <ele>1813.114</ele>
        <time>2018-07-03T07:29:58Z</time>
      </trkpt>
      <trkpt lat="46.325078" lon="6.774532">
        <ele>1811.908</ele>
        <time>2018-07-03T07:30:07Z</time>
      </trkpt>
      <trkpt lat="46.325026" lon="6.774538">
        <ele>1810.864</ele>
        <time>2018-07-03T07:30:13Z</time>
      </trkpt>
      <trkpt lat="46.324979" lon="6.774546">
        <ele>1809.830</ele>
        <time>2018-07-03T07:30:18Z</time>
      </trkpt>
      <trkpt lat="46.324932" lon="6.774560">
        <ele>1808.942</ele>
        <time>2018-07-03T07:30:24Z</time>
      </trkpt>
      <trkpt lat="46.324886" lon="6.774578">
        <ele>1807.768</ele>
        <time>2018-07-03T07:30:33Z</time>
      </trkpt>
      <trkpt lat="46.324840" lon="6.774590">
        <ele>1806.890</ele>
        <time>2018-07-03T07:30:41Z</time>
      </trkpt>
      <trkpt lat="46.324792" lon="6.774583">
        <ele>1806.497</ele>
        <time>2018-07-03T07:30:49Z</time>
      </trkpt>
      <trkpt lat="46.324743" lon="6.774590">
        <ele>1805.533</ele>
        <time>2018-07-03T07:30:56Z</time>
      </trkpt>
      <trkpt lat="46.324699" lon="6.774606">
        <ele>1804.428</ele>
        <time>2018-07-03T07:31:01Z</time>
      </trkpt>
      <trkpt lat="46.324654" lon="6.774622">
        <ele>1803.531</ele>
        <time>2018-07-03T07:31:06Z</time>
      </trkpt>
      <trkpt lat="46.324606" lon="6.774638">
        <ele>1802.761</ele>
        <time>2018-07-03T07:31:12Z</time>
      </trkpt>
      <trkpt lat="46.324564" lon="6.774661">
        <ele>1801.607</ele>
        <time>2018-07-03T07:31:18Z</time>
      </trkpt>
      <trkpt lat="46.324520" lon="6.774684">
        <ele>1800.608</ele>
        <time>2018-07-03T07:31:24Z</time>
      </trkpt>
      <trkpt lat="46.324473" lon="6.774697">
        <ele>1799.915</ele>
        <time>2018-07-03T07:31:31Z</time>
      </trkpt>
      <trkpt lat="46.324428" lon="6.774720">
        <ele>1799.051</ele>
        <time>2018-07-03T07:31:37Z</time>
      </trkpt>
      <trkpt lat="46.324389" lon="6.774753">
        <ele>1797.983</ele>
        <time>2018-07-03T07:31:43Z</time>
      </trkpt>
      <trkpt lat="46.324345" lon="6.774776">
        <ele>1797.019</ele>
        <time>2018-07-03T07:31:49Z</time>
      </trkpt>
      <trkpt lat="46.324301" lon="6.774804">
        <ele>1796.071</ele>
        <time>2018-07-03T07:31:57Z</time>
      </trkpt>
      <trkpt lat="46.324257" lon="6.774838">
        <ele>1794.778</ele>
        <time>2018-07-03T07:32:05Z</time>
      </trkpt>
      <trkpt lat="46.324214" lon="6.774861">
        <ele>1793.874</ele>
        <time>2018-07-03T07:32:12Z</time>
      </trkpt>
      <trkpt lat="46.324161" lon="6.774866">
        <ele>1793.359</ele>
        <time>2018-07-03T07:32:20Z</time>
      </trkpt>
      <trkpt lat="46.324111" lon="6.774879">
        <ele>1792.983</ele>
        <time>2018-07-03T07:32:26Z</time>
      </trkpt>
      <trkpt lat="46.324061" lon="6.774898">
        <ele>1792.225</ele>
        <time>2018-07-03T07:32:34Z</time>
      </trkpt>
      <trkpt lat="46.324011" lon="6.774910">
        <ele>1791.717</ele>
        <time>2018-07-03T07:32:42Z</time>
      </trkpt>
      <trkpt lat="46.323961" lon="6.774912">
        <ele>1791.608</ele>
        <time>2018-07-03T07:32:48Z</time>
      </trkpt>
      <trkpt lat="46.323917" lon="6.774930">
        <ele>1790.890</ele>
        <time>2018-07-03T07:32:54Z</time>
      </trkpt>
      <trkpt lat="46.323870" lon="6.774958">
        <ele>1789.676</ele>
        <time>2018-07-03T07:32:59Z</time>
      </trkpt>
      <trkpt lat="46.323824" lon="6.774988">
        <ele>1788.318</ele>
        <time>2018-07-03T07:33:04Z</time>
      </trkpt>
      <trkpt lat="46.323777" lon="6.775005">
        <ele>1787.424</ele>
        <time>2018-07-03T07:33:11Z</time>
      </trkpt>
      <trkpt lat="46.323733" lon="6.774975">
        <ele>1788.546</ele>
        <time>2018-07-03T07:33:19Z</time>
      </trkpt>
      <trkpt lat="46.323688" lon="6.774982">
        <ele>1788.173</ele>
        <time>2018-07-03T07:33:27Z</time>
      </trkpt>
      <trkpt lat="46.323652" lon="6.775030">
        <ele>1785.829</ele>
        <time>2018-07-03T07:33:34Z</time>
      </trkpt>
      <trkpt lat="46.323615" lon="6.775070">
        <ele>1784.044</ele>
        <time>2018-07-03T07:33:42Z</time>
      </trkpt>
      <trkpt lat="46.323589" lon="6.775127">
        <ele>1781.389</ele>
        <time>2018-07-03T07:33:50Z</time>
      </trkpt>
      <trkpt lat="46.323549" lon="6.775160">
        <ele>1779.506</ele>
        <time>2018-07-03T07:33:56Z</time>
      </trkpt>
      <trkpt lat="46.323504" lon="6.775172">
        <ele>1778.626</ele>
        <time>2018-07-03T07:34:03Z</time>
      </trkpt>
      <trkpt lat="46.323463" lon="6.775206">
        <ele>1776.608</ele>
        <time>2018-07-03T07:34:12Z</time>
      </trkpt>
      <trkpt lat="46.323425" lon="6.775245">
        <ele>1774.590</ele>
        <time>2018-07-03T07:34:19Z</time>
      </trkpt>
      <trkpt lat="46.323381" lon="6.775268">
        <ele>1773.066</ele>
        <time>2018-07-03T07:34:26Z</time>
      </trkpt>
      <trkpt lat="46.323332" lon="6.775300">
        <ele>1771.298</ele>
        <time>2018-07-03T07:34:34Z</time>
      </trkpt>
      <trkpt lat="46.323289" lon="6.775317">
        <ele>1770.394</ele>
        <time>2018-07-03T07:34:43Z</time>
      </trkpt>
      <trkpt lat="46.323243" lon="6.775325">
        <ele>1769.756</ele>
        <time>2018-07-03T07:34:50Z</time>
      </trkpt>
      <trkpt lat="46.323201" lon="6.775358">
        <ele>1768.373</ele>
        <time>2018-07-03T07:34:56Z</time>
      </trkpt>
      <trkpt lat="46.323165" lon="6.775403">
        <ele>1766.689</ele>
        <time>2018-07-03T07:35:01Z</time>
      </trkpt>
      <trkpt lat="46.323126" lon="6.775450">
        <ele>1764.894</ele>
        <time>2018-07-03T07:35:07Z</time>
      </trkpt>
      <trkpt lat="46.323083" lon="6.775482">
        <ele>1763.597</ele>
        <time>2018-07-03T07:35:12Z</time>
      </trkpt>
      <trkpt lat="46.323033" lon="6.775502">
        <ele>1762.823</ele>
        <time>2018-07-03T07:35:17Z</time>
      </trkpt>
      <trkpt lat="46.322987" lon="6.775503">
        <ele>1762.825</ele>
        <time>2018-07-03T07:35:22Z</time>
      </trkpt>
      <trkpt lat="46.322941" lon="6.775527">
        <ele>1762.208</ele>
        <time>2018-07-03T07:35:29Z</time>
      </trkpt>
      <trkpt lat="46.322953" lon="6.775596">
        <ele>1760.561</ele>
        <time>2018-07-03T07:36:04Z</time>
      </trkpt>
      <trkpt lat="46.322962" lon="6.775666">
        <ele>1759.177</ele>
        <time>2018-07-03T07:36:15Z</time>
      </trkpt>
      <trkpt lat="46.322953" lon="6.775731">
        <ele>1757.769</ele>
        <time>2018-07-03T07:36:25Z</time>
      </trkpt>
      <trkpt lat="46.322921" lon="6.775784">
        <ele>1756.615</ele>
        <time>2018-07-03T07:36:34Z</time>
      </trkpt>
      <trkpt lat="46.322890" lon="6.775832">
        <ele>1755.457</ele>
        <time>2018-07-03T07:36:43Z</time>
      </trkpt>
      <trkpt lat="46.322854" lon="6.775882">
        <ele>1754.314</ele>
        <time>2018-07-03T07:37:01Z</time>
      </trkpt>
      <trkpt lat="46.322808" lon="6.775912">
        <ele>1753.540</ele>
        <time>2018-07-03T07:37:11Z</time>
      </trkpt>
      <trkpt lat="46.322768" lon="6.775954">
        <ele>1752.275</ele>
        <time>2018-07-03T07:37:23Z</time>
      </trkpt>
      <trkpt lat="46.322730" lon="6.775997">
        <ele>1750.474</ele>
        <time>2018-07-03T07:37:39Z</time>
      </trkpt>
      <trkpt lat="46.322690" lon="6.776036">
        <ele>1748.656</ele>
        <time>2018-07-03T07:37:51Z</time>
      </trkpt>
      <trkpt lat="46.322644" lon="6.776050">
        <ele>1747.321</ele>
        <time>2018-07-03T07:38:03Z</time>
      </trkpt>
      <trkpt lat="46.322595" lon="6.776067">
        <ele>1745.908</ele>
        <time>2018-07-03T07:38:09Z</time>
      </trkpt>
      <trkpt lat="46.322550" lon="6.776085">
        <ele>1744.699</ele>
        <time>2018-07-03T07:38:15Z</time>
      </trkpt>
      <trkpt lat="46.322504" lon="6.776088">
        <ele>1743.595</ele>
        <time>2018-07-03T07:38:21Z</time>
      </trkpt>
      <trkpt lat="46.322454" lon="6.776079">
        <ele>1741.917</ele>
        <time>2018-07-03T07:38:27Z</time>
      </trkpt>
      <trkpt lat="46.322406" lon="6.776085">
        <ele>1740.163</ele>
        <time>2018-07-03T07:38:34Z</time>
      </trkpt>
      <trkpt lat="46.322364" lon="6.776111">
        <ele>1738.145</ele>
        <time>2018-07-03T07:38:48Z</time>
      </trkpt>
      <trkpt lat="46.322330" lon="6.776155">
        <ele>1736.292</ele>
        <time>2018-07-03T07:38:54Z</time>
      </trkpt>
      <trkpt lat="46.322293" lon="6.776195">
        <ele>1734.198</ele>
        <time>2018-07-03T07:39:01Z</time>
      </trkpt>
      <trkpt lat="46.322324" lon="6.776244">
        <ele>1734.413</ele>
        <time>2018-07-03T07:39:54Z</time>
      </trkpt>
      <trkpt lat="46.322354" lon="6.776295">
        <ele>1734.776</ele>
        <time>2018-07-03T07:40:00Z</time>
      </trkpt>
      <trkpt lat="46.322367" lon="6.776358">
        <ele>1734.290</ele>
        <time>2018-07-03T07:40:06Z</time>
      </trkpt>
      <trkpt lat="46.322360" lon="6.776428">
        <ele>1733.519</ele>
        <time>2018-07-03T07:40:13Z</time>
      </trkpt>
      <trkpt lat="46.322320" lon="6.776470">
        <ele>1731.908</ele>
        <time>2018-07-03T07:40:21Z</time>
      </trkpt>
      <trkpt lat="46.322283" lon="6.776514">
        <ele>1730.439</ele>
        <time>2018-07-03T07:40:27Z</time>
      </trkpt>
      <trkpt lat="46.322246" lon="6.776562">
        <ele>1728.915</ele>
        <time>2018-07-03T07:40:33Z</time>
      </trkpt>
      <trkpt lat="46.322216" lon="6.776615">
        <ele>1727.667</ele>
        <time>2018-07-03T07:40:39Z</time>
      </trkpt>
      <trkpt lat="46.322182" lon="6.776670">
        <ele>1725.723</ele>
        <time>2018-07-03T07:40:52Z</time>
      </trkpt>
      <trkpt lat="46.322147" lon="6.776721">
        <ele>1723.425</ele>
        <time>2018-07-03T07:40:58Z</time>
      </trkpt>
      <trkpt lat="46.322100" lon="6.776757">
        <ele>1720.782</ele>
        <time>2018-07-03T07:41:25Z</time>
      </trkpt>
      <trkpt lat="46.322075" lon="6.776815">
        <ele>1719.398</ele>
        <time>2018-07-03T07:41:31Z</time>
      </trkpt>
      <trkpt lat="46.322041" lon="6.776867">
        <ele>1717.583</ele>
        <time>2018-07-03T07:41:39Z</time>
      </trkpt>
      <trkpt lat="46.322003" lon="6.776905">
        <ele>1715.773</ele>
        <time>2018-07-03T07:41:50Z</time>
      </trkpt>
      <trkpt lat="46.321965" lon="6.776955">
        <ele>1713.985</ele>
        <time>2018-07-03T07:42:37Z</time>
      </trkpt>
      <trkpt lat="46.321939" lon="6.777012">
        <ele>1712.213</ele>
        <time>2018-07-03T07:42:48Z</time>
      </trkpt>
      <trkpt lat="46.321910" lon="6.777062">
        <ele>1710.208</ele>
        <time>2018-07-03T07:42:57Z</time>
      </trkpt>
      <trkpt lat="46.321891" lon="6.777125">
        <ele>1708.729</ele>
        <time>2018-07-03T07:43:12Z</time>
      </trkpt>
      <trkpt lat="46.321905" lon="6.777190">
        <ele>1709.125</ele>
        <time>2018-07-03T07:43:22Z</time>
      </trkpt>
      <trkpt lat="46.321933" lon="6.777252">
        <ele>1709.897</ele>
        <time>2018-07-03T07:43:31Z</time>
      </trkpt>
      <trkpt lat="46.321962" lon="6.777304">
        <ele>1710.343</ele>
        <time>2018-07-03T07:43:40Z</time>
      </trkpt>
      <trkpt lat="46.321917" lon="6.777324">
        <ele>1707.765</ele>
        <time>2018-07-03T07:43:49Z</time>
      </trkpt>
      <trkpt lat="46.321897" lon="6.777387">
        <ele>1705.572</ele>
        <time>2018-07-03T07:44:06Z</time>
      </trkpt>
      <trkpt lat="46.321883" lon="6.777449">
        <ele>1703.658</ele>
        <time>2018-07-03T07:44:13Z</time>
      </trkpt>
      <trkpt lat="46.321881" lon="6.777518">
        <ele>1702.333</ele>
        <time>2018-07-03T07:44:20Z</time>
      </trkpt>
      <trkpt lat="46.321878" lon="6.777583">
        <ele>1701.452</ele>
        <time>2018-07-03T07:44:29Z</time>
      </trkpt>
      <trkpt lat="46.321867" lon="6.777651">
        <ele>1699.953</ele>
        <time>2018-07-03T07:44:35Z</time>
      </trkpt>
      <trkpt lat="46.321872" lon="6.777720">
        <ele>1699.308</ele>
        <time>2018-07-03T07:44:41Z</time>
      </trkpt>
      <trkpt lat="46.321833" lon="6.777762">
        <ele>1696.408</ele>
        <time>2018-07-03T07:44:50Z</time>
      </trkpt>
      <trkpt lat="46.321805" lon="6.777818">
        <ele>1694.537</ele>
        <time>2018-07-03T07:44:59Z</time>
      </trkpt>
      <trkpt lat="46.321772" lon="6.777871">
        <ele>1692.423</ele>
        <time>2018-07-03T07:45:07Z</time>
      </trkpt>
      <trkpt lat="46.321741" lon="6.777928">
        <ele>1690.595</ele>
        <time>2018-07-03T07:45:16Z</time>
      </trkpt>
      <trkpt lat="46.321696" lon="6.777926">
        <ele>1687.831</ele>
        <time>2018-07-03T07:45:33Z</time>
      </trkpt>
      <trkpt lat="46.321685" lon="6.777857">
        <ele>1687.123</ele>
        <time>2018-07-03T07:45:42Z</time>
      </trkpt>
      <trkpt lat="46.321674" lon="6.777792">
        <ele>1686.430</ele>
        <time>2018-07-03T07:45:50Z</time>
      </trkpt>
      <trkpt lat="46.321642" lon="6.777744">
        <ele>1685.126</ele>
        <time>2018-07-03T07:46:01Z</time>
      </trkpt>
      <trkpt lat="46.321617" lon="6.777690">
        <ele>1684.461</ele>
        <time>2018-07-03T07:46:10Z</time>
      </trkpt>
      <trkpt lat="46.321581" lon="6.777734">
        <ele>1681.411</ele>
        <time>2018-07-03T07:46:22Z</time>
      </trkpt>
      <trkpt lat="46.321557" lon="6.777796">
        <ele>1679.321</ele>
        <time>2018-07-03T07:46:32Z</time>
      </trkpt>
      <trkpt lat="46.321553" lon="6.777864">
        <ele>1678.903</ele>
        <time>2018-07-03T07:46:41Z</time>
      </trkpt>
      <trkpt lat="46.321504" lon="6.777877">
        <ele>1675.808</ele>
        <time>2018-07-03T07:46:53Z</time>
      </trkpt>
      <trkpt lat="46.321476" lon="6.777931">
        <ele>1674.073</ele>
        <time>2018-07-03T07:47:01Z</time>
      </trkpt>
      <trkpt lat="46.321445" lon="6.777980">
        <ele>1671.999</ele>
        <time>2018-07-03T07:47:09Z</time>
      </trkpt>
      <trkpt lat="46.321424" lon="6.778054">
        <ele>1670.311</ele>
        <time>2018-07-03T07:47:24Z</time>
      </trkpt>
      <trkpt lat="46.321397" lon="6.778110">
        <ele>1668.377</ele>
        <time>2018-07-03T07:47:33Z</time>
      </trkpt>
      <trkpt lat="46.321380" lon="6.778174">
        <ele>1667.159</ele>
        <time>2018-07-03T07:47:41Z</time>
      </trkpt>
      <trkpt lat="46.321340" lon="6.778205">
        <ele>1664.756</ele>
        <time>2018-07-03T07:47:51Z</time>
      </trkpt>
      <trkpt lat="46.321310" lon="6.778259">
        <ele>1662.942</ele>
        <time>2018-07-03T07:47:58Z</time>
      </trkpt>
      <trkpt lat="46.321280" lon="6.778315">
        <ele>1661.157</ele>
        <time>2018-07-03T07:48:04Z</time>
      </trkpt>
      <trkpt lat="46.321256" lon="6.778373">
        <ele>1659.832</ele>
        <time>2018-07-03T07:48:12Z</time>
      </trkpt>
      <trkpt lat="46.321239" lon="6.778440">
        <ele>1658.992</ele>
        <time>2018-07-03T07:48:21Z</time>
      </trkpt>
      <trkpt lat="46.321203" lon="6.778484">
        <ele>1656.811</ele>
        <time>2018-07-03T07:48:29Z</time>
      </trkpt>
      <trkpt lat="46.321168" lon="6.778526">
        <ele>1654.708</ele>
        <time>2018-07-03T07:48:36Z</time>
      </trkpt>
      <trkpt lat="46.321140" lon="6.778584">
        <ele>1652.835</ele>
        <time>2018-07-03T07:48:42Z</time>
      </trkpt>
      <trkpt lat="46.321111" lon="6.778635">
        <ele>1651.171</ele>
        <time>2018-07-03T07:48:50Z</time>
      </trkpt>
      <trkpt lat="46.321100" lon="6.778703">
        <ele>1650.913</ele>
        <time>2018-07-03T07:48:59Z</time>
      </trkpt>
      <trkpt lat="46.321060" lon="6.778734">
        <ele>1649.489</ele>
        <time>2018-07-03T07:49:09Z</time>
      </trkpt>
      <trkpt lat="46.321021" lon="6.778777">
        <ele>1648.031</ele>
        <time>2018-07-03T07:49:19Z</time>
      </trkpt>
      <trkpt lat="46.320985" lon="6.778823">
        <ele>1646.868</ele>
        <time>2018-07-03T07:49:29Z</time>
      </trkpt>
      <trkpt lat="46.320954" lon="6.778870">
        <ele>1645.774</ele>
        <time>2018-07-03T07:49:37Z</time>
      </trkpt>
      <trkpt lat="46.320919" lon="6.778919">
        <ele>1644.569</ele>
        <time>2018-07-03T07:49:44Z</time>
      </trkpt>
      <trkpt lat="46.320884" lon="6.778976">
        <ele>1643.355</ele>
        <time>2018-07-03T07:49:50Z</time>
      </trkpt>
      <trkpt lat="46.320861" lon="6.779036">
        <ele>1642.607</ele>
        <time>2018-07-03T07:49:56Z</time>
      </trkpt>
      <trkpt lat="46.320830" lon="6.779091">
        <ele>1641.617</ele>
        <time>2018-07-03T07:50:03Z</time>
      </trkpt>
      <trkpt lat="46.320788" lon="6.779133">
        <ele>1640.108</ele>
        <time>2018-07-03T07:50:12Z</time>
      </trkpt>
      <trkpt lat="46.320752" lon="6.779180">
        <ele>1638.977</ele>
        <time>2018-07-03T07:50:21Z</time>
      </trkpt>
      <trkpt lat="46.320710" lon="6.779210">
        <ele>1637.493</ele>
        <time>2018-07-03T07:50:30Z</time>
      </trkpt>
      <trkpt lat="46.320679" lon="6.779259">
        <ele>1636.485</ele>
        <time>2018-07-03T07:50:38Z</time>
      </trkpt>
      <trkpt lat="46.320634" lon="6.779255">
        <ele>1634.581</ele>
        <time>2018-07-03T07:50:53Z</time>
      </trkpt>
      <trkpt lat="46.320584" lon="6.779239">
        <ele>1632.473</ele>
        <time>2018-07-03T07:51:04Z</time>
      </trkpt>
      <trkpt lat="46.320540" lon="6.779207">
        <ele>1630.620</ele>
        <time>2018-07-03T07:51:13Z</time>
      </trkpt>
      <trkpt lat="46.320493" lon="6.779217">
        <ele>1629.186</ele>
        <time>2018-07-03T07:51:22Z</time>
      </trkpt>
      <trkpt lat="46.320452" lon="6.779251">
        <ele>1627.721</ele>
        <time>2018-07-03T07:51:28Z</time>
      </trkpt>
      <trkpt lat="46.320415" lon="6.779210">
        <ele>1626.478</ele>
        <time>2018-07-03T07:51:35Z</time>
      </trkpt>
      <trkpt lat="46.320369" lon="6.779199">
        <ele>1624.933</ele>
        <time>2018-07-03T07:51:45Z</time>
      </trkpt>
      <trkpt lat="46.320323" lon="6.779225">
        <ele>1623.326</ele>
        <time>2018-07-03T07:51:53Z</time>
      </trkpt>
      <trkpt lat="46.320283" lon="6.779264">
        <ele>1621.808</ele>
        <time>2018-07-03T07:52:02Z</time>
      </trkpt>
      <trkpt lat="46.320250" lon="6.779310">
        <ele>1620.659</ele>
        <time>2018-07-03T07:52:10Z</time>
      </trkpt>
      <trkpt lat="46.320218" lon="6.779357">
        <ele>1619.485</ele>
        <time>2018-07-03T07:52:18Z</time>
      </trkpt>
      <trkpt lat="46.320172" lon="6.779390">
        <ele>1617.897</ele>
        <time>2018-07-03T07:52:26Z</time>
      </trkpt>
      <trkpt lat="46.320138" lon="6.779435">
        <ele>1616.583</ele>
        <time>2018-07-03T07:52:33Z</time>
      </trkpt>
      <trkpt lat="46.320095" lon="6.779471">
        <ele>1614.995</ele>
        <time>2018-07-03T07:52:40Z</time>
      </trkpt>
      <trkpt lat="46.320051" lon="6.779512">
        <ele>1613.242</ele>
        <time>2018-07-03T07:52:46Z</time>
      </trkpt>
      <trkpt lat="46.320011" lon="6.779555">
        <ele>1611.638</ele>
        <time>2018-07-03T07:52:52Z</time>
      </trkpt>
      <trkpt lat="46.319975" lon="6.779595">
        <ele>1610.313</ele>
        <time>2018-07-03T07:52:59Z</time>
      </trkpt>
      <trkpt lat="46.319925" lon="6.779587">
        <ele>1609.113</ele>
        <time>2018-07-03T07:53:08Z</time>
      </trkpt>
      <trkpt lat="46.319894" lon="6.779643">
        <ele>1607.943</ele>
        <time>2018-07-03T07:53:18Z</time>
      </trkpt>
      <trkpt lat="46.319852" lon="6.779682">
        <ele>1606.607</ele>
        <time>2018-07-03T07:53:29Z</time>
      </trkpt>
      <trkpt lat="46.319805" lon="6.779692">
        <ele>1605.308</ele>
        <time>2018-07-03T07:53:35Z</time>
      </trkpt>
      <trkpt lat="46.319758" lon="6.779693">
        <ele>1604.123</ele>
        <time>2018-07-03T07:53:41Z</time>
      </trkpt>
      <trkpt lat="46.319707" lon="6.779682">
        <ele>1602.979</ele>
        <time>2018-07-03T07:53:49Z</time>
      </trkpt>
      <trkpt lat="46.319669" lon="6.779635">
        <ele>1602.391</ele>
        <time>2018-07-03T07:54:45Z</time>
      </trkpt>
      <trkpt lat="46.319641" lon="6.779690">
        <ele>1601.257</ele>
        <time>2018-07-03T07:55:22Z</time>
      </trkpt>
      <trkpt lat="46.319597" lon="6.779719">
        <ele>1599.979</ele>
        <time>2018-07-03T07:55:33Z</time>
      </trkpt>
      <trkpt lat="46.319576" lon="6.779782">
        <ele>1598.566</ele>
        <time>2018-07-03T07:55:45Z</time>
      </trkpt>
      <trkpt lat="46.319559" lon="6.779846">
        <ele>1597.182</ele>
        <time>2018-07-03T07:55:52Z</time>
      </trkpt>
      <trkpt lat="46.319542" lon="6.779912">
        <ele>1595.777</ele>
        <time>2018-07-03T07:55:58Z</time>
      </trkpt>
      <trkpt lat="46.319520" lon="6.779975">
        <ele>1594.358</ele>
        <time>2018-07-03T07:56:03Z</time>
      </trkpt>
      <trkpt lat="46.319487" lon="6.780021">
        <ele>1592.852</ele>
        <time>2018-07-03T07:56:10Z</time>
      </trkpt>
      <trkpt lat="46.319492" lon="6.780090">
        <ele>1592.117</ele>
        <time>2018-07-03T07:56:26Z</time>
      </trkpt>
      <trkpt lat="46.319491" lon="6.780165">
        <ele>1591.108</ele>
        <time>2018-07-03T07:56:33Z</time>
      </trkpt>
      <trkpt lat="46.319484" lon="6.780239">
        <ele>1589.987</ele>
        <time>2018-07-03T07:56:39Z</time>
      </trkpt>
      <trkpt lat="46.319457" lon="6.780303">
        <ele>1588.563</ele>
        <time>2018-07-03T07:56:45Z</time>
      </trkpt>
      <trkpt lat="46.319437" lon="6.780368">
        <ele>1587.825</ele>
        <time>2018-07-03T07:56:51Z</time>
      </trkpt>
      <trkpt lat="46.319392" lon="6.780396">
        <ele>1586.331</ele>
        <time>2018-07-03T07:56:59Z</time>
      </trkpt>
      <trkpt lat="46.319347" lon="6.780421">
        <ele>1584.633</ele>
        <time>2018-07-03T07:57:06Z</time>
      </trkpt>
      <trkpt lat="46.319304" lon="6.780446">
        <ele>1582.990</ele>
        <time>2018-07-03T07:57:12Z</time>
      </trkpt>
      <trkpt lat="46.319263" lon="6.780487">
        <ele>1581.086</ele>
        <time>2018-07-03T07:57:18Z</time>
      </trkpt>
      <trkpt lat="46.319222" lon="6.780520">
        <ele>1578.971</ele>
        <time>2018-07-03T07:57:24Z</time>
      </trkpt>
      <trkpt lat="46.319183" lon="6.780566">
        <ele>1576.891</ele>
        <time>2018-07-03T07:57:30Z</time>
      </trkpt>
      <trkpt lat="46.319148" lon="6.780610">
        <ele>1576.081</ele>
        <time>2018-07-03T07:57:37Z</time>
      </trkpt>
      <trkpt lat="46.319112" lon="6.780659">
        <ele>1575.319</ele>
        <time>2018-07-03T07:57:44Z</time>
      </trkpt>
      <trkpt lat="46.319062" lon="6.780681">
        <ele>1573.708</ele>
        <time>2018-07-03T07:57:55Z</time>
      </trkpt>
      <trkpt lat="46.319016" lon="6.780689">
        <ele>1572.181</ele>
        <time>2018-07-03T07:58:01Z</time>
      </trkpt>
      <trkpt lat="46.318970" lon="6.780708">
        <ele>1570.447</ele>
        <time>2018-07-03T07:58:07Z</time>
      </trkpt>
      <trkpt lat="46.318920" lon="6.780720">
        <ele>1568.489</ele>
        <time>2018-07-03T07:58:14Z</time>
      </trkpt>
      <trkpt lat="46.318875" lon="6.780744">
        <ele>1566.645</ele>
        <time>2018-07-03T07:58:21Z</time>
      </trkpt>
      <trkpt lat="46.318845" lon="6.780798">
        <ele>1565.327</ele>
        <time>2018-07-03T07:58:28Z</time>
      </trkpt>
      <trkpt lat="46.318803" lon="6.780835">
        <ele>1563.874</ele>
        <time>2018-07-03T07:58:35Z</time>
      </trkpt>
      <trkpt lat="46.318762" lon="6.780880">
        <ele>1562.790</ele>
        <time>2018-07-03T07:58:42Z</time>
      </trkpt>
      <trkpt lat="46.318721" lon="6.780926">
        <ele>1561.245</ele>
        <time>2018-07-03T07:58:49Z</time>
      </trkpt>
      <trkpt lat="46.318683" lon="6.780974">
        <ele>1559.653</ele>
        <time>2018-07-03T07:58:56Z</time>
      </trkpt>
      <trkpt lat="46.318646" lon="6.781018">
        <ele>1557.704</ele>
        <time>2018-07-03T07:59:06Z</time>
      </trkpt>
      <trkpt lat="46.318607" lon="6.781065">
        <ele>1555.514</ele>
        <time>2018-07-03T07:59:14Z</time>
      </trkpt>
      <trkpt lat="46.318570" lon="6.781104">
        <ele>1553.808</ele>
        <time>2018-07-03T07:59:20Z</time>
      </trkpt>
      <trkpt lat="46.318527" lon="6.781134">
        <ele>1552.437</ele>
        <time>2018-07-03T07:59:27Z</time>
      </trkpt>
      <trkpt lat="46.318484" lon="6.781171">
        <ele>1551.013</ele>
        <time>2018-07-03T07:59:35Z</time>
      </trkpt>
      <trkpt lat="46.318443" lon="6.781199">
        <ele>1549.615</ele>
        <time>2018-07-03T07:59:41Z</time>
      </trkpt>
      <trkpt lat="46.318398" lon="6.781232">
        <ele>1548.051</ele>
        <time>2018-07-03T07:59:47Z</time>
      </trkpt>
      <trkpt lat="46.318356" lon="6.781279">
        <ele>1546.373</ele>
        <time>2018-07-03T07:59:53Z</time>
      </trkpt>
      <trkpt lat="46.318314" lon="6.781302">
        <ele>1544.580</ele>
        <time>2018-07-03T07:59:59Z</time>
      </trkpt>
      <trkpt lat="46.318268" lon="6.781286">
        <ele>1542.686</ele>
        <time>2018-07-03T08:00:26Z</time>
      </trkpt>
      <trkpt lat="46.318219" lon="6.781305">
        <ele>1540.381</ele>
        <time>2018-07-03T08:00:34Z</time>
      </trkpt>
      <trkpt lat="46.318175" lon="6.781346">
        <ele>1538.098</ele>
        <time>2018-07-03T08:00:41Z</time>
      </trkpt>
      <trkpt lat="46.318136" lon="6.781386">
        <ele>1535.815</ele>
        <time>2018-07-03T08:00:48Z</time>
      </trkpt>
      <trkpt lat="46.318097" lon="6.781426">
        <ele>1534.226</ele>
        <time>2018-07-03T08:00:55Z</time>
      </trkpt>
      <trkpt lat="46.318057" lon="6.781462">
        <ele>1532.608</ele>
        <time>2018-07-03T08:01:04Z</time>
      </trkpt>
      <trkpt lat="46.318013" lon="6.781479">
        <ele>1530.231</ele>
        <time>2018-07-03T08:01:13Z</time>
      </trkpt>
      <trkpt lat="46.317973" lon="6.781513">
        <ele>1528.387</ele>
        <time>2018-07-03T08:01:23Z</time>
      </trkpt>
      <trkpt lat="46.317936" lon="6.781556">
        <ele>1526.659</ele>
        <time>2018-07-03T08:01:30Z</time>
      </trkpt>
      <trkpt lat="46.317906" lon="6.781605">
        <ele>1525.485</ele>
        <time>2018-07-03T08:01:36Z</time>
      </trkpt>
      <trkpt lat="46.317879" lon="6.781660">
        <ele>1524.427</ele>
        <time>2018-07-03T08:01:44Z</time>
      </trkpt>
      <trkpt lat="46.317836" lon="6.781694">
        <ele>1522.584</ele>
        <time>2018-07-03T08:01:52Z</time>
      </trkpt>
      <trkpt lat="46.317804" lon="6.781745">
        <ele>1521.540</ele>
        <time>2018-07-03T08:02:01Z</time>
      </trkpt>
      <trkpt lat="46.317766" lon="6.781789">
        <ele>1520.055</ele>
        <time>2018-07-03T08:02:11Z</time>
      </trkpt>
      <trkpt lat="46.317730" lon="6.781838">
        <ele>1518.548</ele>
        <time>2018-07-03T08:02:21Z</time>
      </trkpt>
      <trkpt lat="46.317697" lon="6.781882">
        <ele>1517.361</ele>
        <time>2018-07-03T08:02:33Z</time>
      </trkpt>
      <trkpt lat="46.317661" lon="6.781924">
        <ele>1515.917</ele>
        <time>2018-07-03T08:02:47Z</time>
      </trkpt>
      <trkpt lat="46.317619" lon="6.781958">
        <ele>1513.808</ele>
        <time>2018-07-03T08:02:59Z</time>
      </trkpt>
      <trkpt lat="46.317589" lon="6.782008">
        <ele>1511.796</ele>
        <time>2018-07-03T08:03:09Z</time>
      </trkpt>
      <trkpt lat="46.317564" lon="6.782072">
        <ele>1509.862</ele>
        <time>2018-07-03T08:03:18Z</time>
      </trkpt>
      <trkpt lat="46.317539" lon="6.782128">
        <ele>1507.974</ele>
        <time>2018-07-03T08:03:35Z</time>
      </trkpt>
      <trkpt lat="46.317497" lon="6.782156">
        <ele>1505.340</ele>
        <time>2018-07-03T08:03:52Z</time>
      </trkpt>
      <trkpt lat="46.317476" lon="6.782217">
        <ele>1503.792</ele>
        <time>2018-07-03T08:04:00Z</time>
      </trkpt>
      <trkpt lat="46.317472" lon="6.782287">
        <ele>1502.649</ele>
        <time>2018-07-03T08:04:11Z</time>
      </trkpt>
      <trkpt lat="46.317462" lon="6.782351">
        <ele>1501.375</ele>
        <time>2018-07-03T08:04:24Z</time>
      </trkpt>
      <trkpt lat="46.317439" lon="6.782410">
        <ele>1499.240</ele>
        <time>2018-07-03T08:04:36Z</time>
      </trkpt>
      <trkpt lat="46.317439" lon="6.782478">
        <ele>1498.331</ele>
        <time>2018-07-03T08:04:47Z</time>
      </trkpt>
      <trkpt lat="46.317422" lon="6.782541">
        <ele>1496.261</ele>
        <time>2018-07-03T08:04:59Z</time>
      </trkpt>
      <trkpt lat="46.317416" lon="6.782609">
        <ele>1494.707</ele>
        <time>2018-07-03T08:05:08Z</time>
      </trkpt>
      <trkpt lat="46.317408" lon="6.782673">
        <ele>1493.108</ele>
        <time>2018-07-03T08:05:17Z</time>
      </trkpt>
      <trkpt lat="46.317400" lon="6.782739">
        <ele>1491.585</ele>
        <time>2018-07-03T08:05:27Z</time>
      </trkpt>
      <trkpt lat="46.317365" lon="6.782782">
        <ele>1488.721</ele>
        <time>2018-07-03T08:05:41Z</time>
      </trkpt>
      <trkpt lat="46.317356" lon="6.782855">
        <ele>1487.363</ele>
        <time>2018-07-03T08:05:49Z</time>
      </trkpt>
      <trkpt lat="46.317349" lon="6.782931">
        <ele>1486.139</ele>
        <time>2018-07-03T08:05:56Z</time>
      </trkpt>
      <trkpt lat="46.317343" lon="6.783001">
        <ele>1484.921</ele>
        <time>2018-07-03T08:06:02Z</time>
      </trkpt>
      <trkpt lat="46.317329" lon="6.783067">
        <ele>1483.428</ele>
        <time>2018-07-03T08:06:09Z</time>
      </trkpt>
      <trkpt lat="46.317312" lon="6.783134">
        <ele>1483.094</ele>
        <time>2018-07-03T08:06:16Z</time>
      </trkpt>
      <trkpt lat="46.317290" lon="6.783196">
        <ele>1482.319</ele>
        <time>2018-07-03T08:06:23Z</time>
      </trkpt>
      <trkpt lat="46.317258" lon="6.783243">
        <ele>1480.995</ele>
        <time>2018-07-03T08:06:30Z</time>
      </trkpt>
      <trkpt lat="46.317226" lon="6.783297">
        <ele>1479.749</ele>
        <time>2018-07-03T08:06:37Z</time>
      </trkpt>
      <trkpt lat="46.317182" lon="6.783335">
        <ele>1478.023</ele>
        <time>2018-07-03T08:06:44Z</time>
      </trkpt>
      <trkpt lat="46.317135" lon="6.783347">
        <ele>1476.008</ele>
        <time>2018-07-03T08:06:52Z</time>
      </trkpt>
      <trkpt lat="46.317082" lon="6.783363">
        <ele>1473.941</ele>
        <time>2018-07-03T08:07:06Z</time>
      </trkpt>
      <trkpt lat="46.317031" lon="6.783373">
        <ele>1471.617</ele>
        <time>2018-07-03T08:07:16Z</time>
      </trkpt>
      <trkpt lat="46.316987" lon="6.783391">
        <ele>1470.029</ele>
        <time>2018-07-03T08:07:24Z</time>
      </trkpt>
      <trkpt lat="46.316939" lon="6.783392">
        <ele>1467.725</ele>
        <time>2018-07-03T08:07:33Z</time>
      </trkpt>
      <trkpt lat="46.316890" lon="6.783389">
        <ele>1465.327</ele>
        <time>2018-07-03T08:07:40Z</time>
      </trkpt>
      <trkpt lat="46.316840" lon="6.783396">
        <ele>1463.324</ele>
        <time>2018-07-03T08:07:47Z</time>
      </trkpt>
      <trkpt lat="46.316798" lon="6.783434">
        <ele>1462.860</ele>
        <time>2018-07-03T08:08:01Z</time>
      </trkpt>
      <trkpt lat="46.316756" lon="6.783467">
        <ele>1462.265</ele>
        <time>2018-07-03T08:08:09Z</time>
      </trkpt>
      <trkpt lat="46.316711" lon="6.783497">
        <ele>1461.466</ele>
        <time>2018-07-03T08:08:20Z</time>
      </trkpt>
      <trkpt lat="46.316670" lon="6.783531">
        <ele>1461.029</ele>
        <time>2018-07-03T08:08:27Z</time>
      </trkpt>
      <trkpt lat="46.316626" lon="6.783557">
        <ele>1460.021</ele>
        <time>2018-07-03T08:08:34Z</time>
      </trkpt>
      <trkpt lat="46.316581" lon="6.783571">
        <ele>1458.408</ele>
        <time>2018-07-03T08:08:44Z</time>
      </trkpt>
      <trkpt lat="46.316531" lon="6.783587">
        <ele>1456.778</ele>
        <time>2018-07-03T08:08:51Z</time>
      </trkpt>
      <trkpt lat="46.316485" lon="6.783605">
        <ele>1455.364</ele>
        <time>2018-07-03T08:08:57Z</time>
      </trkpt>
      <trkpt lat="46.316442" lon="6.783626">
        <ele>1454.046</ele>
        <time>2018-07-03T08:09:04Z</time>
      </trkpt>
      <trkpt lat="46.316395" lon="6.783642">
        <ele>1452.482</ele>
        <time>2018-07-03T08:09:11Z</time>
      </trkpt>
      <trkpt lat="46.316350" lon="6.783648">
        <ele>1450.524</ele>
        <time>2018-07-03T08:09:17Z</time>
      </trkpt>
      <trkpt lat="46.316302" lon="6.783670">
        <ele>1449.021</ele>
        <time>2018-07-03T08:09:23Z</time>
      </trkpt>
      <trkpt lat="46.316257" lon="6.783691">
        <ele>1447.647</ele>
        <time>2018-07-03T08:09:29Z</time>
      </trkpt>
      <trkpt lat="46.316208" lon="6.783707">
        <ele>1445.892</ele>
        <time>2018-07-03T08:09:36Z</time>
      </trkpt>
      <trkpt lat="46.316164" lon="6.783729">
        <ele>1444.461</ele>
        <time>2018-07-03T08:09:42Z</time>
      </trkpt>
      <trkpt lat="46.316122" lon="6.783751">
        <ele>1443.121</ele>
        <time>2018-07-03T08:09:48Z</time>
      </trkpt>
      <trkpt lat="46.316075" lon="6.783779">
        <ele>1441.513</ele>
        <time>2018-07-03T08:09:55Z</time>
      </trkpt>
      <trkpt lat="46.316038" lon="6.783819">
        <ele>1440.908</ele>
        <time>2018-07-03T08:10:02Z</time>
      </trkpt>
      <trkpt lat="46.315989" lon="6.783840">
        <ele>1439.168</ele>
        <time>2018-07-03T08:10:10Z</time>
      </trkpt>
      <trkpt lat="46.315939" lon="6.783846">
        <ele>1436.784</ele>
        <time>2018-07-03T08:10:18Z</time>
      </trkpt>
      <trkpt lat="46.315892" lon="6.783857">
        <ele>1434.766</ele>
        <time>2018-07-03T08:10:26Z</time>
      </trkpt>
      <trkpt lat="46.315846" lon="6.783874">
        <ele>1433.182</ele>
        <time>2018-07-03T08:10:33Z</time>
      </trkpt>
      <trkpt lat="46.315798" lon="6.783887">
        <ele>1431.044</ele>
        <time>2018-07-03T08:10:41Z</time>
      </trkpt>
      <trkpt lat="46.315754" lon="6.783917">
        <ele>1429.071</ele>
        <time>2018-07-03T08:10:49Z</time>
      </trkpt>
      <trkpt lat="46.315717" lon="6.783963">
        <ele>1427.417</ele>
        <time>2018-07-03T08:10:56Z</time>
      </trkpt>
      <trkpt lat="46.315681" lon="6.784009">
        <ele>1425.832</ele>
        <time>2018-07-03T08:11:05Z</time>
      </trkpt>
      <trkpt lat="46.315638" lon="6.784036">
        <ele>1423.786</ele>
        <time>2018-07-03T08:11:16Z</time>
      </trkpt>
      <trkpt lat="46.315609" lon="6.784088">
        <ele>1422.560</ele>
        <time>2018-07-03T08:11:24Z</time>
      </trkpt>
      <trkpt lat="46.315576" lon="6.784144">
        <ele>1421.026</ele>
        <time>2018-07-03T08:11:31Z</time>
      </trkpt>
      <trkpt lat="46.315557" lon="6.784210">
        <ele>1419.608</ele>
        <time>2018-07-03T08:11:40Z</time>
      </trkpt>
      <trkpt lat="46.315527" lon="6.784265">
        <ele>1417.690</ele>
        <time>2018-07-03T08:11:48Z</time>
      </trkpt>
      <trkpt lat="46.315500" lon="6.784319">
        <ele>1415.856</ele>
        <time>2018-07-03T08:11:54Z</time>
      </trkpt>
      <trkpt lat="46.315474" lon="6.784380">
        <ele>1414.088</ele>
        <time>2018-07-03T08:12:03Z</time>
      </trkpt>
      <trkpt lat="46.315455" lon="6.784442">
        <ele>1412.754</ele>
        <time>2018-07-03T08:12:15Z</time>
      </trkpt>
      <trkpt lat="46.315408" lon="6.784439">
        <ele>1410.796</ele>
        <time>2018-07-03T08:12:32Z</time>
      </trkpt>
      <trkpt lat="46.315366" lon="6.784406">
        <ele>1409.093</ele>
        <time>2018-07-03T08:12:41Z</time>
      </trkpt>
      <trkpt lat="46.315327" lon="6.784364">
        <ele>1407.529</ele>
        <time>2018-07-03T08:12:55Z</time>
      </trkpt>
      <trkpt lat="46.315284" lon="6.784391">
        <ele>1405.584</ele>
        <time>2018-07-03T08:13:21Z</time>
      </trkpt>
      <trkpt lat="46.315256" lon="6.784447">
        <ele>1403.518</ele>
        <time>2018-07-03T08:13:28Z</time>
      </trkpt>
      <trkpt lat="46.315235" lon="6.784514">
        <ele>1400.698</ele>
        <time>2018-07-03T08:13:35Z</time>
      </trkpt>
      <trkpt lat="46.315221" lon="6.784576">
        <ele>1398.317</ele>
        <time>2018-07-03T08:13:46Z</time>
      </trkpt>
      <trkpt lat="46.315176" lon="6.784549">
        <ele>1395.808</ele>
        <time>2018-07-03T08:13:56Z</time>
      </trkpt>
      <trkpt lat="46.315152" lon="6.784493">
        <ele>1395.393</ele>
        <time>2018-07-03T08:14:04Z</time>
      </trkpt>
      <trkpt lat="46.315119" lon="6.784448">
        <ele>1394.199</ele>
        <time>2018-07-03T08:14:10Z</time>
      </trkpt>
      <trkpt lat="46.315118" lon="6.784522">
        <ele>1392.431</ele>
        <time>2018-07-03T08:14:28Z</time>
      </trkpt>
      <trkpt lat="46.315106" lon="6.784587">
        <ele>1390.227</ele>
        <time>2018-07-03T08:14:39Z</time>
      </trkpt>
      <trkpt lat="46.315067" lon="6.784551">
        <ele>1388.389</ele>
        <time>2018-07-03T08:14:49Z</time>
      </trkpt>
      <trkpt lat="46.315020" lon="6.784516">
        <ele>1385.896</ele>
        <time>2018-07-03T08:14:57Z</time>
      </trkpt>
      <trkpt lat="46.314953" lon="6.784499">
        <ele>1381.742</ele>
        <time>2018-07-03T08:15:08Z</time>
      </trkpt>
      <trkpt lat="46.314920" lon="6.784449">
        <ele>1380.467</ele>
        <time>2018-07-03T08:15:16Z</time>
      </trkpt>
      <trkpt lat="46.314887" lon="6.784396">
        <ele>1378.385</ele>
        <time>2018-07-03T08:15:23Z</time>
      </trkpt>
      <trkpt lat="46.314844" lon="6.784376">
        <ele>1375.389</ele>
        <time>2018-07-03T08:15:34Z</time>
      </trkpt>
      <trkpt lat="46.314844" lon="6.784448">
        <ele>1375.317</ele>
        <time>2018-07-03T08:15:42Z</time>
      </trkpt>
      <trkpt lat="46.314839" lon="6.784520">
        <ele>1373.708</ele>
        <time>2018-07-03T08:15:54Z</time>
      </trkpt>
      <trkpt lat="46.314789" lon="6.784532">
        <ele>1370.230</ele>
        <time>2018-07-03T08:16:02Z</time>
      </trkpt>
      <trkpt lat="46.314743" lon="6.784516">
        <ele>1367.426</ele>
        <time>2018-07-03T08:16:15Z</time>
      </trkpt>
      <trkpt lat="46.314701" lon="6.784474">
        <ele>1365.578</ele>
        <time>2018-07-03T08:16:33Z</time>
      </trkpt>
      <trkpt lat="46.314664" lon="6.784426">
        <ele>1364.034</ele>
        <time>2018-07-03T08:16:45Z</time>
      </trkpt>
      <trkpt lat="46.314618" lon="6.784414">
        <ele>1361.666</ele>
        <time>2018-07-03T08:16:58Z</time>
      </trkpt>
      <trkpt lat="46.314570" lon="6.784430">
        <ele>1359.243</ele>
        <time>2018-07-03T08:17:10Z</time>
      </trkpt>
      <trkpt lat="46.314554" lon="6.784496">
        <ele>1357.999</ele>
        <time>2018-07-03T08:17:20Z</time>
      </trkpt>
      <trkpt lat="46.314539" lon="6.784559">
        <ele>1356.414</ele>
        <time>2018-07-03T08:17:34Z</time>
      </trkpt>
      <trkpt lat="46.314512" lon="6.784622">
        <ele>1354.366</ele>
        <time>2018-07-03T08:17:45Z</time>
      </trkpt>
      <trkpt lat="46.314511" lon="6.784687">
        <ele>1353.529</ele>
        <time>2018-07-03T08:18:04Z</time>
      </trkpt>
      <trkpt lat="46.314541" lon="6.784739">
        <ele>1354.121</ele>
        <time>2018-07-03T08:18:19Z</time>
      </trkpt>
      <trkpt lat="46.314538" lon="6.784811">
        <ele>1352.108</ele>
        <time>2018-07-03T08:18:27Z</time>
      </trkpt>
      <trkpt lat="46.314537" lon="6.784886">
        <ele>1350.298</ele>
        <time>2018-07-03T08:18:35Z</time>
      </trkpt>
      <trkpt lat="46.314527" lon="6.784963">
        <ele>1347.874</ele>
        <time>2018-07-03T08:18:42Z</time>
      </trkpt>
      <trkpt lat="46.314517" lon="6.785040">
        <ele>1345.316</ele>
        <time>2018-07-03T08:18:48Z</time>
      </trkpt>
      <trkpt lat="46.314501" lon="6.785114">
        <ele>1342.532</ele>
        <time>2018-07-03T08:18:54Z</time>
      </trkpt>
      <trkpt lat="46.314475" lon="6.785182">
        <ele>1339.384</ele>
        <time>2018-07-03T08:19:00Z</time>
      </trkpt>
      <trkpt lat="46.314445" lon="6.785244">
        <ele>1336.021</ele>
        <time>2018-07-03T08:19:06Z</time>
      </trkpt>
      <trkpt lat="46.314425" lon="6.785303">
        <ele>1333.437</ele>
        <time>2018-07-03T08:19:15Z</time>
      </trkpt>
      <trkpt lat="46.314401" lon="6.785370">
        <ele>1330.472</ele>
        <time>2018-07-03T08:19:32Z</time>
      </trkpt>
      <trkpt lat="46.314377" lon="6.785432">
        <ele>1327.527</ele>
        <time>2018-07-03T08:19:38Z</time>
      </trkpt>
      <trkpt lat="46.314349" lon="6.785493">
        <ele>1324.668</ele>
        <time>2018-07-03T08:19:45Z</time>
      </trkpt>
      <trkpt lat="46.314345" lon="6.785565">
        <ele>1322.414</ele>
        <time>2018-07-03T08:19:54Z</time>
      </trkpt>
      <trkpt lat="46.314390" lon="6.785585">
        <ele>1323.708</ele>
        <time>2018-07-03T08:20:07Z</time>
      </trkpt>
      <trkpt lat="46.314380" lon="6.785518">
        <ele>1325.394</ele>
        <time>2018-07-03T08:20:20Z</time>
      </trkpt>
      <trkpt lat="46.314370" lon="6.785453">
        <ele>1326.650</ele>
        <time>2018-07-03T08:20:27Z</time>
      </trkpt>
      <trkpt lat="46.314322" lon="6.785435">
        <ele>1325.012</ele>
        <time>2018-07-03T08:20:32Z</time>
      </trkpt>
      <trkpt lat="46.314275" lon="6.785429">
        <ele>1323.018</ele>
        <time>2018-07-03T08:20:37Z</time>
      </trkpt>
      <trkpt lat="46.314220" lon="6.785421">
        <ele>1320.820</ele>
        <time>2018-07-03T08:20:45Z</time>
      </trkpt>
      <trkpt lat="46.314200" lon="6.785484">
        <ele>1318.337</ele>
        <time>2018-07-03T08:21:07Z</time>
      </trkpt>
      <trkpt lat="46.314157" lon="6.785520">
        <ele>1315.533</ele>
        <time>2018-07-03T08:21:14Z</time>
      </trkpt>
      <trkpt lat="46.314112" lon="6.785515">
        <ele>1313.648</ele>
        <time>2018-07-03T08:21:19Z</time>
      </trkpt>
      <trkpt lat="46.314065" lon="6.785506">
        <ele>1311.875</ele>
        <time>2018-07-03T08:21:24Z</time>
      </trkpt>
      <trkpt lat="46.314014" lon="6.785500">
        <ele>1309.728</ele>
        <time>2018-07-03T08:21:35Z</time>
      </trkpt>
      <trkpt lat="46.313996" lon="6.785565">
        <ele>1307.420</ele>
        <time>2018-07-03T08:21:51Z</time>
      </trkpt>
      <trkpt lat="46.313950" lon="6.785593">
        <ele>1304.808</ele>
        <time>2018-07-03T08:21:59Z</time>
      </trkpt>
      <trkpt lat="46.313912" lon="6.785557">
        <ele>1304.029</ele>
        <time>2018-07-03T08:22:10Z</time>
      </trkpt>
      <trkpt lat="46.313955" lon="6.785529">
        <ele>1306.555</ele>
        <time>2018-07-03T08:22:17Z</time>
      </trkpt>
      <trkpt lat="46.313908" lon="6.785523">
        <ele>1304.597</ele>
        <time>2018-07-03T08:22:54Z</time>
      </trkpt>
      <trkpt lat="46.313866" lon="6.785480">
        <ele>1303.673</ele>
        <time>2018-07-03T08:23:03Z</time>
      </trkpt>
      <trkpt lat="46.313820" lon="6.785480">
        <ele>1301.545</ele>
        <time>2018-07-03T08:23:08Z</time>
      </trkpt>
      <trkpt lat="46.313771" lon="6.785483">
        <ele>1299.362</ele>
        <time>2018-07-03T08:23:30Z</time>
      </trkpt>
      <trkpt lat="46.313728" lon="6.785449">
        <ele>1297.938</ele>
        <time>2018-07-03T08:23:36Z</time>
      </trkpt>
      <trkpt lat="46.313678" lon="6.785437">
        <ele>1295.853</ele>
        <time>2018-07-03T08:23:42Z</time>
      </trkpt>
      <trkpt lat="46.313667" lon="6.785368">
        <ele>1296.496</ele>
        <time>2018-07-03T08:24:08Z</time>
      </trkpt>
      <trkpt lat="46.313620" lon="6.785414">
        <ele>1293.531</ele>
        <time>2018-07-03T08:24:14Z</time>
      </trkpt>
      <trkpt lat="46.313596" lon="6.785475">
        <ele>1291.624</ele>
        <time>2018-07-03T08:24:25Z</time>
      </trkpt>
      <trkpt lat="46.313591" lon="6.785541">
        <ele>1290.608</ele>
        <time>2018-07-03T08:24:32Z</time>
      </trkpt>
      <trkpt lat="46.313614" lon="6.785599">
        <ele>1290.841</ele>
        <time>2018-07-03T08:24:42Z</time>
      </trkpt>
      <trkpt lat="46.313651" lon="6.785643">
        <ele>1291.977</ele>
        <time>2018-07-03T08:24:47Z</time>
      </trkpt>
      <trkpt lat="46.313694" lon="6.785686">
        <ele>1293.129</ele>
        <time>2018-07-03T08:24:52Z</time>
      </trkpt>
      <trkpt lat="46.313644" lon="6.785658">
        <ele>1291.555</ele>
        <time>2018-07-03T08:25:08Z</time>
      </trkpt>
      <trkpt lat="46.313596" lon="6.785685">
        <ele>1289.747</ele>
        <time>2018-07-03T08:25:24Z</time>
      </trkpt>
      <trkpt lat="46.313552" lon="6.785702">
        <ele>1288.524</ele>
        <time>2018-07-03T08:25:33Z</time>
      </trkpt>
      <trkpt lat="46.313506" lon="6.785708">
        <ele>1287.340</ele>
        <time>2018-07-03T08:25:43Z</time>
      </trkpt>
      <trkpt lat="46.313459" lon="6.785747">
        <ele>1286.015</ele>
        <time>2018-07-03T08:25:49Z</time>
      </trkpt>
      <trkpt lat="46.313414" lon="6.785764">
        <ele>1284.933</ele>
        <time>2018-07-03T08:25:55Z</time>
      </trkpt>
      <trkpt lat="46.313376" lon="6.785724">
        <ele>1284.023</ele>
        <time>2018-07-03T08:26:47Z</time>
      </trkpt>
      <trkpt lat="46.313326" lon="6.785722">
        <ele>1282.815</ele>
        <time>2018-07-03T08:26:56Z</time>
      </trkpt>
      <trkpt lat="46.313281" lon="6.785712">
        <ele>1281.608</ele>
        <time>2018-07-03T08:27:02Z</time>
      </trkpt>
      <trkpt lat="46.313232" lon="6.785692">
        <ele>1280.395</ele>
        <time>2018-07-03T08:27:08Z</time>
      </trkpt>
      <trkpt lat="46.313206" lon="6.785754">
        <ele>1279.781</ele>
        <time>2018-07-03T08:27:32Z</time>
      </trkpt>
      <trkpt lat="46.313174" lon="6.785805">
        <ele>1278.933</ele>
        <time>2018-07-03T08:27:38Z</time>
      </trkpt>
      <trkpt lat="46.313137" lon="6.785847">
        <ele>1278.359</ele>
        <time>2018-07-03T08:27:43Z</time>
      </trkpt>
      <trkpt lat="46.313101" lon="6.785894">
        <ele>1278.491</ele>
        <time>2018-07-03T08:27:48Z</time>
      </trkpt>
      <trkpt lat="46.313055" lon="6.785928">
        <ele>1278.018</ele>
        <time>2018-07-03T08:27:54Z</time>
      </trkpt>
      <trkpt lat="46.313006" lon="6.785961">
        <ele>1277.814</ele>
        <time>2018-07-03T08:28:00Z</time>
      </trkpt>
      <trkpt lat="46.312957" lon="6.785985">
        <ele>1277.349</ele>
        <time>2018-07-03T08:28:05Z</time>
      </trkpt>
      <trkpt lat="46.312909" lon="6.785993">
        <ele>1276.689</ele>
        <time>2018-07-03T08:28:09Z</time>
      </trkpt>
      <trkpt lat="46.312860" lon="6.786001">
        <ele>1275.806</ele>
        <time>2018-07-03T08:28:13Z</time>
      </trkpt>
      <trkpt lat="46.312812" lon="6.786009">
        <ele>1275.126</ele>
        <time>2018-07-03T08:28:18Z</time>
      </trkpt>
      <trkpt lat="46.312765" lon="6.786009">
        <ele>1274.308</ele>
        <time>2018-07-03T08:28:23Z</time>
      </trkpt>
      <trkpt lat="46.312721" lon="6.785990">
        <ele>1273.330</ele>
        <time>2018-07-03T08:28:27Z</time>
      </trkpt>
      <trkpt lat="46.312671" lon="6.785966">
        <ele>1272.016</ele>
        <time>2018-07-03T08:28:33Z</time>
      </trkpt>
      <trkpt lat="46.312625" lon="6.785956">
        <ele>1271.158</ele>
        <time>2018-07-03T08:28:37Z</time>
      </trkpt>
      <trkpt lat="46.312576" lon="6.785940">
        <ele>1269.914</ele>
        <time>2018-07-03T08:28:42Z</time>
      </trkpt>
      <trkpt lat="46.312525" lon="6.785911">
        <ele>1268.296</ele>
        <time>2018-07-03T08:28:49Z</time>
      </trkpt>
      <trkpt lat="46.312480" lon="6.785900">
        <ele>1267.193</ele>
        <time>2018-07-03T08:28:54Z</time>
      </trkpt>
      <trkpt lat="46.312435" lon="6.785885">
        <ele>1266.019</ele>
        <time>2018-07-03T08:28:59Z</time>
      </trkpt>
      <trkpt lat="46.312383" lon="6.785888">
        <ele>1265.444</ele>
        <time>2018-07-03T08:29:05Z</time>
      </trkpt>
      <trkpt lat="46.312332" lon="6.785876">
        <ele>1264.254</ele>
        <time>2018-07-03T08:29:11Z</time>
      </trkpt>
      <trkpt lat="46.312286" lon="6.785880">
        <ele>1263.756</ele>
        <time>2018-07-03T08:29:16Z</time>
      </trkpt>
      <trkpt lat="46.312229" lon="6.785886">
        <ele>1263.211</ele>
        <time>2018-07-03T08:29:23Z</time>
      </trkpt>
      <trkpt lat="46.312180" lon="6.785883">
        <ele>1262.308</ele>
        <time>2018-07-03T08:29:29Z</time>
      </trkpt>
      <trkpt lat="46.312132" lon="6.785868">
        <ele>1261.037</ele>
        <time>2018-07-03T08:29:35Z</time>
      </trkpt>
      <trkpt lat="46.312088" lon="6.785853">
        <ele>1259.833</ele>
        <time>2018-07-03T08:29:40Z</time>
      </trkpt>
      <trkpt lat="46.312037" lon="6.785844">
        <ele>1258.785</ele>
        <time>2018-07-03T08:29:45Z</time>
      </trkpt>
      <trkpt lat="46.311994" lon="6.785823">
        <ele>1257.661</ele>
        <time>2018-07-03T08:29:50Z</time>
      </trkpt>
      <trkpt lat="46.311947" lon="6.785816">
        <ele>1256.893</ele>
        <time>2018-07-03T08:29:55Z</time>
      </trkpt>
      <trkpt lat="46.311893" lon="6.785795">
        <ele>1255.560</ele>
        <time>2018-07-03T08:30:02Z</time>
      </trkpt>
      <trkpt lat="46.311848" lon="6.785754">
        <ele>1254.296</ele>
        <time>2018-07-03T08:30:09Z</time>
      </trkpt>
      <trkpt lat="46.311809" lon="6.785721">
        <ele>1253.171</ele>
        <time>2018-07-03T08:30:15Z</time>
      </trkpt>
      <trkpt lat="46.311771" lon="6.785680">
        <ele>1251.975</ele>
        <time>2018-07-03T08:30:21Z</time>
      </trkpt>
      <trkpt lat="46.311721" lon="6.785683">
        <ele>1251.028</ele>
        <time>2018-07-03T08:30:26Z</time>
      </trkpt>
      <trkpt lat="46.311672" lon="6.785677">
        <ele>1250.020</ele>
        <time>2018-07-03T08:30:32Z</time>
      </trkpt>
      <trkpt lat="46.311622" lon="6.785698">
        <ele>1249.208</ele>
        <time>2018-07-03T08:30:37Z</time>
      </trkpt>
      <trkpt lat="46.311574" lon="6.785704">
        <ele>1248.489</ele>
        <time>2018-07-03T08:30:42Z</time>
      </trkpt>
      <trkpt lat="46.311527" lon="6.785711">
        <ele>1247.645</ele>
        <time>2018-07-03T08:30:47Z</time>
      </trkpt>
      <trkpt lat="46.311479" lon="6.785726">
        <ele>1246.857</ele>
        <time>2018-07-03T08:30:53Z</time>
      </trkpt>
      <trkpt lat="46.311432" lon="6.785751">
        <ele>1246.223</ele>
        <time>2018-07-03T08:30:59Z</time>
      </trkpt>
      <trkpt lat="46.311381" lon="6.785753">
        <ele>1245.235</ele>
        <time>2018-07-03T08:31:05Z</time>
      </trkpt>
      <trkpt lat="46.311333" lon="6.785770">
        <ele>1244.122</ele>
        <time>2018-07-03T08:31:10Z</time>
      </trkpt>
      <trkpt lat="46.311283" lon="6.785800">
        <ele>1243.168</ele>
        <time>2018-07-03T08:31:17Z</time>
      </trkpt>
      <trkpt lat="46.311232" lon="6.785814">
        <ele>1241.933</ele>
        <time>2018-07-03T08:31:23Z</time>
      </trkpt>
      <trkpt lat="46.311187" lon="6.785839">
        <ele>1240.991</ele>
        <time>2018-07-03T08:31:27Z</time>
      </trkpt>
      <trkpt lat="46.311143" lon="6.785860">
        <ele>1239.981</ele>
        <time>2018-07-03T08:31:31Z</time>
      </trkpt>
      <trkpt lat="46.311090" lon="6.785878">
        <ele>1238.819</ele>
        <time>2018-07-03T08:31:37Z</time>
      </trkpt>
      <trkpt lat="46.311041" lon="6.785898">
        <ele>1238.008</ele>
        <time>2018-07-03T08:31:42Z</time>
      </trkpt>
      <trkpt lat="46.310991" lon="6.785919">
        <ele>1237.341</ele>
        <time>2018-07-03T08:31:47Z</time>
      </trkpt>
      <trkpt lat="46.310969" lon="6.785852">
        <ele>1236.577</ele>
        <time>2018-07-03T08:32:07Z</time>
      </trkpt>
      <trkpt lat="46.310939" lon="6.785786">
        <ele>1235.649</ele>
        <time>2018-07-03T08:33:03Z</time>
      </trkpt>
      <trkpt lat="46.310889" lon="6.785771">
        <ele>1234.675</ele>
        <time>2018-07-03T08:33:11Z</time>
      </trkpt>
      <trkpt lat="46.310844" lon="6.785773">
        <ele>1233.877</ele>
        <time>2018-07-03T08:33:17Z</time>
      </trkpt>
      <trkpt lat="46.310796" lon="6.785770">
        <ele>1232.624</ele>
        <time>2018-07-03T08:33:21Z</time>
      </trkpt>
      <trkpt lat="46.310749" lon="6.785786">
        <ele>1231.440</ele>
        <time>2018-07-03T08:33:26Z</time>
      </trkpt>
      <trkpt lat="46.310707" lon="6.785823">
        <ele>1230.395</ele>
        <time>2018-07-03T08:33:32Z</time>
      </trkpt>
      <trkpt lat="46.310660" lon="6.785843">
        <ele>1229.034</ele>
        <time>2018-07-03T08:33:36Z</time>
      </trkpt>
      <trkpt lat="46.310609" lon="6.785867">
        <ele>1227.655</ele>
        <time>2018-07-03T08:33:40Z</time>
      </trkpt>
      <trkpt lat="46.310559" lon="6.785892">
        <ele>1226.110</ele>
        <time>2018-07-03T08:33:44Z</time>
      </trkpt>
      <trkpt lat="46.310511" lon="6.785924">
        <ele>1225.208</ele>
        <time>2018-07-03T08:33:48Z</time>
      </trkpt>
      <trkpt lat="46.310459" lon="6.785957">
        <ele>1224.445</ele>
        <time>2018-07-03T08:33:56Z</time>
      </trkpt>
      <trkpt lat="46.310412" lon="6.785961">
        <ele>1223.761</ele>
        <time>2018-07-03T08:34:04Z</time>
      </trkpt>
      <trkpt lat="46.310366" lon="6.785953">
        <ele>1222.933</ele>
        <time>2018-07-03T08:34:11Z</time>
      </trkpt>
      <trkpt lat="46.310321" lon="6.785942">
        <ele>1222.189</ele>
        <time>2018-07-03T08:34:16Z</time>
      </trkpt>
      <trkpt lat="46.310275" lon="6.785932">
        <ele>1221.391</ele>
        <time>2018-07-03T08:34:21Z</time>
      </trkpt>
      <trkpt lat="46.310226" lon="6.785914">
        <ele>1220.518</ele>
        <time>2018-07-03T08:34:28Z</time>
      </trkpt>
      <trkpt lat="46.310185" lon="6.785883">
        <ele>1219.884</ele>
        <time>2018-07-03T08:34:33Z</time>
      </trkpt>
      <trkpt lat="46.310132" lon="6.785868">
        <ele>1219.099</ele>
        <time>2018-07-03T08:34:38Z</time>
      </trkpt>
      <trkpt lat="46.310079" lon="6.785860">
        <ele>1218.235</ele>
        <time>2018-07-03T08:34:43Z</time>
      </trkpt>
      <trkpt lat="46.310033" lon="6.785858">
        <ele>1217.686</ele>
        <time>2018-07-03T08:34:48Z</time>
      </trkpt>
      <trkpt lat="46.309984" lon="6.785864">
        <ele>1216.814</ele>
        <time>2018-07-03T08:34:53Z</time>
      </trkpt>
      <trkpt lat="46.309942" lon="6.785834">
        <ele>1216.008</ele>
        <time>2018-07-03T08:35:34Z</time>
      </trkpt>
      <trkpt lat="46.309946" lon="6.785755">
        <ele>1216.015</ele>
        <time>2018-07-03T08:35:39Z</time>
      </trkpt>
      <trkpt lat="46.309963" lon="6.785686">
        <ele>1216.331</ele>
        <time>2018-07-03T08:35:43Z</time>
      </trkpt>
      <trkpt lat="46.309975" lon="6.785619">
        <ele>1216.593</ele>
        <time>2018-07-03T08:35:47Z</time>
      </trkpt>
      <trkpt lat="46.309964" lon="6.785550">
        <ele>1216.259</ele>
        <time>2018-07-03T08:35:51Z</time>
      </trkpt>
      <trkpt lat="46.309973" lon="6.785463">
        <ele>1216.581</ele>
        <time>2018-07-03T08:36:26Z</time>
      </trkpt>
      <trkpt lat="46.309966" lon="6.785398">
        <ele>1216.518</ele>
        <time>2018-07-03T08:36:34Z</time>
      </trkpt>
      <trkpt lat="46.309959" lon="6.785325">
        <ele>1216.524</ele>
        <time>2018-07-03T08:36:39Z</time>
      </trkpt>
      <trkpt lat="46.309963" lon="6.785245">
        <ele>1216.929</ele>
        <time>2018-07-03T08:36:54Z</time>
      </trkpt>
      <trkpt lat="46.309960" lon="6.785179">
        <ele>1217.538</ele>
        <time>2018-07-03T08:36:59Z</time>
      </trkpt>
      <trkpt lat="46.309960" lon="6.785102">
        <ele>1218.270</ele>
        <time>2018-07-03T08:37:06Z</time>
      </trkpt>
      <trkpt lat="46.309958" lon="6.785033">
        <ele>1218.817</ele>
        <time>2018-07-03T08:37:12Z</time>
      </trkpt>
      <trkpt lat="46.309905" lon="6.785021">
        <ele>1219.108</ele>
        <time>2018-07-03T08:37:20Z</time>
      </trkpt>
      <trkpt lat="46.309858" lon="6.785020">
        <ele>1219.225</ele>
        <time>2018-07-03T08:37:31Z</time>
      </trkpt>
      <trkpt lat="46.309826" lon="6.785072">
        <ele>1218.521</ele>
        <time>2018-07-03T08:37:37Z</time>
      </trkpt>
      <trkpt lat="46.309822" lon="6.785141">
        <ele>1217.313</ele>
        <time>2018-07-03T08:38:23Z</time>
      </trkpt>
      <trkpt lat="46.309771" lon="6.785165">
        <ele>1216.759</ele>
        <time>2018-07-03T08:38:28Z</time>
      </trkpt>
      <trkpt lat="46.309738" lon="6.785231">
        <ele>1215.141</ele>
        <time>2018-07-03T08:38:33Z</time>
      </trkpt>
      <trkpt lat="46.309707" lon="6.785305">
        <ele>1213.828</ele>
        <time>2018-07-03T08:38:37Z</time>
      </trkpt>
      <trkpt lat="46.309668" lon="6.785347">
        <ele>1213.674</ele>
        <time>2018-07-03T08:38:41Z</time>
      </trkpt>
      <trkpt lat="46.309625" lon="6.785392">
        <ele>1213.219</ele>
        <time>2018-07-03T08:38:46Z</time>
      </trkpt>
      <trkpt lat="46.309573" lon="6.785405">
        <ele>1213.352</ele>
        <time>2018-07-03T08:38:52Z</time>
      </trkpt>
      <trkpt lat="46.309527" lon="6.785442">
        <ele>1212.753</ele>
        <time>2018-07-03T08:38:58Z</time>
      </trkpt>
      <trkpt lat="46.309490" lon="6.785493">
        <ele>1211.608</ele>
        <time>2018-07-03T08:39:02Z</time>
      </trkpt>
      <trkpt lat="46.309457" lon="6.785540">
        <ele>1210.408</ele>
        <time>2018-07-03T08:39:07Z</time>
      </trkpt>
      <trkpt lat="46.309422" lon="6.785593">
        <ele>1209.937</ele>
        <time>2018-07-03T08:39:11Z</time>
      </trkpt>
      <trkpt lat="46.309384" lon="6.785634">
        <ele>1209.833</ele>
        <time>2018-07-03T08:39:15Z</time>
      </trkpt>
      <trkpt lat="46.309349" lon="6.785677">
        <ele>1209.425</ele>
        <time>2018-07-03T08:39:19Z</time>
      </trkpt>
      <trkpt lat="46.309319" lon="6.785739">
        <ele>1208.511</ele>
        <time>2018-07-03T08:39:24Z</time>
      </trkpt>
      <trkpt lat="46.309283" lon="6.785796">
        <ele>1207.563</ele>
        <time>2018-07-03T08:39:29Z</time>
      </trkpt>
      <trkpt lat="46.309244" lon="6.785849">
        <ele>1206.320</ele>
        <time>2018-07-03T08:39:35Z</time>
      </trkpt>
      <trkpt lat="46.309200" lon="6.785881">
        <ele>1205.516</ele>
        <time>2018-07-03T08:39:40Z</time>
      </trkpt>
      <trkpt lat="46.309156" lon="6.785912">
        <ele>1204.741</ele>
        <time>2018-07-03T08:39:46Z</time>
      </trkpt>
      <trkpt lat="46.309115" lon="6.785944">
        <ele>1204.311</ele>
        <time>2018-07-03T08:39:51Z</time>
      </trkpt>
      <trkpt lat="46.309078" lon="6.785995">
        <ele>1203.221</ele>
        <time>2018-07-03T08:39:57Z</time>
      </trkpt>
      <trkpt lat="46.309066" lon="6.786066">
        <ele>1201.203</ele>
        <time>2018-07-03T08:40:11Z</time>
      </trkpt>
      <trkpt lat="46.309059" lon="6.786134">
        <ele>1199.508</ele>
        <time>2018-07-03T08:40:22Z</time>
      </trkpt>
      <trkpt lat="46.309017" lon="6.786176">
        <ele>1198.443</ele>
        <time>2018-07-03T08:40:30Z</time>
      </trkpt>
      <trkpt lat="46.308989" lon="6.786231">
        <ele>1197.129</ele>
        <time>2018-07-03T08:40:36Z</time>
      </trkpt>
      <trkpt lat="46.308958" lon="6.786283">
        <ele>1195.641</ele>
        <time>2018-07-03T08:40:43Z</time>
      </trkpt>
      <trkpt lat="46.308915" lon="6.786329">
        <ele>1193.987</ele>
        <time>2018-07-03T08:40:50Z</time>
      </trkpt>
      <trkpt lat="46.308866" lon="6.786382">
        <ele>1192.129</ele>
        <time>2018-07-03T08:41:03Z</time>
      </trkpt>
      <trkpt lat="46.308832" lon="6.786439">
        <ele>1191.336</ele>
        <time>2018-07-03T08:41:12Z</time>
      </trkpt>
      <trkpt lat="46.308793" lon="6.786484">
        <ele>1190.672</ele>
        <time>2018-07-03T08:41:18Z</time>
      </trkpt>
      <trkpt lat="46.308763" lon="6.786535">
        <ele>1189.817</ele>
        <time>2018-07-03T08:41:22Z</time>
      </trkpt>
      <trkpt lat="46.308727" lon="6.786588">
        <ele>1188.774</ele>
        <time>2018-07-03T08:41:27Z</time>
      </trkpt>
      <trkpt lat="46.308690" lon="6.786630">
        <ele>1187.756</ele>
        <time>2018-07-03T08:41:32Z</time>
      </trkpt>
      <trkpt lat="46.308649" lon="6.786685">
        <ele>1186.421</ele>
        <time>2018-07-03T08:41:37Z</time>
      </trkpt>
      <trkpt lat="46.308602" lon="6.786728">
        <ele>1185.308</ele>
        <time>2018-07-03T08:41:41Z</time>
      </trkpt>
      <trkpt lat="46.308564" lon="6.786772">
        <ele>1184.869</ele>
        <time>2018-07-03T08:41:45Z</time>
      </trkpt>
      <trkpt lat="46.308534" lon="6.786821">
        <ele>1184.115</ele>
        <time>2018-07-03T08:41:51Z</time>
      </trkpt>
      <trkpt lat="46.308506" lon="6.786885">
        <ele>1183.157</ele>
        <time>2018-07-03T08:41:57Z</time>
      </trkpt>
      <trkpt lat="46.308466" lon="6.786934">
        <ele>1182.143</ele>
        <time>2018-07-03T08:42:02Z</time>
      </trkpt>
      <trkpt lat="46.308423" lon="6.786974">
        <ele>1181.795</ele>
        <time>2018-07-03T08:42:09Z</time>
      </trkpt>
      <trkpt lat="46.308379" lon="6.787011">
        <ele>1181.252</ele>
        <time>2018-07-03T08:42:15Z</time>
      </trkpt>
      <trkpt lat="46.308333" lon="6.787033">
        <ele>1180.768</ele>
        <time>2018-07-03T08:42:19Z</time>
      </trkpt>
      <trkpt lat="46.308281" lon="6.787044">
        <ele>1180.983</ele>
        <time>2018-07-03T08:42:23Z</time>
      </trkpt>
      <trkpt lat="46.308232" lon="6.787057">
        <ele>1181.159</ele>
        <time>2018-07-03T08:42:27Z</time>
      </trkpt>
      <trkpt lat="46.308184" lon="6.787091">
        <ele>1181.003</ele>
        <time>2018-07-03T08:42:32Z</time>
      </trkpt>
      <trkpt lat="46.308145" lon="6.787137">
        <ele>1180.523</ele>
        <time>2018-07-03T08:42:41Z</time>
      </trkpt>
      <trkpt lat="46.308107" lon="6.787190">
        <ele>1179.708</ele>
        <time>2018-07-03T08:42:46Z</time>
      </trkpt>
      <trkpt lat="46.308079" lon="6.787254">
        <ele>1178.957</ele>
        <time>2018-07-03T08:42:51Z</time>
      </trkpt>
      <trkpt lat="46.308051" lon="6.787311">
        <ele>1178.383</ele>
        <time>2018-07-03T08:42:56Z</time>
      </trkpt>
      <trkpt lat="46.308021" lon="6.787375">
        <ele>1177.695</ele>
        <time>2018-07-03T08:43:01Z</time>
      </trkpt>
      <trkpt lat="46.307993" lon="6.787429">
        <ele>1176.741</ele>
        <time>2018-07-03T08:43:05Z</time>
      </trkpt>
      <trkpt lat="46.307977" lon="6.787499">
        <ele>1175.653</ele>
        <time>2018-07-03T08:43:10Z</time>
      </trkpt>
      <trkpt lat="46.307944" lon="6.787557">
        <ele>1175.050</ele>
        <time>2018-07-03T08:43:15Z</time>
      </trkpt>
      <trkpt lat="46.307909" lon="6.787612">
        <ele>1174.186</ele>
        <time>2018-07-03T08:43:20Z</time>
      </trkpt>
      <trkpt lat="46.307866" lon="6.787642">
        <ele>1173.121</ele>
        <time>2018-07-03T08:43:25Z</time>
      </trkpt>
      <trkpt lat="46.307815" lon="6.787639">
        <ele>1171.983</ele>
        <time>2018-07-03T08:43:30Z</time>
      </trkpt>
      <trkpt lat="46.307764" lon="6.787648">
        <ele>1171.025</ele>
        <time>2018-07-03T08:43:35Z</time>
      </trkpt>
      <trkpt lat="46.307714" lon="6.787664">
        <ele>1170.917</ele>
        <time>2018-07-03T08:43:39Z</time>
      </trkpt>
      <trkpt lat="46.307670" lon="6.787688">
        <ele>1170.808</ele>
        <time>2018-07-03T08:43:43Z</time>
      </trkpt>
      <trkpt lat="46.307619" lon="6.787712">
        <ele>1170.670</ele>
        <time>2018-07-03T08:43:48Z</time>
      </trkpt>
      <trkpt lat="46.307572" lon="6.787734">
        <ele>1170.456</ele>
        <time>2018-07-03T08:43:53Z</time>
      </trkpt>
      <trkpt lat="46.307525" lon="6.787757">
        <ele>1170.238</ele>
        <time>2018-07-03T08:43:58Z</time>
      </trkpt>
      <trkpt lat="46.307478" lon="6.787775">
        <ele>1169.834</ele>
        <time>2018-07-03T08:44:02Z</time>
      </trkpt>
      <trkpt lat="46.307427" lon="6.787779">
        <ele>1169.276</ele>
        <time>2018-07-03T08:44:07Z</time>
      </trkpt>
      <trkpt lat="46.307380" lon="6.787785">
        <ele>1168.793</ele>
        <time>2018-07-03T08:44:11Z</time>
      </trkpt>
      <trkpt lat="46.307330" lon="6.787776">
        <ele>1168.289</ele>
        <time>2018-07-03T08:44:15Z</time>
      </trkpt>
      <trkpt lat="46.307272" lon="6.787786">
        <ele>1167.574</ele>
        <time>2018-07-03T08:44:19Z</time>
      </trkpt>
      <trkpt lat="46.307216" lon="6.787797">
        <ele>1166.883</ele>
        <time>2018-07-03T08:44:23Z</time>
      </trkpt>
      <trkpt lat="46.307174" lon="6.787819">
        <ele>1166.125</ele>
        <time>2018-07-03T08:44:26Z</time>
      </trkpt>
      <trkpt lat="46.307127" lon="6.787849">
        <ele>1165.317</ele>
        <time>2018-07-03T08:44:29Z</time>
      </trkpt>
      <trkpt lat="46.307076" lon="6.787874">
        <ele>1164.408</ele>
        <time>2018-07-03T08:44:32Z</time>
      </trkpt>
      <trkpt lat="46.307021" lon="6.787897">
        <ele>1163.350</ele>
        <time>2018-07-03T08:44:36Z</time>
      </trkpt>
      <trkpt lat="46.306969" lon="6.787915">
        <ele>1162.476</ele>
        <time>2018-07-03T08:44:40Z</time>
      </trkpt>
      <trkpt lat="46.306921" lon="6.787935">
        <ele>1161.838</ele>
        <time>2018-07-03T08:44:44Z</time>
      </trkpt>
      <trkpt lat="46.306877" lon="6.787952">
        <ele>1161.644</ele>
        <time>2018-07-03T08:44:47Z</time>
      </trkpt>
      <trkpt lat="46.306830" lon="6.787966">
        <ele>1161.426</ele>
        <time>2018-07-03T08:44:51Z</time>
      </trkpt>
      <trkpt lat="46.306784" lon="6.787978">
        <ele>1161.353</ele>
        <time>2018-07-03T08:44:55Z</time>
      </trkpt>
      <trkpt lat="46.306738" lon="6.788001">
        <ele>1160.949</ele>
        <time>2018-07-03T08:44:59Z</time>
      </trkpt>
      <trkpt lat="46.306695" lon="6.788021">
        <ele>1160.674</ele>
        <time>2018-07-03T08:45:03Z</time>
      </trkpt>
      <trkpt lat="46.306642" lon="6.788042">
        <ele>1160.349</ele>
        <time>2018-07-03T08:45:08Z</time>
      </trkpt>
      <trkpt lat="46.306588" lon="6.788056">
        <ele>1160.002</ele>
        <time>2018-07-03T08:45:13Z</time>
      </trkpt>
      <trkpt lat="46.306541" lon="6.788070">
        <ele>1160.022</ele>
        <time>2018-07-03T08:45:17Z</time>
      </trkpt>
      <trkpt lat="46.306495" lon="6.788082">
        <ele>1159.908</ele>
        <time>2018-07-03T08:45:21Z</time>
      </trkpt>
      <trkpt lat="46.306439" lon="6.788077">
        <ele>1159.986</ele>
        <time>2018-07-03T08:45:26Z</time>
      </trkpt>
      <trkpt lat="46.306390" lon="6.788101">
        <ele>1159.872</ele>
        <time>2018-07-03T08:45:29Z</time>
      </trkpt>
      <trkpt lat="46.306342" lon="6.788142">
        <ele>1159.554</ele>
        <time>2018-07-03T08:45:32Z</time>
      </trkpt>
      <trkpt lat="46.306307" lon="6.788190">
        <ele>1158.970</ele>
        <time>2018-07-03T08:45:35Z</time>
      </trkpt>
      <trkpt lat="46.306264" lon="6.788225">
        <ele>1158.382</ele>
        <time>2018-07-03T08:45:39Z</time>
      </trkpt>
      <trkpt lat="46.306216" lon="6.788259">
        <ele>1157.499</ele>
        <time>2018-07-03T08:45:47Z</time>
      </trkpt>
      <trkpt lat="46.306169" lon="6.788268">
        <ele>1156.845</ele>
        <time>2018-07-03T08:45:52Z</time>
      </trkpt>
      <trkpt lat="46.306119" lon="6.788284">
        <ele>1156.040</ele>
        <time>2018-07-03T08:45:59Z</time>
      </trkpt>
      <trkpt lat="46.306070" lon="6.788297">
        <ele>1155.649</ele>
        <time>2018-07-03T08:46:03Z</time>
      </trkpt>
      <trkpt lat="46.306022" lon="6.788333">
        <ele>1154.702</ele>
        <time>2018-07-03T08:46:07Z</time>
      </trkpt>
      <trkpt lat="46.305982" lon="6.788382">
        <ele>1154.022</ele>
        <time>2018-07-03T08:46:12Z</time>
      </trkpt>
      <trkpt lat="46.305945" lon="6.788433">
        <ele>1153.308</ele>
        <time>2018-07-03T08:46:17Z</time>
      </trkpt>
      <trkpt lat="46.305911" lon="6.788483">
        <ele>1152.476</ele>
        <time>2018-07-03T08:46:21Z</time>
      </trkpt>
      <trkpt lat="46.305878" lon="6.788529">
        <ele>1151.662</ele>
        <time>2018-07-03T08:46:26Z</time>
      </trkpt>
      <trkpt lat="46.305853" lon="6.788588">
        <ele>1150.564</ele>
        <time>2018-07-03T08:46:33Z</time>
      </trkpt>
      <trkpt lat="46.305811" lon="6.788615">
        <ele>1150.290</ele>
        <time>2018-07-03T08:46:37Z</time>
      </trkpt>
      <trkpt lat="46.305772" lon="6.788662">
        <ele>1150.422</ele>
        <time>2018-07-03T08:46:42Z</time>
      </trkpt>
      <trkpt lat="46.305737" lon="6.788710">
        <ele>1150.419</ele>
        <time>2018-07-03T08:46:47Z</time>
      </trkpt>
      <trkpt lat="46.305698" lon="6.788757">
        <ele>1150.515</ele>
        <time>2018-07-03T08:46:52Z</time>
      </trkpt>
      <trkpt lat="46.305659" lon="6.788811">
        <ele>1150.480</ele>
        <time>2018-07-03T08:46:57Z</time>
      </trkpt>
      <trkpt lat="46.305623" lon="6.788854">
        <ele>1150.226</ele>
        <time>2018-07-03T08:47:02Z</time>
      </trkpt>
      <trkpt lat="46.305585" lon="6.788895">
        <ele>1150.047</ele>
        <time>2018-07-03T08:47:07Z</time>
      </trkpt>
      <trkpt lat="46.305542" lon="6.788929">
        <ele>1150.011</ele>
        <time>2018-07-03T08:47:12Z</time>
      </trkpt>
      <trkpt lat="46.305498" lon="6.788969">
        <ele>1150.008</ele>
        <time>2018-07-03T08:47:17Z</time>
      </trkpt>
      <trkpt lat="46.305451" lon="6.788995">
        <ele>1150.034</ele>
        <time>2018-07-03T08:47:21Z</time>
      </trkpt>
      <trkpt lat="46.305399" lon="6.789020">
        <ele>1150.030</ele>
        <time>2018-07-03T08:47:25Z</time>
      </trkpt>
      <trkpt lat="46.305347" lon="6.789029">
        <ele>1150.092</ele>
        <time>2018-07-03T08:47:29Z</time>
      </trkpt>
      <trkpt lat="46.305294" lon="6.789036">
        <ele>1150.058</ele>
        <time>2018-07-03T08:47:33Z</time>
      </trkpt>
      <trkpt lat="46.305243" lon="6.789032">
        <ele>1149.990</ele>
        <time>2018-07-03T08:47:37Z</time>
      </trkpt>
      <trkpt lat="46.305193" lon="6.789015">
        <ele>1149.717</ele>
        <time>2018-07-03T08:47:41Z</time>
      </trkpt>
      <trkpt lat="46.305143" lon="6.789007">
        <ele>1149.573</ele>
        <time>2018-07-03T08:47:45Z</time>
      </trkpt>
      <trkpt lat="46.305090" lon="6.789013">
        <ele>1149.358</ele>
        <time>2018-07-03T08:47:49Z</time>
      </trkpt>
      <trkpt lat="46.305038" lon="6.789015">
        <ele>1149.156</ele>
        <time>2018-07-03T08:47:53Z</time>
      </trkpt>
      <trkpt lat="46.304991" lon="6.789020">
        <ele>1148.959</ele>
        <time>2018-07-03T08:47:57Z</time>
      </trkpt>
      <trkpt lat="46.304938" lon="6.789025">
        <ele>1148.314</ele>
        <time>2018-07-03T08:48:01Z</time>
      </trkpt>
      <trkpt lat="46.304885" lon="6.789020">
        <ele>1147.808</ele>
        <time>2018-07-03T08:48:05Z</time>
      </trkpt>
      <trkpt lat="46.304836" lon="6.789009">
        <ele>1147.357</ele>
        <time>2018-07-03T08:48:09Z</time>
      </trkpt>
      <trkpt lat="46.304781" lon="6.789001">
        <ele>1146.863</ele>
        <time>2018-07-03T08:48:13Z</time>
      </trkpt>
      <trkpt lat="46.304728" lon="6.789000">
        <ele>1146.345</ele>
        <time>2018-07-03T08:48:17Z</time>
      </trkpt>
      <trkpt lat="46.304682" lon="6.789008">
        <ele>1145.581</ele>
        <time>2018-07-03T08:48:21Z</time>
      </trkpt>
      <trkpt lat="46.304626" lon="6.789018">
        <ele>1144.543</ele>
        <time>2018-07-03T08:48:26Z</time>
      </trkpt>
      <trkpt lat="46.304578" lon="6.789020">
        <ele>1143.850</ele>
        <time>2018-07-03T08:48:30Z</time>
      </trkpt>
      <trkpt lat="46.304531" lon="6.789017">
        <ele>1143.136</ele>
        <time>2018-07-03T08:48:34Z</time>
      </trkpt>
      <trkpt lat="46.304478" lon="6.789018">
        <ele>1142.211</ele>
        <time>2018-07-03T08:48:38Z</time>
      </trkpt>
      <trkpt lat="46.304425" lon="6.789025">
        <ele>1141.415</ele>
        <time>2018-07-03T08:48:42Z</time>
      </trkpt>
      <trkpt lat="46.304376" lon="6.789048">
        <ele>1140.765</ele>
        <time>2018-07-03T08:48:46Z</time>
      </trkpt>
      <trkpt lat="46.304334" lon="6.789078">
        <ele>1139.811</ele>
        <time>2018-07-03T08:48:50Z</time>
      </trkpt>
      <trkpt lat="46.304290" lon="6.789106">
        <ele>1138.808</ele>
        <time>2018-07-03T08:48:54Z</time>
      </trkpt>
      <trkpt lat="46.304242" lon="6.789143">
        <ele>1137.413</ele>
        <time>2018-07-03T08:48:59Z</time>
      </trkpt>
      <trkpt lat="46.304206" lon="6.789191">
        <ele>1136.289</ele>
        <time>2018-07-03T08:49:43Z</time>
      </trkpt>
      <trkpt lat="46.304164" lon="6.789226">
        <ele>1135.381</ele>
        <time>2018-07-03T08:49:56Z</time>
      </trkpt>
      <trkpt lat="46.304217" lon="6.789199">
        <ele>1136.227</ele>
        <time>2018-07-03T08:50:08Z</time>
      </trkpt>
      <trkpt lat="46.304172" lon="6.789199">
        <ele>1135.749</ele>
        <time>2018-07-03T08:50:23Z</time>
      </trkpt>
      <trkpt lat="46.304130" lon="6.789221">
        <ele>1134.936</ele>
        <time>2018-07-03T08:50:27Z</time>
      </trkpt>
      <trkpt lat="46.304079" lon="6.789251">
        <ele>1133.872</ele>
        <time>2018-07-03T08:50:31Z</time>
      </trkpt>
      <trkpt lat="46.304030" lon="6.789288">
        <ele>1132.757</ele>
        <time>2018-07-03T08:50:35Z</time>
      </trkpt>
      <trkpt lat="46.303985" lon="6.789321">
        <ele>1131.753</ele>
        <time>2018-07-03T08:50:39Z</time>
      </trkpt>
      <trkpt lat="46.303936" lon="6.789354">
        <ele>1130.704</ele>
        <time>2018-07-03T08:50:44Z</time>
      </trkpt>
      <trkpt lat="46.303891" lon="6.789381">
        <ele>1129.714</ele>
        <time>2018-07-03T08:50:48Z</time>
      </trkpt>
      <trkpt lat="46.303846" lon="6.789393">
        <ele>1128.708</ele>
        <time>2018-07-03T08:50:53Z</time>
      </trkpt>
      <trkpt lat="46.303800" lon="6.789404">
        <ele>1127.727</ele>
        <time>2018-07-03T08:50:57Z</time>
      </trkpt>
      <trkpt lat="46.303749" lon="6.789424">
        <ele>1126.323</ele>
        <time>2018-07-03T08:51:01Z</time>
      </trkpt>
      <trkpt lat="46.303694" lon="6.789436">
        <ele>1125.065</ele>
        <time>2018-07-03T08:51:06Z</time>
      </trkpt>
      <trkpt lat="46.303649" lon="6.789442">
        <ele>1123.941</ele>
        <time>2018-07-03T08:51:11Z</time>
      </trkpt>
      <trkpt lat="46.303599" lon="6.789430">
        <ele>1123.233</ele>
        <time>2018-07-03T08:51:17Z</time>
      </trkpt>
      <trkpt lat="46.303554" lon="6.789416">
        <ele>1123.140</ele>
        <time>2018-07-03T08:51:22Z</time>
      </trkpt>
      <trkpt lat="46.303507" lon="6.789422">
        <ele>1122.426</ele>
        <time>2018-07-03T08:51:27Z</time>
      </trkpt>
      <trkpt lat="46.303460" lon="6.789450">
        <ele>1121.411</ele>
        <time>2018-07-03T08:51:32Z</time>
      </trkpt>
      <trkpt lat="46.303405" lon="6.789460">
        <ele>1120.812</ele>
        <time>2018-07-03T08:51:37Z</time>
      </trkpt>
      <trkpt lat="46.303358" lon="6.789446">
        <ele>1120.332</ele>
        <time>2018-07-03T08:51:41Z</time>
      </trkpt>
      <trkpt lat="46.303314" lon="6.789430">
        <ele>1120.105</ele>
        <time>2018-07-03T08:51:45Z</time>
      </trkpt>
      <trkpt lat="46.303268" lon="6.789419">
        <ele>1119.908</ele>
        <time>2018-07-03T08:51:49Z</time>
      </trkpt>
      <trkpt lat="46.303224" lon="6.789403">
        <ele>1119.873</ele>
        <time>2018-07-03T08:51:53Z</time>
      </trkpt>
      <trkpt lat="46.303174" lon="6.789406">
        <ele>1119.339</ele>
        <time>2018-07-03T08:52:05Z</time>
      </trkpt>
      <trkpt lat="46.303160" lon="6.789336">
        <ele>1120.061</ele>
        <time>2018-07-03T08:52:16Z</time>
      </trkpt>
      <trkpt lat="46.303126" lon="6.789284">
        <ele>1120.127</ele>
        <time>2018-07-03T08:52:24Z</time>
      </trkpt>
      <trkpt lat="46.303085" lon="6.789253">
        <ele>1119.819</ele>
        <time>2018-07-03T08:52:29Z</time>
      </trkpt>
      <trkpt lat="46.303038" lon="6.789247">
        <ele>1119.256</ele>
        <time>2018-07-03T08:52:33Z</time>
      </trkpt>
      <trkpt lat="46.302983" lon="6.789248">
        <ele>1118.412</ele>
        <time>2018-07-03T08:52:38Z</time>
      </trkpt>
      <trkpt lat="46.302928" lon="6.789247">
        <ele>1117.677</ele>
        <time>2018-07-03T08:52:43Z</time>
      </trkpt>
      <trkpt lat="46.302881" lon="6.789246">
        <ele>1117.036</ele>
        <time>2018-07-03T08:52:47Z</time>
      </trkpt>
      <trkpt lat="46.302826" lon="6.789251">
        <ele>1116.217</ele>
        <time>2018-07-03T08:52:52Z</time>
      </trkpt>
      <trkpt lat="46.302773" lon="6.789276">
        <ele>1115.018</ele>
        <time>2018-07-03T08:52:57Z</time>
      </trkpt>
      <trkpt lat="46.302722" lon="6.789287">
        <ele>1114.408</ele>
        <time>2018-07-03T08:53:01Z</time>
      </trkpt>
      <trkpt lat="46.302673" lon="6.789309">
        <ele>1113.735</ele>
        <time>2018-07-03T08:53:06Z</time>
      </trkpt>
      <trkpt lat="46.302628" lon="6.789329">
        <ele>1113.071</ele>
        <time>2018-07-03T08:53:10Z</time>
      </trkpt>
      <trkpt lat="46.302582" lon="6.789350">
        <ele>1112.313</ele>
        <time>2018-07-03T08:53:14Z</time>
      </trkpt>
      <trkpt lat="46.302530" lon="6.789370">
        <ele>1111.699</ele>
        <time>2018-07-03T08:53:19Z</time>
      </trkpt>
      <trkpt lat="46.302484" lon="6.789387">
        <ele>1111.061</ele>
        <time>2018-07-03T08:53:23Z</time>
      </trkpt>
      <trkpt lat="46.302437" lon="6.789404">
        <ele>1110.538</ele>
        <time>2018-07-03T08:53:27Z</time>
      </trkpt>
      <trkpt lat="46.302387" lon="6.789429">
        <ele>1109.924</ele>
        <time>2018-07-03T08:53:31Z</time>
      </trkpt>
      <trkpt lat="46.302335" lon="6.789449">
        <ele>1109.479</ele>
        <time>2018-07-03T08:53:36Z</time>
      </trkpt>
      <trkpt lat="46.302287" lon="6.789453">
        <ele>1109.391</ele>
        <time>2018-07-03T08:53:41Z</time>
      </trkpt>
      <trkpt lat="46.302241" lon="6.789461">
        <ele>1109.181</ele>
        <time>2018-07-03T08:53:45Z</time>
      </trkpt>
      <trkpt lat="46.302194" lon="6.789465">
        <ele>1108.519</ele>
        <time>2018-07-03T08:53:49Z</time>
      </trkpt>
      <trkpt lat="46.302139" lon="6.789476">
        <ele>1107.308</ele>
        <time>2018-07-03T08:53:53Z</time>
      </trkpt>
      <trkpt lat="46.302083" lon="6.789471">
        <ele>1106.031</ele>
        <time>2018-07-03T08:53:58Z</time>
      </trkpt>
      <trkpt lat="46.302035" lon="6.789460">
        <ele>1105.047</ele>
        <time>2018-07-03T08:54:03Z</time>
      </trkpt>
      <trkpt lat="46.301990" lon="6.789460">
        <ele>1104.059</ele>
        <time>2018-07-03T08:54:07Z</time>
      </trkpt>
      <trkpt lat="46.301938" lon="6.789470">
        <ele>1102.925</ele>
        <time>2018-07-03T08:54:11Z</time>
      </trkpt>
      <trkpt lat="46.301887" lon="6.789483">
        <ele>1102.357</ele>
        <time>2018-07-03T08:54:15Z</time>
      </trkpt>
      <trkpt lat="46.301835" lon="6.789491">
        <ele>1101.684</ele>
        <time>2018-07-03T08:54:20Z</time>
      </trkpt>
      <trkpt lat="46.301781" lon="6.789514">
        <ele>1100.880</ele>
        <time>2018-07-03T08:54:24Z</time>
      </trkpt>
      <trkpt lat="46.301732" lon="6.789535">
        <ele>1100.035</ele>
        <time>2018-07-03T08:54:28Z</time>
      </trkpt>
      <trkpt lat="46.301682" lon="6.789541">
        <ele>1099.211</ele>
        <time>2018-07-03T08:54:34Z</time>
      </trkpt>
      <trkpt lat="46.301632" lon="6.789551">
        <ele>1098.621</ele>
        <time>2018-07-03T08:54:39Z</time>
      </trkpt>
      <trkpt lat="46.301575" lon="6.789570">
        <ele>1097.703</ele>
        <time>2018-07-03T08:54:44Z</time>
      </trkpt>
      <trkpt lat="46.301521" lon="6.789591">
        <ele>1096.808</ele>
        <time>2018-07-03T08:54:49Z</time>
      </trkpt>
      <trkpt lat="46.301474" lon="6.789609">
        <ele>1095.873</ele>
        <time>2018-07-03T08:54:54Z</time>
      </trkpt>
      <trkpt lat="46.301427" lon="6.789632">
        <ele>1094.569</ele>
        <time>2018-07-03T08:54:59Z</time>
      </trkpt>
      <trkpt lat="46.301382" lon="6.789656">
        <ele>1093.211</ele>
        <time>2018-07-03T08:55:03Z</time>
      </trkpt>
      <trkpt lat="46.301337" lon="6.789688">
        <ele>1092.167</ele>
        <time>2018-07-03T08:55:08Z</time>
      </trkpt>
      <trkpt lat="46.301287" lon="6.789698">
        <ele>1091.829</ele>
        <time>2018-07-03T08:55:14Z</time>
      </trkpt>
      <trkpt lat="46.301238" lon="6.789738">
        <ele>1091.076</ele>
        <time>2018-07-03T08:55:19Z</time>
      </trkpt>
      <trkpt lat="46.301194" lon="6.789759">
        <ele>1091.042</ele>
        <time>2018-07-03T08:55:26Z</time>
      </trkpt>
      <trkpt lat="46.301150" lon="6.789774">
        <ele>1090.977</ele>
        <time>2018-07-03T08:55:32Z</time>
      </trkpt>
      <trkpt lat="46.301099" lon="6.789794">
        <ele>1090.772</ele>
        <time>2018-07-03T08:55:37Z</time>
      </trkpt>
      <trkpt lat="46.301050" lon="6.789821">
        <ele>1090.413</ele>
        <time>2018-07-03T08:55:42Z</time>
      </trkpt>
      <trkpt lat="46.301005" lon="6.789838">
        <ele>1090.114</ele>
        <time>2018-07-03T08:55:46Z</time>
      </trkpt>
      <trkpt lat="46.300950" lon="6.789859">
        <ele>1089.708</ele>
        <time>2018-07-03T08:55:51Z</time>
      </trkpt>
      <trkpt lat="46.300901" lon="6.789875">
        <ele>1089.219</ele>
        <time>2018-07-03T08:55:55Z</time>
      </trkpt>
      <trkpt lat="46.300848" lon="6.789882">
        <ele>1088.855</ele>
        <time>2018-07-03T08:55:59Z</time>
      </trkpt>
      <trkpt lat="46.300792" lon="6.789897">
        <ele>1087.767</ele>
        <time>2018-07-03T08:56:03Z</time>
      </trkpt>
      <trkpt lat="46.300737" lon="6.789920">
        <ele>1086.263</ele>
        <time>2018-07-03T08:56:07Z</time>
      </trkpt>
      <trkpt lat="46.300686" lon="6.789934">
        <ele>1084.915</ele>
        <time>2018-07-03T08:56:11Z</time>
      </trkpt>
      <trkpt lat="46.300639" lon="6.789945">
        <ele>1083.692</ele>
        <time>2018-07-03T08:56:15Z</time>
      </trkpt>
      <trkpt lat="46.300588" lon="6.789948">
        <ele>1082.418</ele>
        <time>2018-07-03T08:56:19Z</time>
      </trkpt>
      <trkpt lat="46.300541" lon="6.789961">
        <ele>1081.213</ele>
        <time>2018-07-03T08:56:23Z</time>
      </trkpt>
      <trkpt lat="46.300492" lon="6.789966">
        <ele>1081.018</ele>
        <time>2018-07-03T08:56:27Z</time>
      </trkpt>
      <trkpt lat="46.300444" lon="6.789976">
        <ele>1080.698</ele>
        <time>2018-07-03T08:56:31Z</time>
      </trkpt>
      <trkpt lat="46.300399" lon="6.789982">
        <ele>1080.417</ele>
        <time>2018-07-03T08:56:35Z</time>
      </trkpt>
      <trkpt lat="46.300346" lon="6.789991">
        <ele>1080.208</ele>
        <time>2018-07-03T08:56:39Z</time>
      </trkpt>
      <trkpt lat="46.300299" lon="6.790000">
        <ele>1080.093</ele>
        <time>2018-07-03T08:56:43Z</time>
      </trkpt>
      <trkpt lat="46.300253" lon="6.789996">
        <ele>1080.149</ele>
        <time>2018-07-03T08:56:47Z</time>
      </trkpt>
      <trkpt lat="46.300199" lon="6.789993">
        <ele>1080.151</ele>
        <time>2018-07-03T08:56:52Z</time>
      </trkpt>
      <trkpt lat="46.300145" lon="6.789997">
        <ele>1080.017</ele>
        <time>2018-07-03T08:56:57Z</time>
      </trkpt>
      <trkpt lat="46.300092" lon="6.789995">
        <ele>1080.089</ele>
        <time>2018-07-03T08:57:02Z</time>
      </trkpt>
      <trkpt lat="46.300043" lon="6.789976">
        <ele>1080.116</ele>
        <time>2018-07-03T08:57:07Z</time>
      </trkpt>
      <trkpt lat="46.299998" lon="6.789958">
        <ele>1080.122</ele>
        <time>2018-07-03T08:57:11Z</time>
      </trkpt>
      <trkpt lat="46.299950" lon="6.789948">
        <ele>1079.497</ele>
        <time>2018-07-03T08:57:16Z</time>
      </trkpt>
      <trkpt lat="46.299900" lon="6.789936">
        <ele>1078.646</ele>
        <time>2018-07-03T08:57:21Z</time>
      </trkpt>
      <trkpt lat="46.299850" lon="6.789928">
        <ele>1077.888</ele>
        <time>2018-07-03T08:57:26Z</time>
      </trkpt>
      <trkpt lat="46.299798" lon="6.789933">
        <ele>1077.016</ele>
        <time>2018-07-03T08:57:31Z</time>
      </trkpt>
      <trkpt lat="46.299741" lon="6.789941">
        <ele>1075.908</ele>
        <time>2018-07-03T08:57:35Z</time>
      </trkpt>
      <trkpt lat="46.299688" lon="6.789939">
        <ele>1075.196</ele>
        <time>2018-07-03T08:57:39Z</time>
      </trkpt>
      <trkpt lat="46.299635" lon="6.789930">
        <ele>1074.482</ele>
        <time>2018-07-03T08:57:43Z</time>
      </trkpt>
      <trkpt lat="46.299581" lon="6.789919">
        <ele>1073.734</ele>
        <time>2018-07-03T08:57:48Z</time>
      </trkpt>
      <trkpt lat="46.299530" lon="6.789905">
        <ele>1073.030</ele>
        <time>2018-07-03T08:57:53Z</time>
      </trkpt>
      <trkpt lat="46.299485" lon="6.789890">
        <ele>1072.452</ele>
        <time>2018-07-03T08:57:57Z</time>
      </trkpt>
      <trkpt lat="46.299437" lon="6.789874">
        <ele>1071.999</ele>
        <time>2018-07-03T08:58:01Z</time>
      </trkpt>
      <trkpt lat="46.299391" lon="6.789860">
        <ele>1071.935</ele>
        <time>2018-07-03T08:58:05Z</time>
      </trkpt>
      <trkpt lat="46.299346" lon="6.789836">
        <ele>1071.870</ele>
        <time>2018-07-03T08:58:10Z</time>
      </trkpt>
      <trkpt lat="46.299300" lon="6.789826">
        <ele>1071.769</ele>
        <time>2018-07-03T08:58:15Z</time>
      </trkpt>
      <trkpt lat="46.299244" lon="6.789829">
        <ele>1071.504</ele>
        <time>2018-07-03T08:58:19Z</time>
      </trkpt>
      <trkpt lat="46.299187" lon="6.789820">
        <ele>1071.124</ele>
        <time>2018-07-03T08:58:23Z</time>
      </trkpt>
      <trkpt lat="46.299137" lon="6.789797">
        <ele>1070.708</ele>
        <time>2018-07-03T08:58:28Z</time>
      </trkpt>
      <trkpt lat="46.299094" lon="6.789778">
        <ele>1070.248</ele>
        <time>2018-07-03T08:58:32Z</time>
      </trkpt>
      <trkpt lat="46.299050" lon="6.789761">
        <ele>1069.784</ele>
        <time>2018-07-03T08:58:36Z</time>
      </trkpt>
      <trkpt lat="46.298998" lon="6.789746">
        <ele>1069.176</ele>
        <time>2018-07-03T08:58:40Z</time>
      </trkpt>
      <trkpt lat="46.298951" lon="6.789729">
        <ele>1068.612</ele>
        <time>2018-07-03T08:58:44Z</time>
      </trkpt>
      <trkpt lat="46.298906" lon="6.789706">
        <ele>1068.314</ele>
        <time>2018-07-03T08:58:48Z</time>
      </trkpt>
      <trkpt lat="46.298858" lon="6.789697">
        <ele>1067.321</ele>
        <time>2018-07-03T08:58:52Z</time>
      </trkpt>
      <trkpt lat="46.298812" lon="6.789689">
        <ele>1066.127</ele>
        <time>2018-07-03T08:58:56Z</time>
      </trkpt>
      <trkpt lat="46.298770" lon="6.789665">
        <ele>1065.132</ele>
        <time>2018-07-03T08:59:00Z</time>
      </trkpt>
      <trkpt lat="46.298718" lon="6.789658">
        <ele>1063.787</ele>
        <time>2018-07-03T08:59:04Z</time>
      </trkpt>
      <trkpt lat="46.298667" lon="6.789638">
        <ele>1062.542</ele>
        <time>2018-07-03T08:59:09Z</time>
      </trkpt>
      <trkpt lat="46.298624" lon="6.789620">
        <ele>1061.526</ele>
        <time>2018-07-03T08:59:13Z</time>
      </trkpt>
      <trkpt lat="46.298570" lon="6.789603">
        <ele>1060.508</ele>
        <time>2018-07-03T08:59:18Z</time>
      </trkpt>
      <trkpt lat="46.298523" lon="6.789588">
        <ele>1059.750</ele>
        <time>2018-07-03T08:59:22Z</time>
      </trkpt>
      <trkpt lat="46.298475" lon="6.789569">
        <ele>1058.926</ele>
        <time>2018-07-03T08:59:26Z</time>
      </trkpt>
      <trkpt lat="46.298428" lon="6.789552">
        <ele>1058.128</ele>
        <time>2018-07-03T08:59:30Z</time>
      </trkpt>
      <trkpt lat="46.298372" lon="6.789549">
        <ele>1057.094</ele>
        <time>2018-07-03T08:59:35Z</time>
      </trkpt>
      <trkpt lat="46.298317" lon="6.789563">
        <ele>1055.966</ele>
        <time>2018-07-03T08:59:39Z</time>
      </trkpt>
      <trkpt lat="46.298263" lon="6.789525">
        <ele>1055.383</ele>
        <time>2018-07-03T08:59:44Z</time>
      </trkpt>
      <trkpt lat="46.298218" lon="6.789482">
        <ele>1055.089</ele>
        <time>2018-07-03T08:59:50Z</time>
      </trkpt>
      <trkpt lat="46.298167" lon="6.789486">
        <ele>1054.244</ele>
        <time>2018-07-03T08:59:54Z</time>
      </trkpt>
      <trkpt lat="46.298120" lon="6.789497">
        <ele>1053.411</ele>
        <time>2018-07-03T08:59:58Z</time>
      </trkpt>
      <trkpt lat="46.298074" lon="6.789490">
        <ele>1052.821</ele>
        <time>2018-07-03T09:00:02Z</time>
      </trkpt>
      <trkpt lat="46.298024" lon="6.789488">
        <ele>1051.803</ele>
        <time>2018-07-03T09:00:08Z</time>
      </trkpt>
      <trkpt lat="46.297977" lon="6.789505">
        <ele>1050.708</ele>
        <time>2018-07-03T09:00:13Z</time>
      </trkpt>
      <trkpt lat="46.297930" lon="6.789525">
        <ele>1049.623</ele>
        <time>2018-07-03T09:00:18Z</time>
      </trkpt>
      <trkpt lat="46.297884" lon="6.789556">
        <ele>1048.769</ele>
        <time>2018-07-03T09:00:22Z</time>
      </trkpt>
      <trkpt lat="46.297842" lon="6.789591">
        <ele>1048.121</ele>
        <time>2018-07-03T09:00:26Z</time>
      </trkpt>
      <trkpt lat="46.297795" lon="6.789634">
        <ele>1047.647</ele>
        <time>2018-07-03T09:00:30Z</time>
      </trkpt>
      <trkpt lat="46.297751" lon="6.789674">
        <ele>1047.299</ele>
        <time>2018-07-03T09:00:34Z</time>
      </trkpt>
      <trkpt lat="46.297708" lon="6.789715">
        <ele>1046.766</ele>
        <time>2018-07-03T09:00:38Z</time>
      </trkpt>
      <trkpt lat="46.297662" lon="6.789740">
        <ele>1046.282</ele>
        <time>2018-07-03T09:00:42Z</time>
      </trkpt>
      <trkpt lat="46.297607" lon="6.789735">
        <ele>1045.197</ele>
        <time>2018-07-03T09:00:47Z</time>
      </trkpt>
      <trkpt lat="46.297553" lon="6.789725">
        <ele>1044.011</ele>
        <time>2018-07-03T09:00:52Z</time>
      </trkpt>
      <trkpt lat="46.297509" lon="6.789701">
        <ele>1042.921</ele>
        <time>2018-07-03T09:00:56Z</time>
      </trkpt>
      <trkpt lat="46.297464" lon="6.789676">
        <ele>1042.403</ele>
        <time>2018-07-03T09:01:00Z</time>
      </trkpt>
      <trkpt lat="46.297422" lon="6.789647">
        <ele>1042.008</ele>
        <time>2018-07-03T09:01:04Z</time>
      </trkpt>
      <trkpt lat="46.297378" lon="6.789614">
        <ele>1041.663</ele>
        <time>2018-07-03T09:01:08Z</time>
      </trkpt>
      <trkpt lat="46.297340" lon="6.789579">
        <ele>1041.299</ele>
        <time>2018-07-03T09:01:12Z</time>
      </trkpt>
      <trkpt lat="46.297302" lon="6.789537">
        <ele>1040.891</ele>
        <time>2018-07-03T09:01:16Z</time>
      </trkpt>
      <trkpt lat="46.297260" lon="6.789489">
        <ele>1040.397</ele>
        <time>2018-07-03T09:01:21Z</time>
      </trkpt>
      <trkpt lat="46.297209" lon="6.789449">
        <ele>1039.959</ele>
        <time>2018-07-03T09:01:26Z</time>
      </trkpt>
      <trkpt lat="46.297171" lon="6.789411">
        <ele>1039.696</ele>
        <time>2018-07-03T09:01:31Z</time>
      </trkpt>
      <trkpt lat="46.297135" lon="6.789357">
        <ele>1039.392</ele>
        <time>2018-07-03T09:01:46Z</time>
      </trkpt>
      <trkpt lat="46.297124" lon="6.789286">
        <ele>1039.187</ele>
        <time>2018-07-03T09:01:55Z</time>
      </trkpt>
      <trkpt lat="46.297083" lon="6.789258">
        <ele>1038.746</ele>
        <time>2018-07-03T09:02:00Z</time>
      </trkpt>
      <trkpt lat="46.297032" lon="6.789258">
        <ele>1038.288</ele>
        <time>2018-07-03T09:02:04Z</time>
      </trkpt>
      <trkpt lat="46.296980" lon="6.789258">
        <ele>1037.716</ele>
        <time>2018-07-03T09:02:09Z</time>
      </trkpt>
      <trkpt lat="46.296937" lon="6.789235">
        <ele>1037.108</ele>
        <time>2018-07-03T09:02:13Z</time>
      </trkpt>
      <trkpt lat="46.296884" lon="6.789225">
        <ele>1036.446</ele>
        <time>2018-07-03T09:02:18Z</time>
      </trkpt>
      <trkpt lat="46.296828" lon="6.789201">
        <ele>1035.582</ele>
        <time>2018-07-03T09:03:02Z</time>
      </trkpt>
      <trkpt lat="46.296782" lon="6.789190">
        <ele>1034.814</ele>
        <time>2018-07-03T09:03:07Z</time>
      </trkpt>
      <trkpt lat="46.296729" lon="6.789171">
        <ele>1033.960</ele>
        <time>2018-07-03T09:03:12Z</time>
      </trkpt>
      <trkpt lat="46.296680" lon="6.789148">
        <ele>1033.122</ele>
        <time>2018-07-03T09:03:17Z</time>
      </trkpt>
      <trkpt lat="46.296628" lon="6.789126">
        <ele>1032.639</ele>
        <time>2018-07-03T09:03:23Z</time>
      </trkpt>
      <trkpt lat="46.296578" lon="6.789122">
        <ele>1032.275</ele>
        <time>2018-07-03T09:03:28Z</time>
      </trkpt>
      <trkpt lat="46.296533" lon="6.789114">
        <ele>1031.820</ele>
        <time>2018-07-03T09:03:32Z</time>
      </trkpt>
      <trkpt lat="46.296488" lon="6.789092">
        <ele>1031.475</ele>
        <time>2018-07-03T09:03:36Z</time>
      </trkpt>
      <trkpt lat="46.296443" lon="6.789066">
        <ele>1031.028</ele>
        <time>2018-07-03T09:03:40Z</time>
      </trkpt>
      <trkpt lat="46.296400" lon="6.789042">
        <ele>1030.620</ele>
        <time>2018-07-03T09:03:44Z</time>
      </trkpt>
      <trkpt lat="46.296357" lon="6.789018">
        <ele>1030.108</ele>
        <time>2018-07-03T09:03:48Z</time>
      </trkpt>
      <trkpt lat="46.296315" lon="6.788994">
        <ele>1029.529</ele>
        <time>2018-07-03T09:03:52Z</time>
      </trkpt>
      <trkpt lat="46.296265" lon="6.788961">
        <ele>1028.875</ele>
        <time>2018-07-03T09:03:57Z</time>
      </trkpt>
      <trkpt lat="46.296218" lon="6.788928">
        <ele>1028.247</ele>
        <time>2018-07-03T09:04:02Z</time>
      </trkpt>
      <trkpt lat="46.296164" lon="6.788905">
        <ele>1027.683</ele>
        <time>2018-07-03T09:04:07Z</time>
      </trkpt>
      <trkpt lat="46.296115" lon="6.788874">
        <ele>1027.045</ele>
        <time>2018-07-03T09:04:12Z</time>
      </trkpt>
      <trkpt lat="46.296072" lon="6.788835">
        <ele>1026.442</ele>
        <time>2018-07-03T09:04:17Z</time>
      </trkpt>
      <trkpt lat="46.296029" lon="6.788808">
        <ele>1025.978</ele>
        <time>2018-07-03T09:04:21Z</time>
      </trkpt>
      <trkpt lat="46.295982" lon="6.788780">
        <ele>1025.473</ele>
        <time>2018-07-03T09:04:25Z</time>
      </trkpt>
      <trkpt lat="46.295939" lon="6.788744">
        <ele>1024.975</ele>
        <time>2018-07-03T09:04:33Z</time>
      </trkpt>
      <trkpt lat="46.295893" lon="6.788714">
        <ele>1024.528</ele>
        <time>2018-07-03T09:04:39Z</time>
      </trkpt>
      <trkpt lat="46.295850" lon="6.788676">
        <ele>1024.120</ele>
        <time>2018-07-03T09:04:44Z</time>
      </trkpt>
      <trkpt lat="46.295806" lon="6.788637">
        <ele>1023.708</ele>
        <time>2018-07-03T09:04:49Z</time>
      </trkpt>
      <trkpt lat="46.295761" lon="6.788606">
        <ele>1023.269</ele>
        <time>2018-07-03T09:04:54Z</time>
      </trkpt>
      <trkpt lat="46.295711" lon="6.788581">
        <ele>1022.625</ele>
        <time>2018-07-03T09:04:59Z</time>
      </trkpt>
      <trkpt lat="46.295662" lon="6.788562">
        <ele>1022.187</ele>
        <time>2018-07-03T09:05:03Z</time>
      </trkpt>
      <trkpt lat="46.295613" lon="6.788542">
        <ele>1021.643</ele>
        <time>2018-07-03T09:05:06Z</time>
      </trkpt>
      <trkpt lat="46.295563" lon="6.788511">
        <ele>1021.115</ele>
        <time>2018-07-03T09:05:10Z</time>
      </trkpt>
      <trkpt lat="46.295522" lon="6.788481">
        <ele>1020.782</ele>
        <time>2018-07-03T09:05:14Z</time>
      </trkpt>
      <trkpt lat="46.295474" lon="6.788449">
        <ele>1020.268</ele>
        <time>2018-07-03T09:05:19Z</time>
      </trkpt>
      <trkpt lat="46.295426" lon="6.788441">
        <ele>1019.853</ele>
        <time>2018-07-03T09:05:34Z</time>
      </trkpt>
      <trkpt lat="46.295411" lon="6.788632">
        <ele>1020.057</ele>
        <time>2018-07-03T09:09:41Z</time>
      </trkpt>
      <trkpt lat="46.295416" lon="6.788717">
        <ele>1020.400</ele>
        <time>2018-07-03T09:09:45Z</time>
      </trkpt>
      <trkpt lat="46.295406" lon="6.788792">
        <ele>1020.620</ele>
        <time>2018-07-03T09:09:49Z</time>
      </trkpt>
      <trkpt lat="46.295397" lon="6.788860">
        <ele>1020.808</ele>
        <time>2018-07-03T09:09:55Z</time>
      </trkpt>
      <trkpt lat="46.295360" lon="6.788927">
        <ele>1020.657</ele>
        <time>2018-07-03T09:09:59Z</time>
      </trkpt>
      <trkpt lat="46.295338" lon="6.788997">
        <ele>1020.553</ele>
        <time>2018-07-03T09:10:03Z</time>
      </trkpt>
      <trkpt lat="46.295317" lon="6.789058">
        <ele>1020.455</ele>
        <time>2018-07-03T09:10:07Z</time>
      </trkpt>
      <trkpt lat="46.295302" lon="6.789122">
        <ele>1020.221</ele>
        <time>2018-07-03T09:10:11Z</time>
      </trkpt>
      <trkpt lat="46.295288" lon="6.789194">
        <ele>1020.223</ele>
        <time>2018-07-03T09:10:15Z</time>
      </trkpt>
      <trkpt lat="46.295271" lon="6.789255">
        <ele>1020.340</ele>
        <time>2018-07-03T09:10:19Z</time>
      </trkpt>
      <trkpt lat="46.295263" lon="6.789320">
        <ele>1020.496</ele>
        <time>2018-07-03T09:10:23Z</time>
      </trkpt>
      <trkpt lat="46.295255" lon="6.789396">
        <ele>1020.781</ele>
        <time>2018-07-03T09:10:27Z</time>
      </trkpt>
      <trkpt lat="46.295236" lon="6.789464">
        <ele>1020.842</ele>
        <time>2018-07-03T09:10:31Z</time>
      </trkpt>
      <trkpt lat="46.295216" lon="6.789525">
        <ele>1020.822</ele>
        <time>2018-07-03T09:10:35Z</time>
      </trkpt>
      <trkpt lat="46.295197" lon="6.789589">
        <ele>1020.914</ele>
        <time>2018-07-03T09:10:39Z</time>
      </trkpt>
      <trkpt lat="46.295181" lon="6.789653">
        <ele>1021.108</ele>
        <time>2018-07-03T09:10:43Z</time>
      </trkpt>
      <trkpt lat="46.295169" lon="6.789719">
        <ele>1021.296</ele>
        <time>2018-07-03T09:10:47Z</time>
      </trkpt>
      <trkpt lat="46.295160" lon="6.789792">
        <ele>1021.332</ele>
        <time>2018-07-03T09:10:51Z</time>
      </trkpt>
      <trkpt lat="46.295150" lon="6.789864">
        <ele>1021.414</ele>
        <time>2018-07-03T09:10:55Z</time>
      </trkpt>
      <trkpt lat="46.295142" lon="6.789934">
        <ele>1021.480</ele>
        <time>2018-07-03T09:10:59Z</time>
      </trkpt>
      <trkpt lat="46.295136" lon="6.790002">
        <ele>1021.552</ele>
        <time>2018-07-03T09:11:03Z</time>
      </trkpt>
      <trkpt lat="46.295127" lon="6.790071">
        <ele>1021.559</ele>
        <time>2018-07-03T09:11:07Z</time>
      </trkpt>
      <trkpt lat="46.295119" lon="6.790136">
        <ele>1021.595</ele>
        <time>2018-07-03T09:11:11Z</time>
      </trkpt>
      <trkpt lat="46.295118" lon="6.790207">
        <ele>1021.660</ele>
        <time>2018-07-03T09:11:15Z</time>
      </trkpt>
      <trkpt lat="46.295117" lon="6.790279">
        <ele>1021.784</ele>
        <time>2018-07-03T09:11:19Z</time>
      </trkpt>
      <trkpt lat="46.295113" lon="6.790349">
        <ele>1021.707</ele>
        <time>2018-07-03T09:11:23Z</time>
      </trkpt>
      <trkpt lat="46.295107" lon="6.790428">
        <ele>1021.717</ele>
        <time>2018-07-03T09:11:27Z</time>
      </trkpt>
      <trkpt lat="46.295109" lon="6.790495">
        <ele>1021.908</ele>
        <time>2018-07-03T09:11:34Z</time>
      </trkpt>
      <trkpt lat="46.295113" lon="6.790563">
        <ele>1022.060</ele>
        <time>2018-07-03T09:11:37Z</time>
      </trkpt>
      <trkpt lat="46.295101" lon="6.790640">
        <ele>1021.946</ele>
        <time>2018-07-03T09:11:41Z</time>
      </trkpt>
      <trkpt lat="46.295080" lon="6.790718">
        <ele>1021.688</ele>
        <time>2018-07-03T09:11:45Z</time>
      </trkpt>
      <trkpt lat="46.295066" lon="6.790799">
        <ele>1021.444</ele>
        <time>2018-07-03T09:11:49Z</time>
      </trkpt>
      <trkpt lat="46.295053" lon="6.790876">
        <ele>1021.396</ele>
        <time>2018-07-03T09:11:53Z</time>
      </trkpt>
      <trkpt lat="46.295035" lon="6.790950">
        <ele>1021.263</ele>
        <time>2018-07-03T09:11:57Z</time>
      </trkpt>
      <trkpt lat="46.295012" lon="6.791020">
        <ele>1021.029</ele>
        <time>2018-07-03T09:12:02Z</time>
      </trkpt>
      <trkpt lat="46.294992" lon="6.791086">
        <ele>1020.994</ele>
        <time>2018-07-03T09:12:07Z</time>
      </trkpt>
      <trkpt lat="46.294961" lon="6.791134">
        <ele>1020.981</ele>
        <time>2018-07-03T09:12:11Z</time>
      </trkpt>
      <trkpt lat="46.294921" lon="6.791185">
        <ele>1020.861</ele>
        <time>2018-07-03T09:12:15Z</time>
      </trkpt>
      <trkpt lat="46.294881" lon="6.791237">
        <ele>1020.717</ele>
        <time>2018-07-03T09:12:19Z</time>
      </trkpt>
      <trkpt lat="46.294849" lon="6.791297">
        <ele>1020.508</ele>
        <time>2018-07-03T09:12:23Z</time>
      </trkpt>
      <trkpt lat="46.294818" lon="6.791356">
        <ele>1020.350</ele>
        <time>2018-07-03T09:12:27Z</time>
      </trkpt>
      <trkpt lat="46.294793" lon="6.791419">
        <ele>1020.116</ele>
        <time>2018-07-03T09:12:31Z</time>
      </trkpt>
      <trkpt lat="46.294773" lon="6.791486">
        <ele>1020.118</ele>
        <time>2018-07-03T09:12:35Z</time>
      </trkpt>
      <trkpt lat="46.294753" lon="6.791549">
        <ele>1020.054</ele>
        <time>2018-07-03T09:12:39Z</time>
      </trkpt>
      <trkpt lat="46.294734" lon="6.791611">
        <ele>1020.046</ele>
        <time>2018-07-03T09:12:43Z</time>
      </trkpt>
      <trkpt lat="46.294713" lon="6.791675">
        <ele>1020.043</ele>
        <time>2018-07-03T09:12:47Z</time>
      </trkpt>
      <trkpt lat="46.294691" lon="6.791743">
        <ele>1020.059</ele>
        <time>2018-07-03T09:12:51Z</time>
      </trkpt>
      <trkpt lat="46.294668" lon="6.791809">
        <ele>1020.124</ele>
        <time>2018-07-03T09:12:55Z</time>
      </trkpt>
      <trkpt lat="46.294643" lon="6.791880">
        <ele>1020.249</ele>
        <time>2018-07-03T09:12:59Z</time>
      </trkpt>
      <trkpt lat="46.294618" lon="6.791942">
        <ele>1020.202</ele>
        <time>2018-07-03T09:13:03Z</time>
      </trkpt>
      <trkpt lat="46.294592" lon="6.792006">
        <ele>1020.422</ele>
        <time>2018-07-03T09:13:07Z</time>
      </trkpt>
      <trkpt lat="46.294563" lon="6.792067">
        <ele>1020.408</ele>
        <time>2018-07-03T09:13:11Z</time>
      </trkpt>
      <trkpt lat="46.294535" lon="6.792123">
        <ele>1020.336</ele>
        <time>2018-07-03T09:13:15Z</time>
      </trkpt>
      <trkpt lat="46.294510" lon="6.792178">
        <ele>1020.142</ele>
        <time>2018-07-03T09:13:19Z</time>
      </trkpt>
      <trkpt lat="46.294481" lon="6.792234">
        <ele>1019.744</ele>
        <time>2018-07-03T09:13:23Z</time>
      </trkpt>
      <trkpt lat="46.294449" lon="6.792292">
        <ele>1019.350</ele>
        <time>2018-07-03T09:13:27Z</time>
      </trkpt>
      <trkpt lat="46.294418" lon="6.792348">
        <ele>1019.472</ele>
        <time>2018-07-03T09:13:31Z</time>
      </trkpt>
      <trkpt lat="46.294387" lon="6.792403">
        <ele>1019.429</ele>
        <time>2018-07-03T09:13:35Z</time>
      </trkpt>
      <trkpt lat="46.294361" lon="6.792461">
        <ele>1019.675</ele>
        <time>2018-07-03T09:13:39Z</time>
      </trkpt>
      <trkpt lat="46.294332" lon="6.792518">
        <ele>1019.710</ele>
        <time>2018-07-03T09:13:43Z</time>
      </trkpt>
      <trkpt lat="46.294307" lon="6.792574">
        <ele>1019.844</ele>
        <time>2018-07-03T09:13:47Z</time>
      </trkpt>
      <trkpt lat="46.294282" lon="6.792628">
        <ele>1019.805</ele>
        <time>2018-07-03T09:13:51Z</time>
      </trkpt>
      <trkpt lat="46.294251" lon="6.792683">
        <ele>1019.715</ele>
        <time>2018-07-03T09:13:55Z</time>
      </trkpt>
      <trkpt lat="46.294219" lon="6.792740">
        <ele>1019.508</ele>
        <time>2018-07-03T09:13:59Z</time>
      </trkpt>
      <trkpt lat="46.294187" lon="6.792797">
        <ele>1019.366</ele>
        <time>2018-07-03T09:14:03Z</time>
      </trkpt>
      <trkpt lat="46.294157" lon="6.792852">
        <ele>1019.272</ele>
        <time>2018-07-03T09:14:07Z</time>
      </trkpt>
      <trkpt lat="46.294125" lon="6.792902">
        <ele>1019.374</ele>
        <time>2018-07-03T09:14:11Z</time>
      </trkpt>
      <trkpt lat="46.294094" lon="6.792951">
        <ele>1019.420</ele>
        <time>2018-07-03T09:14:15Z</time>
      </trkpt>
      <trkpt lat="46.294064" lon="6.793003">
        <ele>1019.432</ele>
        <time>2018-07-03T09:14:19Z</time>
      </trkpt>
      <trkpt lat="46.294035" lon="6.793056">
        <ele>1019.589</ele>
        <time>2018-07-03T09:14:23Z</time>
      </trkpt>
      <trkpt lat="46.294006" lon="6.793112">
        <ele>1019.625</ele>
        <time>2018-07-03T09:14:27Z</time>
      </trkpt>
      <trkpt lat="46.293973" lon="6.793168">
        <ele>1019.540</ele>
        <time>2018-07-03T09:14:31Z</time>
      </trkpt>
      <trkpt lat="46.293939" lon="6.793225">
        <ele>1019.461</ele>
        <time>2018-07-03T09:14:35Z</time>
      </trkpt>
      <trkpt lat="46.293909" lon="6.793279">
        <ele>1019.221</ele>
        <time>2018-07-03T09:14:39Z</time>
      </trkpt>
      <trkpt lat="46.293881" lon="6.793332">
        <ele>1018.913</ele>
        <time>2018-07-03T09:14:43Z</time>
      </trkpt>
      <trkpt lat="46.293855" lon="6.793387">
        <ele>1018.908</ele>
        <time>2018-07-03T09:14:47Z</time>
      </trkpt>
      <trkpt lat="46.293824" lon="6.793437">
        <ele>1018.948</ele>
        <time>2018-07-03T09:14:51Z</time>
      </trkpt>
      <trkpt lat="46.293790" lon="6.793486">
        <ele>1018.854</ele>
        <time>2018-07-03T09:14:55Z</time>
      </trkpt>
      <trkpt lat="46.293756" lon="6.793530">
        <ele>1018.816</ele>
        <time>2018-07-03T09:14:59Z</time>
      </trkpt>
      <trkpt lat="46.293726" lon="6.793579">
        <ele>1018.792</ele>
        <time>2018-07-03T09:15:03Z</time>
      </trkpt>
      <trkpt lat="46.293695" lon="6.793629">
        <ele>1018.794</ele>
        <time>2018-07-03T09:15:07Z</time>
      </trkpt>
      <trkpt lat="46.293658" lon="6.793685">
        <ele>1018.681</ele>
        <time>2018-07-03T09:15:12Z</time>
      </trkpt>
      <trkpt lat="46.293613" lon="6.793673">
        <ele>1018.267</ele>
        <time>2018-07-03T09:15:18Z</time>
      </trkpt>
      <trkpt lat="46.293573" lon="6.793624">
        <ele>1017.522</ele>
        <time>2018-07-03T09:15:24Z</time>
      </trkpt>
      <trkpt lat="46.293527" lon="6.793579">
        <ele>1016.741</ele>
        <time>2018-07-03T09:15:29Z</time>
      </trkpt>
      <trkpt lat="46.293480" lon="6.793541">
        <ele>1016.081</ele>
        <time>2018-07-03T09:15:33Z</time>
      </trkpt>
      <trkpt lat="46.293435" lon="6.793521">
        <ele>1015.309</ele>
        <time>2018-07-03T09:15:36Z</time>
      </trkpt>
      <trkpt lat="46.293384" lon="6.793508">
        <ele>1014.708</ele>
        <time>2018-07-03T09:15:40Z</time>
      </trkpt>
      <trkpt lat="46.293336" lon="6.793512">
        <ele>1014.016</ele>
        <time>2018-07-03T09:15:46Z</time>
      </trkpt>
      <trkpt lat="46.293279" lon="6.793508">
        <ele>1013.622</ele>
        <time>2018-07-03T09:15:51Z</time>
      </trkpt>
      <trkpt lat="46.293230" lon="6.793505">
        <ele>1013.384</ele>
        <time>2018-07-03T09:15:55Z</time>
      </trkpt>
      <trkpt lat="46.293182" lon="6.793515">
        <ele>1012.970</ele>
        <time>2018-07-03T09:15:59Z</time>
      </trkpt>
      <trkpt lat="46.293129" lon="6.793528">
        <ele>1012.592</ele>
        <time>2018-07-03T09:16:03Z</time>
      </trkpt>
      <trkpt lat="46.293074" lon="6.793516">
        <ele>1012.139</ele>
        <time>2018-07-03T09:16:07Z</time>
      </trkpt>
      <trkpt lat="46.293027" lon="6.793509">
        <ele>1011.915</ele>
        <time>2018-07-03T09:16:11Z</time>
      </trkpt>
      <trkpt lat="46.292974" lon="6.793481">
        <ele>1011.630</ele>
        <time>2018-07-03T09:16:17Z</time>
      </trkpt>
      <trkpt lat="46.292917" lon="6.793465">
        <ele>1011.266</ele>
        <time>2018-07-03T09:16:22Z</time>
      </trkpt>
      <trkpt lat="46.292863" lon="6.793451">
        <ele>1010.929</ele>
        <time>2018-07-03T09:16:27Z</time>
      </trkpt>
      <trkpt lat="46.292815" lon="6.793428">
        <ele>1010.621</ele>
        <time>2018-07-03T09:16:31Z</time>
      </trkpt>
      <trkpt lat="46.292769" lon="6.793414">
        <ele>1010.208</ele>
        <time>2018-07-03T09:16:35Z</time>
      </trkpt>
      <trkpt lat="46.292719" lon="6.793407">
        <ele>1010.088</ele>
        <time>2018-07-03T09:16:39Z</time>
      </trkpt>
      <trkpt lat="46.292658" lon="6.793392">
        <ele>1009.774</ele>
        <time>2018-07-03T09:16:45Z</time>
      </trkpt>
      <trkpt lat="46.292607" lon="6.793373">
        <ele>1009.446</ele>
        <time>2018-07-03T09:16:49Z</time>
      </trkpt>
      <trkpt lat="46.292557" lon="6.793354">
        <ele>1009.292</ele>
        <time>2018-07-03T09:16:54Z</time>
      </trkpt>
      <trkpt lat="46.292513" lon="6.793333">
        <ele>1009.064</ele>
        <time>2018-07-03T09:17:03Z</time>
      </trkpt>
      <trkpt lat="46.292486" lon="6.793279">
        <ele>1008.631</ele>
        <time>2018-07-03T09:17:38Z</time>
      </trkpt>
      <trkpt lat="46.292437" lon="6.793282">
        <ele>1008.097</ele>
        <time>2018-07-03T09:17:48Z</time>
      </trkpt>
      <trkpt lat="46.292400" lon="6.793235">
        <ele>1007.392</ele>
        <time>2018-07-03T09:17:52Z</time>
      </trkpt>
      <trkpt lat="46.292355" lon="6.793218">
        <ele>1006.777</ele>
        <time>2018-07-03T09:17:58Z</time>
      </trkpt>
      <trkpt lat="46.292307" lon="6.793190">
        <ele>1006.161</ele>
        <time>2018-07-03T09:18:03Z</time>
      </trkpt>
      <trkpt lat="46.292259" lon="6.793150">
        <ele>1005.427</ele>
        <time>2018-07-03T09:18:08Z</time>
      </trkpt>
      <trkpt lat="46.292214" lon="6.793120">
        <ele>1004.908</ele>
        <time>2018-07-03T09:18:13Z</time>
      </trkpt>
      <trkpt lat="46.292165" lon="6.793098">
        <ele>1004.629</ele>
        <time>2018-07-03T09:18:18Z</time>
      </trkpt>
      <trkpt lat="46.292120" lon="6.793054">
        <ele>1004.355</ele>
        <time>2018-07-03T09:18:23Z</time>
      </trkpt>
      <trkpt lat="46.292074" lon="6.793024">
        <ele>1003.827</ele>
        <time>2018-07-03T09:18:28Z</time>
      </trkpt>
      <trkpt lat="46.292029" lon="6.792990">
        <ele>1003.413</ele>
        <time>2018-07-03T09:18:32Z</time>
      </trkpt>
      <trkpt lat="46.291982" lon="6.792969">
        <ele>1003.095</ele>
        <time>2018-07-03T09:18:36Z</time>
      </trkpt>
      <trkpt lat="46.291940" lon="6.792945">
        <ele>1002.612</ele>
        <time>2018-07-03T09:18:39Z</time>
      </trkpt>
      <trkpt lat="46.291891" lon="6.792933">
        <ele>1002.668</ele>
        <time>2018-07-03T09:18:43Z</time>
      </trkpt>
      <trkpt lat="46.291840" lon="6.792911">
        <ele>1002.583</ele>
        <time>2018-07-03T09:18:47Z</time>
      </trkpt>
      <trkpt lat="46.291786" lon="6.792902">
        <ele>1002.486</ele>
        <time>2018-07-03T09:18:51Z</time>
      </trkpt>
      <trkpt lat="46.291741" lon="6.792876">
        <ele>1002.460</ele>
        <time>2018-07-03T09:18:54Z</time>
      </trkpt>
      <trkpt lat="46.291685" lon="6.792840">
        <ele>1002.226</ele>
        <time>2018-07-03T09:19:00Z</time>
      </trkpt>
      <trkpt lat="46.291631" lon="6.792825">
        <ele>1002.108</ele>
        <time>2018-07-03T09:19:05Z</time>
      </trkpt>
      <trkpt lat="46.291589" lon="6.792801">
        <ele>1001.870</ele>
        <time>2018-07-03T09:19:09Z</time>
      </trkpt>
      <trkpt lat="46.291542" lon="6.792797">
        <ele>1001.746</ele>
        <time>2018-07-03T09:19:17Z</time>
      </trkpt>
      <trkpt lat="46.291494" lon="6.792771">
        <ele>1001.358</ele>
        <time>2018-07-03T09:19:21Z</time>
      </trkpt>
      <trkpt lat="46.291446" lon="6.792758">
        <ele>1001.194</ele>
        <time>2018-07-03T09:19:25Z</time>
      </trkpt>
      <trkpt lat="46.291394" lon="6.792743">
        <ele>1000.996</ele>
        <time>2018-07-03T09:19:29Z</time>
      </trkpt>
      <trkpt lat="46.291338" lon="6.792746">
        <ele>1000.733</ele>
        <time>2018-07-03T09:19:33Z</time>
      </trkpt>
      <trkpt lat="46.291290" lon="6.792740">
        <ele>1000.659</ele>
        <time>2018-07-03T09:19:37Z</time>
      </trkpt>
      <trkpt lat="46.291242" lon="6.792712">
        <ele>1000.454</ele>
        <time>2018-07-03T09:19:48Z</time>
      </trkpt>
      <trkpt lat="46.291204" lon="6.792749">
        <ele>1000.319</ele>
        <time>2018-07-03T09:20:46Z</time>
      </trkpt>
      <trkpt lat="46.291181" lon="6.792814">
        <ele>1000.409</ele>
        <time>2018-07-03T09:20:51Z</time>
      </trkpt>
      <trkpt lat="46.291160" lon="6.792888">
        <ele>1000.619</ele>
        <time>2018-07-03T09:20:56Z</time>
      </trkpt>
      <trkpt lat="46.291129" lon="6.792958">
        <ele>1000.808</ele>
        <time>2018-07-03T09:21:01Z</time>
      </trkpt>
      <trkpt lat="46.291092" lon="6.793015">
        <ele>1000.973</ele>
        <time>2018-07-03T09:21:05Z</time>
      </trkpt>
      <trkpt lat="46.291062" lon="6.793104">
        <ele>1001.759</ele>
        <time>2018-07-03T09:21:17Z</time>
      </trkpt>
      <trkpt lat="46.291031" lon="6.793158">
        <ele>1002.371</ele>
        <time>2018-07-03T09:21:23Z</time>
      </trkpt>
      <trkpt lat="46.291068" lon="6.793215">
        <ele>1002.827</ele>
        <time>2018-07-03T09:21:50Z</time>
      </trkpt>
      <trkpt lat="46.291079" lon="6.793284">
        <ele>1003.569</ele>
        <time>2018-07-03T09:21:56Z</time>
      </trkpt>
      <trkpt lat="46.291090" lon="6.793349">
        <ele>1004.166</ele>
        <time>2018-07-03T09:22:02Z</time>
      </trkpt>
      <trkpt lat="46.291095" lon="6.793420">
        <ele>1004.692</ele>
        <time>2018-07-03T09:22:12Z</time>
      </trkpt>
      <trkpt lat="46.291106" lon="6.793490">
        <ele>1005.197</ele>
        <time>2018-07-03T09:22:17Z</time>
      </trkpt>
      <trkpt lat="46.291105" lon="6.793564">
        <ele>1005.731</ele>
        <time>2018-07-03T09:22:26Z</time>
      </trkpt>
      <trkpt lat="46.291111" lon="6.793632">
        <ele>1006.261</ele>
        <time>2018-07-03T09:22:31Z</time>
      </trkpt>
      <trkpt lat="46.291148" lon="6.793691">
        <ele>1007.007</ele>
        <time>2018-07-03T09:22:36Z</time>
      </trkpt>
      <trkpt lat="46.291168" lon="6.793757">
        <ele>1007.708</ele>
        <time>2018-07-03T09:22:41Z</time>
      </trkpt>
      <trkpt lat="46.291195" lon="6.793826">
        <ele>1008.455</ele>
        <time>2018-07-03T09:22:46Z</time>
      </trkpt>
      <trkpt lat="46.291208" lon="6.793894">
        <ele>1009.051</ele>
        <time>2018-07-03T09:22:50Z</time>
      </trkpt>
      <trkpt lat="46.291220" lon="6.793970">
        <ele>1009.323</ele>
        <time>2018-07-03T09:22:54Z</time>
      </trkpt>
      <trkpt lat="46.291226" lon="6.794045">
        <ele>1009.689</ele>
        <time>2018-07-03T09:22:58Z</time>
      </trkpt>
      <trkpt lat="46.291227" lon="6.794118">
        <ele>1009.861</ele>
        <time>2018-07-03T09:23:02Z</time>
      </trkpt>
      <trkpt lat="46.291220" lon="6.794184">
        <ele>1010.098</ele>
        <time>2018-07-03T09:23:06Z</time>
      </trkpt>
      <trkpt lat="46.291205" lon="6.794249">
        <ele>1010.024</ele>
        <time>2018-07-03T09:23:10Z</time>
      </trkpt>
      <trkpt lat="46.291187" lon="6.794311">
        <ele>1010.039</ele>
        <time>2018-07-03T09:23:14Z</time>
      </trkpt>
      <trkpt lat="46.291165" lon="6.794371">
        <ele>1010.013</ele>
        <time>2018-07-03T09:23:18Z</time>
      </trkpt>
      <trkpt lat="46.291140" lon="6.794432">
        <ele>1010.043</ele>
        <time>2018-07-03T09:23:22Z</time>
      </trkpt>
      <trkpt lat="46.291113" lon="6.794492">
        <ele>1010.007</ele>
        <time>2018-07-03T09:23:26Z</time>
      </trkpt>
      <trkpt lat="46.291088" lon="6.794554">
        <ele>1010.008</ele>
        <time>2018-07-03T09:23:30Z</time>
      </trkpt>
      <trkpt lat="46.291064" lon="6.794610">
        <ele>1010.053</ele>
        <time>2018-07-03T09:23:34Z</time>
      </trkpt>
      <trkpt lat="46.291039" lon="6.794664">
        <ele>1010.029</ele>
        <time>2018-07-03T09:23:38Z</time>
      </trkpt>
      <trkpt lat="46.291008" lon="6.794731">
        <ele>1010.061</ele>
        <time>2018-07-03T09:23:43Z</time>
      </trkpt>
      <trkpt lat="46.290985" lon="6.794788">
        <ele>1010.057</ele>
        <time>2018-07-03T09:23:47Z</time>
      </trkpt>
      <trkpt lat="46.290967" lon="6.794849">
        <ele>1010.079</ele>
        <time>2018-07-03T09:23:51Z</time>
      </trkpt>
      <trkpt lat="46.290935" lon="6.794917">
        <ele>1010.016</ele>
        <time>2018-07-03T09:23:56Z</time>
      </trkpt>
      <trkpt lat="46.290906" lon="6.794970">
        <ele>1010.012</ele>
        <time>2018-07-03T09:24:00Z</time>
      </trkpt>
      <trkpt lat="46.290875" lon="6.795023">
        <ele>1010.037</ele>
        <time>2018-07-03T09:24:04Z</time>
      </trkpt>
      <trkpt lat="46.290840" lon="6.795069">
        <ele>1010.026</ele>
        <time>2018-07-03T09:24:09Z</time>
      </trkpt>
      <trkpt lat="46.290795" lon="6.795102">
        <ele>1010.047</ele>
        <time>2018-07-03T09:24:15Z</time>
      </trkpt>
      <trkpt lat="46.290759" lon="6.795152">
        <ele>1010.011</ele>
        <time>2018-07-03T09:24:22Z</time>
      </trkpt>
      <trkpt lat="46.290735" lon="6.795226">
        <ele>1010.008</ele>
        <time>2018-07-03T09:24:27Z</time>
      </trkpt>
      <trkpt lat="46.290721" lon="6.795294">
        <ele>1010.084</ele>
        <time>2018-07-03T09:24:31Z</time>
      </trkpt>
      <trkpt lat="46.290716" lon="6.795364">
        <ele>1010.040</ele>
        <time>2018-07-03T09:24:35Z</time>
      </trkpt>
      <trkpt lat="46.290704" lon="6.795435">
        <ele>1010.032</ele>
        <time>2018-07-03T09:24:39Z</time>
      </trkpt>
      <trkpt lat="46.290677" lon="6.795504">
        <ele>1010.078</ele>
        <time>2018-07-03T09:24:43Z</time>
      </trkpt>
      <trkpt lat="46.290646" lon="6.795576">
        <ele>1010.040</ele>
        <time>2018-07-03T09:24:47Z</time>
      </trkpt>
      <trkpt lat="46.290622" lon="6.795645">
        <ele>1010.057</ele>
        <time>2018-07-03T09:24:51Z</time>
      </trkpt>
      <trkpt lat="46.290588" lon="6.795697">
        <ele>1010.093</ele>
        <time>2018-07-03T09:24:57Z</time>
      </trkpt>
      <trkpt lat="46.290579" lon="6.795769">
        <ele>1010.018</ele>
        <time>2018-07-03T09:25:03Z</time>
      </trkpt>
      <trkpt lat="46.290564" lon="6.795832">
        <ele>1010.018</ele>
        <time>2018-07-03T09:25:07Z</time>
      </trkpt>
      <trkpt lat="46.290546" lon="6.795893">
        <ele>1010.098</ele>
        <time>2018-07-03T09:25:11Z</time>
      </trkpt>
      <trkpt lat="46.290523" lon="6.795952">
        <ele>1010.017</ele>
        <time>2018-07-03T09:25:15Z</time>
      </trkpt>
      <trkpt lat="46.290501" lon="6.796014">
        <ele>1010.008</ele>
        <time>2018-07-03T09:25:19Z</time>
      </trkpt>
      <trkpt lat="46.290475" lon="6.796068">
        <ele>1010.023</ele>
        <time>2018-07-03T09:25:23Z</time>
      </trkpt>
      <trkpt lat="46.290439" lon="6.796117">
        <ele>1010.049</ele>
        <time>2018-07-03T09:25:27Z</time>
      </trkpt>
      <trkpt lat="46.290403" lon="6.796160">
        <ele>1010.061</ele>
        <time>2018-07-03T09:25:31Z</time>
      </trkpt>
      <trkpt lat="46.290366" lon="6.796198">
        <ele>1010.077</ele>
        <time>2018-07-03T09:25:35Z</time>
      </trkpt>
      <trkpt lat="46.290326" lon="6.796229">
        <ele>1010.059</ele>
        <time>2018-07-03T09:25:39Z</time>
      </trkpt>
      <trkpt lat="46.290274" lon="6.796253">
        <ele>1010.036</ele>
        <time>2018-07-03T09:25:44Z</time>
      </trkpt>
      <trkpt lat="46.290229" lon="6.796268">
        <ele>1010.042</ele>
        <time>2018-07-03T09:25:48Z</time>
      </trkpt>
      <trkpt lat="46.290178" lon="6.796284">
        <ele>1010.097</ele>
        <time>2018-07-03T09:25:53Z</time>
      </trkpt>
      <trkpt lat="46.290124" lon="6.796295">
        <ele>1010.037</ele>
        <time>2018-07-03T09:25:58Z</time>
      </trkpt>
      <trkpt lat="46.290078" lon="6.796309">
        <ele>1010.049</ele>
        <time>2018-07-03T09:26:02Z</time>
      </trkpt>
      <trkpt lat="46.290024" lon="6.796322">
        <ele>1010.013</ele>
        <time>2018-07-03T09:26:07Z</time>
      </trkpt>
      <trkpt lat="46.289975" lon="6.796348">
        <ele>1010.008</ele>
        <time>2018-07-03T09:26:11Z</time>
      </trkpt>
      <trkpt lat="46.289921" lon="6.796362">
        <ele>1010.015</ele>
        <time>2018-07-03T09:26:15Z</time>
      </trkpt>
      <trkpt lat="46.289869" lon="6.796382">
        <ele>1010.021</ele>
        <time>2018-07-03T09:26:19Z</time>
      </trkpt>
      <trkpt lat="46.289820" lon="6.796409">
        <ele>1010.053</ele>
        <time>2018-07-03T09:26:23Z</time>
      </trkpt>
      <trkpt lat="46.289770" lon="6.796427">
        <ele>1010.049</ele>
        <time>2018-07-03T09:26:28Z</time>
      </trkpt>
      <trkpt lat="46.289726" lon="6.796450">
        <ele>1010.011</ele>
        <time>2018-07-03T09:26:33Z</time>
      </trkpt>
      <trkpt lat="46.289681" lon="6.796474">
        <ele>1010.048</ele>
        <time>2018-07-03T09:26:37Z</time>
      </trkpt>
      <trkpt lat="46.289639" lon="6.796499">
        <ele>1010.084</ele>
        <time>2018-07-03T09:26:41Z</time>
      </trkpt>
      <trkpt lat="46.289603" lon="6.796543">
        <ele>1010.069</ele>
        <time>2018-07-03T09:26:45Z</time>
      </trkpt>
      <trkpt lat="46.289570" lon="6.796601">
        <ele>1010.053</ele>
        <time>2018-07-03T09:26:50Z</time>
      </trkpt>
      <trkpt lat="46.289542" lon="6.796669">
        <ele>1010.004</ele>
        <time>2018-07-03T09:26:55Z</time>
      </trkpt>
      <trkpt lat="46.289518" lon="6.796727">
        <ele>1010.014</ele>
        <time>2018-07-03T09:26:59Z</time>
      </trkpt>
      <trkpt lat="46.289489" lon="6.796793">
        <ele>1010.008</ele>
        <time>2018-07-03T09:27:03Z</time>
      </trkpt>
      <trkpt lat="46.289471" lon="6.796864">
        <ele>1010.097</ele>
        <time>2018-07-03T09:27:07Z</time>
      </trkpt>
      <trkpt lat="46.289456" lon="6.796928">
        <ele>1010.083</ele>
        <time>2018-07-03T09:27:11Z</time>
      </trkpt>
      <trkpt lat="46.289447" lon="6.796998">
        <ele>1010.025</ele>
        <time>2018-07-03T09:27:15Z</time>
      </trkpt>
      <trkpt lat="46.289445" lon="6.797069">
        <ele>1010.031</ele>
        <time>2018-07-03T09:27:19Z</time>
      </trkpt>
      <trkpt lat="46.289450" lon="6.797139">
        <ele>1010.093</ele>
        <time>2018-07-03T09:27:23Z</time>
      </trkpt>
      <trkpt lat="46.289445" lon="6.797210">
        <ele>1010.070</ele>
        <time>2018-07-03T09:27:27Z</time>
      </trkpt>
      <trkpt lat="46.289442" lon="6.797275">
        <ele>1010.026</ele>
        <time>2018-07-03T09:27:31Z</time>
      </trkpt>
      <trkpt lat="46.289427" lon="6.797338">
        <ele>1010.041</ele>
        <time>2018-07-03T09:27:35Z</time>
      </trkpt>
      <trkpt lat="46.289407" lon="6.797398">
        <ele>1010.068</ele>
        <time>2018-07-03T09:27:39Z</time>
      </trkpt>
      <trkpt lat="46.289382" lon="6.797467">
        <ele>1010.042</ele>
        <time>2018-07-03T09:27:44Z</time>
      </trkpt>
      <trkpt lat="46.289354" lon="6.797525">
        <ele>1010.026</ele>
        <time>2018-07-03T09:27:48Z</time>
      </trkpt>
      <trkpt lat="46.289319" lon="6.797575">
        <ele>1010.008</ele>
        <time>2018-07-03T09:27:52Z</time>
      </trkpt>
      <trkpt lat="46.289279" lon="6.797626">
        <ele>1010.068</ele>
        <time>2018-07-03T09:27:57Z</time>
      </trkpt>
      <trkpt lat="46.289239" lon="6.797677">
        <ele>1010.034</ele>
        <time>2018-07-03T09:28:02Z</time>
      </trkpt>
      <trkpt lat="46.289205" lon="6.797732">
        <ele>1010.026</ele>
        <time>2018-07-03T09:28:07Z</time>
      </trkpt>
      <trkpt lat="46.289167" lon="6.797785">
        <ele>1010.012</ele>
        <time>2018-07-03T09:28:12Z</time>
      </trkpt>
      <trkpt lat="46.289131" lon="6.797824">
        <ele>1010.054</ele>
        <time>2018-07-03T09:28:16Z</time>
      </trkpt>
      <trkpt lat="46.289088" lon="6.797855">
        <ele>1010.081</ele>
        <time>2018-07-03T09:28:20Z</time>
      </trkpt>
      <trkpt lat="46.289047" lon="6.797894">
        <ele>1010.057</ele>
        <time>2018-07-03T09:28:24Z</time>
      </trkpt>
      <trkpt lat="46.288996" lon="6.797924">
        <ele>1010.012</ele>
        <time>2018-07-03T09:28:29Z</time>
      </trkpt>
      <trkpt lat="46.288951" lon="6.797940">
        <ele>1010.021</ele>
        <time>2018-07-03T09:28:33Z</time>
      </trkpt>
      <trkpt lat="46.288897" lon="6.797946">
        <ele>1010.041</ele>
        <time>2018-07-03T09:28:40Z</time>
      </trkpt>
      <trkpt lat="46.288852" lon="6.798062">
        <ele>1010.005</ele>
        <time>2018-07-03T09:29:22Z</time>
      </trkpt>
      <trkpt lat="46.288794" lon="6.798101">
        <ele>1010.008</ele>
        <time>2018-07-03T09:29:36Z</time>
      </trkpt>
      <trkpt lat="46.288744" lon="6.798091">
        <ele>1010.084</ele>
        <time>2018-07-03T09:29:40Z</time>
      </trkpt>
      <trkpt lat="46.288691" lon="6.798094">
        <ele>1010.080</ele>
        <time>2018-07-03T09:29:43Z</time>
      </trkpt>
      <trkpt lat="46.288637" lon="6.798117">
        <ele>1010.072</ele>
        <time>2018-07-03T09:29:47Z</time>
      </trkpt>
      <trkpt lat="46.288583" lon="6.798121">
        <ele>1010.288</ele>
        <time>2018-07-03T09:29:51Z</time>
      </trkpt>
      <trkpt lat="46.288532" lon="6.798125">
        <ele>1010.460</ele>
        <time>2018-07-03T09:29:55Z</time>
      </trkpt>
      <trkpt lat="46.288480" lon="6.798150">
        <ele>1010.637</ele>
        <time>2018-07-03T09:29:59Z</time>
      </trkpt>
      <trkpt lat="46.288438" lon="6.798181">
        <ele>1010.793</ele>
        <time>2018-07-03T09:30:02Z</time>
      </trkpt>
      <trkpt lat="46.288395" lon="6.798219">
        <ele>1010.678</ele>
        <time>2018-07-03T09:30:06Z</time>
      </trkpt>
      <trkpt lat="46.288349" lon="6.798265">
        <ele>1010.566</ele>
        <time>2018-07-03T09:30:10Z</time>
      </trkpt>
      <trkpt lat="46.288324" lon="6.798326">
        <ele>1010.429</ele>
        <time>2018-07-03T09:30:15Z</time>
      </trkpt>
      <trkpt lat="46.288296" lon="6.798395">
        <ele>1011.021</ele>
        <time>2018-07-03T09:30:20Z</time>
      </trkpt>
      <trkpt lat="46.288262" lon="6.798455">
        <ele>1011.608</ele>
        <time>2018-07-03T09:30:24Z</time>
      </trkpt>
      <trkpt lat="46.288242" lon="6.798528">
        <ele>1011.658</ele>
        <time>2018-07-03T09:30:29Z</time>
      </trkpt>
      <trkpt lat="46.288247" lon="6.798599">
        <ele>1011.014</ele>
        <time>2018-07-03T09:30:34Z</time>
      </trkpt>
      <trkpt lat="46.288269" lon="6.798663">
        <ele>1010.796</ele>
        <time>2018-07-03T09:30:39Z</time>
      </trkpt>
      <trkpt lat="46.288303" lon="6.798724">
        <ele>1010.382</ele>
        <time>2018-07-03T09:30:44Z</time>
      </trkpt>
      <trkpt lat="46.288327" lon="6.798790">
        <ele>1010.144</ele>
        <time>2018-07-03T09:30:49Z</time>
      </trkpt>
      <trkpt lat="46.288352" lon="6.798858">
        <ele>1010.081</ele>
        <time>2018-07-03T09:30:54Z</time>
      </trkpt>
      <trkpt lat="46.288370" lon="6.798928">
        <ele>1010.027</ele>
        <time>2018-07-03T09:30:59Z</time>
      </trkpt>
      <trkpt lat="46.288401" lon="6.798986">
        <ele>1010.092</ele>
        <time>2018-07-03T09:31:03Z</time>
      </trkpt>
      <trkpt lat="46.288426" lon="6.799049">
        <ele>1010.038</ele>
        <time>2018-07-03T09:31:07Z</time>
      </trkpt>
      <trkpt lat="46.288450" lon="6.799107">
        <ele>1010.070</ele>
        <time>2018-07-03T09:31:11Z</time>
      </trkpt>
      <trkpt lat="46.288466" lon="6.799172">
        <ele>1010.017</ele>
        <time>2018-07-03T09:31:15Z</time>
      </trkpt>
      <trkpt lat="46.288478" lon="6.799236">
        <ele>1010.008</ele>
        <time>2018-07-03T09:31:19Z</time>
      </trkpt>
      <trkpt lat="46.288493" lon="6.799299">
        <ele>1010.055</ele>
        <time>2018-07-03T09:31:23Z</time>
      </trkpt>
      <trkpt lat="46.288527" lon="6.799346">
        <ele>1010.051</ele>
        <time>2018-07-03T09:31:27Z</time>
      </trkpt>
      <trkpt lat="46.288558" lon="6.799400">
        <ele>1010.093</ele>
        <time>2018-07-03T09:31:31Z</time>
      </trkpt>
      <trkpt lat="46.288555" lon="6.799476">
        <ele>1010.059</ele>
        <time>2018-07-03T09:31:36Z</time>
      </trkpt>
      <trkpt lat="46.288569" lon="6.799554">
        <ele>1010.161</ele>
        <time>2018-07-03T09:31:41Z</time>
      </trkpt>
      <trkpt lat="46.288594" lon="6.799612">
        <ele>1010.078</ele>
        <time>2018-07-03T09:31:45Z</time>
      </trkpt>
      <trkpt lat="46.288620" lon="6.799684">
        <ele>1010.094</ele>
        <time>2018-07-03T09:31:50Z</time>
      </trkpt>
      <trkpt lat="46.288647" lon="6.799746">
        <ele>1010.029</ele>
        <time>2018-07-03T09:31:54Z</time>
      </trkpt>
      <trkpt lat="46.288668" lon="6.799810">
        <ele>1010.084</ele>
        <time>2018-07-03T09:31:58Z</time>
      </trkpt>
      <trkpt lat="46.288685" lon="6.799879">
        <ele>1010.007</ele>
        <time>2018-07-03T09:32:02Z</time>
      </trkpt>
      <trkpt lat="46.288696" lon="6.799945">
        <ele>1010.017</ele>
        <time>2018-07-03T09:32:06Z</time>
      </trkpt>
      <trkpt lat="46.288706" lon="6.800011">
        <ele>1010.008</ele>
        <time>2018-07-03T09:32:10Z</time>
      </trkpt>
      <trkpt lat="46.288717" lon="6.800084">
        <ele>1010.040</ele>
        <time>2018-07-03T09:32:14Z</time>
      </trkpt>
      <trkpt lat="46.288720" lon="6.800156">
        <ele>1010.086</ele>
        <time>2018-07-03T09:32:18Z</time>
      </trkpt>
      <trkpt lat="46.288719" lon="6.800225">
        <ele>1010.068</ele>
        <time>2018-07-03T09:32:22Z</time>
      </trkpt>
      <trkpt lat="46.288716" lon="6.800292">
        <ele>1010.064</ele>
        <time>2018-07-03T09:32:26Z</time>
      </trkpt>
      <trkpt lat="46.288709" lon="6.800357">
        <ele>1010.096</ele>
        <time>2018-07-03T09:32:30Z</time>
      </trkpt>
      <trkpt lat="46.288698" lon="6.800423">
        <ele>1010.063</ele>
        <time>2018-07-03T09:32:34Z</time>
      </trkpt>
      <trkpt lat="46.288688" lon="6.800492">
        <ele>1010.069</ele>
        <time>2018-07-03T09:32:38Z</time>
      </trkpt>
      <trkpt lat="46.288672" lon="6.800558">
        <ele>1010.014</ele>
        <time>2018-07-03T09:32:42Z</time>
      </trkpt>
      <trkpt lat="46.288647" lon="6.800622">
        <ele>1010.057</ele>
        <time>2018-07-03T09:32:46Z</time>
      </trkpt>
      <trkpt lat="46.288623" lon="6.800685">
        <ele>1010.000</ele>
        <time>2018-07-03T09:32:50Z</time>
      </trkpt>
      <trkpt lat="46.288607" lon="6.800755">
        <ele>1010.020</ele>
        <time>2018-07-03T09:32:54Z</time>
      </trkpt>
      <trkpt lat="46.288591" lon="6.800831">
        <ele>1010.108</ele>
        <time>2018-07-03T09:32:58Z</time>
      </trkpt>
      <trkpt lat="46.288580" lon="6.800904">
        <ele>1010.117</ele>
        <time>2018-07-03T09:33:02Z</time>
      </trkpt>
      <trkpt lat="46.288563" lon="6.800974">
        <ele>1010.113</ele>
        <time>2018-07-03T09:33:06Z</time>
      </trkpt>
      <trkpt lat="46.288543" lon="6.801049">
        <ele>1010.155</ele>
        <time>2018-07-03T09:33:11Z</time>
      </trkpt>
      <trkpt lat="46.288528" lon="6.801112">
        <ele>1010.021</ele>
        <time>2018-07-03T09:33:15Z</time>
      </trkpt>
      <trkpt lat="46.288511" lon="6.801187">
        <ele>1010.023</ele>
        <time>2018-07-03T09:33:20Z</time>
      </trkpt>
      <trkpt lat="46.288503" lon="6.801268">
        <ele>1010.070</ele>
        <time>2018-07-03T09:33:25Z</time>
      </trkpt>
      <trkpt lat="46.288500" lon="6.801338">
        <ele>1010.096</ele>
        <time>2018-07-03T09:33:29Z</time>
      </trkpt>
      <trkpt lat="46.288492" lon="6.801407">
        <ele>1010.091</ele>
        <time>2018-07-03T09:33:33Z</time>
      </trkpt>
      <trkpt lat="46.288486" lon="6.801472">
        <ele>1010.087</ele>
        <time>2018-07-03T09:33:37Z</time>
      </trkpt>
      <trkpt lat="46.288478" lon="6.801537">
        <ele>1010.042</ele>
        <time>2018-07-03T09:33:41Z</time>
      </trkpt>
      <trkpt lat="46.288471" lon="6.801602">
        <ele>1010.026</ele>
        <time>2018-07-03T09:33:45Z</time>
      </trkpt>
      <trkpt lat="46.288460" lon="6.801680">
        <ele>1010.008</ele>
        <time>2018-07-03T09:33:50Z</time>
      </trkpt>
      <trkpt lat="46.288463" lon="6.801760">
        <ele>1010.260</ele>
        <time>2018-07-03T09:33:55Z</time>
      </trkpt>
      <trkpt lat="46.288471" lon="6.801828">
        <ele>1010.336</ele>
        <time>2018-07-03T09:33:59Z</time>
      </trkpt>
      <trkpt lat="46.288480" lon="6.801897">
        <ele>1010.458</ele>
        <time>2018-07-03T09:34:03Z</time>
      </trkpt>
      <trkpt lat="46.288487" lon="6.801969">
        <ele>1010.674</ele>
        <time>2018-07-03T09:34:07Z</time>
      </trkpt>
      <trkpt lat="46.288498" lon="6.802037">
        <ele>1010.656</ele>
        <time>2018-07-03T09:34:11Z</time>
      </trkpt>
      <trkpt lat="46.288506" lon="6.802105">
        <ele>1010.673</ele>
        <time>2018-07-03T09:34:15Z</time>
      </trkpt>
      <trkpt lat="46.288504" lon="6.802176">
        <ele>1010.669</ele>
        <time>2018-07-03T09:34:19Z</time>
      </trkpt>
      <trkpt lat="46.288512" lon="6.802245">
        <ele>1010.724</ele>
        <time>2018-07-03T09:34:23Z</time>
      </trkpt>
      <trkpt lat="46.288511" lon="6.802314">
        <ele>1011.032</ele>
        <time>2018-07-03T09:34:27Z</time>
      </trkpt>
      <trkpt lat="46.288508" lon="6.802384">
        <ele>1011.292</ele>
        <time>2018-07-03T09:34:31Z</time>
      </trkpt>
      <trkpt lat="46.288506" lon="6.802450">
        <ele>1011.411</ele>
        <time>2018-07-03T09:34:35Z</time>
      </trkpt>
      <trkpt lat="46.288505" lon="6.802519">
        <ele>1011.708</ele>
        <time>2018-07-03T09:34:39Z</time>
      </trkpt>
      <trkpt lat="46.288508" lon="6.802588">
        <ele>1011.825</ele>
        <time>2018-07-03T09:34:43Z</time>
      </trkpt>
      <trkpt lat="46.288511" lon="6.802656">
        <ele>1012.041</ele>
        <time>2018-07-03T09:34:47Z</time>
      </trkpt>
      <trkpt lat="46.288514" lon="6.802726">
        <ele>1012.253</ele>
        <time>2018-07-03T09:34:51Z</time>
      </trkpt>
      <trkpt lat="46.288514" lon="6.802792">
        <ele>1012.479</ele>
        <time>2018-07-03T09:34:55Z</time>
      </trkpt>
      <trkpt lat="46.288516" lon="6.802861">
        <ele>1012.691</ele>
        <time>2018-07-03T09:34:59Z</time>
      </trkpt>
      <trkpt lat="46.288516" lon="6.802930">
        <ele>1012.968</ele>
        <time>2018-07-03T09:35:03Z</time>
      </trkpt>
      <trkpt lat="46.288519" lon="6.802997">
        <ele>1013.164</ele>
        <time>2018-07-03T09:35:18Z</time>
      </trkpt>
      <trkpt lat="46.288526" lon="6.803073">
        <ele>1013.569</ele>
        <time>2018-07-03T09:35:23Z</time>
      </trkpt>
      <trkpt lat="46.288533" lon="6.803152">
        <ele>1013.823</ele>
        <time>2018-07-03T09:35:28Z</time>
      </trkpt>
      <trkpt lat="46.288538" lon="6.803219">
        <ele>1014.183</ele>
        <time>2018-07-03T09:35:32Z</time>
      </trkpt>
      <trkpt lat="46.288553" lon="6.803298">
        <ele>1014.511</ele>
        <time>2018-07-03T09:35:37Z</time>
      </trkpt>
      <trkpt lat="46.288565" lon="6.803365">
        <ele>1014.808</ele>
        <time>2018-07-03T09:35:41Z</time>
      </trkpt>
      <trkpt lat="46.288570" lon="6.803435">
        <ele>1015.194</ele>
        <time>2018-07-03T09:35:45Z</time>
      </trkpt>
      <trkpt lat="46.288578" lon="6.803506">
        <ele>1015.440</ele>
        <time>2018-07-03T09:35:49Z</time>
      </trkpt>
      <trkpt lat="46.288582" lon="6.803575">
        <ele>1015.752</ele>
        <time>2018-07-03T09:35:53Z</time>
      </trkpt>
      <trkpt lat="46.288580" lon="6.803643">
        <ele>1015.838</ele>
        <time>2018-07-03T09:35:57Z</time>
      </trkpt>
      <trkpt lat="46.288575" lon="6.803713">
        <ele>1015.820</ele>
        <time>2018-07-03T09:36:01Z</time>
      </trkpt>
      <trkpt lat="46.288571" lon="6.803782">
        <ele>1015.817</ele>
        <time>2018-07-03T09:36:05Z</time>
      </trkpt>
      <trkpt lat="46.288569" lon="6.803855">
        <ele>1015.823</ele>
        <time>2018-07-03T09:36:09Z</time>
      </trkpt>
      <trkpt lat="46.288562" lon="6.803923">
        <ele>1015.968</ele>
        <time>2018-07-03T09:36:13Z</time>
      </trkpt>
      <trkpt lat="46.288548" lon="6.804001">
        <ele>1016.278</ele>
        <time>2018-07-03T09:36:18Z</time>
      </trkpt>
      <trkpt lat="46.288550" lon="6.804076">
        <ele>1016.533</ele>
        <time>2018-07-03T09:36:23Z</time>
      </trkpt>
      <trkpt lat="46.288550" lon="6.804148">
        <ele>1016.726</ele>
        <time>2018-07-03T09:36:29Z</time>
      </trkpt>
      <trkpt lat="46.288557" lon="6.804222">
        <ele>1017.008</ele>
        <time>2018-07-03T09:36:35Z</time>
      </trkpt>
      <trkpt lat="46.288538" lon="6.804290">
        <ele>1017.259</ele>
        <time>2018-07-03T09:36:40Z</time>
      </trkpt>
      <trkpt lat="46.288510" lon="6.804342">
        <ele>1017.315</ele>
        <time>2018-07-03T09:36:44Z</time>
      </trkpt>
      <trkpt lat="46.288476" lon="6.804388">
        <ele>1017.377</ele>
        <time>2018-07-03T09:36:48Z</time>
      </trkpt>
      <trkpt lat="46.288429" lon="6.804424">
        <ele>1017.353</ele>
        <time>2018-07-03T09:36:53Z</time>
      </trkpt>
      <trkpt lat="46.288381" lon="6.804456">
        <ele>1017.295</ele>
        <time>2018-07-03T09:36:58Z</time>
      </trkpt>
      <trkpt lat="46.288339" lon="6.804488">
        <ele>1017.272</ele>
        <time>2018-07-03T09:37:02Z</time>
      </trkpt>
      <trkpt lat="46.288290" lon="6.804505">
        <ele>1017.138</ele>
        <time>2018-07-03T09:37:07Z</time>
      </trkpt>
      <trkpt lat="46.288243" lon="6.804507">
        <ele>1016.953</ele>
        <time>2018-07-03T09:37:12Z</time>
      </trkpt>
      <trkpt lat="46.288187" lon="6.804497">
        <ele>1016.713</ele>
        <time>2018-07-03T09:37:16Z</time>
      </trkpt>
      <trkpt lat="46.288138" lon="6.804476">
        <ele>1016.443</ele>
        <time>2018-07-03T09:37:20Z</time>
      </trkpt>
      <trkpt lat="46.288093" lon="6.804466">
        <ele>1016.207</ele>
        <time>2018-07-03T09:37:25Z</time>
      </trkpt>
      <trkpt lat="46.288039" lon="6.804479">
        <ele>1016.108</ele>
        <time>2018-07-03T09:37:30Z</time>
      </trkpt>
      <trkpt lat="46.287991" lon="6.804484">
        <ele>1016.143</ele>
        <time>2018-07-03T09:37:37Z</time>
      </trkpt>
      <trkpt lat="46.287937" lon="6.804494">
        <ele>1016.139</ele>
        <time>2018-07-03T09:37:45Z</time>
      </trkpt>
      <trkpt lat="46.287886" lon="6.804513">
        <ele>1016.121</ele>
        <time>2018-07-03T09:37:50Z</time>
      </trkpt>
      <trkpt lat="46.287839" lon="6.804559">
        <ele>1016.177</ele>
        <time>2018-07-03T09:37:54Z</time>
      </trkpt>
      <trkpt lat="46.287797" lon="6.804591">
        <ele>1016.089</ele>
        <time>2018-07-03T09:37:57Z</time>
      </trkpt>
      <trkpt lat="46.287754" lon="6.804640">
        <ele>1016.176</ele>
        <time>2018-07-03T09:38:01Z</time>
      </trkpt>
      <trkpt lat="46.287711" lon="6.804693">
        <ele>1016.282</ele>
        <time>2018-07-03T09:38:05Z</time>
      </trkpt>
      <trkpt lat="46.287682" lon="6.804745">
        <ele>1016.437</ele>
        <time>2018-07-03T09:38:08Z</time>
      </trkpt>
      <trkpt lat="46.287652" lon="6.804811">
        <ele>1016.613</ele>
        <time>2018-07-03T09:38:12Z</time>
      </trkpt>
      <trkpt lat="46.287639" lon="6.804881">
        <ele>1016.843</ele>
        <time>2018-07-03T09:38:16Z</time>
      </trkpt>
      <trkpt lat="46.287645" lon="6.804952">
        <ele>1016.907</ele>
        <time>2018-07-03T09:38:20Z</time>
      </trkpt>
      <trkpt lat="46.287645" lon="6.805030">
        <ele>1017.008</ele>
        <time>2018-07-03T09:38:25Z</time>
      </trkpt>
      <trkpt lat="46.287668" lon="6.805089">
        <ele>1017.043</ele>
        <time>2018-07-03T09:38:29Z</time>
      </trkpt>
      <trkpt lat="46.287705" lon="6.805131">
        <ele>1017.079</ele>
        <time>2018-07-03T09:38:41Z</time>
      </trkpt>
      <trkpt lat="46.287748" lon="6.805173">
        <ele>1017.021</ele>
        <time>2018-07-03T09:38:48Z</time>
      </trkpt>
      <trkpt lat="46.287767" lon="6.805235">
        <ele>1017.067</ele>
        <time>2018-07-03T09:38:53Z</time>
      </trkpt>
      <trkpt lat="46.287769" lon="6.805303">
        <ele>1017.079</ele>
        <time>2018-07-03T09:38:57Z</time>
      </trkpt>
      <trkpt lat="46.287758" lon="6.805374">
        <ele>1017.096</ele>
        <time>2018-07-03T09:39:01Z</time>
      </trkpt>
      <trkpt lat="46.287746" lon="6.805445">
        <ele>1017.092</ele>
        <time>2018-07-03T09:39:05Z</time>
      </trkpt>
      <trkpt lat="46.287749" lon="6.805514">
        <ele>1017.017</ele>
        <time>2018-07-03T09:39:09Z</time>
      </trkpt>
      <trkpt lat="46.287744" lon="6.805584">
        <ele>1017.195</ele>
        <time>2018-07-03T09:39:13Z</time>
      </trkpt>
      <trkpt lat="46.287743" lon="6.805653">
        <ele>1017.449</ele>
        <time>2018-07-03T09:39:17Z</time>
      </trkpt>
      <trkpt lat="46.287751" lon="6.805729">
        <ele>1017.623</ele>
        <time>2018-07-03T09:39:22Z</time>
      </trkpt>
      <trkpt lat="46.287761" lon="6.805807">
        <ele>1017.908</ele>
        <time>2018-07-03T09:39:27Z</time>
      </trkpt>
      <trkpt lat="46.287767" lon="6.805872">
        <ele>1018.051</ele>
        <time>2018-07-03T09:39:31Z</time>
      </trkpt>
      <trkpt lat="46.287778" lon="6.805941">
        <ele>1018.077</ele>
        <time>2018-07-03T09:39:35Z</time>
      </trkpt>
      <trkpt lat="46.287786" lon="6.806005">
        <ele>1018.059</ele>
        <time>2018-07-03T09:39:39Z</time>
      </trkpt>
      <trkpt lat="46.287783" lon="6.806083">
        <ele>1018.085</ele>
        <time>2018-07-03T09:39:44Z</time>
      </trkpt>
      <trkpt lat="46.287776" lon="6.806159">
        <ele>1018.277</ele>
        <time>2018-07-03T09:39:49Z</time>
      </trkpt>
      <trkpt lat="46.287763" lon="6.806236">
        <ele>1018.434</ele>
        <time>2018-07-03T09:39:54Z</time>
      </trkpt>
      <trkpt lat="46.287760" lon="6.806310">
        <ele>1018.770</ele>
        <time>2018-07-03T09:39:59Z</time>
      </trkpt>
      <trkpt lat="46.287721" lon="6.806359">
        <ele>1018.725</ele>
        <time>2018-07-03T09:40:04Z</time>
      </trkpt>
      <trkpt lat="46.287704" lon="6.806425">
        <ele>1018.814</ele>
        <time>2018-07-03T09:40:09Z</time>
      </trkpt>
      <trkpt lat="46.287675" lon="6.806475">
        <ele>1018.754</ele>
        <time>2018-07-03T09:40:15Z</time>
      </trkpt>
      <trkpt lat="46.287631" lon="6.806496">
        <ele>1018.709</ele>
        <time>2018-07-03T09:40:28Z</time>
      </trkpt>
      <trkpt lat="46.287590" lon="6.806548">
        <ele>1018.708</ele>
        <time>2018-07-03T09:40:34Z</time>
      </trkpt>
      <trkpt lat="46.287555" lon="6.806601">
        <ele>1018.853</ele>
        <time>2018-07-03T09:40:39Z</time>
      </trkpt>
      <trkpt lat="46.287527" lon="6.806654">
        <ele>1019.069</ele>
        <time>2018-07-03T09:40:43Z</time>
      </trkpt>
      <trkpt lat="46.287497" lon="6.806715">
        <ele>1019.051</ele>
        <time>2018-07-03T09:40:48Z</time>
      </trkpt>
      <trkpt lat="46.287464" lon="6.806802">
        <ele>1019.037</ele>
        <time>2018-07-03T09:40:56Z</time>
      </trkpt>
      <trkpt lat="46.287422" lon="6.806851">
        <ele>1019.039</ele>
        <time>2018-07-03T09:41:00Z</time>
      </trkpt>
      <trkpt lat="46.287377" lon="6.806886">
        <ele>1019.056</ele>
        <time>2018-07-03T09:41:04Z</time>
      </trkpt>
      <trkpt lat="46.287339" lon="6.806931">
        <ele>1019.052</ele>
        <time>2018-07-03T09:41:08Z</time>
      </trkpt>
      <trkpt lat="46.287309" lon="6.807028">
        <ele>1019.057</ele>
        <time>2018-07-03T09:41:43Z</time>
      </trkpt>
      <trkpt lat="46.287258" lon="6.807046">
        <ele>1019.053</ele>
        <time>2018-07-03T09:42:05Z</time>
      </trkpt>
      <trkpt lat="46.287211" lon="6.807064">
        <ele>1019.004</ele>
        <time>2018-07-03T09:42:39Z</time>
      </trkpt>
      <trkpt lat="46.287160" lon="6.807065">
        <ele>1019.014</ele>
        <time>2018-07-04T08:24:57Z</time>
      </trkpt>
      <trkpt lat="46.287153" lon="6.807026">
        <ele>1019.008</ele>
        <time>2018-07-04T08:25:29Z</time>
      </trkpt>
      <trkpt lat="46.287149" lon="6.806934">
        <ele>1019.027</ele>
        <time>2018-07-04T08:25:51Z</time>
      </trkpt>
      <trkpt lat="46.287104" lon="6.806937">
        <ele>1019.073</ele>
        <time>2018-07-04T08:25:55Z</time>
      </trkpt>
      <trkpt lat="46.287059" lon="6.806890">
        <ele>1019.025</ele>
        <time>2018-07-04T08:26:00Z</time>
      </trkpt>
      <trkpt lat="46.287022" lon="6.806837">
        <ele>1019.091</ele>
        <time>2018-07-04T08:26:04Z</time>
      </trkpt>
      <trkpt lat="46.286982" lon="6.806788">
        <ele>1019.033</ele>
        <time>2018-07-04T08:26:08Z</time>
      </trkpt>
      <trkpt lat="46.286952" lon="6.806713">
        <ele>1019.030</ele>
        <time>2018-07-04T08:26:12Z</time>
      </trkpt>
      <trkpt lat="46.286924" lon="6.806653">
        <ele>1019.126</ele>
        <time>2018-07-04T08:26:17Z</time>
      </trkpt>
      <trkpt lat="46.286923" lon="6.806575">
        <ele>1019.131</ele>
        <time>2018-07-04T08:26:22Z</time>
      </trkpt>
      <trkpt lat="46.286909" lon="6.806512">
        <ele>1019.225</ele>
        <time>2018-07-04T08:26:26Z</time>
      </trkpt>
      <trkpt lat="46.286887" lon="6.806449">
        <ele>1019.426</ele>
        <time>2018-07-04T08:26:31Z</time>
      </trkpt>
      <trkpt lat="46.286865" lon="6.806386">
        <ele>1019.608</ele>
        <time>2018-07-04T08:26:39Z</time>
      </trkpt>
      <trkpt lat="46.286848" lon="6.806325">
        <ele>1019.508</ele>
        <time>2018-07-04T08:26:44Z</time>
      </trkpt>
      <trkpt lat="46.286809" lon="6.806274">
        <ele>1019.894</ele>
        <time>2018-07-04T08:26:49Z</time>
      </trkpt>
      <trkpt lat="46.286774" lon="6.806227">
        <ele>1020.070</ele>
        <time>2018-07-04T08:26:53Z</time>
      </trkpt>
      <trkpt lat="46.286736" lon="6.806182">
        <ele>1020.352</ele>
        <time>2018-07-04T08:26:57Z</time>
      </trkpt>
      <trkpt lat="46.286694" lon="6.806130">
        <ele>1020.768</ele>
        <time>2018-07-04T08:27:02Z</time>
      </trkpt>
      <trkpt lat="46.286649" lon="6.806084">
        <ele>1021.340</ele>
        <time>2018-07-04T08:27:07Z</time>
      </trkpt>
      <trkpt lat="46.286606" lon="6.806032">
        <ele>1021.917</ele>
        <time>2018-07-04T08:27:12Z</time>
      </trkpt>
      <trkpt lat="46.286571" lon="6.805988">
        <ele>1022.543</ele>
        <time>2018-07-04T08:27:16Z</time>
      </trkpt>
      <trkpt lat="46.286534" lon="6.805945">
        <ele>1023.038</ele>
        <time>2018-07-04T08:27:20Z</time>
      </trkpt>
      <trkpt lat="46.286493" lon="6.805897">
        <ele>1023.648</ele>
        <time>2018-07-04T08:27:25Z</time>
      </trkpt>
      <trkpt lat="46.286457" lon="6.805857">
        <ele>1024.261</ele>
        <time>2018-07-04T08:27:29Z</time>
      </trkpt>
      <trkpt lat="46.286418" lon="6.805806">
        <ele>1024.617</ele>
        <time>2018-07-04T08:27:34Z</time>
      </trkpt>
      <trkpt lat="46.286381" lon="6.805756">
        <ele>1024.808</ele>
        <time>2018-07-04T08:27:39Z</time>
      </trkpt>
      <trkpt lat="46.286342" lon="6.805704">
        <ele>1025.046</ele>
        <time>2018-07-04T08:27:44Z</time>
      </trkpt>
      <trkpt lat="46.286304" lon="6.805655">
        <ele>1025.222</ele>
        <time>2018-07-04T08:27:49Z</time>
      </trkpt>
      <trkpt lat="46.286266" lon="6.805605">
        <ele>1025.494</ele>
        <time>2018-07-04T08:27:54Z</time>
      </trkpt>
      <trkpt lat="46.286234" lon="6.805551">
        <ele>1025.780</ele>
        <time>2018-07-04T08:27:59Z</time>
      </trkpt>
      <trkpt lat="46.286192" lon="6.805507">
        <ele>1026.112</ele>
        <time>2018-07-04T08:28:04Z</time>
      </trkpt>
      <trkpt lat="46.286145" lon="6.805462">
        <ele>1026.669</ele>
        <time>2018-07-04T08:28:09Z</time>
      </trkpt>
      <trkpt lat="46.286108" lon="6.805422">
        <ele>1027.075</ele>
        <time>2018-07-04T08:28:13Z</time>
      </trkpt>
      <trkpt lat="46.286072" lon="6.805381">
        <ele>1027.350</ele>
        <time>2018-07-04T08:28:17Z</time>
      </trkpt>
      <trkpt lat="46.286029" lon="6.805341">
        <ele>1027.786</ele>
        <time>2018-07-04T08:28:22Z</time>
      </trkpt>
      <trkpt lat="46.285988" lon="6.805298">
        <ele>1027.960</ele>
        <time>2018-07-04T08:28:27Z</time>
      </trkpt>
      <trkpt lat="46.285944" lon="6.805251">
        <ele>1028.326</ele>
        <time>2018-07-04T08:28:32Z</time>
      </trkpt>
      <trkpt lat="46.285904" lon="6.805200">
        <ele>1028.808</ele>
        <time>2018-07-04T08:28:37Z</time>
      </trkpt>
      <trkpt lat="46.285866" lon="6.805154">
        <ele>1029.260</ele>
        <time>2018-07-04T08:28:42Z</time>
      </trkpt>
      <trkpt lat="46.285828" lon="6.805101">
        <ele>1029.746</ele>
        <time>2018-07-04T08:28:48Z</time>
      </trkpt>
      <trkpt lat="46.285791" lon="6.805055">
        <ele>1030.518</ele>
        <time>2018-07-04T08:28:54Z</time>
      </trkpt>
      <trkpt lat="46.285748" lon="6.805016">
        <ele>1031.224</ele>
        <time>2018-07-04T08:29:00Z</time>
      </trkpt>
      <trkpt lat="46.285698" lon="6.804989">
        <ele>1032.066</ele>
        <time>2018-07-04T08:29:13Z</time>
      </trkpt>
      <trkpt lat="46.285654" lon="6.805013">
        <ele>1032.693</ele>
        <time>2018-07-04T08:29:35Z</time>
      </trkpt>
      <trkpt lat="46.285607" lon="6.805012">
        <ele>1033.349</ele>
        <time>2018-07-04T08:29:42Z</time>
      </trkpt>
      <trkpt lat="46.285564" lon="6.804984">
        <ele>1033.944</ele>
        <time>2018-07-04T08:29:48Z</time>
      </trkpt>
      <trkpt lat="46.285504" lon="6.804988">
        <ele>1035.234</ele>
        <time>2018-07-04T08:29:57Z</time>
      </trkpt>
      <trkpt lat="46.285455" lon="6.804972">
        <ele>1036.355</ele>
        <time>2018-07-04T08:30:03Z</time>
      </trkpt>
      <trkpt lat="46.285408" lon="6.804969">
        <ele>1037.310</ele>
        <time>2018-07-04T08:30:10Z</time>
      </trkpt>
      <trkpt lat="46.285363" lon="6.804956">
        <ele>1038.308</ele>
        <time>2018-07-04T08:30:16Z</time>
      </trkpt>
      <trkpt lat="46.285315" lon="6.804966">
        <ele>1039.385</ele>
        <time>2018-07-04T08:30:22Z</time>
      </trkpt>
      <trkpt lat="46.285268" lon="6.804989">
        <ele>1040.331</ele>
        <time>2018-07-04T08:30:28Z</time>
      </trkpt>
      <trkpt lat="46.285229" lon="6.805027">
        <ele>1041.293</ele>
        <time>2018-07-04T08:30:34Z</time>
      </trkpt>
      <trkpt lat="46.285186" lon="6.805046">
        <ele>1042.239</ele>
        <time>2018-07-04T08:30:41Z</time>
      </trkpt>
      <trkpt lat="46.285133" lon="6.805062">
        <ele>1043.511</ele>
        <time>2018-07-04T08:30:48Z</time>
      </trkpt>
      <trkpt lat="46.285087" lon="6.805049">
        <ele>1044.448</ele>
        <time>2018-07-04T08:30:53Z</time>
      </trkpt>
      <trkpt lat="46.285060" lon="6.804977">
        <ele>1045.044</ele>
        <time>2018-07-04T08:31:01Z</time>
      </trkpt>
      <trkpt lat="46.285034" lon="6.805030">
        <ele>1045.529</ele>
        <time>2018-07-04T08:31:16Z</time>
      </trkpt>
      <trkpt lat="46.284991" lon="6.805064">
        <ele>1046.715</ele>
        <time>2018-07-04T08:31:23Z</time>
      </trkpt>
      <trkpt lat="46.284947" lon="6.805113">
        <ele>1048.165</ele>
        <time>2018-07-04T08:31:31Z</time>
      </trkpt>
      <trkpt lat="46.284911" lon="6.805158">
        <ele>1048.911</ele>
        <time>2018-07-04T08:31:36Z</time>
      </trkpt>
      <trkpt lat="46.284882" lon="6.805216">
        <ele>1049.208</ele>
        <time>2018-07-04T08:31:42Z</time>
      </trkpt>
      <trkpt lat="46.284854" lon="6.805277">
        <ele>1049.193</ele>
        <time>2018-07-04T08:31:48Z</time>
      </trkpt>
      <trkpt lat="46.284821" lon="6.805324">
        <ele>1049.379</ele>
        <time>2018-07-04T08:31:53Z</time>
      </trkpt>
      <trkpt lat="46.284790" lon="6.805376">
        <ele>1049.651</ele>
        <time>2018-07-04T08:32:01Z</time>
      </trkpt>
      <trkpt lat="46.284763" lon="6.805432">
        <ele>1049.857</ele>
        <time>2018-07-04T08:32:09Z</time>
      </trkpt>
      <trkpt lat="46.284733" lon="6.805484">
        <ele>1050.019</ele>
        <time>2018-07-04T08:32:16Z</time>
      </trkpt>
      <trkpt lat="46.284695" lon="6.805518">
        <ele>1051.026</ele>
        <time>2018-07-04T08:32:25Z</time>
      </trkpt>
      <trkpt lat="46.284646" lon="6.805519">
        <ele>1052.752</ele>
        <time>2018-07-04T08:32:35Z</time>
      </trkpt>
      <trkpt lat="46.284594" lon="6.805512">
        <ele>1054.767</ele>
        <time>2018-07-04T08:32:41Z</time>
      </trkpt>
      <trkpt lat="46.284544" lon="6.805495">
        <ele>1056.879</ele>
        <time>2018-07-04T08:32:45Z</time>
      </trkpt>
      <trkpt lat="46.284498" lon="6.805504">
        <ele>1058.305</ele>
        <time>2018-07-04T08:32:49Z</time>
      </trkpt>
      <trkpt lat="46.284447" lon="6.805524">
        <ele>1059.725</ele>
        <time>2018-07-04T08:32:54Z</time>
      </trkpt>
      <trkpt lat="46.284401" lon="6.805540">
        <ele>1059.908</ele>
        <time>2018-07-04T08:33:00Z</time>
      </trkpt>
      <trkpt lat="46.284359" lon="6.805566">
        <ele>1059.979</ele>
        <time>2018-07-04T08:33:06Z</time>
      </trkpt>
      <trkpt lat="46.284314" lon="6.805586">
        <ele>1060.385</ele>
        <time>2018-07-04T08:33:14Z</time>
      </trkpt>
      <trkpt lat="46.284271" lon="6.805613">
        <ele>1060.627</ele>
        <time>2018-07-04T08:33:21Z</time>
      </trkpt>
      <trkpt lat="46.284224" lon="6.805637">
        <ele>1060.973</ele>
        <time>2018-07-04T08:33:30Z</time>
      </trkpt>
      <trkpt lat="46.284179" lon="6.805648">
        <ele>1061.245</ele>
        <time>2018-07-04T08:33:40Z</time>
      </trkpt>
      <trkpt lat="46.284132" lon="6.805669">
        <ele>1062.012</ele>
        <time>2018-07-04T08:33:50Z</time>
      </trkpt>
      <trkpt lat="46.284087" lon="6.805660">
        <ele>1063.088</ele>
        <time>2018-07-04T08:33:59Z</time>
      </trkpt>
      <trkpt lat="46.284045" lon="6.805635">
        <ele>1064.093</ele>
        <time>2018-07-04T08:34:08Z</time>
      </trkpt>
      <trkpt lat="46.284014" lon="6.805572">
        <ele>1064.722</ele>
        <time>2018-07-04T08:34:17Z</time>
      </trkpt>
      <trkpt lat="46.283976" lon="6.805536">
        <ele>1065.862</ele>
        <time>2018-07-04T08:34:37Z</time>
      </trkpt>
      <trkpt lat="46.283959" lon="6.805464">
        <ele>1067.208</ele>
        <time>2018-07-04T08:34:43Z</time>
      </trkpt>
      <trkpt lat="46.283945" lon="6.805392">
        <ele>1068.508</ele>
        <time>2018-07-04T08:34:48Z</time>
      </trkpt>
      <trkpt lat="46.283945" lon="6.805326">
        <ele>1069.594</ele>
        <time>2018-07-04T08:34:52Z</time>
      </trkpt>
      <trkpt lat="46.283951" lon="6.805259">
        <ele>1070.480</ele>
        <time>2018-07-04T08:34:56Z</time>
      </trkpt>
      <trkpt lat="46.283959" lon="6.805194">
        <ele>1071.072</ele>
        <time>2018-07-04T08:35:00Z</time>
      </trkpt>
      <trkpt lat="46.283979" lon="6.805128">
        <ele>1071.868</ele>
        <time>2018-07-04T08:35:05Z</time>
      </trkpt>
      <trkpt lat="46.284008" lon="6.805071">
        <ele>1072.620</ele>
        <time>2018-07-04T08:35:12Z</time>
      </trkpt>
      <trkpt lat="46.284017" lon="6.805003">
        <ele>1073.427</ele>
        <time>2018-07-04T08:35:35Z</time>
      </trkpt>
      <trkpt lat="46.284030" lon="6.804934">
        <ele>1074.453</ele>
        <time>2018-07-04T08:35:49Z</time>
      </trkpt>
      <trkpt lat="46.284059" lon="6.804861">
        <ele>1075.648</ele>
        <time>2018-07-04T08:35:55Z</time>
      </trkpt>
      <trkpt lat="46.284082" lon="6.804801">
        <ele>1076.782</ele>
        <time>2018-07-04T08:36:02Z</time>
      </trkpt>
      <trkpt lat="46.284084" lon="6.804736">
        <ele>1077.643</ele>
        <time>2018-07-04T08:36:10Z</time>
      </trkpt>
      <trkpt lat="46.284096" lon="6.804672">
        <ele>1079.017</ele>
        <time>2018-07-04T08:36:20Z</time>
      </trkpt>
      <trkpt lat="46.284097" lon="6.804606">
        <ele>1080.408</ele>
        <time>2018-07-04T08:36:32Z</time>
      </trkpt>
      <trkpt lat="46.284074" lon="6.804549">
        <ele>1081.290</ele>
        <time>2018-07-04T08:36:42Z</time>
      </trkpt>
      <trkpt lat="46.284023" lon="6.804530">
        <ele>1080.786</ele>
        <time>2018-07-04T08:36:48Z</time>
      </trkpt>
      <trkpt lat="46.283977" lon="6.804517">
        <ele>1080.298</ele>
        <time>2018-07-04T08:36:54Z</time>
      </trkpt>
      <trkpt lat="46.283932" lon="6.804494">
        <ele>1079.944</ele>
        <time>2018-07-04T08:37:01Z</time>
      </trkpt>
      <trkpt lat="46.283888" lon="6.804467">
        <ele>1079.616</ele>
        <time>2018-07-04T08:37:06Z</time>
      </trkpt>
      <trkpt lat="46.283843" lon="6.804450">
        <ele>1080.153</ele>
        <time>2018-07-04T08:37:10Z</time>
      </trkpt>
      <trkpt lat="46.283800" lon="6.804419">
        <ele>1081.459</ele>
        <time>2018-07-04T08:37:15Z</time>
      </trkpt>
      <trkpt lat="46.283760" lon="6.804386">
        <ele>1083.084</ele>
        <time>2018-07-04T08:37:20Z</time>
      </trkpt>
      <trkpt lat="46.283714" lon="6.804371">
        <ele>1083.887</ele>
        <time>2018-07-04T08:37:24Z</time>
      </trkpt>
      <trkpt lat="46.283667" lon="6.804369">
        <ele>1084.142</ele>
        <time>2018-07-04T08:37:27Z</time>
      </trkpt>
      <trkpt lat="46.283620" lon="6.804363">
        <ele>1084.526</ele>
        <time>2018-07-04T08:37:32Z</time>
      </trkpt>
      <trkpt lat="46.283570" lon="6.804351">
        <ele>1086.808</ele>
        <time>2018-07-04T08:37:40Z</time>
      </trkpt>
      <trkpt lat="46.283521" lon="6.804367">
        <ele>1088.420</ele>
        <time>2018-07-04T08:37:50Z</time>
      </trkpt>
      <trkpt lat="46.283472" lon="6.804343">
        <ele>1091.286</ele>
        <time>2018-07-04T08:37:57Z</time>
      </trkpt>
      <trkpt lat="46.283434" lon="6.804383">
        <ele>1091.958</ele>
        <time>2018-07-04T08:38:10Z</time>
      </trkpt>
      <trkpt lat="46.283535" lon="6.804282">
        <ele>1090.754</ele>
        <time>2018-07-04T08:38:39Z</time>
      </trkpt>
      <trkpt lat="46.283471" lon="6.804257">
        <ele>1093.646</ele>
        <time>2018-07-04T08:38:57Z</time>
      </trkpt>
      <trkpt lat="46.283513" lon="6.804225">
        <ele>1093.383</ele>
        <time>2018-07-04T08:39:05Z</time>
      </trkpt>
      <trkpt lat="46.283561" lon="6.804244">
        <ele>1091.269</ele>
        <time>2018-07-04T08:39:10Z</time>
      </trkpt>
      <trkpt lat="46.283604" lon="6.804278">
        <ele>1088.434</ele>
        <time>2018-07-04T08:39:20Z</time>
      </trkpt>
      <trkpt lat="46.283617" lon="6.804341">
        <ele>1085.472</ele>
        <time>2018-07-04T08:39:29Z</time>
      </trkpt>
      <trkpt lat="46.283624" lon="6.804415">
        <ele>1082.213</ele>
        <time>2018-07-04T08:39:39Z</time>
      </trkpt>
      <trkpt lat="46.283613" lon="6.804478">
        <ele>1081.114</ele>
        <time>2018-07-04T08:39:45Z</time>
      </trkpt>
      <trkpt lat="46.283621" lon="6.804544">
        <ele>1081.208</ele>
        <time>2018-07-04T08:39:53Z</time>
      </trkpt>
      <trkpt lat="46.283650" lon="6.804595">
        <ele>1080.999</ele>
        <time>2018-07-04T08:40:00Z</time>
      </trkpt>
      <trkpt lat="46.283683" lon="6.804640">
        <ele>1080.445</ele>
        <time>2018-07-04T08:40:07Z</time>
      </trkpt>
      <trkpt lat="46.283700" lon="6.804707">
        <ele>1079.827</ele>
        <time>2018-07-04T08:40:16Z</time>
      </trkpt>
      <trkpt lat="46.283675" lon="6.804764">
        <ele>1080.793</ele>
        <time>2018-07-04T08:40:21Z</time>
      </trkpt>
      <trkpt lat="46.283665" lon="6.804836">
        <ele>1081.755</ele>
        <time>2018-07-04T08:40:28Z</time>
      </trkpt>
      <trkpt lat="46.283669" lon="6.804909">
        <ele>1082.232</ele>
        <time>2018-07-04T08:40:37Z</time>
      </trkpt>
      <trkpt lat="46.283688" lon="6.804970">
        <ele>1081.918</ele>
        <time>2018-07-04T08:40:46Z</time>
      </trkpt>
      <trkpt lat="46.283702" lon="6.805035">
        <ele>1081.733</ele>
        <time>2018-07-04T08:40:57Z</time>
      </trkpt>
      <trkpt lat="46.283674" lon="6.805099">
        <ele>1083.896</ele>
        <time>2018-07-04T08:41:07Z</time>
      </trkpt>
      <trkpt lat="46.283632" lon="6.805142">
        <ele>1086.831</ele>
        <time>2018-07-04T08:41:13Z</time>
      </trkpt>
      <trkpt lat="46.283592" lon="6.805180">
        <ele>1090.024</ele>
        <time>2018-07-04T08:41:21Z</time>
      </trkpt>
      <trkpt lat="46.283559" lon="6.805235">
        <ele>1093.108</ele>
        <time>2018-07-04T08:41:33Z</time>
      </trkpt>
      <trkpt lat="46.283531" lon="6.805289">
        <ele>1095.441</ele>
        <time>2018-07-04T08:41:49Z</time>
      </trkpt>
      <trkpt lat="46.283504" lon="6.805342">
        <ele>1096.897</ele>
        <time>2018-07-04T08:41:59Z</time>
      </trkpt>
      <trkpt lat="46.283485" lon="6.805404">
        <ele>1097.539</ele>
        <time>2018-07-04T08:42:12Z</time>
      </trkpt>
      <trkpt lat="46.283474" lon="6.805468">
        <ele>1097.745</ele>
        <time>2018-07-04T08:42:26Z</time>
      </trkpt>
      <trkpt lat="46.283467" lon="6.805532">
        <ele>1097.647</ele>
        <time>2018-07-04T08:42:41Z</time>
      </trkpt>
      <trkpt lat="46.283499" lon="6.805594">
        <ele>1095.274</ele>
        <time>2018-07-04T08:42:46Z</time>
      </trkpt>
      <trkpt lat="46.283475" lon="6.805653">
        <ele>1096.780</ele>
        <time>2018-07-04T08:42:55Z</time>
      </trkpt>
      <trkpt lat="46.283430" lon="6.805664">
        <ele>1099.445</ele>
        <time>2018-07-04T08:43:04Z</time>
      </trkpt>
      <trkpt lat="46.283387" lon="6.805697">
        <ele>1101.896</ele>
        <time>2018-07-04T08:43:17Z</time>
      </trkpt>
      <trkpt lat="46.283347" lon="6.805732">
        <ele>1103.931</ele>
        <time>2018-07-04T08:43:25Z</time>
      </trkpt>
      <trkpt lat="46.283311" lon="6.805781">
        <ele>1105.424</ele>
        <time>2018-07-04T08:43:35Z</time>
      </trkpt>
      <trkpt lat="46.283269" lon="6.805809">
        <ele>1107.008</ele>
        <time>2018-07-04T08:43:44Z</time>
      </trkpt>
      <trkpt lat="46.283221" lon="6.805799">
        <ele>1109.281</ele>
        <time>2018-07-04T08:43:53Z</time>
      </trkpt>
      <trkpt lat="46.283182" lon="6.805765">
        <ele>1111.437</ele>
        <time>2018-07-04T08:44:00Z</time>
      </trkpt>
      <trkpt lat="46.283172" lon="6.805699">
        <ele>1112.889</ele>
        <time>2018-07-04T08:44:14Z</time>
      </trkpt>
      <trkpt lat="46.283175" lon="6.805629">
        <ele>1113.625</ele>
        <time>2018-07-04T08:44:24Z</time>
      </trkpt>
      <trkpt lat="46.283160" lon="6.805564">
        <ele>1115.277</ele>
        <time>2018-07-04T08:44:37Z</time>
      </trkpt>
      <trkpt lat="46.283166" lon="6.805493">
        <ele>1115.844</ele>
        <time>2018-07-04T08:44:49Z</time>
      </trkpt>
      <trkpt lat="46.283169" lon="6.805428">
        <ele>1116.550</ele>
        <time>2018-07-04T08:44:58Z</time>
      </trkpt>
      <trkpt lat="46.283183" lon="6.805365">
        <ele>1116.565</ele>
        <time>2018-07-04T08:45:08Z</time>
      </trkpt>
      <trkpt lat="46.283194" lon="6.805299">
        <ele>1116.887</ele>
        <time>2018-07-04T08:45:19Z</time>
      </trkpt>
      <trkpt lat="46.283182" lon="6.805235">
        <ele>1118.142</ele>
        <time>2018-07-04T08:45:35Z</time>
      </trkpt>
      <trkpt lat="46.283171" lon="6.805170">
        <ele>1119.426</ele>
        <time>2018-07-04T08:45:46Z</time>
      </trkpt>
      <trkpt lat="46.283171" lon="6.805096">
        <ele>1120.008</ele>
        <time>2018-07-04T08:46:03Z</time>
      </trkpt>
      <trkpt lat="46.283182" lon="6.805030">
        <ele>1120.040</ele>
        <time>2018-07-04T08:46:14Z</time>
      </trkpt>
      <trkpt lat="46.283145" lon="6.804988">
        <ele>1122.316</ele>
        <time>2018-07-04T08:46:32Z</time>
      </trkpt>
      <trkpt lat="46.283120" lon="6.804927">
        <ele>1122.938</ele>
        <time>2018-07-04T08:50:20Z</time>
      </trkpt>
      <trkpt lat="46.283081" lon="6.804865">
        <ele>1124.424</ele>
        <time>2018-07-04T08:50:35Z</time>
      </trkpt>
      <trkpt lat="46.283052" lon="6.804812">
        <ele>1125.486</ele>
        <time>2018-07-04T08:50:50Z</time>
      </trkpt>
      <trkpt lat="46.283012" lon="6.804783">
        <ele>1126.713</ele>
        <time>2018-07-04T08:52:01Z</time>
      </trkpt>
      <trkpt lat="46.282961" lon="6.804781">
        <ele>1128.749</ele>
        <time>2018-07-04T08:52:16Z</time>
      </trkpt>
      <trkpt lat="46.282915" lon="6.804780">
        <ele>1130.674</ele>
        <time>2018-07-04T08:52:20Z</time>
      </trkpt>
      <trkpt lat="46.282868" lon="6.804757">
        <ele>1132.343</ele>
        <time>2018-07-04T08:52:25Z</time>
      </trkpt>
      <trkpt lat="46.282828" lon="6.804711">
        <ele>1133.864</ele>
        <time>2018-07-04T08:52:32Z</time>
      </trkpt>
      <trkpt lat="46.282800" lon="6.804606">
        <ele>1135.110</ele>
        <time>2018-07-04T08:53:35Z</time>
      </trkpt>
      <trkpt lat="46.282793" lon="6.804533">
        <ele>1135.708</ele>
        <time>2018-07-04T08:53:49Z</time>
      </trkpt>
      <trkpt lat="46.282793" lon="6.804465">
        <ele>1135.816</ele>
        <time>2018-07-04T08:54:07Z</time>
      </trkpt>
      <trkpt lat="46.282810" lon="6.804402">
        <ele>1134.772</ele>
        <time>2018-07-04T08:54:14Z</time>
      </trkpt>
      <trkpt lat="46.282812" lon="6.804333">
        <ele>1135.074</ele>
        <time>2018-07-04T08:54:20Z</time>
      </trkpt>
      <trkpt lat="46.282815" lon="6.804267">
        <ele>1135.290</ele>
        <time>2018-07-04T08:54:25Z</time>
      </trkpt>
      <trkpt lat="46.282800" lon="6.804191">
        <ele>1137.062</ele>
        <time>2018-07-04T08:54:30Z</time>
      </trkpt>
      <trkpt lat="46.282812" lon="6.804125">
        <ele>1136.559</ele>
        <time>2018-07-04T08:54:35Z</time>
      </trkpt>
      <trkpt lat="46.282795" lon="6.804054">
        <ele>1138.285</ele>
        <time>2018-07-04T08:54:57Z</time>
      </trkpt>
      <trkpt lat="46.282778" lon="6.803989">
        <ele>1139.670</ele>
        <time>2018-07-04T08:55:05Z</time>
      </trkpt>
      <trkpt lat="46.282761" lon="6.803919">
        <ele>1140.785</ele>
        <time>2018-07-04T08:55:13Z</time>
      </trkpt>
      <trkpt lat="46.282729" lon="6.803869">
        <ele>1142.689</ele>
        <time>2018-07-04T08:55:24Z</time>
      </trkpt>
      <trkpt lat="46.282699" lon="6.803817">
        <ele>1144.817</ele>
        <time>2018-07-04T08:55:33Z</time>
      </trkpt>
      <trkpt lat="46.282660" lon="6.803775">
        <ele>1147.008</ele>
        <time>2018-07-04T08:55:53Z</time>
      </trkpt>
      <trkpt lat="46.282620" lon="6.803734">
        <ele>1149.230</ele>
        <time>2018-07-04T08:56:18Z</time>
      </trkpt>
      <trkpt lat="46.282585" lon="6.803686">
        <ele>1151.286</ele>
        <time>2018-07-04T08:56:27Z</time>
      </trkpt>
      <trkpt lat="46.282546" lon="6.803645">
        <ele>1153.068</ele>
        <time>2018-07-04T08:56:40Z</time>
      </trkpt>
      <trkpt lat="46.282511" lon="6.803604">
        <ele>1154.744</ele>
        <time>2018-07-04T08:56:56Z</time>
      </trkpt>
      <trkpt lat="46.282464" lon="6.803555">
        <ele>1156.866</ele>
        <time>2018-07-04T08:57:11Z</time>
      </trkpt>
      <trkpt lat="46.282430" lon="6.803506">
        <ele>1158.423</ele>
        <time>2018-07-04T08:57:25Z</time>
      </trkpt>
      <trkpt lat="46.282385" lon="6.803491">
        <ele>1159.919</ele>
        <time>2018-07-04T08:57:34Z</time>
      </trkpt>
      <trkpt lat="46.282377" lon="6.803423">
        <ele>1160.654</ele>
        <time>2018-07-04T08:57:45Z</time>
      </trkpt>
      <trkpt lat="46.282340" lon="6.803370">
        <ele>1161.946</ele>
        <time>2018-07-04T08:58:00Z</time>
      </trkpt>
      <trkpt lat="46.282315" lon="6.803312">
        <ele>1162.788</ele>
        <time>2018-07-04T08:58:13Z</time>
      </trkpt>
      <trkpt lat="46.282277" lon="6.803275">
        <ele>1163.616</ele>
        <time>2018-07-04T08:58:32Z</time>
      </trkpt>
      <trkpt lat="46.282230" lon="6.803268">
        <ele>1164.608</ele>
        <time>2018-07-04T08:59:00Z</time>
      </trkpt>
      <trkpt lat="46.282197" lon="6.803221">
        <ele>1165.836</ele>
        <time>2018-07-04T08:59:11Z</time>
      </trkpt>
      <trkpt lat="46.282156" lon="6.803180">
        <ele>1167.792</ele>
        <time>2018-07-04T08:59:28Z</time>
      </trkpt>
      <trkpt lat="46.282130" lon="6.803125">
        <ele>1168.874</ele>
        <time>2018-07-04T08:59:43Z</time>
      </trkpt>
      <trkpt lat="46.282107" lon="6.803065">
        <ele>1169.860</ele>
        <time>2018-07-04T09:00:03Z</time>
      </trkpt>
      <trkpt lat="46.282066" lon="6.803035">
        <ele>1171.922</ele>
        <time>2018-07-04T09:00:26Z</time>
      </trkpt>
      <trkpt lat="46.282020" lon="6.803024">
        <ele>1174.199</ele>
        <time>2018-07-04T09:00:40Z</time>
      </trkpt>
      <trkpt lat="46.281979" lon="6.802986">
        <ele>1175.825</ele>
        <time>2018-07-04T09:01:01Z</time>
      </trkpt>
      <trkpt lat="46.281934" lon="6.802963">
        <ele>1177.410</ele>
        <time>2018-07-04T09:01:18Z</time>
      </trkpt>
      <trkpt lat="46.281889" lon="6.802929">
        <ele>1178.955</ele>
        <time>2018-07-04T09:01:37Z</time>
      </trkpt>
      <trkpt lat="46.281845" lon="6.802900">
        <ele>1180.507</ele>
        <time>2018-07-04T09:01:49Z</time>
      </trkpt>
      <trkpt lat="46.281789" lon="6.802877">
        <ele>1182.717</ele>
        <time>2018-07-04T09:02:06Z</time>
      </trkpt>
      <trkpt lat="46.281742" lon="6.802884">
        <ele>1184.808</ele>
        <time>2018-07-04T09:02:26Z</time>
      </trkpt>
      <trkpt lat="46.281697" lon="6.802857">
        <ele>1186.787</ele>
        <time>2018-07-04T09:02:44Z</time>
      </trkpt>
      <trkpt lat="46.281651" lon="6.802816">
        <ele>1188.623</ele>
        <time>2018-07-04T09:02:52Z</time>
      </trkpt>
      <trkpt lat="46.281615" lon="6.802769">
        <ele>1189.995</ele>
        <time>2018-07-04T09:03:01Z</time>
      </trkpt>
      <trkpt lat="46.281580" lon="6.802717">
        <ele>1190.511</ele>
        <time>2018-07-04T09:03:11Z</time>
      </trkpt>
      <trkpt lat="46.281535" lon="6.802693">
        <ele>1192.043</ele>
        <time>2018-07-04T09:03:22Z</time>
      </trkpt>
      <trkpt lat="46.281491" lon="6.802654">
        <ele>1193.350</ele>
        <time>2018-07-04T09:03:30Z</time>
      </trkpt>
      <trkpt lat="46.281454" lon="6.802612">
        <ele>1194.416</ele>
        <time>2018-07-04T09:03:36Z</time>
      </trkpt>
      <trkpt lat="46.281436" lon="6.802545">
        <ele>1194.341</ele>
        <time>2018-07-04T09:03:51Z</time>
      </trkpt>
      <trkpt lat="46.281414" lon="6.802483">
        <ele>1194.695</ele>
        <time>2018-07-04T09:04:13Z</time>
      </trkpt>
      <trkpt lat="46.281381" lon="6.802438">
        <ele>1195.549</ele>
        <time>2018-07-04T09:04:32Z</time>
      </trkpt>
      <trkpt lat="46.281331" lon="6.802395">
        <ele>1197.823</ele>
        <time>2018-07-04T09:04:52Z</time>
      </trkpt>
      <trkpt lat="46.281296" lon="6.802350">
        <ele>1199.408</ele>
        <time>2018-07-04T09:05:11Z</time>
      </trkpt>
      <trkpt lat="46.281260" lon="6.802311">
        <ele>1201.461</ele>
        <time>2018-07-04T09:05:26Z</time>
      </trkpt>
      <trkpt lat="46.281214" lon="6.802320">
        <ele>1204.397</ele>
        <time>2018-07-04T09:06:02Z</time>
      </trkpt>
      <trkpt lat="46.281172" lon="6.802289">
        <ele>1206.949</ele>
        <time>2018-07-04T09:06:13Z</time>
      </trkpt>
      <trkpt lat="46.281127" lon="6.802261">
        <ele>1209.845</ele>
        <time>2018-07-04T09:06:24Z</time>
      </trkpt>
      <trkpt lat="46.281082" lon="6.802243">
        <ele>1212.427</ele>
        <time>2018-07-04T09:06:44Z</time>
      </trkpt>
      <trkpt lat="46.281033" lon="6.802255">
        <ele>1214.764</ele>
        <time>2018-07-04T09:06:56Z</time>
      </trkpt>
      <trkpt lat="46.280995" lon="6.802299">
        <ele>1216.250</ele>
        <time>2018-07-04T09:07:04Z</time>
      </trkpt>
      <trkpt lat="46.280961" lon="6.802349">
        <ele>1217.475</ele>
        <time>2018-07-04T09:07:20Z</time>
      </trkpt>
      <trkpt lat="46.280918" lon="6.802379">
        <ele>1219.085</ele>
        <time>2018-07-04T09:07:30Z</time>
      </trkpt>
      <trkpt lat="46.280872" lon="6.802398">
        <ele>1220.889</ele>
        <time>2018-07-04T09:07:49Z</time>
      </trkpt>
      <trkpt lat="46.280827" lon="6.802379">
        <ele>1223.017</ele>
        <time>2018-07-04T09:08:01Z</time>
      </trkpt>
      <trkpt lat="46.280808" lon="6.802319">
        <ele>1224.608</ele>
        <time>2018-07-04T09:08:59Z</time>
      </trkpt>
      <trkpt lat="46.280800" lon="6.802248">
        <ele>1225.920</ele>
        <time>2018-07-04T09:09:10Z</time>
      </trkpt>
      <trkpt lat="46.280783" lon="6.802183">
        <ele>1227.176</ele>
        <time>2018-07-04T09:09:19Z</time>
      </trkpt>
      <trkpt lat="46.280763" lon="6.802120">
        <ele>1228.348</ele>
        <time>2018-07-04T09:09:28Z</time>
      </trkpt>
      <trkpt lat="46.280751" lon="6.802053">
        <ele>1229.274</ele>
        <time>2018-07-04T09:09:39Z</time>
      </trkpt>
      <trkpt lat="46.280752" lon="6.802119">
        <ele>1228.746</ele>
        <time>2018-07-04T09:10:09Z</time>
      </trkpt>
      <trkpt lat="46.280749" lon="6.802197">
        <ele>1228.293</ele>
        <time>2018-07-04T09:10:27Z</time>
      </trkpt>
      <trkpt lat="46.280735" lon="6.802262">
        <ele>1228.139</ele>
        <time>2018-07-04T09:10:32Z</time>
      </trkpt>
      <trkpt lat="46.280718" lon="6.802330">
        <ele>1228.194</ele>
        <time>2018-07-04T09:10:38Z</time>
      </trkpt>
      <trkpt lat="46.280698" lon="6.802395">
        <ele>1228.312</ele>
        <time>2018-07-04T09:10:44Z</time>
      </trkpt>
      <trkpt lat="46.280681" lon="6.802458">
        <ele>1228.532</ele>
        <time>2018-07-04T09:10:50Z</time>
      </trkpt>
      <trkpt lat="46.280660" lon="6.802523">
        <ele>1229.105</ele>
        <time>2018-07-04T09:10:57Z</time>
      </trkpt>
      <trkpt lat="46.280651" lon="6.802595">
        <ele>1229.308</ele>
        <time>2018-07-04T09:11:05Z</time>
      </trkpt>
      <trkpt lat="46.280641" lon="6.802659">
        <ele>1229.623</ele>
        <time>2018-07-04T09:11:12Z</time>
      </trkpt>
      <trkpt lat="46.280633" lon="6.802727">
        <ele>1229.839</ele>
        <time>2018-07-04T09:11:19Z</time>
      </trkpt>
      <trkpt lat="46.280618" lon="6.802789">
        <ele>1230.381</ele>
        <time>2018-07-04T09:11:26Z</time>
      </trkpt>
      <trkpt lat="46.280607" lon="6.802853">
        <ele>1231.017</ele>
        <time>2018-07-04T09:11:33Z</time>
      </trkpt>
      <trkpt lat="46.280597" lon="6.802919">
        <ele>1231.639</ele>
        <time>2018-07-04T09:11:40Z</time>
      </trkpt>
      <trkpt lat="46.280592" lon="6.802985">
        <ele>1232.156</ele>
        <time>2018-07-04T09:11:47Z</time>
      </trkpt>
      <trkpt lat="46.280572" lon="6.803045">
        <ele>1233.242</ele>
        <time>2018-07-04T09:11:54Z</time>
      </trkpt>
      <trkpt lat="46.280541" lon="6.803099">
        <ele>1234.547</ele>
        <time>2018-07-04T09:12:03Z</time>
      </trkpt>
      <trkpt lat="46.280496" lon="6.803111">
        <ele>1236.593</ele>
        <time>2018-07-04T09:12:24Z</time>
      </trkpt>
      <trkpt lat="46.280466" lon="6.803175">
        <ele>1237.365</ele>
        <time>2018-07-04T09:12:41Z</time>
      </trkpt>
      <trkpt lat="46.280462" lon="6.803252">
        <ele>1237.021</ele>
        <time>2018-07-04T09:12:51Z</time>
      </trkpt>
      <trkpt lat="46.280444" lon="6.803245">
        <ele>1237.708</ele>
        <time>2018-07-04T09:14:28Z</time>
      </trkpt>
      <trkpt lat="46.280404" lon="6.803280">
        <ele>1239.071</ele>
        <time>2018-07-04T09:14:36Z</time>
      </trkpt>
      <trkpt lat="46.280368" lon="6.803322">
        <ele>1239.997</ele>
        <time>2018-07-04T09:14:45Z</time>
      </trkpt>
      <trkpt lat="46.280347" lon="6.803387">
        <ele>1239.649</ele>
        <time>2018-07-04T09:14:54Z</time>
      </trkpt>
      <trkpt lat="46.280305" lon="6.803429">
        <ele>1240.375</ele>
        <time>2018-07-04T09:15:01Z</time>
      </trkpt>
      <trkpt lat="46.280265" lon="6.803467">
        <ele>1241.167</ele>
        <time>2018-07-04T09:15:08Z</time>
      </trkpt>
      <trkpt lat="46.280227" lon="6.803511">
        <ele>1241.734</ele>
        <time>2018-07-04T09:15:16Z</time>
      </trkpt>
      <trkpt lat="46.280184" lon="6.803551">
        <ele>1242.580</ele>
        <time>2018-07-04T09:15:24Z</time>
      </trkpt>
      <trkpt lat="46.280138" lon="6.803585">
        <ele>1243.515</ele>
        <time>2018-07-04T09:15:33Z</time>
      </trkpt>
      <trkpt lat="46.280098" lon="6.803622">
        <ele>1244.332</ele>
        <time>2018-07-04T09:15:39Z</time>
      </trkpt>
      <trkpt lat="46.280053" lon="6.803658">
        <ele>1245.192</ele>
        <time>2018-07-04T09:15:45Z</time>
      </trkpt>
      <trkpt lat="46.280008" lon="6.803694">
        <ele>1245.911</ele>
        <time>2018-07-04T09:15:52Z</time>
      </trkpt>
      <trkpt lat="46.279959" lon="6.803721">
        <ele>1246.808</ele>
        <time>2018-07-04T09:15:58Z</time>
      </trkpt>
      <trkpt lat="46.279908" lon="6.803747">
        <ele>1247.635</ele>
        <time>2018-07-04T09:16:04Z</time>
      </trkpt>
      <trkpt lat="46.279863" lon="6.803765">
        <ele>1248.381</ele>
        <time>2018-07-04T09:16:09Z</time>
      </trkpt>
      <trkpt lat="46.279815" lon="6.803796">
        <ele>1248.713</ele>
        <time>2018-07-04T09:16:14Z</time>
      </trkpt>
      <trkpt lat="46.279766" lon="6.803835">
        <ele>1248.769</ele>
        <time>2018-07-04T09:16:19Z</time>
      </trkpt>
      <trkpt lat="46.279727" lon="6.803884">
        <ele>1248.161</ele>
        <time>2018-07-04T09:16:24Z</time>
      </trkpt>
      <trkpt lat="46.279685" lon="6.803924">
        <ele>1247.878</ele>
        <time>2018-07-04T09:16:30Z</time>
      </trkpt>
      <trkpt lat="46.279643" lon="6.803961">
        <ele>1247.534</ele>
        <time>2018-07-04T09:16:36Z</time>
      </trkpt>
      <trkpt lat="46.279603" lon="6.803999">
        <ele>1247.179</ele>
        <time>2018-07-04T09:16:41Z</time>
      </trkpt>
      <trkpt lat="46.279565" lon="6.804053">
        <ele>1246.043</ele>
        <time>2018-07-04T09:16:46Z</time>
      </trkpt>
      <trkpt lat="46.279525" lon="6.804092">
        <ele>1245.464</ele>
        <time>2018-07-04T09:16:51Z</time>
      </trkpt>
      <trkpt lat="46.279485" lon="6.804141">
        <ele>1244.310</ele>
        <time>2018-07-04T09:16:56Z</time>
      </trkpt>
      <trkpt lat="46.279445" lon="6.804193">
        <ele>1243.308</ele>
        <time>2018-07-04T09:17:01Z</time>
      </trkpt>
      <trkpt lat="46.279399" lon="6.804234">
        <ele>1243.566</ele>
        <time>2018-07-04T09:17:06Z</time>
      </trkpt>
      <trkpt lat="46.279352" lon="6.804271">
        <ele>1243.872</ele>
        <time>2018-07-04T09:17:11Z</time>
      </trkpt>
      <trkpt lat="46.279316" lon="6.804325">
        <ele>1243.234</ele>
        <time>2018-07-04T09:17:17Z</time>
      </trkpt>
      <trkpt lat="46.279293" lon="6.804387">
        <ele>1241.970</ele>
        <time>2018-07-04T09:17:25Z</time>
      </trkpt>
      <trkpt lat="46.279250" lon="6.804411">
        <ele>1242.292</ele>
        <time>2018-07-04T09:17:40Z</time>
      </trkpt>
      <trkpt lat="46.279224" lon="6.804351">
        <ele>1244.739</ele>
        <time>2018-07-04T09:17:57Z</time>
      </trkpt>
      <trkpt lat="46.279219" lon="6.804286">
        <ele>1246.885</ele>
        <time>2018-07-04T09:18:14Z</time>
      </trkpt>
      <trkpt lat="46.279231" lon="6.804219">
        <ele>1248.550</ele>
        <time>2018-07-04T09:18:46Z</time>
      </trkpt>
      <trkpt lat="46.279174" lon="6.804202">
        <ele>1250.766</ele>
        <time>2018-07-04T09:19:21Z</time>
      </trkpt>
      <trkpt lat="46.279115" lon="6.804223">
        <ele>1252.329</ele>
        <time>2018-07-04T09:19:37Z</time>
      </trkpt>
      <trkpt lat="46.279067" lon="6.804248">
        <ele>1253.421</ele>
        <time>2018-07-04T09:19:52Z</time>
      </trkpt>
      <trkpt lat="46.279016" lon="6.804244">
        <ele>1255.608</ele>
        <time>2018-07-04T09:19:57Z</time>
      </trkpt>
      <trkpt lat="46.278979" lon="6.804290">
        <ele>1255.788</ele>
        <time>2018-07-04T09:20:05Z</time>
      </trkpt>
      <trkpt lat="46.278923" lon="6.804321">
        <ele>1257.194</ele>
        <time>2018-07-04T09:20:30Z</time>
      </trkpt>
      <trkpt lat="46.278883" lon="6.804288">
        <ele>1259.786</ele>
        <time>2018-07-04T09:20:35Z</time>
      </trkpt>
      <trkpt lat="46.278831" lon="6.804278">
        <ele>1261.392</ele>
        <time>2018-07-04T09:20:43Z</time>
      </trkpt>
      <trkpt lat="46.278796" lon="6.804232">
        <ele>1263.424</ele>
        <time>2018-07-04T09:20:51Z</time>
      </trkpt>
      <trkpt lat="46.278748" lon="6.804217">
        <ele>1264.921</ele>
        <time>2018-07-04T09:21:05Z</time>
      </trkpt>
      <trkpt lat="46.278702" lon="6.804203">
        <ele>1266.347</ele>
        <time>2018-07-04T09:21:15Z</time>
      </trkpt>
      <trkpt lat="46.278654" lon="6.804179">
        <ele>1267.842</ele>
        <time>2018-07-04T09:21:32Z</time>
      </trkpt>
      <trkpt lat="46.278687" lon="6.804064">
        <ele>1270.535</ele>
        <time>2018-07-04T09:21:50Z</time>
      </trkpt>
      <trkpt lat="46.278736" lon="6.804021">
        <ele>1271.086</ele>
        <time>2018-07-04T09:22:18Z</time>
      </trkpt>
      <trkpt lat="46.278690" lon="6.804019">
        <ele>1271.914</ele>
        <time>2018-07-04T09:23:14Z</time>
      </trkpt>
      <trkpt lat="46.278649" lon="6.803976">
        <ele>1273.908</ele>
        <time>2018-07-04T09:23:23Z</time>
      </trkpt>
      <trkpt lat="46.278592" lon="6.803937">
        <ele>1275.725</ele>
        <time>2018-07-04T09:23:53Z</time>
      </trkpt>
      <trkpt lat="46.278549" lon="6.803905">
        <ele>1276.821</ele>
        <time>2018-07-04T09:24:01Z</time>
      </trkpt>
      <trkpt lat="46.278493" lon="6.803881">
        <ele>1277.873</ele>
        <time>2018-07-04T09:24:10Z</time>
      </trkpt>
      <trkpt lat="46.278444" lon="6.803862">
        <ele>1279.079</ele>
        <time>2018-07-04T09:24:18Z</time>
      </trkpt>
      <trkpt lat="46.278399" lon="6.803829">
        <ele>1280.931</ele>
        <time>2018-07-04T09:24:29Z</time>
      </trkpt>
      <trkpt lat="46.278356" lon="6.803797">
        <ele>1282.978</ele>
        <time>2018-07-04T09:24:36Z</time>
      </trkpt>
      <trkpt lat="46.278294" lon="6.803805">
        <ele>1282.924</ele>
        <time>2018-07-04T09:24:55Z</time>
      </trkpt>
      <trkpt lat="46.278254" lon="6.803772">
        <ele>1284.939</ele>
        <time>2018-07-04T09:25:17Z</time>
      </trkpt>
      <trkpt lat="46.278211" lon="6.803745">
        <ele>1286.686</ele>
        <time>2018-07-04T09:25:22Z</time>
      </trkpt>
      <trkpt lat="46.278163" lon="6.803719">
        <ele>1288.360</ele>
        <time>2018-07-04T09:25:30Z</time>
      </trkpt>
      <trkpt lat="46.278121" lon="6.803681">
        <ele>1290.426</ele>
        <time>2018-07-04T09:25:38Z</time>
      </trkpt>
      <trkpt lat="46.278081" lon="6.803646">
        <ele>1292.308</ele>
        <time>2018-07-04T09:25:50Z</time>
      </trkpt>
      <trkpt lat="46.278050" lon="6.803597">
        <ele>1294.920</ele>
        <time>2018-07-04T09:25:59Z</time>
      </trkpt>
      <trkpt lat="46.278029" lon="6.803686">
        <ele>1291.386</ele>
        <time>2018-07-04T09:26:37Z</time>
      </trkpt>
      <trkpt lat="46.278026" lon="6.803757">
        <ele>1288.288</ele>
        <time>2018-07-04T09:26:42Z</time>
      </trkpt>
      <trkpt lat="46.278007" lon="6.803842">
        <ele>1285.044</ele>
        <time>2018-07-04T09:26:52Z</time>
      </trkpt>
      <trkpt lat="46.277928" lon="6.803906">
        <ele>1285.866</ele>
        <time>2018-07-04T09:27:12Z</time>
      </trkpt>
      <trkpt lat="46.277891" lon="6.803945">
        <ele>1286.893</ele>
        <time>2018-07-04T09:27:17Z</time>
      </trkpt>
      <trkpt lat="46.277860" lon="6.804001">
        <ele>1287.419</ele>
        <time>2018-07-04T09:27:27Z</time>
      </trkpt>
      <trkpt lat="46.277822" lon="6.804040">
        <ele>1288.564</ele>
        <time>2018-07-04T09:27:34Z</time>
      </trkpt>
      <trkpt lat="46.277800" lon="6.804098">
        <ele>1288.857</ele>
        <time>2018-07-04T09:27:40Z</time>
      </trkpt>
      <trkpt lat="46.277777" lon="6.804163">
        <ele>1289.100</ele>
        <time>2018-07-04T09:27:47Z</time>
      </trkpt>
      <trkpt lat="46.277777" lon="6.804235">
        <ele>1288.520</ele>
        <time>2018-07-04T09:27:56Z</time>
      </trkpt>
      <trkpt lat="46.277766" lon="6.804303">
        <ele>1288.508</ele>
        <time>2018-07-04T09:28:03Z</time>
      </trkpt>
      <trkpt lat="46.277761" lon="6.804377">
        <ele>1288.267</ele>
        <time>2018-07-04T09:28:18Z</time>
      </trkpt>
      <trkpt lat="46.277728" lon="6.804451">
        <ele>1288.963</ele>
        <time>2018-07-04T09:28:33Z</time>
      </trkpt>
      <trkpt lat="46.277687" lon="6.804499">
        <ele>1289.955</ele>
        <time>2018-07-04T09:28:48Z</time>
      </trkpt>
      <trkpt lat="46.277643" lon="6.804522">
        <ele>1291.431</ele>
        <time>2018-07-04T09:29:04Z</time>
      </trkpt>
      <trkpt lat="46.277597" lon="6.804516">
        <ele>1293.253</ele>
        <time>2018-07-04T09:29:18Z</time>
      </trkpt>
      <trkpt lat="46.277554" lon="6.804484">
        <ele>1295.320</ele>
        <time>2018-07-04T09:29:38Z</time>
      </trkpt>
      <trkpt lat="46.277525" lon="6.804433">
        <ele>1297.286</ele>
        <time>2018-07-04T09:29:52Z</time>
      </trkpt>
      <trkpt lat="46.277499" lon="6.804365">
        <ele>1299.211</ele>
        <time>2018-07-04T09:30:06Z</time>
      </trkpt>
      <trkpt lat="46.277491" lon="6.804293">
        <ele>1300.592</ele>
        <time>2018-07-04T09:30:22Z</time>
      </trkpt>
      <trkpt lat="46.277498" lon="6.804223">
        <ele>1301.373</ele>
        <time>2018-07-04T09:30:41Z</time>
      </trkpt>
      <trkpt lat="46.277483" lon="6.804154">
        <ele>1302.920</ele>
        <time>2018-07-04T09:30:53Z</time>
      </trkpt>
      <trkpt lat="46.277456" lon="6.804098">
        <ele>1305.008</ele>
        <time>2018-07-04T09:30:59Z</time>
      </trkpt>
      <trkpt lat="46.277419" lon="6.804052">
        <ele>1307.391</ele>
        <time>2018-07-04T09:31:09Z</time>
      </trkpt>
      <trkpt lat="46.277393" lon="6.803995">
        <ele>1309.387</ele>
        <time>2018-07-04T09:31:18Z</time>
      </trkpt>
      <trkpt lat="46.277383" lon="6.803928">
        <ele>1310.979</ele>
        <time>2018-07-04T09:31:28Z</time>
      </trkpt>
      <trkpt lat="46.277354" lon="6.803872">
        <ele>1313.225</ele>
        <time>2018-07-04T09:31:39Z</time>
      </trkpt>
      <trkpt lat="46.277310" lon="6.803885">
        <ele>1314.617</ele>
        <time>2018-07-04T09:32:00Z</time>
      </trkpt>
      <trkpt lat="46.277278" lon="6.803936">
        <ele>1314.924</ele>
        <time>2018-07-04T09:32:09Z</time>
      </trkpt>
      <trkpt lat="46.277245" lon="6.803999">
        <ele>1315.170</ele>
        <time>2018-07-04T09:32:21Z</time>
      </trkpt>
      <trkpt lat="46.277223" lon="6.804068">
        <ele>1314.715</ele>
        <time>2018-07-04T09:32:43Z</time>
      </trkpt>
      <trkpt lat="46.277162" lon="6.804105">
        <ele>1316.299</ele>
        <time>2018-07-04T09:32:57Z</time>
      </trkpt>
      <trkpt lat="46.277128" lon="6.804151">
        <ele>1316.707</ele>
        <time>2018-07-04T09:33:08Z</time>
      </trkpt>
      <trkpt lat="46.277080" lon="6.804158">
        <ele>1318.327</ele>
        <time>2018-07-04T09:33:17Z</time>
      </trkpt>
      <trkpt lat="46.277051" lon="6.804214">
        <ele>1318.608</ele>
        <time>2018-07-04T09:33:36Z</time>
      </trkpt>
      <trkpt lat="46.277029" lon="6.804272">
        <ele>1318.791</ele>
        <time>2018-07-04T09:33:50Z</time>
      </trkpt>
      <trkpt lat="46.276993" lon="6.804314">
        <ele>1319.697</ele>
        <time>2018-07-04T09:34:00Z</time>
      </trkpt>
      <trkpt lat="46.276947" lon="6.804315">
        <ele>1321.319</ele>
        <time>2018-07-04T09:34:12Z</time>
      </trkpt>
      <trkpt lat="46.276899" lon="6.804341">
        <ele>1322.735</ele>
        <time>2018-07-04T09:34:22Z</time>
      </trkpt>
      <trkpt lat="46.276851" lon="6.804353">
        <ele>1324.137</ele>
        <time>2018-07-04T09:34:29Z</time>
      </trkpt>
      <trkpt lat="46.276806" lon="6.804329">
        <ele>1325.944</ele>
        <time>2018-07-04T09:34:37Z</time>
      </trkpt>
      <trkpt lat="46.276761" lon="6.804302">
        <ele>1327.850</ele>
        <time>2018-07-04T09:34:45Z</time>
      </trkpt>
      <trkpt lat="46.276716" lon="6.804278">
        <ele>1329.785</ele>
        <time>2018-07-04T09:34:57Z</time>
      </trkpt>
      <trkpt lat="46.276669" lon="6.804269">
        <ele>1331.467</ele>
        <time>2018-07-04T09:35:06Z</time>
      </trkpt>
      <trkpt lat="46.276619" lon="6.804262">
        <ele>1332.581</ele>
        <time>2018-07-04T09:35:12Z</time>
      </trkpt>
      <trkpt lat="46.276572" lon="6.804267">
        <ele>1333.319</ele>
        <time>2018-07-04T09:35:19Z</time>
      </trkpt>
      <trkpt lat="46.276527" lon="6.804293">
        <ele>1333.708</ele>
        <time>2018-07-04T09:35:35Z</time>
      </trkpt>
      <trkpt lat="46.276482" lon="6.804317">
        <ele>1334.298</ele>
        <time>2018-07-04T09:35:47Z</time>
      </trkpt>
      <trkpt lat="46.276444" lon="6.804354">
        <ele>1334.344</ele>
        <time>2018-07-04T09:35:55Z</time>
      </trkpt>
      <trkpt lat="46.276391" lon="6.804357">
        <ele>1335.276</ele>
        <time>2018-07-04T09:36:11Z</time>
      </trkpt>
      <trkpt lat="46.276351" lon="6.804387">
        <ele>1336.542</ele>
        <time>2018-07-04T09:36:19Z</time>
      </trkpt>
      <trkpt lat="46.276302" lon="6.804410">
        <ele>1338.364</ele>
        <time>2018-07-04T09:36:28Z</time>
      </trkpt>
      <trkpt lat="46.276266" lon="6.804454">
        <ele>1339.161</ele>
        <time>2018-07-04T09:36:33Z</time>
      </trkpt>
      <trkpt lat="46.276223" lon="6.804488">
        <ele>1340.487</ele>
        <time>2018-07-04T09:36:43Z</time>
      </trkpt>
      <trkpt lat="46.276178" lon="6.804507">
        <ele>1341.932</ele>
        <time>2018-07-04T09:36:50Z</time>
      </trkpt>
      <trkpt lat="46.276135" lon="6.804545">
        <ele>1342.957</ele>
        <time>2018-07-04T09:37:02Z</time>
      </trkpt>
      <trkpt lat="46.276118" lon="6.804614">
        <ele>1342.100</ele>
        <time>2018-07-04T09:37:11Z</time>
      </trkpt>
      <trkpt lat="46.276086" lon="6.804690">
        <ele>1342.220</ele>
        <time>2018-07-04T09:37:21Z</time>
      </trkpt>
      <trkpt lat="46.276068" lon="6.804760">
        <ele>1341.808</ele>
        <time>2018-07-04T09:37:27Z</time>
      </trkpt>
      <trkpt lat="46.276036" lon="6.804823">
        <ele>1342.387</ele>
        <time>2018-07-04T09:37:34Z</time>
      </trkpt>
      <trkpt lat="46.276029" lon="6.804893">
        <ele>1341.333</ele>
        <time>2018-07-04T09:37:48Z</time>
      </trkpt>
      <trkpt lat="46.275993" lon="6.804932">
        <ele>1342.495</ele>
        <time>2018-07-04T09:37:51Z</time>
      </trkpt>
      <trkpt lat="46.275961" lon="6.804990">
        <ele>1342.861</ele>
        <time>2018-07-04T09:37:56Z</time>
      </trkpt>
      <trkpt lat="46.275941" lon="6.805052">
        <ele>1342.483</ele>
        <time>2018-07-04T09:38:02Z</time>
      </trkpt>
      <trkpt lat="46.275916" lon="6.805108">
        <ele>1342.440</ele>
        <time>2018-07-04T09:38:10Z</time>
      </trkpt>
      <trkpt lat="46.275880" lon="6.805160">
        <ele>1343.166</ele>
        <time>2018-07-04T09:38:23Z</time>
      </trkpt>
      <trkpt lat="46.275850" lon="6.805230">
        <ele>1343.111</ele>
        <time>2018-07-04T09:38:38Z</time>
      </trkpt>
      <trkpt lat="46.275826" lon="6.805294">
        <ele>1342.912</ele>
        <time>2018-07-04T09:38:45Z</time>
      </trkpt>
      <trkpt lat="46.275796" lon="6.805351">
        <ele>1342.732</ele>
        <time>2018-07-04T09:38:59Z</time>
      </trkpt>
      <trkpt lat="46.275748" lon="6.805353">
        <ele>1344.705</ele>
        <time>2018-07-04T09:39:13Z</time>
      </trkpt>
      <trkpt lat="46.275702" lon="6.805322">
        <ele>1347.208</ele>
        <time>2018-07-04T09:39:35Z</time>
      </trkpt>
      <trkpt lat="46.275642" lon="6.805309">
        <ele>1349.973</ele>
        <time>2018-07-04T09:39:57Z</time>
      </trkpt>
      <trkpt lat="46.275589" lon="6.805301">
        <ele>1352.289</ele>
        <time>2018-07-04T09:40:10Z</time>
      </trkpt>
      <trkpt lat="46.275537" lon="6.805320">
        <ele>1353.921</ele>
        <time>2018-07-04T09:40:19Z</time>
      </trkpt>
      <trkpt lat="46.275476" lon="6.805367">
        <ele>1355.317</ele>
        <time>2018-07-04T09:40:35Z</time>
      </trkpt>
      <trkpt lat="46.275456" lon="6.805428">
        <ele>1354.949</ele>
        <time>2018-07-04T09:40:45Z</time>
      </trkpt>
      <trkpt lat="46.275387" lon="6.805508">
        <ele>1355.966</ele>
        <time>2018-07-04T09:41:05Z</time>
      </trkpt>
      <trkpt lat="46.275330" lon="6.805536">
        <ele>1357.582</ele>
        <time>2018-07-04T09:41:42Z</time>
      </trkpt>
      <trkpt lat="46.275277" lon="6.805549">
        <ele>1359.277</ele>
        <time>2018-07-04T09:41:54Z</time>
      </trkpt>
      <trkpt lat="46.275231" lon="6.805597">
        <ele>1360.795</ele>
        <time>2018-07-04T09:42:01Z</time>
      </trkpt>
      <trkpt lat="46.275187" lon="6.805652">
        <ele>1361.949</ele>
        <time>2018-07-04T09:42:10Z</time>
      </trkpt>
      <trkpt lat="46.275108" lon="6.805696">
        <ele>1365.023</ele>
        <time>2018-07-04T09:42:29Z</time>
      </trkpt>
      <trkpt lat="46.275065" lon="6.805734">
        <ele>1366.308</ele>
        <time>2018-07-04T09:42:40Z</time>
      </trkpt>
      <trkpt lat="46.275023" lon="6.805766">
        <ele>1367.621</ele>
        <time>2018-07-04T09:42:51Z</time>
      </trkpt>
      <trkpt lat="46.274963" lon="6.805788">
        <ele>1370.197</ele>
        <time>2018-07-04T09:43:04Z</time>
      </trkpt>
      <trkpt lat="46.274947" lon="6.805853">
        <ele>1369.249</ele>
        <time>2018-07-04T09:43:16Z</time>
      </trkpt>
      <trkpt lat="46.274911" lon="6.805894">
        <ele>1370.045</ele>
        <time>2018-07-04T09:43:26Z</time>
      </trkpt>
      <trkpt lat="46.274866" lon="6.805935">
        <ele>1371.217</ele>
        <time>2018-07-04T09:43:32Z</time>
      </trkpt>
      <trkpt lat="46.274830" lon="6.806005">
        <ele>1371.284</ele>
        <time>2018-07-04T09:43:42Z</time>
      </trkpt>
      <trkpt lat="46.274823" lon="6.806072">
        <ele>1369.960</ele>
        <time>2018-07-04T09:43:47Z</time>
      </trkpt>
      <trkpt lat="46.274802" lon="6.806138">
        <ele>1369.385</ele>
        <time>2018-07-04T09:43:52Z</time>
      </trkpt>
      <trkpt lat="46.274768" lon="6.806192">
        <ele>1369.573</ele>
        <time>2018-07-04T09:43:59Z</time>
      </trkpt>
      <trkpt lat="46.274726" lon="6.806215">
        <ele>1370.885</ele>
        <time>2018-07-04T09:44:04Z</time>
      </trkpt>
      <trkpt lat="46.274684" lon="6.806247">
        <ele>1371.713</ele>
        <time>2018-07-04T09:44:10Z</time>
      </trkpt>
      <trkpt lat="46.274640" lon="6.806231">
        <ele>1374.108</ele>
        <time>2018-07-04T09:44:20Z</time>
      </trkpt>
      <trkpt lat="46.274591" lon="6.806225">
        <ele>1376.529</ele>
        <time>2018-07-04T09:44:29Z</time>
      </trkpt>
      <trkpt lat="46.274541" lon="6.806222">
        <ele>1378.835</ele>
        <time>2018-07-04T09:44:37Z</time>
      </trkpt>
      <trkpt lat="46.274493" lon="6.806257">
        <ele>1379.767</ele>
        <time>2018-07-04T09:44:44Z</time>
      </trkpt>
      <trkpt lat="46.274440" lon="6.806306">
        <ele>1380.263</ele>
        <time>2018-07-04T09:44:59Z</time>
      </trkpt>
      <trkpt lat="46.274409" lon="6.806356">
        <ele>1379.765</ele>
        <time>2018-07-04T09:45:10Z</time>
      </trkpt>
      <trkpt lat="46.274371" lon="6.806404">
        <ele>1379.762</ele>
        <time>2018-07-04T09:45:20Z</time>
      </trkpt>
      <trkpt lat="46.274325" lon="6.806421">
        <ele>1381.168</ele>
        <time>2018-07-04T09:45:29Z</time>
      </trkpt>
      <trkpt lat="46.274245" lon="6.806425">
        <ele>1384.423</ele>
        <time>2018-07-04T09:45:42Z</time>
      </trkpt>
      <trkpt lat="46.274192" lon="6.806415">
        <ele>1387.026</ele>
        <time>2018-07-04T09:45:56Z</time>
      </trkpt>
      <trkpt lat="46.274158" lon="6.806469">
        <ele>1386.447</ele>
        <time>2018-07-04T09:46:02Z</time>
      </trkpt>
      <trkpt lat="46.274105" lon="6.806503">
        <ele>1387.111</ele>
        <time>2018-07-04T09:46:19Z</time>
      </trkpt>
      <trkpt lat="46.274060" lon="6.806481">
        <ele>1389.408</ele>
        <time>2018-07-04T09:46:24Z</time>
      </trkpt>
      <trkpt lat="46.274018" lon="6.806458">
        <ele>1391.664</ele>
        <time>2018-07-04T09:46:36Z</time>
      </trkpt>
      <trkpt lat="46.273966" lon="6.806433">
        <ele>1394.110</ele>
        <time>2018-07-04T09:47:46Z</time>
      </trkpt>
      <trkpt lat="46.273917" lon="6.806427">
        <ele>1396.032</ele>
        <time>2018-07-04T09:48:10Z</time>
      </trkpt>
      <trkpt lat="46.273860" lon="6.806415">
        <ele>1398.278</ele>
        <time>2018-07-04T09:48:28Z</time>
      </trkpt>
      <trkpt lat="46.273815" lon="6.806435">
        <ele>1399.210</ele>
        <time>2018-07-04T09:48:52Z</time>
      </trkpt>
      <trkpt lat="46.273774" lon="6.806407">
        <ele>1401.387</ele>
        <time>2018-07-04T09:49:08Z</time>
      </trkpt>
      <trkpt lat="46.273722" lon="6.806431">
        <ele>1402.563</ele>
        <time>2018-07-04T09:49:39Z</time>
      </trkpt>
      <trkpt lat="46.273676" lon="6.806454">
        <ele>1403.698</ele>
        <time>2018-07-04T09:49:51Z</time>
      </trkpt>
      <trkpt lat="46.273626" lon="6.806443">
        <ele>1405.517</ele>
        <time>2018-07-04T09:50:05Z</time>
      </trkpt>
      <trkpt lat="46.273577" lon="6.806429">
        <ele>1407.787</ele>
        <time>2018-07-04T09:50:16Z</time>
      </trkpt>
      <trkpt lat="46.273531" lon="6.806430">
        <ele>1409.615</ele>
        <time>2018-07-04T09:50:31Z</time>
      </trkpt>
      <trkpt lat="46.273491" lon="6.806460">
        <ele>1410.708</ele>
        <time>2018-07-04T09:50:44Z</time>
      </trkpt>
      <trkpt lat="46.273447" lon="6.806478">
        <ele>1412.123</ele>
        <time>2018-07-04T09:51:03Z</time>
      </trkpt>
      <trkpt lat="46.273399" lon="6.806502">
        <ele>1413.589</ele>
        <time>2018-07-04T09:51:24Z</time>
      </trkpt>
      <trkpt lat="46.273371" lon="6.806560">
        <ele>1413.281</ele>
        <time>2018-07-04T09:51:37Z</time>
      </trkpt>
      <trkpt lat="46.273327" lon="6.806577">
        <ele>1414.627</ele>
        <time>2018-07-04T09:51:53Z</time>
      </trkpt>
      <trkpt lat="46.273285" lon="6.806552">
        <ele>1417.349</ele>
        <time>2018-07-04T09:52:03Z</time>
      </trkpt>
      <trkpt lat="46.273209" lon="6.806503">
        <ele>1422.426</ele>
        <time>2018-07-04T09:52:34Z</time>
      </trkpt>
      <trkpt lat="46.273155" lon="6.806450">
        <ele>1426.472</ele>
        <time>2018-07-04T09:53:05Z</time>
      </trkpt>
      <trkpt lat="46.273106" lon="6.806457">
        <ele>1428.737</ele>
        <time>2018-07-04T09:53:34Z</time>
      </trkpt>
      <trkpt lat="46.273050" lon="6.806439">
        <ele>1432.075</ele>
        <time>2018-07-04T09:53:58Z</time>
      </trkpt>
      <trkpt lat="46.273003" lon="6.806444">
        <ele>1434.128</ele>
        <time>2018-07-04T09:54:13Z</time>
      </trkpt>
      <trkpt lat="46.272954" lon="6.806449">
        <ele>1436.220</ele>
        <time>2018-07-04T09:54:19Z</time>
      </trkpt>
      <trkpt lat="46.272909" lon="6.806461">
        <ele>1438.008</ele>
        <time>2018-07-04T09:54:28Z</time>
      </trkpt>
      <trkpt lat="46.272865" lon="6.806503">
        <ele>1439.099</ele>
        <time>2018-07-04T09:54:35Z</time>
      </trkpt>
      <trkpt lat="46.272828" lon="6.806442">
        <ele>1442.345</ele>
        <time>2018-07-04T09:55:03Z</time>
      </trkpt>
      <trkpt lat="46.272809" lon="6.806506">
        <ele>1441.697</ele>
        <time>2018-07-04T09:56:08Z</time>
      </trkpt>
      <trkpt lat="46.272769" lon="6.806539">
        <ele>1442.673</ele>
        <time>2018-07-04T09:56:18Z</time>
      </trkpt>
      <trkpt lat="46.272714" lon="6.806551">
        <ele>1444.765</ele>
        <time>2018-07-04T09:56:23Z</time>
      </trkpt>
      <trkpt lat="46.272670" lon="6.806574">
        <ele>1446.032</ele>
        <time>2018-07-04T09:56:30Z</time>
      </trkpt>
      <trkpt lat="46.272626" lon="6.806600">
        <ele>1447.248</ele>
        <time>2018-07-04T09:56:37Z</time>
      </trkpt>
      <trkpt lat="46.272579" lon="6.806639">
        <ele>1448.353</ele>
        <time>2018-07-04T09:56:43Z</time>
      </trkpt>
      <trkpt lat="46.272541" lon="6.806679">
        <ele>1448.984</ele>
        <time>2018-07-04T09:56:48Z</time>
      </trkpt>
      <trkpt lat="46.272497" lon="6.806722">
        <ele>1449.507</ele>
        <time>2018-07-04T09:56:55Z</time>
      </trkpt>
      <trkpt lat="46.272451" lon="6.806761">
        <ele>1450.517</ele>
        <time>2018-07-04T09:57:17Z</time>
      </trkpt>
      <trkpt lat="46.272411" lon="6.806805">
        <ele>1451.008</ele>
        <time>2018-07-04T09:57:27Z</time>
      </trkpt>
      <trkpt lat="46.272372" lon="6.806854">
        <ele>1451.380</ele>
        <time>2018-07-04T09:57:34Z</time>
      </trkpt>
      <trkpt lat="46.272333" lon="6.806891">
        <ele>1451.936</ele>
        <time>2018-07-04T09:57:44Z</time>
      </trkpt>
      <trkpt lat="46.272286" lon="6.806917">
        <ele>1453.178</ele>
        <time>2018-07-04T09:57:55Z</time>
      </trkpt>
      <trkpt lat="46.272243" lon="6.806966">
        <ele>1453.344</ele>
        <time>2018-07-04T09:58:05Z</time>
      </trkpt>
      <trkpt lat="46.272207" lon="6.807021">
        <ele>1453.026</ele>
        <time>2018-07-04T09:58:13Z</time>
      </trkpt>
      <trkpt lat="46.272170" lon="6.807059">
        <ele>1453.433</ele>
        <time>2018-07-04T09:58:20Z</time>
      </trkpt>
      <trkpt lat="46.272135" lon="6.807103">
        <ele>1453.359</ele>
        <time>2018-07-04T09:58:29Z</time>
      </trkpt>
      <trkpt lat="46.272124" lon="6.807176">
        <ele>1451.044</ele>
        <time>2018-07-04T09:58:38Z</time>
      </trkpt>
      <trkpt lat="46.272087" lon="6.807216">
        <ele>1451.155</ele>
        <time>2018-07-04T09:58:43Z</time>
      </trkpt>
      <trkpt lat="46.272040" lon="6.807256">
        <ele>1451.907</ele>
        <time>2018-07-04T09:58:48Z</time>
      </trkpt>
      <trkpt lat="46.271991" lon="6.807275">
        <ele>1453.617</ele>
        <time>2018-07-04T09:58:55Z</time>
      </trkpt>
      <trkpt lat="46.271945" lon="6.807289">
        <ele>1455.308</ele>
        <time>2018-07-04T09:59:10Z</time>
      </trkpt>
      <trkpt lat="46.271896" lon="6.807373">
        <ele>1455.287</ele>
        <time>2018-07-04T09:59:34Z</time>
      </trkpt>
      <trkpt lat="46.271852" lon="6.807400">
        <ele>1456.223</ele>
        <time>2018-07-04T09:59:41Z</time>
      </trkpt>
      <trkpt lat="46.271808" lon="6.807438">
        <ele>1456.835</ele>
        <time>2018-07-04T09:59:47Z</time>
      </trkpt>
      <trkpt lat="46.271786" lon="6.807501">
        <ele>1455.791</ele>
        <time>2018-07-04T10:00:01Z</time>
      </trkpt>
      <trkpt lat="46.271785" lon="6.807582">
        <ele>1455.133</ele>
        <time>2018-07-04T10:00:16Z</time>
      </trkpt>
      <trkpt lat="46.271739" lon="6.807622">
        <ele>1456.330</ele>
        <time>2018-07-04T10:00:41Z</time>
      </trkpt>
      <trkpt lat="46.271686" lon="6.807659">
        <ele>1457.756</ele>
        <time>2018-07-04T10:01:08Z</time>
      </trkpt>
      <trkpt lat="46.271636" lon="6.807685">
        <ele>1459.091</ele>
        <time>2018-07-04T10:01:22Z</time>
      </trkpt>
      <trkpt lat="46.271572" lon="6.807709">
        <ele>1460.885</ele>
        <time>2018-07-04T10:01:42Z</time>
      </trkpt>
      <trkpt lat="46.271527" lon="6.807765">
        <ele>1461.789</ele>
        <time>2018-07-04T10:02:08Z</time>
      </trkpt>
      <trkpt lat="46.271478" lon="6.807796">
        <ele>1463.217</ele>
        <time>2018-07-04T10:02:38Z</time>
      </trkpt>
      <trkpt lat="46.271419" lon="6.807794">
        <ele>1465.208</ele>
        <time>2018-07-04T10:02:58Z</time>
      </trkpt>
      <trkpt lat="46.271373" lon="6.807820">
        <ele>1467.070</ele>
        <time>2018-07-04T10:03:18Z</time>
      </trkpt>
      <trkpt lat="46.271325" lon="6.807800">
        <ele>1468.396</ele>
        <time>2018-07-04T10:03:42Z</time>
      </trkpt>
      <trkpt lat="46.271281" lon="6.807774">
        <ele>1469.518</ele>
        <time>2018-07-04T10:03:50Z</time>
      </trkpt>
      <trkpt lat="46.271233" lon="6.807769">
        <ele>1471.194</ele>
        <time>2018-07-04T10:04:10Z</time>
      </trkpt>
      <trkpt lat="46.271182" lon="6.807770">
        <ele>1472.886</ele>
        <time>2018-07-04T10:04:25Z</time>
      </trkpt>
      <trkpt lat="46.271137" lon="6.807800">
        <ele>1474.533</ele>
        <time>2018-07-04T10:04:44Z</time>
      </trkpt>
      <trkpt lat="46.271102" lon="6.807842">
        <ele>1476.249</ele>
        <time>2018-07-04T10:04:55Z</time>
      </trkpt>
      <trkpt lat="46.271056" lon="6.807844">
        <ele>1477.894</ele>
        <time>2018-07-04T10:05:00Z</time>
      </trkpt>
      <trkpt lat="46.271008" lon="6.807845">
        <ele>1479.515</ele>
        <time>2018-07-04T10:05:05Z</time>
      </trkpt>
      <trkpt lat="46.270979" lon="6.807897">
        <ele>1481.465</ele>
        <time>2018-07-04T10:05:14Z</time>
      </trkpt>
      <trkpt lat="46.270965" lon="6.807972">
        <ele>1483.311</ele>
        <time>2018-07-04T10:05:29Z</time>
      </trkpt>
      <trkpt lat="46.270950" lon="6.808035">
        <ele>1485.008</ele>
        <time>2018-07-04T10:05:39Z</time>
      </trkpt>
      <trkpt lat="46.270980" lon="6.808088">
        <ele>1484.273</ele>
        <time>2018-07-04T10:05:49Z</time>
      </trkpt>
      <trkpt lat="46.270972" lon="6.808167">
        <ele>1484.789</ele>
        <time>2018-07-04T10:06:02Z</time>
      </trkpt>
      <trkpt lat="46.270942" lon="6.808230">
        <ele>1486.221</ele>
        <time>2018-07-04T10:06:10Z</time>
      </trkpt>
      <trkpt lat="46.270918" lon="6.808295">
        <ele>1487.697</ele>
        <time>2018-07-04T10:06:29Z</time>
      </trkpt>
      <trkpt lat="46.270877" lon="6.808337">
        <ele>1489.849</ele>
        <time>2018-07-04T10:06:48Z</time>
      </trkpt>
      <trkpt lat="46.270844" lon="6.808383">
        <ele>1491.666</ele>
        <time>2018-07-04T10:07:04Z</time>
      </trkpt>
      <trkpt lat="46.270819" lon="6.808440">
        <ele>1493.132</ele>
        <time>2018-07-04T10:07:14Z</time>
      </trkpt>
      <trkpt lat="46.270812" lon="6.808505">
        <ele>1493.757</ele>
        <time>2018-07-04T10:07:25Z</time>
      </trkpt>
      <trkpt lat="46.270782" lon="6.808571">
        <ele>1495.498</ele>
        <time>2018-07-04T10:07:34Z</time>
      </trkpt>
      <trkpt lat="46.270740" lon="6.808597">
        <ele>1497.715</ele>
        <time>2018-07-04T10:07:44Z</time>
      </trkpt>
      <trkpt lat="46.270703" lon="6.808643">
        <ele>1499.326</ele>
        <time>2018-07-04T10:08:01Z</time>
      </trkpt>
      <trkpt lat="46.270664" lon="6.808691">
        <ele>1500.808</ele>
        <time>2018-07-04T10:08:08Z</time>
      </trkpt>
      <trkpt lat="46.270608" lon="6.808698">
        <ele>1503.781</ele>
        <time>2018-07-04T10:08:15Z</time>
      </trkpt>
      <trkpt lat="46.270566" lon="6.808724">
        <ele>1505.657</ele>
        <time>2018-07-04T10:08:20Z</time>
      </trkpt>
      <trkpt lat="46.270520" lon="6.808754">
        <ele>1506.779</ele>
        <time>2018-07-04T10:08:30Z</time>
      </trkpt>
      <trkpt lat="46.270484" lon="6.808714">
        <ele>1507.645</ele>
        <time>2018-07-04T10:08:46Z</time>
      </trkpt>
      <trkpt lat="46.270436" lon="6.808706">
        <ele>1508.527</ele>
        <time>2018-07-04T10:08:56Z</time>
      </trkpt>
      <trkpt lat="46.270389" lon="6.808698">
        <ele>1509.344</ele>
        <time>2018-07-04T10:09:10Z</time>
      </trkpt>
      <trkpt lat="46.270343" lon="6.808687">
        <ele>1510.170</ele>
        <time>2018-07-04T10:09:19Z</time>
      </trkpt>
      <trkpt lat="46.270318" lon="6.808750">
        <ele>1510.755</ele>
        <time>2018-07-04T10:10:51Z</time>
      </trkpt>
      <trkpt lat="46.270296" lon="6.808808">
        <ele>1511.361</ele>
        <time>2018-07-04T10:10:56Z</time>
      </trkpt>
      <trkpt lat="46.270295" lon="6.808874">
        <ele>1511.521</ele>
        <time>2018-07-04T10:11:05Z</time>
      </trkpt>
      <trkpt lat="46.270274" lon="6.808936">
        <ele>1512.213</ele>
        <time>2018-07-04T10:11:21Z</time>
      </trkpt>
      <trkpt lat="46.270243" lon="6.808987">
        <ele>1512.608</ele>
        <time>2018-07-04T10:11:28Z</time>
      </trkpt>
      <trkpt lat="46.270210" lon="6.809034">
        <ele>1513.158</ele>
        <time>2018-07-04T10:11:54Z</time>
      </trkpt>
      <trkpt lat="46.270162" lon="6.809074">
        <ele>1513.974</ele>
        <time>2018-07-04T10:12:00Z</time>
      </trkpt>
      <trkpt lat="46.270130" lon="6.809124">
        <ele>1514.756</ele>
        <time>2018-07-04T10:12:06Z</time>
      </trkpt>
      <trkpt lat="46.270084" lon="6.809169">
        <ele>1515.852</ele>
        <time>2018-07-04T10:12:11Z</time>
      </trkpt>
      <trkpt lat="46.270053" lon="6.809224">
        <ele>1516.894</ele>
        <time>2018-07-04T10:12:17Z</time>
      </trkpt>
      <trkpt lat="46.270019" lon="6.809277">
        <ele>1517.961</ele>
        <time>2018-07-04T10:12:22Z</time>
      </trkpt>
      <trkpt lat="46.269972" lon="6.809297">
        <ele>1518.327</ele>
        <time>2018-07-04T10:12:27Z</time>
      </trkpt>
      <trkpt lat="46.269919" lon="6.809314">
        <ele>1518.362</ele>
        <time>2018-07-04T10:12:32Z</time>
      </trkpt>
      <trkpt lat="46.269872" lon="6.809321">
        <ele>1518.314</ele>
        <time>2018-07-04T10:12:38Z</time>
      </trkpt>
      <trkpt lat="46.269824" lon="6.809350">
        <ele>1518.554</ele>
        <time>2018-07-04T10:12:43Z</time>
      </trkpt>
      <trkpt lat="46.269776" lon="6.809371">
        <ele>1518.809</ele>
        <time>2018-07-04T10:12:49Z</time>
      </trkpt>
      <trkpt lat="46.269729" lon="6.809385">
        <ele>1518.908</ele>
        <time>2018-07-04T10:13:00Z</time>
      </trkpt>
      <trkpt lat="46.269682" lon="6.809400">
        <ele>1519.653</ele>
        <time>2018-07-04T10:13:13Z</time>
      </trkpt>
      <trkpt lat="46.269675" lon="6.809465">
        <ele>1520.719</ele>
        <time>2018-07-04T10:13:25Z</time>
      </trkpt>
      <trkpt lat="46.269635" lon="6.809496">
        <ele>1521.651</ele>
        <time>2018-07-04T10:14:11Z</time>
      </trkpt>
      <trkpt lat="46.269611" lon="6.809556">
        <ele>1522.817</ele>
        <time>2018-07-04T10:14:19Z</time>
      </trkpt>
      <trkpt lat="46.269594" lon="6.809621">
        <ele>1524.129</ele>
        <time>2018-07-04T10:14:31Z</time>
      </trkpt>
      <trkpt lat="46.269562" lon="6.809669">
        <ele>1525.766</ele>
        <time>2018-07-04T10:14:41Z</time>
      </trkpt>
      <trkpt lat="46.269520" lon="6.809713">
        <ele>1527.682</ele>
        <time>2018-07-04T10:14:59Z</time>
      </trkpt>
      <trkpt lat="46.269477" lon="6.809750">
        <ele>1529.227</ele>
        <time>2018-07-04T10:15:12Z</time>
      </trkpt>
      <trkpt lat="46.269440" lon="6.809801">
        <ele>1530.424</ele>
        <time>2018-07-04T10:15:18Z</time>
      </trkpt>
      <trkpt lat="46.269398" lon="6.809832">
        <ele>1531.404</ele>
        <time>2018-07-04T10:15:28Z</time>
      </trkpt>
      <trkpt lat="46.269341" lon="6.809838">
        <ele>1532.714</ele>
        <time>2018-07-04T10:15:37Z</time>
      </trkpt>
      <trkpt lat="46.269293" lon="6.809859">
        <ele>1534.008</ele>
        <time>2018-07-04T10:15:43Z</time>
      </trkpt>
      <trkpt lat="46.269257" lon="6.809899">
        <ele>1535.334</ele>
        <time>2018-07-04T10:15:52Z</time>
      </trkpt>
      <trkpt lat="46.269237" lon="6.809960">
        <ele>1536.530</ele>
        <time>2018-07-04T10:16:04Z</time>
      </trkpt>
      <trkpt lat="46.269220" lon="6.810025">
        <ele>1537.392</ele>
        <time>2018-07-04T10:16:18Z</time>
      </trkpt>
      <trkpt lat="46.269170" lon="6.810028">
        <ele>1538.888</ele>
        <time>2018-07-04T10:16:32Z</time>
      </trkpt>
      <trkpt lat="46.269120" lon="6.810042">
        <ele>1541.080</ele>
        <time>2018-07-04T10:16:45Z</time>
      </trkpt>
      <trkpt lat="46.269074" lon="6.810009">
        <ele>1543.337</ele>
        <time>2018-07-04T10:16:57Z</time>
      </trkpt>
      <trkpt lat="46.269035" lon="6.809932">
        <ele>1544.313</ele>
        <time>2018-07-04T10:17:18Z</time>
      </trkpt>
      <trkpt lat="46.268990" lon="6.809902">
        <ele>1546.158</ele>
        <time>2018-07-04T10:17:29Z</time>
      </trkpt>
      <trkpt lat="46.268948" lon="6.809871">
        <ele>1547.772</ele>
        <time>2018-07-04T10:17:41Z</time>
      </trkpt>
      <trkpt lat="46.268902" lon="6.809831">
        <ele>1549.513</ele>
        <time>2018-07-04T10:18:14Z</time>
      </trkpt>
      <trkpt lat="46.268881" lon="6.809768">
        <ele>1550.214</ele>
        <time>2018-07-04T10:18:31Z</time>
      </trkpt>
      <trkpt lat="46.268836" lon="6.809714">
        <ele>1553.508</ele>
        <time>2018-07-04T10:18:40Z</time>
      </trkpt>
      <trkpt lat="46.268789" lon="6.809681">
        <ele>1557.149</ele>
        <time>2018-07-04T10:18:44Z</time>
      </trkpt>
      <trkpt lat="46.268791" lon="6.809601">
        <ele>1556.055</ele>
        <time>2018-07-04T10:19:08Z</time>
      </trkpt>
      <trkpt lat="46.268791" lon="6.809535">
        <ele>1555.237</ele>
        <time>2018-07-04T10:19:26Z</time>
      </trkpt>
      <trkpt lat="46.268779" lon="6.809472">
        <ele>1555.423</ele>
        <time>2018-07-04T10:19:37Z</time>
      </trkpt>
      <trkpt lat="46.268744" lon="6.809416">
        <ele>1557.665</ele>
        <time>2018-07-04T10:19:45Z</time>
      </trkpt>
      <trkpt lat="46.268727" lon="6.809351">
        <ele>1558.262</ele>
        <time>2018-07-04T10:19:53Z</time>
      </trkpt>
      <trkpt lat="46.268701" lon="6.809289">
        <ele>1559.558</ele>
        <time>2018-07-04T10:19:58Z</time>
      </trkpt>
      <trkpt lat="46.268673" lon="6.809234">
        <ele>1561.013</ele>
        <time>2018-07-04T10:20:04Z</time>
      </trkpt>
      <trkpt lat="46.268640" lon="6.809168">
        <ele>1562.763</ele>
        <time>2018-07-04T10:20:12Z</time>
      </trkpt>
      <trkpt lat="46.268605" lon="6.809119">
        <ele>1564.844</ele>
        <time>2018-07-04T10:20:16Z</time>
      </trkpt>
      <trkpt lat="46.268577" lon="6.809049">
        <ele>1566.118</ele>
        <time>2018-07-04T10:20:21Z</time>
      </trkpt>
      <trkpt lat="46.268563" lon="6.808986">
        <ele>1566.308</ele>
        <time>2018-07-04T10:20:26Z</time>
      </trkpt>
      <trkpt lat="46.268545" lon="6.808924">
        <ele>1567.048</ele>
        <time>2018-07-04T10:20:31Z</time>
      </trkpt>
      <trkpt lat="46.268547" lon="6.808855">
        <ele>1566.024</ele>
        <time>2018-07-04T10:20:37Z</time>
      </trkpt>
      <trkpt lat="46.268532" lon="6.808777">
        <ele>1566.686</ele>
        <time>2018-07-04T10:20:43Z</time>
      </trkpt>
      <trkpt lat="46.268527" lon="6.808708">
        <ele>1566.562</ele>
        <time>2018-07-04T10:20:48Z</time>
      </trkpt>
      <trkpt lat="46.268489" lon="6.808629">
        <ele>1568.814</ele>
        <time>2018-07-04T10:21:12Z</time>
      </trkpt>
      <trkpt lat="46.268454" lon="6.808570">
        <ele>1571.351</ele>
        <time>2018-07-04T10:21:19Z</time>
      </trkpt>
      <trkpt lat="46.268444" lon="6.808499">
        <ele>1571.897</ele>
        <time>2018-07-04T10:21:25Z</time>
      </trkpt>
      <trkpt lat="46.268464" lon="6.808438">
        <ele>1570.092</ele>
        <time>2018-07-04T10:21:33Z</time>
      </trkpt>
      <trkpt lat="46.268470" lon="6.808371">
        <ele>1569.349</ele>
        <time>2018-07-04T10:21:43Z</time>
      </trkpt>
      <trkpt lat="46.268464" lon="6.808301">
        <ele>1570.002</ele>
        <time>2018-07-04T10:21:55Z</time>
      </trkpt>
      <trkpt lat="46.268446" lon="6.808241">
        <ele>1572.122</ele>
        <time>2018-07-04T10:22:03Z</time>
      </trkpt>
      <trkpt lat="46.268414" lon="6.808186">
        <ele>1575.208</ele>
        <time>2018-07-04T10:22:10Z</time>
      </trkpt>
      <trkpt lat="46.268409" lon="6.808114">
        <ele>1576.446</ele>
        <time>2018-07-04T10:22:20Z</time>
      </trkpt>
      <trkpt lat="46.268417" lon="6.808026">
        <ele>1576.832</ele>
        <time>2018-07-04T10:23:06Z</time>
      </trkpt>
      <trkpt lat="46.268379" lon="6.807971">
        <ele>1580.654</ele>
        <time>2018-07-04T10:23:11Z</time>
      </trkpt>
      <trkpt lat="46.268362" lon="6.807905">
        <ele>1582.880</ele>
        <time>2018-07-04T10:23:24Z</time>
      </trkpt>
      <trkpt lat="46.268393" lon="6.807785">
        <ele>1582.092</ele>
        <time>2018-07-04T10:23:43Z</time>
      </trkpt>
      <trkpt lat="46.268432" lon="6.807677">
        <ele>1579.619</ele>
        <time>2018-07-04T10:23:58Z</time>
      </trkpt>
      <trkpt lat="46.268463" lon="6.807615">
        <ele>1577.725</ele>
        <time>2018-07-04T10:24:03Z</time>
      </trkpt>
      <trkpt lat="46.268480" lon="6.807551">
        <ele>1577.070</ele>
        <time>2018-07-04T10:24:08Z</time>
      </trkpt>
      <trkpt lat="46.268505" lon="6.807470">
        <ele>1575.838</ele>
        <time>2018-07-04T10:24:22Z</time>
      </trkpt>
      <trkpt lat="46.268508" lon="6.807393">
        <ele>1575.970</ele>
        <time>2018-07-04T10:24:35Z</time>
      </trkpt>
      <trkpt lat="46.268478" lon="6.807340">
        <ele>1577.917</ele>
        <time>2018-07-04T10:24:45Z</time>
      </trkpt>
      <trkpt lat="46.268442" lon="6.807278">
        <ele>1580.108</ele>
        <time>2018-07-04T10:24:58Z</time>
      </trkpt>
      <trkpt lat="46.268436" lon="6.807203">
        <ele>1580.835</ele>
        <time>2018-07-04T10:25:16Z</time>
      </trkpt>
      <trkpt lat="46.268397" lon="6.807168">
        <ele>1583.471</ele>
        <time>2018-07-04T10:25:42Z</time>
      </trkpt>
      <trkpt lat="46.268365" lon="6.807214">
        <ele>1584.453</ele>
        <time>2018-07-04T10:26:00Z</time>
      </trkpt>
      <trkpt lat="46.268369" lon="6.807281">
        <ele>1584.479</ele>
        <time>2018-07-04T10:26:15Z</time>
      </trkpt>
      <trkpt lat="46.268315" lon="6.807285">
        <ele>1587.661</ele>
        <time>2018-07-04T10:26:52Z</time>
      </trkpt>
      <trkpt lat="46.268284" lon="6.807234">
        <ele>1589.178</ele>
        <time>2018-07-04T10:27:39Z</time>
      </trkpt>
      <trkpt lat="46.268223" lon="6.807171">
        <ele>1593.534</ele>
        <time>2018-07-04T10:27:48Z</time>
      </trkpt>
      <trkpt lat="46.268178" lon="6.807125">
        <ele>1596.969</ele>
        <time>2018-07-04T10:28:07Z</time>
      </trkpt>
      <trkpt lat="46.268154" lon="6.807183">
        <ele>1597.593</ele>
        <time>2018-07-04T10:28:35Z</time>
      </trkpt>
      <trkpt lat="46.268110" lon="6.807203">
        <ele>1599.965</ele>
        <time>2018-07-04T10:28:49Z</time>
      </trkpt>
      <trkpt lat="46.268089" lon="6.807140">
        <ele>1602.121</ele>
        <time>2018-07-04T10:29:26Z</time>
      </trkpt>
      <trkpt lat="46.268047" lon="6.807108">
        <ele>1605.408</ele>
        <time>2018-07-04T10:29:37Z</time>
      </trkpt>
      <trkpt lat="46.268002" lon="6.807108">
        <ele>1609.161</ele>
        <time>2018-07-04T10:29:59Z</time>
      </trkpt>
      <trkpt lat="46.267871" lon="6.807161">
        <ele>1618.057</ele>
        <time>2018-07-04T10:33:28Z</time>
      </trkpt>
      <trkpt lat="46.267824" lon="6.807165">
        <ele>1621.439</ele>
        <time>2018-07-04T10:34:57Z</time>
      </trkpt>
      <trkpt lat="46.267761" lon="6.807123">
        <ele>1628.425</ele>
        <time>2018-07-04T10:35:12Z</time>
      </trkpt>
      <trkpt lat="46.267718" lon="6.807082">
        <ele>1633.947</ele>
        <time>2018-07-04T10:35:19Z</time>
      </trkpt>
      <trkpt lat="46.267706" lon="6.807145">
        <ele>1631.624</ele>
        <time>2018-07-04T10:35:40Z</time>
      </trkpt>
      <trkpt lat="46.267593" lon="6.807237">
        <ele>1636.510</ele>
        <time>2018-07-04T10:37:05Z</time>
      </trkpt>
      <trkpt lat="46.267437" lon="6.807159">
        <ele>1652.275</ele>
        <time>2018-07-04T10:37:28Z</time>
      </trkpt>
      <trkpt lat="46.267401" lon="6.807223">
        <ele>1651.539</ele>
        <time>2018-07-04T10:39:37Z</time>
      </trkpt>
      <trkpt lat="46.267364" lon="6.807276">
        <ele>1652.701</ele>
        <time>2018-07-04T10:39:42Z</time>
      </trkpt>
      <trkpt lat="46.267321" lon="6.807334">
        <ele>1653.821</ele>
        <time>2018-07-04T10:39:52Z</time>
      </trkpt>
      <trkpt lat="46.267269" lon="6.807374">
        <ele>1655.608</ele>
        <time>2018-07-04T10:40:01Z</time>
      </trkpt>
      <trkpt lat="46.267229" lon="6.807421">
        <ele>1656.025</ele>
        <time>2018-07-04T10:40:08Z</time>
      </trkpt>
      <trkpt lat="46.267182" lon="6.807447">
        <ele>1657.551</ele>
        <time>2018-07-04T10:40:13Z</time>
      </trkpt>
      <trkpt lat="46.267138" lon="6.807486">
        <ele>1658.223</ele>
        <time>2018-07-04T10:40:22Z</time>
      </trkpt>
      <trkpt lat="46.267098" lon="6.807517">
        <ele>1659.459</ele>
        <time>2018-07-04T10:40:44Z</time>
      </trkpt>
      <trkpt lat="46.267128" lon="6.807575">
        <ele>1656.961</ele>
        <time>2018-07-04T10:48:54Z</time>
      </trkpt>
      <trkpt lat="46.267069" lon="6.807620">
        <ele>1659.098</ele>
        <time>2018-07-04T10:49:20Z</time>
      </trkpt>
      <trkpt lat="46.267018" lon="6.807611">
        <ele>1661.754</ele>
        <time>2018-07-04T10:49:26Z</time>
      </trkpt>
      <trkpt lat="46.266943" lon="6.807711">
        <ele>1662.839</ele>
        <time>2018-07-04T10:50:01Z</time>
      </trkpt>
      <trkpt lat="46.266930" lon="6.807789">
        <ele>1662.044</ele>
        <time>2018-07-04T10:50:34Z</time>
      </trkpt>
      <trkpt lat="46.266873" lon="6.807761">
        <ele>1665.105</ele>
        <time>2018-07-04T10:51:29Z</time>
      </trkpt>
      <trkpt lat="46.266825" lon="6.807789">
        <ele>1667.215</ele>
        <time>2018-07-04T10:52:11Z</time>
      </trkpt>
      <trkpt lat="46.266775" lon="6.807799">
        <ele>1669.908</ele>
        <time>2018-07-04T10:52:18Z</time>
      </trkpt>
      <trkpt lat="46.266668" lon="6.807801">
        <ele>1675.336</ele>
        <time>2018-07-04T10:52:36Z</time>
      </trkpt>
      <trkpt lat="46.266624" lon="6.807786">
        <ele>1676.582</ele>
        <time>2018-07-04T10:52:42Z</time>
      </trkpt>
      <trkpt lat="46.266579" lon="6.807771">
        <ele>1678.034</ele>
        <time>2018-07-04T10:52:49Z</time>
      </trkpt>
      <trkpt lat="46.266488" lon="6.807804">
        <ele>1681.020</ele>
        <time>2018-07-04T10:53:04Z</time>
      </trkpt>
      <trkpt lat="46.266441" lon="6.807803">
        <ele>1682.542</ele>
        <time>2018-07-04T10:53:29Z</time>
      </trkpt>
      <trkpt lat="46.266385" lon="6.807800">
        <ele>1684.249</ele>
        <time>2018-07-04T10:53:42Z</time>
      </trkpt>
      <trkpt lat="46.266338" lon="6.807820">
        <ele>1685.255</ele>
        <time>2018-07-04T10:54:09Z</time>
      </trkpt>
      <trkpt lat="46.266272" lon="6.807787">
        <ele>1686.250</ele>
        <time>2018-07-04T10:54:25Z</time>
      </trkpt>
      <trkpt lat="46.266226" lon="6.807731">
        <ele>1687.486</ele>
        <time>2018-07-04T10:54:47Z</time>
      </trkpt>
      <trkpt lat="46.266222" lon="6.807664">
        <ele>1688.260</ele>
        <time>2018-07-04T10:54:53Z</time>
      </trkpt>
      <trkpt lat="46.266151" lon="6.807601">
        <ele>1689.426</ele>
        <time>2018-07-04T10:55:30Z</time>
      </trkpt>
      <trkpt lat="46.266154" lon="6.807523">
        <ele>1689.908</ele>
        <time>2018-07-04T10:55:54Z</time>
      </trkpt>
      <trkpt lat="46.266122" lon="6.807465">
        <ele>1690.190</ele>
        <time>2018-07-04T10:56:08Z</time>
      </trkpt>
      <trkpt lat="46.266085" lon="6.807419">
        <ele>1690.726</ele>
        <time>2018-07-04T10:56:12Z</time>
      </trkpt>
      <trkpt lat="46.266041" lon="6.807373">
        <ele>1691.548</ele>
        <time>2018-07-04T10:56:16Z</time>
      </trkpt>
      <trkpt lat="46.266006" lon="6.807323">
        <ele>1692.064</ele>
        <time>2018-07-04T10:56:21Z</time>
      </trkpt>
      <trkpt lat="46.265955" lon="6.807302">
        <ele>1692.796</ele>
        <time>2018-07-04T10:56:28Z</time>
      </trkpt>
      <trkpt lat="46.265906" lon="6.807306">
        <ele>1693.433</ele>
        <time>2018-07-04T10:56:33Z</time>
      </trkpt>
      <trkpt lat="46.265861" lon="6.807271">
        <ele>1693.819</ele>
        <time>2018-07-04T10:56:38Z</time>
      </trkpt>
      <trkpt lat="46.265827" lon="6.807217">
        <ele>1694.174</ele>
        <time>2018-07-04T10:56:43Z</time>
      </trkpt>
      <trkpt lat="46.265796" lon="6.807155">
        <ele>1694.478</ele>
        <time>2018-07-04T10:56:48Z</time>
      </trkpt>
      <trkpt lat="46.265774" lon="6.807089">
        <ele>1694.633</ele>
        <time>2018-07-04T10:56:53Z</time>
      </trkpt>
      <trkpt lat="46.265771" lon="6.807017">
        <ele>1694.426</ele>
        <time>2018-07-04T10:56:59Z</time>
      </trkpt>
      <trkpt lat="46.265748" lon="6.806955">
        <ele>1694.608</ele>
        <time>2018-07-04T10:57:04Z</time>
      </trkpt>
      <trkpt lat="46.265725" lon="6.806885">
        <ele>1695.669</ele>
        <time>2018-07-04T10:57:10Z</time>
      </trkpt>
      <trkpt lat="46.265687" lon="6.806836">
        <ele>1696.835</ele>
        <time>2018-07-04T10:57:14Z</time>
      </trkpt>
      <trkpt lat="46.265654" lon="6.806787">
        <ele>1697.937</ele>
        <time>2018-07-04T10:57:18Z</time>
      </trkpt>
      <trkpt lat="46.265635" lon="6.806715">
        <ele>1699.083</ele>
        <time>2018-07-04T10:57:23Z</time>
      </trkpt>
      <trkpt lat="46.265616" lon="6.806654">
        <ele>1700.195</ele>
        <time>2018-07-04T10:57:30Z</time>
      </trkpt>
      <trkpt lat="46.265605" lon="6.806577">
        <ele>1701.782</ele>
        <time>2018-07-04T10:57:47Z</time>
      </trkpt>
      <trkpt lat="46.265587" lon="6.806517">
        <ele>1703.138</ele>
        <time>2018-07-04T10:57:54Z</time>
      </trkpt>
      <trkpt lat="46.265575" lon="6.806438">
        <ele>1704.713</ele>
        <time>2018-07-04T10:58:05Z</time>
      </trkpt>
      <trkpt lat="46.265555" lon="6.806376">
        <ele>1706.183</ele>
        <time>2018-07-04T10:58:16Z</time>
      </trkpt>
      <trkpt lat="46.265519" lon="6.806307">
        <ele>1707.525</ele>
        <time>2018-07-04T10:58:29Z</time>
      </trkpt>
      <trkpt lat="46.265499" lon="6.806227">
        <ele>1708.617</ele>
        <time>2018-07-04T10:59:02Z</time>
      </trkpt>
      <trkpt lat="46.265457" lon="6.806181">
        <ele>1710.008</ele>
        <time>2018-07-04T11:00:19Z</time>
      </trkpt>
      <trkpt lat="46.265415" lon="6.806137">
        <ele>1711.450</ele>
        <time>2018-07-04T11:00:25Z</time>
      </trkpt>
      <trkpt lat="46.265371" lon="6.806103">
        <ele>1712.736</ele>
        <time>2018-07-04T11:00:31Z</time>
      </trkpt>
      <trkpt lat="46.265326" lon="6.806085">
        <ele>1713.838</ele>
        <time>2018-07-04T11:00:44Z</time>
      </trkpt>
      <trkpt lat="46.265281" lon="6.806116">
        <ele>1714.994</ele>
        <time>2018-07-04T11:00:55Z</time>
      </trkpt>
      <trkpt lat="46.265239" lon="6.806091">
        <ele>1716.596</ele>
        <time>2018-07-04T11:01:03Z</time>
      </trkpt>
      <trkpt lat="46.265191" lon="6.806063">
        <ele>1718.443</ele>
        <time>2018-07-04T11:01:18Z</time>
      </trkpt>
      <trkpt lat="46.265169" lon="6.805947">
        <ele>1719.169</ele>
        <time>2018-07-04T11:01:40Z</time>
      </trkpt>
      <trkpt lat="46.265127" lon="6.805898">
        <ele>1720.674</ele>
        <time>2018-07-04T11:01:53Z</time>
      </trkpt>
      <trkpt lat="46.265091" lon="6.805835">
        <ele>1721.768</ele>
        <time>2018-07-04T11:02:01Z</time>
      </trkpt>
      <trkpt lat="46.265076" lon="6.805759">
        <ele>1721.642</ele>
        <time>2018-07-04T11:02:12Z</time>
      </trkpt>
      <trkpt lat="46.265040" lon="6.805693">
        <ele>1722.226</ele>
        <time>2018-07-04T11:02:20Z</time>
      </trkpt>
      <trkpt lat="46.264992" lon="6.805659">
        <ele>1723.408</ele>
        <time>2018-07-04T11:02:25Z</time>
      </trkpt>
      <trkpt lat="46.264952" lon="6.805626">
        <ele>1724.718</ele>
        <time>2018-07-04T11:02:30Z</time>
      </trkpt>
      <trkpt lat="46.264916" lon="6.805583">
        <ele>1725.634</ele>
        <time>2018-07-04T11:02:38Z</time>
      </trkpt>
      <trkpt lat="46.264906" lon="6.805516">
        <ele>1725.496</ele>
        <time>2018-07-04T11:03:24Z</time>
      </trkpt>
      <trkpt lat="46.264869" lon="6.805478">
        <ele>1726.522</ele>
        <time>2018-07-04T11:03:29Z</time>
      </trkpt>
      <trkpt lat="46.264828" lon="6.805450">
        <ele>1727.754</ele>
        <time>2018-07-04T11:03:37Z</time>
      </trkpt>
      <trkpt lat="46.264781" lon="6.805435">
        <ele>1729.221</ele>
        <time>2018-07-04T11:03:43Z</time>
      </trkpt>
      <trkpt lat="46.264739" lon="6.805412">
        <ele>1730.497</ele>
        <time>2018-07-04T11:03:48Z</time>
      </trkpt>
      <trkpt lat="46.264693" lon="6.805378">
        <ele>1731.072</ele>
        <time>2018-07-04T11:03:54Z</time>
      </trkpt>
      <trkpt lat="46.264650" lon="6.805346">
        <ele>1731.458</ele>
        <time>2018-07-04T11:04:01Z</time>
      </trkpt>
      <trkpt lat="46.264605" lon="6.805354">
        <ele>1732.452</ele>
        <time>2018-07-04T11:04:12Z</time>
      </trkpt>
      <trkpt lat="46.264562" lon="6.805332">
        <ele>1733.017</ele>
        <time>2018-07-04T11:04:17Z</time>
      </trkpt>
      <trkpt lat="46.264523" lon="6.805299">
        <ele>1733.508</ele>
        <time>2018-07-04T11:04:24Z</time>
      </trkpt>
      <trkpt lat="46.264486" lon="6.805254">
        <ele>1734.027</ele>
        <time>2018-07-04T11:04:34Z</time>
      </trkpt>
      <trkpt lat="46.264446" lon="6.805207">
        <ele>1734.733</ele>
        <time>2018-07-04T11:04:41Z</time>
      </trkpt>
      <trkpt lat="46.264397" lon="6.805173">
        <ele>1736.035</ele>
        <time>2018-07-04T11:04:47Z</time>
      </trkpt>
      <trkpt lat="46.264350" lon="6.805144">
        <ele>1737.211</ele>
        <time>2018-07-04T11:04:53Z</time>
      </trkpt>
      <trkpt lat="46.264301" lon="6.805128">
        <ele>1738.623</ele>
        <time>2018-07-04T11:05:00Z</time>
      </trkpt>
      <trkpt lat="46.264257" lon="6.805112">
        <ele>1739.890</ele>
        <time>2018-07-04T11:05:08Z</time>
      </trkpt>
      <trkpt lat="46.264262" lon="6.805045">
        <ele>1739.456</ele>
        <time>2018-07-04T11:05:35Z</time>
      </trkpt>
      <trkpt lat="46.264286" lon="6.804979">
        <ele>1738.711</ele>
        <time>2018-07-04T11:05:40Z</time>
      </trkpt>
      <trkpt lat="46.264310" lon="6.804918">
        <ele>1738.386</ele>
        <time>2018-07-04T11:05:45Z</time>
      </trkpt>
      <trkpt lat="46.264327" lon="6.804849">
        <ele>1738.260</ele>
        <time>2018-07-04T11:05:49Z</time>
      </trkpt>
      <trkpt lat="46.264348" lon="6.804774">
        <ele>1737.926</ele>
        <time>2018-07-04T11:05:54Z</time>
      </trkpt>
      <trkpt lat="46.264367" lon="6.804713">
        <ele>1737.608</ele>
        <time>2018-07-04T11:05:58Z</time>
      </trkpt>
      <trkpt lat="46.264395" lon="6.804655">
        <ele>1737.190</ele>
        <time>2018-07-04T11:06:05Z</time>
      </trkpt>
      <trkpt lat="46.264404" lon="6.804579">
        <ele>1737.486</ele>
        <time>2018-07-04T11:06:14Z</time>
      </trkpt>
      <trkpt lat="46.264403" lon="6.804511">
        <ele>1738.068</ele>
        <time>2018-07-04T11:06:24Z</time>
      </trkpt>
      <trkpt lat="46.264391" lon="6.804447">
        <ele>1738.964</ele>
        <time>2018-07-04T11:06:31Z</time>
      </trkpt>
      <trkpt lat="46.264388" lon="6.804379">
        <ele>1739.116</ele>
        <time>2018-07-04T11:06:40Z</time>
      </trkpt>
      <trkpt lat="46.264388" lon="6.804313">
        <ele>1739.243</ele>
        <time>2018-07-04T11:06:48Z</time>
      </trkpt>
      <trkpt lat="46.264371" lon="6.804247">
        <ele>1740.089</ele>
        <time>2018-07-04T11:06:55Z</time>
      </trkpt>
      <trkpt lat="46.264369" lon="6.804179">
        <ele>1740.224</ele>
        <time>2018-07-04T11:07:03Z</time>
      </trkpt>
      <trkpt lat="46.264372" lon="6.804110">
        <ele>1740.028</ele>
        <time>2018-07-04T11:07:12Z</time>
      </trkpt>
      <trkpt lat="46.264373" lon="6.804044">
        <ele>1739.789</ele>
        <time>2018-07-04T11:07:18Z</time>
      </trkpt>
      <trkpt lat="46.264371" lon="6.803973">
        <ele>1739.617</ele>
        <time>2018-07-04T11:07:24Z</time>
      </trkpt>
      <trkpt lat="46.264365" lon="6.803898">
        <ele>1739.608</ele>
        <time>2018-07-04T11:07:32Z</time>
      </trkpt>
      <trkpt lat="46.264357" lon="6.803832">
        <ele>1739.724</ele>
        <time>2018-07-04T11:07:36Z</time>
      </trkpt>
      <trkpt lat="46.264368" lon="6.803767">
        <ele>1739.240</ele>
        <time>2018-07-04T11:07:42Z</time>
      </trkpt>
      <trkpt lat="46.264366" lon="6.803698">
        <ele>1739.282</ele>
        <time>2018-07-04T11:07:49Z</time>
      </trkpt>
      <trkpt lat="46.264345" lon="6.803640">
        <ele>1739.618</ele>
        <time>2018-07-04T11:08:01Z</time>
      </trkpt>
      <trkpt lat="46.264297" lon="6.803621">
        <ele>1740.890</ele>
        <time>2018-07-04T11:08:05Z</time>
      </trkpt>
      <trkpt lat="46.264233" lon="6.803578">
        <ele>1742.237</ele>
        <time>2018-07-04T11:08:08Z</time>
      </trkpt>
      <trkpt lat="46.264187" lon="6.803546">
        <ele>1743.243</ele>
        <time>2018-07-04T11:08:10Z</time>
      </trkpt>
      <trkpt lat="46.264133" lon="6.803504">
        <ele>1744.678</ele>
        <time>2018-07-04T11:08:13Z</time>
      </trkpt>
      <trkpt lat="46.264093" lon="6.803461">
        <ele>1745.425</ele>
        <time>2018-07-04T11:08:17Z</time>
      </trkpt>
      <trkpt lat="46.264054" lon="6.803420">
        <ele>1746.126</ele>
        <time>2018-07-04T11:08:22Z</time>
      </trkpt>
      <trkpt lat="46.264025" lon="6.803368">
        <ele>1746.408</ele>
        <time>2018-07-04T11:08:30Z</time>
      </trkpt>
      <trkpt lat="46.263984" lon="6.803326">
        <ele>1746.908</ele>
        <time>2018-07-04T11:08:40Z</time>
      </trkpt>
      <trkpt lat="46.263943" lon="6.803286">
        <ele>1747.624</ele>
        <time>2018-07-04T11:08:45Z</time>
      </trkpt>
      <trkpt lat="46.263894" lon="6.803257">
        <ele>1748.620</ele>
        <time>2018-07-04T11:08:50Z</time>
      </trkpt>
      <trkpt lat="46.263864" lon="6.803207">
        <ele>1749.192</ele>
        <time>2018-07-04T11:08:57Z</time>
      </trkpt>
      <trkpt lat="46.263832" lon="6.803162">
        <ele>1749.768</ele>
        <time>2018-07-04T11:09:04Z</time>
      </trkpt>
      <trkpt lat="46.263786" lon="6.803172">
        <ele>1750.940</ele>
        <time>2018-07-04T11:09:14Z</time>
      </trkpt>
      <trkpt lat="46.263738" lon="6.803161">
        <ele>1752.067</ele>
        <time>2018-07-04T11:09:23Z</time>
      </trkpt>
      <trkpt lat="46.263691" lon="6.803147">
        <ele>1753.183</ele>
        <time>2018-07-04T11:09:35Z</time>
      </trkpt>
      <trkpt lat="46.263646" lon="6.803125">
        <ele>1754.298</ele>
        <time>2018-07-04T11:09:44Z</time>
      </trkpt>
      <trkpt lat="46.263596" lon="6.803147">
        <ele>1755.311</ele>
        <time>2018-07-04T11:09:52Z</time>
      </trkpt>
      <trkpt lat="46.263581" lon="6.803209">
        <ele>1755.721</ele>
        <time>2018-07-04T11:10:09Z</time>
      </trkpt>
      <trkpt lat="46.263532" lon="6.803227">
        <ele>1756.703</ele>
        <time>2018-07-04T11:10:19Z</time>
      </trkpt>
      <trkpt lat="46.263481" lon="6.803239">
        <ele>1757.808</ele>
        <time>2018-07-04T11:10:25Z</time>
      </trkpt>
      <trkpt lat="46.263437" lon="6.803207">
        <ele>1758.873</ele>
        <time>2018-07-04T11:10:55Z</time>
      </trkpt>
      <trkpt lat="46.263390" lon="6.803212">
        <ele>1759.859</ele>
        <time>2018-07-04T11:11:04Z</time>
      </trkpt>
      <trkpt lat="46.263353" lon="6.803250">
        <ele>1760.621</ele>
        <time>2018-07-04T11:11:14Z</time>
      </trkpt>
      <trkpt lat="46.263327" lon="6.803303">
        <ele>1761.297</ele>
        <time>2018-07-04T11:11:19Z</time>
      </trkpt>
      <trkpt lat="46.263278" lon="6.803334">
        <ele>1762.659</ele>
        <time>2018-07-04T11:11:27Z</time>
      </trkpt>
      <trkpt lat="46.263236" lon="6.803363">
        <ele>1764.056</ele>
        <time>2018-07-04T11:11:31Z</time>
      </trkpt>
      <trkpt lat="46.263206" lon="6.803418">
        <ele>1765.042</ele>
        <time>2018-07-04T11:11:39Z</time>
      </trkpt>
      <trkpt lat="46.263158" lon="6.803459">
        <ele>1766.317</ele>
        <time>2018-07-04T11:11:49Z</time>
      </trkpt>
      <trkpt lat="46.263122" lon="6.803498">
        <ele>1767.155</ele>
        <time>2018-07-04T11:11:58Z</time>
      </trkpt>
      <trkpt lat="46.263076" lon="6.803480">
        <ele>1768.007</ele>
        <time>2018-07-04T11:12:04Z</time>
      </trkpt>
      <trkpt lat="46.263031" lon="6.803478">
        <ele>1769.217</ele>
        <time>2018-07-04T11:12:13Z</time>
      </trkpt>
      <trkpt lat="46.262989" lon="6.803453">
        <ele>1770.608</ele>
        <time>2018-07-04T11:12:22Z</time>
      </trkpt>
      <trkpt lat="46.262942" lon="6.803462">
        <ele>1772.097</ele>
        <time>2018-07-04T11:12:30Z</time>
      </trkpt>
      <trkpt lat="46.262899" lon="6.803444">
        <ele>1773.483</ele>
        <time>2018-07-04T11:12:37Z</time>
      </trkpt>
      <trkpt lat="46.262874" lon="6.803385">
        <ele>1774.675</ele>
        <time>2018-07-04T11:12:47Z</time>
      </trkpt>
      <trkpt lat="46.262887" lon="6.803308">
        <ele>1774.751</ele>
        <time>2018-07-04T11:13:01Z</time>
      </trkpt>
      <trkpt lat="46.262880" lon="6.803236">
        <ele>1775.693</ele>
        <time>2018-07-04T11:13:12Z</time>
      </trkpt>
      <trkpt lat="46.262885" lon="6.803162">
        <ele>1776.130</ele>
        <time>2018-07-04T11:13:19Z</time>
      </trkpt>
      <trkpt lat="46.262878" lon="6.803089">
        <ele>1777.146</ele>
        <time>2018-07-04T11:13:35Z</time>
      </trkpt>
      <trkpt lat="46.262850" lon="6.803010">
        <ele>1779.051</ele>
        <time>2018-07-04T11:13:47Z</time>
      </trkpt>
      <trkpt lat="46.262814" lon="6.802953">
        <ele>1780.971</ele>
        <time>2018-07-04T11:13:58Z</time>
      </trkpt>
      <trkpt lat="46.262809" lon="6.802873">
        <ele>1782.041</ele>
        <time>2018-07-04T11:14:17Z</time>
      </trkpt>
      <trkpt lat="46.262793" lon="6.802801">
        <ele>1783.315</ele>
        <time>2018-07-04T11:14:30Z</time>
      </trkpt>
      <trkpt lat="46.262788" lon="6.802733">
        <ele>1784.208</ele>
        <time>2018-07-04T11:14:42Z</time>
      </trkpt>
      <trkpt lat="46.262810" lon="6.802675">
        <ele>1784.299</ele>
        <time>2018-07-04T11:14:53Z</time>
      </trkpt>
      <trkpt lat="46.262825" lon="6.802609">
        <ele>1784.645</ele>
        <time>2018-07-04T11:15:00Z</time>
      </trkpt>
      <trkpt lat="46.262822" lon="6.802524">
        <ele>1785.667</ele>
        <time>2018-07-04T11:15:15Z</time>
      </trkpt>
      <trkpt lat="46.262851" lon="6.802471">
        <ele>1785.563</ele>
        <time>2018-07-04T11:15:25Z</time>
      </trkpt>
      <trkpt lat="46.262877" lon="6.802418">
        <ele>1785.425</ele>
        <time>2018-07-04T11:15:33Z</time>
      </trkpt>
      <trkpt lat="46.262913" lon="6.802366">
        <ele>1785.042</ele>
        <time>2018-07-04T11:15:40Z</time>
      </trkpt>
      <trkpt lat="46.262931" lon="6.802305">
        <ele>1785.258</ele>
        <time>2018-07-04T11:15:47Z</time>
      </trkpt>
      <trkpt lat="46.262905" lon="6.802234">
        <ele>1786.773</ele>
        <time>2018-07-04T11:15:55Z</time>
      </trkpt>
      <trkpt lat="46.262887" lon="6.802168">
        <ele>1787.819</ele>
        <time>2018-07-04T11:16:02Z</time>
      </trkpt>
      <trkpt lat="46.262891" lon="6.802102">
        <ele>1788.409</ele>
        <time>2018-07-04T11:16:09Z</time>
      </trkpt>
      <trkpt lat="46.262863" lon="6.802051">
        <ele>1789.719</ele>
        <time>2018-07-04T11:16:15Z</time>
      </trkpt>
      <trkpt lat="46.262849" lon="6.801988">
        <ele>1790.708</ele>
        <time>2018-07-04T11:16:23Z</time>
      </trkpt>
      <trkpt lat="46.262839" lon="6.801920">
        <ele>1791.893</ele>
        <time>2018-07-04T11:16:37Z</time>
      </trkpt>
      <trkpt lat="46.262798" lon="6.801886">
        <ele>1793.319</ele>
        <time>2018-07-04T11:16:49Z</time>
      </trkpt>
      <trkpt lat="46.262754" lon="6.801867">
        <ele>1795.151</ele>
        <time>2018-07-04T11:17:00Z</time>
      </trkpt>
      <trkpt lat="46.262705" lon="6.801849">
        <ele>1797.437</ele>
        <time>2018-07-04T11:17:16Z</time>
      </trkpt>
      <trkpt lat="46.262659" lon="6.801833">
        <ele>1799.769</ele>
        <time>2018-07-04T11:17:23Z</time>
      </trkpt>
      <trkpt lat="46.262610" lon="6.801824">
        <ele>1801.936</ele>
        <time>2018-07-04T11:17:47Z</time>
      </trkpt>
      <trkpt lat="46.262625" lon="6.801758">
        <ele>1802.572</ele>
        <time>2018-07-04T11:18:03Z</time>
      </trkpt>
      <trkpt lat="46.262654" lon="6.801700">
        <ele>1802.277</ele>
        <time>2018-07-04T11:18:12Z</time>
      </trkpt>
      <trkpt lat="46.262676" lon="6.801634">
        <ele>1802.383</ele>
        <time>2018-07-04T11:18:21Z</time>
      </trkpt>
      <trkpt lat="46.262709" lon="6.801586">
        <ele>1801.425</ele>
        <time>2018-07-04T11:18:33Z</time>
      </trkpt>
      <trkpt lat="46.262709" lon="6.801515">
        <ele>1802.417</ele>
        <time>2018-07-04T11:18:44Z</time>
      </trkpt>
      <trkpt lat="46.262701" lon="6.801448">
        <ele>1803.808</ele>
        <time>2018-07-04T11:18:55Z</time>
      </trkpt>
      <trkpt lat="46.262700" lon="6.801378">
        <ele>1805.050</ele>
        <time>2018-07-04T11:19:03Z</time>
      </trkpt>
      <trkpt lat="46.262682" lon="6.801316">
        <ele>1807.246</ele>
        <time>2018-07-04T11:19:27Z</time>
      </trkpt>
      <trkpt lat="46.262681" lon="6.801242">
        <ele>1808.648</ele>
        <time>2018-07-04T11:19:50Z</time>
      </trkpt>
      <trkpt lat="46.262677" lon="6.801171">
        <ele>1810.294</ele>
        <time>2018-07-04T11:20:07Z</time>
      </trkpt>
      <trkpt lat="46.262681" lon="6.801101">
        <ele>1811.136</ele>
        <time>2018-07-04T11:20:23Z</time>
      </trkpt>
      <trkpt lat="46.262668" lon="6.801030">
        <ele>1813.263</ele>
        <time>2018-07-04T11:20:37Z</time>
      </trkpt>
      <trkpt lat="46.262653" lon="6.800959">
        <ele>1815.439</ele>
        <time>2018-07-04T11:20:50Z</time>
      </trkpt>
      <trkpt lat="46.262633" lon="6.800896">
        <ele>1817.994</ele>
        <time>2018-07-04T11:21:15Z</time>
      </trkpt>
      <trkpt lat="46.262581" lon="6.800848">
        <ele>1822.623</ele>
        <time>2018-07-04T11:21:18Z</time>
      </trkpt>
      <trkpt lat="46.262594" lon="6.800772">
        <ele>1822.383</ele>
        <time>2018-07-04T11:21:24Z</time>
      </trkpt>
      <trkpt lat="46.262578" lon="6.800695">
        <ele>1824.011</ele>
        <time>2018-07-04T11:21:45Z</time>
      </trkpt>
      <trkpt lat="46.262559" lon="6.800625">
        <ele>1825.808</ele>
        <time>2018-07-04T11:22:31Z</time>
      </trkpt>
      <trkpt lat="46.262540" lon="6.800556">
        <ele>1827.494</ele>
        <time>2018-07-04T11:22:52Z</time>
      </trkpt>
      <trkpt lat="46.262522" lon="6.800487">
        <ele>1828.760</ele>
        <time>2018-07-04T11:23:24Z</time>
      </trkpt>
      <trkpt lat="46.262505" lon="6.800423">
        <ele>1829.772</ele>
        <time>2018-07-04T11:23:47Z</time>
      </trkpt>
      <trkpt lat="46.262489" lon="6.800355">
        <ele>1831.078</ele>
        <time>2018-07-04T11:24:07Z</time>
      </trkpt>
      <trkpt lat="46.262467" lon="6.800287">
        <ele>1832.850</ele>
        <time>2018-07-04T11:24:17Z</time>
      </trkpt>
      <trkpt lat="46.262435" lon="6.800239">
        <ele>1835.657</ele>
        <time>2018-07-04T11:24:36Z</time>
      </trkpt>
      <trkpt lat="46.262401" lon="6.800174">
        <ele>1838.593</ele>
        <time>2018-07-04T11:24:43Z</time>
      </trkpt>
      <trkpt lat="46.262370" lon="6.800102">
        <ele>1840.668</ele>
        <time>2018-07-04T11:25:04Z</time>
      </trkpt>
      <trkpt lat="46.262357" lon="6.800037">
        <ele>1841.352</ele>
        <time>2018-07-04T11:25:17Z</time>
      </trkpt>
      <trkpt lat="46.262332" lon="6.799951">
        <ele>1843.253</ele>
        <time>2018-07-04T11:25:32Z</time>
      </trkpt>
      <trkpt lat="46.262346" lon="6.799888">
        <ele>1843.608</ele>
        <time>2018-07-04T11:25:44Z</time>
      </trkpt>
      <trkpt lat="46.262326" lon="6.799815">
        <ele>1845.408</ele>
        <time>2018-07-04T11:25:58Z</time>
      </trkpt>
      <trkpt lat="46.262277" lon="6.799804">
        <ele>1847.137</ele>
        <time>2018-07-04T11:26:15Z</time>
      </trkpt>
      <trkpt lat="46.262243" lon="6.799759">
        <ele>1848.373</ele>
        <time>2018-07-04T11:26:39Z</time>
      </trkpt>
      <trkpt lat="46.262254" lon="6.799690">
        <ele>1849.045</ele>
        <time>2018-07-04T11:26:48Z</time>
      </trkpt>
      <trkpt lat="46.262247" lon="6.799612">
        <ele>1850.711</ele>
        <time>2018-07-04T11:26:59Z</time>
      </trkpt>
      <trkpt lat="46.262253" lon="6.799542">
        <ele>1852.183</ele>
        <time>2018-07-04T11:27:18Z</time>
      </trkpt>
      <trkpt lat="46.262256" lon="6.799474">
        <ele>1853.580</ele>
        <time>2018-07-04T11:27:35Z</time>
      </trkpt>
      <trkpt lat="46.262282" lon="6.799419">
        <ele>1855.026</ele>
        <time>2018-07-04T11:27:44Z</time>
      </trkpt>
      <trkpt lat="46.262302" lon="6.799357">
        <ele>1857.031</ele>
        <time>2018-07-04T11:27:56Z</time>
      </trkpt>
      <trkpt lat="46.262286" lon="6.799294">
        <ele>1858.845</ele>
        <time>2018-07-04T11:28:12Z</time>
      </trkpt>
      <trkpt lat="46.262267" lon="6.799217">
        <ele>1861.047</ele>
        <time>2018-07-04T11:29:15Z</time>
      </trkpt>
      <trkpt lat="46.262254" lon="6.799145">
        <ele>1863.011</ele>
        <time>2018-07-04T11:29:27Z</time>
      </trkpt>
      <trkpt lat="46.262229" lon="6.799085">
        <ele>1864.708</ele>
        <time>2018-07-04T11:29:52Z</time>
      </trkpt>
      <trkpt lat="46.262218" lon="6.799022">
        <ele>1866.856</ele>
        <time>2018-07-04T11:30:15Z</time>
      </trkpt>
      <trkpt lat="46.262177" lon="6.798931">
        <ele>1870.452</ele>
        <time>2018-07-04T11:30:43Z</time>
      </trkpt>
      <trkpt lat="46.262138" lon="6.798893">
        <ele>1872.164</ele>
        <time>2018-07-04T11:30:51Z</time>
      </trkpt>
      <trkpt lat="46.262104" lon="6.798843">
        <ele>1874.050</ele>
        <time>2018-07-04T11:31:09Z</time>
      </trkpt>
      <trkpt lat="46.262062" lon="6.798811">
        <ele>1875.542</ele>
        <time>2018-07-04T11:31:25Z</time>
      </trkpt>
      <trkpt lat="46.262037" lon="6.798756">
        <ele>1877.599</ele>
        <time>2018-07-04T11:31:40Z</time>
      </trkpt>
      <trkpt lat="46.262010" lon="6.798703">
        <ele>1879.495</ele>
        <time>2018-07-04T11:32:03Z</time>
      </trkpt>
      <trkpt lat="46.262000" lon="6.798636">
        <ele>1881.510</ele>
        <time>2018-07-04T11:32:25Z</time>
      </trkpt>
      <trkpt lat="46.261971" lon="6.798586">
        <ele>1883.449</ele>
        <time>2018-07-04T11:32:39Z</time>
      </trkpt>
      <trkpt lat="46.261922" lon="6.798532">
        <ele>1886.402</ele>
        <time>2018-07-04T11:33:10Z</time>
      </trkpt>
      <trkpt lat="46.261879" lon="6.798512">
        <ele>1888.722</ele>
        <time>2018-07-04T11:33:25Z</time>
      </trkpt>
      <trkpt lat="46.261834" lon="6.798505">
        <ele>1890.708</ele>
        <time>2018-07-04T11:33:37Z</time>
      </trkpt>
      <trkpt lat="46.261791" lon="6.798487">
        <ele>1892.986</ele>
        <time>2018-07-04T11:33:52Z</time>
      </trkpt>
      <trkpt lat="46.261749" lon="6.798454">
        <ele>1895.412</ele>
        <time>2018-07-04T11:34:07Z</time>
      </trkpt>
      <trkpt lat="46.261702" lon="6.798486">
        <ele>1896.344</ele>
        <time>2018-07-04T11:34:25Z</time>
      </trkpt>
      <trkpt lat="46.261665" lon="6.798525">
        <ele>1896.610</ele>
        <time>2018-07-04T11:34:32Z</time>
      </trkpt>
      <trkpt lat="46.261627" lon="6.798566">
        <ele>1897.412</ele>
        <time>2018-07-04T11:34:42Z</time>
      </trkpt>
      <trkpt lat="46.261610" lon="6.798632">
        <ele>1896.669</ele>
        <time>2018-07-04T11:34:47Z</time>
      </trkpt>
      <trkpt lat="46.261583" lon="6.798695">
        <ele>1896.835</ele>
        <time>2018-07-04T11:34:58Z</time>
      </trkpt>
      <trkpt lat="46.261536" lon="6.798682">
        <ele>1899.650</ele>
        <time>2018-07-04T11:35:17Z</time>
      </trkpt>
      <trkpt lat="46.261532" lon="6.798614">
        <ele>1901.247</ele>
        <time>2018-07-04T11:35:26Z</time>
      </trkpt>
      <trkpt lat="46.261503" lon="6.798548">
        <ele>1904.429</ele>
        <time>2018-07-04T11:35:40Z</time>
      </trkpt>
      <trkpt lat="46.261528" lon="6.798493">
        <ele>1904.521</ele>
        <time>2018-07-04T11:35:52Z</time>
      </trkpt>
      <trkpt lat="46.261531" lon="6.798424">
        <ele>1906.108</ele>
        <time>2018-07-04T11:36:08Z</time>
      </trkpt>
      <trkpt lat="46.261554" lon="6.798361">
        <ele>1906.696</ele>
        <time>2018-07-04T11:36:18Z</time>
      </trkpt>
      <trkpt lat="46.261578" lon="6.798302">
        <ele>1907.332</ele>
        <time>2018-07-04T11:36:27Z</time>
      </trkpt>
      <trkpt lat="46.261597" lon="6.798240">
        <ele>1908.784</ele>
        <time>2018-07-04T11:36:40Z</time>
      </trkpt>
      <trkpt lat="46.261550" lon="6.798221">
        <ele>1911.120</ele>
        <time>2018-07-04T11:37:38Z</time>
      </trkpt>
      <trkpt lat="46.261537" lon="6.798154">
        <ele>1913.782</ele>
        <time>2018-07-04T11:38:06Z</time>
      </trkpt>
      <trkpt lat="46.261493" lon="6.798142">
        <ele>1915.459</ele>
        <time>2018-07-04T11:38:24Z</time>
      </trkpt>
      <trkpt lat="46.261452" lon="6.798064">
        <ele>1918.445</ele>
        <time>2018-07-04T11:38:55Z</time>
      </trkpt>
      <trkpt lat="46.261442" lon="6.797996">
        <ele>1919.530</ele>
        <time>2018-07-04T11:39:22Z</time>
      </trkpt>
      <trkpt lat="46.261412" lon="6.797940">
        <ele>1920.549</ele>
        <time>2018-07-04T11:39:47Z</time>
      </trkpt>
      <trkpt lat="46.261404" lon="6.797872">
        <ele>1921.202</ele>
        <time>2018-07-04T11:39:59Z</time>
      </trkpt>
      <trkpt lat="46.261362" lon="6.797832">
        <ele>1921.522</ele>
        <time>2018-07-04T11:40:10Z</time>
      </trkpt>
      <trkpt lat="46.261325" lon="6.797788">
        <ele>1921.508</ele>
        <time>2018-07-04T11:40:36Z</time>
      </trkpt>
      <trkpt lat="46.261335" lon="6.797860">
        <ele>1921.196</ele>
        <time>2018-07-04T11:41:35Z</time>
      </trkpt>
      <trkpt lat="46.261343" lon="6.797933">
        <ele>1920.762</ele>
        <time>2018-07-04T11:41:40Z</time>
      </trkpt>
      <trkpt lat="46.261295" lon="6.797906">
        <ele>1920.794</ele>
        <time>2018-07-04T11:42:03Z</time>
      </trkpt>
      <trkpt lat="46.261282" lon="6.797835">
        <ele>1921.030</ele>
        <time>2018-07-04T11:42:08Z</time>
      </trkpt>
      <trkpt lat="46.261259" lon="6.797772">
        <ele>1921.192</ele>
        <time>2018-07-04T11:42:15Z</time>
      </trkpt>
      <trkpt lat="46.261220" lon="6.797722">
        <ele>1921.129</ele>
        <time>2018-07-04T11:42:20Z</time>
      </trkpt>
      <trkpt lat="46.261170" lon="6.797694">
        <ele>1920.865</ele>
        <time>2018-07-04T11:42:25Z</time>
      </trkpt>
      <trkpt lat="46.261125" lon="6.797677">
        <ele>1920.550</ele>
        <time>2018-07-04T11:42:29Z</time>
      </trkpt>
      <trkpt lat="46.261076" lon="6.797657">
        <ele>1919.916</ele>
        <time>2018-07-04T11:42:34Z</time>
      </trkpt>
      <trkpt lat="46.261024" lon="6.797641">
        <ele>1919.276</ele>
        <time>2018-07-04T11:42:44Z</time>
      </trkpt>
      <trkpt lat="46.260976" lon="6.797621">
        <ele>1918.613</ele>
        <time>2018-07-04T11:42:50Z</time>
      </trkpt>
      <trkpt lat="46.260931" lon="6.797588">
        <ele>1918.108</ele>
        <time>2018-07-04T11:42:56Z</time>
      </trkpt>
      <trkpt lat="46.260887" lon="6.797544">
        <ele>1917.623</ele>
        <time>2018-07-04T11:43:01Z</time>
      </trkpt>
      <trkpt lat="46.260836" lon="6.797514">
        <ele>1917.069</ele>
        <time>2018-07-04T11:43:06Z</time>
      </trkpt>
      <trkpt lat="46.260789" lon="6.797516">
        <ele>1916.091</ele>
        <time>2018-07-04T11:43:12Z</time>
      </trkpt>
      <trkpt lat="46.260744" lon="6.797496">
        <ele>1915.177</ele>
        <time>2018-07-04T11:43:16Z</time>
      </trkpt>
      <trkpt lat="46.260696" lon="6.797470">
        <ele>1914.049</ele>
        <time>2018-07-04T11:43:20Z</time>
      </trkpt>
      <trkpt lat="46.260649" lon="6.797444">
        <ele>1913.066</ele>
        <time>2018-07-04T11:43:24Z</time>
      </trkpt>
      <trkpt lat="46.260606" lon="6.797418">
        <ele>1912.192</ele>
        <time>2018-07-04T11:43:28Z</time>
      </trkpt>
      <trkpt lat="46.260568" lon="6.797366">
        <ele>1911.327</ele>
        <time>2018-07-04T11:43:33Z</time>
      </trkpt>
      <trkpt lat="46.260552" lon="6.797301">
        <ele>1911.098</ele>
        <time>2018-07-04T11:44:07Z</time>
      </trkpt>
      <trkpt lat="46.260508" lon="6.797273">
        <ele>1910.815</ele>
        <time>2018-07-04T11:44:15Z</time>
      </trkpt>
      <trkpt lat="46.260458" lon="6.797252">
        <ele>1910.626</ele>
        <time>2018-07-04T11:44:21Z</time>
      </trkpt>
      <trkpt lat="46.260410" lon="6.797237">
        <ele>1910.508</ele>
        <time>2018-07-04T11:44:26Z</time>
      </trkpt>
      <trkpt lat="46.260363" lon="6.797210">
        <ele>1910.361</ele>
        <time>2018-07-04T11:44:31Z</time>
      </trkpt>
      <trkpt lat="46.260323" lon="6.797172">
        <ele>1909.937</ele>
        <time>2018-07-04T11:44:36Z</time>
      </trkpt>
      <trkpt lat="46.260283" lon="6.797137">
        <ele>1909.429</ele>
        <time>2018-07-04T11:44:41Z</time>
      </trkpt>
      <trkpt lat="46.260239" lon="6.797110">
        <ele>1908.645</ele>
        <time>2018-07-04T11:44:50Z</time>
      </trkpt>
      <trkpt lat="46.260198" lon="6.797080">
        <ele>1907.747</ele>
        <time>2018-07-04T11:44:56Z</time>
      </trkpt>
      <trkpt lat="46.260162" lon="6.797037">
        <ele>1906.734</ele>
        <time>2018-07-04T11:45:01Z</time>
      </trkpt>
      <trkpt lat="46.260140" lon="6.796975">
        <ele>1905.850</ele>
        <time>2018-07-04T11:45:06Z</time>
      </trkpt>
      <trkpt lat="46.260120" lon="6.796916">
        <ele>1904.745</ele>
        <time>2018-07-04T11:45:11Z</time>
      </trkpt>
      <trkpt lat="46.260098" lon="6.796855">
        <ele>1903.412</ele>
        <time>2018-07-04T11:45:16Z</time>
      </trkpt>
      <trkpt lat="46.260097" lon="6.796789">
        <ele>1902.332</ele>
        <time>2018-07-04T11:45:20Z</time>
      </trkpt>
      <trkpt lat="46.260110" lon="6.796724">
        <ele>1901.605</ele>
        <time>2018-07-04T11:45:24Z</time>
      </trkpt>
      <trkpt lat="46.260130" lon="6.796663">
        <ele>1901.208</ele>
        <time>2018-07-04T11:45:28Z</time>
      </trkpt>
      <trkpt lat="46.260144" lon="6.796590">
        <ele>1900.033</ele>
        <time>2018-07-04T11:45:33Z</time>
      </trkpt>
      <trkpt lat="46.260145" lon="6.796523">
        <ele>1898.619</ele>
        <time>2018-07-04T11:45:38Z</time>
      </trkpt>
      <trkpt lat="46.260171" lon="6.796457">
        <ele>1898.171</ele>
        <time>2018-07-04T11:45:45Z</time>
      </trkpt>
      <trkpt lat="46.260169" lon="6.796388">
        <ele>1896.737</ele>
        <time>2018-07-04T11:45:50Z</time>
      </trkpt>
      <trkpt lat="46.260163" lon="6.796317">
        <ele>1895.549</ele>
        <time>2018-07-04T11:45:54Z</time>
      </trkpt>
      <trkpt lat="46.260167" lon="6.796249">
        <ele>1894.766</ele>
        <time>2018-07-04T11:45:58Z</time>
      </trkpt>
      <trkpt lat="46.260174" lon="6.796172">
        <ele>1894.042</ele>
        <time>2018-07-04T11:46:03Z</time>
      </trkpt>
      <trkpt lat="46.260178" lon="6.796107">
        <ele>1893.347</ele>
        <time>2018-07-04T11:46:07Z</time>
      </trkpt>
      <trkpt lat="46.260193" lon="6.796039">
        <ele>1893.247</ele>
        <time>2018-07-04T11:46:12Z</time>
      </trkpt>
      <trkpt lat="46.260187" lon="6.795972">
        <ele>1892.129</ele>
        <time>2018-07-04T11:46:21Z</time>
      </trkpt>
      <trkpt lat="46.260193" lon="6.795894">
        <ele>1891.421</ele>
        <time>2018-07-04T11:46:27Z</time>
      </trkpt>
      <trkpt lat="46.260203" lon="6.795815">
        <ele>1890.808</ele>
        <time>2018-07-04T11:46:32Z</time>
      </trkpt>
      <trkpt lat="46.260214" lon="6.795741">
        <ele>1890.076</ele>
        <time>2018-07-04T11:46:37Z</time>
      </trkpt>
      <trkpt lat="46.260236" lon="6.795678">
        <ele>1889.852</ele>
        <time>2018-07-04T11:46:41Z</time>
      </trkpt>
      <trkpt lat="46.260260" lon="6.795615">
        <ele>1889.554</ele>
        <time>2018-07-04T11:46:45Z</time>
      </trkpt>
      <trkpt lat="46.260281" lon="6.795552">
        <ele>1889.040</ele>
        <time>2018-07-04T11:46:49Z</time>
      </trkpt>
      <trkpt lat="46.260302" lon="6.795483">
        <ele>1888.332</ele>
        <time>2018-07-04T11:46:54Z</time>
      </trkpt>
      <trkpt lat="46.260322" lon="6.795409">
        <ele>1887.539</ele>
        <time>2018-07-04T11:46:59Z</time>
      </trkpt>
      <trkpt lat="46.260352" lon="6.795347">
        <ele>1887.415</ele>
        <time>2018-07-04T11:47:04Z</time>
      </trkpt>
      <trkpt lat="46.260374" lon="6.795289">
        <ele>1887.010</ele>
        <time>2018-07-04T11:47:08Z</time>
      </trkpt>
      <trkpt lat="46.260388" lon="6.795225">
        <ele>1886.236</ele>
        <time>2018-07-04T11:47:12Z</time>
      </trkpt>
      <trkpt lat="46.260416" lon="6.795166">
        <ele>1886.117</ele>
        <time>2018-07-04T11:47:16Z</time>
      </trkpt>
      <trkpt lat="46.260452" lon="6.795117">
        <ele>1886.418</ele>
        <time>2018-07-04T11:47:20Z</time>
      </trkpt>
      <trkpt lat="46.260485" lon="6.795067">
        <ele>1886.708</ele>
        <time>2018-07-04T11:47:24Z</time>
      </trkpt>
      <trkpt lat="46.260521" lon="6.795025">
        <ele>1887.245</ele>
        <time>2018-07-04T11:47:28Z</time>
      </trkpt>
      <trkpt lat="46.260546" lon="6.794967">
        <ele>1886.911</ele>
        <time>2018-07-04T11:47:32Z</time>
      </trkpt>
      <trkpt lat="46.260578" lon="6.794918">
        <ele>1887.363</ele>
        <time>2018-07-04T11:47:36Z</time>
      </trkpt>
      <trkpt lat="46.260613" lon="6.794864">
        <ele>1887.889</ele>
        <time>2018-07-04T11:47:40Z</time>
      </trkpt>
      <trkpt lat="46.260651" lon="6.794822">
        <ele>1888.651</ele>
        <time>2018-07-04T11:47:44Z</time>
      </trkpt>
      <trkpt lat="46.260681" lon="6.794754">
        <ele>1888.628</ele>
        <time>2018-07-04T11:47:49Z</time>
      </trkpt>
      <trkpt lat="46.260708" lon="6.794695">
        <ele>1888.584</ele>
        <time>2018-07-04T11:47:53Z</time>
      </trkpt>
      <trkpt lat="46.260737" lon="6.794629">
        <ele>1888.389</ele>
        <time>2018-07-04T11:47:58Z</time>
      </trkpt>
      <trkpt lat="46.260750" lon="6.794563">
        <ele>1887.578</ele>
        <time>2018-07-04T11:48:02Z</time>
      </trkpt>
      <trkpt lat="46.260760" lon="6.794494">
        <ele>1886.633</ele>
        <time>2018-07-04T11:48:06Z</time>
      </trkpt>
      <trkpt lat="46.260773" lon="6.794416">
        <ele>1885.826</ele>
        <time>2018-07-04T11:48:11Z</time>
      </trkpt>
      <trkpt lat="46.260791" lon="6.794342">
        <ele>1885.508</ele>
        <time>2018-07-04T11:48:16Z</time>
      </trkpt>
      <trkpt lat="46.260807" lon="6.794273">
        <ele>1885.259</ele>
        <time>2018-07-04T11:48:21Z</time>
      </trkpt>
      <trkpt lat="46.260811" lon="6.794208">
        <ele>1884.285</ele>
        <time>2018-07-04T11:48:26Z</time>
      </trkpt>
      <trkpt lat="46.260812" lon="6.794135">
        <ele>1883.137</ele>
        <time>2018-07-04T11:48:31Z</time>
      </trkpt>
      <trkpt lat="46.260810" lon="6.794066">
        <ele>1881.933</ele>
        <time>2018-07-04T11:48:35Z</time>
      </trkpt>
      <trkpt lat="46.260813" lon="6.793988">
        <ele>1880.945</ele>
        <time>2018-07-04T11:48:40Z</time>
      </trkpt>
      <trkpt lat="46.260815" lon="6.793919">
        <ele>1880.122</ele>
        <time>2018-07-04T11:48:45Z</time>
      </trkpt>
      <trkpt lat="46.260844" lon="6.793858">
        <ele>1881.218</ele>
        <time>2018-07-04T11:48:51Z</time>
      </trkpt>
      <trkpt lat="46.260859" lon="6.793785">
        <ele>1881.263</ele>
        <time>2018-07-04T11:48:56Z</time>
      </trkpt>
      <trkpt lat="46.260878" lon="6.793709">
        <ele>1881.364</ele>
        <time>2018-07-04T11:49:01Z</time>
      </trkpt>
      <trkpt lat="46.260884" lon="6.793635">
        <ele>1880.606</ele>
        <time>2018-07-04T11:49:06Z</time>
      </trkpt>
      <trkpt lat="46.260896" lon="6.793565">
        <ele>1880.616</ele>
        <time>2018-07-04T11:49:14Z</time>
      </trkpt>
      <trkpt lat="46.260916" lon="6.793503">
        <ele>1881.208</ele>
        <time>2018-07-04T11:49:20Z</time>
      </trkpt>
      <trkpt lat="46.260929" lon="6.793437">
        <ele>1881.388</ele>
        <time>2018-07-04T11:49:26Z</time>
      </trkpt>
      <trkpt lat="46.260944" lon="6.793372">
        <ele>1881.474</ele>
        <time>2018-07-04T11:49:31Z</time>
      </trkpt>
      <trkpt lat="46.260960" lon="6.793306">
        <ele>1881.756</ele>
        <time>2018-07-04T11:49:36Z</time>
      </trkpt>
      <trkpt lat="46.260973" lon="6.793241">
        <ele>1881.992</ele>
        <time>2018-07-04T11:49:40Z</time>
      </trkpt>
      <trkpt lat="46.260988" lon="6.793170">
        <ele>1882.064</ele>
        <time>2018-07-04T11:49:45Z</time>
      </trkpt>
      <trkpt lat="46.260989" lon="6.793100">
        <ele>1881.511</ele>
        <time>2018-07-04T11:49:51Z</time>
      </trkpt>
      <trkpt lat="46.260983" lon="6.793030">
        <ele>1881.087</ele>
        <time>2018-07-04T11:49:56Z</time>
      </trkpt>
      <trkpt lat="46.260983" lon="6.792950">
        <ele>1881.392</ele>
        <time>2018-07-04T11:50:01Z</time>
      </trkpt>
      <trkpt lat="46.260984" lon="6.792883">
        <ele>1881.571</ele>
        <time>2018-07-04T11:50:05Z</time>
      </trkpt>
      <trkpt lat="46.260981" lon="6.792815">
        <ele>1881.741</ele>
        <time>2018-07-04T11:50:09Z</time>
      </trkpt>
      <trkpt lat="46.260967" lon="6.792749">
        <ele>1881.515</ele>
        <time>2018-07-04T11:50:13Z</time>
      </trkpt>
      <trkpt lat="46.260943" lon="6.792690">
        <ele>1881.208</ele>
        <time>2018-07-04T11:50:17Z</time>
      </trkpt>
      <trkpt lat="46.260916" lon="6.792635">
        <ele>1880.749</ele>
        <time>2018-07-04T11:50:21Z</time>
      </trkpt>
      <trkpt lat="46.260878" lon="6.792598">
        <ele>1879.795</ele>
        <time>2018-07-04T11:50:26Z</time>
      </trkpt>
      <trkpt lat="46.260830" lon="6.792597">
        <ele>1878.287</ele>
        <time>2018-07-04T11:50:32Z</time>
      </trkpt>
      <trkpt lat="46.260788" lon="6.792631">
        <ele>1876.663</ele>
        <time>2018-07-04T11:50:39Z</time>
      </trkpt>
      <trkpt lat="46.260754" lon="6.792680">
        <ele>1875.225</ele>
        <time>2018-07-04T11:50:46Z</time>
      </trkpt>
      <trkpt lat="46.260725" lon="6.792730">
        <ele>1874.112</ele>
        <time>2018-07-04T11:51:11Z</time>
      </trkpt>
      <trkpt lat="46.260678" lon="6.792744">
        <ele>1872.638</ele>
        <time>2018-07-04T11:51:27Z</time>
      </trkpt>
      <trkpt lat="46.260637" lon="6.792794">
        <ele>1871.163</ele>
        <time>2018-07-04T11:51:33Z</time>
      </trkpt>
      <trkpt lat="46.260625" lon="6.792861">
        <ele>1870.017</ele>
        <time>2018-07-04T11:51:43Z</time>
      </trkpt>
      <trkpt lat="46.260641" lon="6.792922">
        <ele>1869.787</ele>
        <time>2018-07-04T11:52:06Z</time>
      </trkpt>
      <trkpt lat="46.260644" lon="6.792991">
        <ele>1869.015</ele>
        <time>2018-07-04T11:52:18Z</time>
      </trkpt>
      <trkpt lat="46.260670" lon="6.793046">
        <ele>1869.208</ele>
        <time>2018-07-04T11:52:23Z</time>
      </trkpt>
      <trkpt lat="46.260683" lon="6.793117">
        <ele>1868.853</ele>
        <time>2018-07-04T11:52:29Z</time>
      </trkpt>
      <trkpt lat="46.260676" lon="6.793182">
        <ele>1867.569</ele>
        <time>2018-07-04T11:52:38Z</time>
      </trkpt>
      <trkpt lat="46.260659" lon="6.793247">
        <ele>1865.711</ele>
        <time>2018-07-04T11:52:49Z</time>
      </trkpt>
      <trkpt lat="46.260638" lon="6.793306">
        <ele>1863.547</ele>
        <time>2018-07-04T11:53:04Z</time>
      </trkpt>
      <trkpt lat="46.260600" lon="6.793351">
        <ele>1860.699</ele>
        <time>2018-07-04T11:53:15Z</time>
      </trkpt>
      <trkpt lat="46.260573" lon="6.793409">
        <ele>1858.346</ele>
        <time>2018-07-04T11:53:21Z</time>
      </trkpt>
      <trkpt lat="46.260550" lon="6.793471">
        <ele>1856.282</ele>
        <time>2018-07-04T11:53:26Z</time>
      </trkpt>
      <trkpt lat="46.260528" lon="6.793536">
        <ele>1854.157</ele>
        <time>2018-07-04T11:53:31Z</time>
      </trkpt>
      <trkpt lat="46.260506" lon="6.793599">
        <ele>1852.191</ele>
        <time>2018-07-04T11:53:36Z</time>
      </trkpt>
      <trkpt lat="46.260480" lon="6.793669">
        <ele>1851.481</ele>
        <time>2018-07-04T11:53:42Z</time>
      </trkpt>
      <trkpt lat="46.260461" lon="6.793729">
        <ele>1851.219</ele>
        <time>2018-07-04T11:53:46Z</time>
      </trkpt>
      <trkpt lat="46.260434" lon="6.793796">
        <ele>1850.608</ele>
        <time>2018-07-04T11:53:51Z</time>
      </trkpt>
      <trkpt lat="46.260404" lon="6.793861">
        <ele>1849.721</ele>
        <time>2018-07-04T11:53:56Z</time>
      </trkpt>
      <trkpt lat="46.260374" lon="6.793911">
        <ele>1848.857</ele>
        <time>2018-07-04T11:54:00Z</time>
      </trkpt>
      <trkpt lat="46.260346" lon="6.793979">
        <ele>1848.929</ele>
        <time>2018-07-04T11:54:05Z</time>
      </trkpt>
      <trkpt lat="46.260305" lon="6.794034">
        <ele>1847.845</ele>
        <time>2018-07-04T11:54:10Z</time>
      </trkpt>
      <trkpt lat="46.260265" lon="6.794088">
        <ele>1847.327</ele>
        <time>2018-07-04T11:54:15Z</time>
      </trkpt>
      <trkpt lat="46.260233" lon="6.794145">
        <ele>1847.834</ele>
        <time>2018-07-04T11:54:21Z</time>
      </trkpt>
      <trkpt lat="46.260187" lon="6.794173">
        <ele>1847.050</ele>
        <time>2018-07-04T11:54:28Z</time>
      </trkpt>
      <trkpt lat="46.260138" lon="6.794185">
        <ele>1845.745</ele>
        <time>2018-07-04T11:54:34Z</time>
      </trkpt>
      <trkpt lat="46.260094" lon="6.794200">
        <ele>1844.878</ele>
        <time>2018-07-04T11:54:40Z</time>
      </trkpt>
      <trkpt lat="46.260052" lon="6.794225">
        <ele>1844.433</ele>
        <time>2018-07-04T11:54:44Z</time>
      </trkpt>
      <trkpt lat="46.260000" lon="6.794255">
        <ele>1844.126</ele>
        <time>2018-07-04T11:54:49Z</time>
      </trkpt>
      <trkpt lat="46.259950" lon="6.794278">
        <ele>1844.308</ele>
        <time>2018-07-04T11:54:54Z</time>
      </trkpt>
      <trkpt lat="46.259903" lon="6.794253">
        <ele>1842.499</ele>
        <time>2018-07-04T11:54:59Z</time>
      </trkpt>
      <trkpt lat="46.259858" lon="6.794262">
        <ele>1842.115</ele>
        <time>2018-07-04T11:55:03Z</time>
      </trkpt>
      <trkpt lat="46.259803" lon="6.794269">
        <ele>1841.467</ele>
        <time>2018-07-04T11:55:08Z</time>
      </trkpt>
      <trkpt lat="46.259752" lon="6.794281">
        <ele>1841.063</ele>
        <time>2018-07-04T11:55:12Z</time>
      </trkpt>
      <trkpt lat="46.259699" lon="6.794269">
        <ele>1839.735</ele>
        <time>2018-07-04T11:55:17Z</time>
      </trkpt>
      <trkpt lat="46.259645" lon="6.794273">
        <ele>1838.912</ele>
        <time>2018-07-04T11:55:21Z</time>
      </trkpt>
      <trkpt lat="46.259601" lon="6.794308">
        <ele>1839.478</ele>
        <time>2018-07-04T11:55:25Z</time>
      </trkpt>
      <trkpt lat="46.259557" lon="6.794333">
        <ele>1839.583</ele>
        <time>2018-07-04T11:55:30Z</time>
      </trkpt>
      <trkpt lat="46.259506" lon="6.794348">
        <ele>1839.184</ele>
        <time>2018-07-04T11:55:35Z</time>
      </trkpt>
      <trkpt lat="46.259457" lon="6.794354">
        <ele>1838.307</ele>
        <time>2018-07-04T11:55:40Z</time>
      </trkpt>
      <trkpt lat="46.259410" lon="6.794365">
        <ele>1837.017</ele>
        <time>2018-07-04T11:55:45Z</time>
      </trkpt>
      <trkpt lat="46.259363" lon="6.794372">
        <ele>1835.108</ele>
        <time>2018-07-04T11:55:50Z</time>
      </trkpt>
      <trkpt lat="46.259317" lon="6.794413">
        <ele>1834.210</ele>
        <time>2018-07-04T11:55:55Z</time>
      </trkpt>
      <trkpt lat="46.259291" lon="6.794468">
        <ele>1834.086</ele>
        <time>2018-07-04T11:56:01Z</time>
      </trkpt>
      <trkpt lat="46.259261" lon="6.794525">
        <ele>1832.818</ele>
        <time>2018-07-04T11:56:07Z</time>
      </trkpt>
      <trkpt lat="46.259265" lon="6.794595">
        <ele>1833.474</ele>
        <time>2018-07-04T11:56:13Z</time>
      </trkpt>
      <trkpt lat="46.259276" lon="6.794666">
        <ele>1834.546</ele>
        <time>2018-07-04T11:56:20Z</time>
      </trkpt>
      <trkpt lat="46.259290" lon="6.794729">
        <ele>1835.963</ele>
        <time>2018-07-04T11:56:28Z</time>
      </trkpt>
      <trkpt lat="46.259269" lon="6.794793">
        <ele>1834.129</ele>
        <time>2018-07-04T11:56:41Z</time>
      </trkpt>
      <trkpt lat="46.259250" lon="6.794855">
        <ele>1832.534</ele>
        <time>2018-07-04T11:56:50Z</time>
      </trkpt>
      <trkpt lat="46.259246" lon="6.794923">
        <ele>1832.021</ele>
        <time>2018-07-04T11:56:56Z</time>
      </trkpt>
      <trkpt lat="46.259235" lon="6.794991">
        <ele>1831.041</ele>
        <time>2018-07-04T11:57:01Z</time>
      </trkpt>
      <trkpt lat="46.259239" lon="6.795058">
        <ele>1831.005</ele>
        <time>2018-07-04T11:57:06Z</time>
      </trkpt>
      <trkpt lat="46.259233" lon="6.795129">
        <ele>1830.408</ele>
        <time>2018-07-04T11:57:11Z</time>
      </trkpt>
      <trkpt lat="46.259207" lon="6.795190">
        <ele>1828.654</ele>
        <time>2018-07-04T11:57:16Z</time>
      </trkpt>
      <trkpt lat="46.259167" lon="6.795242">
        <ele>1826.010</ele>
        <time>2018-07-04T11:57:22Z</time>
      </trkpt>
      <trkpt lat="46.259144" lon="6.795306">
        <ele>1824.992</ele>
        <time>2018-07-04T11:57:27Z</time>
      </trkpt>
      <trkpt lat="46.259135" lon="6.795376">
        <ele>1824.928</ele>
        <time>2018-07-04T11:57:32Z</time>
      </trkpt>
      <trkpt lat="46.259107" lon="6.795436">
        <ele>1823.780</ele>
        <time>2018-07-04T11:57:42Z</time>
      </trkpt>
      <trkpt lat="46.259062" lon="6.795408">
        <ele>1820.957</ele>
        <time>2018-07-04T11:57:51Z</time>
      </trkpt>
      <trkpt lat="46.259039" lon="6.795350">
        <ele>1819.243</ele>
        <time>2018-07-04T11:58:02Z</time>
      </trkpt>
      <trkpt lat="46.259014" lon="6.795293">
        <ele>1817.378</ele>
        <time>2018-07-04T11:58:11Z</time>
      </trkpt>
      <trkpt lat="46.259005" lon="6.795222">
        <ele>1816.356</ele>
        <time>2018-07-04T11:58:20Z</time>
      </trkpt>
      <trkpt lat="46.258983" lon="6.795159">
        <ele>1814.659</ele>
        <time>2018-07-04T11:58:30Z</time>
      </trkpt>
      <trkpt lat="46.258954" lon="6.795217">
        <ele>1813.214</ele>
        <time>2018-07-04T11:58:40Z</time>
      </trkpt>
      <trkpt lat="46.258927" lon="6.795279">
        <ele>1812.208</ele>
        <time>2018-07-04T11:58:46Z</time>
      </trkpt>
      <trkpt lat="46.258893" lon="6.795331">
        <ele>1810.657</ele>
        <time>2018-07-04T11:58:53Z</time>
      </trkpt>
      <trkpt lat="46.258850" lon="6.795300">
        <ele>1808.173</ele>
        <time>2018-07-04T11:59:01Z</time>
      </trkpt>
      <trkpt lat="46.258829" lon="6.795240">
        <ele>1806.485</ele>
        <time>2018-07-04T11:59:10Z</time>
      </trkpt>
      <trkpt lat="46.258827" lon="6.795172">
        <ele>1805.641</ele>
        <time>2018-07-04T11:59:18Z</time>
      </trkpt>
      <trkpt lat="46.258827" lon="6.795098">
        <ele>1804.923</ele>
        <time>2018-07-04T11:59:25Z</time>
      </trkpt>
      <trkpt lat="46.258818" lon="6.795034">
        <ele>1803.820</ele>
        <time>2018-07-04T11:59:32Z</time>
      </trkpt>
      <trkpt lat="46.258788" lon="6.794984">
        <ele>1802.086</ele>
        <time>2018-07-04T11:59:41Z</time>
      </trkpt>
      <trkpt lat="46.258753" lon="6.794934">
        <ele>1800.331</ele>
        <time>2018-07-04T11:59:50Z</time>
      </trkpt>
      <trkpt lat="46.258723" lon="6.794883">
        <ele>1798.859</ele>
        <time>2018-07-04T11:59:57Z</time>
      </trkpt>
      <trkpt lat="46.258698" lon="6.794819">
        <ele>1797.603</ele>
        <time>2018-07-04T12:00:03Z</time>
      </trkpt>
      <trkpt lat="46.258679" lon="6.794759">
        <ele>1796.623</ele>
        <time>2018-07-04T12:00:09Z</time>
      </trkpt>
      <trkpt lat="46.258648" lon="6.794706">
        <ele>1795.108</ele>
        <time>2018-07-04T12:00:16Z</time>
      </trkpt>
      <trkpt lat="46.258630" lon="6.794641">
        <ele>1794.647</ele>
        <time>2018-07-04T12:00:21Z</time>
      </trkpt>
      <trkpt lat="46.258607" lon="6.794574">
        <ele>1793.923</ele>
        <time>2018-07-04T12:00:26Z</time>
      </trkpt>
      <trkpt lat="46.258573" lon="6.794522">
        <ele>1792.715</ele>
        <time>2018-07-04T12:00:32Z</time>
      </trkpt>
      <trkpt lat="46.258536" lon="6.794479">
        <ele>1791.361</ele>
        <time>2018-07-04T12:00:42Z</time>
      </trkpt>
      <trkpt lat="46.258492" lon="6.794504">
        <ele>1789.233</ele>
        <time>2018-07-04T12:00:50Z</time>
      </trkpt>
      <trkpt lat="46.258457" lon="6.794555">
        <ele>1787.410</ele>
        <time>2018-07-04T12:00:57Z</time>
      </trkpt>
      <trkpt lat="46.258419" lon="6.794592">
        <ele>1785.796</ele>
        <time>2018-07-04T12:01:04Z</time>
      </trkpt>
      <trkpt lat="46.258382" lon="6.794631">
        <ele>1784.061</ele>
        <time>2018-07-04T12:01:13Z</time>
      </trkpt>
      <trkpt lat="46.258340" lon="6.794664">
        <ele>1782.364</ele>
        <time>2018-07-04T12:01:21Z</time>
      </trkpt>
      <trkpt lat="46.258292" lon="6.794671">
        <ele>1779.906</ele>
        <time>2018-07-04T12:01:30Z</time>
      </trkpt>
      <trkpt lat="46.258251" lon="6.794711">
        <ele>1777.816</ele>
        <time>2018-07-04T12:01:55Z</time>
      </trkpt>
      <trkpt lat="46.258206" lon="6.794708">
        <ele>1775.608</ele>
        <time>2018-07-04T12:02:04Z</time>
      </trkpt>
      <trkpt lat="46.258173" lon="6.794657">
        <ele>1773.898</ele>
        <time>2018-07-04T12:02:11Z</time>
      </trkpt>
      <trkpt lat="46.258132" lon="6.794616">
        <ele>1771.684</ele>
        <time>2018-07-04T12:02:29Z</time>
      </trkpt>
      <trkpt lat="46.258106" lon="6.794553">
        <ele>1770.046</ele>
        <time>2018-07-04T12:02:36Z</time>
      </trkpt>
      <trkpt lat="46.258080" lon="6.794494">
        <ele>1768.542</ele>
        <time>2018-07-04T12:02:43Z</time>
      </trkpt>
      <trkpt lat="46.258057" lon="6.794435">
        <ele>1767.094</ele>
        <time>2018-07-04T12:02:51Z</time>
      </trkpt>
      <trkpt lat="46.258045" lon="6.794367">
        <ele>1765.671</ele>
        <time>2018-07-04T12:02:59Z</time>
      </trkpt>
      <trkpt lat="46.258041" lon="6.794293">
        <ele>1764.577</ele>
        <time>2018-07-04T12:03:06Z</time>
      </trkpt>
      <trkpt lat="46.258014" lon="6.794234">
        <ele>1762.472</ele>
        <time>2018-07-04T12:03:14Z</time>
      </trkpt>
      <trkpt lat="46.257968" lon="6.794232">
        <ele>1759.737</ele>
        <time>2018-07-04T12:03:30Z</time>
      </trkpt>
      <trkpt lat="46.257943" lon="6.794299">
        <ele>1759.149</ele>
        <time>2018-07-04T12:03:37Z</time>
      </trkpt>
      <trkpt lat="46.257913" lon="6.794353">
        <ele>1758.113</ele>
        <time>2018-07-04T12:03:45Z</time>
      </trkpt>
      <trkpt lat="46.257893" lon="6.794419">
        <ele>1757.908</ele>
        <time>2018-07-04T12:03:53Z</time>
      </trkpt>
      <trkpt lat="46.257889" lon="6.794491">
        <ele>1758.395</ele>
        <time>2018-07-04T12:03:59Z</time>
      </trkpt>
      <trkpt lat="46.257881" lon="6.794563">
        <ele>1758.321</ele>
        <time>2018-07-04T12:04:05Z</time>
      </trkpt>
      <trkpt lat="46.257868" lon="6.794629">
        <ele>1758.093</ele>
        <time>2018-07-04T12:04:12Z</time>
      </trkpt>
      <trkpt lat="46.257874" lon="6.794701">
        <ele>1758.719</ele>
        <time>2018-07-04T12:04:18Z</time>
      </trkpt>
      <trkpt lat="46.257875" lon="6.794772">
        <ele>1758.721</ele>
        <time>2018-07-04T12:04:27Z</time>
      </trkpt>
      <trkpt lat="46.257879" lon="6.794846">
        <ele>1758.748</ele>
        <time>2018-07-04T12:04:34Z</time>
      </trkpt>
      <trkpt lat="46.257880" lon="6.794917">
        <ele>1758.584</ele>
        <time>2018-07-04T12:04:40Z</time>
      </trkpt>
      <trkpt lat="46.257855" lon="6.794984">
        <ele>1757.029</ele>
        <time>2018-07-04T12:04:47Z</time>
      </trkpt>
      <trkpt lat="46.257817" lon="6.795021">
        <ele>1754.982</ele>
        <time>2018-07-04T12:04:53Z</time>
      </trkpt>
      <trkpt lat="46.257776" lon="6.795053">
        <ele>1752.843</ele>
        <time>2018-07-04T12:05:00Z</time>
      </trkpt>
      <trkpt lat="46.257733" lon="6.795074">
        <ele>1751.317</ele>
        <time>2018-07-04T12:05:09Z</time>
      </trkpt>
      <trkpt lat="46.257701" lon="6.795028">
        <ele>1750.408</ele>
        <time>2018-07-04T12:06:42Z</time>
      </trkpt>
      <trkpt lat="46.257669" lon="6.794971">
        <ele>1749.550</ele>
        <time>2018-07-04T12:06:48Z</time>
      </trkpt>
      <trkpt lat="46.257634" lon="6.794919">
        <ele>1748.276</ele>
        <time>2018-07-04T12:06:54Z</time>
      </trkpt>
      <trkpt lat="46.257601" lon="6.794860">
        <ele>1746.838</ele>
        <time>2018-07-04T12:07:00Z</time>
      </trkpt>
      <trkpt lat="46.257583" lon="6.794796">
        <ele>1745.974</ele>
        <time>2018-07-04T12:07:05Z</time>
      </trkpt>
      <trkpt lat="46.257558" lon="6.794733">
        <ele>1744.656</ele>
        <time>2018-07-04T12:07:11Z</time>
      </trkpt>
      <trkpt lat="46.257540" lon="6.794670">
        <ele>1743.443</ele>
        <time>2018-07-04T12:07:16Z</time>
      </trkpt>
      <trkpt lat="46.257523" lon="6.794608">
        <ele>1742.239</ele>
        <time>2018-07-04T12:07:21Z</time>
      </trkpt>
      <trkpt lat="46.257516" lon="6.794541">
        <ele>1741.494</ele>
        <time>2018-07-04T12:07:26Z</time>
      </trkpt>
      <trkpt lat="46.257507" lon="6.794471">
        <ele>1740.565</ele>
        <time>2018-07-04T12:07:31Z</time>
      </trkpt>
      <trkpt lat="46.257495" lon="6.794398">
        <ele>1739.368</ele>
        <time>2018-07-04T12:07:36Z</time>
      </trkpt>
      <trkpt lat="46.257484" lon="6.794329">
        <ele>1738.014</ele>
        <time>2018-07-04T12:07:41Z</time>
      </trkpt>
      <trkpt lat="46.257471" lon="6.794257">
        <ele>1736.508</ele>
        <time>2018-07-04T12:07:47Z</time>
      </trkpt>
      <trkpt lat="46.257461" lon="6.794188">
        <ele>1735.278</ele>
        <time>2018-07-04T12:07:53Z</time>
      </trkpt>
      <trkpt lat="46.257449" lon="6.794121">
        <ele>1733.374</ele>
        <time>2018-07-04T12:07:58Z</time>
      </trkpt>
      <trkpt lat="46.257407" lon="6.794092">
        <ele>1730.336</ele>
        <time>2018-07-04T12:08:12Z</time>
      </trkpt>
      <trkpt lat="46.257388" lon="6.794151">
        <ele>1730.652</ele>
        <time>2018-07-04T12:08:25Z</time>
      </trkpt>
      <trkpt lat="46.257373" lon="6.794216">
        <ele>1731.054</ele>
        <time>2018-07-04T12:08:41Z</time>
      </trkpt>
      <trkpt lat="46.257325" lon="6.794241">
        <ele>1729.061</ele>
        <time>2018-07-04T12:08:47Z</time>
      </trkpt>
      <trkpt lat="46.257281" lon="6.794229">
        <ele>1726.617</ele>
        <time>2018-07-04T12:08:56Z</time>
      </trkpt>
      <trkpt lat="46.257239" lon="6.794198">
        <ele>1723.762</ele>
        <time>2018-07-04T12:09:04Z</time>
      </trkpt>
      <trkpt lat="46.257192" lon="6.794179">
        <ele>1721.124</ele>
        <time>2018-07-04T12:09:13Z</time>
      </trkpt>
      <trkpt lat="46.257144" lon="6.794172">
        <ele>1719.004</ele>
        <time>2018-07-04T12:09:22Z</time>
      </trkpt>
      <trkpt lat="46.257102" lon="6.794136">
        <ele>1716.214</ele>
        <time>2018-07-04T12:09:32Z</time>
      </trkpt>
      <trkpt lat="46.257055" lon="6.794132">
        <ele>1714.208</ele>
        <time>2018-07-04T12:09:42Z</time>
      </trkpt>
      <trkpt lat="46.257008" lon="6.794115">
        <ele>1711.714</ele>
        <time>2018-07-04T12:09:55Z</time>
      </trkpt>
      <trkpt lat="46.256962" lon="6.794130">
        <ele>1710.490</ele>
        <time>2018-07-04T12:10:04Z</time>
      </trkpt>
      <trkpt lat="46.256953" lon="6.794066">
        <ele>1707.752</ele>
        <time>2018-07-04T12:10:20Z</time>
      </trkpt>
      <trkpt lat="46.256976" lon="6.794005">
        <ele>1706.518</ele>
        <time>2018-07-04T12:10:34Z</time>
      </trkpt>
      <trkpt lat="46.257000" lon="6.793940">
        <ele>1705.220</ele>
        <time>2018-07-04T12:10:46Z</time>
      </trkpt>
      <trkpt lat="46.257013" lon="6.793873">
        <ele>1703.497</ele>
        <time>2018-07-04T12:10:52Z</time>
      </trkpt>
      <trkpt lat="46.257042" lon="6.793820">
        <ele>1702.873</ele>
        <time>2018-07-04T12:10:58Z</time>
      </trkpt>
      <trkpt lat="46.257081" lon="6.793785">
        <ele>1703.528</ele>
        <time>2018-07-04T12:11:09Z</time>
      </trkpt>
      <trkpt lat="46.257113" lon="6.793729">
        <ele>1703.336</ele>
        <time>2018-07-04T12:11:16Z</time>
      </trkpt>
      <trkpt lat="46.257139" lon="6.793675">
        <ele>1703.117</ele>
        <time>2018-07-04T12:11:21Z</time>
      </trkpt>
      <trkpt lat="46.257165" lon="6.793615">
        <ele>1702.818</ele>
        <time>2018-07-04T12:11:27Z</time>
      </trkpt>
      <trkpt lat="46.257192" lon="6.793562">
        <ele>1703.008</ele>
        <time>2018-07-04T12:11:35Z</time>
      </trkpt>
      <trkpt lat="46.257206" lon="6.793498">
        <ele>1702.225</ele>
        <time>2018-07-04T12:11:40Z</time>
      </trkpt>
      <trkpt lat="46.257221" lon="6.793436">
        <ele>1701.521</ele>
        <time>2018-07-04T12:11:45Z</time>
      </trkpt>
      <trkpt lat="46.257226" lon="6.793368">
        <ele>1700.133</ele>
        <time>2018-07-04T12:11:50Z</time>
      </trkpt>
      <trkpt lat="46.257243" lon="6.793305">
        <ele>1699.779</ele>
        <time>2018-07-04T12:11:55Z</time>
      </trkpt>
      <trkpt lat="46.257267" lon="6.793244">
        <ele>1699.841</ele>
        <time>2018-07-04T12:12:01Z</time>
      </trkpt>
      <trkpt lat="46.257282" lon="6.793172">
        <ele>1698.948</ele>
        <time>2018-07-04T12:12:07Z</time>
      </trkpt>
      <trkpt lat="46.257294" lon="6.793107">
        <ele>1697.964</ele>
        <time>2018-07-04T12:12:11Z</time>
      </trkpt>
      <trkpt lat="46.257306" lon="6.793041">
        <ele>1697.189</ele>
        <time>2018-07-04T12:12:16Z</time>
      </trkpt>
      <trkpt lat="46.257321" lon="6.792971">
        <ele>1697.596</ele>
        <time>2018-07-04T12:12:22Z</time>
      </trkpt>
      <trkpt lat="46.257332" lon="6.792901">
        <ele>1697.631</ele>
        <time>2018-07-04T12:12:28Z</time>
      </trkpt>
      <trkpt lat="46.257356" lon="6.792825">
        <ele>1698.524</ele>
        <time>2018-07-04T12:13:02Z</time>
      </trkpt>
      <trkpt lat="46.257352" lon="6.792756">
        <ele>1697.908</ele>
        <time>2018-07-04T12:13:11Z</time>
      </trkpt>
      <trkpt lat="46.257341" lon="6.792691">
        <ele>1697.141</ele>
        <time>2018-07-04T12:13:18Z</time>
      </trkpt>
      <trkpt lat="46.257343" lon="6.792622">
        <ele>1697.027</ele>
        <time>2018-07-04T12:13:27Z</time>
      </trkpt>
      <trkpt lat="46.257331" lon="6.792551">
        <ele>1696.139</ele>
        <time>2018-07-04T12:13:34Z</time>
      </trkpt>
      <trkpt lat="46.257323" lon="6.792482">
        <ele>1695.385</ele>
        <time>2018-07-04T12:13:45Z</time>
      </trkpt>
      <trkpt lat="46.257323" lon="6.792413">
        <ele>1695.087</ele>
        <time>2018-07-04T12:13:52Z</time>
      </trkpt>
      <trkpt lat="46.257324" lon="6.792346">
        <ele>1694.774</ele>
        <time>2018-07-04T12:13:58Z</time>
      </trkpt>
      <trkpt lat="46.257324" lon="6.792276">
        <ele>1694.340</ele>
        <time>2018-07-04T12:14:06Z</time>
      </trkpt>
      <trkpt lat="46.257354" lon="6.792227">
        <ele>1695.395</ele>
        <time>2018-07-04T12:14:15Z</time>
      </trkpt>
      <trkpt lat="46.257394" lon="6.792173">
        <ele>1697.049</ele>
        <time>2018-07-04T12:14:21Z</time>
      </trkpt>
      <trkpt lat="46.257428" lon="6.792124">
        <ele>1698.402</ele>
        <time>2018-07-04T12:14:26Z</time>
      </trkpt>
      <trkpt lat="46.257447" lon="6.792058">
        <ele>1699.222</ele>
        <time>2018-07-04T12:14:32Z</time>
      </trkpt>
      <trkpt lat="46.257449" lon="6.791981">
        <ele>1699.508</ele>
        <time>2018-07-04T12:14:38Z</time>
      </trkpt>
      <trkpt lat="46.257439" lon="6.791910">
        <ele>1700.076</ele>
        <time>2018-07-04T12:14:43Z</time>
      </trkpt>
      <trkpt lat="46.257413" lon="6.791855">
        <ele>1700.412</ele>
        <time>2018-07-04T12:14:48Z</time>
      </trkpt>
      <trkpt lat="46.257369" lon="6.791824">
        <ele>1699.824</ele>
        <time>2018-07-04T12:14:56Z</time>
      </trkpt>
      <trkpt lat="46.257321" lon="6.791811">
        <ele>1698.730</ele>
        <time>2018-07-04T12:15:04Z</time>
      </trkpt>
      <trkpt lat="46.257272" lon="6.791828">
        <ele>1696.932</ele>
        <time>2018-07-04T12:15:13Z</time>
      </trkpt>
      <trkpt lat="46.257227" lon="6.791846">
        <ele>1695.389</ele>
        <time>2018-07-04T12:15:21Z</time>
      </trkpt>
      <trkpt lat="46.257180" lon="6.791864">
        <ele>1693.845</ele>
        <time>2018-07-04T12:15:29Z</time>
      </trkpt>
      <trkpt lat="46.257136" lon="6.791880">
        <ele>1692.530</ele>
        <time>2018-07-04T12:15:36Z</time>
      </trkpt>
      <trkpt lat="46.257095" lon="6.791847">
        <ele>1692.456</ele>
        <time>2018-07-04T12:15:42Z</time>
      </trkpt>
      <trkpt lat="46.257045" lon="6.791841">
        <ele>1691.459</ele>
        <time>2018-07-04T12:15:49Z</time>
      </trkpt>
      <trkpt lat="46.257009" lon="6.791889">
        <ele>1689.614</ele>
        <time>2018-07-04T12:15:57Z</time>
      </trkpt>
      <trkpt lat="46.256999" lon="6.791957">
        <ele>1687.908</ele>
        <time>2018-07-04T12:16:05Z</time>
      </trkpt>
      <trkpt lat="46.256971" lon="6.792015">
        <ele>1685.987</ele>
        <time>2018-07-04T12:16:14Z</time>
      </trkpt>
      <trkpt lat="46.256930" lon="6.792046">
        <ele>1684.063</ele>
        <time>2018-07-04T12:16:22Z</time>
      </trkpt>
      <trkpt lat="46.256888" lon="6.792077">
        <ele>1682.175</ele>
        <time>2018-07-04T12:16:30Z</time>
      </trkpt>
      <trkpt lat="46.256854" lon="6.792127">
        <ele>1680.091</ele>
        <time>2018-07-04T12:16:38Z</time>
      </trkpt>
      <trkpt lat="46.256808" lon="6.792153">
        <ele>1678.273</ele>
        <time>2018-07-04T12:16:45Z</time>
      </trkpt>
      <trkpt lat="46.256764" lon="6.792166">
        <ele>1676.730</ele>
        <time>2018-07-04T12:16:51Z</time>
      </trkpt>
      <trkpt lat="46.256720" lon="6.792180">
        <ele>1675.316</ele>
        <time>2018-07-04T12:16:57Z</time>
      </trkpt>
      <trkpt lat="46.256677" lon="6.792209">
        <ele>1673.551</ele>
        <time>2018-07-04T12:17:04Z</time>
      </trkpt>
      <trkpt lat="46.256636" lon="6.792246">
        <ele>1672.018</ele>
        <time>2018-07-04T12:17:13Z</time>
      </trkpt>
      <trkpt lat="46.256590" lon="6.792224">
        <ele>1671.398</ele>
        <time>2018-07-04T12:17:22Z</time>
      </trkpt>
      <trkpt lat="46.256541" lon="6.792201">
        <ele>1670.717</ele>
        <time>2018-07-04T12:17:29Z</time>
      </trkpt>
      <trkpt lat="46.256494" lon="6.792208">
        <ele>1669.508</ele>
        <time>2018-07-04T12:17:38Z</time>
      </trkpt>
      <trkpt lat="46.256448" lon="6.792221">
        <ele>1668.333</ele>
        <time>2018-07-04T12:17:47Z</time>
      </trkpt>
      <trkpt lat="46.256402" lon="6.792201">
        <ele>1667.729</ele>
        <time>2018-07-04T12:17:55Z</time>
      </trkpt>
      <trkpt lat="46.256356" lon="6.792206">
        <ele>1666.541</ele>
        <time>2018-07-04T12:18:02Z</time>
      </trkpt>
      <trkpt lat="46.256306" lon="6.792211">
        <ele>1665.137</ele>
        <time>2018-07-04T12:18:09Z</time>
      </trkpt>
      <trkpt lat="46.256262" lon="6.792228">
        <ele>1663.729</ele>
        <time>2018-07-04T12:18:16Z</time>
      </trkpt>
      <trkpt lat="46.256219" lon="6.792265">
        <ele>1661.996</ele>
        <time>2018-07-04T12:18:25Z</time>
      </trkpt>
      <trkpt lat="46.256173" lon="6.792285">
        <ele>1660.432</ele>
        <time>2018-07-04T12:18:35Z</time>
      </trkpt>
      <trkpt lat="46.256129" lon="6.792301">
        <ele>1659.097</ele>
        <time>2018-07-04T12:18:57Z</time>
      </trkpt>
      <trkpt lat="46.256089" lon="6.792252">
        <ele>1659.031</ele>
        <time>2018-07-04T12:19:12Z</time>
      </trkpt>
      <trkpt lat="46.256057" lon="6.792189">
        <ele>1659.461</ele>
        <time>2018-07-04T12:19:18Z</time>
      </trkpt>
      <trkpt lat="46.256018" lon="6.792137">
        <ele>1659.507</ele>
        <time>2018-07-04T12:19:24Z</time>
      </trkpt>
      <trkpt lat="46.255991" lon="6.792082">
        <ele>1659.908</ele>
        <time>2018-07-04T12:19:29Z</time>
      </trkpt>
      <trkpt lat="46.255948" lon="6.792034">
        <ele>1659.985</ele>
        <time>2018-07-04T12:19:35Z</time>
      </trkpt>
      <trkpt lat="46.255908" lon="6.791996">
        <ele>1659.771</ele>
        <time>2018-07-04T12:19:40Z</time>
      </trkpt>
      <trkpt lat="46.255865" lon="6.791952">
        <ele>1659.513</ele>
        <time>2018-07-04T12:19:45Z</time>
      </trkpt>
      <trkpt lat="46.255826" lon="6.791897">
        <ele>1659.929</ele>
        <time>2018-07-04T12:19:50Z</time>
      </trkpt>
      <trkpt lat="46.255793" lon="6.791845">
        <ele>1660.591</ele>
        <time>2018-07-04T12:19:55Z</time>
      </trkpt>
      <trkpt lat="46.255779" lon="6.791783">
        <ele>1661.668</ele>
        <time>2018-07-04T12:20:28Z</time>
      </trkpt>
      <trkpt lat="46.255741" lon="6.791736">
        <ele>1661.914</ele>
        <time>2018-07-04T12:21:22Z</time>
      </trkpt>
      <trkpt lat="46.255704" lon="6.791687">
        <ele>1662.389</ele>
        <time>2018-07-04T12:21:28Z</time>
      </trkpt>
      <trkpt lat="46.255672" lon="6.791640">
        <ele>1662.645</ele>
        <time>2018-07-04T12:21:34Z</time>
      </trkpt>
      <trkpt lat="46.255637" lon="6.791594">
        <ele>1663.047</ele>
        <time>2018-07-04T12:21:40Z</time>
      </trkpt>
      <trkpt lat="46.255593" lon="6.791551">
        <ele>1663.111</ele>
        <time>2018-07-04T12:21:46Z</time>
      </trkpt>
      <trkpt lat="46.255554" lon="6.791515">
        <ele>1663.308</ele>
        <time>2018-07-04T12:21:51Z</time>
      </trkpt>
      <trkpt lat="46.255519" lon="6.791473">
        <ele>1663.986</ele>
        <time>2018-07-04T12:21:56Z</time>
      </trkpt>
      <trkpt lat="46.255477" lon="6.791436">
        <ele>1664.432</ele>
        <time>2018-07-04T12:22:03Z</time>
      </trkpt>
      <trkpt lat="46.255435" lon="6.791393">
        <ele>1665.064</ele>
        <time>2018-07-04T12:22:12Z</time>
      </trkpt>
      <trkpt lat="46.255396" lon="6.791355">
        <ele>1665.640</ele>
        <time>2018-07-04T12:22:19Z</time>
      </trkpt>
      <trkpt lat="46.255359" lon="6.791315">
        <ele>1666.282</ele>
        <time>2018-07-04T12:22:27Z</time>
      </trkpt>
      <trkpt lat="46.255319" lon="6.791272">
        <ele>1666.819</ele>
        <time>2018-07-04T12:22:36Z</time>
      </trkpt>
      <trkpt lat="46.255284" lon="6.791227">
        <ele>1667.565</ele>
        <time>2018-07-04T12:22:43Z</time>
      </trkpt>
      <trkpt lat="46.255250" lon="6.791171">
        <ele>1668.560</ele>
        <time>2018-07-04T12:22:50Z</time>
      </trkpt>
      <trkpt lat="46.255216" lon="6.791125">
        <ele>1669.277</ele>
        <time>2018-07-04T12:22:57Z</time>
      </trkpt>
      <trkpt lat="46.255184" lon="6.791077">
        <ele>1670.361</ele>
        <time>2018-07-04T12:23:06Z</time>
      </trkpt>
      <trkpt lat="46.255143" lon="6.791042">
        <ele>1671.027</ele>
        <time>2018-07-04T12:23:15Z</time>
      </trkpt>
      <trkpt lat="46.255098" lon="6.791011">
        <ele>1671.608</ele>
        <time>2018-07-04T12:23:23Z</time>
      </trkpt>
      <trkpt lat="46.255062" lon="6.790971">
        <ele>1672.569</ele>
        <time>2018-07-04T12:23:31Z</time>
      </trkpt>
      <trkpt lat="46.255020" lon="6.790929">
        <ele>1673.475</ele>
        <time>2018-07-04T12:23:41Z</time>
      </trkpt>
      <trkpt lat="46.254979" lon="6.790891">
        <ele>1674.887</ele>
        <time>2018-07-04T12:23:49Z</time>
      </trkpt>
      <trkpt lat="46.254953" lon="6.790838">
        <ele>1676.973</ele>
        <time>2018-07-04T12:23:57Z</time>
      </trkpt>
      <trkpt lat="46.254919" lon="6.790792">
        <ele>1679.185</ele>
        <time>2018-07-04T12:24:04Z</time>
      </trkpt>
      <trkpt lat="46.254890" lon="6.790739">
        <ele>1681.632</ele>
        <time>2018-07-04T12:24:10Z</time>
      </trkpt>
      <trkpt lat="46.254859" lon="6.790688">
        <ele>1684.388</ele>
        <time>2018-07-04T12:24:17Z</time>
      </trkpt>
      <trkpt lat="46.254820" lon="6.790647">
        <ele>1687.013</ele>
        <time>2018-07-04T12:24:26Z</time>
      </trkpt>
      <trkpt lat="46.254776" lon="6.790627">
        <ele>1689.224</ele>
        <time>2018-07-04T12:24:37Z</time>
      </trkpt>
      <trkpt lat="46.254736" lon="6.790674">
        <ele>1688.504</ele>
        <time>2018-07-04T12:24:47Z</time>
      </trkpt>
      <trkpt lat="46.254706" lon="6.790733">
        <ele>1687.114</ele>
        <time>2018-07-04T12:24:54Z</time>
      </trkpt>
      <trkpt lat="46.254680" lon="6.790786">
        <ele>1686.208</ele>
        <time>2018-07-04T12:25:01Z</time>
      </trkpt>
      <trkpt lat="46.254650" lon="6.790844">
        <ele>1685.624</ele>
        <time>2018-07-04T12:25:10Z</time>
      </trkpt>
      <trkpt lat="46.254621" lon="6.790908">
        <ele>1685.220</ele>
        <time>2018-07-04T12:25:26Z</time>
      </trkpt>
      <trkpt lat="46.254589" lon="6.790957">
        <ele>1685.632</ele>
        <time>2018-07-04T12:25:38Z</time>
      </trkpt>
      <trkpt lat="46.254568" lon="6.791017">
        <ele>1685.168</ele>
        <time>2018-07-04T12:25:51Z</time>
      </trkpt>
      <trkpt lat="46.254530" lon="6.791055">
        <ele>1686.310</ele>
        <time>2018-07-04T12:26:00Z</time>
      </trkpt>
      <trkpt lat="46.254500" lon="6.791106">
        <ele>1686.747</ele>
        <time>2018-07-04T12:26:09Z</time>
      </trkpt>
      <trkpt lat="46.254457" lon="6.791142">
        <ele>1688.263</ele>
        <time>2018-07-04T12:26:17Z</time>
      </trkpt>
      <trkpt lat="46.254412" lon="6.791159">
        <ele>1689.348</ele>
        <time>2018-07-04T12:26:24Z</time>
      </trkpt>
      <trkpt lat="46.254368" lon="6.791141">
        <ele>1690.964</ele>
        <time>2018-07-04T12:26:29Z</time>
      </trkpt>
      <trkpt lat="46.254323" lon="6.791120">
        <ele>1692.406</ele>
        <time>2018-07-04T12:26:34Z</time>
      </trkpt>
      <trkpt lat="46.254277" lon="6.791123">
        <ele>1693.416</ele>
        <time>2018-07-04T12:26:39Z</time>
      </trkpt>
      <trkpt lat="46.254246" lon="6.791177">
        <ele>1693.208</ele>
        <time>2018-07-04T12:26:45Z</time>
      </trkpt>
      <trkpt lat="46.254226" lon="6.791237">
        <ele>1692.888</ele>
        <time>2018-07-04T12:26:50Z</time>
      </trkpt>
      <trkpt lat="46.254201" lon="6.791297">
        <ele>1692.824</ele>
        <time>2018-07-04T12:26:57Z</time>
      </trkpt>
      <trkpt lat="46.254183" lon="6.791360">
        <ele>1692.686</ele>
        <time>2018-07-04T12:27:05Z</time>
      </trkpt>
      <trkpt lat="46.254148" lon="6.791402">
        <ele>1693.142</ele>
        <time>2018-07-04T12:27:11Z</time>
      </trkpt>
      <trkpt lat="46.254109" lon="6.791452">
        <ele>1693.184</ele>
        <time>2018-07-04T12:27:16Z</time>
      </trkpt>
      <trkpt lat="46.254070" lon="6.791509">
        <ele>1693.091</ele>
        <time>2018-07-04T12:27:21Z</time>
      </trkpt>
      <trkpt lat="46.254036" lon="6.791554">
        <ele>1693.087</ele>
        <time>2018-07-04T12:27:25Z</time>
      </trkpt>
      <trkpt lat="46.253996" lon="6.791590">
        <ele>1693.242</ele>
        <time>2018-07-04T12:27:29Z</time>
      </trkpt>
      <trkpt lat="46.253952" lon="6.791615">
        <ele>1693.651</ele>
        <time>2018-07-04T12:27:33Z</time>
      </trkpt>
      <trkpt lat="46.253900" lon="6.791635">
        <ele>1694.301</ele>
        <time>2018-07-04T12:27:38Z</time>
      </trkpt>
      <trkpt lat="46.253850" lon="6.791656">
        <ele>1694.911</ele>
        <time>2018-07-04T12:27:43Z</time>
      </trkpt>
      <trkpt lat="46.253797" lon="6.791680">
        <ele>1695.508</ele>
        <time>2018-07-04T12:27:48Z</time>
      </trkpt>
      <trkpt lat="46.253744" lon="6.791710">
        <ele>1696.217</ele>
        <time>2018-07-04T12:27:53Z</time>
      </trkpt>
      <trkpt lat="46.253702" lon="6.791738">
        <ele>1696.893</ele>
        <time>2018-07-04T12:27:57Z</time>
      </trkpt>
      <trkpt lat="46.253660" lon="6.791771">
        <ele>1697.375</ele>
        <time>2018-07-04T12:28:01Z</time>
      </trkpt>
      <trkpt lat="46.253617" lon="6.791809">
        <ele>1697.971</ele>
        <time>2018-07-04T12:28:06Z</time>
      </trkpt>
      <trkpt lat="46.253573" lon="6.791840">
        <ele>1698.183</ele>
        <time>2018-07-04T12:28:11Z</time>
      </trkpt>
      <trkpt lat="46.253521" lon="6.791845">
        <ele>1698.590</ele>
        <time>2018-07-04T12:28:17Z</time>
      </trkpt>
      <trkpt lat="46.253476" lon="6.791803">
        <ele>1699.246</ele>
        <time>2018-07-04T12:29:21Z</time>
      </trkpt>
      <trkpt lat="46.253437" lon="6.791847">
        <ele>1699.281</ele>
        <time>2018-07-04T12:29:30Z</time>
      </trkpt>
      <trkpt lat="46.253390" lon="6.791850">
        <ele>1699.564</ele>
        <time>2018-07-04T12:29:36Z</time>
      </trkpt>
      <trkpt lat="46.253383" lon="6.791925">
        <ele>1698.806</ele>
        <time>2018-07-04T12:29:49Z</time>
      </trkpt>
      <trkpt lat="46.253341" lon="6.791878">
        <ele>1699.716</ele>
        <time>2018-07-04T12:30:05Z</time>
      </trkpt>
      <trkpt lat="46.253303" lon="6.791835">
        <ele>1699.908</ele>
        <time>2018-07-04T12:30:10Z</time>
      </trkpt>
      <trkpt lat="46.253255" lon="6.791808">
        <ele>1700.098</ele>
        <time>2018-07-04T12:30:17Z</time>
      </trkpt>
      <trkpt lat="46.253212" lon="6.791737">
        <ele>1701.354</ele>
        <time>2018-07-04T12:36:25Z</time>
      </trkpt>
      <trkpt lat="46.253171" lon="6.791709">
        <ele>1702.126</ele>
        <time>2018-07-04T12:36:33Z</time>
      </trkpt>
      <trkpt lat="46.253126" lon="6.791689">
        <ele>1702.832</ele>
        <time>2018-07-04T12:36:41Z</time>
      </trkpt>
      <trkpt lat="46.253077" lon="6.791688">
        <ele>1703.184</ele>
        <time>2018-07-04T12:36:51Z</time>
      </trkpt>
      <trkpt lat="46.253030" lon="6.791671">
        <ele>1703.941</ele>
        <time>2018-07-04T12:37:00Z</time>
      </trkpt>
      <trkpt lat="46.252984" lon="6.791653">
        <ele>1705.037</ele>
        <time>2018-07-04T12:37:10Z</time>
      </trkpt>
      <trkpt lat="46.252938" lon="6.791638">
        <ele>1705.932</ele>
        <time>2018-07-04T12:37:20Z</time>
      </trkpt>
      <trkpt lat="46.252894" lon="6.791623">
        <ele>1706.792</ele>
        <time>2018-07-04T12:37:28Z</time>
      </trkpt>
      <trkpt lat="46.252849" lon="6.791614">
        <ele>1707.273</ele>
        <time>2018-07-04T12:37:39Z</time>
      </trkpt>
      <trkpt lat="46.252803" lon="6.791599">
        <ele>1707.920</ele>
        <time>2018-07-04T12:37:49Z</time>
      </trkpt>
      <trkpt lat="46.252757" lon="6.791587">
        <ele>1708.708</ele>
        <time>2018-07-04T12:37:58Z</time>
      </trkpt>
      <trkpt lat="46.252710" lon="6.791585">
        <ele>1709.231</ele>
        <time>2018-07-04T12:38:06Z</time>
      </trkpt>
      <trkpt lat="46.252664" lon="6.791594">
        <ele>1709.377</ele>
        <time>2018-07-04T12:38:16Z</time>
      </trkpt>
      <trkpt lat="46.252617" lon="6.791602">
        <ele>1709.679</ele>
        <time>2018-07-04T12:38:23Z</time>
      </trkpt>
      <trkpt lat="46.252569" lon="6.791591">
        <ele>1710.585</ele>
        <time>2018-07-04T12:38:31Z</time>
      </trkpt>
      <trkpt lat="46.252523" lon="6.791589">
        <ele>1711.077</ele>
        <time>2018-07-04T12:38:39Z</time>
      </trkpt>
      <trkpt lat="46.252477" lon="6.791563">
        <ele>1712.374</ele>
        <time>2018-07-04T12:38:52Z</time>
      </trkpt>
      <trkpt lat="46.252430" lon="6.791550">
        <ele>1713.290</ele>
        <time>2018-07-04T12:39:03Z</time>
      </trkpt>
      <trkpt lat="46.252385" lon="6.791546">
        <ele>1713.935</ele>
        <time>2018-07-04T12:39:12Z</time>
      </trkpt>
      <trkpt lat="46.252341" lon="6.791521">
        <ele>1715.287</ele>
        <time>2018-07-04T12:39:30Z</time>
      </trkpt>
      <trkpt lat="46.252299" lon="6.791490">
        <ele>1716.742</ele>
        <time>2018-07-04T12:39:40Z</time>
      </trkpt>
      <trkpt lat="46.252251" lon="6.791486">
        <ele>1717.526</ele>
        <time>2018-07-04T12:39:53Z</time>
      </trkpt>
      <trkpt lat="46.252207" lon="6.791465">
        <ele>1718.608</ele>
        <time>2018-07-04T12:40:04Z</time>
      </trkpt>
      <trkpt lat="46.252159" lon="6.791458">
        <ele>1719.220</ele>
        <time>2018-07-04T12:40:15Z</time>
      </trkpt>
      <trkpt lat="46.252110" lon="6.791451">
        <ele>1719.866</ele>
        <time>2018-07-04T12:40:25Z</time>
      </trkpt>
      <trkpt lat="46.252064" lon="6.791436">
        <ele>1720.658</ele>
        <time>2018-07-04T12:40:33Z</time>
      </trkpt>
      <trkpt lat="46.252019" lon="6.791427">
        <ele>1721.264</ele>
        <time>2018-07-04T12:40:42Z</time>
      </trkpt>
      <trkpt lat="46.251970" lon="6.791420">
        <ele>1721.836</ele>
        <time>2018-07-04T12:40:51Z</time>
      </trkpt>
      <trkpt lat="46.251925" lon="6.791401">
        <ele>1722.683</ele>
        <time>2018-07-04T12:41:00Z</time>
      </trkpt>
      <trkpt lat="46.251876" lon="6.791394">
        <ele>1722.859</ele>
        <time>2018-07-04T12:41:10Z</time>
      </trkpt>
      <trkpt lat="46.251827" lon="6.791375">
        <ele>1723.574</ele>
        <time>2018-07-04T12:41:20Z</time>
      </trkpt>
      <trkpt lat="46.251780" lon="6.791367">
        <ele>1723.857</ele>
        <time>2018-07-04T12:41:27Z</time>
      </trkpt>
      <trkpt lat="46.251730" lon="6.791361">
        <ele>1724.000</ele>
        <time>2018-07-04T12:41:33Z</time>
      </trkpt>
      <trkpt lat="46.251681" lon="6.791346">
        <ele>1724.520</ele>
        <time>2018-07-04T12:41:40Z</time>
      </trkpt>
      <trkpt lat="46.251636" lon="6.791323">
        <ele>1725.208</ele>
        <time>2018-07-04T12:41:48Z</time>
      </trkpt>
      <trkpt lat="46.251595" lon="6.791295">
        <ele>1725.957</ele>
        <time>2018-07-04T12:41:56Z</time>
      </trkpt>
      <trkpt lat="46.251553" lon="6.791258">
        <ele>1726.943</ele>
        <time>2018-07-04T12:42:05Z</time>
      </trkpt>
      <trkpt lat="46.251516" lon="6.791214">
        <ele>1728.275</ele>
        <time>2018-07-04T12:42:12Z</time>
      </trkpt>
      <trkpt lat="46.251480" lon="6.791172">
        <ele>1729.521</ele>
        <time>2018-07-04T12:42:19Z</time>
      </trkpt>
      <trkpt lat="46.251442" lon="6.791132">
        <ele>1730.613</ele>
        <time>2018-07-04T12:42:27Z</time>
      </trkpt>
      <trkpt lat="46.251398" lon="6.791107">
        <ele>1731.240</ele>
        <time>2018-07-04T12:42:35Z</time>
      </trkpt>
      <trkpt lat="46.251356" lon="6.791079">
        <ele>1732.446</ele>
        <time>2018-07-04T12:42:43Z</time>
      </trkpt>
      <trkpt lat="46.251310" lon="6.791062">
        <ele>1733.261</ele>
        <time>2018-07-04T12:42:52Z</time>
      </trkpt>
      <trkpt lat="46.251267" lon="6.791038">
        <ele>1734.377</ele>
        <time>2018-07-04T12:43:00Z</time>
      </trkpt>
      <trkpt lat="46.251220" lon="6.791014">
        <ele>1735.561</ele>
        <time>2018-07-04T12:43:08Z</time>
      </trkpt>
      <trkpt lat="46.251174" lon="6.791007">
        <ele>1735.927</ele>
        <time>2018-07-04T12:43:16Z</time>
      </trkpt>
      <trkpt lat="46.251126" lon="6.791006">
        <ele>1736.108</ele>
        <time>2018-07-04T12:43:26Z</time>
      </trkpt>
      <trkpt lat="46.251076" lon="6.790993">
        <ele>1736.949</ele>
        <time>2018-07-04T12:43:35Z</time>
      </trkpt>
      <trkpt lat="46.251029" lon="6.790972">
        <ele>1738.075</ele>
        <time>2018-07-04T12:43:45Z</time>
      </trkpt>
      <trkpt lat="46.250980" lon="6.790959">
        <ele>1738.717</ele>
        <time>2018-07-04T12:43:54Z</time>
      </trkpt>
      <trkpt lat="46.250932" lon="6.790945">
        <ele>1739.593</ele>
        <time>2018-07-04T12:44:04Z</time>
      </trkpt>
      <trkpt lat="46.250886" lon="6.790932">
        <ele>1740.225</ele>
        <time>2018-07-04T12:44:14Z</time>
      </trkpt>
      <trkpt lat="46.250839" lon="6.790918">
        <ele>1740.952</ele>
        <time>2018-07-04T12:44:22Z</time>
      </trkpt>
      <trkpt lat="46.250789" lon="6.790923">
        <ele>1741.318</ele>
        <time>2018-07-04T12:44:41Z</time>
      </trkpt>
      <trkpt lat="46.250740" lon="6.790921">
        <ele>1741.913</ele>
        <time>2018-07-04T12:44:52Z</time>
      </trkpt>
      <trkpt lat="46.250693" lon="6.790913">
        <ele>1742.659</ele>
        <time>2018-07-04T12:45:04Z</time>
      </trkpt>
      <trkpt lat="46.250645" lon="6.790914">
        <ele>1743.103</ele>
        <time>2018-07-04T12:45:16Z</time>
      </trkpt>
      <trkpt lat="46.250597" lon="6.790905">
        <ele>1744.023</ele>
        <time>2018-07-04T12:45:26Z</time>
      </trkpt>
      <trkpt lat="46.250551" lon="6.790887">
        <ele>1745.108</ele>
        <time>2018-07-04T12:45:35Z</time>
      </trkpt>
      <trkpt lat="46.250511" lon="6.790854">
        <ele>1746.417</ele>
        <time>2018-07-04T12:45:45Z</time>
      </trkpt>
      <trkpt lat="46.250463" lon="6.790862">
        <ele>1746.313</ele>
        <time>2018-07-04T12:46:20Z</time>
      </trkpt>
      <trkpt lat="46.250419" lon="6.790844">
        <ele>1747.115</ele>
        <time>2018-07-04T12:46:28Z</time>
      </trkpt>
      <trkpt lat="46.250372" lon="6.790845">
        <ele>1747.271</ele>
        <time>2018-07-04T12:46:37Z</time>
      </trkpt>
      <trkpt lat="46.250331" lon="6.790812">
        <ele>1748.783</ele>
        <time>2018-07-04T12:46:47Z</time>
      </trkpt>
      <trkpt lat="46.250286" lon="6.790786">
        <ele>1749.990</ele>
        <time>2018-07-04T12:46:57Z</time>
      </trkpt>
      <trkpt lat="46.250237" lon="6.790761">
        <ele>1750.936</ele>
        <time>2018-07-04T12:47:05Z</time>
      </trkpt>
      <trkpt lat="46.250188" lon="6.790767">
        <ele>1750.861</ele>
        <time>2018-07-04T12:47:12Z</time>
      </trkpt>
      <trkpt lat="46.250142" lon="6.790774">
        <ele>1750.642</ele>
        <time>2018-07-04T12:48:01Z</time>
      </trkpt>
      <trkpt lat="46.250096" lon="6.790802">
        <ele>1749.422</ele>
        <time>2018-07-04T12:48:09Z</time>
      </trkpt>
      <trkpt lat="46.250049" lon="6.790799">
        <ele>1749.614</ele>
        <time>2018-07-04T12:48:16Z</time>
      </trkpt>
      <trkpt lat="46.249998" lon="6.790786">
        <ele>1750.208</ele>
        <time>2018-07-04T12:48:23Z</time>
      </trkpt>
      <trkpt lat="46.249953" lon="6.790759">
        <ele>1751.596</ele>
        <time>2018-07-04T12:48:29Z</time>
      </trkpt>
      <trkpt lat="46.249916" lon="6.790719">
        <ele>1753.582</ele>
        <time>2018-07-04T12:48:36Z</time>
      </trkpt>
      <trkpt lat="46.249869" lon="6.790691">
        <ele>1754.914</ele>
        <time>2018-07-04T12:48:52Z</time>
      </trkpt>
      <trkpt lat="46.249820" lon="6.790663">
        <ele>1756.430</ele>
        <time>2018-07-04T12:48:59Z</time>
      </trkpt>
      <trkpt lat="46.249774" lon="6.790639">
        <ele>1757.742</ele>
        <time>2018-07-04T12:49:05Z</time>
      </trkpt>
      <trkpt lat="46.249727" lon="6.790611">
        <ele>1759.279</ele>
        <time>2018-07-04T12:49:12Z</time>
      </trkpt>
      <trkpt lat="46.249679" lon="6.790587">
        <ele>1760.425</ele>
        <time>2018-07-04T12:49:20Z</time>
      </trkpt>
      <trkpt lat="46.249636" lon="6.790563">
        <ele>1761.690</ele>
        <time>2018-07-04T12:49:27Z</time>
      </trkpt>
      <trkpt lat="46.249592" lon="6.790544">
        <ele>1762.682</ele>
        <time>2018-07-04T12:49:34Z</time>
      </trkpt>
      <trkpt lat="46.249547" lon="6.790532">
        <ele>1763.343</ele>
        <time>2018-07-04T12:49:40Z</time>
      </trkpt>
      <trkpt lat="46.249500" lon="6.790531">
        <ele>1763.317</ele>
        <time>2018-07-04T12:49:48Z</time>
      </trkpt>
      <trkpt lat="46.249455" lon="6.790534">
        <ele>1763.208</ele>
        <time>2018-07-04T12:50:51Z</time>
      </trkpt>
      <trkpt lat="46.249410" lon="6.790498">
        <ele>1765.210</ele>
        <time>2018-07-04T12:50:57Z</time>
      </trkpt>
      <trkpt lat="46.249364" lon="6.790498">
        <ele>1765.356</ele>
        <time>2018-07-04T12:51:05Z</time>
      </trkpt>
      <trkpt lat="46.249320" lon="6.790488">
        <ele>1765.948</ele>
        <time>2018-07-04T12:51:13Z</time>
      </trkpt>
      <trkpt lat="46.249270" lon="6.790480">
        <ele>1766.484</ele>
        <time>2018-07-04T12:51:22Z</time>
      </trkpt>
      <trkpt lat="46.249221" lon="6.790475">
        <ele>1766.776</ele>
        <time>2018-07-04T12:51:30Z</time>
      </trkpt>
      <trkpt lat="46.249175" lon="6.790482">
        <ele>1766.463</ele>
        <time>2018-07-04T12:51:42Z</time>
      </trkpt>
      <trkpt lat="46.249132" lon="6.790452">
        <ele>1768.289</ele>
        <time>2018-07-04T12:51:49Z</time>
      </trkpt>
      <trkpt lat="46.249092" lon="6.790419">
        <ele>1770.184</ele>
        <time>2018-07-04T12:51:57Z</time>
      </trkpt>
      <trkpt lat="46.249049" lon="6.790379">
        <ele>1772.348</ele>
        <time>2018-07-04T12:52:06Z</time>
      </trkpt>
      <trkpt lat="46.249007" lon="6.790353">
        <ele>1773.861</ele>
        <time>2018-07-04T12:52:14Z</time>
      </trkpt>
      <trkpt lat="46.248958" lon="6.790367">
        <ele>1773.617</ele>
        <time>2018-07-04T12:52:23Z</time>
      </trkpt>
      <trkpt lat="46.248917" lon="6.790397">
        <ele>1772.608</ele>
        <time>2018-07-04T12:52:31Z</time>
      </trkpt>
      <trkpt lat="46.248873" lon="6.790430">
        <ele>1772.096</ele>
        <time>2018-07-04T12:52:38Z</time>
      </trkpt>
      <trkpt lat="46.248830" lon="6.790452">
        <ele>1772.562</ele>
        <time>2018-07-04T12:52:45Z</time>
      </trkpt>
      <trkpt lat="46.248786" lon="6.790464">
        <ele>1773.534</ele>
        <time>2018-07-04T12:52:53Z</time>
      </trkpt>
      <trkpt lat="46.248737" lon="6.790477">
        <ele>1774.640</ele>
        <time>2018-07-04T12:53:01Z</time>
      </trkpt>
      <trkpt lat="46.248690" lon="6.790499">
        <ele>1775.232</ele>
        <time>2018-07-04T12:53:09Z</time>
      </trkpt>
      <trkpt lat="46.248646" lon="6.790534">
        <ele>1774.929</ele>
        <time>2018-07-04T12:53:18Z</time>
      </trkpt>
      <trkpt lat="46.248598" lon="6.790521">
        <ele>1776.745</ele>
        <time>2018-07-04T12:54:18Z</time>
      </trkpt>
      <trkpt lat="46.248550" lon="6.790524">
        <ele>1776.370</ele>
        <time>2018-07-04T12:54:26Z</time>
      </trkpt>
      <trkpt lat="46.248501" lon="6.790521">
        <ele>1776.256</ele>
        <time>2018-07-04T12:54:33Z</time>
      </trkpt>
      <trkpt lat="46.248452" lon="6.790500">
        <ele>1776.959</ele>
        <time>2018-07-04T12:54:40Z</time>
      </trkpt>
      <trkpt lat="46.248406" lon="6.790469">
        <ele>1777.914</ele>
        <time>2018-07-04T12:54:47Z</time>
      </trkpt>
      <trkpt lat="46.248360" lon="6.790431">
        <ele>1779.208</ele>
        <time>2018-07-04T12:54:57Z</time>
      </trkpt>
      <trkpt lat="46.248316" lon="6.790394">
        <ele>1780.097</ele>
        <time>2018-07-04T12:55:05Z</time>
      </trkpt>
      <trkpt lat="46.248271" lon="6.790355">
        <ele>1780.453</ele>
        <time>2018-07-04T12:55:12Z</time>
      </trkpt>
      <trkpt lat="46.248230" lon="6.790322">
        <ele>1780.655</ele>
        <time>2018-07-04T12:55:19Z</time>
      </trkpt>
      <trkpt lat="46.248191" lon="6.790285">
        <ele>1781.161</ele>
        <time>2018-07-04T12:55:26Z</time>
      </trkpt>
      <trkpt lat="46.248155" lon="6.790241">
        <ele>1781.793</ele>
        <time>2018-07-04T12:55:33Z</time>
      </trkpt>
      <trkpt lat="46.248123" lon="6.790188">
        <ele>1782.410</ele>
        <time>2018-07-04T12:55:39Z</time>
      </trkpt>
      <trkpt lat="46.248083" lon="6.790147">
        <ele>1782.696</ele>
        <time>2018-07-04T12:55:45Z</time>
      </trkpt>
      <trkpt lat="46.248044" lon="6.790112">
        <ele>1782.441</ele>
        <time>2018-07-04T12:55:52Z</time>
      </trkpt>
      <trkpt lat="46.248015" lon="6.790053">
        <ele>1783.424</ele>
        <time>2018-07-04T12:55:59Z</time>
      </trkpt>
      <trkpt lat="46.247982" lon="6.790003">
        <ele>1784.104</ele>
        <time>2018-07-04T12:56:06Z</time>
      </trkpt>
      <trkpt lat="46.247948" lon="6.789959">
        <ele>1784.814</ele>
        <time>2018-07-04T12:56:13Z</time>
      </trkpt>
      <trkpt lat="46.247925" lon="6.789894">
        <ele>1786.708</ele>
        <time>2018-07-04T12:56:22Z</time>
      </trkpt>
      <trkpt lat="46.247943" lon="6.789834">
        <ele>1789.444</ele>
        <time>2018-07-04T12:56:30Z</time>
      </trkpt>
      <trkpt lat="46.247992" lon="6.789826">
        <ele>1790.830</ele>
        <time>2018-07-04T12:56:38Z</time>
      </trkpt>
      <trkpt lat="46.248034" lon="6.789851">
        <ele>1790.942</ele>
        <time>2018-07-04T12:56:48Z</time>
      </trkpt>
      <trkpt lat="46.248074" lon="6.789895">
        <ele>1790.558</ele>
        <time>2018-07-04T12:56:57Z</time>
      </trkpt>
      <trkpt lat="46.248116" lon="6.789925">
        <ele>1790.980</ele>
        <time>2018-07-04T12:57:05Z</time>
      </trkpt>
      <trkpt lat="46.248156" lon="6.789957">
        <ele>1791.027</ele>
        <time>2018-07-04T12:57:12Z</time>
      </trkpt>
      <trkpt lat="46.248202" lon="6.789979">
        <ele>1791.773</ele>
        <time>2018-07-04T12:57:21Z</time>
      </trkpt>
      <trkpt lat="46.248251" lon="6.789995">
        <ele>1792.628</ele>
        <time>2018-07-04T12:57:30Z</time>
      </trkpt>
      <trkpt lat="46.248298" lon="6.790013">
        <ele>1793.455</ele>
        <time>2018-07-04T12:57:38Z</time>
      </trkpt>
      <trkpt lat="46.248345" lon="6.790029">
        <ele>1794.207</ele>
        <time>2018-07-04T12:57:48Z</time>
      </trkpt>
      <trkpt lat="46.248376" lon="6.789980">
        <ele>1796.917</ele>
        <time>2018-07-04T12:58:00Z</time>
      </trkpt>
      <trkpt lat="46.248341" lon="6.789933">
        <ele>1798.508</ele>
        <time>2018-07-04T12:58:24Z</time>
      </trkpt>
      <trkpt lat="46.248296" lon="6.789910">
        <ele>1798.227</ele>
        <time>2018-07-04T12:58:33Z</time>
      </trkpt>
      <trkpt lat="46.248254" lon="6.789883">
        <ele>1797.873</ele>
        <time>2018-07-04T12:58:41Z</time>
      </trkpt>
      <trkpt lat="46.248221" lon="6.789836">
        <ele>1798.755</ele>
        <time>2018-07-04T12:58:50Z</time>
      </trkpt>
      <trkpt lat="46.248189" lon="6.789788">
        <ele>1799.451</ele>
        <time>2018-07-04T12:58:58Z</time>
      </trkpt>
      <trkpt lat="46.248163" lon="6.789733">
        <ele>1800.663</ele>
        <time>2018-07-04T12:59:07Z</time>
      </trkpt>
      <trkpt lat="46.248144" lon="6.789671">
        <ele>1802.380</ele>
        <time>2018-07-04T12:59:18Z</time>
      </trkpt>
      <trkpt lat="46.248124" lon="6.789607">
        <ele>1804.056</ele>
        <time>2018-07-04T12:59:29Z</time>
      </trkpt>
      <trkpt lat="46.248086" lon="6.789563">
        <ele>1803.991</ele>
        <time>2018-07-04T12:59:40Z</time>
      </trkpt>
      <trkpt lat="46.248044" lon="6.789534">
        <ele>1803.163</ele>
        <time>2018-07-04T12:59:50Z</time>
      </trkpt>
      <trkpt lat="46.247996" lon="6.789515">
        <ele>1802.644</ele>
        <time>2018-07-04T13:00:01Z</time>
      </trkpt>
      <trkpt lat="46.247949" lon="6.789492">
        <ele>1802.218</ele>
        <time>2018-07-04T13:00:09Z</time>
      </trkpt>
      <trkpt lat="46.247910" lon="6.789448">
        <ele>1802.708</ele>
        <time>2018-07-04T13:00:18Z</time>
      </trkpt>
      <trkpt lat="46.247875" lon="6.789398">
        <ele>1803.438</ele>
        <time>2018-07-04T13:00:27Z</time>
      </trkpt>
      <trkpt lat="46.247842" lon="6.789347">
        <ele>1804.124</ele>
        <time>2018-07-04T13:00:34Z</time>
      </trkpt>
      <trkpt lat="46.247820" lon="6.789289">
        <ele>1805.136</ele>
        <time>2018-07-04T13:00:43Z</time>
      </trkpt>
      <trkpt lat="46.247799" lon="6.789230">
        <ele>1806.182</ele>
        <time>2018-07-04T13:00:52Z</time>
      </trkpt>
      <trkpt lat="46.247781" lon="6.789167">
        <ele>1807.134</ele>
        <time>2018-07-04T13:01:01Z</time>
      </trkpt>
      <trkpt lat="46.247761" lon="6.789108">
        <ele>1808.971</ele>
        <time>2018-07-04T13:01:11Z</time>
      </trkpt>
      <trkpt lat="46.247793" lon="6.789058">
        <ele>1812.177</ele>
        <time>2018-07-04T13:01:20Z</time>
      </trkpt>
      <trkpt lat="46.247838" lon="6.789068">
        <ele>1814.142</ele>
        <time>2018-07-04T13:01:36Z</time>
      </trkpt>
      <trkpt lat="46.247878" lon="6.789104">
        <ele>1814.614</ele>
        <time>2018-07-04T13:01:47Z</time>
      </trkpt>
      <trkpt lat="46.247901" lon="6.789166">
        <ele>1812.854</ele>
        <time>2018-07-04T13:01:56Z</time>
      </trkpt>
      <trkpt lat="46.247935" lon="6.789218">
        <ele>1812.409</ele>
        <time>2018-07-04T13:02:05Z</time>
      </trkpt>
      <trkpt lat="46.247978" lon="6.789249">
        <ele>1812.908</ele>
        <time>2018-07-04T13:02:14Z</time>
      </trkpt>
      <trkpt lat="46.248025" lon="6.789266">
        <ele>1814.173</ele>
        <time>2018-07-04T13:02:24Z</time>
      </trkpt>
      <trkpt lat="46.248076" lon="6.789261">
        <ele>1816.669</ele>
        <time>2018-07-04T13:02:34Z</time>
      </trkpt>
      <trkpt lat="46.248126" lon="6.789249">
        <ele>1819.811</ele>
        <time>2018-07-04T13:02:42Z</time>
      </trkpt>
      <trkpt lat="46.248177" lon="6.789253">
        <ele>1822.227</ele>
        <time>2018-07-04T13:02:50Z</time>
      </trkpt>
      <trkpt lat="46.248226" lon="6.789273">
        <ele>1823.899</ele>
        <time>2018-07-04T13:02:58Z</time>
      </trkpt>
      <trkpt lat="46.248271" lon="6.789296">
        <ele>1825.216</ele>
        <time>2018-07-04T13:03:08Z</time>
      </trkpt>
      <trkpt lat="46.248313" lon="6.789325">
        <ele>1826.122</ele>
        <time>2018-07-04T13:03:20Z</time>
      </trkpt>
      <trkpt lat="46.248353" lon="6.789356">
        <ele>1826.247</ele>
        <time>2018-07-04T13:03:33Z</time>
      </trkpt>
      <trkpt lat="46.248380" lon="6.789301">
        <ele>1829.283</ele>
        <time>2018-07-04T13:03:47Z</time>
      </trkpt>
      <trkpt lat="46.248356" lon="6.789244">
        <ele>1831.125</ele>
        <time>2018-07-04T13:03:57Z</time>
      </trkpt>
      <trkpt lat="46.248313" lon="6.789210">
        <ele>1831.117</ele>
        <time>2018-07-04T13:04:05Z</time>
      </trkpt>
      <trkpt lat="46.248270" lon="6.789181">
        <ele>1830.208</ele>
        <time>2018-07-04T13:04:12Z</time>
      </trkpt>
      <trkpt lat="46.248226" lon="6.789161">
        <ele>1828.940</ele>
        <time>2018-07-04T13:04:21Z</time>
      </trkpt>
      <trkpt lat="46.248178" lon="6.789146">
        <ele>1827.366</ele>
        <time>2018-07-04T13:04:31Z</time>
      </trkpt>
      <trkpt lat="46.248133" lon="6.789121">
        <ele>1826.448</ele>
        <time>2018-07-04T13:04:40Z</time>
      </trkpt>
      <trkpt lat="46.248092" lon="6.789082">
        <ele>1826.614</ele>
        <time>2018-07-04T13:04:50Z</time>
      </trkpt>
      <trkpt lat="46.248067" lon="6.789026">
        <ele>1828.626</ele>
        <time>2018-07-04T13:04:59Z</time>
      </trkpt>
      <trkpt lat="46.248047" lon="6.788963">
        <ele>1831.243</ele>
        <time>2018-07-04T13:05:09Z</time>
      </trkpt>
      <trkpt lat="46.248025" lon="6.788904">
        <ele>1833.269</ele>
        <time>2018-07-04T13:05:19Z</time>
      </trkpt>
      <trkpt lat="46.247993" lon="6.788854">
        <ele>1833.544</ele>
        <time>2018-07-04T13:05:30Z</time>
      </trkpt>
      <trkpt lat="46.247962" lon="6.788803">
        <ele>1833.965</ele>
        <time>2018-07-04T13:05:40Z</time>
      </trkpt>
      <trkpt lat="46.247931" lon="6.788748">
        <ele>1834.568</ele>
        <time>2018-07-04T13:05:51Z</time>
      </trkpt>
      <trkpt lat="46.247895" lon="6.788701">
        <ele>1834.514</ele>
        <time>2018-07-04T13:06:00Z</time>
      </trkpt>
      <trkpt lat="46.247861" lon="6.788651">
        <ele>1834.908</ele>
        <time>2018-07-04T13:06:11Z</time>
      </trkpt>
      <trkpt lat="46.247834" lon="6.788594">
        <ele>1836.088</ele>
        <time>2018-07-04T13:06:21Z</time>
      </trkpt>
      <trkpt lat="46.247820" lon="6.788529">
        <ele>1838.344</ele>
        <time>2018-07-04T13:06:30Z</time>
      </trkpt>
      <trkpt lat="46.247802" lon="6.788465">
        <ele>1840.556</ele>
        <time>2018-07-04T13:06:41Z</time>
      </trkpt>
      <trkpt lat="46.247758" lon="6.788435">
        <ele>1839.622</ele>
        <time>2018-07-04T13:06:53Z</time>
      </trkpt>
      <trkpt lat="46.247718" lon="6.788405">
        <ele>1838.484</ele>
        <time>2018-07-04T13:07:04Z</time>
      </trkpt>
      <trkpt lat="46.247674" lon="6.788367">
        <ele>1837.181</ele>
        <time>2018-07-04T13:07:14Z</time>
      </trkpt>
      <trkpt lat="46.247636" lon="6.788326">
        <ele>1836.017</ele>
        <time>2018-07-04T13:07:21Z</time>
      </trkpt>
      <trkpt lat="46.247609" lon="6.788272">
        <ele>1835.932</ele>
        <time>2018-07-04T13:07:28Z</time>
      </trkpt>
      <trkpt lat="46.247590" lon="6.788210">
        <ele>1836.818</ele>
        <time>2018-07-04T13:07:34Z</time>
      </trkpt>
      <trkpt lat="46.247573" lon="6.788130">
        <ele>1838.598</ele>
        <time>2018-07-04T13:08:52Z</time>
      </trkpt>
      <trkpt lat="46.247554" lon="6.788066">
        <ele>1839.717</ele>
        <time>2018-07-04T13:08:57Z</time>
      </trkpt>
      <trkpt lat="46.247534" lon="6.787996">
        <ele>1840.208</ele>
        <time>2018-07-04T13:09:02Z</time>
      </trkpt>
      <trkpt lat="46.247517" lon="6.787932">
        <ele>1840.613</ele>
        <time>2018-07-04T13:09:07Z</time>
      </trkpt>
      <trkpt lat="46.247503" lon="6.787855">
        <ele>1841.569</ele>
        <time>2018-07-04T13:09:12Z</time>
      </trkpt>
      <trkpt lat="46.247473" lon="6.787798">
        <ele>1840.481</ele>
        <time>2018-07-04T13:09:19Z</time>
      </trkpt>
      <trkpt lat="46.247453" lon="6.787733">
        <ele>1839.747</ele>
        <time>2018-07-04T13:09:27Z</time>
      </trkpt>
      <trkpt lat="46.247431" lon="6.787676">
        <ele>1838.699</ele>
        <time>2018-07-04T13:09:43Z</time>
      </trkpt>
      <trkpt lat="46.247426" lon="6.787611">
        <ele>1839.026</ele>
        <time>2018-07-04T13:09:49Z</time>
      </trkpt>
      <trkpt lat="46.247412" lon="6.787542">
        <ele>1838.882</ele>
        <time>2018-07-04T13:09:54Z</time>
      </trkpt>
      <trkpt lat="46.247404" lon="6.787468">
        <ele>1838.717</ele>
        <time>2018-07-04T13:09:59Z</time>
      </trkpt>
      <trkpt lat="46.247400" lon="6.787403">
        <ele>1838.278</ele>
        <time>2018-07-04T13:10:03Z</time>
      </trkpt>
      <trkpt lat="46.247394" lon="6.787327">
        <ele>1837.633</ele>
        <time>2018-07-04T13:10:08Z</time>
      </trkpt>
      <trkpt lat="46.247393" lon="6.787245">
        <ele>1837.326</ele>
        <time>2018-07-04T13:10:13Z</time>
      </trkpt>
      <trkpt lat="46.247392" lon="6.787165">
        <ele>1836.508</ele>
        <time>2018-07-04T13:10:18Z</time>
      </trkpt>
      <trkpt lat="46.247397" lon="6.787088">
        <ele>1836.059</ele>
        <time>2018-07-04T13:10:23Z</time>
      </trkpt>
      <trkpt lat="46.247398" lon="6.787019">
        <ele>1835.335</ele>
        <time>2018-07-04T13:10:27Z</time>
      </trkpt>
      <trkpt lat="46.247402" lon="6.786949">
        <ele>1834.847</ele>
        <time>2018-07-04T13:10:31Z</time>
      </trkpt>
      <trkpt lat="46.247407" lon="6.786871">
        <ele>1833.723</ele>
        <time>2018-07-04T13:10:36Z</time>
      </trkpt>
      <trkpt lat="46.247417" lon="6.786795">
        <ele>1832.845</ele>
        <time>2018-07-04T13:10:41Z</time>
      </trkpt>
      <trkpt lat="46.247429" lon="6.786717">
        <ele>1832.192</ele>
        <time>2018-07-04T13:10:46Z</time>
      </trkpt>
      <trkpt lat="46.247440" lon="6.786654">
        <ele>1831.558</ele>
        <time>2018-07-04T13:10:50Z</time>
      </trkpt>
      <trkpt lat="46.247457" lon="6.786587">
        <ele>1831.213</ele>
        <time>2018-07-04T13:10:54Z</time>
      </trkpt>
      <trkpt lat="46.247475" lon="6.786514">
        <ele>1830.966</ele>
        <time>2018-07-04T13:10:58Z</time>
      </trkpt>
      <trkpt lat="46.247494" lon="6.786445">
        <ele>1830.729</ele>
        <time>2018-07-04T13:11:02Z</time>
      </trkpt>
      <trkpt lat="46.247512" lon="6.786369">
        <ele>1830.221</ele>
        <time>2018-07-04T13:11:06Z</time>
      </trkpt>
      <trkpt lat="46.247532" lon="6.786295">
        <ele>1829.708</ele>
        <time>2018-07-04T13:11:10Z</time>
      </trkpt>
      <trkpt lat="46.247550" lon="6.786229">
        <ele>1829.268</ele>
        <time>2018-07-04T13:11:14Z</time>
      </trkpt>
      <trkpt lat="46.247568" lon="6.786166">
        <ele>1828.924</ele>
        <time>2018-07-04T13:11:18Z</time>
      </trkpt>
      <trkpt lat="46.247590" lon="6.786099">
        <ele>1828.656</ele>
        <time>2018-07-04T13:11:22Z</time>
      </trkpt>
      <trkpt lat="46.247604" lon="6.786027">
        <ele>1827.672</ele>
        <time>2018-07-04T13:11:26Z</time>
      </trkpt>
      <trkpt lat="46.247621" lon="6.785959">
        <ele>1826.994</ele>
        <time>2018-07-04T13:11:30Z</time>
      </trkpt>
      <trkpt lat="46.247642" lon="6.785894">
        <ele>1826.631</ele>
        <time>2018-07-04T13:11:34Z</time>
      </trkpt>
      <trkpt lat="46.247659" lon="6.785827">
        <ele>1826.087</ele>
        <time>2018-07-04T13:11:38Z</time>
      </trkpt>
      <trkpt lat="46.247668" lon="6.785755">
        <ele>1825.292</ele>
        <time>2018-07-04T13:11:42Z</time>
      </trkpt>
      <trkpt lat="46.247679" lon="6.785688">
        <ele>1824.517</ele>
        <time>2018-07-04T13:11:46Z</time>
      </trkpt>
      <trkpt lat="46.247693" lon="6.785622">
        <ele>1824.187</ele>
        <time>2018-07-04T13:11:50Z</time>
      </trkpt>
      <trkpt lat="46.247712" lon="6.785559">
        <ele>1824.015</ele>
        <time>2018-07-04T13:11:54Z</time>
      </trkpt>
      <trkpt lat="46.247726" lon="6.785491">
        <ele>1823.408</ele>
        <time>2018-07-04T13:11:58Z</time>
      </trkpt>
      <trkpt lat="46.247738" lon="6.785426">
        <ele>1822.873</ele>
        <time>2018-07-04T13:12:02Z</time>
      </trkpt>
      <trkpt lat="46.247756" lon="6.785358">
        <ele>1822.489</ele>
        <time>2018-07-04T13:12:06Z</time>
      </trkpt>
      <trkpt lat="46.247777" lon="6.785298">
        <ele>1822.481</ele>
        <time>2018-07-04T13:12:10Z</time>
      </trkpt>
      <trkpt lat="46.247791" lon="6.785217">
        <ele>1821.487</ele>
        <time>2018-07-04T13:12:15Z</time>
      </trkpt>
      <trkpt lat="46.247802" lon="6.785148">
        <ele>1820.699</ele>
        <time>2018-07-04T13:12:19Z</time>
      </trkpt>
      <trkpt lat="46.247807" lon="6.785078">
        <ele>1819.476</ele>
        <time>2018-07-04T13:12:24Z</time>
      </trkpt>
      <trkpt lat="46.247820" lon="6.785008">
        <ele>1818.632</ele>
        <time>2018-07-04T13:12:28Z</time>
      </trkpt>
      <trkpt lat="46.247844" lon="6.784951">
        <ele>1818.827</ele>
        <time>2018-07-04T13:12:32Z</time>
      </trkpt>
      <trkpt lat="46.247853" lon="6.784886">
        <ele>1818.032</ele>
        <time>2018-07-04T13:12:36Z</time>
      </trkpt>
      <trkpt lat="46.247858" lon="6.784818">
        <ele>1816.992</ele>
        <time>2018-07-04T13:12:40Z</time>
      </trkpt>
      <trkpt lat="46.247863" lon="6.784741">
        <ele>1815.611</ele>
        <time>2018-07-04T13:12:44Z</time>
      </trkpt>
      <trkpt lat="46.247871" lon="6.784668">
        <ele>1814.508</ele>
        <time>2018-07-04T13:12:48Z</time>
      </trkpt>
      <trkpt lat="46.247877" lon="6.784601">
        <ele>1813.585</ele>
        <time>2018-07-04T13:12:52Z</time>
      </trkpt>
      <trkpt lat="46.247890" lon="6.784522">
        <ele>1812.581</ele>
        <time>2018-07-04T13:12:57Z</time>
      </trkpt>
      <trkpt lat="46.247908" lon="6.784446">
        <ele>1812.043</ele>
        <time>2018-07-04T13:13:02Z</time>
      </trkpt>
      <trkpt lat="46.247920" lon="6.784370">
        <ele>1811.699</ele>
        <time>2018-07-04T13:13:07Z</time>
      </trkpt>
      <trkpt lat="46.247936" lon="6.784293">
        <ele>1811.531</ele>
        <time>2018-07-04T13:13:12Z</time>
      </trkpt>
      <trkpt lat="46.247957" lon="6.784225">
        <ele>1811.858</ele>
        <time>2018-07-04T13:13:17Z</time>
      </trkpt>
      <trkpt lat="46.247962" lon="6.784151">
        <ele>1811.014</ele>
        <time>2018-07-04T13:13:22Z</time>
      </trkpt>
      <trkpt lat="46.247966" lon="6.784086">
        <ele>1810.159</ele>
        <time>2018-07-04T13:13:26Z</time>
      </trkpt>
      <trkpt lat="46.247971" lon="6.784008">
        <ele>1809.028</ele>
        <time>2018-07-04T13:13:31Z</time>
      </trkpt>
      <trkpt lat="46.247979" lon="6.783935">
        <ele>1808.189</ele>
        <time>2018-07-04T13:13:36Z</time>
      </trkpt>
      <trkpt lat="46.247984" lon="6.783870">
        <ele>1807.317</ele>
        <time>2018-07-04T13:13:40Z</time>
      </trkpt>
      <trkpt lat="46.247994" lon="6.783791">
        <ele>1806.808</ele>
        <time>2018-07-04T13:13:45Z</time>
      </trkpt>
      <trkpt lat="46.248005" lon="6.783714">
        <ele>1806.484</ele>
        <time>2018-07-04T13:13:50Z</time>
      </trkpt>
      <trkpt lat="46.248014" lon="6.783636">
        <ele>1805.810</ele>
        <time>2018-07-04T13:13:55Z</time>
      </trkpt>
      <trkpt lat="46.248024" lon="6.783571">
        <ele>1805.442</ele>
        <time>2018-07-04T13:13:59Z</time>
      </trkpt>
      <trkpt lat="46.248030" lon="6.783502">
        <ele>1804.578</ele>
        <time>2018-07-04T13:14:03Z</time>
      </trkpt>
      <trkpt lat="46.248033" lon="6.783434">
        <ele>1803.530</ele>
        <time>2018-07-04T13:14:07Z</time>
      </trkpt>
      <trkpt lat="46.248035" lon="6.783367">
        <ele>1802.497</ele>
        <time>2018-07-04T13:14:11Z</time>
      </trkpt>
      <trkpt lat="46.248043" lon="6.783303">
        <ele>1801.743</ele>
        <time>2018-07-04T13:14:15Z</time>
      </trkpt>
      <trkpt lat="46.248056" lon="6.783226">
        <ele>1801.138</ele>
        <time>2018-07-04T13:14:20Z</time>
      </trkpt>
      <trkpt lat="46.248061" lon="6.783160">
        <ele>1800.215</ele>
        <time>2018-07-04T13:14:24Z</time>
      </trkpt>
      <trkpt lat="46.248064" lon="6.783095">
        <ele>1799.265</ele>
        <time>2018-07-04T13:14:28Z</time>
      </trkpt>
      <trkpt lat="46.248072" lon="6.783023">
        <ele>1798.211</ele>
        <time>2018-07-04T13:14:33Z</time>
      </trkpt>
      <trkpt lat="46.248090" lon="6.782953">
        <ele>1797.708</ele>
        <time>2018-07-04T13:14:38Z</time>
      </trkpt>
      <trkpt lat="46.248113" lon="6.782879">
        <ele>1797.413</ele>
        <time>2018-07-04T13:14:43Z</time>
      </trkpt>
      <trkpt lat="46.248135" lon="6.782819">
        <ele>1797.259</ele>
        <time>2018-07-04T13:14:47Z</time>
      </trkpt>
      <trkpt lat="46.248150" lon="6.782755">
        <ele>1796.621</ele>
        <time>2018-07-04T13:14:51Z</time>
      </trkpt>
      <trkpt lat="46.248164" lon="6.782692">
        <ele>1795.817</ele>
        <time>2018-07-04T13:14:55Z</time>
      </trkpt>
      <trkpt lat="46.248177" lon="6.782614">
        <ele>1794.729</ele>
        <time>2018-07-04T13:15:00Z</time>
      </trkpt>
      <trkpt lat="46.248200" lon="6.782540">
        <ele>1794.366</ele>
        <time>2018-07-04T13:15:05Z</time>
      </trkpt>
      <trkpt lat="46.248222" lon="6.782469">
        <ele>1793.832</ele>
        <time>2018-07-04T13:15:10Z</time>
      </trkpt>
      <trkpt lat="46.248230" lon="6.782405">
        <ele>1792.597</ele>
        <time>2018-07-04T13:15:14Z</time>
      </trkpt>
      <trkpt lat="46.248240" lon="6.782334">
        <ele>1791.216</ele>
        <time>2018-07-04T13:15:18Z</time>
      </trkpt>
      <trkpt lat="46.248251" lon="6.782264">
        <ele>1790.176</ele>
        <time>2018-07-04T13:15:22Z</time>
      </trkpt>
      <trkpt lat="46.248267" lon="6.782199">
        <ele>1789.513</ele>
        <time>2018-07-04T13:15:26Z</time>
      </trkpt>
      <trkpt lat="46.248291" lon="6.782137">
        <ele>1789.808</ele>
        <time>2018-07-04T13:15:30Z</time>
      </trkpt>
      <trkpt lat="46.248318" lon="6.782079">
        <ele>1790.453</ele>
        <time>2018-07-04T13:15:34Z</time>
      </trkpt>
      <trkpt lat="46.248338" lon="6.782020">
        <ele>1790.729</ele>
        <time>2018-07-04T13:15:38Z</time>
      </trkpt>
      <trkpt lat="46.248352" lon="6.781957">
        <ele>1790.481</ele>
        <time>2018-07-04T13:15:42Z</time>
      </trkpt>
      <trkpt lat="46.248356" lon="6.781886">
        <ele>1789.287</ele>
        <time>2018-07-04T13:15:46Z</time>
      </trkpt>
      <trkpt lat="46.248359" lon="6.781816">
        <ele>1787.979</ele>
        <time>2018-07-04T13:15:50Z</time>
      </trkpt>
      <trkpt lat="46.248369" lon="6.781749">
        <ele>1787.286</ele>
        <time>2018-07-04T13:15:54Z</time>
      </trkpt>
      <trkpt lat="46.248378" lon="6.781685">
        <ele>1786.482</ele>
        <time>2018-07-04T13:15:58Z</time>
      </trkpt>
      <trkpt lat="46.248388" lon="6.781621">
        <ele>1785.947</ele>
        <time>2018-07-04T13:16:02Z</time>
      </trkpt>
      <trkpt lat="46.248400" lon="6.781553">
        <ele>1785.353</ele>
        <time>2018-07-04T13:16:06Z</time>
      </trkpt>
      <trkpt lat="46.248409" lon="6.781485">
        <ele>1784.504</ele>
        <time>2018-07-04T13:16:10Z</time>
      </trkpt>
      <trkpt lat="46.248417" lon="6.781408">
        <ele>1783.514</ele>
        <time>2018-07-04T13:16:15Z</time>
      </trkpt>
      <trkpt lat="46.248426" lon="6.781335">
        <ele>1783.008</ele>
        <time>2018-07-04T13:16:20Z</time>
      </trkpt>
      <trkpt lat="46.248451" lon="6.781265">
        <ele>1783.517</ele>
        <time>2018-07-04T13:16:25Z</time>
      </trkpt>
      <trkpt lat="46.248477" lon="6.781204">
        <ele>1784.133</ele>
        <time>2018-07-04T13:16:29Z</time>
      </trkpt>
      <trkpt lat="46.248488" lon="6.781139">
        <ele>1783.845</ele>
        <time>2018-07-04T13:16:33Z</time>
      </trkpt>
      <trkpt lat="46.248493" lon="6.781059">
        <ele>1783.081</ele>
        <time>2018-07-04T13:16:38Z</time>
      </trkpt>
      <trkpt lat="46.248502" lon="6.780986">
        <ele>1782.573</ele>
        <time>2018-07-04T13:16:43Z</time>
      </trkpt>
      <trkpt lat="46.248505" lon="6.780908">
        <ele>1781.610</ele>
        <time>2018-07-04T13:16:48Z</time>
      </trkpt>
      <trkpt lat="46.248511" lon="6.780842">
        <ele>1781.196</ele>
        <time>2018-07-04T13:16:52Z</time>
      </trkpt>
      <trkpt lat="46.248516" lon="6.780776">
        <ele>1780.711</ele>
        <time>2018-07-04T13:16:56Z</time>
      </trkpt>
      <trkpt lat="46.248514" lon="6.780708">
        <ele>1780.012</ele>
        <time>2018-07-04T13:17:00Z</time>
      </trkpt>
      <trkpt lat="46.248516" lon="6.780640">
        <ele>1779.632</ele>
        <time>2018-07-04T13:17:04Z</time>
      </trkpt>
      <trkpt lat="46.248513" lon="6.780560">
        <ele>1778.705</ele>
        <time>2018-07-04T13:17:09Z</time>
      </trkpt>
      <trkpt lat="46.248511" lon="6.780479">
        <ele>1778.108</ele>
        <time>2018-07-04T13:17:14Z</time>
      </trkpt>
      <trkpt lat="46.248504" lon="6.780399">
        <ele>1777.323</ele>
        <time>2018-07-04T13:17:19Z</time>
      </trkpt>
      <trkpt lat="46.248489" lon="6.780325">
        <ele>1776.179</ele>
        <time>2018-07-04T13:17:24Z</time>
      </trkpt>
      <trkpt lat="46.248469" lon="6.780264">
        <ele>1774.791</ele>
        <time>2018-07-04T13:17:28Z</time>
      </trkpt>
      <trkpt lat="46.248465" lon="6.780184">
        <ele>1773.537</ele>
        <time>2018-07-04T13:17:33Z</time>
      </trkpt>
      <trkpt lat="46.248470" lon="6.780108">
        <ele>1772.859</ele>
        <time>2018-07-04T13:17:38Z</time>
      </trkpt>
      <trkpt lat="46.248484" lon="6.780029">
        <ele>1772.456</ele>
        <time>2018-07-04T13:17:43Z</time>
      </trkpt>
      <trkpt lat="46.248492" lon="6.779951">
        <ele>1771.452</ele>
        <time>2018-07-04T13:17:48Z</time>
      </trkpt>
      <trkpt lat="46.248502" lon="6.779882">
        <ele>1770.557</ele>
        <time>2018-07-04T13:17:53Z</time>
      </trkpt>
      <trkpt lat="46.248510" lon="6.779806">
        <ele>1769.322</ele>
        <time>2018-07-04T13:17:58Z</time>
      </trkpt>
      <trkpt lat="46.248515" lon="6.779734">
        <ele>1768.162</ele>
        <time>2018-07-04T13:18:03Z</time>
      </trkpt>
      <trkpt lat="46.248523" lon="6.779657">
        <ele>1767.308</ele>
        <time>2018-07-04T13:18:08Z</time>
      </trkpt>
      <trkpt lat="46.248535" lon="6.779584">
        <ele>1766.708</ele>
        <time>2018-07-04T13:18:13Z</time>
      </trkpt>
      <trkpt lat="46.248544" lon="6.779507">
        <ele>1766.074</ele>
        <time>2018-07-04T13:18:18Z</time>
      </trkpt>
      <trkpt lat="46.248552" lon="6.779438">
        <ele>1765.480</ele>
        <time>2018-07-04T13:18:23Z</time>
      </trkpt>
      <trkpt lat="46.248561" lon="6.779366">
        <ele>1765.162</ele>
        <time>2018-07-04T13:18:28Z</time>
      </trkpt>
      <trkpt lat="46.248561" lon="6.779292">
        <ele>1764.458</ele>
        <time>2018-07-04T13:18:33Z</time>
      </trkpt>
      <trkpt lat="46.248556" lon="6.779218">
        <ele>1763.540</ele>
        <time>2018-07-04T13:18:38Z</time>
      </trkpt>
      <trkpt lat="46.248543" lon="6.779149">
        <ele>1762.427</ele>
        <time>2018-07-04T13:18:43Z</time>
      </trkpt>
      <trkpt lat="46.248524" lon="6.779084">
        <ele>1761.163</ele>
        <time>2018-07-04T13:18:48Z</time>
      </trkpt>
      <trkpt lat="46.248513" lon="6.779012">
        <ele>1760.018</ele>
        <time>2018-07-04T13:18:53Z</time>
      </trkpt>
      <trkpt lat="46.248505" lon="6.778941">
        <ele>1758.931</ele>
        <time>2018-07-04T13:18:58Z</time>
      </trkpt>
      <trkpt lat="46.248502" lon="6.778874">
        <ele>1758.261</ele>
        <time>2018-07-04T13:19:03Z</time>
      </trkpt>
      <trkpt lat="46.248507" lon="6.778799">
        <ele>1758.207</ele>
        <time>2018-07-04T13:19:09Z</time>
      </trkpt>
      <trkpt lat="46.248470" lon="6.778759">
        <ele>1756.408</ele>
        <time>2018-07-04T13:19:16Z</time>
      </trkpt>
      <trkpt lat="46.248422" lon="6.778777">
        <ele>1754.495</ele>
        <time>2018-07-04T13:19:45Z</time>
      </trkpt>
      <trkpt lat="46.248377" lon="6.778820">
        <ele>1752.651</ele>
        <time>2018-07-04T13:19:52Z</time>
      </trkpt>
      <trkpt lat="46.248339" lon="6.778859">
        <ele>1751.113</ele>
        <time>2018-07-04T13:19:56Z</time>
      </trkpt>
      <trkpt lat="46.248308" lon="6.778908">
        <ele>1750.819</ele>
        <time>2018-07-04T13:20:01Z</time>
      </trkpt>
      <trkpt lat="46.248285" lon="6.778965">
        <ele>1751.271</ele>
        <time>2018-07-04T13:20:05Z</time>
      </trkpt>
      <trkpt lat="46.248247" lon="6.779004">
        <ele>1751.048</ele>
        <time>2018-07-04T13:20:11Z</time>
      </trkpt>
      <trkpt lat="46.248204" lon="6.778966">
        <ele>1749.794</ele>
        <time>2018-07-04T13:20:19Z</time>
      </trkpt>
      <trkpt lat="46.248179" lon="6.778899">
        <ele>1748.399</ele>
        <time>2018-07-04T13:20:26Z</time>
      </trkpt>
      <trkpt lat="46.248157" lon="6.778838">
        <ele>1747.599</ele>
        <time>2018-07-04T13:20:31Z</time>
      </trkpt>
      <trkpt lat="46.248131" lon="6.778777">
        <ele>1746.707</ele>
        <time>2018-07-04T13:20:37Z</time>
      </trkpt>
      <trkpt lat="46.248125" lon="6.778705">
        <ele>1746.127</ele>
        <time>2018-07-04T13:20:47Z</time>
      </trkpt>
      <trkpt lat="46.248106" lon="6.778638">
        <ele>1745.308</ele>
        <time>2018-07-04T13:20:53Z</time>
      </trkpt>
      <trkpt lat="46.248085" lon="6.778569">
        <ele>1744.121</ele>
        <time>2018-07-04T13:20:58Z</time>
      </trkpt>
      <trkpt lat="46.248070" lon="6.778493">
        <ele>1742.767</ele>
        <time>2018-07-04T13:21:03Z</time>
      </trkpt>
      <trkpt lat="46.248065" lon="6.778415">
        <ele>1741.519</ele>
        <time>2018-07-04T13:21:08Z</time>
      </trkpt>
      <trkpt lat="46.248053" lon="6.778343">
        <ele>1740.125</ele>
        <time>2018-07-04T13:21:13Z</time>
      </trkpt>
      <trkpt lat="46.248027" lon="6.778274">
        <ele>1739.317</ele>
        <time>2018-07-04T13:21:18Z</time>
      </trkpt>
      <trkpt lat="46.248008" lon="6.778214">
        <ele>1738.894</ele>
        <time>2018-07-04T13:21:22Z</time>
      </trkpt>
      <trkpt lat="46.247979" lon="6.778145">
        <ele>1738.160</ele>
        <time>2018-07-04T13:21:27Z</time>
      </trkpt>
      <trkpt lat="46.247947" lon="6.778091">
        <ele>1737.335</ele>
        <time>2018-07-04T13:21:32Z</time>
      </trkpt>
      <trkpt lat="46.247907" lon="6.778033">
        <ele>1736.199</ele>
        <time>2018-07-04T13:21:37Z</time>
      </trkpt>
      <trkpt lat="46.247874" lon="6.777981">
        <ele>1734.807</ele>
        <time>2018-07-04T13:21:41Z</time>
      </trkpt>
      <trkpt lat="46.247842" lon="6.777932">
        <ele>1733.627</ele>
        <time>2018-07-04T13:21:45Z</time>
      </trkpt>
      <trkpt lat="46.247807" lon="6.777883">
        <ele>1732.408</ele>
        <time>2018-07-04T13:21:49Z</time>
      </trkpt>
      <trkpt lat="46.247777" lon="6.777833">
        <ele>1731.481</ele>
        <time>2018-07-04T13:21:53Z</time>
      </trkpt>
      <trkpt lat="46.247745" lon="6.777782">
        <ele>1730.867</ele>
        <time>2018-07-04T13:21:57Z</time>
      </trkpt>
      <trkpt lat="46.247716" lon="6.777729">
        <ele>1730.219</ele>
        <time>2018-07-04T13:22:01Z</time>
      </trkpt>
      <trkpt lat="46.247686" lon="6.777676">
        <ele>1729.795</ele>
        <time>2018-07-04T13:22:06Z</time>
      </trkpt>
      <trkpt lat="46.247658" lon="6.777614">
        <ele>1729.457</ele>
        <time>2018-07-04T13:22:21Z</time>
      </trkpt>
      <trkpt lat="46.247625" lon="6.777569">
        <ele>1729.344</ele>
        <time>2018-07-04T13:22:28Z</time>
      </trkpt>
      <trkpt lat="46.247588" lon="6.777515">
        <ele>1729.420</ele>
        <time>2018-07-04T13:22:33Z</time>
      </trkpt>
      <trkpt lat="46.247568" lon="6.777455">
        <ele>1729.355</ele>
        <time>2018-07-04T13:22:37Z</time>
      </trkpt>
      <trkpt lat="46.247552" lon="6.777381">
        <ele>1729.051</ele>
        <time>2018-07-04T13:22:42Z</time>
      </trkpt>
      <trkpt lat="46.247534" lon="6.777309">
        <ele>1728.901</ele>
        <time>2018-07-04T13:22:48Z</time>
      </trkpt>
      <trkpt lat="46.247509" lon="6.777248">
        <ele>1729.011</ele>
        <time>2018-07-04T13:22:54Z</time>
      </trkpt>
      <trkpt lat="46.247484" lon="6.777193">
        <ele>1729.008</ele>
        <time>2018-07-04T13:22:59Z</time>
      </trkpt>
      <trkpt lat="46.247456" lon="6.777136">
        <ele>1728.917</ele>
        <time>2018-07-04T13:23:04Z</time>
      </trkpt>
      <trkpt lat="46.247424" lon="6.777077">
        <ele>1728.953</ele>
        <time>2018-07-04T13:23:09Z</time>
      </trkpt>
      <trkpt lat="46.247392" lon="6.777013">
        <ele>1728.985</ele>
        <time>2018-07-04T13:23:14Z</time>
      </trkpt>
      <trkpt lat="46.247354" lon="6.776953">
        <ele>1729.161</ele>
        <time>2018-07-04T13:23:19Z</time>
      </trkpt>
      <trkpt lat="46.247324" lon="6.776903">
        <ele>1728.973</ele>
        <time>2018-07-04T13:23:23Z</time>
      </trkpt>
      <trkpt lat="46.247292" lon="6.776856">
        <ele>1728.930</ele>
        <time>2018-07-04T13:23:27Z</time>
      </trkpt>
      <trkpt lat="46.247254" lon="6.776799">
        <ele>1729.056</ele>
        <time>2018-07-04T13:23:32Z</time>
      </trkpt>
      <trkpt lat="46.247214" lon="6.776748">
        <ele>1729.321</ele>
        <time>2018-07-04T13:23:37Z</time>
      </trkpt>
      <trkpt lat="46.247178" lon="6.776708">
        <ele>1729.354</ele>
        <time>2018-07-04T13:23:41Z</time>
      </trkpt>
      <trkpt lat="46.247136" lon="6.776675">
        <ele>1729.356</ele>
        <time>2018-07-04T13:23:45Z</time>
      </trkpt>
      <trkpt lat="46.247091" lon="6.776652">
        <ele>1729.311</ele>
        <time>2018-07-04T13:23:49Z</time>
      </trkpt>
      <trkpt lat="46.247048" lon="6.776630">
        <ele>1729.208</ele>
        <time>2018-07-04T13:23:53Z</time>
      </trkpt>
      <trkpt lat="46.246995" lon="6.776608">
        <ele>1729.497</ele>
        <time>2018-07-04T13:23:58Z</time>
      </trkpt>
      <trkpt lat="46.246940" lon="6.776598">
        <ele>1729.873</ele>
        <time>2018-07-04T13:24:03Z</time>
      </trkpt>
      <trkpt lat="46.246895" lon="6.776599">
        <ele>1729.865</ele>
        <time>2018-07-04T13:24:07Z</time>
      </trkpt>
      <trkpt lat="46.246847" lon="6.776608">
        <ele>1729.921</ele>
        <time>2018-07-04T13:24:12Z</time>
      </trkpt>
      <trkpt lat="46.246798" lon="6.776617">
        <ele>1729.933</ele>
        <time>2018-07-04T13:24:18Z</time>
      </trkpt>
      <trkpt lat="46.246750" lon="6.776632">
        <ele>1730.070</ele>
        <time>2018-07-04T13:24:24Z</time>
      </trkpt>
      <trkpt lat="46.246706" lon="6.776667">
        <ele>1730.036</ele>
        <time>2018-07-04T13:24:30Z</time>
      </trkpt>
      <trkpt lat="46.246671" lon="6.776709">
        <ele>1730.071</ele>
        <time>2018-07-04T13:24:36Z</time>
      </trkpt>
      <trkpt lat="46.246632" lon="6.776746">
        <ele>1730.036</ele>
        <time>2018-07-04T13:24:42Z</time>
      </trkpt>
      <trkpt lat="46.246592" lon="6.776779">
        <ele>1730.017</ele>
        <time>2018-07-04T13:24:47Z</time>
      </trkpt>
      <trkpt lat="46.246553" lon="6.776814">
        <ele>1730.018</ele>
        <time>2018-07-04T13:24:51Z</time>
      </trkpt>
      <trkpt lat="46.246512" lon="6.776843">
        <ele>1730.008</ele>
        <time>2018-07-04T13:24:55Z</time>
      </trkpt>
      <trkpt lat="46.246465" lon="6.776868">
        <ele>1730.055</ele>
        <time>2018-07-04T13:24:59Z</time>
      </trkpt>
      <trkpt lat="46.246420" lon="6.776899">
        <ele>1730.051</ele>
        <time>2018-07-04T13:25:03Z</time>
      </trkpt>
      <trkpt lat="46.246375" lon="6.776929">
        <ele>1730.093</ele>
        <time>2018-07-04T13:25:07Z</time>
      </trkpt>
      <trkpt lat="46.246325" lon="6.776954">
        <ele>1730.089</ele>
        <time>2018-07-04T13:25:11Z</time>
      </trkpt>
      <trkpt lat="46.246276" lon="6.776982">
        <ele>1730.071</ele>
        <time>2018-07-04T13:25:15Z</time>
      </trkpt>
      <trkpt lat="46.246231" lon="6.777005">
        <ele>1730.018</ele>
        <time>2018-07-04T13:25:19Z</time>
      </trkpt>
      <trkpt lat="46.246188" lon="6.777030">
        <ele>1730.024</ele>
        <time>2018-07-04T13:25:23Z</time>
      </trkpt>
      <trkpt lat="46.246145" lon="6.777059">
        <ele>1730.079</ele>
        <time>2018-07-04T13:25:27Z</time>
      </trkpt>
      <trkpt lat="46.246095" lon="6.777095">
        <ele>1729.989</ele>
        <time>2018-07-04T13:25:32Z</time>
      </trkpt>
      <trkpt lat="46.246048" lon="6.777133">
        <ele>1729.606</ele>
        <time>2018-07-04T13:25:37Z</time>
      </trkpt>
      <trkpt lat="46.246006" lon="6.777163">
        <ele>1729.326</ele>
        <time>2018-07-04T13:25:41Z</time>
      </trkpt>
      <trkpt lat="46.245955" lon="6.777195">
        <ele>1728.908</ele>
        <time>2018-07-04T13:25:46Z</time>
      </trkpt>
      <trkpt lat="46.245911" lon="6.777219">
        <ele>1728.640</ele>
        <time>2018-07-04T13:25:50Z</time>
      </trkpt>
      <trkpt lat="46.245867" lon="6.777241">
        <ele>1728.216</ele>
        <time>2018-07-04T13:25:54Z</time>
      </trkpt>
      <trkpt lat="46.245818" lon="6.777275">
        <ele>1727.548</ele>
        <time>2018-07-04T13:25:59Z</time>
      </trkpt>
      <trkpt lat="46.245770" lon="6.777306">
        <ele>1726.654</ele>
        <time>2018-07-04T13:26:04Z</time>
      </trkpt>
      <trkpt lat="46.245719" lon="6.777332">
        <ele>1725.566</ele>
        <time>2018-07-04T13:26:09Z</time>
      </trkpt>
      <trkpt lat="46.245666" lon="6.777355">
        <ele>1724.593</ele>
        <time>2018-07-04T13:26:14Z</time>
      </trkpt>
      <trkpt lat="46.245611" lon="6.777377">
        <ele>1723.459</ele>
        <time>2018-07-04T13:26:19Z</time>
      </trkpt>
      <trkpt lat="46.245566" lon="6.777408">
        <ele>1722.554</ele>
        <time>2018-07-04T13:26:23Z</time>
      </trkpt>
      <trkpt lat="46.245525" lon="6.777445">
        <ele>1722.225</ele>
        <time>2018-07-04T13:26:27Z</time>
      </trkpt>
      <trkpt lat="46.245483" lon="6.777479">
        <ele>1722.326</ele>
        <time>2018-07-04T13:26:31Z</time>
      </trkpt>
      <trkpt lat="46.245440" lon="6.777503">
        <ele>1722.408</ele>
        <time>2018-07-04T13:26:35Z</time>
      </trkpt>
      <trkpt lat="46.245395" lon="6.777521">
        <ele>1722.608</ele>
        <time>2018-07-04T13:26:40Z</time>
      </trkpt>
      <trkpt lat="46.245358" lon="6.777573">
        <ele>1722.954</ele>
        <time>2018-07-04T13:26:54Z</time>
      </trkpt>
      <trkpt lat="46.245320" lon="6.777614">
        <ele>1723.440</ele>
        <time>2018-07-04T13:26:59Z</time>
      </trkpt>
      <trkpt lat="46.245276" lon="6.777658">
        <ele>1724.272</ele>
        <time>2018-07-04T13:27:04Z</time>
      </trkpt>
      <trkpt lat="46.245233" lon="6.777700">
        <ele>1725.398</ele>
        <time>2018-07-04T13:27:09Z</time>
      </trkpt>
      <trkpt lat="46.245190" lon="6.777739">
        <ele>1726.340</ele>
        <time>2018-07-04T13:27:14Z</time>
      </trkpt>
      <trkpt lat="46.245146" lon="6.777779">
        <ele>1727.357</ele>
        <time>2018-07-04T13:27:19Z</time>
      </trkpt>
      <trkpt lat="46.245107" lon="6.777822">
        <ele>1727.253</ele>
        <time>2018-07-04T13:27:24Z</time>
      </trkpt>
      <trkpt lat="46.245064" lon="6.777860">
        <ele>1727.148</ele>
        <time>2018-07-04T13:27:29Z</time>
      </trkpt>
      <trkpt lat="46.245015" lon="6.777894">
        <ele>1727.248</ele>
        <time>2018-07-04T13:27:34Z</time>
      </trkpt>
      <trkpt lat="46.244974" lon="6.777922">
        <ele>1727.161</ele>
        <time>2018-07-04T13:27:38Z</time>
      </trkpt>
      <trkpt lat="46.244923" lon="6.777955">
        <ele>1726.917</ele>
        <time>2018-07-04T13:27:43Z</time>
      </trkpt>
      <trkpt lat="46.244880" lon="6.777978">
        <ele>1726.908</ele>
        <time>2018-07-04T13:27:47Z</time>
      </trkpt>
      <trkpt lat="46.244828" lon="6.778006">
        <ele>1727.116</ele>
        <time>2018-07-04T13:27:52Z</time>
      </trkpt>
      <trkpt lat="46.244777" lon="6.778038">
        <ele>1727.482</ele>
        <time>2018-07-04T13:27:57Z</time>
      </trkpt>
      <trkpt lat="46.244732" lon="6.778074">
        <ele>1727.394</ele>
        <time>2018-07-04T13:28:01Z</time>
      </trkpt>
      <trkpt lat="46.244688" lon="6.778104">
        <ele>1726.930</ele>
        <time>2018-07-04T13:28:05Z</time>
      </trkpt>
      <trkpt lat="46.244644" lon="6.778135">
        <ele>1726.592</ele>
        <time>2018-07-04T13:28:09Z</time>
      </trkpt>
      <trkpt lat="46.244598" lon="6.778160">
        <ele>1726.479</ele>
        <time>2018-07-04T13:28:13Z</time>
      </trkpt>
      <trkpt lat="46.244548" lon="6.778166">
        <ele>1726.865</ele>
        <time>2018-07-04T13:28:17Z</time>
      </trkpt>
      <trkpt lat="46.244498" lon="6.778151">
        <ele>1727.760</ele>
        <time>2018-07-04T13:28:21Z</time>
      </trkpt>
      <trkpt lat="46.244446" lon="6.778150">
        <ele>1728.371</ele>
        <time>2018-07-04T13:28:27Z</time>
      </trkpt>
      <trkpt lat="46.244398" lon="6.778149">
        <ele>1728.941</ele>
        <time>2018-07-04T13:28:31Z</time>
      </trkpt>
      <trkpt lat="46.244346" lon="6.778167">
        <ele>1729.315</ele>
        <time>2018-07-04T13:28:35Z</time>
      </trkpt>
      <trkpt lat="46.244299" lon="6.778192">
        <ele>1729.408</ele>
        <time>2018-07-04T13:28:39Z</time>
      </trkpt>
      <trkpt lat="46.244246" lon="6.778220">
        <ele>1729.529</ele>
        <time>2018-07-04T13:28:43Z</time>
      </trkpt>
      <trkpt lat="46.244204" lon="6.778256">
        <ele>1729.235</ele>
        <time>2018-07-04T13:28:47Z</time>
      </trkpt>
      <trkpt lat="46.244151" lon="6.778273">
        <ele>1729.847</ele>
        <time>2018-07-04T13:28:52Z</time>
      </trkpt>
      <trkpt lat="46.244106" lon="6.778314">
        <ele>1730.483</ele>
        <time>2018-07-04T13:28:56Z</time>
      </trkpt>
      <trkpt lat="46.244058" lon="6.778344">
        <ele>1731.235</ele>
        <time>2018-07-04T13:29:00Z</time>
      </trkpt>
      <trkpt lat="46.244006" lon="6.778368">
        <ele>1732.062</ele>
        <time>2018-07-04T13:29:04Z</time>
      </trkpt>
      <trkpt lat="46.243956" lon="6.778394">
        <ele>1732.798</ele>
        <time>2018-07-04T13:29:08Z</time>
      </trkpt>
      <trkpt lat="46.243919" lon="6.778434">
        <ele>1732.413</ele>
        <time>2018-07-04T13:29:12Z</time>
      </trkpt>
      <trkpt lat="46.243899" lon="6.778499">
        <ele>1730.741</ele>
        <time>2018-07-04T13:29:16Z</time>
      </trkpt>
      <trkpt lat="46.243869" lon="6.778560">
        <ele>1730.281</ele>
        <time>2018-07-04T13:29:21Z</time>
      </trkpt>
      <trkpt lat="46.243830" lon="6.778612">
        <ele>1731.009</ele>
        <time>2018-07-04T13:29:25Z</time>
      </trkpt>
      <trkpt lat="46.243790" lon="6.778661">
        <ele>1731.308</ele>
        <time>2018-07-04T13:29:29Z</time>
      </trkpt>
      <trkpt lat="46.243750" lon="6.778707">
        <ele>1731.366</ele>
        <time>2018-07-04T13:29:33Z</time>
      </trkpt>
      <trkpt lat="46.243705" lon="6.778749">
        <ele>1731.512</ele>
        <time>2018-07-04T13:29:37Z</time>
      </trkpt>
      <trkpt lat="46.243667" lon="6.778793">
        <ele>1730.884</ele>
        <time>2018-07-04T13:29:41Z</time>
      </trkpt>
      <trkpt lat="46.243622" lon="6.778826">
        <ele>1730.810</ele>
        <time>2018-07-04T13:29:45Z</time>
      </trkpt>
      <trkpt lat="46.243574" lon="6.778859">
        <ele>1731.162</ele>
        <time>2018-07-04T13:29:49Z</time>
      </trkpt>
      <trkpt lat="46.243524" lon="6.778893">
        <ele>1731.549</ele>
        <time>2018-07-04T13:29:53Z</time>
      </trkpt>
      <trkpt lat="46.243475" lon="6.778929">
        <ele>1731.875</ele>
        <time>2018-07-04T13:29:57Z</time>
      </trkpt>
      <trkpt lat="46.243425" lon="6.778967">
        <ele>1731.850</ele>
        <time>2018-07-04T13:30:01Z</time>
      </trkpt>
      <trkpt lat="46.243374" lon="6.779004">
        <ele>1731.511</ele>
        <time>2018-07-04T13:30:05Z</time>
      </trkpt>
      <trkpt lat="46.243325" lon="6.779031">
        <ele>1731.621</ele>
        <time>2018-07-04T13:30:09Z</time>
      </trkpt>
      <trkpt lat="46.243276" lon="6.779057">
        <ele>1731.703</ele>
        <time>2018-07-04T13:30:13Z</time>
      </trkpt>
      <trkpt lat="46.243225" lon="6.779085">
        <ele>1731.708</ele>
        <time>2018-07-04T13:30:17Z</time>
      </trkpt>
      <trkpt lat="46.243175" lon="6.779111">
        <ele>1731.783</ele>
        <time>2018-07-04T13:30:21Z</time>
      </trkpt>
      <trkpt lat="46.243133" lon="6.779137">
        <ele>1731.339</ele>
        <time>2018-07-04T13:30:25Z</time>
      </trkpt>
      <trkpt lat="46.243084" lon="6.779169">
        <ele>1730.771</ele>
        <time>2018-07-04T13:30:30Z</time>
      </trkpt>
      <trkpt lat="46.243038" lon="6.779195">
        <ele>1731.077</ele>
        <time>2018-07-04T13:30:34Z</time>
      </trkpt>
      <trkpt lat="46.242992" lon="6.779226">
        <ele>1730.889</ele>
        <time>2018-07-04T13:30:38Z</time>
      </trkpt>
      <trkpt lat="46.242946" lon="6.779258">
        <ele>1730.476</ele>
        <time>2018-07-04T13:30:42Z</time>
      </trkpt>
      <trkpt lat="46.242899" lon="6.779288">
        <ele>1730.282</ele>
        <time>2018-07-04T13:30:46Z</time>
      </trkpt>
      <trkpt lat="46.242855" lon="6.779321">
        <ele>1729.527</ele>
        <time>2018-07-04T13:30:50Z</time>
      </trkpt>
      <trkpt lat="46.242813" lon="6.779353">
        <ele>1728.813</ele>
        <time>2018-07-04T13:30:54Z</time>
      </trkpt>
      <trkpt lat="46.242768" lon="6.779382">
        <ele>1728.443</ele>
        <time>2018-07-04T13:30:58Z</time>
      </trkpt>
      <trkpt lat="46.242723" lon="6.779411">
        <ele>1728.007</ele>
        <time>2018-07-04T13:31:02Z</time>
      </trkpt>
      <trkpt lat="46.242677" lon="6.779436">
        <ele>1727.808</ele>
        <time>2018-07-04T13:31:06Z</time>
      </trkpt>
      <trkpt lat="46.242632" lon="6.779462">
        <ele>1727.983</ele>
        <time>2018-07-04T13:31:10Z</time>
      </trkpt>
      <trkpt lat="46.242589" lon="6.779497">
        <ele>1727.539</ele>
        <time>2018-07-04T13:31:14Z</time>
      </trkpt>
      <trkpt lat="46.242544" lon="6.779539">
        <ele>1726.991</ele>
        <time>2018-07-04T13:31:18Z</time>
      </trkpt>
      <trkpt lat="46.242497" lon="6.779576">
        <ele>1726.537</ele>
        <time>2018-07-04T13:31:22Z</time>
      </trkpt>
      <trkpt lat="46.242453" lon="6.779606">
        <ele>1726.299</ele>
        <time>2018-07-04T13:31:26Z</time>
      </trkpt>
      <trkpt lat="46.242407" lon="6.779636">
        <ele>1725.986</ele>
        <time>2018-07-04T13:31:30Z</time>
      </trkpt>
      <trkpt lat="46.242365" lon="6.779664">
        <ele>1725.512</ele>
        <time>2018-07-04T13:31:34Z</time>
      </trkpt>
      <trkpt lat="46.242320" lon="6.779687">
        <ele>1725.527</ele>
        <time>2018-07-04T13:31:38Z</time>
      </trkpt>
      <trkpt lat="46.242278" lon="6.779716">
        <ele>1724.949</ele>
        <time>2018-07-04T13:31:42Z</time>
      </trkpt>
      <trkpt lat="46.242236" lon="6.779749">
        <ele>1724.602</ele>
        <time>2018-07-04T13:31:46Z</time>
      </trkpt>
      <trkpt lat="46.242190" lon="6.779782">
        <ele>1724.422</ele>
        <time>2018-07-04T13:31:50Z</time>
      </trkpt>
      <trkpt lat="46.242141" lon="6.779807">
        <ele>1724.608</ele>
        <time>2018-07-04T13:31:54Z</time>
      </trkpt>
      <trkpt lat="46.242094" lon="6.779830">
        <ele>1724.846</ele>
        <time>2018-07-04T13:31:58Z</time>
      </trkpt>
      <trkpt lat="46.242046" lon="6.779860">
        <ele>1724.762</ele>
        <time>2018-07-04T13:32:02Z</time>
      </trkpt>
      <trkpt lat="46.241998" lon="6.779892">
        <ele>1724.424</ele>
        <time>2018-07-04T13:32:06Z</time>
      </trkpt>
      <trkpt lat="46.241951" lon="6.779922">
        <ele>1724.250</ele>
        <time>2018-07-04T13:32:10Z</time>
      </trkpt>
      <trkpt lat="46.241901" lon="6.779942">
        <ele>1724.472</ele>
        <time>2018-07-04T13:32:14Z</time>
      </trkpt>
      <trkpt lat="46.241855" lon="6.779962">
        <ele>1724.569</ele>
        <time>2018-07-04T13:32:18Z</time>
      </trkpt>
      <trkpt lat="46.241812" lon="6.779988">
        <ele>1724.495</ele>
        <time>2018-07-04T13:32:22Z</time>
      </trkpt>
      <trkpt lat="46.241769" lon="6.780024">
        <ele>1723.950</ele>
        <time>2018-07-04T13:32:26Z</time>
      </trkpt>
      <trkpt lat="46.241727" lon="6.780066">
        <ele>1723.348</ele>
        <time>2018-07-04T13:32:30Z</time>
      </trkpt>
      <trkpt lat="46.241687" lon="6.780105">
        <ele>1722.861</ele>
        <time>2018-07-04T13:32:34Z</time>
      </trkpt>
      <trkpt lat="46.241649" lon="6.780151">
        <ele>1722.017</ele>
        <time>2018-07-04T13:32:38Z</time>
      </trkpt>
      <trkpt lat="46.241610" lon="6.780198">
        <ele>1721.408</ele>
        <time>2018-07-04T13:32:42Z</time>
      </trkpt>
      <trkpt lat="46.241574" lon="6.780244">
        <ele>1720.816</ele>
        <time>2018-07-04T13:32:46Z</time>
      </trkpt>
      <trkpt lat="46.241535" lon="6.780288">
        <ele>1720.552</ele>
        <time>2018-07-04T13:32:50Z</time>
      </trkpt>
      <trkpt lat="46.241494" lon="6.780326">
        <ele>1720.794</ele>
        <time>2018-07-04T13:32:54Z</time>
      </trkpt>
      <trkpt lat="46.241453" lon="6.780361">
        <ele>1720.880</ele>
        <time>2018-07-04T13:32:58Z</time>
      </trkpt>
      <trkpt lat="46.241414" lon="6.780397">
        <ele>1720.932</ele>
        <time>2018-07-04T13:33:02Z</time>
      </trkpt>
      <trkpt lat="46.241366" lon="6.780436">
        <ele>1721.069</ele>
        <time>2018-07-04T13:33:07Z</time>
      </trkpt>
      <trkpt lat="46.241318" lon="6.780472">
        <ele>1721.075</ele>
        <time>2018-07-04T13:33:12Z</time>
      </trkpt>
      <trkpt lat="46.241278" lon="6.780507">
        <ele>1720.910</ele>
        <time>2018-07-04T13:33:16Z</time>
      </trkpt>
      <trkpt lat="46.241237" lon="6.780546">
        <ele>1720.684</ele>
        <time>2018-07-04T13:33:20Z</time>
      </trkpt>
      <trkpt lat="46.241199" lon="6.780588">
        <ele>1720.207</ele>
        <time>2018-07-04T13:33:24Z</time>
      </trkpt>
      <trkpt lat="46.241160" lon="6.780624">
        <ele>1720.017</ele>
        <time>2018-07-04T13:33:28Z</time>
      </trkpt>
      <trkpt lat="46.241114" lon="6.780651">
        <ele>1720.208</ele>
        <time>2018-07-04T13:33:32Z</time>
      </trkpt>
      <trkpt lat="46.241065" lon="6.780675">
        <ele>1720.520</ele>
        <time>2018-07-04T13:33:36Z</time>
      </trkpt>
      <trkpt lat="46.241017" lon="6.780704">
        <ele>1720.676</ele>
        <time>2018-07-04T13:33:40Z</time>
      </trkpt>
      <trkpt lat="46.240967" lon="6.780727">
        <ele>1720.928</ele>
        <time>2018-07-04T13:33:44Z</time>
      </trkpt>
      <trkpt lat="46.240918" lon="6.780748">
        <ele>1721.114</ele>
        <time>2018-07-04T13:33:48Z</time>
      </trkpt>
      <trkpt lat="46.240869" lon="6.780776">
        <ele>1721.246</ele>
        <time>2018-07-04T13:33:52Z</time>
      </trkpt>
      <trkpt lat="46.240822" lon="6.780804">
        <ele>1721.233</ele>
        <time>2018-07-04T13:33:56Z</time>
      </trkpt>
      <trkpt lat="46.240773" lon="6.780830">
        <ele>1721.239</ele>
        <time>2018-07-04T13:34:00Z</time>
      </trkpt>
      <trkpt lat="46.240722" lon="6.780855">
        <ele>1721.244</ele>
        <time>2018-07-04T13:34:04Z</time>
      </trkpt>
      <trkpt lat="46.240671" lon="6.780880">
        <ele>1721.163</ele>
        <time>2018-07-04T13:34:08Z</time>
      </trkpt>
      <trkpt lat="46.240616" lon="6.780895">
        <ele>1721.544</ele>
        <time>2018-07-04T13:34:12Z</time>
      </trkpt>
      <trkpt lat="46.240567" lon="6.780913">
        <ele>1721.718</ele>
        <time>2018-07-04T13:34:16Z</time>
      </trkpt>
      <trkpt lat="46.240518" lon="6.780937">
        <ele>1721.108</ele>
        <time>2018-07-04T13:34:20Z</time>
      </trkpt>
      <trkpt lat="46.240471" lon="6.780958">
        <ele>1720.668</ele>
        <time>2018-07-04T13:34:24Z</time>
      </trkpt>
      <trkpt lat="46.240422" lon="6.780979">
        <ele>1719.924</ele>
        <time>2018-07-04T13:34:28Z</time>
      </trkpt>
      <trkpt lat="46.240369" lon="6.780991">
        <ele>1719.686</ele>
        <time>2018-07-04T13:34:32Z</time>
      </trkpt>
      <trkpt lat="46.240320" lon="6.780996">
        <ele>1719.622</ele>
        <time>2018-07-04T13:34:36Z</time>
      </trkpt>
      <trkpt lat="46.240274" lon="6.780992">
        <ele>1720.084</ele>
        <time>2018-07-04T13:34:40Z</time>
      </trkpt>
      <trkpt lat="46.240226" lon="6.780983">
        <ele>1719.871</ele>
        <time>2018-07-04T13:34:44Z</time>
      </trkpt>
      <trkpt lat="46.240179" lon="6.780972">
        <ele>1719.897</ele>
        <time>2018-07-04T13:34:48Z</time>
      </trkpt>
      <trkpt lat="46.240134" lon="6.780943">
        <ele>1720.692</ele>
        <time>2018-07-04T13:34:52Z</time>
      </trkpt>
      <trkpt lat="46.240090" lon="6.780929">
        <ele>1720.749</ele>
        <time>2018-07-04T13:34:56Z</time>
      </trkpt>
      <trkpt lat="46.240045" lon="6.780919">
        <ele>1720.602</ele>
        <time>2018-07-04T13:35:00Z</time>
      </trkpt>
      <trkpt lat="46.239989" lon="6.780901">
        <ele>1720.722</ele>
        <time>2018-07-04T13:35:04Z</time>
      </trkpt>
      <trkpt lat="46.239940" lon="6.780890">
        <ele>1720.508</ele>
        <time>2018-07-04T13:35:08Z</time>
      </trkpt>
      <trkpt lat="46.239886" lon="6.780894">
        <ele>1719.566</ele>
        <time>2018-07-04T13:35:12Z</time>
      </trkpt>
      <trkpt lat="46.239832" lon="6.780896">
        <ele>1718.682</ele>
        <time>2018-07-04T13:35:16Z</time>
      </trkpt>
      <trkpt lat="46.239779" lon="6.780896">
        <ele>1717.994</ele>
        <time>2018-07-04T13:35:20Z</time>
      </trkpt>
      <trkpt lat="46.239729" lon="6.780886">
        <ele>1717.660</ele>
        <time>2018-07-04T13:35:24Z</time>
      </trkpt>
      <trkpt lat="46.239677" lon="6.780864">
        <ele>1717.282</ele>
        <time>2018-07-04T13:35:28Z</time>
      </trkpt>
      <trkpt lat="46.239627" lon="6.780836">
        <ele>1716.889</ele>
        <time>2018-07-04T13:35:32Z</time>
      </trkpt>
      <trkpt lat="46.239579" lon="6.780810">
        <ele>1716.195</ele>
        <time>2018-07-04T13:35:36Z</time>
      </trkpt>
      <trkpt lat="46.239533" lon="6.780778">
        <ele>1715.710</ele>
        <time>2018-07-04T13:35:40Z</time>
      </trkpt>
      <trkpt lat="46.239487" lon="6.780749">
        <ele>1715.348</ele>
        <time>2018-07-04T13:35:44Z</time>
      </trkpt>
      <trkpt lat="46.239441" lon="6.780716">
        <ele>1715.261</ele>
        <time>2018-07-04T13:35:48Z</time>
      </trkpt>
      <trkpt lat="46.239396" lon="6.780682">
        <ele>1715.517</ele>
        <time>2018-07-04T13:35:52Z</time>
      </trkpt>
      <trkpt lat="46.239350" lon="6.780645">
        <ele>1715.808</ele>
        <time>2018-07-04T13:35:56Z</time>
      </trkpt>
      <trkpt lat="46.239304" lon="6.780611">
        <ele>1716.116</ele>
        <time>2018-07-04T13:36:00Z</time>
      </trkpt>
      <trkpt lat="46.239258" lon="6.780586">
        <ele>1716.072</ele>
        <time>2018-07-04T13:36:04Z</time>
      </trkpt>
      <trkpt lat="46.239211" lon="6.780567">
        <ele>1715.694</ele>
        <time>2018-07-04T13:36:08Z</time>
      </trkpt>
      <trkpt lat="46.239162" lon="6.780555">
        <ele>1715.080</ele>
        <time>2018-07-04T13:36:12Z</time>
      </trkpt>
      <trkpt lat="46.239111" lon="6.780542">
        <ele>1714.822</ele>
        <time>2018-07-04T13:36:16Z</time>
      </trkpt>
      <trkpt lat="46.239060" lon="6.780526">
        <ele>1714.839</ele>
        <time>2018-07-04T13:36:20Z</time>
      </trkpt>
      <trkpt lat="46.239013" lon="6.780505">
        <ele>1714.995</ele>
        <time>2018-07-04T13:36:24Z</time>
      </trkpt>
      <trkpt lat="46.238968" lon="6.780476">
        <ele>1715.280</ele>
        <time>2018-07-04T13:36:28Z</time>
      </trkpt>
      <trkpt lat="46.238921" lon="6.780451">
        <ele>1715.468</ele>
        <time>2018-07-04T13:36:32Z</time>
      </trkpt>
      <trkpt lat="46.238874" lon="6.780424">
        <ele>1715.542</ele>
        <time>2018-07-04T13:36:36Z</time>
      </trkpt>
      <trkpt lat="46.238830" lon="6.780394">
        <ele>1715.526</ele>
        <time>2018-07-04T13:36:40Z</time>
      </trkpt>
      <trkpt lat="46.238788" lon="6.780366">
        <ele>1715.508</ele>
        <time>2018-07-04T13:36:44Z</time>
      </trkpt>
      <trkpt lat="46.238745" lon="6.780341">
        <ele>1715.568</ele>
        <time>2018-07-04T13:36:48Z</time>
      </trkpt>
      <trkpt lat="46.238700" lon="6.780315">
        <ele>1715.494</ele>
        <time>2018-07-04T13:36:52Z</time>
      </trkpt>
      <trkpt lat="46.238655" lon="6.780296">
        <ele>1715.226</ele>
        <time>2018-07-04T13:36:56Z</time>
      </trkpt>
      <trkpt lat="46.238606" lon="6.780280">
        <ele>1714.852</ele>
        <time>2018-07-04T13:37:00Z</time>
      </trkpt>
      <trkpt lat="46.238559" lon="6.780262">
        <ele>1714.664</ele>
        <time>2018-07-04T13:37:04Z</time>
      </trkpt>
      <trkpt lat="46.238508" lon="6.780243">
        <ele>1714.411</ele>
        <time>2018-07-04T13:37:08Z</time>
      </trkpt>
      <trkpt lat="46.238458" lon="6.780217">
        <ele>1714.447</ele>
        <time>2018-07-04T13:37:12Z</time>
      </trkpt>
      <trkpt lat="46.238399" lon="6.780154">
        <ele>1715.672</ele>
        <time>2018-07-04T13:37:17Z</time>
      </trkpt>
      <trkpt lat="46.238351" lon="6.780135">
        <ele>1715.534</ele>
        <time>2018-07-04T13:37:25Z</time>
      </trkpt>
      <trkpt lat="46.238305" lon="6.780120">
        <ele>1715.255</ele>
        <time>2018-07-04T13:37:32Z</time>
      </trkpt>
      <trkpt lat="46.238260" lon="6.780120">
        <ele>1714.510</ele>
        <time>2018-07-04T13:37:39Z</time>
      </trkpt>
      <trkpt lat="46.238211" lon="6.780112">
        <ele>1714.008</ele>
        <time>2018-07-04T13:37:44Z</time>
      </trkpt>
      <trkpt lat="46.238159" lon="6.780106">
        <ele>1713.485</ele>
        <time>2018-07-04T13:37:49Z</time>
      </trkpt>
      <trkpt lat="46.238115" lon="6.780086">
        <ele>1713.591</ele>
        <time>2018-07-04T13:37:54Z</time>
      </trkpt>
      <trkpt lat="46.238064" lon="6.780072">
        <ele>1713.313</ele>
        <time>2018-07-04T13:37:59Z</time>
      </trkpt>
      <trkpt lat="46.238013" lon="6.780046">
        <ele>1713.669</ele>
        <time>2018-07-04T13:38:09Z</time>
      </trkpt>
      <trkpt lat="46.237970" lon="6.780026">
        <ele>1713.711</ele>
        <time>2018-07-04T13:38:13Z</time>
      </trkpt>
      <trkpt lat="46.237926" lon="6.780007">
        <ele>1713.998</ele>
        <time>2018-07-04T13:38:17Z</time>
      </trkpt>
      <trkpt lat="46.237879" lon="6.779999">
        <ele>1713.544</ele>
        <time>2018-07-04T13:38:21Z</time>
      </trkpt>
      <trkpt lat="46.237827" lon="6.780002">
        <ele>1712.619</ele>
        <time>2018-07-04T13:38:25Z</time>
      </trkpt>
      <trkpt lat="46.237768" lon="6.780003">
        <ele>1711.713</ele>
        <time>2018-07-04T13:38:29Z</time>
      </trkpt>
      <trkpt lat="46.237714" lon="6.779992">
        <ele>1711.243</ele>
        <time>2018-07-04T13:38:33Z</time>
      </trkpt>
      <trkpt lat="46.237666" lon="6.779975">
        <ele>1711.007</ele>
        <time>2018-07-04T13:38:37Z</time>
      </trkpt>
      <trkpt lat="46.237616" lon="6.779954">
        <ele>1710.908</ele>
        <time>2018-07-04T13:38:41Z</time>
      </trkpt>
      <trkpt lat="46.237565" lon="6.779934">
        <ele>1710.813</ele>
        <time>2018-07-04T13:38:45Z</time>
      </trkpt>
      <trkpt lat="46.237513" lon="6.779914">
        <ele>1710.699</ele>
        <time>2018-07-04T13:38:49Z</time>
      </trkpt>
      <trkpt lat="46.237460" lon="6.779895">
        <ele>1710.221</ele>
        <time>2018-07-04T13:38:53Z</time>
      </trkpt>
      <trkpt lat="46.237411" lon="6.779875">
        <ele>1709.987</ele>
        <time>2018-07-04T13:38:57Z</time>
      </trkpt>
      <trkpt lat="46.237364" lon="6.779851">
        <ele>1709.749</ele>
        <time>2018-07-04T13:39:01Z</time>
      </trkpt>
      <trkpt lat="46.237318" lon="6.779828">
        <ele>1709.636</ele>
        <time>2018-07-04T13:39:05Z</time>
      </trkpt>
      <trkpt lat="46.237272" lon="6.779806">
        <ele>1709.562</ele>
        <time>2018-07-04T13:39:12Z</time>
      </trkpt>
      <trkpt lat="46.237224" lon="6.779785">
        <ele>1709.327</ele>
        <time>2018-07-04T13:39:16Z</time>
      </trkpt>
      <trkpt lat="46.237177" lon="6.779771">
        <ele>1708.888</ele>
        <time>2018-07-04T13:39:20Z</time>
      </trkpt>
      <trkpt lat="46.237124" lon="6.779747">
        <ele>1708.524</ele>
        <time>2018-07-04T13:39:24Z</time>
      </trkpt>
      <trkpt lat="46.237080" lon="6.779715">
        <ele>1708.726</ele>
        <time>2018-07-04T13:39:28Z</time>
      </trkpt>
      <trkpt lat="46.237033" lon="6.779684">
        <ele>1708.608</ele>
        <time>2018-07-04T13:39:32Z</time>
      </trkpt>
      <trkpt lat="46.236984" lon="6.779660">
        <ele>1708.250</ele>
        <time>2018-07-04T13:39:36Z</time>
      </trkpt>
      <trkpt lat="46.236938" lon="6.779642">
        <ele>1707.876</ele>
        <time>2018-07-04T13:39:40Z</time>
      </trkpt>
      <trkpt lat="46.236889" lon="6.779628">
        <ele>1707.748</ele>
        <time>2018-07-04T13:39:44Z</time>
      </trkpt>
      <trkpt lat="46.236842" lon="6.779624">
        <ele>1707.324</ele>
        <time>2018-07-04T13:39:48Z</time>
      </trkpt>
      <trkpt lat="46.236793" lon="6.779622">
        <ele>1706.836</ele>
        <time>2018-07-04T13:39:52Z</time>
      </trkpt>
      <trkpt lat="46.236745" lon="6.779619">
        <ele>1706.313</ele>
        <time>2018-07-04T13:39:56Z</time>
      </trkpt>
      <trkpt lat="46.236696" lon="6.779618">
        <ele>1705.789</ele>
        <time>2018-07-04T13:40:00Z</time>
      </trkpt>
      <trkpt lat="46.236644" lon="6.779608">
        <ele>1705.424</ele>
        <time>2018-07-04T13:40:04Z</time>
      </trkpt>
      <trkpt lat="46.236594" lon="6.779593">
        <ele>1705.352</ele>
        <time>2018-07-04T13:40:08Z</time>
      </trkpt>
      <trkpt lat="46.236543" lon="6.779584">
        <ele>1704.953</ele>
        <time>2018-07-04T13:40:12Z</time>
      </trkpt>
      <trkpt lat="46.236492" lon="6.779564">
        <ele>1704.908</ele>
        <time>2018-07-04T13:40:16Z</time>
      </trkpt>
      <trkpt lat="46.236440" lon="6.779542">
        <ele>1704.908</ele>
        <time>2018-07-04T13:40:20Z</time>
      </trkpt>
      <trkpt lat="46.236390" lon="6.779525">
        <ele>1704.727</ele>
        <time>2018-07-04T13:40:24Z</time>
      </trkpt>
      <trkpt lat="46.236341" lon="6.779506">
        <ele>1704.443</ele>
        <time>2018-07-04T13:40:28Z</time>
      </trkpt>
      <trkpt lat="46.236294" lon="6.779480">
        <ele>1704.595</ele>
        <time>2018-07-04T13:40:32Z</time>
      </trkpt>
      <trkpt lat="46.236247" lon="6.779454">
        <ele>1704.621</ele>
        <time>2018-07-04T13:40:36Z</time>
      </trkpt>
      <trkpt lat="46.236198" lon="6.779424">
        <ele>1705.023</ele>
        <time>2018-07-04T13:40:40Z</time>
      </trkpt>
      <trkpt lat="46.236153" lon="6.779392">
        <ele>1705.580</ele>
        <time>2018-07-04T13:40:44Z</time>
      </trkpt>
      <trkpt lat="46.236109" lon="6.779356">
        <ele>1706.136</ele>
        <time>2018-07-04T13:40:49Z</time>
      </trkpt>
      <trkpt lat="46.236059" lon="6.779317">
        <ele>1706.371</ele>
        <time>2018-07-04T13:40:54Z</time>
      </trkpt>
      <trkpt lat="46.236012" lon="6.779276">
        <ele>1706.621</ele>
        <time>2018-07-04T13:40:58Z</time>
      </trkpt>
      <trkpt lat="46.235962" lon="6.779244">
        <ele>1706.741</ele>
        <time>2018-07-04T13:41:02Z</time>
      </trkpt>
      <trkpt lat="46.235911" lon="6.779215">
        <ele>1706.705</ele>
        <time>2018-07-04T13:41:06Z</time>
      </trkpt>
      <trkpt lat="46.235861" lon="6.779193">
        <ele>1706.508</ele>
        <time>2018-07-04T13:41:10Z</time>
      </trkpt>
      <trkpt lat="46.235813" lon="6.779171">
        <ele>1706.384</ele>
        <time>2018-07-04T13:41:14Z</time>
      </trkpt>
      <trkpt lat="46.235766" lon="6.779150">
        <ele>1706.060</ele>
        <time>2018-07-04T13:41:18Z</time>
      </trkpt>
      <trkpt lat="46.235716" lon="6.779137">
        <ele>1705.382</ele>
        <time>2018-07-04T13:41:23Z</time>
      </trkpt>
      <trkpt lat="46.235667" lon="6.779121">
        <ele>1704.848</ele>
        <time>2018-07-04T13:41:28Z</time>
      </trkpt>
      <trkpt lat="46.235614" lon="6.779093">
        <ele>1704.760</ele>
        <time>2018-07-04T13:41:33Z</time>
      </trkpt>
      <trkpt lat="46.235572" lon="6.779062">
        <ele>1704.917</ele>
        <time>2018-07-04T13:41:38Z</time>
      </trkpt>
      <trkpt lat="46.235521" lon="6.779029">
        <ele>1704.583</ele>
        <time>2018-07-04T13:41:43Z</time>
      </trkpt>
      <trkpt lat="46.235482" lon="6.778995">
        <ele>1704.388</ele>
        <time>2018-07-04T13:41:46Z</time>
      </trkpt>
      <trkpt lat="46.235439" lon="6.778965">
        <ele>1703.891</ele>
        <time>2018-07-04T13:41:49Z</time>
      </trkpt>
      <trkpt lat="46.235394" lon="6.778926">
        <ele>1703.581</ele>
        <time>2018-07-04T13:41:53Z</time>
      </trkpt>
      <trkpt lat="46.235344" lon="6.778887">
        <ele>1702.919</ele>
        <time>2018-07-04T13:41:58Z</time>
      </trkpt>
      <trkpt lat="46.235299" lon="6.778843">
        <ele>1702.108</ele>
        <time>2018-07-04T13:42:02Z</time>
      </trkpt>
      <trkpt lat="46.235253" lon="6.778791">
        <ele>1701.351</ele>
        <time>2018-07-04T13:42:06Z</time>
      </trkpt>
      <trkpt lat="46.235215" lon="6.778735">
        <ele>1700.837</ele>
        <time>2018-07-04T13:42:10Z</time>
      </trkpt>
      <trkpt lat="46.235181" lon="6.778677">
        <ele>1700.569</ele>
        <time>2018-07-04T13:42:14Z</time>
      </trkpt>
      <trkpt lat="46.235149" lon="6.778617">
        <ele>1700.435</ele>
        <time>2018-07-04T13:42:18Z</time>
      </trkpt>
      <trkpt lat="46.235123" lon="6.778559">
        <ele>1699.647</ele>
        <time>2018-07-04T13:42:22Z</time>
      </trkpt>
      <trkpt lat="46.235103" lon="6.778498">
        <ele>1698.994</ele>
        <time>2018-07-04T13:42:26Z</time>
      </trkpt>
      <trkpt lat="46.235083" lon="6.778438">
        <ele>1698.290</ele>
        <time>2018-07-04T13:42:30Z</time>
      </trkpt>
      <trkpt lat="46.235059" lon="6.778377">
        <ele>1697.235</ele>
        <time>2018-07-04T13:42:34Z</time>
      </trkpt>
      <trkpt lat="46.235041" lon="6.778316">
        <ele>1696.446</ele>
        <time>2018-07-04T13:42:38Z</time>
      </trkpt>
      <trkpt lat="46.235026" lon="6.778242">
        <ele>1695.888</ele>
        <time>2018-07-04T13:42:42Z</time>
      </trkpt>
      <trkpt lat="46.235010" lon="6.778172">
        <ele>1695.116</ele>
        <time>2018-07-04T13:42:46Z</time>
      </trkpt>
      <trkpt lat="46.235002" lon="6.778103">
        <ele>1694.908</ele>
        <time>2018-07-04T13:42:50Z</time>
      </trkpt>
      <trkpt lat="46.234990" lon="6.778027">
        <ele>1695.066</ele>
        <time>2018-07-04T13:42:54Z</time>
      </trkpt>
      <trkpt lat="46.234985" lon="6.777954">
        <ele>1695.492</ele>
        <time>2018-07-04T13:42:58Z</time>
      </trkpt>
      <trkpt lat="46.234983" lon="6.777888">
        <ele>1695.924</ele>
        <time>2018-07-04T13:43:02Z</time>
      </trkpt>
      <trkpt lat="46.234978" lon="6.777823">
        <ele>1696.330</ele>
        <time>2018-07-04T13:43:06Z</time>
      </trkpt>
      <trkpt lat="46.234973" lon="6.777741">
        <ele>1696.812</ele>
        <time>2018-07-04T13:43:11Z</time>
      </trkpt>
      <trkpt lat="46.234971" lon="6.777671">
        <ele>1697.269</ele>
        <time>2018-07-04T13:43:15Z</time>
      </trkpt>
      <trkpt lat="46.234960" lon="6.777601">
        <ele>1697.565</ele>
        <time>2018-07-04T13:43:19Z</time>
      </trkpt>
      <trkpt lat="46.234939" lon="6.777541">
        <ele>1697.930</ele>
        <time>2018-07-04T13:43:23Z</time>
      </trkpt>
      <trkpt lat="46.234903" lon="6.777499">
        <ele>1698.496</ele>
        <time>2018-07-04T13:43:27Z</time>
      </trkpt>
      <trkpt lat="46.234859" lon="6.777478">
        <ele>1698.831</ele>
        <time>2018-07-04T13:43:31Z</time>
      </trkpt>
      <trkpt lat="46.234807" lon="6.777483">
        <ele>1698.924</ele>
        <time>2018-07-04T13:43:36Z</time>
      </trkpt>
      <trkpt lat="46.234760" lon="6.777497">
        <ele>1698.908</ele>
        <time>2018-07-04T13:43:40Z</time>
      </trkpt>
      <trkpt lat="46.234712" lon="6.777517">
        <ele>1698.731</ele>
        <time>2018-07-04T13:43:44Z</time>
      </trkpt>
      <trkpt lat="46.234667" lon="6.777539">
        <ele>1698.877</ele>
        <time>2018-07-04T13:43:48Z</time>
      </trkpt>
      <trkpt lat="46.234622" lon="6.777565">
        <ele>1698.799</ele>
        <time>2018-07-04T13:43:52Z</time>
      </trkpt>
      <trkpt lat="46.234574" lon="6.777591">
        <ele>1698.665</ele>
        <time>2018-07-04T13:43:56Z</time>
      </trkpt>
      <trkpt lat="46.234531" lon="6.777622">
        <ele>1698.457</ele>
        <time>2018-07-04T13:44:00Z</time>
      </trkpt>
      <trkpt lat="46.234494" lon="6.777661">
        <ele>1698.024</ele>
        <time>2018-07-04T13:44:04Z</time>
      </trkpt>
      <trkpt lat="46.234450" lon="6.777705">
        <ele>1697.590</ele>
        <time>2018-07-04T13:44:09Z</time>
      </trkpt>
      <trkpt lat="46.234397" lon="6.777732">
        <ele>1697.595</ele>
        <time>2018-07-04T13:44:14Z</time>
      </trkpt>
      <trkpt lat="46.234351" lon="6.777756">
        <ele>1697.567</ele>
        <time>2018-07-04T13:44:18Z</time>
      </trkpt>
      <trkpt lat="46.234301" lon="6.777769">
        <ele>1697.781</ele>
        <time>2018-07-04T13:44:22Z</time>
      </trkpt>
      <trkpt lat="46.234254" lon="6.777786">
        <ele>1697.819</ele>
        <time>2018-07-04T13:44:26Z</time>
      </trkpt>
      <trkpt lat="46.234208" lon="6.777790">
        <ele>1698.108</ele>
        <time>2018-07-04T13:44:30Z</time>
      </trkpt>
      <trkpt lat="46.234160" lon="6.777791">
        <ele>1698.238</ele>
        <time>2018-07-04T13:44:34Z</time>
      </trkpt>
      <trkpt lat="46.234110" lon="6.777789">
        <ele>1696.324</ele>
        <time>2018-07-04T13:44:38Z</time>
      </trkpt>
      <trkpt lat="46.234065" lon="6.777783">
        <ele>1694.846</ele>
        <time>2018-07-04T13:44:42Z</time>
      </trkpt>
      <trkpt lat="46.234018" lon="6.777766">
        <ele>1693.472</ele>
        <time>2018-07-04T13:44:47Z</time>
      </trkpt>
      <trkpt lat="46.233971" lon="6.777749">
        <ele>1691.964</ele>
        <time>2018-07-04T13:44:52Z</time>
      </trkpt>
      <trkpt lat="46.233935" lon="6.777709">
        <ele>1691.531</ele>
        <time>2018-07-04T13:44:57Z</time>
      </trkpt>
      <trkpt lat="46.233912" lon="6.777652">
        <ele>1692.017</ele>
        <time>2018-07-04T13:45:01Z</time>
      </trkpt>
      <trkpt lat="46.233886" lon="6.777582">
        <ele>1692.832</ele>
        <time>2018-07-04T13:45:06Z</time>
      </trkpt>
      <trkpt lat="46.233853" lon="6.777534">
        <ele>1692.069</ele>
        <time>2018-07-04T13:45:10Z</time>
      </trkpt>
      <trkpt lat="46.233819" lon="6.777485">
        <ele>1691.104</ele>
        <time>2018-07-04T13:45:14Z</time>
      </trkpt>
      <trkpt lat="46.233798" lon="6.777425">
        <ele>1691.124</ele>
        <time>2018-07-04T13:45:18Z</time>
      </trkpt>
      <trkpt lat="46.233773" lon="6.777363">
        <ele>1691.108</ele>
        <time>2018-07-04T13:45:22Z</time>
      </trkpt>
      <trkpt lat="46.233751" lon="6.777295">
        <ele>1691.438</ele>
        <time>2018-07-04T13:45:27Z</time>
      </trkpt>
      <trkpt lat="46.233718" lon="6.777227">
        <ele>1691.084</ele>
        <time>2018-07-04T13:45:30Z</time>
      </trkpt>
      <trkpt lat="46.233695" lon="6.777170">
        <ele>1691.756</ele>
        <time>2018-07-04T13:45:34Z</time>
      </trkpt>
      <trkpt lat="46.233667" lon="6.777115">
        <ele>1692.472</ele>
        <time>2018-07-04T13:45:39Z</time>
      </trkpt>
      <trkpt lat="46.233627" lon="6.777064">
        <ele>1692.654</ele>
        <time>2018-07-04T13:45:43Z</time>
      </trkpt>
      <trkpt lat="46.233572" lon="6.777037">
        <ele>1692.921</ele>
        <time>2018-07-04T13:45:47Z</time>
      </trkpt>
      <trkpt lat="46.233520" lon="6.777018">
        <ele>1693.777</ele>
        <time>2018-07-04T13:45:51Z</time>
      </trkpt>
      <trkpt lat="46.233457" lon="6.777030">
        <ele>1693.032</ele>
        <time>2018-07-04T13:45:56Z</time>
      </trkpt>
      <trkpt lat="46.233414" lon="6.777009">
        <ele>1694.126</ele>
        <time>2018-07-04T13:46:00Z</time>
      </trkpt>
      <trkpt lat="46.233369" lon="6.777004">
        <ele>1694.447</ele>
        <time>2018-07-04T13:46:04Z</time>
      </trkpt>
      <trkpt lat="46.233369" lon="6.777004">
        <ele>1694.411</ele>
        <time>2018-07-04T13:46:04Z</time>
      </trkpt>
      <trkpt lat="46.233320" lon="6.777004">
        <ele>1694.508</ele>
        <time>2018-07-04T13:46:09Z</time>
      </trkpt>
      <trkpt lat="46.233270" lon="6.777026">
        <ele>1693.554</ele>
        <time>2018-07-04T13:46:14Z</time>
      </trkpt>
      <trkpt lat="46.233225" lon="6.777049">
        <ele>1692.540</ele>
        <time>2018-07-04T13:46:18Z</time>
      </trkpt>
      <trkpt lat="46.233170" lon="6.777065">
        <ele>1692.172</ele>
        <time>2018-07-04T13:46:23Z</time>
      </trkpt>
      <trkpt lat="46.233124" lon="6.777075">
        <ele>1691.978</ele>
        <time>2018-07-04T13:46:26Z</time>
      </trkpt>
      <trkpt lat="46.233066" lon="6.777091">
        <ele>1691.510</ele>
        <time>2018-07-04T13:46:30Z</time>
      </trkpt>
      <trkpt lat="46.233022" lon="6.777101">
        <ele>1691.177</ele>
        <time>2018-07-04T13:46:33Z</time>
      </trkpt>
      <trkpt lat="46.232969" lon="6.777114">
        <ele>1690.523</ele>
        <time>2018-07-04T13:46:37Z</time>
      </trkpt>
      <trkpt lat="46.232921" lon="6.777136">
        <ele>1689.518</ele>
        <time>2018-07-04T13:46:41Z</time>
      </trkpt>
      <trkpt lat="46.232871" lon="6.777154">
        <ele>1688.828</ele>
        <time>2018-07-04T13:46:45Z</time>
      </trkpt>
      <trkpt lat="46.232825" lon="6.777173">
        <ele>1688.189</ele>
        <time>2018-07-04T13:46:51Z</time>
      </trkpt>
      <trkpt lat="46.232773" lon="6.777206">
        <ele>1686.817</ele>
        <time>2018-07-04T13:46:56Z</time>
      </trkpt>
      <trkpt lat="46.232722" lon="6.777232">
        <ele>1686.208</ele>
        <time>2018-07-04T13:47:00Z</time>
      </trkpt>
      <trkpt lat="46.232673" lon="6.777256">
        <ele>1685.964</ele>
        <time>2018-07-04T13:47:04Z</time>
      </trkpt>
      <trkpt lat="46.232623" lon="6.777282">
        <ele>1685.470</ele>
        <time>2018-07-04T13:47:08Z</time>
      </trkpt>
      <trkpt lat="46.232575" lon="6.777307">
        <ele>1684.922</ele>
        <time>2018-07-04T13:47:12Z</time>
      </trkpt>
      <trkpt lat="46.232523" lon="6.777319">
        <ele>1684.958</ele>
        <time>2018-07-04T13:47:16Z</time>
      </trkpt>
      <trkpt lat="46.232472" lon="6.777329">
        <ele>1684.780</ele>
        <time>2018-07-04T13:47:20Z</time>
      </trkpt>
      <trkpt lat="46.232420" lon="6.777347">
        <ele>1683.957</ele>
        <time>2018-07-04T13:47:24Z</time>
      </trkpt>
      <trkpt lat="46.232371" lon="6.777355">
        <ele>1683.573</ele>
        <time>2018-07-04T13:47:28Z</time>
      </trkpt>
      <trkpt lat="46.232323" lon="6.777355">
        <ele>1683.468</ele>
        <time>2018-07-04T13:47:32Z</time>
      </trkpt>
      <trkpt lat="46.232268" lon="6.777351">
        <ele>1683.584</ele>
        <time>2018-07-04T13:47:37Z</time>
      </trkpt>
      <trkpt lat="46.232216" lon="6.777340">
        <ele>1683.807</ele>
        <time>2018-07-04T13:47:42Z</time>
      </trkpt>
      <trkpt lat="46.232164" lon="6.777328">
        <ele>1683.817</ele>
        <time>2018-07-04T13:47:47Z</time>
      </trkpt>
      <trkpt lat="46.232120" lon="6.777303">
        <ele>1684.308</ele>
        <time>2018-07-04T13:47:51Z</time>
      </trkpt>
      <trkpt lat="46.232076" lon="6.777278">
        <ele>1684.730</ele>
        <time>2018-07-04T13:47:55Z</time>
      </trkpt>
      <trkpt lat="46.232024" lon="6.777251">
        <ele>1685.096</ele>
        <time>2018-07-04T13:48:00Z</time>
      </trkpt>
      <trkpt lat="46.231977" lon="6.777220">
        <ele>1685.648</ele>
        <time>2018-07-04T13:48:05Z</time>
      </trkpt>
      <trkpt lat="46.231940" lon="6.777177">
        <ele>1686.724</ele>
        <time>2018-07-04T13:48:09Z</time>
      </trkpt>
      <trkpt lat="46.231902" lon="6.777132">
        <ele>1687.866</ele>
        <time>2018-07-04T13:48:13Z</time>
      </trkpt>
      <trkpt lat="46.231865" lon="6.777090">
        <ele>1688.723</ele>
        <time>2018-07-04T13:48:17Z</time>
      </trkpt>
      <trkpt lat="46.231821" lon="6.777052">
        <ele>1689.159</ele>
        <time>2018-07-04T13:48:24Z</time>
      </trkpt>
      <trkpt lat="46.231771" lon="6.777018">
        <ele>1689.264</ele>
        <time>2018-07-04T13:48:28Z</time>
      </trkpt>
      <trkpt lat="46.231716" lon="6.776996">
        <ele>1688.796</ele>
        <time>2018-07-04T13:48:32Z</time>
      </trkpt>
      <trkpt lat="46.231669" lon="6.776974">
        <ele>1688.231</ele>
        <time>2018-07-04T13:48:36Z</time>
      </trkpt>
      <trkpt lat="46.231625" lon="6.776944">
        <ele>1688.024</ele>
        <time>2018-07-04T13:48:40Z</time>
      </trkpt>
      <trkpt lat="46.231578" lon="6.776909">
        <ele>1687.808</ele>
        <time>2018-07-04T13:48:44Z</time>
      </trkpt>
      <trkpt lat="46.231530" lon="6.776876">
        <ele>1687.431</ele>
        <time>2018-07-04T13:48:48Z</time>
      </trkpt>
      <trkpt lat="46.231485" lon="6.776844">
        <ele>1686.917</ele>
        <time>2018-07-04T13:48:52Z</time>
      </trkpt>
      <trkpt lat="46.231439" lon="6.776804">
        <ele>1686.299</ele>
        <time>2018-07-04T13:48:56Z</time>
      </trkpt>
      <trkpt lat="46.231400" lon="6.776753">
        <ele>1685.955</ele>
        <time>2018-07-04T13:49:00Z</time>
      </trkpt>
      <trkpt lat="46.231361" lon="6.776701">
        <ele>1685.247</ele>
        <time>2018-07-04T13:49:04Z</time>
      </trkpt>
      <trkpt lat="46.231321" lon="6.776655">
        <ele>1684.384</ele>
        <time>2018-07-04T13:49:08Z</time>
      </trkpt>
      <trkpt lat="46.231283" lon="6.776606">
        <ele>1683.610</ele>
        <time>2018-07-04T13:49:12Z</time>
      </trkpt>
      <trkpt lat="46.231248" lon="6.776554">
        <ele>1682.995</ele>
        <time>2018-07-04T13:49:16Z</time>
      </trkpt>
      <trkpt lat="46.231213" lon="6.776497">
        <ele>1682.335</ele>
        <time>2018-07-04T13:49:20Z</time>
      </trkpt>
      <trkpt lat="46.231179" lon="6.776442">
        <ele>1681.686</ele>
        <time>2018-07-04T13:49:24Z</time>
      </trkpt>
      <trkpt lat="46.231147" lon="6.776386">
        <ele>1680.814</ele>
        <time>2018-07-04T13:49:28Z</time>
      </trkpt>
      <trkpt lat="46.231120" lon="6.776318">
        <ele>1680.508</ele>
        <time>2018-07-04T13:49:33Z</time>
      </trkpt>
      <trkpt lat="46.231093" lon="6.776249">
        <ele>1680.255</ele>
        <time>2018-07-04T13:49:38Z</time>
      </trkpt>
      <trkpt lat="46.231078" lon="6.776167">
        <ele>1680.661</ele>
        <time>2018-07-04T13:49:42Z</time>
      </trkpt>
      <trkpt lat="46.231065" lon="6.776087">
        <ele>1681.143</ele>
        <time>2018-07-04T13:49:46Z</time>
      </trkpt>
      <trkpt lat="46.231050" lon="6.776019">
        <ele>1681.029</ele>
        <time>2018-07-04T13:49:50Z</time>
      </trkpt>
      <trkpt lat="46.231028" lon="6.775944">
        <ele>1680.951</ele>
        <time>2018-07-04T13:49:54Z</time>
      </trkpt>
      <trkpt lat="46.231003" lon="6.775880">
        <ele>1680.628</ele>
        <time>2018-07-04T13:49:58Z</time>
      </trkpt>
      <trkpt lat="46.230975" lon="6.775821">
        <ele>1680.154</ele>
        <time>2018-07-04T13:50:02Z</time>
      </trkpt>
      <trkpt lat="46.230947" lon="6.775765">
        <ele>1679.289</ele>
        <time>2018-07-04T13:50:06Z</time>
      </trkpt>
      <trkpt lat="46.230922" lon="6.775706">
        <ele>1678.771</ele>
        <time>2018-07-04T13:50:10Z</time>
      </trkpt>
      <trkpt lat="46.230890" lon="6.775651">
        <ele>1678.241</ele>
        <time>2018-07-04T13:50:14Z</time>
      </trkpt>
      <trkpt lat="46.230860" lon="6.775592">
        <ele>1678.115</ele>
        <time>2018-07-04T13:50:18Z</time>
      </trkpt>
      <trkpt lat="46.230829" lon="6.775535">
        <ele>1677.808</ele>
        <time>2018-07-04T13:50:22Z</time>
      </trkpt>
      <trkpt lat="46.230802" lon="6.775477">
        <ele>1676.929</ele>
        <time>2018-07-04T13:50:26Z</time>
      </trkpt>
      <trkpt lat="46.230782" lon="6.775416">
        <ele>1676.215</ele>
        <time>2018-07-04T13:50:30Z</time>
      </trkpt>
      <trkpt lat="46.230761" lon="6.775355">
        <ele>1675.687</ele>
        <time>2018-07-04T13:50:34Z</time>
      </trkpt>
      <trkpt lat="46.230738" lon="6.775285">
        <ele>1674.993</ele>
        <time>2018-07-04T13:50:39Z</time>
      </trkpt>
      <trkpt lat="46.230715" lon="6.775220">
        <ele>1674.115</ele>
        <time>2018-07-04T13:50:44Z</time>
      </trkpt>
      <trkpt lat="46.230698" lon="6.775149">
        <ele>1673.472</ele>
        <time>2018-07-04T13:50:49Z</time>
      </trkpt>
      <trkpt lat="46.230684" lon="6.775079">
        <ele>1672.888</ele>
        <time>2018-07-04T13:50:54Z</time>
      </trkpt>
      <trkpt lat="46.230669" lon="6.775008">
        <ele>1672.363</ele>
        <time>2018-07-04T13:50:59Z</time>
      </trkpt>
      <trkpt lat="46.230664" lon="6.774933">
        <ele>1671.777</ele>
        <time>2018-07-04T13:51:04Z</time>
      </trkpt>
      <trkpt lat="46.230652" lon="6.774863">
        <ele>1671.261</ele>
        <time>2018-07-04T13:51:09Z</time>
      </trkpt>
      <trkpt lat="46.230633" lon="6.774787">
        <ele>1670.627</ele>
        <time>2018-07-04T13:51:14Z</time>
      </trkpt>
      <trkpt lat="46.230616" lon="6.774719">
        <ele>1670.208</ele>
        <time>2018-07-04T13:51:19Z</time>
      </trkpt>
      <trkpt lat="46.230596" lon="6.774648">
        <ele>1670.069</ele>
        <time>2018-07-04T13:51:24Z</time>
      </trkpt>
      <trkpt lat="46.230568" lon="6.774593">
        <ele>1670.085</ele>
        <time>2018-07-04T13:51:28Z</time>
      </trkpt>
      <trkpt lat="46.230533" lon="6.774549">
        <ele>1669.947</ele>
        <time>2018-07-04T13:51:32Z</time>
      </trkpt>
      <trkpt lat="46.230493" lon="6.774516">
        <ele>1669.723</ele>
        <time>2018-07-04T13:51:36Z</time>
      </trkpt>
      <trkpt lat="46.230449" lon="6.774494">
        <ele>1669.575</ele>
        <time>2018-07-04T13:51:40Z</time>
      </trkpt>
      <trkpt lat="46.230401" lon="6.774478">
        <ele>1669.342</ele>
        <time>2018-07-04T13:51:44Z</time>
      </trkpt>
      <trkpt lat="46.230353" lon="6.774462">
        <ele>1669.268</ele>
        <time>2018-07-04T13:51:48Z</time>
      </trkpt>
      <trkpt lat="46.230306" lon="6.774439">
        <ele>1669.173</ele>
        <time>2018-07-04T13:51:52Z</time>
      </trkpt>
      <trkpt lat="46.230257" lon="6.774411">
        <ele>1668.837</ele>
        <time>2018-07-04T13:51:56Z</time>
      </trkpt>
      <trkpt lat="46.230211" lon="6.774371">
        <ele>1668.349</ele>
        <time>2018-07-04T13:52:00Z</time>
      </trkpt>
      <trkpt lat="46.230168" lon="6.774329">
        <ele>1667.913</ele>
        <time>2018-07-04T13:52:04Z</time>
      </trkpt>
      <trkpt lat="46.230123" lon="6.774284">
        <ele>1667.808</ele>
        <time>2018-07-04T13:52:08Z</time>
      </trkpt>
      <trkpt lat="46.230083" lon="6.774241">
        <ele>1667.865</ele>
        <time>2018-07-04T13:52:12Z</time>
      </trkpt>
      <trkpt lat="46.230047" lon="6.774197">
        <ele>1668.071</ele>
        <time>2018-07-04T13:52:16Z</time>
      </trkpt>
      <trkpt lat="46.229999" lon="6.774161">
        <ele>1668.063</ele>
        <time>2018-07-04T13:52:20Z</time>
      </trkpt>
      <trkpt lat="46.229954" lon="6.774129">
        <ele>1667.249</ele>
        <time>2018-07-04T13:52:24Z</time>
      </trkpt>
      <trkpt lat="46.229909" lon="6.774085">
        <ele>1666.511</ele>
        <time>2018-07-04T13:52:28Z</time>
      </trkpt>
      <trkpt lat="46.229870" lon="6.774031">
        <ele>1666.128</ele>
        <time>2018-07-04T13:52:32Z</time>
      </trkpt>
      <trkpt lat="46.229837" lon="6.773974">
        <ele>1666.044</ele>
        <time>2018-07-04T13:52:36Z</time>
      </trkpt>
      <trkpt lat="46.229806" lon="6.773916">
        <ele>1666.049</ele>
        <time>2018-07-04T13:52:40Z</time>
      </trkpt>
      <trkpt lat="46.229783" lon="6.773848">
        <ele>1665.414</ele>
        <time>2018-07-04T13:52:44Z</time>
      </trkpt>
      <trkpt lat="46.229760" lon="6.773784">
        <ele>1664.354</ele>
        <time>2018-07-04T13:52:48Z</time>
      </trkpt>
      <trkpt lat="46.229736" lon="6.773729">
        <ele>1663.409</ele>
        <time>2018-07-04T13:52:52Z</time>
      </trkpt>
      <trkpt lat="46.229708" lon="6.773671">
        <ele>1662.608</ele>
        <time>2018-07-04T13:52:57Z</time>
      </trkpt>
      <trkpt lat="46.229667" lon="6.773627">
        <ele>1661.993</ele>
        <time>2018-07-04T13:54:14Z</time>
      </trkpt>
      <trkpt lat="46.229621" lon="6.773622">
        <ele>1661.729</ele>
        <time>2018-07-04T13:54:29Z</time>
      </trkpt>
      <trkpt lat="46.229576" lon="6.773585">
        <ele>1661.321</ele>
        <time>2018-07-04T13:54:35Z</time>
      </trkpt>
      <trkpt lat="46.229532" lon="6.773564">
        <ele>1661.217</ele>
        <time>2018-07-04T13:54:40Z</time>
      </trkpt>
      <trkpt lat="46.229489" lon="6.773532">
        <ele>1661.029</ele>
        <time>2018-07-04T13:54:45Z</time>
      </trkpt>
      <trkpt lat="46.229443" lon="6.773490">
        <ele>1661.086</ele>
        <time>2018-07-04T13:54:54Z</time>
      </trkpt>
      <trkpt lat="46.229403" lon="6.773437">
        <ele>1661.242</ele>
        <time>2018-07-04T13:54:59Z</time>
      </trkpt>
      <trkpt lat="46.229374" lon="6.773386">
        <ele>1661.517</ele>
        <time>2018-07-04T13:55:03Z</time>
      </trkpt>
      <trkpt lat="46.229344" lon="6.773336">
        <ele>1662.147</ele>
        <time>2018-07-04T13:55:07Z</time>
      </trkpt>
      <trkpt lat="46.229315" lon="6.773284">
        <ele>1662.929</ele>
        <time>2018-07-04T13:55:12Z</time>
      </trkpt>
      <trkpt lat="46.229289" lon="6.773222">
        <ele>1664.021</ele>
        <time>2018-07-04T13:55:18Z</time>
      </trkpt>
      <trkpt lat="46.229255" lon="6.773177">
        <ele>1665.108</ele>
        <time>2018-07-04T13:55:25Z</time>
      </trkpt>
      <trkpt lat="46.229215" lon="6.773143">
        <ele>1666.486</ele>
        <time>2018-07-04T13:55:39Z</time>
      </trkpt>
      <trkpt lat="46.229181" lon="6.773099">
        <ele>1667.982</ele>
        <time>2018-07-04T13:55:46Z</time>
      </trkpt>
      <trkpt lat="46.229141" lon="6.773067">
        <ele>1668.874</ele>
        <time>2018-07-04T13:55:52Z</time>
      </trkpt>
      <trkpt lat="46.229106" lon="6.773021">
        <ele>1669.380</ele>
        <time>2018-07-04T13:55:58Z</time>
      </trkpt>
      <trkpt lat="46.229083" lon="6.772957">
        <ele>1670.162</ele>
        <time>2018-07-04T13:56:05Z</time>
      </trkpt>
      <trkpt lat="46.229051" lon="6.772910">
        <ele>1671.169</ele>
        <time>2018-07-04T13:56:11Z</time>
      </trkpt>
      <trkpt lat="46.229007" lon="6.772889">
        <ele>1672.025</ele>
        <time>2018-07-04T13:56:17Z</time>
      </trkpt>
      <trkpt lat="46.228956" lon="6.772892">
        <ele>1672.740</ele>
        <time>2018-07-04T13:56:23Z</time>
      </trkpt>
      <trkpt lat="46.228907" lon="6.772896">
        <ele>1673.372</ele>
        <time>2018-07-04T13:56:29Z</time>
      </trkpt>
      <trkpt lat="46.228857" lon="6.772902">
        <ele>1673.513</ele>
        <time>2018-07-04T13:56:34Z</time>
      </trkpt>
      <trkpt lat="46.228811" lon="6.772903">
        <ele>1673.714</ele>
        <time>2018-07-04T13:56:39Z</time>
      </trkpt>
      <trkpt lat="46.228764" lon="6.772891">
        <ele>1674.208</ele>
        <time>2018-07-04T13:56:46Z</time>
      </trkpt>
      <trkpt lat="46.228720" lon="6.772906">
        <ele>1673.949</ele>
        <time>2018-07-04T13:56:52Z</time>
      </trkpt>
      <trkpt lat="46.228669" lon="6.772898">
        <ele>1674.385</ele>
        <time>2018-07-04T13:56:58Z</time>
      </trkpt>
      <trkpt lat="46.228619" lon="6.772877">
        <ele>1675.177</ele>
        <time>2018-07-04T13:57:04Z</time>
      </trkpt>
      <trkpt lat="46.228573" lon="6.772862">
        <ele>1675.483</ele>
        <time>2018-07-04T13:57:09Z</time>
      </trkpt>
      <trkpt lat="46.228527" lon="6.772861">
        <ele>1675.285</ele>
        <time>2018-07-04T13:57:14Z</time>
      </trkpt>
      <trkpt lat="46.228479" lon="6.772865">
        <ele>1674.822</ele>
        <time>2018-07-04T13:57:19Z</time>
      </trkpt>
      <trkpt lat="46.228431" lon="6.772857">
        <ele>1674.888</ele>
        <time>2018-07-04T13:57:24Z</time>
      </trkpt>
      <trkpt lat="46.228380" lon="6.772849">
        <ele>1674.763</ele>
        <time>2018-07-04T13:57:29Z</time>
      </trkpt>
      <trkpt lat="46.228333" lon="6.772853">
        <ele>1674.475</ele>
        <time>2018-07-04T13:57:34Z</time>
      </trkpt>
      <trkpt lat="46.228289" lon="6.772867">
        <ele>1674.028</ele>
        <time>2018-07-04T13:57:39Z</time>
      </trkpt>
      <trkpt lat="46.228243" lon="6.772851">
        <ele>1674.320</ele>
        <time>2018-07-04T13:57:45Z</time>
      </trkpt>
      <trkpt lat="46.228195" lon="6.772819">
        <ele>1674.808</ele>
        <time>2018-07-04T13:57:51Z</time>
      </trkpt>
      <trkpt lat="46.228153" lon="6.772791">
        <ele>1675.119</ele>
        <time>2018-07-04T13:57:56Z</time>
      </trkpt>
      <trkpt lat="46.228111" lon="6.772765">
        <ele>1675.485</ele>
        <time>2018-07-04T13:58:01Z</time>
      </trkpt>
      <trkpt lat="46.228068" lon="6.772728">
        <ele>1675.977</ele>
        <time>2018-07-04T13:58:07Z</time>
      </trkpt>
      <trkpt lat="46.228043" lon="6.772674">
        <ele>1677.113</ele>
        <time>2018-07-04T13:58:16Z</time>
      </trkpt>
      <trkpt lat="46.228018" lon="6.772611">
        <ele>1678.815</ele>
        <time>2018-07-04T13:58:24Z</time>
      </trkpt>
      <trkpt lat="46.227993" lon="6.772547">
        <ele>1680.522</ele>
        <time>2018-07-04T13:58:31Z</time>
      </trkpt>
      <trkpt lat="46.227953" lon="6.772592">
        <ele>1680.468</ele>
        <time>2018-07-04T13:58:52Z</time>
      </trkpt>
      <trkpt lat="46.227932" lon="6.772655">
        <ele>1679.633</ele>
        <time>2018-07-04T13:58:59Z</time>
      </trkpt>
      <trkpt lat="46.227901" lon="6.772710">
        <ele>1679.151</ele>
        <time>2018-07-04T13:59:10Z</time>
      </trkpt>
      <trkpt lat="46.227860" lon="6.772753">
        <ele>1679.001</ele>
        <time>2018-07-04T13:59:20Z</time>
      </trkpt>
      <trkpt lat="46.227818" lon="6.772788">
        <ele>1679.111</ele>
        <time>2018-07-04T13:59:31Z</time>
      </trkpt>
      <trkpt lat="46.227783" lon="6.772829">
        <ele>1679.208</ele>
        <time>2018-07-04T13:59:39Z</time>
      </trkpt>
      <trkpt lat="46.227745" lon="6.772868">
        <ele>1679.397</ele>
        <time>2018-07-04T13:59:45Z</time>
      </trkpt>
      <trkpt lat="46.227709" lon="6.772914">
        <ele>1679.383</ele>
        <time>2018-07-04T13:59:51Z</time>
      </trkpt>
      <trkpt lat="46.227659" lon="6.772944">
        <ele>1679.775</ele>
        <time>2018-07-04T13:59:57Z</time>
      </trkpt>
      <trkpt lat="46.227607" lon="6.772952">
        <ele>1680.461</ele>
        <time>2018-07-04T14:00:02Z</time>
      </trkpt>
      <trkpt lat="46.227562" lon="6.772948">
        <ele>1681.373</ele>
        <time>2018-07-04T14:00:07Z</time>
      </trkpt>
      <trkpt lat="46.227514" lon="6.772949">
        <ele>1682.190</ele>
        <time>2018-07-04T14:00:15Z</time>
      </trkpt>
      <trkpt lat="46.227464" lon="6.772976">
        <ele>1682.176</ele>
        <time>2018-07-04T14:00:21Z</time>
      </trkpt>
      <trkpt lat="46.227414" lon="6.772988">
        <ele>1682.411</ele>
        <time>2018-07-04T14:00:27Z</time>
      </trkpt>
      <trkpt lat="46.227366" lon="6.773007">
        <ele>1682.548</ele>
        <time>2018-07-04T14:00:34Z</time>
      </trkpt>
      <trkpt lat="46.227320" lon="6.772989">
        <ele>1683.461</ele>
        <time>2018-07-04T14:00:40Z</time>
      </trkpt>
      <trkpt lat="46.227268" lon="6.772993">
        <ele>1683.917</ele>
        <time>2018-07-04T14:00:47Z</time>
      </trkpt>
      <trkpt lat="46.227221" lon="6.773006">
        <ele>1684.108</ele>
        <time>2018-07-04T14:00:52Z</time>
      </trkpt>
      <trkpt lat="46.227175" lon="6.773007">
        <ele>1684.756</ele>
        <time>2018-07-04T14:00:57Z</time>
      </trkpt>
      <trkpt lat="46.227128" lon="6.773000">
        <ele>1685.462</ele>
        <time>2018-07-04T14:01:05Z</time>
      </trkpt>
      <trkpt lat="46.227082" lon="6.772977">
        <ele>1686.444</ele>
        <time>2018-07-04T14:01:15Z</time>
      </trkpt>
      <trkpt lat="46.227034" lon="6.772969">
        <ele>1687.230</ele>
        <time>2018-07-04T14:01:25Z</time>
      </trkpt>
      <trkpt lat="46.226989" lon="6.772950">
        <ele>1688.022</ele>
        <time>2018-07-04T14:01:35Z</time>
      </trkpt>
      <trkpt lat="46.226966" lon="6.773010">
        <ele>1687.459</ele>
        <time>2018-07-04T14:01:46Z</time>
      </trkpt>
      <trkpt lat="46.226966" lon="6.773083">
        <ele>1686.415</ele>
        <time>2018-07-04T14:01:52Z</time>
      </trkpt>
      <trkpt lat="46.226919" lon="6.773114">
        <ele>1686.570</ele>
        <time>2018-07-04T14:02:00Z</time>
      </trkpt>
      <trkpt lat="46.226883" lon="6.773156">
        <ele>1686.292</ele>
        <time>2018-07-04T14:02:06Z</time>
      </trkpt>
      <trkpt lat="46.226841" lon="6.773182">
        <ele>1686.273</ele>
        <time>2018-07-04T14:02:11Z</time>
      </trkpt>
      <trkpt lat="46.226797" lon="6.773207">
        <ele>1686.220</ele>
        <time>2018-07-04T14:02:16Z</time>
      </trkpt>
      <trkpt lat="46.226758" lon="6.773242">
        <ele>1686.108</ele>
        <time>2018-07-04T14:02:21Z</time>
      </trkpt>
      <trkpt lat="46.226715" lon="6.773281">
        <ele>1686.151</ele>
        <time>2018-07-04T14:02:26Z</time>
      </trkpt>
      <trkpt lat="46.226677" lon="6.773321">
        <ele>1686.087</ele>
        <time>2018-07-04T14:02:31Z</time>
      </trkpt>
      <trkpt lat="46.226635" lon="6.773362">
        <ele>1685.829</ele>
        <time>2018-07-04T14:02:36Z</time>
      </trkpt>
      <trkpt lat="46.226593" lon="6.773407">
        <ele>1685.575</ele>
        <time>2018-07-04T14:02:41Z</time>
      </trkpt>
      <trkpt lat="46.226557" lon="6.773447">
        <ele>1685.217</ele>
        <time>2018-07-04T14:02:45Z</time>
      </trkpt>
      <trkpt lat="46.226519" lon="6.773485">
        <ele>1684.954</ele>
        <time>2018-07-04T14:02:49Z</time>
      </trkpt>
      <trkpt lat="46.226480" lon="6.773522">
        <ele>1684.640</ele>
        <time>2018-07-04T14:02:53Z</time>
      </trkpt>
      <trkpt lat="46.226440" lon="6.773554">
        <ele>1684.495</ele>
        <time>2018-07-04T14:02:57Z</time>
      </trkpt>
      <trkpt lat="46.226395" lon="6.773574">
        <ele>1684.368</ele>
        <time>2018-07-04T14:03:01Z</time>
      </trkpt>
      <trkpt lat="46.226349" lon="6.773586">
        <ele>1683.942</ele>
        <time>2018-07-04T14:03:05Z</time>
      </trkpt>
      <trkpt lat="46.226298" lon="6.773609">
        <ele>1683.426</ele>
        <time>2018-07-04T14:03:10Z</time>
      </trkpt>
      <trkpt lat="46.226245" lon="6.773630">
        <ele>1682.708</ele>
        <time>2018-07-04T14:03:15Z</time>
      </trkpt>
      <trkpt lat="46.226198" lon="6.773664">
        <ele>1681.968</ele>
        <time>2018-07-04T14:03:20Z</time>
      </trkpt>
      <trkpt lat="46.226161" lon="6.773704">
        <ele>1681.164</ele>
        <time>2018-07-04T14:03:24Z</time>
      </trkpt>
      <trkpt lat="46.226122" lon="6.773738">
        <ele>1680.366</ele>
        <time>2018-07-04T14:03:28Z</time>
      </trkpt>
      <trkpt lat="46.226088" lon="6.773782">
        <ele>1679.582</ele>
        <time>2018-07-04T14:03:32Z</time>
      </trkpt>
      <trkpt lat="46.226054" lon="6.773831">
        <ele>1678.854</ele>
        <time>2018-07-04T14:03:37Z</time>
      </trkpt>
      <trkpt lat="46.226034" lon="6.773892">
        <ele>1678.071</ele>
        <time>2018-07-04T14:03:43Z</time>
      </trkpt>
      <trkpt lat="46.225993" lon="6.773937">
        <ele>1677.537</ele>
        <time>2018-07-04T14:03:50Z</time>
      </trkpt>
      <trkpt lat="46.225948" lon="6.773950">
        <ele>1677.412</ele>
        <time>2018-07-04T14:03:55Z</time>
      </trkpt>
      <trkpt lat="46.225900" lon="6.773978">
        <ele>1677.219</ele>
        <time>2018-07-04T14:04:01Z</time>
      </trkpt>
      <trkpt lat="46.225858" lon="6.774015">
        <ele>1677.009</ele>
        <time>2018-07-04T14:04:08Z</time>
      </trkpt>
      <trkpt lat="46.225827" lon="6.774072">
        <ele>1676.819</ele>
        <time>2018-07-04T14:04:17Z</time>
      </trkpt>
      <trkpt lat="46.225795" lon="6.774119">
        <ele>1676.808</ele>
        <time>2018-07-04T14:04:25Z</time>
      </trkpt>
      <trkpt lat="46.225751" lon="6.774133">
        <ele>1677.473</ele>
        <time>2018-07-04T14:04:34Z</time>
      </trkpt>
      <trkpt lat="46.225706" lon="6.774112">
        <ele>1678.089</ele>
        <time>2018-07-04T14:04:43Z</time>
      </trkpt>
      <trkpt lat="46.225660" lon="6.774087">
        <ele>1678.781</ele>
        <time>2018-07-04T14:04:53Z</time>
      </trkpt>
      <trkpt lat="46.225611" lon="6.774091">
        <ele>1679.317</ele>
        <time>2018-07-04T14:05:04Z</time>
      </trkpt>
      <trkpt lat="46.225565" lon="6.774103">
        <ele>1679.979</ele>
        <time>2018-07-04T14:05:14Z</time>
      </trkpt>
      <trkpt lat="46.225520" lon="6.774137">
        <ele>1680.366</ele>
        <time>2018-07-04T14:05:20Z</time>
      </trkpt>
      <trkpt lat="46.225472" lon="6.774143">
        <ele>1680.722</ele>
        <time>2018-07-04T14:05:26Z</time>
      </trkpt>
      <trkpt lat="46.225427" lon="6.774124">
        <ele>1681.157</ele>
        <time>2018-07-04T14:05:32Z</time>
      </trkpt>
      <trkpt lat="46.225379" lon="6.774124">
        <ele>1681.535</ele>
        <time>2018-07-04T14:05:39Z</time>
      </trkpt>
      <trkpt lat="46.225332" lon="6.774143">
        <ele>1681.786</ele>
        <time>2018-07-04T14:05:45Z</time>
      </trkpt>
      <trkpt lat="46.225282" lon="6.774145">
        <ele>1682.114</ele>
        <time>2018-07-04T14:05:52Z</time>
      </trkpt>
      <trkpt lat="46.225239" lon="6.774124">
        <ele>1683.108</ele>
        <time>2018-07-04T14:05:59Z</time>
      </trkpt>
      <trkpt lat="46.225194" lon="6.774118">
        <ele>1684.145</ele>
        <time>2018-07-04T14:06:06Z</time>
      </trkpt>
      <trkpt lat="46.225147" lon="6.774120">
        <ele>1685.141</ele>
        <time>2018-07-04T14:06:15Z</time>
      </trkpt>
      <trkpt lat="46.225101" lon="6.774130">
        <ele>1686.083</ele>
        <time>2018-07-04T14:06:25Z</time>
      </trkpt>
      <trkpt lat="46.225055" lon="6.774110">
        <ele>1687.149</ele>
        <time>2018-07-04T14:06:34Z</time>
      </trkpt>
      <trkpt lat="46.225017" lon="6.774067">
        <ele>1688.071</ele>
        <time>2018-07-04T14:06:45Z</time>
      </trkpt>
      <trkpt lat="46.224979" lon="6.774026">
        <ele>1689.018</ele>
        <time>2018-07-04T14:06:58Z</time>
      </trkpt>
      <trkpt lat="46.224936" lon="6.774004">
        <ele>1690.294</ele>
        <time>2018-07-04T14:07:11Z</time>
      </trkpt>
      <trkpt lat="46.224889" lon="6.774005">
        <ele>1691.479</ele>
        <time>2018-07-04T14:07:20Z</time>
      </trkpt>
      <trkpt lat="46.224845" lon="6.773981">
        <ele>1692.849</ele>
        <time>2018-07-04T14:07:28Z</time>
      </trkpt>
      <trkpt lat="46.224797" lon="6.773968">
        <ele>1694.102</ele>
        <time>2018-07-04T14:07:36Z</time>
      </trkpt>
      <trkpt lat="46.224748" lon="6.773963">
        <ele>1695.522</ele>
        <time>2018-07-04T14:07:44Z</time>
      </trkpt>
      <trkpt lat="46.224698" lon="6.773956">
        <ele>1697.008</ele>
        <time>2018-07-04T14:07:53Z</time>
      </trkpt>
      <trkpt lat="46.224656" lon="6.773982">
        <ele>1698.016</ele>
        <time>2018-07-04T14:08:03Z</time>
      </trkpt>
      <trkpt lat="46.224612" lon="6.773996">
        <ele>1699.242</ele>
        <time>2018-07-04T14:08:13Z</time>
      </trkpt>
      <trkpt lat="46.224568" lon="6.774010">
        <ele>1700.464</ele>
        <time>2018-07-04T14:08:26Z</time>
      </trkpt>
      <trkpt lat="46.224527" lon="6.774042">
        <ele>1701.460</ele>
        <time>2018-07-04T14:09:44Z</time>
      </trkpt>
      <trkpt lat="46.224488" lon="6.774080">
        <ele>1702.342</ele>
        <time>2018-07-04T14:09:56Z</time>
      </trkpt>
      <trkpt lat="46.224444" lon="6.774098">
        <ele>1703.529</ele>
        <time>2018-07-04T14:10:13Z</time>
      </trkpt>
      <trkpt lat="46.224408" lon="6.774056">
        <ele>1704.835</ele>
        <time>2018-07-04T14:10:28Z</time>
      </trkpt>
      <trkpt lat="46.224361" lon="6.774031">
        <ele>1706.270</ele>
        <time>2018-07-04T14:10:52Z</time>
      </trkpt>
      <trkpt lat="46.224311" lon="6.774041">
        <ele>1707.559</ele>
        <time>2018-07-04T14:11:01Z</time>
      </trkpt>
      <trkpt lat="46.224262" lon="6.774055">
        <ele>1708.803</ele>
        <time>2018-07-04T14:11:08Z</time>
      </trkpt>
      <trkpt lat="46.224210" lon="6.774063">
        <ele>1710.223</ele>
        <time>2018-07-04T14:11:14Z</time>
      </trkpt>
      <trkpt lat="46.224159" lon="6.774075">
        <ele>1711.408</ele>
        <time>2018-07-04T14:11:20Z</time>
      </trkpt>
      <trkpt lat="46.224108" lon="6.774074">
        <ele>1712.147</ele>
        <time>2018-07-04T14:11:25Z</time>
      </trkpt>
      <trkpt lat="46.224059" lon="6.774079">
        <ele>1712.713</ele>
        <time>2018-07-04T14:11:30Z</time>
      </trkpt>
      <trkpt lat="46.224011" lon="6.774085">
        <ele>1713.355</ele>
        <time>2018-07-04T14:11:35Z</time>
      </trkpt>
      <trkpt lat="46.223960" lon="6.774085">
        <ele>1714.041</ele>
        <time>2018-07-04T14:11:40Z</time>
      </trkpt>
      <trkpt lat="46.223910" lon="6.774089">
        <ele>1714.683</ele>
        <time>2018-07-04T14:11:45Z</time>
      </trkpt>
      <trkpt lat="46.223860" lon="6.774115">
        <ele>1714.970</ele>
        <time>2018-07-04T14:11:51Z</time>
      </trkpt>
      <trkpt lat="46.223823" lon="6.774168">
        <ele>1714.776</ele>
        <time>2018-07-04T14:11:57Z</time>
      </trkpt>
      <trkpt lat="46.223777" lon="6.774176">
        <ele>1715.161</ele>
        <time>2018-07-04T14:12:05Z</time>
      </trkpt>
      <trkpt lat="46.223729" lon="6.774174">
        <ele>1715.676</ele>
        <time>2018-07-04T14:12:12Z</time>
      </trkpt>
      <trkpt lat="46.223677" lon="6.774160">
        <ele>1716.490</ele>
        <time>2018-07-04T14:12:18Z</time>
      </trkpt>
      <trkpt lat="46.223626" lon="6.774167">
        <ele>1716.819</ele>
        <time>2018-07-04T14:12:25Z</time>
      </trkpt>
      <trkpt lat="46.223579" lon="6.774184">
        <ele>1717.208</ele>
        <time>2018-07-04T14:12:32Z</time>
      </trkpt>
      <trkpt lat="46.223532" lon="6.774211">
        <ele>1717.479</ele>
        <time>2018-07-04T14:12:39Z</time>
      </trkpt>
      <trkpt lat="46.223487" lon="6.774228">
        <ele>1717.775</ele>
        <time>2018-07-04T14:12:48Z</time>
      </trkpt>
      <trkpt lat="46.223443" lon="6.774262">
        <ele>1717.817</ele>
        <time>2018-07-04T14:12:57Z</time>
      </trkpt>
      <trkpt lat="46.223406" lon="6.774306">
        <ele>1717.713</ele>
        <time>2018-07-04T14:13:04Z</time>
      </trkpt>
      <trkpt lat="46.223370" lon="6.774359">
        <ele>1717.565</ele>
        <time>2018-07-04T14:13:12Z</time>
      </trkpt>
      <trkpt lat="46.223336" lon="6.774406">
        <ele>1717.482</ele>
        <time>2018-07-04T14:13:19Z</time>
      </trkpt>
      <trkpt lat="46.223299" lon="6.774444">
        <ele>1717.938</ele>
        <time>2018-07-04T14:13:26Z</time>
      </trkpt>
      <trkpt lat="46.223263" lon="6.774485">
        <ele>1718.823</ele>
        <time>2018-07-04T14:13:35Z</time>
      </trkpt>
      <trkpt lat="46.223218" lon="6.774504">
        <ele>1719.945</ele>
        <time>2018-07-04T14:13:43Z</time>
      </trkpt>
      <trkpt lat="46.223170" lon="6.774529">
        <ele>1721.147</ele>
        <time>2018-07-04T14:13:57Z</time>
      </trkpt>
      <trkpt lat="46.223134" lon="6.774570">
        <ele>1721.811</ele>
        <time>2018-07-04T14:14:10Z</time>
      </trkpt>
      <trkpt lat="46.223088" lon="6.774588">
        <ele>1722.808</ele>
        <time>2018-07-04T14:14:24Z</time>
      </trkpt>
      <trkpt lat="46.223043" lon="6.774598">
        <ele>1723.716</ele>
        <time>2018-07-04T14:14:34Z</time>
      </trkpt>
      <trkpt lat="46.222997" lon="6.774620">
        <ele>1724.722</ele>
        <time>2018-07-04T14:14:46Z</time>
      </trkpt>
      <trkpt lat="46.222971" lon="6.774675">
        <ele>1725.034</ele>
        <time>2018-07-04T14:14:56Z</time>
      </trkpt>
      <trkpt lat="46.222945" lon="6.774728">
        <ele>1725.420</ele>
        <time>2018-07-04T14:15:22Z</time>
      </trkpt>
      <trkpt lat="46.222918" lon="6.774782">
        <ele>1726.592</ele>
        <time>2018-07-04T14:15:35Z</time>
      </trkpt>
      <trkpt lat="46.222875" lon="6.774813">
        <ele>1727.889</ele>
        <time>2018-07-04T14:15:52Z</time>
      </trkpt>
      <trkpt lat="46.222853" lon="6.774802">
        <ele>1728.265</ele>
        <time>2018-07-04T14:24:55Z</time>
      </trkpt>
      <trkpt lat="46.222808" lon="6.774780">
        <ele>1728.910</ele>
        <time>2018-07-04T14:25:08Z</time>
      </trkpt>
      <trkpt lat="46.222759" lon="6.774790">
        <ele>1730.429</ele>
        <time>2018-07-04T14:25:20Z</time>
      </trkpt>
      <trkpt lat="46.222715" lon="6.774760">
        <ele>1731.600</ele>
        <time>2018-07-04T14:25:30Z</time>
      </trkpt>
      <trkpt lat="46.222670" lon="6.774739">
        <ele>1733.020</ele>
        <time>2018-07-04T14:25:42Z</time>
      </trkpt>
      <trkpt lat="46.222629" lon="6.774708">
        <ele>1734.408</ele>
        <time>2018-07-04T14:26:00Z</time>
      </trkpt>
      <trkpt lat="46.222603" lon="6.774651">
        <ele>1735.654</ele>
        <time>2018-07-04T14:26:10Z</time>
      </trkpt>
      <trkpt lat="46.222569" lon="6.774603">
        <ele>1737.120</ele>
        <time>2018-07-04T14:26:20Z</time>
      </trkpt>
      <trkpt lat="46.222523" lon="6.774577">
        <ele>1738.772</ele>
        <time>2018-07-04T14:26:31Z</time>
      </trkpt>
      <trkpt lat="46.222477" lon="6.774569">
        <ele>1740.368</ele>
        <time>2018-07-04T14:26:43Z</time>
      </trkpt>
      <trkpt lat="46.222431" lon="6.774566">
        <ele>1741.780</ele>
        <time>2018-07-04T14:26:58Z</time>
      </trkpt>
      <trkpt lat="46.222383" lon="6.774558">
        <ele>1743.327</ele>
        <time>2018-07-04T14:27:09Z</time>
      </trkpt>
      <trkpt lat="46.222337" lon="6.774570">
        <ele>1744.633</ele>
        <time>2018-07-04T14:27:18Z</time>
      </trkpt>
      <trkpt lat="46.222290" lon="6.774563">
        <ele>1746.278</ele>
        <time>2018-07-04T14:27:27Z</time>
      </trkpt>
      <trkpt lat="46.222241" lon="6.774553">
        <ele>1747.842</ele>
        <time>2018-07-04T14:27:35Z</time>
      </trkpt>
      <trkpt lat="46.222196" lon="6.774531">
        <ele>1749.422</ele>
        <time>2018-07-04T14:27:46Z</time>
      </trkpt>
      <trkpt lat="46.222152" lon="6.774512">
        <ele>1750.914</ele>
        <time>2018-07-04T14:27:56Z</time>
      </trkpt>
      <trkpt lat="46.222107" lon="6.774489">
        <ele>1752.308</ele>
        <time>2018-07-04T14:28:08Z</time>
      </trkpt>
      <trkpt lat="46.222065" lon="6.774465">
        <ele>1753.716</ele>
        <time>2018-07-04T14:28:21Z</time>
      </trkpt>
      <trkpt lat="46.222019" lon="6.774478">
        <ele>1754.772</ele>
        <time>2018-07-04T14:28:33Z</time>
      </trkpt>
      <trkpt lat="46.221972" lon="6.774459">
        <ele>1756.114</ele>
        <time>2018-07-04T14:28:46Z</time>
      </trkpt>
      <trkpt lat="46.221927" lon="6.774460">
        <ele>1757.320</ele>
        <time>2018-07-04T14:29:00Z</time>
      </trkpt>
      <trkpt lat="46.221879" lon="6.774463">
        <ele>1758.722</ele>
        <time>2018-07-04T14:29:14Z</time>
      </trkpt>
      <trkpt lat="46.221833" lon="6.774487">
        <ele>1759.829</ele>
        <time>2018-07-04T14:29:28Z</time>
      </trkpt>
      <trkpt lat="46.221787" lon="6.774473">
        <ele>1761.235</ele>
        <time>2018-07-04T14:29:41Z</time>
      </trkpt>
      <trkpt lat="46.221743" lon="6.774440">
        <ele>1762.970</ele>
        <time>2018-07-04T14:29:54Z</time>
      </trkpt>
      <trkpt lat="46.221713" lon="6.774391">
        <ele>1764.393</ele>
        <time>2018-07-04T14:30:04Z</time>
      </trkpt>
      <trkpt lat="46.221669" lon="6.774364">
        <ele>1765.865</ele>
        <time>2018-07-04T14:30:17Z</time>
      </trkpt>
      <trkpt lat="46.221622" lon="6.774346">
        <ele>1767.421</ele>
        <time>2018-07-04T14:30:28Z</time>
      </trkpt>
      <trkpt lat="46.221576" lon="6.774334">
        <ele>1768.908</ele>
        <time>2018-07-04T14:30:49Z</time>
      </trkpt>
      <trkpt lat="46.221536" lon="6.774300">
        <ele>1770.631</ele>
        <time>2018-07-04T14:30:59Z</time>
      </trkpt>
      <trkpt lat="46.221493" lon="6.774276">
        <ele>1772.257</ele>
        <time>2018-07-04T14:31:10Z</time>
      </trkpt>
      <trkpt lat="46.221454" lon="6.774240">
        <ele>1773.999</ele>
        <time>2018-07-04T14:31:29Z</time>
      </trkpt>
      <trkpt lat="46.221457" lon="6.774175">
        <ele>1774.735</ele>
        <time>2018-07-04T14:31:43Z</time>
      </trkpt>
      <trkpt lat="46.221460" lon="6.774108">
        <ele>1776.037</ele>
        <time>2018-07-04T14:31:53Z</time>
      </trkpt>
      <trkpt lat="46.221459" lon="6.774043">
        <ele>1777.444</ele>
        <time>2018-07-04T14:32:11Z</time>
      </trkpt>
      <trkpt lat="46.221449" lon="6.773973">
        <ele>1779.260</ele>
        <time>2018-07-04T14:32:39Z</time>
      </trkpt>
      <trkpt lat="46.221445" lon="6.773899">
        <ele>1781.045</ele>
        <time>2018-07-04T14:32:47Z</time>
      </trkpt>
      <trkpt lat="46.221448" lon="6.773829">
        <ele>1782.027</ele>
        <time>2018-07-04T14:32:54Z</time>
      </trkpt>
      <trkpt lat="46.221442" lon="6.773762">
        <ele>1783.368</ele>
        <time>2018-07-04T14:33:03Z</time>
      </trkpt>
      <trkpt lat="46.221445" lon="6.773697">
        <ele>1784.214</ele>
        <time>2018-07-04T14:33:16Z</time>
      </trkpt>
      <trkpt lat="46.221455" lon="6.773630">
        <ele>1785.008</ele>
        <time>2018-07-04T14:33:27Z</time>
      </trkpt>
      <trkpt lat="46.221486" lon="6.773570">
        <ele>1785.294</ele>
        <time>2018-07-04T14:33:33Z</time>
      </trkpt>
      <trkpt lat="46.221511" lon="6.773508">
        <ele>1785.590</ele>
        <time>2018-07-04T14:33:39Z</time>
      </trkpt>
      <trkpt lat="46.221533" lon="6.773446">
        <ele>1786.152</ele>
        <time>2018-07-04T14:33:45Z</time>
      </trkpt>
      <trkpt lat="46.221557" lon="6.773390">
        <ele>1786.698</ele>
        <time>2018-07-04T14:33:52Z</time>
      </trkpt>
      <trkpt lat="46.221582" lon="6.773327">
        <ele>1787.320</ele>
        <time>2018-07-04T14:34:02Z</time>
      </trkpt>
      <trkpt lat="46.221617" lon="6.773276">
        <ele>1787.157</ele>
        <time>2018-07-04T14:34:10Z</time>
      </trkpt>
      <trkpt lat="46.221661" lon="6.773236">
        <ele>1786.883</ele>
        <time>2018-07-04T14:34:16Z</time>
      </trkpt>
      <trkpt lat="46.221672" lon="6.773160">
        <ele>1787.078</ele>
        <time>2018-07-04T14:52:06Z</time>
      </trkpt>
      <trkpt lat="46.221704" lon="6.773114">
        <ele>1786.061</ele>
        <time>2018-07-04T14:52:17Z</time>
      </trkpt>
      <trkpt lat="46.221701" lon="6.773049">
        <ele>1786.521</ele>
        <time>2018-07-04T14:52:24Z</time>
      </trkpt>
      <trkpt lat="46.221676" lon="6.772992">
        <ele>1786.913</ele>
        <time>2018-07-04T14:52:31Z</time>
      </trkpt>
      <trkpt lat="46.221647" lon="6.772939">
        <ele>1786.908</ele>
        <time>2018-07-04T14:52:38Z</time>
      </trkpt>
      <trkpt lat="46.221601" lon="6.772917">
        <ele>1787.028</ele>
        <time>2018-07-04T14:53:01Z</time>
      </trkpt>
      <trkpt lat="46.221549" lon="6.772900">
        <ele>1787.254</ele>
        <time>2018-07-04T14:53:08Z</time>
      </trkpt>
      <trkpt lat="46.221495" lon="6.772891">
        <ele>1787.556</ele>
        <time>2018-07-04T14:53:15Z</time>
      </trkpt>
      <trkpt lat="46.221447" lon="6.772883">
        <ele>1787.732</ele>
        <time>2018-07-04T14:53:21Z</time>
      </trkpt>
      <trkpt lat="46.221397" lon="6.772862">
        <ele>1787.994</ele>
        <time>2018-07-04T14:53:27Z</time>
      </trkpt>
      <trkpt lat="46.221348" lon="6.772846">
        <ele>1787.121</ele>
        <time>2018-07-04T14:53:32Z</time>
      </trkpt>
      <trkpt lat="46.221303" lon="6.772825">
        <ele>1786.237</ele>
        <time>2018-07-04T14:53:37Z</time>
      </trkpt>
      <trkpt lat="46.221266" lon="6.772780">
        <ele>1784.872</ele>
        <time>2018-07-04T14:53:43Z</time>
      </trkpt>
      <trkpt lat="46.221219" lon="6.772790">
        <ele>1784.261</ele>
        <time>2018-07-04T14:53:54Z</time>
      </trkpt>
      <trkpt lat="46.221179" lon="6.772833">
        <ele>1784.421</ele>
        <time>2018-07-04T14:54:00Z</time>
      </trkpt>
      <trkpt lat="46.221142" lon="6.772871">
        <ele>1784.813</ele>
        <time>2018-07-04T14:54:06Z</time>
      </trkpt>
      <trkpt lat="46.221093" lon="6.772892">
        <ele>1784.608</ele>
        <time>2018-07-04T14:54:25Z</time>
      </trkpt>
      <trkpt lat="46.221044" lon="6.772913">
        <ele>1784.268</ele>
        <time>2018-07-04T14:54:30Z</time>
      </trkpt>
      <trkpt lat="46.220990" lon="6.772935">
        <ele>1783.874</ele>
        <time>2018-07-04T14:54:35Z</time>
      </trkpt>
      <trkpt lat="46.220948" lon="6.772958">
        <ele>1783.666</ele>
        <time>2018-07-04T14:54:39Z</time>
      </trkpt>
      <trkpt lat="46.220899" lon="6.772984">
        <ele>1783.482</ele>
        <time>2018-07-04T14:54:44Z</time>
      </trkpt>
      <trkpt lat="46.220858" lon="6.773011">
        <ele>1783.384</ele>
        <time>2018-07-04T14:54:49Z</time>
      </trkpt>
      <trkpt lat="46.220813" lon="6.773028">
        <ele>1782.911</ele>
        <time>2018-07-04T14:54:59Z</time>
      </trkpt>
      <trkpt lat="46.220765" lon="6.773035">
        <ele>1782.247</ele>
        <time>2018-07-04T14:55:05Z</time>
      </trkpt>
      <trkpt lat="46.220730" lon="6.773084">
        <ele>1782.812</ele>
        <time>2018-07-04T14:55:11Z</time>
      </trkpt>
      <trkpt lat="46.220685" lon="6.773111">
        <ele>1782.635</ele>
        <time>2018-07-04T14:55:17Z</time>
      </trkpt>
      <trkpt lat="46.220643" lon="6.773157">
        <ele>1783.086</ele>
        <time>2018-07-04T14:55:25Z</time>
      </trkpt>
      <trkpt lat="46.220598" lon="6.773183">
        <ele>1782.914</ele>
        <time>2018-07-04T14:55:31Z</time>
      </trkpt>
      <trkpt lat="46.220557" lon="6.773211">
        <ele>1782.908</ele>
        <time>2018-07-04T14:55:35Z</time>
      </trkpt>
      <trkpt lat="46.220518" lon="6.773255">
        <ele>1783.375</ele>
        <time>2018-07-04T14:55:39Z</time>
      </trkpt>
      <trkpt lat="46.220476" lon="6.773292">
        <ele>1783.581</ele>
        <time>2018-07-04T14:55:43Z</time>
      </trkpt>
      <trkpt lat="46.220438" lon="6.773334">
        <ele>1783.983</ele>
        <time>2018-07-04T14:55:47Z</time>
      </trkpt>
      <trkpt lat="46.220402" lon="6.773377">
        <ele>1784.579</ele>
        <time>2018-07-04T14:55:51Z</time>
      </trkpt>
      <trkpt lat="46.220355" lon="6.773404">
        <ele>1784.451</ele>
        <time>2018-07-04T14:55:55Z</time>
      </trkpt>
      <trkpt lat="46.220305" lon="6.773431">
        <ele>1784.328</ele>
        <time>2018-07-04T14:55:59Z</time>
      </trkpt>
      <trkpt lat="46.220261" lon="6.773469">
        <ele>1784.554</ele>
        <time>2018-07-04T14:56:03Z</time>
      </trkpt>
      <trkpt lat="46.220226" lon="6.773510">
        <ele>1784.889</ele>
        <time>2018-07-04T14:56:07Z</time>
      </trkpt>
      <trkpt lat="46.220187" lon="6.773545">
        <ele>1784.857</ele>
        <time>2018-07-04T14:56:11Z</time>
      </trkpt>
      <trkpt lat="46.220145" lon="6.773584">
        <ele>1784.900</ele>
        <time>2018-07-04T14:56:16Z</time>
      </trkpt>
      <trkpt lat="46.220106" lon="6.773626">
        <ele>1785.120</ele>
        <time>2018-07-04T14:56:21Z</time>
      </trkpt>
      <trkpt lat="46.220069" lon="6.773678">
        <ele>1785.808</ele>
        <time>2018-07-04T14:56:26Z</time>
      </trkpt>
      <trkpt lat="46.220033" lon="6.773723">
        <ele>1786.447</ele>
        <time>2018-07-04T14:56:31Z</time>
      </trkpt>
      <trkpt lat="46.220001" lon="6.773780">
        <ele>1787.593</ele>
        <time>2018-07-04T14:56:37Z</time>
      </trkpt>
      <trkpt lat="46.219962" lon="6.773820">
        <ele>1787.865</ele>
        <time>2018-07-04T14:56:42Z</time>
      </trkpt>
      <trkpt lat="46.219925" lon="6.773860">
        <ele>1788.231</ele>
        <time>2018-07-04T14:56:47Z</time>
      </trkpt>
      <trkpt lat="46.219885" lon="6.773911">
        <ele>1788.793</ele>
        <time>2018-07-04T14:56:52Z</time>
      </trkpt>
      <trkpt lat="46.219843" lon="6.773942">
        <ele>1788.680</ele>
        <time>2018-07-04T14:56:57Z</time>
      </trkpt>
      <trkpt lat="46.219800" lon="6.773979">
        <ele>1788.676</ele>
        <time>2018-07-04T14:57:02Z</time>
      </trkpt>
      <trkpt lat="46.219762" lon="6.774020">
        <ele>1788.821</ele>
        <time>2018-07-04T14:57:07Z</time>
      </trkpt>
      <trkpt lat="46.219716" lon="6.774054">
        <ele>1788.611</ele>
        <time>2018-07-04T14:57:12Z</time>
      </trkpt>
      <trkpt lat="46.219674" lon="6.774091">
        <ele>1788.621</ele>
        <time>2018-07-04T14:57:17Z</time>
      </trkpt>
      <trkpt lat="46.219631" lon="6.774130">
        <ele>1788.603</ele>
        <time>2018-07-04T14:57:22Z</time>
      </trkpt>
      <trkpt lat="46.219589" lon="6.774173">
        <ele>1788.808</ele>
        <time>2018-07-04T14:57:27Z</time>
      </trkpt>
      <trkpt lat="46.219550" lon="6.774214">
        <ele>1789.163</ele>
        <time>2018-07-04T14:57:32Z</time>
      </trkpt>
      <trkpt lat="46.219511" lon="6.774256">
        <ele>1789.319</ele>
        <time>2018-07-04T14:57:37Z</time>
      </trkpt>
      <trkpt lat="46.219477" lon="6.774306">
        <ele>1789.971</ele>
        <time>2018-07-04T14:57:42Z</time>
      </trkpt>
      <trkpt lat="46.219441" lon="6.774357">
        <ele>1790.457</ele>
        <time>2018-07-04T14:57:48Z</time>
      </trkpt>
      <trkpt lat="46.219402" lon="6.774410">
        <ele>1790.899</ele>
        <time>2018-07-04T14:57:55Z</time>
      </trkpt>
      <trkpt lat="46.219369" lon="6.774468">
        <ele>1791.586</ele>
        <time>2018-07-04T14:58:01Z</time>
      </trkpt>
      <trkpt lat="46.219332" lon="6.774518">
        <ele>1791.922</ele>
        <time>2018-07-04T14:58:07Z</time>
      </trkpt>
      <trkpt lat="46.219298" lon="6.774564">
        <ele>1792.297</ele>
        <time>2018-07-04T14:58:13Z</time>
      </trkpt>
      <trkpt lat="46.219267" lon="6.774616">
        <ele>1792.873</ele>
        <time>2018-07-04T14:58:19Z</time>
      </trkpt>
      <trkpt lat="46.219232" lon="6.774671">
        <ele>1793.485</ele>
        <time>2018-07-04T14:58:25Z</time>
      </trkpt>
      <trkpt lat="46.219195" lon="6.774716">
        <ele>1793.613</ele>
        <time>2018-07-04T14:58:30Z</time>
      </trkpt>
      <trkpt lat="46.219164" lon="6.774763">
        <ele>1793.908</ele>
        <time>2018-07-04T14:58:35Z</time>
      </trkpt>
      <trkpt lat="46.219132" lon="6.774811">
        <ele>1794.189</ele>
        <time>2018-07-04T14:58:41Z</time>
      </trkpt>
      <trkpt lat="46.219098" lon="6.774862">
        <ele>1794.325</ele>
        <time>2018-07-04T14:58:47Z</time>
      </trkpt>
      <trkpt lat="46.219063" lon="6.774914">
        <ele>1794.517</ele>
        <time>2018-07-04T14:58:53Z</time>
      </trkpt>
      <trkpt lat="46.219037" lon="6.774972">
        <ele>1795.153</ele>
        <time>2018-07-04T14:58:59Z</time>
      </trkpt>
      <trkpt lat="46.219005" lon="6.775019">
        <ele>1795.385</ele>
        <time>2018-07-04T14:59:04Z</time>
      </trkpt>
      <trkpt lat="46.218971" lon="6.775072">
        <ele>1795.622</ele>
        <time>2018-07-04T14:59:10Z</time>
      </trkpt>
      <trkpt lat="46.218941" lon="6.775128">
        <ele>1796.068</ele>
        <time>2018-07-04T14:59:16Z</time>
      </trkpt>
      <trkpt lat="46.218911" lon="6.775189">
        <ele>1796.543</ele>
        <time>2018-07-04T14:59:22Z</time>
      </trkpt>
      <trkpt lat="46.218892" lon="6.775250">
        <ele>1797.417</ele>
        <time>2018-07-04T14:59:27Z</time>
      </trkpt>
      <trkpt lat="46.218859" lon="6.775315">
        <ele>1797.087</ele>
        <time>2018-07-04T14:59:32Z</time>
      </trkpt>
      <trkpt lat="46.218837" lon="6.775381">
        <ele>1797.215</ele>
        <time>2018-07-04T14:59:38Z</time>
      </trkpt>
      <trkpt lat="46.218818" lon="6.775450">
        <ele>1797.708</ele>
        <time>2018-07-04T14:59:44Z</time>
      </trkpt>
      <trkpt lat="46.218801" lon="6.775516">
        <ele>1798.323</ele>
        <time>2018-07-04T14:59:50Z</time>
      </trkpt>
      <trkpt lat="46.218782" lon="6.775580">
        <ele>1798.739</ele>
        <time>2018-07-04T14:59:55Z</time>
      </trkpt>
      <trkpt lat="46.218760" lon="6.775643">
        <ele>1799.031</ele>
        <time>2018-07-04T15:00:01Z</time>
      </trkpt>
      <trkpt lat="46.218744" lon="6.775716">
        <ele>1800.067</ele>
        <time>2018-07-04T15:00:08Z</time>
      </trkpt>
      <trkpt lat="46.218734" lon="6.775793">
        <ele>1801.549</ele>
        <time>2018-07-04T15:00:14Z</time>
      </trkpt>
      <trkpt lat="46.218711" lon="6.775855">
        <ele>1802.056</ele>
        <time>2018-07-04T15:00:19Z</time>
      </trkpt>
      <trkpt lat="46.218689" lon="6.775921">
        <ele>1802.632</ele>
        <time>2018-07-04T15:00:24Z</time>
      </trkpt>
      <trkpt lat="46.218659" lon="6.775988">
        <ele>1802.877</ele>
        <time>2018-07-04T15:00:30Z</time>
      </trkpt>
      <trkpt lat="46.218638" lon="6.776052">
        <ele>1803.671</ele>
        <time>2018-07-04T15:00:35Z</time>
      </trkpt>
      <trkpt lat="46.218615" lon="6.776113">
        <ele>1804.241</ele>
        <time>2018-07-04T15:00:40Z</time>
      </trkpt>
      <trkpt lat="46.218588" lon="6.776167">
        <ele>1803.915</ele>
        <time>2018-07-04T15:00:45Z</time>
      </trkpt>
      <trkpt lat="46.218550" lon="6.776222">
        <ele>1802.808</ele>
        <time>2018-07-04T15:00:50Z</time>
      </trkpt>
      <trkpt lat="46.218524" lon="6.776284">
        <ele>1802.869</ele>
        <time>2018-07-04T15:00:55Z</time>
      </trkpt>
      <trkpt lat="46.218493" lon="6.776340">
        <ele>1802.465</ele>
        <time>2018-07-04T15:01:00Z</time>
      </trkpt>
      <trkpt lat="46.218458" lon="6.776397">
        <ele>1801.897</ele>
        <time>2018-07-04T15:01:05Z</time>
      </trkpt>
      <trkpt lat="46.218430" lon="6.776460">
        <ele>1801.953</ele>
        <time>2018-07-04T15:01:10Z</time>
      </trkpt>
      <trkpt lat="46.218401" lon="6.776525">
        <ele>1802.165</ele>
        <time>2018-07-04T15:01:15Z</time>
      </trkpt>
      <trkpt lat="46.218374" lon="6.776584">
        <ele>1802.432</ele>
        <time>2018-07-04T15:01:20Z</time>
      </trkpt>
      <trkpt lat="46.218343" lon="6.776634">
        <ele>1802.468</ele>
        <time>2018-07-04T15:01:25Z</time>
      </trkpt>
      <trkpt lat="46.218317" lon="6.776687">
        <ele>1803.053</ele>
        <time>2018-07-04T15:01:30Z</time>
      </trkpt>
      <trkpt lat="46.218295" lon="6.776745">
        <ele>1803.935</ele>
        <time>2018-07-04T15:01:35Z</time>
      </trkpt>
      <trkpt lat="46.218273" lon="6.776806">
        <ele>1804.986</ele>
        <time>2018-07-04T15:01:40Z</time>
      </trkpt>
      <trkpt lat="46.218242" lon="6.776870">
        <ele>1805.614</ele>
        <time>2018-07-04T15:01:45Z</time>
      </trkpt>
      <trkpt lat="46.218211" lon="6.776935">
        <ele>1806.408</ele>
        <time>2018-07-04T15:01:50Z</time>
      </trkpt>
      <trkpt lat="46.218182" lon="6.776999">
        <ele>1806.915</ele>
        <time>2018-07-04T15:01:55Z</time>
      </trkpt>
      <trkpt lat="46.218154" lon="6.777066">
        <ele>1807.631</ele>
        <time>2018-07-04T15:02:00Z</time>
      </trkpt>
      <trkpt lat="46.218125" lon="6.777129">
        <ele>1808.193</ele>
        <time>2018-07-04T15:02:05Z</time>
      </trkpt>
      <trkpt lat="46.218094" lon="6.777190">
        <ele>1808.629</ele>
        <time>2018-07-04T15:02:10Z</time>
      </trkpt>
      <trkpt lat="46.218054" lon="6.777244">
        <ele>1808.661</ele>
        <time>2018-07-04T15:02:15Z</time>
      </trkpt>
      <trkpt lat="46.218012" lon="6.777285">
        <ele>1807.978</ele>
        <time>2018-07-04T15:02:20Z</time>
      </trkpt>
      <trkpt lat="46.217977" lon="6.777326">
        <ele>1807.634</ele>
        <time>2018-07-04T15:02:25Z</time>
      </trkpt>
      <trkpt lat="46.217943" lon="6.777371">
        <ele>1807.479</ele>
        <time>2018-07-04T15:02:30Z</time>
      </trkpt>
      <trkpt lat="46.217909" lon="6.777426">
        <ele>1807.532</ele>
        <time>2018-07-04T15:02:35Z</time>
      </trkpt>
      <trkpt lat="46.217873" lon="6.777480">
        <ele>1807.592</ele>
        <time>2018-07-04T15:02:40Z</time>
      </trkpt>
      <trkpt lat="46.217832" lon="6.777527">
        <ele>1807.311</ele>
        <time>2018-07-04T15:02:45Z</time>
      </trkpt>
      <trkpt lat="46.217786" lon="6.777574">
        <ele>1807.008</ele>
        <time>2018-07-04T15:02:50Z</time>
      </trkpt>
      <trkpt lat="46.217742" lon="6.777619">
        <ele>1807.335</ele>
        <time>2018-07-04T15:02:55Z</time>
      </trkpt>
      <trkpt lat="46.217698" lon="6.777666">
        <ele>1807.831</ele>
        <time>2018-07-04T15:03:00Z</time>
      </trkpt>
      <trkpt lat="46.217653" lon="6.777709">
        <ele>1808.033</ele>
        <time>2018-07-04T15:03:05Z</time>
      </trkpt>
      <trkpt lat="46.217612" lon="6.777745">
        <ele>1808.179</ele>
        <time>2018-07-04T15:03:10Z</time>
      </trkpt>
      <trkpt lat="46.217569" lon="6.777795">
        <ele>1808.621</ele>
        <time>2018-07-04T15:03:15Z</time>
      </trkpt>
      <trkpt lat="46.217526" lon="6.777834">
        <ele>1808.898</ele>
        <time>2018-07-04T15:03:20Z</time>
      </trkpt>
      <trkpt lat="46.217481" lon="6.777871">
        <ele>1808.944</ele>
        <time>2018-07-04T15:03:25Z</time>
      </trkpt>
      <trkpt lat="46.217432" lon="6.777906">
        <ele>1808.969</ele>
        <time>2018-07-04T15:03:30Z</time>
      </trkpt>
      <trkpt lat="46.217389" lon="6.777949">
        <ele>1809.421</ele>
        <time>2018-07-04T15:03:35Z</time>
      </trkpt>
      <trkpt lat="46.217342" lon="6.777988">
        <ele>1809.641</ele>
        <time>2018-07-04T15:03:40Z</time>
      </trkpt>
      <trkpt lat="46.217301" lon="6.778015">
        <ele>1809.505</ele>
        <time>2018-07-04T15:03:44Z</time>
      </trkpt>
      <trkpt lat="46.217253" lon="6.778051">
        <ele>1809.608</ele>
        <time>2018-07-04T15:03:49Z</time>
      </trkpt>
      <trkpt lat="46.217202" lon="6.778082">
        <ele>1809.614</ele>
        <time>2018-07-04T15:03:54Z</time>
      </trkpt>
      <trkpt lat="46.217155" lon="6.778123">
        <ele>1810.230</ele>
        <time>2018-07-04T15:03:59Z</time>
      </trkpt>
      <trkpt lat="46.217108" lon="6.778160">
        <ele>1810.792</ele>
        <time>2018-07-04T15:04:04Z</time>
      </trkpt>
      <trkpt lat="46.217062" lon="6.778184">
        <ele>1810.748</ele>
        <time>2018-07-04T15:04:09Z</time>
      </trkpt>
      <trkpt lat="46.217020" lon="6.778211">
        <ele>1811.050</ele>
        <time>2018-07-04T15:04:14Z</time>
      </trkpt>
      <trkpt lat="46.216978" lon="6.778238">
        <ele>1811.237</ele>
        <time>2018-07-04T15:04:19Z</time>
      </trkpt>
      <trkpt lat="46.216933" lon="6.778269">
        <ele>1811.553</ele>
        <time>2018-07-04T15:04:24Z</time>
      </trkpt>
      <trkpt lat="46.216882" lon="6.778296">
        <ele>1811.528</ele>
        <time>2018-07-04T15:04:29Z</time>
      </trkpt>
      <trkpt lat="46.216835" lon="6.778322">
        <ele>1811.655</ele>
        <time>2018-07-04T15:04:34Z</time>
      </trkpt>
      <trkpt lat="46.216792" lon="6.778358">
        <ele>1812.207</ele>
        <time>2018-07-04T15:04:39Z</time>
      </trkpt>
      <trkpt lat="46.216747" lon="6.778384">
        <ele>1812.517</ele>
        <time>2018-07-04T15:04:44Z</time>
      </trkpt>
      <trkpt lat="46.216698" lon="6.778418">
        <ele>1812.908</ele>
        <time>2018-07-04T15:04:49Z</time>
      </trkpt>
      <trkpt lat="46.216655" lon="6.778449">
        <ele>1813.437</ele>
        <time>2018-07-04T15:04:54Z</time>
      </trkpt>
      <trkpt lat="46.216611" lon="6.778471">
        <ele>1813.773</ele>
        <time>2018-07-04T15:04:59Z</time>
      </trkpt>
      <trkpt lat="46.216564" lon="6.778494">
        <ele>1813.985</ele>
        <time>2018-07-04T15:05:04Z</time>
      </trkpt>
      <trkpt lat="46.216518" lon="6.778515">
        <ele>1814.161</ele>
        <time>2018-07-04T15:05:09Z</time>
      </trkpt>
      <trkpt lat="46.216469" lon="6.778527">
        <ele>1813.843</ele>
        <time>2018-07-04T15:05:15Z</time>
      </trkpt>
      <trkpt lat="46.216425" lon="6.778553">
        <ele>1814.210</ele>
        <time>2018-07-04T15:05:20Z</time>
      </trkpt>
      <trkpt lat="46.216382" lon="6.778580">
        <ele>1814.616</ele>
        <time>2018-07-04T15:05:25Z</time>
      </trkpt>
      <trkpt lat="46.216341" lon="6.778617">
        <ele>1815.021</ele>
        <time>2018-07-04T15:05:30Z</time>
      </trkpt>
      <trkpt lat="46.216302" lon="6.778657">
        <ele>1815.346</ele>
        <time>2018-07-04T15:05:36Z</time>
      </trkpt>
      <trkpt lat="46.216260" lon="6.778694">
        <ele>1815.488</ele>
        <time>2018-07-04T15:05:41Z</time>
      </trkpt>
      <trkpt lat="46.216219" lon="6.778739">
        <ele>1815.916</ele>
        <time>2018-07-04T15:05:46Z</time>
      </trkpt>
      <trkpt lat="46.216177" lon="6.778788">
        <ele>1816.408</ele>
        <time>2018-07-04T15:05:51Z</time>
      </trkpt>
      <trkpt lat="46.216143" lon="6.778832">
        <ele>1817.076</ele>
        <time>2018-07-04T15:05:55Z</time>
      </trkpt>
      <trkpt lat="46.216107" lon="6.778884">
        <ele>1817.712</ele>
        <time>2018-07-04T15:06:00Z</time>
      </trkpt>
      <trkpt lat="46.216066" lon="6.778935">
        <ele>1818.064</ele>
        <time>2018-07-04T15:06:05Z</time>
      </trkpt>
      <trkpt lat="46.216028" lon="6.778989">
        <ele>1818.360</ele>
        <time>2018-07-04T15:06:10Z</time>
      </trkpt>
      <trkpt lat="46.215996" lon="6.779044">
        <ele>1818.882</ele>
        <time>2018-07-04T15:06:15Z</time>
      </trkpt>
      <trkpt lat="46.215962" lon="6.779091">
        <ele>1818.979</ele>
        <time>2018-07-04T15:06:19Z</time>
      </trkpt>
      <trkpt lat="46.215921" lon="6.779140">
        <ele>1818.775</ele>
        <time>2018-07-04T15:06:24Z</time>
      </trkpt>
      <trkpt lat="46.215886" lon="6.779182">
        <ele>1818.490</ele>
        <time>2018-07-04T15:06:28Z</time>
      </trkpt>
      <trkpt lat="46.215847" lon="6.779241">
        <ele>1818.127</ele>
        <time>2018-07-04T15:06:33Z</time>
      </trkpt>
      <trkpt lat="46.215816" lon="6.779291">
        <ele>1818.168</ele>
        <time>2018-07-04T15:06:37Z</time>
      </trkpt>
      <trkpt lat="46.215789" lon="6.779344">
        <ele>1818.314</ele>
        <time>2018-07-04T15:06:41Z</time>
      </trkpt>
      <trkpt lat="46.215755" lon="6.779405">
        <ele>1818.408</ele>
        <time>2018-07-04T15:06:46Z</time>
      </trkpt>
      <trkpt lat="46.215721" lon="6.779462">
        <ele>1818.284</ele>
        <time>2018-07-04T15:06:51Z</time>
      </trkpt>
      <trkpt lat="46.215690" lon="6.779529">
        <ele>1818.270</ele>
        <time>2018-07-04T15:06:56Z</time>
      </trkpt>
      <trkpt lat="46.215671" lon="6.779589">
        <ele>1818.562</ele>
        <time>2018-07-04T15:07:00Z</time>
      </trkpt>
      <trkpt lat="46.215644" lon="6.779656">
        <ele>1818.518</ele>
        <time>2018-07-04T15:07:05Z</time>
      </trkpt>
      <trkpt lat="46.215619" lon="6.779725">
        <ele>1818.670</ele>
        <time>2018-07-04T15:07:10Z</time>
      </trkpt>
      <trkpt lat="46.215596" lon="6.779798">
        <ele>1818.727</ele>
        <time>2018-07-04T15:07:15Z</time>
      </trkpt>
      <trkpt lat="46.215576" lon="6.779870">
        <ele>1819.023</ele>
        <time>2018-07-04T15:07:20Z</time>
      </trkpt>
      <trkpt lat="46.215550" lon="6.779941">
        <ele>1818.968</ele>
        <time>2018-07-04T15:07:25Z</time>
      </trkpt>
      <trkpt lat="46.215525" lon="6.780010">
        <ele>1818.691</ele>
        <time>2018-07-04T15:07:30Z</time>
      </trkpt>
      <trkpt lat="46.215499" lon="6.780075">
        <ele>1818.281</ele>
        <time>2018-07-04T15:07:35Z</time>
      </trkpt>
      <trkpt lat="46.215480" lon="6.780146">
        <ele>1818.319</ele>
        <time>2018-07-04T15:07:40Z</time>
      </trkpt>
      <trkpt lat="46.215458" lon="6.780205">
        <ele>1818.008</ele>
        <time>2018-07-04T15:07:44Z</time>
      </trkpt>
      <trkpt lat="46.215433" lon="6.780266">
        <ele>1817.751</ele>
        <time>2018-07-04T15:07:48Z</time>
      </trkpt>
      <trkpt lat="46.215413" lon="6.780328">
        <ele>1817.727</ele>
        <time>2018-07-04T15:07:52Z</time>
      </trkpt>
      <trkpt lat="46.215395" lon="6.780400">
        <ele>1818.179</ele>
        <time>2018-07-04T15:07:57Z</time>
      </trkpt>
      <trkpt lat="46.215379" lon="6.780475">
        <ele>1818.725</ele>
        <time>2018-07-04T15:08:02Z</time>
      </trkpt>
      <trkpt lat="46.215365" lon="6.780552">
        <ele>1819.327</ele>
        <time>2018-07-04T15:08:07Z</time>
      </trkpt>
      <trkpt lat="46.215353" lon="6.780626">
        <ele>1819.614</ele>
        <time>2018-07-04T15:08:12Z</time>
      </trkpt>
      <trkpt lat="46.215343" lon="6.780700">
        <ele>1820.070</ele>
        <time>2018-07-04T15:08:17Z</time>
      </trkpt>
      <trkpt lat="46.215325" lon="6.780775">
        <ele>1819.945</ele>
        <time>2018-07-04T15:08:22Z</time>
      </trkpt>
      <trkpt lat="46.215304" lon="6.780844">
        <ele>1819.651</ele>
        <time>2018-07-04T15:08:27Z</time>
      </trkpt>
      <trkpt lat="46.215282" lon="6.780913">
        <ele>1819.401</ele>
        <time>2018-07-04T15:08:32Z</time>
      </trkpt>
      <trkpt lat="46.215264" lon="6.780987">
        <ele>1819.211</ele>
        <time>2018-07-04T15:08:37Z</time>
      </trkpt>
      <trkpt lat="46.215246" lon="6.781050">
        <ele>1818.908</ele>
        <time>2018-07-04T15:08:41Z</time>
      </trkpt>
      <trkpt lat="46.215227" lon="6.781109">
        <ele>1818.587</ele>
        <time>2018-07-04T15:08:45Z</time>
      </trkpt>
      <trkpt lat="46.215213" lon="6.781186">
        <ele>1818.313</ele>
        <time>2018-07-04T15:08:50Z</time>
      </trkpt>
      <trkpt lat="46.215201" lon="6.781250">
        <ele>1818.225</ele>
        <time>2018-07-04T15:08:54Z</time>
      </trkpt>
      <trkpt lat="46.215187" lon="6.781312">
        <ele>1817.971</ele>
        <time>2018-07-04T15:08:58Z</time>
      </trkpt>
      <trkpt lat="46.215172" lon="6.781384">
        <ele>1817.933</ele>
        <time>2018-07-04T15:09:03Z</time>
      </trkpt>
      <trkpt lat="46.215156" lon="6.781454">
        <ele>1817.760</ele>
        <time>2018-07-04T15:09:08Z</time>
      </trkpt>
      <trkpt lat="46.215149" lon="6.781529">
        <ele>1818.196</ele>
        <time>2018-07-04T15:09:13Z</time>
      </trkpt>
      <trkpt lat="46.215144" lon="6.781607">
        <ele>1818.761</ele>
        <time>2018-07-04T15:09:18Z</time>
      </trkpt>
      <trkpt lat="46.215145" lon="6.781676">
        <ele>1819.492</ele>
        <time>2018-07-04T15:09:22Z</time>
      </trkpt>
      <trkpt lat="46.215146" lon="6.781741">
        <ele>1820.173</ele>
        <time>2018-07-04T15:09:26Z</time>
      </trkpt>
      <trkpt lat="46.215147" lon="6.781808">
        <ele>1820.720</ele>
        <time>2018-07-04T15:09:30Z</time>
      </trkpt>
      <trkpt lat="46.215143" lon="6.781875">
        <ele>1821.108</ele>
        <time>2018-07-04T15:09:34Z</time>
      </trkpt>
      <trkpt lat="46.215133" lon="6.781940">
        <ele>1821.151</ele>
        <time>2018-07-04T15:09:38Z</time>
      </trkpt>
      <trkpt lat="46.215107" lon="6.782011">
        <ele>1820.647</ele>
        <time>2018-07-04T15:09:43Z</time>
      </trkpt>
      <trkpt lat="46.215083" lon="6.782068">
        <ele>1820.089</ele>
        <time>2018-07-04T15:09:47Z</time>
      </trkpt>
      <trkpt lat="46.215055" lon="6.782126">
        <ele>1819.365</ele>
        <time>2018-07-04T15:09:51Z</time>
      </trkpt>
      <trkpt lat="46.215028" lon="6.782184">
        <ele>1818.887</ele>
        <time>2018-07-04T15:09:55Z</time>
      </trkpt>
      <trkpt lat="46.215004" lon="6.782239">
        <ele>1818.534</ele>
        <time>2018-07-04T15:09:59Z</time>
      </trkpt>
      <trkpt lat="46.214976" lon="6.782299">
        <ele>1818.330</ele>
        <time>2018-07-04T15:10:03Z</time>
      </trkpt>
      <trkpt lat="46.214951" lon="6.782359">
        <ele>1818.365</ele>
        <time>2018-07-04T15:10:07Z</time>
      </trkpt>
      <trkpt lat="46.214928" lon="6.782421">
        <ele>1818.511</ele>
        <time>2018-07-04T15:10:11Z</time>
      </trkpt>
      <trkpt lat="46.214905" lon="6.782479">
        <ele>1818.521</ele>
        <time>2018-07-04T15:10:15Z</time>
      </trkpt>
      <trkpt lat="46.214889" lon="6.782542">
        <ele>1818.903</ele>
        <time>2018-07-04T15:10:19Z</time>
      </trkpt>
      <trkpt lat="46.214862" lon="6.782608">
        <ele>1819.008</ele>
        <time>2018-07-04T15:10:24Z</time>
      </trkpt>
      <trkpt lat="46.214833" lon="6.782675">
        <ele>1819.173</ele>
        <time>2018-07-04T15:10:29Z</time>
      </trkpt>
      <trkpt lat="46.214805" lon="6.782730">
        <ele>1819.149</ele>
        <time>2018-07-04T15:10:33Z</time>
      </trkpt>
      <trkpt lat="46.214773" lon="6.782791">
        <ele>1819.151</ele>
        <time>2018-07-04T15:10:38Z</time>
      </trkpt>
      <trkpt lat="46.214745" lon="6.782842">
        <ele>1819.097</ele>
        <time>2018-07-04T15:10:42Z</time>
      </trkpt>
      <trkpt lat="46.214712" lon="6.782890">
        <ele>1818.749</ele>
        <time>2018-07-04T15:10:46Z</time>
      </trkpt>
      <trkpt lat="46.214678" lon="6.782934">
        <ele>1818.696</ele>
        <time>2018-07-04T15:10:50Z</time>
      </trkpt>
      <trkpt lat="46.214640" lon="6.782989">
        <ele>1818.782</ele>
        <time>2018-07-04T15:10:55Z</time>
      </trkpt>
      <trkpt lat="46.214600" lon="6.783042">
        <ele>1818.757</ele>
        <time>2018-07-04T15:11:00Z</time>
      </trkpt>
      <trkpt lat="46.214561" lon="6.783095">
        <ele>1818.751</ele>
        <time>2018-07-04T15:11:05Z</time>
      </trkpt>
      <trkpt lat="46.214515" lon="6.783139">
        <ele>1818.501</ele>
        <time>2018-07-04T15:11:10Z</time>
      </trkpt>
      <trkpt lat="46.214474" lon="6.783191">
        <ele>1818.611</ele>
        <time>2018-07-04T15:11:15Z</time>
      </trkpt>
      <trkpt lat="46.214436" lon="6.783229">
        <ele>1818.508</ele>
        <time>2018-07-04T15:11:19Z</time>
      </trkpt>
      <trkpt lat="46.214396" lon="6.783268">
        <ele>1818.497</ele>
        <time>2018-07-04T15:11:23Z</time>
      </trkpt>
      <trkpt lat="46.214359" lon="6.783307">
        <ele>1818.373</ele>
        <time>2018-07-04T15:11:27Z</time>
      </trkpt>
      <trkpt lat="46.214314" lon="6.783352">
        <ele>1818.195</ele>
        <time>2018-07-04T15:11:32Z</time>
      </trkpt>
      <trkpt lat="46.214270" lon="6.783404">
        <ele>1818.451</ele>
        <time>2018-07-04T15:11:37Z</time>
      </trkpt>
      <trkpt lat="46.214233" lon="6.783444">
        <ele>1818.633</ele>
        <time>2018-07-04T15:11:41Z</time>
      </trkpt>
      <trkpt lat="46.214186" lon="6.783485">
        <ele>1818.760</ele>
        <time>2018-07-04T15:11:46Z</time>
      </trkpt>
      <trkpt lat="46.214144" lon="6.783515">
        <ele>1818.726</ele>
        <time>2018-07-04T15:11:50Z</time>
      </trkpt>
      <trkpt lat="46.214094" lon="6.783550">
        <ele>1818.431</ele>
        <time>2018-07-04T15:11:55Z</time>
      </trkpt>
      <trkpt lat="46.214053" lon="6.783585">
        <ele>1818.465</ele>
        <time>2018-07-04T15:11:59Z</time>
      </trkpt>
      <trkpt lat="46.214011" lon="6.783620">
        <ele>1818.368</ele>
        <time>2018-07-04T15:12:03Z</time>
      </trkpt>
      <trkpt lat="46.213973" lon="6.783660">
        <ele>1818.314</ele>
        <time>2018-07-04T15:12:07Z</time>
      </trkpt>
      <trkpt lat="46.213934" lon="6.783698">
        <ele>1818.308</ele>
        <time>2018-07-04T15:12:11Z</time>
      </trkpt>
      <trkpt lat="46.213896" lon="6.783741">
        <ele>1818.418</ele>
        <time>2018-07-04T15:12:15Z</time>
      </trkpt>
      <trkpt lat="46.213859" lon="6.783789">
        <ele>1818.954</ele>
        <time>2018-07-04T15:12:19Z</time>
      </trkpt>
      <trkpt lat="46.213822" lon="6.783836">
        <ele>1819.516</ele>
        <time>2018-07-04T15:12:23Z</time>
      </trkpt>
      <trkpt lat="46.213787" lon="6.783882">
        <ele>1820.042</ele>
        <time>2018-07-04T15:12:27Z</time>
      </trkpt>
      <trkpt lat="46.213750" lon="6.783936">
        <ele>1820.414</ele>
        <time>2018-07-04T15:12:31Z</time>
      </trkpt>
      <trkpt lat="46.213714" lon="6.783977">
        <ele>1820.621</ele>
        <time>2018-07-04T15:12:35Z</time>
      </trkpt>
      <trkpt lat="46.213678" lon="6.784024">
        <ele>1820.847</ele>
        <time>2018-07-04T15:12:39Z</time>
      </trkpt>
      <trkpt lat="46.213642" lon="6.784071">
        <ele>1820.952</ele>
        <time>2018-07-04T15:12:43Z</time>
      </trkpt>
      <trkpt lat="46.213603" lon="6.784108">
        <ele>1820.876</ele>
        <time>2018-07-04T15:12:47Z</time>
      </trkpt>
      <trkpt lat="46.213565" lon="6.784146">
        <ele>1820.690</ele>
        <time>2018-07-04T15:12:51Z</time>
      </trkpt>
      <trkpt lat="46.213521" lon="6.784181">
        <ele>1820.319</ele>
        <time>2018-07-04T15:12:55Z</time>
      </trkpt>
      <trkpt lat="46.213478" lon="6.784214">
        <ele>1820.108</ele>
        <time>2018-07-04T15:12:59Z</time>
      </trkpt>
      <trkpt lat="46.213438" lon="6.784250">
        <ele>1819.999</ele>
        <time>2018-07-04T15:13:03Z</time>
      </trkpt>
      <trkpt lat="46.213396" lon="6.784283">
        <ele>1819.845</ele>
        <time>2018-07-04T15:13:07Z</time>
      </trkpt>
      <trkpt lat="46.213354" lon="6.784322">
        <ele>1819.837</ele>
        <time>2018-07-04T15:13:11Z</time>
      </trkpt>
      <trkpt lat="46.213313" lon="6.784362">
        <ele>1819.783</ele>
        <time>2018-07-04T15:13:15Z</time>
      </trkpt>
      <trkpt lat="46.213270" lon="6.784398">
        <ele>1819.495</ele>
        <time>2018-07-04T15:13:19Z</time>
      </trkpt>
      <trkpt lat="46.213225" lon="6.784445">
        <ele>1819.722</ele>
        <time>2018-07-04T15:13:24Z</time>
      </trkpt>
      <trkpt lat="46.213187" lon="6.784492">
        <ele>1819.898</ele>
        <time>2018-07-04T15:13:28Z</time>
      </trkpt>
      <trkpt lat="46.213150" lon="6.784542">
        <ele>1820.183</ele>
        <time>2018-07-04T15:13:32Z</time>
      </trkpt>
      <trkpt lat="46.213112" lon="6.784586">
        <ele>1820.545</ele>
        <time>2018-07-04T15:13:36Z</time>
      </trkpt>
      <trkpt lat="46.213070" lon="6.784621">
        <ele>1820.747</ele>
        <time>2018-07-04T15:13:40Z</time>
      </trkpt>
      <trkpt lat="46.213021" lon="6.784662">
        <ele>1820.911</ele>
        <time>2018-07-04T15:14:41Z</time>
      </trkpt>
      <trkpt lat="46.212974" lon="6.784674">
        <ele>1820.508</ele>
        <time>2018-07-04T15:14:57Z</time>
      </trkpt>
      <trkpt lat="46.212929" lon="6.784678">
        <ele>1819.916</ele>
        <time>2018-07-04T15:15:01Z</time>
      </trkpt>
      <trkpt lat="46.212884" lon="6.784689">
        <ele>1819.582</ele>
        <time>2018-07-04T15:15:05Z</time>
      </trkpt>
      <trkpt lat="46.212840" lon="6.784715">
        <ele>1819.794</ele>
        <time>2018-07-04T15:15:09Z</time>
      </trkpt>
      <trkpt lat="46.212798" lon="6.784740">
        <ele>1819.690</ele>
        <time>2018-07-04T15:15:13Z</time>
      </trkpt>
      <trkpt lat="46.212746" lon="6.784768">
        <ele>1819.382</ele>
        <time>2018-07-04T15:15:18Z</time>
      </trkpt>
      <trkpt lat="46.212702" lon="6.784790">
        <ele>1818.919</ele>
        <time>2018-07-04T15:15:22Z</time>
      </trkpt>
      <trkpt lat="46.212659" lon="6.784812">
        <ele>1818.635</ele>
        <time>2018-07-04T15:15:26Z</time>
      </trkpt>
      <trkpt lat="46.212617" lon="6.784836">
        <ele>1818.490</ele>
        <time>2018-07-04T15:15:30Z</time>
      </trkpt>
      <trkpt lat="46.212574" lon="6.784860">
        <ele>1818.261</ele>
        <time>2018-07-04T15:15:34Z</time>
      </trkpt>
      <trkpt lat="46.212527" lon="6.784886">
        <ele>1818.021</ele>
        <time>2018-07-04T15:15:38Z</time>
      </trkpt>
      <trkpt lat="46.212485" lon="6.784916">
        <ele>1818.013</ele>
        <time>2018-07-04T15:15:42Z</time>
      </trkpt>
      <trkpt lat="46.212444" lon="6.784954">
        <ele>1818.208</ele>
        <time>2018-07-04T15:15:46Z</time>
      </trkpt>
      <trkpt lat="46.212396" lon="6.784986">
        <ele>1818.258</ele>
        <time>2018-07-04T15:15:50Z</time>
      </trkpt>
      <trkpt lat="46.212354" lon="6.785012">
        <ele>1818.154</ele>
        <time>2018-07-04T15:15:54Z</time>
      </trkpt>
      <trkpt lat="46.212313" lon="6.785045">
        <ele>1818.136</ele>
        <time>2018-07-04T15:15:58Z</time>
      </trkpt>
      <trkpt lat="46.212271" lon="6.785072">
        <ele>1818.042</ele>
        <time>2018-07-04T15:16:02Z</time>
      </trkpt>
      <trkpt lat="46.212231" lon="6.785101">
        <ele>1817.914</ele>
        <time>2018-07-04T15:16:06Z</time>
      </trkpt>
      <trkpt lat="46.212194" lon="6.785143">
        <ele>1818.121</ele>
        <time>2018-07-04T15:16:10Z</time>
      </trkpt>
      <trkpt lat="46.212154" lon="6.785200">
        <ele>1818.527</ele>
        <time>2018-07-04T15:16:15Z</time>
      </trkpt>
      <trkpt lat="46.212128" lon="6.785257">
        <ele>1819.222</ele>
        <time>2018-07-04T15:16:24Z</time>
      </trkpt>
      <trkpt lat="46.212089" lon="6.785300">
        <ele>1819.381</ele>
        <time>2018-07-04T15:16:29Z</time>
      </trkpt>
      <trkpt lat="46.212040" lon="6.785335">
        <ele>1819.061</ele>
        <time>2018-07-04T15:16:34Z</time>
      </trkpt>
      <trkpt lat="46.211994" lon="6.785349">
        <ele>1818.517</ele>
        <time>2018-07-04T15:16:38Z</time>
      </trkpt>
      <trkpt lat="46.211945" lon="6.785354">
        <ele>1817.808</ele>
        <time>2018-07-04T15:16:42Z</time>
      </trkpt>
      <trkpt lat="46.211897" lon="6.785368">
        <ele>1816.320</ele>
        <time>2018-07-04T15:16:46Z</time>
      </trkpt>
      <trkpt lat="46.211850" lon="6.785384">
        <ele>1814.916</ele>
        <time>2018-07-04T15:16:50Z</time>
      </trkpt>
      <trkpt lat="46.211809" lon="6.785418">
        <ele>1813.988</ele>
        <time>2018-07-04T15:16:54Z</time>
      </trkpt>
      <trkpt lat="46.211771" lon="6.785460">
        <ele>1813.114</ele>
        <time>2018-07-04T15:16:58Z</time>
      </trkpt>
      <trkpt lat="46.211740" lon="6.785513">
        <ele>1812.876</ele>
        <time>2018-07-04T15:17:02Z</time>
      </trkpt>
      <trkpt lat="46.211718" lon="6.785594">
        <ele>1813.163</ele>
        <time>2018-07-04T15:17:10Z</time>
      </trkpt>
      <trkpt lat="46.211699" lon="6.785665">
        <ele>1813.229</ele>
        <time>2018-07-04T15:17:16Z</time>
      </trkpt>
      <trkpt lat="46.211689" lon="6.785740">
        <ele>1813.734</ele>
        <time>2018-07-04T15:17:21Z</time>
      </trkpt>
      <trkpt lat="46.211682" lon="6.785806">
        <ele>1814.218</ele>
        <time>2018-07-04T15:17:25Z</time>
      </trkpt>
      <trkpt lat="46.211676" lon="6.785875">
        <ele>1814.598</ele>
        <time>2018-07-04T15:17:29Z</time>
      </trkpt>
      <trkpt lat="46.211668" lon="6.785946">
        <ele>1814.517</ele>
        <time>2018-07-04T15:17:33Z</time>
      </trkpt>
      <trkpt lat="46.211662" lon="6.786015">
        <ele>1814.408</ele>
        <time>2018-07-04T15:17:37Z</time>
      </trkpt>
      <trkpt lat="46.211653" lon="6.786082">
        <ele>1814.313</ele>
        <time>2018-07-04T15:17:41Z</time>
      </trkpt>
      <trkpt lat="46.211646" lon="6.786151">
        <ele>1814.319</ele>
        <time>2018-07-04T15:17:45Z</time>
      </trkpt>
      <trkpt lat="46.211633" lon="6.786222">
        <ele>1814.381</ele>
        <time>2018-07-04T15:17:49Z</time>
      </trkpt>
      <trkpt lat="46.211609" lon="6.786281">
        <ele>1813.777</ele>
        <time>2018-07-04T15:17:53Z</time>
      </trkpt>
      <trkpt lat="46.211584" lon="6.786343">
        <ele>1813.079</ele>
        <time>2018-07-04T15:17:57Z</time>
      </trkpt>
      <trkpt lat="46.211558" lon="6.786404">
        <ele>1812.576</ele>
        <time>2018-07-04T15:18:01Z</time>
      </trkpt>
      <trkpt lat="46.211530" lon="6.786475">
        <ele>1812.522</ele>
        <time>2018-07-04T15:18:06Z</time>
      </trkpt>
      <trkpt lat="46.211502" lon="6.786530">
        <ele>1812.387</ele>
        <time>2018-07-04T15:18:10Z</time>
      </trkpt>
      <trkpt lat="46.211467" lon="6.786577">
        <ele>1811.953</ele>
        <time>2018-07-04T15:18:14Z</time>
      </trkpt>
      <trkpt lat="46.211435" lon="6.786627">
        <ele>1811.704</ele>
        <time>2018-07-04T15:18:18Z</time>
      </trkpt>
      <trkpt lat="46.211401" lon="6.786679">
        <ele>1811.614</ele>
        <time>2018-07-04T15:18:22Z</time>
      </trkpt>
      <trkpt lat="46.211364" lon="6.786728">
        <ele>1811.208</ele>
        <time>2018-07-04T15:18:26Z</time>
      </trkpt>
      <trkpt lat="46.211330" lon="6.786775">
        <ele>1810.857</ele>
        <time>2018-07-04T15:18:30Z</time>
      </trkpt>
      <trkpt lat="46.211299" lon="6.786825">
        <ele>1810.743</ele>
        <time>2018-07-04T15:18:34Z</time>
      </trkpt>
      <trkpt lat="46.211264" lon="6.786872">
        <ele>1810.455</ele>
        <time>2018-07-04T15:18:38Z</time>
      </trkpt>
      <trkpt lat="46.211228" lon="6.786923">
        <ele>1810.331</ele>
        <time>2018-07-04T15:18:42Z</time>
      </trkpt>
      <trkpt lat="46.211195" lon="6.786976">
        <ele>1810.453</ele>
        <time>2018-07-04T15:18:46Z</time>
      </trkpt>
      <trkpt lat="46.211160" lon="6.787027">
        <ele>1810.520</ele>
        <time>2018-07-04T15:18:50Z</time>
      </trkpt>
      <trkpt lat="46.211125" lon="6.787071">
        <ele>1810.646</ele>
        <time>2018-07-04T15:18:54Z</time>
      </trkpt>
      <trkpt lat="46.211088" lon="6.787116">
        <ele>1810.741</ele>
        <time>2018-07-04T15:18:58Z</time>
      </trkpt>
      <trkpt lat="46.211049" lon="6.787149">
        <ele>1810.614</ele>
        <time>2018-07-04T15:19:02Z</time>
      </trkpt>
      <trkpt lat="46.211008" lon="6.787178">
        <ele>1810.554</ele>
        <time>2018-07-04T15:19:06Z</time>
      </trkpt>
      <trkpt lat="46.210962" lon="6.787202">
        <ele>1810.209</ele>
        <time>2018-07-04T15:19:10Z</time>
      </trkpt>
      <trkpt lat="46.210915" lon="6.787226">
        <ele>1809.908</ele>
        <time>2018-07-04T15:19:14Z</time>
      </trkpt>
      <trkpt lat="46.210866" lon="6.787260">
        <ele>1809.623</ele>
        <time>2018-07-04T15:19:19Z</time>
      </trkpt>
      <trkpt lat="46.210815" lon="6.787293">
        <ele>1809.499</ele>
        <time>2018-07-04T15:19:24Z</time>
      </trkpt>
      <trkpt lat="46.210769" lon="6.787327">
        <ele>1809.331</ele>
        <time>2018-07-04T15:19:29Z</time>
      </trkpt>
      <trkpt lat="46.210726" lon="6.787352">
        <ele>1809.037</ele>
        <time>2018-07-04T15:19:33Z</time>
      </trkpt>
      <trkpt lat="46.210684" lon="6.787387">
        <ele>1808.949</ele>
        <time>2018-07-04T15:19:37Z</time>
      </trkpt>
      <trkpt lat="46.210642" lon="6.787420">
        <ele>1808.926</ele>
        <time>2018-07-04T15:19:41Z</time>
      </trkpt>
      <trkpt lat="46.210602" lon="6.787453">
        <ele>1808.842</ele>
        <time>2018-07-04T15:19:45Z</time>
      </trkpt>
      <trkpt lat="46.210564" lon="6.787488">
        <ele>1808.927</ele>
        <time>2018-07-04T15:19:49Z</time>
      </trkpt>
      <trkpt lat="46.210525" lon="6.787524">
        <ele>1808.987</ele>
        <time>2018-07-04T15:19:53Z</time>
      </trkpt>
      <trkpt lat="46.210480" lon="6.787564">
        <ele>1808.942</ele>
        <time>2018-07-04T15:20:04Z</time>
      </trkpt>
      <trkpt lat="46.210436" lon="6.787606">
        <ele>1808.926</ele>
        <time>2018-07-04T15:20:09Z</time>
      </trkpt>
      <trkpt lat="46.210394" lon="6.787642">
        <ele>1808.808</ele>
        <time>2018-07-04T15:20:13Z</time>
      </trkpt>
      <trkpt lat="46.210353" lon="6.787680">
        <ele>1808.780</ele>
        <time>2018-07-04T15:20:17Z</time>
      </trkpt>
      <trkpt lat="46.210316" lon="6.787717">
        <ele>1808.686</ele>
        <time>2018-07-04T15:20:21Z</time>
      </trkpt>
      <trkpt lat="46.210275" lon="6.787749">
        <ele>1808.328</ele>
        <time>2018-07-04T15:20:25Z</time>
      </trkpt>
      <trkpt lat="46.210230" lon="6.787781">
        <ele>1808.054</ele>
        <time>2018-07-04T15:20:29Z</time>
      </trkpt>
      <trkpt lat="46.210182" lon="6.787814">
        <ele>1807.786</ele>
        <time>2018-07-04T15:20:33Z</time>
      </trkpt>
      <trkpt lat="46.210137" lon="6.787846">
        <ele>1807.363</ele>
        <time>2018-07-04T15:20:37Z</time>
      </trkpt>
      <trkpt lat="46.210096" lon="6.787883">
        <ele>1807.179</ele>
        <time>2018-07-04T15:20:41Z</time>
      </trkpt>
      <trkpt lat="46.210053" lon="6.787914">
        <ele>1806.724</ele>
        <time>2018-07-04T15:20:45Z</time>
      </trkpt>
      <trkpt lat="46.210011" lon="6.787950">
        <ele>1806.429</ele>
        <time>2018-07-04T15:20:49Z</time>
      </trkpt>
      <trkpt lat="46.209968" lon="6.787990">
        <ele>1805.900</ele>
        <time>2018-07-04T15:20:53Z</time>
      </trkpt>
      <trkpt lat="46.209929" lon="6.788033">
        <ele>1805.520</ele>
        <time>2018-07-04T15:20:57Z</time>
      </trkpt>
      <trkpt lat="46.209885" lon="6.788071">
        <ele>1805.008</ele>
        <time>2018-07-04T15:21:01Z</time>
      </trkpt>
      <trkpt lat="46.209844" lon="6.788111">
        <ele>1804.614</ele>
        <time>2018-07-04T15:21:05Z</time>
      </trkpt>
      <trkpt lat="46.209806" lon="6.788156">
        <ele>1804.570</ele>
        <time>2018-07-04T15:21:09Z</time>
      </trkpt>
      <trkpt lat="46.209768" lon="6.788200">
        <ele>1804.462</ele>
        <time>2018-07-04T15:21:13Z</time>
      </trkpt>
      <trkpt lat="46.209736" lon="6.788249">
        <ele>1804.528</ele>
        <time>2018-07-04T15:21:17Z</time>
      </trkpt>
      <trkpt lat="46.209692" lon="6.788290">
        <ele>1805.150</ele>
        <time>2018-07-04T15:21:22Z</time>
      </trkpt>
      <trkpt lat="46.209648" lon="6.788313">
        <ele>1805.817</ele>
        <time>2018-07-04T15:21:27Z</time>
      </trkpt>
      <trkpt lat="46.209594" lon="6.788323">
        <ele>1806.273</ele>
        <time>2018-07-04T15:21:32Z</time>
      </trkpt>
      <trkpt lat="46.209548" lon="6.788316">
        <ele>1806.188</ele>
        <time>2018-07-04T15:21:36Z</time>
      </trkpt>
      <trkpt lat="46.209496" lon="6.788292">
        <ele>1805.628</ele>
        <time>2018-07-04T15:21:41Z</time>
      </trkpt>
      <trkpt lat="46.209447" lon="6.788254">
        <ele>1804.489</ele>
        <time>2018-07-04T15:21:46Z</time>
      </trkpt>
      <trkpt lat="46.209399" lon="6.788218">
        <ele>1804.417</ele>
        <time>2018-07-04T15:21:51Z</time>
      </trkpt>
      <trkpt lat="46.209356" lon="6.788181">
        <ele>1804.108</ele>
        <time>2018-07-04T15:21:55Z</time>
      </trkpt>
      <trkpt lat="46.209314" lon="6.788153">
        <ele>1804.054</ele>
        <time>2018-07-04T15:21:59Z</time>
      </trkpt>
      <trkpt lat="46.209270" lon="6.788128">
        <ele>1804.080</ele>
        <time>2018-07-04T15:22:03Z</time>
      </trkpt>
      <trkpt lat="46.209228" lon="6.788106">
        <ele>1804.042</ele>
        <time>2018-07-04T15:22:07Z</time>
      </trkpt>
      <trkpt lat="46.209183" lon="6.788088">
        <ele>1804.138</ele>
        <time>2018-07-04T15:22:11Z</time>
      </trkpt>
      <trkpt lat="46.209138" lon="6.788064">
        <ele>1803.990</ele>
        <time>2018-07-04T15:22:15Z</time>
      </trkpt>
      <trkpt lat="46.209093" lon="6.788045">
        <ele>1803.967</ele>
        <time>2018-07-04T15:22:19Z</time>
      </trkpt>
      <trkpt lat="46.209043" lon="6.788031">
        <ele>1804.343</ele>
        <time>2018-07-04T15:22:23Z</time>
      </trkpt>
      <trkpt lat="46.208995" lon="6.788022">
        <ele>1804.768</ele>
        <time>2018-07-04T15:22:27Z</time>
      </trkpt>
      <trkpt lat="46.208950" lon="6.788014">
        <ele>1805.224</ele>
        <time>2018-07-04T15:22:31Z</time>
      </trkpt>
      <trkpt lat="46.208905" lon="6.788006">
        <ele>1805.604</ele>
        <time>2018-07-04T15:22:35Z</time>
      </trkpt>
      <trkpt lat="46.208849" lon="6.788004">
        <ele>1805.514</ele>
        <time>2018-07-04T15:22:40Z</time>
      </trkpt>
      <trkpt lat="46.208794" lon="6.788016">
        <ele>1805.708</ele>
        <time>2018-07-04T15:22:45Z</time>
      </trkpt>
      <trkpt lat="46.208749" lon="6.788017">
        <ele>1805.444</ele>
        <time>2018-07-04T15:22:49Z</time>
      </trkpt>
      <trkpt lat="46.208702" lon="6.788017">
        <ele>1805.150</ele>
        <time>2018-07-04T15:22:53Z</time>
      </trkpt>
      <trkpt lat="46.208658" lon="6.788039">
        <ele>1805.742</ele>
        <time>2018-07-04T15:22:57Z</time>
      </trkpt>
      <trkpt lat="46.208613" lon="6.788050">
        <ele>1805.898</ele>
        <time>2018-07-04T15:23:01Z</time>
      </trkpt>
      <trkpt lat="46.208566" lon="6.788056">
        <ele>1805.430</ele>
        <time>2018-07-04T15:23:05Z</time>
      </trkpt>
      <trkpt lat="46.208517" lon="6.788067">
        <ele>1805.017</ele>
        <time>2018-07-04T15:23:09Z</time>
      </trkpt>
      <trkpt lat="46.208469" lon="6.788087">
        <ele>1804.873</ele>
        <time>2018-07-04T15:23:13Z</time>
      </trkpt>
      <trkpt lat="46.208425" lon="6.788110">
        <ele>1804.788</ele>
        <time>2018-07-04T15:23:17Z</time>
      </trkpt>
      <trkpt lat="46.208382" lon="6.788138">
        <ele>1804.668</ele>
        <time>2018-07-04T15:23:21Z</time>
      </trkpt>
      <trkpt lat="46.208338" lon="6.788167">
        <ele>1804.542</ele>
        <time>2018-07-04T15:23:25Z</time>
      </trkpt>
      <trkpt lat="46.208292" lon="6.788193">
        <ele>1804.826</ele>
        <time>2018-07-04T15:23:29Z</time>
      </trkpt>
      <trkpt lat="46.208248" lon="6.788216">
        <ele>1805.108</ele>
        <time>2018-07-04T15:23:33Z</time>
      </trkpt>
      <trkpt lat="46.208200" lon="6.788227">
        <ele>1805.198</ele>
        <time>2018-07-04T15:23:37Z</time>
      </trkpt>
      <trkpt lat="46.208154" lon="6.788225">
        <ele>1804.924</ele>
        <time>2018-07-04T15:23:41Z</time>
      </trkpt>
      <trkpt lat="46.208107" lon="6.788211">
        <ele>1804.446</ele>
        <time>2018-07-04T15:23:45Z</time>
      </trkpt>
      <trkpt lat="46.208064" lon="6.788189">
        <ele>1804.062</ele>
        <time>2018-07-04T15:23:49Z</time>
      </trkpt>
      <trkpt lat="46.208022" lon="6.788165">
        <ele>1803.544</ele>
        <time>2018-07-04T15:23:53Z</time>
      </trkpt>
      <trkpt lat="46.207977" lon="6.788145">
        <ele>1803.271</ele>
        <time>2018-07-04T15:23:57Z</time>
      </trkpt>
      <trkpt lat="46.207928" lon="6.788126">
        <ele>1802.987</ele>
        <time>2018-07-04T15:24:01Z</time>
      </trkpt>
      <trkpt lat="46.207882" lon="6.788117">
        <ele>1802.722</ele>
        <time>2018-07-04T15:24:05Z</time>
      </trkpt>
      <trkpt lat="46.207832" lon="6.788113">
        <ele>1802.769</ele>
        <time>2018-07-04T15:24:09Z</time>
      </trkpt>
      <trkpt lat="46.207779" lon="6.788105">
        <ele>1802.504</ele>
        <time>2018-07-04T15:24:14Z</time>
      </trkpt>
      <trkpt lat="46.207723" lon="6.788090">
        <ele>1802.424</ele>
        <time>2018-07-04T15:24:19Z</time>
      </trkpt>
      <trkpt lat="46.207676" lon="6.788073">
        <ele>1802.208</ele>
        <time>2018-07-04T15:24:23Z</time>
      </trkpt>
      <trkpt lat="46.207622" lon="6.788094">
        <ele>1802.418</ele>
        <time>2018-07-04T15:26:01Z</time>
      </trkpt>
      <trkpt lat="46.207577" lon="6.788123">
        <ele>1802.784</ele>
        <time>2018-07-04T15:26:12Z</time>
      </trkpt>
      <trkpt lat="46.207528" lon="6.788149">
        <ele>1803.096</ele>
        <time>2018-07-04T15:26:17Z</time>
      </trkpt>
      <trkpt lat="46.207484" lon="6.788171">
        <ele>1803.192</ele>
        <time>2018-07-04T15:26:21Z</time>
      </trkpt>
      <trkpt lat="46.207440" lon="6.788214">
        <ele>1803.224</ele>
        <time>2018-07-04T15:26:26Z</time>
      </trkpt>
      <trkpt lat="46.207414" lon="6.788268">
        <ele>1803.511</ele>
        <time>2018-07-04T15:26:31Z</time>
      </trkpt>
      <trkpt lat="46.207368" lon="6.788280">
        <ele>1803.297</ele>
        <time>2018-07-04T15:26:54Z</time>
      </trkpt>
      <trkpt lat="46.207326" lon="6.788307">
        <ele>1803.022</ele>
        <time>2018-07-04T15:27:00Z</time>
      </trkpt>
      <trkpt lat="46.207287" lon="6.788350">
        <ele>1802.896</ele>
        <time>2018-07-04T15:27:05Z</time>
      </trkpt>
      <trkpt lat="46.207249" lon="6.788389">
        <ele>1802.531</ele>
        <time>2018-07-04T15:27:10Z</time>
      </trkpt>
      <trkpt lat="46.207212" lon="6.788448">
        <ele>1802.224</ele>
        <time>2018-07-04T15:27:15Z</time>
      </trkpt>
      <trkpt lat="46.207183" lon="6.788515">
        <ele>1801.908</ele>
        <time>2018-07-04T15:27:20Z</time>
      </trkpt>
      <trkpt lat="46.207149" lon="6.788578">
        <ele>1801.571</ele>
        <time>2018-07-04T15:27:25Z</time>
      </trkpt>
      <trkpt lat="46.207126" lon="6.788639">
        <ele>1801.627</ele>
        <time>2018-07-04T15:27:30Z</time>
      </trkpt>
      <trkpt lat="46.207101" lon="6.788700">
        <ele>1801.829</ele>
        <time>2018-07-04T15:27:36Z</time>
      </trkpt>
      <trkpt lat="46.207077" lon="6.788761">
        <ele>1802.075</ele>
        <time>2018-07-04T15:27:42Z</time>
      </trkpt>
      <trkpt lat="46.207060" lon="6.788823">
        <ele>1802.467</ele>
        <time>2018-07-04T15:27:47Z</time>
      </trkpt>
      <trkpt lat="46.207040" lon="6.788884">
        <ele>1802.784</ele>
        <time>2018-07-04T15:27:52Z</time>
      </trkpt>
      <trkpt lat="46.207024" lon="6.788953">
        <ele>1803.120</ele>
        <time>2018-07-04T15:27:58Z</time>
      </trkpt>
      <trkpt lat="46.207012" lon="6.789016">
        <ele>1803.655</ele>
        <time>2018-07-04T15:28:03Z</time>
      </trkpt>
      <trkpt lat="46.207006" lon="6.789085">
        <ele>1804.276</ele>
        <time>2018-07-04T15:28:08Z</time>
      </trkpt>
      <trkpt lat="46.206991" lon="6.789157">
        <ele>1804.790</ele>
        <time>2018-07-04T15:28:14Z</time>
      </trkpt>
      <trkpt lat="46.206980" lon="6.789227">
        <ele>1805.319</ele>
        <time>2018-07-04T15:28:20Z</time>
      </trkpt>
      <trkpt lat="46.206976" lon="6.789298">
        <ele>1806.008</ele>
        <time>2018-07-04T15:28:26Z</time>
      </trkpt>
      <trkpt lat="46.206975" lon="6.789370">
        <ele>1806.899</ele>
        <time>2018-07-04T15:28:32Z</time>
      </trkpt>
      <trkpt lat="46.206961" lon="6.789435">
        <ele>1807.345</ele>
        <time>2018-07-04T15:28:42Z</time>
      </trkpt>
      <trkpt lat="46.206934" lon="6.789490">
        <ele>1807.837</ele>
        <time>2018-07-04T15:28:49Z</time>
      </trkpt>
      <trkpt lat="46.206907" lon="6.789550">
        <ele>1808.723</ele>
        <time>2018-07-04T15:28:55Z</time>
      </trkpt>
      <trkpt lat="46.206868" lon="6.789587">
        <ele>1809.265</ele>
        <time>2018-07-04T15:29:01Z</time>
      </trkpt>
      <trkpt lat="46.206824" lon="6.789601">
        <ele>1809.242</ele>
        <time>2018-07-04T15:29:07Z</time>
      </trkpt>
      <trkpt lat="46.206780" lon="6.789632">
        <ele>1809.648</ele>
        <time>2018-07-04T15:29:15Z</time>
      </trkpt>
      <trkpt lat="46.206754" lon="6.789691">
        <ele>1810.733</ele>
        <time>2018-07-04T15:29:25Z</time>
      </trkpt>
      <trkpt lat="46.206713" lon="6.789728">
        <ele>1811.388</ele>
        <time>2018-07-04T15:29:34Z</time>
      </trkpt>
      <trkpt lat="46.206680" lon="6.789776">
        <ele>1812.224</ele>
        <time>2018-07-04T15:29:44Z</time>
      </trkpt>
      <trkpt lat="46.206646" lon="6.789827">
        <ele>1813.326</ele>
        <time>2018-07-04T15:29:58Z</time>
      </trkpt>
      <trkpt lat="46.206608" lon="6.789872">
        <ele>1814.308</ele>
        <time>2018-07-04T15:30:06Z</time>
      </trkpt>
      <trkpt lat="46.206574" lon="6.789921">
        <ele>1815.430</ele>
        <time>2018-07-04T15:30:13Z</time>
      </trkpt>
      <trkpt lat="46.206538" lon="6.789964">
        <ele>1816.366</ele>
        <time>2018-07-04T15:30:20Z</time>
      </trkpt>
      <trkpt lat="46.206498" lon="6.789997">
        <ele>1816.978</ele>
        <time>2018-07-04T15:30:27Z</time>
      </trkpt>
      <trkpt lat="46.206464" lon="6.790046">
        <ele>1818.094</ele>
        <time>2018-07-04T15:30:34Z</time>
      </trkpt>
      <trkpt lat="46.206427" lon="6.790085">
        <ele>1818.876</ele>
        <time>2018-07-04T15:30:41Z</time>
      </trkpt>
      <trkpt lat="46.206386" lon="6.790118">
        <ele>1819.573</ele>
        <time>2018-07-04T15:30:49Z</time>
      </trkpt>
      <trkpt lat="46.206341" lon="6.790148">
        <ele>1820.089</ele>
        <time>2018-07-04T15:30:58Z</time>
      </trkpt>
      <trkpt lat="46.206299" lon="6.790183">
        <ele>1820.684</ele>
        <time>2018-07-04T15:31:06Z</time>
      </trkpt>
      <trkpt lat="46.206258" lon="6.790212">
        <ele>1821.156</ele>
        <time>2018-07-04T15:31:14Z</time>
      </trkpt>
      <trkpt lat="46.206220" lon="6.790255">
        <ele>1821.959</ele>
        <time>2018-07-04T15:31:23Z</time>
      </trkpt>
      <trkpt lat="46.206183" lon="6.790301">
        <ele>1822.714</ele>
        <time>2018-07-04T15:31:32Z</time>
      </trkpt>
      <trkpt lat="46.206140" lon="6.790343">
        <ele>1823.308</ele>
        <time>2018-07-04T15:31:40Z</time>
      </trkpt>
      <trkpt lat="46.206105" lon="6.790390">
        <ele>1823.997</ele>
        <time>2018-07-04T15:31:47Z</time>
      </trkpt>
      <trkpt lat="46.206077" lon="6.790447">
        <ele>1824.693</ele>
        <time>2018-07-04T15:31:54Z</time>
      </trkpt>
      <trkpt lat="46.206049" lon="6.790499">
        <ele>1825.375</ele>
        <time>2018-07-04T15:32:01Z</time>
      </trkpt>
      <trkpt lat="46.206020" lon="6.790558">
        <ele>1826.111</ele>
        <time>2018-07-04T15:32:08Z</time>
      </trkpt>
      <trkpt lat="46.205993" lon="6.790617">
        <ele>1826.873</ele>
        <time>2018-07-04T15:32:15Z</time>
      </trkpt>
      <trkpt lat="46.205962" lon="6.790673">
        <ele>1827.550</ele>
        <time>2018-07-04T15:32:23Z</time>
      </trkpt>
      <trkpt lat="46.205921" lon="6.790715">
        <ele>1827.886</ele>
        <time>2018-07-04T15:32:30Z</time>
      </trkpt>
      <trkpt lat="46.205891" lon="6.790764">
        <ele>1828.481</ele>
        <time>2018-07-04T15:32:37Z</time>
      </trkpt>
      <trkpt lat="46.205873" lon="6.790825">
        <ele>1829.364</ele>
        <time>2018-07-04T15:32:43Z</time>
      </trkpt>
      <trkpt lat="46.205853" lon="6.790888">
        <ele>1830.006</ele>
        <time>2018-07-04T15:32:49Z</time>
      </trkpt>
      <trkpt lat="46.205826" lon="6.790941">
        <ele>1830.416</ele>
        <time>2018-07-04T15:32:54Z</time>
      </trkpt>
      <trkpt lat="46.205802" lon="6.790998">
        <ele>1830.808</ele>
        <time>2018-07-04T15:32:59Z</time>
      </trkpt>
      <trkpt lat="46.205776" lon="6.791059">
        <ele>1831.318</ele>
        <time>2018-07-04T15:33:04Z</time>
      </trkpt>
      <trkpt lat="46.205748" lon="6.791118">
        <ele>1831.974</ele>
        <time>2018-07-04T15:33:09Z</time>
      </trkpt>
      <trkpt lat="46.205712" lon="6.791173">
        <ele>1832.366</ele>
        <time>2018-07-04T15:33:14Z</time>
      </trkpt>
      <trkpt lat="46.205668" lon="6.791206">
        <ele>1832.452</ele>
        <time>2018-07-04T15:33:19Z</time>
      </trkpt>
      <trkpt lat="46.205620" lon="6.791233">
        <ele>1832.464</ele>
        <time>2018-07-04T15:33:24Z</time>
      </trkpt>
      <trkpt lat="46.205574" lon="6.791262">
        <ele>1832.521</ele>
        <time>2018-07-04T15:33:29Z</time>
      </trkpt>
      <trkpt lat="46.205532" lon="6.791296">
        <ele>1832.537</ele>
        <time>2018-07-04T15:33:34Z</time>
      </trkpt>
      <trkpt lat="46.205488" lon="6.791328">
        <ele>1832.362</ele>
        <time>2018-07-04T15:33:39Z</time>
      </trkpt>
      <trkpt lat="46.205444" lon="6.791373">
        <ele>1832.374</ele>
        <time>2018-07-04T15:33:45Z</time>
      </trkpt>
      <trkpt lat="46.205408" lon="6.791418">
        <ele>1832.556</ele>
        <time>2018-07-04T15:33:51Z</time>
      </trkpt>
      <trkpt lat="46.205370" lon="6.791461">
        <ele>1832.721</ele>
        <time>2018-07-04T15:33:57Z</time>
      </trkpt>
      <trkpt lat="46.205325" lon="6.791495">
        <ele>1832.608</ele>
        <time>2018-07-04T15:34:03Z</time>
      </trkpt>
      <trkpt lat="46.205292" lon="6.791551">
        <ele>1833.419</ele>
        <time>2018-07-04T15:34:09Z</time>
      </trkpt>
      <trkpt lat="46.205259" lon="6.791596">
        <ele>1834.045</ele>
        <time>2018-07-04T15:34:14Z</time>
      </trkpt>
      <trkpt lat="46.205217" lon="6.791647">
        <ele>1834.937</ele>
        <time>2018-07-04T15:34:20Z</time>
      </trkpt>
      <trkpt lat="46.205172" lon="6.791684">
        <ele>1835.383</ele>
        <time>2018-07-04T15:34:25Z</time>
      </trkpt>
      <trkpt lat="46.205135" lon="6.791722">
        <ele>1835.925</ele>
        <time>2018-07-04T15:34:30Z</time>
      </trkpt>
      <trkpt lat="46.205090" lon="6.791758">
        <ele>1836.322</ele>
        <time>2018-07-04T15:34:36Z</time>
      </trkpt>
      <trkpt lat="46.205043" lon="6.791791">
        <ele>1836.638</ele>
        <time>2018-07-04T15:34:43Z</time>
      </trkpt>
      <trkpt lat="46.204998" lon="6.791818">
        <ele>1836.853</ele>
        <time>2018-07-04T15:34:49Z</time>
      </trkpt>
      <trkpt lat="46.204958" lon="6.791850">
        <ele>1837.836</ele>
        <time>2018-07-04T15:34:55Z</time>
      </trkpt>
      <trkpt lat="46.204914" lon="6.791882">
        <ele>1838.717</ele>
        <time>2018-07-04T15:35:02Z</time>
      </trkpt>
      <trkpt lat="46.204873" lon="6.791911">
        <ele>1839.618</ele>
        <time>2018-07-04T15:35:08Z</time>
      </trkpt>
      <trkpt lat="46.204825" lon="6.791921">
        <ele>1840.008</ele>
        <time>2018-07-04T15:35:17Z</time>
      </trkpt>
      <trkpt lat="46.204779" lon="6.791948">
        <ele>1840.975</ele>
        <time>2018-07-04T15:35:25Z</time>
      </trkpt>
      <trkpt lat="46.204731" lon="6.791957">
        <ele>1841.241</ele>
        <time>2018-07-04T15:35:38Z</time>
      </trkpt>
      <trkpt lat="46.204685" lon="6.791976">
        <ele>1841.813</ele>
        <time>2018-07-04T15:35:46Z</time>
      </trkpt>
      <trkpt lat="46.204665" lon="6.792040">
        <ele>1843.369</ele>
        <time>2018-07-04T15:35:54Z</time>
      </trkpt>
      <trkpt lat="46.204648" lon="6.792107">
        <ele>1844.851</ele>
        <time>2018-07-04T15:36:02Z</time>
      </trkpt>
      <trkpt lat="46.204612" lon="6.792154">
        <ele>1845.918</ele>
        <time>2018-07-04T15:36:12Z</time>
      </trkpt>
      <trkpt lat="46.204565" lon="6.792165">
        <ele>1846.324</ele>
        <time>2018-07-04T15:36:21Z</time>
      </trkpt>
      <trkpt lat="46.204516" lon="6.792173">
        <ele>1846.729</ele>
        <time>2018-07-04T15:36:29Z</time>
      </trkpt>
      <trkpt lat="46.204468" lon="6.792168">
        <ele>1846.792</ele>
        <time>2018-07-04T15:36:35Z</time>
      </trkpt>
      <trkpt lat="46.204420" lon="6.792152">
        <ele>1846.873</ele>
        <time>2018-07-04T15:36:42Z</time>
      </trkpt>
      <trkpt lat="46.204371" lon="6.792160">
        <ele>1847.720</ele>
        <time>2018-07-04T15:36:49Z</time>
      </trkpt>
      <trkpt lat="46.204321" lon="6.792177">
        <ele>1848.708</ele>
        <time>2018-07-04T15:36:57Z</time>
      </trkpt>
      <trkpt lat="46.204276" lon="6.792211">
        <ele>1850.231</ele>
        <time>2018-07-04T15:37:05Z</time>
      </trkpt>
      <trkpt lat="46.204225" lon="6.792229">
        <ele>1851.357</ele>
        <time>2018-07-04T15:37:12Z</time>
      </trkpt>
      <trkpt lat="46.204175" lon="6.792241">
        <ele>1852.369</ele>
        <time>2018-07-04T15:37:19Z</time>
      </trkpt>
      <trkpt lat="46.204132" lon="6.792263">
        <ele>1852.845</ele>
        <time>2018-07-04T15:37:27Z</time>
      </trkpt>
      <trkpt lat="46.204091" lon="6.792298">
        <ele>1853.427</ele>
        <time>2018-07-04T15:37:38Z</time>
      </trkpt>
      <trkpt lat="46.204049" lon="6.792341">
        <ele>1854.334</ele>
        <time>2018-07-04T15:37:45Z</time>
      </trkpt>
      <trkpt lat="46.204008" lon="6.792381">
        <ele>1855.210</ele>
        <time>2018-07-04T15:37:53Z</time>
      </trkpt>
      <trkpt lat="46.203959" lon="6.792393">
        <ele>1855.485</ele>
        <time>2018-07-04T15:37:59Z</time>
      </trkpt>
      <trkpt lat="46.203910" lon="6.792390">
        <ele>1855.328</ele>
        <time>2018-07-04T15:38:05Z</time>
      </trkpt>
      <trkpt lat="46.203864" lon="6.792388">
        <ele>1855.089</ele>
        <time>2018-07-04T15:38:10Z</time>
      </trkpt>
      <trkpt lat="46.203814" lon="6.792393">
        <ele>1854.817</ele>
        <time>2018-07-04T15:38:16Z</time>
      </trkpt>
      <trkpt lat="46.203767" lon="6.792413">
        <ele>1854.908</ele>
        <time>2018-07-04T15:38:22Z</time>
      </trkpt>
      <trkpt lat="46.203727" lon="6.792446">
        <ele>1855.594</ele>
        <time>2018-07-04T15:38:27Z</time>
      </trkpt>
      <trkpt lat="46.203686" lon="6.792475">
        <ele>1855.960</ele>
        <time>2018-07-04T15:38:32Z</time>
      </trkpt>
      <trkpt lat="46.203635" lon="6.792499">
        <ele>1856.152</ele>
        <time>2018-07-04T15:38:38Z</time>
      </trkpt>
      <trkpt lat="46.203588" lon="6.792481">
        <ele>1855.298</ele>
        <time>2018-07-04T15:38:43Z</time>
      </trkpt>
      <trkpt lat="46.203540" lon="6.792461">
        <ele>1854.130</ele>
        <time>2018-07-04T15:38:48Z</time>
      </trkpt>
      <trkpt lat="46.203490" lon="6.792457">
        <ele>1853.377</ele>
        <time>2018-07-04T15:38:53Z</time>
      </trkpt>
      <trkpt lat="46.203438" lon="6.792477">
        <ele>1853.053</ele>
        <time>2018-07-04T15:38:58Z</time>
      </trkpt>
      <trkpt lat="46.203398" lon="6.792509">
        <ele>1853.198</ele>
        <time>2018-07-04T15:39:02Z</time>
      </trkpt>
      <trkpt lat="46.203361" lon="6.792555">
        <ele>1853.483</ele>
        <time>2018-07-04T15:39:07Z</time>
      </trkpt>
      <trkpt lat="46.203331" lon="6.792604">
        <ele>1853.825</ele>
        <time>2018-07-04T15:39:12Z</time>
      </trkpt>
      <trkpt lat="46.203292" lon="6.792648">
        <ele>1853.317</ele>
        <time>2018-07-04T15:39:17Z</time>
      </trkpt>
      <trkpt lat="46.203258" lon="6.792698">
        <ele>1853.108</ele>
        <time>2018-07-04T15:39:22Z</time>
      </trkpt>
      <trkpt lat="46.203223" lon="6.792759">
        <ele>1853.120</ele>
        <time>2018-07-04T15:39:27Z</time>
      </trkpt>
      <trkpt lat="46.203185" lon="6.792799">
        <ele>1852.756</ele>
        <time>2018-07-04T15:39:32Z</time>
      </trkpt>
      <trkpt lat="46.203146" lon="6.792837">
        <ele>1852.428</ele>
        <time>2018-07-04T15:39:37Z</time>
      </trkpt>
      <trkpt lat="46.203113" lon="6.792890">
        <ele>1852.784</ele>
        <time>2018-07-04T15:39:42Z</time>
      </trkpt>
      <trkpt lat="46.203082" lon="6.792937">
        <ele>1852.976</ele>
        <time>2018-07-04T15:39:47Z</time>
      </trkpt>
      <trkpt lat="46.203044" lon="6.792986">
        <ele>1852.913</ele>
        <time>2018-07-04T15:39:52Z</time>
      </trkpt>
      <trkpt lat="46.203003" lon="6.793025">
        <ele>1852.579</ele>
        <time>2018-07-04T15:39:57Z</time>
      </trkpt>
      <trkpt lat="46.202962" lon="6.793070">
        <ele>1852.384</ele>
        <time>2018-07-04T15:40:02Z</time>
      </trkpt>
      <trkpt lat="46.202925" lon="6.793114">
        <ele>1852.252</ele>
        <time>2018-07-04T15:40:07Z</time>
      </trkpt>
      <trkpt lat="46.202884" lon="6.793153">
        <ele>1851.953</ele>
        <time>2018-07-04T15:40:12Z</time>
      </trkpt>
      <trkpt lat="46.202844" lon="6.793191">
        <ele>1851.608</ele>
        <time>2018-07-04T15:40:17Z</time>
      </trkpt>
      <trkpt lat="46.202807" lon="6.793229">
        <ele>1851.308</ele>
        <time>2018-07-04T15:40:22Z</time>
      </trkpt>
      <trkpt lat="46.202778" lon="6.793280">
        <ele>1851.787</ele>
        <time>2018-07-04T15:40:29Z</time>
      </trkpt>
      <trkpt lat="46.202741" lon="6.793317">
        <ele>1851.193</ele>
        <time>2018-07-04T15:40:35Z</time>
      </trkpt>
      <trkpt lat="46.202713" lon="6.793369">
        <ele>1851.595</ele>
        <time>2018-07-04T15:40:40Z</time>
      </trkpt>
      <trkpt lat="46.202683" lon="6.793423">
        <ele>1851.961</ele>
        <time>2018-07-04T15:40:45Z</time>
      </trkpt>
      <trkpt lat="46.202642" lon="6.793470">
        <ele>1851.823</ele>
        <time>2018-07-04T15:40:51Z</time>
      </trkpt>
      <trkpt lat="46.202607" lon="6.793515">
        <ele>1851.930</ele>
        <time>2018-07-04T15:40:57Z</time>
      </trkpt>
      <trkpt lat="46.202571" lon="6.793566">
        <ele>1852.156</ele>
        <time>2018-07-04T15:41:05Z</time>
      </trkpt>
      <trkpt lat="46.202541" lon="6.793616">
        <ele>1852.691</ele>
        <time>2018-07-04T15:41:12Z</time>
      </trkpt>
      <trkpt lat="46.202513" lon="6.793671">
        <ele>1853.283</ele>
        <time>2018-07-04T15:41:20Z</time>
      </trkpt>
      <trkpt lat="46.202485" lon="6.793727">
        <ele>1853.925</ele>
        <time>2018-07-04T15:41:27Z</time>
      </trkpt>
      <trkpt lat="46.202450" lon="6.793776">
        <ele>1854.117</ele>
        <time>2018-07-04T15:41:34Z</time>
      </trkpt>
      <trkpt lat="46.202416" lon="6.793829">
        <ele>1854.608</ele>
        <time>2018-07-04T15:41:41Z</time>
      </trkpt>
      <trkpt lat="46.202398" lon="6.793890">
        <ele>1855.740</ele>
        <time>2018-07-04T15:41:51Z</time>
      </trkpt>
      <trkpt lat="46.202375" lon="6.793954">
        <ele>1857.366</ele>
        <time>2018-07-04T15:42:01Z</time>
      </trkpt>
      <trkpt lat="46.202341" lon="6.794002">
        <ele>1857.958</ele>
        <time>2018-07-04T15:42:09Z</time>
      </trkpt>
      <trkpt lat="46.202303" lon="6.794052">
        <ele>1858.534</ele>
        <time>2018-07-04T15:42:17Z</time>
      </trkpt>
      <trkpt lat="46.202272" lon="6.794104">
        <ele>1859.466</ele>
        <time>2018-07-04T15:42:26Z</time>
      </trkpt>
      <trkpt lat="46.202241" lon="6.794160">
        <ele>1860.443</ele>
        <time>2018-07-04T15:42:38Z</time>
      </trkpt>
      <trkpt lat="46.202205" lon="6.794200">
        <ele>1860.639</ele>
        <time>2018-07-04T15:42:47Z</time>
      </trkpt>
      <trkpt lat="46.202177" lon="6.794254">
        <ele>1861.784</ele>
        <time>2018-07-04T15:42:54Z</time>
      </trkpt>
      <trkpt lat="46.202151" lon="6.794308">
        <ele>1862.868</ele>
        <time>2018-07-04T15:43:02Z</time>
      </trkpt>
      <trkpt lat="46.202125" lon="6.794363">
        <ele>1863.942</ele>
        <time>2018-07-04T15:43:14Z</time>
      </trkpt>
      <trkpt lat="46.202085" lon="6.794400">
        <ele>1864.126</ele>
        <time>2018-07-04T15:43:25Z</time>
      </trkpt>
      <trkpt lat="46.202048" lon="6.794442">
        <ele>1864.508</ele>
        <time>2018-07-04T15:43:31Z</time>
      </trkpt>
      <trkpt lat="46.202016" lon="6.794498">
        <ele>1865.428</ele>
        <time>2018-07-04T15:43:38Z</time>
      </trkpt>
      <trkpt lat="46.201976" lon="6.794557">
        <ele>1866.154</ele>
        <time>2018-07-04T15:43:48Z</time>
      </trkpt>
      <trkpt lat="46.201948" lon="6.794617">
        <ele>1867.126</ele>
        <time>2018-07-04T15:44:00Z</time>
      </trkpt>
      <trkpt lat="46.201929" lon="6.794678">
        <ele>1868.312</ele>
        <time>2018-07-04T15:44:09Z</time>
      </trkpt>
      <trkpt lat="46.201903" lon="6.794732">
        <ele>1869.174</ele>
        <time>2018-07-04T15:44:15Z</time>
      </trkpt>
      <trkpt lat="46.201875" lon="6.794793">
        <ele>1870.431</ele>
        <time>2018-07-04T15:44:24Z</time>
      </trkpt>
      <trkpt lat="46.201843" lon="6.794848">
        <ele>1871.397</ele>
        <time>2018-07-04T15:44:31Z</time>
      </trkpt>
      <trkpt lat="46.201821" lon="6.794911">
        <ele>1872.612</ele>
        <time>2018-07-04T15:44:38Z</time>
      </trkpt>
      <trkpt lat="46.201789" lon="6.794962">
        <ele>1873.294</ele>
        <time>2018-07-04T15:44:44Z</time>
      </trkpt>
      <trkpt lat="46.201745" lon="6.795003">
        <ele>1872.957</ele>
        <time>2018-07-04T15:44:50Z</time>
      </trkpt>
      <trkpt lat="46.201700" lon="6.795035">
        <ele>1872.422</ele>
        <time>2018-07-04T15:44:56Z</time>
      </trkpt>
      <trkpt lat="46.201661" lon="6.795077">
        <ele>1872.608</ele>
        <time>2018-07-04T15:45:02Z</time>
      </trkpt>
      <trkpt lat="46.201629" lon="6.795130">
        <ele>1873.551</ele>
        <time>2018-07-04T15:45:09Z</time>
      </trkpt>
      <trkpt lat="46.201601" lon="6.795190">
        <ele>1874.747</ele>
        <time>2018-07-04T15:45:17Z</time>
      </trkpt>
      <trkpt lat="46.201578" lon="6.795249">
        <ele>1876.179</ele>
        <time>2018-07-04T15:45:24Z</time>
      </trkpt>
      <trkpt lat="46.201550" lon="6.795306">
        <ele>1877.125</ele>
        <time>2018-07-04T15:45:32Z</time>
      </trkpt>
      <trkpt lat="46.201523" lon="6.795362">
        <ele>1877.927</ele>
        <time>2018-07-04T15:45:40Z</time>
      </trkpt>
      <trkpt lat="46.201503" lon="6.795421">
        <ele>1879.154</ele>
        <time>2018-07-04T15:45:49Z</time>
      </trkpt>
      <trkpt lat="46.201494" lon="6.795492">
        <ele>1881.140</ele>
        <time>2018-07-04T15:46:00Z</time>
      </trkpt>
      <trkpt lat="46.201479" lon="6.795554">
        <ele>1882.545</ele>
        <time>2018-07-04T15:46:08Z</time>
      </trkpt>
      <trkpt lat="46.201452" lon="6.795616">
        <ele>1883.373</ele>
        <time>2018-07-04T15:46:19Z</time>
      </trkpt>
      <trkpt lat="46.201420" lon="6.795666">
        <ele>1883.785</ele>
        <time>2018-07-04T15:46:27Z</time>
      </trkpt>
      <trkpt lat="46.201390" lon="6.795726">
        <ele>1884.313</ele>
        <time>2018-07-04T15:46:34Z</time>
      </trkpt>
      <trkpt lat="46.201362" lon="6.795779">
        <ele>1885.108</ele>
        <time>2018-07-04T15:46:40Z</time>
      </trkpt>
      <trkpt lat="46.201344" lon="6.795840">
        <ele>1886.399</ele>
        <time>2018-07-04T15:46:46Z</time>
      </trkpt>
      <trkpt lat="46.201312" lon="6.795894">
        <ele>1886.945</ele>
        <time>2018-07-04T15:46:53Z</time>
      </trkpt>
      <trkpt lat="46.201275" lon="6.795938">
        <ele>1887.317</ele>
        <time>2018-07-04T15:47:01Z</time>
      </trkpt>
      <trkpt lat="46.201235" lon="6.795974">
        <ele>1887.653</ele>
        <time>2018-07-04T15:47:09Z</time>
      </trkpt>
      <trkpt lat="46.201190" lon="6.795996">
        <ele>1887.685</ele>
        <time>2018-07-04T15:47:19Z</time>
      </trkpt>
      <trkpt lat="46.201148" lon="6.796026">
        <ele>1887.952</ele>
        <time>2018-07-04T15:47:28Z</time>
      </trkpt>
      <trkpt lat="46.201107" lon="6.796052">
        <ele>1888.378</ele>
        <time>2018-07-04T15:47:35Z</time>
      </trkpt>
      <trkpt lat="46.201067" lon="6.796087">
        <ele>1889.053</ele>
        <time>2018-07-04T15:47:43Z</time>
      </trkpt>
      <trkpt lat="46.201030" lon="6.796138">
        <ele>1890.266</ele>
        <time>2018-07-04T15:47:51Z</time>
      </trkpt>
      <trkpt lat="46.201005" lon="6.796202">
        <ele>1891.929</ele>
        <time>2018-07-04T15:47:58Z</time>
      </trkpt>
      <trkpt lat="46.200968" lon="6.796242">
        <ele>1892.721</ele>
        <time>2018-07-04T15:48:06Z</time>
      </trkpt>
      <trkpt lat="46.200922" lon="6.796243">
        <ele>1892.408</ele>
        <time>2018-07-04T15:48:14Z</time>
      </trkpt>
      <trkpt lat="46.200874" lon="6.796257">
        <ele>1892.588</ele>
        <time>2018-07-04T15:48:21Z</time>
      </trkpt>
      <trkpt lat="46.200838" lon="6.796308">
        <ele>1893.784</ele>
        <time>2018-07-04T15:48:30Z</time>
      </trkpt>
      <trkpt lat="46.200797" lon="6.796343">
        <ele>1895.046</ele>
        <time>2018-07-04T15:48:37Z</time>
      </trkpt>
      <trkpt lat="46.200752" lon="6.796367">
        <ele>1896.062</ele>
        <time>2018-07-04T15:48:44Z</time>
      </trkpt>
      <trkpt lat="46.200706" lon="6.796386">
        <ele>1896.884</ele>
        <time>2018-07-04T15:48:51Z</time>
      </trkpt>
      <trkpt lat="46.200665" lon="6.796425">
        <ele>1898.411</ele>
        <time>2018-07-04T15:48:58Z</time>
      </trkpt>
      <trkpt lat="46.200615" lon="6.796452">
        <ele>1899.717</ele>
        <time>2018-07-04T15:49:05Z</time>
      </trkpt>
      <trkpt lat="46.200567" lon="6.796454">
        <ele>1900.232</ele>
        <time>2018-07-04T15:49:14Z</time>
      </trkpt>
      <trkpt lat="46.200521" lon="6.796446">
        <ele>1900.544</ele>
        <time>2018-07-04T15:49:24Z</time>
      </trkpt>
      <trkpt lat="46.200474" lon="6.796428">
        <ele>1900.505</ele>
        <time>2018-07-04T15:49:32Z</time>
      </trkpt>
      <trkpt lat="46.200427" lon="6.796421">
        <ele>1900.815</ele>
        <time>2018-07-04T15:49:42Z</time>
      </trkpt>
      <trkpt lat="46.200380" lon="6.796420">
        <ele>1901.408</ele>
        <time>2018-07-04T15:49:51Z</time>
      </trkpt>
      <trkpt lat="46.200333" lon="6.796421">
        <ele>1902.176</ele>
        <time>2018-07-04T15:50:00Z</time>
      </trkpt>
      <trkpt lat="46.200284" lon="6.796431">
        <ele>1903.022</ele>
        <time>2018-07-04T15:50:10Z</time>
      </trkpt>
      <trkpt lat="46.200259" lon="6.796494">
        <ele>1904.544</ele>
        <time>2018-07-04T15:50:24Z</time>
      </trkpt>
      <trkpt lat="46.200253" lon="6.796559">
        <ele>1906.030</ele>
        <time>2018-07-04T15:50:31Z</time>
      </trkpt>
      <trkpt lat="46.200239" lon="6.796623">
        <ele>1907.492</ele>
        <time>2018-07-04T15:50:38Z</time>
      </trkpt>
      <trkpt lat="46.200212" lon="6.796680">
        <ele>1908.439</ele>
        <time>2018-07-04T15:50:46Z</time>
      </trkpt>
      <trkpt lat="46.200194" lon="6.796743">
        <ele>1909.765</ele>
        <time>2018-07-04T15:50:55Z</time>
      </trkpt>
      <trkpt lat="46.200165" lon="6.796794">
        <ele>1910.580</ele>
        <time>2018-07-04T15:51:02Z</time>
      </trkpt>
      <trkpt lat="46.200128" lon="6.796846">
        <ele>1911.033</ele>
        <time>2018-07-04T15:51:10Z</time>
      </trkpt>
      <trkpt lat="46.200106" lon="6.796906">
        <ele>1911.823</ele>
        <time>2018-07-04T15:51:16Z</time>
      </trkpt>
      <trkpt lat="46.200082" lon="6.796975">
        <ele>1912.815</ele>
        <time>2018-07-04T15:51:24Z</time>
      </trkpt>
      <trkpt lat="46.200060" lon="6.797032">
        <ele>1913.708</ele>
        <time>2018-07-04T15:51:31Z</time>
      </trkpt>
      <trkpt lat="46.200021" lon="6.797076">
        <ele>1913.895</ele>
        <time>2018-07-04T15:51:37Z</time>
      </trkpt>
      <trkpt lat="46.199991" lon="6.797130">
        <ele>1914.771</ele>
        <time>2018-07-04T15:51:47Z</time>
      </trkpt>
      <trkpt lat="46.199960" lon="6.797182">
        <ele>1916.093</ele>
        <time>2018-07-04T15:51:55Z</time>
      </trkpt>
      <trkpt lat="46.199924" lon="6.797232">
        <ele>1917.299</ele>
        <time>2018-07-04T15:52:02Z</time>
      </trkpt>
      <trkpt lat="46.199884" lon="6.797275">
        <ele>1917.991</ele>
        <time>2018-07-04T15:52:10Z</time>
      </trkpt>
      <trkpt lat="46.199840" lon="6.797310">
        <ele>1918.648</ele>
        <time>2018-07-04T15:52:17Z</time>
      </trkpt>
      <trkpt lat="46.199798" lon="6.797333">
        <ele>1919.284</ele>
        <time>2018-07-04T15:52:23Z</time>
      </trkpt>
      <trkpt lat="46.199750" lon="6.797352">
        <ele>1919.789</ele>
        <time>2018-07-04T15:52:31Z</time>
      </trkpt>
      <trkpt lat="46.199702" lon="6.797358">
        <ele>1920.533</ele>
        <time>2018-07-04T15:52:41Z</time>
      </trkpt>
      <trkpt lat="46.199732" lon="6.797420">
        <ele>1921.223</ele>
        <time>2018-07-04T15:52:54Z</time>
      </trkpt>
      <trkpt lat="46.199774" lon="6.797465">
        <ele>1921.915</ele>
        <time>2018-07-04T15:53:01Z</time>
      </trkpt>
      <trkpt lat="46.199754" lon="6.797531">
        <ele>1922.908</ele>
        <time>2018-07-04T15:53:12Z</time>
      </trkpt>
      <trkpt lat="46.199715" lon="6.797574">
        <ele>1923.475</ele>
        <time>2018-07-04T15:53:56Z</time>
      </trkpt>
      <trkpt lat="46.199669" lon="6.797585">
        <ele>1924.421</ele>
        <time>2018-07-04T15:54:03Z</time>
      </trkpt>
      <trkpt lat="46.199626" lon="6.797637">
        <ele>1925.433</ele>
        <time>2018-07-04T15:54:09Z</time>
      </trkpt>
      <trkpt lat="46.199580" lon="6.797675">
        <ele>1926.499</ele>
        <time>2018-07-04T15:54:19Z</time>
      </trkpt>
      <trkpt lat="46.199534" lon="6.797696">
        <ele>1927.311</ele>
        <time>2018-07-04T15:54:24Z</time>
      </trkpt>
      <trkpt lat="46.199486" lon="6.797709">
        <ele>1928.288</ele>
        <time>2018-07-04T15:54:29Z</time>
      </trkpt>
      <trkpt lat="46.199435" lon="6.797723">
        <ele>1929.294</ele>
        <time>2018-07-04T15:54:35Z</time>
      </trkpt>
      <trkpt lat="46.199394" lon="6.797752">
        <ele>1930.119</ele>
        <time>2018-07-04T15:54:40Z</time>
      </trkpt>
      <trkpt lat="46.199348" lon="6.797777">
        <ele>1931.168</ele>
        <time>2018-07-04T15:54:45Z</time>
      </trkpt>
      <trkpt lat="46.199304" lon="6.797795">
        <ele>1931.942</ele>
        <time>2018-07-04T15:54:50Z</time>
      </trkpt>
      <trkpt lat="46.199259" lon="6.797818">
        <ele>1932.726</ele>
        <time>2018-07-04T15:54:55Z</time>
      </trkpt>
      <trkpt lat="46.199215" lon="6.797844">
        <ele>1933.408</ele>
        <time>2018-07-04T15:55:00Z</time>
      </trkpt>
      <trkpt lat="46.199171" lon="6.797881">
        <ele>1933.858</ele>
        <time>2018-07-04T15:55:05Z</time>
      </trkpt>
      <trkpt lat="46.199129" lon="6.797924">
        <ele>1934.134</ele>
        <time>2018-07-04T15:55:10Z</time>
      </trkpt>
      <trkpt lat="46.199089" lon="6.797965">
        <ele>1934.436</ele>
        <time>2018-07-04T15:55:15Z</time>
      </trkpt>
      <trkpt lat="46.199044" lon="6.798002">
        <ele>1934.812</ele>
        <time>2018-07-04T15:55:21Z</time>
      </trkpt>
      <trkpt lat="46.199001" lon="6.798037">
        <ele>1935.214</ele>
        <time>2018-07-04T15:55:28Z</time>
      </trkpt>
      <trkpt lat="46.198966" lon="6.798094">
        <ele>1935.281</ele>
        <time>2018-07-04T15:55:34Z</time>
      </trkpt>
      <trkpt lat="46.198934" lon="6.798156">
        <ele>1935.267</ele>
        <time>2018-07-04T15:55:40Z</time>
      </trkpt>
      <trkpt lat="46.198907" lon="6.798225">
        <ele>1934.912</ele>
        <time>2018-07-04T15:55:46Z</time>
      </trkpt>
      <trkpt lat="46.198875" lon="6.798289">
        <ele>1934.782</ele>
        <time>2018-07-04T15:55:52Z</time>
      </trkpt>
      <trkpt lat="46.198844" lon="6.798349">
        <ele>1934.843</ele>
        <time>2018-07-04T15:55:57Z</time>
      </trkpt>
      <trkpt lat="46.198816" lon="6.798404">
        <ele>1935.417</ele>
        <time>2018-07-04T15:56:02Z</time>
      </trkpt>
      <trkpt lat="46.198790" lon="6.798464">
        <ele>1935.908</ele>
        <time>2018-07-04T15:56:10Z</time>
      </trkpt>
      <trkpt lat="46.198761" lon="6.798524">
        <ele>1936.410</ele>
        <time>2018-07-04T15:56:16Z</time>
      </trkpt>
      <trkpt lat="46.198738" lon="6.798594">
        <ele>1936.696</ele>
        <time>2018-07-04T15:56:22Z</time>
      </trkpt>
      <trkpt lat="46.198725" lon="6.798658">
        <ele>1937.098</ele>
        <time>2018-07-04T15:56:27Z</time>
      </trkpt>
      <trkpt lat="46.198704" lon="6.798728">
        <ele>1937.644</ele>
        <time>2018-07-04T15:56:33Z</time>
      </trkpt>
      <trkpt lat="46.198679" lon="6.798783">
        <ele>1938.036</ele>
        <time>2018-07-04T15:56:39Z</time>
      </trkpt>
      <trkpt lat="46.198660" lon="6.798849">
        <ele>1938.573</ele>
        <time>2018-07-04T15:56:46Z</time>
      </trkpt>
      <trkpt lat="46.198646" lon="6.798921">
        <ele>1938.969</ele>
        <time>2018-07-04T15:56:53Z</time>
      </trkpt>
      <trkpt lat="46.198629" lon="6.798991">
        <ele>1939.284</ele>
        <time>2018-07-04T15:57:00Z</time>
      </trkpt>
      <trkpt lat="46.198609" lon="6.799057">
        <ele>1939.658</ele>
        <time>2018-07-04T15:57:07Z</time>
      </trkpt>
      <trkpt lat="46.198589" lon="6.799125">
        <ele>1940.052</ele>
        <time>2018-07-04T15:57:16Z</time>
      </trkpt>
      <trkpt lat="46.198565" lon="6.799187">
        <ele>1940.517</ele>
        <time>2018-07-04T15:57:24Z</time>
      </trkpt>
      <trkpt lat="46.198556" lon="6.799257">
        <ele>1941.308</ele>
        <time>2018-07-04T15:57:32Z</time>
      </trkpt>
      <trkpt lat="46.198539" lon="6.799322">
        <ele>1942.177</ele>
        <time>2018-07-04T15:57:38Z</time>
      </trkpt>
      <trkpt lat="46.198516" lon="6.799385">
        <ele>1942.863</ele>
        <time>2018-07-04T15:57:44Z</time>
      </trkpt>
      <trkpt lat="46.198497" lon="6.799451">
        <ele>1943.565</ele>
        <time>2018-07-04T15:57:50Z</time>
      </trkpt>
      <trkpt lat="46.198479" lon="6.799521">
        <ele>1944.221</ele>
        <time>2018-07-04T15:57:56Z</time>
      </trkpt>
      <trkpt lat="46.198458" lon="6.799590">
        <ele>1944.883</ele>
        <time>2018-07-04T15:58:02Z</time>
      </trkpt>
      <trkpt lat="46.198432" lon="6.799652">
        <ele>1945.440</ele>
        <time>2018-07-04T15:58:08Z</time>
      </trkpt>
      <trkpt lat="46.198413" lon="6.799715">
        <ele>1945.926</ele>
        <time>2018-07-04T15:58:14Z</time>
      </trkpt>
      <trkpt lat="46.198391" lon="6.799779">
        <ele>1946.621</ele>
        <time>2018-07-04T15:58:21Z</time>
      </trkpt>
      <trkpt lat="46.198366" lon="6.799836">
        <ele>1947.225</ele>
        <time>2018-07-04T15:58:29Z</time>
      </trkpt>
      <trkpt lat="46.198343" lon="6.799900">
        <ele>1947.926</ele>
        <time>2018-07-04T15:58:37Z</time>
      </trkpt>
      <trkpt lat="46.198330" lon="6.799967">
        <ele>1948.608</ele>
        <time>2018-07-04T15:58:46Z</time>
      </trkpt>
      <trkpt lat="46.198317" lon="6.800030">
        <ele>1949.308</ele>
        <time>2018-07-04T15:58:56Z</time>
      </trkpt>
      <trkpt lat="46.198299" lon="6.800098">
        <ele>1949.934</ele>
        <time>2018-07-04T15:59:04Z</time>
      </trkpt>
      <trkpt lat="46.198274" lon="6.800160">
        <ele>1950.420</ele>
        <time>2018-07-04T15:59:11Z</time>
      </trkpt>
      <trkpt lat="46.198242" lon="6.800219">
        <ele>1950.872</ele>
        <time>2018-07-04T15:59:18Z</time>
      </trkpt>
      <trkpt lat="46.198216" lon="6.800287">
        <ele>1951.338</ele>
        <time>2018-07-04T15:59:24Z</time>
      </trkpt>
      <trkpt lat="46.198189" lon="6.800345">
        <ele>1951.840</ele>
        <time>2018-07-04T15:59:29Z</time>
      </trkpt>
      <trkpt lat="46.198155" lon="6.800389">
        <ele>1952.167</ele>
        <time>2018-07-04T15:59:34Z</time>
      </trkpt>
      <trkpt lat="46.198113" lon="6.800435">
        <ele>1952.283</ele>
        <time>2018-07-04T15:59:40Z</time>
      </trkpt>
      <trkpt lat="46.198079" lon="6.800482">
        <ele>1952.468</ele>
        <time>2018-07-04T15:59:45Z</time>
      </trkpt>
      <trkpt lat="46.198049" lon="6.800531">
        <ele>1952.632</ele>
        <time>2018-07-04T15:59:50Z</time>
      </trkpt>
      <trkpt lat="46.198016" lon="6.800587">
        <ele>1952.592</ele>
        <time>2018-07-04T15:59:55Z</time>
      </trkpt>
      <trkpt lat="46.197997" lon="6.800649">
        <ele>1952.711</ele>
        <time>2018-07-04T16:00:00Z</time>
      </trkpt>
      <trkpt lat="46.197991" lon="6.800714">
        <ele>1953.208</ele>
        <time>2018-07-04T16:00:05Z</time>
      </trkpt>
      <trkpt lat="46.197983" lon="6.800778">
        <ele>1953.625</ele>
        <time>2018-07-04T16:00:10Z</time>
      </trkpt>
      <trkpt lat="46.197975" lon="6.800855">
        <ele>1954.121</ele>
        <time>2018-07-04T16:00:16Z</time>
      </trkpt>
      <trkpt lat="46.197975" lon="6.800923">
        <ele>1954.583</ele>
        <time>2018-07-04T16:00:21Z</time>
      </trkpt>
      <trkpt lat="46.197970" lon="6.800999">
        <ele>1954.979</ele>
        <time>2018-07-04T16:00:27Z</time>
      </trkpt>
      <trkpt lat="46.197981" lon="6.801073">
        <ele>1955.691</ele>
        <time>2018-07-04T16:00:33Z</time>
      </trkpt>
      <trkpt lat="46.198000" lon="6.801135">
        <ele>1956.478</ele>
        <time>2018-07-04T16:00:38Z</time>
      </trkpt>
      <trkpt lat="46.198020" lon="6.801196">
        <ele>1957.044</ele>
        <time>2018-07-04T16:00:43Z</time>
      </trkpt>
      <trkpt lat="46.198032" lon="6.801267">
        <ele>1957.459</ele>
        <time>2018-07-04T16:00:48Z</time>
      </trkpt>
      <trkpt lat="46.198025" lon="6.801340">
        <ele>1957.261</ele>
        <time>2018-07-04T16:00:54Z</time>
      </trkpt>
      <trkpt lat="46.197998" lon="6.801401">
        <ele>1956.721</ele>
        <time>2018-07-04T16:01:01Z</time>
      </trkpt>
      <trkpt lat="46.197972" lon="6.801454">
        <ele>1956.513</ele>
        <time>2018-07-04T16:01:08Z</time>
      </trkpt>
      <trkpt lat="46.197951" lon="6.801520">
        <ele>1956.608</ele>
        <time>2018-07-04T16:01:16Z</time>
      </trkpt>
      <trkpt lat="46.197937" lon="6.801589">
        <ele>1956.978</ele>
        <time>2018-07-04T16:01:24Z</time>
      </trkpt>
      <trkpt lat="46.197929" lon="6.801655">
        <ele>1957.214</ele>
        <time>2018-07-04T16:01:31Z</time>
      </trkpt>
      <trkpt lat="46.197932" lon="6.801729">
        <ele>1958.176</ele>
        <time>2018-07-04T16:01:39Z</time>
      </trkpt>
      <trkpt lat="46.197945" lon="6.801797">
        <ele>1959.222</ele>
        <time>2018-07-04T16:01:45Z</time>
      </trkpt>
      <trkpt lat="46.197938" lon="6.801866">
        <ele>1959.844</ele>
        <time>2018-07-04T16:01:52Z</time>
      </trkpt>
      <trkpt lat="46.197917" lon="6.801929">
        <ele>1959.851</ele>
        <time>2018-07-04T16:01:59Z</time>
      </trkpt>
      <trkpt lat="46.197920" lon="6.801999">
        <ele>1960.797</ele>
        <time>2018-07-04T16:02:06Z</time>
      </trkpt>
      <trkpt lat="46.197914" lon="6.802067">
        <ele>1961.362</ele>
        <time>2018-07-04T16:02:13Z</time>
      </trkpt>
      <trkpt lat="46.197907" lon="6.802143">
        <ele>1961.996</ele>
        <time>2018-07-04T16:02:20Z</time>
      </trkpt>
      <trkpt lat="46.197899" lon="6.802217">
        <ele>1962.631</ele>
        <time>2018-07-04T16:02:28Z</time>
      </trkpt>
      <trkpt lat="46.197899" lon="6.802289">
        <ele>1963.624</ele>
        <time>2018-07-04T16:02:36Z</time>
      </trkpt>
      <trkpt lat="46.197897" lon="6.802355">
        <ele>1964.508</ele>
        <time>2018-07-04T16:02:43Z</time>
      </trkpt>
      <trkpt lat="46.197885" lon="6.802423">
        <ele>1965.291</ele>
        <time>2018-07-04T16:02:49Z</time>
      </trkpt>
      <trkpt lat="46.197862" lon="6.802488">
        <ele>1965.637</ele>
        <time>2018-07-04T16:02:55Z</time>
      </trkpt>
      <trkpt lat="46.197837" lon="6.802551">
        <ele>1966.059</ele>
        <time>2018-07-04T16:03:02Z</time>
      </trkpt>
      <trkpt lat="46.197806" lon="6.802604">
        <ele>1966.195</ele>
        <time>2018-07-04T16:03:09Z</time>
      </trkpt>
      <trkpt lat="46.197771" lon="6.802653">
        <ele>1966.097</ele>
        <time>2018-07-04T16:03:16Z</time>
      </trkpt>
      <trkpt lat="46.197731" lon="6.802689">
        <ele>1965.544</ele>
        <time>2018-07-04T16:03:24Z</time>
      </trkpt>
      <trkpt lat="46.197699" lon="6.802745">
        <ele>1965.560</ele>
        <time>2018-07-04T16:03:31Z</time>
      </trkpt>
      <trkpt lat="46.197684" lon="6.802813">
        <ele>1966.495</ele>
        <time>2018-07-04T16:03:39Z</time>
      </trkpt>
      <trkpt lat="46.197667" lon="6.802881">
        <ele>1967.415</ele>
        <time>2018-07-04T16:03:46Z</time>
      </trkpt>
      <trkpt lat="46.197640" lon="6.802935">
        <ele>1967.965</ele>
        <time>2018-07-04T16:03:53Z</time>
      </trkpt>
      <trkpt lat="46.197611" lon="6.802987">
        <ele>1968.511</ele>
        <time>2018-07-04T16:04:00Z</time>
      </trkpt>
      <trkpt lat="46.197590" lon="6.803053">
        <ele>1969.608</ele>
        <time>2018-07-04T16:04:08Z</time>
      </trkpt>
      <trkpt lat="46.197576" lon="6.803123">
        <ele>1970.623</ele>
        <time>2018-07-04T16:04:15Z</time>
      </trkpt>
      <trkpt lat="46.197549" lon="6.803184">
        <ele>1971.239</ele>
        <time>2018-07-04T16:04:23Z</time>
      </trkpt>
      <trkpt lat="46.197524" lon="6.803249">
        <ele>1971.911</ele>
        <time>2018-07-04T16:04:30Z</time>
      </trkpt>
      <trkpt lat="46.197504" lon="6.803308">
        <ele>1972.627</ele>
        <time>2018-07-04T16:04:36Z</time>
      </trkpt>
      <trkpt lat="46.197477" lon="6.803371">
        <ele>1973.149</ele>
        <time>2018-07-04T16:04:43Z</time>
      </trkpt>
      <trkpt lat="46.197457" lon="6.803433">
        <ele>1973.746</ele>
        <time>2018-07-04T16:04:49Z</time>
      </trkpt>
      <trkpt lat="46.197432" lon="6.803499">
        <ele>1974.262</ele>
        <time>2018-07-04T16:04:55Z</time>
      </trkpt>
      <trkpt lat="46.197415" lon="6.803567">
        <ele>1974.887</ele>
        <time>2018-07-04T16:05:01Z</time>
      </trkpt>
      <trkpt lat="46.197402" lon="6.803632">
        <ele>1975.579</ele>
        <time>2018-07-04T16:05:07Z</time>
      </trkpt>
      <trkpt lat="46.197382" lon="6.803693">
        <ele>1975.905</ele>
        <time>2018-07-04T16:05:13Z</time>
      </trkpt>
      <trkpt lat="46.197360" lon="6.803754">
        <ele>1976.325</ele>
        <time>2018-07-04T16:05:20Z</time>
      </trkpt>
      <trkpt lat="46.197343" lon="6.803819">
        <ele>1976.808</ele>
        <time>2018-07-04T16:05:26Z</time>
      </trkpt>
      <trkpt lat="46.197327" lon="6.803886">
        <ele>1977.569</ele>
        <time>2018-07-04T16:05:32Z</time>
      </trkpt>
      <trkpt lat="46.197308" lon="6.803947">
        <ele>1978.265</ele>
        <time>2018-07-04T16:05:39Z</time>
      </trkpt>
      <trkpt lat="46.197288" lon="6.804008">
        <ele>1979.057</ele>
        <time>2018-07-04T16:05:47Z</time>
      </trkpt>
      <trkpt lat="46.197254" lon="6.804061">
        <ele>1979.553</ele>
        <time>2018-07-04T16:05:55Z</time>
      </trkpt>
      <trkpt lat="46.197223" lon="6.804118">
        <ele>1980.125</ele>
        <time>2018-07-04T16:06:03Z</time>
      </trkpt>
      <trkpt lat="46.197193" lon="6.804175">
        <ele>1980.862</ele>
        <time>2018-07-04T16:06:12Z</time>
      </trkpt>
      <trkpt lat="46.197171" lon="6.804234">
        <ele>1981.728</ele>
        <time>2018-07-04T16:06:21Z</time>
      </trkpt>
      <trkpt lat="46.197142" lon="6.804298">
        <ele>1982.623</ele>
        <time>2018-07-04T16:06:29Z</time>
      </trkpt>
      <trkpt lat="46.197118" lon="6.804358">
        <ele>1983.642</ele>
        <time>2018-07-04T16:06:36Z</time>
      </trkpt>
      <trkpt lat="46.197095" lon="6.804416">
        <ele>1984.522</ele>
        <time>2018-07-04T16:06:46Z</time>
      </trkpt>
      <trkpt lat="46.197084" lon="6.804483">
        <ele>1985.614</ele>
        <time>2018-07-04T16:06:57Z</time>
      </trkpt>
      <trkpt lat="46.197064" lon="6.804546">
        <ele>1986.508</ele>
        <time>2018-07-04T16:07:07Z</time>
      </trkpt>
      <trkpt lat="46.197052" lon="6.804612">
        <ele>1987.656</ele>
        <time>2018-07-04T16:07:16Z</time>
      </trkpt>
      <trkpt lat="46.197043" lon="6.804686">
        <ele>1988.792</ele>
        <time>2018-07-04T16:07:24Z</time>
      </trkpt>
      <trkpt lat="46.197025" lon="6.804755">
        <ele>1989.584</ele>
        <time>2018-07-04T16:07:32Z</time>
      </trkpt>
      <trkpt lat="46.196992" lon="6.804816">
        <ele>1989.880</ele>
        <time>2018-07-04T16:07:38Z</time>
      </trkpt>
      <trkpt lat="46.196975" lon="6.804890">
        <ele>1990.362</ele>
        <time>2018-07-04T16:07:44Z</time>
      </trkpt>
      <trkpt lat="46.196961" lon="6.804960">
        <ele>1990.899</ele>
        <time>2018-07-04T16:07:49Z</time>
      </trkpt>
      <trkpt lat="46.196943" lon="6.805035">
        <ele>1991.285</ele>
        <time>2018-07-04T16:07:54Z</time>
      </trkpt>
      <trkpt lat="46.196936" lon="6.805111">
        <ele>1991.610</ele>
        <time>2018-07-04T16:07:59Z</time>
      </trkpt>
      <trkpt lat="46.196910" lon="6.805179">
        <ele>1991.656</ele>
        <time>2018-07-04T16:08:04Z</time>
      </trkpt>
      <trkpt lat="46.196879" lon="6.805243">
        <ele>1991.559</ele>
        <time>2018-07-04T16:08:09Z</time>
      </trkpt>
      <trkpt lat="46.196855" lon="6.805312">
        <ele>1991.614</ele>
        <time>2018-07-04T16:08:14Z</time>
      </trkpt>
      <trkpt lat="46.196842" lon="6.805386">
        <ele>1991.808</ele>
        <time>2018-07-04T16:08:19Z</time>
      </trkpt>
      <trkpt lat="46.196824" lon="6.805455">
        <ele>1992.087</ele>
        <time>2018-07-04T16:08:24Z</time>
      </trkpt>
      <trkpt lat="46.196801" lon="6.805519">
        <ele>1992.283</ele>
        <time>2018-07-04T16:08:29Z</time>
      </trkpt>
      <trkpt lat="46.196783" lon="6.805581">
        <ele>1992.475</ele>
        <time>2018-07-04T16:08:34Z</time>
      </trkpt>
      <trkpt lat="46.196767" lon="6.805645">
        <ele>1992.631</ele>
        <time>2018-07-04T16:08:47Z</time>
      </trkpt>
      <trkpt lat="46.196753" lon="6.805710">
        <ele>1992.923</ele>
        <time>2018-07-04T16:09:38Z</time>
      </trkpt>
      <trkpt lat="46.196735" lon="6.805778">
        <ele>1993.130</ele>
        <time>2018-07-04T16:09:43Z</time>
      </trkpt>
      <trkpt lat="46.196717" lon="6.805854">
        <ele>1993.376</ele>
        <time>2018-07-04T16:09:48Z</time>
      </trkpt>
      <trkpt lat="46.196702" lon="6.805916">
        <ele>1992.931</ele>
        <time>2018-07-04T16:09:52Z</time>
      </trkpt>
      <trkpt lat="46.196693" lon="6.805981">
        <ele>1992.631</ele>
        <time>2018-07-04T16:09:56Z</time>
      </trkpt>
      <trkpt lat="46.196690" lon="6.806051">
        <ele>1992.361</ele>
        <time>2018-07-04T16:10:00Z</time>
      </trkpt>
      <trkpt lat="46.196688" lon="6.806116">
        <ele>1992.007</ele>
        <time>2018-07-04T16:10:04Z</time>
      </trkpt>
      <trkpt lat="46.196678" lon="6.806182">
        <ele>1991.708</ele>
        <time>2018-07-04T16:10:08Z</time>
      </trkpt>
      <trkpt lat="46.196657" lon="6.806244">
        <ele>1991.695</ele>
        <time>2018-07-04T16:10:12Z</time>
      </trkpt>
      <trkpt lat="46.196638" lon="6.806308">
        <ele>1991.521</ele>
        <time>2018-07-04T16:10:16Z</time>
      </trkpt>
      <trkpt lat="46.196625" lon="6.806371">
        <ele>1991.533</ele>
        <time>2018-07-04T16:10:20Z</time>
      </trkpt>
      <trkpt lat="46.196604" lon="6.806440">
        <ele>1991.589</ele>
        <time>2018-07-04T16:10:25Z</time>
      </trkpt>
      <trkpt lat="46.196583" lon="6.806500">
        <ele>1991.521</ele>
        <time>2018-07-04T16:10:29Z</time>
      </trkpt>
      <trkpt lat="46.196563" lon="6.806574">
        <ele>1991.578</ele>
        <time>2018-07-04T16:10:34Z</time>
      </trkpt>
      <trkpt lat="46.196555" lon="6.806650">
        <ele>1991.384</ele>
        <time>2018-07-04T16:10:39Z</time>
      </trkpt>
      <trkpt lat="46.196555" lon="6.806729">
        <ele>1991.249</ele>
        <time>2018-07-04T16:10:44Z</time>
      </trkpt>
      <trkpt lat="46.196560" lon="6.806805">
        <ele>1991.283</ele>
        <time>2018-07-04T16:10:49Z</time>
      </trkpt>
      <trkpt lat="46.196575" lon="6.806867">
        <ele>1991.025</ele>
        <time>2018-07-04T16:10:53Z</time>
      </trkpt>
      <trkpt lat="46.196594" lon="6.806927">
        <ele>1990.817</ele>
        <time>2018-07-04T16:10:57Z</time>
      </trkpt>
      <trkpt lat="46.196605" lon="6.807004">
        <ele>1990.708</ele>
        <time>2018-07-04T16:11:02Z</time>
      </trkpt>
      <trkpt lat="46.196618" lon="6.807080">
        <ele>1990.610</ele>
        <time>2018-07-04T16:11:07Z</time>
      </trkpt>
      <trkpt lat="46.196642" lon="6.807154">
        <ele>1990.326</ele>
        <time>2018-07-04T16:11:12Z</time>
      </trkpt>
      <trkpt lat="46.196666" lon="6.807212">
        <ele>1990.018</ele>
        <time>2018-07-04T16:11:16Z</time>
      </trkpt>
      <trkpt lat="46.196686" lon="6.807274">
        <ele>1989.714</ele>
        <time>2018-07-04T16:11:20Z</time>
      </trkpt>
      <trkpt lat="46.196689" lon="6.807344">
        <ele>1989.636</ele>
        <time>2018-07-04T16:11:24Z</time>
      </trkpt>
      <trkpt lat="46.196692" lon="6.807416">
        <ele>1989.673</ele>
        <time>2018-07-04T16:11:28Z</time>
      </trkpt>
      <trkpt lat="46.196690" lon="6.807497">
        <ele>1989.699</ele>
        <time>2018-07-04T16:11:33Z</time>
      </trkpt>
      <trkpt lat="46.196679" lon="6.807562">
        <ele>1989.324</ele>
        <time>2018-07-04T16:11:37Z</time>
      </trkpt>
      <trkpt lat="46.196666" lon="6.807626">
        <ele>1989.139</ele>
        <time>2018-07-04T16:11:41Z</time>
      </trkpt>
      <trkpt lat="46.196650" lon="6.807690">
        <ele>1988.901</ele>
        <time>2018-07-04T16:11:45Z</time>
      </trkpt>
      <trkpt lat="46.196629" lon="6.807750">
        <ele>1988.721</ele>
        <time>2018-07-04T16:11:49Z</time>
      </trkpt>
      <trkpt lat="46.196607" lon="6.807812">
        <ele>1988.508</ele>
        <time>2018-07-04T16:11:53Z</time>
      </trkpt>
      <trkpt lat="46.196594" lon="6.807882">
        <ele>1988.115</ele>
        <time>2018-07-04T16:11:57Z</time>
      </trkpt>
      <trkpt lat="46.196585" lon="6.807950">
        <ele>1987.771</ele>
        <time>2018-07-04T16:12:01Z</time>
      </trkpt>
      <trkpt lat="46.196576" lon="6.808020">
        <ele>1987.343</ele>
        <time>2018-07-04T16:12:05Z</time>
      </trkpt>
      <trkpt lat="46.196555" lon="6.808090">
        <ele>1987.149</ele>
        <time>2018-07-04T16:12:10Z</time>
      </trkpt>
      <trkpt lat="46.196546" lon="6.808166">
        <ele>1986.691</ele>
        <time>2018-07-04T16:12:15Z</time>
      </trkpt>
      <trkpt lat="46.196508" lon="6.808219">
        <ele>1986.988</ele>
        <time>2018-07-04T16:12:21Z</time>
      </trkpt>
      <trkpt lat="46.196469" lon="6.808257">
        <ele>1987.324</ele>
        <time>2018-07-04T16:12:27Z</time>
      </trkpt>
      <trkpt lat="46.196452" lon="6.808325">
        <ele>1986.969</ele>
        <time>2018-07-04T16:12:34Z</time>
      </trkpt>
      <trkpt lat="46.196427" lon="6.808391">
        <ele>1986.913</ele>
        <time>2018-07-04T16:12:41Z</time>
      </trkpt>
      <trkpt lat="46.196446" lon="6.808462">
        <ele>1986.043</ele>
        <time>2018-07-04T16:12:47Z</time>
      </trkpt>
      <trkpt lat="46.196419" lon="6.808515">
        <ele>1986.107</ele>
        <time>2018-07-04T16:12:53Z</time>
      </trkpt>
      <trkpt lat="46.196425" lon="6.808582">
        <ele>1985.408</ele>
        <time>2018-07-04T16:13:01Z</time>
      </trkpt>
      <trkpt lat="46.196454" lon="6.808637">
        <ele>1984.733</ele>
        <time>2018-07-04T16:13:14Z</time>
      </trkpt>
      <trkpt lat="46.196453" lon="6.808718">
        <ele>1984.949</ele>
        <time>2018-07-04T16:13:33Z</time>
      </trkpt>
      <trkpt lat="46.196466" lon="6.808783">
        <ele>1984.871</ele>
        <time>2018-07-04T16:13:44Z</time>
      </trkpt>
      <trkpt lat="46.196479" lon="6.808853">
        <ele>1984.687</ele>
        <time>2018-07-04T16:13:51Z</time>
      </trkpt>
      <trkpt lat="46.196496" lon="6.808915">
        <ele>1984.439</ele>
        <time>2018-07-04T16:13:56Z</time>
      </trkpt>
      <trkpt lat="46.196530" lon="6.808961">
        <ele>1983.786</ele>
        <time>2018-07-04T16:14:01Z</time>
      </trkpt>
      <trkpt lat="46.196545" lon="6.809029">
        <ele>1983.652</ele>
        <time>2018-07-04T16:14:11Z</time>
      </trkpt>
      <trkpt lat="46.196563" lon="6.809093">
        <ele>1983.377</ele>
        <time>2018-07-04T16:14:18Z</time>
      </trkpt>
      <trkpt lat="46.196561" lon="6.809169">
        <ele>1983.743</ele>
        <time>2018-07-04T16:14:24Z</time>
      </trkpt>
      <trkpt lat="46.196553" lon="6.809248">
        <ele>1984.064</ele>
        <time>2018-07-04T16:14:30Z</time>
      </trkpt>
      <trkpt lat="46.196530" lon="6.809316">
        <ele>1984.710</ele>
        <time>2018-07-04T16:14:35Z</time>
      </trkpt>
      <trkpt lat="46.196513" lon="6.809392">
        <ele>1985.208</ele>
        <time>2018-07-04T16:14:40Z</time>
      </trkpt>
      <trkpt lat="46.196497" lon="6.809459">
        <ele>1985.626</ele>
        <time>2018-07-04T16:14:45Z</time>
      </trkpt>
      <trkpt lat="46.196507" lon="6.809538">
        <ele>1984.972</ele>
        <time>2018-07-04T16:14:50Z</time>
      </trkpt>
      <trkpt lat="46.196512" lon="6.809611">
        <ele>1984.474</ele>
        <time>2018-07-04T16:14:55Z</time>
      </trkpt>
      <trkpt lat="46.196501" lon="6.809679">
        <ele>1984.250</ele>
        <time>2018-07-04T16:15:00Z</time>
      </trkpt>
      <trkpt lat="46.196499" lon="6.809756">
        <ele>1984.142</ele>
        <time>2018-07-04T16:15:05Z</time>
      </trkpt>
      <trkpt lat="46.196512" lon="6.809821">
        <ele>1983.949</ele>
        <time>2018-07-04T16:15:10Z</time>
      </trkpt>
      <trkpt lat="46.196519" lon="6.809887">
        <ele>1983.955</ele>
        <time>2018-07-04T16:15:15Z</time>
      </trkpt>
      <trkpt lat="46.196519" lon="6.809964">
        <ele>1984.170</ele>
        <time>2018-07-04T16:15:21Z</time>
      </trkpt>
      <trkpt lat="46.196522" lon="6.810042">
        <ele>1984.189</ele>
        <time>2018-07-04T16:15:26Z</time>
      </trkpt>
      <trkpt lat="46.196542" lon="6.810113">
        <ele>1983.806</ele>
        <time>2018-07-04T16:15:31Z</time>
      </trkpt>
      <trkpt lat="46.196550" lon="6.810189">
        <ele>1983.726</ele>
        <time>2018-07-04T16:15:36Z</time>
      </trkpt>
      <trkpt lat="46.196552" lon="6.810264">
        <ele>1983.708</ele>
        <time>2018-07-04T16:15:41Z</time>
      </trkpt>
      <trkpt lat="46.196552" lon="6.810336">
        <ele>1983.710</ele>
        <time>2018-07-04T16:15:46Z</time>
      </trkpt>
      <trkpt lat="46.196557" lon="6.810411">
        <ele>1983.676</ele>
        <time>2018-07-04T16:15:51Z</time>
      </trkpt>
      <trkpt lat="46.196565" lon="6.810492">
        <ele>1983.548</ele>
        <time>2018-07-04T16:15:56Z</time>
      </trkpt>
      <trkpt lat="46.196581" lon="6.810557">
        <ele>1983.264</ele>
        <time>2018-07-04T16:16:00Z</time>
      </trkpt>
      <trkpt lat="46.196579" lon="6.810627">
        <ele>1983.136</ele>
        <time>2018-07-04T16:16:05Z</time>
      </trkpt>
      <trkpt lat="46.196570" lon="6.810700">
        <ele>1983.093</ele>
        <time>2018-07-04T16:16:10Z</time>
      </trkpt>
      <trkpt lat="46.196567" lon="6.810768">
        <ele>1982.999</ele>
        <time>2018-07-04T16:16:15Z</time>
      </trkpt>
      <trkpt lat="46.196561" lon="6.810837">
        <ele>1982.724</ele>
        <time>2018-07-04T16:16:20Z</time>
      </trkpt>
      <trkpt lat="46.196560" lon="6.810908">
        <ele>1982.282</ele>
        <time>2018-07-04T16:16:25Z</time>
      </trkpt>
      <trkpt lat="46.196549" lon="6.810973">
        <ele>1981.843</ele>
        <time>2018-07-04T16:16:30Z</time>
      </trkpt>
      <trkpt lat="46.196525" lon="6.811034">
        <ele>1981.617</ele>
        <time>2018-07-04T16:16:35Z</time>
      </trkpt>
      <trkpt lat="46.196504" lon="6.811105">
        <ele>1981.208</ele>
        <time>2018-07-04T16:16:41Z</time>
      </trkpt>
      <trkpt lat="46.196482" lon="6.811169">
        <ele>1980.890</ele>
        <time>2018-07-04T16:16:46Z</time>
      </trkpt>
      <trkpt lat="46.196447" lon="6.811212">
        <ele>1980.816</ele>
        <time>2018-07-04T16:16:51Z</time>
      </trkpt>
      <trkpt lat="46.196405" lon="6.811249">
        <ele>1980.918</ele>
        <time>2018-07-04T16:16:56Z</time>
      </trkpt>
      <trkpt lat="46.196365" lon="6.811283">
        <ele>1981.214</ele>
        <time>2018-07-04T16:17:01Z</time>
      </trkpt>
      <trkpt lat="46.196336" lon="6.811347">
        <ele>1981.466</ele>
        <time>2018-07-04T16:17:06Z</time>
      </trkpt>
      <trkpt lat="46.196321" lon="6.811413">
        <ele>1981.393</ele>
        <time>2018-07-04T16:17:12Z</time>
      </trkpt>
      <trkpt lat="46.196329" lon="6.811477">
        <ele>1980.799</ele>
        <time>2018-07-04T16:17:17Z</time>
      </trkpt>
      <trkpt lat="46.196338" lon="6.811545">
        <ele>1980.034</ele>
        <time>2018-07-04T16:17:22Z</time>
      </trkpt>
      <trkpt lat="46.196331" lon="6.811613">
        <ele>1979.699</ele>
        <time>2018-07-04T16:17:27Z</time>
      </trkpt>
      <trkpt lat="46.196315" lon="6.811678">
        <ele>1979.507</ele>
        <time>2018-07-04T16:17:32Z</time>
      </trkpt>
      <trkpt lat="46.196301" lon="6.811753">
        <ele>1979.327</ele>
        <time>2018-07-04T16:17:37Z</time>
      </trkpt>
      <trkpt lat="46.196289" lon="6.811826">
        <ele>1979.108</ele>
        <time>2018-07-04T16:17:42Z</time>
      </trkpt>
      <trkpt lat="46.196280" lon="6.811903">
        <ele>1978.891</ele>
        <time>2018-07-04T16:17:47Z</time>
      </trkpt>
      <trkpt lat="46.196277" lon="6.811968">
        <ele>1978.757</ele>
        <time>2018-07-04T16:17:51Z</time>
      </trkpt>
      <trkpt lat="46.196270" lon="6.812032">
        <ele>1979.319</ele>
        <time>2018-07-04T16:17:55Z</time>
      </trkpt>
      <trkpt lat="46.196264" lon="6.812100">
        <ele>1979.845</ele>
        <time>2018-07-04T16:18:00Z</time>
      </trkpt>
      <trkpt lat="46.196272" lon="6.812172">
        <ele>1979.837</ele>
        <time>2018-07-04T16:18:06Z</time>
      </trkpt>
      <trkpt lat="46.196273" lon="6.812246">
        <ele>1980.324</ele>
        <time>2018-07-04T16:18:12Z</time>
      </trkpt>
      <trkpt lat="46.196276" lon="6.812325">
        <ele>1981.070</ele>
        <time>2018-07-04T16:18:18Z</time>
      </trkpt>
      <trkpt lat="46.196275" lon="6.812390">
        <ele>1981.735</ele>
        <time>2018-07-04T16:18:23Z</time>
      </trkpt>
      <trkpt lat="46.196282" lon="6.812458">
        <ele>1982.242</ele>
        <time>2018-07-04T16:18:30Z</time>
      </trkpt>
      <trkpt lat="46.196293" lon="6.812527">
        <ele>1982.522</ele>
        <time>2018-07-04T16:18:38Z</time>
      </trkpt>
      <trkpt lat="46.196299" lon="6.812596">
        <ele>1983.314</ele>
        <time>2018-07-04T16:18:46Z</time>
      </trkpt>
      <trkpt lat="46.196311" lon="6.812662">
        <ele>1983.808</ele>
        <time>2018-07-04T16:18:58Z</time>
      </trkpt>
      <trkpt lat="46.196322" lon="6.812729">
        <ele>1984.426</ele>
        <time>2018-07-04T16:19:05Z</time>
      </trkpt>
      <trkpt lat="46.196341" lon="6.812792">
        <ele>1984.412</ele>
        <time>2018-07-04T16:19:15Z</time>
      </trkpt>
      <trkpt lat="46.196354" lon="6.812857">
        <ele>1983.594</ele>
        <time>2018-07-04T16:19:23Z</time>
      </trkpt>
      <trkpt lat="46.196367" lon="6.812924">
        <ele>1982.680</ele>
        <time>2018-07-04T16:19:29Z</time>
      </trkpt>
      <trkpt lat="46.196367" lon="6.812996">
        <ele>1982.162</ele>
        <time>2018-07-04T16:19:35Z</time>
      </trkpt>
      <trkpt lat="46.196369" lon="6.813073">
        <ele>1981.439</ele>
        <time>2018-07-04T16:19:45Z</time>
      </trkpt>
      <trkpt lat="46.196418" lon="6.813089">
        <ele>1980.885</ele>
        <time>2018-07-04T16:20:07Z</time>
      </trkpt>
      <trkpt lat="46.196459" lon="6.813130">
        <ele>1980.740</ele>
        <time>2018-07-04T16:20:14Z</time>
      </trkpt>
      <trkpt lat="46.196512" lon="6.813119">
        <ele>1980.819</ele>
        <time>2018-07-04T16:20:40Z</time>
      </trkpt>
      <trkpt lat="46.196555" lon="6.813133">
        <ele>1980.909</ele>
        <time>2018-07-05T06:27:07Z</time>
      </trkpt>
      <trkpt lat="46.196502" lon="6.813142">
        <ele>1980.819</ele>
        <time>2018-07-05T06:27:34Z</time>
      </trkpt>
      <trkpt lat="46.196538" lon="6.813185">
        <ele>1980.808</ele>
        <time>2018-07-05T06:27:46Z</time>
      </trkpt>
      <trkpt lat="46.196521" lon="6.813252">
        <ele>1980.663</ele>
        <time>2018-07-05T06:27:56Z</time>
      </trkpt>
      <trkpt lat="46.196492" lon="6.813307">
        <ele>1980.239</ele>
        <time>2018-07-05T06:28:02Z</time>
      </trkpt>
      <trkpt lat="46.196454" lon="6.813352">
        <ele>1979.611</ele>
        <time>2018-07-05T06:28:08Z</time>
      </trkpt>
      <trkpt lat="46.196410" lon="6.813372">
        <ele>1979.077</ele>
        <time>2018-07-05T06:28:13Z</time>
      </trkpt>
      <trkpt lat="46.196372" lon="6.813421">
        <ele>1978.619</ele>
        <time>2018-07-05T06:28:19Z</time>
      </trkpt>
      <trkpt lat="46.196368" lon="6.813492">
        <ele>1978.126</ele>
        <time>2018-07-05T06:28:37Z</time>
      </trkpt>
      <trkpt lat="46.196339" lon="6.813558">
        <ele>1977.812</ele>
        <time>2018-07-05T06:28:48Z</time>
      </trkpt>
      <trkpt lat="46.196320" lon="6.813627">
        <ele>1977.477</ele>
        <time>2018-07-05T06:28:55Z</time>
      </trkpt>
      <trkpt lat="46.196302" lon="6.813690">
        <ele>1977.377</ele>
        <time>2018-07-05T06:29:02Z</time>
      </trkpt>
      <trkpt lat="46.196274" lon="6.813743">
        <ele>1977.461</ele>
        <time>2018-07-05T06:29:10Z</time>
      </trkpt>
      <trkpt lat="46.196250" lon="6.813806">
        <ele>1977.327</ele>
        <time>2018-07-05T06:29:17Z</time>
      </trkpt>
      <trkpt lat="46.196221" lon="6.813864">
        <ele>1977.308</ele>
        <time>2018-07-05T06:29:24Z</time>
      </trkpt>
      <trkpt lat="46.196189" lon="6.813913">
        <ele>1977.329</ele>
        <time>2018-07-05T06:29:30Z</time>
      </trkpt>
      <trkpt lat="46.196151" lon="6.813951">
        <ele>1977.525</ele>
        <time>2018-07-05T06:29:48Z</time>
      </trkpt>
      <trkpt lat="46.196117" lon="6.814000">
        <ele>1977.517</ele>
        <time>2018-07-05T06:29:54Z</time>
      </trkpt>
      <trkpt lat="46.196084" lon="6.814051">
        <ele>1977.853</ele>
        <time>2018-07-05T06:30:00Z</time>
      </trkpt>
      <trkpt lat="46.196060" lon="6.814115">
        <ele>1977.955</ele>
        <time>2018-07-05T06:30:07Z</time>
      </trkpt>
      <trkpt lat="46.196068" lon="6.814188">
        <ele>1977.642</ele>
        <time>2018-07-05T06:30:19Z</time>
      </trkpt>
      <trkpt lat="46.196073" lon="6.814253">
        <ele>1977.358</ele>
        <time>2018-07-05T06:30:26Z</time>
      </trkpt>
      <trkpt lat="46.196064" lon="6.814319">
        <ele>1977.213</ele>
        <time>2018-07-05T06:30:32Z</time>
      </trkpt>
      <trkpt lat="46.196061" lon="6.814387">
        <ele>1977.141</ele>
        <time>2018-07-05T06:30:39Z</time>
      </trkpt>
      <trkpt lat="46.196087" lon="6.814442">
        <ele>1976.481</ele>
        <time>2018-07-05T06:30:45Z</time>
      </trkpt>
      <trkpt lat="46.196101" lon="6.814514">
        <ele>1975.409</ele>
        <time>2018-07-05T06:30:53Z</time>
      </trkpt>
      <trkpt lat="46.196079" lon="6.814577">
        <ele>1975.208</ele>
        <time>2018-07-05T06:31:04Z</time>
      </trkpt>
      <trkpt lat="46.196050" lon="6.814637">
        <ele>1975.246</ele>
        <time>2018-07-05T06:31:10Z</time>
      </trkpt>
      <trkpt lat="46.196013" lon="6.814690">
        <ele>1975.442</ele>
        <time>2018-07-05T06:31:16Z</time>
      </trkpt>
      <trkpt lat="46.195971" lon="6.814738">
        <ele>1975.924</ele>
        <time>2018-07-05T06:31:22Z</time>
      </trkpt>
      <trkpt lat="46.195935" lon="6.814783">
        <ele>1976.340</ele>
        <time>2018-07-05T06:31:28Z</time>
      </trkpt>
      <trkpt lat="46.195898" lon="6.814829">
        <ele>1976.632</ele>
        <time>2018-07-05T06:31:33Z</time>
      </trkpt>
      <trkpt lat="46.195859" lon="6.814881">
        <ele>1976.829</ele>
        <time>2018-07-05T06:31:38Z</time>
      </trkpt>
      <trkpt lat="46.195821" lon="6.814927">
        <ele>1977.495</ele>
        <time>2018-07-05T06:31:43Z</time>
      </trkpt>
      <trkpt lat="46.195783" lon="6.814965">
        <ele>1978.940</ele>
        <time>2018-07-05T06:31:49Z</time>
      </trkpt>
      <trkpt lat="46.195756" lon="6.815029">
        <ele>1979.751</ele>
        <time>2018-07-05T06:31:57Z</time>
      </trkpt>
      <trkpt lat="46.195739" lon="6.815092">
        <ele>1980.001</ele>
        <time>2018-07-05T06:32:04Z</time>
      </trkpt>
      <trkpt lat="46.195705" lon="6.815137">
        <ele>1981.311</ele>
        <time>2018-07-05T06:32:15Z</time>
      </trkpt>
      <trkpt lat="46.195677" lon="6.815198">
        <ele>1982.108</ele>
        <time>2018-07-05T06:32:30Z</time>
      </trkpt>
      <trkpt lat="46.195654" lon="6.815261">
        <ele>1982.627</ele>
        <time>2018-07-05T06:32:36Z</time>
      </trkpt>
      <trkpt lat="46.195647" lon="6.815326">
        <ele>1982.783</ele>
        <time>2018-07-05T06:32:45Z</time>
      </trkpt>
      <trkpt lat="46.195635" lon="6.815389">
        <ele>1983.265</ele>
        <time>2018-07-05T06:33:08Z</time>
      </trkpt>
      <trkpt lat="46.195611" lon="6.815453">
        <ele>1984.361</ele>
        <time>2018-07-05T06:33:16Z</time>
      </trkpt>
      <trkpt lat="46.195603" lon="6.815519">
        <ele>1984.653</ele>
        <time>2018-07-05T06:33:23Z</time>
      </trkpt>
      <trkpt lat="46.195599" lon="6.815584">
        <ele>1984.730</ele>
        <time>2018-07-05T06:33:33Z</time>
      </trkpt>
      <trkpt lat="46.195592" lon="6.815654">
        <ele>1984.986</ele>
        <time>2018-07-05T06:33:43Z</time>
      </trkpt>
      <trkpt lat="46.195585" lon="6.815722">
        <ele>1985.091</ele>
        <time>2018-07-05T06:33:52Z</time>
      </trkpt>
      <trkpt lat="46.195579" lon="6.815791">
        <ele>1985.126</ele>
        <time>2018-07-05T06:34:01Z</time>
      </trkpt>
      <trkpt lat="46.195571" lon="6.815856">
        <ele>1985.247</ele>
        <time>2018-07-05T06:34:07Z</time>
      </trkpt>
      <trkpt lat="46.195566" lon="6.815921">
        <ele>1984.911</ele>
        <time>2018-07-05T06:34:12Z</time>
      </trkpt>
      <trkpt lat="46.195560" lon="6.815994">
        <ele>1984.708</ele>
        <time>2018-07-05T06:34:18Z</time>
      </trkpt>
      <trkpt lat="46.195548" lon="6.816061">
        <ele>1984.974</ele>
        <time>2018-07-05T06:34:24Z</time>
      </trkpt>
      <trkpt lat="46.195534" lon="6.816126">
        <ele>1985.450</ele>
        <time>2018-07-05T06:34:29Z</time>
      </trkpt>
      <trkpt lat="46.195520" lon="6.816192">
        <ele>1985.712</ele>
        <time>2018-07-05T06:34:34Z</time>
      </trkpt>
      <trkpt lat="46.195509" lon="6.816260">
        <ele>1985.888</ele>
        <time>2018-07-05T06:34:39Z</time>
      </trkpt>
      <trkpt lat="46.195495" lon="6.816323">
        <ele>1986.170</ele>
        <time>2018-07-05T06:34:44Z</time>
      </trkpt>
      <trkpt lat="46.195481" lon="6.816392">
        <ele>1986.327</ele>
        <time>2018-07-05T06:34:50Z</time>
      </trkpt>
      <trkpt lat="46.195456" lon="6.816455">
        <ele>1987.083</ele>
        <time>2018-07-05T06:34:56Z</time>
      </trkpt>
      <trkpt lat="46.195430" lon="6.816514">
        <ele>1987.928</ele>
        <time>2018-07-05T06:35:02Z</time>
      </trkpt>
      <trkpt lat="46.195408" lon="6.816581">
        <ele>1988.429</ele>
        <time>2018-07-05T06:35:08Z</time>
      </trkpt>
      <trkpt lat="46.195383" lon="6.816645">
        <ele>1989.200</ele>
        <time>2018-07-05T06:35:15Z</time>
      </trkpt>
      <trkpt lat="46.195355" lon="6.816706">
        <ele>1990.120</ele>
        <time>2018-07-05T06:35:21Z</time>
      </trkpt>
      <trkpt lat="46.195335" lon="6.816776">
        <ele>1990.308</ele>
        <time>2018-07-05T06:35:27Z</time>
      </trkpt>
      <trkpt lat="46.195314" lon="6.816837">
        <ele>1990.674</ele>
        <time>2018-07-05T06:35:33Z</time>
      </trkpt>
      <trkpt lat="46.195289" lon="6.816891">
        <ele>1991.280</ele>
        <time>2018-07-05T06:35:39Z</time>
      </trkpt>
      <trkpt lat="46.195263" lon="6.816956">
        <ele>1991.742</ele>
        <time>2018-07-05T06:35:46Z</time>
      </trkpt>
      <trkpt lat="46.195234" lon="6.817014">
        <ele>1992.568</ele>
        <time>2018-07-05T06:35:53Z</time>
      </trkpt>
      <trkpt lat="46.195207" lon="6.817068">
        <ele>1993.370</ele>
        <time>2018-07-05T06:36:00Z</time>
      </trkpt>
      <trkpt lat="46.195182" lon="6.817127">
        <ele>1993.737</ele>
        <time>2018-07-05T06:36:07Z</time>
      </trkpt>
      <trkpt lat="46.195156" lon="6.817181">
        <ele>1994.383</ele>
        <time>2018-07-05T06:36:14Z</time>
      </trkpt>
      <trkpt lat="46.195129" lon="6.817245">
        <ele>1994.768</ele>
        <time>2018-07-05T06:36:21Z</time>
      </trkpt>
      <trkpt lat="46.195108" lon="6.817304">
        <ele>1994.984</ele>
        <time>2018-07-05T06:36:27Z</time>
      </trkpt>
      <trkpt lat="46.195078" lon="6.817354">
        <ele>1995.607</ele>
        <time>2018-07-05T06:36:35Z</time>
      </trkpt>
      <trkpt lat="46.195039" lon="6.817402">
        <ele>1996.717</ele>
        <time>2018-07-05T06:36:43Z</time>
      </trkpt>
      <trkpt lat="46.195007" lon="6.817458">
        <ele>1997.308</ele>
        <time>2018-07-05T06:36:50Z</time>
      </trkpt>
      <trkpt lat="46.194978" lon="6.817521">
        <ele>1997.960</ele>
        <time>2018-07-05T06:36:58Z</time>
      </trkpt>
      <trkpt lat="46.194948" lon="6.817580">
        <ele>1998.716</ele>
        <time>2018-07-05T06:37:07Z</time>
      </trkpt>
      <trkpt lat="46.194921" lon="6.817640">
        <ele>1999.328</ele>
        <time>2018-07-05T06:37:14Z</time>
      </trkpt>
      <trkpt lat="46.194889" lon="6.817687">
        <ele>2000.384</ele>
        <time>2018-07-05T06:37:22Z</time>
      </trkpt>
      <trkpt lat="46.194857" lon="6.817734">
        <ele>2001.216</ele>
        <time>2018-07-05T06:37:32Z</time>
      </trkpt>
      <trkpt lat="46.194813" lon="6.817752">
        <ele>2003.163</ele>
        <time>2018-07-05T06:37:40Z</time>
      </trkpt>
      <trkpt lat="46.194773" lon="6.817793">
        <ele>2004.469</ele>
        <time>2018-07-05T06:37:49Z</time>
      </trkpt>
      <trkpt lat="46.194740" lon="6.817842">
        <ele>2005.084</ele>
        <time>2018-07-05T06:37:56Z</time>
      </trkpt>
      <trkpt lat="46.194715" lon="6.817899">
        <ele>2005.262</ele>
        <time>2018-07-05T06:38:02Z</time>
      </trkpt>
      <trkpt lat="46.194686" lon="6.817959">
        <ele>2005.583</ele>
        <time>2018-07-05T06:38:09Z</time>
      </trkpt>
      <trkpt lat="46.194648" lon="6.818005">
        <ele>2006.411</ele>
        <time>2018-07-05T06:38:19Z</time>
      </trkpt>
      <trkpt lat="46.194604" lon="6.818034">
        <ele>2008.008</ele>
        <time>2018-07-05T06:38:30Z</time>
      </trkpt>
      <trkpt lat="46.194583" lon="6.818097">
        <ele>2007.988</ele>
        <time>2018-07-05T06:38:40Z</time>
      </trkpt>
      <trkpt lat="46.194550" lon="6.818144">
        <ele>2008.744</ele>
        <time>2018-07-05T06:38:50Z</time>
      </trkpt>
      <trkpt lat="46.194510" lon="6.818175">
        <ele>2010.066</ele>
        <time>2018-07-05T06:39:01Z</time>
      </trkpt>
      <trkpt lat="46.194468" lon="6.818206">
        <ele>2011.312</ele>
        <time>2018-07-05T06:39:12Z</time>
      </trkpt>
      <trkpt lat="46.194424" lon="6.818229">
        <ele>2012.714</ele>
        <time>2018-07-05T06:39:22Z</time>
      </trkpt>
      <trkpt lat="46.194383" lon="6.818259">
        <ele>2013.991</ele>
        <time>2018-07-05T06:39:31Z</time>
      </trkpt>
      <trkpt lat="46.194360" lon="6.818317">
        <ele>2013.737</ele>
        <time>2018-07-05T06:39:41Z</time>
      </trkpt>
      <trkpt lat="46.194324" lon="6.818359">
        <ele>2014.342</ele>
        <time>2018-07-05T06:40:01Z</time>
      </trkpt>
      <trkpt lat="46.194279" lon="6.818397">
        <ele>2015.394</ele>
        <time>2018-07-05T06:40:08Z</time>
      </trkpt>
      <trkpt lat="46.194233" lon="6.818428">
        <ele>2016.457</ele>
        <time>2018-07-05T06:40:14Z</time>
      </trkpt>
      <trkpt lat="46.194197" lon="6.818474">
        <ele>2016.822</ele>
        <time>2018-07-05T06:40:20Z</time>
      </trkpt>
      <trkpt lat="46.194158" lon="6.818510">
        <ele>2017.608</ele>
        <time>2018-07-05T06:40:27Z</time>
      </trkpt>
      <trkpt lat="46.194112" lon="6.818524">
        <ele>2019.241</ele>
        <time>2018-07-05T06:40:36Z</time>
      </trkpt>
      <trkpt lat="46.194076" lon="6.818564">
        <ele>2019.967</ele>
        <time>2018-07-05T06:40:44Z</time>
      </trkpt>
      <trkpt lat="46.194044" lon="6.818611">
        <ele>2020.329</ele>
        <time>2018-07-05T06:40:54Z</time>
      </trkpt>
      <trkpt lat="46.194000" lon="6.818641">
        <ele>2021.995</ele>
        <time>2018-07-05T06:41:06Z</time>
      </trkpt>
      <trkpt lat="46.193958" lon="6.818667">
        <ele>2023.377</ele>
        <time>2018-07-05T06:41:18Z</time>
      </trkpt>
      <trkpt lat="46.193928" lon="6.818726">
        <ele>2023.884</ele>
        <time>2018-07-05T06:41:30Z</time>
      </trkpt>
      <trkpt lat="46.193885" lon="6.818754">
        <ele>2025.160</ele>
        <time>2018-07-05T06:41:43Z</time>
      </trkpt>
      <trkpt lat="46.193843" lon="6.818779">
        <ele>2026.495</ele>
        <time>2018-07-05T06:41:53Z</time>
      </trkpt>
      <trkpt lat="46.193797" lon="6.818803">
        <ele>2027.738</ele>
        <time>2018-07-05T06:42:03Z</time>
      </trkpt>
      <trkpt lat="46.193754" lon="6.818828">
        <ele>2028.970</ele>
        <time>2018-07-05T06:42:12Z</time>
      </trkpt>
      <trkpt lat="46.193715" lon="6.818863">
        <ele>2029.717</ele>
        <time>2018-07-05T06:42:22Z</time>
      </trkpt>
      <trkpt lat="46.193679" lon="6.818906">
        <ele>2030.308</ele>
        <time>2018-07-05T06:42:30Z</time>
      </trkpt>
      <trkpt lat="46.193657" lon="6.818967">
        <ele>2030.085</ele>
        <time>2018-07-05T06:42:36Z</time>
      </trkpt>
      <trkpt lat="46.193638" lon="6.819033">
        <ele>2029.531</ele>
        <time>2018-07-05T06:42:45Z</time>
      </trkpt>
      <trkpt lat="46.193609" lon="6.819083">
        <ele>2029.663</ele>
        <time>2018-07-05T06:42:53Z</time>
      </trkpt>
      <trkpt lat="46.193566" lon="6.819117">
        <ele>2030.599</ele>
        <time>2018-07-05T06:43:02Z</time>
      </trkpt>
      <trkpt lat="46.193524" lon="6.819142">
        <ele>2031.621</ele>
        <time>2018-07-05T06:43:08Z</time>
      </trkpt>
      <trkpt lat="46.193475" lon="6.819155">
        <ele>2033.118</ele>
        <time>2018-07-05T06:43:15Z</time>
      </trkpt>
      <trkpt lat="46.193439" lon="6.819201">
        <ele>2033.854</ele>
        <time>2018-07-05T06:43:25Z</time>
      </trkpt>
      <trkpt lat="46.193412" lon="6.819261">
        <ele>2034.129</ele>
        <time>2018-07-05T06:43:36Z</time>
      </trkpt>
      <trkpt lat="46.193368" lon="6.819289">
        <ele>2035.447</ele>
        <time>2018-07-05T06:43:47Z</time>
      </trkpt>
      <trkpt lat="46.193341" lon="6.819346">
        <ele>2035.829</ele>
        <time>2018-07-05T06:43:56Z</time>
      </trkpt>
      <trkpt lat="46.193319" lon="6.819404">
        <ele>2036.021</ele>
        <time>2018-07-05T06:44:04Z</time>
      </trkpt>
      <trkpt lat="46.193334" lon="6.819467">
        <ele>2035.008</ele>
        <time>2018-07-05T06:44:16Z</time>
      </trkpt>
      <trkpt lat="46.193289" lon="6.819491">
        <ele>2036.616</ele>
        <time>2018-07-05T06:44:29Z</time>
      </trkpt>
      <trkpt lat="46.193245" lon="6.819505">
        <ele>2038.222</ele>
        <time>2018-07-05T06:44:41Z</time>
      </trkpt>
      <trkpt lat="46.193199" lon="6.819505">
        <ele>2039.924</ele>
        <time>2018-07-05T06:44:52Z</time>
      </trkpt>
      <trkpt lat="46.193151" lon="6.819500">
        <ele>2041.780</ele>
        <time>2018-07-05T06:45:03Z</time>
      </trkpt>
      <trkpt lat="46.193125" lon="6.819556">
        <ele>2042.822</ele>
        <time>2018-07-05T06:45:15Z</time>
      </trkpt>
      <trkpt lat="46.193107" lon="6.819616">
        <ele>2043.719</ele>
        <time>2018-07-05T06:45:25Z</time>
      </trkpt>
      <trkpt lat="46.193064" lon="6.819653">
        <ele>2045.485</ele>
        <time>2018-07-05T06:45:35Z</time>
      </trkpt>
      <trkpt lat="46.193018" lon="6.819678">
        <ele>2047.220</ele>
        <time>2018-07-05T06:45:44Z</time>
      </trkpt>
      <trkpt lat="46.192976" lon="6.819706">
        <ele>2048.861</ele>
        <time>2018-07-05T06:45:54Z</time>
      </trkpt>
      <trkpt lat="46.192936" lon="6.819739">
        <ele>2050.321</ele>
        <time>2018-07-05T06:46:05Z</time>
      </trkpt>
      <trkpt lat="46.192901" lon="6.819785">
        <ele>2051.513</ele>
        <time>2018-07-05T06:46:21Z</time>
      </trkpt>
      <trkpt lat="46.192863" lon="6.819828">
        <ele>2052.808</ele>
        <time>2018-07-05T06:46:31Z</time>
      </trkpt>
      <trkpt lat="46.192822" lon="6.819858">
        <ele>2054.198</ele>
        <time>2018-07-05T06:46:40Z</time>
      </trkpt>
      <trkpt lat="46.192781" lon="6.819898">
        <ele>2055.334</ele>
        <time>2018-07-05T06:46:48Z</time>
      </trkpt>
      <trkpt lat="46.192733" lon="6.819906">
        <ele>2057.256</ele>
        <time>2018-07-05T06:46:57Z</time>
      </trkpt>
      <trkpt lat="46.192688" lon="6.819895">
        <ele>2059.252</ele>
        <time>2018-07-05T06:47:08Z</time>
      </trkpt>
      <trkpt lat="46.192669" lon="6.819959">
        <ele>2059.484</ele>
        <time>2018-07-05T06:47:19Z</time>
      </trkpt>
      <trkpt lat="46.192622" lon="6.819986">
        <ele>2060.841</ele>
        <time>2018-07-05T06:47:29Z</time>
      </trkpt>
      <trkpt lat="46.192589" lon="6.820030">
        <ele>2061.747</ele>
        <time>2018-07-05T06:47:35Z</time>
      </trkpt>
      <trkpt lat="46.192581" lon="6.820101">
        <ele>2061.762</ele>
        <time>2018-07-05T06:47:43Z</time>
      </trkpt>
      <trkpt lat="46.192573" lon="6.820168">
        <ele>2061.655</ele>
        <time>2018-07-05T06:47:49Z</time>
      </trkpt>
      <trkpt lat="46.192576" lon="6.820235">
        <ele>2061.307</ele>
        <time>2018-07-05T06:47:57Z</time>
      </trkpt>
      <trkpt lat="46.192582" lon="6.820301">
        <ele>2061.217</ele>
        <time>2018-07-05T06:48:06Z</time>
      </trkpt>
      <trkpt lat="46.192557" lon="6.820364">
        <ele>2062.408</ele>
        <time>2018-07-05T06:48:16Z</time>
      </trkpt>
      <trkpt lat="46.192534" lon="6.820422">
        <ele>2063.667</ele>
        <time>2018-07-05T06:48:23Z</time>
      </trkpt>
      <trkpt lat="46.192533" lon="6.820491">
        <ele>2064.483</ele>
        <time>2018-07-05T06:48:30Z</time>
      </trkpt>
      <trkpt lat="46.192539" lon="6.820556">
        <ele>2064.955</ele>
        <time>2018-07-05T06:48:36Z</time>
      </trkpt>
      <trkpt lat="46.192538" lon="6.820621">
        <ele>2065.641</ele>
        <time>2018-07-05T06:48:44Z</time>
      </trkpt>
      <trkpt lat="46.192522" lon="6.820685">
        <ele>2066.743</ele>
        <time>2018-07-05T06:49:04Z</time>
      </trkpt>
      <trkpt lat="46.192509" lon="6.820667">
        <ele>2066.990</ele>
        <time>2018-07-05T06:54:41Z</time>
      </trkpt>
      <trkpt lat="46.192512" lon="6.820738">
        <ele>2067.626</ele>
        <time>2018-07-05T06:54:48Z</time>
      </trkpt>
      <trkpt lat="46.192509" lon="6.820815">
        <ele>2068.531</ele>
        <time>2018-07-05T06:54:56Z</time>
      </trkpt>
      <trkpt lat="46.192461" lon="6.820818">
        <ele>2070.414</ele>
        <time>2018-07-05T06:55:05Z</time>
      </trkpt>
      <trkpt lat="46.192425" lon="6.820774">
        <ele>2071.454</ele>
        <time>2018-07-05T06:55:16Z</time>
      </trkpt>
      <trkpt lat="46.192391" lon="6.820718">
        <ele>2072.409</ele>
        <time>2018-07-05T06:55:24Z</time>
      </trkpt>
      <trkpt lat="46.192354" lon="6.820672">
        <ele>2073.708</ele>
        <time>2018-07-05T06:55:37Z</time>
      </trkpt>
      <trkpt lat="46.192313" lon="6.820629">
        <ele>2075.223</ele>
        <time>2018-07-05T06:55:47Z</time>
      </trkpt>
      <trkpt lat="46.192304" lon="6.820561">
        <ele>2075.289</ele>
        <time>2018-07-05T06:56:14Z</time>
      </trkpt>
      <trkpt lat="46.192257" lon="6.820558">
        <ele>2077.411</ele>
        <time>2018-07-05T06:56:39Z</time>
      </trkpt>
      <trkpt lat="46.192215" lon="6.820591">
        <ele>2079.597</ele>
        <time>2018-07-05T06:56:56Z</time>
      </trkpt>
      <trkpt lat="46.192194" lon="6.820650">
        <ele>2080.799</ele>
        <time>2018-07-05T06:57:05Z</time>
      </trkpt>
      <trkpt lat="46.192186" lon="6.820721">
        <ele>2081.266</ele>
        <time>2018-07-05T06:57:15Z</time>
      </trkpt>
      <trkpt lat="46.192187" lon="6.820786">
        <ele>2081.332</ele>
        <time>2018-07-05T06:57:22Z</time>
      </trkpt>
      <trkpt lat="46.192180" lon="6.820851">
        <ele>2082.067</ele>
        <time>2018-07-05T06:57:33Z</time>
      </trkpt>
      <trkpt lat="46.192179" lon="6.820916">
        <ele>2083.132</ele>
        <time>2018-07-05T06:57:43Z</time>
      </trkpt>
      <trkpt lat="46.192153" lon="6.820969">
        <ele>2084.992</ele>
        <time>2018-07-05T06:57:57Z</time>
      </trkpt>
      <trkpt lat="46.192128" lon="6.821028">
        <ele>2086.811</ele>
        <time>2018-07-05T06:58:08Z</time>
      </trkpt>
      <trkpt lat="46.192108" lon="6.821086">
        <ele>2088.308</ele>
        <time>2018-07-05T06:58:24Z</time>
      </trkpt>
      <trkpt lat="46.192073" lon="6.821131">
        <ele>2090.235</ele>
        <time>2018-07-05T06:58:42Z</time>
      </trkpt>
      <trkpt lat="46.192031" lon="6.821155">
        <ele>2091.921</ele>
        <time>2018-07-05T06:58:51Z</time>
      </trkpt>
      <trkpt lat="46.191992" lon="6.821188">
        <ele>2093.573</ele>
        <time>2018-07-05T06:58:59Z</time>
      </trkpt>
      <trkpt lat="46.191948" lon="6.821213">
        <ele>2095.099</ele>
        <time>2018-07-05T06:59:10Z</time>
      </trkpt>
      <trkpt lat="46.191927" lon="6.821272">
        <ele>2095.421</ele>
        <time>2018-07-05T07:02:16Z</time>
      </trkpt>
      <trkpt lat="46.191876" lon="6.821281">
        <ele>2094.438</ele>
        <time>2018-07-05T07:02:24Z</time>
      </trkpt>
      <trkpt lat="46.191834" lon="6.821321">
        <ele>2093.594</ele>
        <time>2018-07-05T07:02:37Z</time>
      </trkpt>
      <trkpt lat="46.191828" lon="6.821392">
        <ele>2093.229</ele>
        <time>2018-07-05T07:02:51Z</time>
      </trkpt>
      <trkpt lat="46.191846" lon="6.821456">
        <ele>2092.965</ele>
        <time>2018-07-05T07:02:56Z</time>
      </trkpt>
      <trkpt lat="46.191864" lon="6.821519">
        <ele>2092.868</ele>
        <time>2018-07-05T07:03:01Z</time>
      </trkpt>
      <trkpt lat="46.191887" lon="6.821584">
        <ele>2093.014</ele>
        <time>2018-07-05T07:03:06Z</time>
      </trkpt>
      <trkpt lat="46.191900" lon="6.821653">
        <ele>2092.908</ele>
        <time>2018-07-05T07:03:11Z</time>
      </trkpt>
      <trkpt lat="46.191916" lon="6.821722">
        <ele>2092.698</ele>
        <time>2018-07-05T07:03:16Z</time>
      </trkpt>
      <trkpt lat="46.191925" lon="6.821787">
        <ele>2091.874</ele>
        <time>2018-07-05T07:03:21Z</time>
      </trkpt>
      <trkpt lat="46.191936" lon="6.821861">
        <ele>2091.196</ele>
        <time>2018-07-05T07:03:26Z</time>
      </trkpt>
      <trkpt lat="46.191943" lon="6.821926">
        <ele>2090.372</ele>
        <time>2018-07-05T07:03:30Z</time>
      </trkpt>
      <trkpt lat="46.191946" lon="6.822005">
        <ele>2089.994</ele>
        <time>2018-07-05T07:03:35Z</time>
      </trkpt>
      <trkpt lat="46.191939" lon="6.822081">
        <ele>2089.211</ele>
        <time>2018-07-05T07:03:40Z</time>
      </trkpt>
      <trkpt lat="46.191926" lon="6.822155">
        <ele>2088.257</ele>
        <time>2018-07-05T07:03:45Z</time>
      </trkpt>
      <trkpt lat="46.191905" lon="6.822218">
        <ele>2086.712</ele>
        <time>2018-07-05T07:03:51Z</time>
      </trkpt>
      <trkpt lat="46.191889" lon="6.822293">
        <ele>2086.394</ele>
        <time>2018-07-05T07:03:56Z</time>
      </trkpt>
      <trkpt lat="46.191874" lon="6.822370">
        <ele>2085.957</ele>
        <time>2018-07-05T07:04:01Z</time>
      </trkpt>
      <trkpt lat="46.191855" lon="6.822446">
        <ele>2085.222</ele>
        <time>2018-07-05T07:04:06Z</time>
      </trkpt>
      <trkpt lat="46.191835" lon="6.822514">
        <ele>2084.308</ele>
        <time>2018-07-05T07:04:11Z</time>
      </trkpt>
      <trkpt lat="46.191815" lon="6.822582">
        <ele>2083.251</ele>
        <time>2018-07-05T07:04:16Z</time>
      </trkpt>
      <trkpt lat="46.191805" lon="6.822654">
        <ele>2082.787</ele>
        <time>2018-07-05T07:04:21Z</time>
      </trkpt>
      <trkpt lat="46.191791" lon="6.822729">
        <ele>2082.039</ele>
        <time>2018-07-05T07:04:26Z</time>
      </trkpt>
      <trkpt lat="46.191779" lon="6.822799">
        <ele>2081.335</ele>
        <time>2018-07-05T07:04:31Z</time>
      </trkpt>
      <trkpt lat="46.191760" lon="6.822866">
        <ele>2080.297</ele>
        <time>2018-07-05T07:04:36Z</time>
      </trkpt>
      <trkpt lat="46.191748" lon="6.822930">
        <ele>2079.464</ele>
        <time>2018-07-05T07:04:41Z</time>
      </trkpt>
      <trkpt lat="46.191740" lon="6.822994">
        <ele>2079.060</ele>
        <time>2018-07-05T07:04:46Z</time>
      </trkpt>
      <trkpt lat="46.191733" lon="6.823061">
        <ele>2078.585</ele>
        <time>2018-07-05T07:04:51Z</time>
      </trkpt>
      <trkpt lat="46.191716" lon="6.823129">
        <ele>2077.228</ele>
        <time>2018-07-05T07:04:56Z</time>
      </trkpt>
      <trkpt lat="46.191700" lon="6.823200">
        <ele>2075.989</ele>
        <time>2018-07-05T07:05:01Z</time>
      </trkpt>
      <trkpt lat="46.191690" lon="6.823275">
        <ele>2074.917</ele>
        <time>2018-07-05T07:05:06Z</time>
      </trkpt>
      <trkpt lat="46.191681" lon="6.823346">
        <ele>2074.008</ele>
        <time>2018-07-05T07:05:11Z</time>
      </trkpt>
      <trkpt lat="46.191665" lon="6.823412">
        <ele>2072.614</ele>
        <time>2018-07-05T07:05:16Z</time>
      </trkpt>
      <trkpt lat="46.191651" lon="6.823481">
        <ele>2071.550</ele>
        <time>2018-07-05T07:05:21Z</time>
      </trkpt>
      <trkpt lat="46.191638" lon="6.823544">
        <ele>2070.412</ele>
        <time>2018-07-05T07:05:26Z</time>
      </trkpt>
      <trkpt lat="46.191624" lon="6.823606">
        <ele>2069.348</ele>
        <time>2018-07-05T07:05:31Z</time>
      </trkpt>
      <trkpt lat="46.191602" lon="6.823678">
        <ele>2068.090</ele>
        <time>2018-07-05T07:05:37Z</time>
      </trkpt>
      <trkpt lat="46.191584" lon="6.823739">
        <ele>2067.097</ele>
        <time>2018-07-05T07:05:42Z</time>
      </trkpt>
      <trkpt lat="46.191560" lon="6.823799">
        <ele>2065.553</ele>
        <time>2018-07-05T07:05:47Z</time>
      </trkpt>
      <trkpt lat="46.191535" lon="6.823854">
        <ele>2063.918</ele>
        <time>2018-07-05T07:05:52Z</time>
      </trkpt>
      <trkpt lat="46.191509" lon="6.823913">
        <ele>2062.459</ele>
        <time>2018-07-05T07:05:57Z</time>
      </trkpt>
      <trkpt lat="46.191484" lon="6.823981">
        <ele>2061.203</ele>
        <time>2018-07-05T07:06:03Z</time>
      </trkpt>
      <trkpt lat="46.191455" lon="6.824035">
        <ele>2059.623</ele>
        <time>2018-07-05T07:06:16Z</time>
      </trkpt>
      <trkpt lat="46.191431" lon="6.824098">
        <ele>2058.408</ele>
        <time>2018-07-05T07:06:50Z</time>
      </trkpt>
      <trkpt lat="46.191400" lon="6.824155">
        <ele>2056.797</ele>
        <time>2018-07-05T07:06:59Z</time>
      </trkpt>
      <trkpt lat="46.191392" lon="6.824080">
        <ele>2055.693</ele>
        <time>2018-07-05T07:07:18Z</time>
      </trkpt>
      <trkpt lat="46.191373" lon="6.824005">
        <ele>2053.925</ele>
        <time>2018-07-05T07:07:23Z</time>
      </trkpt>
      <trkpt lat="46.191361" lon="6.823935">
        <ele>2052.841</ele>
        <time>2018-07-05T07:07:28Z</time>
      </trkpt>
      <trkpt lat="46.191342" lon="6.823870">
        <ele>2051.583</ele>
        <time>2018-07-05T07:07:33Z</time>
      </trkpt>
      <trkpt lat="46.191339" lon="6.823804">
        <ele>2051.480</ele>
        <time>2018-07-05T07:07:38Z</time>
      </trkpt>
      <trkpt lat="46.191334" lon="6.823731">
        <ele>2051.186</ele>
        <time>2018-07-05T07:07:43Z</time>
      </trkpt>
      <trkpt lat="46.191321" lon="6.823656">
        <ele>2050.511</ele>
        <time>2018-07-05T07:07:48Z</time>
      </trkpt>
      <trkpt lat="46.191305" lon="6.823593">
        <ele>2049.974</ele>
        <time>2018-07-05T07:07:52Z</time>
      </trkpt>
      <trkpt lat="46.191284" lon="6.823533">
        <ele>2049.356</ele>
        <time>2018-07-05T07:07:56Z</time>
      </trkpt>
      <trkpt lat="46.191257" lon="6.823481">
        <ele>2048.321</ele>
        <time>2018-07-05T07:08:00Z</time>
      </trkpt>
      <trkpt lat="46.191231" lon="6.823418">
        <ele>2047.408</ele>
        <time>2018-07-05T07:08:05Z</time>
      </trkpt>
      <trkpt lat="46.191213" lon="6.823342">
        <ele>2047.159</ele>
        <time>2018-07-05T07:08:11Z</time>
      </trkpt>
      <trkpt lat="46.191187" lon="6.823286">
        <ele>2046.195</ele>
        <time>2018-07-05T07:08:15Z</time>
      </trkpt>
      <trkpt lat="46.191157" lon="6.823237">
        <ele>2044.987</ele>
        <time>2018-07-05T07:08:19Z</time>
      </trkpt>
      <trkpt lat="46.191128" lon="6.823185">
        <ele>2043.913</ele>
        <time>2018-07-05T07:08:24Z</time>
      </trkpt>
      <trkpt lat="46.191100" lon="6.823133">
        <ele>2043.145</ele>
        <time>2018-07-05T07:08:28Z</time>
      </trkpt>
      <trkpt lat="46.191067" lon="6.823086">
        <ele>2042.362</ele>
        <time>2018-07-05T07:08:32Z</time>
      </trkpt>
      <trkpt lat="46.191030" lon="6.823033">
        <ele>2041.498</ele>
        <time>2018-07-05T07:08:37Z</time>
      </trkpt>
      <trkpt lat="46.190994" lon="6.822990">
        <ele>2040.223</ele>
        <time>2018-07-05T07:08:43Z</time>
      </trkpt>
      <trkpt lat="46.190961" lon="6.822941">
        <ele>2039.137</ele>
        <time>2018-07-05T07:08:48Z</time>
      </trkpt>
      <trkpt lat="46.190915" lon="6.822916">
        <ele>2037.449</ele>
        <time>2018-07-05T07:08:54Z</time>
      </trkpt>
      <trkpt lat="46.190873" lon="6.822874">
        <ele>2035.813</ele>
        <time>2018-07-05T07:09:00Z</time>
      </trkpt>
      <trkpt lat="46.190845" lon="6.822820">
        <ele>2034.608</ele>
        <time>2018-07-05T07:09:07Z</time>
      </trkpt>
      <trkpt lat="46.190808" lon="6.822770">
        <ele>2033.135</ele>
        <time>2018-07-05T07:09:13Z</time>
      </trkpt>
      <trkpt lat="46.190774" lon="6.822723">
        <ele>2031.431</ele>
        <time>2018-07-05T07:09:18Z</time>
      </trkpt>
      <trkpt lat="46.190761" lon="6.822659">
        <ele>2030.373</ele>
        <time>2018-07-05T07:09:24Z</time>
      </trkpt>
      <trkpt lat="46.190757" lon="6.822572">
        <ele>2029.139</ele>
        <time>2018-07-05T07:10:09Z</time>
      </trkpt>
      <trkpt lat="46.190782" lon="6.822507">
        <ele>2029.271</ele>
        <time>2018-07-05T07:10:35Z</time>
      </trkpt>
      <trkpt lat="46.190797" lon="6.822436">
        <ele>2029.078</ele>
        <time>2018-07-05T07:10:40Z</time>
      </trkpt>
      <trkpt lat="46.190806" lon="6.822357">
        <ele>2028.414</ele>
        <time>2018-07-05T07:10:45Z</time>
      </trkpt>
      <trkpt lat="46.190812" lon="6.822287">
        <ele>2027.949</ele>
        <time>2018-07-05T07:10:49Z</time>
      </trkpt>
      <trkpt lat="46.190810" lon="6.822219">
        <ele>2027.133</ele>
        <time>2018-07-05T07:10:53Z</time>
      </trkpt>
      <trkpt lat="46.190792" lon="6.822144">
        <ele>2026.723</ele>
        <time>2018-07-05T07:10:58Z</time>
      </trkpt>
      <trkpt lat="46.190762" lon="6.822088">
        <ele>2025.915</ele>
        <time>2018-07-05T07:11:03Z</time>
      </trkpt>
      <trkpt lat="46.190727" lon="6.822033">
        <ele>2025.008</ele>
        <time>2018-07-05T07:11:08Z</time>
      </trkpt>
      <trkpt lat="46.190690" lon="6.821989">
        <ele>2024.065</ele>
        <time>2018-07-05T07:11:13Z</time>
      </trkpt>
      <trkpt lat="46.190652" lon="6.821942">
        <ele>2023.211</ele>
        <time>2018-07-05T07:11:18Z</time>
      </trkpt>
      <trkpt lat="46.190615" lon="6.821893">
        <ele>2022.673</ele>
        <time>2018-07-05T07:11:23Z</time>
      </trkpt>
      <trkpt lat="46.190574" lon="6.821847">
        <ele>2021.729</ele>
        <time>2018-07-05T07:11:28Z</time>
      </trkpt>
      <trkpt lat="46.190534" lon="6.821797">
        <ele>2020.911</ele>
        <time>2018-07-05T07:11:33Z</time>
      </trkpt>
      <trkpt lat="46.190499" lon="6.821750">
        <ele>2020.298</ele>
        <time>2018-07-05T07:11:37Z</time>
      </trkpt>
      <trkpt lat="46.190464" lon="6.821704">
        <ele>2019.644</ele>
        <time>2018-07-05T07:11:41Z</time>
      </trkpt>
      <trkpt lat="46.190424" lon="6.821648">
        <ele>2019.139</ele>
        <time>2018-07-05T07:11:46Z</time>
      </trkpt>
      <trkpt lat="46.190391" lon="6.821604">
        <ele>2018.911</ele>
        <time>2018-07-05T07:11:50Z</time>
      </trkpt>
      <trkpt lat="46.190355" lon="6.821560">
        <ele>2018.521</ele>
        <time>2018-07-05T07:11:54Z</time>
      </trkpt>
      <trkpt lat="46.190310" lon="6.821521">
        <ele>2017.703</ele>
        <time>2018-07-05T07:11:59Z</time>
      </trkpt>
      <trkpt lat="46.190264" lon="6.821485">
        <ele>2016.908</ele>
        <time>2018-07-05T07:12:04Z</time>
      </trkpt>
      <trkpt lat="46.190215" lon="6.821463">
        <ele>2015.923</ele>
        <time>2018-07-05T07:12:09Z</time>
      </trkpt>
      <trkpt lat="46.190168" lon="6.821444">
        <ele>2014.929</ele>
        <time>2018-07-05T07:12:15Z</time>
      </trkpt>
      <trkpt lat="46.190126" lon="6.821420">
        <ele>2014.111</ele>
        <time>2018-07-05T07:12:20Z</time>
      </trkpt>
      <trkpt lat="46.190081" lon="6.821393">
        <ele>2013.367</ele>
        <time>2018-07-05T07:12:25Z</time>
      </trkpt>
      <trkpt lat="46.190038" lon="6.821361">
        <ele>2012.819</ele>
        <time>2018-07-05T07:12:29Z</time>
      </trkpt>
      <trkpt lat="46.189995" lon="6.821321">
        <ele>2012.656</ele>
        <time>2018-07-05T07:12:38Z</time>
      </trkpt>
      <trkpt lat="46.189952" lon="6.821293">
        <ele>2012.352</ele>
        <time>2018-07-05T07:12:50Z</time>
      </trkpt>
      <trkpt lat="46.189903" lon="6.821272">
        <ele>2011.657</ele>
        <time>2018-07-05T07:12:57Z</time>
      </trkpt>
      <trkpt lat="46.189857" lon="6.821246">
        <ele>2011.383</ele>
        <time>2018-07-05T07:13:02Z</time>
      </trkpt>
      <trkpt lat="46.189812" lon="6.821235">
        <ele>2010.525</ele>
        <time>2018-07-05T07:13:06Z</time>
      </trkpt>
      <trkpt lat="46.189764" lon="6.821201">
        <ele>2010.417</ele>
        <time>2018-07-05T07:13:11Z</time>
      </trkpt>
      <trkpt lat="46.189714" lon="6.821167">
        <ele>2010.208</ele>
        <time>2018-07-05T07:13:16Z</time>
      </trkpt>
      <trkpt lat="46.189669" lon="6.821140">
        <ele>2010.220</ele>
        <time>2018-07-05T07:13:21Z</time>
      </trkpt>
      <trkpt lat="46.189624" lon="6.821117">
        <ele>2010.116</ele>
        <time>2018-07-05T07:13:26Z</time>
      </trkpt>
      <trkpt lat="46.189571" lon="6.821107">
        <ele>2009.428</ele>
        <time>2018-07-05T07:13:31Z</time>
      </trkpt>
      <trkpt lat="46.189517" lon="6.821097">
        <ele>2008.794</ele>
        <time>2018-07-05T07:13:36Z</time>
      </trkpt>
      <trkpt lat="46.189466" lon="6.821073">
        <ele>2008.516</ele>
        <time>2018-07-05T07:13:41Z</time>
      </trkpt>
      <trkpt lat="46.189426" lon="6.821043">
        <ele>2008.693</ele>
        <time>2018-07-05T07:13:45Z</time>
      </trkpt>
      <trkpt lat="46.189374" lon="6.821022">
        <ele>2008.399</ele>
        <time>2018-07-05T07:13:50Z</time>
      </trkpt>
      <trkpt lat="46.189331" lon="6.820994">
        <ele>2008.374</ele>
        <time>2018-07-05T07:13:55Z</time>
      </trkpt>
      <trkpt lat="46.189281" lon="6.820973">
        <ele>2008.043</ele>
        <time>2018-07-05T07:14:02Z</time>
      </trkpt>
      <trkpt lat="46.189233" lon="6.820965">
        <ele>2007.464</ele>
        <time>2018-07-05T07:14:06Z</time>
      </trkpt>
      <trkpt lat="46.189184" lon="6.820949">
        <ele>2007.010</ele>
        <time>2018-07-05T07:14:11Z</time>
      </trkpt>
      <trkpt lat="46.189132" lon="6.820937">
        <ele>2007.008</ele>
        <time>2018-07-05T07:14:16Z</time>
      </trkpt>
      <trkpt lat="46.189083" lon="6.820918">
        <ele>2007.416</ele>
        <time>2018-07-05T07:14:21Z</time>
      </trkpt>
      <trkpt lat="46.189034" lon="6.820916">
        <ele>2007.422</ele>
        <time>2018-07-05T07:14:26Z</time>
      </trkpt>
      <trkpt lat="46.188981" lon="6.820923">
        <ele>2007.254</ele>
        <time>2018-07-05T07:14:31Z</time>
      </trkpt>
      <trkpt lat="46.188928" lon="6.820919">
        <ele>2007.240</ele>
        <time>2018-07-05T07:14:36Z</time>
      </trkpt>
      <trkpt lat="46.188876" lon="6.820932">
        <ele>2006.872</ele>
        <time>2018-07-05T07:14:41Z</time>
      </trkpt>
      <trkpt lat="46.188833" lon="6.820954">
        <ele>2006.269</ele>
        <time>2018-07-05T07:14:45Z</time>
      </trkpt>
      <trkpt lat="46.188779" lon="6.820967">
        <ele>2005.775</ele>
        <time>2018-07-05T07:14:50Z</time>
      </trkpt>
      <trkpt lat="46.188727" lon="6.820976">
        <ele>2005.340</ele>
        <time>2018-07-05T07:14:55Z</time>
      </trkpt>
      <trkpt lat="46.188677" lon="6.820981">
        <ele>2005.033</ele>
        <time>2018-07-05T07:15:00Z</time>
      </trkpt>
      <trkpt lat="46.188631" lon="6.820976">
        <ele>2005.023</ele>
        <time>2018-07-05T07:15:06Z</time>
      </trkpt>
      <trkpt lat="46.188584" lon="6.820967">
        <ele>2004.515</ele>
        <time>2018-07-05T07:15:13Z</time>
      </trkpt>
      <trkpt lat="46.188556" lon="6.821023">
        <ele>2002.708</ele>
        <time>2018-07-05T07:15:40Z</time>
      </trkpt>
      <trkpt lat="46.188507" lon="6.821029">
        <ele>2001.515</ele>
        <time>2018-07-05T07:15:48Z</time>
      </trkpt>
      <trkpt lat="46.188460" lon="6.821028">
        <ele>2000.591</ele>
        <time>2018-07-05T07:15:54Z</time>
      </trkpt>
      <trkpt lat="46.188407" lon="6.821029">
        <ele>1999.493</ele>
        <time>2018-07-05T07:16:00Z</time>
      </trkpt>
      <trkpt lat="46.188361" lon="6.821034">
        <ele>1998.359</ele>
        <time>2018-07-05T07:16:05Z</time>
      </trkpt>
      <trkpt lat="46.188311" lon="6.821033">
        <ele>1997.341</ele>
        <time>2018-07-05T07:16:10Z</time>
      </trkpt>
      <trkpt lat="46.188263" lon="6.821033">
        <ele>1996.328</ele>
        <time>2018-07-05T07:16:15Z</time>
      </trkpt>
      <trkpt lat="46.188219" lon="6.821018">
        <ele>1995.874</ele>
        <time>2018-07-05T07:16:20Z</time>
      </trkpt>
      <trkpt lat="46.188166" lon="6.821013">
        <ele>1994.949</ele>
        <time>2018-07-05T07:16:26Z</time>
      </trkpt>
      <trkpt lat="46.188116" lon="6.821024">
        <ele>1993.799</ele>
        <time>2018-07-05T07:16:32Z</time>
      </trkpt>
      <trkpt lat="46.188068" lon="6.821042">
        <ele>1992.507</ele>
        <time>2018-07-05T07:16:37Z</time>
      </trkpt>
      <trkpt lat="46.188021" lon="6.821041">
        <ele>1991.927</ele>
        <time>2018-07-05T07:16:42Z</time>
      </trkpt>
      <trkpt lat="46.187968" lon="6.821038">
        <ele>1991.308</ele>
        <time>2018-07-05T07:16:47Z</time>
      </trkpt>
      <trkpt lat="46.187915" lon="6.821031">
        <ele>1990.881</ele>
        <time>2018-07-05T07:16:52Z</time>
      </trkpt>
      <trkpt lat="46.187862" lon="6.821023">
        <ele>1990.367</ele>
        <time>2018-07-05T07:16:57Z</time>
      </trkpt>
      <trkpt lat="46.187810" lon="6.821018">
        <ele>1989.779</ele>
        <time>2018-07-05T07:17:02Z</time>
      </trkpt>
      <trkpt lat="46.187760" lon="6.821011">
        <ele>1989.555</ele>
        <time>2018-07-05T07:17:07Z</time>
      </trkpt>
      <trkpt lat="46.187710" lon="6.820994">
        <ele>1989.787</ele>
        <time>2018-07-05T07:17:12Z</time>
      </trkpt>
      <trkpt lat="46.187659" lon="6.820982">
        <ele>1989.984</ele>
        <time>2018-07-05T07:17:18Z</time>
      </trkpt>
      <trkpt lat="46.187614" lon="6.820965">
        <ele>1990.160</ele>
        <time>2018-07-05T07:17:25Z</time>
      </trkpt>
      <trkpt lat="46.187572" lon="6.820930">
        <ele>1990.495</ele>
        <time>2018-07-05T07:17:32Z</time>
      </trkpt>
      <trkpt lat="46.187526" lon="6.820931">
        <ele>1990.324</ele>
        <time>2018-07-05T07:17:38Z</time>
      </trkpt>
      <trkpt lat="46.187480" lon="6.820913">
        <ele>1990.304</ele>
        <time>2018-07-05T07:17:44Z</time>
      </trkpt>
      <trkpt lat="46.187432" lon="6.820900">
        <ele>1990.014</ele>
        <time>2018-07-05T07:17:49Z</time>
      </trkpt>
      <trkpt lat="46.187387" lon="6.820890">
        <ele>1989.708</ele>
        <time>2018-07-05T07:17:54Z</time>
      </trkpt>
      <trkpt lat="46.187340" lon="6.820875">
        <ele>1989.544</ele>
        <time>2018-07-05T07:17:59Z</time>
      </trkpt>
      <trkpt lat="46.187295" lon="6.820862">
        <ele>1989.280</ele>
        <time>2018-07-05T07:18:05Z</time>
      </trkpt>
      <trkpt lat="46.187249" lon="6.820872">
        <ele>1988.832</ele>
        <time>2018-07-05T07:18:10Z</time>
      </trkpt>
      <trkpt lat="46.187203" lon="6.820880">
        <ele>1988.248</ele>
        <time>2018-07-05T07:18:15Z</time>
      </trkpt>
      <trkpt lat="46.187158" lon="6.820892">
        <ele>1987.390</ele>
        <time>2018-07-05T07:18:20Z</time>
      </trkpt>
      <trkpt lat="46.187112" lon="6.820909">
        <ele>1986.487</ele>
        <time>2018-07-05T07:18:26Z</time>
      </trkpt>
      <trkpt lat="46.187059" lon="6.820919">
        <ele>1985.413</ele>
        <time>2018-07-05T07:18:33Z</time>
      </trkpt>
      <trkpt lat="46.187014" lon="6.820934">
        <ele>1984.458</ele>
        <time>2018-07-05T07:18:38Z</time>
      </trkpt>
      <trkpt lat="46.186960" lon="6.820938">
        <ele>1983.475</ele>
        <time>2018-07-05T07:18:44Z</time>
      </trkpt>
      <trkpt lat="46.186917" lon="6.820969">
        <ele>1982.828</ele>
        <time>2018-07-05T07:18:49Z</time>
      </trkpt>
      <trkpt lat="46.186871" lon="6.821007">
        <ele>1982.420</ele>
        <time>2018-07-05T07:18:54Z</time>
      </trkpt>
      <trkpt lat="46.186829" lon="6.821056">
        <ele>1981.808</ele>
        <time>2018-07-05T07:18:59Z</time>
      </trkpt>
      <trkpt lat="46.186794" lon="6.821109">
        <ele>1981.149</ele>
        <time>2018-07-05T07:19:04Z</time>
      </trkpt>
      <trkpt lat="46.186768" lon="6.821179">
        <ele>1980.525</ele>
        <time>2018-07-05T07:19:09Z</time>
      </trkpt>
      <trkpt lat="46.186753" lon="6.821242">
        <ele>1979.867</ele>
        <time>2018-07-05T07:19:13Z</time>
      </trkpt>
      <trkpt lat="46.186744" lon="6.821307">
        <ele>1979.053</ele>
        <time>2018-07-05T07:19:17Z</time>
      </trkpt>
      <trkpt lat="46.186726" lon="6.821374">
        <ele>1978.215</ele>
        <time>2018-07-05T07:19:22Z</time>
      </trkpt>
      <trkpt lat="46.186716" lon="6.821449">
        <ele>1977.262</ele>
        <time>2018-07-05T07:19:27Z</time>
      </trkpt>
      <trkpt lat="46.186702" lon="6.821526">
        <ele>1976.278</ele>
        <time>2018-07-05T07:19:32Z</time>
      </trkpt>
      <trkpt lat="46.186697" lon="6.821602">
        <ele>1975.113</ele>
        <time>2018-07-05T07:19:37Z</time>
      </trkpt>
      <trkpt lat="46.186692" lon="6.821672">
        <ele>1974.084</ele>
        <time>2018-07-05T07:19:42Z</time>
      </trkpt>
      <trkpt lat="46.186695" lon="6.821744">
        <ele>1972.207</ele>
        <time>2018-07-05T07:19:47Z</time>
      </trkpt>
      <trkpt lat="46.186694" lon="6.821825">
        <ele>1970.117</ele>
        <time>2018-07-05T07:19:52Z</time>
      </trkpt>
      <trkpt lat="46.186688" lon="6.821901">
        <ele>1968.108</ele>
        <time>2018-07-05T07:19:57Z</time>
      </trkpt>
      <trkpt lat="46.186672" lon="6.821966">
        <ele>1966.290</ele>
        <time>2018-07-05T07:20:02Z</time>
      </trkpt>
      <trkpt lat="46.186641" lon="6.822029">
        <ele>1964.846</ele>
        <time>2018-07-05T07:20:08Z</time>
      </trkpt>
      <trkpt lat="46.186621" lon="6.822097">
        <ele>1963.288</ele>
        <time>2018-07-05T07:20:13Z</time>
      </trkpt>
      <trkpt lat="46.186595" lon="6.822160">
        <ele>1962.024</ele>
        <time>2018-07-05T07:20:18Z</time>
      </trkpt>
      <trkpt lat="46.186565" lon="6.822209">
        <ele>1961.556</ele>
        <time>2018-07-05T07:20:23Z</time>
      </trkpt>
      <trkpt lat="46.186534" lon="6.822265">
        <ele>1960.773</ele>
        <time>2018-07-05T07:20:29Z</time>
      </trkpt>
      <trkpt lat="46.186495" lon="6.822299">
        <ele>1961.029</ele>
        <time>2018-07-05T07:20:35Z</time>
      </trkpt>
      <trkpt lat="46.186462" lon="6.822345">
        <ele>1960.514</ele>
        <time>2018-07-05T07:20:41Z</time>
      </trkpt>
      <trkpt lat="46.186439" lon="6.822407">
        <ele>1958.946</ele>
        <time>2018-07-05T07:20:47Z</time>
      </trkpt>
      <trkpt lat="46.186413" lon="6.822461">
        <ele>1957.788</ele>
        <time>2018-07-05T07:20:54Z</time>
      </trkpt>
      <trkpt lat="46.186366" lon="6.822461">
        <ele>1958.116</ele>
        <time>2018-07-05T07:21:00Z</time>
      </trkpt>
      <trkpt lat="46.186316" lon="6.822444">
        <ele>1957.708</ele>
        <time>2018-07-05T07:21:14Z</time>
      </trkpt>
      <trkpt lat="46.186267" lon="6.822411">
        <ele>1958.296</ele>
        <time>2018-07-05T07:21:20Z</time>
      </trkpt>
      <trkpt lat="46.186222" lon="6.822402">
        <ele>1957.752</ele>
        <time>2018-07-05T07:21:25Z</time>
      </trkpt>
      <trkpt lat="46.186175" lon="6.822379">
        <ele>1957.894</ele>
        <time>2018-07-05T07:21:30Z</time>
      </trkpt>
      <trkpt lat="46.186130" lon="6.822359">
        <ele>1957.910</ele>
        <time>2018-07-05T07:21:35Z</time>
      </trkpt>
      <trkpt lat="46.186085" lon="6.822346">
        <ele>1957.242</ele>
        <time>2018-07-05T07:21:43Z</time>
      </trkpt>
      <trkpt lat="46.186037" lon="6.822343">
        <ele>1955.659</ele>
        <time>2018-07-05T07:21:49Z</time>
      </trkpt>
      <trkpt lat="46.185987" lon="6.822334">
        <ele>1954.165</ele>
        <time>2018-07-05T07:21:55Z</time>
      </trkpt>
      <trkpt lat="46.185936" lon="6.822321">
        <ele>1952.880</ele>
        <time>2018-07-05T07:22:01Z</time>
      </trkpt>
      <trkpt lat="46.185892" lon="6.822304">
        <ele>1952.117</ele>
        <time>2018-07-05T07:22:06Z</time>
      </trkpt>
      <trkpt lat="46.185847" lon="6.822307">
        <ele>1950.287</ele>
        <time>2018-07-05T07:22:11Z</time>
      </trkpt>
      <trkpt lat="46.185797" lon="6.822290">
        <ele>1949.115</ele>
        <time>2018-07-05T07:22:16Z</time>
      </trkpt>
      <trkpt lat="46.185750" lon="6.822261">
        <ele>1948.608</ele>
        <time>2018-07-05T07:22:21Z</time>
      </trkpt>
      <trkpt lat="46.185705" lon="6.822223">
        <ele>1948.423</ele>
        <time>2018-07-05T07:22:27Z</time>
      </trkpt>
      <trkpt lat="46.185662" lon="6.822193">
        <ele>1947.749</ele>
        <time>2018-07-05T07:22:33Z</time>
      </trkpt>
      <trkpt lat="46.185621" lon="6.822154">
        <ele>1947.261</ele>
        <time>2018-07-05T07:22:39Z</time>
      </trkpt>
      <trkpt lat="46.185580" lon="6.822113">
        <ele>1946.727</ele>
        <time>2018-07-05T07:22:46Z</time>
      </trkpt>
      <trkpt lat="46.185536" lon="6.822084">
        <ele>1945.269</ele>
        <time>2018-07-05T07:22:53Z</time>
      </trkpt>
      <trkpt lat="46.185497" lon="6.822041">
        <ele>1944.036</ele>
        <time>2018-07-05T07:22:59Z</time>
      </trkpt>
      <trkpt lat="46.185460" lon="6.822000">
        <ele>1942.862</ele>
        <time>2018-07-05T07:23:08Z</time>
      </trkpt>
      <trkpt lat="46.185421" lon="6.821960">
        <ele>1941.397</ele>
        <time>2018-07-05T07:23:16Z</time>
      </trkpt>
      <trkpt lat="46.185375" lon="6.821928">
        <ele>1939.111</ele>
        <time>2018-07-05T07:23:24Z</time>
      </trkpt>
      <trkpt lat="46.185338" lon="6.821889">
        <ele>1937.821</ele>
        <time>2018-07-05T07:23:31Z</time>
      </trkpt>
      <trkpt lat="46.185294" lon="6.821851">
        <ele>1935.803</ele>
        <time>2018-07-05T07:23:38Z</time>
      </trkpt>
      <trkpt lat="46.185265" lon="6.821801">
        <ele>1935.508</ele>
        <time>2018-07-05T07:23:46Z</time>
      </trkpt>
      <trkpt lat="46.185225" lon="6.821758">
        <ele>1935.043</ele>
        <time>2018-07-05T07:23:55Z</time>
      </trkpt>
      <trkpt lat="46.185180" lon="6.821729">
        <ele>1933.819</ele>
        <time>2018-07-05T07:24:04Z</time>
      </trkpt>
      <trkpt lat="46.185133" lon="6.821718">
        <ele>1932.191</ele>
        <time>2018-07-05T07:24:15Z</time>
      </trkpt>
      <trkpt lat="46.185084" lon="6.821721">
        <ele>1929.887</ele>
        <time>2018-07-05T07:24:23Z</time>
      </trkpt>
      <trkpt lat="46.185033" lon="6.821723">
        <ele>1927.429</ele>
        <time>2018-07-05T07:24:30Z</time>
      </trkpt>
      <trkpt lat="46.184987" lon="6.821730">
        <ele>1925.316</ele>
        <time>2018-07-05T07:24:36Z</time>
      </trkpt>
      <trkpt lat="46.184938" lon="6.821711">
        <ele>1924.442</ele>
        <time>2018-07-05T07:24:44Z</time>
      </trkpt>
      <trkpt lat="46.184890" lon="6.821704">
        <ele>1923.167</ele>
        <time>2018-07-05T07:24:52Z</time>
      </trkpt>
      <trkpt lat="46.184840" lon="6.821701">
        <ele>1921.678</ele>
        <time>2018-07-05T07:25:06Z</time>
      </trkpt>
      <trkpt lat="46.184795" lon="6.821711">
        <ele>1919.833</ele>
        <time>2018-07-05T07:25:14Z</time>
      </trkpt>
      <trkpt lat="46.184746" lon="6.821719">
        <ele>1917.926</ele>
        <time>2018-07-05T07:25:26Z</time>
      </trkpt>
      <trkpt lat="46.184698" lon="6.821712">
        <ele>1916.708</ele>
        <time>2018-07-05T07:25:37Z</time>
      </trkpt>
      <trkpt lat="46.184651" lon="6.821704">
        <ele>1915.679</ele>
        <time>2018-07-05T07:25:49Z</time>
      </trkpt>
      <trkpt lat="46.184611" lon="6.821752">
        <ele>1912.865</ele>
        <time>2018-07-05T07:26:01Z</time>
      </trkpt>
      <trkpt lat="46.184585" lon="6.821810">
        <ele>1910.187</ele>
        <time>2018-07-05T07:26:15Z</time>
      </trkpt>
      <trkpt lat="46.184539" lon="6.821810">
        <ele>1908.993</ele>
        <time>2018-07-05T07:26:30Z</time>
      </trkpt>
      <trkpt lat="46.184494" lon="6.821795">
        <ele>1908.215</ele>
        <time>2018-07-05T07:26:46Z</time>
      </trkpt>
      <trkpt lat="46.184447" lon="6.821810">
        <ele>1906.432</ele>
        <time>2018-07-05T07:27:08Z</time>
      </trkpt>
      <trkpt lat="46.184399" lon="6.821825">
        <ele>1905.028</ele>
        <time>2018-07-05T07:27:15Z</time>
      </trkpt>
      <trkpt lat="46.184350" lon="6.821845">
        <ele>1903.423</ele>
        <time>2018-07-05T07:27:25Z</time>
      </trkpt>
      <trkpt lat="46.184301" lon="6.821864">
        <ele>1901.967</ele>
        <time>2018-07-05T07:27:34Z</time>
      </trkpt>
      <trkpt lat="46.184255" lon="6.821893">
        <ele>1900.181</ele>
        <time>2018-07-05T07:27:42Z</time>
      </trkpt>
      <trkpt lat="46.184211" lon="6.821921">
        <ele>1898.519</ele>
        <time>2018-07-05T07:27:49Z</time>
      </trkpt>
      <trkpt lat="46.184165" lon="6.821910">
        <ele>1898.008</ele>
        <time>2018-07-05T07:27:56Z</time>
      </trkpt>
      <trkpt lat="46.184116" lon="6.821899">
        <ele>1897.878</ele>
        <time>2018-07-05T07:28:05Z</time>
      </trkpt>
      <trkpt lat="46.184067" lon="6.821905">
        <ele>1897.174</ele>
        <time>2018-07-05T07:28:12Z</time>
      </trkpt>
      <trkpt lat="46.184014" lon="6.821917">
        <ele>1896.246</ele>
        <time>2018-07-05T07:28:18Z</time>
      </trkpt>
      <trkpt lat="46.183962" lon="6.821933">
        <ele>1895.292</ele>
        <time>2018-07-05T07:28:24Z</time>
      </trkpt>
      <trkpt lat="46.183918" lon="6.821969">
        <ele>1893.614</ele>
        <time>2018-07-05T07:28:29Z</time>
      </trkpt>
      <trkpt lat="46.183878" lon="6.822016">
        <ele>1891.931</ele>
        <time>2018-07-05T07:28:36Z</time>
      </trkpt>
      <trkpt lat="46.183837" lon="6.822049">
        <ele>1890.867</ele>
        <time>2018-07-05T07:28:42Z</time>
      </trkpt>
      <trkpt lat="46.183787" lon="6.822058">
        <ele>1890.362</ele>
        <time>2018-07-05T07:28:47Z</time>
      </trkpt>
      <trkpt lat="46.183735" lon="6.822063">
        <ele>1889.919</ele>
        <time>2018-07-05T07:28:53Z</time>
      </trkpt>
      <trkpt lat="46.183685" lon="6.822059">
        <ele>1889.809</ele>
        <time>2018-07-05T07:29:00Z</time>
      </trkpt>
      <trkpt lat="46.183638" lon="6.822067">
        <ele>1889.319</ele>
        <time>2018-07-05T07:29:07Z</time>
      </trkpt>
      <trkpt lat="46.183592" lon="6.822074">
        <ele>1888.708</ele>
        <time>2018-07-05T07:29:12Z</time>
      </trkpt>
      <trkpt lat="46.183549" lon="6.822097">
        <ele>1887.463</ele>
        <time>2018-07-05T07:29:17Z</time>
      </trkpt>
      <trkpt lat="46.183505" lon="6.822124">
        <ele>1886.059</ele>
        <time>2018-07-05T07:29:22Z</time>
      </trkpt>
      <trkpt lat="46.183462" lon="6.822142">
        <ele>1884.911</ele>
        <time>2018-07-05T07:29:27Z</time>
      </trkpt>
      <trkpt lat="46.183414" lon="6.822139">
        <ele>1884.797</ele>
        <time>2018-07-05T07:29:32Z</time>
      </trkpt>
      <trkpt lat="46.183361" lon="6.822136">
        <ele>1884.319</ele>
        <time>2018-07-05T07:29:38Z</time>
      </trkpt>
      <trkpt lat="46.183310" lon="6.822158">
        <ele>1883.146</ele>
        <time>2018-07-05T07:29:44Z</time>
      </trkpt>
      <trkpt lat="46.183263" lon="6.822180">
        <ele>1882.052</ele>
        <time>2018-07-05T07:29:50Z</time>
      </trkpt>
      <trkpt lat="46.183217" lon="6.822194">
        <ele>1881.267</ele>
        <time>2018-07-05T07:29:56Z</time>
      </trkpt>
      <trkpt lat="46.183172" lon="6.822211">
        <ele>1880.229</ele>
        <time>2018-07-05T07:30:03Z</time>
      </trkpt>
      <trkpt lat="46.183123" lon="6.822217">
        <ele>1879.700</ele>
        <time>2018-07-05T07:30:09Z</time>
      </trkpt>
      <trkpt lat="46.183074" lon="6.822237">
        <ele>1878.520</ele>
        <time>2018-07-05T07:30:16Z</time>
      </trkpt>
      <trkpt lat="46.183031" lon="6.822277">
        <ele>1876.508</ele>
        <time>2018-07-05T07:30:23Z</time>
      </trkpt>
      <trkpt lat="46.182990" lon="6.822319">
        <ele>1874.424</ele>
        <time>2018-07-05T07:30:31Z</time>
      </trkpt>
      <trkpt lat="46.182948" lon="6.822357">
        <ele>1872.580</ele>
        <time>2018-07-05T07:30:38Z</time>
      </trkpt>
      <trkpt lat="46.182904" lon="6.822379">
        <ele>1871.252</ele>
        <time>2018-07-05T07:30:44Z</time>
      </trkpt>
      <trkpt lat="46.182865" lon="6.822415">
        <ele>1869.678</ele>
        <time>2018-07-05T07:30:50Z</time>
      </trkpt>
      <trkpt lat="46.182816" lon="6.822441">
        <ele>1868.250</ele>
        <time>2018-07-05T07:30:56Z</time>
      </trkpt>
      <trkpt lat="46.182767" lon="6.822459">
        <ele>1867.347</ele>
        <time>2018-07-05T07:31:02Z</time>
      </trkpt>
      <trkpt lat="46.182723" lon="6.822482">
        <ele>1866.383</ele>
        <time>2018-07-05T07:31:08Z</time>
      </trkpt>
      <trkpt lat="46.182678" lon="6.822501">
        <ele>1865.638</ele>
        <time>2018-07-05T07:31:14Z</time>
      </trkpt>
      <trkpt lat="46.182636" lon="6.822536">
        <ele>1864.863</ele>
        <time>2018-07-05T07:31:30Z</time>
      </trkpt>
      <trkpt lat="46.182595" lon="6.822573">
        <ele>1864.244</ele>
        <time>2018-07-05T07:32:41Z</time>
      </trkpt>
      <trkpt lat="46.182571" lon="6.822628">
        <ele>1863.418</ele>
        <time>2018-07-05T07:32:49Z</time>
      </trkpt>
      <trkpt lat="46.182588" lon="6.822699">
        <ele>1862.308</ele>
        <time>2018-07-05T07:32:57Z</time>
      </trkpt>
      <trkpt lat="46.182614" lon="6.822760">
        <ele>1861.178</ele>
        <time>2018-07-05T07:33:05Z</time>
      </trkpt>
      <trkpt lat="46.182658" lon="6.822795">
        <ele>1860.124</ele>
        <time>2018-07-05T07:33:11Z</time>
      </trkpt>
      <trkpt lat="46.182697" lon="6.822846">
        <ele>1859.126</ele>
        <time>2018-07-05T07:33:18Z</time>
      </trkpt>
      <trkpt lat="46.182735" lon="6.822892">
        <ele>1858.252</ele>
        <time>2018-07-05T07:33:23Z</time>
      </trkpt>
      <trkpt lat="46.182781" lon="6.822916">
        <ele>1857.574</ele>
        <time>2018-07-05T07:33:28Z</time>
      </trkpt>
      <trkpt lat="46.182829" lon="6.822952">
        <ele>1856.951</ele>
        <time>2018-07-05T07:33:34Z</time>
      </trkpt>
      <trkpt lat="46.182871" lon="6.822985">
        <ele>1856.327</ele>
        <time>2018-07-05T07:33:39Z</time>
      </trkpt>
      <trkpt lat="46.182909" lon="6.823032">
        <ele>1855.482</ele>
        <time>2018-07-05T07:33:44Z</time>
      </trkpt>
      <trkpt lat="46.182940" lon="6.823088">
        <ele>1854.521</ele>
        <time>2018-07-05T07:33:49Z</time>
      </trkpt>
      <trkpt lat="46.182972" lon="6.823147">
        <ele>1853.741</ele>
        <time>2018-07-05T07:33:54Z</time>
      </trkpt>
      <trkpt lat="46.183004" lon="6.823200">
        <ele>1852.905</ele>
        <time>2018-07-05T07:33:59Z</time>
      </trkpt>
      <trkpt lat="46.183041" lon="6.823252">
        <ele>1852.008</ele>
        <time>2018-07-05T07:34:04Z</time>
      </trkpt>
      <trkpt lat="46.183068" lon="6.823306">
        <ele>1851.274</ele>
        <time>2018-07-05T07:34:09Z</time>
      </trkpt>
      <trkpt lat="46.183095" lon="6.823366">
        <ele>1850.240</ele>
        <time>2018-07-05T07:34:14Z</time>
      </trkpt>
      <trkpt lat="46.183113" lon="6.823439">
        <ele>1848.822</ele>
        <time>2018-07-05T07:34:19Z</time>
      </trkpt>
      <trkpt lat="46.183128" lon="6.823501">
        <ele>1847.628</ele>
        <time>2018-07-05T07:34:23Z</time>
      </trkpt>
      <trkpt lat="46.183144" lon="6.823565">
        <ele>1846.270</ele>
        <time>2018-07-05T07:34:27Z</time>
      </trkpt>
      <trkpt lat="46.183152" lon="6.823630">
        <ele>1845.097</ele>
        <time>2018-07-05T07:34:31Z</time>
      </trkpt>
      <trkpt lat="46.183155" lon="6.823706">
        <ele>1844.163</ele>
        <time>2018-07-05T07:34:36Z</time>
      </trkpt>
      <trkpt lat="46.183162" lon="6.823775">
        <ele>1843.258</ele>
        <time>2018-07-05T07:34:45Z</time>
      </trkpt>
      <trkpt lat="46.183162" lon="6.823845">
        <ele>1842.492</ele>
        <time>2018-07-05T07:34:55Z</time>
      </trkpt>
      <trkpt lat="46.183156" lon="6.823911">
        <ele>1841.973</ele>
        <time>2018-07-05T07:35:03Z</time>
      </trkpt>
      <trkpt lat="46.183135" lon="6.823972">
        <ele>1841.920</ele>
        <time>2018-07-05T07:35:10Z</time>
      </trkpt>
      <trkpt lat="46.183118" lon="6.824034">
        <ele>1841.908</ele>
        <time>2018-07-05T07:35:32Z</time>
      </trkpt>
      <trkpt lat="46.183060" lon="6.824048">
        <ele>1842.411</ele>
        <time>2018-07-05T07:35:43Z</time>
      </trkpt>
      <trkpt lat="46.183096" lon="6.824005">
        <ele>1842.217</ele>
        <time>2018-07-05T07:35:55Z</time>
      </trkpt>
      <trkpt lat="46.183050" lon="6.824003">
        <ele>1842.689</ele>
        <time>2018-07-05T07:36:16Z</time>
      </trkpt>
      <trkpt lat="46.183007" lon="6.823953">
        <ele>1843.135</ele>
        <time>2018-07-05T07:36:21Z</time>
      </trkpt>
      <trkpt lat="46.182964" lon="6.823901">
        <ele>1843.677</ele>
        <time>2018-07-05T07:36:26Z</time>
      </trkpt>
      <trkpt lat="46.182925" lon="6.823862">
        <ele>1844.344</ele>
        <time>2018-07-05T07:36:31Z</time>
      </trkpt>
      <trkpt lat="46.182878" lon="6.823838">
        <ele>1845.080</ele>
        <time>2018-07-05T07:36:35Z</time>
      </trkpt>
      <trkpt lat="46.182826" lon="6.823820">
        <ele>1845.635</ele>
        <time>2018-07-05T07:36:41Z</time>
      </trkpt>
      <trkpt lat="46.182778" lon="6.823792">
        <ele>1846.439</ele>
        <time>2018-07-05T07:36:45Z</time>
      </trkpt>
      <trkpt lat="46.182732" lon="6.823764">
        <ele>1846.601</ele>
        <time>2018-07-05T07:36:49Z</time>
      </trkpt>
      <trkpt lat="46.182688" lon="6.823747">
        <ele>1846.721</ele>
        <time>2018-07-05T07:36:53Z</time>
      </trkpt>
      <trkpt lat="46.182637" lon="6.823739">
        <ele>1846.708</ele>
        <time>2018-07-05T07:36:58Z</time>
      </trkpt>
      <trkpt lat="46.182586" lon="6.823730">
        <ele>1846.745</ele>
        <time>2018-07-05T07:37:03Z</time>
      </trkpt>
      <trkpt lat="46.182533" lon="6.823729">
        <ele>1846.621</ele>
        <time>2018-07-05T07:37:08Z</time>
      </trkpt>
      <trkpt lat="46.182484" lon="6.823716">
        <ele>1846.353</ele>
        <time>2018-07-05T07:37:19Z</time>
      </trkpt>
      <trkpt lat="46.182456" lon="6.823659">
        <ele>1846.849</ele>
        <time>2018-07-05T07:37:39Z</time>
      </trkpt>
      <trkpt lat="46.182421" lon="6.823613">
        <ele>1846.791</ele>
        <time>2018-07-05T07:37:44Z</time>
      </trkpt>
      <trkpt lat="46.182380" lon="6.823558">
        <ele>1846.668</ele>
        <time>2018-07-05T07:37:49Z</time>
      </trkpt>
      <trkpt lat="46.182346" lon="6.823501">
        <ele>1846.884</ele>
        <time>2018-07-05T07:37:53Z</time>
      </trkpt>
      <trkpt lat="46.182313" lon="6.823447">
        <ele>1847.019</ele>
        <time>2018-07-05T07:37:57Z</time>
      </trkpt>
      <trkpt lat="46.182275" lon="6.823388">
        <ele>1847.229</ele>
        <time>2018-07-05T07:38:01Z</time>
      </trkpt>
      <trkpt lat="46.182239" lon="6.823337">
        <ele>1847.300</ele>
        <time>2018-07-05T07:38:05Z</time>
      </trkpt>
      <trkpt lat="46.182202" lon="6.823293">
        <ele>1847.620</ele>
        <time>2018-07-05T07:38:09Z</time>
      </trkpt>
      <trkpt lat="46.182159" lon="6.823260">
        <ele>1847.908</ele>
        <time>2018-07-05T07:38:13Z</time>
      </trkpt>
      <trkpt lat="46.182115" lon="6.823238">
        <ele>1847.984</ele>
        <time>2018-07-05T07:38:17Z</time>
      </trkpt>
      <trkpt lat="46.182062" lon="6.823242">
        <ele>1847.540</ele>
        <time>2018-07-05T07:38:22Z</time>
      </trkpt>
      <trkpt lat="46.182015" lon="6.823281">
        <ele>1846.812</ele>
        <time>2018-07-05T07:38:27Z</time>
      </trkpt>
      <trkpt lat="46.181981" lon="6.823346">
        <ele>1846.098</ele>
        <time>2018-07-05T07:38:32Z</time>
      </trkpt>
      <trkpt lat="46.181955" lon="6.823401">
        <ele>1845.370</ele>
        <time>2018-07-05T07:38:36Z</time>
      </trkpt>
      <trkpt lat="46.181927" lon="6.823462">
        <ele>1844.697</ele>
        <time>2018-07-05T07:38:41Z</time>
      </trkpt>
      <trkpt lat="46.181894" lon="6.823522">
        <ele>1844.033</ele>
        <time>2018-07-05T07:38:46Z</time>
      </trkpt>
      <trkpt lat="46.181855" lon="6.823572">
        <ele>1843.428</ele>
        <time>2018-07-05T07:38:51Z</time>
      </trkpt>
      <trkpt lat="46.181812" lon="6.823612">
        <ele>1843.064</ele>
        <time>2018-07-05T07:38:56Z</time>
      </trkpt>
      <trkpt lat="46.181771" lon="6.823650">
        <ele>1842.406</ele>
        <time>2018-07-05T07:39:01Z</time>
      </trkpt>
      <trkpt lat="46.181730" lon="6.823689">
        <ele>1841.916</ele>
        <time>2018-07-05T07:39:06Z</time>
      </trkpt>
      <trkpt lat="46.181687" lon="6.823737">
        <ele>1841.208</ele>
        <time>2018-07-05T07:39:11Z</time>
      </trkpt>
      <trkpt lat="46.181655" lon="6.823783">
        <ele>1840.628</ele>
        <time>2018-07-05T07:39:15Z</time>
      </trkpt>
      <trkpt lat="46.181624" lon="6.823837">
        <ele>1839.924</ele>
        <time>2018-07-05T07:39:19Z</time>
      </trkpt>
      <trkpt lat="46.181599" lon="6.823897">
        <ele>1839.186</ele>
        <time>2018-07-05T07:39:23Z</time>
      </trkpt>
      <trkpt lat="46.181577" lon="6.823965">
        <ele>1837.832</ele>
        <time>2018-07-05T07:39:27Z</time>
      </trkpt>
      <trkpt lat="46.181558" lon="6.824038">
        <ele>1836.544</ele>
        <time>2018-07-05T07:39:32Z</time>
      </trkpt>
      <trkpt lat="46.181543" lon="6.824100">
        <ele>1835.521</ele>
        <time>2018-07-05T07:39:37Z</time>
      </trkpt>
      <trkpt lat="46.181524" lon="6.824169">
        <ele>1834.537</ele>
        <time>2018-07-05T07:39:42Z</time>
      </trkpt>
      <trkpt lat="46.181484" lon="6.824219">
        <ele>1834.232</ele>
        <time>2018-07-05T07:39:46Z</time>
      </trkpt>
      <trkpt lat="46.181438" lon="6.824257">
        <ele>1834.224</ele>
        <time>2018-07-05T07:39:50Z</time>
      </trkpt>
      <trkpt lat="46.181391" lon="6.824282">
        <ele>1834.504</ele>
        <time>2018-07-05T07:39:54Z</time>
      </trkpt>
      <trkpt lat="46.181348" lon="6.824299">
        <ele>1834.114</ele>
        <time>2018-07-05T07:39:58Z</time>
      </trkpt>
      <trkpt lat="46.181297" lon="6.824308">
        <ele>1833.908</ele>
        <time>2018-07-05T07:40:02Z</time>
      </trkpt>
      <trkpt lat="46.181248" lon="6.824318">
        <ele>1833.754</ele>
        <time>2018-07-05T07:40:06Z</time>
      </trkpt>
      <trkpt lat="46.181196" lon="6.824323">
        <ele>1833.590</ele>
        <time>2018-07-05T07:40:10Z</time>
      </trkpt>
      <trkpt lat="46.181148" lon="6.824326">
        <ele>1833.432</ele>
        <time>2018-07-05T07:40:14Z</time>
      </trkpt>
      <trkpt lat="46.181102" lon="6.824319">
        <ele>1833.518</ele>
        <time>2018-07-05T07:40:18Z</time>
      </trkpt>
      <trkpt lat="46.181054" lon="6.824317">
        <ele>1833.280</ele>
        <time>2018-07-05T07:40:22Z</time>
      </trkpt>
      <trkpt lat="46.181005" lon="6.824322">
        <ele>1832.647</ele>
        <time>2018-07-05T07:40:26Z</time>
      </trkpt>
      <trkpt lat="46.180956" lon="6.824340">
        <ele>1831.783</ele>
        <time>2018-07-05T07:40:30Z</time>
      </trkpt>
      <trkpt lat="46.180910" lon="6.824367">
        <ele>1830.688</ele>
        <time>2018-07-05T07:40:34Z</time>
      </trkpt>
      <trkpt lat="46.180864" lon="6.824391">
        <ele>1829.617</ele>
        <time>2018-07-05T07:40:38Z</time>
      </trkpt>
      <trkpt lat="46.180811" lon="6.824418">
        <ele>1828.787</ele>
        <time>2018-07-05T07:40:42Z</time>
      </trkpt>
      <trkpt lat="46.180757" lon="6.824437">
        <ele>1828.215</ele>
        <time>2018-07-05T07:40:46Z</time>
      </trkpt>
      <trkpt lat="46.180700" lon="6.824448">
        <ele>1827.908</ele>
        <time>2018-07-05T07:40:50Z</time>
      </trkpt>
      <trkpt lat="46.180644" lon="6.824449">
        <ele>1827.913</ele>
        <time>2018-07-05T07:40:54Z</time>
      </trkpt>
      <trkpt lat="46.180591" lon="6.824455">
        <ele>1827.859</ele>
        <time>2018-07-05T07:40:58Z</time>
      </trkpt>
      <trkpt lat="46.180540" lon="6.824465">
        <ele>1827.721</ele>
        <time>2018-07-05T07:41:02Z</time>
      </trkpt>
      <trkpt lat="46.180491" lon="6.824478">
        <ele>1827.397</ele>
        <time>2018-07-05T07:41:06Z</time>
      </trkpt>
      <trkpt lat="46.180440" lon="6.824494">
        <ele>1826.959</ele>
        <time>2018-07-05T07:41:10Z</time>
      </trkpt>
      <trkpt lat="46.180390" lon="6.824524">
        <ele>1826.416</ele>
        <time>2018-07-05T07:41:14Z</time>
      </trkpt>
      <trkpt lat="46.180342" lon="6.824564">
        <ele>1825.852</ele>
        <time>2018-07-05T07:41:18Z</time>
      </trkpt>
      <trkpt lat="46.180292" lon="6.824604">
        <ele>1825.387</ele>
        <time>2018-07-05T07:41:22Z</time>
      </trkpt>
      <trkpt lat="46.180245" lon="6.824635">
        <ele>1825.651</ele>
        <time>2018-07-05T07:41:26Z</time>
      </trkpt>
      <trkpt lat="46.180203" lon="6.824663">
        <ele>1826.101</ele>
        <time>2018-07-05T07:41:30Z</time>
      </trkpt>
      <trkpt lat="46.180161" lon="6.824697">
        <ele>1826.511</ele>
        <time>2018-07-05T07:41:34Z</time>
      </trkpt>
      <trkpt lat="46.180120" lon="6.824731">
        <ele>1826.808</ele>
        <time>2018-07-05T07:41:38Z</time>
      </trkpt>
      <trkpt lat="46.180079" lon="6.824759">
        <ele>1827.257</ele>
        <time>2018-07-05T07:41:42Z</time>
      </trkpt>
      <trkpt lat="46.180034" lon="6.824784">
        <ele>1827.733</ele>
        <time>2018-07-05T07:41:46Z</time>
      </trkpt>
      <trkpt lat="46.179993" lon="6.824810">
        <ele>1828.165</ele>
        <time>2018-07-05T07:41:50Z</time>
      </trkpt>
      <trkpt lat="46.179942" lon="6.824836">
        <ele>1828.371</ele>
        <time>2018-07-05T07:41:55Z</time>
      </trkpt>
      <trkpt lat="46.179898" lon="6.824866">
        <ele>1828.453</ele>
        <time>2018-07-05T07:42:00Z</time>
      </trkpt>
      <trkpt lat="46.179855" lon="6.824896">
        <ele>1828.590</ele>
        <time>2018-07-05T07:42:04Z</time>
      </trkpt>
      <trkpt lat="46.179813" lon="6.824933">
        <ele>1828.696</ele>
        <time>2018-07-05T07:42:08Z</time>
      </trkpt>
      <trkpt lat="46.179769" lon="6.824981">
        <ele>1828.631</ele>
        <time>2018-07-05T07:42:13Z</time>
      </trkpt>
      <trkpt lat="46.179741" lon="6.825035">
        <ele>1828.749</ele>
        <time>2018-07-05T07:42:17Z</time>
      </trkpt>
      <trkpt lat="46.179721" lon="6.825093">
        <ele>1828.702</ele>
        <time>2018-07-05T07:42:21Z</time>
      </trkpt>
      <trkpt lat="46.179698" lon="6.825153">
        <ele>1828.622</ele>
        <time>2018-07-05T07:42:25Z</time>
      </trkpt>
      <trkpt lat="46.179675" lon="6.825214">
        <ele>1828.508</ele>
        <time>2018-07-05T07:42:29Z</time>
      </trkpt>
      <trkpt lat="46.179644" lon="6.825269">
        <ele>1828.336</ele>
        <time>2018-07-05T07:42:33Z</time>
      </trkpt>
      <trkpt lat="46.179612" lon="6.825320">
        <ele>1828.542</ele>
        <time>2018-07-05T07:42:37Z</time>
      </trkpt>
      <trkpt lat="46.179574" lon="6.825378">
        <ele>1828.714</ele>
        <time>2018-07-05T07:42:42Z</time>
      </trkpt>
      <trkpt lat="46.179531" lon="6.825433">
        <ele>1828.980</ele>
        <time>2018-07-05T07:42:47Z</time>
      </trkpt>
      <trkpt lat="46.179491" lon="6.825471">
        <ele>1828.962</ele>
        <time>2018-07-05T07:42:51Z</time>
      </trkpt>
      <trkpt lat="46.179444" lon="6.825513">
        <ele>1829.029</ele>
        <time>2018-07-05T07:42:56Z</time>
      </trkpt>
      <trkpt lat="46.179396" lon="6.825553">
        <ele>1828.865</ele>
        <time>2018-07-05T07:43:01Z</time>
      </trkpt>
      <trkpt lat="46.179347" lon="6.825575">
        <ele>1828.770</ele>
        <time>2018-07-05T07:43:12Z</time>
      </trkpt>
      <trkpt lat="46.179315" lon="6.825628">
        <ele>1828.748</ele>
        <time>2018-07-05T07:43:18Z</time>
      </trkpt>
      <trkpt lat="46.179296" lon="6.825696">
        <ele>1828.761</ele>
        <time>2018-07-05T07:43:28Z</time>
      </trkpt>
      <trkpt lat="46.179287" lon="6.825620">
        <ele>1828.517</ele>
        <time>2018-07-05T07:43:47Z</time>
      </trkpt>
      <trkpt lat="46.179249" lon="6.825572">
        <ele>1828.308</ele>
        <time>2018-07-05T07:44:22Z</time>
      </trkpt>
      <trkpt lat="46.179212" lon="6.825533">
        <ele>1828.216</ele>
        <time>2018-07-05T07:44:34Z</time>
      </trkpt>
      <trkpt lat="46.179176" lon="6.825483">
        <ele>1828.382</ele>
        <time>2018-07-05T07:44:39Z</time>
      </trkpt>
      <trkpt lat="46.179140" lon="6.825424">
        <ele>1828.124</ele>
        <time>2018-07-05T07:44:44Z</time>
      </trkpt>
      <trkpt lat="46.179101" lon="6.825371">
        <ele>1827.920</ele>
        <time>2018-07-05T07:44:49Z</time>
      </trkpt>
      <trkpt lat="46.179062" lon="6.825320">
        <ele>1827.792</ele>
        <time>2018-07-05T07:44:54Z</time>
      </trkpt>
      <trkpt lat="46.179034" lon="6.825264">
        <ele>1827.769</ele>
        <time>2018-07-05T07:44:59Z</time>
      </trkpt>
      <trkpt lat="46.178999" lon="6.825206">
        <ele>1827.815</ele>
        <time>2018-07-05T07:45:04Z</time>
      </trkpt>
      <trkpt lat="46.178971" lon="6.825154">
        <ele>1827.920</ele>
        <time>2018-07-05T07:45:09Z</time>
      </trkpt>
      <trkpt lat="46.178952" lon="6.825092">
        <ele>1828.228</ele>
        <time>2018-07-05T07:45:27Z</time>
      </trkpt>
      <trkpt lat="46.178948" lon="6.825024">
        <ele>1828.789</ele>
        <time>2018-07-05T07:45:32Z</time>
      </trkpt>
      <trkpt lat="46.178956" lon="6.824948">
        <ele>1829.417</ele>
        <time>2018-07-05T07:45:37Z</time>
      </trkpt>
      <trkpt lat="46.178964" lon="6.824873">
        <ele>1830.208</ele>
        <time>2018-07-05T07:45:42Z</time>
      </trkpt>
      <trkpt lat="46.178965" lon="6.824799">
        <ele>1830.874</ele>
        <time>2018-07-05T07:45:47Z</time>
      </trkpt>
      <trkpt lat="46.178964" lon="6.824729">
        <ele>1831.450</ele>
        <time>2018-07-05T07:45:52Z</time>
      </trkpt>
      <trkpt lat="46.178960" lon="6.824657">
        <ele>1832.382</ele>
        <time>2018-07-05T07:45:57Z</time>
      </trkpt>
      <trkpt lat="46.178947" lon="6.824589">
        <ele>1832.968</ele>
        <time>2018-07-05T07:46:02Z</time>
      </trkpt>
      <trkpt lat="46.178924" lon="6.824520">
        <ele>1833.170</ele>
        <time>2018-07-05T07:46:07Z</time>
      </trkpt>
      <trkpt lat="46.178926" lon="6.824450">
        <ele>1834.327</ele>
        <time>2018-07-05T07:46:26Z</time>
      </trkpt>
      <trkpt lat="46.178912" lon="6.824374">
        <ele>1834.663</ele>
        <time>2018-07-05T07:46:34Z</time>
      </trkpt>
      <trkpt lat="46.178894" lon="6.824304">
        <ele>1834.788</ele>
        <time>2018-07-05T07:46:39Z</time>
      </trkpt>
      <trkpt lat="46.178886" lon="6.824225">
        <ele>1835.279</ele>
        <time>2018-07-05T07:46:44Z</time>
      </trkpt>
      <trkpt lat="46.178871" lon="6.824150">
        <ele>1835.305</ele>
        <time>2018-07-05T07:46:49Z</time>
      </trkpt>
      <trkpt lat="46.178862" lon="6.824073">
        <ele>1835.925</ele>
        <time>2018-07-05T07:46:54Z</time>
      </trkpt>
      <trkpt lat="46.178855" lon="6.823998">
        <ele>1836.608</ele>
        <time>2018-07-05T07:46:59Z</time>
      </trkpt>
      <trkpt lat="46.178844" lon="6.823921">
        <ele>1837.159</ele>
        <time>2018-07-05T07:47:04Z</time>
      </trkpt>
      <trkpt lat="46.178834" lon="6.823854">
        <ele>1837.475</ele>
        <time>2018-07-05T07:47:09Z</time>
      </trkpt>
      <trkpt lat="46.178826" lon="6.823779">
        <ele>1837.697</ele>
        <time>2018-07-05T07:47:15Z</time>
      </trkpt>
      <trkpt lat="46.178820" lon="6.823704">
        <ele>1837.943</ele>
        <time>2018-07-05T07:47:20Z</time>
      </trkpt>
      <trkpt lat="46.178818" lon="6.823628">
        <ele>1838.585</ele>
        <time>2018-07-05T07:47:25Z</time>
      </trkpt>
      <trkpt lat="46.178832" lon="6.823557">
        <ele>1840.172</ele>
        <time>2018-07-05T07:47:30Z</time>
      </trkpt>
      <trkpt lat="46.178842" lon="6.823485">
        <ele>1841.438</ele>
        <time>2018-07-05T07:47:35Z</time>
      </trkpt>
      <trkpt lat="46.178849" lon="6.823409">
        <ele>1842.663</ele>
        <time>2018-07-05T07:47:40Z</time>
      </trkpt>
      <trkpt lat="46.178847" lon="6.823334">
        <ele>1843.396</ele>
        <time>2018-07-05T07:47:45Z</time>
      </trkpt>
      <trkpt lat="46.178839" lon="6.823262">
        <ele>1843.831</ele>
        <time>2018-07-05T07:47:50Z</time>
      </trkpt>
      <trkpt lat="46.178835" lon="6.823194">
        <ele>1844.524</ele>
        <time>2018-07-05T07:47:55Z</time>
      </trkpt>
      <trkpt lat="46.178832" lon="6.823125">
        <ele>1845.308</ele>
        <time>2018-07-05T07:48:00Z</time>
      </trkpt>
      <trkpt lat="46.178822" lon="6.823059">
        <ele>1845.651</ele>
        <time>2018-07-05T07:48:05Z</time>
      </trkpt>
      <trkpt lat="46.178808" lon="6.822984">
        <ele>1845.857</ele>
        <time>2018-07-05T07:48:10Z</time>
      </trkpt>
      <trkpt lat="46.178787" lon="6.822915">
        <ele>1845.559</ele>
        <time>2018-07-05T07:48:15Z</time>
      </trkpt>
      <trkpt lat="46.178765" lon="6.822846">
        <ele>1845.245</ele>
        <time>2018-07-05T07:48:20Z</time>
      </trkpt>
      <trkpt lat="46.178744" lon="6.822773">
        <ele>1845.337</ele>
        <time>2018-07-05T07:48:25Z</time>
      </trkpt>
      <trkpt lat="46.178723" lon="6.822702">
        <ele>1845.374</ele>
        <time>2018-07-05T07:48:30Z</time>
      </trkpt>
      <trkpt lat="46.178702" lon="6.822635">
        <ele>1845.350</ele>
        <time>2018-07-05T07:48:35Z</time>
      </trkpt>
      <trkpt lat="46.178684" lon="6.822564">
        <ele>1845.625</ele>
        <time>2018-07-05T07:48:40Z</time>
      </trkpt>
      <trkpt lat="46.178675" lon="6.822498">
        <ele>1846.274</ele>
        <time>2018-07-05T07:48:45Z</time>
      </trkpt>
      <trkpt lat="46.178656" lon="6.822429">
        <ele>1846.356</ele>
        <time>2018-07-05T07:48:50Z</time>
      </trkpt>
      <trkpt lat="46.178634" lon="6.822360">
        <ele>1846.221</ele>
        <time>2018-07-05T07:48:55Z</time>
      </trkpt>
      <trkpt lat="46.178617" lon="6.822291">
        <ele>1846.308</ele>
        <time>2018-07-05T07:49:00Z</time>
      </trkpt>
      <trkpt lat="46.178598" lon="6.822218">
        <ele>1846.389</ele>
        <time>2018-07-05T07:49:05Z</time>
      </trkpt>
      <trkpt lat="46.178585" lon="6.822154">
        <ele>1846.425</ele>
        <time>2018-07-05T07:49:09Z</time>
      </trkpt>
      <trkpt lat="46.178568" lon="6.822090">
        <ele>1846.277</ele>
        <time>2018-07-05T07:49:13Z</time>
      </trkpt>
      <trkpt lat="46.178553" lon="6.822016">
        <ele>1846.413</ele>
        <time>2018-07-05T07:49:18Z</time>
      </trkpt>
      <trkpt lat="46.178541" lon="6.821943">
        <ele>1846.755</ele>
        <time>2018-07-05T07:49:23Z</time>
      </trkpt>
      <trkpt lat="46.178527" lon="6.821878">
        <ele>1846.932</ele>
        <time>2018-07-05T07:49:27Z</time>
      </trkpt>
      <trkpt lat="46.178510" lon="6.821814">
        <ele>1846.898</ele>
        <time>2018-07-05T07:49:31Z</time>
      </trkpt>
      <trkpt lat="46.178490" lon="6.821742">
        <ele>1846.823</ele>
        <time>2018-07-05T07:49:36Z</time>
      </trkpt>
      <trkpt lat="46.178475" lon="6.821672">
        <ele>1847.167</ele>
        <time>2018-07-05T07:49:59Z</time>
      </trkpt>
      <trkpt lat="46.178444" lon="6.821609">
        <ele>1846.781</ele>
        <time>2018-07-05T07:50:04Z</time>
      </trkpt>
      <trkpt lat="46.178422" lon="6.821552">
        <ele>1846.619</ele>
        <time>2018-07-05T07:50:08Z</time>
      </trkpt>
      <trkpt lat="46.178397" lon="6.821489">
        <ele>1846.708</ele>
        <time>2018-07-05T07:50:12Z</time>
      </trkpt>
      <trkpt lat="46.178371" lon="6.821426">
        <ele>1846.758</ele>
        <time>2018-07-05T07:50:16Z</time>
      </trkpt>
      <trkpt lat="46.178350" lon="6.821368">
        <ele>1846.934</ele>
        <time>2018-07-05T07:50:20Z</time>
      </trkpt>
      <trkpt lat="46.178328" lon="6.821294">
        <ele>1847.286</ele>
        <time>2018-07-05T07:50:25Z</time>
      </trkpt>
      <trkpt lat="46.178308" lon="6.821232">
        <ele>1847.412</ele>
        <time>2018-07-05T07:50:29Z</time>
      </trkpt>
      <trkpt lat="46.178281" lon="6.821165">
        <ele>1847.514</ele>
        <time>2018-07-05T07:50:33Z</time>
      </trkpt>
      <trkpt lat="46.178253" lon="6.821106">
        <ele>1847.541</ele>
        <time>2018-07-05T07:50:37Z</time>
      </trkpt>
      <trkpt lat="46.178222" lon="6.821045">
        <ele>1847.447</ele>
        <time>2018-07-05T07:50:41Z</time>
      </trkpt>
      <trkpt lat="46.178195" lon="6.820986">
        <ele>1847.542</ele>
        <time>2018-07-05T07:50:45Z</time>
      </trkpt>
      <trkpt lat="46.178166" lon="6.820928">
        <ele>1847.625</ele>
        <time>2018-07-05T07:50:49Z</time>
      </trkpt>
      <trkpt lat="46.178137" lon="6.820874">
        <ele>1847.726</ele>
        <time>2018-07-05T07:50:53Z</time>
      </trkpt>
      <trkpt lat="46.178110" lon="6.820822">
        <ele>1847.708</ele>
        <time>2018-07-05T07:50:57Z</time>
      </trkpt>
      <trkpt lat="46.178082" lon="6.820770">
        <ele>1847.408</ele>
        <time>2018-07-05T07:51:01Z</time>
      </trkpt>
      <trkpt lat="46.178054" lon="6.820713">
        <ele>1847.214</ele>
        <time>2018-07-05T07:51:05Z</time>
      </trkpt>
      <trkpt lat="46.178024" lon="6.820652">
        <ele>1846.980</ele>
        <time>2018-07-05T07:51:09Z</time>
      </trkpt>
      <trkpt lat="46.177998" lon="6.820588">
        <ele>1846.912</ele>
        <time>2018-07-05T07:51:13Z</time>
      </trkpt>
      <trkpt lat="46.177977" lon="6.820525">
        <ele>1846.778</ele>
        <time>2018-07-05T07:51:17Z</time>
      </trkpt>
      <trkpt lat="46.177972" lon="6.820459">
        <ele>1846.460</ele>
        <time>2018-07-05T07:51:21Z</time>
      </trkpt>
      <trkpt lat="46.177984" lon="6.820389">
        <ele>1846.567</ele>
        <time>2018-07-05T07:51:25Z</time>
      </trkpt>
      <trkpt lat="46.177997" lon="6.820316">
        <ele>1846.683</ele>
        <time>2018-07-05T07:51:29Z</time>
      </trkpt>
      <trkpt lat="46.178000" lon="6.820242">
        <ele>1846.728</ele>
        <time>2018-07-05T07:51:33Z</time>
      </trkpt>
      <trkpt lat="46.178004" lon="6.820166">
        <ele>1847.011</ele>
        <time>2018-07-05T07:51:37Z</time>
      </trkpt>
      <trkpt lat="46.178001" lon="6.820091">
        <ele>1847.221</ele>
        <time>2018-07-05T07:51:41Z</time>
      </trkpt>
      <trkpt lat="46.177995" lon="6.820018">
        <ele>1847.203</ele>
        <time>2018-07-05T07:51:45Z</time>
      </trkpt>
      <trkpt lat="46.177986" lon="6.819945">
        <ele>1847.108</ele>
        <time>2018-07-05T07:51:49Z</time>
      </trkpt>
      <trkpt lat="46.177976" lon="6.819872">
        <ele>1847.053</ele>
        <time>2018-07-05T07:51:53Z</time>
      </trkpt>
      <trkpt lat="46.177956" lon="6.819799">
        <ele>1846.799</ele>
        <time>2018-07-05T07:51:57Z</time>
      </trkpt>
      <trkpt lat="46.177934" lon="6.819725">
        <ele>1846.431</ele>
        <time>2018-07-05T07:52:01Z</time>
      </trkpt>
      <trkpt lat="46.177910" lon="6.819653">
        <ele>1846.277</ele>
        <time>2018-07-05T07:52:05Z</time>
      </trkpt>
      <trkpt lat="46.177887" lon="6.819582">
        <ele>1846.119</ele>
        <time>2018-07-05T07:52:09Z</time>
      </trkpt>
      <trkpt lat="46.177862" lon="6.819516">
        <ele>1845.876</ele>
        <time>2018-07-05T07:52:13Z</time>
      </trkpt>
      <trkpt lat="46.177845" lon="6.819446">
        <ele>1845.772</ele>
        <time>2018-07-05T07:52:17Z</time>
      </trkpt>
      <trkpt lat="46.177837" lon="6.819371">
        <ele>1845.587</ele>
        <time>2018-07-05T07:52:21Z</time>
      </trkpt>
      <trkpt lat="46.177835" lon="6.819294">
        <ele>1845.448</ele>
        <time>2018-07-05T07:52:25Z</time>
      </trkpt>
      <trkpt lat="46.177839" lon="6.819218">
        <ele>1845.561</ele>
        <time>2018-07-05T07:52:29Z</time>
      </trkpt>
      <trkpt lat="46.177844" lon="6.819145">
        <ele>1845.617</ele>
        <time>2018-07-05T07:52:33Z</time>
      </trkpt>
      <trkpt lat="46.177853" lon="6.819075">
        <ele>1845.608</ele>
        <time>2018-07-05T07:52:37Z</time>
      </trkpt>
      <trkpt lat="46.177871" lon="6.819003">
        <ele>1846.096</ele>
        <time>2018-07-05T07:52:41Z</time>
      </trkpt>
      <trkpt lat="46.177885" lon="6.818928">
        <ele>1846.332</ele>
        <time>2018-07-05T07:52:45Z</time>
      </trkpt>
      <trkpt lat="46.177891" lon="6.818853">
        <ele>1847.054</ele>
        <time>2018-07-05T07:52:49Z</time>
      </trkpt>
      <trkpt lat="46.177889" lon="6.818784">
        <ele>1847.820</ele>
        <time>2018-07-05T07:52:53Z</time>
      </trkpt>
      <trkpt lat="46.177883" lon="6.818711">
        <ele>1848.642</ele>
        <time>2018-07-05T07:52:57Z</time>
      </trkpt>
      <trkpt lat="46.177867" lon="6.818641">
        <ele>1848.839</ele>
        <time>2018-07-05T07:53:01Z</time>
      </trkpt>
      <trkpt lat="46.177847" lon="6.818573">
        <ele>1848.415</ele>
        <time>2018-07-05T07:53:05Z</time>
      </trkpt>
      <trkpt lat="46.177824" lon="6.818509">
        <ele>1847.640</ele>
        <time>2018-07-05T07:53:09Z</time>
      </trkpt>
      <trkpt lat="46.177806" lon="6.818443">
        <ele>1847.082</ele>
        <time>2018-07-05T07:53:13Z</time>
      </trkpt>
      <trkpt lat="46.177799" lon="6.818378">
        <ele>1846.943</ele>
        <time>2018-07-05T07:53:17Z</time>
      </trkpt>
      <trkpt lat="46.177806" lon="6.818305">
        <ele>1847.017</ele>
        <time>2018-07-05T07:53:21Z</time>
      </trkpt>
      <trkpt lat="46.177823" lon="6.818236">
        <ele>1847.008</ele>
        <time>2018-07-05T07:53:25Z</time>
      </trkpt>
      <trkpt lat="46.177843" lon="6.818169">
        <ele>1847.260</ele>
        <time>2018-07-05T07:53:29Z</time>
      </trkpt>
      <trkpt lat="46.177865" lon="6.818105">
        <ele>1847.676</ele>
        <time>2018-07-05T07:53:33Z</time>
      </trkpt>
      <trkpt lat="46.177888" lon="6.818042">
        <ele>1848.468</ele>
        <time>2018-07-05T07:53:37Z</time>
      </trkpt>
      <trkpt lat="46.177907" lon="6.817973">
        <ele>1850.044</ele>
        <time>2018-07-05T07:53:41Z</time>
      </trkpt>
      <trkpt lat="46.177918" lon="6.817907">
        <ele>1851.266</ele>
        <time>2018-07-05T07:53:45Z</time>
      </trkpt>
      <trkpt lat="46.177909" lon="6.817841">
        <ele>1851.123</ele>
        <time>2018-07-05T07:53:49Z</time>
      </trkpt>
      <trkpt lat="46.177894" lon="6.817776">
        <ele>1850.649</ele>
        <time>2018-07-05T07:53:53Z</time>
      </trkpt>
      <trkpt lat="46.177878" lon="6.817715">
        <ele>1851.294</ele>
        <time>2018-07-05T07:53:57Z</time>
      </trkpt>
      <trkpt lat="46.177855" lon="6.817657">
        <ele>1851.269</ele>
        <time>2018-07-05T07:54:01Z</time>
      </trkpt>
      <trkpt lat="46.177827" lon="6.817600">
        <ele>1850.804</ele>
        <time>2018-07-05T07:54:05Z</time>
      </trkpt>
      <trkpt lat="46.177797" lon="6.817543">
        <ele>1850.224</ele>
        <time>2018-07-05T07:54:09Z</time>
      </trkpt>
      <trkpt lat="46.177768" lon="6.817487">
        <ele>1849.808</ele>
        <time>2018-07-05T07:54:13Z</time>
      </trkpt>
      <trkpt lat="46.177741" lon="6.817432">
        <ele>1849.698</ele>
        <time>2018-07-05T07:54:17Z</time>
      </trkpt>
      <trkpt lat="46.177718" lon="6.817370">
        <ele>1849.794</ele>
        <time>2018-07-05T07:54:21Z</time>
      </trkpt>
      <trkpt lat="46.177687" lon="6.817315">
        <ele>1849.526</ele>
        <time>2018-07-05T07:54:25Z</time>
      </trkpt>
      <trkpt lat="46.177655" lon="6.817262">
        <ele>1849.382</ele>
        <time>2018-07-05T07:54:29Z</time>
      </trkpt>
      <trkpt lat="46.177623" lon="6.817216">
        <ele>1849.084</ele>
        <time>2018-07-05T07:54:33Z</time>
      </trkpt>
      <trkpt lat="46.177585" lon="6.817160">
        <ele>1848.661</ele>
        <time>2018-07-05T07:54:38Z</time>
      </trkpt>
      <trkpt lat="46.177550" lon="6.817116">
        <ele>1848.197</ele>
        <time>2018-07-05T07:54:42Z</time>
      </trkpt>
      <trkpt lat="46.177515" lon="6.817062">
        <ele>1848.082</ele>
        <time>2018-07-05T07:54:47Z</time>
      </trkpt>
      <trkpt lat="46.177484" lon="6.817014">
        <ele>1848.025</ele>
        <time>2018-07-05T07:54:51Z</time>
      </trkpt>
      <trkpt lat="46.177450" lon="6.816959">
        <ele>1848.026</ele>
        <time>2018-07-05T07:54:55Z</time>
      </trkpt>
      <trkpt lat="46.177417" lon="6.816905">
        <ele>1847.808</ele>
        <time>2018-07-05T07:54:59Z</time>
      </trkpt>
      <trkpt lat="46.177387" lon="6.816846">
        <ele>1847.508</ele>
        <time>2018-07-05T07:55:03Z</time>
      </trkpt>
      <trkpt lat="46.177365" lon="6.816786">
        <ele>1847.674</ele>
        <time>2018-07-05T07:55:07Z</time>
      </trkpt>
      <trkpt lat="46.177343" lon="6.816725">
        <ele>1847.790</ele>
        <time>2018-07-05T07:55:11Z</time>
      </trkpt>
      <trkpt lat="46.177325" lon="6.816663">
        <ele>1848.082</ele>
        <time>2018-07-05T07:55:15Z</time>
      </trkpt>
      <trkpt lat="46.177309" lon="6.816596">
        <ele>1847.648</ele>
        <time>2018-07-05T07:55:19Z</time>
      </trkpt>
      <trkpt lat="46.177299" lon="6.816526">
        <ele>1847.450</ele>
        <time>2018-07-05T07:55:23Z</time>
      </trkpt>
      <trkpt lat="46.177296" lon="6.816451">
        <ele>1847.577</ele>
        <time>2018-07-05T07:55:27Z</time>
      </trkpt>
      <trkpt lat="46.177301" lon="6.816374">
        <ele>1847.623</ele>
        <time>2018-07-05T07:55:31Z</time>
      </trkpt>
      <trkpt lat="46.177308" lon="6.816303">
        <ele>1847.268</ele>
        <time>2018-07-05T07:55:35Z</time>
      </trkpt>
      <trkpt lat="46.177317" lon="6.816229">
        <ele>1846.919</ele>
        <time>2018-07-05T07:55:39Z</time>
      </trkpt>
      <trkpt lat="46.177337" lon="6.816159">
        <ele>1846.809</ele>
        <time>2018-07-05T07:55:43Z</time>
      </trkpt>
      <trkpt lat="46.177360" lon="6.816093">
        <ele>1846.919</ele>
        <time>2018-07-05T07:55:47Z</time>
      </trkpt>
      <trkpt lat="46.177382" lon="6.816024">
        <ele>1847.108</ele>
        <time>2018-07-05T07:55:51Z</time>
      </trkpt>
      <trkpt lat="46.177400" lon="6.815957">
        <ele>1847.383</ele>
        <time>2018-07-05T07:55:55Z</time>
      </trkpt>
      <trkpt lat="46.177421" lon="6.815884">
        <ele>1847.569</ele>
        <time>2018-07-05T07:55:59Z</time>
      </trkpt>
      <trkpt lat="46.177431" lon="6.815809">
        <ele>1847.451</ele>
        <time>2018-07-05T07:56:03Z</time>
      </trkpt>
      <trkpt lat="46.177434" lon="6.815735">
        <ele>1847.147</ele>
        <time>2018-07-05T07:56:07Z</time>
      </trkpt>
      <trkpt lat="46.177434" lon="6.815666">
        <ele>1846.839</ele>
        <time>2018-07-05T07:56:11Z</time>
      </trkpt>
      <trkpt lat="46.177443" lon="6.815592">
        <ele>1846.786</ele>
        <time>2018-07-05T07:56:15Z</time>
      </trkpt>
      <trkpt lat="46.177454" lon="6.815520">
        <ele>1846.662</ele>
        <time>2018-07-05T07:56:19Z</time>
      </trkpt>
      <trkpt lat="46.177470" lon="6.815451">
        <ele>1846.567</ele>
        <time>2018-07-05T07:56:23Z</time>
      </trkpt>
      <trkpt lat="46.177485" lon="6.815375">
        <ele>1846.355</ele>
        <time>2018-07-05T07:56:27Z</time>
      </trkpt>
      <trkpt lat="46.177501" lon="6.815300">
        <ele>1846.207</ele>
        <time>2018-07-05T07:56:31Z</time>
      </trkpt>
      <trkpt lat="46.177515" lon="6.815234">
        <ele>1846.217</ele>
        <time>2018-07-05T07:56:35Z</time>
      </trkpt>
      <trkpt lat="46.177528" lon="6.815159">
        <ele>1846.108</ele>
        <time>2018-07-05T07:56:39Z</time>
      </trkpt>
      <trkpt lat="46.177532" lon="6.815082">
        <ele>1845.627</ele>
        <time>2018-07-05T07:56:43Z</time>
      </trkpt>
      <trkpt lat="46.177539" lon="6.815007">
        <ele>1845.353</ele>
        <time>2018-07-05T07:56:47Z</time>
      </trkpt>
      <trkpt lat="46.177542" lon="6.814935">
        <ele>1845.135</ele>
        <time>2018-07-05T07:56:51Z</time>
      </trkpt>
      <trkpt lat="46.177546" lon="6.814867">
        <ele>1845.091</ele>
        <time>2018-07-05T07:56:55Z</time>
      </trkpt>
      <trkpt lat="46.177553" lon="6.814789">
        <ele>1845.013</ele>
        <time>2018-07-05T07:56:59Z</time>
      </trkpt>
      <trkpt lat="46.177557" lon="6.814715">
        <ele>1844.950</ele>
        <time>2018-07-05T07:57:03Z</time>
      </trkpt>
      <trkpt lat="46.177559" lon="6.814641">
        <ele>1845.326</ele>
        <time>2018-07-05T07:57:07Z</time>
      </trkpt>
      <trkpt lat="46.177550" lon="6.814571">
        <ele>1845.351</ele>
        <time>2018-07-05T07:57:11Z</time>
      </trkpt>
      <trkpt lat="46.177523" lon="6.814510">
        <ele>1844.659</ele>
        <time>2018-07-05T07:57:15Z</time>
      </trkpt>
      <trkpt lat="46.177494" lon="6.814446">
        <ele>1843.803</ele>
        <time>2018-07-05T07:57:19Z</time>
      </trkpt>
      <trkpt lat="46.177459" lon="6.814382">
        <ele>1843.723</ele>
        <time>2018-07-05T07:57:23Z</time>
      </trkpt>
      <trkpt lat="46.177432" lon="6.814312">
        <ele>1843.808</ele>
        <time>2018-07-05T07:57:27Z</time>
      </trkpt>
      <trkpt lat="46.177407" lon="6.814245">
        <ele>1844.127</ele>
        <time>2018-07-05T07:57:31Z</time>
      </trkpt>
      <trkpt lat="46.177378" lon="6.814181">
        <ele>1844.263</ele>
        <time>2018-07-05T07:57:35Z</time>
      </trkpt>
      <trkpt lat="46.177348" lon="6.814126">
        <ele>1844.315</ele>
        <time>2018-07-05T07:57:39Z</time>
      </trkpt>
      <trkpt lat="46.177317" lon="6.814079">
        <ele>1844.471</ele>
        <time>2018-07-05T07:57:43Z</time>
      </trkpt>
      <trkpt lat="46.177275" lon="6.814037">
        <ele>1844.313</ele>
        <time>2018-07-05T07:57:48Z</time>
      </trkpt>
      <trkpt lat="46.177226" lon="6.814009">
        <ele>1843.920</ele>
        <time>2018-07-05T07:57:53Z</time>
      </trkpt>
      <trkpt lat="46.177174" lon="6.813986">
        <ele>1843.996</ele>
        <time>2018-07-05T07:57:58Z</time>
      </trkpt>
      <trkpt lat="46.177123" lon="6.813961">
        <ele>1844.091</ele>
        <time>2018-07-05T07:58:03Z</time>
      </trkpt>
      <trkpt lat="46.177084" lon="6.813928">
        <ele>1844.366</ele>
        <time>2018-07-05T07:58:07Z</time>
      </trkpt>
      <trkpt lat="46.177035" lon="6.813901">
        <ele>1844.429</ele>
        <time>2018-07-05T07:58:11Z</time>
      </trkpt>
      <trkpt lat="46.176987" lon="6.813878">
        <ele>1844.521</ele>
        <time>2018-07-05T07:58:15Z</time>
      </trkpt>
      <trkpt lat="46.176941" lon="6.813855">
        <ele>1844.708</ele>
        <time>2018-07-05T07:58:19Z</time>
      </trkpt>
      <trkpt lat="46.176894" lon="6.813829">
        <ele>1844.728</ele>
        <time>2018-07-05T07:58:23Z</time>
      </trkpt>
      <trkpt lat="46.176850" lon="6.813801">
        <ele>1844.834</ele>
        <time>2018-07-05T07:58:27Z</time>
      </trkpt>
      <trkpt lat="46.176804" lon="6.813771">
        <ele>1844.876</ele>
        <time>2018-07-05T07:58:31Z</time>
      </trkpt>
      <trkpt lat="46.176758" lon="6.813742">
        <ele>1844.812</ele>
        <time>2018-07-05T07:58:35Z</time>
      </trkpt>
      <trkpt lat="46.176715" lon="6.813715">
        <ele>1844.814</ele>
        <time>2018-07-05T07:58:39Z</time>
      </trkpt>
      <trkpt lat="46.176672" lon="6.813683">
        <ele>1844.811</ele>
        <time>2018-07-05T07:58:43Z</time>
      </trkpt>
      <trkpt lat="46.176633" lon="6.813645">
        <ele>1845.347</ele>
        <time>2018-07-05T07:58:47Z</time>
      </trkpt>
      <trkpt lat="46.176584" lon="6.813609">
        <ele>1845.752</ele>
        <time>2018-07-05T07:58:52Z</time>
      </trkpt>
      <trkpt lat="46.176541" lon="6.813582">
        <ele>1846.195</ele>
        <time>2018-07-05T07:58:56Z</time>
      </trkpt>
      <trkpt lat="46.176497" lon="6.813545">
        <ele>1846.749</ele>
        <time>2018-07-05T07:59:00Z</time>
      </trkpt>
      <trkpt lat="46.176454" lon="6.813514">
        <ele>1847.123</ele>
        <time>2018-07-05T07:59:04Z</time>
      </trkpt>
      <trkpt lat="46.176411" lon="6.813489">
        <ele>1847.308</ele>
        <time>2018-07-05T07:59:08Z</time>
      </trkpt>
      <trkpt lat="46.176370" lon="6.813450">
        <ele>1847.661</ele>
        <time>2018-07-05T07:59:12Z</time>
      </trkpt>
      <trkpt lat="46.176332" lon="6.813404">
        <ele>1847.957</ele>
        <time>2018-07-05T07:59:16Z</time>
      </trkpt>
      <trkpt lat="46.176295" lon="6.813355">
        <ele>1848.399</ele>
        <time>2018-07-05T07:59:20Z</time>
      </trkpt>
      <trkpt lat="46.176256" lon="6.813307">
        <ele>1848.645</ele>
        <time>2018-07-05T07:59:24Z</time>
      </trkpt>
      <trkpt lat="46.176218" lon="6.813264">
        <ele>1848.877</ele>
        <time>2018-07-05T07:59:28Z</time>
      </trkpt>
      <trkpt lat="46.176175" lon="6.813240">
        <ele>1848.694</ele>
        <time>2018-07-05T07:59:32Z</time>
      </trkpt>
      <trkpt lat="46.176127" lon="6.813205">
        <ele>1848.580</ele>
        <time>2018-07-05T07:59:37Z</time>
      </trkpt>
      <trkpt lat="46.176082" lon="6.813183">
        <ele>1848.425</ele>
        <time>2018-07-05T07:59:41Z</time>
      </trkpt>
      <trkpt lat="46.176038" lon="6.813160">
        <ele>1848.315</ele>
        <time>2018-07-05T07:59:45Z</time>
      </trkpt>
      <trkpt lat="46.175992" lon="6.813133">
        <ele>1848.365</ele>
        <time>2018-07-05T07:59:49Z</time>
      </trkpt>
      <trkpt lat="46.175939" lon="6.813107">
        <ele>1848.211</ele>
        <time>2018-07-05T07:59:54Z</time>
      </trkpt>
      <trkpt lat="46.175886" lon="6.813082">
        <ele>1848.108</ele>
        <time>2018-07-05T07:59:59Z</time>
      </trkpt>
      <trkpt lat="46.175842" lon="6.813063">
        <ele>1848.023</ele>
        <time>2018-07-05T08:00:03Z</time>
      </trkpt>
      <trkpt lat="46.175793" lon="6.813035">
        <ele>1848.299</ele>
        <time>2018-07-05T08:00:07Z</time>
      </trkpt>
      <trkpt lat="46.175746" lon="6.813013">
        <ele>1848.381</ele>
        <time>2018-07-05T08:00:11Z</time>
      </trkpt>
      <trkpt lat="46.175697" lon="6.812987">
        <ele>1848.537</ele>
        <time>2018-07-05T08:00:15Z</time>
      </trkpt>
      <trkpt lat="46.175654" lon="6.812958">
        <ele>1848.759</ele>
        <time>2018-07-05T08:00:19Z</time>
      </trkpt>
      <trkpt lat="46.175606" lon="6.812938">
        <ele>1848.656</ele>
        <time>2018-07-05T08:00:23Z</time>
      </trkpt>
      <trkpt lat="46.175558" lon="6.812922">
        <ele>1848.482</ele>
        <time>2018-07-05T08:00:27Z</time>
      </trkpt>
      <trkpt lat="46.175511" lon="6.812904">
        <ele>1848.317</ele>
        <time>2018-07-05T08:00:31Z</time>
      </trkpt>
      <trkpt lat="46.175463" lon="6.812893">
        <ele>1848.139</ele>
        <time>2018-07-05T08:00:35Z</time>
      </trkpt>
      <trkpt lat="46.175412" lon="6.812890">
        <ele>1847.601</ele>
        <time>2018-07-05T08:00:39Z</time>
      </trkpt>
      <trkpt lat="46.175365" lon="6.812902">
        <ele>1847.021</ele>
        <time>2018-07-05T08:00:43Z</time>
      </trkpt>
      <trkpt lat="46.175318" lon="6.812917">
        <ele>1846.408</ele>
        <time>2018-07-05T08:00:47Z</time>
      </trkpt>
      <trkpt lat="46.175266" lon="6.812931">
        <ele>1845.845</ele>
        <time>2018-07-05T08:00:51Z</time>
      </trkpt>
      <trkpt lat="46.175216" lon="6.812953">
        <ele>1845.391</ele>
        <time>2018-07-05T08:00:55Z</time>
      </trkpt>
      <trkpt lat="46.175166" lon="6.812977">
        <ele>1844.893</ele>
        <time>2018-07-05T08:00:59Z</time>
      </trkpt>
      <trkpt lat="46.175122" lon="6.813003">
        <ele>1844.379</ele>
        <time>2018-07-05T08:01:03Z</time>
      </trkpt>
      <trkpt lat="46.175076" lon="6.813030">
        <ele>1843.741</ele>
        <time>2018-07-05T08:01:07Z</time>
      </trkpt>
      <trkpt lat="46.175027" lon="6.813057">
        <ele>1843.188</ele>
        <time>2018-07-05T08:01:11Z</time>
      </trkpt>
      <trkpt lat="46.174980" lon="6.813097">
        <ele>1842.764</ele>
        <time>2018-07-05T08:01:15Z</time>
      </trkpt>
      <trkpt lat="46.174936" lon="6.813143">
        <ele>1842.749</ele>
        <time>2018-07-05T08:01:19Z</time>
      </trkpt>
      <trkpt lat="46.174898" lon="6.813196">
        <ele>1842.496</ele>
        <time>2018-07-05T08:01:23Z</time>
      </trkpt>
      <trkpt lat="46.174861" lon="6.813260">
        <ele>1842.131</ele>
        <time>2018-07-05T08:01:27Z</time>
      </trkpt>
      <trkpt lat="46.174825" lon="6.813315">
        <ele>1841.824</ele>
        <time>2018-07-05T08:01:31Z</time>
      </trkpt>
      <trkpt lat="46.174790" lon="6.813364">
        <ele>1841.608</ele>
        <time>2018-07-05T08:01:35Z</time>
      </trkpt>
      <trkpt lat="46.174759" lon="6.813420">
        <ele>1841.341</ele>
        <time>2018-07-05T08:01:39Z</time>
      </trkpt>
      <trkpt lat="46.174722" lon="6.813473">
        <ele>1841.037</ele>
        <time>2018-07-05T08:01:43Z</time>
      </trkpt>
      <trkpt lat="46.174682" lon="6.813520">
        <ele>1840.619</ele>
        <time>2018-07-05T08:01:47Z</time>
      </trkpt>
      <trkpt lat="46.174641" lon="6.813569">
        <ele>1840.215</ele>
        <time>2018-07-05T08:01:52Z</time>
      </trkpt>
      <trkpt lat="46.174620" lon="6.813632">
        <ele>1839.487</ele>
        <time>2018-07-05T08:03:23Z</time>
      </trkpt>
      <trkpt lat="46.174575" lon="6.813677">
        <ele>1839.044</ele>
        <time>2018-07-05T08:03:28Z</time>
      </trkpt>
      <trkpt lat="46.174542" lon="6.813726">
        <ele>1838.560</ele>
        <time>2018-07-05T08:03:32Z</time>
      </trkpt>
      <trkpt lat="46.174504" lon="6.813781">
        <ele>1838.085</ele>
        <time>2018-07-05T08:03:37Z</time>
      </trkpt>
      <trkpt lat="46.174470" lon="6.813824">
        <ele>1837.783</ele>
        <time>2018-07-05T08:03:41Z</time>
      </trkpt>
      <trkpt lat="46.174430" lon="6.813876">
        <ele>1837.225</ele>
        <time>2018-07-05T08:03:46Z</time>
      </trkpt>
      <trkpt lat="46.174391" lon="6.813933">
        <ele>1836.317</ele>
        <time>2018-07-05T08:03:51Z</time>
      </trkpt>
      <trkpt lat="46.174356" lon="6.813989">
        <ele>1835.408</ele>
        <time>2018-07-05T08:03:55Z</time>
      </trkpt>
      <trkpt lat="46.174326" lon="6.814053">
        <ele>1834.530</ele>
        <time>2018-07-05T08:03:59Z</time>
      </trkpt>
      <trkpt lat="46.174297" lon="6.814122">
        <ele>1833.726</ele>
        <time>2018-07-05T08:04:03Z</time>
      </trkpt>
      <trkpt lat="46.174269" lon="6.814184">
        <ele>1833.178</ele>
        <time>2018-07-05T08:04:07Z</time>
      </trkpt>
      <trkpt lat="46.174239" lon="6.814247">
        <ele>1832.844</ele>
        <time>2018-07-05T08:04:11Z</time>
      </trkpt>
      <trkpt lat="46.174207" lon="6.814305">
        <ele>1832.626</ele>
        <time>2018-07-05T08:04:15Z</time>
      </trkpt>
      <trkpt lat="46.174170" lon="6.814356">
        <ele>1832.653</ele>
        <time>2018-07-05T08:04:19Z</time>
      </trkpt>
      <trkpt lat="46.174135" lon="6.814415">
        <ele>1832.629</ele>
        <time>2018-07-05T08:04:23Z</time>
      </trkpt>
      <trkpt lat="46.174105" lon="6.814476">
        <ele>1832.254</ele>
        <time>2018-07-05T08:04:27Z</time>
      </trkpt>
      <trkpt lat="46.174071" lon="6.814532">
        <ele>1831.812</ele>
        <time>2018-07-05T08:04:31Z</time>
      </trkpt>
      <trkpt lat="46.174036" lon="6.814591">
        <ele>1831.332</ele>
        <time>2018-07-05T08:04:35Z</time>
      </trkpt>
      <trkpt lat="46.173997" lon="6.814645">
        <ele>1830.905</ele>
        <time>2018-07-05T08:04:39Z</time>
      </trkpt>
      <trkpt lat="46.173960" lon="6.814698">
        <ele>1830.608</ele>
        <time>2018-07-05T08:04:43Z</time>
      </trkpt>
      <trkpt lat="46.173919" lon="6.814743">
        <ele>1830.423</ele>
        <time>2018-07-05T08:04:47Z</time>
      </trkpt>
      <trkpt lat="46.173876" lon="6.814776">
        <ele>1830.249</ele>
        <time>2018-07-05T08:04:51Z</time>
      </trkpt>
      <trkpt lat="46.173833" lon="6.814805">
        <ele>1829.671</ele>
        <time>2018-07-05T08:04:55Z</time>
      </trkpt>
      <trkpt lat="46.173790" lon="6.814832">
        <ele>1829.187</ele>
        <time>2018-07-05T08:04:59Z</time>
      </trkpt>
      <trkpt lat="46.173746" lon="6.814865">
        <ele>1828.479</ele>
        <time>2018-07-05T08:05:03Z</time>
      </trkpt>
      <trkpt lat="46.173702" lon="6.814893">
        <ele>1827.986</ele>
        <time>2018-07-05T08:05:07Z</time>
      </trkpt>
      <trkpt lat="46.173658" lon="6.814927">
        <ele>1827.282</ele>
        <time>2018-07-05T08:05:11Z</time>
      </trkpt>
      <trkpt lat="46.173617" lon="6.814962">
        <ele>1826.617</ele>
        <time>2018-07-05T08:05:15Z</time>
      </trkpt>
      <trkpt lat="46.173578" lon="6.815000">
        <ele>1826.011</ele>
        <time>2018-07-05T08:05:19Z</time>
      </trkpt>
      <trkpt lat="46.173536" lon="6.815042">
        <ele>1825.521</ele>
        <time>2018-07-05T08:05:23Z</time>
      </trkpt>
      <trkpt lat="46.173492" lon="6.815093">
        <ele>1825.003</ele>
        <time>2018-07-05T08:05:27Z</time>
      </trkpt>
      <trkpt lat="46.173447" lon="6.815136">
        <ele>1824.508</ele>
        <time>2018-07-05T08:05:31Z</time>
      </trkpt>
      <trkpt lat="46.173407" lon="6.815178">
        <ele>1824.113</ele>
        <time>2018-07-05T08:05:35Z</time>
      </trkpt>
      <trkpt lat="46.173371" lon="6.815225">
        <ele>1823.679</ele>
        <time>2018-07-05T08:05:39Z</time>
      </trkpt>
      <trkpt lat="46.173333" lon="6.815274">
        <ele>1823.071</ele>
        <time>2018-07-05T08:05:43Z</time>
      </trkpt>
      <trkpt lat="46.173297" lon="6.815336">
        <ele>1823.197</ele>
        <time>2018-07-05T08:05:47Z</time>
      </trkpt>
      <trkpt lat="46.173272" lon="6.815402">
        <ele>1823.099</ele>
        <time>2018-07-05T08:05:51Z</time>
      </trkpt>
      <trkpt lat="46.173251" lon="6.815471">
        <ele>1822.826</ele>
        <time>2018-07-05T08:05:55Z</time>
      </trkpt>
      <trkpt lat="46.173239" lon="6.815540">
        <ele>1822.512</ele>
        <time>2018-07-05T08:05:59Z</time>
      </trkpt>
      <trkpt lat="46.173226" lon="6.815610">
        <ele>1822.387</ele>
        <time>2018-07-05T08:06:03Z</time>
      </trkpt>
      <trkpt lat="46.173206" lon="6.815680">
        <ele>1822.233</ele>
        <time>2018-07-05T08:06:07Z</time>
      </trkpt>
      <trkpt lat="46.173181" lon="6.815747">
        <ele>1822.123</ele>
        <time>2018-07-05T08:06:11Z</time>
      </trkpt>
      <trkpt lat="46.173150" lon="6.815802">
        <ele>1822.215</ele>
        <time>2018-07-05T08:06:15Z</time>
      </trkpt>
      <trkpt lat="46.173110" lon="6.815848">
        <ele>1822.308</ele>
        <time>2018-07-05T08:06:19Z</time>
      </trkpt>
      <trkpt lat="46.173065" lon="6.815882">
        <ele>1822.455</ele>
        <time>2018-07-05T08:06:23Z</time>
      </trkpt>
      <trkpt lat="46.173016" lon="6.815898">
        <ele>1822.261</ele>
        <time>2018-07-05T08:06:27Z</time>
      </trkpt>
      <trkpt lat="46.172968" lon="6.815907">
        <ele>1822.053</ele>
        <time>2018-07-05T08:06:31Z</time>
      </trkpt>
      <trkpt lat="46.172917" lon="6.815898">
        <ele>1822.139</ele>
        <time>2018-07-05T08:06:35Z</time>
      </trkpt>
      <trkpt lat="46.172871" lon="6.815872">
        <ele>1822.461</ele>
        <time>2018-07-05T08:06:39Z</time>
      </trkpt>
      <trkpt lat="46.172826" lon="6.815845">
        <ele>1822.848</ele>
        <time>2018-07-05T08:06:43Z</time>
      </trkpt>
      <trkpt lat="46.172778" lon="6.815832">
        <ele>1823.034</ele>
        <time>2018-07-05T08:06:47Z</time>
      </trkpt>
      <trkpt lat="46.172730" lon="6.815825">
        <ele>1823.069</ele>
        <time>2018-07-05T08:06:51Z</time>
      </trkpt>
      <trkpt lat="46.172682" lon="6.815825">
        <ele>1822.878</ele>
        <time>2018-07-05T08:06:55Z</time>
      </trkpt>
      <trkpt lat="46.172633" lon="6.815833">
        <ele>1822.533</ele>
        <time>2018-07-05T08:06:59Z</time>
      </trkpt>
      <trkpt lat="46.172581" lon="6.815840">
        <ele>1822.226</ele>
        <time>2018-07-05T08:07:03Z</time>
      </trkpt>
      <trkpt lat="46.172529" lon="6.815846">
        <ele>1821.908</ele>
        <time>2018-07-05T08:07:07Z</time>
      </trkpt>
      <trkpt lat="46.172478" lon="6.815853">
        <ele>1821.779</ele>
        <time>2018-07-05T08:07:11Z</time>
      </trkpt>
      <trkpt lat="46.172427" lon="6.815855">
        <ele>1821.735</ele>
        <time>2018-07-05T08:07:15Z</time>
      </trkpt>
      <trkpt lat="46.172375" lon="6.815859">
        <ele>1821.727</ele>
        <time>2018-07-05T08:07:19Z</time>
      </trkpt>
      <trkpt lat="46.172323" lon="6.815865">
        <ele>1821.623</ele>
        <time>2018-07-05T08:07:23Z</time>
      </trkpt>
      <trkpt lat="46.172273" lon="6.815865">
        <ele>1821.615</ele>
        <time>2018-07-05T08:07:27Z</time>
      </trkpt>
      <trkpt lat="46.172223" lon="6.815863">
        <ele>1821.712</ele>
        <time>2018-07-05T08:07:31Z</time>
      </trkpt>
      <trkpt lat="46.172173" lon="6.815855">
        <ele>1821.728</ele>
        <time>2018-07-05T08:07:35Z</time>
      </trkpt>
      <trkpt lat="46.172121" lon="6.815849">
        <ele>1821.893</ele>
        <time>2018-07-05T08:07:39Z</time>
      </trkpt>
      <trkpt lat="46.172070" lon="6.815844">
        <ele>1821.891</ele>
        <time>2018-07-05T08:07:43Z</time>
      </trkpt>
      <trkpt lat="46.172021" lon="6.815838">
        <ele>1821.981</ele>
        <time>2018-07-05T08:07:47Z</time>
      </trkpt>
      <trkpt lat="46.171972" lon="6.815828">
        <ele>1822.119</ele>
        <time>2018-07-05T08:07:51Z</time>
      </trkpt>
      <trkpt lat="46.171924" lon="6.815822">
        <ele>1822.308</ele>
        <time>2018-07-05T08:07:55Z</time>
      </trkpt>
      <trkpt lat="46.171873" lon="6.815814">
        <ele>1822.891</ele>
        <time>2018-07-05T08:07:59Z</time>
      </trkpt>
      <trkpt lat="46.171827" lon="6.815803">
        <ele>1823.237</ele>
        <time>2018-07-05T08:08:03Z</time>
      </trkpt>
      <trkpt lat="46.171781" lon="6.815797">
        <ele>1823.629</ele>
        <time>2018-07-05T08:08:07Z</time>
      </trkpt>
      <trkpt lat="46.171730" lon="6.815806">
        <ele>1823.965</ele>
        <time>2018-07-05T08:08:11Z</time>
      </trkpt>
      <trkpt lat="46.171686" lon="6.815843">
        <ele>1823.877</ele>
        <time>2018-07-05T08:08:15Z</time>
      </trkpt>
      <trkpt lat="46.171656" lon="6.815896">
        <ele>1823.494</ele>
        <time>2018-07-05T08:08:19Z</time>
      </trkpt>
      <trkpt lat="46.171639" lon="6.815964">
        <ele>1822.840</ele>
        <time>2018-07-05T08:08:24Z</time>
      </trkpt>
      <trkpt lat="46.171627" lon="6.816042">
        <ele>1822.195</ele>
        <time>2018-07-05T08:08:29Z</time>
      </trkpt>
      <trkpt lat="46.171614" lon="6.816110">
        <ele>1821.647</ele>
        <time>2018-07-05T08:08:33Z</time>
      </trkpt>
      <trkpt lat="46.171599" lon="6.816179">
        <ele>1821.229</ele>
        <time>2018-07-05T08:08:37Z</time>
      </trkpt>
      <trkpt lat="46.171570" lon="6.816243">
        <ele>1820.921</ele>
        <time>2018-07-05T08:08:42Z</time>
      </trkpt>
      <trkpt lat="46.171528" lon="6.816295">
        <ele>1820.808</ele>
        <time>2018-07-05T08:08:47Z</time>
      </trkpt>
      <trkpt lat="46.171487" lon="6.816329">
        <ele>1820.976</ele>
        <time>2018-07-05T08:08:51Z</time>
      </trkpt>
      <trkpt lat="46.171441" lon="6.816355">
        <ele>1821.072</ele>
        <time>2018-07-05T08:08:55Z</time>
      </trkpt>
      <trkpt lat="46.171396" lon="6.816378">
        <ele>1821.144</ele>
        <time>2018-07-05T08:08:59Z</time>
      </trkpt>
      <trkpt lat="46.171350" lon="6.816408">
        <ele>1821.160</ele>
        <time>2018-07-05T08:09:03Z</time>
      </trkpt>
      <trkpt lat="46.171291" lon="6.816426">
        <ele>1821.492</ele>
        <time>2018-07-05T08:09:07Z</time>
      </trkpt>
      <trkpt lat="46.171245" lon="6.816429">
        <ele>1821.769</ele>
        <time>2018-07-05T08:09:10Z</time>
      </trkpt>
      <trkpt lat="46.171198" lon="6.816459">
        <ele>1821.855</ele>
        <time>2018-07-05T08:09:15Z</time>
      </trkpt>
      <trkpt lat="46.171198" lon="6.816459">
        <ele>1821.850</ele>
        <time>2018-07-05T08:09:15Z</time>
      </trkpt>
      <trkpt lat="46.171142" lon="6.816458">
        <ele>1822.315</ele>
        <time>2018-07-05T08:09:21Z</time>
      </trkpt>
      <trkpt lat="46.171117" lon="6.816550">
        <ele>1821.865</ele>
        <time>2018-07-05T08:09:56Z</time>
      </trkpt>
      <trkpt lat="46.171053" lon="6.816562">
        <ele>1822.011</ele>
        <time>2018-07-05T08:10:02Z</time>
      </trkpt>
      <trkpt lat="46.171006" lon="6.816587">
        <ele>1822.108</ele>
        <time>2018-07-05T08:10:06Z</time>
      </trkpt>
      <trkpt lat="46.170935" lon="6.816612">
        <ele>1822.263</ele>
        <time>2018-07-05T08:10:12Z</time>
      </trkpt>
      <trkpt lat="46.170888" lon="6.816627">
        <ele>1822.249</ele>
        <time>2018-07-05T08:10:16Z</time>
      </trkpt>
      <trkpt lat="46.170833" lon="6.816655">
        <ele>1822.181</ele>
        <time>2018-07-05T08:10:22Z</time>
      </trkpt>
      <trkpt lat="46.170782" lon="6.816669">
        <ele>1822.347</ele>
        <time>2018-07-05T08:10:28Z</time>
      </trkpt>
      <trkpt lat="46.170735" lon="6.816647">
        <ele>1823.059</ele>
        <time>2018-07-05T08:10:32Z</time>
      </trkpt>
      <trkpt lat="46.170662" lon="6.816677">
        <ele>1822.916</ele>
        <time>2018-07-05T08:10:38Z</time>
      </trkpt>
      <trkpt lat="46.170612" lon="6.816694">
        <ele>1822.712</ele>
        <time>2018-07-05T08:10:42Z</time>
      </trkpt>
      <trkpt lat="46.170565" lon="6.816705">
        <ele>1822.697</ele>
        <time>2018-07-05T08:10:46Z</time>
      </trkpt>
      <trkpt lat="46.170507" lon="6.816705">
        <ele>1822.972</ele>
        <time>2018-07-05T08:10:50Z</time>
      </trkpt>
      <trkpt lat="46.170460" lon="6.816717">
        <ele>1822.913</ele>
        <time>2018-07-05T08:10:55Z</time>
      </trkpt>
      <trkpt lat="46.170405" lon="6.816735">
        <ele>1822.914</ele>
        <time>2018-07-05T08:10:59Z</time>
      </trkpt>
      <trkpt lat="46.170343" lon="6.816737">
        <ele>1823.408</ele>
        <time>2018-07-05T08:11:28Z</time>
      </trkpt>
      <trkpt lat="46.170291" lon="6.816710">
        <ele>1824.349</ele>
        <time>2018-07-05T08:11:33Z</time>
      </trkpt>
      <trkpt lat="46.170246" lon="6.816694">
        <ele>1824.015</ele>
        <time>2018-07-05T08:11:37Z</time>
      </trkpt>
      <trkpt lat="46.170197" lon="6.816667">
        <ele>1823.587</ele>
        <time>2018-07-05T08:11:42Z</time>
      </trkpt>
      <trkpt lat="46.170155" lon="6.816611">
        <ele>1823.763</ele>
        <time>2018-07-05T08:11:46Z</time>
      </trkpt>
      <trkpt lat="46.170123" lon="6.816557">
        <ele>1824.045</ele>
        <time>2018-07-05T08:11:50Z</time>
      </trkpt>
      <trkpt lat="46.170092" lon="6.816508">
        <ele>1824.172</ele>
        <time>2018-07-05T08:11:54Z</time>
      </trkpt>
      <trkpt lat="46.170058" lon="6.816446">
        <ele>1824.488</ele>
        <time>2018-07-05T08:11:58Z</time>
      </trkpt>
      <trkpt lat="46.170020" lon="6.816396">
        <ele>1824.383</ele>
        <time>2018-07-05T08:12:02Z</time>
      </trkpt>
      <trkpt lat="46.169983" lon="6.816349">
        <ele>1824.015</ele>
        <time>2018-07-05T08:12:06Z</time>
      </trkpt>
      <trkpt lat="46.169949" lon="6.816300">
        <ele>1823.665</ele>
        <time>2018-07-05T08:12:10Z</time>
      </trkpt>
      <trkpt lat="46.169909" lon="6.816259">
        <ele>1822.711</ele>
        <time>2018-07-05T08:12:14Z</time>
      </trkpt>
      <trkpt lat="46.169861" lon="6.816228">
        <ele>1821.408</ele>
        <time>2018-07-05T08:12:20Z</time>
      </trkpt>
      <trkpt lat="46.169823" lon="6.816176">
        <ele>1820.853</ele>
        <time>2018-07-05T08:12:24Z</time>
      </trkpt>
      <trkpt lat="46.169784" lon="6.816121">
        <ele>1820.329</ele>
        <time>2018-07-05T08:12:28Z</time>
      </trkpt>
      <trkpt lat="46.169744" lon="6.816067">
        <ele>1819.631</ele>
        <time>2018-07-05T08:12:32Z</time>
      </trkpt>
      <trkpt lat="46.169709" lon="6.816006">
        <ele>1819.317</ele>
        <time>2018-07-05T08:12:36Z</time>
      </trkpt>
      <trkpt lat="46.169675" lon="6.815943">
        <ele>1818.929</ele>
        <time>2018-07-05T08:12:40Z</time>
      </trkpt>
      <trkpt lat="46.169653" lon="6.815875">
        <ele>1819.266</ele>
        <time>2018-07-05T08:12:44Z</time>
      </trkpt>
      <trkpt lat="46.169642" lon="6.815803">
        <ele>1819.362</ele>
        <time>2018-07-05T08:12:48Z</time>
      </trkpt>
      <trkpt lat="46.169638" lon="6.815735">
        <ele>1818.887</ele>
        <time>2018-07-05T08:12:52Z</time>
      </trkpt>
      <trkpt lat="46.169650" lon="6.815650">
        <ele>1818.742</ele>
        <time>2018-07-05T08:12:56Z</time>
      </trkpt>
      <trkpt lat="46.169657" lon="6.815573">
        <ele>1818.522</ele>
        <time>2018-07-05T08:13:00Z</time>
      </trkpt>
      <trkpt lat="46.169679" lon="6.815503">
        <ele>1819.214</ele>
        <time>2018-07-05T08:13:27Z</time>
      </trkpt>
      <trkpt lat="46.169698" lon="6.815432">
        <ele>1819.708</ele>
        <time>2018-07-05T08:13:32Z</time>
      </trkpt>
      <trkpt lat="46.169695" lon="6.815360">
        <ele>1819.426</ele>
        <time>2018-07-05T08:13:37Z</time>
      </trkpt>
      <trkpt lat="46.169680" lon="6.815282">
        <ele>1818.612</ele>
        <time>2018-07-05T08:13:42Z</time>
      </trkpt>
      <trkpt lat="46.169663" lon="6.815208">
        <ele>1818.484</ele>
        <time>2018-07-05T08:13:46Z</time>
      </trkpt>
      <trkpt lat="46.169649" lon="6.815131">
        <ele>1818.330</ele>
        <time>2018-07-05T08:13:50Z</time>
      </trkpt>
      <trkpt lat="46.169627" lon="6.815066">
        <ele>1817.912</ele>
        <time>2018-07-05T08:13:54Z</time>
      </trkpt>
      <trkpt lat="46.169602" lon="6.815002">
        <ele>1817.589</ele>
        <time>2018-07-05T08:13:58Z</time>
      </trkpt>
      <trkpt lat="46.169577" lon="6.814938">
        <ele>1817.265</ele>
        <time>2018-07-05T08:14:02Z</time>
      </trkpt>
      <trkpt lat="46.169549" lon="6.814879">
        <ele>1816.710</ele>
        <time>2018-07-05T08:14:06Z</time>
      </trkpt>
      <trkpt lat="46.169519" lon="6.814820">
        <ele>1816.354</ele>
        <time>2018-07-05T08:14:10Z</time>
      </trkpt>
      <trkpt lat="46.169488" lon="6.814764">
        <ele>1815.856</ele>
        <time>2018-07-05T08:14:14Z</time>
      </trkpt>
      <trkpt lat="46.169462" lon="6.814705">
        <ele>1815.611</ele>
        <time>2018-07-05T08:14:18Z</time>
      </trkpt>
      <trkpt lat="46.169439" lon="6.814639">
        <ele>1815.808</ele>
        <time>2018-07-05T08:14:21Z</time>
      </trkpt>
      <trkpt lat="46.169423" lon="6.814569">
        <ele>1816.237</ele>
        <time>2018-07-05T08:14:25Z</time>
      </trkpt>
      <trkpt lat="46.169403" lon="6.814509">
        <ele>1816.463</ele>
        <time>2018-07-05T08:14:29Z</time>
      </trkpt>
      <trkpt lat="46.169379" lon="6.814441">
        <ele>1816.675</ele>
        <time>2018-07-05T08:14:34Z</time>
      </trkpt>
      <trkpt lat="46.169348" lon="6.814379">
        <ele>1816.471</ele>
        <time>2018-07-05T08:14:40Z</time>
      </trkpt>
      <trkpt lat="46.169322" lon="6.814314">
        <ele>1816.383</ele>
        <time>2018-07-05T08:14:45Z</time>
      </trkpt>
      <trkpt lat="46.169280" lon="6.814267">
        <ele>1815.770</ele>
        <time>2018-07-05T08:14:50Z</time>
      </trkpt>
      <trkpt lat="46.169231" lon="6.814233">
        <ele>1814.976</ele>
        <time>2018-07-05T08:14:55Z</time>
      </trkpt>
      <trkpt lat="46.169191" lon="6.814192">
        <ele>1814.321</ele>
        <time>2018-07-05T08:14:59Z</time>
      </trkpt>
      <trkpt lat="46.169154" lon="6.814141">
        <ele>1813.861</ele>
        <time>2018-07-05T08:15:04Z</time>
      </trkpt>
      <trkpt lat="46.169117" lon="6.814097">
        <ele>1813.321</ele>
        <time>2018-07-05T08:15:08Z</time>
      </trkpt>
      <trkpt lat="46.169079" lon="6.814053">
        <ele>1812.813</ele>
        <time>2018-07-05T08:15:12Z</time>
      </trkpt>
      <trkpt lat="46.169042" lon="6.814010">
        <ele>1812.408</ele>
        <time>2018-07-05T08:15:16Z</time>
      </trkpt>
      <trkpt lat="46.169006" lon="6.813966">
        <ele>1812.198</ele>
        <time>2018-07-05T08:15:20Z</time>
      </trkpt>
      <trkpt lat="46.168975" lon="6.813919">
        <ele>1812.044</ele>
        <time>2018-07-05T08:15:24Z</time>
      </trkpt>
      <trkpt lat="46.168941" lon="6.813858">
        <ele>1811.836</ele>
        <time>2018-07-05T08:15:29Z</time>
      </trkpt>
      <trkpt lat="46.168915" lon="6.813799">
        <ele>1811.472</ele>
        <time>2018-07-05T08:17:12Z</time>
      </trkpt>
      <trkpt lat="46.168895" lon="6.813740">
        <ele>1811.134</ele>
        <time>2018-07-05T08:17:16Z</time>
      </trkpt>
      <trkpt lat="46.168881" lon="6.813667">
        <ele>1810.821</ele>
        <time>2018-07-05T08:17:21Z</time>
      </trkpt>
      <trkpt lat="46.168868" lon="6.813597">
        <ele>1810.547</ele>
        <time>2018-07-05T08:17:26Z</time>
      </trkpt>
      <trkpt lat="46.168861" lon="6.813532">
        <ele>1810.692</ele>
        <time>2018-07-05T08:17:30Z</time>
      </trkpt>
      <trkpt lat="46.168836" lon="6.813469">
        <ele>1810.451</ele>
        <time>2018-07-05T08:17:35Z</time>
      </trkpt>
      <trkpt lat="46.168807" lon="6.813399">
        <ele>1810.201</ele>
        <time>2018-07-05T08:17:40Z</time>
      </trkpt>
      <trkpt lat="46.168770" lon="6.813350">
        <ele>1809.711</ele>
        <time>2018-07-05T08:17:44Z</time>
      </trkpt>
      <trkpt lat="46.168726" lon="6.813331">
        <ele>1809.108</ele>
        <time>2018-07-05T08:17:49Z</time>
      </trkpt>
      <trkpt lat="46.168694" lon="6.813267">
        <ele>1809.287</ele>
        <time>2018-07-05T08:17:55Z</time>
      </trkpt>
      <trkpt lat="46.168650" lon="6.813218">
        <ele>1808.963</ele>
        <time>2018-07-05T08:18:00Z</time>
      </trkpt>
      <trkpt lat="46.168610" lon="6.813171">
        <ele>1808.795</ele>
        <time>2018-07-05T08:18:04Z</time>
      </trkpt>
      <trkpt lat="46.168578" lon="6.813123">
        <ele>1808.111</ele>
        <time>2018-07-05T08:18:08Z</time>
      </trkpt>
      <trkpt lat="46.168542" lon="6.813075">
        <ele>1807.373</ele>
        <time>2018-07-05T08:18:12Z</time>
      </trkpt>
      <trkpt lat="46.168510" lon="6.813006">
        <ele>1806.940</ele>
        <time>2018-07-05T08:18:16Z</time>
      </trkpt>
      <trkpt lat="46.168461" lon="6.812934">
        <ele>1805.926</ele>
        <time>2018-07-05T08:19:22Z</time>
      </trkpt>
      <trkpt lat="46.168441" lon="6.812875">
        <ele>1805.821</ele>
        <time>2018-07-05T08:19:26Z</time>
      </trkpt>
      <trkpt lat="46.168419" lon="6.812800">
        <ele>1805.898</ele>
        <time>2018-07-05T08:19:31Z</time>
      </trkpt>
      <trkpt lat="46.168395" lon="6.812733">
        <ele>1805.815</ele>
        <time>2018-07-05T08:19:36Z</time>
      </trkpt>
      <trkpt lat="46.168352" lon="6.812706">
        <ele>1804.726</ele>
        <time>2018-07-05T08:19:48Z</time>
      </trkpt>
      <trkpt lat="46.168319" lon="6.812645">
        <ele>1804.508</ele>
        <time>2018-07-05T08:19:54Z</time>
      </trkpt>
      <trkpt lat="46.168290" lon="6.812577">
        <ele>1804.731</ele>
        <time>2018-07-05T08:19:59Z</time>
      </trkpt>
      <trkpt lat="46.168269" lon="6.812515">
        <ele>1804.967</ele>
        <time>2018-07-05T08:20:03Z</time>
      </trkpt>
      <trkpt lat="46.168239" lon="6.812447">
        <ele>1805.169</ele>
        <time>2018-07-05T08:20:08Z</time>
      </trkpt>
      <trkpt lat="46.168203" lon="6.812399">
        <ele>1804.935</ele>
        <time>2018-07-05T08:20:12Z</time>
      </trkpt>
      <trkpt lat="46.168162" lon="6.812368">
        <ele>1804.387</ele>
        <time>2018-07-05T08:20:16Z</time>
      </trkpt>
      <trkpt lat="46.168106" lon="6.812355">
        <ele>1803.064</ele>
        <time>2018-07-05T08:20:21Z</time>
      </trkpt>
      <trkpt lat="46.168055" lon="6.812356">
        <ele>1801.690</ele>
        <time>2018-07-05T08:20:25Z</time>
      </trkpt>
      <trkpt lat="46.168008" lon="6.812342">
        <ele>1800.765</ele>
        <time>2018-07-05T08:20:29Z</time>
      </trkpt>
      <trkpt lat="46.167965" lon="6.812323">
        <ele>1800.027</ele>
        <time>2018-07-05T08:20:33Z</time>
      </trkpt>
      <trkpt lat="46.167915" lon="6.812288">
        <ele>1799.468</ele>
        <time>2018-07-05T08:20:38Z</time>
      </trkpt>
      <trkpt lat="46.167878" lon="6.812241">
        <ele>1799.214</ele>
        <time>2018-07-05T08:20:50Z</time>
      </trkpt>
      <trkpt lat="46.167853" lon="6.812178">
        <ele>1799.608</ele>
        <time>2018-07-05T08:20:55Z</time>
      </trkpt>
      <trkpt lat="46.167824" lon="6.812126">
        <ele>1799.644</ele>
        <time>2018-07-05T08:20:59Z</time>
      </trkpt>
      <trkpt lat="46.167794" lon="6.812073">
        <ele>1799.610</ele>
        <time>2018-07-05T08:21:03Z</time>
      </trkpt>
      <trkpt lat="46.167757" lon="6.812030">
        <ele>1799.422</ele>
        <time>2018-07-05T08:21:07Z</time>
      </trkpt>
      <trkpt lat="46.167720" lon="6.811993">
        <ele>1799.328</ele>
        <time>2018-07-05T08:21:11Z</time>
      </trkpt>
      <trkpt lat="46.167679" lon="6.811966">
        <ele>1798.940</ele>
        <time>2018-07-05T08:21:15Z</time>
      </trkpt>
      <trkpt lat="46.167631" lon="6.811945">
        <ele>1798.377</ele>
        <time>2018-07-05T08:21:19Z</time>
      </trkpt>
      <trkpt lat="46.167585" lon="6.811920">
        <ele>1798.053</ele>
        <time>2018-07-05T08:21:23Z</time>
      </trkpt>
      <trkpt lat="46.167539" lon="6.811888">
        <ele>1797.778</ele>
        <time>2018-07-05T08:21:27Z</time>
      </trkpt>
      <trkpt lat="46.167485" lon="6.811867">
        <ele>1797.046</ele>
        <time>2018-07-05T08:21:39Z</time>
      </trkpt>
      <trkpt lat="46.167452" lon="6.811813">
        <ele>1797.088</ele>
        <time>2018-07-05T08:21:44Z</time>
      </trkpt>
      <trkpt lat="46.167412" lon="6.811757">
        <ele>1796.816</ele>
        <time>2018-07-05T08:21:54Z</time>
      </trkpt>
      <trkpt lat="46.167376" lon="6.811710">
        <ele>1796.608</ele>
        <time>2018-07-05T08:21:59Z</time>
      </trkpt>
      <trkpt lat="46.167340" lon="6.811669">
        <ele>1796.326</ele>
        <time>2018-07-05T08:22:03Z</time>
      </trkpt>
      <trkpt lat="46.167289" lon="6.811650">
        <ele>1795.242</ele>
        <time>2018-07-05T08:22:21Z</time>
      </trkpt>
      <trkpt lat="46.167245" lon="6.811606">
        <ele>1794.754</ele>
        <time>2018-07-05T08:22:25Z</time>
      </trkpt>
      <trkpt lat="46.167212" lon="6.811554">
        <ele>1794.610</ele>
        <time>2018-07-05T08:22:30Z</time>
      </trkpt>
      <trkpt lat="46.167182" lon="6.811501">
        <ele>1794.312</ele>
        <time>2018-07-05T08:22:36Z</time>
      </trkpt>
      <trkpt lat="46.167146" lon="6.811459">
        <ele>1793.529</ele>
        <time>2018-07-05T08:22:40Z</time>
      </trkpt>
      <trkpt lat="46.167110" lon="6.811408">
        <ele>1792.825</ele>
        <time>2018-07-05T08:22:44Z</time>
      </trkpt>
      <trkpt lat="46.167080" lon="6.811345">
        <ele>1792.690</ele>
        <time>2018-07-05T08:22:48Z</time>
      </trkpt>
      <trkpt lat="46.167052" lon="6.811285">
        <ele>1792.468</ele>
        <time>2018-07-05T08:22:52Z</time>
      </trkpt>
      <trkpt lat="46.167025" lon="6.811221">
        <ele>1792.342</ele>
        <time>2018-07-05T08:22:56Z</time>
      </trkpt>
      <trkpt lat="46.167002" lon="6.811160">
        <ele>1792.426</ele>
        <time>2018-07-05T08:23:00Z</time>
      </trkpt>
      <trkpt lat="46.166981" lon="6.811099">
        <ele>1792.608</ele>
        <time>2018-07-05T08:23:04Z</time>
      </trkpt>
      <trkpt lat="46.166958" lon="6.811042">
        <ele>1792.568</ele>
        <time>2018-07-05T08:23:08Z</time>
      </trkpt>
      <trkpt lat="46.166930" lon="6.810985">
        <ele>1792.284</ele>
        <time>2018-07-05T08:23:12Z</time>
      </trkpt>
      <trkpt lat="46.166901" lon="6.810930">
        <ele>1791.846</ele>
        <time>2018-07-05T08:23:16Z</time>
      </trkpt>
      <trkpt lat="46.166866" lon="6.810877">
        <ele>1791.212</ele>
        <time>2018-07-05T08:23:20Z</time>
      </trkpt>
      <trkpt lat="46.166828" lon="6.810829">
        <ele>1790.544</ele>
        <time>2018-07-05T08:23:24Z</time>
      </trkpt>
      <trkpt lat="46.166790" lon="6.810786">
        <ele>1789.891</ele>
        <time>2018-07-05T08:23:28Z</time>
      </trkpt>
      <trkpt lat="46.166755" lon="6.810745">
        <ele>1789.237</ele>
        <time>2018-07-05T08:23:32Z</time>
      </trkpt>
      <trkpt lat="46.166713" lon="6.810690">
        <ele>1788.862</ele>
        <time>2018-07-05T08:23:36Z</time>
      </trkpt>
      <trkpt lat="46.166683" lon="6.810637">
        <ele>1788.838</ele>
        <time>2018-07-05T08:23:42Z</time>
      </trkpt>
      <trkpt lat="46.166652" lon="6.810583">
        <ele>1789.070</ele>
        <time>2018-07-05T08:23:47Z</time>
      </trkpt>
      <trkpt lat="46.166614" lon="6.810543">
        <ele>1788.917</ele>
        <time>2018-07-05T08:23:51Z</time>
      </trkpt>
      <trkpt lat="46.166563" lon="6.810526">
        <ele>1787.808</ele>
        <time>2018-07-05T08:23:55Z</time>
      </trkpt>
      <trkpt lat="46.166516" lon="6.810544">
        <ele>1786.435</ele>
        <time>2018-07-05T08:23:59Z</time>
      </trkpt>
      <trkpt lat="46.166506" lon="6.810469">
        <ele>1787.291</ele>
        <time>2018-07-05T08:24:12Z</time>
      </trkpt>
      <trkpt lat="46.166477" lon="6.810413">
        <ele>1787.393</ele>
        <time>2018-07-05T08:25:03Z</time>
      </trkpt>
      <trkpt lat="46.166463" lon="6.810335">
        <ele>1788.029</ele>
        <time>2018-07-05T08:25:09Z</time>
      </trkpt>
      <trkpt lat="46.166429" lon="6.810285">
        <ele>1787.981</ele>
        <time>2018-07-05T08:25:14Z</time>
      </trkpt>
      <trkpt lat="46.166389" lon="6.810231">
        <ele>1787.528</ele>
        <time>2018-07-05T08:25:20Z</time>
      </trkpt>
      <trkpt lat="46.166370" lon="6.810165">
        <ele>1787.844</ele>
        <time>2018-07-05T08:25:27Z</time>
      </trkpt>
      <trkpt lat="46.166339" lon="6.810101">
        <ele>1787.949</ele>
        <time>2018-07-05T08:25:33Z</time>
      </trkpt>
      <trkpt lat="46.166300" lon="6.810052">
        <ele>1787.691</ele>
        <time>2018-07-05T08:25:38Z</time>
      </trkpt>
      <trkpt lat="46.166252" lon="6.810031">
        <ele>1786.881</ele>
        <time>2018-07-05T08:25:42Z</time>
      </trkpt>
      <trkpt lat="46.166207" lon="6.810055">
        <ele>1785.619</ele>
        <time>2018-07-05T08:25:46Z</time>
      </trkpt>
      <trkpt lat="46.166164" lon="6.810074">
        <ele>1784.608</ele>
        <time>2018-07-05T08:25:50Z</time>
      </trkpt>
      <trkpt lat="46.166117" lon="6.810072">
        <ele>1783.611</ele>
        <time>2018-07-05T08:25:54Z</time>
      </trkpt>
      <trkpt lat="46.166073" lon="6.810048">
        <ele>1783.157</ele>
        <time>2018-07-05T08:25:58Z</time>
      </trkpt>
      <trkpt lat="46.166035" lon="6.809995">
        <ele>1782.989</ele>
        <time>2018-07-05T08:26:10Z</time>
      </trkpt>
      <trkpt lat="46.166002" lon="6.809930">
        <ele>1783.025</ele>
        <time>2018-07-05T08:26:15Z</time>
      </trkpt>
      <trkpt lat="46.165976" lon="6.809860">
        <ele>1783.177</ele>
        <time>2018-07-05T08:26:19Z</time>
      </trkpt>
      <trkpt lat="46.165971" lon="6.809783">
        <ele>1783.594</ele>
        <time>2018-07-05T08:26:24Z</time>
      </trkpt>
      <trkpt lat="46.165982" lon="6.809690">
        <ele>1784.230</ele>
        <time>2018-07-05T08:27:03Z</time>
      </trkpt>
      <trkpt lat="46.165992" lon="6.809623">
        <ele>1784.385</ele>
        <time>2018-07-05T08:27:05Z</time>
      </trkpt>
      <trkpt lat="46.165992" lon="6.809623">
        <ele>1784.377</ele>
        <time>2018-07-05T08:27:05Z</time>
      </trkpt>
      <trkpt lat="46.166010" lon="6.809551">
        <ele>1784.661</ele>
        <time>2018-07-05T08:27:11Z</time>
      </trkpt>
      <trkpt lat="46.166026" lon="6.809489">
        <ele>1784.927</ele>
        <time>2018-07-05T08:27:15Z</time>
      </trkpt>
      <trkpt lat="46.166034" lon="6.809423">
        <ele>1784.708</ele>
        <time>2018-07-05T08:27:21Z</time>
      </trkpt>
      <trkpt lat="46.166033" lon="6.809356">
        <ele>1783.779</ele>
        <time>2018-07-05T08:27:28Z</time>
      </trkpt>
      <trkpt lat="46.166043" lon="6.809279">
        <ele>1782.825</ele>
        <time>2018-07-05T08:27:33Z</time>
      </trkpt>
      <trkpt lat="46.166056" lon="6.809212">
        <ele>1782.177</ele>
        <time>2018-07-05T08:27:37Z</time>
      </trkpt>
      <trkpt lat="46.166067" lon="6.809142">
        <ele>1781.293</ele>
        <time>2018-07-05T08:27:41Z</time>
      </trkpt>
      <trkpt lat="46.166075" lon="6.809067">
        <ele>1779.875</ele>
        <time>2018-07-05T08:27:45Z</time>
      </trkpt>
      <trkpt lat="46.166084" lon="6.809000">
        <ele>1778.672</ele>
        <time>2018-07-05T08:27:49Z</time>
      </trkpt>
      <trkpt lat="46.166098" lon="6.808935">
        <ele>1777.628</ele>
        <time>2018-07-05T08:27:53Z</time>
      </trkpt>
      <trkpt lat="46.166113" lon="6.808864">
        <ele>1777.233</ele>
        <time>2018-07-05T08:27:57Z</time>
      </trkpt>
      <trkpt lat="46.166131" lon="6.808795">
        <ele>1778.067</ele>
        <time>2018-07-05T08:28:01Z</time>
      </trkpt>
      <trkpt lat="46.166154" lon="6.808732">
        <ele>1778.981</ele>
        <time>2018-07-05T08:28:05Z</time>
      </trkpt>
      <trkpt lat="46.166160" lon="6.808661">
        <ele>1779.319</ele>
        <time>2018-07-05T08:28:12Z</time>
      </trkpt>
      <trkpt lat="46.166109" lon="6.808647">
        <ele>1777.808</ele>
        <time>2018-07-05T08:28:18Z</time>
      </trkpt>
      <trkpt lat="46.166054" lon="6.808658">
        <ele>1775.348</ele>
        <time>2018-07-05T08:28:23Z</time>
      </trkpt>
      <trkpt lat="46.166009" lon="6.808653">
        <ele>1773.324</ele>
        <time>2018-07-05T08:28:27Z</time>
      </trkpt>
      <trkpt lat="46.165964" lon="6.808640">
        <ele>1771.346</ele>
        <time>2018-07-05T08:28:31Z</time>
      </trkpt>
      <trkpt lat="46.165924" lon="6.808610">
        <ele>1769.392</ele>
        <time>2018-07-05T08:28:35Z</time>
      </trkpt>
      <trkpt lat="46.165890" lon="6.808560">
        <ele>1768.614</ele>
        <time>2018-07-05T08:28:40Z</time>
      </trkpt>
      <trkpt lat="46.165856" lon="6.808507">
        <ele>1768.271</ele>
        <time>2018-07-05T08:28:45Z</time>
      </trkpt>
      <trkpt lat="46.165824" lon="6.808456">
        <ele>1767.977</ele>
        <time>2018-07-05T08:28:50Z</time>
      </trkpt>
      <trkpt lat="46.165790" lon="6.808405">
        <ele>1767.372</ele>
        <time>2018-07-05T08:28:55Z</time>
      </trkpt>
      <trkpt lat="46.165762" lon="6.808348">
        <ele>1767.179</ele>
        <time>2018-07-05T08:29:00Z</time>
      </trkpt>
      <trkpt lat="46.165739" lon="6.808278">
        <ele>1767.005</ele>
        <time>2018-07-05T08:29:06Z</time>
      </trkpt>
      <trkpt lat="46.165722" lon="6.808208">
        <ele>1767.125</ele>
        <time>2018-07-05T08:29:13Z</time>
      </trkpt>
      <trkpt lat="46.165681" lon="6.808162">
        <ele>1765.808</ele>
        <time>2018-07-05T08:29:20Z</time>
      </trkpt>
      <trkpt lat="46.165631" lon="6.808153">
        <ele>1763.749</ele>
        <time>2018-07-05T08:29:27Z</time>
      </trkpt>
      <trkpt lat="46.165591" lon="6.808198">
        <ele>1761.115</ele>
        <time>2018-07-05T08:29:36Z</time>
      </trkpt>
      <trkpt lat="46.165541" lon="6.808205">
        <ele>1758.627</ele>
        <time>2018-07-05T08:29:43Z</time>
      </trkpt>
      <trkpt lat="46.165518" lon="6.808139">
        <ele>1758.863</ele>
        <time>2018-07-05T08:29:50Z</time>
      </trkpt>
      <trkpt lat="46.165517" lon="6.808073">
        <ele>1760.045</ele>
        <time>2018-07-05T08:29:55Z</time>
      </trkpt>
      <trkpt lat="46.165510" lon="6.807995">
        <ele>1760.742</ele>
        <time>2018-07-05T08:30:01Z</time>
      </trkpt>
      <trkpt lat="46.165490" lon="6.807928">
        <ele>1760.498</ele>
        <time>2018-07-05T08:30:06Z</time>
      </trkpt>
      <trkpt lat="46.165474" lon="6.807866">
        <ele>1760.333</ele>
        <time>2018-07-05T08:30:11Z</time>
      </trkpt>
      <trkpt lat="46.165456" lon="6.807799">
        <ele>1760.173</ele>
        <time>2018-07-05T08:30:17Z</time>
      </trkpt>
      <trkpt lat="46.165432" lon="6.807743">
        <ele>1759.385</ele>
        <time>2018-07-05T08:30:23Z</time>
      </trkpt>
      <trkpt lat="46.165411" lon="6.807683">
        <ele>1758.413</ele>
        <time>2018-07-05T08:30:29Z</time>
      </trkpt>
      <trkpt lat="46.165379" lon="6.807634">
        <ele>1756.908</ele>
        <time>2018-07-05T08:30:35Z</time>
      </trkpt>
      <trkpt lat="46.165345" lon="6.807576">
        <ele>1755.359</ele>
        <time>2018-07-05T08:30:41Z</time>
      </trkpt>
      <trkpt lat="46.165319" lon="6.807515">
        <ele>1754.135</ele>
        <time>2018-07-05T08:30:47Z</time>
      </trkpt>
      <trkpt lat="46.165288" lon="6.807451">
        <ele>1752.187</ele>
        <time>2018-07-05T08:30:54Z</time>
      </trkpt>
      <trkpt lat="46.165274" lon="6.807389">
        <ele>1751.123</ele>
        <time>2018-07-05T08:30:58Z</time>
      </trkpt>
      <trkpt lat="46.165265" lon="6.807313">
        <ele>1750.165</ele>
        <time>2018-07-05T08:31:03Z</time>
      </trkpt>
      <trkpt lat="46.165265" lon="6.807234">
        <ele>1749.562</ele>
        <time>2018-07-05T08:31:08Z</time>
      </trkpt>
      <trkpt lat="46.165275" lon="6.807159">
        <ele>1749.438</ele>
        <time>2018-07-05T08:31:13Z</time>
      </trkpt>
      <trkpt lat="46.165271" lon="6.807085">
        <ele>1748.773</ele>
        <time>2018-07-05T08:31:19Z</time>
      </trkpt>
      <trkpt lat="46.165246" lon="6.807020">
        <ele>1747.378</ele>
        <time>2018-07-05T08:31:26Z</time>
      </trkpt>
      <trkpt lat="46.165217" lon="6.806960">
        <ele>1745.933</ele>
        <time>2018-07-05T08:31:31Z</time>
      </trkpt>
      <trkpt lat="46.165197" lon="6.806896">
        <ele>1745.626</ele>
        <time>2018-07-05T08:31:36Z</time>
      </trkpt>
      <trkpt lat="46.165182" lon="6.806832">
        <ele>1745.808</ele>
        <time>2018-07-05T08:31:41Z</time>
      </trkpt>
      <trkpt lat="46.165177" lon="6.806760">
        <ele>1746.489</ele>
        <time>2018-07-05T08:31:46Z</time>
      </trkpt>
      <trkpt lat="46.165165" lon="6.806695">
        <ele>1746.635</ele>
        <time>2018-07-05T08:31:51Z</time>
      </trkpt>
      <trkpt lat="46.165160" lon="6.806625">
        <ele>1746.677</ele>
        <time>2018-07-05T08:31:57Z</time>
      </trkpt>
      <trkpt lat="46.165156" lon="6.806553">
        <ele>1746.363</ele>
        <time>2018-07-05T08:32:03Z</time>
      </trkpt>
      <trkpt lat="46.165154" lon="6.806482">
        <ele>1746.045</ele>
        <time>2018-07-05T08:32:08Z</time>
      </trkpt>
      <trkpt lat="46.165149" lon="6.806410">
        <ele>1745.582</ele>
        <time>2018-07-05T08:32:13Z</time>
      </trkpt>
      <trkpt lat="46.165130" lon="6.806339">
        <ele>1744.128</ele>
        <time>2018-07-05T08:32:18Z</time>
      </trkpt>
      <trkpt lat="46.165137" lon="6.806268">
        <ele>1743.663</ele>
        <time>2018-07-05T08:32:41Z</time>
      </trkpt>
      <trkpt lat="46.165119" lon="6.806205">
        <ele>1742.266</ele>
        <time>2018-07-05T08:32:48Z</time>
      </trkpt>
      <trkpt lat="46.165105" lon="6.806130">
        <ele>1740.729</ele>
        <time>2018-07-05T08:32:54Z</time>
      </trkpt>
      <trkpt lat="46.165099" lon="6.806052">
        <ele>1739.621</ele>
        <time>2018-07-05T08:33:00Z</time>
      </trkpt>
      <trkpt lat="46.165089" lon="6.805985">
        <ele>1738.508</ele>
        <time>2018-07-05T08:33:05Z</time>
      </trkpt>
      <trkpt lat="46.165081" lon="6.805906">
        <ele>1737.318</ele>
        <time>2018-07-05T08:33:10Z</time>
      </trkpt>
      <trkpt lat="46.165070" lon="6.805830">
        <ele>1736.074</ele>
        <time>2018-07-05T08:33:15Z</time>
      </trkpt>
      <trkpt lat="46.165068" lon="6.805760">
        <ele>1735.366</ele>
        <time>2018-07-05T08:33:20Z</time>
      </trkpt>
      <trkpt lat="46.165086" lon="6.805683">
        <ele>1735.342</ele>
        <time>2018-07-05T08:33:25Z</time>
      </trkpt>
      <trkpt lat="46.165098" lon="6.805613">
        <ele>1735.114</ele>
        <time>2018-07-05T08:33:31Z</time>
      </trkpt>
      <trkpt lat="46.165095" lon="6.805545">
        <ele>1734.421</ele>
        <time>2018-07-05T08:33:40Z</time>
      </trkpt>
      <trkpt lat="46.165062" lon="6.805488">
        <ele>1733.487</ele>
        <time>2018-07-05T08:33:45Z</time>
      </trkpt>
      <trkpt lat="46.165029" lon="6.805441">
        <ele>1732.472</ele>
        <time>2018-07-05T08:33:49Z</time>
      </trkpt>
      <trkpt lat="46.164996" lon="6.805393">
        <ele>1731.598</ele>
        <time>2018-07-05T08:33:53Z</time>
      </trkpt>
      <trkpt lat="46.164965" lon="6.805332">
        <ele>1730.715</ele>
        <time>2018-07-05T08:33:58Z</time>
      </trkpt>
      <trkpt lat="46.164936" lon="6.805272">
        <ele>1730.126</ele>
        <time>2018-07-05T08:34:03Z</time>
      </trkpt>
      <trkpt lat="46.164902" lon="6.805211">
        <ele>1728.708</ele>
        <time>2018-07-05T08:34:08Z</time>
      </trkpt>
      <trkpt lat="46.164880" lon="6.805154">
        <ele>1727.741</ele>
        <time>2018-07-05T08:34:12Z</time>
      </trkpt>
      <trkpt lat="46.164860" lon="6.805093">
        <ele>1726.677</ele>
        <time>2018-07-05T08:34:16Z</time>
      </trkpt>
      <trkpt lat="46.164846" lon="6.805029">
        <ele>1725.829</ele>
        <time>2018-07-05T08:34:20Z</time>
      </trkpt>
      <trkpt lat="46.164846" lon="6.804963">
        <ele>1725.035</ele>
        <time>2018-07-05T08:34:24Z</time>
      </trkpt>
      <trkpt lat="46.164862" lon="6.804902">
        <ele>1724.427</ele>
        <time>2018-07-05T08:34:28Z</time>
      </trkpt>
      <trkpt lat="46.164884" lon="6.804836">
        <ele>1724.154</ele>
        <time>2018-07-05T08:34:33Z</time>
      </trkpt>
      <trkpt lat="46.164848" lon="6.804794">
        <ele>1722.280</ele>
        <time>2018-07-05T08:34:42Z</time>
      </trkpt>
      <trkpt lat="46.164799" lon="6.804796">
        <ele>1720.745</ele>
        <time>2018-07-05T08:34:48Z</time>
      </trkpt>
      <trkpt lat="46.164752" lon="6.804791">
        <ele>1719.274</ele>
        <time>2018-07-05T08:34:53Z</time>
      </trkpt>
      <trkpt lat="46.164699" lon="6.804794">
        <ele>1717.656</ele>
        <time>2018-07-05T08:34:59Z</time>
      </trkpt>
      <trkpt lat="46.164649" lon="6.804803">
        <ele>1716.421</ele>
        <time>2018-07-05T08:35:05Z</time>
      </trkpt>
      <trkpt lat="46.164597" lon="6.804808">
        <ele>1715.008</ele>
        <time>2018-07-05T08:35:11Z</time>
      </trkpt>
      <trkpt lat="46.164552" lon="6.804826">
        <ele>1713.939</ele>
        <time>2018-07-05T08:35:17Z</time>
      </trkpt>
      <trkpt lat="46.164506" lon="6.804840">
        <ele>1712.765</ele>
        <time>2018-07-05T08:35:23Z</time>
      </trkpt>
      <trkpt lat="46.164458" lon="6.804853">
        <ele>1711.487</ele>
        <time>2018-07-05T08:35:29Z</time>
      </trkpt>
      <trkpt lat="46.164411" lon="6.804883">
        <ele>1709.943</ele>
        <time>2018-07-05T08:35:36Z</time>
      </trkpt>
      <trkpt lat="46.164387" lon="6.804947">
        <ele>1709.345</ele>
        <time>2018-07-05T08:35:43Z</time>
      </trkpt>
      <trkpt lat="46.164379" lon="6.805016">
        <ele>1709.112</ele>
        <time>2018-07-05T08:35:49Z</time>
      </trkpt>
      <trkpt lat="46.164393" lon="6.805086">
        <ele>1709.458</ele>
        <time>2018-07-05T08:35:55Z</time>
      </trkpt>
      <trkpt lat="46.164405" lon="6.805150">
        <ele>1709.623</ele>
        <time>2018-07-05T08:36:01Z</time>
      </trkpt>
      <trkpt lat="46.164397" lon="6.805219">
        <ele>1708.917</ele>
        <time>2018-07-05T08:36:08Z</time>
      </trkpt>
      <trkpt lat="46.164404" lon="6.805287">
        <ele>1708.887</ele>
        <time>2018-07-05T08:36:14Z</time>
      </trkpt>
      <trkpt lat="46.164414" lon="6.805354">
        <ele>1708.515</ele>
        <time>2018-07-05T08:36:20Z</time>
      </trkpt>
      <trkpt lat="46.164405" lon="6.805427">
        <ele>1707.108</ele>
        <time>2018-07-05T08:36:26Z</time>
      </trkpt>
      <trkpt lat="46.164382" lon="6.805483">
        <ele>1705.443</ele>
        <time>2018-07-05T08:36:31Z</time>
      </trkpt>
      <trkpt lat="46.164353" lon="6.805537">
        <ele>1703.689</ele>
        <time>2018-07-05T08:36:36Z</time>
      </trkpt>
      <trkpt lat="46.164306" lon="6.805557">
        <ele>1701.531</ele>
        <time>2018-07-05T08:36:42Z</time>
      </trkpt>
      <trkpt lat="46.164261" lon="6.805537">
        <ele>1699.997</ele>
        <time>2018-07-05T08:36:48Z</time>
      </trkpt>
      <trkpt lat="46.164219" lon="6.805500">
        <ele>1698.499</ele>
        <time>2018-07-05T08:36:54Z</time>
      </trkpt>
      <trkpt lat="46.164194" lon="6.805435">
        <ele>1697.676</ele>
        <time>2018-07-05T08:37:00Z</time>
      </trkpt>
      <trkpt lat="46.164170" lon="6.805379">
        <ele>1696.852</ele>
        <time>2018-07-05T08:37:05Z</time>
      </trkpt>
      <trkpt lat="46.164148" lon="6.805321">
        <ele>1696.237</ele>
        <time>2018-07-05T08:37:15Z</time>
      </trkpt>
      <trkpt lat="46.164119" lon="6.805261">
        <ele>1695.575</ele>
        <time>2018-07-05T08:37:21Z</time>
      </trkpt>
      <trkpt lat="46.164090" lon="6.805203">
        <ele>1695.028</ele>
        <time>2018-07-05T08:37:26Z</time>
      </trkpt>
      <trkpt lat="46.164066" lon="6.805147">
        <ele>1694.620</ele>
        <time>2018-07-05T08:37:31Z</time>
      </trkpt>
      <trkpt lat="46.164043" lon="6.805090">
        <ele>1694.308</ele>
        <time>2018-07-05T08:37:36Z</time>
      </trkpt>
      <trkpt lat="46.164016" lon="6.805035">
        <ele>1693.789</ele>
        <time>2018-07-05T08:37:41Z</time>
      </trkpt>
      <trkpt lat="46.163988" lon="6.804967">
        <ele>1693.265</ele>
        <time>2018-07-05T08:37:46Z</time>
      </trkpt>
      <trkpt lat="46.163966" lon="6.804900">
        <ele>1692.827</ele>
        <time>2018-07-05T08:37:51Z</time>
      </trkpt>
      <trkpt lat="46.163935" lon="6.804841">
        <ele>1692.083</ele>
        <time>2018-07-05T08:37:57Z</time>
      </trkpt>
      <trkpt lat="46.163904" lon="6.804782">
        <ele>1691.265</ele>
        <time>2018-07-05T08:38:02Z</time>
      </trkpt>
      <trkpt lat="46.163876" lon="6.804724">
        <ele>1690.642</ele>
        <time>2018-07-05T08:38:07Z</time>
      </trkpt>
      <trkpt lat="46.163847" lon="6.804671">
        <ele>1689.648</ele>
        <time>2018-07-05T08:38:12Z</time>
      </trkpt>
      <trkpt lat="46.163816" lon="6.804612">
        <ele>1688.523</ele>
        <time>2018-07-05T08:38:17Z</time>
      </trkpt>
      <trkpt lat="46.163785" lon="6.804559">
        <ele>1687.469</ele>
        <time>2018-07-05T08:38:22Z</time>
      </trkpt>
      <trkpt lat="46.163754" lon="6.804508">
        <ele>1686.304</ele>
        <time>2018-07-05T08:38:27Z</time>
      </trkpt>
      <trkpt lat="46.163728" lon="6.804447">
        <ele>1685.424</ele>
        <time>2018-07-05T08:38:33Z</time>
      </trkpt>
      <trkpt lat="46.163726" lon="6.804375">
        <ele>1684.908</ele>
        <time>2018-07-05T08:38:39Z</time>
      </trkpt>
      <trkpt lat="46.163715" lon="6.804312">
        <ele>1684.238</ele>
        <time>2018-07-05T08:38:44Z</time>
      </trkpt>
      <trkpt lat="46.163673" lon="6.804271">
        <ele>1682.754</ele>
        <time>2018-07-05T08:38:51Z</time>
      </trkpt>
      <trkpt lat="46.163629" lon="6.804250">
        <ele>1681.256</ele>
        <time>2018-07-05T08:38:56Z</time>
      </trkpt>
      <trkpt lat="46.163583" lon="6.804219">
        <ele>1679.472</ele>
        <time>2018-07-05T08:39:01Z</time>
      </trkpt>
      <trkpt lat="46.163540" lon="6.804192">
        <ele>1677.814</ele>
        <time>2018-07-05T08:39:06Z</time>
      </trkpt>
      <trkpt lat="46.163491" lon="6.804186">
        <ele>1676.191</ele>
        <time>2018-07-05T08:39:12Z</time>
      </trkpt>
      <trkpt lat="46.163444" lon="6.804157">
        <ele>1674.717</ele>
        <time>2018-07-05T08:39:21Z</time>
      </trkpt>
      <trkpt lat="46.163402" lon="6.804110">
        <ele>1673.942</ele>
        <time>2018-07-05T08:39:27Z</time>
      </trkpt>
      <trkpt lat="46.163377" lon="6.804036">
        <ele>1674.148</ele>
        <time>2018-07-05T08:39:36Z</time>
      </trkpt>
      <trkpt lat="46.163369" lon="6.803968">
        <ele>1674.861</ele>
        <time>2018-07-05T08:39:40Z</time>
      </trkpt>
      <trkpt lat="46.163351" lon="6.803898">
        <ele>1675.317</ele>
        <time>2018-07-05T08:39:45Z</time>
      </trkpt>
      <trkpt lat="46.163321" lon="6.803842">
        <ele>1675.508</ele>
        <time>2018-07-05T08:39:49Z</time>
      </trkpt>
      <trkpt lat="46.163282" lon="6.803801">
        <ele>1675.216</ele>
        <time>2018-07-05T08:39:56Z</time>
      </trkpt>
      <trkpt lat="46.163248" lon="6.803745">
        <ele>1675.532</ele>
        <time>2018-07-05T08:40:02Z</time>
      </trkpt>
      <trkpt lat="46.163216" lon="6.803697">
        <ele>1675.784</ele>
        <time>2018-07-05T08:40:06Z</time>
      </trkpt>
      <trkpt lat="46.163175" lon="6.803649">
        <ele>1675.730</ele>
        <time>2018-07-05T08:40:11Z</time>
      </trkpt>
      <trkpt lat="46.163137" lon="6.803593">
        <ele>1676.252</ele>
        <time>2018-07-05T08:40:17Z</time>
      </trkpt>
      <trkpt lat="46.163092" lon="6.803562">
        <ele>1676.099</ele>
        <time>2018-07-05T08:40:22Z</time>
      </trkpt>
      <trkpt lat="46.163048" lon="6.803540">
        <ele>1675.695</ele>
        <time>2018-07-05T08:40:26Z</time>
      </trkpt>
      <trkpt lat="46.163002" lon="6.803518">
        <ele>1675.190</ele>
        <time>2018-07-05T08:40:30Z</time>
      </trkpt>
      <trkpt lat="46.162958" lon="6.803498">
        <ele>1674.637</ele>
        <time>2018-07-05T08:40:35Z</time>
      </trkpt>
      <trkpt lat="46.162916" lon="6.803449">
        <ele>1674.849</ele>
        <time>2018-07-05T08:40:40Z</time>
      </trkpt>
      <trkpt lat="46.162877" lon="6.803412">
        <ele>1674.713</ele>
        <time>2018-07-05T08:40:45Z</time>
      </trkpt>
      <trkpt lat="46.162841" lon="6.803354">
        <ele>1675.108</ele>
        <time>2018-07-05T08:40:50Z</time>
      </trkpt>
      <trkpt lat="46.162799" lon="6.803306">
        <ele>1675.275</ele>
        <time>2018-07-05T08:40:57Z</time>
      </trkpt>
      <trkpt lat="46.162760" lon="6.803253">
        <ele>1675.651</ele>
        <time>2018-07-05T08:41:03Z</time>
      </trkpt>
      <trkpt lat="46.162717" lon="6.803204">
        <ele>1675.783</ele>
        <time>2018-07-05T08:41:12Z</time>
      </trkpt>
      <trkpt lat="46.162685" lon="6.803149">
        <ele>1676.259</ele>
        <time>2018-07-05T08:41:19Z</time>
      </trkpt>
      <trkpt lat="46.162654" lon="6.803097">
        <ele>1676.571</ele>
        <time>2018-07-05T08:41:24Z</time>
      </trkpt>
      <trkpt lat="46.162618" lon="6.803040">
        <ele>1676.798</ele>
        <time>2018-07-05T08:41:30Z</time>
      </trkpt>
      <trkpt lat="46.162577" lon="6.802996">
        <ele>1676.564</ele>
        <time>2018-07-05T08:41:35Z</time>
      </trkpt>
      <trkpt lat="46.162539" lon="6.802942">
        <ele>1676.619</ele>
        <time>2018-07-05T08:41:40Z</time>
      </trkpt>
      <trkpt lat="46.162499" lon="6.802896">
        <ele>1676.496</ele>
        <time>2018-07-05T08:41:45Z</time>
      </trkpt>
      <trkpt lat="46.162459" lon="6.802848">
        <ele>1676.631</ele>
        <time>2018-07-05T08:41:49Z</time>
      </trkpt>
      <trkpt lat="46.162417" lon="6.802805">
        <ele>1676.624</ele>
        <time>2018-07-05T08:41:53Z</time>
      </trkpt>
      <trkpt lat="46.162374" lon="6.802758">
        <ele>1676.708</ele>
        <time>2018-07-05T08:41:58Z</time>
      </trkpt>
      <trkpt lat="46.162345" lon="6.802708">
        <ele>1677.381</ele>
        <time>2018-07-05T08:42:02Z</time>
      </trkpt>
      <trkpt lat="46.162305" lon="6.802671">
        <ele>1677.297</ele>
        <time>2018-07-05T08:42:07Z</time>
      </trkpt>
      <trkpt lat="46.162263" lon="6.802630">
        <ele>1677.229</ele>
        <time>2018-07-05T08:42:12Z</time>
      </trkpt>
      <trkpt lat="46.162230" lon="6.802571">
        <ele>1677.765</ele>
        <time>2018-07-05T08:42:18Z</time>
      </trkpt>
      <trkpt lat="46.162189" lon="6.802531">
        <ele>1677.687</ele>
        <time>2018-07-05T08:42:23Z</time>
      </trkpt>
      <trkpt lat="46.162144" lon="6.802490">
        <ele>1677.764</ele>
        <time>2018-07-05T08:42:28Z</time>
      </trkpt>
      <trkpt lat="46.162100" lon="6.802462">
        <ele>1677.720</ele>
        <time>2018-07-05T08:42:32Z</time>
      </trkpt>
      <trkpt lat="46.162063" lon="6.802420">
        <ele>1678.265</ele>
        <time>2018-07-05T08:42:36Z</time>
      </trkpt>
      <trkpt lat="46.162021" lon="6.802385">
        <ele>1678.376</ele>
        <time>2018-07-05T08:42:40Z</time>
      </trkpt>
      <trkpt lat="46.161972" lon="6.802352">
        <ele>1678.090</ele>
        <time>2018-07-05T08:42:44Z</time>
      </trkpt>
      <trkpt lat="46.161928" lon="6.802321">
        <ele>1677.619</ele>
        <time>2018-07-05T08:42:48Z</time>
      </trkpt>
      <trkpt lat="46.161893" lon="6.802275">
        <ele>1677.808</ele>
        <time>2018-07-05T08:42:52Z</time>
      </trkpt>
      <trkpt lat="46.161851" lon="6.802237">
        <ele>1677.669</ele>
        <time>2018-07-05T08:42:56Z</time>
      </trkpt>
      <trkpt lat="46.161815" lon="6.802193">
        <ele>1677.695</ele>
        <time>2018-07-05T08:43:00Z</time>
      </trkpt>
      <trkpt lat="46.161785" lon="6.802143">
        <ele>1678.097</ele>
        <time>2018-07-05T08:43:04Z</time>
      </trkpt>
      <trkpt lat="46.161754" lon="6.802077">
        <ele>1678.773</ele>
        <time>2018-07-05T08:43:09Z</time>
      </trkpt>
      <trkpt lat="46.161719" lon="6.802029">
        <ele>1678.755</ele>
        <time>2018-07-05T08:43:13Z</time>
      </trkpt>
      <trkpt lat="46.161668" lon="6.802005">
        <ele>1677.582</ele>
        <time>2018-07-05T08:43:17Z</time>
      </trkpt>
      <trkpt lat="46.161620" lon="6.801984">
        <ele>1677.528</ele>
        <time>2018-07-05T08:43:21Z</time>
      </trkpt>
      <trkpt lat="46.161572" lon="6.801957">
        <ele>1677.623</ele>
        <time>2018-07-05T08:43:25Z</time>
      </trkpt>
      <trkpt lat="46.161528" lon="6.801927">
        <ele>1678.171</ele>
        <time>2018-07-05T08:43:29Z</time>
      </trkpt>
      <trkpt lat="46.161476" lon="6.801898">
        <ele>1678.441</ele>
        <time>2018-07-05T08:43:34Z</time>
      </trkpt>
      <trkpt lat="46.161424" lon="6.801888">
        <ele>1678.215</ele>
        <time>2018-07-05T08:43:39Z</time>
      </trkpt>
      <trkpt lat="46.161368" lon="6.801893">
        <ele>1677.408</ele>
        <time>2018-07-05T08:43:43Z</time>
      </trkpt>
      <trkpt lat="46.161317" lon="6.801883">
        <ele>1677.079</ele>
        <time>2018-07-05T08:43:47Z</time>
      </trkpt>
      <trkpt lat="46.161267" lon="6.801869">
        <ele>1676.835</ele>
        <time>2018-07-05T08:43:51Z</time>
      </trkpt>
      <trkpt lat="46.161221" lon="6.801860">
        <ele>1676.587</ele>
        <time>2018-07-05T08:43:55Z</time>
      </trkpt>
      <trkpt lat="46.161173" lon="6.801861">
        <ele>1675.883</ele>
        <time>2018-07-05T08:43:59Z</time>
      </trkpt>
      <trkpt lat="46.161126" lon="6.801863">
        <ele>1675.195</ele>
        <time>2018-07-05T08:44:03Z</time>
      </trkpt>
      <trkpt lat="46.161078" lon="6.801870">
        <ele>1675.262</ele>
        <time>2018-07-05T08:44:07Z</time>
      </trkpt>
      <trkpt lat="46.161028" lon="6.801885">
        <ele>1675.548</ele>
        <time>2018-07-05T08:44:11Z</time>
      </trkpt>
      <trkpt lat="46.160980" lon="6.801904">
        <ele>1675.583</ele>
        <time>2018-07-05T08:44:15Z</time>
      </trkpt>
      <trkpt lat="46.160932" lon="6.801917">
        <ele>1675.745</ele>
        <time>2018-07-05T08:44:19Z</time>
      </trkpt>
      <trkpt lat="46.160887" lon="6.801930">
        <ele>1675.847</ele>
        <time>2018-07-05T08:44:23Z</time>
      </trkpt>
      <trkpt lat="46.160837" lon="6.801948">
        <ele>1675.811</ele>
        <time>2018-07-05T08:44:27Z</time>
      </trkpt>
      <trkpt lat="46.160785" lon="6.801972">
        <ele>1675.608</ele>
        <time>2018-07-05T08:44:32Z</time>
      </trkpt>
      <trkpt lat="46.160736" lon="6.801994">
        <ele>1675.576</ele>
        <time>2018-07-05T08:44:37Z</time>
      </trkpt>
      <trkpt lat="46.160686" lon="6.802029">
        <ele>1674.952</ele>
        <time>2018-07-05T08:44:42Z</time>
      </trkpt>
      <trkpt lat="46.160644" lon="6.802065">
        <ele>1674.234</ele>
        <time>2018-07-05T08:44:46Z</time>
      </trkpt>
      <trkpt lat="46.160600" lon="6.802093">
        <ele>1673.990</ele>
        <time>2018-07-05T08:44:49Z</time>
      </trkpt>
      <trkpt lat="46.160555" lon="6.802130">
        <ele>1673.332</ele>
        <time>2018-07-05T08:44:53Z</time>
      </trkpt>
      <trkpt lat="46.160512" lon="6.802174">
        <ele>1672.069</ele>
        <time>2018-07-05T08:44:58Z</time>
      </trkpt>
      <trkpt lat="46.160471" lon="6.802207">
        <ele>1671.235</ele>
        <time>2018-07-05T08:45:03Z</time>
      </trkpt>
      <trkpt lat="46.160424" lon="6.802249">
        <ele>1670.230</ele>
        <time>2018-07-05T08:45:08Z</time>
      </trkpt>
      <trkpt lat="46.160384" lon="6.802296">
        <ele>1669.314</ele>
        <time>2018-07-05T08:45:13Z</time>
      </trkpt>
      <trkpt lat="46.160347" lon="6.802353">
        <ele>1668.154</ele>
        <time>2018-07-05T08:45:18Z</time>
      </trkpt>
      <trkpt lat="46.160319" lon="6.802404">
        <ele>1667.009</ele>
        <time>2018-07-05T08:45:22Z</time>
      </trkpt>
      <trkpt lat="46.160286" lon="6.802453">
        <ele>1666.108</ele>
        <time>2018-07-05T08:45:26Z</time>
      </trkpt>
      <trkpt lat="46.160242" lon="6.802497">
        <ele>1664.783</ele>
        <time>2018-07-05T08:45:31Z</time>
      </trkpt>
      <trkpt lat="46.160192" lon="6.802515">
        <ele>1663.739</ele>
        <time>2018-07-05T08:45:36Z</time>
      </trkpt>
      <trkpt lat="46.160145" lon="6.802506">
        <ele>1663.481</ele>
        <time>2018-07-05T08:45:40Z</time>
      </trkpt>
      <trkpt lat="46.160104" lon="6.802458">
        <ele>1664.377</ele>
        <time>2018-07-05T08:45:45Z</time>
      </trkpt>
      <trkpt lat="46.160058" lon="6.802410">
        <ele>1665.249</ele>
        <time>2018-07-05T08:45:50Z</time>
      </trkpt>
      <trkpt lat="46.160013" lon="6.802383">
        <ele>1665.546</ele>
        <time>2018-07-05T08:45:54Z</time>
      </trkpt>
      <trkpt lat="46.159969" lon="6.802366">
        <ele>1665.122</ele>
        <time>2018-07-05T08:45:58Z</time>
      </trkpt>
      <trkpt lat="46.159922" lon="6.802367">
        <ele>1663.937</ele>
        <time>2018-07-05T08:46:02Z</time>
      </trkpt>
      <trkpt lat="46.159866" lon="6.802370">
        <ele>1662.481</ele>
        <time>2018-07-05T08:46:06Z</time>
      </trkpt>
      <trkpt lat="46.159817" lon="6.802361">
        <ele>1661.461</ele>
        <time>2018-07-05T08:46:10Z</time>
      </trkpt>
      <trkpt lat="46.159770" lon="6.802333">
        <ele>1661.017</ele>
        <time>2018-07-05T08:46:15Z</time>
      </trkpt>
      <trkpt lat="46.159725" lon="6.802318">
        <ele>1660.308</ele>
        <time>2018-07-05T08:46:19Z</time>
      </trkpt>
      <trkpt lat="46.159673" lon="6.802290">
        <ele>1659.870</ele>
        <time>2018-07-05T08:46:24Z</time>
      </trkpt>
      <trkpt lat="46.159626" lon="6.802275">
        <ele>1658.926</ele>
        <time>2018-07-05T08:46:28Z</time>
      </trkpt>
      <trkpt lat="46.159580" lon="6.802242">
        <ele>1658.458</ele>
        <time>2018-07-05T08:46:33Z</time>
      </trkpt>
      <trkpt lat="46.159541" lon="6.802203">
        <ele>1658.284</ele>
        <time>2018-07-05T08:46:37Z</time>
      </trkpt>
      <trkpt lat="46.159494" lon="6.802179">
        <ele>1657.416</ele>
        <time>2018-07-05T08:46:41Z</time>
      </trkpt>
      <trkpt lat="46.159443" lon="6.802171">
        <ele>1656.113</ele>
        <time>2018-07-05T08:46:45Z</time>
      </trkpt>
      <trkpt lat="46.159390" lon="6.802169">
        <ele>1656.249</ele>
        <time>2018-07-05T08:46:49Z</time>
      </trkpt>
      <trkpt lat="46.159338" lon="6.802171">
        <ele>1656.334</ele>
        <time>2018-07-05T08:46:53Z</time>
      </trkpt>
      <trkpt lat="46.159290" lon="6.802175">
        <ele>1656.399</ele>
        <time>2018-07-05T08:46:57Z</time>
      </trkpt>
      <trkpt lat="46.159235" lon="6.802168">
        <ele>1656.507</ele>
        <time>2018-07-05T08:47:02Z</time>
      </trkpt>
      <trkpt lat="46.159185" lon="6.802167">
        <ele>1656.627</ele>
        <time>2018-07-05T08:47:06Z</time>
      </trkpt>
      <trkpt lat="46.159139" lon="6.802166">
        <ele>1656.508</ele>
        <time>2018-07-05T08:47:10Z</time>
      </trkpt>
      <trkpt lat="46.159085" lon="6.802182">
        <ele>1656.171</ele>
        <time>2018-07-05T08:47:15Z</time>
      </trkpt>
      <trkpt lat="46.159034" lon="6.802179">
        <ele>1655.837</ele>
        <time>2018-07-05T08:47:19Z</time>
      </trkpt>
      <trkpt lat="46.158983" lon="6.802159">
        <ele>1655.789</ele>
        <time>2018-07-05T08:47:23Z</time>
      </trkpt>
      <trkpt lat="46.158939" lon="6.802123">
        <ele>1655.725</ele>
        <time>2018-07-05T08:47:27Z</time>
      </trkpt>
      <trkpt lat="46.158905" lon="6.802067">
        <ele>1655.797</ele>
        <time>2018-07-05T08:47:31Z</time>
      </trkpt>
      <trkpt lat="46.158872" lon="6.802011">
        <ele>1655.144</ele>
        <time>2018-07-05T08:47:35Z</time>
      </trkpt>
      <trkpt lat="46.158846" lon="6.801956">
        <ele>1654.490</ele>
        <time>2018-07-05T08:47:39Z</time>
      </trkpt>
      <trkpt lat="46.158813" lon="6.801894">
        <ele>1653.625</ele>
        <time>2018-07-05T08:47:43Z</time>
      </trkpt>
      <trkpt lat="46.158789" lon="6.801827">
        <ele>1653.275</ele>
        <time>2018-07-05T08:47:47Z</time>
      </trkpt>
      <trkpt lat="46.158764" lon="6.801764">
        <ele>1652.828</ele>
        <time>2018-07-05T08:47:51Z</time>
      </trkpt>
      <trkpt lat="46.158729" lon="6.801713">
        <ele>1651.920</ele>
        <time>2018-07-05T08:47:55Z</time>
      </trkpt>
      <trkpt lat="46.158695" lon="6.801653">
        <ele>1651.208</ele>
        <time>2018-07-05T08:47:59Z</time>
      </trkpt>
      <trkpt lat="46.158657" lon="6.801594">
        <ele>1650.419</ele>
        <time>2018-07-05T08:48:04Z</time>
      </trkpt>
      <trkpt lat="46.158617" lon="6.801536">
        <ele>1649.615</ele>
        <time>2018-07-05T08:48:09Z</time>
      </trkpt>
      <trkpt lat="46.158584" lon="6.801488">
        <ele>1649.247</ele>
        <time>2018-07-05T08:48:13Z</time>
      </trkpt>
      <trkpt lat="46.158552" lon="6.801425">
        <ele>1649.183</ele>
        <time>2018-07-05T08:48:17Z</time>
      </trkpt>
      <trkpt lat="46.158515" lon="6.801379">
        <ele>1648.735</ele>
        <time>2018-07-05T08:48:21Z</time>
      </trkpt>
      <trkpt lat="46.158479" lon="6.801330">
        <ele>1648.542</ele>
        <time>2018-07-05T08:48:25Z</time>
      </trkpt>
      <trkpt lat="46.158443" lon="6.801288">
        <ele>1648.238</ele>
        <time>2018-07-05T08:48:29Z</time>
      </trkpt>
      <trkpt lat="46.158408" lon="6.801242">
        <ele>1648.083</ele>
        <time>2018-07-05T08:48:33Z</time>
      </trkpt>
      <trkpt lat="46.158375" lon="6.801195">
        <ele>1647.854</ele>
        <time>2018-07-05T08:48:37Z</time>
      </trkpt>
      <trkpt lat="46.158336" lon="6.801157">
        <ele>1647.456</ele>
        <time>2018-07-05T08:48:41Z</time>
      </trkpt>
      <trkpt lat="46.158298" lon="6.801116">
        <ele>1647.311</ele>
        <time>2018-07-05T08:48:45Z</time>
      </trkpt>
      <trkpt lat="46.158258" lon="6.801078">
        <ele>1647.208</ele>
        <time>2018-07-05T08:48:49Z</time>
      </trkpt>
      <trkpt lat="46.158219" lon="6.801042">
        <ele>1647.197</ele>
        <time>2018-07-05T08:48:53Z</time>
      </trkpt>
      <trkpt lat="46.158181" lon="6.800992">
        <ele>1647.223</ele>
        <time>2018-07-05T08:48:57Z</time>
      </trkpt>
      <trkpt lat="46.158142" lon="6.800954">
        <ele>1647.085</ele>
        <time>2018-07-05T08:49:02Z</time>
      </trkpt>
      <trkpt lat="46.158098" lon="6.800932">
        <ele>1646.471</ele>
        <time>2018-07-05T08:49:20Z</time>
      </trkpt>
      <trkpt lat="46.158060" lon="6.800894">
        <ele>1646.263</ele>
        <time>2018-07-05T08:51:05Z</time>
      </trkpt>
      <trkpt lat="46.158027" lon="6.800835">
        <ele>1646.690</ele>
        <time>2018-07-05T08:51:13Z</time>
      </trkpt>
      <trkpt lat="46.158020" lon="6.800756">
        <ele>1647.826</ele>
        <time>2018-07-05T08:51:21Z</time>
      </trkpt>
      <trkpt lat="46.158012" lon="6.800687">
        <ele>1648.991</ele>
        <time>2018-07-05T08:51:28Z</time>
      </trkpt>
      <trkpt lat="46.158001" lon="6.800615">
        <ele>1650.042</ele>
        <time>2018-07-05T08:51:36Z</time>
      </trkpt>
      <trkpt lat="46.157993" lon="6.800544">
        <ele>1651.122</ele>
        <time>2018-07-05T08:51:43Z</time>
      </trkpt>
      <trkpt lat="46.157975" lon="6.800476">
        <ele>1652.214</ele>
        <time>2018-07-05T08:51:50Z</time>
      </trkpt>
      <trkpt lat="46.157955" lon="6.800414">
        <ele>1653.108</ele>
        <time>2018-07-05T08:51:56Z</time>
      </trkpt>
      <trkpt lat="46.157929" lon="6.800358">
        <ele>1653.716</ele>
        <time>2018-07-05T08:52:03Z</time>
      </trkpt>
      <trkpt lat="46.157898" lon="6.800311">
        <ele>1653.972</ele>
        <time>2018-07-05T08:52:09Z</time>
      </trkpt>
      <trkpt lat="46.157865" lon="6.800251">
        <ele>1654.594</ele>
        <time>2018-07-05T08:52:16Z</time>
      </trkpt>
      <trkpt lat="46.157828" lon="6.800204">
        <ele>1654.920</ele>
        <time>2018-07-05T08:52:23Z</time>
      </trkpt>
      <trkpt lat="46.157788" lon="6.800173">
        <ele>1654.812</ele>
        <time>2018-07-05T08:52:29Z</time>
      </trkpt>
      <trkpt lat="46.157749" lon="6.800131">
        <ele>1655.419</ele>
        <time>2018-07-05T08:52:34Z</time>
      </trkpt>
      <trkpt lat="46.157709" lon="6.800098">
        <ele>1655.885</ele>
        <time>2018-07-05T08:52:39Z</time>
      </trkpt>
      <trkpt lat="46.157678" lon="6.800045">
        <ele>1656.870</ele>
        <time>2018-07-05T08:52:46Z</time>
      </trkpt>
      <trkpt lat="46.157644" lon="6.799992">
        <ele>1657.848</ele>
        <time>2018-07-05T08:52:53Z</time>
      </trkpt>
      <trkpt lat="46.157608" lon="6.799948">
        <ele>1658.561</ele>
        <time>2018-07-05T08:53:01Z</time>
      </trkpt>
      <trkpt lat="46.157576" lon="6.799898">
        <ele>1659.417</ele>
        <time>2018-07-05T08:53:08Z</time>
      </trkpt>
      <trkpt lat="46.157530" lon="6.799857">
        <ele>1659.908</ele>
        <time>2018-07-05T08:53:15Z</time>
      </trkpt>
      <trkpt lat="46.157487" lon="6.799824">
        <ele>1660.486</ele>
        <time>2018-07-05T08:53:22Z</time>
      </trkpt>
      <trkpt lat="46.157451" lon="6.799779">
        <ele>1661.412</ele>
        <time>2018-07-05T08:53:30Z</time>
      </trkpt>
      <trkpt lat="46.157402" lon="6.799757">
        <ele>1661.714</ele>
        <time>2018-07-05T08:53:37Z</time>
      </trkpt>
      <trkpt lat="46.157357" lon="6.799726">
        <ele>1662.490</ele>
        <time>2018-07-05T08:53:43Z</time>
      </trkpt>
      <trkpt lat="46.157320" lon="6.799677">
        <ele>1663.572</ele>
        <time>2018-07-05T08:53:50Z</time>
      </trkpt>
      <trkpt lat="46.157286" lon="6.799626">
        <ele>1664.759</ele>
        <time>2018-07-05T08:53:58Z</time>
      </trkpt>
      <trkpt lat="46.157247" lon="6.799582">
        <ele>1665.775</ele>
        <time>2018-07-05T08:54:06Z</time>
      </trkpt>
      <trkpt lat="46.157211" lon="6.799535">
        <ele>1666.710</ele>
        <time>2018-07-05T08:54:14Z</time>
      </trkpt>
      <trkpt lat="46.157172" lon="6.799499">
        <ele>1667.694</ele>
        <time>2018-07-05T08:54:22Z</time>
      </trkpt>
      <trkpt lat="46.157125" lon="6.799483">
        <ele>1668.057</ele>
        <time>2018-07-05T08:54:31Z</time>
      </trkpt>
      <trkpt lat="46.157078" lon="6.799463">
        <ele>1668.522</ele>
        <time>2018-07-05T08:54:39Z</time>
      </trkpt>
      <trkpt lat="46.157028" lon="6.799443">
        <ele>1669.008</ele>
        <time>2018-07-05T08:54:48Z</time>
      </trkpt>
      <trkpt lat="46.156987" lon="6.799416">
        <ele>1669.871</ele>
        <time>2018-07-05T08:54:57Z</time>
      </trkpt>
      <trkpt lat="46.156942" lon="6.799398">
        <ele>1670.457</ele>
        <time>2018-07-05T08:55:06Z</time>
      </trkpt>
      <trkpt lat="46.156898" lon="6.799375">
        <ele>1672.359</ele>
        <time>2018-07-05T08:55:14Z</time>
      </trkpt>
      <trkpt lat="46.156861" lon="6.799331">
        <ele>1674.245</ele>
        <time>2018-07-05T08:55:24Z</time>
      </trkpt>
      <trkpt lat="46.156816" lon="6.799294">
        <ele>1676.077</ele>
        <time>2018-07-05T08:55:32Z</time>
      </trkpt>
      <trkpt lat="46.156768" lon="6.799270">
        <ele>1677.374</ele>
        <time>2018-07-05T08:55:40Z</time>
      </trkpt>
      <trkpt lat="46.156723" lon="6.799278">
        <ele>1678.160</ele>
        <time>2018-07-05T08:55:48Z</time>
      </trkpt>
      <trkpt lat="46.156678" lon="6.799310">
        <ele>1678.795</ele>
        <time>2018-07-05T08:55:58Z</time>
      </trkpt>
      <trkpt lat="46.156674" lon="6.799388">
        <ele>1678.243</ele>
        <time>2018-07-05T08:56:06Z</time>
      </trkpt>
      <trkpt lat="46.156659" lon="6.799454">
        <ele>1678.164</ele>
        <time>2018-07-05T08:56:17Z</time>
      </trkpt>
      <trkpt lat="46.156660" lon="6.799527">
        <ele>1676.810</ele>
        <time>2018-07-05T08:56:25Z</time>
      </trkpt>
      <trkpt lat="46.156640" lon="6.799586">
        <ele>1676.508</ele>
        <time>2018-07-05T08:56:33Z</time>
      </trkpt>
      <trkpt lat="46.156603" lon="6.799641">
        <ele>1677.056</ele>
        <time>2018-07-05T08:56:39Z</time>
      </trkpt>
      <trkpt lat="46.156560" lon="6.799678">
        <ele>1678.092</ele>
        <time>2018-07-05T08:56:46Z</time>
      </trkpt>
      <trkpt lat="46.156516" lon="6.799710">
        <ele>1679.254</ele>
        <time>2018-07-05T08:56:53Z</time>
      </trkpt>
      <trkpt lat="46.156469" lon="6.799731">
        <ele>1680.620</ele>
        <time>2018-07-05T08:57:02Z</time>
      </trkpt>
      <trkpt lat="46.156427" lon="6.799760">
        <ele>1681.422</ele>
        <time>2018-07-05T08:57:12Z</time>
      </trkpt>
      <trkpt lat="46.156375" lon="6.799762">
        <ele>1683.099</ele>
        <time>2018-07-05T08:57:22Z</time>
      </trkpt>
      <trkpt lat="46.156324" lon="6.799761">
        <ele>1683.865</ele>
        <time>2018-07-05T08:57:29Z</time>
      </trkpt>
      <trkpt lat="46.156272" lon="6.799762">
        <ele>1684.560</ele>
        <time>2018-07-05T08:57:36Z</time>
      </trkpt>
      <trkpt lat="46.156225" lon="6.799761">
        <ele>1685.272</ele>
        <time>2018-07-05T08:57:44Z</time>
      </trkpt>
      <trkpt lat="46.156177" lon="6.799760">
        <ele>1685.913</ele>
        <time>2018-07-05T08:57:53Z</time>
      </trkpt>
      <trkpt lat="46.156131" lon="6.799742">
        <ele>1687.114</ele>
        <time>2018-07-05T08:58:02Z</time>
      </trkpt>
      <trkpt lat="46.156097" lon="6.799684">
        <ele>1688.908</ele>
        <time>2018-07-05T08:58:10Z</time>
      </trkpt>
      <trkpt lat="46.156085" lon="6.799620">
        <ele>1690.429</ele>
        <time>2018-07-05T08:58:18Z</time>
      </trkpt>
      <trkpt lat="46.156110" lon="6.799560">
        <ele>1691.535</ele>
        <time>2018-07-05T08:58:25Z</time>
      </trkpt>
      <trkpt lat="46.156156" lon="6.799541">
        <ele>1691.297</ele>
        <time>2018-07-05T08:58:33Z</time>
      </trkpt>
      <trkpt lat="46.156203" lon="6.799523">
        <ele>1690.713</ele>
        <time>2018-07-05T08:58:45Z</time>
      </trkpt>
      <trkpt lat="46.156229" lon="6.799470">
        <ele>1691.465</ele>
        <time>2018-07-05T08:58:52Z</time>
      </trkpt>
      <trkpt lat="46.156240" lon="6.799406">
        <ele>1692.312</ele>
        <time>2018-07-05T08:59:00Z</time>
      </trkpt>
      <trkpt lat="46.156213" lon="6.799351">
        <ele>1693.728</ele>
        <time>2018-07-05T08:59:11Z</time>
      </trkpt>
      <trkpt lat="46.156169" lon="6.799329">
        <ele>1695.193</ele>
        <time>2018-07-05T08:59:20Z</time>
      </trkpt>
      <trkpt lat="46.156132" lon="6.799286">
        <ele>1696.942</ele>
        <time>2018-07-05T08:59:32Z</time>
      </trkpt>
      <trkpt lat="46.156118" lon="6.799219">
        <ele>1698.722</ele>
        <time>2018-07-05T08:59:40Z</time>
      </trkpt>
      <trkpt lat="46.156122" lon="6.799148">
        <ele>1700.014</ele>
        <time>2018-07-05T08:59:47Z</time>
      </trkpt>
      <trkpt lat="46.156143" lon="6.799087">
        <ele>1700.308</ele>
        <time>2018-07-05T08:59:57Z</time>
      </trkpt>
      <trkpt lat="46.156158" lon="6.799020">
        <ele>1700.956</ele>
        <time>2018-07-05T09:00:07Z</time>
      </trkpt>
      <trkpt lat="46.156166" lon="6.798955">
        <ele>1701.752</ele>
        <time>2018-07-05T09:00:24Z</time>
      </trkpt>
      <trkpt lat="46.156146" lon="6.798892">
        <ele>1703.634</ele>
        <time>2018-07-05T09:00:33Z</time>
      </trkpt>
      <trkpt lat="46.156121" lon="6.798833">
        <ele>1705.670</ele>
        <time>2018-07-05T09:00:40Z</time>
      </trkpt>
      <trkpt lat="46.156079" lon="6.798799">
        <ele>1706.882</ele>
        <time>2018-07-05T09:00:47Z</time>
      </trkpt>
      <trkpt lat="46.156034" lon="6.798779">
        <ele>1707.529</ele>
        <time>2018-07-05T09:00:55Z</time>
      </trkpt>
      <trkpt lat="46.155986" lon="6.798759">
        <ele>1708.255</ele>
        <time>2018-07-05T09:01:04Z</time>
      </trkpt>
      <trkpt lat="46.155947" lon="6.798723">
        <ele>1709.310</ele>
        <time>2018-07-05T09:01:12Z</time>
      </trkpt>
      <trkpt lat="46.155905" lon="6.798694">
        <ele>1710.385</ele>
        <time>2018-07-05T09:01:22Z</time>
      </trkpt>
      <trkpt lat="46.155858" lon="6.798679">
        <ele>1711.189</ele>
        <time>2018-07-05T09:01:30Z</time>
      </trkpt>
      <trkpt lat="46.155813" lon="6.798653">
        <ele>1712.017</ele>
        <time>2018-07-05T09:01:41Z</time>
      </trkpt>
      <trkpt lat="46.155776" lon="6.798615">
        <ele>1713.108</ele>
        <time>2018-07-05T09:01:50Z</time>
      </trkpt>
      <trkpt lat="46.155730" lon="6.798604">
        <ele>1713.580</ele>
        <time>2018-07-05T09:01:58Z</time>
      </trkpt>
      <trkpt lat="46.155684" lon="6.798585">
        <ele>1714.196</ele>
        <time>2018-07-05T09:02:06Z</time>
      </trkpt>
      <trkpt lat="46.155653" lon="6.798530">
        <ele>1715.538</ele>
        <time>2018-07-05T09:02:14Z</time>
      </trkpt>
      <trkpt lat="46.155666" lon="6.798465">
        <ele>1717.024</ele>
        <time>2018-07-05T09:02:22Z</time>
      </trkpt>
      <trkpt lat="46.155697" lon="6.798415">
        <ele>1718.186</ele>
        <time>2018-07-05T09:02:31Z</time>
      </trkpt>
      <trkpt lat="46.155747" lon="6.798391">
        <ele>1718.663</ele>
        <time>2018-07-05T09:03:05Z</time>
      </trkpt>
      <trkpt lat="46.155732" lon="6.798329">
        <ele>1720.139</ele>
        <time>2018-07-05T09:03:24Z</time>
      </trkpt>
      <trkpt lat="46.155703" lon="6.798277">
        <ele>1721.374</ele>
        <time>2018-07-05T09:03:32Z</time>
      </trkpt>
      <trkpt lat="46.155678" lon="6.798218">
        <ele>1722.765</ele>
        <time>2018-07-05T09:03:42Z</time>
      </trkpt>
      <trkpt lat="46.155654" lon="6.798159">
        <ele>1724.268</ele>
        <time>2018-07-05T09:03:52Z</time>
      </trkpt>
      <trkpt lat="46.155616" lon="6.798113">
        <ele>1725.414</ele>
        <time>2018-07-05T09:04:01Z</time>
      </trkpt>
      <trkpt lat="46.155571" lon="6.798103">
        <ele>1725.808</ele>
        <time>2018-07-05T09:04:07Z</time>
      </trkpt>
      <trkpt lat="46.155530" lon="6.798070">
        <ele>1726.628</ele>
        <time>2018-07-05T09:04:17Z</time>
      </trkpt>
      <trkpt lat="46.155507" lon="6.798008">
        <ele>1728.044</ele>
        <time>2018-07-05T09:04:27Z</time>
      </trkpt>
      <trkpt lat="46.155484" lon="6.797948">
        <ele>1729.346</ele>
        <time>2018-07-05T09:04:38Z</time>
      </trkpt>
      <trkpt lat="46.155448" lon="6.797906">
        <ele>1730.262</ele>
        <time>2018-07-05T09:04:46Z</time>
      </trkpt>
      <trkpt lat="46.155425" lon="6.797848">
        <ele>1731.574</ele>
        <time>2018-07-05T09:04:59Z</time>
      </trkpt>
      <trkpt lat="46.155395" lon="6.797798">
        <ele>1732.681</ele>
        <time>2018-07-05T09:05:11Z</time>
      </trkpt>
      <trkpt lat="46.155372" lon="6.797742">
        <ele>1733.967</ele>
        <time>2018-07-05T09:05:21Z</time>
      </trkpt>
      <trkpt lat="46.155337" lon="6.797692">
        <ele>1735.222</ele>
        <time>2018-07-05T09:05:29Z</time>
      </trkpt>
      <trkpt lat="46.155299" lon="6.797656">
        <ele>1736.126</ele>
        <time>2018-07-05T09:05:36Z</time>
      </trkpt>
      <trkpt lat="46.155266" lon="6.797610">
        <ele>1737.247</ele>
        <time>2018-07-05T09:05:44Z</time>
      </trkpt>
      <trkpt lat="46.155239" lon="6.797557">
        <ele>1738.411</ele>
        <time>2018-07-05T09:05:51Z</time>
      </trkpt>
      <trkpt lat="46.155213" lon="6.797477">
        <ele>1740.508</ele>
        <time>2018-07-05T09:13:42Z</time>
      </trkpt>
      <trkpt lat="46.155172" lon="6.797444">
        <ele>1741.564</ele>
        <time>2018-07-05T09:13:51Z</time>
      </trkpt>
      <trkpt lat="46.155122" lon="6.797436">
        <ele>1741.690</ele>
        <time>2018-07-05T09:13:58Z</time>
      </trkpt>
      <trkpt lat="46.155075" lon="6.797454">
        <ele>1740.922</ele>
        <time>2018-07-05T09:14:04Z</time>
      </trkpt>
      <trkpt lat="46.155028" lon="6.797446">
        <ele>1741.028</ele>
        <time>2018-07-05T09:14:10Z</time>
      </trkpt>
      <trkpt lat="46.154983" lon="6.797431">
        <ele>1741.770</ele>
        <time>2018-07-05T09:14:16Z</time>
      </trkpt>
      <trkpt lat="46.154938" lon="6.797418">
        <ele>1742.827</ele>
        <time>2018-07-05T09:14:24Z</time>
      </trkpt>
      <trkpt lat="46.154893" lon="6.797407">
        <ele>1743.843</ele>
        <time>2018-07-05T09:14:33Z</time>
      </trkpt>
      <trkpt lat="46.154843" lon="6.797411">
        <ele>1744.358</ele>
        <time>2018-07-05T09:14:44Z</time>
      </trkpt>
      <trkpt lat="46.154794" lon="6.797421">
        <ele>1744.669</ele>
        <time>2018-07-05T09:14:53Z</time>
      </trkpt>
      <trkpt lat="46.154745" lon="6.797429">
        <ele>1745.004</ele>
        <time>2018-07-05T09:15:03Z</time>
      </trkpt>
      <trkpt lat="46.154700" lon="6.797418">
        <ele>1746.024</ele>
        <time>2018-07-05T09:15:10Z</time>
      </trkpt>
      <trkpt lat="46.154650" lon="6.797411">
        <ele>1746.808</ele>
        <time>2018-07-05T09:15:18Z</time>
      </trkpt>
      <trkpt lat="46.154605" lon="6.797393">
        <ele>1748.068</ele>
        <time>2018-07-05T09:15:25Z</time>
      </trkpt>
      <trkpt lat="46.154554" lon="6.797383">
        <ele>1749.044</ele>
        <time>2018-07-05T09:15:32Z</time>
      </trkpt>
      <trkpt lat="46.154509" lon="6.797380">
        <ele>1749.626</ele>
        <time>2018-07-05T09:15:40Z</time>
      </trkpt>
      <trkpt lat="46.154462" lon="6.797389">
        <ele>1750.052</ele>
        <time>2018-07-05T09:15:46Z</time>
      </trkpt>
      <trkpt lat="46.154415" lon="6.797413">
        <ele>1749.774</ele>
        <time>2018-07-05T09:15:54Z</time>
      </trkpt>
      <trkpt lat="46.154366" lon="6.797418">
        <ele>1749.851</ele>
        <time>2018-07-05T09:16:01Z</time>
      </trkpt>
      <trkpt lat="46.154321" lon="6.797416">
        <ele>1750.237</ele>
        <time>2018-07-05T09:16:07Z</time>
      </trkpt>
      <trkpt lat="46.154277" lon="6.797393">
        <ele>1751.182</ele>
        <time>2018-07-05T09:16:14Z</time>
      </trkpt>
      <trkpt lat="46.154228" lon="6.797368">
        <ele>1752.033</ele>
        <time>2018-07-05T09:16:21Z</time>
      </trkpt>
      <trkpt lat="46.154181" lon="6.797354">
        <ele>1752.623</ele>
        <time>2018-07-05T09:16:26Z</time>
      </trkpt>
      <trkpt lat="46.154132" lon="6.797337">
        <ele>1753.315</ele>
        <time>2018-07-05T09:16:32Z</time>
      </trkpt>
      <trkpt lat="46.154082" lon="6.797333">
        <ele>1753.708</ele>
        <time>2018-07-05T09:16:38Z</time>
      </trkpt>
      <trkpt lat="46.154038" lon="6.797317">
        <ele>1754.495</ele>
        <time>2018-07-05T09:16:44Z</time>
      </trkpt>
      <trkpt lat="46.153992" lon="6.797299">
        <ele>1755.111</ele>
        <time>2018-07-05T09:16:50Z</time>
      </trkpt>
      <trkpt lat="46.153941" lon="6.797284">
        <ele>1755.953</ele>
        <time>2018-07-05T09:16:57Z</time>
      </trkpt>
      <trkpt lat="46.153897" lon="6.797255">
        <ele>1757.059</ele>
        <time>2018-07-05T09:17:04Z</time>
      </trkpt>
      <trkpt lat="46.153856" lon="6.797229">
        <ele>1757.841</ele>
        <time>2018-07-05T09:17:10Z</time>
      </trkpt>
      <trkpt lat="46.153810" lon="6.797211">
        <ele>1758.228</ele>
        <time>2018-07-05T09:17:16Z</time>
      </trkpt>
      <trkpt lat="46.153765" lon="6.797188">
        <ele>1758.684</ele>
        <time>2018-07-05T09:17:23Z</time>
      </trkpt>
      <trkpt lat="46.153721" lon="6.797156">
        <ele>1759.069</ele>
        <time>2018-07-05T09:17:29Z</time>
      </trkpt>
      <trkpt lat="46.153678" lon="6.797131">
        <ele>1759.414</ele>
        <time>2018-07-05T09:17:34Z</time>
      </trkpt>
      <trkpt lat="46.153630" lon="6.797098">
        <ele>1759.854</ele>
        <time>2018-07-05T09:17:41Z</time>
      </trkpt>
      <trkpt lat="46.153583" lon="6.797066">
        <ele>1760.609</ele>
        <time>2018-07-05T09:17:47Z</time>
      </trkpt>
      <trkpt lat="46.153531" lon="6.797051">
        <ele>1761.408</ele>
        <time>2018-07-05T09:17:53Z</time>
      </trkpt>
      <trkpt lat="46.153484" lon="6.797006">
        <ele>1762.313</ele>
        <time>2018-07-05T09:17:59Z</time>
      </trkpt>
      <trkpt lat="46.153448" lon="6.796963">
        <ele>1763.089</ele>
        <time>2018-07-05T09:18:04Z</time>
      </trkpt>
      <trkpt lat="46.153400" lon="6.796942">
        <ele>1763.631</ele>
        <time>2018-07-05T09:18:10Z</time>
      </trkpt>
      <trkpt lat="46.153373" lon="6.797004">
        <ele>1763.447</ele>
        <time>2018-07-05T09:18:22Z</time>
      </trkpt>
      <trkpt lat="46.153362" lon="6.797076">
        <ele>1763.269</ele>
        <time>2018-07-05T09:18:29Z</time>
      </trkpt>
      <trkpt lat="46.153346" lon="6.797146">
        <ele>1763.176</ele>
        <time>2018-07-05T09:18:37Z</time>
      </trkpt>
      <trkpt lat="46.153328" lon="6.797206">
        <ele>1763.352</ele>
        <time>2018-07-05T09:18:44Z</time>
      </trkpt>
      <trkpt lat="46.153319" lon="6.797275">
        <ele>1763.997</ele>
        <time>2018-07-05T09:18:53Z</time>
      </trkpt>
      <trkpt lat="46.153300" lon="6.797338">
        <ele>1764.965</ele>
        <time>2018-07-05T09:19:08Z</time>
      </trkpt>
      <trkpt lat="46.153287" lon="6.797405">
        <ele>1765.468</ele>
        <time>2018-07-05T09:19:19Z</time>
      </trkpt>
      <trkpt lat="46.153264" lon="6.797469">
        <ele>1766.114</ele>
        <time>2018-07-05T09:19:31Z</time>
      </trkpt>
      <trkpt lat="46.153237" lon="6.797524">
        <ele>1766.708</ele>
        <time>2018-07-05T09:19:41Z</time>
      </trkpt>
      <trkpt lat="46.153189" lon="6.797525">
        <ele>1768.058</ele>
        <time>2018-07-05T09:19:47Z</time>
      </trkpt>
      <trkpt lat="46.153152" lon="6.797487">
        <ele>1769.414</ele>
        <time>2018-07-05T09:19:52Z</time>
      </trkpt>
      <trkpt lat="46.153119" lon="6.797440">
        <ele>1771.156</ele>
        <time>2018-07-05T09:19:58Z</time>
      </trkpt>
      <trkpt lat="46.153110" lon="6.797368">
        <ele>1772.662</ele>
        <time>2018-07-05T09:20:05Z</time>
      </trkpt>
      <trkpt lat="46.153116" lon="6.797297">
        <ele>1773.584</ele>
        <time>2018-07-05T09:20:12Z</time>
      </trkpt>
      <trkpt lat="46.153110" lon="6.797228">
        <ele>1775.051</ele>
        <time>2018-07-05T09:20:18Z</time>
      </trkpt>
      <trkpt lat="46.153103" lon="6.797160">
        <ele>1775.597</ele>
        <time>2018-07-05T09:20:24Z</time>
      </trkpt>
      <trkpt lat="46.153098" lon="6.797095">
        <ele>1775.892</ele>
        <time>2018-07-05T09:20:30Z</time>
      </trkpt>
      <trkpt lat="46.153100" lon="6.797027">
        <ele>1775.779</ele>
        <time>2018-07-05T09:20:38Z</time>
      </trkpt>
      <trkpt lat="46.153080" lon="6.796964">
        <ele>1776.805</ele>
        <time>2018-07-05T09:20:48Z</time>
      </trkpt>
      <trkpt lat="46.153040" lon="6.796999">
        <ele>1778.825</ele>
        <time>2018-07-05T09:21:00Z</time>
      </trkpt>
      <trkpt lat="46.153018" lon="6.797060">
        <ele>1779.808</ele>
        <time>2018-07-05T09:21:09Z</time>
      </trkpt>
      <trkpt lat="46.152982" lon="6.797102">
        <ele>1781.399</ele>
        <time>2018-07-05T09:21:16Z</time>
      </trkpt>
      <trkpt lat="46.152956" lon="6.797163">
        <ele>1782.095</ele>
        <time>2018-07-05T09:21:23Z</time>
      </trkpt>
      <trkpt lat="46.152922" lon="6.797217">
        <ele>1782.957</ele>
        <time>2018-07-05T09:21:35Z</time>
      </trkpt>
      <trkpt lat="46.152888" lon="6.797265">
        <ele>1783.063</ele>
        <time>2018-07-05T09:21:46Z</time>
      </trkpt>
      <trkpt lat="46.152842" lon="6.797294">
        <ele>1783.975</ele>
        <time>2018-07-05T09:21:55Z</time>
      </trkpt>
      <trkpt lat="46.152802" lon="6.797263">
        <ele>1786.152</ele>
        <time>2018-07-05T09:22:05Z</time>
      </trkpt>
      <trkpt lat="46.152823" lon="6.797201">
        <ele>1786.858</ele>
        <time>2018-07-05T09:22:17Z</time>
      </trkpt>
      <trkpt lat="46.152853" lon="6.797144">
        <ele>1786.523</ele>
        <time>2018-07-05T09:22:25Z</time>
      </trkpt>
      <trkpt lat="46.152870" lon="6.797080">
        <ele>1786.797</ele>
        <time>2018-07-05T09:22:32Z</time>
      </trkpt>
      <trkpt lat="46.152873" lon="6.797014">
        <ele>1787.523</ele>
        <time>2018-07-05T09:22:40Z</time>
      </trkpt>
      <trkpt lat="46.152870" lon="6.796948">
        <ele>1788.625</ele>
        <time>2018-07-05T09:22:48Z</time>
      </trkpt>
      <trkpt lat="46.152866" lon="6.796882">
        <ele>1789.108</ele>
        <time>2018-07-05T09:23:01Z</time>
      </trkpt>
      <trkpt lat="46.152856" lon="6.796815">
        <ele>1789.951</ele>
        <time>2018-07-05T09:23:09Z</time>
      </trkpt>
      <trkpt lat="46.152846" lon="6.796737">
        <ele>1790.897</ele>
        <time>2018-07-05T09:23:16Z</time>
      </trkpt>
      <trkpt lat="46.152835" lon="6.796671">
        <ele>1791.989</ele>
        <time>2018-07-05T09:23:22Z</time>
      </trkpt>
      <trkpt lat="46.152823" lon="6.796608">
        <ele>1792.035</ele>
        <time>2018-07-05T09:23:30Z</time>
      </trkpt>
      <trkpt lat="46.152778" lon="6.796631">
        <ele>1795.527</ele>
        <time>2018-07-05T09:23:39Z</time>
      </trkpt>
      <trkpt lat="46.152759" lon="6.796693">
        <ele>1796.684</ele>
        <time>2018-07-05T09:23:49Z</time>
      </trkpt>
      <trkpt lat="46.152767" lon="6.796762">
        <ele>1795.840</ele>
        <time>2018-07-05T09:23:59Z</time>
      </trkpt>
      <trkpt lat="46.152763" lon="6.796832">
        <ele>1795.455</ele>
        <time>2018-07-05T09:24:23Z</time>
      </trkpt>
      <trkpt lat="46.152730" lon="6.796880">
        <ele>1796.566</ele>
        <time>2018-07-05T09:24:29Z</time>
      </trkpt>
      <trkpt lat="46.152685" lon="6.796869">
        <ele>1798.629</ele>
        <time>2018-07-05T09:24:35Z</time>
      </trkpt>
      <trkpt lat="46.152651" lon="6.796818">
        <ele>1800.421</ele>
        <time>2018-07-05T09:24:44Z</time>
      </trkpt>
      <trkpt lat="46.152653" lon="6.796753">
        <ele>1800.808</ele>
        <time>2018-07-05T09:24:53Z</time>
      </trkpt>
      <trkpt lat="46.152665" lon="6.796682">
        <ele>1800.828</ele>
        <time>2018-07-05T09:25:04Z</time>
      </trkpt>
      <trkpt lat="46.152653" lon="6.796613">
        <ele>1800.914</ele>
        <time>2018-07-05T09:25:11Z</time>
      </trkpt>
      <trkpt lat="46.152631" lon="6.796547">
        <ele>1801.336</ele>
        <time>2018-07-05T09:25:18Z</time>
      </trkpt>
      <trkpt lat="46.152599" lon="6.796496">
        <ele>1802.592</ele>
        <time>2018-07-05T09:25:28Z</time>
      </trkpt>
      <trkpt lat="46.152555" lon="6.796473">
        <ele>1804.574</ele>
        <time>2018-07-05T09:25:34Z</time>
      </trkpt>
      <trkpt lat="46.152516" lon="6.796429">
        <ele>1806.331</ele>
        <time>2018-07-05T09:25:41Z</time>
      </trkpt>
      <trkpt lat="46.152480" lon="6.796390">
        <ele>1807.637</ele>
        <time>2018-07-05T09:25:49Z</time>
      </trkpt>
      <trkpt lat="46.152443" lon="6.796352">
        <ele>1807.652</ele>
        <time>2018-07-05T09:25:57Z</time>
      </trkpt>
      <trkpt lat="46.152398" lon="6.796338">
        <ele>1808.574</ele>
        <time>2018-07-05T09:26:05Z</time>
      </trkpt>
      <trkpt lat="46.152350" lon="6.796325">
        <ele>1809.656</ele>
        <time>2018-07-05T09:26:16Z</time>
      </trkpt>
      <trkpt lat="46.152327" lon="6.796386">
        <ele>1811.921</ele>
        <time>2018-07-05T09:26:25Z</time>
      </trkpt>
      <trkpt lat="46.152326" lon="6.796456">
        <ele>1812.308</ele>
        <time>2018-07-05T09:26:33Z</time>
      </trkpt>
      <trkpt lat="46.152317" lon="6.796521">
        <ele>1812.739</ele>
        <time>2018-07-05T09:26:40Z</time>
      </trkpt>
      <trkpt lat="46.152282" lon="6.796568">
        <ele>1813.935</ele>
        <time>2018-07-05T09:27:02Z</time>
      </trkpt>
      <trkpt lat="46.152237" lon="6.796582">
        <ele>1815.367</ele>
        <time>2018-07-05T09:27:09Z</time>
      </trkpt>
      <trkpt lat="46.152201" lon="6.796539">
        <ele>1815.953</ele>
        <time>2018-07-05T09:27:17Z</time>
      </trkpt>
      <trkpt lat="46.152175" lon="6.796482">
        <ele>1816.185</ele>
        <time>2018-07-05T09:27:27Z</time>
      </trkpt>
      <trkpt lat="46.152132" lon="6.796450">
        <ele>1816.882</ele>
        <time>2018-07-05T09:27:37Z</time>
      </trkpt>
      <trkpt lat="46.152085" lon="6.796435">
        <ele>1817.658</ele>
        <time>2018-07-05T09:27:46Z</time>
      </trkpt>
      <trkpt lat="46.152039" lon="6.796426">
        <ele>1818.363</ele>
        <time>2018-07-05T09:27:55Z</time>
      </trkpt>
      <trkpt lat="46.151995" lon="6.796446">
        <ele>1819.153</ele>
        <time>2018-07-05T09:28:03Z</time>
      </trkpt>
      <trkpt lat="46.151958" lon="6.796485">
        <ele>1819.804</ele>
        <time>2018-07-05T09:28:11Z</time>
      </trkpt>
      <trkpt lat="46.151924" lon="6.796535">
        <ele>1820.214</ele>
        <time>2018-07-05T09:28:18Z</time>
      </trkpt>
      <trkpt lat="46.151905" lon="6.796596">
        <ele>1820.308</ele>
        <time>2018-07-05T09:28:24Z</time>
      </trkpt>
      <trkpt lat="46.151874" lon="6.796647">
        <ele>1820.577</ele>
        <time>2018-07-05T09:28:31Z</time>
      </trkpt>
      <trkpt lat="46.151829" lon="6.796630">
        <ele>1820.933</ele>
        <time>2018-07-05T09:28:40Z</time>
      </trkpt>
      <trkpt lat="46.151798" lon="6.796580">
        <ele>1821.265</ele>
        <time>2018-07-05T09:28:48Z</time>
      </trkpt>
      <trkpt lat="46.151779" lon="6.796520">
        <ele>1821.521</ele>
        <time>2018-07-05T09:28:58Z</time>
      </trkpt>
      <trkpt lat="46.151750" lon="6.796459">
        <ele>1821.913</ele>
        <time>2018-07-05T09:29:05Z</time>
      </trkpt>
      <trkpt lat="46.151700" lon="6.796460">
        <ele>1822.450</ele>
        <time>2018-07-05T09:29:14Z</time>
      </trkpt>
      <trkpt lat="46.151653" lon="6.796484">
        <ele>1822.986</ele>
        <time>2018-07-05T09:29:22Z</time>
      </trkpt>
      <trkpt lat="46.151609" lon="6.796513">
        <ele>1823.791</ele>
        <time>2018-07-05T09:29:28Z</time>
      </trkpt>
      <trkpt lat="46.151566" lon="6.796545">
        <ele>1824.563</ele>
        <time>2018-07-05T09:29:36Z</time>
      </trkpt>
      <trkpt lat="46.151541" lon="6.796602">
        <ele>1824.844</ele>
        <time>2018-07-05T09:29:42Z</time>
      </trkpt>
      <trkpt lat="46.151506" lon="6.796649">
        <ele>1825.518</ele>
        <time>2018-07-05T09:29:49Z</time>
      </trkpt>
      <trkpt lat="46.151476" lon="6.796704">
        <ele>1826.208</ele>
        <time>2018-07-05T09:29:58Z</time>
      </trkpt>
      <trkpt lat="46.151453" lon="6.796766">
        <ele>1826.958</ele>
        <time>2018-07-05T09:30:07Z</time>
      </trkpt>
      <trkpt lat="46.151445" lon="6.796833">
        <ele>1827.364</ele>
        <time>2018-07-05T09:30:15Z</time>
      </trkpt>
      <trkpt lat="46.151441" lon="6.796898">
        <ele>1827.686</ele>
        <time>2018-07-05T09:30:23Z</time>
      </trkpt>
      <trkpt lat="46.151421" lon="6.796962">
        <ele>1828.232</ele>
        <time>2018-07-05T09:30:32Z</time>
      </trkpt>
      <trkpt lat="46.151382" lon="6.796999">
        <ele>1829.484</ele>
        <time>2018-07-05T09:30:42Z</time>
      </trkpt>
      <trkpt lat="46.151336" lon="6.797012">
        <ele>1831.131</ele>
        <time>2018-07-05T09:30:50Z</time>
      </trkpt>
      <trkpt lat="46.151289" lon="6.796989">
        <ele>1832.637</ele>
        <time>2018-07-05T09:30:59Z</time>
      </trkpt>
      <trkpt lat="46.151249" lon="6.796949">
        <ele>1833.622</ele>
        <time>2018-07-05T09:31:10Z</time>
      </trkpt>
      <trkpt lat="46.151213" lon="6.796908">
        <ele>1834.266</ele>
        <time>2018-07-05T09:31:17Z</time>
      </trkpt>
      <trkpt lat="46.151180" lon="6.796859">
        <ele>1834.529</ele>
        <time>2018-07-05T09:31:24Z</time>
      </trkpt>
      <trkpt lat="46.151146" lon="6.796809">
        <ele>1834.721</ele>
        <time>2018-07-05T09:31:34Z</time>
      </trkpt>
      <trkpt lat="46.151106" lon="6.796774">
        <ele>1835.208</ele>
        <time>2018-07-05T09:31:45Z</time>
      </trkpt>
      <trkpt lat="46.151067" lon="6.796738">
        <ele>1836.648</ele>
        <time>2018-07-05T09:31:55Z</time>
      </trkpt>
      <trkpt lat="46.151039" lon="6.796685">
        <ele>1837.074</ele>
        <time>2018-07-05T09:32:17Z</time>
      </trkpt>
      <trkpt lat="46.151004" lon="6.796636">
        <ele>1838.426</ele>
        <time>2018-07-05T09:32:26Z</time>
      </trkpt>
      <trkpt lat="46.150960" lon="6.796606">
        <ele>1840.692</ele>
        <time>2018-07-05T09:32:34Z</time>
      </trkpt>
      <trkpt lat="46.150921" lon="6.796566">
        <ele>1842.354</ele>
        <time>2018-07-05T09:32:40Z</time>
      </trkpt>
      <trkpt lat="46.150922" lon="6.796495">
        <ele>1842.181</ele>
        <time>2018-07-05T09:32:48Z</time>
      </trkpt>
      <trkpt lat="46.150925" lon="6.796429">
        <ele>1841.857</ele>
        <time>2018-07-05T09:32:55Z</time>
      </trkpt>
      <trkpt lat="46.150929" lon="6.796355">
        <ele>1841.452</ele>
        <time>2018-07-05T09:33:02Z</time>
      </trkpt>
      <trkpt lat="46.150930" lon="6.796284">
        <ele>1841.263</ele>
        <time>2018-07-05T09:33:09Z</time>
      </trkpt>
      <trkpt lat="46.150931" lon="6.796214">
        <ele>1840.944</ele>
        <time>2018-07-05T09:33:17Z</time>
      </trkpt>
      <trkpt lat="46.150921" lon="6.796144">
        <ele>1840.918</ele>
        <time>2018-07-05T09:33:26Z</time>
      </trkpt>
      <trkpt lat="46.150888" lon="6.796090">
        <ele>1841.608</ele>
        <time>2018-07-05T09:33:35Z</time>
      </trkpt>
      <trkpt lat="46.150844" lon="6.796061">
        <ele>1842.658</ele>
        <time>2018-07-05T09:33:42Z</time>
      </trkpt>
      <trkpt lat="46.150802" lon="6.796034">
        <ele>1843.674</ele>
        <time>2018-07-05T09:33:49Z</time>
      </trkpt>
      <trkpt lat="46.150750" lon="6.796027">
        <ele>1845.186</ele>
        <time>2018-07-05T09:33:56Z</time>
      </trkpt>
      <trkpt lat="46.150705" lon="6.796045">
        <ele>1846.572</ele>
        <time>2018-07-05T09:34:03Z</time>
      </trkpt>
      <trkpt lat="46.150661" lon="6.796021">
        <ele>1847.624</ele>
        <time>2018-07-05T09:34:10Z</time>
      </trkpt>
      <trkpt lat="46.150627" lon="6.795965">
        <ele>1848.411</ele>
        <time>2018-07-05T09:34:17Z</time>
      </trkpt>
      <trkpt lat="46.150590" lon="6.795926">
        <ele>1849.337</ele>
        <time>2018-07-05T09:34:23Z</time>
      </trkpt>
      <trkpt lat="46.150563" lon="6.795864">
        <ele>1849.992</ele>
        <time>2018-07-05T09:34:29Z</time>
      </trkpt>
      <trkpt lat="46.150535" lon="6.795804">
        <ele>1850.981</ele>
        <time>2018-07-05T09:34:37Z</time>
      </trkpt>
      <trkpt lat="46.150492" lon="6.795773">
        <ele>1852.661</ele>
        <time>2018-07-05T09:34:46Z</time>
      </trkpt>
      <trkpt lat="46.150449" lon="6.795798">
        <ele>1854.017</ele>
        <time>2018-07-05T09:34:54Z</time>
      </trkpt>
      <trkpt lat="46.150404" lon="6.795828">
        <ele>1855.508</ele>
        <time>2018-07-05T09:35:02Z</time>
      </trkpt>
      <trkpt lat="46.150358" lon="6.795852">
        <ele>1857.210</ele>
        <time>2018-07-05T09:35:09Z</time>
      </trkpt>
      <trkpt lat="46.150307" lon="6.795841">
        <ele>1859.036</ele>
        <time>2018-07-05T09:35:16Z</time>
      </trkpt>
      <trkpt lat="46.150266" lon="6.795807">
        <ele>1860.698</ele>
        <time>2018-07-05T09:35:22Z</time>
      </trkpt>
      <trkpt lat="46.150227" lon="6.795755">
        <ele>1862.444</ele>
        <time>2018-07-05T09:35:28Z</time>
      </trkpt>
      <trkpt lat="46.150206" lon="6.795689">
        <ele>1863.556</ele>
        <time>2018-07-05T09:35:34Z</time>
      </trkpt>
      <trkpt lat="46.150190" lon="6.795623">
        <ele>1864.393</ele>
        <time>2018-07-05T09:35:40Z</time>
      </trkpt>
      <trkpt lat="46.150167" lon="6.795567">
        <ele>1865.249</ele>
        <time>2018-07-05T09:35:47Z</time>
      </trkpt>
      <trkpt lat="46.150130" lon="6.795526">
        <ele>1866.554</ele>
        <time>2018-07-05T09:35:54Z</time>
      </trkpt>
      <trkpt lat="46.150086" lon="6.795488">
        <ele>1867.979</ele>
        <time>2018-07-05T09:36:00Z</time>
      </trkpt>
      <trkpt lat="46.150042" lon="6.795475">
        <ele>1869.205</ele>
        <time>2018-07-05T09:36:05Z</time>
      </trkpt>
      <trkpt lat="46.149995" lon="6.795470">
        <ele>1870.525</ele>
        <time>2018-07-05T09:36:11Z</time>
      </trkpt>
      <trkpt lat="46.149948" lon="6.795465">
        <ele>1871.808</ele>
        <time>2018-07-05T09:36:18Z</time>
      </trkpt>
      <trkpt lat="46.149903" lon="6.795423">
        <ele>1873.369</ele>
        <time>2018-07-05T09:36:43Z</time>
      </trkpt>
      <trkpt lat="46.149937" lon="6.795375">
        <ele>1872.555</ele>
        <time>2018-07-05T09:36:52Z</time>
      </trkpt>
      <trkpt lat="46.149980" lon="6.795350">
        <ele>1871.347</ele>
        <time>2018-07-05T09:36:58Z</time>
      </trkpt>
      <trkpt lat="46.150022" lon="6.795311">
        <ele>1870.423</ele>
        <time>2018-07-05T09:37:04Z</time>
      </trkpt>
      <trkpt lat="46.150056" lon="6.795265">
        <ele>1870.065</ele>
        <time>2018-07-05T09:37:09Z</time>
      </trkpt>
      <trkpt lat="46.150084" lon="6.795206">
        <ele>1870.122</ele>
        <time>2018-07-05T09:37:14Z</time>
      </trkpt>
      <trkpt lat="46.150099" lon="6.795138">
        <ele>1870.718</ele>
        <time>2018-07-05T09:37:20Z</time>
      </trkpt>
      <trkpt lat="46.150108" lon="6.795069">
        <ele>1871.493</ele>
        <time>2018-07-05T09:37:27Z</time>
      </trkpt>
      <trkpt lat="46.150125" lon="6.795000">
        <ele>1871.898</ele>
        <time>2018-07-05T09:37:37Z</time>
      </trkpt>
      <trkpt lat="46.150139" lon="6.794930">
        <ele>1871.515</ele>
        <time>2018-07-05T09:37:45Z</time>
      </trkpt>
      <trkpt lat="46.150141" lon="6.794859">
        <ele>1871.426</ele>
        <time>2018-07-05T09:37:54Z</time>
      </trkpt>
      <trkpt lat="46.150131" lon="6.794788">
        <ele>1871.808</ele>
        <time>2018-07-05T09:38:01Z</time>
      </trkpt>
      <trkpt lat="46.150101" lon="6.794731">
        <ele>1873.081</ele>
        <time>2018-07-05T09:38:09Z</time>
      </trkpt>
      <trkpt lat="46.150060" lon="6.794699">
        <ele>1874.957</ele>
        <time>2018-07-05T09:38:18Z</time>
      </trkpt>
      <trkpt lat="46.150012" lon="6.794697">
        <ele>1876.959</ele>
        <time>2018-07-05T09:38:39Z</time>
      </trkpt>
      <trkpt lat="46.149966" lon="6.794707">
        <ele>1878.325</ele>
        <time>2018-07-05T09:38:48Z</time>
      </trkpt>
      <trkpt lat="46.149926" lon="6.794746">
        <ele>1879.267</ele>
        <time>2018-07-05T09:38:59Z</time>
      </trkpt>
      <trkpt lat="46.149886" lon="6.794787">
        <ele>1880.014</ele>
        <time>2018-07-05T09:39:11Z</time>
      </trkpt>
      <trkpt lat="46.149849" lon="6.794832">
        <ele>1880.730</ele>
        <time>2018-07-05T09:39:19Z</time>
      </trkpt>
      <trkpt lat="46.149814" lon="6.794874">
        <ele>1881.295</ele>
        <time>2018-07-05T09:39:25Z</time>
      </trkpt>
      <trkpt lat="46.149773" lon="6.794909">
        <ele>1881.969</ele>
        <time>2018-07-05T09:39:35Z</time>
      </trkpt>
      <trkpt lat="46.149734" lon="6.794959">
        <ele>1882.304</ele>
        <time>2018-07-05T09:39:44Z</time>
      </trkpt>
      <trkpt lat="46.149695" lon="6.795005">
        <ele>1882.724</ele>
        <time>2018-07-05T09:39:51Z</time>
      </trkpt>
      <trkpt lat="46.149651" lon="6.795033">
        <ele>1883.608</ele>
        <time>2018-07-05T09:39:59Z</time>
      </trkpt>
      <trkpt lat="46.149604" lon="6.795047">
        <ele>1884.718</ele>
        <time>2018-07-05T09:40:09Z</time>
      </trkpt>
      <trkpt lat="46.149557" lon="6.795037">
        <ele>1886.144</ele>
        <time>2018-07-05T09:40:19Z</time>
      </trkpt>
      <trkpt lat="46.149557" lon="6.794968">
        <ele>1887.216</ele>
        <time>2018-07-05T09:40:30Z</time>
      </trkpt>
      <trkpt lat="46.149561" lon="6.794902">
        <ele>1888.182</ele>
        <time>2018-07-05T09:40:40Z</time>
      </trkpt>
      <trkpt lat="46.149573" lon="6.794839">
        <ele>1888.614</ele>
        <time>2018-07-05T09:40:50Z</time>
      </trkpt>
      <trkpt lat="46.149571" lon="6.794773">
        <ele>1889.661</ele>
        <time>2018-07-05T09:40:58Z</time>
      </trkpt>
      <trkpt lat="46.149557" lon="6.794708">
        <ele>1891.077</ele>
        <time>2018-07-05T09:41:08Z</time>
      </trkpt>
      <trkpt lat="46.149545" lon="6.794639">
        <ele>1892.332</ele>
        <time>2018-07-05T09:41:17Z</time>
      </trkpt>
      <trkpt lat="46.149523" lon="6.794574">
        <ele>1893.977</ele>
        <time>2018-07-05T09:41:24Z</time>
      </trkpt>
      <trkpt lat="46.149513" lon="6.794500">
        <ele>1895.261</ele>
        <time>2018-07-05T09:41:31Z</time>
      </trkpt>
      <trkpt lat="46.149504" lon="6.794430">
        <ele>1896.527</ele>
        <time>2018-07-05T09:41:38Z</time>
      </trkpt>
      <trkpt lat="46.149498" lon="6.794360">
        <ele>1897.408</ele>
        <time>2018-07-05T09:41:49Z</time>
      </trkpt>
      <trkpt lat="46.149497" lon="6.794286">
        <ele>1898.369</ele>
        <time>2018-07-05T09:41:56Z</time>
      </trkpt>
      <trkpt lat="46.149497" lon="6.794213">
        <ele>1899.115</ele>
        <time>2018-07-05T09:42:03Z</time>
      </trkpt>
      <trkpt lat="46.149489" lon="6.794139">
        <ele>1900.397</ele>
        <time>2018-07-05T09:42:10Z</time>
      </trkpt>
      <trkpt lat="46.149485" lon="6.794065">
        <ele>1901.543</ele>
        <time>2018-07-05T09:42:17Z</time>
      </trkpt>
      <trkpt lat="46.149487" lon="6.793999">
        <ele>1902.475</ele>
        <time>2018-07-05T09:42:32Z</time>
      </trkpt>
      <trkpt lat="46.149493" lon="6.793933">
        <ele>1903.362</ele>
        <time>2018-07-05T09:42:40Z</time>
      </trkpt>
      <trkpt lat="46.149490" lon="6.793861">
        <ele>1904.638</ele>
        <time>2018-07-05T09:42:48Z</time>
      </trkpt>
      <trkpt lat="46.149505" lon="6.793796">
        <ele>1905.553</ele>
        <time>2018-07-05T09:42:56Z</time>
      </trkpt>
      <trkpt lat="46.149521" lon="6.793735">
        <ele>1906.453</ele>
        <time>2018-07-05T09:43:05Z</time>
      </trkpt>
      <trkpt lat="46.149551" lon="6.793683">
        <ele>1907.004</ele>
        <time>2018-07-05T09:43:21Z</time>
      </trkpt>
      <trkpt lat="46.149576" lon="6.793624">
        <ele>1907.814</ele>
        <time>2018-07-05T09:43:32Z</time>
      </trkpt>
      <trkpt lat="46.149624" lon="6.793603">
        <ele>1907.608</ele>
        <time>2018-07-05T09:44:29Z</time>
      </trkpt>
      <trkpt lat="46.149656" lon="6.793554">
        <ele>1908.557</ele>
        <time>2018-07-05T09:44:38Z</time>
      </trkpt>
      <trkpt lat="46.149692" lon="6.793510">
        <ele>1909.343</ele>
        <time>2018-07-05T09:44:46Z</time>
      </trkpt>
      <trkpt lat="46.149734" lon="6.793471">
        <ele>1909.825</ele>
        <time>2018-07-05T09:44:53Z</time>
      </trkpt>
      <trkpt lat="46.149771" lon="6.793424">
        <ele>1910.611</ele>
        <time>2018-07-05T09:44:59Z</time>
      </trkpt>
      <trkpt lat="46.149810" lon="6.793381">
        <ele>1911.393</ele>
        <time>2018-07-05T09:45:05Z</time>
      </trkpt>
      <trkpt lat="46.149851" lon="6.793339">
        <ele>1912.030</ele>
        <time>2018-07-05T09:45:11Z</time>
      </trkpt>
      <trkpt lat="46.149890" lon="6.793306">
        <ele>1912.356</ele>
        <time>2018-07-05T09:45:17Z</time>
      </trkpt>
      <trkpt lat="46.149937" lon="6.793278">
        <ele>1912.481</ele>
        <time>2018-07-05T09:45:24Z</time>
      </trkpt>
      <trkpt lat="46.149976" lon="6.793242">
        <ele>1912.995</ele>
        <time>2018-07-05T09:45:30Z</time>
      </trkpt>
      <trkpt lat="46.150017" lon="6.793193">
        <ele>1913.749</ele>
        <time>2018-07-05T09:45:36Z</time>
      </trkpt>
      <trkpt lat="46.150063" lon="6.793156">
        <ele>1913.823</ele>
        <time>2018-07-05T09:45:42Z</time>
      </trkpt>
      <trkpt lat="46.150101" lon="6.793119">
        <ele>1914.208</ele>
        <time>2018-07-05T09:45:47Z</time>
      </trkpt>
      <trkpt lat="46.150141" lon="6.793072">
        <ele>1914.921</ele>
        <time>2018-07-05T09:45:53Z</time>
      </trkpt>
      <trkpt lat="46.150174" lon="6.793018">
        <ele>1915.317</ele>
        <time>2018-07-05T09:45:59Z</time>
      </trkpt>
      <trkpt lat="46.150160" lon="6.792954">
        <ele>1916.179</ele>
        <time>2018-07-05T09:46:14Z</time>
      </trkpt>
      <trkpt lat="46.150137" lon="6.792897">
        <ele>1916.645</ele>
        <time>2018-07-05T09:46:36Z</time>
      </trkpt>
      <trkpt lat="46.150180" lon="6.792861">
        <ele>1917.077</ele>
        <time>2018-07-05T09:47:02Z</time>
      </trkpt>
      <trkpt lat="46.150216" lon="6.792797">
        <ele>1918.064</ele>
        <time>2018-07-05T09:47:35Z</time>
      </trkpt>
      <trkpt lat="46.150177" lon="6.792755">
        <ele>1917.620</ele>
        <time>2018-07-05T09:47:51Z</time>
      </trkpt>
      <trkpt lat="46.150128" lon="6.792744">
        <ele>1916.875</ele>
        <time>2018-07-05T09:47:56Z</time>
      </trkpt>
      <trkpt lat="46.150081" lon="6.792731">
        <ele>1916.093</ele>
        <time>2018-07-05T09:48:01Z</time>
      </trkpt>
      <trkpt lat="46.150033" lon="6.792711">
        <ele>1915.065</ele>
        <time>2018-07-05T09:48:06Z</time>
      </trkpt>
      <trkpt lat="46.149989" lon="6.792684">
        <ele>1913.921</ele>
        <time>2018-07-05T09:48:11Z</time>
      </trkpt>
      <trkpt lat="46.149941" lon="6.792673">
        <ele>1913.108</ele>
        <time>2018-07-05T09:48:15Z</time>
      </trkpt>
      <trkpt lat="46.149895" lon="6.792675">
        <ele>1912.631</ele>
        <time>2018-07-05T09:48:19Z</time>
      </trkpt>
      <trkpt lat="46.149842" lon="6.792670">
        <ele>1911.937</ele>
        <time>2018-07-05T09:48:24Z</time>
      </trkpt>
      <trkpt lat="46.149790" lon="6.792646">
        <ele>1910.679</ele>
        <time>2018-07-05T09:48:29Z</time>
      </trkpt>
      <trkpt lat="46.149746" lon="6.792628">
        <ele>1909.585</ele>
        <time>2018-07-05T09:48:33Z</time>
      </trkpt>
      <trkpt lat="46.149695" lon="6.792623">
        <ele>1908.917</ele>
        <time>2018-07-05T09:48:38Z</time>
      </trkpt>
      <trkpt lat="46.149641" lon="6.792626">
        <ele>1908.834</ele>
        <time>2018-07-05T09:48:43Z</time>
      </trkpt>
      <trkpt lat="46.149596" lon="6.792621">
        <ele>1908.420</ele>
        <time>2018-07-05T09:48:47Z</time>
      </trkpt>
      <trkpt lat="46.149550" lon="6.792613">
        <ele>1907.935</ele>
        <time>2018-07-05T09:48:51Z</time>
      </trkpt>
      <trkpt lat="46.149502" lon="6.792607">
        <ele>1907.591</ele>
        <time>2018-07-05T09:48:55Z</time>
      </trkpt>
      <trkpt lat="46.149456" lon="6.792602">
        <ele>1907.181</ele>
        <time>2018-07-05T09:48:59Z</time>
      </trkpt>
      <trkpt lat="46.149411" lon="6.792573">
        <ele>1906.219</ele>
        <time>2018-07-05T09:49:03Z</time>
      </trkpt>
      <trkpt lat="46.149367" lon="6.792540">
        <ele>1905.408</ele>
        <time>2018-07-05T09:49:07Z</time>
      </trkpt>
      <trkpt lat="46.149324" lon="6.792511">
        <ele>1904.771</ele>
        <time>2018-07-05T09:49:11Z</time>
      </trkpt>
      <trkpt lat="46.149281" lon="6.792478">
        <ele>1903.947</ele>
        <time>2018-07-05T09:49:15Z</time>
      </trkpt>
      <trkpt lat="46.149237" lon="6.792442">
        <ele>1902.819</ele>
        <time>2018-07-05T09:49:19Z</time>
      </trkpt>
      <trkpt lat="46.149189" lon="6.792402">
        <ele>1901.635</ele>
        <time>2018-07-05T09:49:24Z</time>
      </trkpt>
      <trkpt lat="46.149143" lon="6.792357">
        <ele>1900.237</ele>
        <time>2018-07-05T09:49:27Z</time>
      </trkpt>
      <trkpt lat="46.149110" lon="6.792300">
        <ele>1898.344</ele>
        <time>2018-07-05T09:49:31Z</time>
      </trkpt>
      <trkpt lat="46.149086" lon="6.792233">
        <ele>1895.940</ele>
        <time>2018-07-05T09:49:37Z</time>
      </trkpt>
      <trkpt lat="46.149048" lon="6.792192">
        <ele>1895.375</ele>
        <time>2018-07-05T09:49:44Z</time>
      </trkpt>
      <trkpt lat="46.149004" lon="6.792160">
        <ele>1895.163</ele>
        <time>2018-07-05T09:49:50Z</time>
      </trkpt>
      <trkpt lat="46.148957" lon="6.792140">
        <ele>1895.444</ele>
        <time>2018-07-05T09:49:56Z</time>
      </trkpt>
      <trkpt lat="46.148910" lon="6.792137">
        <ele>1896.218</ele>
        <time>2018-07-05T09:50:01Z</time>
      </trkpt>
      <trkpt lat="46.148874" lon="6.792093">
        <ele>1895.208</ele>
        <time>2018-07-05T09:50:06Z</time>
      </trkpt>
      <trkpt lat="46.148839" lon="6.792045">
        <ele>1893.728</ele>
        <time>2018-07-05T09:50:11Z</time>
      </trkpt>
      <trkpt lat="46.148804" lon="6.791987">
        <ele>1891.934</ele>
        <time>2018-07-05T09:50:16Z</time>
      </trkpt>
      <trkpt lat="46.148756" lon="6.791962">
        <ele>1891.086</ele>
        <time>2018-07-05T09:50:22Z</time>
      </trkpt>
      <trkpt lat="46.148710" lon="6.791977">
        <ele>1891.342</ele>
        <time>2018-07-05T09:50:28Z</time>
      </trkpt>
      <trkpt lat="46.148660" lon="6.791992">
        <ele>1891.534</ele>
        <time>2018-07-05T09:50:34Z</time>
      </trkpt>
      <trkpt lat="46.148615" lon="6.791950">
        <ele>1890.241</ele>
        <time>2018-07-05T09:50:40Z</time>
      </trkpt>
      <trkpt lat="46.148578" lon="6.791898">
        <ele>1888.677</ele>
        <time>2018-07-05T09:50:45Z</time>
      </trkpt>
      <trkpt lat="46.148540" lon="6.791846">
        <ele>1887.152</ele>
        <time>2018-07-05T09:50:50Z</time>
      </trkpt>
      <trkpt lat="46.148509" lon="6.791784">
        <ele>1885.221</ele>
        <time>2018-07-05T09:50:55Z</time>
      </trkpt>
      <trkpt lat="46.148478" lon="6.791724">
        <ele>1883.441</ele>
        <time>2018-07-05T09:51:00Z</time>
      </trkpt>
      <trkpt lat="46.148445" lon="6.791666">
        <ele>1881.805</ele>
        <time>2018-07-05T09:51:05Z</time>
      </trkpt>
      <trkpt lat="46.148406" lon="6.791621">
        <ele>1880.708</ele>
        <time>2018-07-05T09:51:10Z</time>
      </trkpt>
      <trkpt lat="46.148361" lon="6.791590">
        <ele>1880.254</ele>
        <time>2018-07-05T09:51:16Z</time>
      </trkpt>
      <trkpt lat="46.148319" lon="6.791565">
        <ele>1880.020</ele>
        <time>2018-07-05T09:51:22Z</time>
      </trkpt>
      <trkpt lat="46.148272" lon="6.791530">
        <ele>1879.892</ele>
        <time>2018-07-05T09:51:27Z</time>
      </trkpt>
      <trkpt lat="46.148230" lon="6.791482">
        <ele>1879.058</ele>
        <time>2018-07-05T09:51:32Z</time>
      </trkpt>
      <trkpt lat="46.148203" lon="6.791429">
        <ele>1877.750</ele>
        <time>2018-07-05T09:51:37Z</time>
      </trkpt>
      <trkpt lat="46.148179" lon="6.791364">
        <ele>1876.117</ele>
        <time>2018-07-05T09:51:43Z</time>
      </trkpt>
      <trkpt lat="46.148162" lon="6.791297">
        <ele>1874.443</ele>
        <time>2018-07-05T09:51:48Z</time>
      </trkpt>
      <trkpt lat="46.148147" lon="6.791229">
        <ele>1872.778</ele>
        <time>2018-07-05T09:51:53Z</time>
      </trkpt>
      <trkpt lat="46.148128" lon="6.791170">
        <ele>1871.474</ele>
        <time>2018-07-05T09:51:57Z</time>
      </trkpt>
      <trkpt lat="46.148097" lon="6.791108">
        <ele>1870.156</ele>
        <time>2018-07-05T09:52:02Z</time>
      </trkpt>
      <trkpt lat="46.148051" lon="6.791070">
        <ele>1869.421</ele>
        <time>2018-07-05T09:52:07Z</time>
      </trkpt>
      <trkpt lat="46.148009" lon="6.791027">
        <ele>1868.108</ele>
        <time>2018-07-05T09:52:12Z</time>
      </trkpt>
      <trkpt lat="46.147973" lon="6.790978">
        <ele>1866.529</ele>
        <time>2018-07-05T09:52:17Z</time>
      </trkpt>
      <trkpt lat="46.147929" lon="6.790929">
        <ele>1865.075</ele>
        <time>2018-07-05T09:52:22Z</time>
      </trkpt>
      <trkpt lat="46.147891" lon="6.790892">
        <ele>1864.047</ele>
        <time>2018-07-05T09:52:27Z</time>
      </trkpt>
      <trkpt lat="46.147846" lon="6.790874">
        <ele>1863.893</ele>
        <time>2018-07-05T09:52:32Z</time>
      </trkpt>
      <trkpt lat="46.147801" lon="6.790856">
        <ele>1863.635</ele>
        <time>2018-07-05T09:52:37Z</time>
      </trkpt>
      <trkpt lat="46.147755" lon="6.790827">
        <ele>1863.012</ele>
        <time>2018-07-05T09:52:42Z</time>
      </trkpt>
      <trkpt lat="46.147721" lon="6.790772">
        <ele>1861.548</ele>
        <time>2018-07-05T09:52:48Z</time>
      </trkpt>
      <trkpt lat="46.147702" lon="6.790711">
        <ele>1859.883</ele>
        <time>2018-07-05T09:52:54Z</time>
      </trkpt>
      <trkpt lat="46.147677" lon="6.790647">
        <ele>1858.114</ele>
        <time>2018-07-05T09:53:00Z</time>
      </trkpt>
      <trkpt lat="46.147662" lon="6.790581">
        <ele>1856.354</ele>
        <time>2018-07-05T09:53:06Z</time>
      </trkpt>
      <trkpt lat="46.147643" lon="6.790511">
        <ele>1854.809</ele>
        <time>2018-07-05T09:53:12Z</time>
      </trkpt>
      <trkpt lat="46.147617" lon="6.790458">
        <ele>1854.008</ele>
        <time>2018-07-05T09:53:17Z</time>
      </trkpt>
      <trkpt lat="46.147591" lon="6.790399">
        <ele>1853.123</ele>
        <time>2018-07-05T09:53:22Z</time>
      </trkpt>
      <trkpt lat="46.147567" lon="6.790339">
        <ele>1852.139</ele>
        <time>2018-07-05T09:53:27Z</time>
      </trkpt>
      <trkpt lat="46.147541" lon="6.790285">
        <ele>1851.391</ele>
        <time>2018-07-05T09:53:32Z</time>
      </trkpt>
      <trkpt lat="46.147514" lon="6.790223">
        <ele>1850.257</ele>
        <time>2018-07-05T09:53:38Z</time>
      </trkpt>
      <trkpt lat="46.147512" lon="6.790155">
        <ele>1848.319</ele>
        <time>2018-07-05T09:53:44Z</time>
      </trkpt>
      <trkpt lat="46.147529" lon="6.790088">
        <ele>1846.186</ele>
        <time>2018-07-05T09:53:50Z</time>
      </trkpt>
      <trkpt lat="46.147573" lon="6.790056">
        <ele>1844.752</ele>
        <time>2018-07-05T09:53:59Z</time>
      </trkpt>
      <trkpt lat="46.147621" lon="6.790044">
        <ele>1843.827</ele>
        <time>2018-07-05T09:54:04Z</time>
      </trkpt>
      <trkpt lat="46.147670" lon="6.790043">
        <ele>1843.127</ele>
        <time>2018-07-05T09:54:09Z</time>
      </trkpt>
      <trkpt lat="46.147717" lon="6.790034">
        <ele>1842.368</ele>
        <time>2018-07-05T09:54:14Z</time>
      </trkpt>
      <trkpt lat="46.147769" lon="6.790022">
        <ele>1841.514</ele>
        <time>2018-07-05T09:54:19Z</time>
      </trkpt>
      <trkpt lat="46.147824" lon="6.790019">
        <ele>1840.808</ele>
        <time>2018-07-05T09:54:24Z</time>
      </trkpt>
      <trkpt lat="46.147876" lon="6.790004">
        <ele>1840.054</ele>
        <time>2018-07-05T09:54:29Z</time>
      </trkpt>
      <trkpt lat="46.147920" lon="6.789966">
        <ele>1838.810</ele>
        <time>2018-07-05T09:54:34Z</time>
      </trkpt>
      <trkpt lat="46.147957" lon="6.789919">
        <ele>1837.532</ele>
        <time>2018-07-05T09:54:39Z</time>
      </trkpt>
      <trkpt lat="46.147974" lon="6.789847">
        <ele>1836.038</ele>
        <time>2018-07-05T09:54:45Z</time>
      </trkpt>
      <trkpt lat="46.147968" lon="6.789771">
        <ele>1834.690</ele>
        <time>2018-07-05T09:54:51Z</time>
      </trkpt>
      <trkpt lat="46.147945" lon="6.789707">
        <ele>1833.367</ele>
        <time>2018-07-05T09:54:57Z</time>
      </trkpt>
      <trkpt lat="46.147913" lon="6.789659">
        <ele>1832.113</ele>
        <time>2018-07-05T09:55:02Z</time>
      </trkpt>
      <trkpt lat="46.147887" lon="6.789598">
        <ele>1830.418</ele>
        <time>2018-07-05T09:55:07Z</time>
      </trkpt>
      <trkpt lat="46.147853" lon="6.789546">
        <ele>1828.951</ele>
        <time>2018-07-05T09:55:12Z</time>
      </trkpt>
      <trkpt lat="46.147809" lon="6.789520">
        <ele>1828.301</ele>
        <time>2018-07-05T09:55:17Z</time>
      </trkpt>
      <trkpt lat="46.147760" lon="6.789494">
        <ele>1827.611</ele>
        <time>2018-07-05T09:55:23Z</time>
      </trkpt>
      <trkpt lat="46.147714" lon="6.789490">
        <ele>1827.508</ele>
        <time>2018-07-05T09:55:28Z</time>
      </trkpt>
      <trkpt lat="46.147670" lon="6.789466">
        <ele>1826.747</ele>
        <time>2018-07-05T09:55:33Z</time>
      </trkpt>
      <trkpt lat="46.147625" lon="6.789422">
        <ele>1825.033</ele>
        <time>2018-07-05T09:55:39Z</time>
      </trkpt>
      <trkpt lat="46.147583" lon="6.789395">
        <ele>1823.965</ele>
        <time>2018-07-05T09:55:45Z</time>
      </trkpt>
      <trkpt lat="46.147536" lon="6.789370">
        <ele>1822.891</ele>
        <time>2018-07-05T09:55:50Z</time>
      </trkpt>
      <trkpt lat="46.147497" lon="6.789336">
        <ele>1821.433</ele>
        <time>2018-07-05T09:55:55Z</time>
      </trkpt>
      <trkpt lat="46.147458" lon="6.789281">
        <ele>1819.520</ele>
        <time>2018-07-05T09:56:01Z</time>
      </trkpt>
      <trkpt lat="46.147421" lon="6.789231">
        <ele>1817.756</ele>
        <time>2018-07-05T09:56:06Z</time>
      </trkpt>
      <trkpt lat="46.147389" lon="6.789173">
        <ele>1815.531</ele>
        <time>2018-07-05T09:56:11Z</time>
      </trkpt>
      <trkpt lat="46.147355" lon="6.789117">
        <ele>1813.874</ele>
        <time>2018-07-05T09:56:16Z</time>
      </trkpt>
      <trkpt lat="46.147318" lon="6.789071">
        <ele>1812.756</ele>
        <time>2018-07-05T09:56:21Z</time>
      </trkpt>
      <trkpt lat="46.147284" lon="6.789021">
        <ele>1811.721</ele>
        <time>2018-07-05T09:56:26Z</time>
      </trkpt>
      <trkpt lat="46.147256" lon="6.788962">
        <ele>1810.408</ele>
        <time>2018-07-05T09:56:31Z</time>
      </trkpt>
      <trkpt lat="46.147237" lon="6.788897">
        <ele>1808.969</ele>
        <time>2018-07-05T09:56:36Z</time>
      </trkpt>
      <trkpt lat="46.147203" lon="6.788840">
        <ele>1807.345</ele>
        <time>2018-07-05T09:56:42Z</time>
      </trkpt>
      <trkpt lat="46.147163" lon="6.788788">
        <ele>1805.797</ele>
        <time>2018-07-05T09:56:48Z</time>
      </trkpt>
      <trkpt lat="46.147125" lon="6.788746">
        <ele>1804.423</ele>
        <time>2018-07-05T09:56:53Z</time>
      </trkpt>
      <trkpt lat="46.147081" lon="6.788725">
        <ele>1803.945</ele>
        <time>2018-07-05T09:56:59Z</time>
      </trkpt>
      <trkpt lat="46.147034" lon="6.788724">
        <ele>1804.122</ele>
        <time>2018-07-05T09:57:04Z</time>
      </trkpt>
      <trkpt lat="46.146988" lon="6.788716">
        <ele>1804.148</ele>
        <time>2018-07-05T09:57:09Z</time>
      </trkpt>
      <trkpt lat="46.146943" lon="6.788687">
        <ele>1803.533</ele>
        <time>2018-07-05T09:57:14Z</time>
      </trkpt>
      <trkpt lat="46.146913" lon="6.788632">
        <ele>1801.964</ele>
        <time>2018-07-05T09:57:19Z</time>
      </trkpt>
      <trkpt lat="46.146889" lon="6.788569">
        <ele>1800.106</ele>
        <time>2018-07-05T09:57:24Z</time>
      </trkpt>
      <trkpt lat="46.146869" lon="6.788498">
        <ele>1798.116</ele>
        <time>2018-07-05T09:57:30Z</time>
      </trkpt>
      <trkpt lat="46.146856" lon="6.788435">
        <ele>1796.308</ele>
        <time>2018-07-05T09:57:35Z</time>
      </trkpt>
      <trkpt lat="46.146849" lon="6.788369">
        <ele>1794.498</ele>
        <time>2018-07-05T09:57:40Z</time>
      </trkpt>
      <trkpt lat="46.146850" lon="6.788304">
        <ele>1792.644</ele>
        <time>2018-07-05T09:57:45Z</time>
      </trkpt>
      <trkpt lat="46.146831" lon="6.788233">
        <ele>1790.966</ele>
        <time>2018-07-05T09:57:51Z</time>
      </trkpt>
      <trkpt lat="46.146804" lon="6.788173">
        <ele>1789.752</ele>
        <time>2018-07-05T09:57:56Z</time>
      </trkpt>
      <trkpt lat="46.146775" lon="6.788110">
        <ele>1788.514</ele>
        <time>2018-07-05T09:58:01Z</time>
      </trkpt>
      <trkpt lat="46.146738" lon="6.788058">
        <ele>1787.841</ele>
        <time>2018-07-05T09:58:06Z</time>
      </trkpt>
      <trkpt lat="46.146697" lon="6.788026">
        <ele>1787.627</ele>
        <time>2018-07-05T09:58:10Z</time>
      </trkpt>
      <trkpt lat="46.146651" lon="6.788007">
        <ele>1787.562</ele>
        <time>2018-07-05T09:58:14Z</time>
      </trkpt>
      <trkpt lat="46.146604" lon="6.787987">
        <ele>1786.679</ele>
        <time>2018-07-05T09:58:18Z</time>
      </trkpt>
      <trkpt lat="46.146557" lon="6.787966">
        <ele>1785.705</ele>
        <time>2018-07-05T09:58:22Z</time>
      </trkpt>
      <trkpt lat="46.146509" lon="6.787943">
        <ele>1785.025</ele>
        <time>2018-07-05T09:58:27Z</time>
      </trkpt>
      <trkpt lat="46.146458" lon="6.787921">
        <ele>1784.308</ele>
        <time>2018-07-05T09:58:32Z</time>
      </trkpt>
      <trkpt lat="46.146431" lon="6.787864">
        <ele>1783.389</ele>
        <time>2018-07-05T09:58:37Z</time>
      </trkpt>
      <trkpt lat="46.146424" lon="6.787790">
        <ele>1782.135</ele>
        <time>2018-07-05T09:58:43Z</time>
      </trkpt>
      <trkpt lat="46.146425" lon="6.787722">
        <ele>1781.087</ele>
        <time>2018-07-05T09:58:48Z</time>
      </trkpt>
      <trkpt lat="46.146432" lon="6.787649">
        <ele>1779.863</ele>
        <time>2018-07-05T09:58:53Z</time>
      </trkpt>
      <trkpt lat="46.146439" lon="6.787581">
        <ele>1778.785</ele>
        <time>2018-07-05T09:58:58Z</time>
      </trkpt>
      <trkpt lat="46.146435" lon="6.787510">
        <ele>1777.752</ele>
        <time>2018-07-05T09:59:03Z</time>
      </trkpt>
      <trkpt lat="46.146426" lon="6.787436">
        <ele>1776.468</ele>
        <time>2018-07-05T09:59:09Z</time>
      </trkpt>
      <trkpt lat="46.146412" lon="6.787372">
        <ele>1775.493</ele>
        <time>2018-07-05T09:59:14Z</time>
      </trkpt>
      <trkpt lat="46.146404" lon="6.787305">
        <ele>1774.318</ele>
        <time>2018-07-05T09:59:20Z</time>
      </trkpt>
      <trkpt lat="46.146400" lon="6.787240">
        <ele>1773.298</ele>
        <time>2018-07-05T09:59:26Z</time>
      </trkpt>
      <trkpt lat="46.146397" lon="6.787167">
        <ele>1771.917</ele>
        <time>2018-07-05T09:59:32Z</time>
      </trkpt>
      <trkpt lat="46.146396" lon="6.787095">
        <ele>1770.608</ele>
        <time>2018-07-05T09:59:37Z</time>
      </trkpt>
      <trkpt lat="46.146392" lon="6.787027">
        <ele>1769.433</ele>
        <time>2018-07-05T09:59:42Z</time>
      </trkpt>
      <trkpt lat="46.146381" lon="6.786960">
        <ele>1767.999</ele>
        <time>2018-07-05T09:59:47Z</time>
      </trkpt>
      <trkpt lat="46.146371" lon="6.786892">
        <ele>1766.331</ele>
        <time>2018-07-05T09:59:52Z</time>
      </trkpt>
      <trkpt lat="46.146365" lon="6.786825">
        <ele>1765.077</ele>
        <time>2018-07-05T09:59:58Z</time>
      </trkpt>
      <trkpt lat="46.146357" lon="6.786756">
        <ele>1763.529</ele>
        <time>2018-07-05T10:00:03Z</time>
      </trkpt>
      <trkpt lat="46.146338" lon="6.786687">
        <ele>1761.886</ele>
        <time>2018-07-05T10:00:08Z</time>
      </trkpt>
      <trkpt lat="46.146322" lon="6.786619">
        <ele>1760.392</ele>
        <time>2018-07-05T10:00:13Z</time>
      </trkpt>
      <trkpt lat="46.146316" lon="6.786545">
        <ele>1759.017</ele>
        <time>2018-07-05T10:00:18Z</time>
      </trkpt>
      <trkpt lat="46.146299" lon="6.786469">
        <ele>1757.582</ele>
        <time>2018-07-05T10:00:23Z</time>
      </trkpt>
      <trkpt lat="46.146286" lon="6.786407">
        <ele>1756.543</ele>
        <time>2018-07-05T10:00:27Z</time>
      </trkpt>
      <trkpt lat="46.146278" lon="6.786338">
        <ele>1755.217</ele>
        <time>2018-07-05T10:00:32Z</time>
      </trkpt>
      <trkpt lat="46.146266" lon="6.786269">
        <ele>1753.808</ele>
        <time>2018-07-05T10:00:37Z</time>
      </trkpt>
      <trkpt lat="46.146256" lon="6.786192">
        <ele>1752.460</ele>
        <time>2018-07-05T10:00:42Z</time>
      </trkpt>
      <trkpt lat="46.146242" lon="6.786120">
        <ele>1751.356</ele>
        <time>2018-07-05T10:00:47Z</time>
      </trkpt>
      <trkpt lat="46.146219" lon="6.786055">
        <ele>1750.848</ele>
        <time>2018-07-05T10:00:52Z</time>
      </trkpt>
      <trkpt lat="46.146204" lon="6.785979">
        <ele>1750.114</ele>
        <time>2018-07-05T10:00:57Z</time>
      </trkpt>
      <trkpt lat="46.146190" lon="6.785914">
        <ele>1749.556</ele>
        <time>2018-07-05T10:01:02Z</time>
      </trkpt>
      <trkpt lat="46.146177" lon="6.785846">
        <ele>1749.083</ele>
        <time>2018-07-05T10:01:07Z</time>
      </trkpt>
      <trkpt lat="46.146166" lon="6.785775">
        <ele>1748.399</ele>
        <time>2018-07-05T10:01:12Z</time>
      </trkpt>
      <trkpt lat="46.146148" lon="6.785704">
        <ele>1747.914</ele>
        <time>2018-07-05T10:01:17Z</time>
      </trkpt>
      <trkpt lat="46.146135" lon="6.785632">
        <ele>1747.382</ele>
        <time>2018-07-05T10:01:22Z</time>
      </trkpt>
      <trkpt lat="46.146141" lon="6.785567">
        <ele>1746.543</ele>
        <time>2018-07-05T10:01:26Z</time>
      </trkpt>
      <trkpt lat="46.146149" lon="6.785491">
        <ele>1745.317</ele>
        <time>2018-07-05T10:01:31Z</time>
      </trkpt>
      <trkpt lat="46.146154" lon="6.785413">
        <ele>1744.008</ele>
        <time>2018-07-05T10:01:36Z</time>
      </trkpt>
      <trkpt lat="46.146149" lon="6.785344">
        <ele>1743.120</ele>
        <time>2018-07-05T10:01:40Z</time>
      </trkpt>
      <trkpt lat="46.146143" lon="6.785278">
        <ele>1742.396</ele>
        <time>2018-07-05T10:01:44Z</time>
      </trkpt>
      <trkpt lat="46.146128" lon="6.785200">
        <ele>1741.598</ele>
        <time>2018-07-05T10:01:49Z</time>
      </trkpt>
      <trkpt lat="46.146113" lon="6.785135">
        <ele>1740.954</ele>
        <time>2018-07-05T10:01:53Z</time>
      </trkpt>
      <trkpt lat="46.146096" lon="6.785060">
        <ele>1739.976</ele>
        <time>2018-07-05T10:01:58Z</time>
      </trkpt>
      <trkpt lat="46.146071" lon="6.784988">
        <ele>1738.963</ele>
        <time>2018-07-05T10:02:03Z</time>
      </trkpt>
      <trkpt lat="46.146058" lon="6.784926">
        <ele>1737.749</ele>
        <time>2018-07-05T10:02:07Z</time>
      </trkpt>
      <trkpt lat="46.146047" lon="6.784863">
        <ele>1736.654</ele>
        <time>2018-07-05T10:02:11Z</time>
      </trkpt>
      <trkpt lat="46.146026" lon="6.784794">
        <ele>1735.761</ele>
        <time>2018-07-05T10:02:16Z</time>
      </trkpt>
      <trkpt lat="46.146004" lon="6.784721">
        <ele>1735.021</ele>
        <time>2018-07-05T10:02:21Z</time>
      </trkpt>
      <trkpt lat="46.145985" lon="6.784647">
        <ele>1733.513</ele>
        <time>2018-07-05T10:02:26Z</time>
      </trkpt>
      <trkpt lat="46.145971" lon="6.784580">
        <ele>1732.208</ele>
        <time>2018-07-05T10:02:31Z</time>
      </trkpt>
      <trkpt lat="46.145952" lon="6.784515">
        <ele>1731.388</ele>
        <time>2018-07-05T10:02:36Z</time>
      </trkpt>
      <trkpt lat="46.145932" lon="6.784456">
        <ele>1730.724</ele>
        <time>2018-07-05T10:02:41Z</time>
      </trkpt>
      <trkpt lat="46.145909" lon="6.784393">
        <ele>1730.146</ele>
        <time>2018-07-05T10:02:46Z</time>
      </trkpt>
      <trkpt lat="46.145877" lon="6.784330">
        <ele>1729.932</ele>
        <time>2018-07-05T10:02:51Z</time>
      </trkpt>
      <trkpt lat="46.145858" lon="6.784270">
        <ele>1729.324</ele>
        <time>2018-07-05T10:02:55Z</time>
      </trkpt>
      <trkpt lat="46.145840" lon="6.784192">
        <ele>1728.331</ele>
        <time>2018-07-05T10:03:00Z</time>
      </trkpt>
      <trkpt lat="46.145827" lon="6.784129">
        <ele>1726.857</ele>
        <time>2018-07-05T10:03:04Z</time>
      </trkpt>
      <trkpt lat="46.145795" lon="6.784066">
        <ele>1725.252</ele>
        <time>2018-07-05T10:03:09Z</time>
      </trkpt>
      <trkpt lat="46.145767" lon="6.784006">
        <ele>1723.894</ele>
        <time>2018-07-05T10:03:14Z</time>
      </trkpt>
      <trkpt lat="46.145743" lon="6.783937">
        <ele>1722.357</ele>
        <time>2018-07-05T10:03:19Z</time>
      </trkpt>
      <trkpt lat="46.145712" lon="6.783874">
        <ele>1721.022</ele>
        <time>2018-07-05T10:03:24Z</time>
      </trkpt>
      <trkpt lat="46.145680" lon="6.783808">
        <ele>1718.908</ele>
        <time>2018-07-05T10:03:29Z</time>
      </trkpt>
      <trkpt lat="46.145634" lon="6.783791">
        <ele>1719.551</ele>
        <time>2018-07-05T10:03:35Z</time>
      </trkpt>
      <trkpt lat="46.145587" lon="6.783798">
        <ele>1721.227</ele>
        <time>2018-07-05T10:03:40Z</time>
      </trkpt>
      <trkpt lat="46.145527" lon="6.783829">
        <ele>1722.079</ele>
        <time>2018-07-05T10:03:47Z</time>
      </trkpt>
      <trkpt lat="46.145488" lon="6.783876">
        <ele>1722.085</ele>
        <time>2018-07-05T10:03:52Z</time>
      </trkpt>
      <trkpt lat="46.145447" lon="6.783913">
        <ele>1721.047</ele>
        <time>2018-07-05T10:03:58Z</time>
      </trkpt>
      <trkpt lat="46.145421" lon="6.783860">
        <ele>1719.064</ele>
        <time>2018-07-05T10:04:06Z</time>
      </trkpt>
      <trkpt lat="46.145423" lon="6.783788">
        <ele>1717.380</ele>
        <time>2018-07-05T10:04:12Z</time>
      </trkpt>
      <trkpt lat="46.145415" lon="6.783717">
        <ele>1715.415</ele>
        <time>2018-07-05T10:04:17Z</time>
      </trkpt>
      <trkpt lat="46.145411" lon="6.783648">
        <ele>1713.763</ele>
        <time>2018-07-05T10:04:22Z</time>
      </trkpt>
      <trkpt lat="46.145399" lon="6.783574">
        <ele>1711.444</ele>
        <time>2018-07-05T10:04:26Z</time>
      </trkpt>
      <trkpt lat="46.145389" lon="6.783499">
        <ele>1708.918</ele>
        <time>2018-07-05T10:04:33Z</time>
      </trkpt>
      <trkpt lat="46.145384" lon="6.783431">
        <ele>1706.808</ele>
        <time>2018-07-05T10:04:39Z</time>
      </trkpt>
      <trkpt lat="46.145391" lon="6.783364">
        <ele>1704.768</ele>
        <time>2018-07-05T10:04:46Z</time>
      </trkpt>
      <trkpt lat="46.145377" lon="6.783293">
        <ele>1703.014</ele>
        <time>2018-07-05T10:04:51Z</time>
      </trkpt>
      <trkpt lat="46.145344" lon="6.783240">
        <ele>1702.146</ele>
        <time>2018-07-05T10:04:58Z</time>
      </trkpt>
      <trkpt lat="46.145299" lon="6.783253">
        <ele>1703.082</ele>
        <time>2018-07-05T10:05:03Z</time>
      </trkpt>
      <trkpt lat="46.145254" lon="6.783241">
        <ele>1702.424</ele>
        <time>2018-07-05T10:05:08Z</time>
      </trkpt>
      <trkpt lat="46.145204" lon="6.783215">
        <ele>1700.591</ele>
        <time>2018-07-05T10:05:14Z</time>
      </trkpt>
      <trkpt lat="46.145163" lon="6.783169">
        <ele>1698.627</ele>
        <time>2018-07-05T10:05:20Z</time>
      </trkpt>
      <trkpt lat="46.145136" lon="6.783111">
        <ele>1696.932</ele>
        <time>2018-07-05T10:05:26Z</time>
      </trkpt>
      <trkpt lat="46.145118" lon="6.783040">
        <ele>1695.252</ele>
        <time>2018-07-05T10:05:32Z</time>
      </trkpt>
      <trkpt lat="46.145126" lon="6.782974">
        <ele>1694.153</ele>
        <time>2018-07-05T10:05:36Z</time>
      </trkpt>
      <trkpt lat="46.145142" lon="6.782900">
        <ele>1693.008</ele>
        <time>2018-07-05T10:05:41Z</time>
      </trkpt>
      <trkpt lat="46.145171" lon="6.782836">
        <ele>1692.308</ele>
        <time>2018-07-05T10:05:46Z</time>
      </trkpt>
      <trkpt lat="46.145214" lon="6.782798">
        <ele>1692.337</ele>
        <time>2018-07-05T10:05:51Z</time>
      </trkpt>
      <trkpt lat="46.145265" lon="6.782809">
        <ele>1693.473</ele>
        <time>2018-07-05T10:05:56Z</time>
      </trkpt>
      <trkpt lat="46.145310" lon="6.782856">
        <ele>1694.225</ele>
        <time>2018-07-05T10:06:01Z</time>
      </trkpt>
      <trkpt lat="46.145362" lon="6.782884">
        <ele>1694.011</ele>
        <time>2018-07-05T10:06:06Z</time>
      </trkpt>
      <trkpt lat="46.145407" lon="6.782908">
        <ele>1693.723</ele>
        <time>2018-07-05T10:06:10Z</time>
      </trkpt>
      <trkpt lat="46.145457" lon="6.782933">
        <ele>1693.440</ele>
        <time>2018-07-05T10:06:15Z</time>
      </trkpt>
      <trkpt lat="46.145509" lon="6.782936">
        <ele>1692.676</ele>
        <time>2018-07-05T10:06:20Z</time>
      </trkpt>
      <trkpt lat="46.145554" lon="6.782908">
        <ele>1691.431</ele>
        <time>2018-07-05T10:06:24Z</time>
      </trkpt>
      <trkpt lat="46.145587" lon="6.782851">
        <ele>1689.994</ele>
        <time>2018-07-05T10:06:29Z</time>
      </trkpt>
      <trkpt lat="46.145602" lon="6.782779">
        <ele>1688.457</ele>
        <time>2018-07-05T10:06:35Z</time>
      </trkpt>
      <trkpt lat="46.145587" lon="6.782709">
        <ele>1687.122</ele>
        <time>2018-07-05T10:06:41Z</time>
      </trkpt>
      <trkpt lat="46.145603" lon="6.782634">
        <ele>1685.208</ele>
        <time>2018-07-05T10:06:46Z</time>
      </trkpt>
      <trkpt lat="46.145638" lon="6.782582">
        <ele>1683.661</ele>
        <time>2018-07-05T10:06:51Z</time>
      </trkpt>
      <trkpt lat="46.145677" lon="6.782532">
        <ele>1681.947</ele>
        <time>2018-07-05T10:06:56Z</time>
      </trkpt>
      <trkpt lat="46.145719" lon="6.782488">
        <ele>1680.479</ele>
        <time>2018-07-05T10:07:01Z</time>
      </trkpt>
      <trkpt lat="46.145758" lon="6.782454">
        <ele>1679.035</ele>
        <time>2018-07-05T10:07:07Z</time>
      </trkpt>
      <trkpt lat="46.145764" lon="6.782387">
        <ele>1677.317</ele>
        <time>2018-07-05T10:07:13Z</time>
      </trkpt>
      <trkpt lat="46.145749" lon="6.782317">
        <ele>1675.814</ele>
        <time>2018-07-05T10:07:19Z</time>
      </trkpt>
      <trkpt lat="46.145723" lon="6.782258">
        <ele>1674.870</ele>
        <time>2018-07-05T10:07:25Z</time>
      </trkpt>
      <trkpt lat="46.145684" lon="6.782209">
        <ele>1674.265</ele>
        <time>2018-07-05T10:07:31Z</time>
      </trkpt>
      <trkpt lat="46.145656" lon="6.782150">
        <ele>1672.865</ele>
        <time>2018-07-05T10:07:37Z</time>
      </trkpt>
      <trkpt lat="46.145636" lon="6.782088">
        <ele>1671.168</ele>
        <time>2018-07-05T10:07:42Z</time>
      </trkpt>
      <trkpt lat="46.145611" lon="6.782022">
        <ele>1669.414</ele>
        <time>2018-07-05T10:07:48Z</time>
      </trkpt>
      <trkpt lat="46.145574" lon="6.781982">
        <ele>1668.808</ele>
        <time>2018-07-05T10:07:53Z</time>
      </trkpt>
      <trkpt lat="46.145551" lon="6.781922">
        <ele>1667.418</ele>
        <time>2018-07-05T10:07:58Z</time>
      </trkpt>
      <trkpt lat="46.145524" lon="6.781859">
        <ele>1665.954</ele>
        <time>2018-07-05T10:08:04Z</time>
      </trkpt>
      <trkpt lat="46.145485" lon="6.781823">
        <ele>1665.336</ele>
        <time>2018-07-05T10:09:05Z</time>
      </trkpt>
      <trkpt lat="46.145452" lon="6.781777">
        <ele>1664.332</ele>
        <time>2018-07-05T10:09:11Z</time>
      </trkpt>
      <trkpt lat="46.145420" lon="6.781728">
        <ele>1663.264</ele>
        <time>2018-07-05T10:09:16Z</time>
      </trkpt>
      <trkpt lat="46.145399" lon="6.781664">
        <ele>1661.631</ele>
        <time>2018-07-05T10:09:23Z</time>
      </trkpt>
      <trkpt lat="46.145440" lon="6.781624">
        <ele>1660.097</ele>
        <time>2018-07-05T10:09:31Z</time>
      </trkpt>
      <trkpt lat="46.145490" lon="6.781608">
        <ele>1659.032</ele>
        <time>2018-07-05T10:09:37Z</time>
      </trkpt>
      <trkpt lat="46.145531" lon="6.781559">
        <ele>1657.215</ele>
        <time>2018-07-05T10:09:43Z</time>
      </trkpt>
      <trkpt lat="46.145540" lon="6.781492">
        <ele>1655.165</ele>
        <time>2018-07-05T10:09:51Z</time>
      </trkpt>
      <trkpt lat="46.145507" lon="6.781440">
        <ele>1654.011</ele>
        <time>2018-07-05T10:09:58Z</time>
      </trkpt>
      <trkpt lat="46.145477" lon="6.781383">
        <ele>1652.708</ele>
        <time>2018-07-05T10:10:03Z</time>
      </trkpt>
      <trkpt lat="46.145438" lon="6.781326">
        <ele>1651.573</ele>
        <time>2018-07-05T10:10:08Z</time>
      </trkpt>
      <trkpt lat="46.145417" lon="6.781264">
        <ele>1649.919</ele>
        <time>2018-07-05T10:10:14Z</time>
      </trkpt>
      <trkpt lat="46.145425" lon="6.781188">
        <ele>1647.761</ele>
        <time>2018-07-05T10:10:19Z</time>
      </trkpt>
      <trkpt lat="46.145455" lon="6.781138">
        <ele>1646.437</ele>
        <time>2018-07-05T10:10:26Z</time>
      </trkpt>
      <trkpt lat="46.145509" lon="6.781122">
        <ele>1646.169</ele>
        <time>2018-07-05T10:10:31Z</time>
      </trkpt>
      <trkpt lat="46.145564" lon="6.781124">
        <ele>1646.046</ele>
        <time>2018-07-05T10:10:35Z</time>
      </trkpt>
      <trkpt lat="46.145611" lon="6.781147">
        <ele>1644.822</ele>
        <time>2018-07-05T10:10:39Z</time>
      </trkpt>
      <trkpt lat="46.145660" lon="6.781177">
        <ele>1643.667</ele>
        <time>2018-07-05T10:10:44Z</time>
      </trkpt>
      <trkpt lat="46.145704" lon="6.781220">
        <ele>1642.862</ele>
        <time>2018-07-05T10:10:51Z</time>
      </trkpt>
      <trkpt lat="46.145741" lon="6.781264">
        <ele>1642.383</ele>
        <time>2018-07-05T10:10:56Z</time>
      </trkpt>
      <trkpt lat="46.145775" lon="6.781318">
        <ele>1642.011</ele>
        <time>2018-07-05T10:11:00Z</time>
      </trkpt>
      <trkpt lat="46.145813" lon="6.781356">
        <ele>1641.208</ele>
        <time>2018-07-05T10:11:04Z</time>
      </trkpt>
      <trkpt lat="46.145858" lon="6.781388">
        <ele>1640.148</ele>
        <time>2018-07-05T10:11:11Z</time>
      </trkpt>
      <trkpt lat="46.145891" lon="6.781443">
        <ele>1640.924</ele>
        <time>2018-07-05T10:11:17Z</time>
      </trkpt>
      <trkpt lat="46.145937" lon="6.781428">
        <ele>1638.786</ele>
        <time>2018-07-05T10:11:24Z</time>
      </trkpt>
      <trkpt lat="46.145925" lon="6.781355">
        <ele>1637.042</ele>
        <time>2018-07-05T10:11:32Z</time>
      </trkpt>
      <trkpt lat="46.145900" lon="6.781285">
        <ele>1636.564</ele>
        <time>2018-07-05T10:11:36Z</time>
      </trkpt>
      <trkpt lat="46.145895" lon="6.781209">
        <ele>1635.131</ele>
        <time>2018-07-05T10:11:41Z</time>
      </trkpt>
      <trkpt lat="46.145923" lon="6.781152">
        <ele>1632.787</ele>
        <time>2018-07-05T10:11:47Z</time>
      </trkpt>
      <trkpt lat="46.145934" lon="6.781086">
        <ele>1630.882</ele>
        <time>2018-07-05T10:11:52Z</time>
      </trkpt>
      <trkpt lat="46.145937" lon="6.781017">
        <ele>1629.365</ele>
        <time>2018-07-05T10:12:00Z</time>
      </trkpt>
      <trkpt lat="46.145934" lon="6.780942">
        <ele>1628.068</ele>
        <time>2018-07-05T10:12:05Z</time>
      </trkpt>
      <trkpt lat="46.145940" lon="6.780867">
        <ele>1626.314</ele>
        <time>2018-07-05T10:12:12Z</time>
      </trkpt>
      <trkpt lat="46.145920" lon="6.780798">
        <ele>1625.508</ele>
        <time>2018-07-05T10:12:17Z</time>
      </trkpt>
      <trkpt lat="46.145910" lon="6.780731">
        <ele>1623.968</ele>
        <time>2018-07-05T10:12:23Z</time>
      </trkpt>
      <trkpt lat="46.145888" lon="6.780672">
        <ele>1623.184</ele>
        <time>2018-07-05T10:12:28Z</time>
      </trkpt>
      <trkpt lat="46.145860" lon="6.780616">
        <ele>1622.786</ele>
        <time>2018-07-05T10:12:32Z</time>
      </trkpt>
      <trkpt lat="46.145827" lon="6.780571">
        <ele>1622.772</ele>
        <time>2018-07-05T10:12:36Z</time>
      </trkpt>
      <trkpt lat="46.145781" lon="6.780540">
        <ele>1622.824</ele>
        <time>2018-07-05T10:12:41Z</time>
      </trkpt>
      <trkpt lat="46.145746" lon="6.780492">
        <ele>1622.061</ele>
        <time>2018-07-05T10:12:47Z</time>
      </trkpt>
      <trkpt lat="46.145705" lon="6.780467">
        <ele>1622.257</ele>
        <time>2018-07-05T10:12:52Z</time>
      </trkpt>
      <trkpt lat="46.145679" lon="6.780410">
        <ele>1620.992</ele>
        <time>2018-07-05T10:12:57Z</time>
      </trkpt>
      <trkpt lat="46.145637" lon="6.780363">
        <ele>1620.587</ele>
        <time>2018-07-05T10:13:02Z</time>
      </trkpt>
      <trkpt lat="46.145589" lon="6.780336">
        <ele>1620.942</ele>
        <time>2018-07-05T10:13:07Z</time>
      </trkpt>
      <trkpt lat="46.145553" lon="6.780290">
        <ele>1620.426</ele>
        <time>2018-07-05T10:13:12Z</time>
      </trkpt>
      <trkpt lat="46.145510" lon="6.780253">
        <ele>1619.008</ele>
        <time>2018-07-05T10:13:17Z</time>
      </trkpt>
      <trkpt lat="46.145473" lon="6.780214">
        <ele>1617.630</ele>
        <time>2018-07-05T10:13:21Z</time>
      </trkpt>
      <trkpt lat="46.145432" lon="6.780175">
        <ele>1616.346</ele>
        <time>2018-07-05T10:13:25Z</time>
      </trkpt>
      <trkpt lat="46.145395" lon="6.780130">
        <ele>1614.958</ele>
        <time>2018-07-05T10:13:30Z</time>
      </trkpt>
      <trkpt lat="46.145350" lon="6.780107">
        <ele>1614.164</ele>
        <time>2018-07-05T10:13:36Z</time>
      </trkpt>
      <trkpt lat="46.145314" lon="6.780056">
        <ele>1612.646</ele>
        <time>2018-07-05T10:13:41Z</time>
      </trkpt>
      <trkpt lat="46.145312" lon="6.779977">
        <ele>1610.673</ele>
        <time>2018-07-05T10:13:46Z</time>
      </trkpt>
      <trkpt lat="46.145336" lon="6.779921">
        <ele>1609.419</ele>
        <time>2018-07-05T10:13:50Z</time>
      </trkpt>
      <trkpt lat="46.145373" lon="6.779870">
        <ele>1608.294</ele>
        <time>2018-07-05T10:13:55Z</time>
      </trkpt>
      <trkpt lat="46.145407" lon="6.779812">
        <ele>1606.844</ele>
        <time>2018-07-05T10:14:00Z</time>
      </trkpt>
      <trkpt lat="46.145450" lon="6.779767">
        <ele>1605.505</ele>
        <time>2018-07-05T10:14:05Z</time>
      </trkpt>
      <trkpt lat="46.145497" lon="6.779763">
        <ele>1605.315</ele>
        <time>2018-07-05T10:14:10Z</time>
      </trkpt>
      <trkpt lat="46.145540" lon="6.779784">
        <ele>1605.808</ele>
        <time>2018-07-05T10:14:15Z</time>
      </trkpt>
      <trkpt lat="46.145591" lon="6.779785">
        <ele>1604.246</ele>
        <time>2018-07-05T10:14:21Z</time>
      </trkpt>
      <trkpt lat="46.145642" lon="6.779804">
        <ele>1602.532</ele>
        <time>2018-07-05T10:14:28Z</time>
      </trkpt>
      <trkpt lat="46.145690" lon="6.779831">
        <ele>1601.294</ele>
        <time>2018-07-05T10:14:34Z</time>
      </trkpt>
      <trkpt lat="46.145738" lon="6.779866">
        <ele>1600.370</ele>
        <time>2018-07-05T10:14:39Z</time>
      </trkpt>
      <trkpt lat="46.145784" lon="6.779887">
        <ele>1599.042</ele>
        <time>2018-07-05T10:14:49Z</time>
      </trkpt>
      <trkpt lat="46.145828" lon="6.779910">
        <ele>1598.069</ele>
        <time>2018-07-05T10:14:55Z</time>
      </trkpt>
      <trkpt lat="46.145875" lon="6.779933">
        <ele>1597.245</ele>
        <time>2018-07-05T10:15:02Z</time>
      </trkpt>
      <trkpt lat="46.145925" lon="6.779933">
        <ele>1595.490</ele>
        <time>2018-07-05T10:15:08Z</time>
      </trkpt>
      <trkpt lat="46.145976" lon="6.779960">
        <ele>1594.683</ele>
        <time>2018-07-05T10:15:27Z</time>
      </trkpt>
      <trkpt lat="46.145931" lon="6.779926">
        <ele>1595.025</ele>
        <time>2018-07-05T10:15:52Z</time>
      </trkpt>
      <trkpt lat="46.145897" lon="6.779874">
        <ele>1594.417</ele>
        <time>2018-07-05T10:15:59Z</time>
      </trkpt>
      <trkpt lat="46.145874" lon="6.779813">
        <ele>1593.008</ele>
        <time>2018-07-05T10:16:05Z</time>
      </trkpt>
      <trkpt lat="46.145852" lon="6.779754">
        <ele>1591.610</ele>
        <time>2018-07-05T10:16:09Z</time>
      </trkpt>
      <trkpt lat="46.145825" lon="6.779691">
        <ele>1590.616</ele>
        <time>2018-07-05T10:16:13Z</time>
      </trkpt>
      <trkpt lat="46.145793" lon="6.779621">
        <ele>1590.298</ele>
        <time>2018-07-05T10:16:18Z</time>
      </trkpt>
      <trkpt lat="46.145764" lon="6.779556">
        <ele>1589.814</ele>
        <time>2018-07-05T10:16:23Z</time>
      </trkpt>
      <trkpt lat="46.145743" lon="6.779498">
        <ele>1589.146</ele>
        <time>2018-07-05T10:16:27Z</time>
      </trkpt>
      <trkpt lat="46.145712" lon="6.779428">
        <ele>1588.343</ele>
        <time>2018-07-05T10:16:31Z</time>
      </trkpt>
      <trkpt lat="46.145684" lon="6.779369">
        <ele>1587.419</ele>
        <time>2018-07-05T10:16:35Z</time>
      </trkpt>
      <trkpt lat="46.145662" lon="6.779312">
        <ele>1586.414</ele>
        <time>2018-07-05T10:16:39Z</time>
      </trkpt>
      <trkpt lat="46.145631" lon="6.779255">
        <ele>1585.685</ele>
        <time>2018-07-05T10:16:45Z</time>
      </trkpt>
      <trkpt lat="46.145604" lon="6.779199">
        <ele>1584.689</ele>
        <time>2018-07-05T10:16:50Z</time>
      </trkpt>
      <trkpt lat="46.145567" lon="6.779159">
        <ele>1584.417</ele>
        <time>2018-07-05T10:16:55Z</time>
      </trkpt>
      <trkpt lat="46.145526" lon="6.779115">
        <ele>1583.808</ele>
        <time>2018-07-05T10:17:00Z</time>
      </trkpt>
      <trkpt lat="46.145482" lon="6.779063">
        <ele>1582.750</ele>
        <time>2018-07-05T10:17:05Z</time>
      </trkpt>
      <trkpt lat="46.145435" lon="6.779033">
        <ele>1582.446</ele>
        <time>2018-07-05T10:17:10Z</time>
      </trkpt>
      <trkpt lat="46.145388" lon="6.778998">
        <ele>1581.938</ele>
        <time>2018-07-05T10:17:16Z</time>
      </trkpt>
      <trkpt lat="46.145344" lon="6.778981">
        <ele>1582.054</ele>
        <time>2018-07-05T10:17:20Z</time>
      </trkpt>
      <trkpt lat="46.145295" lon="6.778962">
        <ele>1582.196</ele>
        <time>2018-07-05T10:17:24Z</time>
      </trkpt>
      <trkpt lat="46.145244" lon="6.778942">
        <ele>1581.363</ele>
        <time>2018-07-05T10:17:28Z</time>
      </trkpt>
      <trkpt lat="46.145186" lon="6.778928">
        <ele>1580.179</ele>
        <time>2018-07-05T10:17:33Z</time>
      </trkpt>
      <trkpt lat="46.145140" lon="6.778934">
        <ele>1579.774</ele>
        <time>2018-07-05T10:17:38Z</time>
      </trkpt>
      <trkpt lat="46.145093" lon="6.778955">
        <ele>1579.771</ele>
        <time>2018-07-05T10:17:43Z</time>
      </trkpt>
      <trkpt lat="46.145043" lon="6.778985">
        <ele>1579.741</ele>
        <time>2018-07-05T10:17:48Z</time>
      </trkpt>
      <trkpt lat="46.144993" lon="6.779001">
        <ele>1579.215</ele>
        <time>2018-07-05T10:17:53Z</time>
      </trkpt>
      <trkpt lat="46.144948" lon="6.779045">
        <ele>1578.808</ele>
        <time>2018-07-05T10:17:58Z</time>
      </trkpt>
      <trkpt lat="46.144907" lon="6.779078">
        <ele>1578.279</ele>
        <time>2018-07-05T10:18:02Z</time>
      </trkpt>
      <trkpt lat="46.144870" lon="6.779116">
        <ele>1577.825</ele>
        <time>2018-07-05T10:18:06Z</time>
      </trkpt>
      <trkpt lat="46.144830" lon="6.779152">
        <ele>1577.257</ele>
        <time>2018-07-05T10:18:10Z</time>
      </trkpt>
      <trkpt lat="46.144785" lon="6.779186">
        <ele>1576.483</ele>
        <time>2018-07-05T10:18:15Z</time>
      </trkpt>
      <trkpt lat="46.144740" lon="6.779219">
        <ele>1575.565</ele>
        <time>2018-07-05T10:18:20Z</time>
      </trkpt>
      <trkpt lat="46.144700" lon="6.779260">
        <ele>1575.182</ele>
        <time>2018-07-05T10:18:24Z</time>
      </trkpt>
      <trkpt lat="46.144661" lon="6.779296">
        <ele>1574.638</ele>
        <time>2018-07-05T10:18:28Z</time>
      </trkpt>
      <trkpt lat="46.144617" lon="6.779341">
        <ele>1574.063</ele>
        <time>2018-07-05T10:18:32Z</time>
      </trkpt>
      <trkpt lat="46.144579" lon="6.779385">
        <ele>1573.586</ele>
        <time>2018-07-05T10:18:36Z</time>
      </trkpt>
      <trkpt lat="46.144542" lon="6.779439">
        <ele>1573.160</ele>
        <time>2018-07-05T10:18:41Z</time>
      </trkpt>
      <trkpt lat="46.144508" lon="6.779485">
        <ele>1572.726</ele>
        <time>2018-07-05T10:18:46Z</time>
      </trkpt>
      <trkpt lat="46.144475" lon="6.779542">
        <ele>1572.408</ele>
        <time>2018-07-05T10:18:51Z</time>
      </trkpt>
      <trkpt lat="46.144426" lon="6.779577">
        <ele>1570.940</ele>
        <time>2018-07-05T10:18:56Z</time>
      </trkpt>
      <trkpt lat="46.144412" lon="6.779642">
        <ele>1571.276</ele>
        <time>2018-07-05T10:19:00Z</time>
      </trkpt>
      <trkpt lat="46.144387" lon="6.779702">
        <ele>1570.828</ele>
        <time>2018-07-05T10:19:04Z</time>
      </trkpt>
      <trkpt lat="46.144354" lon="6.779763">
        <ele>1570.264</ele>
        <time>2018-07-05T10:19:09Z</time>
      </trkpt>
      <trkpt lat="46.144317" lon="6.779805">
        <ele>1569.226</ele>
        <time>2018-07-05T10:19:14Z</time>
      </trkpt>
      <trkpt lat="46.144282" lon="6.779855">
        <ele>1568.543</ele>
        <time>2018-07-05T10:19:21Z</time>
      </trkpt>
      <trkpt lat="46.144243" lon="6.779810">
        <ele>1565.799</ele>
        <time>2018-07-05T10:19:28Z</time>
      </trkpt>
      <trkpt lat="46.144250" lon="6.779738">
        <ele>1564.534</ele>
        <time>2018-07-05T10:19:33Z</time>
      </trkpt>
      <trkpt lat="46.144275" lon="6.779674">
        <ele>1564.754</ele>
        <time>2018-07-05T10:19:37Z</time>
      </trkpt>
      <trkpt lat="46.144294" lon="6.779601">
        <ele>1564.456</ele>
        <time>2018-07-05T10:19:41Z</time>
      </trkpt>
      <trkpt lat="46.144290" lon="6.779520">
        <ele>1562.911</ele>
        <time>2018-07-05T10:19:45Z</time>
      </trkpt>
      <trkpt lat="46.144293" lon="6.779438">
        <ele>1561.708</ele>
        <time>2018-07-05T10:19:49Z</time>
      </trkpt>
      <trkpt lat="46.144296" lon="6.779368">
        <ele>1561.047</ele>
        <time>2018-07-05T10:19:53Z</time>
      </trkpt>
      <trkpt lat="46.144296" lon="6.779290">
        <ele>1560.033</ele>
        <time>2018-07-05T10:19:57Z</time>
      </trkpt>
      <trkpt lat="46.144302" lon="6.779221">
        <ele>1559.555</ele>
        <time>2018-07-05T10:20:01Z</time>
      </trkpt>
      <trkpt lat="46.144299" lon="6.779156">
        <ele>1558.481</ele>
        <time>2018-07-05T10:20:04Z</time>
      </trkpt>
      <trkpt lat="46.144292" lon="6.779086">
        <ele>1556.663</ele>
        <time>2018-07-05T10:20:07Z</time>
      </trkpt>
      <trkpt lat="46.144308" lon="6.779018">
        <ele>1556.240</ele>
        <time>2018-07-05T10:20:12Z</time>
      </trkpt>
      <trkpt lat="46.144335" lon="6.778954">
        <ele>1556.416</ele>
        <time>2018-07-05T10:20:16Z</time>
      </trkpt>
      <trkpt lat="46.144358" lon="6.778883">
        <ele>1556.291</ele>
        <time>2018-07-05T10:20:20Z</time>
      </trkpt>
      <trkpt lat="46.144385" lon="6.778822">
        <ele>1555.942</ele>
        <time>2018-07-05T10:20:24Z</time>
      </trkpt>
      <trkpt lat="46.144416" lon="6.778769">
        <ele>1556.122</ele>
        <time>2018-07-05T10:20:28Z</time>
      </trkpt>
      <trkpt lat="46.144453" lon="6.778717">
        <ele>1556.414</ele>
        <time>2018-07-05T10:20:32Z</time>
      </trkpt>
      <trkpt lat="46.144492" lon="6.778660">
        <ele>1556.208</ele>
        <time>2018-07-05T10:20:37Z</time>
      </trkpt>
      <trkpt lat="46.144527" lon="6.778602">
        <ele>1556.096</ele>
        <time>2018-07-05T10:20:42Z</time>
      </trkpt>
      <trkpt lat="46.144537" lon="6.778535">
        <ele>1554.732</ele>
        <time>2018-07-05T10:20:46Z</time>
      </trkpt>
      <trkpt lat="46.144549" lon="6.778472">
        <ele>1553.584</ele>
        <time>2018-07-05T10:20:50Z</time>
      </trkpt>
      <trkpt lat="46.144554" lon="6.778389">
        <ele>1551.670</ele>
        <time>2018-07-05T10:20:55Z</time>
      </trkpt>
      <trkpt lat="46.144554" lon="6.778320">
        <ele>1549.772</ele>
        <time>2018-07-05T10:20:59Z</time>
      </trkpt>
      <trkpt lat="46.144567" lon="6.778248">
        <ele>1548.289</ele>
        <time>2018-07-05T10:21:04Z</time>
      </trkpt>
      <trkpt lat="46.144600" lon="6.778193">
        <ele>1547.985</ele>
        <time>2018-07-05T10:21:08Z</time>
      </trkpt>
      <trkpt lat="46.144632" lon="6.778129">
        <ele>1547.110</ele>
        <time>2018-07-05T10:21:12Z</time>
      </trkpt>
      <trkpt lat="46.144661" lon="6.778076">
        <ele>1546.553</ele>
        <time>2018-07-05T10:21:16Z</time>
      </trkpt>
      <trkpt lat="46.144702" lon="6.778039">
        <ele>1546.804</ele>
        <time>2018-07-05T10:21:20Z</time>
      </trkpt>
      <trkpt lat="46.144747" lon="6.778018">
        <ele>1547.114</ele>
        <time>2018-07-05T10:21:24Z</time>
      </trkpt>
      <trkpt lat="46.144782" lon="6.777976">
        <ele>1546.008</ele>
        <time>2018-07-05T10:21:28Z</time>
      </trkpt>
      <trkpt lat="46.144778" lon="6.777911">
        <ele>1543.947</ele>
        <time>2018-07-05T10:21:34Z</time>
      </trkpt>
      <trkpt lat="46.144731" lon="6.777939">
        <ele>1544.743</ele>
        <time>2018-07-05T10:21:41Z</time>
      </trkpt>
      <trkpt lat="46.144699" lon="6.778003">
        <ele>1545.745</ele>
        <time>2018-07-05T10:21:46Z</time>
      </trkpt>
      <trkpt lat="46.144665" lon="6.778062">
        <ele>1546.261</ele>
        <time>2018-07-05T10:21:51Z</time>
      </trkpt>
      <trkpt lat="46.144624" lon="6.778090">
        <ele>1545.623</ele>
        <time>2018-07-05T10:21:56Z</time>
      </trkpt>
      <trkpt lat="46.144583" lon="6.778124">
        <ele>1545.110</ele>
        <time>2018-07-05T10:22:01Z</time>
      </trkpt>
      <trkpt lat="46.144535" lon="6.778157">
        <ele>1544.216</ele>
        <time>2018-07-05T10:22:06Z</time>
      </trkpt>
      <trkpt lat="46.144497" lon="6.778196">
        <ele>1543.721</ele>
        <time>2018-07-05T10:22:10Z</time>
      </trkpt>
      <trkpt lat="46.144459" lon="6.778257">
        <ele>1543.754</ele>
        <time>2018-07-05T10:22:14Z</time>
      </trkpt>
      <trkpt lat="46.144420" lon="6.778313">
        <ele>1543.556</ele>
        <time>2018-07-05T10:22:18Z</time>
      </trkpt>
      <trkpt lat="46.144390" lon="6.778363">
        <ele>1543.611</ele>
        <time>2018-07-05T10:22:21Z</time>
      </trkpt>
      <trkpt lat="46.144356" lon="6.778422">
        <ele>1543.708</ele>
        <time>2018-07-05T10:22:25Z</time>
      </trkpt>
      <trkpt lat="46.144325" lon="6.778480">
        <ele>1543.877</ele>
        <time>2018-07-05T10:22:32Z</time>
      </trkpt>
      <trkpt lat="46.144280" lon="6.778521">
        <ele>1542.783</ele>
        <time>2018-07-05T10:22:43Z</time>
      </trkpt>
      <trkpt lat="46.144230" lon="6.778559">
        <ele>1541.185</ele>
        <time>2018-07-05T10:22:47Z</time>
      </trkpt>
      <trkpt lat="46.144182" lon="6.778586">
        <ele>1539.361</ele>
        <time>2018-07-05T10:22:51Z</time>
      </trkpt>
      <trkpt lat="46.144145" lon="6.778631">
        <ele>1538.913</ele>
        <time>2018-07-05T10:22:55Z</time>
      </trkpt>
      <trkpt lat="46.144096" lon="6.778677">
        <ele>1538.590</ele>
        <time>2018-07-05T10:22:59Z</time>
      </trkpt>
      <trkpt lat="46.144060" lon="6.778724">
        <ele>1538.556</ele>
        <time>2018-07-05T10:23:03Z</time>
      </trkpt>
      <trkpt lat="46.144026" lon="6.778775">
        <ele>1538.511</ele>
        <time>2018-07-05T10:23:07Z</time>
      </trkpt>
      <trkpt lat="46.143997" lon="6.778837">
        <ele>1538.873</ele>
        <time>2018-07-05T10:23:11Z</time>
      </trkpt>
      <trkpt lat="46.143967" lon="6.778892">
        <ele>1538.985</ele>
        <time>2018-07-05T10:23:17Z</time>
      </trkpt>
      <trkpt lat="46.143927" lon="6.778933">
        <ele>1538.213</ele>
        <time>2018-07-05T10:23:25Z</time>
      </trkpt>
      <trkpt lat="46.143880" lon="6.778962">
        <ele>1537.008</ele>
        <time>2018-07-05T10:23:30Z</time>
      </trkpt>
      <trkpt lat="46.143841" lon="6.779003">
        <ele>1536.249</ele>
        <time>2018-07-05T10:23:33Z</time>
      </trkpt>
      <trkpt lat="46.143817" lon="6.779064">
        <ele>1536.345</ele>
        <time>2018-07-05T10:23:37Z</time>
      </trkpt>
      <trkpt lat="46.143791" lon="6.779126">
        <ele>1536.447</ele>
        <time>2018-07-05T10:23:42Z</time>
      </trkpt>
      <trkpt lat="46.143735" lon="6.779157">
        <ele>1534.733</ele>
        <time>2018-07-05T10:23:48Z</time>
      </trkpt>
      <trkpt lat="46.143691" lon="6.779203">
        <ele>1533.875</ele>
        <time>2018-07-05T10:23:52Z</time>
      </trkpt>
      <trkpt lat="46.143642" lon="6.779272">
        <ele>1533.172</ele>
        <time>2018-07-05T10:23:59Z</time>
      </trkpt>
      <trkpt lat="46.143591" lon="6.779334">
        <ele>1532.178</ele>
        <time>2018-07-05T10:24:09Z</time>
      </trkpt>
      <trkpt lat="46.143546" lon="6.779353">
        <ele>1530.573</ele>
        <time>2018-07-05T10:24:12Z</time>
      </trkpt>
      <trkpt lat="46.143493" lon="6.779369">
        <ele>1528.369</ele>
        <time>2018-07-05T10:24:16Z</time>
      </trkpt>
      <trkpt lat="46.143451" lon="6.779409">
        <ele>1527.004</ele>
        <time>2018-07-05T10:24:19Z</time>
      </trkpt>
      <trkpt lat="46.143421" lon="6.779462">
        <ele>1526.424</ele>
        <time>2018-07-05T10:24:22Z</time>
      </trkpt>
      <trkpt lat="46.143397" lon="6.779520">
        <ele>1526.108</ele>
        <time>2018-07-05T10:24:26Z</time>
      </trkpt>
      <trkpt lat="46.143371" lon="6.779578">
        <ele>1525.828</ele>
        <time>2018-07-05T10:24:32Z</time>
      </trkpt>
      <trkpt lat="46.143371" lon="6.779643">
        <ele>1526.764</ele>
        <time>2018-07-05T10:24:36Z</time>
      </trkpt>
      <trkpt lat="46.143344" lon="6.779698">
        <ele>1526.296</ele>
        <time>2018-07-05T10:24:41Z</time>
      </trkpt>
      <trkpt lat="46.143304" lon="6.779749">
        <ele>1525.322</ele>
        <time>2018-07-05T10:24:46Z</time>
      </trkpt>
      <trkpt lat="46.143258" lon="6.779782">
        <ele>1524.154</ele>
        <time>2018-07-05T10:24:50Z</time>
      </trkpt>
      <trkpt lat="46.143209" lon="6.779814">
        <ele>1523.081</ele>
        <time>2018-07-05T10:24:54Z</time>
      </trkpt>
      <trkpt lat="46.143174" lon="6.779858">
        <ele>1522.657</ele>
        <time>2018-07-05T10:24:58Z</time>
      </trkpt>
      <trkpt lat="46.143129" lon="6.779912">
        <ele>1522.262</ele>
        <time>2018-07-05T10:25:03Z</time>
      </trkpt>
      <trkpt lat="46.143080" lon="6.779928">
        <ele>1521.138</ele>
        <time>2018-07-05T10:25:07Z</time>
      </trkpt>
      <trkpt lat="46.143046" lon="6.779977">
        <ele>1521.170</ele>
        <time>2018-07-05T10:25:11Z</time>
      </trkpt>
      <trkpt lat="46.143024" lon="6.780049">
        <ele>1521.817</ele>
        <time>2018-07-05T10:25:15Z</time>
      </trkpt>
      <trkpt lat="46.142986" lon="6.780101">
        <ele>1521.308</ele>
        <time>2018-07-05T10:25:21Z</time>
      </trkpt>
      <trkpt lat="46.142950" lon="6.780151">
        <ele>1520.985</ele>
        <time>2018-07-05T10:25:26Z</time>
      </trkpt>
      <trkpt lat="46.142915" lon="6.780196">
        <ele>1520.361</ele>
        <time>2018-07-05T10:25:30Z</time>
      </trkpt>
      <trkpt lat="46.142886" lon="6.780256">
        <ele>1520.353</ele>
        <time>2018-07-05T10:25:34Z</time>
      </trkpt>
      <trkpt lat="46.142856" lon="6.780315">
        <ele>1520.079</ele>
        <time>2018-07-05T10:25:39Z</time>
      </trkpt>
      <trkpt lat="46.142813" lon="6.780358">
        <ele>1519.061</ele>
        <time>2018-07-05T10:25:44Z</time>
      </trkpt>
      <trkpt lat="46.142768" lon="6.780383">
        <ele>1517.488</ele>
        <time>2018-07-05T10:25:48Z</time>
      </trkpt>
      <trkpt lat="46.142734" lon="6.780431">
        <ele>1516.564</ele>
        <time>2018-07-05T10:25:52Z</time>
      </trkpt>
      <trkpt lat="46.142711" lon="6.780495">
        <ele>1516.479</ele>
        <time>2018-07-05T10:25:57Z</time>
      </trkpt>
      <trkpt lat="46.142691" lon="6.780555">
        <ele>1516.359</ele>
        <time>2018-07-05T10:26:01Z</time>
      </trkpt>
      <trkpt lat="46.142675" lon="6.780618">
        <ele>1516.403</ele>
        <time>2018-07-05T10:26:05Z</time>
      </trkpt>
      <trkpt lat="46.142650" lon="6.780689">
        <ele>1516.223</ele>
        <time>2018-07-05T10:26:10Z</time>
      </trkpt>
      <trkpt lat="46.142628" lon="6.780753">
        <ele>1516.108</ele>
        <time>2018-07-05T10:26:14Z</time>
      </trkpt>
      <trkpt lat="46.142599" lon="6.780820">
        <ele>1515.827</ele>
        <time>2018-07-05T10:26:18Z</time>
      </trkpt>
      <trkpt lat="46.142567" lon="6.780884">
        <ele>1514.613</ele>
        <time>2018-07-05T10:26:22Z</time>
      </trkpt>
      <trkpt lat="46.142533" lon="6.780946">
        <ele>1512.985</ele>
        <time>2018-07-05T10:26:26Z</time>
      </trkpt>
      <trkpt lat="46.142500" lon="6.780991">
        <ele>1511.071</ele>
        <time>2018-07-05T10:26:30Z</time>
      </trkpt>
      <trkpt lat="46.142466" lon="6.781056">
        <ele>1508.963</ele>
        <time>2018-07-05T10:26:35Z</time>
      </trkpt>
      <trkpt lat="46.142438" lon="6.781108">
        <ele>1507.220</ele>
        <time>2018-07-05T10:26:39Z</time>
      </trkpt>
      <trkpt lat="46.142413" lon="6.781177">
        <ele>1506.286</ele>
        <time>2018-07-05T10:26:43Z</time>
      </trkpt>
      <trkpt lat="46.142373" lon="6.781241">
        <ele>1504.251</ele>
        <time>2018-07-05T10:26:48Z</time>
      </trkpt>
      <trkpt lat="46.142354" lon="6.781320">
        <ele>1503.683</ele>
        <time>2018-07-05T10:26:51Z</time>
      </trkpt>
      <trkpt lat="46.142345" lon="6.781393">
        <ele>1503.525</ele>
        <time>2018-07-05T10:26:54Z</time>
      </trkpt>
      <trkpt lat="46.142337" lon="6.781473">
        <ele>1503.617</ele>
        <time>2018-07-05T10:26:59Z</time>
      </trkpt>
      <trkpt lat="46.142335" lon="6.781547">
        <ele>1504.008</ele>
        <time>2018-07-05T10:27:04Z</time>
      </trkpt>
      <trkpt lat="46.142319" lon="6.781626">
        <ele>1503.680</ele>
        <time>2018-07-05T10:27:08Z</time>
      </trkpt>
      <trkpt lat="46.142313" lon="6.781691">
        <ele>1503.756</ele>
        <time>2018-07-05T10:27:12Z</time>
      </trkpt>
      <trkpt lat="46.142308" lon="6.781767">
        <ele>1504.088</ele>
        <time>2018-07-05T10:27:16Z</time>
      </trkpt>
      <trkpt lat="46.142293" lon="6.781835">
        <ele>1503.594</ele>
        <time>2018-07-05T10:27:20Z</time>
      </trkpt>
      <trkpt lat="46.142271" lon="6.781901">
        <ele>1502.756</ele>
        <time>2018-07-05T10:27:24Z</time>
      </trkpt>
      <trkpt lat="46.142239" lon="6.781961">
        <ele>1501.223</ele>
        <time>2018-07-05T10:27:29Z</time>
      </trkpt>
      <trkpt lat="46.142192" lon="6.781957">
        <ele>1498.949</ele>
        <time>2018-07-05T10:28:25Z</time>
      </trkpt>
      <trkpt lat="46.142146" lon="6.781962">
        <ele>1497.254</ele>
        <time>2018-07-05T10:28:47Z</time>
      </trkpt>
      <trkpt lat="46.142110" lon="6.782004">
        <ele>1496.241</ele>
        <time>2018-07-05T10:28:54Z</time>
      </trkpt>
      <trkpt lat="46.142096" lon="6.782079">
        <ele>1496.581</ele>
        <time>2018-07-05T10:28:59Z</time>
      </trkpt>
      <trkpt lat="46.142088" lon="6.782148">
        <ele>1496.909</ele>
        <time>2018-07-05T10:29:04Z</time>
      </trkpt>
      <trkpt lat="46.142073" lon="6.782214">
        <ele>1497.008</ele>
        <time>2018-07-05T10:29:14Z</time>
      </trkpt>
      <trkpt lat="46.142035" lon="6.782253">
        <ele>1496.336</ele>
        <time>2018-07-05T10:29:22Z</time>
      </trkpt>
      <trkpt lat="46.141988" lon="6.782236">
        <ele>1494.012</ele>
        <time>2018-07-05T10:29:37Z</time>
      </trkpt>
      <trkpt lat="46.141941" lon="6.782235">
        <ele>1492.344</ele>
        <time>2018-07-05T10:29:44Z</time>
      </trkpt>
      <trkpt lat="46.141897" lon="6.782197">
        <ele>1491.730</ele>
        <time>2018-07-05T10:29:54Z</time>
      </trkpt>
      <trkpt lat="46.141858" lon="6.782141">
        <ele>1490.982</ele>
        <time>2018-07-05T10:30:00Z</time>
      </trkpt>
      <trkpt lat="46.141820" lon="6.782094">
        <ele>1490.219</ele>
        <time>2018-07-05T10:30:05Z</time>
      </trkpt>
      <trkpt lat="46.141783" lon="6.782054">
        <ele>1489.595</ele>
        <time>2018-07-05T10:30:09Z</time>
      </trkpt>
      <trkpt lat="46.141748" lon="6.782013">
        <ele>1488.740</ele>
        <time>2018-07-05T10:30:26Z</time>
      </trkpt>
      <trkpt lat="46.141712" lon="6.781970">
        <ele>1487.851</ele>
        <time>2018-07-05T10:30:32Z</time>
      </trkpt>
      <trkpt lat="46.141642" lon="6.781957">
        <ele>1487.301</ele>
        <time>2018-07-05T10:30:48Z</time>
      </trkpt>
      <trkpt lat="46.141588" lon="6.781936">
        <ele>1487.211</ele>
        <time>2018-07-05T10:31:00Z</time>
      </trkpt>
      <trkpt lat="46.141535" lon="6.781926">
        <ele>1487.308</ele>
        <time>2018-07-05T10:31:08Z</time>
      </trkpt>
      <trkpt lat="46.141489" lon="6.781931">
        <ele>1487.587</ele>
        <time>2018-07-05T10:31:13Z</time>
      </trkpt>
      <trkpt lat="46.141435" lon="6.781959">
        <ele>1488.113</ele>
        <time>2018-07-05T10:31:17Z</time>
      </trkpt>
      <trkpt lat="46.141385" lon="6.781976">
        <ele>1488.755</ele>
        <time>2018-07-05T10:31:21Z</time>
      </trkpt>
      <trkpt lat="46.141341" lon="6.781951">
        <ele>1488.021</ele>
        <time>2018-07-05T10:31:28Z</time>
      </trkpt>
      <trkpt lat="46.141293" lon="6.781966">
        <ele>1488.133</ele>
        <time>2018-07-05T10:31:33Z</time>
      </trkpt>
      <trkpt lat="46.141244" lon="6.781974">
        <ele>1488.140</ele>
        <time>2018-07-05T10:31:38Z</time>
      </trkpt>
      <trkpt lat="46.141201" lon="6.781955">
        <ele>1487.536</ele>
        <time>2018-07-05T10:31:43Z</time>
      </trkpt>
      <trkpt lat="46.141156" lon="6.781919">
        <ele>1486.951</ele>
        <time>2018-07-05T10:31:48Z</time>
      </trkpt>
      <trkpt lat="46.141105" lon="6.781885">
        <ele>1486.425</ele>
        <time>2018-07-05T10:31:53Z</time>
      </trkpt>
      <trkpt lat="46.141063" lon="6.781859">
        <ele>1486.326</ele>
        <time>2018-07-05T10:31:57Z</time>
      </trkpt>
      <trkpt lat="46.141019" lon="6.781835">
        <ele>1486.308</ele>
        <time>2018-07-05T10:32:03Z</time>
      </trkpt>
      <trkpt lat="46.140967" lon="6.781824">
        <ele>1486.408</ele>
        <time>2018-07-05T10:32:08Z</time>
      </trkpt>
      <trkpt lat="46.140926" lon="6.781796">
        <ele>1486.464</ele>
        <time>2018-07-05T10:32:12Z</time>
      </trkpt>
      <trkpt lat="46.140894" lon="6.781745">
        <ele>1486.210</ele>
        <time>2018-07-05T10:32:16Z</time>
      </trkpt>
      <trkpt lat="46.140875" lon="6.781682">
        <ele>1485.892</ele>
        <time>2018-07-05T10:32:21Z</time>
      </trkpt>
      <trkpt lat="46.140872" lon="6.781611">
        <ele>1485.118</ele>
        <time>2018-07-05T10:32:26Z</time>
      </trkpt>
      <trkpt lat="46.140891" lon="6.781540">
        <ele>1484.290</ele>
        <time>2018-07-05T10:32:31Z</time>
      </trkpt>
      <trkpt lat="46.140887" lon="6.781462">
        <ele>1483.477</ele>
        <time>2018-07-05T10:32:36Z</time>
      </trkpt>
      <trkpt lat="46.140871" lon="6.781401">
        <ele>1482.933</ele>
        <time>2018-07-05T10:32:40Z</time>
      </trkpt>
      <trkpt lat="46.140848" lon="6.781329">
        <ele>1482.298</ele>
        <time>2018-07-05T10:32:45Z</time>
      </trkpt>
      <trkpt lat="46.140811" lon="6.781278">
        <ele>1481.525</ele>
        <time>2018-07-05T10:32:50Z</time>
      </trkpt>
      <trkpt lat="46.140774" lon="6.781233">
        <ele>1480.626</ele>
        <time>2018-07-05T10:32:56Z</time>
      </trkpt>
      <trkpt lat="46.140732" lon="6.781181">
        <ele>1479.608</ele>
        <time>2018-07-05T10:33:02Z</time>
      </trkpt>
      <trkpt lat="46.140695" lon="6.781131">
        <ele>1478.708</ele>
        <time>2018-07-05T10:33:08Z</time>
      </trkpt>
      <trkpt lat="46.140660" lon="6.781086">
        <ele>1478.094</ele>
        <time>2018-07-05T10:33:14Z</time>
      </trkpt>
      <trkpt lat="46.140625" lon="6.781035">
        <ele>1477.350</ele>
        <time>2018-07-05T10:33:20Z</time>
      </trkpt>
      <trkpt lat="46.140595" lon="6.780979">
        <ele>1476.882</ele>
        <time>2018-07-05T10:33:26Z</time>
      </trkpt>
      <trkpt lat="46.140565" lon="6.780928">
        <ele>1476.438</ele>
        <time>2018-07-05T10:33:32Z</time>
      </trkpt>
      <trkpt lat="46.140525" lon="6.780881">
        <ele>1475.350</ele>
        <time>2018-07-05T10:33:38Z</time>
      </trkpt>
      <trkpt lat="46.140480" lon="6.780847">
        <ele>1473.977</ele>
        <time>2018-07-05T10:33:45Z</time>
      </trkpt>
      <trkpt lat="46.140439" lon="6.780800">
        <ele>1472.413</ele>
        <time>2018-07-05T10:33:54Z</time>
      </trkpt>
      <trkpt lat="46.140386" lon="6.780788">
        <ele>1470.818</ele>
        <time>2018-07-05T10:33:59Z</time>
      </trkpt>
      <trkpt lat="46.140336" lon="6.780773">
        <ele>1469.235</ele>
        <time>2018-07-05T10:34:03Z</time>
      </trkpt>
      <trkpt lat="46.140288" lon="6.780733">
        <ele>1467.686</ele>
        <time>2018-07-05T10:34:08Z</time>
      </trkpt>
      <trkpt lat="46.140247" lon="6.780705">
        <ele>1466.914</ele>
        <time>2018-07-05T10:34:13Z</time>
      </trkpt>
      <trkpt lat="46.140200" lon="6.780675">
        <ele>1466.208</ele>
        <time>2018-07-05T10:34:19Z</time>
      </trkpt>
      <trkpt lat="46.140158" lon="6.780649">
        <ele>1465.565</ele>
        <time>2018-07-05T10:34:25Z</time>
      </trkpt>
      <trkpt lat="46.140110" lon="6.780618">
        <ele>1464.681</ele>
        <time>2018-07-05T10:34:30Z</time>
      </trkpt>
      <trkpt lat="46.140063" lon="6.780591">
        <ele>1463.633</ele>
        <time>2018-07-05T10:34:34Z</time>
      </trkpt>
      <trkpt lat="46.140027" lon="6.780541">
        <ele>1462.259</ele>
        <time>2018-07-05T10:34:38Z</time>
      </trkpt>
      <trkpt lat="46.140000" lon="6.780477">
        <ele>1460.961</ele>
        <time>2018-07-05T10:34:43Z</time>
      </trkpt>
      <trkpt lat="46.139958" lon="6.780429">
        <ele>1460.048</ele>
        <time>2018-07-05T10:34:48Z</time>
      </trkpt>
      <trkpt lat="46.139928" lon="6.780363">
        <ele>1458.764</ele>
        <time>2018-07-05T10:34:54Z</time>
      </trkpt>
      <trkpt lat="46.139903" lon="6.780297">
        <ele>1457.389</ele>
        <time>2018-07-05T10:34:59Z</time>
      </trkpt>
      <trkpt lat="46.139885" lon="6.780228">
        <ele>1456.162</ele>
        <time>2018-07-05T10:35:04Z</time>
      </trkpt>
      <trkpt lat="46.139851" lon="6.780173">
        <ele>1454.983</ele>
        <time>2018-07-05T10:35:09Z</time>
      </trkpt>
      <trkpt lat="46.139825" lon="6.780104">
        <ele>1453.411</ele>
        <time>2018-07-05T10:35:15Z</time>
      </trkpt>
      <trkpt lat="46.139806" lon="6.780039">
        <ele>1452.108</ele>
        <time>2018-07-05T10:35:20Z</time>
      </trkpt>
      <trkpt lat="46.139790" lon="6.779978">
        <ele>1451.128</ele>
        <time>2018-07-05T10:35:25Z</time>
      </trkpt>
      <trkpt lat="46.139788" lon="6.779901">
        <ele>1450.594</ele>
        <time>2018-07-05T10:35:30Z</time>
      </trkpt>
      <trkpt lat="46.139779" lon="6.779825">
        <ele>1449.876</ele>
        <time>2018-07-05T10:35:35Z</time>
      </trkpt>
      <trkpt lat="46.139754" lon="6.779769">
        <ele>1448.922</ele>
        <time>2018-07-05T10:35:40Z</time>
      </trkpt>
      <trkpt lat="46.139716" lon="6.779723">
        <ele>1447.964</ele>
        <time>2018-07-05T10:35:45Z</time>
      </trkpt>
      <trkpt lat="46.139680" lon="6.779676">
        <ele>1447.231</ele>
        <time>2018-07-05T10:35:49Z</time>
      </trkpt>
      <trkpt lat="46.139668" lon="6.779597">
        <ele>1446.447</ele>
        <time>2018-07-05T10:35:54Z</time>
      </trkpt>
      <trkpt lat="46.139659" lon="6.779519">
        <ele>1445.772</ele>
        <time>2018-07-05T10:35:59Z</time>
      </trkpt>
      <trkpt lat="46.139638" lon="6.779451">
        <ele>1444.878</ele>
        <time>2018-07-05T10:36:04Z</time>
      </trkpt>
      <trkpt lat="46.139606" lon="6.779395">
        <ele>1444.133</ele>
        <time>2018-07-05T10:36:08Z</time>
      </trkpt>
      <trkpt lat="46.139583" lon="6.779330">
        <ele>1443.426</ele>
        <time>2018-07-05T10:36:12Z</time>
      </trkpt>
      <trkpt lat="46.139560" lon="6.779266">
        <ele>1442.608</ele>
        <time>2018-07-05T10:36:16Z</time>
      </trkpt>
      <trkpt lat="46.139539" lon="6.779194">
        <ele>1441.939</ele>
        <time>2018-07-05T10:36:21Z</time>
      </trkpt>
      <trkpt lat="46.139519" lon="6.779124">
        <ele>1441.055</ele>
        <time>2018-07-05T10:36:26Z</time>
      </trkpt>
      <trkpt lat="46.139488" lon="6.779068">
        <ele>1439.957</ele>
        <time>2018-07-05T10:36:31Z</time>
      </trkpt>
      <trkpt lat="46.139467" lon="6.779006">
        <ele>1438.893</ele>
        <time>2018-07-05T10:36:36Z</time>
      </trkpt>
      <trkpt lat="46.139439" lon="6.778954">
        <ele>1437.685</ele>
        <time>2018-07-05T10:36:40Z</time>
      </trkpt>
      <trkpt lat="46.139413" lon="6.778900">
        <ele>1436.812</ele>
        <time>2018-07-05T10:36:45Z</time>
      </trkpt>
      <trkpt lat="46.139383" lon="6.778849">
        <ele>1436.218</ele>
        <time>2018-07-05T10:36:50Z</time>
      </trkpt>
      <trkpt lat="46.139340" lon="6.778808">
        <ele>1435.563</ele>
        <time>2018-07-05T10:36:54Z</time>
      </trkpt>
      <trkpt lat="46.139323" lon="6.778745">
        <ele>1434.956</ele>
        <time>2018-07-05T10:36:59Z</time>
      </trkpt>
      <trkpt lat="46.139273" lon="6.778724">
        <ele>1434.259</ele>
        <time>2018-07-05T10:38:05Z</time>
      </trkpt>
      <trkpt lat="46.139331" lon="6.778730">
        <ele>1435.014</ele>
        <time>2018-07-05T10:38:12Z</time>
      </trkpt>
      <trkpt lat="46.139388" lon="6.778716">
        <ele>1435.608</ele>
        <time>2018-07-05T10:38:15Z</time>
      </trkpt>
      <trkpt lat="46.139433" lon="6.778704">
        <ele>1436.247</ele>
        <time>2018-07-05T10:38:19Z</time>
      </trkpt>
      <trkpt lat="46.139368" lon="6.778725">
        <ele>1435.473</ele>
        <time>2018-07-05T10:39:54Z</time>
      </trkpt>
      <trkpt lat="46.139319" lon="6.778693">
        <ele>1434.665</ele>
        <time>2018-07-05T10:40:28Z</time>
      </trkpt>
      <trkpt lat="46.139276" lon="6.778662">
        <ele>1433.921</ele>
        <time>2018-07-05T10:40:32Z</time>
      </trkpt>
      <trkpt lat="46.139233" lon="6.778629">
        <ele>1433.153</ele>
        <time>2018-07-05T10:40:36Z</time>
      </trkpt>
      <trkpt lat="46.139196" lon="6.778589">
        <ele>1432.310</ele>
        <time>2018-07-05T10:40:41Z</time>
      </trkpt>
      <trkpt lat="46.139150" lon="6.778550">
        <ele>1431.556</ele>
        <time>2018-07-05T10:40:45Z</time>
      </trkpt>
      <trkpt lat="46.139113" lon="6.778494">
        <ele>1431.051</ele>
        <time>2018-07-05T10:40:50Z</time>
      </trkpt>
      <trkpt lat="46.139078" lon="6.778453">
        <ele>1430.559</ele>
        <time>2018-07-05T10:40:53Z</time>
      </trkpt>
      <trkpt lat="46.139054" lon="6.778395">
        <ele>1430.003</ele>
        <time>2018-07-05T10:40:57Z</time>
      </trkpt>
      <trkpt lat="46.139021" lon="6.778342">
        <ele>1429.523</ele>
        <time>2018-07-05T10:41:02Z</time>
      </trkpt>
      <trkpt lat="46.138980" lon="6.778312">
        <ele>1429.208</ele>
        <time>2018-07-05T10:41:08Z</time>
      </trkpt>
      <trkpt lat="46.138971" lon="6.778243">
        <ele>1428.647</ele>
        <time>2018-07-05T10:41:16Z</time>
      </trkpt>
      <trkpt lat="46.138953" lon="6.778183">
        <ele>1428.173</ele>
        <time>2018-07-05T10:41:23Z</time>
      </trkpt>
      <trkpt lat="46.138955" lon="6.778117">
        <ele>1427.755</ele>
        <time>2018-07-05T10:41:52Z</time>
      </trkpt>
      <trkpt lat="46.138907" lon="6.778101">
        <ele>1427.451</ele>
        <time>2018-07-05T10:41:59Z</time>
      </trkpt>
      <trkpt lat="46.138861" lon="6.778069">
        <ele>1427.043</ele>
        <time>2018-07-05T10:42:03Z</time>
      </trkpt>
      <trkpt lat="46.138826" lon="6.778028">
        <ele>1426.580</ele>
        <time>2018-07-05T10:42:07Z</time>
      </trkpt>
      <trkpt lat="46.138800" lon="6.777975">
        <ele>1425.956</ele>
        <time>2018-07-05T10:42:11Z</time>
      </trkpt>
      <trkpt lat="46.138784" lon="6.777904">
        <ele>1425.131</ele>
        <time>2018-07-05T10:42:16Z</time>
      </trkpt>
      <trkpt lat="46.138750" lon="6.777839">
        <ele>1424.283</ele>
        <time>2018-07-05T10:42:21Z</time>
      </trkpt>
      <trkpt lat="46.138711" lon="6.777787">
        <ele>1423.225</ele>
        <time>2018-07-05T10:42:25Z</time>
      </trkpt>
      <trkpt lat="46.138680" lon="6.777739">
        <ele>1422.417</ele>
        <time>2018-07-05T10:42:32Z</time>
      </trkpt>
      <trkpt lat="46.138643" lon="6.777695">
        <ele>1421.508</ele>
        <time>2018-07-05T10:42:37Z</time>
      </trkpt>
      <trkpt lat="46.138614" lon="6.777641">
        <ele>1420.640</ele>
        <time>2018-07-05T10:42:42Z</time>
      </trkpt>
      <trkpt lat="46.138608" lon="6.777570">
        <ele>1419.896</ele>
        <time>2018-07-05T10:42:48Z</time>
      </trkpt>
      <trkpt lat="46.138577" lon="6.777518">
        <ele>1420.048</ele>
        <time>2018-07-05T10:42:54Z</time>
      </trkpt>
      <trkpt lat="46.138539" lon="6.777467">
        <ele>1420.334</ele>
        <time>2018-07-05T10:43:02Z</time>
      </trkpt>
      <trkpt lat="46.138502" lon="6.777418">
        <ele>1420.616</ele>
        <time>2018-07-05T10:43:07Z</time>
      </trkpt>
      <trkpt lat="46.138469" lon="6.777368">
        <ele>1420.763</ele>
        <time>2018-07-05T10:43:14Z</time>
      </trkpt>
      <trkpt lat="46.138462" lon="6.777303">
        <ele>1419.969</ele>
        <time>2018-07-05T10:43:20Z</time>
      </trkpt>
      <trkpt lat="46.138439" lon="6.777244">
        <ele>1419.764</ele>
        <time>2018-07-05T10:43:25Z</time>
      </trkpt>
      <trkpt lat="46.138413" lon="6.777189">
        <ele>1419.393</ele>
        <time>2018-07-05T10:43:31Z</time>
      </trkpt>
      <trkpt lat="46.138400" lon="6.777117">
        <ele>1418.265</ele>
        <time>2018-07-05T10:43:43Z</time>
      </trkpt>
      <trkpt lat="46.138367" lon="6.777063">
        <ele>1417.921</ele>
        <time>2018-07-05T10:43:48Z</time>
      </trkpt>
      <trkpt lat="46.138335" lon="6.777002">
        <ele>1417.208</ele>
        <time>2018-07-05T10:43:53Z</time>
      </trkpt>
      <trkpt lat="46.138300" lon="6.776961">
        <ele>1417.171</ele>
        <time>2018-07-05T10:43:57Z</time>
      </trkpt>
      <trkpt lat="46.138268" lon="6.776905">
        <ele>1416.457</ele>
        <time>2018-07-05T10:44:03Z</time>
      </trkpt>
      <trkpt lat="46.138233" lon="6.776864">
        <ele>1416.029</ele>
        <time>2018-07-05T10:44:09Z</time>
      </trkpt>
      <trkpt lat="46.138185" lon="6.776829">
        <ele>1416.165</ele>
        <time>2018-07-05T10:44:20Z</time>
      </trkpt>
      <trkpt lat="46.138136" lon="6.776797">
        <ele>1416.257</ele>
        <time>2018-07-05T10:44:25Z</time>
      </trkpt>
      <trkpt lat="46.138086" lon="6.776785">
        <ele>1416.854</ele>
        <time>2018-07-05T10:44:31Z</time>
      </trkpt>
      <trkpt lat="46.138038" lon="6.776770">
        <ele>1417.160</ele>
        <time>2018-07-05T10:44:36Z</time>
      </trkpt>
      <trkpt lat="46.137997" lon="6.776797">
        <ele>1418.255</ele>
        <time>2018-07-05T10:44:42Z</time>
      </trkpt>
      <trkpt lat="46.137950" lon="6.776786">
        <ele>1418.115</ele>
        <time>2018-07-05T10:44:46Z</time>
      </trkpt>
      <trkpt lat="46.137900" lon="6.776791">
        <ele>1418.665</ele>
        <time>2018-07-05T10:44:52Z</time>
      </trkpt>
      <trkpt lat="46.137855" lon="6.776817">
        <ele>1419.811</ele>
        <time>2018-07-05T10:44:57Z</time>
      </trkpt>
      <trkpt lat="46.137801" lon="6.776831">
        <ele>1420.708</ele>
        <time>2018-07-05T10:45:02Z</time>
      </trkpt>
      <trkpt lat="46.137745" lon="6.776830">
        <ele>1421.163</ele>
        <time>2018-07-05T10:45:07Z</time>
      </trkpt>
      <trkpt lat="46.137690" lon="6.776811">
        <ele>1420.849</ele>
        <time>2018-07-05T10:45:11Z</time>
      </trkpt>
      <trkpt lat="46.137640" lon="6.776788">
        <ele>1420.471</ele>
        <time>2018-07-05T10:45:15Z</time>
      </trkpt>
      <trkpt lat="46.137591" lon="6.776759">
        <ele>1419.787</ele>
        <time>2018-07-05T10:45:19Z</time>
      </trkpt>
      <trkpt lat="46.137548" lon="6.776736">
        <ele>1419.229</ele>
        <time>2018-07-05T10:45:24Z</time>
      </trkpt>
      <trkpt lat="46.137501" lon="6.776728">
        <ele>1419.236</ele>
        <time>2018-07-05T10:45:33Z</time>
      </trkpt>
      <trkpt lat="46.137455" lon="6.776746">
        <ele>1420.532</ele>
        <time>2018-07-05T10:45:38Z</time>
      </trkpt>
      <trkpt lat="46.137400" lon="6.776758">
        <ele>1421.697</ele>
        <time>2018-07-05T10:45:43Z</time>
      </trkpt>
      <trkpt lat="46.137361" lon="6.776722">
        <ele>1420.958</ele>
        <time>2018-07-05T10:45:55Z</time>
      </trkpt>
      <trkpt lat="46.137313" lon="6.776716">
        <ele>1421.352</ele>
        <time>2018-07-05T10:45:59Z</time>
      </trkpt>
      <trkpt lat="46.137259" lon="6.776696">
        <ele>1421.417</ele>
        <time>2018-07-05T10:46:03Z</time>
      </trkpt>
      <trkpt lat="46.137210" lon="6.776689">
        <ele>1422.008</ele>
        <time>2018-07-05T10:46:07Z</time>
      </trkpt>
      <trkpt lat="46.137174" lon="6.776648">
        <ele>1421.657</ele>
        <time>2018-07-05T10:46:14Z</time>
      </trkpt>
      <trkpt lat="46.137124" lon="6.776626">
        <ele>1422.293</ele>
        <time>2018-07-05T10:46:20Z</time>
      </trkpt>
      <trkpt lat="46.137079" lon="6.776609">
        <ele>1422.915</ele>
        <time>2018-07-05T10:46:23Z</time>
      </trkpt>
      <trkpt lat="46.137031" lon="6.776595">
        <ele>1423.851</ele>
        <time>2018-07-05T10:46:26Z</time>
      </trkpt>
      <trkpt lat="46.136990" lon="6.776565">
        <ele>1424.183</ele>
        <time>2018-07-05T10:46:30Z</time>
      </trkpt>
      <trkpt lat="46.136955" lon="6.776511">
        <ele>1423.730</ele>
        <time>2018-07-05T10:46:36Z</time>
      </trkpt>
      <trkpt lat="46.136927" lon="6.776449">
        <ele>1423.686</ele>
        <time>2018-07-05T10:46:42Z</time>
      </trkpt>
      <trkpt lat="46.136903" lon="6.776392">
        <ele>1423.671</ele>
        <time>2018-07-05T10:46:47Z</time>
      </trkpt>
      <trkpt lat="46.136887" lon="6.776322">
        <ele>1423.196</ele>
        <time>2018-07-05T10:46:53Z</time>
      </trkpt>
      <trkpt lat="46.136866" lon="6.776258">
        <ele>1423.131</ele>
        <time>2018-07-05T10:47:01Z</time>
      </trkpt>
      <trkpt lat="46.136867" lon="6.776186">
        <ele>1421.624</ele>
        <time>2018-07-05T10:47:07Z</time>
      </trkpt>
      <trkpt lat="46.136849" lon="6.776116">
        <ele>1421.308</ele>
        <time>2018-07-05T10:47:13Z</time>
      </trkpt>
      <trkpt lat="46.136810" lon="6.776058">
        <ele>1422.941</ele>
        <time>2018-07-05T10:47:21Z</time>
      </trkpt>
      <trkpt lat="46.136806" lon="6.775992">
        <ele>1422.337</ele>
        <time>2018-07-05T10:47:28Z</time>
      </trkpt>
      <trkpt lat="46.136790" lon="6.775922">
        <ele>1422.359</ele>
        <time>2018-07-05T10:47:36Z</time>
      </trkpt>
      <trkpt lat="46.136744" lon="6.775859">
        <ele>1424.445</ele>
        <time>2018-07-05T10:47:44Z</time>
      </trkpt>
      <trkpt lat="46.136725" lon="6.775797">
        <ele>1425.077</ele>
        <time>2018-07-05T10:47:53Z</time>
      </trkpt>
      <trkpt lat="46.136722" lon="6.775727">
        <ele>1424.894</ele>
        <time>2018-07-05T10:48:01Z</time>
      </trkpt>
      <trkpt lat="46.136711" lon="6.775660">
        <ele>1425.170</ele>
        <time>2018-07-05T10:48:07Z</time>
      </trkpt>
      <trkpt lat="46.136686" lon="6.775596">
        <ele>1426.265</ele>
        <time>2018-07-05T10:48:13Z</time>
      </trkpt>
      <trkpt lat="46.136680" lon="6.775531">
        <ele>1426.231</ele>
        <time>2018-07-05T10:48:18Z</time>
      </trkpt>
      <trkpt lat="46.136670" lon="6.775465">
        <ele>1426.561</ele>
        <time>2018-07-05T10:48:23Z</time>
      </trkpt>
      <trkpt lat="46.136672" lon="6.775394">
        <ele>1426.107</ele>
        <time>2018-07-05T10:48:30Z</time>
      </trkpt>
      <trkpt lat="46.136679" lon="6.775327">
        <ele>1425.508</ele>
        <time>2018-07-05T10:48:36Z</time>
      </trkpt>
      <trkpt lat="46.136675" lon="6.775255">
        <ele>1425.735</ele>
        <time>2018-07-05T10:48:42Z</time>
      </trkpt>
      <trkpt lat="46.136681" lon="6.775182">
        <ele>1425.651</ele>
        <time>2018-07-05T10:48:50Z</time>
      </trkpt>
      <trkpt lat="46.136676" lon="6.775115">
        <ele>1426.193</ele>
        <time>2018-07-05T10:48:55Z</time>
      </trkpt>
      <trkpt lat="46.136666" lon="6.775049">
        <ele>1426.959</ele>
        <time>2018-07-05T10:49:02Z</time>
      </trkpt>
      <trkpt lat="46.136655" lon="6.774981">
        <ele>1427.991</ele>
        <time>2018-07-05T10:49:08Z</time>
      </trkpt>
      <trkpt lat="46.136664" lon="6.774904">
        <ele>1427.998</ele>
        <time>2018-07-05T10:49:14Z</time>
      </trkpt>
      <trkpt lat="46.136670" lon="6.774828">
        <ele>1428.134</ele>
        <time>2018-07-05T10:49:21Z</time>
      </trkpt>
      <trkpt lat="46.136683" lon="6.774754">
        <ele>1428.069</ele>
        <time>2018-07-05T10:49:29Z</time>
      </trkpt>
      <trkpt lat="46.136690" lon="6.774681">
        <ele>1428.268</ele>
        <time>2018-07-05T10:49:36Z</time>
      </trkpt>
      <trkpt lat="46.136701" lon="6.774603">
        <ele>1428.342</ele>
        <time>2018-07-05T10:49:42Z</time>
      </trkpt>
      <trkpt lat="46.136698" lon="6.774528">
        <ele>1429.026</ele>
        <time>2018-07-05T10:49:47Z</time>
      </trkpt>
      <trkpt lat="46.136686" lon="6.774459">
        <ele>1430.108</ele>
        <time>2018-07-05T10:49:52Z</time>
      </trkpt>
      <trkpt lat="46.136680" lon="6.774388">
        <ele>1430.418</ele>
        <time>2018-07-05T10:49:57Z</time>
      </trkpt>
      <trkpt lat="46.136666" lon="6.774322">
        <ele>1431.074</ele>
        <time>2018-07-05T10:50:03Z</time>
      </trkpt>
      <trkpt lat="46.136646" lon="6.774257">
        <ele>1432.196</ele>
        <time>2018-07-05T10:50:15Z</time>
      </trkpt>
      <trkpt lat="46.136661" lon="6.774186">
        <ele>1431.372</ele>
        <time>2018-07-05T10:50:24Z</time>
      </trkpt>
      <trkpt lat="46.136641" lon="6.774117">
        <ele>1432.084</ele>
        <time>2018-07-05T10:50:32Z</time>
      </trkpt>
      <trkpt lat="46.136609" lon="6.774063">
        <ele>1433.451</ele>
        <time>2018-07-05T10:50:39Z</time>
      </trkpt>
      <trkpt lat="46.136587" lon="6.774004">
        <ele>1434.187</ele>
        <time>2018-07-05T10:50:47Z</time>
      </trkpt>
      <trkpt lat="46.136564" lon="6.773945">
        <ele>1434.932</ele>
        <time>2018-07-05T10:50:56Z</time>
      </trkpt>
      <trkpt lat="46.136538" lon="6.773886">
        <ele>1435.981</ele>
        <time>2018-07-05T10:51:17Z</time>
      </trkpt>
      <trkpt lat="46.136496" lon="6.773855">
        <ele>1437.861</ele>
        <time>2018-07-05T10:51:36Z</time>
      </trkpt>
      <trkpt lat="46.136516" lon="6.773794">
        <ele>1436.117</ele>
        <time>2018-07-05T10:51:54Z</time>
      </trkpt>
      <trkpt lat="46.136521" lon="6.773726">
        <ele>1435.108</ele>
        <time>2018-07-05T10:52:00Z</time>
      </trkpt>
      <trkpt lat="46.136506" lon="6.773661">
        <ele>1435.270</ele>
        <time>2018-07-05T10:52:05Z</time>
      </trkpt>
      <trkpt lat="46.136477" lon="6.773596">
        <ele>1436.036</ele>
        <time>2018-07-05T10:52:10Z</time>
      </trkpt>
      <trkpt lat="46.136445" lon="6.773533">
        <ele>1436.678</ele>
        <time>2018-07-05T10:52:15Z</time>
      </trkpt>
      <trkpt lat="46.136417" lon="6.773468">
        <ele>1437.034</ele>
        <time>2018-07-05T10:52:21Z</time>
      </trkpt>
      <trkpt lat="46.136380" lon="6.773418">
        <ele>1438.066</ele>
        <time>2018-07-05T10:52:27Z</time>
      </trkpt>
      <trkpt lat="46.136372" lon="6.773352">
        <ele>1437.233</ele>
        <time>2018-07-05T10:52:34Z</time>
      </trkpt>
      <trkpt lat="46.136346" lon="6.773284">
        <ele>1437.699</ele>
        <time>2018-07-05T10:52:40Z</time>
      </trkpt>
      <trkpt lat="46.136331" lon="6.773222">
        <ele>1437.544</ele>
        <time>2018-07-05T10:52:45Z</time>
      </trkpt>
      <trkpt lat="46.136308" lon="6.773163">
        <ele>1437.922</ele>
        <time>2018-07-05T10:52:50Z</time>
      </trkpt>
      <trkpt lat="46.136307" lon="6.773098">
        <ele>1437.062</ele>
        <time>2018-07-05T10:52:55Z</time>
      </trkpt>
      <trkpt lat="46.136314" lon="6.773028">
        <ele>1435.708</ele>
        <time>2018-07-05T10:53:00Z</time>
      </trkpt>
      <trkpt lat="46.136302" lon="6.772957">
        <ele>1435.408</ele>
        <time>2018-07-05T10:53:05Z</time>
      </trkpt>
      <trkpt lat="46.136277" lon="6.772895">
        <ele>1436.044</ele>
        <time>2018-07-05T10:53:09Z</time>
      </trkpt>
      <trkpt lat="46.136260" lon="6.772832">
        <ele>1436.160</ele>
        <time>2018-07-05T10:53:13Z</time>
      </trkpt>
      <trkpt lat="46.136242" lon="6.772759">
        <ele>1436.482</ele>
        <time>2018-07-05T10:53:18Z</time>
      </trkpt>
      <trkpt lat="46.136229" lon="6.772697">
        <ele>1437.098</ele>
        <time>2018-07-05T10:53:24Z</time>
      </trkpt>
      <trkpt lat="46.136243" lon="6.772631">
        <ele>1436.190</ele>
        <time>2018-07-05T10:53:30Z</time>
      </trkpt>
      <trkpt lat="46.136237" lon="6.772559">
        <ele>1436.327</ele>
        <time>2018-07-05T10:53:36Z</time>
      </trkpt>
      <trkpt lat="46.136257" lon="6.772495">
        <ele>1435.273</ele>
        <time>2018-07-05T10:53:41Z</time>
      </trkpt>
      <trkpt lat="46.136268" lon="6.772431">
        <ele>1435.218</ele>
        <time>2018-07-05T10:53:49Z</time>
      </trkpt>
      <trkpt lat="46.136242" lon="6.772375">
        <ele>1437.054</ele>
        <time>2018-07-05T10:53:54Z</time>
      </trkpt>
      <trkpt lat="46.136205" lon="6.772322">
        <ele>1439.456</ele>
        <time>2018-07-05T10:53:59Z</time>
      </trkpt>
      <trkpt lat="46.136177" lon="6.772267">
        <ele>1441.311</ele>
        <time>2018-07-05T10:54:04Z</time>
      </trkpt>
      <trkpt lat="46.136152" lon="6.772201">
        <ele>1443.208</ele>
        <time>2018-07-05T10:54:09Z</time>
      </trkpt>
      <trkpt lat="46.136159" lon="6.772134">
        <ele>1443.577</ele>
        <time>2018-07-05T10:54:14Z</time>
      </trkpt>
      <trkpt lat="46.136180" lon="6.772073">
        <ele>1443.163</ele>
        <time>2018-07-05T10:54:19Z</time>
      </trkpt>
      <trkpt lat="46.136177" lon="6.772000">
        <ele>1444.185</ele>
        <time>2018-07-05T10:54:24Z</time>
      </trkpt>
      <trkpt lat="46.136169" lon="6.771934">
        <ele>1445.221</ele>
        <time>2018-07-05T10:54:28Z</time>
      </trkpt>
      <trkpt lat="46.136164" lon="6.771868">
        <ele>1446.483</ele>
        <time>2018-07-05T10:54:32Z</time>
      </trkpt>
      <trkpt lat="46.136177" lon="6.771805">
        <ele>1446.720</ele>
        <time>2018-07-05T10:54:36Z</time>
      </trkpt>
      <trkpt lat="46.136201" lon="6.771747">
        <ele>1446.316</ele>
        <time>2018-07-05T10:54:40Z</time>
      </trkpt>
      <trkpt lat="46.136236" lon="6.771697">
        <ele>1445.371</ele>
        <time>2018-07-05T10:54:45Z</time>
      </trkpt>
      <trkpt lat="46.136269" lon="6.771652">
        <ele>1444.334</ele>
        <time>2018-07-05T10:54:50Z</time>
      </trkpt>
      <trkpt lat="46.136298" lon="6.771590">
        <ele>1444.155</ele>
        <time>2018-07-05T10:54:57Z</time>
      </trkpt>
      <trkpt lat="46.136321" lon="6.771525">
        <ele>1444.110</ele>
        <time>2018-07-05T10:55:03Z</time>
      </trkpt>
      <trkpt lat="46.136360" lon="6.771483">
        <ele>1442.808</ele>
        <time>2018-07-05T10:55:08Z</time>
      </trkpt>
      <trkpt lat="46.136390" lon="6.771427">
        <ele>1442.345</ele>
        <time>2018-07-05T10:55:14Z</time>
      </trkpt>
      <trkpt lat="46.136423" lon="6.771369">
        <ele>1442.061</ele>
        <time>2018-07-05T10:55:20Z</time>
      </trkpt>
      <trkpt lat="46.136455" lon="6.771314">
        <ele>1441.533</ele>
        <time>2018-07-05T10:55:38Z</time>
      </trkpt>
      <trkpt lat="46.136468" lon="6.771252">
        <ele>1441.929</ele>
        <time>2018-07-05T10:55:45Z</time>
      </trkpt>
      <trkpt lat="46.136467" lon="6.771184">
        <ele>1443.081</ele>
        <time>2018-07-05T10:55:51Z</time>
      </trkpt>
      <trkpt lat="46.136449" lon="6.771123">
        <ele>1444.838</ele>
        <time>2018-07-05T10:55:57Z</time>
      </trkpt>
      <trkpt lat="46.136449" lon="6.771047">
        <ele>1446.114</ele>
        <time>2018-07-05T10:56:04Z</time>
      </trkpt>
      <trkpt lat="46.136450" lon="6.770975">
        <ele>1447.429</ele>
        <time>2018-07-05T10:56:12Z</time>
      </trkpt>
      <trkpt lat="46.136473" lon="6.770917">
        <ele>1447.393</ele>
        <time>2018-07-05T10:56:22Z</time>
      </trkpt>
      <trkpt lat="46.136505" lon="6.770868">
        <ele>1446.565</ele>
        <time>2018-07-05T10:56:29Z</time>
      </trkpt>
      <trkpt lat="46.136528" lon="6.770812">
        <ele>1446.621</ele>
        <time>2018-07-05T10:56:36Z</time>
      </trkpt>
      <trkpt lat="46.136535" lon="6.770735">
        <ele>1448.308</ele>
        <time>2018-07-05T10:56:43Z</time>
      </trkpt>
      <trkpt lat="46.136512" lon="6.770672">
        <ele>1451.151</ele>
        <time>2018-07-05T10:56:47Z</time>
      </trkpt>
      <trkpt lat="46.136503" lon="6.770598">
        <ele>1453.587</ele>
        <time>2018-07-05T10:56:53Z</time>
      </trkpt>
      <trkpt lat="46.136520" lon="6.770533">
        <ele>1454.679</ele>
        <time>2018-07-05T10:57:00Z</time>
      </trkpt>
      <trkpt lat="46.136505" lon="6.770471">
        <ele>1457.385</ele>
        <time>2018-07-05T10:57:07Z</time>
      </trkpt>
      <trkpt lat="46.136511" lon="6.770402">
        <ele>1459.277</ele>
        <time>2018-07-05T10:57:13Z</time>
      </trkpt>
      <trkpt lat="46.136510" lon="6.770329">
        <ele>1461.614</ele>
        <time>2018-07-05T10:57:21Z</time>
      </trkpt>
      <trkpt lat="46.136536" lon="6.770266">
        <ele>1462.660</ele>
        <time>2018-07-05T10:57:29Z</time>
      </trkpt>
      <trkpt lat="46.136575" lon="6.770220">
        <ele>1462.585</ele>
        <time>2018-07-05T10:57:36Z</time>
      </trkpt>
      <trkpt lat="46.136611" lon="6.770181">
        <ele>1462.344</ele>
        <time>2018-07-05T10:57:44Z</time>
      </trkpt>
      <trkpt lat="46.136665" lon="6.770156">
        <ele>1461.005</ele>
        <time>2018-07-05T10:57:52Z</time>
      </trkpt>
      <trkpt lat="46.136692" lon="6.770096">
        <ele>1461.215</ele>
        <time>2018-07-05T10:58:01Z</time>
      </trkpt>
      <trkpt lat="46.136715" lon="6.770039">
        <ele>1461.208</ele>
        <time>2018-07-05T10:58:08Z</time>
      </trkpt>
      <trkpt lat="46.136735" lon="6.769978">
        <ele>1461.386</ele>
        <time>2018-07-05T10:58:17Z</time>
      </trkpt>
      <trkpt lat="46.136742" lon="6.769911">
        <ele>1462.242</ele>
        <time>2018-07-05T10:58:27Z</time>
      </trkpt>
      <trkpt lat="46.136744" lon="6.769841">
        <ele>1463.514</ele>
        <time>2018-07-05T10:58:35Z</time>
      </trkpt>
      <trkpt lat="46.136753" lon="6.769769">
        <ele>1464.340</ele>
        <time>2018-07-05T10:58:42Z</time>
      </trkpt>
      <trkpt lat="46.136760" lon="6.769697">
        <ele>1464.782</ele>
        <time>2018-07-05T10:58:51Z</time>
      </trkpt>
      <trkpt lat="46.136769" lon="6.769626">
        <ele>1464.079</ele>
        <time>2018-07-05T10:58:59Z</time>
      </trkpt>
      <trkpt lat="46.136771" lon="6.769553">
        <ele>1464.135</ele>
        <time>2018-07-05T10:59:05Z</time>
      </trkpt>
      <trkpt lat="46.136769" lon="6.769486">
        <ele>1464.430</ele>
        <time>2018-07-05T10:59:13Z</time>
      </trkpt>
      <trkpt lat="46.136758" lon="6.769414">
        <ele>1465.345</ele>
        <time>2018-07-05T10:59:21Z</time>
      </trkpt>
      <trkpt lat="46.136752" lon="6.769346">
        <ele>1465.547</ele>
        <time>2018-07-05T10:59:28Z</time>
      </trkpt>
      <trkpt lat="46.136704" lon="6.769288">
        <ele>1468.711</ele>
        <time>2018-07-05T10:59:38Z</time>
      </trkpt>
      <trkpt lat="46.136672" lon="6.769241">
        <ele>1470.408</ele>
        <time>2018-07-05T10:59:50Z</time>
      </trkpt>
      <trkpt lat="46.136654" lon="6.769180">
        <ele>1470.516</ele>
        <time>2018-07-05T10:59:58Z</time>
      </trkpt>
      <trkpt lat="46.136627" lon="6.769126">
        <ele>1470.852</ele>
        <time>2018-07-05T11:00:05Z</time>
      </trkpt>
      <trkpt lat="46.136570" lon="6.769110">
        <ele>1472.384</ele>
        <time>2018-07-05T11:00:09Z</time>
      </trkpt>
      <trkpt lat="46.136511" lon="6.769086">
        <ele>1473.790</ele>
        <time>2018-07-05T11:00:13Z</time>
      </trkpt>
      <trkpt lat="46.136476" lon="6.769030">
        <ele>1474.222</ele>
        <time>2018-07-05T11:00:19Z</time>
      </trkpt>
      <trkpt lat="46.136461" lon="6.768967">
        <ele>1474.089</ele>
        <time>2018-07-05T11:00:24Z</time>
      </trkpt>
      <trkpt lat="46.136435" lon="6.768907">
        <ele>1474.045</ele>
        <time>2018-07-05T11:00:28Z</time>
      </trkpt>
      <trkpt lat="46.136398" lon="6.768860">
        <ele>1474.670</ele>
        <time>2018-07-05T11:00:50Z</time>
      </trkpt>
      <trkpt lat="46.136383" lon="6.768797">
        <ele>1474.461</ele>
        <time>2018-07-05T11:00:55Z</time>
      </trkpt>
      <trkpt lat="46.136381" lon="6.768730">
        <ele>1474.021</ele>
        <time>2018-07-05T11:01:02Z</time>
      </trkpt>
      <trkpt lat="46.136358" lon="6.768662">
        <ele>1473.913</ele>
        <time>2018-07-05T11:01:06Z</time>
      </trkpt>
      <trkpt lat="46.136328" lon="6.768603">
        <ele>1474.108</ele>
        <time>2018-07-05T11:01:10Z</time>
      </trkpt>
      <trkpt lat="46.136306" lon="6.768540">
        <ele>1474.248</ele>
        <time>2018-07-05T11:01:15Z</time>
      </trkpt>
      <trkpt lat="46.136291" lon="6.768467">
        <ele>1474.154</ele>
        <time>2018-07-05T11:01:20Z</time>
      </trkpt>
      <trkpt lat="46.136284" lon="6.768396">
        <ele>1473.866</ele>
        <time>2018-07-05T11:01:24Z</time>
      </trkpt>
      <trkpt lat="46.136264" lon="6.768324">
        <ele>1473.812</ele>
        <time>2018-07-05T11:01:29Z</time>
      </trkpt>
      <trkpt lat="46.136235" lon="6.768261">
        <ele>1474.154</ele>
        <time>2018-07-05T11:01:33Z</time>
      </trkpt>
      <trkpt lat="46.136208" lon="6.768199">
        <ele>1474.441</ele>
        <time>2018-07-05T11:01:38Z</time>
      </trkpt>
      <trkpt lat="46.136182" lon="6.768142">
        <ele>1474.867</ele>
        <time>2018-07-05T11:01:43Z</time>
      </trkpt>
      <trkpt lat="46.136158" lon="6.768086">
        <ele>1475.272</ele>
        <time>2018-07-05T11:01:48Z</time>
      </trkpt>
      <trkpt lat="46.136127" lon="6.768030">
        <ele>1475.956</ele>
        <time>2018-07-05T11:01:53Z</time>
      </trkpt>
      <trkpt lat="46.136090" lon="6.767979">
        <ele>1476.959</ele>
        <time>2018-07-05T11:01:59Z</time>
      </trkpt>
      <trkpt lat="46.136049" lon="6.767941">
        <ele>1477.814</ele>
        <time>2018-07-05T11:02:04Z</time>
      </trkpt>
      <trkpt lat="46.136011" lon="6.767905">
        <ele>1478.508</ele>
        <time>2018-07-05T11:02:10Z</time>
      </trkpt>
      <trkpt lat="46.135973" lon="6.767868">
        <ele>1479.287</ele>
        <time>2018-07-05T11:02:15Z</time>
      </trkpt>
      <trkpt lat="46.135939" lon="6.767813">
        <ele>1479.883</ele>
        <time>2018-07-05T11:02:20Z</time>
      </trkpt>
      <trkpt lat="46.135912" lon="6.767750">
        <ele>1480.785</ele>
        <time>2018-07-05T11:02:26Z</time>
      </trkpt>
      <trkpt lat="46.135896" lon="6.767681">
        <ele>1482.181</ele>
        <time>2018-07-05T11:02:32Z</time>
      </trkpt>
      <trkpt lat="46.135910" lon="6.767613">
        <ele>1483.113</ele>
        <time>2018-07-05T11:02:37Z</time>
      </trkpt>
      <trkpt lat="46.135943" lon="6.767551">
        <ele>1483.910</ele>
        <time>2018-07-05T11:02:42Z</time>
      </trkpt>
      <trkpt lat="46.135985" lon="6.767521">
        <ele>1484.046</ele>
        <time>2018-07-05T11:02:46Z</time>
      </trkpt>
      <trkpt lat="46.136028" lon="6.767497">
        <ele>1484.011</ele>
        <time>2018-07-05T11:02:52Z</time>
      </trkpt>
      <trkpt lat="46.136076" lon="6.767477">
        <ele>1484.357</ele>
        <time>2018-07-05T11:03:03Z</time>
      </trkpt>
      <trkpt lat="46.136135" lon="6.767445">
        <ele>1484.800</ele>
        <time>2018-07-05T11:03:13Z</time>
      </trkpt>
      <trkpt lat="46.136191" lon="6.767375">
        <ele>1486.620</ele>
        <time>2018-07-05T11:03:27Z</time>
      </trkpt>
      <trkpt lat="46.136234" lon="6.767333">
        <ele>1487.708</ele>
        <time>2018-07-05T11:03:34Z</time>
      </trkpt>
      <trkpt lat="46.136273" lon="6.767300">
        <ele>1488.447</ele>
        <time>2018-07-05T11:03:41Z</time>
      </trkpt>
      <trkpt lat="46.136297" lon="6.767241">
        <ele>1490.523</ele>
        <time>2018-07-05T11:03:45Z</time>
      </trkpt>
      <trkpt lat="46.136338" lon="6.767200">
        <ele>1491.725</ele>
        <time>2018-07-05T11:03:51Z</time>
      </trkpt>
      <trkpt lat="46.136399" lon="6.767157">
        <ele>1492.831</ele>
        <time>2018-07-05T11:04:02Z</time>
      </trkpt>
      <trkpt lat="46.136453" lon="6.767108">
        <ele>1494.843</ele>
        <time>2018-07-05T11:04:10Z</time>
      </trkpt>
      <trkpt lat="46.136495" lon="6.767070">
        <ele>1496.410</ele>
        <time>2018-07-05T11:04:23Z</time>
      </trkpt>
      <trkpt lat="46.136540" lon="6.767064">
        <ele>1496.646</ele>
        <time>2018-07-05T11:04:28Z</time>
      </trkpt>
      <trkpt lat="46.136590" lon="6.767054">
        <ele>1497.071</ele>
        <time>2018-07-05T11:04:33Z</time>
      </trkpt>
      <trkpt lat="46.136647" lon="6.767050">
        <ele>1497.193</ele>
        <time>2018-07-05T11:04:45Z</time>
      </trkpt>
      <trkpt lat="46.136701" lon="6.767054">
        <ele>1497.165</ele>
        <time>2018-07-05T11:04:49Z</time>
      </trkpt>
      <trkpt lat="46.136788" lon="6.767045">
        <ele>1498.121</ele>
        <time>2018-07-05T11:05:05Z</time>
      </trkpt>
      <trkpt lat="46.136840" lon="6.767058">
        <ele>1498.008</ele>
        <time>2018-07-05T11:05:12Z</time>
      </trkpt>
      <trkpt lat="46.136885" lon="6.767077">
        <ele>1497.711</ele>
        <time>2018-07-05T11:05:17Z</time>
      </trkpt>
      <trkpt lat="46.136930" lon="6.767107">
        <ele>1497.227</ele>
        <time>2018-07-05T11:05:23Z</time>
      </trkpt>
      <trkpt lat="46.136980" lon="6.767135">
        <ele>1496.129</ele>
        <time>2018-07-05T11:05:27Z</time>
      </trkpt>
      <trkpt lat="46.137035" lon="6.767161">
        <ele>1494.965</ele>
        <time>2018-07-05T11:05:32Z</time>
      </trkpt>
      <trkpt lat="46.137080" lon="6.767170">
        <ele>1494.487</ele>
        <time>2018-07-05T11:05:37Z</time>
      </trkpt>
      <trkpt lat="46.137111" lon="6.767118">
        <ele>1494.874</ele>
        <time>2018-07-05T11:05:43Z</time>
      </trkpt>
      <trkpt lat="46.137118" lon="6.767044">
        <ele>1495.760</ele>
        <time>2018-07-05T11:05:49Z</time>
      </trkpt>
      <trkpt lat="46.137102" lon="6.766979">
        <ele>1497.075</ele>
        <time>2018-07-05T11:05:55Z</time>
      </trkpt>
      <trkpt lat="46.137076" lon="6.766919">
        <ele>1498.159</ele>
        <time>2018-07-05T11:06:01Z</time>
      </trkpt>
      <trkpt lat="46.137042" lon="6.766864">
        <ele>1499.003</ele>
        <time>2018-07-05T11:06:07Z</time>
      </trkpt>
      <trkpt lat="46.136999" lon="6.766817">
        <ele>1500.423</ele>
        <time>2018-07-05T11:06:15Z</time>
      </trkpt>
      <trkpt lat="46.136965" lon="6.766771">
        <ele>1501.808</ele>
        <time>2018-07-05T11:06:23Z</time>
      </trkpt>
      <trkpt lat="46.136915" lon="6.766737">
        <ele>1503.387</ele>
        <time>2018-07-05T11:06:38Z</time>
      </trkpt>
      <trkpt lat="46.136874" lon="6.766703">
        <ele>1504.493</ele>
        <time>2018-07-05T11:06:42Z</time>
      </trkpt>
      <trkpt lat="46.136829" lon="6.766675">
        <ele>1505.835</ele>
        <time>2018-07-05T11:06:47Z</time>
      </trkpt>
      <trkpt lat="46.136780" lon="6.766667">
        <ele>1507.131</ele>
        <time>2018-07-05T11:06:53Z</time>
      </trkpt>
      <trkpt lat="46.136726" lon="6.766648">
        <ele>1508.343</ele>
        <time>2018-07-05T11:06:59Z</time>
      </trkpt>
      <trkpt lat="46.136688" lon="6.766614">
        <ele>1508.870</ele>
        <time>2018-07-05T11:07:04Z</time>
      </trkpt>
      <trkpt lat="46.136651" lon="6.766576">
        <ele>1509.266</ele>
        <time>2018-07-05T11:07:10Z</time>
      </trkpt>
      <trkpt lat="46.136612" lon="6.766542">
        <ele>1509.491</ele>
        <time>2018-07-05T11:07:16Z</time>
      </trkpt>
      <trkpt lat="46.136565" lon="6.766514">
        <ele>1509.999</ele>
        <time>2018-07-05T11:07:25Z</time>
      </trkpt>
      <trkpt lat="46.136519" lon="6.766522">
        <ele>1510.607</ele>
        <time>2018-07-05T11:07:31Z</time>
      </trkpt>
      <trkpt lat="46.136475" lon="6.766505">
        <ele>1511.227</ele>
        <time>2018-07-05T11:07:38Z</time>
      </trkpt>
      <trkpt lat="46.136423" lon="6.766466">
        <ele>1512.108</ele>
        <time>2018-07-05T11:07:45Z</time>
      </trkpt>
      <trkpt lat="46.136388" lon="6.766423">
        <ele>1512.911</ele>
        <time>2018-07-05T11:07:49Z</time>
      </trkpt>
      <trkpt lat="46.136359" lon="6.766359">
        <ele>1513.357</ele>
        <time>2018-07-05T11:07:55Z</time>
      </trkpt>
      <trkpt lat="46.136328" lon="6.766307">
        <ele>1513.439</ele>
        <time>2018-07-05T11:08:03Z</time>
      </trkpt>
      <trkpt lat="46.136291" lon="6.766265">
        <ele>1513.855</ele>
        <time>2018-07-05T11:08:07Z</time>
      </trkpt>
      <trkpt lat="46.136250" lon="6.766236">
        <ele>1514.317</ele>
        <time>2018-07-05T11:08:13Z</time>
      </trkpt>
      <trkpt lat="46.136201" lon="6.766212">
        <ele>1515.144</ele>
        <time>2018-07-05T11:08:20Z</time>
      </trkpt>
      <trkpt lat="46.136159" lon="6.766184">
        <ele>1515.890</ele>
        <time>2018-07-05T11:08:28Z</time>
      </trkpt>
      <trkpt lat="46.136129" lon="6.766136">
        <ele>1515.955</ele>
        <time>2018-07-05T11:08:36Z</time>
      </trkpt>
      <trkpt lat="46.136092" lon="6.766084">
        <ele>1516.412</ele>
        <time>2018-07-05T11:08:43Z</time>
      </trkpt>
      <trkpt lat="46.136057" lon="6.766041">
        <ele>1517.232</ele>
        <time>2018-07-05T11:08:50Z</time>
      </trkpt>
      <trkpt lat="46.136018" lon="6.766007">
        <ele>1518.405</ele>
        <time>2018-07-05T11:09:01Z</time>
      </trkpt>
      <trkpt lat="46.135965" lon="6.765982">
        <ele>1520.308</ele>
        <time>2018-07-05T11:10:25Z</time>
      </trkpt>
      <trkpt lat="46.135962" lon="6.766050">
        <ele>1520.683</ele>
        <time>2018-07-05T11:10:50Z</time>
      </trkpt>
      <trkpt lat="46.135929" lon="6.766101">
        <ele>1521.999</ele>
        <time>2018-07-05T11:10:56Z</time>
      </trkpt>
      <trkpt lat="46.135896" lon="6.766153">
        <ele>1523.181</ele>
        <time>2018-07-05T11:11:03Z</time>
      </trkpt>
      <trkpt lat="46.135860" lon="6.766204">
        <ele>1524.277</ele>
        <time>2018-07-05T11:11:10Z</time>
      </trkpt>
      <trkpt lat="46.135828" lon="6.766254">
        <ele>1525.179</ele>
        <time>2018-07-05T11:11:19Z</time>
      </trkpt>
      <trkpt lat="46.135802" lon="6.766317">
        <ele>1525.776</ele>
        <time>2018-07-05T11:11:27Z</time>
      </trkpt>
      <trkpt lat="46.135759" lon="6.766350">
        <ele>1526.632</ele>
        <time>2018-07-05T11:11:34Z</time>
      </trkpt>
      <trkpt lat="46.135721" lon="6.766385">
        <ele>1527.427</ele>
        <time>2018-07-05T11:11:41Z</time>
      </trkpt>
      <trkpt lat="46.135678" lon="6.766412">
        <ele>1527.894</ele>
        <time>2018-07-05T11:11:47Z</time>
      </trkpt>
      <trkpt lat="46.135628" lon="6.766414">
        <ele>1528.857</ele>
        <time>2018-07-05T11:11:54Z</time>
      </trkpt>
      <trkpt lat="46.135573" lon="6.766407">
        <ele>1530.222</ele>
        <time>2018-07-05T11:12:02Z</time>
      </trkpt>
      <trkpt lat="46.135527" lon="6.766383">
        <ele>1531.008</ele>
        <time>2018-07-05T11:12:08Z</time>
      </trkpt>
      <trkpt lat="46.135487" lon="6.766353">
        <ele>1531.241</ele>
        <time>2018-07-05T11:12:14Z</time>
      </trkpt>
      <trkpt lat="46.135424" lon="6.766288">
        <ele>1531.597</ele>
        <time>2018-07-05T11:12:22Z</time>
      </trkpt>
      <trkpt lat="46.135383" lon="6.766245">
        <ele>1531.859</ele>
        <time>2018-07-05T11:12:27Z</time>
      </trkpt>
      <trkpt lat="46.135341" lon="6.766210">
        <ele>1532.135</ele>
        <time>2018-07-05T11:12:31Z</time>
      </trkpt>
      <trkpt lat="46.135311" lon="6.766157">
        <ele>1532.657</ele>
        <time>2018-07-05T11:12:36Z</time>
      </trkpt>
      <trkpt lat="46.135300" lon="6.766084">
        <ele>1533.224</ele>
        <time>2018-07-05T11:12:41Z</time>
      </trkpt>
      <trkpt lat="46.135299" lon="6.766012">
        <ele>1534.040</ele>
        <time>2018-07-05T11:12:45Z</time>
      </trkpt>
      <trkpt lat="46.135309" lon="6.765946">
        <ele>1534.655</ele>
        <time>2018-07-05T11:12:52Z</time>
      </trkpt>
      <trkpt lat="46.135303" lon="6.765879">
        <ele>1535.351</ele>
        <time>2018-07-05T11:13:02Z</time>
      </trkpt>
      <trkpt lat="46.135315" lon="6.765805">
        <ele>1536.001</ele>
        <time>2018-07-05T11:13:14Z</time>
      </trkpt>
      <trkpt lat="46.135277" lon="6.765741">
        <ele>1537.011</ele>
        <time>2018-07-05T11:13:21Z</time>
      </trkpt>
      <trkpt lat="46.135242" lon="6.765679">
        <ele>1536.908</ele>
        <time>2018-07-05T11:13:26Z</time>
      </trkpt>
      <trkpt lat="46.135214" lon="6.765623">
        <ele>1537.127</ele>
        <time>2018-07-05T11:13:31Z</time>
      </trkpt>
      <trkpt lat="46.135189" lon="6.765560">
        <ele>1537.653</ele>
        <time>2018-07-05T11:13:36Z</time>
      </trkpt>
      <trkpt lat="46.135171" lon="6.765497">
        <ele>1538.435</ele>
        <time>2018-07-05T11:13:43Z</time>
      </trkpt>
      <trkpt lat="46.135138" lon="6.765438">
        <ele>1539.131</ele>
        <time>2018-07-05T11:13:50Z</time>
      </trkpt>
      <trkpt lat="46.135103" lon="6.765393">
        <ele>1539.953</ele>
        <time>2018-07-05T11:14:06Z</time>
      </trkpt>
      <trkpt lat="46.135093" lon="6.765329">
        <ele>1541.220</ele>
        <time>2018-07-05T11:14:12Z</time>
      </trkpt>
      <trkpt lat="46.135084" lon="6.765261">
        <ele>1542.666</ele>
        <time>2018-07-05T11:14:17Z</time>
      </trkpt>
      <trkpt lat="46.135035" lon="6.765249">
        <ele>1543.291</ele>
        <time>2018-07-05T11:14:23Z</time>
      </trkpt>
      <trkpt lat="46.134995" lon="6.765211">
        <ele>1544.224</ele>
        <time>2018-07-05T11:14:30Z</time>
      </trkpt>
      <trkpt lat="46.134949" lon="6.765178">
        <ele>1544.704</ele>
        <time>2018-07-05T11:14:39Z</time>
      </trkpt>
      <trkpt lat="46.134909" lon="6.765147">
        <ele>1545.314</ele>
        <time>2018-07-05T11:14:47Z</time>
      </trkpt>
      <trkpt lat="46.134861" lon="6.765130">
        <ele>1545.708</ele>
        <time>2018-07-05T11:14:54Z</time>
      </trkpt>
      <trkpt lat="46.134820" lon="6.765103">
        <ele>1546.544</ele>
        <time>2018-07-05T11:15:01Z</time>
      </trkpt>
      <trkpt lat="46.134775" lon="6.765069">
        <ele>1547.660</ele>
        <time>2018-07-05T11:15:08Z</time>
      </trkpt>
      <trkpt lat="46.134727" lon="6.765048">
        <ele>1548.412</ele>
        <time>2018-07-05T11:15:14Z</time>
      </trkpt>
      <trkpt lat="46.134685" lon="6.765022">
        <ele>1549.228</ele>
        <time>2018-07-05T11:15:21Z</time>
      </trkpt>
      <trkpt lat="46.134649" lon="6.764978">
        <ele>1549.660</ele>
        <time>2018-07-05T11:15:28Z</time>
      </trkpt>
      <trkpt lat="46.134623" lon="6.764923">
        <ele>1549.447</ele>
        <time>2018-07-05T11:15:34Z</time>
      </trkpt>
      <trkpt lat="46.134581" lon="6.764898">
        <ele>1549.363</ele>
        <time>2018-07-05T11:15:43Z</time>
      </trkpt>
      <trkpt lat="46.134536" lon="6.764873">
        <ele>1549.358</ele>
        <time>2018-07-05T11:15:56Z</time>
      </trkpt>
      <trkpt lat="46.134493" lon="6.764839">
        <ele>1549.544</ele>
        <time>2018-07-05T11:16:02Z</time>
      </trkpt>
      <trkpt lat="46.134444" lon="6.764816">
        <ele>1549.705</ele>
        <time>2018-07-05T11:16:07Z</time>
      </trkpt>
      <trkpt lat="46.134393" lon="6.764817">
        <ele>1549.915</ele>
        <time>2018-07-05T11:16:13Z</time>
      </trkpt>
      <trkpt lat="46.134348" lon="6.764816">
        <ele>1550.108</ele>
        <time>2018-07-05T11:16:21Z</time>
      </trkpt>
      <trkpt lat="46.134303" lon="6.764796">
        <ele>1550.516</ele>
        <time>2018-07-05T11:16:28Z</time>
      </trkpt>
      <trkpt lat="46.134259" lon="6.764766">
        <ele>1551.052</ele>
        <time>2018-07-05T11:16:34Z</time>
      </trkpt>
      <trkpt lat="46.134220" lon="6.764727">
        <ele>1551.614</ele>
        <time>2018-07-05T11:16:40Z</time>
      </trkpt>
      <trkpt lat="46.134181" lon="6.764684">
        <ele>1552.220</ele>
        <time>2018-07-05T11:16:48Z</time>
      </trkpt>
      <trkpt lat="46.134149" lon="6.764626">
        <ele>1553.132</ele>
        <time>2018-07-05T11:16:54Z</time>
      </trkpt>
      <trkpt lat="46.134114" lon="6.764574">
        <ele>1554.419</ele>
        <time>2018-07-05T11:16:59Z</time>
      </trkpt>
      <trkpt lat="46.134085" lon="6.764513">
        <ele>1555.615</ele>
        <time>2018-07-05T11:17:05Z</time>
      </trkpt>
      <trkpt lat="46.134048" lon="6.764459">
        <ele>1556.990</ele>
        <time>2018-07-05T11:17:11Z</time>
      </trkpt>
      <trkpt lat="46.134017" lon="6.764405">
        <ele>1558.149</ele>
        <time>2018-07-05T11:17:18Z</time>
      </trkpt>
      <trkpt lat="46.133994" lon="6.764342">
        <ele>1559.102</ele>
        <time>2018-07-05T11:17:24Z</time>
      </trkpt>
      <trkpt lat="46.133957" lon="6.764294">
        <ele>1560.222</ele>
        <time>2018-07-05T11:17:32Z</time>
      </trkpt>
      <trkpt lat="46.133913" lon="6.764273">
        <ele>1561.208</ele>
        <time>2018-07-05T11:17:45Z</time>
      </trkpt>
      <trkpt lat="46.133876" lon="6.764261">
        <ele>1562.076</ele>
        <time>2018-07-05T11:29:49Z</time>
      </trkpt>
      <trkpt lat="46.133828" lon="6.764277">
        <ele>1563.062</ele>
        <time>2018-07-05T11:29:55Z</time>
      </trkpt>
      <trkpt lat="46.133763" lon="6.764314">
        <ele>1564.254</ele>
        <time>2018-07-05T11:30:05Z</time>
      </trkpt>
      <trkpt lat="46.133727" lon="6.764364">
        <ele>1564.540</ele>
        <time>2018-07-05T11:30:10Z</time>
      </trkpt>
      <trkpt lat="46.133678" lon="6.764392">
        <ele>1565.312</ele>
        <time>2018-07-05T11:30:16Z</time>
      </trkpt>
      <trkpt lat="46.133631" lon="6.764417">
        <ele>1565.949</ele>
        <time>2018-07-05T11:30:22Z</time>
      </trkpt>
      <trkpt lat="46.133584" lon="6.764432">
        <ele>1566.635</ele>
        <time>2018-07-05T11:30:28Z</time>
      </trkpt>
      <trkpt lat="46.133538" lon="6.764426">
        <ele>1567.510</ele>
        <time>2018-07-05T11:30:35Z</time>
      </trkpt>
      <trkpt lat="46.133489" lon="6.764408">
        <ele>1568.583</ele>
        <time>2018-07-05T11:30:43Z</time>
      </trkpt>
      <trkpt lat="46.133446" lon="6.764387">
        <ele>1569.525</ele>
        <time>2018-07-05T11:30:50Z</time>
      </trkpt>
      <trkpt lat="46.133396" lon="6.764379">
        <ele>1570.417</ele>
        <time>2018-07-05T11:30:58Z</time>
      </trkpt>
      <trkpt lat="46.133348" lon="6.764396">
        <ele>1571.108</ele>
        <time>2018-07-05T11:31:05Z</time>
      </trkpt>
      <trkpt lat="46.133302" lon="6.764396">
        <ele>1572.270</ele>
        <time>2018-07-05T11:31:12Z</time>
      </trkpt>
      <trkpt lat="46.133253" lon="6.764398">
        <ele>1573.516</ele>
        <time>2018-07-05T11:31:23Z</time>
      </trkpt>
      <trkpt lat="46.133205" lon="6.764387">
        <ele>1574.818</ele>
        <time>2018-07-05T11:31:31Z</time>
      </trkpt>
      <trkpt lat="46.133158" lon="6.764381">
        <ele>1576.144</ele>
        <time>2018-07-05T11:31:38Z</time>
      </trkpt>
      <trkpt lat="46.133110" lon="6.764381">
        <ele>1577.366</ele>
        <time>2018-07-05T11:31:45Z</time>
      </trkpt>
      <trkpt lat="46.133063" lon="6.764370">
        <ele>1578.523</ele>
        <time>2018-07-05T11:31:52Z</time>
      </trkpt>
      <trkpt lat="46.133015" lon="6.764361">
        <ele>1579.579</ele>
        <time>2018-07-05T11:31:59Z</time>
      </trkpt>
      <trkpt lat="46.132970" lon="6.764336">
        <ele>1580.374</ele>
        <time>2018-07-05T11:32:06Z</time>
      </trkpt>
      <trkpt lat="46.132921" lon="6.764309">
        <ele>1581.079</ele>
        <time>2018-07-05T11:32:13Z</time>
      </trkpt>
      <trkpt lat="46.132874" lon="6.764307">
        <ele>1581.805</ele>
        <time>2018-07-05T11:32:19Z</time>
      </trkpt>
      <trkpt lat="46.132826" lon="6.764320">
        <ele>1582.925</ele>
        <time>2018-07-05T11:32:25Z</time>
      </trkpt>
      <trkpt lat="46.132781" lon="6.764328">
        <ele>1583.808</ele>
        <time>2018-07-05T11:32:30Z</time>
      </trkpt>
      <trkpt lat="46.132735" lon="6.764334">
        <ele>1584.889</ele>
        <time>2018-07-05T11:32:36Z</time>
      </trkpt>
      <trkpt lat="46.132688" lon="6.764333">
        <ele>1585.555</ele>
        <time>2018-07-05T11:32:43Z</time>
      </trkpt>
      <trkpt lat="46.132650" lon="6.764293">
        <ele>1585.397</ele>
        <time>2018-07-05T11:33:52Z</time>
      </trkpt>
      <trkpt lat="46.132600" lon="6.764285">
        <ele>1585.963</ele>
        <time>2018-07-05T11:33:58Z</time>
      </trkpt>
      <trkpt lat="46.132549" lon="6.764261">
        <ele>1586.065</ele>
        <time>2018-07-05T11:34:05Z</time>
      </trkpt>
      <trkpt lat="46.132505" lon="6.764243">
        <ele>1586.132</ele>
        <time>2018-07-05T11:34:12Z</time>
      </trkpt>
      <trkpt lat="46.132463" lon="6.764221">
        <ele>1586.578</ele>
        <time>2018-07-05T11:34:18Z</time>
      </trkpt>
      <trkpt lat="46.132412" lon="6.764212">
        <ele>1587.543</ele>
        <time>2018-07-05T11:34:25Z</time>
      </trkpt>
      <trkpt lat="46.132362" lon="6.764206">
        <ele>1588.577</ele>
        <time>2018-07-05T11:34:32Z</time>
      </trkpt>
      <trkpt lat="46.132309" lon="6.764219">
        <ele>1590.261</ele>
        <time>2018-07-05T11:34:39Z</time>
      </trkpt>
      <trkpt lat="46.132267" lon="6.764249">
        <ele>1592.027</ele>
        <time>2018-07-05T11:34:45Z</time>
      </trkpt>
      <trkpt lat="46.132223" lon="6.764292">
        <ele>1594.108</ele>
        <time>2018-07-05T11:34:51Z</time>
      </trkpt>
      <trkpt lat="46.132187" lon="6.764343">
        <ele>1596.249</ele>
        <time>2018-07-05T11:34:58Z</time>
      </trkpt>
      <trkpt lat="46.132151" lon="6.764388">
        <ele>1598.085</ele>
        <time>2018-07-05T11:35:04Z</time>
      </trkpt>
      <trkpt lat="46.132112" lon="6.764425">
        <ele>1599.657</ele>
        <time>2018-07-05T11:35:10Z</time>
      </trkpt>
      <trkpt lat="46.132057" lon="6.764433">
        <ele>1600.823</ele>
        <time>2018-07-05T11:35:17Z</time>
      </trkpt>
      <trkpt lat="46.132012" lon="6.764416">
        <ele>1601.315</ele>
        <time>2018-07-05T11:35:23Z</time>
      </trkpt>
      <trkpt lat="46.131981" lon="6.764361">
        <ele>1601.032</ele>
        <time>2018-07-05T11:35:30Z</time>
      </trkpt>
      <trkpt lat="46.131954" lon="6.764303">
        <ele>1600.738</ele>
        <time>2018-07-05T11:35:37Z</time>
      </trkpt>
      <trkpt lat="46.131934" lon="6.764245">
        <ele>1600.663</ele>
        <time>2018-07-05T11:35:42Z</time>
      </trkpt>
      <trkpt lat="46.131916" lon="6.764183">
        <ele>1600.665</ele>
        <time>2018-07-05T11:35:48Z</time>
      </trkpt>
      <trkpt lat="46.131889" lon="6.764126">
        <ele>1600.768</ele>
        <time>2018-07-05T11:35:54Z</time>
      </trkpt>
      <trkpt lat="46.131863" lon="6.764071">
        <ele>1600.814</ele>
        <time>2018-07-05T11:36:00Z</time>
      </trkpt>
      <trkpt lat="46.131821" lon="6.764021">
        <ele>1601.908</ele>
        <time>2018-07-05T11:36:07Z</time>
      </trkpt>
      <trkpt lat="46.131781" lon="6.763987">
        <ele>1603.158</ele>
        <time>2018-07-05T11:36:14Z</time>
      </trkpt>
      <trkpt lat="46.131737" lon="6.763957">
        <ele>1604.784</ele>
        <time>2018-07-05T11:36:21Z</time>
      </trkpt>
      <trkpt lat="46.131694" lon="6.763929">
        <ele>1606.476</ele>
        <time>2018-07-05T11:36:28Z</time>
      </trkpt>
      <trkpt lat="46.131644" lon="6.763906">
        <ele>1608.352</ele>
        <time>2018-07-05T11:36:36Z</time>
      </trkpt>
      <trkpt lat="46.131599" lon="6.763886">
        <ele>1609.974</ele>
        <time>2018-07-05T11:36:45Z</time>
      </trkpt>
      <trkpt lat="46.131550" lon="6.763881">
        <ele>1612.151</ele>
        <time>2018-07-05T11:36:52Z</time>
      </trkpt>
      <trkpt lat="46.131501" lon="6.763888">
        <ele>1614.247</ele>
        <time>2018-07-05T11:36:59Z</time>
      </trkpt>
      <trkpt lat="46.131452" lon="6.763874">
        <ele>1616.442</ele>
        <time>2018-07-05T11:37:05Z</time>
      </trkpt>
      <trkpt lat="46.131410" lon="6.763824">
        <ele>1618.849</ele>
        <time>2018-07-05T11:37:13Z</time>
      </trkpt>
      <trkpt lat="46.131436" lon="6.763761">
        <ele>1618.202</ele>
        <time>2018-07-05T11:37:26Z</time>
      </trkpt>
      <trkpt lat="46.131428" lon="6.763689">
        <ele>1619.322</ele>
        <time>2018-07-05T11:37:33Z</time>
      </trkpt>
      <trkpt lat="46.131436" lon="6.763624">
        <ele>1619.508</ele>
        <time>2018-07-05T11:37:39Z</time>
      </trkpt>
      <trkpt lat="46.131447" lon="6.763550">
        <ele>1619.246</ele>
        <time>2018-07-05T11:37:48Z</time>
      </trkpt>
      <trkpt lat="46.131447" lon="6.763470">
        <ele>1619.462</ele>
        <time>2018-07-05T11:37:54Z</time>
      </trkpt>
      <trkpt lat="46.131444" lon="6.763399">
        <ele>1619.734</ele>
        <time>2018-07-05T11:37:59Z</time>
      </trkpt>
      <trkpt lat="46.131427" lon="6.763325">
        <ele>1620.690</ele>
        <time>2018-07-05T11:38:04Z</time>
      </trkpt>
      <trkpt lat="46.131418" lon="6.763261">
        <ele>1621.942</ele>
        <time>2018-07-05T11:38:09Z</time>
      </trkpt>
      <trkpt lat="46.131406" lon="6.763188">
        <ele>1623.449</ele>
        <time>2018-07-05T11:38:15Z</time>
      </trkpt>
      <trkpt lat="46.131405" lon="6.763118">
        <ele>1624.415</ele>
        <time>2018-07-05T11:38:21Z</time>
      </trkpt>
      <trkpt lat="46.131401" lon="6.763046">
        <ele>1625.640</ele>
        <time>2018-07-05T11:38:28Z</time>
      </trkpt>
      <trkpt lat="46.131394" lon="6.762982">
        <ele>1627.171</ele>
        <time>2018-07-05T11:38:34Z</time>
      </trkpt>
      <trkpt lat="46.131385" lon="6.762918">
        <ele>1628.741</ele>
        <time>2018-07-05T11:38:40Z</time>
      </trkpt>
      <trkpt lat="46.131381" lon="6.762845">
        <ele>1630.315</ele>
        <time>2018-07-05T11:38:47Z</time>
      </trkpt>
      <trkpt lat="46.131383" lon="6.762775">
        <ele>1631.408</ele>
        <time>2018-07-05T11:38:53Z</time>
      </trkpt>
      <trkpt lat="46.131383" lon="6.762710">
        <ele>1632.349</ele>
        <time>2018-07-05T11:39:00Z</time>
      </trkpt>
      <trkpt lat="46.131377" lon="6.762635">
        <ele>1633.895</ele>
        <time>2018-07-05T11:39:08Z</time>
      </trkpt>
      <trkpt lat="46.131357" lon="6.762572">
        <ele>1636.157</ele>
        <time>2018-07-05T11:39:15Z</time>
      </trkpt>
      <trkpt lat="46.131343" lon="6.762508">
        <ele>1638.063</ele>
        <time>2018-07-05T11:39:23Z</time>
      </trkpt>
      <trkpt lat="46.131351" lon="6.762439">
        <ele>1638.855</ele>
        <time>2018-07-05T11:39:30Z</time>
      </trkpt>
      <trkpt lat="46.131367" lon="6.762371">
        <ele>1638.942</ele>
        <time>2018-07-05T11:39:38Z</time>
      </trkpt>
      <trkpt lat="46.131379" lon="6.762307">
        <ele>1639.298</ele>
        <time>2018-07-05T11:39:44Z</time>
      </trkpt>
      <trkpt lat="46.131406" lon="6.762245">
        <ele>1638.843</ele>
        <time>2018-07-05T11:39:51Z</time>
      </trkpt>
      <trkpt lat="46.131431" lon="6.762183">
        <ele>1640.166</ele>
        <time>2018-07-05T11:39:58Z</time>
      </trkpt>
      <trkpt lat="46.131453" lon="6.762115">
        <ele>1642.329</ele>
        <time>2018-07-05T11:40:05Z</time>
      </trkpt>
      <trkpt lat="46.131491" lon="6.762063">
        <ele>1642.821</ele>
        <time>2018-07-05T11:40:11Z</time>
      </trkpt>
      <trkpt lat="46.131535" lon="6.762020">
        <ele>1642.308</ele>
        <time>2018-07-05T11:40:17Z</time>
      </trkpt>
      <trkpt lat="46.131570" lon="6.761977">
        <ele>1642.248</ele>
        <time>2018-07-05T11:40:23Z</time>
      </trkpt>
      <trkpt lat="46.131609" lon="6.761933">
        <ele>1641.524</ele>
        <time>2018-07-05T11:40:29Z</time>
      </trkpt>
      <trkpt lat="46.131630" lon="6.761863">
        <ele>1641.176</ele>
        <time>2018-07-05T11:40:35Z</time>
      </trkpt>
      <trkpt lat="46.131644" lon="6.761799">
        <ele>1641.012</ele>
        <time>2018-07-05T11:40:42Z</time>
      </trkpt>
      <trkpt lat="46.131642" lon="6.761726">
        <ele>1642.024</ele>
        <time>2018-07-05T11:40:49Z</time>
      </trkpt>
      <trkpt lat="46.131627" lon="6.761659">
        <ele>1643.741</ele>
        <time>2018-07-05T11:40:55Z</time>
      </trkpt>
      <trkpt lat="46.131608" lon="6.761597">
        <ele>1644.467</ele>
        <time>2018-07-05T11:41:01Z</time>
      </trkpt>
      <trkpt lat="46.131592" lon="6.761535">
        <ele>1644.722</ele>
        <time>2018-07-05T11:41:08Z</time>
      </trkpt>
      <trkpt lat="46.131563" lon="6.761469">
        <ele>1645.539</ele>
        <time>2018-07-05T11:41:18Z</time>
      </trkpt>
      <trkpt lat="46.131544" lon="6.761410">
        <ele>1645.601</ele>
        <time>2018-07-05T11:41:25Z</time>
      </trkpt>
      <trkpt lat="46.131515" lon="6.761353">
        <ele>1646.921</ele>
        <time>2018-07-05T11:41:32Z</time>
      </trkpt>
      <trkpt lat="46.131493" lon="6.761288">
        <ele>1648.208</ele>
        <time>2018-07-05T11:41:39Z</time>
      </trkpt>
      <trkpt lat="46.131461" lon="6.761232">
        <ele>1649.545</ele>
        <time>2018-07-05T11:41:46Z</time>
      </trkpt>
      <trkpt lat="46.131437" lon="6.761173">
        <ele>1650.231</ele>
        <time>2018-07-05T11:41:53Z</time>
      </trkpt>
      <trkpt lat="46.131407" lon="6.761115">
        <ele>1650.793</ele>
        <time>2018-07-05T11:42:01Z</time>
      </trkpt>
      <trkpt lat="46.131365" lon="6.761065">
        <ele>1652.969</ele>
        <time>2018-07-05T11:42:09Z</time>
      </trkpt>
      <trkpt lat="46.131325" lon="6.761021">
        <ele>1655.051</ele>
        <time>2018-07-05T11:42:17Z</time>
      </trkpt>
      <trkpt lat="46.131280" lon="6.760995">
        <ele>1656.578</ele>
        <time>2018-07-05T11:42:24Z</time>
      </trkpt>
      <trkpt lat="46.131232" lon="6.760957">
        <ele>1658.124</ele>
        <time>2018-07-05T11:42:32Z</time>
      </trkpt>
      <trkpt lat="46.131187" lon="6.760922">
        <ele>1659.369</ele>
        <time>2018-07-05T11:42:39Z</time>
      </trkpt>
      <trkpt lat="46.131138" lon="6.760905">
        <ele>1660.162</ele>
        <time>2018-07-05T11:42:46Z</time>
      </trkpt>
      <trkpt lat="46.131085" lon="6.760914">
        <ele>1660.683</ele>
        <time>2018-07-05T11:42:53Z</time>
      </trkpt>
      <trkpt lat="46.131034" lon="6.760911">
        <ele>1660.811</ele>
        <time>2018-07-05T11:42:59Z</time>
      </trkpt>
      <trkpt lat="46.130987" lon="6.760906">
        <ele>1661.108</ele>
        <time>2018-07-05T11:43:05Z</time>
      </trkpt>
      <trkpt lat="46.130931" lon="6.760901">
        <ele>1661.568</ele>
        <time>2018-07-05T11:43:12Z</time>
      </trkpt>
      <trkpt lat="46.130877" lon="6.760907">
        <ele>1661.714</ele>
        <time>2018-07-05T11:43:18Z</time>
      </trkpt>
      <trkpt lat="46.130828" lon="6.760906">
        <ele>1662.016</ele>
        <time>2018-07-05T11:43:23Z</time>
      </trkpt>
      <trkpt lat="46.130773" lon="6.760894">
        <ele>1662.152</ele>
        <time>2018-07-05T11:43:28Z</time>
      </trkpt>
      <trkpt lat="46.130719" lon="6.760877">
        <ele>1662.494</ele>
        <time>2018-07-05T11:43:33Z</time>
      </trkpt>
      <trkpt lat="46.130671" lon="6.760870">
        <ele>1662.541</ele>
        <time>2018-07-05T11:43:38Z</time>
      </trkpt>
      <trkpt lat="46.130622" lon="6.760881">
        <ele>1662.327</ele>
        <time>2018-07-05T11:43:43Z</time>
      </trkpt>
      <trkpt lat="46.130570" lon="6.760899">
        <ele>1662.192</ele>
        <time>2018-07-05T11:43:48Z</time>
      </trkpt>
      <trkpt lat="46.130515" lon="6.760902">
        <ele>1662.065</ele>
        <time>2018-07-05T11:43:53Z</time>
      </trkpt>
      <trkpt lat="46.130464" lon="6.760920">
        <ele>1661.668</ele>
        <time>2018-07-05T11:43:58Z</time>
      </trkpt>
      <trkpt lat="46.130427" lon="6.760957">
        <ele>1661.014</ele>
        <time>2018-07-05T11:44:04Z</time>
      </trkpt>
      <trkpt lat="46.130417" lon="6.761021">
        <ele>1660.008</ele>
        <time>2018-07-05T11:45:03Z</time>
      </trkpt>
      <trkpt lat="46.130403" lon="6.761087">
        <ele>1658.898</ele>
        <time>2018-07-05T11:45:08Z</time>
      </trkpt>
      <trkpt lat="46.130377" lon="6.761149">
        <ele>1658.024</ele>
        <time>2018-07-05T11:45:14Z</time>
      </trkpt>
      <trkpt lat="46.130369" lon="6.761220">
        <ele>1657.376</ele>
        <time>2018-07-05T11:45:20Z</time>
      </trkpt>
      <trkpt lat="46.130375" lon="6.761294">
        <ele>1656.692</ele>
        <time>2018-07-05T11:45:25Z</time>
      </trkpt>
      <trkpt lat="46.130383" lon="6.761371">
        <ele>1656.124</ele>
        <time>2018-07-05T11:45:30Z</time>
      </trkpt>
      <trkpt lat="46.130397" lon="6.761435">
        <ele>1656.471</ele>
        <time>2018-07-05T11:45:34Z</time>
      </trkpt>
      <trkpt lat="46.130407" lon="6.761502">
        <ele>1657.017</ele>
        <time>2018-07-05T11:45:38Z</time>
      </trkpt>
      <trkpt lat="46.130401" lon="6.761574">
        <ele>1657.372</ele>
        <time>2018-07-05T11:45:42Z</time>
      </trkpt>
      <trkpt lat="46.130366" lon="6.761621">
        <ele>1657.064</ele>
        <time>2018-07-05T11:45:46Z</time>
      </trkpt>
      <trkpt lat="46.130325" lon="6.761652">
        <ele>1656.606</ele>
        <time>2018-07-05T11:45:50Z</time>
      </trkpt>
      <trkpt lat="46.130275" lon="6.761684">
        <ele>1656.116</ele>
        <time>2018-07-05T11:45:55Z</time>
      </trkpt>
      <trkpt lat="46.130225" lon="6.761711">
        <ele>1655.108</ele>
        <time>2018-07-05T11:46:00Z</time>
      </trkpt>
      <trkpt lat="46.130181" lon="6.761755">
        <ele>1654.358</ele>
        <time>2018-07-05T11:46:05Z</time>
      </trkpt>
      <trkpt lat="46.130160" lon="6.761824">
        <ele>1654.374</ele>
        <time>2018-07-05T11:46:10Z</time>
      </trkpt>
      <trkpt lat="46.130143" lon="6.761895">
        <ele>1654.326</ele>
        <time>2018-07-05T11:46:15Z</time>
      </trkpt>
      <trkpt lat="46.130125" lon="6.761954">
        <ele>1654.122</ele>
        <time>2018-07-05T11:46:20Z</time>
      </trkpt>
      <trkpt lat="46.130112" lon="6.762017">
        <ele>1653.824</ele>
        <time>2018-07-05T11:46:24Z</time>
      </trkpt>
      <trkpt lat="46.130105" lon="6.762096">
        <ele>1653.811</ele>
        <time>2018-07-05T11:46:29Z</time>
      </trkpt>
      <trkpt lat="46.130092" lon="6.762163">
        <ele>1653.577</ele>
        <time>2018-07-05T11:46:33Z</time>
      </trkpt>
      <trkpt lat="46.130077" lon="6.762228">
        <ele>1653.092</ele>
        <time>2018-07-05T11:46:37Z</time>
      </trkpt>
      <trkpt lat="46.130056" lon="6.762293">
        <ele>1652.213</ele>
        <time>2018-07-05T11:46:42Z</time>
      </trkpt>
      <trkpt lat="46.130031" lon="6.762350">
        <ele>1651.243</ele>
        <time>2018-07-05T11:46:47Z</time>
      </trkpt>
      <trkpt lat="46.129989" lon="6.762390">
        <ele>1649.807</ele>
        <time>2018-07-05T11:46:53Z</time>
      </trkpt>
      <trkpt lat="46.129974" lon="6.762460">
        <ele>1649.508</ele>
        <time>2018-07-05T11:46:58Z</time>
      </trkpt>
      <trkpt lat="46.129966" lon="6.762526">
        <ele>1649.373</ele>
        <time>2018-07-05T11:47:02Z</time>
      </trkpt>
      <trkpt lat="46.129961" lon="6.762594">
        <ele>1649.129</ele>
        <time>2018-07-05T11:47:06Z</time>
      </trkpt>
      <trkpt lat="46.129960" lon="6.762665">
        <ele>1648.971</ele>
        <time>2018-07-05T11:47:10Z</time>
      </trkpt>
      <trkpt lat="46.129962" lon="6.762733">
        <ele>1648.897</ele>
        <time>2018-07-05T11:47:14Z</time>
      </trkpt>
      <trkpt lat="46.129966" lon="6.762809">
        <ele>1649.099</ele>
        <time>2018-07-05T11:47:19Z</time>
      </trkpt>
      <trkpt lat="46.129989" lon="6.762869">
        <ele>1649.676</ele>
        <time>2018-07-05T11:47:24Z</time>
      </trkpt>
      <trkpt lat="46.129982" lon="6.762935">
        <ele>1650.152</ele>
        <time>2018-07-05T11:47:31Z</time>
      </trkpt>
      <trkpt lat="46.129938" lon="6.762960">
        <ele>1650.267</ele>
        <time>2018-07-05T11:47:41Z</time>
      </trkpt>
      <trkpt lat="46.129895" lon="6.762915">
        <ele>1649.655</ele>
        <time>2018-07-05T11:56:33Z</time>
      </trkpt>
      <trkpt lat="46.129937" lon="6.762891">
        <ele>1649.507</ele>
        <time>2018-07-05T11:56:43Z</time>
      </trkpt>
      <trkpt lat="46.129948" lon="6.762818">
        <ele>1649.017</ele>
        <time>2018-07-05T11:56:56Z</time>
      </trkpt>
      <trkpt lat="46.129938" lon="6.762743">
        <ele>1648.608</ele>
        <time>2018-07-05T11:57:01Z</time>
      </trkpt>
      <trkpt lat="46.129927" lon="6.762665">
        <ele>1648.687</ele>
        <time>2018-07-05T11:57:06Z</time>
      </trkpt>
      <trkpt lat="46.129935" lon="6.762593">
        <ele>1648.783</ele>
        <time>2018-07-05T11:57:11Z</time>
      </trkpt>
      <trkpt lat="46.129947" lon="6.762530">
        <ele>1649.035</ele>
        <time>2018-07-05T11:57:15Z</time>
      </trkpt>
      <trkpt lat="46.129977" lon="6.762473">
        <ele>1649.631</ele>
        <time>2018-07-05T11:57:20Z</time>
      </trkpt>
      <trkpt lat="46.129996" lon="6.762413">
        <ele>1649.913</ele>
        <time>2018-07-05T11:57:26Z</time>
      </trkpt>
      <trkpt lat="46.130017" lon="6.762344">
        <ele>1650.620</ele>
        <time>2018-07-05T11:57:32Z</time>
      </trkpt>
      <trkpt lat="46.130040" lon="6.762277">
        <ele>1651.696</ele>
        <time>2018-07-05T11:57:39Z</time>
      </trkpt>
      <trkpt lat="46.130058" lon="6.762207">
        <ele>1652.361</ele>
        <time>2018-07-05T11:57:44Z</time>
      </trkpt>
      <trkpt lat="46.130074" lon="6.762133">
        <ele>1652.847</ele>
        <time>2018-07-05T11:57:50Z</time>
      </trkpt>
      <trkpt lat="46.130080" lon="6.762060">
        <ele>1652.829</ele>
        <time>2018-07-05T11:57:55Z</time>
      </trkpt>
      <trkpt lat="46.130094" lon="6.761990">
        <ele>1653.221</ele>
        <time>2018-07-05T11:58:00Z</time>
      </trkpt>
      <trkpt lat="46.130094" lon="6.761919">
        <ele>1652.908</ele>
        <time>2018-07-05T11:58:05Z</time>
      </trkpt>
      <trkpt lat="46.130098" lon="6.761842">
        <ele>1652.576</ele>
        <time>2018-07-05T11:58:11Z</time>
      </trkpt>
      <trkpt lat="46.130113" lon="6.761767">
        <ele>1652.552</ele>
        <time>2018-07-05T11:58:17Z</time>
      </trkpt>
      <trkpt lat="46.130152" lon="6.761725">
        <ele>1653.344</ele>
        <time>2018-07-05T11:58:22Z</time>
      </trkpt>
      <trkpt lat="46.130207" lon="6.761706">
        <ele>1654.630</ele>
        <time>2018-07-05T11:58:27Z</time>
      </trkpt>
      <trkpt lat="46.130253" lon="6.761698">
        <ele>1655.732</ele>
        <time>2018-07-05T11:58:31Z</time>
      </trkpt>
      <trkpt lat="46.130307" lon="6.761681">
        <ele>1656.649</ele>
        <time>2018-07-05T11:58:36Z</time>
      </trkpt>
      <trkpt lat="46.130354" lon="6.761644">
        <ele>1657.015</ele>
        <time>2018-07-05T11:58:41Z</time>
      </trkpt>
      <trkpt lat="46.130385" lon="6.761582">
        <ele>1657.160</ele>
        <time>2018-07-05T11:58:46Z</time>
      </trkpt>
      <trkpt lat="46.130381" lon="6.761503">
        <ele>1656.552</ele>
        <time>2018-07-05T11:58:51Z</time>
      </trkpt>
      <trkpt lat="46.130373" lon="6.761438">
        <ele>1656.053</ele>
        <time>2018-07-05T11:58:55Z</time>
      </trkpt>
      <trkpt lat="46.130370" lon="6.761364">
        <ele>1655.908</ele>
        <time>2018-07-05T11:59:00Z</time>
      </trkpt>
      <trkpt lat="46.130356" lon="6.761294">
        <ele>1656.408</ele>
        <time>2018-07-05T11:59:07Z</time>
      </trkpt>
      <trkpt lat="46.130352" lon="6.761224">
        <ele>1657.137</ele>
        <time>2018-07-05T11:59:13Z</time>
      </trkpt>
      <trkpt lat="46.130355" lon="6.761156">
        <ele>1657.813</ele>
        <time>2018-07-05T11:59:19Z</time>
      </trkpt>
      <trkpt lat="46.130386" lon="6.761096">
        <ele>1658.665</ele>
        <time>2018-07-05T11:59:26Z</time>
      </trkpt>
      <trkpt lat="46.130402" lon="6.761022">
        <ele>1659.951</ele>
        <time>2018-07-05T11:59:44Z</time>
      </trkpt>
      <trkpt lat="46.130362" lon="6.760986">
        <ele>1660.433</ele>
        <time>2018-07-05T11:59:53Z</time>
      </trkpt>
      <trkpt lat="46.130313" lon="6.760996">
        <ele>1660.160</ele>
        <time>2018-07-05T11:59:59Z</time>
      </trkpt>
      <trkpt lat="46.130267" lon="6.760996">
        <ele>1660.096</ele>
        <time>2018-07-05T12:00:05Z</time>
      </trkpt>
      <trkpt lat="46.130228" lon="6.760952">
        <ele>1660.471</ele>
        <time>2018-07-05T12:00:11Z</time>
      </trkpt>
      <trkpt lat="46.130180" lon="6.760966">
        <ele>1659.726</ele>
        <time>2018-07-05T12:00:15Z</time>
      </trkpt>
      <trkpt lat="46.130136" lon="6.761030">
        <ele>1658.147</ele>
        <time>2018-07-05T12:00:26Z</time>
      </trkpt>
      <trkpt lat="46.130090" lon="6.761019">
        <ele>1657.911</ele>
        <time>2018-07-05T12:00:31Z</time>
      </trkpt>
      <trkpt lat="46.130042" lon="6.760976">
        <ele>1658.308</ele>
        <time>2018-07-05T12:00:36Z</time>
      </trkpt>
      <trkpt lat="46.129917" lon="6.761013">
        <ele>1656.354</ele>
        <time>2018-07-05T12:00:51Z</time>
      </trkpt>
      <trkpt lat="46.129876" lon="6.760962">
        <ele>1656.820</ele>
        <time>2018-07-05T12:00:54Z</time>
      </trkpt>
      <trkpt lat="46.129833" lon="6.760932">
        <ele>1656.962</ele>
        <time>2018-07-05T12:00:57Z</time>
      </trkpt>
      <trkpt lat="46.129787" lon="6.760912">
        <ele>1656.748</ele>
        <time>2018-07-05T12:01:00Z</time>
      </trkpt>
      <trkpt lat="46.129731" lon="6.760896">
        <ele>1656.210</ele>
        <time>2018-07-05T12:01:04Z</time>
      </trkpt>
      <trkpt lat="46.129680" lon="6.760883">
        <ele>1655.547</ele>
        <time>2018-07-05T12:01:08Z</time>
      </trkpt>
      <trkpt lat="46.129629" lon="6.760865">
        <ele>1654.973</ele>
        <time>2018-07-05T12:01:12Z</time>
      </trkpt>
      <trkpt lat="46.129574" lon="6.760867">
        <ele>1653.898</ele>
        <time>2018-07-05T12:01:18Z</time>
      </trkpt>
      <trkpt lat="46.129518" lon="6.760856">
        <ele>1653.082</ele>
        <time>2018-07-05T12:01:23Z</time>
      </trkpt>
      <trkpt lat="46.129466" lon="6.760828">
        <ele>1652.443</ele>
        <time>2018-07-05T12:01:28Z</time>
      </trkpt>
      <trkpt lat="46.129416" lon="6.760799">
        <ele>1651.617</ele>
        <time>2018-07-05T12:01:33Z</time>
      </trkpt>
      <trkpt lat="46.129367" lon="6.760780">
        <ele>1650.608</ele>
        <time>2018-07-05T12:01:38Z</time>
      </trkpt>
      <trkpt lat="46.129317" lon="6.760760">
        <ele>1649.590</ele>
        <time>2018-07-05T12:01:49Z</time>
      </trkpt>
      <trkpt lat="46.129270" lon="6.760720">
        <ele>1648.616</ele>
        <time>2018-07-05T12:01:56Z</time>
      </trkpt>
      <trkpt lat="46.129232" lon="6.760676">
        <ele>1647.988</ele>
        <time>2018-07-05T12:02:00Z</time>
      </trkpt>
      <trkpt lat="46.129187" lon="6.760636">
        <ele>1647.094</ele>
        <time>2018-07-05T12:02:04Z</time>
      </trkpt>
      <trkpt lat="46.129150" lon="6.760587">
        <ele>1646.556</ele>
        <time>2018-07-05T12:02:08Z</time>
      </trkpt>
      <trkpt lat="46.129117" lon="6.760538">
        <ele>1646.353</ele>
        <time>2018-07-05T12:02:12Z</time>
      </trkpt>
      <trkpt lat="46.129079" lon="6.760497">
        <ele>1646.149</ele>
        <time>2018-07-05T12:02:16Z</time>
      </trkpt>
      <trkpt lat="46.129038" lon="6.760457">
        <ele>1645.894</ele>
        <time>2018-07-05T12:02:20Z</time>
      </trkpt>
      <trkpt lat="46.129000" lon="6.760417">
        <ele>1645.477</ele>
        <time>2018-07-05T12:02:24Z</time>
      </trkpt>
      <trkpt lat="46.128957" lon="6.760375">
        <ele>1644.861</ele>
        <time>2018-07-05T12:02:28Z</time>
      </trkpt>
      <trkpt lat="46.128923" lon="6.760330">
        <ele>1644.427</ele>
        <time>2018-07-05T12:02:32Z</time>
      </trkpt>
      <trkpt lat="46.128895" lon="6.760274">
        <ele>1644.208</ele>
        <time>2018-07-05T12:02:36Z</time>
      </trkpt>
      <trkpt lat="46.128867" lon="6.760219">
        <ele>1643.999</ele>
        <time>2018-07-05T12:02:40Z</time>
      </trkpt>
      <trkpt lat="46.128839" lon="6.760163">
        <ele>1643.645</ele>
        <time>2018-07-05T12:02:44Z</time>
      </trkpt>
      <trkpt lat="46.128807" lon="6.760106">
        <ele>1643.447</ele>
        <time>2018-07-05T12:02:48Z</time>
      </trkpt>
      <trkpt lat="46.128771" lon="6.760053">
        <ele>1643.063</ele>
        <time>2018-07-05T12:02:52Z</time>
      </trkpt>
      <trkpt lat="46.128728" lon="6.760015">
        <ele>1642.435</ele>
        <time>2018-07-05T12:02:56Z</time>
      </trkpt>
      <trkpt lat="46.128688" lon="6.759970">
        <ele>1642.062</ele>
        <time>2018-07-05T12:03:00Z</time>
      </trkpt>
      <trkpt lat="46.128644" lon="6.759932">
        <ele>1641.518</ele>
        <time>2018-07-05T12:03:04Z</time>
      </trkpt>
      <trkpt lat="46.128604" lon="6.759889">
        <ele>1641.053</ele>
        <time>2018-07-05T12:03:08Z</time>
      </trkpt>
      <trkpt lat="46.128560" lon="6.759857">
        <ele>1640.128</ele>
        <time>2018-07-05T12:03:12Z</time>
      </trkpt>
      <trkpt lat="46.128512" lon="6.759819">
        <ele>1639.289</ele>
        <time>2018-07-05T12:03:16Z</time>
      </trkpt>
      <trkpt lat="46.128468" lon="6.759784">
        <ele>1638.517</ele>
        <time>2018-07-05T12:03:20Z</time>
      </trkpt>
      <trkpt lat="46.128420" lon="6.759748">
        <ele>1637.808</ele>
        <time>2018-07-05T12:03:24Z</time>
      </trkpt>
      <trkpt lat="46.128376" lon="6.759712">
        <ele>1637.224</ele>
        <time>2018-07-05T12:03:28Z</time>
      </trkpt>
      <trkpt lat="46.128332" lon="6.759680">
        <ele>1636.670</ele>
        <time>2018-07-05T12:03:32Z</time>
      </trkpt>
      <trkpt lat="46.128289" lon="6.759654">
        <ele>1635.452</ele>
        <time>2018-07-05T12:03:36Z</time>
      </trkpt>
      <trkpt lat="46.128245" lon="6.759628">
        <ele>1634.278</ele>
        <time>2018-07-05T12:03:40Z</time>
      </trkpt>
      <trkpt lat="46.128191" lon="6.759604">
        <ele>1632.650</ele>
        <time>2018-07-05T12:03:45Z</time>
      </trkpt>
      <trkpt lat="46.128143" lon="6.759579">
        <ele>1631.297</ele>
        <time>2018-07-05T12:03:49Z</time>
      </trkpt>
      <trkpt lat="46.128100" lon="6.759549">
        <ele>1630.163</ele>
        <time>2018-07-05T12:03:53Z</time>
      </trkpt>
      <trkpt lat="46.128056" lon="6.759518">
        <ele>1629.088</ele>
        <time>2018-07-05T12:03:57Z</time>
      </trkpt>
      <trkpt lat="46.128012" lon="6.759478">
        <ele>1628.191</ele>
        <time>2018-07-05T12:04:01Z</time>
      </trkpt>
      <trkpt lat="46.127970" lon="6.759442">
        <ele>1627.381</ele>
        <time>2018-07-05T12:04:05Z</time>
      </trkpt>
      <trkpt lat="46.127928" lon="6.759402">
        <ele>1626.519</ele>
        <time>2018-07-05T12:04:09Z</time>
      </trkpt>
      <trkpt lat="46.127897" lon="6.759349">
        <ele>1626.208</ele>
        <time>2018-07-05T12:04:13Z</time>
      </trkpt>
      <trkpt lat="46.127874" lon="6.759289">
        <ele>1626.251</ele>
        <time>2018-07-05T12:04:17Z</time>
      </trkpt>
      <trkpt lat="46.127855" lon="6.759227">
        <ele>1626.337</ele>
        <time>2018-07-05T12:04:21Z</time>
      </trkpt>
      <trkpt lat="46.127837" lon="6.759160">
        <ele>1626.499</ele>
        <time>2018-07-05T12:04:24Z</time>
      </trkpt>
      <trkpt lat="46.127818" lon="6.759094">
        <ele>1626.695</ele>
        <time>2018-07-05T12:04:28Z</time>
      </trkpt>
      <trkpt lat="46.127804" lon="6.759022">
        <ele>1627.117</ele>
        <time>2018-07-05T12:04:32Z</time>
      </trkpt>
      <trkpt lat="46.127793" lon="6.758951">
        <ele>1627.744</ele>
        <time>2018-07-05T12:04:38Z</time>
      </trkpt>
      <trkpt lat="46.127779" lon="6.758872">
        <ele>1628.240</ele>
        <time>2018-07-05T12:04:42Z</time>
      </trkpt>
      <trkpt lat="46.127765" lon="6.758801">
        <ele>1628.425</ele>
        <time>2018-07-05T12:04:46Z</time>
      </trkpt>
      <trkpt lat="46.127736" lon="6.758750">
        <ele>1627.862</ele>
        <time>2018-07-05T12:04:51Z</time>
      </trkpt>
      <trkpt lat="46.127704" lon="6.758703">
        <ele>1627.083</ele>
        <time>2018-07-05T12:04:55Z</time>
      </trkpt>
      <trkpt lat="46.127661" lon="6.758730">
        <ele>1624.911</ele>
        <time>2018-07-05T12:05:05Z</time>
      </trkpt>
      <trkpt lat="46.127611" lon="6.758697">
        <ele>1623.308</ele>
        <time>2018-07-05T12:05:10Z</time>
      </trkpt>
      <trkpt lat="46.127566" lon="6.758674">
        <ele>1621.888</ele>
        <time>2018-07-05T12:05:15Z</time>
      </trkpt>
      <trkpt lat="46.127520" lon="6.758639">
        <ele>1620.464</ele>
        <time>2018-07-05T12:05:22Z</time>
      </trkpt>
      <trkpt lat="46.127508" lon="6.758575">
        <ele>1620.766</ele>
        <time>2018-07-05T12:05:26Z</time>
      </trkpt>
      <trkpt lat="46.127469" lon="6.758541">
        <ele>1619.832</ele>
        <time>2018-07-05T12:05:31Z</time>
      </trkpt>
      <trkpt lat="46.127423" lon="6.758504">
        <ele>1618.764</ele>
        <time>2018-07-05T12:05:36Z</time>
      </trkpt>
      <trkpt lat="46.127384" lon="6.758463">
        <ele>1617.811</ele>
        <time>2018-07-05T12:05:40Z</time>
      </trkpt>
      <trkpt lat="46.127340" lon="6.758413">
        <ele>1617.087</ele>
        <time>2018-07-05T12:05:45Z</time>
      </trkpt>
      <trkpt lat="46.127308" lon="6.758368">
        <ele>1616.412</ele>
        <time>2018-07-05T12:05:49Z</time>
      </trkpt>
      <trkpt lat="46.127266" lon="6.758322">
        <ele>1615.595</ele>
        <time>2018-07-05T12:05:54Z</time>
      </trkpt>
      <trkpt lat="46.127224" lon="6.758276">
        <ele>1614.749</ele>
        <time>2018-07-05T12:05:59Z</time>
      </trkpt>
      <trkpt lat="46.127177" lon="6.758234">
        <ele>1614.223</ele>
        <time>2018-07-05T12:06:04Z</time>
      </trkpt>
      <trkpt lat="46.127139" lon="6.758193">
        <ele>1613.908</ele>
        <time>2018-07-05T12:06:08Z</time>
      </trkpt>
      <trkpt lat="46.127094" lon="6.758153">
        <ele>1613.591</ele>
        <time>2018-07-05T12:06:12Z</time>
      </trkpt>
      <trkpt lat="46.127053" lon="6.758110">
        <ele>1613.277</ele>
        <time>2018-07-05T12:06:16Z</time>
      </trkpt>
      <trkpt lat="46.127012" lon="6.758073">
        <ele>1613.049</ele>
        <time>2018-07-05T12:06:20Z</time>
      </trkpt>
      <trkpt lat="46.126969" lon="6.758034">
        <ele>1612.635</ele>
        <time>2018-07-05T12:06:24Z</time>
      </trkpt>
      <trkpt lat="46.126925" lon="6.758003">
        <ele>1611.867</ele>
        <time>2018-07-05T12:06:28Z</time>
      </trkpt>
      <trkpt lat="46.126881" lon="6.757971">
        <ele>1610.734</ele>
        <time>2018-07-05T12:06:32Z</time>
      </trkpt>
      <trkpt lat="46.126837" lon="6.757930">
        <ele>1609.810</ele>
        <time>2018-07-05T12:06:36Z</time>
      </trkpt>
      <trkpt lat="46.126792" lon="6.757906">
        <ele>1608.785</ele>
        <time>2018-07-05T12:06:40Z</time>
      </trkpt>
      <trkpt lat="46.126742" lon="6.757886">
        <ele>1607.634</ele>
        <time>2018-07-05T12:06:44Z</time>
      </trkpt>
      <trkpt lat="46.126695" lon="6.757866">
        <ele>1606.555</ele>
        <time>2018-07-05T12:06:48Z</time>
      </trkpt>
      <trkpt lat="46.126651" lon="6.757835">
        <ele>1605.510</ele>
        <time>2018-07-05T12:06:53Z</time>
      </trkpt>
      <trkpt lat="46.126607" lon="6.757807">
        <ele>1604.008</ele>
        <time>2018-07-05T12:06:57Z</time>
      </trkpt>
      <trkpt lat="46.126558" lon="6.757767">
        <ele>1602.475</ele>
        <time>2018-07-05T12:07:02Z</time>
      </trkpt>
      <trkpt lat="46.126517" lon="6.757735">
        <ele>1601.061</ele>
        <time>2018-07-05T12:07:06Z</time>
      </trkpt>
      <trkpt lat="46.126463" lon="6.757709">
        <ele>1598.923</ele>
        <time>2018-07-05T12:07:11Z</time>
      </trkpt>
      <trkpt lat="46.126427" lon="6.757670">
        <ele>1597.849</ele>
        <time>2018-07-05T12:07:15Z</time>
      </trkpt>
      <trkpt lat="46.126398" lon="6.757603">
        <ele>1597.371</ele>
        <time>2018-07-05T12:07:20Z</time>
      </trkpt>
      <trkpt lat="46.126398" lon="6.757532">
        <ele>1598.018</ele>
        <time>2018-07-05T12:07:25Z</time>
      </trkpt>
      <trkpt lat="46.126398" lon="6.757458">
        <ele>1598.414</ele>
        <time>2018-07-05T12:07:30Z</time>
      </trkpt>
      <trkpt lat="46.126396" lon="6.757379">
        <ele>1598.399</ele>
        <time>2018-07-05T12:07:34Z</time>
      </trkpt>
      <trkpt lat="46.126381" lon="6.757316">
        <ele>1597.637</ele>
        <time>2018-07-05T12:07:37Z</time>
      </trkpt>
      <trkpt lat="46.126359" lon="6.757238">
        <ele>1596.649</ele>
        <time>2018-07-05T12:07:41Z</time>
      </trkpt>
      <trkpt lat="46.126333" lon="6.757174">
        <ele>1595.613</ele>
        <time>2018-07-05T12:07:45Z</time>
      </trkpt>
      <trkpt lat="46.126303" lon="6.757119">
        <ele>1594.608</ele>
        <time>2018-07-05T12:07:51Z</time>
      </trkpt>
      <trkpt lat="46.126278" lon="6.757060">
        <ele>1593.995</ele>
        <time>2018-07-05T12:07:56Z</time>
      </trkpt>
      <trkpt lat="46.126253" lon="6.757004">
        <ele>1593.211</ele>
        <time>2018-07-05T12:08:01Z</time>
      </trkpt>
      <trkpt lat="46.126234" lon="6.756945">
        <ele>1592.933</ele>
        <time>2018-07-05T12:08:06Z</time>
      </trkpt>
      <trkpt lat="46.126212" lon="6.756877">
        <ele>1592.539</ele>
        <time>2018-07-05T12:08:12Z</time>
      </trkpt>
      <trkpt lat="46.126178" lon="6.756813">
        <ele>1591.661</ele>
        <time>2018-07-05T12:08:18Z</time>
      </trkpt>
      <trkpt lat="46.126147" lon="6.756752">
        <ele>1590.818</ele>
        <time>2018-07-05T12:08:24Z</time>
      </trkpt>
      <trkpt lat="46.126117" lon="6.756692">
        <ele>1590.174</ele>
        <time>2018-07-05T12:08:29Z</time>
      </trkpt>
      <trkpt lat="46.126086" lon="6.756625">
        <ele>1589.239</ele>
        <time>2018-07-05T12:08:34Z</time>
      </trkpt>
      <trkpt lat="46.126057" lon="6.756567">
        <ele>1588.494</ele>
        <time>2018-07-05T12:08:39Z</time>
      </trkpt>
      <trkpt lat="46.126023" lon="6.756502">
        <ele>1587.457</ele>
        <time>2018-07-05T12:08:44Z</time>
      </trkpt>
      <trkpt lat="46.125995" lon="6.756450">
        <ele>1586.522</ele>
        <time>2018-07-05T12:08:48Z</time>
      </trkpt>
      <trkpt lat="46.125963" lon="6.756385">
        <ele>1585.608</ele>
        <time>2018-07-05T12:08:53Z</time>
      </trkpt>
      <trkpt lat="46.125939" lon="6.756330">
        <ele>1585.061</ele>
        <time>2018-07-05T12:08:57Z</time>
      </trkpt>
      <trkpt lat="46.125919" lon="6.756270">
        <ele>1584.677</ele>
        <time>2018-07-05T12:09:01Z</time>
      </trkpt>
      <trkpt lat="46.125901" lon="6.756196">
        <ele>1584.339</ele>
        <time>2018-07-05T12:09:06Z</time>
      </trkpt>
      <trkpt lat="46.125883" lon="6.756133">
        <ele>1584.025</ele>
        <time>2018-07-05T12:09:10Z</time>
      </trkpt>
      <trkpt lat="46.125859" lon="6.756065">
        <ele>1583.647</ele>
        <time>2018-07-05T12:09:15Z</time>
      </trkpt>
      <trkpt lat="46.125833" lon="6.756008">
        <ele>1583.144</ele>
        <time>2018-07-05T12:09:19Z</time>
      </trkpt>
      <trkpt lat="46.125808" lon="6.755952">
        <ele>1582.650</ele>
        <time>2018-07-05T12:09:23Z</time>
      </trkpt>
      <trkpt lat="46.125776" lon="6.755901">
        <ele>1581.615</ele>
        <time>2018-07-05T12:09:28Z</time>
      </trkpt>
      <trkpt lat="46.125737" lon="6.755847">
        <ele>1580.444</ele>
        <time>2018-07-05T12:09:33Z</time>
      </trkpt>
      <trkpt lat="46.125703" lon="6.755803">
        <ele>1579.305</ele>
        <time>2018-07-05T12:09:37Z</time>
      </trkpt>
      <trkpt lat="46.125663" lon="6.755767">
        <ele>1578.015</ele>
        <time>2018-07-05T12:09:41Z</time>
      </trkpt>
      <trkpt lat="46.125623" lon="6.755736">
        <ele>1576.608</ele>
        <time>2018-07-05T12:09:45Z</time>
      </trkpt>
      <trkpt lat="46.125581" lon="6.755705">
        <ele>1575.096</ele>
        <time>2018-07-05T12:09:49Z</time>
      </trkpt>
      <trkpt lat="46.125536" lon="6.755662">
        <ele>1573.762</ele>
        <time>2018-07-05T12:09:54Z</time>
      </trkpt>
      <trkpt lat="46.125489" lon="6.755620">
        <ele>1572.554</ele>
        <time>2018-07-05T12:09:59Z</time>
      </trkpt>
      <trkpt lat="46.125442" lon="6.755578">
        <ele>1571.260</ele>
        <time>2018-07-05T12:10:04Z</time>
      </trkpt>
      <trkpt lat="46.125397" lon="6.755545">
        <ele>1569.932</ele>
        <time>2018-07-05T12:10:09Z</time>
      </trkpt>
      <trkpt lat="46.125351" lon="6.755504">
        <ele>1568.779</ele>
        <time>2018-07-05T12:10:14Z</time>
      </trkpt>
      <trkpt lat="46.125305" lon="6.755474">
        <ele>1567.395</ele>
        <time>2018-07-05T12:10:20Z</time>
      </trkpt>
      <trkpt lat="46.125261" lon="6.755438">
        <ele>1566.180</ele>
        <time>2018-07-05T12:10:26Z</time>
      </trkpt>
      <trkpt lat="46.125218" lon="6.755391">
        <ele>1565.247</ele>
        <time>2018-07-05T12:10:31Z</time>
      </trkpt>
      <trkpt lat="46.125179" lon="6.755343">
        <ele>1564.529</ele>
        <time>2018-07-05T12:10:36Z</time>
      </trkpt>
      <trkpt lat="46.125137" lon="6.755295">
        <ele>1563.721</ele>
        <time>2018-07-05T12:10:41Z</time>
      </trkpt>
      <trkpt lat="46.125092" lon="6.755259">
        <ele>1562.608</ele>
        <time>2018-07-05T12:10:46Z</time>
      </trkpt>
      <trkpt lat="46.125043" lon="6.755222">
        <ele>1561.436</ele>
        <time>2018-07-05T12:10:51Z</time>
      </trkpt>
      <trkpt lat="46.125001" lon="6.755191">
        <ele>1560.312</ele>
        <time>2018-07-05T12:10:56Z</time>
      </trkpt>
      <trkpt lat="46.124956" lon="6.755152">
        <ele>1559.344</ele>
        <time>2018-07-05T12:11:01Z</time>
      </trkpt>
      <trkpt lat="46.124907" lon="6.755131">
        <ele>1557.920</ele>
        <time>2018-07-05T12:11:06Z</time>
      </trkpt>
      <trkpt lat="46.124866" lon="6.755079">
        <ele>1557.262</ele>
        <time>2018-07-05T12:11:11Z</time>
      </trkpt>
      <trkpt lat="46.124831" lon="6.755029">
        <ele>1556.639</ele>
        <time>2018-07-05T12:11:16Z</time>
      </trkpt>
      <trkpt lat="46.124790" lon="6.754985">
        <ele>1555.765</ele>
        <time>2018-07-05T12:11:22Z</time>
      </trkpt>
      <trkpt lat="46.124748" lon="6.754937">
        <ele>1554.990</ele>
        <time>2018-07-05T12:11:27Z</time>
      </trkpt>
      <trkpt lat="46.124706" lon="6.754890">
        <ele>1554.098</ele>
        <time>2018-07-05T12:11:32Z</time>
      </trkpt>
      <trkpt lat="46.124662" lon="6.754838">
        <ele>1553.015</ele>
        <time>2018-07-05T12:11:37Z</time>
      </trkpt>
      <trkpt lat="46.124624" lon="6.754794">
        <ele>1552.226</ele>
        <time>2018-07-05T12:11:41Z</time>
      </trkpt>
      <trkpt lat="46.124587" lon="6.754753">
        <ele>1551.308</ele>
        <time>2018-07-05T12:11:45Z</time>
      </trkpt>
      <trkpt lat="46.124539" lon="6.754724">
        <ele>1549.711</ele>
        <time>2018-07-05T12:11:51Z</time>
      </trkpt>
      <trkpt lat="46.124488" lon="6.754697">
        <ele>1548.387</ele>
        <time>2018-07-05T12:11:56Z</time>
      </trkpt>
      <trkpt lat="46.124437" lon="6.754667">
        <ele>1546.939</ele>
        <time>2018-07-05T12:12:01Z</time>
      </trkpt>
      <trkpt lat="46.124394" lon="6.754630">
        <ele>1546.315</ele>
        <time>2018-07-05T12:12:06Z</time>
      </trkpt>
      <trkpt lat="46.124354" lon="6.754597">
        <ele>1545.677</ele>
        <time>2018-07-05T12:12:10Z</time>
      </trkpt>
      <trkpt lat="46.124307" lon="6.754564">
        <ele>1544.714</ele>
        <time>2018-07-05T12:12:15Z</time>
      </trkpt>
      <trkpt lat="46.124255" lon="6.754531">
        <ele>1543.550</ele>
        <time>2018-07-05T12:12:20Z</time>
      </trkpt>
      <trkpt lat="46.124216" lon="6.754497">
        <ele>1542.885</ele>
        <time>2018-07-05T12:12:24Z</time>
      </trkpt>
      <trkpt lat="46.124175" lon="6.754458">
        <ele>1542.178</ele>
        <time>2018-07-05T12:12:28Z</time>
      </trkpt>
      <trkpt lat="46.124134" lon="6.754430">
        <ele>1541.533</ele>
        <time>2018-07-05T12:12:32Z</time>
      </trkpt>
      <trkpt lat="46.124087" lon="6.754403">
        <ele>1540.926</ele>
        <time>2018-07-05T12:12:37Z</time>
      </trkpt>
      <trkpt lat="46.124043" lon="6.754378">
        <ele>1540.208</ele>
        <time>2018-07-05T12:12:41Z</time>
      </trkpt>
      <trkpt lat="46.124000" lon="6.754347">
        <ele>1539.639</ele>
        <time>2018-07-05T12:12:45Z</time>
      </trkpt>
      <trkpt lat="46.123957" lon="6.754308">
        <ele>1539.025</ele>
        <time>2018-07-05T12:12:49Z</time>
      </trkpt>
      <trkpt lat="46.123904" lon="6.754277">
        <ele>1537.927</ele>
        <time>2018-07-05T12:12:53Z</time>
      </trkpt>
      <trkpt lat="46.123858" lon="6.754242">
        <ele>1537.043</ele>
        <time>2018-07-05T12:12:57Z</time>
      </trkpt>
      <trkpt lat="46.123809" lon="6.754202">
        <ele>1536.235</ele>
        <time>2018-07-05T12:13:02Z</time>
      </trkpt>
      <trkpt lat="46.123765" lon="6.754166">
        <ele>1535.492</ele>
        <time>2018-07-05T12:13:06Z</time>
      </trkpt>
      <trkpt lat="46.123724" lon="6.754111">
        <ele>1535.488</ele>
        <time>2018-07-05T12:13:11Z</time>
      </trkpt>
      <trkpt lat="46.123681" lon="6.754068">
        <ele>1535.063</ele>
        <time>2018-07-05T12:13:16Z</time>
      </trkpt>
      <trkpt lat="46.123635" lon="6.754030">
        <ele>1534.264</ele>
        <time>2018-07-05T12:13:21Z</time>
      </trkpt>
      <trkpt lat="46.123597" lon="6.753983">
        <ele>1533.806</ele>
        <time>2018-07-05T12:13:25Z</time>
      </trkpt>
      <trkpt lat="46.123556" lon="6.753926">
        <ele>1533.316</ele>
        <time>2018-07-05T12:13:30Z</time>
      </trkpt>
      <trkpt lat="46.123525" lon="6.753872">
        <ele>1533.308</ele>
        <time>2018-07-05T12:13:34Z</time>
      </trkpt>
      <trkpt lat="46.123492" lon="6.753823">
        <ele>1533.158</ele>
        <time>2018-07-05T12:13:38Z</time>
      </trkpt>
      <trkpt lat="46.123453" lon="6.753773">
        <ele>1532.844</ele>
        <time>2018-07-05T12:13:43Z</time>
      </trkpt>
      <trkpt lat="46.123416" lon="6.753717">
        <ele>1532.796</ele>
        <time>2018-07-05T12:13:48Z</time>
      </trkpt>
      <trkpt lat="46.123387" lon="6.753658">
        <ele>1532.912</ele>
        <time>2018-07-05T12:13:53Z</time>
      </trkpt>
      <trkpt lat="46.123351" lon="6.753613">
        <ele>1532.644</ele>
        <time>2018-07-05T12:13:58Z</time>
      </trkpt>
      <trkpt lat="46.123300" lon="6.753595">
        <ele>1530.991</ele>
        <time>2018-07-05T12:14:04Z</time>
      </trkpt>
      <trkpt lat="46.123251" lon="6.753592">
        <ele>1529.037</ele>
        <time>2018-07-05T12:14:09Z</time>
      </trkpt>
      <trkpt lat="46.123197" lon="6.753578">
        <ele>1527.122</ele>
        <time>2018-07-05T12:14:15Z</time>
      </trkpt>
      <trkpt lat="46.123145" lon="6.753569">
        <ele>1525.344</ele>
        <time>2018-07-05T12:14:20Z</time>
      </trkpt>
      <trkpt lat="46.123101" lon="6.753533">
        <ele>1524.205</ele>
        <time>2018-07-05T12:14:24Z</time>
      </trkpt>
      <trkpt lat="46.123062" lon="6.753491">
        <ele>1523.415</ele>
        <time>2018-07-05T12:14:28Z</time>
      </trkpt>
      <trkpt lat="46.123023" lon="6.753443">
        <ele>1522.608</ele>
        <time>2018-07-05T12:14:32Z</time>
      </trkpt>
      <trkpt lat="46.122984" lon="6.753402">
        <ele>1522.186</ele>
        <time>2018-07-05T12:14:36Z</time>
      </trkpt>
      <trkpt lat="46.122940" lon="6.753368">
        <ele>1521.592</ele>
        <time>2018-07-05T12:14:40Z</time>
      </trkpt>
      <trkpt lat="46.122898" lon="6.753340">
        <ele>1521.234</ele>
        <time>2018-07-05T12:14:44Z</time>
      </trkpt>
      <trkpt lat="46.122853" lon="6.753320">
        <ele>1520.430</ele>
        <time>2018-07-05T12:14:48Z</time>
      </trkpt>
      <trkpt lat="46.122801" lon="6.753299">
        <ele>1519.292</ele>
        <time>2018-07-05T12:14:53Z</time>
      </trkpt>
      <trkpt lat="46.122750" lon="6.753281">
        <ele>1518.179</ele>
        <time>2018-07-05T12:14:57Z</time>
      </trkpt>
      <trkpt lat="46.122702" lon="6.753254">
        <ele>1517.445</ele>
        <time>2018-07-05T12:15:02Z</time>
      </trkpt>
      <trkpt lat="46.122658" lon="6.753222">
        <ele>1516.960</ele>
        <time>2018-07-05T12:15:06Z</time>
      </trkpt>
      <trkpt lat="46.122618" lon="6.753184">
        <ele>1516.749</ele>
        <time>2018-07-05T12:15:10Z</time>
      </trkpt>
      <trkpt lat="46.122580" lon="6.753141">
        <ele>1516.802</ele>
        <time>2018-07-05T12:15:14Z</time>
      </trkpt>
      <trkpt lat="46.122548" lon="6.753088">
        <ele>1517.222</ele>
        <time>2018-07-05T12:15:18Z</time>
      </trkpt>
      <trkpt lat="46.122529" lon="6.753018">
        <ele>1517.408</ele>
        <time>2018-07-05T12:15:23Z</time>
      </trkpt>
      <trkpt lat="46.122512" lon="6.752942">
        <ele>1516.916</ele>
        <time>2018-07-05T12:15:28Z</time>
      </trkpt>
      <trkpt lat="46.122486" lon="6.752877">
        <ele>1515.912</ele>
        <time>2018-07-05T12:15:33Z</time>
      </trkpt>
      <trkpt lat="46.122449" lon="6.752821">
        <ele>1514.534</ele>
        <time>2018-07-05T12:15:37Z</time>
      </trkpt>
      <trkpt lat="46.122406" lon="6.752781">
        <ele>1513.060</ele>
        <time>2018-07-05T12:15:42Z</time>
      </trkpt>
      <trkpt lat="46.122356" lon="6.752754">
        <ele>1511.362</ele>
        <time>2018-07-05T12:15:47Z</time>
      </trkpt>
      <trkpt lat="46.122307" lon="6.752737">
        <ele>1509.829</ele>
        <time>2018-07-05T12:15:52Z</time>
      </trkpt>
      <trkpt lat="46.122254" lon="6.752715">
        <ele>1508.245</ele>
        <time>2018-07-05T12:15:57Z</time>
      </trkpt>
      <trkpt lat="46.122204" lon="6.752691">
        <ele>1506.870</ele>
        <time>2018-07-05T12:16:02Z</time>
      </trkpt>
      <trkpt lat="46.122159" lon="6.752677">
        <ele>1505.698</ele>
        <time>2018-07-05T12:16:06Z</time>
      </trkpt>
      <trkpt lat="46.122115" lon="6.752653">
        <ele>1504.515</ele>
        <time>2018-07-05T12:16:10Z</time>
      </trkpt>
      <trkpt lat="46.122070" lon="6.752630">
        <ele>1503.426</ele>
        <time>2018-07-05T12:16:14Z</time>
      </trkpt>
      <trkpt lat="46.122021" lon="6.752601">
        <ele>1502.308</ele>
        <time>2018-07-05T12:16:18Z</time>
      </trkpt>
      <trkpt lat="46.121974" lon="6.752568">
        <ele>1501.391</ele>
        <time>2018-07-05T12:16:23Z</time>
      </trkpt>
      <trkpt lat="46.121928" lon="6.752536">
        <ele>1500.377</ele>
        <time>2018-07-05T12:16:28Z</time>
      </trkpt>
      <trkpt lat="46.121890" lon="6.752481">
        <ele>1499.569</ele>
        <time>2018-07-05T12:16:33Z</time>
      </trkpt>
      <trkpt lat="46.121851" lon="6.752427">
        <ele>1498.645</ele>
        <time>2018-07-05T12:16:38Z</time>
      </trkpt>
      <trkpt lat="46.121807" lon="6.752387">
        <ele>1497.417</ele>
        <time>2018-07-05T12:16:43Z</time>
      </trkpt>
      <trkpt lat="46.121757" lon="6.752356">
        <ele>1496.154</ele>
        <time>2018-07-05T12:16:49Z</time>
      </trkpt>
      <trkpt lat="46.121716" lon="6.752325">
        <ele>1495.120</ele>
        <time>2018-07-05T12:16:54Z</time>
      </trkpt>
      <trkpt lat="46.121677" lon="6.752285">
        <ele>1494.165</ele>
        <time>2018-07-05T12:17:00Z</time>
      </trkpt>
      <trkpt lat="46.121638" lon="6.752236">
        <ele>1492.948</ele>
        <time>2018-07-05T12:17:06Z</time>
      </trkpt>
      <trkpt lat="46.121592" lon="6.752204">
        <ele>1491.361</ele>
        <time>2018-07-05T12:17:11Z</time>
      </trkpt>
      <trkpt lat="46.121552" lon="6.752152">
        <ele>1490.017</ele>
        <time>2018-07-05T12:17:16Z</time>
      </trkpt>
      <trkpt lat="46.121507" lon="6.752120">
        <ele>1488.508</ele>
        <time>2018-07-05T12:17:25Z</time>
      </trkpt>
      <trkpt lat="46.121475" lon="6.752063">
        <ele>1487.586</ele>
        <time>2018-07-05T12:18:40Z</time>
      </trkpt>
      <trkpt lat="46.121438" lon="6.752019">
        <ele>1486.472</ele>
        <time>2018-07-05T12:18:45Z</time>
      </trkpt>
      <trkpt lat="46.121403" lon="6.751974">
        <ele>1485.484</ele>
        <time>2018-07-05T12:18:50Z</time>
      </trkpt>
      <trkpt lat="46.121372" lon="6.751910">
        <ele>1484.440</ele>
        <time>2018-07-05T12:18:55Z</time>
      </trkpt>
      <trkpt lat="46.121351" lon="6.751851">
        <ele>1483.752</ele>
        <time>2018-07-05T12:18:59Z</time>
      </trkpt>
      <trkpt lat="46.121325" lon="6.751782">
        <ele>1482.819</ele>
        <time>2018-07-05T12:19:04Z</time>
      </trkpt>
      <trkpt lat="46.121299" lon="6.751726">
        <ele>1481.995</ele>
        <time>2018-07-05T12:19:08Z</time>
      </trkpt>
      <trkpt lat="46.121267" lon="6.751665">
        <ele>1480.730</ele>
        <time>2018-07-05T12:19:13Z</time>
      </trkpt>
      <trkpt lat="46.121240" lon="6.751605">
        <ele>1479.544</ele>
        <time>2018-07-05T12:19:18Z</time>
      </trkpt>
      <trkpt lat="46.121230" lon="6.751542">
        <ele>1479.005</ele>
        <time>2018-07-05T12:19:23Z</time>
      </trkpt>
      <trkpt lat="46.121232" lon="6.751474">
        <ele>1479.015</ele>
        <time>2018-07-05T12:19:28Z</time>
      </trkpt>
      <trkpt lat="46.121244" lon="6.751402">
        <ele>1479.308</ele>
        <time>2018-07-05T12:19:34Z</time>
      </trkpt>
      <trkpt lat="46.121246" lon="6.751332">
        <ele>1478.726</ele>
        <time>2018-07-05T12:19:42Z</time>
      </trkpt>
      <trkpt lat="46.121246" lon="6.751265">
        <ele>1477.892</ele>
        <time>2018-07-05T12:19:48Z</time>
      </trkpt>
      <trkpt lat="46.121227" lon="6.751199">
        <ele>1476.534</ele>
        <time>2018-07-05T12:19:53Z</time>
      </trkpt>
      <trkpt lat="46.121191" lon="6.751157">
        <ele>1475.210</ele>
        <time>2018-07-05T12:19:58Z</time>
      </trkpt>
      <trkpt lat="46.121155" lon="6.751110">
        <ele>1473.942</ele>
        <time>2018-07-05T12:20:02Z</time>
      </trkpt>
      <trkpt lat="46.121105" lon="6.751097">
        <ele>1472.639</ele>
        <time>2018-07-05T12:20:09Z</time>
      </trkpt>
      <trkpt lat="46.121058" lon="6.751093">
        <ele>1471.035</ele>
        <time>2018-07-05T12:20:15Z</time>
      </trkpt>
      <trkpt lat="46.121016" lon="6.751121">
        <ele>1470.050</ele>
        <time>2018-07-05T12:20:20Z</time>
      </trkpt>
      <trkpt lat="46.120965" lon="6.751135">
        <ele>1468.371</ele>
        <time>2018-07-05T12:20:25Z</time>
      </trkpt>
      <trkpt lat="46.120915" lon="6.751120">
        <ele>1466.641</ele>
        <time>2018-07-05T12:20:30Z</time>
      </trkpt>
      <trkpt lat="46.120874" lon="6.751078">
        <ele>1465.015</ele>
        <time>2018-07-05T12:20:36Z</time>
      </trkpt>
      <trkpt lat="46.120837" lon="6.751032">
        <ele>1463.508</ele>
        <time>2018-07-05T12:20:41Z</time>
      </trkpt>
      <trkpt lat="46.120799" lon="6.750981">
        <ele>1461.149</ele>
        <time>2018-07-05T12:20:48Z</time>
      </trkpt>
      <trkpt lat="46.120778" lon="6.750915">
        <ele>1459.585</ele>
        <time>2018-07-05T12:21:00Z</time>
      </trkpt>
      <trkpt lat="46.120751" lon="6.750847">
        <ele>1457.657</ele>
        <time>2018-07-05T12:21:06Z</time>
      </trkpt>
      <trkpt lat="46.120734" lon="6.750775">
        <ele>1455.923</ele>
        <time>2018-07-05T12:21:12Z</time>
      </trkpt>
      <trkpt lat="46.120739" lon="6.750700">
        <ele>1455.315</ele>
        <time>2018-07-05T12:21:19Z</time>
      </trkpt>
      <trkpt lat="46.120747" lon="6.750634">
        <ele>1454.992</ele>
        <time>2018-07-05T12:21:24Z</time>
      </trkpt>
      <trkpt lat="46.120772" lon="6.750571">
        <ele>1455.338</ele>
        <time>2018-07-05T12:21:29Z</time>
      </trkpt>
      <trkpt lat="46.120792" lon="6.750502">
        <ele>1455.173</ele>
        <time>2018-07-05T12:21:35Z</time>
      </trkpt>
      <trkpt lat="46.120802" lon="6.750435">
        <ele>1454.477</ele>
        <time>2018-07-05T12:21:40Z</time>
      </trkpt>
      <trkpt lat="46.120816" lon="6.750367">
        <ele>1453.861</ele>
        <time>2018-07-05T12:21:45Z</time>
      </trkpt>
      <trkpt lat="46.120823" lon="6.750290">
        <ele>1452.827</ele>
        <time>2018-07-05T12:21:51Z</time>
      </trkpt>
      <trkpt lat="46.120818" lon="6.750218">
        <ele>1451.108</ele>
        <time>2018-07-05T12:21:56Z</time>
      </trkpt>
      <trkpt lat="46.120819" lon="6.750149">
        <ele>1449.689</ele>
        <time>2018-07-05T12:22:01Z</time>
      </trkpt>
      <trkpt lat="46.120833" lon="6.750081">
        <ele>1448.725</ele>
        <time>2018-07-05T12:22:06Z</time>
      </trkpt>
      <trkpt lat="46.120839" lon="6.750008">
        <ele>1447.387</ele>
        <time>2018-07-05T12:22:11Z</time>
      </trkpt>
      <trkpt lat="46.120864" lon="6.749944">
        <ele>1446.963</ele>
        <time>2018-07-05T12:22:16Z</time>
      </trkpt>
      <trkpt lat="46.120879" lon="6.749880">
        <ele>1446.225</ele>
        <time>2018-07-05T12:22:20Z</time>
      </trkpt>
      <trkpt lat="46.120882" lon="6.749809">
        <ele>1445.192</ele>
        <time>2018-07-05T12:22:24Z</time>
      </trkpt>
      <trkpt lat="46.120879" lon="6.749738">
        <ele>1443.828</ele>
        <time>2018-07-05T12:22:28Z</time>
      </trkpt>
      <trkpt lat="46.120878" lon="6.749667">
        <ele>1442.973</ele>
        <time>2018-07-05T12:22:32Z</time>
      </trkpt>
      <trkpt lat="46.120883" lon="6.749586">
        <ele>1442.168</ele>
        <time>2018-07-05T12:22:37Z</time>
      </trkpt>
      <trkpt lat="46.120907" lon="6.749531">
        <ele>1442.342</ele>
        <time>2018-07-05T12:22:41Z</time>
      </trkpt>
      <trkpt lat="46.120907" lon="6.749460">
        <ele>1441.626</ele>
        <time>2018-07-05T12:22:45Z</time>
      </trkpt>
      <trkpt lat="46.120906" lon="6.749391">
        <ele>1440.908</ele>
        <time>2018-07-05T12:22:51Z</time>
      </trkpt>
      <trkpt lat="46.120900" lon="6.749325">
        <ele>1440.248</ele>
        <time>2018-07-05T12:22:56Z</time>
      </trkpt>
      <trkpt lat="46.120869" lon="6.749269">
        <ele>1438.864</ele>
        <time>2018-07-05T12:23:00Z</time>
      </trkpt>
      <trkpt lat="46.120836" lon="6.749225">
        <ele>1437.526</ele>
        <time>2018-07-05T12:23:04Z</time>
      </trkpt>
      <trkpt lat="46.120807" lon="6.749175">
        <ele>1436.182</ele>
        <time>2018-07-05T12:23:08Z</time>
      </trkpt>
      <trkpt lat="46.120778" lon="6.749123">
        <ele>1435.164</ele>
        <time>2018-07-05T12:23:13Z</time>
      </trkpt>
      <trkpt lat="46.120746" lon="6.749066">
        <ele>1434.121</ele>
        <time>2018-07-05T12:23:18Z</time>
      </trkpt>
      <trkpt lat="46.120735" lon="6.748998">
        <ele>1433.917</ele>
        <time>2018-07-05T12:23:25Z</time>
      </trkpt>
      <trkpt lat="46.120717" lon="6.748934">
        <ele>1433.542</ele>
        <time>2018-07-05T12:23:31Z</time>
      </trkpt>
      <trkpt lat="46.120698" lon="6.748869">
        <ele>1433.084</ele>
        <time>2018-07-05T12:23:36Z</time>
      </trkpt>
      <trkpt lat="46.120688" lon="6.748804">
        <ele>1432.507</ele>
        <time>2018-07-05T12:23:42Z</time>
      </trkpt>
      <trkpt lat="46.120684" lon="6.748727">
        <ele>1432.217</ele>
        <time>2018-07-05T12:23:47Z</time>
      </trkpt>
      <trkpt lat="46.120677" lon="6.748656">
        <ele>1431.808</ele>
        <time>2018-07-05T12:23:52Z</time>
      </trkpt>
      <trkpt lat="46.120663" lon="6.748585">
        <ele>1430.890</ele>
        <time>2018-07-05T12:23:57Z</time>
      </trkpt>
      <trkpt lat="46.120671" lon="6.748514">
        <ele>1429.656</ele>
        <time>2018-07-05T12:24:03Z</time>
      </trkpt>
      <trkpt lat="46.120680" lon="6.748444">
        <ele>1428.468</ele>
        <time>2018-07-05T12:24:09Z</time>
      </trkpt>
      <trkpt lat="46.120673" lon="6.748374">
        <ele>1426.974</ele>
        <time>2018-07-05T12:24:15Z</time>
      </trkpt>
      <trkpt lat="46.120650" lon="6.748310">
        <ele>1425.276</ele>
        <time>2018-07-05T12:24:21Z</time>
      </trkpt>
      <trkpt lat="46.120609" lon="6.748275">
        <ele>1423.683</ele>
        <time>2018-07-05T12:24:26Z</time>
      </trkpt>
      <trkpt lat="46.120561" lon="6.748267">
        <ele>1422.459</ele>
        <time>2018-07-05T12:24:31Z</time>
      </trkpt>
      <trkpt lat="46.120511" lon="6.748281">
        <ele>1421.584</ele>
        <time>2018-07-05T12:24:36Z</time>
      </trkpt>
      <trkpt lat="46.120466" lon="6.748296">
        <ele>1420.699</ele>
        <time>2018-07-05T12:24:41Z</time>
      </trkpt>
      <trkpt lat="46.120414" lon="6.748303">
        <ele>1419.307</ele>
        <time>2018-07-05T12:24:47Z</time>
      </trkpt>
      <trkpt lat="46.120365" lon="6.748303">
        <ele>1418.027</ele>
        <time>2018-07-05T12:24:53Z</time>
      </trkpt>
      <trkpt lat="46.120319" lon="6.748304">
        <ele>1416.708</ele>
        <time>2018-07-05T12:24:58Z</time>
      </trkpt>
      <trkpt lat="46.120272" lon="6.748301">
        <ele>1415.471</ele>
        <time>2018-07-05T12:25:04Z</time>
      </trkpt>
      <trkpt lat="46.120220" lon="6.748294">
        <ele>1413.727</ele>
        <time>2018-07-05T12:25:09Z</time>
      </trkpt>
      <trkpt lat="46.120171" lon="6.748295">
        <ele>1412.159</ele>
        <time>2018-07-05T12:25:15Z</time>
      </trkpt>
      <trkpt lat="46.120125" lon="6.748324">
        <ele>1411.025</ele>
        <time>2018-07-05T12:25:24Z</time>
      </trkpt>
      <trkpt lat="46.120089" lon="6.748367">
        <ele>1410.177</ele>
        <time>2018-07-05T12:25:30Z</time>
      </trkpt>
      <trkpt lat="46.120039" lon="6.748366">
        <ele>1408.424</ele>
        <time>2018-07-05T12:25:37Z</time>
      </trkpt>
      <trkpt lat="46.120010" lon="6.748315">
        <ele>1407.330</ele>
        <time>2018-07-05T12:25:43Z</time>
      </trkpt>
      <trkpt lat="46.119974" lon="6.748263">
        <ele>1406.025</ele>
        <time>2018-07-05T12:25:49Z</time>
      </trkpt>
      <trkpt lat="46.119935" lon="6.748220">
        <ele>1404.733</ele>
        <time>2018-07-05T12:25:55Z</time>
      </trkpt>
      <trkpt lat="46.119892" lon="6.748183">
        <ele>1403.423</ele>
        <time>2018-07-05T12:26:01Z</time>
      </trkpt>
      <trkpt lat="46.119857" lon="6.748139">
        <ele>1402.415</ele>
        <time>2018-07-05T12:26:07Z</time>
      </trkpt>
      <trkpt lat="46.119830" lon="6.748082">
        <ele>1401.708</ele>
        <time>2018-07-05T12:26:13Z</time>
      </trkpt>
      <trkpt lat="46.119822" lon="6.748008">
        <ele>1400.935</ele>
        <time>2018-07-05T12:26:19Z</time>
      </trkpt>
      <trkpt lat="46.119809" lon="6.747944">
        <ele>1399.941</ele>
        <time>2018-07-05T12:26:24Z</time>
      </trkpt>
      <trkpt lat="46.119788" lon="6.747873">
        <ele>1398.513</ele>
        <time>2018-07-05T12:26:30Z</time>
      </trkpt>
      <trkpt lat="46.119787" lon="6.747800">
        <ele>1397.779</ele>
        <time>2018-07-05T12:26:37Z</time>
      </trkpt>
      <trkpt lat="46.119785" lon="6.747732">
        <ele>1396.781</ele>
        <time>2018-07-05T12:26:42Z</time>
      </trkpt>
      <trkpt lat="46.119777" lon="6.747654">
        <ele>1395.328</ele>
        <time>2018-07-05T12:26:48Z</time>
      </trkpt>
      <trkpt lat="46.119772" lon="6.747586">
        <ele>1394.274</ele>
        <time>2018-07-05T12:26:54Z</time>
      </trkpt>
      <trkpt lat="46.119762" lon="6.747515">
        <ele>1392.969</ele>
        <time>2018-07-05T12:27:00Z</time>
      </trkpt>
      <trkpt lat="46.119744" lon="6.747454">
        <ele>1391.793</ele>
        <time>2018-07-05T12:27:05Z</time>
      </trkpt>
      <trkpt lat="46.119725" lon="6.747388">
        <ele>1390.465</ele>
        <time>2018-07-05T12:27:11Z</time>
      </trkpt>
      <trkpt lat="46.119703" lon="6.747328">
        <ele>1389.321</ele>
        <time>2018-07-05T12:27:16Z</time>
      </trkpt>
      <trkpt lat="46.119673" lon="6.747261">
        <ele>1388.008</ele>
        <time>2018-07-05T12:27:21Z</time>
      </trkpt>
      <trkpt lat="46.119645" lon="6.747205">
        <ele>1386.991</ele>
        <time>2018-07-05T12:27:25Z</time>
      </trkpt>
      <trkpt lat="46.119612" lon="6.747144">
        <ele>1385.877</ele>
        <time>2018-07-05T12:27:30Z</time>
      </trkpt>
      <trkpt lat="46.119575" lon="6.747104">
        <ele>1384.959</ele>
        <time>2018-07-05T12:27:34Z</time>
      </trkpt>
      <trkpt lat="46.119540" lon="6.747054">
        <ele>1384.035</ele>
        <time>2018-07-05T12:27:39Z</time>
      </trkpt>
      <trkpt lat="46.119506" lon="6.747009">
        <ele>1383.267</ele>
        <time>2018-07-05T12:27:44Z</time>
      </trkpt>
      <trkpt lat="46.119472" lon="6.746956">
        <ele>1382.344</ele>
        <time>2018-07-05T12:27:49Z</time>
      </trkpt>
      <trkpt lat="46.119453" lon="6.746889">
        <ele>1381.540</ele>
        <time>2018-07-05T12:27:54Z</time>
      </trkpt>
      <trkpt lat="46.119468" lon="6.746822">
        <ele>1380.885</ele>
        <time>2018-07-05T12:28:01Z</time>
      </trkpt>
      <trkpt lat="46.119494" lon="6.746760">
        <ele>1380.286</ele>
        <time>2018-07-05T12:28:07Z</time>
      </trkpt>
      <trkpt lat="46.119506" lon="6.746693">
        <ele>1379.560</ele>
        <time>2018-07-05T12:28:12Z</time>
      </trkpt>
      <trkpt lat="46.119509" lon="6.746621">
        <ele>1378.226</ele>
        <time>2018-07-05T12:28:17Z</time>
      </trkpt>
      <trkpt lat="46.119507" lon="6.746547">
        <ele>1376.408</ele>
        <time>2018-07-05T12:28:22Z</time>
      </trkpt>
      <trkpt lat="46.119505" lon="6.746479">
        <ele>1374.820</ele>
        <time>2018-07-05T12:28:28Z</time>
      </trkpt>
      <trkpt lat="46.119509" lon="6.746406">
        <ele>1373.136</ele>
        <time>2018-07-05T12:28:34Z</time>
      </trkpt>
      <trkpt lat="46.119503" lon="6.746341">
        <ele>1371.628</ele>
        <time>2018-07-05T12:28:40Z</time>
      </trkpt>
      <trkpt lat="46.119493" lon="6.746277">
        <ele>1370.254</ele>
        <time>2018-07-05T12:28:46Z</time>
      </trkpt>
      <trkpt lat="46.119477" lon="6.746207">
        <ele>1368.586</ele>
        <time>2018-07-05T12:28:53Z</time>
      </trkpt>
      <trkpt lat="46.119472" lon="6.746133">
        <ele>1366.943</ele>
        <time>2018-07-05T12:29:00Z</time>
      </trkpt>
      <trkpt lat="46.119464" lon="6.746067">
        <ele>1365.599</ele>
        <time>2018-07-05T12:29:06Z</time>
      </trkpt>
      <trkpt lat="46.119463" lon="6.746000">
        <ele>1364.324</ele>
        <time>2018-07-05T12:29:11Z</time>
      </trkpt>
      <trkpt lat="46.119455" lon="6.745930">
        <ele>1362.963</ele>
        <time>2018-07-05T12:29:17Z</time>
      </trkpt>
      <trkpt lat="46.119423" lon="6.745870">
        <ele>1361.244</ele>
        <time>2018-07-05T12:29:23Z</time>
      </trkpt>
      <trkpt lat="46.119427" lon="6.745805">
        <ele>1360.018</ele>
        <time>2018-07-05T12:29:28Z</time>
      </trkpt>
      <trkpt lat="46.119433" lon="6.745738">
        <ele>1359.008</ele>
        <time>2018-07-05T12:29:34Z</time>
      </trkpt>
      <trkpt lat="46.119455" lon="6.745673">
        <ele>1358.368</ele>
        <time>2018-07-05T12:29:40Z</time>
      </trkpt>
      <trkpt lat="46.119496" lon="6.745610">
        <ele>1357.994</ele>
        <time>2018-07-05T12:29:48Z</time>
      </trkpt>
      <trkpt lat="46.119515" lon="6.745550">
        <ele>1357.236</ele>
        <time>2018-07-05T12:29:55Z</time>
      </trkpt>
      <trkpt lat="46.119533" lon="6.745487">
        <ele>1356.662</ele>
        <time>2018-07-05T12:30:01Z</time>
      </trkpt>
      <trkpt lat="46.119544" lon="6.745416">
        <ele>1355.854</ele>
        <time>2018-07-05T12:30:06Z</time>
      </trkpt>
      <trkpt lat="46.119549" lon="6.745337">
        <ele>1354.731</ele>
        <time>2018-07-05T12:30:11Z</time>
      </trkpt>
      <trkpt lat="46.119559" lon="6.745270">
        <ele>1354.097</ele>
        <time>2018-07-05T12:30:15Z</time>
      </trkpt>
      <trkpt lat="46.119554" lon="6.745189">
        <ele>1353.042</ele>
        <time>2018-07-05T12:30:20Z</time>
      </trkpt>
      <trkpt lat="46.119542" lon="6.745114">
        <ele>1352.046</ele>
        <time>2018-07-05T12:30:24Z</time>
      </trkpt>
      <trkpt lat="46.119524" lon="6.745052">
        <ele>1351.088</ele>
        <time>2018-07-05T12:30:29Z</time>
      </trkpt>
      <trkpt lat="46.119518" lon="6.744974">
        <ele>1350.016</ele>
        <time>2018-07-05T12:30:40Z</time>
      </trkpt>
      <trkpt lat="46.119478" lon="6.744928">
        <ele>1348.808</ele>
        <time>2018-07-05T12:30:46Z</time>
      </trkpt>
      <trkpt lat="46.119458" lon="6.744869">
        <ele>1347.886</ele>
        <time>2018-07-05T12:30:53Z</time>
      </trkpt>
      <trkpt lat="46.119445" lon="6.744798">
        <ele>1346.812</ele>
        <time>2018-07-05T12:30:58Z</time>
      </trkpt>
      <trkpt lat="46.119430" lon="6.744734">
        <ele>1345.824</ele>
        <time>2018-07-05T12:31:05Z</time>
      </trkpt>
      <trkpt lat="46.119416" lon="6.744669">
        <ele>1345.020</ele>
        <time>2018-07-05T12:31:11Z</time>
      </trkpt>
      <trkpt lat="46.119399" lon="6.744593">
        <ele>1344.212</ele>
        <time>2018-07-05T12:31:16Z</time>
      </trkpt>
      <trkpt lat="46.119380" lon="6.744531">
        <ele>1343.439</ele>
        <time>2018-07-05T12:31:20Z</time>
      </trkpt>
      <trkpt lat="46.119356" lon="6.744473">
        <ele>1342.675</ele>
        <time>2018-07-05T12:31:24Z</time>
      </trkpt>
      <trkpt lat="46.119324" lon="6.744410">
        <ele>1341.660</ele>
        <time>2018-07-05T12:31:29Z</time>
      </trkpt>
      <trkpt lat="46.119289" lon="6.744355">
        <ele>1340.624</ele>
        <time>2018-07-05T12:31:34Z</time>
      </trkpt>
      <trkpt lat="46.119256" lon="6.744298">
        <ele>1339.704</ele>
        <time>2018-07-05T12:31:39Z</time>
      </trkpt>
      <trkpt lat="46.119213" lon="6.744253">
        <ele>1338.914</ele>
        <time>2018-07-05T12:31:44Z</time>
      </trkpt>
      <trkpt lat="46.119172" lon="6.744207">
        <ele>1338.208</ele>
        <time>2018-07-05T12:31:49Z</time>
      </trkpt>
      <trkpt lat="46.119146" lon="6.744148">
        <ele>1337.474</ele>
        <time>2018-07-05T12:31:54Z</time>
      </trkpt>
      <trkpt lat="46.119111" lon="6.744094">
        <ele>1336.040</ele>
        <time>2018-07-05T12:31:59Z</time>
      </trkpt>
      <trkpt lat="46.119077" lon="6.744048">
        <ele>1334.872</ele>
        <time>2018-07-05T12:32:04Z</time>
      </trkpt>
      <trkpt lat="46.119039" lon="6.744008">
        <ele>1333.598</ele>
        <time>2018-07-05T12:32:09Z</time>
      </trkpt>
      <trkpt lat="46.118999" lon="6.743970">
        <ele>1332.360</ele>
        <time>2018-07-05T12:32:14Z</time>
      </trkpt>
      <trkpt lat="46.118962" lon="6.743917">
        <ele>1330.957</ele>
        <time>2018-07-05T12:32:19Z</time>
      </trkpt>
      <trkpt lat="46.118920" lon="6.743873">
        <ele>1329.463</ele>
        <time>2018-07-05T12:32:25Z</time>
      </trkpt>
      <trkpt lat="46.118883" lon="6.743822">
        <ele>1327.998</ele>
        <time>2018-07-05T12:32:30Z</time>
      </trkpt>
      <trkpt lat="46.118850" lon="6.743766">
        <ele>1326.098</ele>
        <time>2018-07-05T12:32:35Z</time>
      </trkpt>
      <trkpt lat="46.118837" lon="6.743701">
        <ele>1324.715</ele>
        <time>2018-07-05T12:32:40Z</time>
      </trkpt>
      <trkpt lat="46.118851" lon="6.743631">
        <ele>1324.126</ele>
        <time>2018-07-05T12:32:45Z</time>
      </trkpt>
      <trkpt lat="46.118879" lon="6.743566">
        <ele>1323.708</ele>
        <time>2018-07-05T12:32:51Z</time>
      </trkpt>
      <trkpt lat="46.118906" lon="6.743507">
        <ele>1323.151</ele>
        <time>2018-07-05T12:32:56Z</time>
      </trkpt>
      <trkpt lat="46.118920" lon="6.743443">
        <ele>1322.167</ele>
        <time>2018-07-05T12:33:01Z</time>
      </trkpt>
      <trkpt lat="46.118940" lon="6.743371">
        <ele>1321.149</ele>
        <time>2018-07-05T12:33:07Z</time>
      </trkpt>
      <trkpt lat="46.118970" lon="6.743306">
        <ele>1320.555</ele>
        <time>2018-07-05T12:33:13Z</time>
      </trkpt>
      <trkpt lat="46.119008" lon="6.743260">
        <ele>1320.547</ele>
        <time>2018-07-05T12:33:19Z</time>
      </trkpt>
      <trkpt lat="46.119041" lon="6.743212">
        <ele>1320.244</ele>
        <time>2018-07-05T12:33:25Z</time>
      </trkpt>
      <trkpt lat="46.119067" lon="6.743152">
        <ele>1319.490</ele>
        <time>2018-07-05T12:33:30Z</time>
      </trkpt>
      <trkpt lat="46.119081" lon="6.743086">
        <ele>1318.265</ele>
        <time>2018-07-05T12:33:35Z</time>
      </trkpt>
      <trkpt lat="46.119121" lon="6.743046">
        <ele>1318.074</ele>
        <time>2018-07-05T12:33:43Z</time>
      </trkpt>
      <trkpt lat="46.119115" lon="6.742973">
        <ele>1316.556</ele>
        <time>2018-07-05T12:33:48Z</time>
      </trkpt>
      <trkpt lat="46.119096" lon="6.742909">
        <ele>1315.021</ele>
        <time>2018-07-05T12:33:52Z</time>
      </trkpt>
      <trkpt lat="46.119097" lon="6.742843">
        <ele>1313.708</ele>
        <time>2018-07-05T12:33:56Z</time>
      </trkpt>
      <trkpt lat="46.119099" lon="6.742769">
        <ele>1312.449</ele>
        <time>2018-07-05T12:34:01Z</time>
      </trkpt>
      <trkpt lat="46.119098" lon="6.742695">
        <ele>1311.065</ele>
        <time>2018-07-05T12:34:06Z</time>
      </trkpt>
      <trkpt lat="46.119087" lon="6.742616">
        <ele>1309.457</ele>
        <time>2018-07-05T12:34:11Z</time>
      </trkpt>
      <trkpt lat="46.119086" lon="6.742548">
        <ele>1308.163</ele>
        <time>2018-07-05T12:34:16Z</time>
      </trkpt>
      <trkpt lat="46.119093" lon="6.742483">
        <ele>1307.135</ele>
        <time>2018-07-05T12:34:20Z</time>
      </trkpt>
      <trkpt lat="46.119109" lon="6.742410">
        <ele>1306.192</ele>
        <time>2018-07-05T12:34:25Z</time>
      </trkpt>
      <trkpt lat="46.119135" lon="6.742344">
        <ele>1305.588</ele>
        <time>2018-07-05T12:34:30Z</time>
      </trkpt>
      <trkpt lat="46.119163" lon="6.742291">
        <ele>1305.213</ele>
        <time>2018-07-05T12:34:34Z</time>
      </trkpt>
      <trkpt lat="46.119194" lon="6.742236">
        <ele>1304.732</ele>
        <time>2018-07-05T12:34:38Z</time>
      </trkpt>
      <trkpt lat="46.119222" lon="6.742183">
        <ele>1304.792</ele>
        <time>2018-07-05T12:34:42Z</time>
      </trkpt>
      <trkpt lat="46.119248" lon="6.742118">
        <ele>1304.811</ele>
        <time>2018-07-05T12:34:47Z</time>
      </trkpt>
      <trkpt lat="46.119246" lon="6.742052">
        <ele>1304.408</ele>
        <time>2018-07-05T12:34:53Z</time>
      </trkpt>
      <trkpt lat="46.119209" lon="6.742006">
        <ele>1303.395</ele>
        <time>2018-07-05T12:34:59Z</time>
      </trkpt>
      <trkpt lat="46.119168" lon="6.741972">
        <ele>1302.291</ele>
        <time>2018-07-05T12:35:04Z</time>
      </trkpt>
      <trkpt lat="46.119129" lon="6.741929">
        <ele>1300.833</ele>
        <time>2018-07-05T12:35:10Z</time>
      </trkpt>
      <trkpt lat="46.119091" lon="6.741893">
        <ele>1299.429</ele>
        <time>2018-07-05T12:35:15Z</time>
      </trkpt>
      <trkpt lat="46.119056" lon="6.741847">
        <ele>1298.061</ele>
        <time>2018-07-05T12:35:20Z</time>
      </trkpt>
      <trkpt lat="46.119050" lon="6.741771">
        <ele>1297.348</ele>
        <time>2018-07-05T12:35:26Z</time>
      </trkpt>
      <trkpt lat="46.119042" lon="6.741704">
        <ele>1296.624</ele>
        <time>2018-07-05T12:35:31Z</time>
      </trkpt>
      <trkpt lat="46.119027" lon="6.741632">
        <ele>1295.739</ele>
        <time>2018-07-05T12:35:37Z</time>
      </trkpt>
      <trkpt lat="46.119006" lon="6.741568">
        <ele>1294.736</ele>
        <time>2018-07-05T12:35:43Z</time>
      </trkpt>
      <trkpt lat="46.118989" lon="6.741507">
        <ele>1293.817</ele>
        <time>2018-07-05T12:35:49Z</time>
      </trkpt>
      <trkpt lat="46.118966" lon="6.741445">
        <ele>1292.818</ele>
        <time>2018-07-05T12:35:53Z</time>
      </trkpt>
      <trkpt lat="46.118948" lon="6.741381">
        <ele>1292.008</ele>
        <time>2018-07-05T12:35:58Z</time>
      </trkpt>
      <trkpt lat="46.118926" lon="6.741321">
        <ele>1290.995</ele>
        <time>2018-07-05T12:36:04Z</time>
      </trkpt>
      <trkpt lat="46.118900" lon="6.741256">
        <ele>1289.721</ele>
        <time>2018-07-05T12:36:11Z</time>
      </trkpt>
      <trkpt lat="46.118871" lon="6.741193">
        <ele>1288.343</ele>
        <time>2018-07-05T12:36:18Z</time>
      </trkpt>
      <trkpt lat="46.118848" lon="6.741126">
        <ele>1286.719</ele>
        <time>2018-07-05T12:36:25Z</time>
      </trkpt>
      <trkpt lat="46.118839" lon="6.741061">
        <ele>1285.361</ele>
        <time>2018-07-05T12:36:31Z</time>
      </trkpt>
      <trkpt lat="46.118828" lon="6.740994">
        <ele>1283.898</ele>
        <time>2018-07-05T12:36:37Z</time>
      </trkpt>
      <trkpt lat="46.118829" lon="6.740918">
        <ele>1282.524</ele>
        <time>2018-07-05T12:36:43Z</time>
      </trkpt>
      <trkpt lat="46.118828" lon="6.740853">
        <ele>1281.419</ele>
        <time>2018-07-05T12:36:48Z</time>
      </trkpt>
      <trkpt lat="46.118834" lon="6.740783">
        <ele>1280.099</ele>
        <time>2018-07-05T12:36:54Z</time>
      </trkpt>
      <trkpt lat="46.118835" lon="6.740708">
        <ele>1278.207</ele>
        <time>2018-07-05T12:37:00Z</time>
      </trkpt>
      <trkpt lat="46.118836" lon="6.740642">
        <ele>1276.627</ele>
        <time>2018-07-05T12:37:06Z</time>
      </trkpt>
      <trkpt lat="46.118837" lon="6.740574">
        <ele>1275.008</ele>
        <time>2018-07-05T12:37:12Z</time>
      </trkpt>
      <trkpt lat="46.118830" lon="6.740507">
        <ele>1273.191</ele>
        <time>2018-07-05T12:37:18Z</time>
      </trkpt>
      <trkpt lat="46.118812" lon="6.740447">
        <ele>1271.217</ele>
        <time>2018-07-05T12:37:23Z</time>
      </trkpt>
      <trkpt lat="46.118821" lon="6.740378">
        <ele>1269.789</ele>
        <time>2018-07-05T12:37:28Z</time>
      </trkpt>
      <trkpt lat="46.118838" lon="6.740310">
        <ele>1268.545</ele>
        <time>2018-07-05T12:37:33Z</time>
      </trkpt>
      <trkpt lat="46.118865" lon="6.740247">
        <ele>1267.867</ele>
        <time>2018-07-05T12:37:38Z</time>
      </trkpt>
      <trkpt lat="46.118898" lon="6.740187">
        <ele>1267.574</ele>
        <time>2018-07-05T12:37:44Z</time>
      </trkpt>
      <trkpt lat="46.118891" lon="6.740116">
        <ele>1266.160</ele>
        <time>2018-07-05T12:37:50Z</time>
      </trkpt>
      <trkpt lat="46.118856" lon="6.740074">
        <ele>1264.595</ele>
        <time>2018-07-05T12:37:55Z</time>
      </trkpt>
      <trkpt lat="46.118811" lon="6.740072">
        <ele>1263.376</ele>
        <time>2018-07-05T12:38:00Z</time>
      </trkpt>
      <trkpt lat="46.118761" lon="6.740092">
        <ele>1262.490</ele>
        <time>2018-07-05T12:38:05Z</time>
      </trkpt>
      <trkpt lat="46.118716" lon="6.740124">
        <ele>1261.919</ele>
        <time>2018-07-05T12:38:09Z</time>
      </trkpt>
      <trkpt lat="46.118668" lon="6.740160">
        <ele>1261.308</ele>
        <time>2018-07-05T12:38:13Z</time>
      </trkpt>
      <trkpt lat="46.118624" lon="6.740198">
        <ele>1260.959</ele>
        <time>2018-07-05T12:38:17Z</time>
      </trkpt>
      <trkpt lat="46.118584" lon="6.740231">
        <ele>1260.475</ele>
        <time>2018-07-05T12:38:21Z</time>
      </trkpt>
      <trkpt lat="46.118542" lon="6.740265">
        <ele>1259.887</ele>
        <time>2018-07-05T12:38:25Z</time>
      </trkpt>
      <trkpt lat="46.118507" lon="6.740311">
        <ele>1259.633</ele>
        <time>2018-07-05T12:38:29Z</time>
      </trkpt>
      <trkpt lat="46.118480" lon="6.740365">
        <ele>1259.715</ele>
        <time>2018-07-05T12:38:33Z</time>
      </trkpt>
      <trkpt lat="46.118444" lon="6.740411">
        <ele>1259.292</ele>
        <time>2018-07-05T12:38:37Z</time>
      </trkpt>
      <trkpt lat="46.118409" lon="6.740461">
        <ele>1258.768</ele>
        <time>2018-07-05T12:38:41Z</time>
      </trkpt>
      <trkpt lat="46.118376" lon="6.740521">
        <ele>1258.333</ele>
        <time>2018-07-05T12:38:46Z</time>
      </trkpt>
      <trkpt lat="46.118339" lon="6.740559">
        <ele>1257.381</ele>
        <time>2018-07-05T12:38:50Z</time>
      </trkpt>
      <trkpt lat="46.118300" lon="6.740593">
        <ele>1256.861</ele>
        <time>2018-07-05T12:38:54Z</time>
      </trkpt>
      <trkpt lat="46.118265" lon="6.740633">
        <ele>1256.617</ele>
        <time>2018-07-05T12:38:58Z</time>
      </trkpt>
      <trkpt lat="46.118228" lon="6.740674">
        <ele>1256.308</ele>
        <time>2018-07-05T12:39:02Z</time>
      </trkpt>
      <trkpt lat="46.118179" lon="6.740685">
        <ele>1255.370</ele>
        <time>2018-07-05T12:39:06Z</time>
      </trkpt>
      <trkpt lat="46.118130" lon="6.740670">
        <ele>1254.016</ele>
        <time>2018-07-05T12:39:10Z</time>
      </trkpt>
      <trkpt lat="46.118079" lon="6.740688">
        <ele>1253.038</ele>
        <time>2018-07-05T12:39:15Z</time>
      </trkpt>
      <trkpt lat="46.118042" lon="6.740726">
        <ele>1252.554</ele>
        <time>2018-07-05T12:39:20Z</time>
      </trkpt>
      <trkpt lat="46.117997" lon="6.740735">
        <ele>1251.586</ele>
        <time>2018-07-05T12:39:24Z</time>
      </trkpt>
      <trkpt lat="46.117955" lon="6.740760">
        <ele>1250.813</ele>
        <time>2018-07-05T12:39:28Z</time>
      </trkpt>
      <trkpt lat="46.117918" lon="6.740806">
        <ele>1250.689</ele>
        <time>2018-07-05T12:39:32Z</time>
      </trkpt>
      <trkpt lat="46.117876" lon="6.740856">
        <ele>1250.444</ele>
        <time>2018-07-05T12:39:37Z</time>
      </trkpt>
      <trkpt lat="46.117847" lon="6.740917">
        <ele>1250.485</ele>
        <time>2018-07-05T12:39:42Z</time>
      </trkpt>
      <trkpt lat="46.117807" lon="6.740959">
        <ele>1250.089</ele>
        <time>2018-07-05T12:39:46Z</time>
      </trkpt>
      <trkpt lat="46.117759" lon="6.741002">
        <ele>1249.317</ele>
        <time>2018-07-05T12:39:50Z</time>
      </trkpt>
      <trkpt lat="46.117714" lon="6.741027">
        <ele>1248.408</ele>
        <time>2018-07-05T12:39:54Z</time>
      </trkpt>
      <trkpt lat="46.117660" lon="6.741035">
        <ele>1247.110</ele>
        <time>2018-07-05T12:39:59Z</time>
      </trkpt>
      <trkpt lat="46.117614" lon="6.741042">
        <ele>1246.076</ele>
        <time>2018-07-05T12:40:03Z</time>
      </trkpt>
      <trkpt lat="46.117568" lon="6.741047">
        <ele>1244.818</ele>
        <time>2018-07-05T12:40:08Z</time>
      </trkpt>
      <trkpt lat="46.117523" lon="6.741046">
        <ele>1243.784</ele>
        <time>2018-07-05T12:40:13Z</time>
      </trkpt>
      <trkpt lat="46.117480" lon="6.741025">
        <ele>1241.916</ele>
        <time>2018-07-05T12:40:24Z</time>
      </trkpt>
      <trkpt lat="46.117440" lon="6.741061">
        <ele>1240.783</ele>
        <time>2018-07-05T12:40:51Z</time>
      </trkpt>
      <trkpt lat="46.117405" lon="6.741111">
        <ele>1239.919</ele>
        <time>2018-07-05T12:40:56Z</time>
      </trkpt>
      <trkpt lat="46.117360" lon="6.741154">
        <ele>1238.724</ele>
        <time>2018-07-05T12:41:01Z</time>
      </trkpt>
      <trkpt lat="46.117327" lon="6.741202">
        <ele>1238.283</ele>
        <time>2018-07-05T12:41:07Z</time>
      </trkpt>
      <trkpt lat="46.117302" lon="6.741260">
        <ele>1238.125</ele>
        <time>2018-07-05T12:41:12Z</time>
      </trkpt>
      <trkpt lat="46.117267" lon="6.741315">
        <ele>1237.617</ele>
        <time>2018-07-05T12:41:17Z</time>
      </trkpt>
      <trkpt lat="46.117226" lon="6.741344">
        <ele>1236.408</ele>
        <time>2018-07-05T12:41:21Z</time>
      </trkpt>
      <trkpt lat="46.117187" lon="6.741399">
        <ele>1236.190</ele>
        <time>2018-07-05T12:41:26Z</time>
      </trkpt>
      <trkpt lat="46.117155" lon="6.741460">
        <ele>1236.216</ele>
        <time>2018-07-05T12:41:31Z</time>
      </trkpt>
      <trkpt lat="46.117135" lon="6.741527">
        <ele>1236.758</ele>
        <time>2018-07-05T12:41:35Z</time>
      </trkpt>
      <trkpt lat="46.117095" lon="6.741579">
        <ele>1236.074</ele>
        <time>2018-07-05T12:41:40Z</time>
      </trkpt>
      <trkpt lat="46.117061" lon="6.741636">
        <ele>1235.676</ele>
        <time>2018-07-05T12:41:44Z</time>
      </trkpt>
      <trkpt lat="46.117022" lon="6.741688">
        <ele>1234.623</ele>
        <time>2018-07-05T12:41:48Z</time>
      </trkpt>
      <trkpt lat="46.117001" lon="6.741746">
        <ele>1234.359</ele>
        <time>2018-07-05T12:41:52Z</time>
      </trkpt>
      <trkpt lat="46.116982" lon="6.741816">
        <ele>1234.124</ele>
        <time>2018-07-05T12:41:57Z</time>
      </trkpt>
      <trkpt lat="46.116976" lon="6.741882">
        <ele>1234.441</ele>
        <time>2018-07-05T12:42:02Z</time>
      </trkpt>
      <trkpt lat="46.116954" lon="6.741944">
        <ele>1233.681</ele>
        <time>2018-07-05T12:42:07Z</time>
      </trkpt>
      <trkpt lat="46.116932" lon="6.742014">
        <ele>1232.909</ele>
        <time>2018-07-05T12:42:12Z</time>
      </trkpt>
      <trkpt lat="46.116919" lon="6.742078">
        <ele>1232.708</ele>
        <time>2018-07-05T12:42:17Z</time>
      </trkpt>
      <trkpt lat="46.116906" lon="6.742149">
        <ele>1232.776</ele>
        <time>2018-07-05T12:42:21Z</time>
      </trkpt>
      <trkpt lat="46.116890" lon="6.742214">
        <ele>1232.652</ele>
        <time>2018-07-05T12:42:26Z</time>
      </trkpt>
      <trkpt lat="46.116866" lon="6.742284">
        <ele>1232.344</ele>
        <time>2018-07-05T12:42:31Z</time>
      </trkpt>
      <trkpt lat="46.116835" lon="6.742335">
        <ele>1231.850</ele>
        <time>2018-07-05T12:42:36Z</time>
      </trkpt>
      <trkpt lat="46.116789" lon="6.742368">
        <ele>1230.952</ele>
        <time>2018-07-05T12:42:41Z</time>
      </trkpt>
      <trkpt lat="46.116744" lon="6.742381">
        <ele>1229.959</ele>
        <time>2018-07-05T12:42:45Z</time>
      </trkpt>
      <trkpt lat="46.116690" lon="6.742366">
        <ele>1228.695</ele>
        <time>2018-07-05T12:42:50Z</time>
      </trkpt>
      <trkpt lat="46.116645" lon="6.742324">
        <ele>1227.410</ele>
        <time>2018-07-05T12:42:55Z</time>
      </trkpt>
      <trkpt lat="46.116608" lon="6.742272">
        <ele>1226.428</ele>
        <time>2018-07-05T12:43:00Z</time>
      </trkpt>
      <trkpt lat="46.116568" lon="6.742217">
        <ele>1225.289</ele>
        <time>2018-07-05T12:43:05Z</time>
      </trkpt>
      <trkpt lat="46.116531" lon="6.742172">
        <ele>1223.917</ele>
        <time>2018-07-05T12:43:09Z</time>
      </trkpt>
      <trkpt lat="46.116494" lon="6.742126">
        <ele>1222.608</ele>
        <time>2018-07-05T12:43:13Z</time>
      </trkpt>
      <trkpt lat="46.116454" lon="6.742088">
        <ele>1221.494</ele>
        <time>2018-07-05T12:43:17Z</time>
      </trkpt>
      <trkpt lat="46.116404" lon="6.742054">
        <ele>1219.990</ele>
        <time>2018-07-05T12:43:22Z</time>
      </trkpt>
      <trkpt lat="46.116356" lon="6.742077">
        <ele>1219.312</ele>
        <time>2018-07-05T12:43:27Z</time>
      </trkpt>
      <trkpt lat="46.116307" lon="6.742096">
        <ele>1218.568</ele>
        <time>2018-07-05T12:43:32Z</time>
      </trkpt>
      <trkpt lat="46.116262" lon="6.742105">
        <ele>1217.760</ele>
        <time>2018-07-05T12:43:36Z</time>
      </trkpt>
      <trkpt lat="46.116213" lon="6.742105">
        <ele>1216.737</ele>
        <time>2018-07-05T12:43:40Z</time>
      </trkpt>
      <trkpt lat="46.116157" lon="6.742101">
        <ele>1215.573</ele>
        <time>2018-07-05T12:43:44Z</time>
      </trkpt>
      <trkpt lat="46.116107" lon="6.742106">
        <ele>1214.568</ele>
        <time>2018-07-05T12:43:48Z</time>
      </trkpt>
      <trkpt lat="46.116057" lon="6.742133">
        <ele>1213.694</ele>
        <time>2018-07-05T12:43:53Z</time>
      </trkpt>
      <trkpt lat="46.116020" lon="6.742171">
        <ele>1212.957</ele>
        <time>2018-07-05T12:43:58Z</time>
      </trkpt>
      <trkpt lat="46.115998" lon="6.742229">
        <ele>1212.622</ele>
        <time>2018-07-05T12:44:02Z</time>
      </trkpt>
      <trkpt lat="46.115979" lon="6.742293">
        <ele>1212.808</ele>
        <time>2018-07-05T12:44:07Z</time>
      </trkpt>
      <trkpt lat="46.115960" lon="6.742356">
        <ele>1212.951</ele>
        <time>2018-07-05T12:44:11Z</time>
      </trkpt>
      <trkpt lat="46.115934" lon="6.742429">
        <ele>1212.717</ele>
        <time>2018-07-05T12:44:16Z</time>
      </trkpt>
      <trkpt lat="46.115900" lon="6.742489">
        <ele>1212.169</ele>
        <time>2018-07-05T12:44:23Z</time>
      </trkpt>
      <trkpt lat="46.115892" lon="6.742557">
        <ele>1212.595</ele>
        <time>2018-07-05T12:44:27Z</time>
      </trkpt>
      <trkpt lat="46.115895" lon="6.742627">
        <ele>1213.367</ele>
        <time>2018-07-05T12:44:30Z</time>
      </trkpt>
      <trkpt lat="46.115868" lon="6.742679">
        <ele>1213.034</ele>
        <time>2018-07-05T12:44:34Z</time>
      </trkpt>
      <trkpt lat="46.115825" lon="6.742710">
        <ele>1212.190</ele>
        <time>2018-07-05T12:44:39Z</time>
      </trkpt>
      <trkpt lat="46.115785" lon="6.742759">
        <ele>1211.725</ele>
        <time>2018-07-05T12:44:45Z</time>
      </trkpt>
      <trkpt lat="46.115740" lon="6.742808">
        <ele>1211.519</ele>
        <time>2018-07-05T12:44:49Z</time>
      </trkpt>
      <trkpt lat="46.115685" lon="6.742824">
        <ele>1210.709</ele>
        <time>2018-07-05T12:44:53Z</time>
      </trkpt>
      <trkpt lat="46.115633" lon="6.742837">
        <ele>1210.019</ele>
        <time>2018-07-05T12:44:57Z</time>
      </trkpt>
      <trkpt lat="46.115580" lon="6.742806">
        <ele>1208.208</ele>
        <time>2018-07-05T12:45:01Z</time>
      </trkpt>
      <trkpt lat="46.115531" lon="6.742778">
        <ele>1206.673</ele>
        <time>2018-07-05T12:45:04Z</time>
      </trkpt>
      <trkpt lat="46.115478" lon="6.742778">
        <ele>1205.649</ele>
        <time>2018-07-05T12:45:07Z</time>
      </trkpt>
      <trkpt lat="46.115428" lon="6.742783">
        <ele>1204.991</ele>
        <time>2018-07-05T12:45:10Z</time>
      </trkpt>
      <trkpt lat="46.115382" lon="6.742795">
        <ele>1204.527</ele>
        <time>2018-07-05T12:45:15Z</time>
      </trkpt>
      <trkpt lat="46.115350" lon="6.742846">
        <ele>1205.749</ele>
        <time>2018-07-05T12:46:22Z</time>
      </trkpt>
      <trkpt lat="46.115293" lon="6.742828">
        <ele>1204.296</ele>
        <time>2018-07-05T12:46:30Z</time>
      </trkpt>
      <trkpt lat="46.115240" lon="6.742831">
        <ele>1203.372</ele>
        <time>2018-07-05T12:46:35Z</time>
      </trkpt>
      <trkpt lat="46.115189" lon="6.742824">
        <ele>1201.927</ele>
        <time>2018-07-05T12:46:39Z</time>
      </trkpt>
      <trkpt lat="46.115144" lon="6.742817">
        <ele>1200.633</ele>
        <time>2018-07-05T12:46:43Z</time>
      </trkpt>
      <trkpt lat="46.115104" lon="6.742855">
        <ele>1201.123</ele>
        <time>2018-07-05T12:46:48Z</time>
      </trkpt>
      <trkpt lat="46.115054" lon="6.742861">
        <ele>1200.215</ele>
        <time>2018-07-05T12:46:52Z</time>
      </trkpt>
      <trkpt lat="46.115007" lon="6.742863">
        <ele>1199.208</ele>
        <time>2018-07-05T12:46:57Z</time>
      </trkpt>
      <trkpt lat="46.114953" lon="6.742858">
        <ele>1197.745</ele>
        <time>2018-07-05T12:47:03Z</time>
      </trkpt>
      <trkpt lat="46.114908" lon="6.742847">
        <ele>1196.311</ele>
        <time>2018-07-05T12:47:07Z</time>
      </trkpt>
      <trkpt lat="46.114861" lon="6.742836">
        <ele>1194.913</ele>
        <time>2018-07-05T12:47:11Z</time>
      </trkpt>
      <trkpt lat="46.114804" lon="6.742850">
        <ele>1193.839</ele>
        <time>2018-07-05T12:47:16Z</time>
      </trkpt>
      <trkpt lat="46.114756" lon="6.742867">
        <ele>1192.821</ele>
        <time>2018-07-05T12:47:20Z</time>
      </trkpt>
      <trkpt lat="46.114714" lon="6.742903">
        <ele>1192.048</ele>
        <time>2018-07-05T12:47:27Z</time>
      </trkpt>
      <trkpt lat="46.114706" lon="6.742974">
        <ele>1192.324</ele>
        <time>2018-07-05T12:47:39Z</time>
      </trkpt>
      <trkpt lat="46.114739" lon="6.743028">
        <ele>1194.449</ele>
        <time>2018-07-05T12:47:43Z</time>
      </trkpt>
      <trkpt lat="46.114756" lon="6.743097">
        <ele>1195.286</ele>
        <time>2018-07-05T12:47:48Z</time>
      </trkpt>
      <trkpt lat="46.114765" lon="6.743169">
        <ele>1195.260</ele>
        <time>2018-07-05T12:47:53Z</time>
      </trkpt>
      <trkpt lat="46.114769" lon="6.743239">
        <ele>1195.026</ele>
        <time>2018-07-05T12:47:58Z</time>
      </trkpt>
      <trkpt lat="46.114777" lon="6.743308">
        <ele>1195.308</ele>
        <time>2018-07-05T12:48:03Z</time>
      </trkpt>
      <trkpt lat="46.114772" lon="6.743386">
        <ele>1193.810</ele>
        <time>2018-07-05T12:48:07Z</time>
      </trkpt>
      <trkpt lat="46.114787" lon="6.743449">
        <ele>1193.926</ele>
        <time>2018-07-05T12:48:11Z</time>
      </trkpt>
      <trkpt lat="46.114808" lon="6.743507">
        <ele>1194.638</ele>
        <time>2018-07-05T12:48:15Z</time>
      </trkpt>
      <trkpt lat="46.114816" lon="6.743586">
        <ele>1193.834</ele>
        <time>2018-07-05T12:48:20Z</time>
      </trkpt>
      <trkpt lat="46.114824" lon="6.743668">
        <ele>1193.186</ele>
        <time>2018-07-05T12:48:25Z</time>
      </trkpt>
      <trkpt lat="46.114838" lon="6.743748">
        <ele>1192.823</ele>
        <time>2018-07-05T12:48:29Z</time>
      </trkpt>
      <trkpt lat="46.114855" lon="6.743808">
        <ele>1193.029</ele>
        <time>2018-07-05T12:48:33Z</time>
      </trkpt>
      <trkpt lat="46.114879" lon="6.743864">
        <ele>1193.794</ele>
        <time>2018-07-05T12:48:38Z</time>
      </trkpt>
      <trkpt lat="46.114919" lon="6.743895">
        <ele>1196.076</ele>
        <time>2018-07-05T12:48:41Z</time>
      </trkpt>
      <trkpt lat="46.114951" lon="6.743949">
        <ele>1197.290</ele>
        <time>2018-07-05T12:48:46Z</time>
      </trkpt>
      <trkpt lat="46.114970" lon="6.744024">
        <ele>1196.919</ele>
        <time>2018-07-05T12:48:51Z</time>
      </trkpt>
      <trkpt lat="46.114989" lon="6.744089">
        <ele>1196.908</ele>
        <time>2018-07-05T12:48:55Z</time>
      </trkpt>
      <trkpt lat="46.115016" lon="6.744142">
        <ele>1197.869</ele>
        <time>2018-07-05T12:49:01Z</time>
      </trkpt>
      <trkpt lat="46.115036" lon="6.744204">
        <ele>1197.895</ele>
        <time>2018-07-05T12:49:05Z</time>
      </trkpt>
      <trkpt lat="46.115059" lon="6.744281">
        <ele>1197.477</ele>
        <time>2018-07-05T12:49:09Z</time>
      </trkpt>
      <trkpt lat="46.115087" lon="6.744340">
        <ele>1197.953</ele>
        <time>2018-07-05T12:49:12Z</time>
      </trkpt>
      <trkpt lat="46.115089" lon="6.744407">
        <ele>1196.145</ele>
        <time>2018-07-05T12:49:17Z</time>
      </trkpt>
      <trkpt lat="46.115097" lon="6.744474">
        <ele>1194.982</ele>
        <time>2018-07-05T12:49:21Z</time>
      </trkpt>
      <trkpt lat="46.115105" lon="6.744546">
        <ele>1193.518</ele>
        <time>2018-07-05T12:49:27Z</time>
      </trkpt>
      <trkpt lat="46.115101" lon="6.744614">
        <ele>1191.363</ele>
        <time>2018-07-05T12:49:33Z</time>
      </trkpt>
      <trkpt lat="46.115111" lon="6.744690">
        <ele>1190.142</ele>
        <time>2018-07-05T12:49:39Z</time>
      </trkpt>
      <trkpt lat="46.115119" lon="6.744768">
        <ele>1188.722</ele>
        <time>2018-07-05T12:49:45Z</time>
      </trkpt>
      <trkpt lat="46.115124" lon="6.744842">
        <ele>1187.314</ele>
        <time>2018-07-05T12:49:50Z</time>
      </trkpt>
      <trkpt lat="46.115133" lon="6.744909">
        <ele>1186.308</ele>
        <time>2018-07-05T12:49:55Z</time>
      </trkpt>
      <trkpt lat="46.115149" lon="6.744986">
        <ele>1185.696</ele>
        <time>2018-07-05T12:50:00Z</time>
      </trkpt>
      <trkpt lat="46.115168" lon="6.745052">
        <ele>1185.122</ele>
        <time>2018-07-05T12:50:04Z</time>
      </trkpt>
      <trkpt lat="46.115193" lon="6.745128">
        <ele>1184.474</ele>
        <time>2018-07-05T12:50:07Z</time>
      </trkpt>
      <trkpt lat="46.115221" lon="6.745185">
        <ele>1184.540</ele>
        <time>2018-07-05T12:50:10Z</time>
      </trkpt>
      <trkpt lat="46.115246" lon="6.745250">
        <ele>1183.942</ele>
        <time>2018-07-05T12:50:14Z</time>
      </trkpt>
      <trkpt lat="46.115263" lon="6.745313">
        <ele>1182.829</ele>
        <time>2018-07-05T12:50:18Z</time>
      </trkpt>
      <trkpt lat="46.115282" lon="6.745381">
        <ele>1181.515</ele>
        <time>2018-07-05T12:50:23Z</time>
      </trkpt>
      <trkpt lat="46.115266" lon="6.745442">
        <ele>1178.380</ele>
        <time>2018-07-05T12:50:29Z</time>
      </trkpt>
      <trkpt lat="46.115267" lon="6.745516">
        <ele>1175.893</ele>
        <time>2018-07-05T12:50:33Z</time>
      </trkpt>
      <trkpt lat="46.115284" lon="6.745582">
        <ele>1174.365</ele>
        <time>2018-07-05T12:50:37Z</time>
      </trkpt>
      <trkpt lat="46.115326" lon="6.745615">
        <ele>1175.121</ele>
        <time>2018-07-05T12:50:42Z</time>
      </trkpt>
      <trkpt lat="46.115372" lon="6.745609">
        <ele>1177.808</ele>
        <time>2018-07-05T12:50:47Z</time>
      </trkpt>
      <trkpt lat="46.115430" lon="6.745621">
        <ele>1180.251</ele>
        <time>2018-07-05T12:50:51Z</time>
      </trkpt>
      <trkpt lat="46.115471" lon="6.745652">
        <ele>1180.957</ele>
        <time>2018-07-05T12:50:56Z</time>
      </trkpt>
      <trkpt lat="46.115499" lon="6.745708">
        <ele>1179.679</ele>
        <time>2018-07-05T12:51:02Z</time>
      </trkpt>
      <trkpt lat="46.115527" lon="6.745779">
        <ele>1177.485</ele>
        <time>2018-07-05T12:51:07Z</time>
      </trkpt>
      <trkpt lat="46.115557" lon="6.745839">
        <ele>1176.077</ele>
        <time>2018-07-05T12:51:11Z</time>
      </trkpt>
      <trkpt lat="46.115580" lon="6.745913">
        <ele>1176.044</ele>
        <time>2018-07-05T12:51:14Z</time>
      </trkpt>
      <trkpt lat="46.115593" lon="6.745987">
        <ele>1175.120</ele>
        <time>2018-07-05T12:51:18Z</time>
      </trkpt>
      <trkpt lat="46.115590" lon="6.746062">
        <ele>1172.975</ele>
        <time>2018-07-05T12:51:22Z</time>
      </trkpt>
      <trkpt lat="46.115573" lon="6.746122">
        <ele>1170.161</ele>
        <time>2018-07-05T12:51:27Z</time>
      </trkpt>
      <trkpt lat="46.115593" lon="6.746237">
        <ele>1169.421</ele>
        <time>2018-07-05T12:51:41Z</time>
      </trkpt>
      <trkpt lat="46.115593" lon="6.746306">
        <ele>1168.013</ele>
        <time>2018-07-05T12:51:46Z</time>
      </trkpt>
      <trkpt lat="46.115589" lon="6.746378">
        <ele>1166.408</ele>
        <time>2018-07-05T12:51:50Z</time>
      </trkpt>
      <trkpt lat="46.115601" lon="6.746459">
        <ele>1165.418</ele>
        <time>2018-07-05T12:51:54Z</time>
      </trkpt>
      <trkpt lat="46.115609" lon="6.746533">
        <ele>1164.324</ele>
        <time>2018-07-05T12:51:58Z</time>
      </trkpt>
      <trkpt lat="46.115620" lon="6.746597">
        <ele>1163.516</ele>
        <time>2018-07-05T12:52:03Z</time>
      </trkpt>
      <trkpt lat="46.115622" lon="6.746672">
        <ele>1162.092</ele>
        <time>2018-07-05T12:52:07Z</time>
      </trkpt>
      <trkpt lat="46.115630" lon="6.746751">
        <ele>1161.024</ele>
        <time>2018-07-05T12:52:11Z</time>
      </trkpt>
      <trkpt lat="46.115639" lon="6.746836">
        <ele>1160.181</ele>
        <time>2018-07-05T12:52:15Z</time>
      </trkpt>
      <trkpt lat="46.115638" lon="6.746914">
        <ele>1158.677</ele>
        <time>2018-07-05T12:52:19Z</time>
      </trkpt>
      <trkpt lat="46.115652" lon="6.746990">
        <ele>1158.452</ele>
        <time>2018-07-05T12:52:24Z</time>
      </trkpt>
      <trkpt lat="46.115680" lon="6.747049">
        <ele>1159.392</ele>
        <time>2018-07-05T12:52:28Z</time>
      </trkpt>
      <trkpt lat="46.115685" lon="6.747119">
        <ele>1158.773</ele>
        <time>2018-07-05T12:52:33Z</time>
      </trkpt>
      <trkpt lat="46.115670" lon="6.747193">
        <ele>1157.020</ele>
        <time>2018-07-05T12:52:37Z</time>
      </trkpt>
      <trkpt lat="46.115650" lon="6.747257">
        <ele>1155.608</ele>
        <time>2018-07-05T12:52:41Z</time>
      </trkpt>
      <trkpt lat="46.115634" lon="6.747321">
        <ele>1154.921</ele>
        <time>2018-07-05T12:52:45Z</time>
      </trkpt>
      <trkpt lat="46.115619" lon="6.747385">
        <ele>1154.477</ele>
        <time>2018-07-05T12:52:49Z</time>
      </trkpt>
      <trkpt lat="46.115598" lon="6.747448">
        <ele>1153.749</ele>
        <time>2018-07-05T12:52:53Z</time>
      </trkpt>
      <trkpt lat="46.115569" lon="6.747510">
        <ele>1152.775</ele>
        <time>2018-07-05T12:52:58Z</time>
      </trkpt>
      <trkpt lat="46.115536" lon="6.747576">
        <ele>1151.697</ele>
        <time>2018-07-05T12:53:03Z</time>
      </trkpt>
      <trkpt lat="46.115506" lon="6.747630">
        <ele>1150.824</ele>
        <time>2018-07-05T12:53:07Z</time>
      </trkpt>
      <trkpt lat="46.115473" lon="6.747692">
        <ele>1150.020</ele>
        <time>2018-07-05T12:53:12Z</time>
      </trkpt>
      <trkpt lat="46.115444" lon="6.747744">
        <ele>1149.515</ele>
        <time>2018-07-05T12:53:16Z</time>
      </trkpt>
      <trkpt lat="46.115414" lon="6.747801">
        <ele>1149.214</ele>
        <time>2018-07-05T12:53:21Z</time>
      </trkpt>
      <trkpt lat="46.115386" lon="6.747857">
        <ele>1148.954</ele>
        <time>2018-07-05T12:53:25Z</time>
      </trkpt>
      <trkpt lat="46.115356" lon="6.747907">
        <ele>1148.509</ele>
        <time>2018-07-05T12:53:29Z</time>
      </trkpt>
      <trkpt lat="46.115311" lon="6.747930">
        <ele>1147.308</ele>
        <time>2018-07-05T12:53:34Z</time>
      </trkpt>
      <trkpt lat="46.115263" lon="6.747948">
        <ele>1146.083</ele>
        <time>2018-07-05T12:53:38Z</time>
      </trkpt>
      <trkpt lat="46.115214" lon="6.747978">
        <ele>1144.929</ele>
        <time>2018-07-05T12:53:43Z</time>
      </trkpt>
      <trkpt lat="46.115168" lon="6.747995">
        <ele>1143.791</ele>
        <time>2018-07-05T12:53:53Z</time>
      </trkpt>
      <trkpt lat="46.115113" lon="6.747971">
        <ele>1141.697</ele>
        <time>2018-07-05T12:54:00Z</time>
      </trkpt>
      <trkpt lat="46.115062" lon="6.747975">
        <ele>1140.199</ele>
        <time>2018-07-05T12:54:04Z</time>
      </trkpt>
      <trkpt lat="46.115009" lon="6.747982">
        <ele>1138.516</ele>
        <time>2018-07-05T12:54:08Z</time>
      </trkpt>
      <trkpt lat="46.114972" lon="6.748020">
        <ele>1138.112</ele>
        <time>2018-07-05T12:54:12Z</time>
      </trkpt>
      <trkpt lat="46.114921" lon="6.748049">
        <ele>1137.597</ele>
        <time>2018-07-05T12:54:16Z</time>
      </trkpt>
      <trkpt lat="46.114883" lon="6.748095">
        <ele>1137.516</ele>
        <time>2018-07-05T12:54:20Z</time>
      </trkpt>
      <trkpt lat="46.114846" lon="6.748133">
        <ele>1137.376</ele>
        <time>2018-07-05T12:54:24Z</time>
      </trkpt>
      <trkpt lat="46.114796" lon="6.748157">
        <ele>1136.813</ele>
        <time>2018-07-05T12:54:29Z</time>
      </trkpt>
      <trkpt lat="46.114746" lon="6.748151">
        <ele>1135.808</ele>
        <time>2018-07-05T12:54:33Z</time>
      </trkpt>
      <trkpt lat="46.114693" lon="6.748162">
        <ele>1134.873</ele>
        <time>2018-07-05T12:54:38Z</time>
      </trkpt>
      <trkpt lat="46.114649" lon="6.748183">
        <ele>1134.169</ele>
        <time>2018-07-05T12:54:44Z</time>
      </trkpt>
      <trkpt lat="46.114611" lon="6.748223">
        <ele>1133.821</ele>
        <time>2018-07-05T12:54:50Z</time>
      </trkpt>
      <trkpt lat="46.114556" lon="6.748262">
        <ele>1133.287</ele>
        <time>2018-07-05T12:54:54Z</time>
      </trkpt>
      <trkpt lat="46.114499" lon="6.748283">
        <ele>1132.349</ele>
        <time>2018-07-05T12:54:58Z</time>
      </trkpt>
      <trkpt lat="46.114448" lon="6.748311">
        <ele>1131.776</ele>
        <time>2018-07-05T12:55:02Z</time>
      </trkpt>
      <trkpt lat="46.114407" lon="6.748339">
        <ele>1130.952</ele>
        <time>2018-07-05T12:55:06Z</time>
      </trkpt>
      <trkpt lat="46.114359" lon="6.748380">
        <ele>1130.587</ele>
        <time>2018-07-05T12:55:11Z</time>
      </trkpt>
      <trkpt lat="46.114324" lon="6.748429">
        <ele>1130.642</ele>
        <time>2018-07-05T12:55:16Z</time>
      </trkpt>
      <trkpt lat="46.114290" lon="6.748478">
        <ele>1130.422</ele>
        <time>2018-07-05T12:55:21Z</time>
      </trkpt>
      <trkpt lat="46.114250" lon="6.748536">
        <ele>1130.014</ele>
        <time>2018-07-05T12:55:25Z</time>
      </trkpt>
      <trkpt lat="46.114214" lon="6.748585">
        <ele>1129.208</ele>
        <time>2018-07-05T12:55:29Z</time>
      </trkpt>
      <trkpt lat="46.114184" lon="6.748641">
        <ele>1128.856</ele>
        <time>2018-07-05T12:55:33Z</time>
      </trkpt>
      <trkpt lat="46.114162" lon="6.748709">
        <ele>1129.232</ele>
        <time>2018-07-05T12:55:38Z</time>
      </trkpt>
      <trkpt lat="46.114130" lon="6.748762">
        <ele>1128.564</ele>
        <time>2018-07-05T12:55:43Z</time>
      </trkpt>
      <trkpt lat="46.114101" lon="6.748815">
        <ele>1127.920</ele>
        <time>2018-07-05T12:55:48Z</time>
      </trkpt>
      <trkpt lat="46.114088" lon="6.748880">
        <ele>1128.472</ele>
        <time>2018-07-05T12:55:53Z</time>
      </trkpt>
      <trkpt lat="46.114054" lon="6.748933">
        <ele>1127.129</ele>
        <time>2018-07-05T12:55:58Z</time>
      </trkpt>
      <trkpt lat="46.114024" lon="6.748997">
        <ele>1126.275</ele>
        <time>2018-07-05T12:56:02Z</time>
      </trkpt>
      <trkpt lat="46.114009" lon="6.749064">
        <ele>1126.350</ele>
        <time>2018-07-05T12:56:06Z</time>
      </trkpt>
      <trkpt lat="46.113987" lon="6.749126">
        <ele>1125.768</ele>
        <time>2018-07-05T12:56:11Z</time>
      </trkpt>
      <trkpt lat="46.113956" lon="6.749186">
        <ele>1124.342</ele>
        <time>2018-07-05T12:56:16Z</time>
      </trkpt>
      <trkpt lat="46.113927" lon="6.749256">
        <ele>1122.926</ele>
        <time>2018-07-05T12:56:21Z</time>
      </trkpt>
      <trkpt lat="46.113904" lon="6.749330">
        <ele>1121.908</ele>
        <time>2018-07-05T12:56:26Z</time>
      </trkpt>
      <trkpt lat="46.113876" lon="6.749402">
        <ele>1121.068</ele>
        <time>2018-07-05T12:56:31Z</time>
      </trkpt>
      <trkpt lat="46.113854" lon="6.749461">
        <ele>1120.624</ele>
        <time>2018-07-05T12:56:35Z</time>
      </trkpt>
      <trkpt lat="46.113840" lon="6.749525">
        <ele>1120.676</ele>
        <time>2018-07-05T12:56:39Z</time>
      </trkpt>
      <trkpt lat="46.113827" lon="6.749593">
        <ele>1120.682</ele>
        <time>2018-07-05T12:56:43Z</time>
      </trkpt>
      <trkpt lat="46.113791" lon="6.749654">
        <ele>1119.874</ele>
        <time>2018-07-05T12:56:48Z</time>
      </trkpt>
      <trkpt lat="46.113753" lon="6.749695">
        <ele>1118.821</ele>
        <time>2018-07-05T12:56:52Z</time>
      </trkpt>
      <trkpt lat="46.113712" lon="6.749723">
        <ele>1117.787</ele>
        <time>2018-07-05T12:56:56Z</time>
      </trkpt>
      <trkpt lat="46.113667" lon="6.749738">
        <ele>1116.592</ele>
        <time>2018-07-05T12:57:01Z</time>
      </trkpt>
      <trkpt lat="46.113613" lon="6.749736">
        <ele>1114.575</ele>
        <time>2018-07-05T12:57:07Z</time>
      </trkpt>
      <trkpt lat="46.113568" lon="6.749740">
        <ele>1113.928</ele>
        <time>2018-07-05T12:57:11Z</time>
      </trkpt>
      <trkpt lat="46.113523" lon="6.749735">
        <ele>1113.120</ele>
        <time>2018-07-05T12:57:15Z</time>
      </trkpt>
      <trkpt lat="46.113477" lon="6.749718">
        <ele>1112.008</ele>
        <time>2018-07-05T12:57:19Z</time>
      </trkpt>
      <trkpt lat="46.113432" lon="6.749703">
        <ele>1111.199</ele>
        <time>2018-07-05T12:57:23Z</time>
      </trkpt>
      <trkpt lat="46.113380" lon="6.749691">
        <ele>1110.185</ele>
        <time>2018-07-05T12:57:27Z</time>
      </trkpt>
      <trkpt lat="46.113330" lon="6.749695">
        <ele>1109.597</ele>
        <time>2018-07-05T12:57:31Z</time>
      </trkpt>
      <trkpt lat="46.113278" lon="6.749700">
        <ele>1108.853</ele>
        <time>2018-07-05T12:57:35Z</time>
      </trkpt>
      <trkpt lat="46.113223" lon="6.749712">
        <ele>1108.265</ele>
        <time>2018-07-05T12:57:40Z</time>
      </trkpt>
      <trkpt lat="46.113172" lon="6.749730">
        <ele>1107.932</ele>
        <time>2018-07-05T12:57:45Z</time>
      </trkpt>
      <trkpt lat="46.113121" lon="6.749736">
        <ele>1107.388</ele>
        <time>2018-07-05T12:57:49Z</time>
      </trkpt>
      <trkpt lat="46.113073" lon="6.749722">
        <ele>1106.263</ele>
        <time>2018-07-05T12:57:53Z</time>
      </trkpt>
      <trkpt lat="46.113029" lon="6.749694">
        <ele>1104.484</ele>
        <time>2018-07-05T12:57:57Z</time>
      </trkpt>
      <trkpt lat="46.112988" lon="6.749665">
        <ele>1102.207</ele>
        <time>2018-07-05T12:58:01Z</time>
      </trkpt>
      <trkpt lat="46.112943" lon="6.749638">
        <ele>1099.917</ele>
        <time>2018-07-05T12:58:05Z</time>
      </trkpt>
      <trkpt lat="46.112896" lon="6.749630">
        <ele>1097.808</ele>
        <time>2018-07-05T12:58:10Z</time>
      </trkpt>
      <trkpt lat="46.112853" lon="6.749663">
        <ele>1096.540</ele>
        <time>2018-07-05T12:58:15Z</time>
      </trkpt>
      <trkpt lat="46.112829" lon="6.749720">
        <ele>1096.236</ele>
        <time>2018-07-05T12:58:19Z</time>
      </trkpt>
      <trkpt lat="46.112815" lon="6.749790">
        <ele>1096.928</ele>
        <time>2018-07-05T12:58:23Z</time>
      </trkpt>
      <trkpt lat="46.112801" lon="6.749865">
        <ele>1097.784</ele>
        <time>2018-07-05T12:58:27Z</time>
      </trkpt>
      <trkpt lat="46.112780" lon="6.749925">
        <ele>1097.846</ele>
        <time>2018-07-05T12:58:31Z</time>
      </trkpt>
      <trkpt lat="46.112758" lon="6.749986">
        <ele>1098.483</ele>
        <time>2018-07-05T12:58:35Z</time>
      </trkpt>
      <trkpt lat="46.112727" lon="6.750053">
        <ele>1098.779</ele>
        <time>2018-07-05T12:58:40Z</time>
      </trkpt>
      <trkpt lat="46.112696" lon="6.750112">
        <ele>1098.754</ele>
        <time>2018-07-05T12:58:45Z</time>
      </trkpt>
      <trkpt lat="46.112647" lon="6.750172">
        <ele>1098.585</ele>
        <time>2018-07-05T12:59:51Z</time>
      </trkpt>
      <trkpt lat="46.112593" lon="6.750182">
        <ele>1097.689</ele>
        <time>2018-07-05T13:00:10Z</time>
      </trkpt>
      <trkpt lat="46.112584" lon="6.750116">
        <ele>1096.817</ele>
        <time>2018-07-05T13:00:22Z</time>
      </trkpt>
      <trkpt lat="46.112589" lon="6.750038">
        <ele>1096.008</ele>
        <time>2018-07-05T13:00:28Z</time>
      </trkpt>
      <trkpt lat="46.112611" lon="6.749980">
        <ele>1095.790</ele>
        <time>2018-07-05T13:00:33Z</time>
      </trkpt>
      <trkpt lat="46.112615" lon="6.749915">
        <ele>1094.736</ele>
        <time>2018-07-05T13:00:45Z</time>
      </trkpt>
      <trkpt lat="46.112640" lon="6.749861">
        <ele>1094.388</ele>
        <time>2018-07-05T13:00:51Z</time>
      </trkpt>
      <trkpt lat="46.112631" lon="6.749791">
        <ele>1093.064</ele>
        <time>2018-07-05T13:00:56Z</time>
      </trkpt>
      <trkpt lat="46.112617" lon="6.749726">
        <ele>1091.746</ele>
        <time>2018-07-05T13:01:00Z</time>
      </trkpt>
      <trkpt lat="46.112606" lon="6.749647">
        <ele>1090.743</ele>
        <time>2018-07-05T13:01:05Z</time>
      </trkpt>
      <trkpt lat="46.112615" lon="6.749577">
        <ele>1090.189</ele>
        <time>2018-07-05T13:01:10Z</time>
      </trkpt>
      <trkpt lat="46.112625" lon="6.749504">
        <ele>1089.434</ele>
        <time>2018-07-05T13:01:16Z</time>
      </trkpt>
      <trkpt lat="46.112635" lon="6.749436">
        <ele>1088.996</ele>
        <time>2018-07-05T13:01:23Z</time>
      </trkpt>
      <trkpt lat="46.112644" lon="6.749372">
        <ele>1088.331</ele>
        <time>2018-07-05T13:01:28Z</time>
      </trkpt>
      <trkpt lat="46.112655" lon="6.749301">
        <ele>1087.624</ele>
        <time>2018-07-05T13:01:33Z</time>
      </trkpt>
      <trkpt lat="46.112662" lon="6.749236">
        <ele>1087.008</ele>
        <time>2018-07-05T13:01:38Z</time>
      </trkpt>
      <trkpt lat="46.112669" lon="6.749169">
        <ele>1086.271</ele>
        <time>2018-07-05T13:01:52Z</time>
      </trkpt>
      <trkpt lat="46.112678" lon="6.749105">
        <ele>1085.317</ele>
        <time>2018-07-05T13:01:59Z</time>
      </trkpt>
      <trkpt lat="46.112713" lon="6.749057">
        <ele>1084.739</ele>
        <time>2018-07-05T13:02:08Z</time>
      </trkpt>
      <trkpt lat="46.112717" lon="6.748982">
        <ele>1083.515</ele>
        <time>2018-07-05T13:02:19Z</time>
      </trkpt>
      <trkpt lat="46.112717" lon="6.748910">
        <ele>1082.337</ele>
        <time>2018-07-05T13:02:24Z</time>
      </trkpt>
      <trkpt lat="46.112702" lon="6.748830">
        <ele>1081.284</ele>
        <time>2018-07-05T13:02:28Z</time>
      </trkpt>
      <trkpt lat="46.112698" lon="6.748753">
        <ele>1080.250</ele>
        <time>2018-07-05T13:02:32Z</time>
      </trkpt>
      <trkpt lat="46.112704" lon="6.748670">
        <ele>1079.165</ele>
        <time>2018-07-05T13:02:37Z</time>
      </trkpt>
      <trkpt lat="46.112718" lon="6.748606">
        <ele>1078.133</ele>
        <time>2018-07-05T13:02:41Z</time>
      </trkpt>
      <trkpt lat="46.112732" lon="6.748538">
        <ele>1076.723</ele>
        <time>2018-07-05T13:02:46Z</time>
      </trkpt>
      <trkpt lat="46.112736" lon="6.748472">
        <ele>1075.315</ele>
        <time>2018-07-05T13:02:52Z</time>
      </trkpt>
      <trkpt lat="46.112725" lon="6.748397">
        <ele>1073.808</ele>
        <time>2018-07-05T13:02:58Z</time>
      </trkpt>
      <trkpt lat="46.112710" lon="6.748326">
        <ele>1072.125</ele>
        <time>2018-07-05T13:03:02Z</time>
      </trkpt>
      <trkpt lat="46.112704" lon="6.748251">
        <ele>1070.391</ele>
        <time>2018-07-05T13:03:07Z</time>
      </trkpt>
      <trkpt lat="46.112682" lon="6.748187">
        <ele>1068.623</ele>
        <time>2018-07-05T13:03:12Z</time>
      </trkpt>
      <trkpt lat="46.112652" lon="6.748133">
        <ele>1067.039</ele>
        <time>2018-07-05T13:03:17Z</time>
      </trkpt>
      <trkpt lat="46.112617" lon="6.748085">
        <ele>1065.421</ele>
        <time>2018-07-05T13:03:23Z</time>
      </trkpt>
      <trkpt lat="46.112583" lon="6.748034">
        <ele>1063.868</ele>
        <time>2018-07-05T13:03:29Z</time>
      </trkpt>
      <trkpt lat="46.112534" lon="6.748012">
        <ele>1062.774</ele>
        <time>2018-07-05T13:03:34Z</time>
      </trkpt>
      <trkpt lat="46.112485" lon="6.748027">
        <ele>1062.129</ele>
        <time>2018-07-05T13:03:39Z</time>
      </trkpt>
      <trkpt lat="46.112455" lon="6.748079">
        <ele>1062.227</ele>
        <time>2018-07-05T13:03:45Z</time>
      </trkpt>
      <trkpt lat="46.112430" lon="6.748136">
        <ele>1062.768</ele>
        <time>2018-07-05T13:03:50Z</time>
      </trkpt>
      <trkpt lat="46.112423" lon="6.748207">
        <ele>1064.014</ele>
        <time>2018-07-05T13:03:55Z</time>
      </trkpt>
      <trkpt lat="46.112395" lon="6.748277">
        <ele>1064.408</ele>
        <time>2018-07-05T13:04:01Z</time>
      </trkpt>
      <trkpt lat="46.112369" lon="6.748343">
        <ele>1064.614</ele>
        <time>2018-07-05T13:04:06Z</time>
      </trkpt>
      <trkpt lat="46.112329" lon="6.748384">
        <ele>1064.090</ele>
        <time>2018-07-05T13:04:10Z</time>
      </trkpt>
      <trkpt lat="46.112321" lon="6.748473">
        <ele>1066.132</ele>
        <time>2018-07-05T13:04:14Z</time>
      </trkpt>
      <trkpt lat="46.112300" lon="6.748532">
        <ele>1066.828</ele>
        <time>2018-07-05T13:04:17Z</time>
      </trkpt>
      <trkpt lat="46.112265" lon="6.748574">
        <ele>1066.210</ele>
        <time>2018-07-05T13:04:23Z</time>
      </trkpt>
      <trkpt lat="46.112220" lon="6.748598">
        <ele>1064.687</ele>
        <time>2018-07-05T13:04:27Z</time>
      </trkpt>
      <trkpt lat="46.112177" lon="6.748621">
        <ele>1064.273</ele>
        <time>2018-07-05T13:04:30Z</time>
      </trkpt>
      <trkpt lat="46.112130" lon="6.748635">
        <ele>1063.688</ele>
        <time>2018-07-05T13:04:34Z</time>
      </trkpt>
      <trkpt lat="46.112084" lon="6.748636">
        <ele>1062.482</ele>
        <time>2018-07-05T13:04:38Z</time>
      </trkpt>
      <trkpt lat="46.112033" lon="6.748611">
        <ele>1060.243</ele>
        <time>2018-07-05T13:04:42Z</time>
      </trkpt>
      <trkpt lat="46.111989" lon="6.748593">
        <ele>1058.817</ele>
        <time>2018-07-05T13:04:46Z</time>
      </trkpt>
      <trkpt lat="46.111953" lon="6.748537">
        <ele>1056.908</ele>
        <time>2018-07-05T13:04:51Z</time>
      </trkpt>
      <trkpt lat="46.111911" lon="6.748480">
        <ele>1055.220</ele>
        <time>2018-07-05T13:04:57Z</time>
      </trkpt>
      <trkpt lat="46.111874" lon="6.748430">
        <ele>1053.746</ele>
        <time>2018-07-05T13:05:02Z</time>
      </trkpt>
      <trkpt lat="46.111842" lon="6.748368">
        <ele>1052.158</ele>
        <time>2018-07-05T13:05:09Z</time>
      </trkpt>
      <trkpt lat="46.111803" lon="6.748311">
        <ele>1050.774</ele>
        <time>2018-07-05T13:05:14Z</time>
      </trkpt>
      <trkpt lat="46.111763" lon="6.748261">
        <ele>1049.736</ele>
        <time>2018-07-05T13:05:19Z</time>
      </trkpt>
      <trkpt lat="46.111733" lon="6.748211">
        <ele>1048.983</ele>
        <time>2018-07-05T13:05:24Z</time>
      </trkpt>
      <trkpt lat="46.111692" lon="6.748159">
        <ele>1048.039</ele>
        <time>2018-07-05T13:06:08Z</time>
      </trkpt>
      <trkpt lat="46.111664" lon="6.748093">
        <ele>1047.344</ele>
        <time>2018-07-05T13:06:15Z</time>
      </trkpt>
      <trkpt lat="46.111628" lon="6.748041">
        <ele>1046.888</ele>
        <time>2018-07-05T13:06:27Z</time>
      </trkpt>
      <trkpt lat="46.111588" lon="6.747987">
        <ele>1046.524</ele>
        <time>2018-07-05T13:06:31Z</time>
      </trkpt>
      <trkpt lat="46.111557" lon="6.747927">
        <ele>1046.126</ele>
        <time>2018-07-05T13:06:35Z</time>
      </trkpt>
      <trkpt lat="46.111529" lon="6.747866">
        <ele>1045.808</ele>
        <time>2018-07-05T13:06:40Z</time>
      </trkpt>
      <trkpt lat="46.111512" lon="6.747803">
        <ele>1045.550</ele>
        <time>2018-07-05T13:06:45Z</time>
      </trkpt>
      <trkpt lat="46.111488" lon="6.747743">
        <ele>1045.196</ele>
        <time>2018-07-05T13:06:54Z</time>
      </trkpt>
      <trkpt lat="46.111455" lon="6.747687">
        <ele>1044.638</ele>
        <time>2018-07-05T13:06:59Z</time>
      </trkpt>
      <trkpt lat="46.111436" lon="6.747617">
        <ele>1044.024</ele>
        <time>2018-07-05T13:07:04Z</time>
      </trkpt>
      <trkpt lat="46.111413" lon="6.747557">
        <ele>1043.566</ele>
        <time>2018-07-05T13:07:09Z</time>
      </trkpt>
      <trkpt lat="46.111379" lon="6.747499">
        <ele>1042.973</ele>
        <time>2018-07-05T13:07:14Z</time>
      </trkpt>
      <trkpt lat="46.111341" lon="6.747455">
        <ele>1042.419</ele>
        <time>2018-07-05T13:07:20Z</time>
      </trkpt>
      <trkpt lat="46.111309" lon="6.747391">
        <ele>1041.894</ele>
        <time>2018-07-05T13:07:26Z</time>
      </trkpt>
      <trkpt lat="46.111276" lon="6.747346">
        <ele>1041.347</ele>
        <time>2018-07-05T13:07:30Z</time>
      </trkpt>
      <trkpt lat="46.111235" lon="6.747301">
        <ele>1040.929</ele>
        <time>2018-07-05T13:07:34Z</time>
      </trkpt>
      <trkpt lat="46.111205" lon="6.747240">
        <ele>1040.421</ele>
        <time>2018-07-05T13:07:38Z</time>
      </trkpt>
      <trkpt lat="46.111176" lon="6.747189">
        <ele>1040.008</ele>
        <time>2018-07-05T13:07:43Z</time>
      </trkpt>
      <trkpt lat="46.111135" lon="6.747141">
        <ele>1039.526</ele>
        <time>2018-07-05T13:07:49Z</time>
      </trkpt>
      <trkpt lat="46.111089" lon="6.747103">
        <ele>1039.112</ele>
        <time>2018-07-05T13:07:54Z</time>
      </trkpt>
      <trkpt lat="46.111047" lon="6.747070">
        <ele>1038.874</ele>
        <time>2018-07-05T13:07:58Z</time>
      </trkpt>
      <trkpt lat="46.111004" lon="6.747030">
        <ele>1038.310</ele>
        <time>2018-07-05T13:08:02Z</time>
      </trkpt>
      <trkpt lat="46.110961" lon="6.746996">
        <ele>1037.942</ele>
        <time>2018-07-05T13:08:06Z</time>
      </trkpt>
      <trkpt lat="46.110913" lon="6.746952">
        <ele>1037.469</ele>
        <time>2018-07-05T13:08:11Z</time>
      </trkpt>
      <trkpt lat="46.110866" lon="6.746921">
        <ele>1036.925</ele>
        <time>2018-07-05T13:08:17Z</time>
      </trkpt>
      <trkpt lat="46.110823" lon="6.746893">
        <ele>1036.610</ele>
        <time>2018-07-05T13:08:22Z</time>
      </trkpt>
      <trkpt lat="46.110781" lon="6.746869">
        <ele>1036.543</ele>
        <time>2018-07-05T13:08:26Z</time>
      </trkpt>
      <trkpt lat="46.110737" lon="6.746835">
        <ele>1036.264</ele>
        <time>2018-07-05T13:08:30Z</time>
      </trkpt>
      <trkpt lat="46.110698" lon="6.746791">
        <ele>1035.910</ele>
        <time>2018-07-05T13:08:34Z</time>
      </trkpt>
      <trkpt lat="46.110664" lon="6.746734">
        <ele>1035.508</ele>
        <time>2018-07-05T13:08:39Z</time>
      </trkpt>
      <trkpt lat="46.110629" lon="6.746691">
        <ele>1035.256</ele>
        <time>2018-07-05T13:08:43Z</time>
      </trkpt>
      <trkpt lat="46.110585" lon="6.746645">
        <ele>1034.882</ele>
        <time>2018-07-05T13:08:48Z</time>
      </trkpt>
      <trkpt lat="46.110542" lon="6.746596">
        <ele>1034.284</ele>
        <time>2018-07-05T13:08:53Z</time>
      </trkpt>
      <trkpt lat="46.110503" lon="6.746548">
        <ele>1033.730</ele>
        <time>2018-07-05T13:08:57Z</time>
      </trkpt>
      <trkpt lat="46.110470" lon="6.746497">
        <ele>1033.222</ele>
        <time>2018-07-05T13:09:01Z</time>
      </trkpt>
      <trkpt lat="46.110429" lon="6.746442">
        <ele>1032.669</ele>
        <time>2018-07-05T13:09:05Z</time>
      </trkpt>
      <trkpt lat="46.110392" lon="6.746401">
        <ele>1032.125</ele>
        <time>2018-07-05T13:09:09Z</time>
      </trkpt>
      <trkpt lat="46.110347" lon="6.746344">
        <ele>1031.650</ele>
        <time>2018-07-05T13:09:14Z</time>
      </trkpt>
      <trkpt lat="46.110312" lon="6.746292">
        <ele>1031.078</ele>
        <time>2018-07-05T13:09:24Z</time>
      </trkpt>
      <trkpt lat="46.110271" lon="6.746250">
        <ele>1030.533</ele>
        <time>2018-07-05T13:09:28Z</time>
      </trkpt>
      <trkpt lat="46.110232" lon="6.746197">
        <ele>1030.026</ele>
        <time>2018-07-05T13:09:33Z</time>
      </trkpt>
      <trkpt lat="46.110195" lon="6.746154">
        <ele>1029.708</ele>
        <time>2018-07-05T13:09:38Z</time>
      </trkpt>
      <trkpt lat="46.110151" lon="6.746114">
        <ele>1029.539</ele>
        <time>2018-07-05T13:09:44Z</time>
      </trkpt>
      <trkpt lat="46.110124" lon="6.746046">
        <ele>1029.215</ele>
        <time>2018-07-05T13:09:48Z</time>
      </trkpt>
      <trkpt lat="46.110107" lon="6.745980">
        <ele>1028.937</ele>
        <time>2018-07-05T13:09:52Z</time>
      </trkpt>
      <trkpt lat="46.110114" lon="6.745907">
        <ele>1028.463</ele>
        <time>2018-07-05T13:09:59Z</time>
      </trkpt>
      <trkpt lat="46.110081" lon="6.745851">
        <ele>1028.165</ele>
        <time>2018-07-05T13:10:03Z</time>
      </trkpt>
      <trkpt lat="46.110041" lon="6.745801">
        <ele>1027.882</ele>
        <time>2018-07-05T13:10:07Z</time>
      </trkpt>
      <trkpt lat="46.110006" lon="6.745743">
        <ele>1027.358</ele>
        <time>2018-07-05T13:10:12Z</time>
      </trkpt>
      <trkpt lat="46.109969" lon="6.745693">
        <ele>1027.073</ele>
        <time>2018-07-05T13:10:16Z</time>
      </trkpt>
      <trkpt lat="46.109931" lon="6.745633">
        <ele>1026.691</ele>
        <time>2018-07-05T13:10:20Z</time>
      </trkpt>
      <trkpt lat="46.109899" lon="6.745580">
        <ele>1026.281</ele>
        <time>2018-07-05T13:10:24Z</time>
      </trkpt>
      <trkpt lat="46.109860" lon="6.745530">
        <ele>1025.719</ele>
        <time>2018-07-05T13:10:28Z</time>
      </trkpt>
      <trkpt lat="46.109825" lon="6.745484">
        <ele>1025.208</ele>
        <time>2018-07-05T13:10:32Z</time>
      </trkpt>
      <trkpt lat="46.109791" lon="6.745441">
        <ele>1024.821</ele>
        <time>2018-07-05T13:10:36Z</time>
      </trkpt>
      <trkpt lat="46.109755" lon="6.745397">
        <ele>1024.337</ele>
        <time>2018-07-05T13:10:40Z</time>
      </trkpt>
      <trkpt lat="46.109718" lon="6.745357">
        <ele>1023.969</ele>
        <time>2018-07-05T13:10:44Z</time>
      </trkpt>
      <trkpt lat="46.109678" lon="6.745323">
        <ele>1023.575</ele>
        <time>2018-07-05T13:10:48Z</time>
      </trkpt>
      <trkpt lat="46.109634" lon="6.745286">
        <ele>1023.137</ele>
        <time>2018-07-05T13:10:52Z</time>
      </trkpt>
      <trkpt lat="46.109589" lon="6.745252">
        <ele>1022.714</ele>
        <time>2018-07-05T13:10:56Z</time>
      </trkpt>
      <trkpt lat="46.109545" lon="6.745221">
        <ele>1022.320</ele>
        <time>2018-07-05T13:11:00Z</time>
      </trkpt>
      <trkpt lat="46.109502" lon="6.745195">
        <ele>1021.995</ele>
        <time>2018-07-05T13:11:04Z</time>
      </trkpt>
      <trkpt lat="46.109460" lon="6.745164">
        <ele>1021.499</ele>
        <time>2018-07-05T13:11:08Z</time>
      </trkpt>
      <trkpt lat="46.109415" lon="6.745135">
        <ele>1020.907</ele>
        <time>2018-07-05T13:11:12Z</time>
      </trkpt>
      <trkpt lat="46.109373" lon="6.745101">
        <ele>1020.527</ele>
        <time>2018-07-05T13:11:16Z</time>
      </trkpt>
      <trkpt lat="46.109331" lon="6.745073">
        <ele>1020.108</ele>
        <time>2018-07-05T13:11:20Z</time>
      </trkpt>
      <trkpt lat="46.109281" lon="6.745037">
        <ele>1019.581</ele>
        <time>2018-07-05T13:11:25Z</time>
      </trkpt>
      <trkpt lat="46.109240" lon="6.745003">
        <ele>1019.047</ele>
        <time>2018-07-05T13:11:29Z</time>
      </trkpt>
      <trkpt lat="46.109197" lon="6.744968">
        <ele>1018.539</ele>
        <time>2018-07-05T13:11:33Z</time>
      </trkpt>
      <trkpt lat="46.109159" lon="6.744929">
        <ele>1017.945</ele>
        <time>2018-07-05T13:11:37Z</time>
      </trkpt>
      <trkpt lat="46.109117" lon="6.744899">
        <ele>1017.347</ele>
        <time>2018-07-05T13:11:42Z</time>
      </trkpt>
      <trkpt lat="46.109067" lon="6.744858">
        <ele>1016.484</ele>
        <time>2018-07-05T13:11:51Z</time>
      </trkpt>
      <trkpt lat="46.109025" lon="6.744828">
        <ele>1015.730</ele>
        <time>2018-07-05T13:11:56Z</time>
      </trkpt>
      <trkpt lat="46.108971" lon="6.744810">
        <ele>1015.115</ele>
        <time>2018-07-05T13:12:00Z</time>
      </trkpt>
      <trkpt lat="46.108923" lon="6.744803">
        <ele>1014.737</ele>
        <time>2018-07-05T13:12:03Z</time>
      </trkpt>
      <trkpt lat="46.108870" lon="6.744801">
        <ele>1013.949</ele>
        <time>2018-07-05T13:12:07Z</time>
      </trkpt>
      <trkpt lat="46.108819" lon="6.744825">
        <ele>1013.113</ele>
        <time>2018-07-05T13:12:12Z</time>
      </trkpt>
      <trkpt lat="46.108771" lon="6.744865">
        <ele>1012.608</ele>
        <time>2018-07-05T13:12:18Z</time>
      </trkpt>
      <trkpt lat="46.108721" lon="6.744897">
        <ele>1011.965</ele>
        <time>2018-07-05T13:12:24Z</time>
      </trkpt>
      <trkpt lat="46.108677" lon="6.744924">
        <ele>1011.311</ele>
        <time>2018-07-05T13:12:29Z</time>
      </trkpt>
      <trkpt lat="46.108647" lon="6.744979">
        <ele>1011.563</ele>
        <time>2018-07-05T13:12:34Z</time>
      </trkpt>
      <trkpt lat="46.108605" lon="6.745018">
        <ele>1011.269</ele>
        <time>2018-07-05T13:12:39Z</time>
      </trkpt>
      <trkpt lat="46.108577" lon="6.745077">
        <ele>1011.671</ele>
        <time>2018-07-05T13:12:43Z</time>
      </trkpt>
      <trkpt lat="46.108553" lon="6.745132">
        <ele>1012.068</ele>
        <time>2018-07-05T13:12:47Z</time>
      </trkpt>
      <trkpt lat="46.108510" lon="6.745167">
        <ele>1011.794</ele>
        <time>2018-07-05T13:12:50Z</time>
      </trkpt>
      <trkpt lat="46.108466" lon="6.745197">
        <ele>1011.399</ele>
        <time>2018-07-05T13:12:54Z</time>
      </trkpt>
      <trkpt lat="46.108414" lon="6.745216">
        <ele>1010.559</ele>
        <time>2018-07-05T13:12:58Z</time>
      </trkpt>
      <trkpt lat="46.108356" lon="6.745233">
        <ele>1009.503</ele>
        <time>2018-07-05T13:13:02Z</time>
      </trkpt>
      <trkpt lat="46.108309" lon="6.745238">
        <ele>1008.823</ele>
        <time>2018-07-05T13:13:06Z</time>
      </trkpt>
      <trkpt lat="46.108248" lon="6.745237">
        <ele>1007.908</ele>
        <time>2018-07-05T13:13:10Z</time>
      </trkpt>
      <trkpt lat="46.108202" lon="6.745232">
        <ele>1007.277</ele>
        <time>2018-07-05T13:13:13Z</time>
      </trkpt>
      <trkpt lat="46.108146" lon="6.745222">
        <ele>1006.263</ele>
        <time>2018-07-05T13:13:17Z</time>
      </trkpt>
      <trkpt lat="46.108090" lon="6.745224">
        <ele>1005.525</ele>
        <time>2018-07-05T13:13:21Z</time>
      </trkpt>
      <trkpt lat="46.108034" lon="6.745206">
        <ele>1004.541</ele>
        <time>2018-07-05T13:13:25Z</time>
      </trkpt>
      <trkpt lat="46.107989" lon="6.745194">
        <ele>1003.923</ele>
        <time>2018-07-05T13:13:29Z</time>
      </trkpt>
      <trkpt lat="46.107934" lon="6.745185">
        <ele>1003.320</ele>
        <time>2018-07-05T13:13:34Z</time>
      </trkpt>
      <trkpt lat="46.107887" lon="6.745169">
        <ele>1002.766</ele>
        <time>2018-07-05T13:13:38Z</time>
      </trkpt>
      <trkpt lat="46.107841" lon="6.745166">
        <ele>1002.341</ele>
        <time>2018-07-05T13:13:42Z</time>
      </trkpt>
      <trkpt lat="46.107791" lon="6.745156">
        <ele>1001.873</ele>
        <time>2018-07-05T13:13:46Z</time>
      </trkpt>
      <trkpt lat="46.107746" lon="6.745140">
        <ele>1001.385</ele>
        <time>2018-07-05T13:13:51Z</time>
      </trkpt>
      <trkpt lat="46.107699" lon="6.745129">
        <ele>1001.013</ele>
        <time>2018-07-05T13:13:59Z</time>
      </trkpt>
      <trkpt lat="46.107650" lon="6.745098">
        <ele>1000.308</ele>
        <time>2018-07-05T13:14:04Z</time>
      </trkpt>
      <trkpt lat="46.107605" lon="6.745070">
        <ele>999.739</ele>
        <time>2018-07-05T13:14:07Z</time>
      </trkpt>
      <trkpt lat="46.107561" lon="6.745050">
        <ele>999.195</ele>
        <time>2018-07-05T13:14:10Z</time>
      </trkpt>
      <trkpt lat="46.107509" lon="6.745035">
        <ele>998.657</ele>
        <time>2018-07-05T13:14:14Z</time>
      </trkpt>
      <trkpt lat="46.107458" lon="6.745010">
        <ele>998.133</ele>
        <time>2018-07-05T13:14:18Z</time>
      </trkpt>
      <trkpt lat="46.107407" lon="6.744980">
        <ele>997.715</ele>
        <time>2018-07-05T13:14:23Z</time>
      </trkpt>
      <trkpt lat="46.107362" lon="6.744946">
        <ele>997.292</ele>
        <time>2018-07-05T13:14:28Z</time>
      </trkpt>
      <trkpt lat="46.107321" lon="6.744896">
        <ele>996.548</ele>
        <time>2018-07-05T13:14:37Z</time>
      </trkpt>
      <trkpt lat="46.107284" lon="6.744847">
        <ele>995.873</ele>
        <time>2018-07-05T13:14:42Z</time>
      </trkpt>
      <trkpt lat="46.107244" lon="6.744789">
        <ele>995.082</ele>
        <time>2018-07-05T13:14:47Z</time>
      </trkpt>
      <trkpt lat="46.107210" lon="6.744737">
        <ele>994.343</ele>
        <time>2018-07-05T13:14:52Z</time>
      </trkpt>
      <trkpt lat="46.107175" lon="6.744688">
        <ele>994.117</ele>
        <time>2018-07-05T13:15:29Z</time>
      </trkpt>
      <trkpt lat="46.107216" lon="6.744599">
        <ele>992.708</ele>
        <time>2018-07-05T13:15:44Z</time>
      </trkpt>
      <trkpt lat="46.107239" lon="6.744543">
        <ele>992.080</ele>
        <time>2018-07-05T13:15:59Z</time>
      </trkpt>
      <trkpt lat="46.107261" lon="6.744465">
        <ele>991.196</ele>
        <time>2018-07-05T13:16:05Z</time>
      </trkpt>
      <trkpt lat="46.107290" lon="6.744414">
        <ele>989.968</ele>
        <time>2018-07-05T13:16:10Z</time>
      </trkpt>
      <trkpt lat="46.107247" lon="6.744382">
        <ele>989.114</ele>
        <time>2018-07-05T13:16:20Z</time>
      </trkpt>
      <trkpt lat="46.107206" lon="6.744353">
        <ele>988.326</ele>
        <time>2018-07-05T13:16:37Z</time>
      </trkpt>
      <trkpt lat="46.107184" lon="6.744289">
        <ele>986.353</ele>
        <time>2018-07-05T13:16:48Z</time>
      </trkpt>
      <trkpt lat="46.107151" lon="6.744240">
        <ele>984.589</ele>
        <time>2018-07-05T13:17:03Z</time>
      </trkpt>
      <trkpt lat="46.107105" lon="6.744241">
        <ele>984.274</ele>
        <time>2018-07-05T13:17:29Z</time>
      </trkpt>
      <trkpt lat="46.107060" lon="6.744237">
        <ele>983.738</ele>
        <time>2018-07-05T13:17:52Z</time>
      </trkpt>
      <trkpt lat="46.107015" lon="6.744205">
        <ele>982.270</ele>
        <time>2018-07-05T13:17:59Z</time>
      </trkpt>
      <trkpt lat="46.106967" lon="6.744186">
        <ele>981.017</ele>
        <time>2018-07-05T13:18:06Z</time>
      </trkpt>
      <trkpt lat="46.106923" lon="6.744156">
        <ele>979.608</ele>
        <time>2018-07-05T13:18:12Z</time>
      </trkpt>
      <trkpt lat="46.106887" lon="6.744106">
        <ele>977.675</ele>
        <time>2018-07-05T13:18:20Z</time>
      </trkpt>
      <trkpt lat="46.106852" lon="6.744052">
        <ele>975.361</ele>
        <time>2018-07-05T13:18:30Z</time>
      </trkpt>
      <trkpt lat="46.106811" lon="6.744083">
        <ele>976.593</ele>
        <time>2018-07-05T13:18:39Z</time>
      </trkpt>
      <trkpt lat="46.106732" lon="6.744071">
        <ele>975.929</ele>
        <time>2018-07-05T13:18:59Z</time>
      </trkpt>
      <trkpt lat="46.106676" lon="6.744052">
        <ele>975.151</ele>
        <time>2018-07-05T13:19:03Z</time>
      </trkpt>
      <trkpt lat="46.106625" lon="6.744029">
        <ele>974.348</ele>
        <time>2018-07-05T13:19:06Z</time>
      </trkpt>
      <trkpt lat="46.106575" lon="6.744008">
        <ele>973.674</ele>
        <time>2018-07-05T13:19:09Z</time>
      </trkpt>
      <trkpt lat="46.106525" lon="6.743981">
        <ele>972.719</ele>
        <time>2018-07-05T13:19:13Z</time>
      </trkpt>
      <trkpt lat="46.106469" lon="6.743962">
        <ele>972.159</ele>
        <time>2018-07-05T13:19:17Z</time>
      </trkpt>
      <trkpt lat="46.106418" lon="6.743962">
        <ele>972.303</ele>
        <time>2018-07-05T13:19:21Z</time>
      </trkpt>
      <trkpt lat="46.106368" lon="6.743936">
        <ele>971.423</ele>
        <time>2018-07-05T13:19:25Z</time>
      </trkpt>
      <trkpt lat="46.106318" lon="6.743918">
        <ele>971.108</ele>
        <time>2018-07-05T13:19:29Z</time>
      </trkpt>
      <trkpt lat="46.106270" lon="6.743907">
        <ele>971.167</ele>
        <time>2018-07-05T13:19:34Z</time>
      </trkpt>
      <trkpt lat="46.106224" lon="6.743896">
        <ele>971.133</ele>
        <time>2018-07-05T13:19:40Z</time>
      </trkpt>
      <trkpt lat="46.106179" lon="6.743876">
        <ele>970.545</ele>
        <time>2018-07-05T13:19:45Z</time>
      </trkpt>
      <trkpt lat="46.106126" lon="6.743878">
        <ele>971.251</ele>
        <time>2018-07-05T13:19:50Z</time>
      </trkpt>
      <trkpt lat="46.106078" lon="6.743883">
        <ele>972.093</ele>
        <time>2018-07-05T13:19:54Z</time>
      </trkpt>
      <trkpt lat="46.106026" lon="6.743882">
        <ele>972.570</ele>
        <time>2018-07-05T13:20:00Z</time>
      </trkpt>
      <trkpt lat="46.105976" lon="6.743871">
        <ele>972.356</ele>
        <time>2018-07-05T13:20:06Z</time>
      </trkpt>
      <trkpt lat="46.105930" lon="6.743852">
        <ele>971.651</ele>
        <time>2018-07-05T13:20:13Z</time>
      </trkpt>
      <trkpt lat="46.105887" lon="6.743814">
        <ele>969.639</ele>
        <time>2018-07-05T13:20:29Z</time>
      </trkpt>
      <trkpt lat="46.105857" lon="6.743729">
        <ele>964.401</ele>
        <time>2018-07-05T13:20:54Z</time>
      </trkpt>
      <trkpt lat="46.105797" lon="6.743725">
        <ele>964.421</ele>
        <time>2018-07-05T13:20:58Z</time>
      </trkpt>
      <trkpt lat="46.105743" lon="6.743720">
        <ele>964.108</ele>
        <time>2018-07-05T13:21:03Z</time>
      </trkpt>
      <trkpt lat="46.105698" lon="6.743713">
        <ele>963.745</ele>
        <time>2018-07-05T13:21:07Z</time>
      </trkpt>
      <trkpt lat="46.105637" lon="6.743709">
        <ele>963.661</ele>
        <time>2018-07-05T13:21:10Z</time>
      </trkpt>
      <trkpt lat="46.105555" lon="6.743718">
        <ele>964.253</ele>
        <time>2018-07-05T13:21:27Z</time>
      </trkpt>
      <trkpt lat="46.105506" lon="6.743708">
        <ele>963.959</ele>
        <time>2018-07-05T13:21:30Z</time>
      </trkpt>
      <trkpt lat="46.105457" lon="6.743711">
        <ele>964.441</ele>
        <time>2018-07-05T13:21:34Z</time>
      </trkpt>
      <trkpt lat="46.105408" lon="6.743732">
        <ele>965.798</ele>
        <time>2018-07-05T13:21:44Z</time>
      </trkpt>
      <trkpt lat="46.105361" lon="6.743765">
        <ele>967.344</ele>
        <time>2018-07-05T13:21:50Z</time>
      </trkpt>
      <trkpt lat="46.105305" lon="6.743778">
        <ele>968.089</ele>
        <time>2018-07-05T13:21:54Z</time>
      </trkpt>
      <trkpt lat="46.105260" lon="6.743800">
        <ele>968.497</ele>
        <time>2018-07-05T13:21:57Z</time>
      </trkpt>
      <trkpt lat="46.105215" lon="6.743819">
        <ele>968.023</ele>
        <time>2018-07-05T13:22:01Z</time>
      </trkpt>
      <trkpt lat="46.105170" lon="6.743832">
        <ele>967.525</ele>
        <time>2018-07-05T13:22:05Z</time>
      </trkpt>
      <trkpt lat="46.105129" lon="6.743902">
        <ele>969.408</ele>
        <time>2018-07-05T13:22:32Z</time>
      </trkpt>
      <trkpt lat="46.105083" lon="6.743917">
        <ele>969.031</ele>
        <time>2018-07-05T13:22:35Z</time>
      </trkpt>
      <trkpt lat="46.105031" lon="6.743923">
        <ele>968.297</ele>
        <time>2018-07-05T13:22:38Z</time>
      </trkpt>
      <trkpt lat="46.104986" lon="6.743925">
        <ele>967.599</ele>
        <time>2018-07-05T13:22:41Z</time>
      </trkpt>
      <trkpt lat="46.104938" lon="6.743907">
        <ele>966.215</ele>
        <time>2018-07-05T13:22:46Z</time>
      </trkpt>
      <trkpt lat="46.104891" lon="6.743908">
        <ele>965.747</ele>
        <time>2018-07-05T13:22:51Z</time>
      </trkpt>
      <trkpt lat="46.104841" lon="6.743914">
        <ele>965.574</ele>
        <time>2018-07-05T13:22:56Z</time>
      </trkpt>
      <trkpt lat="46.104782" lon="6.743909">
        <ele>964.630</ele>
        <time>2018-07-05T13:23:01Z</time>
      </trkpt>
      <trkpt lat="46.104724" lon="6.743893">
        <ele>963.225</ele>
        <time>2018-07-05T13:23:09Z</time>
      </trkpt>
      <trkpt lat="46.104677" lon="6.743909">
        <ele>962.955</ele>
        <time>2018-07-05T13:23:13Z</time>
      </trkpt>
      <trkpt lat="46.104629" lon="6.743901">
        <ele>961.507</ele>
        <time>2018-07-05T13:23:19Z</time>
      </trkpt>
      <trkpt lat="46.104583" lon="6.743893">
        <ele>960.217</ele>
        <time>2018-07-05T13:23:24Z</time>
      </trkpt>
      <trkpt lat="46.104538" lon="6.743883">
        <ele>958.708</ele>
        <time>2018-07-05T13:23:28Z</time>
      </trkpt>
      <trkpt lat="46.104490" lon="6.743838">
        <ele>955.577</ele>
        <time>2018-07-05T13:23:32Z</time>
      </trkpt>
      <trkpt lat="46.104440" lon="6.743828">
        <ele>954.013</ele>
        <time>2018-07-05T13:23:39Z</time>
      </trkpt>
      <trkpt lat="46.104391" lon="6.743815">
        <ele>952.125</ele>
        <time>2018-07-05T13:23:44Z</time>
      </trkpt>
      <trkpt lat="46.104342" lon="6.743805">
        <ele>950.421</ele>
        <time>2018-07-05T13:23:50Z</time>
      </trkpt>
      <trkpt lat="46.104292" lon="6.743805">
        <ele>949.123</ele>
        <time>2018-07-05T13:23:56Z</time>
      </trkpt>
      <trkpt lat="46.104247" lon="6.743789">
        <ele>947.530</ele>
        <time>2018-07-05T13:24:03Z</time>
      </trkpt>
      <trkpt lat="46.104202" lon="6.743769">
        <ele>946.126</ele>
        <time>2018-07-05T13:24:09Z</time>
      </trkpt>
      <trkpt lat="46.104148" lon="6.743805">
        <ele>945.161</ele>
        <time>2018-07-05T13:24:14Z</time>
      </trkpt>
      <trkpt lat="46.104089" lon="6.743795">
        <ele>942.855</ele>
        <time>2018-07-05T13:24:35Z</time>
      </trkpt>
      <trkpt lat="46.104035" lon="6.743769">
        <ele>940.607</ele>
        <time>2018-07-05T13:24:40Z</time>
      </trkpt>
      <trkpt lat="46.103986" lon="6.743748">
        <ele>938.817</ele>
        <time>2018-07-05T13:24:43Z</time>
      </trkpt>
      <trkpt lat="46.103943" lon="6.743705">
        <ele>937.408</ele>
        <time>2018-07-05T13:24:46Z</time>
      </trkpt>
      <trkpt lat="46.103906" lon="6.743667">
        <ele>936.347</ele>
        <time>2018-07-05T13:24:49Z</time>
      </trkpt>
      <trkpt lat="46.103875" lon="6.743616">
        <ele>935.113</ele>
        <time>2018-07-05T13:24:54Z</time>
      </trkpt>
      <trkpt lat="46.103845" lon="6.743558">
        <ele>932.865</ele>
        <time>2018-07-05T13:24:59Z</time>
      </trkpt>
      <trkpt lat="46.103820" lon="6.743497">
        <ele>930.971</ele>
        <time>2018-07-05T13:25:10Z</time>
      </trkpt>
      <trkpt lat="46.103817" lon="6.743423">
        <ele>930.493</ele>
        <time>2018-07-05T13:25:20Z</time>
      </trkpt>
      <trkpt lat="46.103851" lon="6.743368">
        <ele>931.670</ele>
        <time>2018-07-05T13:25:25Z</time>
      </trkpt>
      <trkpt lat="46.103849" lon="6.743285">
        <ele>929.786</ele>
        <time>2018-07-05T13:25:35Z</time>
      </trkpt>
      <trkpt lat="46.103868" lon="6.743191">
        <ele>927.221</ele>
        <time>2018-07-05T13:25:51Z</time>
      </trkpt>
      <trkpt lat="46.103916" lon="6.743170">
        <ele>926.387</ele>
        <time>2018-07-05T13:26:32Z</time>
      </trkpt>
      <trkpt lat="46.103871" lon="6.743156">
        <ele>926.142</ele>
        <time>2018-07-05T13:26:41Z</time>
      </trkpt>
      <trkpt lat="46.103822" lon="6.743108">
        <ele>923.426</ele>
        <time>2018-07-05T13:26:45Z</time>
      </trkpt>
      <trkpt lat="46.103782" lon="6.743075">
        <ele>921.608</ele>
        <time>2018-07-05T13:26:49Z</time>
      </trkpt>
      <trkpt lat="46.103734" lon="6.743054">
        <ele>920.120</ele>
        <time>2018-07-05T13:26:54Z</time>
      </trkpt>
      <trkpt lat="46.103691" lon="6.743022">
        <ele>917.576</ele>
        <time>2018-07-05T13:27:00Z</time>
      </trkpt>
      <trkpt lat="46.103645" lon="6.742992">
        <ele>915.138</ele>
        <time>2018-07-05T13:27:06Z</time>
      </trkpt>
      <trkpt lat="46.103598" lon="6.743002">
        <ele>914.424</ele>
        <time>2018-07-05T13:27:20Z</time>
      </trkpt>
      <trkpt lat="46.103524" lon="6.743082">
        <ele>912.856</ele>
        <time>2018-07-05T13:27:40Z</time>
      </trkpt>
      <trkpt lat="46.103498" lon="6.743019">
        <ele>909.563</ele>
        <time>2018-07-05T13:27:52Z</time>
      </trkpt>
      <trkpt lat="46.103456" lon="6.742985">
        <ele>905.799</ele>
        <time>2018-07-05T13:28:25Z</time>
      </trkpt>
      <trkpt lat="46.103413" lon="6.743021">
        <ele>904.654</ele>
        <time>2018-07-05T13:28:31Z</time>
      </trkpt>
      <trkpt lat="46.103366" lon="6.743041">
        <ele>902.593</ele>
        <time>2018-07-05T13:28:36Z</time>
      </trkpt>
      <trkpt lat="46.103331" lon="6.743089">
        <ele>900.765</ele>
        <time>2018-07-05T13:28:50Z</time>
      </trkpt>
      <trkpt lat="46.103276" lon="6.743140">
        <ele>897.321</ele>
        <time>2018-07-05T13:29:12Z</time>
      </trkpt>
      <trkpt lat="46.103229" lon="6.743112">
        <ele>894.708</ele>
        <time>2018-07-05T13:29:41Z</time>
      </trkpt>
      <trkpt lat="46.103193" lon="6.743069">
        <ele>892.831</ele>
        <time>2018-07-05T13:29:45Z</time>
      </trkpt>
      <trkpt lat="46.103158" lon="6.743007">
        <ele>891.317</ele>
        <time>2018-07-05T13:29:49Z</time>
      </trkpt>
      <trkpt lat="46.103135" lon="6.742937">
        <ele>891.059</ele>
        <time>2018-07-05T13:29:53Z</time>
      </trkpt>
      <trkpt lat="46.103126" lon="6.742873">
        <ele>891.615</ele>
        <time>2018-07-05T13:30:43Z</time>
      </trkpt>
      <trkpt lat="46.103081" lon="6.742848">
        <ele>891.317</ele>
        <time>2018-07-05T13:31:19Z</time>
      </trkpt>
      <trkpt lat="46.103021" lon="6.742853">
        <ele>891.564</ele>
        <time>2018-07-05T13:31:37Z</time>
      </trkpt>
      <trkpt lat="46.102969" lon="6.742846">
        <ele>892.610</ele>
        <time>2018-07-05T13:31:41Z</time>
      </trkpt>
      <trkpt lat="46.102921" lon="6.742858">
        <ele>893.175</ele>
        <time>2018-07-05T13:31:44Z</time>
      </trkpt>
      <trkpt lat="46.102867" lon="6.742862">
        <ele>894.069</ele>
        <time>2018-07-05T13:31:47Z</time>
      </trkpt>
      <trkpt lat="46.102804" lon="6.742890">
        <ele>894.304</ele>
        <time>2018-07-05T13:31:50Z</time>
      </trkpt>
      <trkpt lat="46.102763" lon="6.742918">
        <ele>893.624</ele>
        <time>2018-07-05T13:31:52Z</time>
      </trkpt>
      <trkpt lat="46.102705" lon="6.742880">
        <ele>893.108</ele>
        <time>2018-07-05T13:32:05Z</time>
      </trkpt>
      <trkpt lat="46.102643" lon="6.742860">
        <ele>892.138</ele>
        <time>2018-07-05T13:32:13Z</time>
      </trkpt>
      <trkpt lat="46.102597" lon="6.742841">
        <ele>891.544</ele>
        <time>2018-07-05T13:32:15Z</time>
      </trkpt>
      <trkpt lat="46.102554" lon="6.742812">
        <ele>891.386</ele>
        <time>2018-07-05T13:32:17Z</time>
      </trkpt>
      <trkpt lat="46.102499" lon="6.742789">
        <ele>890.682</ele>
        <time>2018-07-05T13:32:21Z</time>
      </trkpt>
      <trkpt lat="46.102411" lon="6.742777">
        <ele>889.494</ele>
        <time>2018-07-05T13:32:30Z</time>
      </trkpt>
      <trkpt lat="46.102361" lon="6.742771">
        <ele>888.721</ele>
        <time>2018-07-05T13:32:35Z</time>
      </trkpt>
      <trkpt lat="46.102309" lon="6.742765">
        <ele>887.987</ele>
        <time>2018-07-05T13:32:44Z</time>
      </trkpt>
      <trkpt lat="46.101850" lon="6.742570">
        <ele>883.082</ele>
        <time>2018-07-05T13:33:18Z</time>
      </trkpt>
      <trkpt lat="46.101846" lon="6.742639">
        <ele>881.035</ele>
        <time>2018-07-05T13:33:19Z</time>
      </trkpt>
      <trkpt lat="46.101802" lon="6.742692">
        <ele>878.486</ele>
        <time>2018-07-05T13:33:21Z</time>
      </trkpt>
      <trkpt lat="46.101752" lon="6.742718">
        <ele>876.314</ele>
        <time>2018-07-05T13:33:24Z</time>
      </trkpt>
      <trkpt lat="46.101702" lon="6.742700">
        <ele>875.508</ele>
        <time>2018-07-05T13:33:29Z</time>
      </trkpt>
      <trkpt lat="46.101645" lon="6.742698">
        <ele>874.245</ele>
        <time>2018-07-05T13:33:34Z</time>
      </trkpt>
      <trkpt lat="46.101596" lon="6.742695">
        <ele>873.341</ele>
        <time>2018-07-05T13:33:38Z</time>
      </trkpt>
      <trkpt lat="46.101557" lon="6.742645">
        <ele>873.883</ele>
        <time>2018-07-05T13:33:44Z</time>
      </trkpt>
      <trkpt lat="46.101539" lon="6.742577">
        <ele>875.079</ele>
        <time>2018-07-05T13:33:50Z</time>
      </trkpt>
      <trkpt lat="46.101493" lon="6.742564">
        <ele>874.021</ele>
        <time>2018-07-05T13:33:55Z</time>
      </trkpt>
      <trkpt lat="46.101450" lon="6.742542">
        <ele>873.258</ele>
        <time>2018-07-05T13:34:00Z</time>
      </trkpt>
      <trkpt lat="46.101403" lon="6.742533">
        <ele>872.034</ele>
        <time>2018-07-05T13:34:04Z</time>
      </trkpt>
      <trkpt lat="46.101357" lon="6.742525">
        <ele>871.289</ele>
        <time>2018-07-05T13:34:08Z</time>
      </trkpt>
      <trkpt lat="46.101309" lon="6.742523">
        <ele>870.525</ele>
        <time>2018-07-05T13:34:13Z</time>
      </trkpt>
      <trkpt lat="46.101265" lon="6.742509">
        <ele>870.126</ele>
        <time>2018-07-05T13:34:23Z</time>
      </trkpt>
      <trkpt lat="46.101224" lon="6.742558">
        <ele>868.908</ele>
        <time>2018-07-05T13:34:30Z</time>
      </trkpt>
      <trkpt lat="46.101224" lon="6.742623">
        <ele>868.108</ele>
        <time>2018-07-05T13:34:36Z</time>
      </trkpt>
      <trkpt lat="46.101230" lon="6.742688">
        <ele>867.484</ele>
        <time>2018-07-05T13:34:40Z</time>
      </trkpt>
      <trkpt lat="46.101240" lon="6.742756">
        <ele>866.730</ele>
        <time>2018-07-05T13:34:44Z</time>
      </trkpt>
      <trkpt lat="46.101263" lon="6.742824">
        <ele>866.252</ele>
        <time>2018-07-05T13:34:49Z</time>
      </trkpt>
      <trkpt lat="46.101325" lon="6.742866">
        <ele>866.648</ele>
        <time>2018-07-05T13:34:58Z</time>
      </trkpt>
      <trkpt lat="46.101376" lon="6.742903">
        <ele>866.940</ele>
        <time>2018-07-05T13:35:36Z</time>
      </trkpt>
      <trkpt lat="46.101420" lon="6.742945">
        <ele>867.237</ele>
        <time>2018-07-05T13:35:39Z</time>
      </trkpt>
      <trkpt lat="46.101462" lon="6.742987">
        <ele>867.383</ele>
        <time>2018-07-05T13:35:43Z</time>
      </trkpt>
      <trkpt lat="46.101475" lon="6.743054">
        <ele>866.958</ele>
        <time>2018-07-05T13:35:47Z</time>
      </trkpt>
      <trkpt lat="46.101425" lon="6.743088">
        <ele>866.249</ele>
        <time>2018-07-05T13:35:52Z</time>
      </trkpt>
      <trkpt lat="46.101363" lon="6.743101">
        <ele>865.302</ele>
        <time>2018-07-05T13:35:58Z</time>
      </trkpt>
      <trkpt lat="46.101324" lon="6.743175">
        <ele>864.322</ele>
        <time>2018-07-05T13:36:14Z</time>
      </trkpt>
      <trkpt lat="46.101293" lon="6.743228">
        <ele>863.608</ele>
        <time>2018-07-05T13:36:21Z</time>
      </trkpt>
      <trkpt lat="46.101245" lon="6.743247">
        <ele>862.946</ele>
        <time>2018-07-05T13:36:26Z</time>
      </trkpt>
      <trkpt lat="46.101171" lon="6.743239">
        <ele>862.162</ele>
        <time>2018-07-05T13:36:40Z</time>
      </trkpt>
      <trkpt lat="46.101119" lon="6.743227">
        <ele>861.594</ele>
        <time>2018-07-05T13:36:46Z</time>
      </trkpt>
      <trkpt lat="46.101059" lon="6.743219">
        <ele>860.870</ele>
        <time>2018-07-05T13:36:49Z</time>
      </trkpt>
      <trkpt lat="46.101013" lon="6.743189">
        <ele>860.312</ele>
        <time>2018-07-05T13:36:53Z</time>
      </trkpt>
      <trkpt lat="46.100930" lon="6.743162">
        <ele>859.319</ele>
        <time>2018-07-05T13:36:59Z</time>
      </trkpt>
      <trkpt lat="46.100869" lon="6.743160">
        <ele>858.545</ele>
        <time>2018-07-05T13:37:04Z</time>
      </trkpt>
      <trkpt lat="46.100822" lon="6.743137">
        <ele>857.830</ele>
        <time>2018-07-05T13:37:07Z</time>
      </trkpt>
      <trkpt lat="46.100773" lon="6.743148">
        <ele>857.127</ele>
        <time>2018-07-05T13:37:13Z</time>
      </trkpt>
      <trkpt lat="46.100726" lon="6.743138">
        <ele>856.368</ele>
        <time>2018-07-05T13:37:18Z</time>
      </trkpt>
      <trkpt lat="46.100674" lon="6.743142">
        <ele>855.514</ele>
        <time>2018-07-05T13:37:25Z</time>
      </trkpt>
      <trkpt lat="46.100622" lon="6.743134">
        <ele>854.708</ele>
        <time>2018-07-05T13:37:31Z</time>
      </trkpt>
      <trkpt lat="46.100575" lon="6.743159">
        <ele>853.954</ele>
        <time>2018-07-05T13:37:38Z</time>
      </trkpt>
      <trkpt lat="46.100524" lon="6.743164">
        <ele>853.310</ele>
        <time>2018-07-05T13:37:42Z</time>
      </trkpt>
      <trkpt lat="46.100478" lon="6.743171">
        <ele>852.712</ele>
        <time>2018-07-05T13:37:45Z</time>
      </trkpt>
      <trkpt lat="46.100429" lon="6.743165">
        <ele>852.248</ele>
        <time>2018-07-05T13:37:50Z</time>
      </trkpt>
      <trkpt lat="46.100381" lon="6.743146">
        <ele>851.850</ele>
        <time>2018-07-05T13:37:57Z</time>
      </trkpt>
      <trkpt lat="46.100313" lon="6.743118">
        <ele>851.267</ele>
        <time>2018-07-05T13:38:02Z</time>
      </trkpt>
      <trkpt lat="46.100264" lon="6.743103">
        <ele>850.763</ele>
        <time>2018-07-05T13:38:07Z</time>
      </trkpt>
      <trkpt lat="46.100217" lon="6.743110">
        <ele>850.158</ele>
        <time>2018-07-05T13:38:11Z</time>
      </trkpt>
      <trkpt lat="46.100167" lon="6.743098">
        <ele>849.791</ele>
        <time>2018-07-05T13:38:15Z</time>
      </trkpt>
      <trkpt lat="46.100122" lon="6.743078">
        <ele>849.281</ele>
        <time>2018-07-05T13:38:19Z</time>
      </trkpt>
      <trkpt lat="46.100071" lon="6.743058">
        <ele>848.819</ele>
        <time>2018-07-05T13:38:24Z</time>
      </trkpt>
      <trkpt lat="46.100029" lon="6.743016">
        <ele>848.508</ele>
        <time>2018-07-05T13:38:30Z</time>
      </trkpt>
      <trkpt lat="46.099985" lon="6.742989">
        <ele>848.171</ele>
        <time>2018-07-05T13:38:35Z</time>
      </trkpt>
      <trkpt lat="46.099938" lon="6.742966">
        <ele>847.777</ele>
        <time>2018-07-05T13:38:40Z</time>
      </trkpt>
      <trkpt lat="46.099891" lon="6.742934">
        <ele>847.469</ele>
        <time>2018-07-05T13:38:44Z</time>
      </trkpt>
      <trkpt lat="46.099844" lon="6.742900">
        <ele>847.245</ele>
        <time>2018-07-05T13:38:49Z</time>
      </trkpt>
      <trkpt lat="46.099802" lon="6.742876">
        <ele>847.067</ele>
        <time>2018-07-05T13:38:53Z</time>
      </trkpt>
      <trkpt lat="46.099758" lon="6.742847">
        <ele>846.814</ele>
        <time>2018-07-05T13:38:57Z</time>
      </trkpt>
      <trkpt lat="46.099710" lon="6.742832">
        <ele>846.530</ele>
        <time>2018-07-05T13:39:03Z</time>
      </trkpt>
      <trkpt lat="46.099666" lon="6.742809">
        <ele>846.065</ele>
        <time>2018-07-05T13:39:08Z</time>
      </trkpt>
      <trkpt lat="46.099620" lon="6.742803">
        <ele>845.496</ele>
        <time>2018-07-05T13:39:14Z</time>
      </trkpt>
      <trkpt lat="46.099575" lon="6.742787">
        <ele>844.831</ele>
        <time>2018-07-05T13:39:18Z</time>
      </trkpt>
      <trkpt lat="46.099523" lon="6.742767">
        <ele>844.124</ele>
        <time>2018-07-05T13:39:22Z</time>
      </trkpt>
      <trkpt lat="46.099474" lon="6.742746">
        <ele>843.408</ele>
        <time>2018-07-05T13:39:26Z</time>
      </trkpt>
      <trkpt lat="46.099419" lon="6.742724">
        <ele>842.741</ele>
        <time>2018-07-05T13:39:34Z</time>
      </trkpt>
      <trkpt lat="46.099374" lon="6.742702">
        <ele>842.297</ele>
        <time>2018-07-05T13:39:42Z</time>
      </trkpt>
      <trkpt lat="46.099331" lon="6.742670">
        <ele>841.869</ele>
        <time>2018-07-05T13:39:48Z</time>
      </trkpt>
      <trkpt lat="46.099288" lon="6.742649">
        <ele>841.395</ele>
        <time>2018-07-05T13:39:51Z</time>
      </trkpt>
      <trkpt lat="46.099236" lon="6.742614">
        <ele>840.747</ele>
        <time>2018-07-05T13:39:55Z</time>
      </trkpt>
      <trkpt lat="46.099196" lon="6.742580">
        <ele>840.314</ele>
        <time>2018-07-05T13:40:00Z</time>
      </trkpt>
      <trkpt lat="46.099149" lon="6.742554">
        <ele>839.980</ele>
        <time>2018-07-05T13:40:05Z</time>
      </trkpt>
      <trkpt lat="46.099103" lon="6.742526">
        <ele>839.825</ele>
        <time>2018-07-05T13:40:15Z</time>
      </trkpt>
      <trkpt lat="46.099049" lon="6.742519">
        <ele>839.626</ele>
        <time>2018-07-05T13:40:21Z</time>
      </trkpt>
      <trkpt lat="46.098998" lon="6.742516">
        <ele>839.447</ele>
        <time>2018-07-05T13:40:25Z</time>
      </trkpt>
      <trkpt lat="46.098952" lon="6.742522">
        <ele>839.211</ele>
        <time>2018-07-05T13:40:29Z</time>
      </trkpt>
      <trkpt lat="46.098903" lon="6.742518">
        <ele>839.108</ele>
        <time>2018-07-05T13:40:33Z</time>
      </trkpt>
      <trkpt lat="46.098849" lon="6.742510">
        <ele>838.614</ele>
        <time>2018-07-05T13:40:37Z</time>
      </trkpt>
      <trkpt lat="46.098796" lon="6.742515">
        <ele>838.080</ele>
        <time>2018-07-05T13:40:45Z</time>
      </trkpt>
      <trkpt lat="46.098750" lon="6.742511">
        <ele>837.512</ele>
        <time>2018-07-05T13:40:49Z</time>
      </trkpt>
      <trkpt lat="46.098704" lon="6.742515">
        <ele>837.048</ele>
        <time>2018-07-05T13:40:56Z</time>
      </trkpt>
      <trkpt lat="46.098649" lon="6.742529">
        <ele>836.470</ele>
        <time>2018-07-05T13:41:03Z</time>
      </trkpt>
      <trkpt lat="46.098592" lon="6.742518">
        <ele>835.767</ele>
        <time>2018-07-05T13:41:07Z</time>
      </trkpt>
      <trkpt lat="46.098541" lon="6.742494">
        <ele>835.093</ele>
        <time>2018-07-05T13:41:11Z</time>
      </trkpt>
      <trkpt lat="46.098491" lon="6.742499">
        <ele>834.378</ele>
        <time>2018-07-05T13:41:16Z</time>
      </trkpt>
      <trkpt lat="46.098439" lon="6.742493">
        <ele>833.535</ele>
        <time>2018-07-05T13:41:22Z</time>
      </trkpt>
      <trkpt lat="46.098401" lon="6.742457">
        <ele>833.086</ele>
        <time>2018-07-05T13:41:29Z</time>
      </trkpt>
      <trkpt lat="46.098362" lon="6.742421">
        <ele>832.414</ele>
        <time>2018-07-05T13:41:34Z</time>
      </trkpt>
      <trkpt lat="46.098320" lon="6.742395">
        <ele>831.808</ele>
        <time>2018-07-05T13:41:38Z</time>
      </trkpt>
      <trkpt lat="46.098273" lon="6.742353">
        <ele>831.085</ele>
        <time>2018-07-05T13:41:44Z</time>
      </trkpt>
      <trkpt lat="46.098233" lon="6.742317">
        <ele>830.381</ele>
        <time>2018-07-05T13:41:48Z</time>
      </trkpt>
      <trkpt lat="46.098197" lon="6.742273">
        <ele>829.613</ele>
        <time>2018-07-05T13:41:53Z</time>
      </trkpt>
      <trkpt lat="46.098182" lon="6.742196">
        <ele>829.359</ele>
        <time>2018-07-05T13:42:03Z</time>
      </trkpt>
      <trkpt lat="46.098138" lon="6.742157">
        <ele>828.631</ele>
        <time>2018-07-05T13:42:08Z</time>
      </trkpt>
      <trkpt lat="46.098094" lon="6.742123">
        <ele>828.098</ele>
        <time>2018-07-05T13:42:14Z</time>
      </trkpt>
      <trkpt lat="46.098041" lon="6.742106">
        <ele>827.364</ele>
        <time>2018-07-05T13:42:19Z</time>
      </trkpt>
      <trkpt lat="46.097990" lon="6.742129">
        <ele>826.659</ele>
        <time>2018-07-05T13:42:24Z</time>
      </trkpt>
      <trkpt lat="46.097933" lon="6.742130">
        <ele>826.043</ele>
        <time>2018-07-05T13:42:28Z</time>
      </trkpt>
      <trkpt lat="46.097885" lon="6.742125">
        <ele>825.564</ele>
        <time>2018-07-05T13:42:32Z</time>
      </trkpt>
      <trkpt lat="46.097845" lon="6.742161">
        <ele>824.910</ele>
        <time>2018-07-05T13:42:38Z</time>
      </trkpt>
      <trkpt lat="46.097797" lon="6.742157">
        <ele>824.408</ele>
        <time>2018-07-05T13:42:43Z</time>
      </trkpt>
      <trkpt lat="46.097748" lon="6.742190">
        <ele>823.876</ele>
        <time>2018-07-05T13:42:50Z</time>
      </trkpt>
      <trkpt lat="46.097706" lon="6.742218">
        <ele>823.252</ele>
        <time>2018-07-05T13:42:55Z</time>
      </trkpt>
      <trkpt lat="46.097654" lon="6.742242">
        <ele>822.754</ele>
        <time>2018-07-05T13:43:05Z</time>
      </trkpt>
      <trkpt lat="46.097557" lon="6.742183">
        <ele>821.620</ele>
        <time>2018-07-05T13:43:57Z</time>
      </trkpt>
      <trkpt lat="46.097535" lon="6.742252">
        <ele>821.432</ele>
        <time>2018-07-05T13:44:01Z</time>
      </trkpt>
      <trkpt lat="46.097497" lon="6.742289">
        <ele>821.029</ele>
        <time>2018-07-05T13:44:04Z</time>
      </trkpt>
      <trkpt lat="46.097483" lon="6.742361">
        <ele>820.935</ele>
        <time>2018-07-05T13:44:09Z</time>
      </trkpt>
      <trkpt lat="46.097479" lon="6.742427">
        <ele>820.870</ele>
        <time>2018-07-05T13:44:13Z</time>
      </trkpt>
      <trkpt lat="46.097466" lon="6.742494">
        <ele>820.881</ele>
        <time>2018-07-05T13:44:22Z</time>
      </trkpt>
      <trkpt lat="46.097443" lon="6.742556">
        <ele>820.761</ele>
        <time>2018-07-05T13:44:30Z</time>
      </trkpt>
      <trkpt lat="46.097448" lon="6.742630">
        <ele>820.917</ele>
        <time>2018-07-05T13:44:40Z</time>
      </trkpt>
      <trkpt lat="46.097418" lon="6.742692">
        <ele>820.708</ele>
        <time>2018-07-05T13:44:47Z</time>
      </trkpt>
      <trkpt lat="46.097379" lon="6.742733">
        <ele>820.290</ele>
        <time>2018-07-05T13:44:53Z</time>
      </trkpt>
      <trkpt lat="46.097329" lon="6.742773">
        <ele>819.596</ele>
        <time>2018-07-05T13:44:57Z</time>
      </trkpt>
      <trkpt lat="46.097274" lon="6.742791">
        <ele>818.848</ele>
        <time>2018-07-05T13:45:01Z</time>
      </trkpt>
      <trkpt lat="46.097226" lon="6.742805">
        <ele>818.214</ele>
        <time>2018-07-05T13:45:04Z</time>
      </trkpt>
      <trkpt lat="46.097180" lon="6.742807">
        <ele>817.646</ele>
        <time>2018-07-05T13:45:07Z</time>
      </trkpt>
      <trkpt lat="46.097129" lon="6.742812">
        <ele>817.143</ele>
        <time>2018-07-05T13:45:11Z</time>
      </trkpt>
      <trkpt lat="46.097084" lon="6.742819">
        <ele>816.789</ele>
        <time>2018-07-05T13:45:15Z</time>
      </trkpt>
      <trkpt lat="46.097036" lon="6.742852">
        <ele>816.324</ele>
        <time>2018-07-05T13:45:37Z</time>
      </trkpt>
      <trkpt lat="46.096985" lon="6.742862">
        <ele>815.778</ele>
        <time>2018-07-05T13:45:43Z</time>
      </trkpt>
      <trkpt lat="46.096945" lon="6.742821">
        <ele>815.233</ele>
        <time>2018-07-05T13:45:49Z</time>
      </trkpt>
      <trkpt lat="46.096901" lon="6.742778">
        <ele>814.526</ele>
        <time>2018-07-05T13:45:55Z</time>
      </trkpt>
      <trkpt lat="46.096858" lon="6.742745">
        <ele>814.108</ele>
        <time>2018-07-05T13:46:01Z</time>
      </trkpt>
      <trkpt lat="46.096805" lon="6.742734">
        <ele>813.589</ele>
        <time>2018-07-05T13:46:12Z</time>
      </trkpt>
      <trkpt lat="46.096759" lon="6.742765">
        <ele>813.055</ele>
        <time>2018-07-05T13:46:19Z</time>
      </trkpt>
      <trkpt lat="46.096720" lon="6.742817">
        <ele>812.657</ele>
        <time>2018-07-05T13:46:26Z</time>
      </trkpt>
      <trkpt lat="46.096676" lon="6.742843">
        <ele>812.133</ele>
        <time>2018-07-05T13:46:31Z</time>
      </trkpt>
      <trkpt lat="46.096624" lon="6.742847">
        <ele>811.645</ele>
        <time>2018-07-05T13:46:36Z</time>
      </trkpt>
      <trkpt lat="46.096580" lon="6.742819">
        <ele>811.122</ele>
        <time>2018-07-05T13:46:43Z</time>
      </trkpt>
      <trkpt lat="46.096548" lon="6.742765">
        <ele>810.758</ele>
        <time>2018-07-05T13:46:48Z</time>
      </trkpt>
      <trkpt lat="46.096497" lon="6.742696">
        <ele>810.333</ele>
        <time>2018-07-05T13:46:55Z</time>
      </trkpt>
      <trkpt lat="46.096455" lon="6.742652">
        <ele>810.114</ele>
        <time>2018-07-05T13:46:58Z</time>
      </trkpt>
      <trkpt lat="46.096420" lon="6.742589">
        <ele>809.954</ele>
        <time>2018-07-05T13:47:03Z</time>
      </trkpt>
      <trkpt lat="46.096384" lon="6.742544">
        <ele>809.809</ele>
        <time>2018-07-05T13:47:07Z</time>
      </trkpt>
      <trkpt lat="46.096358" lon="6.742473">
        <ele>809.808</ele>
        <time>2018-07-05T13:47:12Z</time>
      </trkpt>
      <trkpt lat="46.096330" lon="6.742411">
        <ele>809.693</ele>
        <time>2018-07-05T13:47:17Z</time>
      </trkpt>
      <trkpt lat="46.096296" lon="6.742356">
        <ele>809.349</ele>
        <time>2018-07-05T13:47:21Z</time>
      </trkpt>
      <trkpt lat="46.096282" lon="6.742278">
        <ele>809.231</ele>
        <time>2018-07-05T13:47:25Z</time>
      </trkpt>
      <trkpt lat="46.096276" lon="6.742203">
        <ele>809.277</ele>
        <time>2018-07-05T13:47:29Z</time>
      </trkpt>
      <trkpt lat="46.096264" lon="6.742137">
        <ele>809.379</ele>
        <time>2018-07-05T13:47:33Z</time>
      </trkpt>
      <trkpt lat="46.096257" lon="6.742073">
        <ele>809.376</ele>
        <time>2018-07-05T13:47:40Z</time>
      </trkpt>
      <trkpt lat="46.096212" lon="6.742039">
        <ele>809.022</ele>
        <time>2018-07-05T13:47:46Z</time>
      </trkpt>
      <trkpt lat="46.096165" lon="6.742032">
        <ele>808.547</ele>
        <time>2018-07-05T13:48:00Z</time>
      </trkpt>
      <trkpt lat="46.096127" lon="6.741976">
        <ele>808.275</ele>
        <time>2018-07-05T13:48:07Z</time>
      </trkpt>
      <trkpt lat="46.096088" lon="6.741935">
        <ele>807.828</ele>
        <time>2018-07-05T13:48:13Z</time>
      </trkpt>
      <trkpt lat="46.096052" lon="6.741894">
        <ele>807.420</ele>
        <time>2018-07-05T13:48:17Z</time>
      </trkpt>
      <trkpt lat="46.096009" lon="6.741845">
        <ele>806.908</ele>
        <time>2018-07-05T13:48:21Z</time>
      </trkpt>
      <trkpt lat="46.095961" lon="6.741815">
        <ele>806.429</ele>
        <time>2018-07-05T13:48:25Z</time>
      </trkpt>
      <trkpt lat="46.095908" lon="6.741798">
        <ele>805.875</ele>
        <time>2018-07-05T13:48:31Z</time>
      </trkpt>
      <trkpt lat="46.095863" lon="6.741788">
        <ele>805.367</ele>
        <time>2018-07-05T13:48:36Z</time>
      </trkpt>
      <trkpt lat="46.095811" lon="6.741756">
        <ele>804.823</ele>
        <time>2018-07-05T13:48:42Z</time>
      </trkpt>
      <trkpt lat="46.095769" lon="6.741726">
        <ele>804.345</ele>
        <time>2018-07-05T13:48:47Z</time>
      </trkpt>
      <trkpt lat="46.095719" lon="6.741727">
        <ele>803.812</ele>
        <time>2018-07-05T13:48:53Z</time>
      </trkpt>
      <trkpt lat="46.095672" lon="6.741759">
        <ele>803.328</ele>
        <time>2018-07-05T13:49:01Z</time>
      </trkpt>
      <trkpt lat="46.095629" lon="6.741779">
        <ele>802.893</ele>
        <time>2018-07-05T13:49:07Z</time>
      </trkpt>
      <trkpt lat="46.095576" lon="6.741793">
        <ele>802.215</ele>
        <time>2018-07-05T13:49:11Z</time>
      </trkpt>
      <trkpt lat="46.095537" lon="6.741757">
        <ele>801.965</ele>
        <time>2018-07-05T13:49:45Z</time>
      </trkpt>
      <trkpt lat="46.095498" lon="6.741719">
        <ele>801.611</ele>
        <time>2018-07-05T13:49:50Z</time>
      </trkpt>
      <trkpt lat="46.095457" lon="6.741666">
        <ele>801.308</ele>
        <time>2018-07-05T13:49:55Z</time>
      </trkpt>
      <trkpt lat="46.095406" lon="6.741693">
        <ele>800.973</ele>
        <time>2018-07-05T13:50:01Z</time>
      </trkpt>
      <trkpt lat="46.095358" lon="6.741673">
        <ele>800.629</ele>
        <time>2018-07-05T13:50:06Z</time>
      </trkpt>
      <trkpt lat="46.095313" lon="6.741652">
        <ele>800.211</ele>
        <time>2018-07-05T13:50:12Z</time>
      </trkpt>
      <trkpt lat="46.095264" lon="6.741627">
        <ele>799.867</ele>
        <time>2018-07-05T13:50:17Z</time>
      </trkpt>
      <trkpt lat="46.095218" lon="6.741605">
        <ele>799.339</ele>
        <time>2018-07-05T13:50:21Z</time>
      </trkpt>
      <trkpt lat="46.095183" lon="6.741563">
        <ele>798.946</ele>
        <time>2018-07-05T13:50:25Z</time>
      </trkpt>
      <trkpt lat="46.095142" lon="6.741529">
        <ele>798.552</ele>
        <time>2018-07-05T13:50:30Z</time>
      </trkpt>
      <trkpt lat="46.095100" lon="6.741494">
        <ele>798.127</ele>
        <time>2018-07-05T13:50:34Z</time>
      </trkpt>
      <trkpt lat="46.095055" lon="6.741460">
        <ele>797.767</ele>
        <time>2018-07-05T13:50:39Z</time>
      </trkpt>
      <trkpt lat="46.095006" lon="6.741436">
        <ele>797.281</ele>
        <time>2018-07-05T13:50:43Z</time>
      </trkpt>
      <trkpt lat="46.094959" lon="6.741427">
        <ele>796.719</ele>
        <time>2018-07-05T13:50:47Z</time>
      </trkpt>
      <trkpt lat="46.094909" lon="6.741407">
        <ele>796.108</ele>
        <time>2018-07-05T13:50:52Z</time>
      </trkpt>
      <trkpt lat="46.094873" lon="6.741352">
        <ele>795.718</ele>
        <time>2018-07-05T13:50:58Z</time>
      </trkpt>
      <trkpt lat="46.094837" lon="6.741309">
        <ele>795.454</ele>
        <time>2018-07-05T13:51:02Z</time>
      </trkpt>
      <trkpt lat="46.094788" lon="6.741280">
        <ele>795.026</ele>
        <time>2018-07-05T13:51:07Z</time>
      </trkpt>
      <trkpt lat="46.094735" lon="6.741273">
        <ele>794.532</ele>
        <time>2018-07-05T13:51:13Z</time>
      </trkpt>
      <trkpt lat="46.094684" lon="6.741263">
        <ele>794.144</ele>
        <time>2018-07-05T13:51:19Z</time>
      </trkpt>
      <trkpt lat="46.094637" lon="6.741275">
        <ele>793.711</ele>
        <time>2018-07-05T13:51:26Z</time>
      </trkpt>
      <trkpt lat="46.094591" lon="6.741258">
        <ele>793.317</ele>
        <time>2018-07-05T13:51:41Z</time>
      </trkpt>
      <trkpt lat="46.094580" lon="6.741330">
        <ele>793.162</ele>
        <time>2018-07-05T13:51:46Z</time>
      </trkpt>
      <trkpt lat="46.094587" lon="6.741401">
        <ele>793.119</ele>
        <time>2018-07-05T13:51:51Z</time>
      </trkpt>
      <trkpt lat="46.094568" lon="6.741466">
        <ele>793.309</ele>
        <time>2018-07-05T13:51:57Z</time>
      </trkpt>
      <trkpt lat="46.094523" lon="6.741491">
        <ele>793.019</ele>
        <time>2018-07-05T13:52:05Z</time>
      </trkpt>
      <trkpt lat="46.094477" lon="6.741505">
        <ele>792.708</ele>
        <time>2018-07-05T13:52:10Z</time>
      </trkpt>
      <trkpt lat="46.094428" lon="6.741501">
        <ele>792.243</ele>
        <time>2018-07-05T13:52:17Z</time>
      </trkpt>
      <trkpt lat="46.094379" lon="6.741491">
        <ele>791.689</ele>
        <time>2018-07-05T13:52:20Z</time>
      </trkpt>
      <trkpt lat="46.094331" lon="6.741513">
        <ele>791.041</ele>
        <time>2018-07-05T13:52:24Z</time>
      </trkpt>
      <trkpt lat="46.094279" lon="6.741513">
        <ele>790.487</ele>
        <time>2018-07-05T13:52:29Z</time>
      </trkpt>
      <trkpt lat="46.094233" lon="6.741540">
        <ele>789.879</ele>
        <time>2018-07-05T13:52:40Z</time>
      </trkpt>
      <trkpt lat="46.093877" lon="6.741568">
        <ele>786.576</ele>
        <time>2018-07-05T13:53:12Z</time>
      </trkpt>
      <trkpt lat="46.093847" lon="6.741516">
        <ele>786.122</ele>
        <time>2018-07-05T13:53:17Z</time>
      </trkpt>
      <trkpt lat="46.093809" lon="6.741475">
        <ele>785.697</ele>
        <time>2018-07-05T13:53:20Z</time>
      </trkpt>
      <trkpt lat="46.093770" lon="6.741441">
        <ele>785.351</ele>
        <time>2018-07-05T13:53:24Z</time>
      </trkpt>
      <trkpt lat="46.093705" lon="6.741394">
        <ele>784.701</ele>
        <time>2018-07-05T13:53:28Z</time>
      </trkpt>
      <trkpt lat="46.093664" lon="6.741360">
        <ele>784.611</ele>
        <time>2018-07-05T13:53:33Z</time>
      </trkpt>
      <trkpt lat="46.093637" lon="6.741308">
        <ele>784.808</ele>
        <time>2018-07-05T13:53:38Z</time>
      </trkpt>
      <trkpt lat="46.093588" lon="6.741253">
        <ele>784.767</ele>
        <time>2018-07-05T13:53:45Z</time>
      </trkpt>
      <trkpt lat="46.093540" lon="6.741239">
        <ele>784.323</ele>
        <time>2018-07-05T13:53:49Z</time>
      </trkpt>
      <trkpt lat="46.093493" lon="6.741232">
        <ele>783.865</ele>
        <time>2018-07-05T13:53:54Z</time>
      </trkpt>
      <trkpt lat="46.093447" lon="6.741218">
        <ele>783.361</ele>
        <time>2018-07-05T13:53:58Z</time>
      </trkpt>
      <trkpt lat="46.093403" lon="6.741187">
        <ele>782.973</ele>
        <time>2018-07-05T13:54:02Z</time>
      </trkpt>
      <trkpt lat="46.093356" lon="6.741147">
        <ele>782.320</ele>
        <time>2018-07-05T13:54:06Z</time>
      </trkpt>
      <trkpt lat="46.093314" lon="6.741109">
        <ele>781.816</ele>
        <time>2018-07-05T13:54:10Z</time>
      </trkpt>
      <trkpt lat="46.093269" lon="6.741091">
        <ele>781.321</ele>
        <time>2018-07-05T13:54:14Z</time>
      </trkpt>
      <trkpt lat="46.093223" lon="6.741071">
        <ele>780.868</ele>
        <time>2018-07-05T13:54:18Z</time>
      </trkpt>
      <trkpt lat="46.093180" lon="6.741035">
        <ele>780.342</ele>
        <time>2018-07-05T13:54:22Z</time>
      </trkpt>
      <trkpt lat="46.093133" lon="6.741021">
        <ele>779.726</ele>
        <time>2018-07-05T13:54:26Z</time>
      </trkpt>
      <trkpt lat="46.093088" lon="6.741037">
        <ele>779.108</ele>
        <time>2018-07-05T13:54:30Z</time>
      </trkpt>
      <trkpt lat="46.093040" lon="6.741067">
        <ele>778.758</ele>
        <time>2018-07-05T13:54:35Z</time>
      </trkpt>
      <trkpt lat="46.093001" lon="6.741107">
        <ele>778.494</ele>
        <time>2018-07-05T13:54:39Z</time>
      </trkpt>
      <trkpt lat="46.092950" lon="6.741131">
        <ele>777.956</ele>
        <time>2018-07-05T13:54:44Z</time>
      </trkpt>
      <trkpt lat="46.092908" lon="6.741107">
        <ele>777.482</ele>
        <time>2018-07-05T13:54:48Z</time>
      </trkpt>
      <trkpt lat="46.092868" lon="6.741075">
        <ele>776.954</ele>
        <time>2018-07-05T13:54:52Z</time>
      </trkpt>
      <trkpt lat="46.092818" lon="6.741037">
        <ele>776.421</ele>
        <time>2018-07-05T13:54:57Z</time>
      </trkpt>
      <trkpt lat="46.092772" lon="6.741008">
        <ele>776.037</ele>
        <time>2018-07-05T13:55:01Z</time>
      </trkpt>
      <trkpt lat="46.092736" lon="6.740968">
        <ele>775.732</ele>
        <time>2018-07-05T13:55:05Z</time>
      </trkpt>
      <trkpt lat="46.092697" lon="6.740920">
        <ele>775.415</ele>
        <time>2018-07-05T13:55:09Z</time>
      </trkpt>
      <trkpt lat="46.092658" lon="6.740882">
        <ele>775.165</ele>
        <time>2018-07-05T13:55:13Z</time>
      </trkpt>
      <trkpt lat="46.092616" lon="6.740835">
        <ele>774.811</ele>
        <time>2018-07-05T13:55:18Z</time>
      </trkpt>
      <trkpt lat="46.092574" lon="6.740808">
        <ele>774.608</ele>
        <time>2018-07-05T13:55:22Z</time>
      </trkpt>
      <trkpt lat="46.092533" lon="6.740763">
        <ele>774.513</ele>
        <time>2018-07-05T13:55:27Z</time>
      </trkpt>
      <trkpt lat="46.092491" lon="6.740722">
        <ele>774.369</ele>
        <time>2018-07-05T13:55:31Z</time>
      </trkpt>
      <trkpt lat="46.092455" lon="6.740678">
        <ele>774.171</ele>
        <time>2018-07-05T13:55:35Z</time>
      </trkpt>
      <trkpt lat="46.092407" lon="6.740643">
        <ele>773.857</ele>
        <time>2018-07-05T13:55:40Z</time>
      </trkpt>
      <trkpt lat="46.092366" lon="6.740616">
        <ele>773.469</ele>
        <time>2018-07-05T13:55:44Z</time>
      </trkpt>
      <trkpt lat="46.092321" lon="6.740581">
        <ele>773.046</ele>
        <time>2018-07-05T13:55:48Z</time>
      </trkpt>
      <trkpt lat="46.092272" lon="6.740541">
        <ele>772.562</ele>
        <time>2018-07-05T13:55:52Z</time>
      </trkpt>
      <trkpt lat="46.092224" lon="6.740511">
        <ele>772.027</ele>
        <time>2018-07-05T13:55:56Z</time>
      </trkpt>
      <trkpt lat="46.092184" lon="6.740471">
        <ele>771.642</ele>
        <time>2018-07-05T13:56:00Z</time>
      </trkpt>
      <trkpt lat="46.092152" lon="6.740417">
        <ele>771.222</ele>
        <time>2018-07-05T13:56:05Z</time>
      </trkpt>
      <trkpt lat="46.092119" lon="6.740364">
        <ele>770.914</ele>
        <time>2018-07-05T13:56:09Z</time>
      </trkpt>
      <trkpt lat="46.092083" lon="6.740311">
        <ele>770.508</ele>
        <time>2018-07-05T13:56:13Z</time>
      </trkpt>
      <trkpt lat="46.092053" lon="6.740254">
        <ele>770.326</ele>
        <time>2018-07-05T13:56:17Z</time>
      </trkpt>
      <trkpt lat="46.092027" lon="6.740201">
        <ele>770.292</ele>
        <time>2018-07-05T13:56:21Z</time>
      </trkpt>
      <trkpt lat="46.091990" lon="6.740150">
        <ele>770.094</ele>
        <time>2018-07-05T13:56:25Z</time>
      </trkpt>
      <trkpt lat="46.091955" lon="6.740095">
        <ele>769.840</ele>
        <time>2018-07-05T13:56:29Z</time>
      </trkpt>
      <trkpt lat="46.091923" lon="6.740045">
        <ele>769.712</ele>
        <time>2018-07-05T13:56:33Z</time>
      </trkpt>
      <trkpt lat="46.091889" lon="6.739996">
        <ele>769.649</ele>
        <time>2018-07-05T13:56:37Z</time>
      </trkpt>
      <trkpt lat="46.091848" lon="6.739958">
        <ele>769.695</ele>
        <time>2018-07-05T13:56:41Z</time>
      </trkpt>
      <trkpt lat="46.091811" lon="6.739920">
        <ele>769.540</ele>
        <time>2018-07-05T13:56:45Z</time>
      </trkpt>
      <trkpt lat="46.091767" lon="6.739873">
        <ele>769.337</ele>
        <time>2018-07-05T13:56:50Z</time>
      </trkpt>
      <trkpt lat="46.091726" lon="6.739837">
        <ele>769.149</ele>
        <time>2018-07-05T13:56:54Z</time>
      </trkpt>
      <trkpt lat="46.091679" lon="6.739805">
        <ele>768.813</ele>
        <time>2018-07-05T13:56:58Z</time>
      </trkpt>
      <trkpt lat="46.091636" lon="6.739774">
        <ele>768.608</ele>
        <time>2018-07-05T13:57:02Z</time>
      </trkpt>
      <trkpt lat="46.091585" lon="6.739744">
        <ele>768.445</ele>
        <time>2018-07-05T13:57:07Z</time>
      </trkpt>
      <trkpt lat="46.091540" lon="6.739724">
        <ele>768.141</ele>
        <time>2018-07-05T13:57:11Z</time>
      </trkpt>
      <trkpt lat="46.091491" lon="6.739715">
        <ele>767.773</ele>
        <time>2018-07-05T13:57:15Z</time>
      </trkpt>
      <trkpt lat="46.091446" lon="6.739711">
        <ele>767.429</ele>
        <time>2018-07-05T13:57:18Z</time>
      </trkpt>
      <trkpt lat="46.091396" lon="6.739712">
        <ele>767.121</ele>
        <time>2018-07-05T13:57:22Z</time>
      </trkpt>
      <trkpt lat="46.091350" lon="6.739709">
        <ele>766.698</ele>
        <time>2018-07-05T13:57:26Z</time>
      </trkpt>
      <trkpt lat="46.091295" lon="6.739713">
        <ele>766.014</ele>
        <time>2018-07-05T13:57:31Z</time>
      </trkpt>
      <trkpt lat="46.091244" lon="6.739701">
        <ele>765.419</ele>
        <time>2018-07-05T13:57:36Z</time>
      </trkpt>
      <trkpt lat="46.091196" lon="6.739700">
        <ele>764.914</ele>
        <time>2018-07-05T13:57:41Z</time>
      </trkpt>
      <trkpt lat="46.091149" lon="6.739688">
        <ele>764.454</ele>
        <time>2018-07-05T13:57:46Z</time>
      </trkpt>
      <trkpt lat="46.091100" lon="6.739682">
        <ele>763.909</ele>
        <time>2018-07-05T13:57:51Z</time>
      </trkpt>
      <trkpt lat="46.091050" lon="6.739673">
        <ele>763.608</ele>
        <time>2018-07-05T13:57:56Z</time>
      </trkpt>
      <trkpt lat="46.091003" lon="6.739645">
        <ele>763.233</ele>
        <time>2018-07-05T13:58:06Z</time>
      </trkpt>
      <trkpt lat="46.090973" lon="6.739584">
        <ele>763.019</ele>
        <time>2018-07-05T13:58:18Z</time>
      </trkpt>
      <trkpt lat="46.090922" lon="6.739559">
        <ele>762.651</ele>
        <time>2018-07-05T13:58:23Z</time>
      </trkpt>
      <trkpt lat="46.090872" lon="6.739525">
        <ele>762.347</ele>
        <time>2018-07-05T13:58:28Z</time>
      </trkpt>
      <trkpt lat="46.090830" lon="6.739499">
        <ele>762.079</ele>
        <time>2018-07-05T13:58:32Z</time>
      </trkpt>
      <trkpt lat="46.090778" lon="6.739465">
        <ele>761.666</ele>
        <time>2018-07-05T13:58:37Z</time>
      </trkpt>
      <trkpt lat="46.090737" lon="6.739434">
        <ele>761.382</ele>
        <time>2018-07-05T13:58:41Z</time>
      </trkpt>
      <trkpt lat="46.090690" lon="6.739392">
        <ele>761.067</ele>
        <time>2018-07-05T13:58:46Z</time>
      </trkpt>
      <trkpt lat="46.090652" lon="6.739356">
        <ele>760.746</ele>
        <time>2018-07-05T13:58:50Z</time>
      </trkpt>
      <trkpt lat="46.090615" lon="6.739316">
        <ele>760.488</ele>
        <time>2018-07-05T13:58:54Z</time>
      </trkpt>
      <trkpt lat="46.090576" lon="6.739278">
        <ele>760.116</ele>
        <time>2018-07-05T13:58:58Z</time>
      </trkpt>
      <trkpt lat="46.090536" lon="6.739235">
        <ele>760.008</ele>
        <time>2018-07-05T13:59:02Z</time>
      </trkpt>
      <trkpt lat="46.090499" lon="6.739190">
        <ele>760.026</ele>
        <time>2018-07-05T13:59:06Z</time>
      </trkpt>
      <trkpt lat="46.090459" lon="6.739135">
        <ele>760.162</ele>
        <time>2018-07-05T13:59:11Z</time>
      </trkpt>
      <trkpt lat="46.090421" lon="6.739086">
        <ele>760.384</ele>
        <time>2018-07-05T13:59:15Z</time>
      </trkpt>
      <trkpt lat="46.090388" lon="6.739035">
        <ele>760.480</ele>
        <time>2018-07-05T13:59:19Z</time>
      </trkpt>
      <trkpt lat="46.090356" lon="6.738985">
        <ele>760.422</ele>
        <time>2018-07-05T13:59:23Z</time>
      </trkpt>
      <trkpt lat="46.090326" lon="6.738924">
        <ele>760.399</ele>
        <time>2018-07-05T13:59:27Z</time>
      </trkpt>
      <trkpt lat="46.090301" lon="6.738860">
        <ele>760.285</ele>
        <time>2018-07-05T13:59:31Z</time>
      </trkpt>
      <trkpt lat="46.090273" lon="6.738808">
        <ele>760.080</ele>
        <time>2018-07-05T13:59:35Z</time>
      </trkpt>
      <trkpt lat="46.090240" lon="6.738761">
        <ele>760.046</ele>
        <time>2018-07-05T13:59:39Z</time>
      </trkpt>
      <trkpt lat="46.090205" lon="6.738718">
        <ele>760.088</ele>
        <time>2018-07-05T13:59:43Z</time>
      </trkpt>
      <trkpt lat="46.090155" lon="6.738679">
        <ele>760.016</ele>
        <time>2018-07-05T13:59:48Z</time>
      </trkpt>
      <trkpt lat="46.090109" lon="6.738650">
        <ele>760.008</ele>
        <time>2018-07-05T13:59:52Z</time>
      </trkpt>
      <trkpt lat="46.090060" lon="6.738622">
        <ele>760.076</ele>
        <time>2018-07-05T13:59:56Z</time>
      </trkpt>
      <trkpt lat="46.090014" lon="6.738594">
        <ele>760.112</ele>
        <time>2018-07-05T14:00:00Z</time>
      </trkpt>
      <trkpt lat="46.089969" lon="6.738582">
        <ele>760.134</ele>
        <time>2018-07-05T14:00:04Z</time>
      </trkpt>
      <trkpt lat="46.089914" lon="6.738566">
        <ele>760.210</ele>
        <time>2018-07-05T14:00:09Z</time>
      </trkpt>
      <trkpt lat="46.089863" lon="6.738561">
        <ele>760.282</ele>
        <time>2018-07-05T14:00:13Z</time>
      </trkpt>
      <trkpt lat="46.089811" lon="6.738555">
        <ele>760.269</ele>
        <time>2018-07-05T14:00:17Z</time>
      </trkpt>
      <trkpt lat="46.089765" lon="6.738536">
        <ele>760.315</ele>
        <time>2018-07-05T14:00:21Z</time>
      </trkpt>
      <trkpt lat="46.089718" lon="6.738525">
        <ele>760.350</ele>
        <time>2018-07-05T14:00:25Z</time>
      </trkpt>
      <trkpt lat="46.089671" lon="6.738513">
        <ele>760.337</ele>
        <time>2018-07-05T14:00:29Z</time>
      </trkpt>
      <trkpt lat="46.089623" lon="6.738505">
        <ele>760.249</ele>
        <time>2018-07-05T14:00:33Z</time>
      </trkpt>
      <trkpt lat="46.089578" lon="6.738493">
        <ele>760.213</ele>
        <time>2018-07-05T14:00:37Z</time>
      </trkpt>
      <trkpt lat="46.089530" lon="6.738478">
        <ele>760.108</ele>
        <time>2018-07-05T14:00:41Z</time>
      </trkpt>
      <trkpt lat="46.089480" lon="6.738446">
        <ele>760.185</ele>
        <time>2018-07-05T14:00:45Z</time>
      </trkpt>
      <trkpt lat="46.089432" lon="6.738396">
        <ele>760.061</ele>
        <time>2018-07-05T14:00:49Z</time>
      </trkpt>
      <trkpt lat="46.089379" lon="6.738364">
        <ele>760.043</ele>
        <time>2018-07-05T14:00:54Z</time>
      </trkpt>
      <trkpt lat="46.089327" lon="6.738376">
        <ele>760.069</ele>
        <time>2018-07-05T14:01:01Z</time>
      </trkpt>
      <trkpt lat="46.089270" lon="6.738354">
        <ele>760.031</ele>
        <time>2018-07-05T14:01:06Z</time>
      </trkpt>
      <trkpt lat="46.089215" lon="6.738358">
        <ele>760.018</ele>
        <time>2018-07-05T14:01:11Z</time>
      </trkpt>
      <trkpt lat="46.089166" lon="6.738365">
        <ele>760.084</ele>
        <time>2018-07-05T14:01:15Z</time>
      </trkpt>
      <trkpt lat="46.089115" lon="6.738371">
        <ele>759.649</ele>
        <time>2018-07-05T14:01:19Z</time>
      </trkpt>
      <trkpt lat="46.089059" lon="6.738376">
        <ele>759.228</ele>
        <time>2018-07-05T14:01:23Z</time>
      </trkpt>
      <trkpt lat="46.089000" lon="6.738381">
        <ele>758.889</ele>
        <time>2018-07-05T14:01:27Z</time>
      </trkpt>
      <trkpt lat="46.088946" lon="6.738378">
        <ele>758.417</ele>
        <time>2018-07-05T14:01:31Z</time>
      </trkpt>
      <trkpt lat="46.088898" lon="6.738375">
        <ele>758.108</ele>
        <time>2018-07-05T14:01:35Z</time>
      </trkpt>
      <trkpt lat="46.088849" lon="6.738368">
        <ele>757.394</ele>
        <time>2018-07-05T14:01:39Z</time>
      </trkpt>
      <trkpt lat="46.088798" lon="6.738355">
        <ele>756.440</ele>
        <time>2018-07-05T14:01:43Z</time>
      </trkpt>
      <trkpt lat="46.088746" lon="6.738338">
        <ele>755.452</ele>
        <time>2018-07-05T14:01:47Z</time>
      </trkpt>
      <trkpt lat="46.088698" lon="6.738307">
        <ele>754.778</ele>
        <time>2018-07-05T14:01:51Z</time>
      </trkpt>
      <trkpt lat="46.088651" lon="6.738276">
        <ele>753.930</ele>
        <time>2018-07-05T14:01:55Z</time>
      </trkpt>
      <trkpt lat="46.088609" lon="6.738238">
        <ele>753.357</ele>
        <time>2018-07-05T14:01:59Z</time>
      </trkpt>
      <trkpt lat="46.088560" lon="6.738188">
        <ele>753.033</ele>
        <time>2018-07-05T14:02:08Z</time>
      </trkpt>
      <trkpt lat="46.088519" lon="6.738150">
        <ele>752.718</ele>
        <time>2018-07-05T14:02:13Z</time>
      </trkpt>
      <trkpt lat="46.088479" lon="6.738110">
        <ele>752.473</ele>
        <time>2018-07-05T14:02:17Z</time>
      </trkpt>
      <trkpt lat="46.088437" lon="6.738072">
        <ele>752.185</ele>
        <time>2018-07-05T14:02:21Z</time>
      </trkpt>
      <trkpt lat="46.088397" lon="6.738036">
        <ele>751.813</ele>
        <time>2018-07-05T14:02:25Z</time>
      </trkpt>
      <trkpt lat="46.088355" lon="6.738000">
        <ele>751.608</ele>
        <time>2018-07-05T14:02:29Z</time>
      </trkpt>
      <trkpt lat="46.088310" lon="6.737963">
        <ele>751.619</ele>
        <time>2018-07-05T14:02:33Z</time>
      </trkpt>
      <trkpt lat="46.088265" lon="6.737932">
        <ele>751.515</ele>
        <time>2018-07-05T14:02:37Z</time>
      </trkpt>
      <trkpt lat="46.088216" lon="6.737906">
        <ele>751.427</ele>
        <time>2018-07-05T14:02:41Z</time>
      </trkpt>
      <trkpt lat="46.088170" lon="6.737881">
        <ele>751.373</ele>
        <time>2018-07-05T14:02:45Z</time>
      </trkpt>
      <trkpt lat="46.088128" lon="6.737856">
        <ele>751.255</ele>
        <time>2018-07-05T14:02:49Z</time>
      </trkpt>
      <trkpt lat="46.088080" lon="6.737836">
        <ele>750.972</ele>
        <time>2018-07-05T14:02:53Z</time>
      </trkpt>
      <trkpt lat="46.088036" lon="6.737811">
        <ele>750.848</ele>
        <time>2018-07-05T14:02:57Z</time>
      </trkpt>
      <trkpt lat="46.087992" lon="6.737792">
        <ele>750.723</ele>
        <time>2018-07-05T14:03:01Z</time>
      </trkpt>
      <trkpt lat="46.087948" lon="6.737771">
        <ele>750.731</ele>
        <time>2018-07-05T14:03:05Z</time>
      </trkpt>
      <trkpt lat="46.087905" lon="6.737744">
        <ele>750.661</ele>
        <time>2018-07-05T14:03:09Z</time>
      </trkpt>
      <trkpt lat="46.087860" lon="6.737713">
        <ele>750.607</ele>
        <time>2018-07-05T14:03:13Z</time>
      </trkpt>
      <trkpt lat="46.087810" lon="6.737684">
        <ele>750.508</ele>
        <time>2018-07-05T14:03:17Z</time>
      </trkpt>
      <trkpt lat="46.087762" lon="6.737655">
        <ele>750.445</ele>
        <time>2018-07-05T14:03:21Z</time>
      </trkpt>
      <trkpt lat="46.087710" lon="6.737619">
        <ele>750.471</ele>
        <time>2018-07-05T14:03:25Z</time>
      </trkpt>
      <trkpt lat="46.087664" lon="6.737589">
        <ele>750.433</ele>
        <time>2018-07-05T14:03:29Z</time>
      </trkpt>
      <trkpt lat="46.087621" lon="6.737561">
        <ele>750.339</ele>
        <time>2018-07-05T14:03:33Z</time>
      </trkpt>
      <trkpt lat="46.087579" lon="6.737529">
        <ele>750.381</ele>
        <time>2018-07-05T14:03:37Z</time>
      </trkpt>
      <trkpt lat="46.087531" lon="6.737493">
        <ele>750.118</ele>
        <time>2018-07-05T14:03:42Z</time>
      </trkpt>
      <trkpt lat="46.087484" lon="6.737459">
        <ele>750.164</ele>
        <time>2018-07-05T14:03:46Z</time>
      </trkpt>
      <trkpt lat="46.087437" lon="6.737428">
        <ele>750.049</ele>
        <time>2018-07-05T14:03:50Z</time>
      </trkpt>
      <trkpt lat="46.087393" lon="6.737404">
        <ele>750.064</ele>
        <time>2018-07-05T14:03:54Z</time>
      </trkpt>
      <trkpt lat="46.087350" lon="6.737379">
        <ele>749.906</ele>
        <time>2018-07-05T14:03:58Z</time>
      </trkpt>
      <trkpt lat="46.087297" lon="6.737358">
        <ele>749.816</ele>
        <time>2018-07-05T14:04:03Z</time>
      </trkpt>
      <trkpt lat="46.087247" lon="6.737338">
        <ele>749.708</ele>
        <time>2018-07-05T14:04:07Z</time>
      </trkpt>
      <trkpt lat="46.087200" lon="6.737311">
        <ele>749.428</ele>
        <time>2018-07-05T14:04:11Z</time>
      </trkpt>
      <trkpt lat="46.087160" lon="6.737279">
        <ele>748.944</ele>
        <time>2018-07-05T14:04:15Z</time>
      </trkpt>
      <trkpt lat="46.087129" lon="6.737212">
        <ele>748.726</ele>
        <time>2018-07-05T14:04:20Z</time>
      </trkpt>
      <trkpt lat="46.087105" lon="6.737149">
        <ele>748.752</ele>
        <time>2018-07-05T14:04:24Z</time>
      </trkpt>
      <trkpt lat="46.087086" lon="6.737085">
        <ele>748.874</ele>
        <time>2018-07-05T14:04:28Z</time>
      </trkpt>
      <trkpt lat="46.087077" lon="6.737009">
        <ele>749.151</ele>
        <time>2018-07-05T14:04:32Z</time>
      </trkpt>
      <trkpt lat="46.087070" lon="6.736938">
        <ele>749.487</ele>
        <time>2018-07-05T14:04:36Z</time>
      </trkpt>
      <trkpt lat="46.087067" lon="6.736865">
        <ele>749.542</ele>
        <time>2018-07-05T14:04:40Z</time>
      </trkpt>
      <trkpt lat="46.087062" lon="6.736790">
        <ele>749.624</ele>
        <time>2018-07-05T14:04:44Z</time>
      </trkpt>
      <trkpt lat="46.087051" lon="6.736719">
        <ele>749.704</ele>
        <time>2018-07-05T14:04:48Z</time>
      </trkpt>
      <trkpt lat="46.087038" lon="6.736647">
        <ele>749.714</ele>
        <time>2018-07-05T14:04:52Z</time>
      </trkpt>
      <trkpt lat="46.087021" lon="6.736583">
        <ele>749.808</ele>
        <time>2018-07-05T14:04:56Z</time>
      </trkpt>
      <trkpt lat="46.087003" lon="6.736507">
        <ele>749.994</ele>
        <time>2018-07-05T14:05:01Z</time>
      </trkpt>
      <trkpt lat="46.086977" lon="6.736441">
        <ele>750.040</ele>
        <time>2018-07-05T14:05:05Z</time>
      </trkpt>
      <trkpt lat="46.086944" lon="6.736377">
        <ele>750.062</ele>
        <time>2018-07-05T14:05:09Z</time>
      </trkpt>
      <trkpt lat="46.086914" lon="6.736310">
        <ele>749.848</ele>
        <time>2018-07-05T14:05:13Z</time>
      </trkpt>
      <trkpt lat="46.086879" lon="6.736248">
        <ele>749.540</ele>
        <time>2018-07-05T14:05:17Z</time>
      </trkpt>
      <trkpt lat="46.086841" lon="6.736201">
        <ele>749.387</ele>
        <time>2018-07-05T14:05:21Z</time>
      </trkpt>
      <trkpt lat="46.086804" lon="6.736142">
        <ele>749.043</ele>
        <time>2018-07-05T14:05:25Z</time>
      </trkpt>
      <trkpt lat="46.086770" lon="6.736084">
        <ele>748.978</ele>
        <time>2018-07-05T14:05:29Z</time>
      </trkpt>
      <trkpt lat="46.086734" lon="6.736031">
        <ele>748.853</ele>
        <time>2018-07-05T14:05:33Z</time>
      </trkpt>
      <trkpt lat="46.086706" lon="6.735979">
        <ele>748.804</ele>
        <time>2018-07-05T14:05:37Z</time>
      </trkpt>
      <trkpt lat="46.086676" lon="6.735925">
        <ele>748.814</ele>
        <time>2018-07-05T14:05:41Z</time>
      </trkpt>
      <trkpt lat="46.086645" lon="6.735872">
        <ele>748.708</ele>
        <time>2018-07-05T14:05:45Z</time>
      </trkpt>
      <trkpt lat="46.086616" lon="6.735813">
        <ele>748.877</ele>
        <time>2018-07-05T14:05:49Z</time>
      </trkpt>
      <trkpt lat="46.086584" lon="6.735756">
        <ele>748.923</ele>
        <time>2018-07-05T14:05:53Z</time>
      </trkpt>
      <trkpt lat="46.086551" lon="6.735708">
        <ele>748.985</ele>
        <time>2018-07-05T14:05:57Z</time>
      </trkpt>
      <trkpt lat="46.086523" lon="6.735655">
        <ele>748.941</ele>
        <time>2018-07-05T14:06:01Z</time>
      </trkpt>
      <trkpt lat="46.086492" lon="6.735596">
        <ele>748.923</ele>
        <time>2018-07-05T14:06:05Z</time>
      </trkpt>
      <trkpt lat="46.086462" lon="6.735547">
        <ele>748.890</ele>
        <time>2018-07-05T14:06:09Z</time>
      </trkpt>
      <trkpt lat="46.086425" lon="6.735498">
        <ele>748.656</ele>
        <time>2018-07-05T14:06:13Z</time>
      </trkpt>
      <trkpt lat="46.086392" lon="6.735445">
        <ele>748.431</ele>
        <time>2018-07-05T14:06:17Z</time>
      </trkpt>
      <trkpt lat="46.086352" lon="6.735388">
        <ele>748.386</ele>
        <time>2018-07-05T14:06:22Z</time>
      </trkpt>
      <trkpt lat="46.086317" lon="6.735341">
        <ele>748.360</ele>
        <time>2018-07-05T14:06:26Z</time>
      </trkpt>
      <trkpt lat="46.086276" lon="6.735302">
        <ele>748.126</ele>
        <time>2018-07-05T14:06:30Z</time>
      </trkpt>
      <trkpt lat="46.086236" lon="6.735266">
        <ele>748.008</ele>
        <time>2018-07-05T14:06:34Z</time>
      </trkpt>
      <trkpt lat="46.086190" lon="6.735224">
        <ele>747.960</ele>
        <time>2018-07-05T14:06:39Z</time>
      </trkpt>
      <trkpt lat="46.086152" lon="6.735179">
        <ele>747.836</ele>
        <time>2018-07-05T14:06:44Z</time>
      </trkpt>
      <trkpt lat="46.086119" lon="6.735128">
        <ele>747.688</ele>
        <time>2018-07-05T14:06:49Z</time>
      </trkpt>
      <trkpt lat="46.086078" lon="6.735084">
        <ele>747.434</ele>
        <time>2018-07-05T14:06:54Z</time>
      </trkpt>
      <trkpt lat="46.086034" lon="6.735035">
        <ele>747.396</ele>
        <time>2018-07-05T14:06:59Z</time>
      </trkpt>
      <trkpt lat="46.085992" lon="6.734989">
        <ele>747.243</ele>
        <time>2018-07-05T14:07:03Z</time>
      </trkpt>
      <trkpt lat="46.085951" lon="6.734941">
        <ele>747.379</ele>
        <time>2018-07-05T14:07:07Z</time>
      </trkpt>
      <trkpt lat="46.085911" lon="6.734882">
        <ele>747.434</ele>
        <time>2018-07-05T14:07:11Z</time>
      </trkpt>
      <trkpt lat="46.085876" lon="6.734834">
        <ele>747.536</ele>
        <time>2018-07-05T14:07:14Z</time>
      </trkpt>
      <trkpt lat="46.085838" lon="6.734784">
        <ele>747.617</ele>
        <time>2018-07-05T14:07:17Z</time>
      </trkpt>
      <trkpt lat="46.085804" lon="6.734729">
        <ele>747.518</ele>
        <time>2018-07-05T14:07:20Z</time>
      </trkpt>
      <trkpt lat="46.085770" lon="6.734683">
        <ele>747.208</ele>
        <time>2018-07-05T14:07:23Z</time>
      </trkpt>
      <trkpt lat="46.085725" lon="6.734627">
        <ele>746.865</ele>
        <time>2018-07-05T14:07:27Z</time>
      </trkpt>
      <trkpt lat="46.085678" lon="6.734578">
        <ele>746.351</ele>
        <time>2018-07-05T14:07:31Z</time>
      </trkpt>
      <trkpt lat="46.085635" lon="6.734532">
        <ele>745.883</ele>
        <time>2018-07-05T14:07:35Z</time>
      </trkpt>
      <trkpt lat="46.085591" lon="6.734490">
        <ele>745.319</ele>
        <time>2018-07-05T14:07:39Z</time>
      </trkpt>
      <trkpt lat="46.085547" lon="6.734450">
        <ele>744.981</ele>
        <time>2018-07-05T14:07:43Z</time>
      </trkpt>
      <trkpt lat="46.085506" lon="6.734412">
        <ele>744.728</ele>
        <time>2018-07-05T14:07:47Z</time>
      </trkpt>
      <trkpt lat="46.085463" lon="6.734369">
        <ele>744.544</ele>
        <time>2018-07-05T14:07:52Z</time>
      </trkpt>
      <trkpt lat="46.085419" lon="6.734330">
        <ele>744.149</ele>
        <time>2018-07-05T14:08:05Z</time>
      </trkpt>
      <trkpt lat="46.085369" lon="6.734320">
        <ele>743.642</ele>
        <time>2018-07-05T14:08:09Z</time>
      </trkpt>
      <trkpt lat="46.085322" lon="6.734310">
        <ele>743.022</ele>
        <time>2018-07-05T14:08:13Z</time>
      </trkpt>
      <trkpt lat="46.085275" lon="6.734293">
        <ele>742.514</ele>
        <time>2018-07-05T14:08:17Z</time>
      </trkpt>
      <trkpt lat="46.085224" lon="6.734271">
        <ele>741.808</ele>
        <time>2018-07-05T14:08:21Z</time>
      </trkpt>
      <trkpt lat="46.085181" lon="6.734241">
        <ele>741.286</ele>
        <time>2018-07-05T14:08:25Z</time>
      </trkpt>
      <trkpt lat="46.085135" lon="6.734210">
        <ele>740.722</ele>
        <time>2018-07-05T14:08:29Z</time>
      </trkpt>
      <trkpt lat="46.085094" lon="6.734182">
        <ele>740.354</ele>
        <time>2018-07-05T14:08:33Z</time>
      </trkpt>
      <trkpt lat="46.085046" lon="6.734193">
        <ele>739.570</ele>
        <time>2018-07-05T14:08:40Z</time>
      </trkpt>
      <trkpt lat="46.085000" lon="6.734223">
        <ele>738.652</ele>
        <time>2018-07-05T14:08:46Z</time>
      </trkpt>
      <trkpt lat="46.084959" lon="6.734250">
        <ele>737.639</ele>
        <time>2018-07-05T14:08:50Z</time>
      </trkpt>
      <trkpt lat="46.084914" lon="6.734289">
        <ele>736.445</ele>
        <time>2018-07-05T14:08:55Z</time>
      </trkpt>
      <trkpt lat="46.084859" lon="6.734300">
        <ele>735.260</ele>
        <time>2018-07-05T14:09:01Z</time>
      </trkpt>
      <trkpt lat="46.084804" lon="6.734289">
        <ele>734.271</ele>
        <time>2018-07-05T14:09:05Z</time>
      </trkpt>
      <trkpt lat="46.084746" lon="6.734270">
        <ele>733.141</ele>
        <time>2018-07-05T14:09:09Z</time>
      </trkpt>
      <trkpt lat="46.084693" lon="6.734253">
        <ele>732.215</ele>
        <time>2018-07-05T14:09:13Z</time>
      </trkpt>
      <trkpt lat="46.084649" lon="6.734215">
        <ele>731.608</ele>
        <time>2018-07-05T14:09:17Z</time>
      </trkpt>
      <trkpt lat="46.084613" lon="6.734168">
        <ele>731.079</ele>
        <time>2018-07-05T14:09:22Z</time>
      </trkpt>
      <trkpt lat="46.084573" lon="6.734119">
        <ele>730.295</ele>
        <time>2018-07-05T14:09:27Z</time>
      </trkpt>
      <trkpt lat="46.084543" lon="6.734052">
        <ele>729.567</ele>
        <time>2018-07-05T14:09:32Z</time>
      </trkpt>
      <trkpt lat="46.084515" lon="6.733992">
        <ele>728.873</ele>
        <time>2018-07-05T14:09:37Z</time>
      </trkpt>
      <trkpt lat="46.084476" lon="6.733959">
        <ele>727.935</ele>
        <time>2018-07-05T14:09:42Z</time>
      </trkpt>
      <trkpt lat="46.084433" lon="6.733981">
        <ele>727.212</ele>
        <time>2018-07-05T14:09:47Z</time>
      </trkpt>
      <trkpt lat="46.084381" lon="6.734004">
        <ele>726.418</ele>
        <time>2018-07-05T14:09:52Z</time>
      </trkpt>
      <trkpt lat="46.084326" lon="6.734019">
        <ele>725.673</ele>
        <time>2018-07-05T14:09:57Z</time>
      </trkpt>
      <trkpt lat="46.084277" lon="6.734039">
        <ele>724.888</ele>
        <time>2018-07-05T14:10:01Z</time>
      </trkpt>
      <trkpt lat="46.084227" lon="6.734061">
        <ele>724.024</ele>
        <time>2018-07-05T14:10:05Z</time>
      </trkpt>
      <trkpt lat="46.084178" lon="6.734069">
        <ele>723.226</ele>
        <time>2018-07-05T14:10:09Z</time>
      </trkpt>
      <trkpt lat="46.084131" lon="6.734061">
        <ele>722.608</ele>
        <time>2018-07-05T14:10:13Z</time>
      </trkpt>
      <trkpt lat="46.084081" lon="6.734055">
        <ele>722.160</ele>
        <time>2018-07-05T14:10:17Z</time>
      </trkpt>
      <trkpt lat="46.084030" lon="6.734078">
        <ele>721.526</ele>
        <time>2018-07-05T14:10:22Z</time>
      </trkpt>
      <trkpt lat="46.084014" lon="6.734155">
        <ele>721.468</ele>
        <time>2018-07-05T14:10:27Z</time>
      </trkpt>
      <trkpt lat="46.084008" lon="6.734232">
        <ele>721.384</ele>
        <time>2018-07-05T14:10:31Z</time>
      </trkpt>
      <trkpt lat="46.084002" lon="6.734309">
        <ele>721.226</ele>
        <time>2018-07-05T14:10:35Z</time>
      </trkpt>
      <trkpt lat="46.083999" lon="6.734381">
        <ele>721.293</ele>
        <time>2018-07-05T14:10:39Z</time>
      </trkpt>
      <trkpt lat="46.083999" lon="6.734451">
        <ele>721.279</ele>
        <time>2018-07-05T14:10:43Z</time>
      </trkpt>
      <trkpt lat="46.084002" lon="6.734525">
        <ele>721.374</ele>
        <time>2018-07-05T14:10:47Z</time>
      </trkpt>
      <trkpt lat="46.083997" lon="6.734606">
        <ele>721.494</ele>
        <time>2018-07-05T14:10:51Z</time>
      </trkpt>
      <trkpt lat="46.083983" lon="6.734681">
        <ele>721.357</ele>
        <time>2018-07-05T14:10:55Z</time>
      </trkpt>
      <trkpt lat="46.083958" lon="6.734742">
        <ele>721.222</ele>
        <time>2018-07-05T14:10:59Z</time>
      </trkpt>
      <trkpt lat="46.083922" lon="6.734782">
        <ele>721.108</ele>
        <time>2018-07-05T14:11:03Z</time>
      </trkpt>
      <trkpt lat="46.083872" lon="6.734749">
        <ele>720.311</ele>
        <time>2018-07-05T14:11:08Z</time>
      </trkpt>
      <trkpt lat="46.083840" lon="6.734686">
        <ele>720.077</ele>
        <time>2018-07-05T14:11:12Z</time>
      </trkpt>
      <trkpt lat="46.083812" lon="6.734622">
        <ele>720.069</ele>
        <time>2018-07-05T14:11:16Z</time>
      </trkpt>
      <trkpt lat="46.083777" lon="6.734572">
        <ele>720.015</ele>
        <time>2018-07-05T14:11:20Z</time>
      </trkpt>
      <trkpt lat="46.083732" lon="6.734536">
        <ele>720.097</ele>
        <time>2018-07-05T14:11:24Z</time>
      </trkpt>
      <trkpt lat="46.083687" lon="6.734506">
        <ele>720.094</ele>
        <time>2018-07-05T14:11:28Z</time>
      </trkpt>
      <trkpt lat="46.083643" lon="6.734479">
        <ele>720.060</ele>
        <time>2018-07-05T14:11:32Z</time>
      </trkpt>
      <trkpt lat="46.083595" lon="6.734455">
        <ele>719.995</ele>
        <time>2018-07-05T14:11:36Z</time>
      </trkpt>
      <trkpt lat="46.083549" lon="6.734433">
        <ele>719.597</ele>
        <time>2018-07-05T14:11:40Z</time>
      </trkpt>
      <trkpt lat="46.083503" lon="6.734415">
        <ele>719.223</ele>
        <time>2018-07-05T14:11:44Z</time>
      </trkpt>
      <trkpt lat="46.083465" lon="6.734357">
        <ele>718.825</ele>
        <time>2018-07-05T14:11:48Z</time>
      </trkpt>
      <trkpt lat="46.083416" lon="6.734363">
        <ele>718.408</ele>
        <time>2018-07-05T14:11:51Z</time>
      </trkpt>
      <trkpt lat="46.083372" lon="6.734378">
        <ele>718.141</ele>
        <time>2018-07-05T14:11:54Z</time>
      </trkpt>
      <trkpt lat="46.083325" lon="6.734372">
        <ele>717.667</ele>
        <time>2018-07-05T14:11:58Z</time>
      </trkpt>
      <trkpt lat="46.083280" lon="6.734381">
        <ele>716.999</ele>
        <time>2018-07-05T14:12:01Z</time>
      </trkpt>
      <trkpt lat="46.083226" lon="6.734415">
        <ele>716.225</ele>
        <time>2018-07-05T14:12:05Z</time>
      </trkpt>
      <trkpt lat="46.083176" lon="6.734455">
        <ele>715.857</ele>
        <time>2018-07-05T14:12:09Z</time>
      </trkpt>
      <trkpt lat="46.083128" lon="6.734475">
        <ele>715.324</ele>
        <time>2018-07-05T14:12:13Z</time>
      </trkpt>
      <trkpt lat="46.083075" lon="6.734477">
        <ele>714.690</ele>
        <time>2018-07-05T14:12:17Z</time>
      </trkpt>
      <trkpt lat="46.083019" lon="6.734467">
        <ele>714.145</ele>
        <time>2018-07-05T14:12:21Z</time>
      </trkpt>
      <trkpt lat="46.082966" lon="6.734447">
        <ele>713.746</ele>
        <time>2018-07-05T14:12:25Z</time>
      </trkpt>
      <trkpt lat="46.082913" lon="6.734418">
        <ele>713.288</ele>
        <time>2018-07-05T14:12:29Z</time>
      </trkpt>
      <trkpt lat="46.082863" lon="6.734385">
        <ele>712.616</ele>
        <time>2018-07-05T14:12:33Z</time>
      </trkpt>
      <trkpt lat="46.082817" lon="6.734349">
        <ele>712.108</ele>
        <time>2018-07-05T14:12:37Z</time>
      </trkpt>
      <trkpt lat="46.082765" lon="6.734318">
        <ele>711.666</ele>
        <time>2018-07-05T14:12:41Z</time>
      </trkpt>
      <trkpt lat="46.082719" lon="6.734282">
        <ele>711.272</ele>
        <time>2018-07-05T14:12:45Z</time>
      </trkpt>
      <trkpt lat="46.082672" lon="6.734249">
        <ele>710.884</ele>
        <time>2018-07-05T14:12:49Z</time>
      </trkpt>
      <trkpt lat="46.082626" lon="6.734217">
        <ele>710.480</ele>
        <time>2018-07-05T14:12:53Z</time>
      </trkpt>
      <trkpt lat="46.082583" lon="6.734175">
        <ele>710.142</ele>
        <time>2018-07-05T14:12:57Z</time>
      </trkpt>
      <trkpt lat="46.082539" lon="6.734133">
        <ele>710.059</ele>
        <time>2018-07-05T14:13:01Z</time>
      </trkpt>
      <trkpt lat="46.082496" lon="6.734091">
        <ele>710.045</ele>
        <time>2018-07-05T14:13:05Z</time>
      </trkpt>
      <trkpt lat="46.082451" lon="6.734051">
        <ele>710.040</ele>
        <time>2018-07-05T14:13:09Z</time>
      </trkpt>
      <trkpt lat="46.082402" lon="6.734017">
        <ele>710.066</ele>
        <time>2018-07-05T14:13:13Z</time>
      </trkpt>
      <trkpt lat="46.082360" lon="6.733978">
        <ele>710.029</ele>
        <time>2018-07-05T14:13:17Z</time>
      </trkpt>
      <trkpt lat="46.082315" lon="6.733938">
        <ele>710.021</ele>
        <time>2018-07-05T14:13:21Z</time>
      </trkpt>
      <trkpt lat="46.082264" lon="6.733887">
        <ele>710.008</ele>
        <time>2018-07-05T14:13:25Z</time>
      </trkpt>
      <trkpt lat="46.082214" lon="6.733840">
        <ele>710.058</ele>
        <time>2018-07-05T14:13:28Z</time>
      </trkpt>
      <trkpt lat="46.082176" lon="6.733798">
        <ele>710.074</ele>
        <time>2018-07-05T14:13:31Z</time>
      </trkpt>
      <trkpt lat="46.082133" lon="6.733760">
        <ele>710.026</ele>
        <time>2018-07-05T14:13:37Z</time>
      </trkpt>
      <trkpt lat="46.082094" lon="6.733724">
        <ele>710.092</ele>
        <time>2018-07-05T14:13:41Z</time>
      </trkpt>
      <trkpt lat="46.082048" lon="6.733675">
        <ele>710.074</ele>
        <time>2018-07-05T14:13:45Z</time>
      </trkpt>
      <trkpt lat="46.082005" lon="6.733635">
        <ele>710.011</ele>
        <time>2018-07-05T14:13:52Z</time>
      </trkpt>
      <trkpt lat="46.081966" lon="6.733599">
        <ele>710.017</ele>
        <time>2018-07-05T14:13:56Z</time>
      </trkpt>
      <trkpt lat="46.081924" lon="6.733563">
        <ele>710.042</ele>
        <time>2018-07-05T14:14:00Z</time>
      </trkpt>
      <trkpt lat="46.081886" lon="6.733516">
        <ele>710.046</ele>
        <time>2018-07-05T14:14:04Z</time>
      </trkpt>
      <trkpt lat="46.081833" lon="6.733525">
        <ele>710.088</ele>
        <time>2018-07-05T14:14:50Z</time>
      </trkpt>
      <trkpt lat="46.081784" lon="6.733479">
        <ele>710.016</ele>
        <time>2018-07-05T14:14:55Z</time>
      </trkpt>
      <trkpt lat="46.081743" lon="6.733432">
        <ele>710.008</ele>
        <time>2018-07-05T14:15:04Z</time>
      </trkpt>
      <trkpt lat="46.081698" lon="6.733389">
        <ele>710.076</ele>
        <time>2018-07-05T14:15:09Z</time>
      </trkpt>
      <trkpt lat="46.081657" lon="6.733344">
        <ele>710.032</ele>
        <time>2018-07-05T14:15:15Z</time>
      </trkpt>
      <trkpt lat="46.081616" lon="6.733289">
        <ele>710.094</ele>
        <time>2018-07-05T14:15:20Z</time>
      </trkpt>
      <trkpt lat="46.081575" lon="6.733248">
        <ele>710.050</ele>
        <time>2018-07-05T14:15:24Z</time>
      </trkpt>
      <trkpt lat="46.081530" lon="6.733204">
        <ele>710.062</ele>
        <time>2018-07-05T14:15:28Z</time>
      </trkpt>
      <trkpt lat="46.081491" lon="6.733150">
        <ele>710.029</ele>
        <time>2018-07-05T14:15:32Z</time>
      </trkpt>
      <trkpt lat="46.081454" lon="6.733095">
        <ele>710.025</ele>
        <time>2018-07-05T14:15:36Z</time>
      </trkpt>
      <trkpt lat="46.081413" lon="6.733051">
        <ele>710.090</ele>
        <time>2018-07-05T14:15:40Z</time>
      </trkpt>
      <trkpt lat="46.081371" lon="6.733005">
        <ele>710.071</ele>
        <time>2018-07-05T14:15:44Z</time>
      </trkpt>
      <trkpt lat="46.081334" lon="6.732958">
        <ele>710.041</ele>
        <time>2018-07-05T14:15:48Z</time>
      </trkpt>
      <trkpt lat="46.081297" lon="6.732914">
        <ele>710.015</ele>
        <time>2018-07-05T14:15:52Z</time>
      </trkpt>
      <trkpt lat="46.081260" lon="6.732862">
        <ele>710.008</ele>
        <time>2018-07-05T14:15:56Z</time>
      </trkpt>
      <trkpt lat="46.081226" lon="6.732806">
        <ele>710.029</ele>
        <time>2018-07-05T14:16:00Z</time>
      </trkpt>
      <trkpt lat="46.081183" lon="6.732762">
        <ele>710.095</ele>
        <time>2018-07-05T14:16:04Z</time>
      </trkpt>
      <trkpt lat="46.081141" lon="6.732717">
        <ele>710.047</ele>
        <time>2018-07-05T14:16:08Z</time>
      </trkpt>
      <trkpt lat="46.081103" lon="6.732663">
        <ele>710.033</ele>
        <time>2018-07-05T14:16:12Z</time>
      </trkpt>
      <trkpt lat="46.081063" lon="6.732611">
        <ele>710.085</ele>
        <time>2018-07-05T14:16:16Z</time>
      </trkpt>
      <trkpt lat="46.081024" lon="6.732559">
        <ele>710.092</ele>
        <time>2018-07-05T14:16:20Z</time>
      </trkpt>
      <trkpt lat="46.080987" lon="6.732510">
        <ele>710.098</ele>
        <time>2018-07-05T14:16:24Z</time>
      </trkpt>
      <trkpt lat="46.080950" lon="6.732457">
        <ele>709.933</ele>
        <time>2018-07-05T14:16:28Z</time>
      </trkpt>
      <trkpt lat="46.080910" lon="6.732404">
        <ele>709.959</ele>
        <time>2018-07-05T14:16:32Z</time>
      </trkpt>
      <trkpt lat="46.080870" lon="6.732353">
        <ele>709.903</ele>
        <time>2018-07-05T14:16:36Z</time>
      </trkpt>
      <trkpt lat="46.080833" lon="6.732302">
        <ele>710.023</ele>
        <time>2018-07-05T14:16:40Z</time>
      </trkpt>
      <trkpt lat="46.080796" lon="6.732253">
        <ele>710.008</ele>
        <time>2018-07-05T14:16:44Z</time>
      </trkpt>
      <trkpt lat="46.080762" lon="6.732204">
        <ele>710.037</ele>
        <time>2018-07-05T14:16:48Z</time>
      </trkpt>
      <trkpt lat="46.080725" lon="6.732154">
        <ele>709.963</ele>
        <time>2018-07-05T14:16:52Z</time>
      </trkpt>
      <trkpt lat="46.080688" lon="6.732103">
        <ele>709.835</ele>
        <time>2018-07-05T14:16:56Z</time>
      </trkpt>
      <trkpt lat="46.080654" lon="6.732052">
        <ele>709.881</ele>
        <time>2018-07-05T14:17:00Z</time>
      </trkpt>
      <trkpt lat="46.080623" lon="6.731996">
        <ele>709.863</ele>
        <time>2018-07-05T14:17:04Z</time>
      </trkpt>
      <trkpt lat="46.080602" lon="6.731933">
        <ele>709.840</ele>
        <time>2018-07-05T14:17:08Z</time>
      </trkpt>
      <trkpt lat="46.080573" lon="6.731875">
        <ele>709.746</ele>
        <time>2018-07-05T14:17:12Z</time>
      </trkpt>
      <trkpt lat="46.080536" lon="6.731819">
        <ele>709.551</ele>
        <time>2018-07-05T14:17:16Z</time>
      </trkpt>
      <trkpt lat="46.080504" lon="6.731758">
        <ele>709.121</ele>
        <time>2018-07-05T14:17:20Z</time>
      </trkpt>
      <trkpt lat="46.080474" lon="6.731700">
        <ele>708.841</ele>
        <time>2018-07-05T14:17:24Z</time>
      </trkpt>
      <trkpt lat="46.080444" lon="6.731641">
        <ele>708.505</ele>
        <time>2018-07-05T14:17:28Z</time>
      </trkpt>
      <trkpt lat="46.080416" lon="6.731583">
        <ele>708.308</ele>
        <time>2018-07-05T14:17:32Z</time>
      </trkpt>
      <trkpt lat="46.080395" lon="6.731521">
        <ele>708.294</ele>
        <time>2018-07-05T14:17:37Z</time>
      </trkpt>
      <trkpt lat="46.080365" lon="6.731472">
        <ele>708.150</ele>
        <time>2018-07-05T14:17:51Z</time>
      </trkpt>
      <trkpt lat="46.080329" lon="6.731419">
        <ele>708.032</ele>
        <time>2018-07-05T14:17:56Z</time>
      </trkpt>
      <trkpt lat="46.080290" lon="6.731360">
        <ele>707.998</ele>
        <time>2018-07-05T14:18:01Z</time>
      </trkpt>
      <trkpt lat="46.080256" lon="6.731307">
        <ele>707.640</ele>
        <time>2018-07-05T14:18:05Z</time>
      </trkpt>
      <trkpt lat="46.080227" lon="6.731251">
        <ele>707.477</ele>
        <time>2018-07-05T14:18:09Z</time>
      </trkpt>
      <trkpt lat="46.080203" lon="6.731189">
        <ele>707.293</ele>
        <time>2018-07-05T14:18:13Z</time>
      </trkpt>
      <trkpt lat="46.080172" lon="6.731126">
        <ele>707.088</ele>
        <time>2018-07-05T14:18:17Z</time>
      </trkpt>
      <trkpt lat="46.080136" lon="6.731065">
        <ele>706.899</ele>
        <time>2018-07-05T14:18:21Z</time>
      </trkpt>
      <trkpt lat="46.080100" lon="6.731008">
        <ele>706.607</ele>
        <time>2018-07-05T14:18:25Z</time>
      </trkpt>
      <trkpt lat="46.080065" lon="6.730949">
        <ele>706.427</ele>
        <time>2018-07-05T14:18:29Z</time>
      </trkpt>
      <trkpt lat="46.080029" lon="6.730893">
        <ele>706.208</ele>
        <time>2018-07-05T14:18:33Z</time>
      </trkpt>
      <trkpt lat="46.079990" lon="6.730842">
        <ele>706.071</ele>
        <time>2018-07-05T14:18:37Z</time>
      </trkpt>
      <trkpt lat="46.079947" lon="6.730792">
        <ele>705.757</ele>
        <time>2018-07-05T14:18:41Z</time>
      </trkpt>
      <trkpt lat="46.079904" lon="6.730747">
        <ele>705.589</ele>
        <time>2018-07-05T14:18:45Z</time>
      </trkpt>
      <trkpt lat="46.079864" lon="6.730702">
        <ele>705.345</ele>
        <time>2018-07-05T14:18:49Z</time>
      </trkpt>
      <trkpt lat="46.079822" lon="6.730655">
        <ele>705.127</ele>
        <time>2018-07-05T14:18:53Z</time>
      </trkpt>
      <trkpt lat="46.079779" lon="6.730608">
        <ele>705.074</ele>
        <time>2018-07-05T14:18:57Z</time>
      </trkpt>
      <trkpt lat="46.079735" lon="6.730561">
        <ele>705.030</ele>
        <time>2018-07-05T14:19:01Z</time>
      </trkpt>
      <trkpt lat="46.079689" lon="6.730515">
        <ele>705.045</ele>
        <time>2018-07-05T14:19:05Z</time>
      </trkpt>
      <trkpt lat="46.079644" lon="6.730471">
        <ele>705.052</ele>
        <time>2018-07-05T14:19:09Z</time>
      </trkpt>
      <trkpt lat="46.079602" lon="6.730430">
        <ele>705.053</ele>
        <time>2018-07-05T14:19:13Z</time>
      </trkpt>
      <trkpt lat="46.079559" lon="6.730386">
        <ele>705.008</ele>
        <time>2018-07-05T14:19:17Z</time>
      </trkpt>
      <trkpt lat="46.079517" lon="6.730346">
        <ele>705.008</ele>
        <time>2018-07-05T14:19:21Z</time>
      </trkpt>
      <trkpt lat="46.079474" lon="6.730304">
        <ele>705.027</ele>
        <time>2018-07-05T14:19:25Z</time>
      </trkpt>
      <trkpt lat="46.079432" lon="6.730259">
        <ele>705.033</ele>
        <time>2018-07-05T14:19:29Z</time>
      </trkpt>
      <trkpt lat="46.079389" lon="6.730215">
        <ele>705.045</ele>
        <time>2018-07-05T14:19:33Z</time>
      </trkpt>
      <trkpt lat="46.079346" lon="6.730171">
        <ele>705.061</ele>
        <time>2018-07-05T14:19:37Z</time>
      </trkpt>
      <trkpt lat="46.079305" lon="6.730131">
        <ele>705.023</ele>
        <time>2018-07-05T14:19:41Z</time>
      </trkpt>
      <trkpt lat="46.079261" lon="6.730095">
        <ele>705.030</ele>
        <time>2018-07-05T14:19:45Z</time>
      </trkpt>
      <trkpt lat="46.079217" lon="6.730057">
        <ele>705.046</ele>
        <time>2018-07-05T14:19:49Z</time>
      </trkpt>
      <trkpt lat="46.079173" lon="6.730014">
        <ele>705.061</ele>
        <time>2018-07-05T14:19:53Z</time>
      </trkpt>
      <trkpt lat="46.079128" lon="6.729970">
        <ele>705.072</ele>
        <time>2018-07-05T14:19:57Z</time>
      </trkpt>
      <trkpt lat="46.079090" lon="6.729926">
        <ele>705.013</ele>
        <time>2018-07-05T14:20:01Z</time>
      </trkpt>
      <trkpt lat="46.079048" lon="6.729870">
        <ele>705.014</ele>
        <time>2018-07-05T14:20:06Z</time>
      </trkpt>
      <trkpt lat="46.079010" lon="6.729817">
        <ele>705.008</ele>
        <time>2018-07-05T14:20:10Z</time>
      </trkpt>
      <trkpt lat="46.078977" lon="6.729756">
        <ele>705.089</ele>
        <time>2018-07-05T14:20:14Z</time>
      </trkpt>
      <trkpt lat="46.078937" lon="6.729691">
        <ele>705.015</ele>
        <time>2018-07-05T14:20:18Z</time>
      </trkpt>
      <trkpt lat="46.078894" lon="6.729637">
        <ele>705.087</ele>
        <time>2018-07-05T14:20:22Z</time>
      </trkpt>
      <trkpt lat="46.078852" lon="6.729587">
        <ele>705.063</ele>
        <time>2018-07-05T14:20:26Z</time>
      </trkpt>
      <trkpt lat="46.078806" lon="6.729544">
        <ele>705.065</ele>
        <time>2018-07-05T14:20:30Z</time>
      </trkpt>
      <trkpt lat="46.078763" lon="6.729500">
        <ele>705.082</ele>
        <time>2018-07-05T14:20:34Z</time>
      </trkpt>
      <trkpt lat="46.078721" lon="6.729452">
        <ele>705.018</ele>
        <time>2018-07-05T14:20:38Z</time>
      </trkpt>
      <trkpt lat="46.078681" lon="6.729400">
        <ele>705.063</ele>
        <time>2018-07-05T14:20:42Z</time>
      </trkpt>
      <trkpt lat="46.078640" lon="6.729364">
        <ele>705.058</ele>
        <time>2018-07-05T14:20:46Z</time>
      </trkpt>
      <trkpt lat="46.078598" lon="6.729330">
        <ele>705.052</ele>
        <time>2018-07-05T14:20:50Z</time>
      </trkpt>
      <trkpt lat="46.078559" lon="6.729289">
        <ele>704.917</ele>
        <time>2018-07-05T14:20:54Z</time>
      </trkpt>
      <trkpt lat="46.078517" lon="6.729252">
        <ele>704.808</ele>
        <time>2018-07-05T14:20:58Z</time>
      </trkpt>
      <trkpt lat="46.078463" lon="6.729222">
        <ele>704.677</ele>
        <time>2018-07-05T14:21:02Z</time>
      </trkpt>
      <trkpt lat="46.078411" lon="6.729189">
        <ele>704.313</ele>
        <time>2018-07-05T14:21:06Z</time>
      </trkpt>
      <trkpt lat="46.078363" lon="6.729148">
        <ele>704.125</ele>
        <time>2018-07-05T14:21:10Z</time>
      </trkpt>
      <trkpt lat="46.078308" lon="6.729102">
        <ele>704.071</ele>
        <time>2018-07-05T14:21:14Z</time>
      </trkpt>
      <trkpt lat="46.078276" lon="6.729050">
        <ele>704.023</ele>
        <time>2018-07-05T14:21:17Z</time>
      </trkpt>
      <trkpt lat="46.078235" lon="6.728992">
        <ele>704.010</ele>
        <time>2018-07-05T14:21:21Z</time>
      </trkpt>
      <trkpt lat="46.078187" lon="6.728959">
        <ele>704.046</ele>
        <time>2018-07-05T14:21:24Z</time>
      </trkpt>
      <trkpt lat="46.078144" lon="6.728918">
        <ele>704.091</ele>
        <time>2018-07-05T14:21:28Z</time>
      </trkpt>
      <trkpt lat="46.078108" lon="6.728864">
        <ele>703.963</ele>
        <time>2018-07-05T14:21:32Z</time>
      </trkpt>
      <trkpt lat="46.078070" lon="6.728825">
        <ele>703.844</ele>
        <time>2018-07-05T14:21:35Z</time>
      </trkpt>
      <trkpt lat="46.078033" lon="6.728784">
        <ele>703.618</ele>
        <time>2018-07-05T14:21:38Z</time>
      </trkpt>
      <trkpt lat="46.077995" lon="6.728746">
        <ele>703.508</ele>
        <time>2018-07-05T14:21:41Z</time>
      </trkpt>
      <trkpt lat="46.077956" lon="6.728712">
        <ele>703.418</ele>
        <time>2018-07-05T14:21:45Z</time>
      </trkpt>
      <trkpt lat="46.077915" lon="6.728681">
        <ele>703.314</ele>
        <time>2018-07-05T14:21:49Z</time>
      </trkpt>
      <trkpt lat="46.077848" lon="6.728613">
        <ele>703.096</ele>
        <time>2018-07-05T14:21:56Z</time>
      </trkpt>
      <trkpt lat="46.077806" lon="6.728586">
        <ele>703.062</ele>
        <time>2018-07-05T14:22:01Z</time>
      </trkpt>
      <trkpt lat="46.077777" lon="6.728534">
        <ele>703.094</ele>
        <time>2018-07-05T14:22:05Z</time>
      </trkpt>
      <trkpt lat="46.077749" lon="6.728480">
        <ele>703.071</ele>
        <time>2018-07-05T14:22:09Z</time>
      </trkpt>
      <trkpt lat="46.077718" lon="6.728430">
        <ele>703.017</ele>
        <time>2018-07-05T14:22:13Z</time>
      </trkpt>
      <trkpt lat="46.077680" lon="6.728389">
        <ele>703.062</ele>
        <time>2018-07-05T14:22:17Z</time>
      </trkpt>
      <trkpt lat="46.077639" lon="6.728350">
        <ele>703.087</ele>
        <time>2018-07-05T14:22:21Z</time>
      </trkpt>
      <trkpt lat="46.077598" lon="6.728307">
        <ele>702.942</ele>
        <time>2018-07-05T14:22:25Z</time>
      </trkpt>
      <trkpt lat="46.077552" lon="6.728272">
        <ele>702.826</ele>
        <time>2018-07-05T14:22:29Z</time>
      </trkpt>
      <trkpt lat="46.077510" lon="6.728227">
        <ele>702.608</ele>
        <time>2018-07-05T14:22:33Z</time>
      </trkpt>
      <trkpt lat="46.077469" lon="6.728168">
        <ele>702.430</ele>
        <time>2018-07-05T14:22:38Z</time>
      </trkpt>
      <trkpt lat="46.077431" lon="6.728116">
        <ele>702.266</ele>
        <time>2018-07-05T14:22:42Z</time>
      </trkpt>
      <trkpt lat="46.077389" lon="6.728070">
        <ele>702.138</ele>
        <time>2018-07-05T14:22:46Z</time>
      </trkpt>
      <trkpt lat="46.077345" lon="6.728020">
        <ele>702.064</ele>
        <time>2018-07-05T14:22:51Z</time>
      </trkpt>
      <trkpt lat="46.077306" lon="6.727976">
        <ele>702.046</ele>
        <time>2018-07-05T14:22:55Z</time>
      </trkpt>
      <trkpt lat="46.077272" lon="6.727933">
        <ele>702.073</ele>
        <time>2018-07-05T14:22:59Z</time>
      </trkpt>
      <trkpt lat="46.077225" lon="6.727891">
        <ele>702.089</ele>
        <time>2018-07-05T14:23:03Z</time>
      </trkpt>
      <trkpt lat="46.077182" lon="6.727852">
        <ele>702.094</ele>
        <time>2018-07-05T14:23:06Z</time>
      </trkpt>
      <trkpt lat="46.077141" lon="6.727811">
        <ele>702.064</ele>
        <time>2018-07-05T14:23:09Z</time>
      </trkpt>
      <trkpt lat="46.077095" lon="6.727767">
        <ele>702.006</ele>
        <time>2018-07-05T14:23:13Z</time>
      </trkpt>
      <trkpt lat="46.077051" lon="6.727736">
        <ele>702.016</ele>
        <time>2018-07-05T14:23:18Z</time>
      </trkpt>
      <trkpt lat="46.077009" lon="6.727699">
        <ele>702.008</ele>
        <time>2018-07-05T14:23:22Z</time>
      </trkpt>
      <trkpt lat="46.076958" lon="6.727656">
        <ele>702.038</ele>
        <time>2018-07-05T14:23:26Z</time>
      </trkpt>
      <trkpt lat="46.076910" lon="6.727613">
        <ele>702.044</ele>
        <time>2018-07-05T14:23:30Z</time>
      </trkpt>
      <trkpt lat="46.076859" lon="6.727581">
        <ele>702.056</ele>
        <time>2018-07-05T14:23:34Z</time>
      </trkpt>
      <trkpt lat="46.076814" lon="6.727538">
        <ele>702.012</ele>
        <time>2018-07-05T14:23:38Z</time>
      </trkpt>
      <trkpt lat="46.076767" lon="6.727490">
        <ele>702.044</ele>
        <time>2018-07-05T14:23:42Z</time>
      </trkpt>
      <trkpt lat="46.076724" lon="6.727450">
        <ele>702.021</ele>
        <time>2018-07-05T14:23:46Z</time>
      </trkpt>
      <trkpt lat="46.076677" lon="6.727413">
        <ele>702.017</ele>
        <time>2018-07-05T14:23:50Z</time>
      </trkpt>
      <trkpt lat="46.076629" lon="6.727386">
        <ele>702.032</ele>
        <time>2018-07-05T14:23:54Z</time>
      </trkpt>
      <trkpt lat="46.076576" lon="6.727367">
        <ele>702.061</ele>
        <time>2018-07-05T14:23:58Z</time>
      </trkpt>
      <trkpt lat="46.076521" lon="6.727351">
        <ele>702.021</ele>
        <time>2018-07-05T14:24:02Z</time>
      </trkpt>
      <trkpt lat="46.076472" lon="6.727330">
        <ele>702.013</ele>
        <time>2018-07-05T14:24:06Z</time>
      </trkpt>
      <trkpt lat="46.076428" lon="6.727299">
        <ele>702.008</ele>
        <time>2018-07-05T14:24:10Z</time>
      </trkpt>
      <trkpt lat="46.076392" lon="6.727251">
        <ele>702.078</ele>
        <time>2018-07-05T14:24:14Z</time>
      </trkpt>
      <trkpt lat="46.076362" lon="6.727195">
        <ele>701.944</ele>
        <time>2018-07-05T14:24:19Z</time>
      </trkpt>
      <trkpt lat="46.076372" lon="6.727102">
        <ele>701.686</ele>
        <time>2018-07-06T05:41:14Z</time>
      </trkpt>
      <trkpt lat="46.076275" lon="6.727583">
        <ele>702.362</ele>
        <time>2018-07-06T05:41:34Z</time>
      </trkpt>
      <trkpt lat="46.076275" lon="6.727583">
        <ele>702.314</ele>
        <time>2018-07-06T05:41:54Z</time>
      </trkpt>
      <trkpt lat="46.076264" lon="6.727652">
        <ele>702.581</ele>
        <time>2018-07-06T05:42:14Z</time>
      </trkpt>
      <trkpt lat="46.076264" lon="6.727652">
        <ele>702.547</ele>
        <time>2018-07-06T05:42:34Z</time>
      </trkpt>
      <trkpt lat="46.076278" lon="6.728314">
        <ele>703.042</ele>
        <time>2018-07-06T05:42:54Z</time>
      </trkpt>
      <trkpt lat="46.076278" lon="6.728314">
        <ele>703.046</ele>
        <time>2018-07-06T05:43:14Z</time>
      </trkpt>
      <trkpt lat="46.076124" lon="6.729562">
        <ele>705.088</ele>
        <time>2018-07-06T05:43:34Z</time>
      </trkpt>
      <trkpt lat="46.076124" lon="6.729562">
        <ele>705.016</ele>
        <time>2018-07-06T05:43:54Z</time>
      </trkpt>
      <trkpt lat="46.075637" lon="6.730263">
        <ele>705.008</ele>
        <time>2018-07-06T05:44:14Z</time>
      </trkpt>
      <trkpt lat="46.075637" lon="6.730263">
        <ele>705.016</ele>
        <time>2018-07-06T05:44:34Z</time>
      </trkpt>
      <trkpt lat="46.075627" lon="6.730464">
        <ele>705.092</ele>
        <time>2018-07-06T05:44:54Z</time>
      </trkpt>
      <trkpt lat="46.075627" lon="6.730464">
        <ele>705.054</ele>
        <time>2018-07-06T05:45:14Z</time>
      </trkpt>
      <trkpt lat="46.074812" lon="6.731042">
        <ele>705.040</ele>
        <time>2018-07-06T05:45:34Z</time>
      </trkpt>
      <trkpt lat="46.074812" lon="6.731042">
        <ele>705.092</ele>
        <time>2018-07-06T05:45:54Z</time>
      </trkpt>
      <trkpt lat="46.073053" lon="6.731776">
        <ele>706.019</ele>
        <time>2018-07-06T05:46:14Z</time>
      </trkpt>
      <trkpt lat="46.073053" lon="6.731776">
        <ele>706.055</ele>
        <time>2018-07-06T05:46:34Z</time>
      </trkpt>
      <trkpt lat="46.072473" lon="6.732353">
        <ele>706.650</ele>
        <time>2018-07-06T05:46:54Z</time>
      </trkpt>
      <trkpt lat="46.072473" lon="6.732353">
        <ele>706.685</ele>
        <time>2018-07-06T05:47:14Z</time>
      </trkpt>
      <trkpt lat="46.072105" lon="6.732362">
        <ele>707.289</ele>
        <time>2018-07-06T05:47:34Z</time>
      </trkpt>
      <trkpt lat="46.072105" lon="6.732362">
        <ele>707.217</ele>
        <time>2018-07-06T05:47:54Z</time>
      </trkpt>
      <trkpt lat="46.071492" lon="6.731846">
        <ele>708.808</ele>
        <time>2018-07-06T05:48:14Z</time>
      </trkpt>
      <trkpt lat="46.071492" lon="6.731846">
        <ele>708.890</ele>
        <time>2018-07-06T05:48:34Z</time>
      </trkpt>
      <trkpt lat="46.071305" lon="6.731954">
        <ele>709.086</ele>
        <time>2018-07-06T05:48:54Z</time>
      </trkpt>
      <trkpt lat="46.071305" lon="6.731954">
        <ele>709.088</ele>
        <time>2018-07-06T05:49:14Z</time>
      </trkpt>
      <trkpt lat="46.070410" lon="6.732808">
        <ele>709.024</ele>
        <time>2018-07-06T05:49:34Z</time>
      </trkpt>
      <trkpt lat="46.070410" lon="6.732808">
        <ele>709.036</ele>
        <time>2018-07-06T05:49:54Z</time>
      </trkpt>
      <trkpt lat="46.068405" lon="6.735973">
        <ele>714.473</ele>
        <time>2018-07-06T05:50:14Z</time>
      </trkpt>
      <trkpt lat="46.068405" lon="6.735973">
        <ele>714.469</ele>
        <time>2018-07-06T05:50:34Z</time>
      </trkpt>
      <trkpt lat="46.066964" lon="6.736463">
        <ele>715.064</ele>
        <time>2018-07-06T05:50:54Z</time>
      </trkpt>
      <trkpt lat="46.066964" lon="6.736463">
        <ele>715.011</ele>
        <time>2018-07-06T05:51:14Z</time>
      </trkpt>
      <trkpt lat="46.066075" lon="6.737062">
        <ele>715.021</ele>
        <time>2018-07-06T05:51:34Z</time>
      </trkpt>
      <trkpt lat="46.066075" lon="6.737062">
        <ele>715.003</ele>
        <time>2018-07-06T05:51:54Z</time>
      </trkpt>
      <trkpt lat="46.064470" lon="6.737685">
        <ele>719.708</ele>
        <time>2018-07-06T05:52:14Z</time>
      </trkpt>
      <trkpt lat="46.064470" lon="6.737685">
        <ele>719.783</ele>
        <time>2018-07-06T05:52:34Z</time>
      </trkpt>
      <trkpt lat="46.063985" lon="6.738017">
        <ele>720.079</ele>
        <time>2018-07-06T05:52:54Z</time>
      </trkpt>
      <trkpt lat="46.063985" lon="6.738017">
        <ele>720.031</ele>
        <time>2018-07-06T05:53:14Z</time>
      </trkpt>
      <trkpt lat="46.063372" lon="6.737951">
        <ele>720.027</ele>
        <time>2018-07-06T05:53:34Z</time>
      </trkpt>
      <trkpt lat="46.063372" lon="6.737951">
        <ele>720.039</ele>
        <time>2018-07-06T05:53:54Z</time>
      </trkpt>
      <trkpt lat="46.062460" lon="6.739121">
        <ele>720.686</ele>
        <time>2018-07-06T05:54:14Z</time>
      </trkpt>
      <trkpt lat="46.062460" lon="6.739121">
        <ele>720.632</ele>
        <time>2018-07-06T05:54:34Z</time>
      </trkpt>
      <trkpt lat="46.061759" lon="6.740822">
        <ele>724.077</ele>
        <time>2018-07-06T05:54:54Z</time>
      </trkpt>
      <trkpt lat="46.061759" lon="6.740822">
        <ele>724.014</ele>
        <time>2018-07-06T05:55:14Z</time>
      </trkpt>
      <trkpt lat="46.060775" lon="6.742398">
        <ele>724.054</ele>
        <time>2018-07-06T05:55:34Z</time>
      </trkpt>
      <trkpt lat="46.060775" lon="6.742398">
        <ele>724.009</ele>
        <time>2018-07-06T05:55:54Z</time>
      </trkpt>
      <trkpt lat="46.060802" lon="6.742715">
        <ele>724.108</ele>
        <time>2018-07-06T05:56:14Z</time>
      </trkpt>
      <trkpt lat="46.060802" lon="6.742715">
        <ele>724.133</ele>
        <time>2018-07-06T05:56:34Z</time>
      </trkpt>
      <trkpt lat="46.060104" lon="6.744247">
        <ele>725.099</ele>
        <time>2018-07-06T05:56:54Z</time>
      </trkpt>
      <trkpt lat="46.060104" lon="6.744247">
        <ele>725.021</ele>
        <time>2018-07-06T05:57:14Z</time>
      </trkpt>
      <trkpt lat="46.059420" lon="6.745540">
        <ele>729.067</ele>
        <time>2018-07-06T05:57:34Z</time>
      </trkpt>
      <trkpt lat="46.059420" lon="6.745540">
        <ele>729.039</ele>
        <time>2018-07-06T05:57:54Z</time>
      </trkpt>
      <trkpt lat="46.059100" lon="6.745860">
        <ele>729.016</ele>
        <time>2018-07-06T05:58:14Z</time>
      </trkpt>
      <trkpt lat="46.059100" lon="6.745860">
        <ele>729.012</ele>
        <time>2018-07-06T05:58:34Z</time>
      </trkpt>
      <trkpt lat="46.059103" lon="6.745624">
        <ele>729.027</ele>
        <time>2018-07-06T05:58:54Z</time>
      </trkpt>
      <trkpt lat="46.059103" lon="6.745624">
        <ele>729.047</ele>
        <time>2018-07-06T05:59:14Z</time>
      </trkpt>
      <trkpt lat="46.058808" lon="6.745380">
        <ele>733.429</ele>
        <time>2018-07-06T05:59:34Z</time>
      </trkpt>
      <trkpt lat="46.058808" lon="6.745380">
        <ele>733.421</ele>
        <time>2018-07-06T05:59:54Z</time>
      </trkpt>
      <trkpt lat="46.058919" lon="6.744860">
        <ele>736.208</ele>
        <time>2018-07-06T06:00:14Z</time>
      </trkpt>
      <trkpt lat="46.058919" lon="6.744860">
        <ele>736.236</ele>
        <time>2018-07-06T06:00:34Z</time>
      </trkpt>
      <trkpt lat="46.058725" lon="6.744280">
        <ele>742.292</ele>
        <time>2018-07-06T06:00:54Z</time>
      </trkpt>
      <trkpt lat="46.058725" lon="6.744280">
        <ele>742.284</ele>
        <time>2018-07-06T06:01:14Z</time>
      </trkpt>
      <trkpt lat="46.058754" lon="6.743612">
        <ele>744.930</ele>
        <time>2018-07-06T06:01:34Z</time>
      </trkpt>
      <trkpt lat="46.058754" lon="6.743612">
        <ele>744.952</ele>
        <time>2018-07-06T06:01:54Z</time>
      </trkpt>
      <trkpt lat="46.058471" lon="6.743670">
        <ele>748.419</ele>
        <time>2018-07-06T06:02:14Z</time>
      </trkpt>
      <trkpt lat="46.058471" lon="6.743670">
        <ele>748.485</ele>
        <time>2018-07-06T06:02:34Z</time>
      </trkpt>
      <trkpt lat="46.057750" lon="6.744518">
        <ele>757.450</ele>
        <time>2018-07-06T06:02:54Z</time>
      </trkpt>
      <trkpt lat="46.057750" lon="6.744518">
        <ele>757.446</ele>
        <time>2018-07-06T06:03:14Z</time>
      </trkpt>
      <trkpt lat="46.056779" lon="6.746550">
        <ele>758.988</ele>
        <time>2018-07-06T06:03:34Z</time>
      </trkpt>
      <trkpt lat="46.056779" lon="6.746550">
        <ele>758.916</ele>
        <time>2018-07-06T06:03:54Z</time>
      </trkpt>
      <trkpt lat="46.056451" lon="6.746868">
        <ele>761.108</ele>
        <time>2018-07-06T06:04:14Z</time>
      </trkpt>
      <trkpt lat="46.056451" lon="6.746868">
        <ele>761.196</ele>
        <time>2018-07-06T06:04:34Z</time>
      </trkpt>
      <trkpt lat="46.056113" lon="6.748154">
        <ele>762.272</ele>
        <time>2018-07-06T06:04:54Z</time>
      </trkpt>
      <trkpt lat="46.056113" lon="6.748154">
        <ele>762.254</ele>
        <time>2018-07-06T06:05:14Z</time>
      </trkpt>
      <trkpt lat="46.056132" lon="6.748853">
        <ele>756.880</ele>
        <time>2018-07-06T06:05:34Z</time>
      </trkpt>
      <trkpt lat="46.056132" lon="6.748853">
        <ele>756.882</ele>
        <time>2018-07-06T06:05:54Z</time>
      </trkpt>
      <trkpt lat="46.054901" lon="6.750734">
        <ele>748.359</ele>
        <time>2018-07-06T06:06:14Z</time>
      </trkpt>
      <trkpt lat="46.054901" lon="6.750734">
        <ele>748.335</ele>
        <time>2018-07-06T06:06:34Z</time>
      </trkpt>
      <trkpt lat="46.054958" lon="6.751665">
        <ele>740.450</ele>
        <time>2018-07-06T06:06:54Z</time>
      </trkpt>
      <trkpt lat="46.054958" lon="6.751665">
        <ele>740.441</ele>
        <time>2018-07-06T06:07:14Z</time>
      </trkpt>
      <trkpt lat="46.055737" lon="6.754296">
        <ele>737.581</ele>
        <time>2018-07-06T06:07:34Z</time>
      </trkpt>
      <trkpt lat="46.055737" lon="6.754296">
        <ele>737.509</ele>
        <time>2018-07-06T06:07:54Z</time>
      </trkpt>
      <trkpt lat="46.055732" lon="6.754837">
        <ele>738.008</ele>
        <time>2018-07-06T06:08:14Z</time>
      </trkpt>
      <trkpt lat="46.055732" lon="6.754837">
        <ele>738.056</ele>
        <time>2018-07-06T06:08:34Z</time>
      </trkpt>
      <trkpt lat="46.055406" lon="6.755993">
        <ele>745.782</ele>
        <time>2018-07-06T06:08:54Z</time>
      </trkpt>
      <trkpt lat="46.055406" lon="6.755993">
        <ele>745.724</ele>
        <time>2018-07-06T06:09:14Z</time>
      </trkpt>
      <trkpt lat="46.055312" lon="6.755918">
        <ele>744.550</ele>
        <time>2018-07-06T06:09:34Z</time>
      </trkpt>
      <trkpt lat="46.055312" lon="6.755918">
        <ele>744.592</ele>
        <time>2018-07-06T06:09:54Z</time>
      </trkpt>
      <trkpt lat="46.054893" lon="6.756058">
        <ele>745.389</ele>
        <time>2018-07-06T06:10:14Z</time>
      </trkpt>
      <trkpt lat="46.054893" lon="6.756058">
        <ele>745.345</ele>
        <time>2018-07-06T06:10:34Z</time>
      </trkpt>
      <trkpt lat="46.054428" lon="6.756692">
        <ele>760.720</ele>
        <time>2018-07-06T06:10:54Z</time>
      </trkpt>
      <trkpt lat="46.054428" lon="6.756692">
        <ele>760.711</ele>
        <time>2018-07-06T06:11:14Z</time>
      </trkpt>
      <trkpt lat="46.054059" lon="6.756723">
        <ele>761.521</ele>
        <time>2018-07-06T06:11:34Z</time>
      </trkpt>
      <trkpt lat="46.054059" lon="6.756723">
        <ele>761.503</ele>
        <time>2018-07-06T06:11:54Z</time>
      </trkpt>
      <trkpt lat="46.053678" lon="6.757274">
        <ele>795.708</ele>
        <time>2018-07-06T06:12:14Z</time>
      </trkpt>
      <trkpt lat="46.053678" lon="6.757274">
        <ele>795.753</ele>
        <time>2018-07-06T06:12:34Z</time>
      </trkpt>
      <trkpt lat="46.053668" lon="6.757823">
        <ele>806.039</ele>
        <time>2018-07-06T06:12:54Z</time>
      </trkpt>
      <trkpt lat="46.053668" lon="6.757823">
        <ele>806.091</ele>
        <time>2018-07-06T06:13:14Z</time>
      </trkpt>
      <trkpt lat="46.053512" lon="6.758020">
        <ele>819.587</ele>
        <time>2018-07-06T06:13:34Z</time>
      </trkpt>
      <trkpt lat="46.053512" lon="6.758020">
        <ele>819.579</ele>
        <time>2018-07-06T06:13:54Z</time>
      </trkpt>
      <trkpt lat="46.053789" lon="6.758378">
        <ele>812.956</ele>
        <time>2018-07-06T06:14:14Z</time>
      </trkpt>
      <trkpt lat="46.053789" lon="6.758378">
        <ele>812.962</ele>
        <time>2018-07-06T06:14:34Z</time>
      </trkpt>
      <trkpt lat="46.053430" lon="6.759304">
        <ele>834.047</ele>
        <time>2018-07-06T06:14:54Z</time>
      </trkpt>
      <trkpt lat="46.053430" lon="6.759304">
        <ele>834.089</ele>
        <time>2018-07-06T06:15:14Z</time>
      </trkpt>
      <trkpt lat="46.053591" lon="6.759658">
        <ele>812.206</ele>
        <time>2018-07-06T06:15:34Z</time>
      </trkpt>
      <trkpt lat="46.053591" lon="6.759658">
        <ele>812.226</ele>
        <time>2018-07-06T06:15:54Z</time>
      </trkpt>
      <trkpt lat="46.053504" lon="6.759799">
        <ele>817.408</ele>
        <time>2018-07-06T06:16:14Z</time>
      </trkpt>
      <trkpt lat="46.053504" lon="6.759799">
        <ele>817.420</ele>
        <time>2018-07-06T06:16:34Z</time>
      </trkpt>
      <trkpt lat="46.053443" lon="6.759699">
        <ele>824.736</ele>
        <time>2018-07-06T06:16:54Z</time>
      </trkpt>
      <trkpt lat="46.053443" lon="6.759699">
        <ele>824.788</ele>
        <time>2018-07-06T06:17:14Z</time>
      </trkpt>
      <trkpt lat="46.053287" lon="6.760127">
        <ele>838.114</ele>
        <time>2018-07-06T06:17:34Z</time>
      </trkpt>
      <trkpt lat="46.053287" lon="6.760127">
        <ele>838.186</ele>
        <time>2018-07-06T06:17:54Z</time>
      </trkpt>
      <trkpt lat="46.053165" lon="6.759966">
        <ele>852.783</ele>
        <time>2018-07-06T06:18:14Z</time>
      </trkpt>
      <trkpt lat="46.053165" lon="6.759966">
        <ele>852.759</ele>
        <time>2018-07-06T06:18:34Z</time>
      </trkpt>
      <trkpt lat="46.053087" lon="6.760150">
        <ele>863.194</ele>
        <time>2018-07-06T06:18:54Z</time>
      </trkpt>
      <trkpt lat="46.053087" lon="6.760150">
        <ele>863.174</ele>
        <time>2018-07-06T06:19:14Z</time>
      </trkpt>
      <trkpt lat="46.053086" lon="6.760285">
        <ele>863.656</ele>
        <time>2018-07-06T06:19:34Z</time>
      </trkpt>
      <trkpt lat="46.053086" lon="6.760285">
        <ele>863.621</ele>
        <time>2018-07-06T06:19:54Z</time>
      </trkpt>
      <trkpt lat="46.053066" lon="6.760477">
        <ele>868.308</ele>
        <time>2018-07-06T06:20:14Z</time>
      </trkpt>
      <trkpt lat="46.053066" lon="6.760477">
        <ele>868.399</ele>
        <time>2018-07-06T06:20:34Z</time>
      </trkpt>
      <trkpt lat="46.053022" lon="6.760749">
        <ele>874.085</ele>
        <time>2018-07-06T06:20:54Z</time>
      </trkpt>
      <trkpt lat="46.053022" lon="6.760749">
        <ele>874.017</ele>
        <time>2018-07-06T06:21:14Z</time>
      </trkpt>
      <trkpt lat="46.053408" lon="6.761701">
        <ele>838.533</ele>
        <time>2018-07-06T06:21:34Z</time>
      </trkpt>
      <trkpt lat="46.053408" lon="6.761701">
        <ele>838.595</ele>
        <time>2018-07-06T06:21:54Z</time>
      </trkpt>
      <trkpt lat="46.053219" lon="6.761811">
        <ele>858.292</ele>
        <time>2018-07-06T06:22:14Z</time>
      </trkpt>
      <trkpt lat="46.053219" lon="6.761811">
        <ele>858.258</ele>
        <time>2018-07-06T06:22:34Z</time>
      </trkpt>
      <trkpt lat="46.053119" lon="6.761688">
        <ele>871.943</ele>
        <time>2018-07-06T06:22:54Z</time>
      </trkpt>
      <trkpt lat="46.053119" lon="6.761688">
        <ele>871.949</ele>
        <time>2018-07-06T06:23:14Z</time>
      </trkpt>
      <trkpt lat="46.053155" lon="6.762009">
        <ele>855.202</ele>
        <time>2018-07-06T06:23:34Z</time>
      </trkpt>
      <trkpt lat="46.053155" lon="6.762009">
        <ele>855.222</ele>
        <time>2018-07-06T06:23:54Z</time>
      </trkpt>
      <trkpt lat="46.052728" lon="6.762604">
        <ele>855.208</ele>
        <time>2018-07-06T06:24:14Z</time>
      </trkpt>
      <trkpt lat="46.052728" lon="6.762604">
        <ele>855.226</ele>
        <time>2018-07-06T06:24:34Z</time>
      </trkpt>
      <trkpt lat="46.052651" lon="6.762997">
        <ele>836.262</ele>
        <time>2018-07-06T06:24:54Z</time>
      </trkpt>
      <trkpt lat="46.052651" lon="6.762997">
        <ele>836.284</ele>
        <time>2018-07-06T06:25:14Z</time>
      </trkpt>
      <trkpt lat="46.052284" lon="6.763196">
        <ele>832.860</ele>
        <time>2018-07-06T06:25:34Z</time>
      </trkpt>
      <trkpt lat="46.052284" lon="6.763196">
        <ele>832.892</ele>
        <time>2018-07-06T06:25:54Z</time>
      </trkpt>
      <trkpt lat="46.052156" lon="6.763714">
        <ele>797.699</ele>
        <time>2018-07-06T06:26:14Z</time>
      </trkpt>
      <trkpt lat="46.052156" lon="6.763714">
        <ele>797.615</ele>
        <time>2018-07-06T06:26:34Z</time>
      </trkpt>
      <trkpt lat="46.051903" lon="6.763903">
        <ele>785.750</ele>
        <time>2018-07-06T06:26:54Z</time>
      </trkpt>
      <trkpt lat="46.051903" lon="6.763903">
        <ele>785.721</ele>
        <time>2018-07-06T06:27:14Z</time>
      </trkpt>
      <trkpt lat="46.051118" lon="6.764238">
        <ele>772.641</ele>
        <time>2018-07-06T06:27:34Z</time>
      </trkpt>
      <trkpt lat="46.051118" lon="6.764238">
        <ele>772.605</ele>
        <time>2018-07-06T06:27:54Z</time>
      </trkpt>
      <trkpt lat="46.050477" lon="6.764038">
        <ele>775.908</ele>
        <time>2018-07-06T06:28:14Z</time>
      </trkpt>
      <trkpt lat="46.050477" lon="6.764038">
        <ele>775.974</ele>
        <time>2018-07-06T06:28:34Z</time>
      </trkpt>
      <trkpt lat="46.050420" lon="6.764198">
        <ele>770.930</ele>
        <time>2018-07-06T06:28:54Z</time>
      </trkpt>
      <trkpt lat="46.050420" lon="6.764198">
        <ele>770.962</ele>
        <time>2018-07-06T06:29:14Z</time>
      </trkpt>
      <trkpt lat="46.049873" lon="6.764348">
        <ele>769.718</ele>
        <time>2018-07-06T06:29:34Z</time>
      </trkpt>
      <trkpt lat="46.049873" lon="6.764348">
        <ele>769.740</ele>
        <time>2018-07-06T06:29:54Z</time>
      </trkpt>
      <trkpt lat="46.049451" lon="6.764285">
        <ele>771.337</ele>
        <time>2018-07-06T06:30:14Z</time>
      </trkpt>
      <trkpt lat="46.049451" lon="6.764285">
        <ele>771.383</ele>
        <time>2018-07-06T06:30:34Z</time>
      </trkpt>
      <trkpt lat="46.049254" lon="6.763679">
        <ele>777.898</ele>
        <time>2018-07-06T06:30:54Z</time>
      </trkpt>
      <trkpt lat="46.049254" lon="6.763679">
        <ele>777.872</ele>
        <time>2018-07-06T06:31:14Z</time>
      </trkpt>
      <trkpt lat="46.048712" lon="6.763896">
        <ele>770.013</ele>
        <time>2018-07-06T06:31:34Z</time>
      </trkpt>
      <trkpt lat="46.048712" lon="6.763896">
        <ele>770.014</ele>
        <time>2018-07-06T06:31:54Z</time>
      </trkpt>
      <trkpt lat="46.048494" lon="6.764231">
        <ele>765.508</ele>
        <time>2018-07-06T06:32:14Z</time>
      </trkpt>
      <trkpt lat="46.048494" lon="6.764231">
        <ele>765.539</ele>
        <time>2018-07-06T06:32:34Z</time>
      </trkpt>
      <trkpt lat="46.047627" lon="6.763991">
        <ele>769.875</ele>
        <time>2018-07-06T06:32:54Z</time>
      </trkpt>
      <trkpt lat="46.047627" lon="6.763991">
        <ele>769.817</ele>
        <time>2018-07-06T06:33:14Z</time>
      </trkpt>
      <trkpt lat="46.047684" lon="6.764133">
        <ele>769.473</ele>
        <time>2018-07-06T06:33:34Z</time>
      </trkpt>
      <trkpt lat="46.047684" lon="6.764133">
        <ele>769.475</ele>
        <time>2018-07-06T06:33:54Z</time>
      </trkpt>
      <trkpt lat="46.047499" lon="6.764529">
        <ele>769.092</ele>
        <time>2018-07-06T06:34:14Z</time>
      </trkpt>
      <trkpt lat="46.047499" lon="6.764529">
        <ele>769.018</ele>
        <time>2018-07-06T06:34:34Z</time>
      </trkpt>
      <trkpt lat="46.046984" lon="6.764173">
        <ele>770.013</ele>
        <time>2018-07-06T06:34:54Z</time>
      </trkpt>
      <trkpt lat="46.046984" lon="6.764173">
        <ele>770.087</ele>
        <time>2018-07-06T06:35:14Z</time>
      </trkpt>
      <trkpt lat="46.045973" lon="6.763852">
        <ele>770.042</ele>
        <time>2018-07-06T06:35:34Z</time>
      </trkpt>
      <trkpt lat="46.045973" lon="6.763852">
        <ele>770.026</ele>
        <time>2018-07-06T06:35:54Z</time>
      </trkpt>
      <trkpt lat="46.045390" lon="6.764064">
        <ele>771.208</ele>
        <time>2018-07-06T06:36:14Z</time>
      </trkpt>
      <trkpt lat="46.045390" lon="6.764064">
        <ele>771.260</ele>
        <time>2018-07-06T06:36:34Z</time>
      </trkpt>
      <trkpt lat="46.044568" lon="6.763842">
        <ele>775.386</ele>
        <time>2018-07-06T06:36:54Z</time>
      </trkpt>
      <trkpt lat="46.044568" lon="6.763842">
        <ele>775.378</ele>
        <time>2018-07-06T06:37:14Z</time>
      </trkpt>
      <trkpt lat="46.044004" lon="6.764040">
        <ele>778.494</ele>
        <time>2018-07-06T06:37:34Z</time>
      </trkpt>
      <trkpt lat="46.044004" lon="6.764040">
        <ele>778.416</ele>
        <time>2018-07-06T06:37:54Z</time>
      </trkpt>
      <trkpt lat="46.043606" lon="6.764669">
        <ele>782.693</ele>
        <time>2018-07-06T06:38:14Z</time>
      </trkpt>
      <trkpt lat="46.043606" lon="6.764669">
        <ele>782.699</ele>
        <time>2018-07-06T06:38:34Z</time>
      </trkpt>
      <trkpt lat="46.043232" lon="6.764784">
        <ele>786.024</ele>
        <time>2018-07-06T06:38:54Z</time>
      </trkpt>
      <trkpt lat="46.043232" lon="6.764784">
        <ele>786.066</ele>
        <time>2018-07-06T06:39:14Z</time>
      </trkpt>
      <trkpt lat="46.043020" lon="6.764543">
        <ele>785.029</ele>
        <time>2018-07-06T06:39:34Z</time>
      </trkpt>
      <trkpt lat="46.043020" lon="6.764543">
        <ele>785.021</ele>
        <time>2018-07-06T06:39:54Z</time>
      </trkpt>
      <trkpt lat="46.041982" lon="6.765277">
        <ele>790.108</ele>
        <time>2018-07-06T06:40:14Z</time>
      </trkpt>
      <trkpt lat="46.041982" lon="6.765277">
        <ele>790.188</ele>
        <time>2018-07-06T06:40:34Z</time>
      </trkpt>
      <trkpt lat="46.041696" lon="6.765216">
        <ele>789.844</ele>
        <time>2018-07-06T06:40:54Z</time>
      </trkpt>
      <trkpt lat="46.041696" lon="6.765216">
        <ele>789.816</ele>
        <time>2018-07-06T06:41:14Z</time>
      </trkpt>
      <trkpt lat="46.041124" lon="6.764672">
        <ele>790.832</ele>
        <time>2018-07-06T06:41:34Z</time>
      </trkpt>
      <trkpt lat="46.041124" lon="6.764672">
        <ele>790.854</ele>
        <time>2018-07-06T06:41:54Z</time>
      </trkpt>
      <trkpt lat="46.040545" lon="6.764638">
        <ele>798.131</ele>
        <time>2018-07-06T06:42:14Z</time>
      </trkpt>
      <trkpt lat="46.040545" lon="6.764638">
        <ele>798.117</ele>
        <time>2018-07-06T06:42:34Z</time>
      </trkpt>
      <trkpt lat="46.040189" lon="6.765088">
        <ele>799.012</ele>
        <time>2018-07-06T06:42:54Z</time>
      </trkpt>
      <trkpt lat="46.040189" lon="6.765088">
        <ele>799.071</ele>
        <time>2018-07-06T06:43:14Z</time>
      </trkpt>
      <trkpt lat="46.039898" lon="6.765155">
        <ele>799.041</ele>
        <time>2018-07-06T06:43:34Z</time>
      </trkpt>
      <trkpt lat="46.039898" lon="6.765155">
        <ele>799.015</ele>
        <time>2018-07-06T06:43:54Z</time>
      </trkpt>
      <trkpt lat="46.039075" lon="6.765908">
        <ele>800.808</ele>
        <time>2018-07-06T06:44:14Z</time>
      </trkpt>
      <trkpt lat="46.039075" lon="6.765908">
        <ele>800.819</ele>
        <time>2018-07-06T06:44:34Z</time>
      </trkpt>
      <trkpt lat="46.038629" lon="6.768820">
        <ele>818.615</ele>
        <time>2018-07-06T06:44:54Z</time>
      </trkpt>
      <trkpt lat="46.038629" lon="6.768820">
        <ele>818.627</ele>
        <time>2018-07-06T06:45:14Z</time>
      </trkpt>
      <trkpt lat="46.038026" lon="6.769317">
        <ele>819.063</ele>
        <time>2018-07-06T06:45:34Z</time>
      </trkpt>
      <trkpt lat="46.038026" lon="6.769317">
        <ele>819.065</ele>
        <time>2018-07-06T06:45:54Z</time>
      </trkpt>
      <trkpt lat="46.037833" lon="6.769306">
        <ele>818.682</ele>
        <time>2018-07-06T06:46:14Z</time>
      </trkpt>
      <trkpt lat="46.037833" lon="6.769306">
        <ele>818.678</ele>
        <time>2018-07-06T06:46:34Z</time>
      </trkpt>
      <trkpt lat="46.037621" lon="6.769615">
        <ele>820.643</ele>
        <time>2018-07-06T06:46:54Z</time>
      </trkpt>
      <trkpt lat="46.037621" lon="6.769615">
        <ele>820.647</ele>
        <time>2018-07-06T06:47:14Z</time>
      </trkpt>
      <trkpt lat="46.037218" lon="6.769033">
        <ele>817.629</ele>
        <time>2018-07-06T06:47:34Z</time>
      </trkpt>
      <trkpt lat="46.037218" lon="6.769033">
        <ele>817.621</ele>
        <time>2018-07-06T06:47:54Z</time>
      </trkpt>
      <trkpt lat="46.036721" lon="6.769372">
        <ele>824.408</ele>
        <time>2018-07-06T06:48:14Z</time>
      </trkpt>
      <trkpt lat="46.036721" lon="6.769372">
        <ele>824.456</ele>
        <time>2018-07-06T06:48:34Z</time>
      </trkpt>
      <trkpt lat="46.035968" lon="6.770267">
        <ele>828.842</ele>
        <time>2018-07-06T06:48:54Z</time>
      </trkpt>
      <trkpt lat="46.035968" lon="6.770267">
        <ele>828.874</ele>
        <time>2018-07-06T06:49:14Z</time>
      </trkpt>
      <trkpt lat="46.035519" lon="6.771687">
        <ele>839.890</ele>
        <time>2018-07-06T06:49:34Z</time>
      </trkpt>
      <trkpt lat="46.035519" lon="6.771687">
        <ele>839.842</ele>
        <time>2018-07-06T06:49:54Z</time>
      </trkpt>
      <trkpt lat="46.034962" lon="6.771783">
        <ele>834.599</ele>
        <time>2018-07-06T06:50:14Z</time>
      </trkpt>
      <trkpt lat="46.034962" lon="6.771783">
        <ele>834.525</ele>
        <time>2018-07-06T06:50:34Z</time>
      </trkpt>
      <trkpt lat="46.033931" lon="6.771636">
        <ele>839.160</ele>
        <time>2018-07-06T06:50:54Z</time>
      </trkpt>
      <trkpt lat="46.033931" lon="6.771636">
        <ele>839.139</ele>
        <time>2018-07-06T06:51:14Z</time>
      </trkpt>
      <trkpt lat="46.033420" lon="6.771814">
        <ele>842.701</ele>
        <time>2018-07-06T06:51:34Z</time>
      </trkpt>
      <trkpt lat="46.033420" lon="6.771814">
        <ele>842.721</ele>
        <time>2018-07-06T06:51:54Z</time>
      </trkpt>
      <trkpt lat="46.032895" lon="6.772160">
        <ele>849.808</ele>
        <time>2018-07-06T06:52:14Z</time>
      </trkpt>
      <trkpt lat="46.032895" lon="6.772160">
        <ele>849.825</ele>
        <time>2018-07-06T06:52:34Z</time>
      </trkpt>
      <trkpt lat="46.032815" lon="6.772024">
        <ele>849.881</ele>
        <time>2018-07-06T06:52:54Z</time>
      </trkpt>
      <trkpt lat="46.032815" lon="6.772024">
        <ele>849.813</ele>
        <time>2018-07-06T06:53:14Z</time>
      </trkpt>
      <trkpt lat="46.032859" lon="6.771936">
        <ele>849.619</ele>
        <time>2018-07-06T06:53:34Z</time>
      </trkpt>
      <trkpt lat="46.032859" lon="6.771936">
        <ele>849.631</ele>
        <time>2018-07-06T06:53:54Z</time>
      </trkpt>
      <trkpt lat="46.033279" lon="6.770728">
        <ele>862.298</ele>
        <time>2018-07-06T06:54:14Z</time>
      </trkpt>
      <trkpt lat="46.033279" lon="6.770728">
        <ele>862.254</ele>
        <time>2018-07-06T06:54:34Z</time>
      </trkpt>
      <trkpt lat="46.032231" lon="6.771012">
        <ele>886.469</ele>
        <time>2018-07-06T06:54:54Z</time>
      </trkpt>
      <trkpt lat="46.032231" lon="6.771012">
        <ele>886.419</ele>
        <time>2018-07-06T06:55:14Z</time>
      </trkpt>
      <trkpt lat="46.031158" lon="6.770592">
        <ele>904.609</ele>
        <time>2018-07-06T06:55:34Z</time>
      </trkpt>
      <trkpt lat="46.031158" lon="6.770592">
        <ele>904.619</ele>
        <time>2018-07-06T06:55:54Z</time>
      </trkpt>
      <trkpt lat="46.030581" lon="6.770638">
        <ele>917.408</ele>
        <time>2018-07-06T06:56:14Z</time>
      </trkpt>
      <trkpt lat="46.030581" lon="6.770638">
        <ele>917.463</ele>
        <time>2018-07-06T06:56:34Z</time>
      </trkpt>
      <trkpt lat="46.030193" lon="6.770496">
        <ele>926.919</ele>
        <time>2018-07-06T06:56:54Z</time>
      </trkpt>
      <trkpt lat="46.030193" lon="6.770496">
        <ele>926.911</ele>
        <time>2018-07-06T06:57:14Z</time>
      </trkpt>
      <trkpt lat="46.028159" lon="6.770625">
        <ele>984.887</ele>
        <time>2018-07-06T06:57:34Z</time>
      </trkpt>
      <trkpt lat="46.028159" lon="6.770625">
        <ele>984.849</ele>
        <time>2018-07-06T06:57:54Z</time>
      </trkpt>
      <trkpt lat="46.028035" lon="6.770811">
        <ele>986.776</ele>
        <time>2018-07-06T06:58:14Z</time>
      </trkpt>
      <trkpt lat="46.028035" lon="6.770811">
        <ele>986.772</ele>
        <time>2018-07-06T06:58:34Z</time>
      </trkpt>
      <trkpt lat="46.028112" lon="6.771183">
        <ele>971.877</ele>
        <time>2018-07-06T06:58:54Z</time>
      </trkpt>
      <trkpt lat="46.028112" lon="6.771183">
        <ele>971.845</ele>
        <time>2018-07-06T06:59:14Z</time>
      </trkpt>
      <trkpt lat="46.027705" lon="6.771571">
        <ele>990.647</ele>
        <time>2018-07-06T06:59:34Z</time>
      </trkpt>
      <trkpt lat="46.027705" lon="6.771571">
        <ele>990.611</ele>
        <time>2018-07-06T06:59:54Z</time>
      </trkpt>
      <trkpt lat="46.026499" lon="6.771697">
        <ele>1067.308</ele>
        <time>2018-07-06T07:00:14Z</time>
      </trkpt>
      <trkpt lat="46.026499" lon="6.771697">
        <ele>1067.326</ele>
        <time>2018-07-06T07:00:34Z</time>
      </trkpt>
      <trkpt lat="46.026463" lon="6.771820">
        <ele>1071.952</ele>
        <time>2018-07-06T07:00:54Z</time>
      </trkpt>
      <trkpt lat="46.026463" lon="6.771820">
        <ele>1071.954</ele>
        <time>2018-07-06T07:01:14Z</time>
      </trkpt>
      <trkpt lat="46.026628" lon="6.772118">
        <ele>1066.630</ele>
        <time>2018-07-06T07:01:34Z</time>
      </trkpt>
      <trkpt lat="46.026628" lon="6.772118">
        <ele>1066.662</ele>
        <time>2018-07-06T07:01:54Z</time>
      </trkpt>
      <trkpt lat="46.027353" lon="6.772139">
        <ele>1003.089</ele>
        <time>2018-07-06T07:02:14Z</time>
      </trkpt>
      <trkpt lat="46.027353" lon="6.772139">
        <ele>1003.015</ele>
        <time>2018-07-06T07:02:34Z</time>
      </trkpt>
      <trkpt lat="46.027278" lon="6.772249">
        <ele>1010.480</ele>
        <time>2018-07-06T07:02:54Z</time>
      </trkpt>
      <trkpt lat="46.027278" lon="6.772249">
        <ele>1010.431</ele>
        <time>2018-07-06T07:03:14Z</time>
      </trkpt>
      <trkpt lat="46.027373" lon="6.772155">
        <ele>1000.161</ele>
        <time>2018-07-06T07:03:34Z</time>
      </trkpt>
      <trkpt lat="46.027373" lon="6.772155">
        <ele>1000.107</ele>
        <time>2018-07-06T07:03:54Z</time>
      </trkpt>
      <trkpt lat="46.027513" lon="6.772523">
        <ele>980.308</ele>
        <time>2018-07-06T07:04:14Z</time>
      </trkpt>
      <trkpt lat="46.027513" lon="6.772523">
        <ele>980.365</ele>
        <time>2018-07-06T07:04:34Z</time>
      </trkpt>
      <trkpt lat="46.027517" lon="6.773235">
        <ele>981.991</ele>
        <time>2018-07-06T07:04:54Z</time>
      </trkpt>
      <trkpt lat="46.027517" lon="6.773235">
        <ele>981.993</ele>
        <time>2018-07-06T07:05:14Z</time>
      </trkpt>
      <trkpt lat="46.027273" lon="6.773466">
        <ele>988.029</ele>
        <time>2018-07-06T07:05:34Z</time>
      </trkpt>
      <trkpt lat="46.027273" lon="6.773466">
        <ele>988.011</ele>
        <time>2018-07-06T07:05:54Z</time>
      </trkpt>
      <trkpt lat="46.026980" lon="6.773448">
        <ele>996.588</ele>
        <time>2018-07-06T07:06:14Z</time>
      </trkpt>
      <trkpt lat="46.026980" lon="6.773448">
        <ele>996.544</ele>
        <time>2018-07-06T07:06:34Z</time>
      </trkpt>
      <trkpt lat="46.027230" lon="6.772948">
        <ele>999.679</ele>
        <time>2018-07-06T07:06:54Z</time>
      </trkpt>
      <trkpt lat="46.027230" lon="6.772948">
        <ele>999.698</ele>
        <time>2018-07-06T07:07:14Z</time>
      </trkpt>
      <trkpt lat="46.027003" lon="6.772992">
        <ele>1016.815</ele>
        <time>2018-07-06T07:07:34Z</time>
      </trkpt>
      <trkpt lat="46.027003" lon="6.772992">
        <ele>1016.826</ele>
        <time>2018-07-06T07:07:54Z</time>
      </trkpt>
      <trkpt lat="46.027073" lon="6.773155">
        <ele>1003.708</ele>
        <time>2018-07-06T07:08:14Z</time>
      </trkpt>
      <trkpt lat="46.027073" lon="6.773155">
        <ele>1003.761</ele>
        <time>2018-07-06T07:08:34Z</time>
      </trkpt>
      <trkpt lat="46.026862" lon="6.773084">
        <ele>1023.527</ele>
        <time>2018-07-06T07:08:54Z</time>
      </trkpt>
      <trkpt lat="46.026862" lon="6.773084">
        <ele>1023.579</ele>
        <time>2018-07-06T07:09:14Z</time>
      </trkpt>
      <trkpt lat="46.028174" lon="6.773452">
        <ele>969.565</ele>
        <time>2018-07-06T07:09:34Z</time>
      </trkpt>
      <trkpt lat="46.028174" lon="6.773452">
        <ele>969.557</ele>
        <time>2018-07-06T07:09:54Z</time>
      </trkpt>
      <trkpt lat="46.028394" lon="6.773715">
        <ele>962.644</ele>
        <time>2018-07-06T07:10:14Z</time>
      </trkpt>
      <trkpt lat="46.028394" lon="6.773715">
        <ele>962.610</ele>
        <time>2018-07-06T07:10:34Z</time>
      </trkpt>
      <trkpt lat="46.028056" lon="6.774004">
        <ele>970.275</ele>
        <time>2018-07-06T07:10:54Z</time>
      </trkpt>
      <trkpt lat="46.028056" lon="6.774004">
        <ele>970.212</ele>
        <time>2018-07-06T07:11:14Z</time>
      </trkpt>
      <trkpt lat="46.027603" lon="6.773864">
        <ele>982.832</ele>
        <time>2018-07-06T07:11:34Z</time>
      </trkpt>
      <trkpt lat="46.027603" lon="6.773864">
        <ele>982.805</ele>
        <time>2018-07-06T07:11:54Z</time>
      </trkpt>
      <trkpt lat="46.027428" lon="6.773628">
        <ele>985.108</ele>
        <time>2018-07-06T07:12:14Z</time>
      </trkpt>
      <trkpt lat="46.027428" lon="6.773628">
        <ele>985.193</ele>
        <time>2018-07-06T07:12:34Z</time>
      </trkpt>
      <trkpt lat="46.027059" lon="6.773796">
        <ele>992.299</ele>
        <time>2018-07-06T07:12:54Z</time>
      </trkpt>
      <trkpt lat="46.027059" lon="6.773796">
        <ele>992.231</ele>
        <time>2018-07-06T07:13:14Z</time>
      </trkpt>
      <trkpt lat="46.026937" lon="6.774405">
        <ele>996.037</ele>
        <time>2018-07-06T07:13:34Z</time>
      </trkpt>
      <trkpt lat="46.026937" lon="6.774405">
        <ele>996.059</ele>
        <time>2018-07-06T07:13:54Z</time>
      </trkpt>
      <trkpt lat="46.026553" lon="6.774873">
        <ele>1007.526</ele>
        <time>2018-07-06T07:14:14Z</time>
      </trkpt>
      <trkpt lat="46.026553" lon="6.774873">
        <ele>1007.562</ele>
        <time>2018-07-06T07:14:34Z</time>
      </trkpt>
      <trkpt lat="46.026091" lon="6.774335">
        <ele>1024.397</ele>
        <time>2018-07-06T07:14:54Z</time>
      </trkpt>
      <trkpt lat="46.026091" lon="6.774335">
        <ele>1024.331</ele>
        <time>2018-07-06T07:15:14Z</time>
      </trkpt>
      <trkpt lat="46.026168" lon="6.773966">
        <ele>1023.261</ele>
        <time>2018-07-06T07:15:34Z</time>
      </trkpt>
      <trkpt lat="46.026168" lon="6.773966">
        <ele>1023.207</ele>
        <time>2018-07-06T07:15:54Z</time>
      </trkpt>
      <trkpt lat="46.025393" lon="6.774085">
        <ele>1036.208</ele>
        <time>2018-07-06T07:16:14Z</time>
      </trkpt>
      <trkpt lat="46.025393" lon="6.774085">
        <ele>1036.225</ele>
        <time>2018-07-06T07:16:34Z</time>
      </trkpt>
      <trkpt lat="46.023991" lon="6.773883">
        <ele>1071.771</ele>
        <time>2018-07-06T07:16:54Z</time>
      </trkpt>
      <trkpt lat="46.023991" lon="6.773883">
        <ele>1071.793</ele>
        <time>2018-07-06T07:17:14Z</time>
      </trkpt>
      <trkpt lat="46.023854" lon="6.774098">
        <ele>1064.869</ele>
        <time>2018-07-06T07:17:34Z</time>
      </trkpt>
      <trkpt lat="46.023854" lon="6.774098">
        <ele>1064.881</ele>
        <time>2018-07-06T07:17:54Z</time>
      </trkpt>
      <trkpt lat="46.023937" lon="6.774878">
        <ele>1050.478</ele>
        <time>2018-07-06T07:18:14Z</time>
      </trkpt>
      <trkpt lat="46.023937" lon="6.774878">
        <ele>1050.414</ele>
        <time>2018-07-06T07:18:34Z</time>
      </trkpt>
      <trkpt lat="46.023437" lon="6.774426">
        <ele>1063.059</ele>
        <time>2018-07-06T07:18:54Z</time>
      </trkpt>
      <trkpt lat="46.023437" lon="6.774426">
        <ele>1063.056</ele>
        <time>2018-07-06T07:19:14Z</time>
      </trkpt>
      <trkpt lat="46.023568" lon="6.773735">
        <ele>1077.059</ele>
        <time>2018-07-06T07:19:34Z</time>
      </trkpt>
      <trkpt lat="46.023568" lon="6.773735">
        <ele>1077.014</ele>
        <time>2018-07-06T07:19:54Z</time>
      </trkpt>
      <trkpt lat="46.023434" lon="6.773641">
        <ele>1079.508</ele>
        <time>2018-07-06T07:20:14Z</time>
      </trkpt>
      <trkpt lat="46.023434" lon="6.773641">
        <ele>1079.577</ele>
        <time>2018-07-06T07:20:34Z</time>
      </trkpt>
      <trkpt lat="46.022992" lon="6.773874">
        <ele>1083.363</ele>
        <time>2018-07-06T07:20:54Z</time>
      </trkpt>
      <trkpt lat="46.022992" lon="6.773874">
        <ele>1083.385</ele>
        <time>2018-07-06T07:21:14Z</time>
      </trkpt>
      <trkpt lat="46.023021" lon="6.773736">
        <ele>1084.331</ele>
        <time>2018-07-06T07:21:34Z</time>
      </trkpt>
      <trkpt lat="46.023021" lon="6.773736">
        <ele>1084.363</ele>
        <time>2018-07-06T07:21:54Z</time>
      </trkpt>
      <trkpt lat="46.022787" lon="6.773612">
        <ele>1093.770</ele>
        <time>2018-07-06T07:22:14Z</time>
      </trkpt>
      <trkpt lat="46.022787" lon="6.773612">
        <ele>1093.796</ele>
        <time>2018-07-06T07:22:34Z</time>
      </trkpt>
      <trkpt lat="46.022643" lon="6.772665">
        <ele>1113.411</ele>
        <time>2018-07-06T07:22:54Z</time>
      </trkpt>
      <trkpt lat="46.022643" lon="6.772665">
        <ele>1113.498</ele>
        <time>2018-07-06T07:23:14Z</time>
      </trkpt>
      <trkpt lat="46.023002" lon="6.772358">
        <ele>1105.915</ele>
        <time>2018-07-06T07:23:34Z</time>
      </trkpt>
      <trkpt lat="46.023002" lon="6.772358">
        <ele>1105.926</ele>
        <time>2018-07-06T07:23:54Z</time>
      </trkpt>
      <trkpt lat="46.022917" lon="6.771889">
        <ele>1113.608</ele>
        <time>2018-07-06T07:24:14Z</time>
      </trkpt>
      <trkpt lat="46.022917" lon="6.771889">
        <ele>1113.691</ele>
        <time>2018-07-06T07:24:34Z</time>
      </trkpt>
      <trkpt lat="46.021419" lon="6.769261">
        <ele>1164.227</ele>
        <time>2018-07-06T07:24:54Z</time>
      </trkpt>
      <trkpt lat="46.021419" lon="6.769261">
        <ele>1164.299</ele>
        <time>2018-07-06T07:25:14Z</time>
      </trkpt>
      <trkpt lat="46.021030" lon="6.768993">
        <ele>1177.555</ele>
        <time>2018-07-06T07:25:34Z</time>
      </trkpt>
      <trkpt lat="46.021030" lon="6.768993">
        <ele>1177.537</ele>
        <time>2018-07-06T07:25:54Z</time>
      </trkpt>
      <trkpt lat="46.021058" lon="6.768325">
        <ele>1179.084</ele>
        <time>2018-07-06T07:26:14Z</time>
      </trkpt>
      <trkpt lat="46.021230" lon="6.768086">
        <ele>1193.977</ele>
        <time>2018-07-11T09:06:36Z</time>
      </trkpt>
      <trkpt lat="46.021216" lon="6.768148">
        <ele>1193.961</ele>
        <time>2018-07-11T09:07:15Z</time>
      </trkpt>
      <trkpt lat="46.021184" lon="6.768206">
        <ele>1193.927</ele>
        <time>2018-07-11T09:07:24Z</time>
      </trkpt>
      <trkpt lat="46.021147" lon="6.768246">
        <ele>1193.908</ele>
        <time>2018-07-11T09:07:28Z</time>
      </trkpt>
      <trkpt lat="46.021101" lon="6.768274">
        <ele>1193.999</ele>
        <time>2018-07-11T09:07:32Z</time>
      </trkpt>
      <trkpt lat="46.021055" lon="6.768266">
        <ele>1193.993</ele>
        <time>2018-07-11T09:07:42Z</time>
      </trkpt>
      <trkpt lat="46.021022" lon="6.768212">
        <ele>1193.991</ele>
        <time>2018-07-11T09:07:49Z</time>
      </trkpt>
      <trkpt lat="46.020988" lon="6.768158">
        <ele>1193.910</ele>
        <time>2018-07-11T09:07:54Z</time>
      </trkpt>
      <trkpt lat="46.020946" lon="6.768127">
        <ele>1193.971</ele>
        <time>2018-07-11T09:08:03Z</time>
      </trkpt>
      <trkpt lat="46.020899" lon="6.768109">
        <ele>1193.977</ele>
        <time>2018-07-11T09:08:13Z</time>
      </trkpt>
      <trkpt lat="46.020868" lon="6.768055">
        <ele>1193.937</ele>
        <time>2018-07-11T09:08:18Z</time>
      </trkpt>
      <trkpt lat="46.020833" lon="6.768010">
        <ele>1193.991</ele>
        <time>2018-07-11T09:08:24Z</time>
      </trkpt>
      <trkpt lat="46.020801" lon="6.767964">
        <ele>1193.951</ele>
        <time>2018-07-11T09:08:30Z</time>
      </trkpt>
      <trkpt lat="46.020774" lon="6.767900">
        <ele>1193.901</ele>
        <time>2018-07-11T09:08:41Z</time>
      </trkpt>
      <trkpt lat="46.020755" lon="6.767828">
        <ele>1193.911</ele>
        <time>2018-07-11T09:08:50Z</time>
      </trkpt>
      <trkpt lat="46.020745" lon="6.767765">
        <ele>1197.408</ele>
        <time>2018-07-11T09:08:56Z</time>
      </trkpt>
      <trkpt lat="46.020722" lon="6.767695">
        <ele>1195.267</ele>
        <time>2018-07-11T09:09:02Z</time>
      </trkpt>
      <trkpt lat="46.020699" lon="6.767637">
        <ele>1195.111</ele>
        <time>2018-07-11T09:09:06Z</time>
      </trkpt>
      <trkpt lat="46.020685" lon="6.767566">
        <ele>1195.769</ele>
        <time>2018-07-11T09:09:11Z</time>
      </trkpt>
      <trkpt lat="46.020659" lon="6.767505">
        <ele>1196.368</ele>
        <time>2018-07-11T09:09:17Z</time>
      </trkpt>
      <trkpt lat="46.020623" lon="6.767460">
        <ele>1197.059</ele>
        <time>2018-07-11T09:09:25Z</time>
      </trkpt>
      <trkpt lat="46.020573" lon="6.767398">
        <ele>1198.935</ele>
        <time>2018-07-11T09:09:37Z</time>
      </trkpt>
      <trkpt lat="46.020537" lon="6.767344">
        <ele>1199.275</ele>
        <time>2018-07-11T09:09:45Z</time>
      </trkpt>
      <trkpt lat="46.020504" lon="6.767299">
        <ele>1199.729</ele>
        <time>2018-07-11T09:09:49Z</time>
      </trkpt>
      <trkpt lat="46.020473" lon="6.767250">
        <ele>1202.355</ele>
        <time>2018-07-11T09:09:53Z</time>
      </trkpt>
      <trkpt lat="46.020475" lon="6.767173">
        <ele>1203.707</ele>
        <time>2018-07-11T09:10:02Z</time>
      </trkpt>
      <trkpt lat="46.020426" lon="6.767130">
        <ele>1204.117</ele>
        <time>2018-07-11T09:10:21Z</time>
      </trkpt>
      <trkpt lat="46.020391" lon="6.767079">
        <ele>1205.808</ele>
        <time>2018-07-11T09:10:25Z</time>
      </trkpt>
      <trkpt lat="46.020354" lon="6.767010">
        <ele>1204.977</ele>
        <time>2018-07-11T09:10:29Z</time>
      </trkpt>
      <trkpt lat="46.020323" lon="6.766939">
        <ele>1205.271</ele>
        <time>2018-07-11T09:10:33Z</time>
      </trkpt>
      <trkpt lat="46.020293" lon="6.766876">
        <ele>1205.689</ele>
        <time>2018-07-11T09:10:37Z</time>
      </trkpt>
      <trkpt lat="46.020277" lon="6.766795">
        <ele>1205.848</ele>
        <time>2018-07-11T09:10:42Z</time>
      </trkpt>
      <trkpt lat="46.020268" lon="6.766731">
        <ele>1206.649</ele>
        <time>2018-07-11T09:10:47Z</time>
      </trkpt>
      <trkpt lat="46.020264" lon="6.766661">
        <ele>1207.055</ele>
        <time>2018-07-11T09:10:52Z</time>
      </trkpt>
      <trkpt lat="46.020246" lon="6.766592">
        <ele>1207.755</ele>
        <time>2018-07-11T09:10:58Z</time>
      </trkpt>
      <trkpt lat="46.020203" lon="6.766544">
        <ele>1209.269</ele>
        <time>2018-07-11T09:11:04Z</time>
      </trkpt>
      <trkpt lat="46.020157" lon="6.766512">
        <ele>1209.631</ele>
        <time>2018-07-11T09:11:10Z</time>
      </trkpt>
      <trkpt lat="46.020116" lon="6.766483">
        <ele>1210.561</ele>
        <time>2018-07-11T09:11:16Z</time>
      </trkpt>
      <trkpt lat="46.020073" lon="6.766463">
        <ele>1211.507</ele>
        <time>2018-07-11T09:11:24Z</time>
      </trkpt>
      <trkpt lat="46.020035" lon="6.766426">
        <ele>1212.408</ele>
        <time>2018-07-11T09:11:30Z</time>
      </trkpt>
      <trkpt lat="46.019990" lon="6.766406">
        <ele>1212.615</ele>
        <time>2018-07-11T09:11:35Z</time>
      </trkpt>
      <trkpt lat="46.019946" lon="6.766392">
        <ele>1213.319</ele>
        <time>2018-07-11T09:11:41Z</time>
      </trkpt>
      <trkpt lat="46.019895" lon="6.766388">
        <ele>1214.087</ele>
        <time>2018-07-11T09:11:47Z</time>
      </trkpt>
      <trkpt lat="46.019845" lon="6.766382">
        <ele>1214.996</ele>
        <time>2018-07-11T09:11:53Z</time>
      </trkpt>
      <trkpt lat="46.019793" lon="6.766388">
        <ele>1215.767</ele>
        <time>2018-07-11T09:12:00Z</time>
      </trkpt>
      <trkpt lat="46.019745" lon="6.766394">
        <ele>1216.463</ele>
        <time>2018-07-11T09:12:06Z</time>
      </trkpt>
      <trkpt lat="46.019698" lon="6.766399">
        <ele>1216.913</ele>
        <time>2018-07-11T09:12:12Z</time>
      </trkpt>
      <trkpt lat="46.019648" lon="6.766397">
        <ele>1220.347</ele>
        <time>2018-07-11T09:12:19Z</time>
      </trkpt>
      <trkpt lat="46.019620" lon="6.766347">
        <ele>1221.013</ele>
        <time>2018-07-11T09:12:24Z</time>
      </trkpt>
      <trkpt lat="46.019593" lon="6.766293">
        <ele>1222.143</ele>
        <time>2018-07-11T09:12:30Z</time>
      </trkpt>
      <trkpt lat="46.019558" lon="6.766241">
        <ele>1222.707</ele>
        <time>2018-07-11T09:12:37Z</time>
      </trkpt>
      <trkpt lat="46.019511" lon="6.766200">
        <ele>1222.808</ele>
        <time>2018-07-11T09:12:42Z</time>
      </trkpt>
      <trkpt lat="46.019468" lon="6.766173">
        <ele>1220.923</ele>
        <time>2018-07-11T09:12:47Z</time>
      </trkpt>
      <trkpt lat="46.019426" lon="6.766148">
        <ele>1221.317</ele>
        <time>2018-07-11T09:12:52Z</time>
      </trkpt>
      <trkpt lat="46.019386" lon="6.766101">
        <ele>1222.255</ele>
        <time>2018-07-11T09:12:58Z</time>
      </trkpt>
      <trkpt lat="46.019349" lon="6.766055">
        <ele>1222.454</ele>
        <time>2018-07-11T09:13:04Z</time>
      </trkpt>
      <trkpt lat="46.019317" lon="6.766005">
        <ele>1223.065</ele>
        <time>2018-07-11T09:13:10Z</time>
      </trkpt>
      <trkpt lat="46.019297" lon="6.765941">
        <ele>1224.011</ele>
        <time>2018-07-11T09:13:16Z</time>
      </trkpt>
      <trkpt lat="46.019266" lon="6.765881">
        <ele>1224.871</ele>
        <time>2018-07-11T09:13:23Z</time>
      </trkpt>
      <trkpt lat="46.019211" lon="6.765864">
        <ele>1225.735</ele>
        <time>2018-07-11T09:13:29Z</time>
      </trkpt>
      <trkpt lat="46.019171" lon="6.765817">
        <ele>1226.684</ele>
        <time>2018-07-11T09:13:36Z</time>
      </trkpt>
      <trkpt lat="46.019137" lon="6.765770">
        <ele>1228.507</ele>
        <time>2018-07-11T09:13:51Z</time>
      </trkpt>
      <trkpt lat="46.019102" lon="6.765725">
        <ele>1229.917</ele>
        <time>2018-07-11T09:13:58Z</time>
      </trkpt>
      <trkpt lat="46.019061" lon="6.765687">
        <ele>1230.508</ele>
        <time>2018-07-11T09:14:05Z</time>
      </trkpt>
      <trkpt lat="46.019020" lon="6.765646">
        <ele>1231.230</ele>
        <time>2018-07-11T09:14:12Z</time>
      </trkpt>
      <trkpt lat="46.018984" lon="6.765604">
        <ele>1232.264</ele>
        <time>2018-07-11T09:14:20Z</time>
      </trkpt>
      <trkpt lat="46.018943" lon="6.765577">
        <ele>1233.252</ele>
        <time>2018-07-11T09:14:28Z</time>
      </trkpt>
      <trkpt lat="46.018902" lon="6.765539">
        <ele>1234.261</ele>
        <time>2018-07-11T09:14:37Z</time>
      </trkpt>
      <trkpt lat="46.018836" lon="6.765476">
        <ele>1237.572</ele>
        <time>2018-07-11T09:14:55Z</time>
      </trkpt>
      <trkpt lat="46.018794" lon="6.765445">
        <ele>1238.858</ele>
        <time>2018-07-11T09:15:03Z</time>
      </trkpt>
      <trkpt lat="46.018749" lon="6.765418">
        <ele>1240.318</ele>
        <time>2018-07-11T09:15:19Z</time>
      </trkpt>
      <trkpt lat="46.018703" lon="6.765397">
        <ele>1240.952</ele>
        <time>2018-07-11T09:15:25Z</time>
      </trkpt>
      <trkpt lat="46.018656" lon="6.765395">
        <ele>1242.149</ele>
        <time>2018-07-11T09:15:32Z</time>
      </trkpt>
      <trkpt lat="46.018601" lon="6.765389">
        <ele>1243.002</ele>
        <time>2018-07-11T09:15:42Z</time>
      </trkpt>
      <trkpt lat="46.018548" lon="6.765396">
        <ele>1243.722</ele>
        <time>2018-07-11T09:15:46Z</time>
      </trkpt>
      <trkpt lat="46.018499" lon="6.765407">
        <ele>1244.308</ele>
        <time>2018-07-11T09:15:51Z</time>
      </trkpt>
      <trkpt lat="46.018450" lon="6.765400">
        <ele>1244.926</ele>
        <time>2018-07-11T09:15:57Z</time>
      </trkpt>
      <trkpt lat="46.018405" lon="6.765400">
        <ele>1245.120</ele>
        <time>2018-07-11T09:16:02Z</time>
      </trkpt>
      <trkpt lat="46.018354" lon="6.765385">
        <ele>1245.978</ele>
        <time>2018-07-11T09:16:07Z</time>
      </trkpt>
      <trkpt lat="46.018307" lon="6.765375">
        <ele>1246.467</ele>
        <time>2018-07-11T09:16:12Z</time>
      </trkpt>
      <trkpt lat="46.018257" lon="6.765354">
        <ele>1247.538</ele>
        <time>2018-07-11T09:16:19Z</time>
      </trkpt>
      <trkpt lat="46.018213" lon="6.765314">
        <ele>1248.214</ele>
        <time>2018-07-11T09:16:25Z</time>
      </trkpt>
      <trkpt lat="46.018174" lon="6.765277">
        <ele>1249.354</ele>
        <time>2018-07-11T09:16:33Z</time>
      </trkpt>
      <trkpt lat="46.018132" lon="6.765252">
        <ele>1250.358</ele>
        <time>2018-07-11T09:16:40Z</time>
      </trkpt>
      <trkpt lat="46.018089" lon="6.765218">
        <ele>1251.475</ele>
        <time>2018-07-11T09:16:48Z</time>
      </trkpt>
      <trkpt lat="46.018050" lon="6.765177">
        <ele>1252.228</ele>
        <time>2018-07-11T09:16:54Z</time>
      </trkpt>
      <trkpt lat="46.018023" lon="6.765125">
        <ele>1254.720</ele>
        <time>2018-07-11T09:17:13Z</time>
      </trkpt>
      <trkpt lat="46.017979" lon="6.765074">
        <ele>1257.008</ele>
        <time>2018-07-11T09:17:28Z</time>
      </trkpt>
      <trkpt lat="46.017938" lon="6.765026">
        <ele>1258.499</ele>
        <time>2018-07-11T09:17:36Z</time>
      </trkpt>
      <trkpt lat="46.017902" lon="6.764971">
        <ele>1259.573</ele>
        <time>2018-07-11T09:17:43Z</time>
      </trkpt>
      <trkpt lat="46.017899" lon="6.764900">
        <ele>1261.151</ele>
        <time>2018-07-11T09:17:57Z</time>
      </trkpt>
      <trkpt lat="46.017896" lon="6.764825">
        <ele>1263.190</ele>
        <time>2018-07-11T09:18:05Z</time>
      </trkpt>
      <trkpt lat="46.017892" lon="6.764760">
        <ele>1262.921</ele>
        <time>2018-07-11T09:18:13Z</time>
      </trkpt>
      <trkpt lat="46.017868" lon="6.764702">
        <ele>1264.567</ele>
        <time>2018-07-11T09:18:24Z</time>
      </trkpt>
      <trkpt lat="46.017828" lon="6.764661">
        <ele>1266.487</ele>
        <time>2018-07-11T09:18:35Z</time>
      </trkpt>
      <trkpt lat="46.017774" lon="6.764589">
        <ele>1267.881</ele>
        <time>2018-07-11T09:18:46Z</time>
      </trkpt>
      <trkpt lat="46.017710" lon="6.764557">
        <ele>1271.249</ele>
        <time>2018-07-11T09:18:55Z</time>
      </trkpt>
      <trkpt lat="46.017653" lon="6.764435">
        <ele>1272.102</ele>
        <time>2018-07-11T09:19:19Z</time>
      </trkpt>
      <trkpt lat="46.017611" lon="6.764379">
        <ele>1273.822</ele>
        <time>2018-07-11T09:19:32Z</time>
      </trkpt>
      <trkpt lat="46.017584" lon="6.764323">
        <ele>1275.008</ele>
        <time>2018-07-11T09:19:40Z</time>
      </trkpt>
      <trkpt lat="46.017544" lon="6.764285">
        <ele>1276.236</ele>
        <time>2018-07-11T09:19:50Z</time>
      </trkpt>
      <trkpt lat="46.017427" lon="6.764236">
        <ele>1278.760</ele>
        <time>2018-07-11T09:20:11Z</time>
      </trkpt>
      <trkpt lat="46.017380" lon="6.764209">
        <ele>1280.128</ele>
        <time>2018-07-11T09:20:20Z</time>
      </trkpt>
      <trkpt lat="46.017333" lon="6.764168">
        <ele>1282.237</ele>
        <time>2018-07-11T09:20:27Z</time>
      </trkpt>
      <trkpt lat="46.017293" lon="6.764133">
        <ele>1281.818</ele>
        <time>2018-07-11T09:20:33Z</time>
      </trkpt>
      <trkpt lat="46.017242" lon="6.764094">
        <ele>1283.074</ele>
        <time>2018-07-11T09:20:44Z</time>
      </trkpt>
      <trkpt lat="46.017199" lon="6.764057">
        <ele>1284.314</ele>
        <time>2018-07-11T09:20:55Z</time>
      </trkpt>
      <trkpt lat="46.017155" lon="6.764034">
        <ele>1285.638</ele>
        <time>2018-07-11T09:21:02Z</time>
      </trkpt>
      <trkpt lat="46.017086" lon="6.764020">
        <ele>1287.541</ele>
        <time>2018-07-11T09:21:18Z</time>
      </trkpt>
      <trkpt lat="46.017037" lon="6.763988">
        <ele>1288.181</ele>
        <time>2018-07-11T09:21:25Z</time>
      </trkpt>
      <trkpt lat="46.016989" lon="6.763908">
        <ele>1289.209</ele>
        <time>2018-07-11T09:21:33Z</time>
      </trkpt>
      <trkpt lat="46.016963" lon="6.763854">
        <ele>1290.708</ele>
        <time>2018-07-11T09:21:37Z</time>
      </trkpt>
      <trkpt lat="46.016903" lon="6.763798">
        <ele>1290.946</ele>
        <time>2018-07-11T09:21:46Z</time>
      </trkpt>
      <trkpt lat="46.016866" lon="6.763751">
        <ele>1291.380</ele>
        <time>2018-07-11T09:21:52Z</time>
      </trkpt>
      <trkpt lat="46.016829" lon="6.763711">
        <ele>1291.648</ele>
        <time>2018-07-11T09:21:57Z</time>
      </trkpt>
      <trkpt lat="46.016789" lon="6.763675">
        <ele>1292.377</ele>
        <time>2018-07-11T09:22:04Z</time>
      </trkpt>
      <trkpt lat="46.016743" lon="6.763651">
        <ele>1293.848</ele>
        <time>2018-07-11T09:22:10Z</time>
      </trkpt>
      <trkpt lat="46.016706" lon="6.763603">
        <ele>1294.784</ele>
        <time>2018-07-11T09:22:18Z</time>
      </trkpt>
      <trkpt lat="46.016667" lon="6.763563">
        <ele>1295.384</ele>
        <time>2018-07-11T09:22:26Z</time>
      </trkpt>
      <trkpt lat="46.016640" lon="6.763509">
        <ele>1296.178</ele>
        <time>2018-07-11T09:22:33Z</time>
      </trkpt>
      <trkpt lat="46.016608" lon="6.763461">
        <ele>1297.117</ele>
        <time>2018-07-11T09:22:43Z</time>
      </trkpt>
      <trkpt lat="46.016562" lon="6.763427">
        <ele>1297.987</ele>
        <time>2018-07-11T09:22:50Z</time>
      </trkpt>
      <trkpt lat="46.016521" lon="6.763391">
        <ele>1298.715</ele>
        <time>2018-07-11T09:22:57Z</time>
      </trkpt>
      <trkpt lat="46.016474" lon="6.763366">
        <ele>1299.408</ele>
        <time>2018-07-11T09:23:04Z</time>
      </trkpt>
      <trkpt lat="46.016426" lon="6.763335">
        <ele>1300.283</ele>
        <time>2018-07-11T09:23:11Z</time>
      </trkpt>
      <trkpt lat="46.016389" lon="6.763295">
        <ele>1301.217</ele>
        <time>2018-07-11T09:23:17Z</time>
      </trkpt>
      <trkpt lat="46.016346" lon="6.763270">
        <ele>1301.815</ele>
        <time>2018-07-11T09:24:01Z</time>
      </trkpt>
      <trkpt lat="46.016293" lon="6.763263">
        <ele>1303.474</ele>
        <time>2018-07-11T09:24:14Z</time>
      </trkpt>
      <trkpt lat="46.016251" lon="6.763236">
        <ele>1303.825</ele>
        <time>2018-07-11T09:24:19Z</time>
      </trkpt>
      <trkpt lat="46.016203" lon="6.763209">
        <ele>1304.851</ele>
        <time>2018-07-11T09:24:24Z</time>
      </trkpt>
      <trkpt lat="46.016159" lon="6.763191">
        <ele>1305.621</ele>
        <time>2018-07-11T09:24:29Z</time>
      </trkpt>
      <trkpt lat="46.016114" lon="6.763154">
        <ele>1306.125</ele>
        <time>2018-07-11T09:24:36Z</time>
      </trkpt>
      <trkpt lat="46.016073" lon="6.763127">
        <ele>1306.717</ele>
        <time>2018-07-11T09:24:41Z</time>
      </trkpt>
      <trkpt lat="46.016035" lon="6.763089">
        <ele>1307.387</ele>
        <time>2018-07-11T09:24:46Z</time>
      </trkpt>
      <trkpt lat="46.015991" lon="6.763060">
        <ele>1308.615</ele>
        <time>2018-07-11T09:24:54Z</time>
      </trkpt>
      <trkpt lat="46.015943" lon="6.763037">
        <ele>1309.708</ele>
        <time>2018-07-11T09:25:02Z</time>
      </trkpt>
      <trkpt lat="46.015893" lon="6.763027">
        <ele>1310.323</ele>
        <time>2018-07-11T09:25:09Z</time>
      </trkpt>
      <trkpt lat="46.015855" lon="6.762980">
        <ele>1310.427</ele>
        <time>2018-07-11T09:25:16Z</time>
      </trkpt>
      <trkpt lat="46.015824" lon="6.762915">
        <ele>1311.485</ele>
        <time>2018-07-11T09:25:22Z</time>
      </trkpt>
      <trkpt lat="46.015794" lon="6.762863">
        <ele>1311.354</ele>
        <time>2018-07-11T09:25:27Z</time>
      </trkpt>
      <trkpt lat="46.015770" lon="6.762803">
        <ele>1312.285</ele>
        <time>2018-07-11T09:25:33Z</time>
      </trkpt>
      <trkpt lat="46.015759" lon="6.762733">
        <ele>1312.581</ele>
        <time>2018-07-11T09:25:39Z</time>
      </trkpt>
      <trkpt lat="46.015740" lon="6.762673">
        <ele>1313.381</ele>
        <time>2018-07-11T09:25:44Z</time>
      </trkpt>
      <trkpt lat="46.015716" lon="6.762614">
        <ele>1313.865</ele>
        <time>2018-07-11T09:25:50Z</time>
      </trkpt>
      <trkpt lat="46.015689" lon="6.762559">
        <ele>1314.354</ele>
        <time>2018-07-11T09:25:55Z</time>
      </trkpt>
      <trkpt lat="46.015661" lon="6.762508">
        <ele>1314.856</ele>
        <time>2018-07-11T09:26:00Z</time>
      </trkpt>
      <trkpt lat="46.015629" lon="6.762450">
        <ele>1315.711</ele>
        <time>2018-07-11T09:26:06Z</time>
      </trkpt>
      <trkpt lat="46.015596" lon="6.762401">
        <ele>1316.408</ele>
        <time>2018-07-11T09:26:13Z</time>
      </trkpt>
      <trkpt lat="46.015557" lon="6.762356">
        <ele>1317.447</ele>
        <time>2018-07-11T09:26:20Z</time>
      </trkpt>
      <trkpt lat="46.015524" lon="6.762302">
        <ele>1318.361</ele>
        <time>2018-07-11T09:26:30Z</time>
      </trkpt>
      <trkpt lat="46.015491" lon="6.762254">
        <ele>1319.659</ele>
        <time>2018-07-11T09:26:39Z</time>
      </trkpt>
      <trkpt lat="46.015467" lon="6.762196">
        <ele>1320.878</ele>
        <time>2018-07-11T09:26:46Z</time>
      </trkpt>
      <trkpt lat="46.015446" lon="6.762137">
        <ele>1321.449</ele>
        <time>2018-07-11T09:26:53Z</time>
      </trkpt>
      <trkpt lat="46.015424" lon="6.762081">
        <ele>1322.285</ele>
        <time>2018-07-11T09:27:01Z</time>
      </trkpt>
      <trkpt lat="46.015394" lon="6.762023">
        <ele>1323.955</ele>
        <time>2018-07-11T09:27:10Z</time>
      </trkpt>
      <trkpt lat="46.015356" lon="6.761979">
        <ele>1324.989</ele>
        <time>2018-07-11T09:27:18Z</time>
      </trkpt>
      <trkpt lat="46.015331" lon="6.761923">
        <ele>1326.945</ele>
        <time>2018-07-11T09:27:32Z</time>
      </trkpt>
      <trkpt lat="46.015296" lon="6.761877">
        <ele>1328.547</ele>
        <time>2018-07-11T09:27:42Z</time>
      </trkpt>
      <trkpt lat="46.015260" lon="6.761832">
        <ele>1329.011</ele>
        <time>2018-07-11T09:27:50Z</time>
      </trkpt>
      <trkpt lat="46.015224" lon="6.761788">
        <ele>1330.108</ele>
        <time>2018-07-11T09:28:00Z</time>
      </trkpt>
      <trkpt lat="46.015177" lon="6.761786">
        <ele>1331.526</ele>
        <time>2018-07-11T09:28:10Z</time>
      </trkpt>
      <trkpt lat="46.015131" lon="6.761769">
        <ele>1332.570</ele>
        <time>2018-07-11T09:28:19Z</time>
      </trkpt>
      <trkpt lat="46.015086" lon="6.761762">
        <ele>1333.688</ele>
        <time>2018-07-11T09:28:29Z</time>
      </trkpt>
      <trkpt lat="46.015039" lon="6.761747">
        <ele>1335.127</ele>
        <time>2018-07-11T09:28:39Z</time>
      </trkpt>
      <trkpt lat="46.014991" lon="6.761732">
        <ele>1335.858</ele>
        <time>2018-07-11T09:28:48Z</time>
      </trkpt>
      <trkpt lat="46.014943" lon="6.761724">
        <ele>1339.434</ele>
        <time>2018-07-11T09:28:57Z</time>
      </trkpt>
      <trkpt lat="46.014895" lon="6.761725">
        <ele>1338.074</ele>
        <time>2018-07-11T09:29:06Z</time>
      </trkpt>
      <trkpt lat="46.014884" lon="6.761790">
        <ele>1338.688</ele>
        <time>2018-07-11T09:29:13Z</time>
      </trkpt>
      <trkpt lat="46.014892" lon="6.761858">
        <ele>1340.139</ele>
        <time>2018-07-11T09:29:23Z</time>
      </trkpt>
      <trkpt lat="46.014897" lon="6.761928">
        <ele>1340.901</ele>
        <time>2018-07-11T09:29:34Z</time>
      </trkpt>
      <trkpt lat="46.014881" lon="6.761996">
        <ele>1341.921</ele>
        <time>2018-07-11T09:29:42Z</time>
      </trkpt>
      <trkpt lat="46.014859" lon="6.762056">
        <ele>1342.708</ele>
        <time>2018-07-11T09:29:50Z</time>
      </trkpt>
      <trkpt lat="46.014844" lon="6.762127">
        <ele>1343.465</ele>
        <time>2018-07-11T09:29:57Z</time>
      </trkpt>
      <trkpt lat="46.014801" lon="6.762105">
        <ele>1349.169</ele>
        <time>2018-07-11T09:30:23Z</time>
      </trkpt>
      <trkpt lat="46.014759" lon="6.762072">
        <ele>1350.317</ele>
        <time>2018-07-11T09:30:32Z</time>
      </trkpt>
      <trkpt lat="46.014717" lon="6.762044">
        <ele>1349.276</ele>
        <time>2018-07-11T09:30:43Z</time>
      </trkpt>
      <trkpt lat="46.014667" lon="6.762030">
        <ele>1351.117</ele>
        <time>2018-07-11T09:30:54Z</time>
      </trkpt>
      <trkpt lat="46.014634" lon="6.761984">
        <ele>1352.263</ele>
        <time>2018-07-11T09:31:06Z</time>
      </trkpt>
      <trkpt lat="46.014597" lon="6.761947">
        <ele>1353.783</ele>
        <time>2018-07-11T09:31:20Z</time>
      </trkpt>
      <trkpt lat="46.014555" lon="6.761907">
        <ele>1355.177</ele>
        <time>2018-07-11T09:31:35Z</time>
      </trkpt>
      <trkpt lat="46.014531" lon="6.761842">
        <ele>1356.828</ele>
        <time>2018-07-11T09:31:48Z</time>
      </trkpt>
      <trkpt lat="46.014527" lon="6.761776">
        <ele>1358.089</ele>
        <time>2018-07-11T09:32:00Z</time>
      </trkpt>
      <trkpt lat="46.014478" lon="6.761742">
        <ele>1359.017</ele>
        <time>2018-07-11T09:32:08Z</time>
      </trkpt>
      <trkpt lat="46.014440" lon="6.761687">
        <ele>1361.108</ele>
        <time>2018-07-11T09:32:30Z</time>
      </trkpt>
      <trkpt lat="46.014396" lon="6.761671">
        <ele>1362.374</ele>
        <time>2018-07-11T09:32:40Z</time>
      </trkpt>
      <trkpt lat="46.014371" lon="6.761617">
        <ele>1364.048</ele>
        <time>2018-07-11T09:32:54Z</time>
      </trkpt>
      <trkpt lat="46.014324" lon="6.761586">
        <ele>1365.046</ele>
        <time>2018-07-11T09:33:02Z</time>
      </trkpt>
      <trkpt lat="46.014287" lon="6.761547">
        <ele>1366.075</ele>
        <time>2018-07-11T09:33:10Z</time>
      </trkpt>
      <trkpt lat="46.014245" lon="6.761513">
        <ele>1366.866</ele>
        <time>2018-07-11T09:33:19Z</time>
      </trkpt>
      <trkpt lat="46.014210" lon="6.761471">
        <ele>1368.762</ele>
        <time>2018-07-11T09:33:36Z</time>
      </trkpt>
      <trkpt lat="46.014165" lon="6.761430">
        <ele>1370.212</ele>
        <time>2018-07-11T09:33:47Z</time>
      </trkpt>
      <trkpt lat="46.014118" lon="6.761407">
        <ele>1372.256</ele>
        <time>2018-07-11T09:34:01Z</time>
      </trkpt>
      <trkpt lat="46.014083" lon="6.761356">
        <ele>1373.492</ele>
        <time>2018-07-11T09:34:14Z</time>
      </trkpt>
      <trkpt lat="46.014044" lon="6.761310">
        <ele>1375.573</ele>
        <time>2018-07-11T09:34:29Z</time>
      </trkpt>
      <trkpt lat="46.014005" lon="6.761238">
        <ele>1378.620</ele>
        <time>2018-07-11T09:34:56Z</time>
      </trkpt>
      <trkpt lat="46.013955" lon="6.761235">
        <ele>1379.708</ele>
        <time>2018-07-11T09:35:04Z</time>
      </trkpt>
      <trkpt lat="46.013903" lon="6.761229">
        <ele>1380.121</ele>
        <time>2018-07-11T09:35:08Z</time>
      </trkpt>
      <trkpt lat="46.013854" lon="6.761241">
        <ele>1380.545</ele>
        <time>2018-07-11T09:35:13Z</time>
      </trkpt>
      <trkpt lat="46.013808" lon="6.761218">
        <ele>1381.443</ele>
        <time>2018-07-11T09:35:20Z</time>
      </trkpt>
      <trkpt lat="46.013769" lon="6.761170">
        <ele>1382.322</ele>
        <time>2018-07-11T09:35:29Z</time>
      </trkpt>
      <trkpt lat="46.013721" lon="6.761160">
        <ele>1382.633</ele>
        <time>2018-07-11T09:35:33Z</time>
      </trkpt>
      <trkpt lat="46.013702" lon="6.761098">
        <ele>1383.999</ele>
        <time>2018-07-11T09:35:42Z</time>
      </trkpt>
      <trkpt lat="46.013675" lon="6.761039">
        <ele>1384.659</ele>
        <time>2018-07-11T09:35:49Z</time>
      </trkpt>
      <trkpt lat="46.013665" lon="6.760976">
        <ele>1386.493</ele>
        <time>2018-07-11T09:36:00Z</time>
      </trkpt>
      <trkpt lat="46.013635" lon="6.760918">
        <ele>1389.134</ele>
        <time>2018-07-11T09:36:21Z</time>
      </trkpt>
      <trkpt lat="46.013597" lon="6.760876">
        <ele>1391.155</ele>
        <time>2018-07-11T09:36:29Z</time>
      </trkpt>
      <trkpt lat="46.013585" lon="6.760809">
        <ele>1392.010</ele>
        <time>2018-07-11T09:36:35Z</time>
      </trkpt>
      <trkpt lat="46.013558" lon="6.760748">
        <ele>1393.908</ele>
        <time>2018-07-11T09:36:50Z</time>
      </trkpt>
      <trkpt lat="46.013537" lon="6.760688">
        <ele>1395.825</ele>
        <time>2018-07-11T09:37:02Z</time>
      </trkpt>
      <trkpt lat="46.013509" lon="6.760637">
        <ele>1396.559</ele>
        <time>2018-07-11T09:37:09Z</time>
      </trkpt>
      <trkpt lat="46.013474" lon="6.760584">
        <ele>1398.177</ele>
        <time>2018-07-11T09:37:21Z</time>
      </trkpt>
      <trkpt lat="46.013429" lon="6.760563">
        <ele>1399.116</ele>
        <time>2018-07-11T09:37:28Z</time>
      </trkpt>
      <trkpt lat="46.013375" lon="6.760559">
        <ele>1400.067</ele>
        <time>2018-07-11T09:37:36Z</time>
      </trkpt>
      <trkpt lat="46.013346" lon="6.760502">
        <ele>1400.713</ele>
        <time>2018-07-11T09:37:51Z</time>
      </trkpt>
      <trkpt lat="46.013318" lon="6.760443">
        <ele>1402.123</ele>
        <time>2018-07-11T09:38:01Z</time>
      </trkpt>
      <trkpt lat="46.013270" lon="6.760411">
        <ele>1403.217</ele>
        <time>2018-07-11T09:38:10Z</time>
      </trkpt>
      <trkpt lat="46.013229" lon="6.760369">
        <ele>1404.058</ele>
        <time>2018-07-11T09:38:18Z</time>
      </trkpt>
      <trkpt lat="46.013212" lon="6.760306">
        <ele>1404.852</ele>
        <time>2018-07-11T09:38:25Z</time>
      </trkpt>
      <trkpt lat="46.013179" lon="6.760251">
        <ele>1405.917</ele>
        <time>2018-07-11T09:38:32Z</time>
      </trkpt>
      <trkpt lat="46.013119" lon="6.760219">
        <ele>1406.808</ele>
        <time>2018-07-11T09:38:42Z</time>
      </trkpt>
      <trkpt lat="46.013066" lon="6.760210">
        <ele>1407.757</ele>
        <time>2018-07-11T09:38:49Z</time>
      </trkpt>
      <trkpt lat="46.013021" lon="6.760175">
        <ele>1410.911</ele>
        <time>2018-07-11T09:38:56Z</time>
      </trkpt>
      <trkpt lat="46.012976" lon="6.760164">
        <ele>1409.719</ele>
        <time>2018-07-11T09:39:06Z</time>
      </trkpt>
      <trkpt lat="46.012943" lon="6.760118">
        <ele>1411.318</ele>
        <time>2018-07-11T09:39:19Z</time>
      </trkpt>
      <trkpt lat="46.012905" lon="6.760075">
        <ele>1412.879</ele>
        <time>2018-07-11T09:39:27Z</time>
      </trkpt>
      <trkpt lat="46.012876" lon="6.760021">
        <ele>1413.325</ele>
        <time>2018-07-11T09:39:35Z</time>
      </trkpt>
      <trkpt lat="46.012901" lon="6.759969">
        <ele>1424.225</ele>
        <time>2018-07-11T09:41:40Z</time>
      </trkpt>
      <trkpt lat="46.012883" lon="6.760030">
        <ele>1424.219</ele>
        <time>2018-07-11T09:42:20Z</time>
      </trkpt>
      <trkpt lat="46.012895" lon="6.760093">
        <ele>1424.289</ele>
        <time>2018-07-11T09:42:30Z</time>
      </trkpt>
      <trkpt lat="46.012885" lon="6.760164">
        <ele>1425.406</ele>
        <time>2018-07-11T09:42:38Z</time>
      </trkpt>
      <trkpt lat="46.012874" lon="6.760228">
        <ele>1427.426</ele>
        <time>2018-07-11T09:42:53Z</time>
      </trkpt>
      <trkpt lat="46.012851" lon="6.760284">
        <ele>1428.408</ele>
        <time>2018-07-11T09:43:01Z</time>
      </trkpt>
      <trkpt lat="46.012857" lon="6.760354">
        <ele>1430.180</ele>
        <time>2018-07-11T09:43:17Z</time>
      </trkpt>
      <trkpt lat="46.012868" lon="6.760423">
        <ele>1432.034</ele>
        <time>2018-07-11T09:43:34Z</time>
      </trkpt>
      <trkpt lat="46.012806" lon="6.760438">
        <ele>1433.382</ele>
        <time>2018-07-11T09:43:46Z</time>
      </trkpt>
      <trkpt lat="46.012763" lon="6.760414">
        <ele>1435.011</ele>
        <time>2018-07-11T09:44:01Z</time>
      </trkpt>
      <trkpt lat="46.012722" lon="6.760376">
        <ele>1436.852</ele>
        <time>2018-07-11T09:44:18Z</time>
      </trkpt>
      <trkpt lat="46.012673" lon="6.760354">
        <ele>1438.728</ele>
        <time>2018-07-11T09:44:37Z</time>
      </trkpt>
      <trkpt lat="46.012628" lon="6.760350">
        <ele>1440.358</ele>
        <time>2018-07-11T09:44:50Z</time>
      </trkpt>
      <trkpt lat="46.012584" lon="6.760329">
        <ele>1440.982</ele>
        <time>2018-07-11T09:44:59Z</time>
      </trkpt>
      <trkpt lat="46.012542" lon="6.760303">
        <ele>1442.892</ele>
        <time>2018-07-11T09:45:17Z</time>
      </trkpt>
      <trkpt lat="46.012510" lon="6.760255">
        <ele>1443.773</ele>
        <time>2018-07-11T09:45:28Z</time>
      </trkpt>
      <trkpt lat="46.012459" lon="6.760256">
        <ele>1446.220</ele>
        <time>2018-07-11T09:45:51Z</time>
      </trkpt>
      <trkpt lat="46.012410" lon="6.760280">
        <ele>1447.708</ele>
        <time>2018-07-11T09:46:05Z</time>
      </trkpt>
      <trkpt lat="46.012345" lon="6.760269">
        <ele>1449.191</ele>
        <time>2018-07-11T09:46:26Z</time>
      </trkpt>
      <trkpt lat="46.012350" lon="6.760199">
        <ele>1450.835</ele>
        <time>2018-07-11T09:46:48Z</time>
      </trkpt>
      <trkpt lat="46.012371" lon="6.760138">
        <ele>1452.653</ele>
        <time>2018-07-11T09:46:59Z</time>
      </trkpt>
      <trkpt lat="46.012313" lon="6.760095">
        <ele>1453.442</ele>
        <time>2018-07-11T09:47:08Z</time>
      </trkpt>
      <trkpt lat="46.012284" lon="6.760036">
        <ele>1455.113</ele>
        <time>2018-07-11T09:47:24Z</time>
      </trkpt>
      <trkpt lat="46.012242" lon="6.760062">
        <ele>1458.219</ele>
        <time>2018-07-11T09:48:05Z</time>
      </trkpt>
      <trkpt lat="46.012218" lon="6.760121">
        <ele>1458.989</ele>
        <time>2018-07-11T09:48:17Z</time>
      </trkpt>
      <trkpt lat="46.012192" lon="6.760175">
        <ele>1460.533</ele>
        <time>2018-07-11T09:48:31Z</time>
      </trkpt>
      <trkpt lat="46.012159" lon="6.760225">
        <ele>1462.223</ele>
        <time>2018-07-11T09:48:46Z</time>
      </trkpt>
      <trkpt lat="46.012167" lon="6.760292">
        <ele>1464.783</ele>
        <time>2018-07-11T09:49:06Z</time>
      </trkpt>
      <trkpt lat="46.012138" lon="6.760343">
        <ele>1466.111</ele>
        <time>2018-07-11T09:49:16Z</time>
      </trkpt>
      <trkpt lat="46.012117" lon="6.760406">
        <ele>1467.108</ele>
        <time>2018-07-11T09:49:26Z</time>
      </trkpt>
      <trkpt lat="46.012124" lon="6.760471">
        <ele>1468.514</ele>
        <time>2018-07-11T09:49:43Z</time>
      </trkpt>
      <trkpt lat="46.012078" lon="6.760504">
        <ele>1470.728</ele>
        <time>2018-07-11T09:50:12Z</time>
      </trkpt>
      <trkpt lat="46.012109" lon="6.760446">
        <ele>1467.866</ele>
        <time>2018-07-11T09:50:30Z</time>
      </trkpt>
      <trkpt lat="46.012139" lon="6.760501">
        <ele>1468.925</ele>
        <time>2018-07-11T09:50:39Z</time>
      </trkpt>
      <trkpt lat="46.012179" lon="6.760556">
        <ele>1469.126</ele>
        <time>2018-07-11T09:50:50Z</time>
      </trkpt>
      <trkpt lat="46.012207" lon="6.760608">
        <ele>1470.292</ele>
        <time>2018-07-11T09:51:04Z</time>
      </trkpt>
      <trkpt lat="46.012229" lon="6.760671">
        <ele>1471.142</ele>
        <time>2018-07-11T09:51:14Z</time>
      </trkpt>
      <trkpt lat="46.012230" lon="6.760741">
        <ele>1472.416</ele>
        <time>2018-07-11T09:51:24Z</time>
      </trkpt>
      <trkpt lat="46.012245" lon="6.760806">
        <ele>1473.677</ele>
        <time>2018-07-11T09:51:37Z</time>
      </trkpt>
      <trkpt lat="46.012254" lon="6.760879">
        <ele>1476.761</ele>
        <time>2018-07-11T09:51:46Z</time>
      </trkpt>
      <trkpt lat="46.012262" lon="6.760944">
        <ele>1476.927</ele>
        <time>2018-07-11T09:51:52Z</time>
      </trkpt>
      <trkpt lat="46.012289" lon="6.761006">
        <ele>1477.708</ele>
        <time>2018-07-11T09:51:59Z</time>
      </trkpt>
      <trkpt lat="46.012316" lon="6.761067">
        <ele>1478.719</ele>
        <time>2018-07-11T09:52:07Z</time>
      </trkpt>
      <trkpt lat="46.012335" lon="6.761133">
        <ele>1479.913</ele>
        <time>2018-07-11T09:52:16Z</time>
      </trkpt>
      <trkpt lat="46.012351" lon="6.761195">
        <ele>1481.271</ele>
        <time>2018-07-11T09:52:26Z</time>
      </trkpt>
      <trkpt lat="46.012371" lon="6.761256">
        <ele>1482.720</ele>
        <time>2018-07-11T09:52:38Z</time>
      </trkpt>
      <trkpt lat="46.012384" lon="6.761321">
        <ele>1483.761</ele>
        <time>2018-07-11T09:52:48Z</time>
      </trkpt>
      <trkpt lat="46.012402" lon="6.761384">
        <ele>1483.977</ele>
        <time>2018-07-11T09:52:54Z</time>
      </trkpt>
      <trkpt lat="46.012432" lon="6.761436">
        <ele>1484.137</ele>
        <time>2018-07-11T09:53:06Z</time>
      </trkpt>
      <trkpt lat="46.012452" lon="6.761508">
        <ele>1485.981</ele>
        <time>2018-07-11T09:53:16Z</time>
      </trkpt>
      <trkpt lat="46.012486" lon="6.761551">
        <ele>1486.219</ele>
        <time>2018-07-11T09:53:27Z</time>
      </trkpt>
      <trkpt lat="46.012504" lon="6.761617">
        <ele>1486.609</ele>
        <time>2018-07-11T09:53:36Z</time>
      </trkpt>
      <trkpt lat="46.012490" lon="6.761687">
        <ele>1486.819</ele>
        <time>2018-07-11T09:53:42Z</time>
      </trkpt>
      <trkpt lat="46.012508" lon="6.761749">
        <ele>1487.808</ele>
        <time>2018-07-11T09:53:50Z</time>
      </trkpt>
      <trkpt lat="46.012522" lon="6.761812">
        <ele>1490.293</ele>
        <time>2018-07-11T09:54:09Z</time>
      </trkpt>
      <trkpt lat="46.012572" lon="6.761810">
        <ele>1490.677</ele>
        <time>2018-07-11T09:54:20Z</time>
      </trkpt>
      <trkpt lat="46.012615" lon="6.761834">
        <ele>1489.795</ele>
        <time>2018-07-11T09:54:25Z</time>
      </trkpt>
      <trkpt lat="46.012657" lon="6.761866">
        <ele>1488.894</ele>
        <time>2018-07-11T09:54:31Z</time>
      </trkpt>
      <trkpt lat="46.012701" lon="6.761910">
        <ele>1488.315</ele>
        <time>2018-07-11T09:54:36Z</time>
      </trkpt>
      <trkpt lat="46.012737" lon="6.761961">
        <ele>1488.921</ele>
        <time>2018-07-11T09:54:41Z</time>
      </trkpt>
      <trkpt lat="46.012772" lon="6.762011">
        <ele>1489.741</ele>
        <time>2018-07-11T09:54:49Z</time>
      </trkpt>
      <trkpt lat="46.012814" lon="6.762041">
        <ele>1489.865</ele>
        <time>2018-07-11T09:54:54Z</time>
      </trkpt>
      <trkpt lat="46.012856" lon="6.762074">
        <ele>1490.118</ele>
        <time>2018-07-11T09:54:59Z</time>
      </trkpt>
      <trkpt lat="46.012904" lon="6.762108">
        <ele>1490.798</ele>
        <time>2018-07-11T09:55:05Z</time>
      </trkpt>
      <trkpt lat="46.012949" lon="6.762139">
        <ele>1491.317</ele>
        <time>2018-07-11T09:55:12Z</time>
      </trkpt>
      <trkpt lat="46.012995" lon="6.762166">
        <ele>1492.508</ele>
        <time>2018-07-11T09:55:21Z</time>
      </trkpt>
      <trkpt lat="46.013038" lon="6.762195">
        <ele>1493.033</ele>
        <time>2018-07-11T09:55:30Z</time>
      </trkpt>
      <trkpt lat="46.013081" lon="6.762226">
        <ele>1493.747</ele>
        <time>2018-07-11T09:55:36Z</time>
      </trkpt>
      <trkpt lat="46.013119" lon="6.762272">
        <ele>1493.895</ele>
        <time>2018-07-11T09:55:43Z</time>
      </trkpt>
      <trkpt lat="46.013159" lon="6.762325">
        <ele>1493.344</ele>
        <time>2018-07-11T09:55:48Z</time>
      </trkpt>
      <trkpt lat="46.013195" lon="6.762377">
        <ele>1493.935</ele>
        <time>2018-07-11T09:55:53Z</time>
      </trkpt>
      <trkpt lat="46.013230" lon="6.762427">
        <ele>1494.071</ele>
        <time>2018-07-11T09:55:59Z</time>
      </trkpt>
      <trkpt lat="46.013265" lon="6.762470">
        <ele>1496.891</ele>
        <time>2018-07-11T09:56:04Z</time>
      </trkpt>
      <trkpt lat="46.013305" lon="6.762511">
        <ele>1496.475</ele>
        <time>2018-07-11T09:56:09Z</time>
      </trkpt>
      <trkpt lat="46.013323" lon="6.762571">
        <ele>1496.818</ele>
        <time>2018-07-11T09:56:14Z</time>
      </trkpt>
      <trkpt lat="46.013348" lon="6.762639">
        <ele>1496.798</ele>
        <time>2018-07-11T09:56:20Z</time>
      </trkpt>
      <trkpt lat="46.013358" lon="6.762711">
        <ele>1494.517</ele>
        <time>2018-07-11T09:56:26Z</time>
      </trkpt>
      <trkpt lat="46.013373" lon="6.762781">
        <ele>1495.108</ele>
        <time>2018-07-11T09:56:33Z</time>
      </trkpt>
      <trkpt lat="46.013386" lon="6.762851">
        <ele>1495.963</ele>
        <time>2018-07-11T09:56:41Z</time>
      </trkpt>
      <trkpt lat="46.013424" lon="6.762902">
        <ele>1497.277</ele>
        <time>2018-07-11T09:56:49Z</time>
      </trkpt>
      <trkpt lat="46.013459" lon="6.762947">
        <ele>1496.095</ele>
        <time>2018-07-11T09:56:55Z</time>
      </trkpt>
      <trkpt lat="46.013494" lon="6.762989">
        <ele>1495.984</ele>
        <time>2018-07-11T09:57:00Z</time>
      </trkpt>
      <trkpt lat="46.013527" lon="6.763041">
        <ele>1497.425</ele>
        <time>2018-07-11T09:57:08Z</time>
      </trkpt>
      <trkpt lat="46.013562" lon="6.763085">
        <ele>1496.611</ele>
        <time>2018-07-11T09:57:14Z</time>
      </trkpt>
      <trkpt lat="46.013588" lon="6.763148">
        <ele>1496.581</ele>
        <time>2018-07-11T09:57:19Z</time>
      </trkpt>
      <trkpt lat="46.013604" lon="6.763212">
        <ele>1496.315</ele>
        <time>2018-07-11T09:57:24Z</time>
      </trkpt>
      <trkpt lat="46.013603" lon="6.763285">
        <ele>1496.393</ele>
        <time>2018-07-11T09:57:30Z</time>
      </trkpt>
      <trkpt lat="46.013616" lon="6.763349">
        <ele>1495.565</ele>
        <time>2018-07-11T09:57:35Z</time>
      </trkpt>
      <trkpt lat="46.013643" lon="6.763403">
        <ele>1494.621</ele>
        <time>2018-07-11T09:57:41Z</time>
      </trkpt>
      <trkpt lat="46.013656" lon="6.763471">
        <ele>1496.408</ele>
        <time>2018-07-11T09:57:48Z</time>
      </trkpt>
      <trkpt lat="46.013685" lon="6.763521">
        <ele>1496.161</ele>
        <time>2018-07-11T09:57:54Z</time>
      </trkpt>
      <trkpt lat="46.013721" lon="6.763568">
        <ele>1496.755</ele>
        <time>2018-07-11T09:58:00Z</time>
      </trkpt>
      <trkpt lat="46.013754" lon="6.763620">
        <ele>1498.223</ele>
        <time>2018-07-11T09:58:11Z</time>
      </trkpt>
      <trkpt lat="46.013780" lon="6.763680">
        <ele>1499.492</ele>
        <time>2018-07-11T09:58:18Z</time>
      </trkpt>
      <trkpt lat="46.013805" lon="6.763742">
        <ele>1499.533</ele>
        <time>2018-07-11T09:58:26Z</time>
      </trkpt>
      <trkpt lat="46.013817" lon="6.763810">
        <ele>1500.669</ele>
        <time>2018-07-11T09:58:34Z</time>
      </trkpt>
      <trkpt lat="46.013827" lon="6.763881">
        <ele>1501.029</ele>
        <time>2018-07-11T09:58:41Z</time>
      </trkpt>
      <trkpt lat="46.013832" lon="6.763946">
        <ele>1502.663</ele>
        <time>2018-07-11T09:58:48Z</time>
      </trkpt>
      <trkpt lat="46.013840" lon="6.764012">
        <ele>1503.675</ele>
        <time>2018-07-11T09:59:02Z</time>
      </trkpt>
      <trkpt lat="46.013862" lon="6.764075">
        <ele>1504.028</ele>
        <time>2018-07-11T09:59:11Z</time>
      </trkpt>
      <trkpt lat="46.013901" lon="6.764111">
        <ele>1504.920</ele>
        <time>2018-07-11T09:59:21Z</time>
      </trkpt>
      <trkpt lat="46.013913" lon="6.764174">
        <ele>1506.008</ele>
        <time>2018-07-11T09:59:29Z</time>
      </trkpt>
      <trkpt lat="46.013928" lon="6.764238">
        <ele>1506.429</ele>
        <time>2018-07-11T09:59:37Z</time>
      </trkpt>
      <trkpt lat="46.013909" lon="6.764302">
        <ele>1507.173</ele>
        <time>2018-07-11T09:59:44Z</time>
      </trkpt>
      <trkpt lat="46.013894" lon="6.764369">
        <ele>1508.391</ele>
        <time>2018-07-11T09:59:51Z</time>
      </trkpt>
      <trkpt lat="46.013926" lon="6.764424">
        <ele>1509.920</ele>
        <time>2018-07-11T10:00:01Z</time>
      </trkpt>
      <trkpt lat="46.013975" lon="6.764431">
        <ele>1508.111</ele>
        <time>2018-07-11T10:00:08Z</time>
      </trkpt>
      <trkpt lat="46.014018" lon="6.764456">
        <ele>1509.247</ele>
        <time>2018-07-11T10:00:16Z</time>
      </trkpt>
      <trkpt lat="46.014061" lon="6.764481">
        <ele>1510.797</ele>
        <time>2018-07-11T10:00:29Z</time>
      </trkpt>
      <trkpt lat="46.014106" lon="6.764476">
        <ele>1512.091</ele>
        <time>2018-07-11T10:00:39Z</time>
      </trkpt>
      <trkpt lat="46.014143" lon="6.764514">
        <ele>1513.376</ele>
        <time>2018-07-11T10:00:49Z</time>
      </trkpt>
      <trkpt lat="46.014180" lon="6.764559">
        <ele>1513.990</ele>
        <time>2018-07-11T10:00:57Z</time>
      </trkpt>
      <trkpt lat="46.014194" lon="6.764626">
        <ele>1514.519</ele>
        <time>2018-07-11T10:01:05Z</time>
      </trkpt>
      <trkpt lat="46.014195" lon="6.764694">
        <ele>1518.008</ele>
        <time>2018-07-11T10:01:17Z</time>
      </trkpt>
      <trkpt lat="46.014239" lon="6.764726">
        <ele>1516.889</ele>
        <time>2018-07-11T10:01:27Z</time>
      </trkpt>
      <trkpt lat="46.014264" lon="6.764785">
        <ele>1518.313</ele>
        <time>2018-07-11T10:01:38Z</time>
      </trkpt>
      <trkpt lat="46.014291" lon="6.764842">
        <ele>1520.691</ele>
        <time>2018-07-11T10:01:54Z</time>
      </trkpt>
      <trkpt lat="46.014331" lon="6.764875">
        <ele>1521.020</ele>
        <time>2018-07-11T10:02:04Z</time>
      </trkpt>
      <trkpt lat="46.014377" lon="6.764886">
        <ele>1522.051</ele>
        <time>2018-07-11T10:02:11Z</time>
      </trkpt>
      <trkpt lat="46.014413" lon="6.764932">
        <ele>1522.927</ele>
        <time>2018-07-11T10:02:19Z</time>
      </trkpt>
      <trkpt lat="46.014413" lon="6.764998">
        <ele>1523.367</ele>
        <time>2018-07-11T10:02:29Z</time>
      </trkpt>
      <trkpt lat="46.014398" lon="6.765065">
        <ele>1524.761</ele>
        <time>2018-07-11T10:02:42Z</time>
      </trkpt>
      <trkpt lat="46.014392" lon="6.765132">
        <ele>1526.794</ele>
        <time>2018-07-11T10:02:55Z</time>
      </trkpt>
      <trkpt lat="46.014364" lon="6.765183">
        <ele>1528.357</ele>
        <time>2018-07-11T10:03:08Z</time>
      </trkpt>
      <trkpt lat="46.014338" lon="6.765239">
        <ele>1529.922</ele>
        <time>2018-07-11T10:03:23Z</time>
      </trkpt>
      <trkpt lat="46.014300" lon="6.765279">
        <ele>1531.408</ele>
        <time>2018-07-11T10:03:39Z</time>
      </trkpt>
      <trkpt lat="46.014255" lon="6.765308">
        <ele>1535.941</ele>
        <time>2018-07-11T10:03:57Z</time>
      </trkpt>
      <trkpt lat="46.014209" lon="6.765331">
        <ele>1534.685</ele>
        <time>2018-07-11T10:04:10Z</time>
      </trkpt>
      <trkpt lat="46.014170" lon="6.765369">
        <ele>1536.273</ele>
        <time>2018-07-11T10:04:22Z</time>
      </trkpt>
      <trkpt lat="46.014130" lon="6.765409">
        <ele>1537.122</ele>
        <time>2018-07-11T10:04:39Z</time>
      </trkpt>
      <trkpt lat="46.014083" lon="6.765417">
        <ele>1537.483</ele>
        <time>2018-07-11T10:04:48Z</time>
      </trkpt>
      <trkpt lat="46.014045" lon="6.765379">
        <ele>1538.629</ele>
        <time>2018-07-11T10:05:01Z</time>
      </trkpt>
      <trkpt lat="46.013997" lon="6.765379">
        <ele>1541.489</ele>
        <time>2018-07-11T10:05:21Z</time>
      </trkpt>
      <trkpt lat="46.013948" lon="6.765378">
        <ele>1541.913</ele>
        <time>2018-07-11T10:05:32Z</time>
      </trkpt>
      <trkpt lat="46.013902" lon="6.765382">
        <ele>1542.515</ele>
        <time>2018-07-11T10:05:39Z</time>
      </trkpt>
      <trkpt lat="46.013851" lon="6.765372">
        <ele>1543.265</ele>
        <time>2018-07-11T10:05:47Z</time>
      </trkpt>
      <trkpt lat="46.013848" lon="6.765438">
        <ele>1546.211</ele>
        <time>2018-07-11T10:06:12Z</time>
      </trkpt>
      <trkpt lat="46.013887" lon="6.765480">
        <ele>1548.408</ele>
        <time>2018-07-11T10:06:22Z</time>
      </trkpt>
      <trkpt lat="46.013854" lon="6.765535">
        <ele>1549.383</ele>
        <time>2018-07-11T10:06:39Z</time>
      </trkpt>
      <trkpt lat="46.013804" lon="6.765537">
        <ele>1550.357</ele>
        <time>2018-07-11T10:06:50Z</time>
      </trkpt>
      <trkpt lat="46.013753" lon="6.765549">
        <ele>1551.715</ele>
        <time>2018-07-11T10:07:03Z</time>
      </trkpt>
      <trkpt lat="46.013703" lon="6.765540">
        <ele>1553.214</ele>
        <time>2018-07-11T10:07:14Z</time>
      </trkpt>
      <trkpt lat="46.013655" lon="6.765550">
        <ele>1554.025</ele>
        <time>2018-07-11T10:07:21Z</time>
      </trkpt>
      <trkpt lat="46.013653" lon="6.765615">
        <ele>1555.921</ele>
        <time>2018-07-11T10:07:42Z</time>
      </trkpt>
      <trkpt lat="46.013680" lon="6.765667">
        <ele>1557.411</ele>
        <time>2018-07-11T10:07:54Z</time>
      </trkpt>
      <trkpt lat="46.013709" lon="6.765725">
        <ele>1558.715</ele>
        <time>2018-07-11T10:08:04Z</time>
      </trkpt>
      <trkpt lat="46.013734" lon="6.765779">
        <ele>1559.688</ele>
        <time>2018-07-11T10:08:12Z</time>
      </trkpt>
      <trkpt lat="46.013752" lon="6.765839">
        <ele>1560.424</ele>
        <time>2018-07-11T10:08:20Z</time>
      </trkpt>
      <trkpt lat="46.013786" lon="6.765889">
        <ele>1561.726</ele>
        <time>2018-07-11T10:08:29Z</time>
      </trkpt>
      <trkpt lat="46.013814" lon="6.765945">
        <ele>1562.808</ele>
        <time>2018-07-11T10:08:37Z</time>
      </trkpt>
      <trkpt lat="46.013817" lon="6.766011">
        <ele>1562.480</ele>
        <time>2018-07-11T10:08:45Z</time>
      </trkpt>
      <trkpt lat="46.013866" lon="6.766016">
        <ele>1565.494</ele>
        <time>2018-07-11T10:08:57Z</time>
      </trkpt>
      <trkpt lat="46.013898" lon="6.766062">
        <ele>1564.562</ele>
        <time>2018-07-11T10:09:07Z</time>
      </trkpt>
      <trkpt lat="46.013936" lon="6.766100">
        <ele>1565.711</ele>
        <time>2018-07-11T10:09:20Z</time>
      </trkpt>
      <trkpt lat="46.013970" lon="6.766143">
        <ele>1566.812</ele>
        <time>2018-07-11T10:09:29Z</time>
      </trkpt>
      <trkpt lat="46.014004" lon="6.766188">
        <ele>1568.368</ele>
        <time>2018-07-11T10:09:41Z</time>
      </trkpt>
      <trkpt lat="46.014042" lon="6.766223">
        <ele>1569.468</ele>
        <time>2018-07-11T10:09:50Z</time>
      </trkpt>
      <trkpt lat="46.014087" lon="6.766251">
        <ele>1570.242</ele>
        <time>2018-07-11T10:09:59Z</time>
      </trkpt>
      <trkpt lat="46.014130" lon="6.766269">
        <ele>1570.871</ele>
        <time>2018-07-11T10:10:09Z</time>
      </trkpt>
      <trkpt lat="46.014173" lon="6.766300">
        <ele>1573.641</ele>
        <time>2018-07-11T10:10:24Z</time>
      </trkpt>
      <trkpt lat="46.014220" lon="6.766322">
        <ele>1574.215</ele>
        <time>2018-07-11T10:10:36Z</time>
      </trkpt>
      <trkpt lat="46.014263" lon="6.766358">
        <ele>1575.908</ele>
        <time>2018-07-11T10:10:48Z</time>
      </trkpt>
      <trkpt lat="46.014291" lon="6.766424">
        <ele>1570.579</ele>
        <time>2018-07-11T10:13:51Z</time>
      </trkpt>
      <trkpt lat="46.014337" lon="6.766424">
        <ele>1570.513</ele>
        <time>2018-07-11T10:14:02Z</time>
      </trkpt>
      <trkpt lat="46.014384" lon="6.766417">
        <ele>1569.051</ele>
        <time>2018-07-11T10:14:14Z</time>
      </trkpt>
      <trkpt lat="46.014433" lon="6.766409">
        <ele>1570.880</ele>
        <time>2018-07-11T10:14:22Z</time>
      </trkpt>
      <trkpt lat="46.014479" lon="6.766414">
        <ele>1570.521</ele>
        <time>2018-07-11T10:14:31Z</time>
      </trkpt>
      <trkpt lat="46.014527" lon="6.766409">
        <ele>1571.627</ele>
        <time>2018-07-11T10:14:41Z</time>
      </trkpt>
      <trkpt lat="46.014573" lon="6.766400">
        <ele>1572.577</ele>
        <time>2018-07-11T10:14:48Z</time>
      </trkpt>
      <trkpt lat="46.014619" lon="6.766383">
        <ele>1573.151</ele>
        <time>2018-07-11T10:14:56Z</time>
      </trkpt>
      <trkpt lat="46.014666" lon="6.766387">
        <ele>1574.235</ele>
        <time>2018-07-11T10:15:05Z</time>
      </trkpt>
      <trkpt lat="46.014657" lon="6.766453">
        <ele>1576.486</ele>
        <time>2018-07-11T10:15:24Z</time>
      </trkpt>
      <trkpt lat="46.014689" lon="6.766504">
        <ele>1578.214</ele>
        <time>2018-07-11T10:15:43Z</time>
      </trkpt>
      <trkpt lat="46.014682" lon="6.766568">
        <ele>1580.708</ele>
        <time>2018-07-11T10:16:06Z</time>
      </trkpt>
      <trkpt lat="46.014721" lon="6.766609">
        <ele>1583.535</ele>
        <time>2018-07-11T10:16:33Z</time>
      </trkpt>
      <trkpt lat="46.014733" lon="6.766675">
        <ele>1585.859</ele>
        <time>2018-07-11T10:16:51Z</time>
      </trkpt>
      <trkpt lat="46.014722" lon="6.766742">
        <ele>1587.097</ele>
        <time>2018-07-11T10:17:05Z</time>
      </trkpt>
      <trkpt lat="46.014740" lon="6.766805">
        <ele>1588.296</ele>
        <time>2018-07-11T10:17:21Z</time>
      </trkpt>
      <trkpt lat="46.014717" lon="6.766864">
        <ele>1589.367</ele>
        <time>2018-07-11T10:17:34Z</time>
      </trkpt>
      <trkpt lat="46.014697" lon="6.766922">
        <ele>1590.463</ele>
        <time>2018-07-11T10:17:48Z</time>
      </trkpt>
      <trkpt lat="46.014653" lon="6.766943">
        <ele>1592.083</ele>
        <time>2018-07-11T10:18:00Z</time>
      </trkpt>
      <trkpt lat="46.014668" lon="6.767006">
        <ele>1593.067</ele>
        <time>2018-07-11T10:18:11Z</time>
      </trkpt>
      <trkpt lat="46.014710" lon="6.767029">
        <ele>1593.764</ele>
        <time>2018-07-11T10:18:19Z</time>
      </trkpt>
      <trkpt lat="46.014735" lon="6.767086">
        <ele>1595.306</ele>
        <time>2018-07-11T10:18:29Z</time>
      </trkpt>
      <trkpt lat="46.014748" lon="6.767155">
        <ele>1595.516</ele>
        <time>2018-07-11T10:18:37Z</time>
      </trkpt>
      <trkpt lat="46.014778" lon="6.767210">
        <ele>1596.608</ele>
        <time>2018-07-11T10:18:48Z</time>
      </trkpt>
      <trkpt lat="46.014792" lon="6.767277">
        <ele>1598.418</ele>
        <time>2018-07-11T10:19:03Z</time>
      </trkpt>
      <trkpt lat="46.014819" lon="6.767339">
        <ele>1601.222</ele>
        <time>2018-07-11T10:19:10Z</time>
      </trkpt>
      <trkpt lat="46.014843" lon="6.767398">
        <ele>1602.210</ele>
        <time>2018-07-11T10:19:17Z</time>
      </trkpt>
      <trkpt lat="46.014878" lon="6.767442">
        <ele>1603.289</ele>
        <time>2018-07-11T10:19:26Z</time>
      </trkpt>
      <trkpt lat="46.014919" lon="6.767476">
        <ele>1602.180</ele>
        <time>2018-07-11T10:19:39Z</time>
      </trkpt>
      <trkpt lat="46.014954" lon="6.767517">
        <ele>1603.336</ele>
        <time>2018-07-11T10:19:49Z</time>
      </trkpt>
      <trkpt lat="46.014970" lon="6.767583">
        <ele>1606.356</ele>
        <time>2018-07-11T10:19:58Z</time>
      </trkpt>
      <trkpt lat="46.014983" lon="6.767650">
        <ele>1607.750</ele>
        <time>2018-07-11T10:20:12Z</time>
      </trkpt>
      <trkpt lat="46.014995" lon="6.767714">
        <ele>1608.941</ele>
        <time>2018-07-11T10:20:24Z</time>
      </trkpt>
      <trkpt lat="46.015021" lon="6.767774">
        <ele>1609.181</ele>
        <time>2018-07-11T10:20:34Z</time>
      </trkpt>
      <trkpt lat="46.015028" lon="6.767842">
        <ele>1608.009</ele>
        <time>2018-07-11T10:20:44Z</time>
      </trkpt>
      <trkpt lat="46.015044" lon="6.767903">
        <ele>1611.608</ele>
        <time>2018-07-11T10:20:58Z</time>
      </trkpt>
      <trkpt lat="46.015046" lon="6.767968">
        <ele>1611.626</ele>
        <time>2018-07-11T10:21:26Z</time>
      </trkpt>
      <trkpt lat="46.015004" lon="6.767994">
        <ele>1614.660</ele>
        <time>2018-07-11T10:21:40Z</time>
      </trkpt>
      <trkpt lat="46.014964" lon="6.768032">
        <ele>1614.088</ele>
        <time>2018-07-11T10:21:50Z</time>
      </trkpt>
      <trkpt lat="46.014921" lon="6.768051">
        <ele>1617.247</ele>
        <time>2018-07-11T10:22:00Z</time>
      </trkpt>
      <trkpt lat="46.014875" lon="6.768055">
        <ele>1616.178</ele>
        <time>2018-07-11T10:22:09Z</time>
      </trkpt>
      <trkpt lat="46.014840" lon="6.768102">
        <ele>1617.754</ele>
        <time>2018-07-11T10:22:25Z</time>
      </trkpt>
      <trkpt lat="46.014796" lon="6.768127">
        <ele>1619.044</ele>
        <time>2018-07-11T10:22:37Z</time>
      </trkpt>
      <trkpt lat="46.014786" lon="6.768193">
        <ele>1624.488</ele>
        <time>2018-07-11T10:23:08Z</time>
      </trkpt>
      <trkpt lat="46.014813" lon="6.768249">
        <ele>1624.829</ele>
        <time>2018-07-11T10:23:19Z</time>
      </trkpt>
      <trkpt lat="46.014825" lon="6.768312">
        <ele>1626.500</ele>
        <time>2018-07-11T10:23:30Z</time>
      </trkpt>
      <trkpt lat="46.014857" lon="6.768368">
        <ele>1627.820</ele>
        <time>2018-07-11T10:23:40Z</time>
      </trkpt>
      <trkpt lat="46.014891" lon="6.768416">
        <ele>1627.408</ele>
        <time>2018-07-11T10:23:51Z</time>
      </trkpt>
      <trkpt lat="46.014895" lon="6.768489">
        <ele>1628.074</ele>
        <time>2018-07-11T10:24:02Z</time>
      </trkpt>
      <trkpt lat="46.014912" lon="6.768554">
        <ele>1631.178</ele>
        <time>2018-07-11T10:24:11Z</time>
      </trkpt>
      <trkpt lat="46.014915" lon="6.768625">
        <ele>1631.966</ele>
        <time>2018-07-11T10:24:20Z</time>
      </trkpt>
      <trkpt lat="46.014925" lon="6.768690">
        <ele>1634.255</ele>
        <time>2018-07-11T10:24:33Z</time>
      </trkpt>
      <trkpt lat="46.014945" lon="6.768749">
        <ele>1635.086</ele>
        <time>2018-07-11T10:24:43Z</time>
      </trkpt>
      <trkpt lat="46.014952" lon="6.768819">
        <ele>1634.952</ele>
        <time>2018-07-11T10:24:56Z</time>
      </trkpt>
      <trkpt lat="46.014972" lon="6.768878">
        <ele>1635.712</ele>
        <time>2018-07-11T10:25:06Z</time>
      </trkpt>
      <trkpt lat="46.014999" lon="6.768937">
        <ele>1638.726</ele>
        <time>2018-07-11T10:25:22Z</time>
      </trkpt>
      <trkpt lat="46.015015" lon="6.768998">
        <ele>1639.391</ele>
        <time>2018-07-11T10:25:33Z</time>
      </trkpt>
      <trkpt lat="46.015032" lon="6.769061">
        <ele>1640.981</ele>
        <time>2018-07-11T10:25:46Z</time>
      </trkpt>
      <trkpt lat="46.015038" lon="6.769129">
        <ele>1642.419</ele>
        <time>2018-07-11T10:25:59Z</time>
      </trkpt>
      <trkpt lat="46.015068" lon="6.769187">
        <ele>1641.808</ele>
        <time>2018-07-11T10:26:09Z</time>
      </trkpt>
      <trkpt lat="46.015086" lon="6.769247">
        <ele>1645.021</ele>
        <time>2018-07-11T10:26:21Z</time>
      </trkpt>
      <trkpt lat="46.015091" lon="6.769312">
        <ele>1644.345</ele>
        <time>2018-07-11T10:26:31Z</time>
      </trkpt>
      <trkpt lat="46.015113" lon="6.769370">
        <ele>1646.083</ele>
        <time>2018-07-11T10:26:53Z</time>
      </trkpt>
      <trkpt lat="46.015121" lon="6.769436">
        <ele>1647.392</ele>
        <time>2018-07-11T10:27:08Z</time>
      </trkpt>
      <trkpt lat="46.015147" lon="6.769491">
        <ele>1648.533</ele>
        <time>2018-07-11T10:27:22Z</time>
      </trkpt>
      <trkpt lat="46.015154" lon="6.769562">
        <ele>1651.789</ele>
        <time>2018-07-11T10:27:33Z</time>
      </trkpt>
      <trkpt lat="46.015135" lon="6.769621">
        <ele>1653.129</ele>
        <time>2018-07-11T10:27:48Z</time>
      </trkpt>
      <trkpt lat="46.015150" lon="6.769683">
        <ele>1652.713</ele>
        <time>2018-07-11T10:28:00Z</time>
      </trkpt>
      <trkpt lat="46.015163" lon="6.769749">
        <ele>1655.659</ele>
        <time>2018-07-11T10:28:09Z</time>
      </trkpt>
      <trkpt lat="46.015198" lon="6.769797">
        <ele>1656.803</ele>
        <time>2018-07-11T10:28:18Z</time>
      </trkpt>
      <trkpt lat="46.015225" lon="6.769867">
        <ele>1658.223</ele>
        <time>2018-07-11T10:28:32Z</time>
      </trkpt>
      <trkpt lat="46.015254" lon="6.769919">
        <ele>1657.008</ele>
        <time>2018-07-11T10:28:42Z</time>
      </trkpt>
      <trkpt lat="46.015280" lon="6.769974">
        <ele>1660.547</ele>
        <time>2018-07-11T10:28:52Z</time>
      </trkpt>
      <trkpt lat="46.015273" lon="6.770045">
        <ele>1662.431</ele>
        <time>2018-07-11T10:29:08Z</time>
      </trkpt>
      <trkpt lat="46.015237" lon="6.770096">
        <ele>1661.689</ele>
        <time>2018-07-11T10:29:21Z</time>
      </trkpt>
      <trkpt lat="46.015246" lon="6.770161">
        <ele>1665.368</ele>
        <time>2018-07-11T10:29:35Z</time>
      </trkpt>
      <trkpt lat="46.015248" lon="6.770229">
        <ele>1666.889</ele>
        <time>2018-07-11T10:29:48Z</time>
      </trkpt>
      <trkpt lat="46.015285" lon="6.770279">
        <ele>1668.535</ele>
        <time>2018-07-11T10:30:03Z</time>
      </trkpt>
      <trkpt lat="46.015323" lon="6.770327">
        <ele>1667.335</ele>
        <time>2018-07-11T10:30:12Z</time>
      </trkpt>
      <trkpt lat="46.015335" lon="6.770390">
        <ele>1668.579</ele>
        <time>2018-07-11T10:30:21Z</time>
      </trkpt>
      <trkpt lat="46.015339" lon="6.770456">
        <ele>1673.158</ele>
        <time>2018-07-11T10:30:33Z</time>
      </trkpt>
      <trkpt lat="46.015307" lon="6.770503">
        <ele>1674.952</ele>
        <time>2018-07-11T10:30:49Z</time>
      </trkpt>
      <trkpt lat="46.015262" lon="6.770493">
        <ele>1675.517</ele>
        <time>2018-07-11T10:30:59Z</time>
      </trkpt>
      <trkpt lat="46.015263" lon="6.770559">
        <ele>1677.208</ele>
        <time>2018-07-11T10:31:17Z</time>
      </trkpt>
      <trkpt lat="46.015278" lon="6.770622">
        <ele>1678.827</ele>
        <time>2018-07-11T10:31:30Z</time>
      </trkpt>
      <trkpt lat="46.015296" lon="6.770682">
        <ele>1680.081</ele>
        <time>2018-07-11T10:31:40Z</time>
      </trkpt>
      <trkpt lat="46.015308" lon="6.770749">
        <ele>1680.749</ele>
        <time>2018-07-11T10:31:48Z</time>
      </trkpt>
      <trkpt lat="46.015335" lon="6.770809">
        <ele>1678.658</ele>
        <time>2018-07-11T10:31:56Z</time>
      </trkpt>
      <trkpt lat="46.015379" lon="6.770835">
        <ele>1678.969</ele>
        <time>2018-07-11T10:32:03Z</time>
      </trkpt>
      <trkpt lat="46.015421" lon="6.770791">
        <ele>1679.775</ele>
        <time>2018-07-11T10:32:11Z</time>
      </trkpt>
      <trkpt lat="46.015466" lon="6.770800">
        <ele>1677.675</ele>
        <time>2018-07-11T10:32:17Z</time>
      </trkpt>
      <trkpt lat="46.015506" lon="6.770845">
        <ele>1678.179</ele>
        <time>2018-07-11T10:32:24Z</time>
      </trkpt>
      <trkpt lat="46.015548" lon="6.770879">
        <ele>1679.423</ele>
        <time>2018-07-11T10:32:30Z</time>
      </trkpt>
      <trkpt lat="46.015581" lon="6.770931">
        <ele>1679.783</ele>
        <time>2018-07-11T10:32:36Z</time>
      </trkpt>
      <trkpt lat="46.015623" lon="6.770977">
        <ele>1680.211</ele>
        <time>2018-07-11T10:32:42Z</time>
      </trkpt>
      <trkpt lat="46.015657" lon="6.771026">
        <ele>1680.208</ele>
        <time>2018-07-11T10:32:48Z</time>
      </trkpt>
      <trkpt lat="46.015671" lon="6.771095">
        <ele>1682.754</ele>
        <time>2018-07-11T10:32:55Z</time>
      </trkpt>
      <trkpt lat="46.015699" lon="6.771153">
        <ele>1682.798</ele>
        <time>2018-07-11T10:33:07Z</time>
      </trkpt>
      <trkpt lat="46.015743" lon="6.771129">
        <ele>1683.816</ele>
        <time>2018-07-11T10:33:13Z</time>
      </trkpt>
      <trkpt lat="46.015793" lon="6.771130">
        <ele>1684.645</ele>
        <time>2018-07-11T10:33:19Z</time>
      </trkpt>
      <trkpt lat="46.015835" lon="6.771173">
        <ele>1684.876</ele>
        <time>2018-07-11T10:33:26Z</time>
      </trkpt>
      <trkpt lat="46.015863" lon="6.771225">
        <ele>1685.582</ele>
        <time>2018-07-11T10:33:34Z</time>
      </trkpt>
      <trkpt lat="46.015900" lon="6.771271">
        <ele>1684.882</ele>
        <time>2018-07-11T10:33:44Z</time>
      </trkpt>
      <trkpt lat="46.015946" lon="6.771282">
        <ele>1684.956</ele>
        <time>2018-07-11T10:33:51Z</time>
      </trkpt>
      <trkpt lat="46.015987" lon="6.771312">
        <ele>1687.366</ele>
        <time>2018-07-11T10:34:00Z</time>
      </trkpt>
      <trkpt lat="46.016027" lon="6.771352">
        <ele>1688.229</ele>
        <time>2018-07-11T10:34:09Z</time>
      </trkpt>
      <trkpt lat="46.016072" lon="6.771391">
        <ele>1688.321</ele>
        <time>2018-07-11T10:34:18Z</time>
      </trkpt>
      <trkpt lat="46.016116" lon="6.771426">
        <ele>1689.708</ele>
        <time>2018-07-11T10:34:27Z</time>
      </trkpt>
      <trkpt lat="46.016156" lon="6.771466">
        <ele>1690.298</ele>
        <time>2018-07-11T10:34:36Z</time>
      </trkpt>
      <trkpt lat="46.016184" lon="6.771529">
        <ele>1689.212</ele>
        <time>2018-07-11T10:34:44Z</time>
      </trkpt>
      <trkpt lat="46.016204" lon="6.771594">
        <ele>1692.480</ele>
        <time>2018-07-11T10:34:52Z</time>
      </trkpt>
      <trkpt lat="46.016232" lon="6.771655">
        <ele>1693.669</ele>
        <time>2018-07-11T10:35:02Z</time>
      </trkpt>
      <trkpt lat="46.016239" lon="6.771721">
        <ele>1693.230</ele>
        <time>2018-07-11T10:35:12Z</time>
      </trkpt>
      <trkpt lat="46.016255" lon="6.771787">
        <ele>1693.866</ele>
        <time>2018-07-11T10:35:26Z</time>
      </trkpt>
      <trkpt lat="46.016277" lon="6.771843">
        <ele>1695.926</ele>
        <time>2018-07-11T10:35:38Z</time>
      </trkpt>
      <trkpt lat="46.016299" lon="6.771901">
        <ele>1696.160</ele>
        <time>2018-07-11T10:35:47Z</time>
      </trkpt>
      <trkpt lat="46.016313" lon="6.771966">
        <ele>1697.025</ele>
        <time>2018-07-11T10:35:56Z</time>
      </trkpt>
      <trkpt lat="46.016331" lon="6.772029">
        <ele>1698.026</ele>
        <time>2018-07-11T10:36:08Z</time>
      </trkpt>
      <trkpt lat="46.016329" lon="6.772095">
        <ele>1700.808</ele>
        <time>2018-07-11T10:36:18Z</time>
      </trkpt>
      <trkpt lat="46.016331" lon="6.772161">
        <ele>1702.808</ele>
        <time>2018-07-11T10:36:32Z</time>
      </trkpt>
      <trkpt lat="46.016323" lon="6.772226">
        <ele>1702.584</ele>
        <time>2018-07-11T10:36:41Z</time>
      </trkpt>
      <trkpt lat="46.016298" lon="6.772283">
        <ele>1704.428</ele>
        <time>2018-07-11T10:36:51Z</time>
      </trkpt>
      <trkpt lat="46.016306" lon="6.772353">
        <ele>1707.246</ele>
        <time>2018-07-11T10:37:03Z</time>
      </trkpt>
      <trkpt lat="46.016332" lon="6.772410">
        <ele>1707.455</ele>
        <time>2018-07-11T10:37:12Z</time>
      </trkpt>
      <trkpt lat="46.016348" lon="6.772473">
        <ele>1708.896</ele>
        <time>2018-07-11T10:37:23Z</time>
      </trkpt>
      <trkpt lat="46.016327" lon="6.772532">
        <ele>1710.132</ele>
        <time>2018-07-11T10:37:35Z</time>
      </trkpt>
      <trkpt lat="46.016302" lon="6.772589">
        <ele>1711.392</ele>
        <time>2018-07-11T10:37:47Z</time>
      </trkpt>
      <trkpt lat="46.016276" lon="6.772647">
        <ele>1711.356</ele>
        <time>2018-07-11T10:38:18Z</time>
      </trkpt>
      <trkpt lat="46.016230" lon="6.772670">
        <ele>1713.438</ele>
        <time>2018-07-11T10:38:32Z</time>
      </trkpt>
      <trkpt lat="46.016215" lon="6.772733">
        <ele>1717.070</ele>
        <time>2018-07-11T10:38:52Z</time>
      </trkpt>
      <trkpt lat="46.016197" lon="6.772795">
        <ele>1717.817</ele>
        <time>2018-07-11T10:39:01Z</time>
      </trkpt>
      <trkpt lat="46.016169" lon="6.772856">
        <ele>1717.108</ele>
        <time>2018-07-11T10:39:12Z</time>
      </trkpt>
      <trkpt lat="46.016173" lon="6.772927">
        <ele>1719.885</ele>
        <time>2018-07-11T10:39:23Z</time>
      </trkpt>
      <trkpt lat="46.016212" lon="6.772965">
        <ele>1720.119</ele>
        <time>2018-07-11T10:39:35Z</time>
      </trkpt>
      <trkpt lat="46.016256" lon="6.772991">
        <ele>1720.567</ele>
        <time>2018-07-11T10:39:45Z</time>
      </trkpt>
      <trkpt lat="46.016287" lon="6.773039">
        <ele>1721.316</ele>
        <time>2018-07-11T10:39:54Z</time>
      </trkpt>
      <trkpt lat="46.016302" lon="6.773107">
        <ele>1721.597</ele>
        <time>2018-07-11T10:40:04Z</time>
      </trkpt>
      <trkpt lat="46.016304" lon="6.773181">
        <ele>1723.343</ele>
        <time>2018-07-11T10:40:14Z</time>
      </trkpt>
      <trkpt lat="46.016299" lon="6.773245">
        <ele>1724.253</ele>
        <time>2018-07-11T10:40:24Z</time>
      </trkpt>
      <trkpt lat="46.016319" lon="6.773308">
        <ele>1724.737</ele>
        <time>2018-07-11T10:40:34Z</time>
      </trkpt>
      <trkpt lat="46.016341" lon="6.773365">
        <ele>1723.873</ele>
        <time>2018-07-11T10:40:43Z</time>
      </trkpt>
      <trkpt lat="46.016351" lon="6.773446">
        <ele>1740.485</ele>
        <time>2018-07-11T10:49:51Z</time>
      </trkpt>
      <trkpt lat="46.016373" lon="6.773510">
        <ele>1740.413</ele>
        <time>2018-07-11T10:50:00Z</time>
      </trkpt>
      <trkpt lat="46.016387" lon="6.773575">
        <ele>1740.408</ele>
        <time>2018-07-11T10:50:06Z</time>
      </trkpt>
      <trkpt lat="46.016385" lon="6.773641">
        <ele>1739.999</ele>
        <time>2018-07-11T10:50:23Z</time>
      </trkpt>
      <trkpt lat="46.016378" lon="6.773706">
        <ele>1740.663</ele>
        <time>2018-07-11T10:50:32Z</time>
      </trkpt>
      <trkpt lat="46.016358" lon="6.773768">
        <ele>1740.721</ele>
        <time>2018-07-11T10:50:39Z</time>
      </trkpt>
      <trkpt lat="46.016382" lon="6.773832">
        <ele>1742.580</ele>
        <time>2018-07-11T10:50:48Z</time>
      </trkpt>
      <trkpt lat="46.016435" lon="6.773869">
        <ele>1742.551</ele>
        <time>2018-07-11T10:51:00Z</time>
      </trkpt>
      <trkpt lat="46.016455" lon="6.773931">
        <ele>1746.417</ele>
        <time>2018-07-11T10:51:17Z</time>
      </trkpt>
      <trkpt lat="46.016467" lon="6.773998">
        <ele>1747.327</ele>
        <time>2018-07-11T10:51:26Z</time>
      </trkpt>
      <trkpt lat="46.016498" lon="6.774047">
        <ele>1745.711</ele>
        <time>2018-07-11T10:51:36Z</time>
      </trkpt>
      <trkpt lat="46.016520" lon="6.774108">
        <ele>1747.345</ele>
        <time>2018-07-11T10:51:48Z</time>
      </trkpt>
      <trkpt lat="46.016528" lon="6.774174">
        <ele>1749.547</ele>
        <time>2018-07-11T10:52:03Z</time>
      </trkpt>
      <trkpt lat="46.016545" lon="6.774242">
        <ele>1749.511</ele>
        <time>2018-07-11T10:52:13Z</time>
      </trkpt>
      <trkpt lat="46.016561" lon="6.774306">
        <ele>1749.908</ele>
        <time>2018-07-11T10:52:24Z</time>
      </trkpt>
      <trkpt lat="46.016577" lon="6.774367">
        <ele>1751.646</ele>
        <time>2018-07-11T10:53:10Z</time>
      </trkpt>
      <trkpt lat="46.016564" lon="6.774432">
        <ele>1754.520</ele>
        <time>2018-07-11T10:53:38Z</time>
      </trkpt>
      <trkpt lat="46.016550" lon="6.774499">
        <ele>1755.378</ele>
        <time>2018-07-11T10:53:57Z</time>
      </trkpt>
      <trkpt lat="46.016540" lon="6.774570">
        <ele>1755.787</ele>
        <time>2018-07-11T10:54:05Z</time>
      </trkpt>
      <trkpt lat="46.016548" lon="6.774638">
        <ele>1756.528</ele>
        <time>2018-07-11T10:54:13Z</time>
      </trkpt>
      <trkpt lat="46.016546" lon="6.774704">
        <ele>1756.954</ele>
        <time>2018-07-11T10:54:20Z</time>
      </trkpt>
      <trkpt lat="46.016573" lon="6.774763">
        <ele>1756.534</ele>
        <time>2018-07-11T10:54:27Z</time>
      </trkpt>
      <trkpt lat="46.016611" lon="6.774798">
        <ele>1757.978</ele>
        <time>2018-07-11T10:54:36Z</time>
      </trkpt>
      <trkpt lat="46.016634" lon="6.774860">
        <ele>1759.168</ele>
        <time>2018-07-11T10:54:53Z</time>
      </trkpt>
      <trkpt lat="46.016647" lon="6.774928">
        <ele>1758.042</ele>
        <time>2018-07-11T10:55:03Z</time>
      </trkpt>
      <trkpt lat="46.016662" lon="6.774991">
        <ele>1760.326</ele>
        <time>2018-07-11T10:55:10Z</time>
      </trkpt>
      <trkpt lat="46.016673" lon="6.775062">
        <ele>1760.208</ele>
        <time>2018-07-11T10:55:17Z</time>
      </trkpt>
      <trkpt lat="46.016677" lon="6.775128">
        <ele>1760.598</ele>
        <time>2018-07-11T10:55:24Z</time>
      </trkpt>
      <trkpt lat="46.016704" lon="6.775181">
        <ele>1760.632</ele>
        <time>2018-07-11T10:55:32Z</time>
      </trkpt>
      <trkpt lat="46.016729" lon="6.775239">
        <ele>1761.230</ele>
        <time>2018-07-11T10:55:42Z</time>
      </trkpt>
      <trkpt lat="46.016716" lon="6.775311">
        <ele>1762.789</ele>
        <time>2018-07-11T10:55:58Z</time>
      </trkpt>
      <trkpt lat="46.016721" lon="6.775383">
        <ele>1764.330</ele>
        <time>2018-07-11T10:56:13Z</time>
      </trkpt>
      <trkpt lat="46.016738" lon="6.775446">
        <ele>1766.386</ele>
        <time>2018-07-11T10:56:26Z</time>
      </trkpt>
      <trkpt lat="46.016756" lon="6.775507">
        <ele>1767.776</ele>
        <time>2018-07-11T10:56:38Z</time>
      </trkpt>
      <trkpt lat="46.016771" lon="6.775572">
        <ele>1768.180</ele>
        <time>2018-07-11T10:56:45Z</time>
      </trkpt>
      <trkpt lat="46.016778" lon="6.775640">
        <ele>1768.162</ele>
        <time>2018-07-11T10:56:52Z</time>
      </trkpt>
      <trkpt lat="46.016802" lon="6.775697">
        <ele>1768.983</ele>
        <time>2018-07-11T10:57:00Z</time>
      </trkpt>
      <trkpt lat="46.016829" lon="6.775758">
        <ele>1769.411</ele>
        <time>2018-07-11T10:57:08Z</time>
      </trkpt>
      <trkpt lat="46.016852" lon="6.775819">
        <ele>1769.508</ele>
        <time>2018-07-11T10:57:14Z</time>
      </trkpt>
      <trkpt lat="46.016873" lon="6.775884">
        <ele>1769.778</ele>
        <time>2018-07-11T10:57:20Z</time>
      </trkpt>
      <trkpt lat="46.016887" lon="6.775948">
        <ele>1770.432</ele>
        <time>2018-07-11T10:57:27Z</time>
      </trkpt>
      <trkpt lat="46.016905" lon="6.776009">
        <ele>1770.720</ele>
        <time>2018-07-11T10:57:34Z</time>
      </trkpt>
      <trkpt lat="46.016930" lon="6.776069">
        <ele>1771.669</ele>
        <time>2018-07-11T10:57:42Z</time>
      </trkpt>
      <trkpt lat="46.016933" lon="6.776137">
        <ele>1772.630</ele>
        <time>2018-07-11T10:57:49Z</time>
      </trkpt>
      <trkpt lat="46.016922" lon="6.776204">
        <ele>1773.356</ele>
        <time>2018-07-11T10:57:56Z</time>
      </trkpt>
      <trkpt lat="46.016917" lon="6.776272">
        <ele>1773.886</ele>
        <time>2018-07-11T10:58:03Z</time>
      </trkpt>
      <trkpt lat="46.016902" lon="6.776341">
        <ele>1773.750</ele>
        <time>2018-07-11T10:58:10Z</time>
      </trkpt>
      <trkpt lat="46.016887" lon="6.776407">
        <ele>1772.562</ele>
        <time>2018-07-11T10:58:17Z</time>
      </trkpt>
      <trkpt lat="46.016865" lon="6.776468">
        <ele>1773.983</ele>
        <time>2018-07-11T10:58:24Z</time>
      </trkpt>
      <trkpt lat="46.016852" lon="6.776538">
        <ele>1773.811</ele>
        <time>2018-07-11T10:58:30Z</time>
      </trkpt>
      <trkpt lat="46.016845" lon="6.776610">
        <ele>1774.408</ele>
        <time>2018-07-11T10:58:37Z</time>
      </trkpt>
      <trkpt lat="46.016839" lon="6.776678">
        <ele>1774.748</ele>
        <time>2018-07-11T10:58:44Z</time>
      </trkpt>
      <trkpt lat="46.016818" lon="6.776741">
        <ele>1774.422</ele>
        <time>2018-07-11T10:58:50Z</time>
      </trkpt>
      <trkpt lat="46.016814" lon="6.776817">
        <ele>1774.040</ele>
        <time>2018-07-11T10:58:56Z</time>
      </trkpt>
      <trkpt lat="46.016806" lon="6.776885">
        <ele>1774.379</ele>
        <time>2018-07-11T10:59:02Z</time>
      </trkpt>
      <trkpt lat="46.016785" lon="6.776953">
        <ele>1774.740</ele>
        <time>2018-07-11T10:59:09Z</time>
      </trkpt>
      <trkpt lat="46.016777" lon="6.777019">
        <ele>1775.236</ele>
        <time>2018-07-11T10:59:16Z</time>
      </trkpt>
      <trkpt lat="46.016776" lon="6.777090">
        <ele>1774.976</ele>
        <time>2018-07-11T10:59:22Z</time>
      </trkpt>
      <trkpt lat="46.016770" lon="6.777155">
        <ele>1775.150</ele>
        <time>2018-07-11T10:59:28Z</time>
      </trkpt>
      <trkpt lat="46.016768" lon="6.777228">
        <ele>1775.394</ele>
        <time>2018-07-11T10:59:34Z</time>
      </trkpt>
      <trkpt lat="46.016769" lon="6.777297">
        <ele>1775.757</ele>
        <time>2018-07-11T10:59:40Z</time>
      </trkpt>
      <trkpt lat="46.016763" lon="6.777366">
        <ele>1776.922</ele>
        <time>2018-07-11T10:59:48Z</time>
      </trkpt>
      <trkpt lat="46.016745" lon="6.777427">
        <ele>1777.908</ele>
        <time>2018-07-11T10:59:57Z</time>
      </trkpt>
      <trkpt lat="46.016741" lon="6.777496">
        <ele>1779.831</ele>
        <time>2018-07-11T11:00:08Z</time>
      </trkpt>
      <trkpt lat="46.016723" lon="6.777557">
        <ele>1781.695</ele>
        <time>2018-07-11T11:00:20Z</time>
      </trkpt>
      <trkpt lat="46.016709" lon="6.777626">
        <ele>1782.843</ele>
        <time>2018-07-11T11:00:33Z</time>
      </trkpt>
      <trkpt lat="46.016681" lon="6.777678">
        <ele>1784.512</ele>
        <time>2018-07-11T11:00:46Z</time>
      </trkpt>
      <trkpt lat="46.016652" lon="6.777734">
        <ele>1786.883</ele>
        <time>2018-07-11T11:01:07Z</time>
      </trkpt>
      <trkpt lat="46.016630" lon="6.777797">
        <ele>1789.379</ele>
        <time>2018-07-11T11:01:29Z</time>
      </trkpt>
      <trkpt lat="46.016603" lon="6.777856">
        <ele>1791.379</ele>
        <time>2018-07-11T11:01:47Z</time>
      </trkpt>
      <trkpt lat="46.016571" lon="6.777905">
        <ele>1792.773</ele>
        <time>2018-07-11T11:02:04Z</time>
      </trkpt>
      <trkpt lat="46.016540" lon="6.777959">
        <ele>1793.064</ele>
        <time>2018-07-11T11:02:22Z</time>
      </trkpt>
      <trkpt lat="46.016505" lon="6.778008">
        <ele>1795.506</ele>
        <time>2018-07-11T11:02:36Z</time>
      </trkpt>
      <trkpt lat="46.016477" lon="6.778065">
        <ele>1796.116</ele>
        <time>2018-07-11T11:02:48Z</time>
      </trkpt>
      <trkpt lat="46.016472" lon="6.778134">
        <ele>1797.508</ele>
        <time>2018-07-11T11:03:03Z</time>
      </trkpt>
      <trkpt lat="46.016468" lon="6.778200">
        <ele>1798.488</ele>
        <time>2018-07-11T11:03:14Z</time>
      </trkpt>
      <trkpt lat="46.016466" lon="6.778270">
        <ele>1799.022</ele>
        <time>2018-07-11T11:03:23Z</time>
      </trkpt>
      <trkpt lat="46.016480" lon="6.778335">
        <ele>1799.560</ele>
        <time>2018-07-11T11:03:40Z</time>
      </trkpt>
      <trkpt lat="46.016517" lon="6.778377">
        <ele>1799.369</ele>
        <time>2018-07-11T11:03:45Z</time>
      </trkpt>
      <trkpt lat="46.016568" lon="6.778393">
        <ele>1799.590</ele>
        <time>2018-07-11T11:03:51Z</time>
      </trkpt>
      <trkpt lat="46.016615" lon="6.778407">
        <ele>1799.696</ele>
        <time>2018-07-11T11:03:56Z</time>
      </trkpt>
      <trkpt lat="46.016659" lon="6.778436">
        <ele>1799.976</ele>
        <time>2018-07-11T11:04:01Z</time>
      </trkpt>
      <trkpt lat="46.016691" lon="6.778485">
        <ele>1799.620</ele>
        <time>2018-07-11T11:04:06Z</time>
      </trkpt>
      <trkpt lat="46.016713" lon="6.778548">
        <ele>1798.816</ele>
        <time>2018-07-11T11:04:11Z</time>
      </trkpt>
      <trkpt lat="46.016705" lon="6.778613">
        <ele>1799.276</ele>
        <time>2018-07-11T11:04:17Z</time>
      </trkpt>
      <trkpt lat="46.016721" lon="6.778676">
        <ele>1795.213</ele>
        <time>2018-07-11T11:05:00Z</time>
      </trkpt>
      <trkpt lat="46.016751" lon="6.778727">
        <ele>1794.808</ele>
        <time>2018-07-11T11:05:06Z</time>
      </trkpt>
      <trkpt lat="46.016785" lon="6.778782">
        <ele>1795.493</ele>
        <time>2018-07-11T11:05:11Z</time>
      </trkpt>
      <trkpt lat="46.016795" lon="6.778852">
        <ele>1795.597</ele>
        <time>2018-07-11T11:05:18Z</time>
      </trkpt>
      <trkpt lat="46.016803" lon="6.778923">
        <ele>1797.015</ele>
        <time>2018-07-11T11:05:24Z</time>
      </trkpt>
      <trkpt lat="46.016828" lon="6.778990">
        <ele>1796.914</ele>
        <time>2018-07-11T11:05:31Z</time>
      </trkpt>
      <trkpt lat="46.016843" lon="6.779059">
        <ele>1797.175</ele>
        <time>2018-07-11T11:05:36Z</time>
      </trkpt>
      <trkpt lat="46.016852" lon="6.779140">
        <ele>1801.171</ele>
        <time>2018-07-11T11:05:56Z</time>
      </trkpt>
      <trkpt lat="46.016883" lon="6.779191">
        <ele>1801.971</ele>
        <time>2018-07-11T11:06:11Z</time>
      </trkpt>
      <trkpt lat="46.016902" lon="6.779259">
        <ele>1804.825</ele>
        <time>2018-07-11T11:06:25Z</time>
      </trkpt>
      <trkpt lat="46.016931" lon="6.779317">
        <ele>1809.231</ele>
        <time>2018-07-11T11:06:41Z</time>
      </trkpt>
      <trkpt lat="46.016950" lon="6.779382">
        <ele>1810.061</ele>
        <time>2018-07-11T11:06:51Z</time>
      </trkpt>
      <trkpt lat="46.016994" lon="6.779402">
        <ele>1812.807</ele>
        <time>2018-07-11T11:07:18Z</time>
      </trkpt>
      <trkpt lat="46.017030" lon="6.779449">
        <ele>1813.508</ele>
        <time>2018-07-11T11:07:24Z</time>
      </trkpt>
      <trkpt lat="46.017077" lon="6.779493">
        <ele>1815.055</ele>
        <time>2018-07-11T11:07:38Z</time>
      </trkpt>
      <trkpt lat="46.017117" lon="6.779525">
        <ele>1816.399</ele>
        <time>2018-07-11T11:07:46Z</time>
      </trkpt>
      <trkpt lat="46.017166" lon="6.779536">
        <ele>1816.757</ele>
        <time>2018-07-11T11:07:52Z</time>
      </trkpt>
      <trkpt lat="46.017151" lon="6.779603">
        <ele>1818.786</ele>
        <time>2018-07-11T11:08:08Z</time>
      </trkpt>
      <trkpt lat="46.017145" lon="6.779538">
        <ele>1815.157</ele>
        <time>2018-07-11T11:10:18Z</time>
      </trkpt>
      <trkpt lat="46.017105" lon="6.779501">
        <ele>1813.593</ele>
        <time>2018-07-11T11:10:28Z</time>
      </trkpt>
      <trkpt lat="46.017070" lon="6.779451">
        <ele>1812.683</ele>
        <time>2018-07-11T11:10:37Z</time>
      </trkpt>
      <trkpt lat="46.017033" lon="6.779405">
        <ele>1811.927</ele>
        <time>2018-07-11T11:10:46Z</time>
      </trkpt>
      <trkpt lat="46.016997" lon="6.779357">
        <ele>1809.747</ele>
        <time>2018-07-11T11:11:05Z</time>
      </trkpt>
      <trkpt lat="46.016949" lon="6.779328">
        <ele>1808.129</ele>
        <time>2018-07-11T11:11:30Z</time>
      </trkpt>
      <trkpt lat="46.016931" lon="6.779263">
        <ele>1804.221</ele>
        <time>2018-07-11T11:12:02Z</time>
      </trkpt>
      <trkpt lat="46.016938" lon="6.779189">
        <ele>1802.708</ele>
        <time>2018-07-11T11:12:09Z</time>
      </trkpt>
      <trkpt lat="46.016917" lon="6.779131">
        <ele>1797.356</ele>
        <time>2018-07-11T11:12:24Z</time>
      </trkpt>
      <trkpt lat="46.016880" lon="6.779087">
        <ele>1798.240</ele>
        <time>2018-07-11T11:12:32Z</time>
      </trkpt>
      <trkpt lat="46.016865" lon="6.779015">
        <ele>1798.018</ele>
        <time>2018-07-11T11:12:37Z</time>
      </trkpt>
      <trkpt lat="46.016845" lon="6.778947">
        <ele>1797.447</ele>
        <time>2018-07-11T11:12:42Z</time>
      </trkpt>
      <trkpt lat="46.016814" lon="6.778895">
        <ele>1794.768</ele>
        <time>2018-07-11T11:12:47Z</time>
      </trkpt>
      <trkpt lat="46.016798" lon="6.778825">
        <ele>1793.614</ele>
        <time>2018-07-11T11:12:52Z</time>
      </trkpt>
      <trkpt lat="46.016773" lon="6.778750">
        <ele>1795.214</ele>
        <time>2018-07-11T11:12:57Z</time>
      </trkpt>
      <trkpt lat="46.016734" lon="6.778678">
        <ele>1796.738</ele>
        <time>2018-07-11T11:13:07Z</time>
      </trkpt>
      <trkpt lat="46.016702" lon="6.778632">
        <ele>1797.847</ele>
        <time>2018-07-11T11:13:23Z</time>
      </trkpt>
      <trkpt lat="46.016659" lon="6.778590">
        <ele>1797.529</ele>
        <time>2018-07-11T11:13:30Z</time>
      </trkpt>
      <trkpt lat="46.016618" lon="6.778545">
        <ele>1796.021</ele>
        <time>2018-07-11T11:13:37Z</time>
      </trkpt>
      <trkpt lat="46.016582" lon="6.778490">
        <ele>1797.908</ele>
        <time>2018-07-11T11:13:43Z</time>
      </trkpt>
      <trkpt lat="46.016567" lon="6.778428">
        <ele>1797.636</ele>
        <time>2018-07-11T11:13:47Z</time>
      </trkpt>
      <trkpt lat="46.016527" lon="6.778376">
        <ele>1797.870</ele>
        <time>2018-07-11T11:13:53Z</time>
      </trkpt>
      <trkpt lat="46.016481" lon="6.778350">
        <ele>1797.898</ele>
        <time>2018-07-11T11:13:58Z</time>
      </trkpt>
      <trkpt lat="46.016426" lon="6.778347">
        <ele>1797.857</ele>
        <time>2018-07-11T11:14:03Z</time>
      </trkpt>
      <trkpt lat="46.016382" lon="6.778383">
        <ele>1797.068</ele>
        <time>2018-07-11T11:14:09Z</time>
      </trkpt>
      <trkpt lat="46.016341" lon="6.778421">
        <ele>1797.994</ele>
        <time>2018-07-11T11:14:15Z</time>
      </trkpt>
      <trkpt lat="46.016289" lon="6.778443">
        <ele>1797.964</ele>
        <time>2018-07-11T11:14:23Z</time>
      </trkpt>
      <trkpt lat="46.016242" lon="6.778467">
        <ele>1796.618</ele>
        <time>2018-07-11T11:14:28Z</time>
      </trkpt>
      <trkpt lat="46.016198" lon="6.778494">
        <ele>1797.287</ele>
        <time>2018-07-11T11:14:32Z</time>
      </trkpt>
      <trkpt lat="46.016148" lon="6.778518">
        <ele>1796.942</ele>
        <time>2018-07-11T11:14:37Z</time>
      </trkpt>
      <trkpt lat="46.016096" lon="6.778526">
        <ele>1797.226</ele>
        <time>2018-07-11T11:14:42Z</time>
      </trkpt>
      <trkpt lat="46.016051" lon="6.778545">
        <ele>1797.408</ele>
        <time>2018-07-11T11:14:46Z</time>
      </trkpt>
      <trkpt lat="46.016005" lon="6.778545">
        <ele>1797.740</ele>
        <time>2018-07-11T11:14:51Z</time>
      </trkpt>
      <trkpt lat="46.015968" lon="6.778505">
        <ele>1801.374</ele>
        <time>2018-07-11T11:16:12Z</time>
      </trkpt>
      <trkpt lat="46.015920" lon="6.778506">
        <ele>1799.932</ele>
        <time>2018-07-11T11:16:18Z</time>
      </trkpt>
      <trkpt lat="46.015869" lon="6.778481">
        <ele>1799.821</ele>
        <time>2018-07-11T11:16:27Z</time>
      </trkpt>
      <trkpt lat="46.015819" lon="6.778474">
        <ele>1800.532</ele>
        <time>2018-07-11T11:16:34Z</time>
      </trkpt>
      <trkpt lat="46.015765" lon="6.778471">
        <ele>1799.798</ele>
        <time>2018-07-11T11:16:39Z</time>
      </trkpt>
      <trkpt lat="46.015710" lon="6.778461">
        <ele>1799.898</ele>
        <time>2018-07-11T11:16:44Z</time>
      </trkpt>
      <trkpt lat="46.015657" lon="6.778463">
        <ele>1799.282</ele>
        <time>2018-07-11T11:16:50Z</time>
      </trkpt>
      <trkpt lat="46.015605" lon="6.778468">
        <ele>1800.335</ele>
        <time>2018-07-11T11:16:55Z</time>
      </trkpt>
      <trkpt lat="46.015557" lon="6.778475">
        <ele>1800.086</ele>
        <time>2018-07-11T11:17:00Z</time>
      </trkpt>
      <trkpt lat="46.015512" lon="6.778471">
        <ele>1800.114</ele>
        <time>2018-07-11T11:17:05Z</time>
      </trkpt>
      <trkpt lat="46.015464" lon="6.778462">
        <ele>1800.308</ele>
        <time>2018-07-11T11:17:11Z</time>
      </trkpt>
      <trkpt lat="46.015418" lon="6.778453">
        <ele>1800.525</ele>
        <time>2018-07-11T11:17:16Z</time>
      </trkpt>
      <trkpt lat="46.015368" lon="6.778458">
        <ele>1801.499</ele>
        <time>2018-07-11T11:17:22Z</time>
      </trkpt>
      <trkpt lat="46.015321" lon="6.778477">
        <ele>1800.587</ele>
        <time>2018-07-11T11:17:28Z</time>
      </trkpt>
      <trkpt lat="46.015278" lon="6.778516">
        <ele>1800.766</ele>
        <time>2018-07-11T11:17:34Z</time>
      </trkpt>
      <trkpt lat="46.015257" lon="6.778581">
        <ele>1801.567</ele>
        <time>2018-07-11T11:17:41Z</time>
      </trkpt>
      <trkpt lat="46.015223" lon="6.778633">
        <ele>1801.863</ele>
        <time>2018-07-11T11:17:48Z</time>
      </trkpt>
      <trkpt lat="46.015182" lon="6.778664">
        <ele>1801.273</ele>
        <time>2018-07-11T11:17:55Z</time>
      </trkpt>
      <trkpt lat="46.015130" lon="6.778666">
        <ele>1800.947</ele>
        <time>2018-07-11T11:18:00Z</time>
      </trkpt>
      <trkpt lat="46.015079" lon="6.778671">
        <ele>1800.924</ele>
        <time>2018-07-11T11:18:05Z</time>
      </trkpt>
      <trkpt lat="46.015032" lon="6.778695">
        <ele>1800.304</ele>
        <time>2018-07-11T11:18:10Z</time>
      </trkpt>
      <trkpt lat="46.014985" lon="6.778726">
        <ele>1799.814</ele>
        <time>2018-07-11T11:18:15Z</time>
      </trkpt>
      <trkpt lat="46.014935" lon="6.778763">
        <ele>1799.908</ele>
        <time>2018-07-11T11:18:20Z</time>
      </trkpt>
      <trkpt lat="46.014888" lon="6.778798">
        <ele>1799.864</ele>
        <time>2018-07-11T11:18:25Z</time>
      </trkpt>
      <trkpt lat="46.014844" lon="6.778835">
        <ele>1801.158</ele>
        <time>2018-07-11T11:18:34Z</time>
      </trkpt>
      <trkpt lat="46.014800" lon="6.778871">
        <ele>1801.986</ele>
        <time>2018-07-11T11:18:42Z</time>
      </trkpt>
      <trkpt lat="46.014763" lon="6.778910">
        <ele>1801.775</ele>
        <time>2018-07-11T11:18:48Z</time>
      </trkpt>
      <trkpt lat="46.014736" lon="6.778963">
        <ele>1804.746</ele>
        <time>2018-07-11T11:18:55Z</time>
      </trkpt>
      <trkpt lat="46.014696" lon="6.779002">
        <ele>1801.242</ele>
        <time>2018-07-11T11:19:06Z</time>
      </trkpt>
      <trkpt lat="46.014651" lon="6.779017">
        <ele>1799.452</ele>
        <time>2018-07-11T11:19:16Z</time>
      </trkpt>
      <trkpt lat="46.014607" lon="6.779036">
        <ele>1798.546</ele>
        <time>2018-07-11T11:19:26Z</time>
      </trkpt>
      <trkpt lat="46.014562" lon="6.779012">
        <ele>1796.881</ele>
        <time>2018-07-11T11:19:38Z</time>
      </trkpt>
      <trkpt lat="46.014515" lon="6.778996">
        <ele>1795.861</ele>
        <time>2018-07-11T11:19:46Z</time>
      </trkpt>
      <trkpt lat="46.014465" lon="6.778999">
        <ele>1793.717</ele>
        <time>2018-07-11T11:19:56Z</time>
      </trkpt>
      <trkpt lat="46.014418" lon="6.779004">
        <ele>1792.408</ele>
        <time>2018-07-11T11:20:04Z</time>
      </trkpt>
      <trkpt lat="46.014372" lon="6.778999">
        <ele>1791.380</ele>
        <time>2018-07-11T11:20:12Z</time>
      </trkpt>
      <trkpt lat="46.014327" lon="6.779006">
        <ele>1789.834</ele>
        <time>2018-07-11T11:20:20Z</time>
      </trkpt>
      <trkpt lat="46.014283" lon="6.779026">
        <ele>1788.952</ele>
        <time>2018-07-11T11:20:26Z</time>
      </trkpt>
      <trkpt lat="46.014232" lon="6.779026">
        <ele>1787.721</ele>
        <time>2018-07-11T11:20:33Z</time>
      </trkpt>
      <trkpt lat="46.014186" lon="6.779033">
        <ele>1786.782</ele>
        <time>2018-07-11T11:20:40Z</time>
      </trkpt>
      <trkpt lat="46.014134" lon="6.779042">
        <ele>1785.598</ele>
        <time>2018-07-11T11:20:46Z</time>
      </trkpt>
      <trkpt lat="46.014082" lon="6.779041">
        <ele>1784.658</ele>
        <time>2018-07-11T11:20:52Z</time>
      </trkpt>
      <trkpt lat="46.014041" lon="6.779070">
        <ele>1783.132</ele>
        <time>2018-07-11T11:21:00Z</time>
      </trkpt>
      <trkpt lat="46.013990" lon="6.779059">
        <ele>1781.654</ele>
        <time>2018-07-11T11:21:07Z</time>
      </trkpt>
      <trkpt lat="46.013943" lon="6.779039">
        <ele>1781.456</ele>
        <time>2018-07-11T11:21:11Z</time>
      </trkpt>
      <trkpt lat="46.013900" lon="6.779011">
        <ele>1781.111</ele>
        <time>2018-07-11T11:21:15Z</time>
      </trkpt>
      <trkpt lat="46.013860" lon="6.778966">
        <ele>1780.808</ele>
        <time>2018-07-11T11:21:20Z</time>
      </trkpt>
      <trkpt lat="46.013810" lon="6.778947">
        <ele>1779.657</ele>
        <time>2018-07-11T11:21:27Z</time>
      </trkpt>
      <trkpt lat="46.013761" lon="6.778942">
        <ele>1778.331</ele>
        <time>2018-07-11T11:21:32Z</time>
      </trkpt>
      <trkpt lat="46.013711" lon="6.778950">
        <ele>1777.889</ele>
        <time>2018-07-11T11:21:37Z</time>
      </trkpt>
      <trkpt lat="46.013664" lon="6.778970">
        <ele>1776.688</ele>
        <time>2018-07-11T11:21:44Z</time>
      </trkpt>
      <trkpt lat="46.013613" lon="6.778989">
        <ele>1775.359</ele>
        <time>2018-07-11T11:21:51Z</time>
      </trkpt>
      <trkpt lat="46.013563" lon="6.778992">
        <ele>1774.645</ele>
        <time>2018-07-11T11:21:58Z</time>
      </trkpt>
      <trkpt lat="46.013517" lon="6.779002">
        <ele>1773.495</ele>
        <time>2018-07-11T11:22:03Z</time>
      </trkpt>
      <trkpt lat="46.013470" lon="6.779012">
        <ele>1771.519</ele>
        <time>2018-07-11T11:22:15Z</time>
      </trkpt>
      <trkpt lat="46.013422" lon="6.779012">
        <ele>1769.893</ele>
        <time>2018-07-11T11:22:22Z</time>
      </trkpt>
      <trkpt lat="46.013371" lon="6.779016">
        <ele>1768.865</ele>
        <time>2018-07-11T11:22:27Z</time>
      </trkpt>
      <trkpt lat="46.013318" lon="6.779026">
        <ele>1768.421</ele>
        <time>2018-07-11T11:22:32Z</time>
      </trkpt>
      <trkpt lat="46.013271" lon="6.779066">
        <ele>1768.208</ele>
        <time>2018-07-11T11:22:37Z</time>
      </trkpt>
      <trkpt lat="46.013230" lon="6.779103">
        <ele>1767.961</ele>
        <time>2018-07-11T11:22:41Z</time>
      </trkpt>
      <trkpt lat="46.013187" lon="6.779129">
        <ele>1767.735</ele>
        <time>2018-07-11T11:22:45Z</time>
      </trkpt>
      <trkpt lat="46.013146" lon="6.779156">
        <ele>1767.693</ele>
        <time>2018-07-11T11:22:49Z</time>
      </trkpt>
      <trkpt lat="46.013112" lon="6.779209">
        <ele>1767.032</ele>
        <time>2018-07-11T11:22:54Z</time>
      </trkpt>
      <trkpt lat="46.013080" lon="6.779263">
        <ele>1768.133</ele>
        <time>2018-07-11T11:22:59Z</time>
      </trkpt>
      <trkpt lat="46.013041" lon="6.779315">
        <ele>1765.649</ele>
        <time>2018-07-11T11:23:04Z</time>
      </trkpt>
      <trkpt lat="46.013019" lon="6.779377">
        <ele>1764.179</ele>
        <time>2018-07-11T11:23:10Z</time>
      </trkpt>
      <trkpt lat="46.013000" lon="6.779446">
        <ele>1763.383</ele>
        <time>2018-07-11T11:23:16Z</time>
      </trkpt>
      <trkpt lat="46.012969" lon="6.779498">
        <ele>1762.435</ele>
        <time>2018-07-11T11:23:21Z</time>
      </trkpt>
      <trkpt lat="46.012933" lon="6.779543">
        <ele>1761.786</ele>
        <time>2018-07-11T11:23:25Z</time>
      </trkpt>
      <trkpt lat="46.012900" lon="6.779600">
        <ele>1762.214</ele>
        <time>2018-07-11T11:23:30Z</time>
      </trkpt>
      <trkpt lat="46.012858" lon="6.779640">
        <ele>1760.608</ele>
        <time>2018-07-11T11:23:36Z</time>
      </trkpt>
      <trkpt lat="46.012839" lon="6.779701">
        <ele>1759.355</ele>
        <time>2018-07-11T11:23:44Z</time>
      </trkpt>
      <trkpt lat="46.012810" lon="6.779753">
        <ele>1758.599</ele>
        <time>2018-07-11T11:23:52Z</time>
      </trkpt>
      <trkpt lat="46.012781" lon="6.779807">
        <ele>1758.767</ele>
        <time>2018-07-11T11:23:58Z</time>
      </trkpt>
      <trkpt lat="46.012759" lon="6.779882">
        <ele>1756.316</ele>
        <time>2018-07-11T11:24:08Z</time>
      </trkpt>
      <trkpt lat="46.012726" lon="6.779935">
        <ele>1754.947</ele>
        <time>2018-07-11T11:24:16Z</time>
      </trkpt>
      <trkpt lat="46.012701" lon="6.779996">
        <ele>1754.193</ele>
        <time>2018-07-11T11:24:24Z</time>
      </trkpt>
      <trkpt lat="46.012700" lon="6.780067">
        <ele>1752.343</ele>
        <time>2018-07-11T11:24:31Z</time>
      </trkpt>
      <trkpt lat="46.012692" lon="6.780135">
        <ele>1751.677</ele>
        <time>2018-07-11T11:24:37Z</time>
      </trkpt>
      <trkpt lat="46.012667" lon="6.780198">
        <ele>1750.938</ele>
        <time>2018-07-11T11:24:43Z</time>
      </trkpt>
      <trkpt lat="46.012633" lon="6.780257">
        <ele>1750.470</ele>
        <time>2018-07-11T11:24:49Z</time>
      </trkpt>
      <trkpt lat="46.012593" lon="6.780306">
        <ele>1749.817</ele>
        <time>2018-07-11T11:24:54Z</time>
      </trkpt>
      <trkpt lat="46.012547" lon="6.780341">
        <ele>1750.008</ele>
        <time>2018-07-11T11:24:59Z</time>
      </trkpt>
      <trkpt lat="46.012506" lon="6.780394">
        <ele>1748.815</ele>
        <time>2018-07-11T11:25:04Z</time>
      </trkpt>
      <trkpt lat="46.012468" lon="6.780432">
        <ele>1748.329</ele>
        <time>2018-07-11T11:25:08Z</time>
      </trkpt>
      <trkpt lat="46.012428" lon="6.780469">
        <ele>1748.747</ele>
        <time>2018-07-11T11:25:12Z</time>
      </trkpt>
      <trkpt lat="46.012386" lon="6.780506">
        <ele>1747.816</ele>
        <time>2018-07-11T11:25:16Z</time>
      </trkpt>
      <trkpt lat="46.012343" lon="6.780546">
        <ele>1747.717</ele>
        <time>2018-07-11T11:25:20Z</time>
      </trkpt>
      <trkpt lat="46.012303" lon="6.780591">
        <ele>1747.553</ele>
        <time>2018-07-11T11:25:24Z</time>
      </trkpt>
      <trkpt lat="46.012266" lon="6.780639">
        <ele>1747.323</ele>
        <time>2018-07-11T11:25:28Z</time>
      </trkpt>
      <trkpt lat="46.012224" lon="6.780684">
        <ele>1747.127</ele>
        <time>2018-07-11T11:25:32Z</time>
      </trkpt>
      <trkpt lat="46.012179" lon="6.780731">
        <ele>1746.316</ele>
        <time>2018-07-11T11:25:37Z</time>
      </trkpt>
      <trkpt lat="46.012136" lon="6.780761">
        <ele>1745.776</ele>
        <time>2018-07-11T11:25:41Z</time>
      </trkpt>
      <trkpt lat="46.012093" lon="6.780794">
        <ele>1745.613</ele>
        <time>2018-07-11T11:25:46Z</time>
      </trkpt>
      <trkpt lat="46.012060" lon="6.780842">
        <ele>1744.808</ele>
        <time>2018-07-11T11:26:29Z</time>
      </trkpt>
      <trkpt lat="46.012014" lon="6.780883">
        <ele>1744.683</ele>
        <time>2018-07-11T11:26:39Z</time>
      </trkpt>
      <trkpt lat="46.011971" lon="6.780905">
        <ele>1744.797</ele>
        <time>2018-07-11T11:26:45Z</time>
      </trkpt>
      <trkpt lat="46.011922" lon="6.780934">
        <ele>1744.685</ele>
        <time>2018-07-11T11:26:50Z</time>
      </trkpt>
      <trkpt lat="46.011886" lon="6.780981">
        <ele>1744.534</ele>
        <time>2018-07-11T11:26:55Z</time>
      </trkpt>
      <trkpt lat="46.011863" lon="6.781038">
        <ele>1744.365</ele>
        <time>2018-07-11T11:27:00Z</time>
      </trkpt>
      <trkpt lat="46.011830" lon="6.781084">
        <ele>1745.211</ele>
        <time>2018-07-11T11:27:07Z</time>
      </trkpt>
      <trkpt lat="46.011805" lon="6.781141">
        <ele>1746.431</ele>
        <time>2018-07-11T11:27:15Z</time>
      </trkpt>
      <trkpt lat="46.011761" lon="6.781170">
        <ele>1746.375</ele>
        <time>2018-07-11T11:27:21Z</time>
      </trkpt>
      <trkpt lat="46.011716" lon="6.781203">
        <ele>1747.212</ele>
        <time>2018-07-11T11:27:28Z</time>
      </trkpt>
      <trkpt lat="46.011668" lon="6.781227">
        <ele>1748.532</ele>
        <time>2018-07-11T11:27:35Z</time>
      </trkpt>
      <trkpt lat="46.011620" lon="6.781251">
        <ele>1748.505</ele>
        <time>2018-07-11T11:27:43Z</time>
      </trkpt>
      <trkpt lat="46.011579" lon="6.781280">
        <ele>1748.908</ele>
        <time>2018-07-11T11:27:51Z</time>
      </trkpt>
      <trkpt lat="46.011535" lon="6.781318">
        <ele>1749.623</ele>
        <time>2018-07-11T11:28:00Z</time>
      </trkpt>
      <trkpt lat="46.011490" lon="6.781324">
        <ele>1750.127</ele>
        <time>2018-07-11T11:28:07Z</time>
      </trkpt>
      <trkpt lat="46.011451" lon="6.781362">
        <ele>1750.645</ele>
        <time>2018-07-11T11:28:15Z</time>
      </trkpt>
      <trkpt lat="46.011429" lon="6.781421">
        <ele>1751.764</ele>
        <time>2018-07-11T11:28:24Z</time>
      </trkpt>
      <trkpt lat="46.011384" lon="6.781442">
        <ele>1753.045</ele>
        <time>2018-07-11T11:28:32Z</time>
      </trkpt>
      <trkpt lat="46.011339" lon="6.781469">
        <ele>1753.031</ele>
        <time>2018-07-11T11:28:39Z</time>
      </trkpt>
      <trkpt lat="46.011297" lon="6.781503">
        <ele>1753.621</ele>
        <time>2018-07-11T11:29:04Z</time>
      </trkpt>
      <trkpt lat="46.011263" lon="6.781548">
        <ele>1754.235</ele>
        <time>2018-07-11T11:29:12Z</time>
      </trkpt>
      <trkpt lat="46.011233" lon="6.781603">
        <ele>1754.487</ele>
        <time>2018-07-11T11:29:19Z</time>
      </trkpt>
      <trkpt lat="46.011216" lon="6.781664">
        <ele>1754.642</ele>
        <time>2018-07-11T11:29:26Z</time>
      </trkpt>
      <trkpt lat="46.011197" lon="6.781732">
        <ele>1754.526</ele>
        <time>2018-07-11T11:29:34Z</time>
      </trkpt>
      <trkpt lat="46.011172" lon="6.781794">
        <ele>1754.708</ele>
        <time>2018-07-11T11:29:41Z</time>
      </trkpt>
      <trkpt lat="46.011139" lon="6.781849">
        <ele>1754.650</ele>
        <time>2018-07-11T11:29:48Z</time>
      </trkpt>
      <trkpt lat="46.011120" lon="6.781917">
        <ele>1754.064</ele>
        <time>2018-07-11T11:29:54Z</time>
      </trkpt>
      <trkpt lat="46.011082" lon="6.781963">
        <ele>1754.692</ele>
        <time>2018-07-11T11:30:00Z</time>
      </trkpt>
      <trkpt lat="46.011034" lon="6.781989">
        <ele>1754.431</ele>
        <time>2018-07-11T11:30:06Z</time>
      </trkpt>
      <trkpt lat="46.010985" lon="6.781987">
        <ele>1754.972</ele>
        <time>2018-07-11T11:30:15Z</time>
      </trkpt>
      <trkpt lat="46.010958" lon="6.782040">
        <ele>1755.038</ele>
        <time>2018-07-11T11:30:21Z</time>
      </trkpt>
      <trkpt lat="46.010918" lon="6.782083">
        <ele>1755.388</ele>
        <time>2018-07-11T11:30:28Z</time>
      </trkpt>
      <trkpt lat="46.010883" lon="6.782127">
        <ele>1755.482</ele>
        <time>2018-07-11T11:30:34Z</time>
      </trkpt>
      <trkpt lat="46.010851" lon="6.782187">
        <ele>1754.835</ele>
        <time>2018-07-11T11:30:40Z</time>
      </trkpt>
      <trkpt lat="46.010810" lon="6.782220">
        <ele>1755.286</ele>
        <time>2018-07-11T11:30:46Z</time>
      </trkpt>
      <trkpt lat="46.010768" lon="6.782260">
        <ele>1755.514</ele>
        <time>2018-07-11T11:30:52Z</time>
      </trkpt>
      <trkpt lat="46.010728" lon="6.782291">
        <ele>1755.508</ele>
        <time>2018-07-11T11:30:57Z</time>
      </trkpt>
      <trkpt lat="46.010693" lon="6.782338">
        <ele>1755.365</ele>
        <time>2018-07-11T11:31:02Z</time>
      </trkpt>
      <trkpt lat="46.010652" lon="6.782367">
        <ele>1754.689</ele>
        <time>2018-07-11T11:31:09Z</time>
      </trkpt>
      <trkpt lat="46.010609" lon="6.782415">
        <ele>1754.147</ele>
        <time>2018-07-11T11:31:16Z</time>
      </trkpt>
      <trkpt lat="46.010574" lon="6.782460">
        <ele>1754.526</ele>
        <time>2018-07-11T11:31:21Z</time>
      </trkpt>
      <trkpt lat="46.010534" lon="6.782491">
        <ele>1754.177</ele>
        <time>2018-07-11T11:31:27Z</time>
      </trkpt>
      <trkpt lat="46.010492" lon="6.782528">
        <ele>1754.533</ele>
        <time>2018-07-11T11:31:35Z</time>
      </trkpt>
      <trkpt lat="46.010450" lon="6.782570">
        <ele>1754.313</ele>
        <time>2018-07-11T11:31:41Z</time>
      </trkpt>
      <trkpt lat="46.010410" lon="6.782613">
        <ele>1753.437</ele>
        <time>2018-07-11T11:31:49Z</time>
      </trkpt>
      <trkpt lat="46.010367" lon="6.782656">
        <ele>1752.618</ele>
        <time>2018-07-11T11:31:56Z</time>
      </trkpt>
      <trkpt lat="46.010341" lon="6.782713">
        <ele>1751.798</ele>
        <time>2018-07-11T11:32:02Z</time>
      </trkpt>
      <trkpt lat="46.010335" lon="6.782786">
        <ele>1751.417</ele>
        <time>2018-07-11T11:32:09Z</time>
      </trkpt>
      <trkpt lat="46.010307" lon="6.782843">
        <ele>1750.208</ele>
        <time>2018-07-11T11:32:16Z</time>
      </trkpt>
      <trkpt lat="46.010277" lon="6.782905">
        <ele>1749.973</ele>
        <time>2018-07-11T11:32:22Z</time>
      </trkpt>
      <trkpt lat="46.010249" lon="6.782961">
        <ele>1750.337</ele>
        <time>2018-07-11T11:32:27Z</time>
      </trkpt>
      <trkpt lat="46.010224" lon="6.783024">
        <ele>1750.525</ele>
        <time>2018-07-11T11:32:32Z</time>
      </trkpt>
      <trkpt lat="46.010206" lon="6.783092">
        <ele>1750.084</ele>
        <time>2018-07-11T11:32:38Z</time>
      </trkpt>
      <trkpt lat="46.010198" lon="6.783160">
        <ele>1752.665</ele>
        <time>2018-07-11T11:32:43Z</time>
      </trkpt>
      <trkpt lat="46.010167" lon="6.783208">
        <ele>1750.411</ele>
        <time>2018-07-11T11:33:22Z</time>
      </trkpt>
      <trkpt lat="46.010136" lon="6.783261">
        <ele>1749.981</ele>
        <time>2018-07-11T11:33:27Z</time>
      </trkpt>
      <trkpt lat="46.010106" lon="6.783318">
        <ele>1750.295</ele>
        <time>2018-07-11T11:33:32Z</time>
      </trkpt>
      <trkpt lat="46.010076" lon="6.783375">
        <ele>1750.572</ele>
        <time>2018-07-11T11:33:38Z</time>
      </trkpt>
      <trkpt lat="46.010032" lon="6.783402">
        <ele>1750.213</ele>
        <time>2018-07-11T11:33:52Z</time>
      </trkpt>
      <trkpt lat="46.010009" lon="6.783469">
        <ele>1750.914</ele>
        <time>2018-07-11T11:33:59Z</time>
      </trkpt>
      <trkpt lat="46.009986" lon="6.783531">
        <ele>1750.408</ele>
        <time>2018-07-11T11:34:07Z</time>
      </trkpt>
      <trkpt lat="46.009937" lon="6.783548">
        <ele>1750.399</ele>
        <time>2018-07-11T11:34:14Z</time>
      </trkpt>
      <trkpt lat="46.009893" lon="6.783568">
        <ele>1749.833</ele>
        <time>2018-07-11T11:34:23Z</time>
      </trkpt>
      <trkpt lat="46.009845" lon="6.783569">
        <ele>1750.091</ele>
        <time>2018-07-11T11:34:29Z</time>
      </trkpt>
      <trkpt lat="46.009800" lon="6.783587">
        <ele>1750.270</ele>
        <time>2018-07-11T11:34:36Z</time>
      </trkpt>
      <trkpt lat="46.009750" lon="6.783611">
        <ele>1750.221</ele>
        <time>2018-07-11T11:34:43Z</time>
      </trkpt>
      <trkpt lat="46.009704" lon="6.783639">
        <ele>1750.467</ele>
        <time>2018-07-11T11:34:48Z</time>
      </trkpt>
      <trkpt lat="46.009651" lon="6.783648">
        <ele>1750.687</ele>
        <time>2018-07-11T11:34:53Z</time>
      </trkpt>
      <trkpt lat="46.009597" lon="6.783655">
        <ele>1750.391</ele>
        <time>2018-07-11T11:34:58Z</time>
      </trkpt>
      <trkpt lat="46.009543" lon="6.783645">
        <ele>1749.831</ele>
        <time>2018-07-11T11:35:03Z</time>
      </trkpt>
      <trkpt lat="46.009492" lon="6.783635">
        <ele>1750.461</ele>
        <time>2018-07-11T11:35:08Z</time>
      </trkpt>
      <trkpt lat="46.009446" lon="6.783630">
        <ele>1750.407</ele>
        <time>2018-07-11T11:35:13Z</time>
      </trkpt>
      <trkpt lat="46.009399" lon="6.783619">
        <ele>1750.208</ele>
        <time>2018-07-11T11:35:18Z</time>
      </trkpt>
      <trkpt lat="46.009346" lon="6.783615">
        <ele>1750.485</ele>
        <time>2018-07-11T11:35:23Z</time>
      </trkpt>
      <trkpt lat="46.009300" lon="6.783619">
        <ele>1750.979</ele>
        <time>2018-07-11T11:35:28Z</time>
      </trkpt>
      <trkpt lat="46.009252" lon="6.783633">
        <ele>1751.077</ele>
        <time>2018-07-11T11:35:33Z</time>
      </trkpt>
      <trkpt lat="46.009202" lon="6.783638">
        <ele>1751.066</ele>
        <time>2018-07-11T11:35:38Z</time>
      </trkpt>
      <trkpt lat="46.009150" lon="6.783638">
        <ele>1750.687</ele>
        <time>2018-07-11T11:35:43Z</time>
      </trkpt>
      <trkpt lat="46.009098" lon="6.783640">
        <ele>1751.043</ele>
        <time>2018-07-11T11:35:48Z</time>
      </trkpt>
      <trkpt lat="46.009050" lon="6.783638">
        <ele>1751.023</ele>
        <time>2018-07-11T11:35:53Z</time>
      </trkpt>
      <trkpt lat="46.009003" lon="6.783643">
        <ele>1751.817</ele>
        <time>2018-07-11T11:35:59Z</time>
      </trkpt>
      <trkpt lat="46.008958" lon="6.783635">
        <ele>1753.519</ele>
        <time>2018-07-11T11:36:07Z</time>
      </trkpt>
      <trkpt lat="46.008909" lon="6.783623">
        <ele>1755.209</ele>
        <time>2018-07-11T11:36:14Z</time>
      </trkpt>
      <trkpt lat="46.008866" lon="6.783590">
        <ele>1755.119</ele>
        <time>2018-07-11T11:36:21Z</time>
      </trkpt>
      <trkpt lat="46.008822" lon="6.783562">
        <ele>1757.008</ele>
        <time>2018-07-11T11:36:27Z</time>
      </trkpt>
      <trkpt lat="46.008774" lon="6.783555">
        <ele>1755.793</ele>
        <time>2018-07-11T11:36:33Z</time>
      </trkpt>
      <trkpt lat="46.008721" lon="6.783575">
        <ele>1756.337</ele>
        <time>2018-07-11T11:36:40Z</time>
      </trkpt>
      <trkpt lat="46.008672" lon="6.783597">
        <ele>1757.055</ele>
        <time>2018-07-11T11:36:45Z</time>
      </trkpt>
      <trkpt lat="46.008625" lon="6.783624">
        <ele>1756.534</ele>
        <time>2018-07-11T11:36:50Z</time>
      </trkpt>
      <trkpt lat="46.008577" lon="6.783656">
        <ele>1756.475</ele>
        <time>2018-07-11T11:36:55Z</time>
      </trkpt>
      <trkpt lat="46.008525" lon="6.783680">
        <ele>1756.661</ele>
        <time>2018-07-11T11:37:00Z</time>
      </trkpt>
      <trkpt lat="46.008476" lon="6.783704">
        <ele>1756.781</ele>
        <time>2018-07-11T11:37:05Z</time>
      </trkpt>
      <trkpt lat="46.008429" lon="6.783715">
        <ele>1756.845</ele>
        <time>2018-07-11T11:37:10Z</time>
      </trkpt>
      <trkpt lat="46.008386" lon="6.783748">
        <ele>1757.835</ele>
        <time>2018-07-11T11:37:15Z</time>
      </trkpt>
      <trkpt lat="46.008351" lon="6.783796">
        <ele>1757.086</ele>
        <time>2018-07-11T11:37:20Z</time>
      </trkpt>
      <trkpt lat="46.008313" lon="6.783852">
        <ele>1757.814</ele>
        <time>2018-07-11T11:37:25Z</time>
      </trkpt>
      <trkpt lat="46.008276" lon="6.783901">
        <ele>1757.108</ele>
        <time>2018-07-11T11:37:30Z</time>
      </trkpt>
      <trkpt lat="46.008230" lon="6.783929">
        <ele>1757.325</ele>
        <time>2018-07-11T11:37:35Z</time>
      </trkpt>
      <trkpt lat="46.008183" lon="6.783954">
        <ele>1757.539</ele>
        <time>2018-07-11T11:37:40Z</time>
      </trkpt>
      <trkpt lat="46.008139" lon="6.783981">
        <ele>1758.197</ele>
        <time>2018-07-11T11:37:46Z</time>
      </trkpt>
      <trkpt lat="46.008098" lon="6.784009">
        <ele>1758.416</ele>
        <time>2018-07-11T11:37:52Z</time>
      </trkpt>
      <trkpt lat="46.008059" lon="6.784053">
        <ele>1758.887</ele>
        <time>2018-07-11T11:37:58Z</time>
      </trkpt>
      <trkpt lat="46.008018" lon="6.784089">
        <ele>1759.163</ele>
        <time>2018-07-11T11:38:03Z</time>
      </trkpt>
      <trkpt lat="46.007971" lon="6.784108">
        <ele>1759.453</ele>
        <time>2018-07-11T11:38:08Z</time>
      </trkpt>
      <trkpt lat="46.007921" lon="6.784121">
        <ele>1759.747</ele>
        <time>2018-07-11T11:38:14Z</time>
      </trkpt>
      <trkpt lat="46.007869" lon="6.784128">
        <ele>1760.031</ele>
        <time>2018-07-11T11:38:20Z</time>
      </trkpt>
      <trkpt lat="46.007826" lon="6.784146">
        <ele>1760.561</ele>
        <time>2018-07-11T11:38:25Z</time>
      </trkpt>
      <trkpt lat="46.007781" lon="6.784173">
        <ele>1760.907</ele>
        <time>2018-07-11T11:38:30Z</time>
      </trkpt>
      <trkpt lat="46.007730" lon="6.784193">
        <ele>1760.708</ele>
        <time>2018-07-11T11:38:35Z</time>
      </trkpt>
      <trkpt lat="46.007683" lon="6.784206">
        <ele>1761.335</ele>
        <time>2018-07-11T11:38:40Z</time>
      </trkpt>
      <trkpt lat="46.007630" lon="6.784223">
        <ele>1762.489</ele>
        <time>2018-07-11T11:38:46Z</time>
      </trkpt>
      <trkpt lat="46.007585" lon="6.784264">
        <ele>1761.817</ele>
        <time>2018-07-11T11:38:52Z</time>
      </trkpt>
      <trkpt lat="46.007551" lon="6.784314">
        <ele>1764.086</ele>
        <time>2018-07-11T11:38:57Z</time>
      </trkpt>
      <trkpt lat="46.007516" lon="6.784369">
        <ele>1762.077</ele>
        <time>2018-07-11T11:39:03Z</time>
      </trkpt>
      <trkpt lat="46.007475" lon="6.784404">
        <ele>1763.063</ele>
        <time>2018-07-11T11:39:11Z</time>
      </trkpt>
      <trkpt lat="46.007431" lon="6.784421">
        <ele>1763.443</ele>
        <time>2018-07-11T11:39:17Z</time>
      </trkpt>
      <trkpt lat="46.007383" lon="6.784442">
        <ele>1764.217</ele>
        <time>2018-07-11T11:39:24Z</time>
      </trkpt>
      <trkpt lat="46.007338" lon="6.784473">
        <ele>1764.961</ele>
        <time>2018-07-11T11:39:32Z</time>
      </trkpt>
      <trkpt lat="46.007299" lon="6.784507">
        <ele>1765.921</ele>
        <time>2018-07-11T11:39:39Z</time>
      </trkpt>
      <trkpt lat="46.007256" lon="6.784540">
        <ele>1766.613</ele>
        <time>2018-07-11T11:39:46Z</time>
      </trkpt>
      <trkpt lat="46.007220" lon="6.784594">
        <ele>1767.408</ele>
        <time>2018-07-11T11:39:55Z</time>
      </trkpt>
      <trkpt lat="46.007179" lon="6.784626">
        <ele>1768.168</ele>
        <time>2018-07-11T11:40:02Z</time>
      </trkpt>
      <trkpt lat="46.007139" lon="6.784669">
        <ele>1768.822</ele>
        <time>2018-07-11T11:40:08Z</time>
      </trkpt>
      <trkpt lat="46.007095" lon="6.784711">
        <ele>1769.050</ele>
        <time>2018-07-11T11:40:15Z</time>
      </trkpt>
      <trkpt lat="46.007055" lon="6.784750">
        <ele>1769.719</ele>
        <time>2018-07-11T11:40:22Z</time>
      </trkpt>
      <trkpt lat="46.007018" lon="6.784806">
        <ele>1771.160</ele>
        <time>2018-07-11T11:40:28Z</time>
      </trkpt>
      <trkpt lat="46.006987" lon="6.784863">
        <ele>1770.026</ele>
        <time>2018-07-11T11:40:33Z</time>
      </trkpt>
      <trkpt lat="46.006977" lon="6.784936">
        <ele>1769.546</ele>
        <time>2018-07-11T11:40:38Z</time>
      </trkpt>
      <trkpt lat="46.006983" lon="6.785008">
        <ele>1769.480</ele>
        <time>2018-07-11T11:40:43Z</time>
      </trkpt>
      <trkpt lat="46.006989" lon="6.785076">
        <ele>1770.283</ele>
        <time>2018-07-11T11:40:49Z</time>
      </trkpt>
      <trkpt lat="46.006966" lon="6.785139">
        <ele>1771.525</ele>
        <time>2018-07-11T11:40:57Z</time>
      </trkpt>
      <trkpt lat="46.006945" lon="6.785197">
        <ele>1772.317</ele>
        <time>2018-07-11T11:41:05Z</time>
      </trkpt>
      <trkpt lat="46.006951" lon="6.785265">
        <ele>1774.308</ele>
        <time>2018-07-11T11:41:17Z</time>
      </trkpt>
      <trkpt lat="46.006985" lon="6.785308">
        <ele>1775.210</ele>
        <time>2018-07-11T11:41:31Z</time>
      </trkpt>
      <trkpt lat="46.007020" lon="6.785358">
        <ele>1776.854</ele>
        <time>2018-07-11T11:41:44Z</time>
      </trkpt>
      <trkpt lat="46.007059" lon="6.785397">
        <ele>1778.042</ele>
        <time>2018-07-11T11:41:52Z</time>
      </trkpt>
      <trkpt lat="46.007086" lon="6.785452">
        <ele>1778.621</ele>
        <time>2018-07-11T11:42:00Z</time>
      </trkpt>
      <trkpt lat="46.007102" lon="6.785515">
        <ele>1780.122</ele>
        <time>2018-07-11T11:42:11Z</time>
      </trkpt>
      <trkpt lat="46.007142" lon="6.785549">
        <ele>1780.838</ele>
        <time>2018-07-11T11:42:19Z</time>
      </trkpt>
      <trkpt lat="46.007184" lon="6.785581">
        <ele>1780.878</ele>
        <time>2018-07-11T11:42:27Z</time>
      </trkpt>
      <trkpt lat="46.007213" lon="6.785638">
        <ele>1781.022</ele>
        <time>2018-07-11T11:42:34Z</time>
      </trkpt>
      <trkpt lat="46.007226" lon="6.785706">
        <ele>1781.362</ele>
        <time>2018-07-11T11:42:40Z</time>
      </trkpt>
      <trkpt lat="46.007244" lon="6.785766">
        <ele>1781.583</ele>
        <time>2018-07-11T11:42:45Z</time>
      </trkpt>
      <trkpt lat="46.007261" lon="6.785826">
        <ele>1781.411</ele>
        <time>2018-07-11T11:42:50Z</time>
      </trkpt>
      <trkpt lat="46.007277" lon="6.785889">
        <ele>1781.708</ele>
        <time>2018-07-11T11:42:56Z</time>
      </trkpt>
      <trkpt lat="46.007280" lon="6.785959">
        <ele>1782.038</ele>
        <time>2018-07-11T11:43:02Z</time>
      </trkpt>
      <trkpt lat="46.007269" lon="6.786027">
        <ele>1782.332</ele>
        <time>2018-07-11T11:43:08Z</time>
      </trkpt>
      <trkpt lat="46.007237" lon="6.786074">
        <ele>1782.640</ele>
        <time>2018-07-11T11:43:14Z</time>
      </trkpt>
      <trkpt lat="46.007214" lon="6.786134">
        <ele>1783.479</ele>
        <time>2018-07-11T11:43:20Z</time>
      </trkpt>
      <trkpt lat="46.007185" lon="6.786185">
        <ele>1784.120</ele>
        <time>2018-07-11T11:43:26Z</time>
      </trkpt>
      <trkpt lat="46.007145" lon="6.786216">
        <ele>1784.886</ele>
        <time>2018-07-11T11:43:34Z</time>
      </trkpt>
      <trkpt lat="46.007104" lon="6.786251">
        <ele>1786.646</ele>
        <time>2018-07-11T11:43:51Z</time>
      </trkpt>
      <trkpt lat="46.007058" lon="6.786270">
        <ele>1787.530</ele>
        <time>2018-07-11T11:44:06Z</time>
      </trkpt>
      <trkpt lat="46.007003" lon="6.786272">
        <ele>1789.446</ele>
        <time>2018-07-11T11:44:17Z</time>
      </trkpt>
      <trkpt lat="46.006972" lon="6.786323">
        <ele>1789.888</ele>
        <time>2018-07-11T11:44:25Z</time>
      </trkpt>
      <trkpt lat="46.006932" lon="6.786355">
        <ele>1789.916</ele>
        <time>2018-07-11T11:44:32Z</time>
      </trkpt>
      <trkpt lat="46.006887" lon="6.786358">
        <ele>1789.808</ele>
        <time>2018-07-11T11:44:38Z</time>
      </trkpt>
      <trkpt lat="46.006838" lon="6.786350">
        <ele>1790.316</ele>
        <time>2018-07-11T11:44:45Z</time>
      </trkpt>
      <trkpt lat="46.006789" lon="6.786345">
        <ele>1791.150</ele>
        <time>2018-07-11T11:45:03Z</time>
      </trkpt>
      <trkpt lat="46.006744" lon="6.786334">
        <ele>1791.348</ele>
        <time>2018-07-11T11:45:11Z</time>
      </trkpt>
      <trkpt lat="46.006697" lon="6.786340">
        <ele>1792.757</ele>
        <time>2018-07-11T11:45:20Z</time>
      </trkpt>
      <trkpt lat="46.006671" lon="6.786397">
        <ele>1793.818</ele>
        <time>2018-07-11T11:45:34Z</time>
      </trkpt>
      <trkpt lat="46.006625" lon="6.786431">
        <ele>1794.984</ele>
        <time>2018-07-11T11:45:45Z</time>
      </trkpt>
      <trkpt lat="46.006581" lon="6.786460">
        <ele>1795.614</ele>
        <time>2018-07-11T11:45:52Z</time>
      </trkpt>
      <trkpt lat="46.006533" lon="6.786476">
        <ele>1796.038</ele>
        <time>2018-07-11T11:45:59Z</time>
      </trkpt>
      <trkpt lat="46.006495" lon="6.786525">
        <ele>1797.064</ele>
        <time>2018-07-11T11:46:07Z</time>
      </trkpt>
      <trkpt lat="46.006465" lon="6.786575">
        <ele>1797.106</ele>
        <time>2018-07-11T11:46:13Z</time>
      </trkpt>
      <trkpt lat="46.006427" lon="6.786623">
        <ele>1798.816</ele>
        <time>2018-07-11T11:46:21Z</time>
      </trkpt>
      <trkpt lat="46.006393" lon="6.786674">
        <ele>1798.308</ele>
        <time>2018-07-11T11:46:27Z</time>
      </trkpt>
      <trkpt lat="46.006357" lon="6.786715">
        <ele>1798.318</ele>
        <time>2018-07-11T11:46:32Z</time>
      </trkpt>
      <trkpt lat="46.006322" lon="6.786762">
        <ele>1798.882</ele>
        <time>2018-07-11T11:46:38Z</time>
      </trkpt>
      <trkpt lat="46.006285" lon="6.786806">
        <ele>1799.360</ele>
        <time>2018-07-11T11:46:44Z</time>
      </trkpt>
      <trkpt lat="46.006249" lon="6.786846">
        <ele>1799.159</ele>
        <time>2018-07-11T11:46:49Z</time>
      </trkpt>
      <trkpt lat="46.006205" lon="6.786889">
        <ele>1799.760</ele>
        <time>2018-07-11T11:46:55Z</time>
      </trkpt>
      <trkpt lat="46.006167" lon="6.786929">
        <ele>1799.856</ele>
        <time>2018-07-11T11:47:00Z</time>
      </trkpt>
      <trkpt lat="46.006130" lon="6.786969">
        <ele>1800.016</ele>
        <time>2018-07-11T11:47:05Z</time>
      </trkpt>
      <trkpt lat="46.006093" lon="6.787009">
        <ele>1800.430</ele>
        <time>2018-07-11T11:47:11Z</time>
      </trkpt>
      <trkpt lat="46.006058" lon="6.787056">
        <ele>1801.122</ele>
        <time>2018-07-11T11:47:17Z</time>
      </trkpt>
      <trkpt lat="46.006029" lon="6.787108">
        <ele>1801.562</ele>
        <time>2018-07-11T11:47:22Z</time>
      </trkpt>
      <trkpt lat="46.005993" lon="6.787163">
        <ele>1801.108</ele>
        <time>2018-07-11T11:47:27Z</time>
      </trkpt>
      <trkpt lat="46.005953" lon="6.787206">
        <ele>1800.508</ele>
        <time>2018-07-11T11:47:33Z</time>
      </trkpt>
      <trkpt lat="46.005911" lon="6.787251">
        <ele>1799.484</ele>
        <time>2018-07-11T11:47:39Z</time>
      </trkpt>
      <trkpt lat="46.005875" lon="6.787295">
        <ele>1799.068</ele>
        <time>2018-07-11T11:47:44Z</time>
      </trkpt>
      <trkpt lat="46.005842" lon="6.787348">
        <ele>1798.456</ele>
        <time>2018-07-11T11:47:49Z</time>
      </trkpt>
      <trkpt lat="46.005821" lon="6.787417">
        <ele>1797.965</ele>
        <time>2018-07-11T11:47:55Z</time>
      </trkpt>
      <trkpt lat="46.005795" lon="6.787473">
        <ele>1798.236</ele>
        <time>2018-07-11T11:48:02Z</time>
      </trkpt>
      <trkpt lat="46.005747" lon="6.787514">
        <ele>1800.392</ele>
        <time>2018-07-11T11:48:09Z</time>
      </trkpt>
      <trkpt lat="46.005716" lon="6.787578">
        <ele>1798.992</ele>
        <time>2018-07-11T11:48:15Z</time>
      </trkpt>
      <trkpt lat="46.005689" lon="6.787648">
        <ele>1799.886</ele>
        <time>2018-07-11T11:48:20Z</time>
      </trkpt>
      <trkpt lat="46.005665" lon="6.787713">
        <ele>1799.363</ele>
        <time>2018-07-11T11:48:25Z</time>
      </trkpt>
      <trkpt lat="46.005640" lon="6.787779">
        <ele>1799.244</ele>
        <time>2018-07-11T11:48:30Z</time>
      </trkpt>
      <trkpt lat="46.005617" lon="6.787847">
        <ele>1799.718</ele>
        <time>2018-07-11T11:48:35Z</time>
      </trkpt>
      <trkpt lat="46.005597" lon="6.787917">
        <ele>1799.708</ele>
        <time>2018-07-11T11:48:40Z</time>
      </trkpt>
      <trkpt lat="46.005559" lon="6.787971">
        <ele>1799.828</ele>
        <time>2018-07-11T11:48:45Z</time>
      </trkpt>
      <trkpt lat="46.005521" lon="6.788029">
        <ele>1801.342</ele>
        <time>2018-07-11T11:48:50Z</time>
      </trkpt>
      <trkpt lat="46.005493" lon="6.788095">
        <ele>1802.410</ele>
        <time>2018-07-11T11:48:55Z</time>
      </trkpt>
      <trkpt lat="46.005463" lon="6.788161">
        <ele>1800.489</ele>
        <time>2018-07-11T11:49:00Z</time>
      </trkpt>
      <trkpt lat="46.005436" lon="6.788221">
        <ele>1801.330</ele>
        <time>2018-07-11T11:49:05Z</time>
      </trkpt>
      <trkpt lat="46.005399" lon="6.788265">
        <ele>1801.386</ele>
        <time>2018-07-11T11:49:11Z</time>
      </trkpt>
      <trkpt lat="46.005361" lon="6.788302">
        <ele>1801.946</ele>
        <time>2018-07-11T11:49:16Z</time>
      </trkpt>
      <trkpt lat="46.005314" lon="6.788330">
        <ele>1802.230</ele>
        <time>2018-07-11T11:49:22Z</time>
      </trkpt>
      <trkpt lat="46.005265" lon="6.788355">
        <ele>1804.078</ele>
        <time>2018-07-11T11:49:27Z</time>
      </trkpt>
      <trkpt lat="46.005223" lon="6.788381">
        <ele>1803.933</ele>
        <time>2018-07-11T11:49:32Z</time>
      </trkpt>
      <trkpt lat="46.005201" lon="6.788440">
        <ele>1801.926</ele>
        <time>2018-07-11T11:49:37Z</time>
      </trkpt>
      <trkpt lat="46.005204" lon="6.788505">
        <ele>1802.008</ele>
        <time>2018-07-11T11:49:42Z</time>
      </trkpt>
      <trkpt lat="46.005173" lon="6.788559">
        <ele>1801.849</ele>
        <time>2018-07-11T11:49:48Z</time>
      </trkpt>
      <trkpt lat="46.005122" lon="6.788577">
        <ele>1801.753</ele>
        <time>2018-07-11T11:49:56Z</time>
      </trkpt>
      <trkpt lat="46.005099" lon="6.788641">
        <ele>1801.991</ele>
        <time>2018-07-11T11:50:01Z</time>
      </trkpt>
      <trkpt lat="46.005084" lon="6.788704">
        <ele>1802.380</ele>
        <time>2018-07-11T11:50:05Z</time>
      </trkpt>
      <trkpt lat="46.005064" lon="6.788777">
        <ele>1802.181</ele>
        <time>2018-07-11T11:50:10Z</time>
      </trkpt>
      <trkpt lat="46.005038" lon="6.788832">
        <ele>1802.517</ele>
        <time>2018-07-11T11:50:14Z</time>
      </trkpt>
      <trkpt lat="46.005008" lon="6.788886">
        <ele>1802.617</ele>
        <time>2018-07-11T11:50:18Z</time>
      </trkpt>
      <trkpt lat="46.004974" lon="6.788950">
        <ele>1802.711</ele>
        <time>2018-07-11T11:50:23Z</time>
      </trkpt>
      <trkpt lat="46.004947" lon="6.789006">
        <ele>1802.547</ele>
        <time>2018-07-11T11:50:27Z</time>
      </trkpt>
      <trkpt lat="46.004912" lon="6.789067">
        <ele>1802.829</ele>
        <time>2018-07-11T11:50:32Z</time>
      </trkpt>
      <trkpt lat="46.004891" lon="6.789129">
        <ele>1803.321</ele>
        <time>2018-07-11T11:50:37Z</time>
      </trkpt>
      <trkpt lat="46.004862" lon="6.789190">
        <ele>1803.308</ele>
        <time>2018-07-11T11:50:42Z</time>
      </trkpt>
      <trkpt lat="46.004832" lon="6.789247">
        <ele>1803.326</ele>
        <time>2018-07-11T11:50:47Z</time>
      </trkpt>
      <trkpt lat="46.004807" lon="6.789306">
        <ele>1803.420</ele>
        <time>2018-07-11T11:50:52Z</time>
      </trkpt>
      <trkpt lat="46.004792" lon="6.789379">
        <ele>1804.958</ele>
        <time>2018-07-11T11:50:59Z</time>
      </trkpt>
      <trkpt lat="46.004769" lon="6.789436">
        <ele>1804.857</ele>
        <time>2018-07-11T11:51:04Z</time>
      </trkpt>
      <trkpt lat="46.004752" lon="6.789510">
        <ele>1804.858</ele>
        <time>2018-07-11T11:51:12Z</time>
      </trkpt>
      <trkpt lat="46.004758" lon="6.789578">
        <ele>1806.414</ele>
        <time>2018-07-11T11:51:19Z</time>
      </trkpt>
      <trkpt lat="46.004780" lon="6.789637">
        <ele>1807.484</ele>
        <time>2018-07-11T11:51:26Z</time>
      </trkpt>
      <trkpt lat="46.004795" lon="6.789702">
        <ele>1807.898</ele>
        <time>2018-07-11T11:51:35Z</time>
      </trkpt>
      <trkpt lat="46.004786" lon="6.789797">
        <ele>1807.887</ele>
        <time>2018-07-11T11:51:41Z</time>
      </trkpt>
      <trkpt lat="46.004800" lon="6.789860">
        <ele>1805.642</ele>
        <time>2018-07-11T11:52:03Z</time>
      </trkpt>
      <trkpt lat="46.004817" lon="6.789925">
        <ele>1804.926</ele>
        <time>2018-07-11T11:52:27Z</time>
      </trkpt>
      <trkpt lat="46.004830" lon="6.789989">
        <ele>1805.208</ele>
        <time>2018-07-11T11:52:32Z</time>
      </trkpt>
      <trkpt lat="46.004839" lon="6.790063">
        <ele>1805.350</ele>
        <time>2018-07-11T11:52:37Z</time>
      </trkpt>
      <trkpt lat="46.004844" lon="6.790137">
        <ele>1805.334</ele>
        <time>2018-07-11T11:52:42Z</time>
      </trkpt>
      <trkpt lat="46.004853" lon="6.790215">
        <ele>1805.622</ele>
        <time>2018-07-11T11:52:47Z</time>
      </trkpt>
      <trkpt lat="46.004855" lon="6.790293">
        <ele>1806.331</ele>
        <time>2018-07-11T11:52:52Z</time>
      </trkpt>
      <trkpt lat="46.004854" lon="6.790370">
        <ele>1805.752</ele>
        <time>2018-07-11T11:52:57Z</time>
      </trkpt>
      <trkpt lat="46.004858" lon="6.790436">
        <ele>1806.018</ele>
        <time>2018-07-11T11:53:01Z</time>
      </trkpt>
      <trkpt lat="46.004864" lon="6.790501">
        <ele>1807.178</ele>
        <time>2018-07-11T11:53:05Z</time>
      </trkpt>
      <trkpt lat="46.004867" lon="6.790578">
        <ele>1806.552</ele>
        <time>2018-07-11T11:53:10Z</time>
      </trkpt>
      <trkpt lat="46.004854" lon="6.790641">
        <ele>1806.649</ele>
        <time>2018-07-11T11:53:14Z</time>
      </trkpt>
      <trkpt lat="46.004841" lon="6.790706">
        <ele>1806.702</ele>
        <time>2018-07-11T11:53:18Z</time>
      </trkpt>
      <trkpt lat="46.004832" lon="6.790772">
        <ele>1806.722</ele>
        <time>2018-07-11T11:53:22Z</time>
      </trkpt>
      <trkpt lat="46.004820" lon="6.790845">
        <ele>1806.808</ele>
        <time>2018-07-11T11:53:27Z</time>
      </trkpt>
      <trkpt lat="46.004801" lon="6.790916">
        <ele>1807.116</ele>
        <time>2018-07-11T11:53:32Z</time>
      </trkpt>
      <trkpt lat="46.004777" lon="6.790983">
        <ele>1807.590</ele>
        <time>2018-07-11T11:53:37Z</time>
      </trkpt>
      <trkpt lat="46.004753" lon="6.791041">
        <ele>1807.698</ele>
        <time>2018-07-11T11:53:42Z</time>
      </trkpt>
      <trkpt lat="46.004737" lon="6.791115">
        <ele>1808.247</ele>
        <time>2018-07-11T11:53:49Z</time>
      </trkpt>
      <trkpt lat="46.004727" lon="6.791185">
        <ele>1809.068</ele>
        <time>2018-07-11T11:53:58Z</time>
      </trkpt>
      <trkpt lat="46.004686" lon="6.791222">
        <ele>1808.354</ele>
        <time>2018-07-11T11:54:11Z</time>
      </trkpt>
      <trkpt lat="46.004653" lon="6.791267">
        <ele>1808.554</ele>
        <time>2018-07-11T11:54:17Z</time>
      </trkpt>
      <trkpt lat="46.004616" lon="6.791313">
        <ele>1808.688</ele>
        <time>2018-07-11T11:54:23Z</time>
      </trkpt>
      <trkpt lat="46.004571" lon="6.791344">
        <ele>1808.789</ele>
        <time>2018-07-11T11:54:29Z</time>
      </trkpt>
      <trkpt lat="46.004531" lon="6.791383">
        <ele>1809.206</ele>
        <time>2018-07-11T11:54:37Z</time>
      </trkpt>
      <trkpt lat="46.004483" lon="6.791408">
        <ele>1809.426</ele>
        <time>2018-07-11T11:54:45Z</time>
      </trkpt>
      <trkpt lat="46.004438" lon="6.791394">
        <ele>1809.708</ele>
        <time>2018-07-11T11:54:52Z</time>
      </trkpt>
      <trkpt lat="46.004395" lon="6.791357">
        <ele>1810.050</ele>
        <time>2018-07-11T11:55:11Z</time>
      </trkpt>
      <trkpt lat="46.004451" lon="6.791422">
        <ele>1817.564</ele>
        <time>2018-07-11T12:22:12Z</time>
      </trkpt>
      <trkpt lat="46.004487" lon="6.791473">
        <ele>1817.582</ele>
        <time>2018-07-11T12:22:25Z</time>
      </trkpt>
      <trkpt lat="46.004514" lon="6.791530">
        <ele>1818.131</ele>
        <time>2018-07-11T12:22:31Z</time>
      </trkpt>
      <trkpt lat="46.004542" lon="6.791583">
        <ele>1818.532</ele>
        <time>2018-07-11T12:22:39Z</time>
      </trkpt>
      <trkpt lat="46.004515" lon="6.791645">
        <ele>1818.428</ele>
        <time>2018-07-11T12:22:49Z</time>
      </trkpt>
      <trkpt lat="46.004496" lon="6.791711">
        <ele>1819.148</ele>
        <time>2018-07-11T12:22:56Z</time>
      </trkpt>
      <trkpt lat="46.004468" lon="6.791773">
        <ele>1819.472</ele>
        <time>2018-07-11T12:23:02Z</time>
      </trkpt>
      <trkpt lat="46.004449" lon="6.791841">
        <ele>1819.832</ele>
        <time>2018-07-11T12:23:08Z</time>
      </trkpt>
      <trkpt lat="46.004422" lon="6.791900">
        <ele>1820.092</ele>
        <time>2018-07-11T12:23:14Z</time>
      </trkpt>
      <trkpt lat="46.004382" lon="6.791947">
        <ele>1820.711</ele>
        <time>2018-07-11T12:23:20Z</time>
      </trkpt>
      <trkpt lat="46.004340" lon="6.791978">
        <ele>1820.908</ele>
        <time>2018-07-11T12:23:25Z</time>
      </trkpt>
      <trkpt lat="46.004297" lon="6.792009">
        <ele>1821.435</ele>
        <time>2018-07-11T12:23:31Z</time>
      </trkpt>
      <trkpt lat="46.004248" lon="6.792030">
        <ele>1821.559</ele>
        <time>2018-07-11T12:23:37Z</time>
      </trkpt>
      <trkpt lat="46.004203" lon="6.792036">
        <ele>1821.777</ele>
        <time>2018-07-11T12:23:42Z</time>
      </trkpt>
      <trkpt lat="46.004158" lon="6.792064">
        <ele>1822.146</ele>
        <time>2018-07-11T12:23:47Z</time>
      </trkpt>
      <trkpt lat="46.004118" lon="6.792098">
        <ele>1822.717</ele>
        <time>2018-07-11T12:23:52Z</time>
      </trkpt>
      <trkpt lat="46.004074" lon="6.792138">
        <ele>1825.473</ele>
        <time>2018-07-11T12:23:57Z</time>
      </trkpt>
      <trkpt lat="46.004036" lon="6.792187">
        <ele>1823.373</ele>
        <time>2018-07-11T12:24:02Z</time>
      </trkpt>
      <trkpt lat="46.003996" lon="6.792218">
        <ele>1823.247</ele>
        <time>2018-07-11T12:24:08Z</time>
      </trkpt>
      <trkpt lat="46.003963" lon="6.792262">
        <ele>1824.046</ele>
        <time>2018-07-11T12:24:13Z</time>
      </trkpt>
      <trkpt lat="46.003928" lon="6.792305">
        <ele>1824.188</ele>
        <time>2018-07-11T12:24:18Z</time>
      </trkpt>
      <trkpt lat="46.003890" lon="6.792359">
        <ele>1826.816</ele>
        <time>2018-07-11T12:24:24Z</time>
      </trkpt>
      <trkpt lat="46.003853" lon="6.792403">
        <ele>1827.308</ele>
        <time>2018-07-11T12:24:30Z</time>
      </trkpt>
      <trkpt lat="46.003820" lon="6.792455">
        <ele>1827.576</ele>
        <time>2018-07-11T12:24:35Z</time>
      </trkpt>
      <trkpt lat="46.003783" lon="6.792508">
        <ele>1828.040</ele>
        <time>2018-07-11T12:24:41Z</time>
      </trkpt>
      <trkpt lat="46.003738" lon="6.792539">
        <ele>1828.288</ele>
        <time>2018-07-11T12:24:47Z</time>
      </trkpt>
      <trkpt lat="46.003696" lon="6.792563">
        <ele>1828.087</ele>
        <time>2018-07-11T12:24:52Z</time>
      </trkpt>
      <trkpt lat="46.003647" lon="6.792592">
        <ele>1827.858</ele>
        <time>2018-07-11T12:24:57Z</time>
      </trkpt>
      <trkpt lat="46.003598" lon="6.792590">
        <ele>1826.844</ele>
        <time>2018-07-11T12:25:02Z</time>
      </trkpt>
      <trkpt lat="46.003555" lon="6.792565">
        <ele>1826.054</ele>
        <time>2018-07-11T12:25:08Z</time>
      </trkpt>
      <trkpt lat="46.003506" lon="6.792551">
        <ele>1826.138</ele>
        <time>2018-07-11T12:26:00Z</time>
      </trkpt>
      <trkpt lat="46.003461" lon="6.792540">
        <ele>1828.171</ele>
        <time>2018-07-11T12:26:17Z</time>
      </trkpt>
      <trkpt lat="46.003417" lon="6.792504">
        <ele>1828.341</ele>
        <time>2018-07-11T12:26:31Z</time>
      </trkpt>
      <trkpt lat="46.003384" lon="6.792557">
        <ele>1830.015</ele>
        <time>2018-07-11T12:26:46Z</time>
      </trkpt>
      <trkpt lat="46.003342" lon="6.792586">
        <ele>1830.308</ele>
        <time>2018-07-11T12:26:52Z</time>
      </trkpt>
      <trkpt lat="46.003355" lon="6.792657">
        <ele>1831.489</ele>
        <time>2018-07-11T12:27:10Z</time>
      </trkpt>
      <trkpt lat="46.003321" lon="6.792704">
        <ele>1831.543</ele>
        <time>2018-07-11T12:27:19Z</time>
      </trkpt>
      <trkpt lat="46.003359" lon="6.792748">
        <ele>1832.731</ele>
        <time>2018-07-11T12:27:32Z</time>
      </trkpt>
      <trkpt lat="46.003353" lon="6.792815">
        <ele>1833.470</ele>
        <time>2018-07-11T12:27:43Z</time>
      </trkpt>
      <trkpt lat="46.003306" lon="6.792812">
        <ele>1834.951</ele>
        <time>2018-07-11T12:28:01Z</time>
      </trkpt>
      <trkpt lat="46.003260" lon="6.792831">
        <ele>1838.327</ele>
        <time>2018-07-11T12:28:19Z</time>
      </trkpt>
      <trkpt lat="46.003212" lon="6.792820">
        <ele>1839.337</ele>
        <time>2018-07-11T12:28:37Z</time>
      </trkpt>
      <trkpt lat="46.003162" lon="6.792809">
        <ele>1840.631</ele>
        <time>2018-07-11T12:28:48Z</time>
      </trkpt>
      <trkpt lat="46.003117" lon="6.792801">
        <ele>1841.347</ele>
        <time>2018-07-11T12:28:58Z</time>
      </trkpt>
      <trkpt lat="46.003073" lon="6.792771">
        <ele>1842.529</ele>
        <time>2018-07-11T12:29:08Z</time>
      </trkpt>
      <trkpt lat="46.003026" lon="6.792770">
        <ele>1844.821</ele>
        <time>2018-07-11T12:29:23Z</time>
      </trkpt>
      <trkpt lat="46.002983" lon="6.792741">
        <ele>1847.408</ele>
        <time>2018-07-11T12:29:41Z</time>
      </trkpt>
      <trkpt lat="46.002941" lon="6.792707">
        <ele>1847.216</ele>
        <time>2018-07-11T12:29:55Z</time>
      </trkpt>
      <trkpt lat="46.002898" lon="6.792674">
        <ele>1849.060</ele>
        <time>2018-07-11T12:30:17Z</time>
      </trkpt>
      <trkpt lat="46.002853" lon="6.792662">
        <ele>1850.758</ele>
        <time>2018-07-11T12:30:31Z</time>
      </trkpt>
      <trkpt lat="46.002807" lon="6.792654">
        <ele>1851.957</ele>
        <time>2018-07-11T12:30:43Z</time>
      </trkpt>
      <trkpt lat="46.002767" lon="6.792617">
        <ele>1854.518</ele>
        <time>2018-07-11T12:30:54Z</time>
      </trkpt>
      <trkpt lat="46.002722" lon="6.792602">
        <ele>1856.344</ele>
        <time>2018-07-11T12:31:10Z</time>
      </trkpt>
      <trkpt lat="46.002677" lon="6.792591">
        <ele>1857.254</ele>
        <time>2018-07-11T12:31:21Z</time>
      </trkpt>
      <trkpt lat="46.002637" lon="6.792555">
        <ele>1858.388</ele>
        <time>2018-07-11T12:31:32Z</time>
      </trkpt>
      <trkpt lat="46.002595" lon="6.792526">
        <ele>1857.736</ele>
        <time>2018-07-11T12:31:47Z</time>
      </trkpt>
      <trkpt lat="46.002552" lon="6.792503">
        <ele>1858.617</ele>
        <time>2018-07-11T12:31:59Z</time>
      </trkpt>
      <trkpt lat="46.002507" lon="6.792478">
        <ele>1862.318</ele>
        <time>2018-07-11T12:32:12Z</time>
      </trkpt>
      <trkpt lat="46.002464" lon="6.792452">
        <ele>1863.208</ele>
        <time>2018-07-11T12:32:21Z</time>
      </trkpt>
      <trkpt lat="46.002419" lon="6.792435">
        <ele>1862.955</ele>
        <time>2018-07-11T12:32:38Z</time>
      </trkpt>
      <trkpt lat="46.002372" lon="6.792414">
        <ele>1865.969</ele>
        <time>2018-07-11T12:32:49Z</time>
      </trkpt>
      <trkpt lat="46.002323" lon="6.792409">
        <ele>1866.647</ele>
        <time>2018-07-11T12:33:01Z</time>
      </trkpt>
      <trkpt lat="46.002279" lon="6.792384">
        <ele>1867.576</ele>
        <time>2018-07-11T12:33:15Z</time>
      </trkpt>
      <trkpt lat="46.002234" lon="6.792377">
        <ele>1869.217</ele>
        <time>2018-07-11T12:33:30Z</time>
      </trkpt>
      <trkpt lat="46.002187" lon="6.792393">
        <ele>1871.453</ele>
        <time>2018-07-11T12:33:56Z</time>
      </trkpt>
      <trkpt lat="46.002142" lon="6.792383">
        <ele>1872.323</ele>
        <time>2018-07-11T12:34:06Z</time>
      </trkpt>
      <trkpt lat="46.002101" lon="6.792348">
        <ele>1873.867</ele>
        <time>2018-07-11T12:34:25Z</time>
      </trkpt>
      <trkpt lat="46.002066" lon="6.792296">
        <ele>1875.775</ele>
        <time>2018-07-11T12:34:40Z</time>
      </trkpt>
      <trkpt lat="46.002035" lon="6.792243">
        <ele>1876.428</ele>
        <time>2018-07-11T12:34:48Z</time>
      </trkpt>
      <trkpt lat="46.001999" lon="6.792195">
        <ele>1877.220</ele>
        <time>2018-07-11T12:34:59Z</time>
      </trkpt>
      <trkpt lat="46.001953" lon="6.792189">
        <ele>1878.808</ele>
        <time>2018-07-11T12:35:11Z</time>
      </trkpt>
      <trkpt lat="46.001943" lon="6.792257">
        <ele>1879.459</ele>
        <time>2018-07-11T12:35:37Z</time>
      </trkpt>
      <trkpt lat="46.001939" lon="6.792327">
        <ele>1881.923</ele>
        <time>2018-07-11T12:35:50Z</time>
      </trkpt>
      <trkpt lat="46.001898" lon="6.792297">
        <ele>1885.531</ele>
        <time>2018-07-11T12:36:22Z</time>
      </trkpt>
      <trkpt lat="46.001886" lon="6.792369">
        <ele>1887.190</ele>
        <time>2018-07-11T12:36:37Z</time>
      </trkpt>
      <trkpt lat="46.001890" lon="6.792442">
        <ele>1885.141</ele>
        <time>2018-07-11T12:36:45Z</time>
      </trkpt>
      <trkpt lat="46.001892" lon="6.792509">
        <ele>1886.067</ele>
        <time>2018-07-11T12:36:52Z</time>
      </trkpt>
      <trkpt lat="46.001891" lon="6.792577">
        <ele>1887.417</ele>
        <time>2018-07-11T12:37:04Z</time>
      </trkpt>
      <trkpt lat="46.001916" lon="6.792633">
        <ele>1887.681</ele>
        <time>2018-07-11T12:37:14Z</time>
      </trkpt>
      <trkpt lat="46.001933" lon="6.792694">
        <ele>1889.139</ele>
        <time>2018-07-11T12:37:26Z</time>
      </trkpt>
      <trkpt lat="46.001938" lon="6.792761">
        <ele>1891.301</ele>
        <time>2018-07-11T12:37:42Z</time>
      </trkpt>
      <trkpt lat="46.001956" lon="6.792823">
        <ele>1893.621</ele>
        <time>2018-07-11T12:38:00Z</time>
      </trkpt>
      <trkpt lat="46.001953" lon="6.792891">
        <ele>1894.608</ele>
        <time>2018-07-11T12:38:16Z</time>
      </trkpt>
      <trkpt lat="46.001954" lon="6.792956">
        <ele>1895.815</ele>
        <time>2018-07-11T12:38:28Z</time>
      </trkpt>
      <trkpt lat="46.001975" lon="6.793014">
        <ele>1898.969</ele>
        <time>2018-07-11T12:38:35Z</time>
      </trkpt>
      <trkpt lat="46.001967" lon="6.793083">
        <ele>1900.277</ele>
        <time>2018-07-11T12:38:50Z</time>
      </trkpt>
      <trkpt lat="46.001993" lon="6.793141">
        <ele>1900.586</ele>
        <time>2018-07-11T12:39:01Z</time>
      </trkpt>
      <trkpt lat="46.002017" lon="6.793203">
        <ele>1902.617</ele>
        <time>2018-07-11T12:39:22Z</time>
      </trkpt>
      <trkpt lat="46.002029" lon="6.793272">
        <ele>1904.423</ele>
        <time>2018-07-11T12:39:39Z</time>
      </trkpt>
      <trkpt lat="46.002032" lon="6.793344">
        <ele>1905.533</ele>
        <time>2018-07-11T12:39:50Z</time>
      </trkpt>
      <trkpt lat="46.002055" lon="6.793403">
        <ele>1904.267</ele>
        <time>2018-07-11T12:40:06Z</time>
      </trkpt>
      <trkpt lat="46.002070" lon="6.793467">
        <ele>1907.565</ele>
        <time>2018-07-11T12:40:17Z</time>
      </trkpt>
      <trkpt lat="46.002083" lon="6.793532">
        <ele>1908.968</ele>
        <time>2018-07-11T12:40:30Z</time>
      </trkpt>
      <trkpt lat="46.002090" lon="6.793602">
        <ele>1909.914</ele>
        <time>2018-07-11T12:40:42Z</time>
      </trkpt>
      <trkpt lat="46.002112" lon="6.793659">
        <ele>1912.608</ele>
        <time>2018-07-11T12:41:07Z</time>
      </trkpt>
      <trkpt lat="46.002126" lon="6.793723">
        <ele>1914.168</ele>
        <time>2018-07-11T12:41:21Z</time>
      </trkpt>
      <trkpt lat="46.002136" lon="6.793787">
        <ele>1916.552</ele>
        <time>2018-07-11T12:41:35Z</time>
      </trkpt>
      <trkpt lat="46.002152" lon="6.793848">
        <ele>1918.110</ele>
        <time>2018-07-11T12:41:52Z</time>
      </trkpt>
      <trkpt lat="46.002156" lon="6.793913">
        <ele>1918.899</ele>
        <time>2018-07-11T12:42:05Z</time>
      </trkpt>
      <trkpt lat="46.002152" lon="6.793978">
        <ele>1920.370</ele>
        <time>2018-07-11T12:42:26Z</time>
      </trkpt>
      <trkpt lat="46.002188" lon="6.794021">
        <ele>1921.926</ele>
        <time>2018-07-11T12:42:36Z</time>
      </trkpt>
      <trkpt lat="46.002189" lon="6.794087">
        <ele>1923.526</ele>
        <time>2018-07-11T12:42:51Z</time>
      </trkpt>
      <trkpt lat="46.002179" lon="6.794152">
        <ele>1924.840</ele>
        <time>2018-07-11T12:43:05Z</time>
      </trkpt>
      <trkpt lat="46.002188" lon="6.794217">
        <ele>1926.097</ele>
        <time>2018-07-11T12:43:18Z</time>
      </trkpt>
      <trkpt lat="46.002180" lon="6.794282">
        <ele>1927.023</ele>
        <time>2018-07-11T12:43:27Z</time>
      </trkpt>
      <trkpt lat="46.002153" lon="6.794337">
        <ele>1928.725</ele>
        <time>2018-07-11T12:43:48Z</time>
      </trkpt>
      <trkpt lat="46.002166" lon="6.794401">
        <ele>1929.908</ele>
        <time>2018-07-11T12:43:59Z</time>
      </trkpt>
      <trkpt lat="46.002173" lon="6.794471">
        <ele>1931.991</ele>
        <time>2018-07-11T12:44:16Z</time>
      </trkpt>
      <trkpt lat="46.002166" lon="6.794536">
        <ele>1932.635</ele>
        <time>2018-07-11T12:44:28Z</time>
      </trkpt>
      <trkpt lat="46.002169" lon="6.794607">
        <ele>1933.293</ele>
        <time>2018-07-11T12:44:36Z</time>
      </trkpt>
      <trkpt lat="46.002165" lon="6.794676">
        <ele>1933.362</ele>
        <time>2018-07-11T12:44:44Z</time>
      </trkpt>
      <trkpt lat="46.002172" lon="6.794741">
        <ele>1933.963</ele>
        <time>2018-07-11T12:44:54Z</time>
      </trkpt>
      <trkpt lat="46.002164" lon="6.794806">
        <ele>1935.479</ele>
        <time>2018-07-11T12:45:11Z</time>
      </trkpt>
      <trkpt lat="46.002179" lon="6.794871">
        <ele>1935.639</ele>
        <time>2018-07-11T12:45:21Z</time>
      </trkpt>
      <trkpt lat="46.002183" lon="6.794965">
        <ele>1936.313</ele>
        <time>2018-07-11T12:45:37Z</time>
      </trkpt>
      <trkpt lat="46.002195" lon="6.795034">
        <ele>1938.291</ele>
        <time>2018-07-11T12:47:35Z</time>
      </trkpt>
      <trkpt lat="46.002191" lon="6.795099">
        <ele>1939.881</ele>
        <time>2018-07-11T12:47:49Z</time>
      </trkpt>
      <trkpt lat="46.002186" lon="6.795164">
        <ele>1941.019</ele>
        <time>2018-07-11T12:48:01Z</time>
      </trkpt>
      <trkpt lat="46.002174" lon="6.795227">
        <ele>1942.808</ele>
        <time>2018-07-11T12:48:21Z</time>
      </trkpt>
      <trkpt lat="46.002168" lon="6.795295">
        <ele>1943.991</ele>
        <time>2018-07-11T12:48:36Z</time>
      </trkpt>
      <trkpt lat="46.002163" lon="6.795367">
        <ele>1945.925</ele>
        <time>2018-07-11T12:48:57Z</time>
      </trkpt>
      <trkpt lat="46.002133" lon="6.795415">
        <ele>1947.333</ele>
        <time>2018-07-11T12:49:09Z</time>
      </trkpt>
      <trkpt lat="46.002157" lon="6.795476">
        <ele>1947.182</ele>
        <time>2018-07-11T12:49:26Z</time>
      </trkpt>
      <trkpt lat="46.002118" lon="6.795526">
        <ele>1951.853</ele>
        <time>2018-07-11T12:50:07Z</time>
      </trkpt>
      <trkpt lat="46.002100" lon="6.795587">
        <ele>1953.559</ele>
        <time>2018-07-11T12:50:24Z</time>
      </trkpt>
      <trkpt lat="46.002119" lon="6.795647">
        <ele>1955.429</ele>
        <time>2018-07-11T12:50:42Z</time>
      </trkpt>
      <trkpt lat="46.002106" lon="6.795717">
        <ele>1956.343</ele>
        <time>2018-07-11T12:50:57Z</time>
      </trkpt>
      <trkpt lat="46.002099" lon="6.795784">
        <ele>1956.835</ele>
        <time>2018-07-11T12:51:12Z</time>
      </trkpt>
      <trkpt lat="46.002051" lon="6.795776">
        <ele>1962.486</ele>
        <time>2018-07-11T12:51:47Z</time>
      </trkpt>
      <trkpt lat="46.002001" lon="6.795784">
        <ele>1961.614</ele>
        <time>2018-07-11T12:51:59Z</time>
      </trkpt>
      <trkpt lat="46.001980" lon="6.795842">
        <ele>1966.308</ele>
        <time>2018-07-11T12:52:40Z</time>
      </trkpt>
      <trkpt lat="46.001998" lon="6.795907">
        <ele>1967.095</ele>
        <time>2018-07-11T12:52:49Z</time>
      </trkpt>
      <trkpt lat="46.002012" lon="6.795970">
        <ele>1966.999</ele>
        <time>2018-07-11T12:52:58Z</time>
      </trkpt>
      <trkpt lat="46.002015" lon="6.796039">
        <ele>1968.817</ele>
        <time>2018-07-11T12:53:12Z</time>
      </trkpt>
      <trkpt lat="46.002018" lon="6.796104">
        <ele>1969.716</ele>
        <time>2018-07-11T12:53:24Z</time>
      </trkpt>
      <trkpt lat="46.002002" lon="6.796166">
        <ele>1969.077</ele>
        <time>2018-07-11T12:53:41Z</time>
      </trkpt>
      <trkpt lat="46.001971" lon="6.796214">
        <ele>1970.113</ele>
        <time>2018-07-11T12:53:54Z</time>
      </trkpt>
      <trkpt lat="46.001952" lon="6.796274">
        <ele>1972.863</ele>
        <time>2018-07-11T12:54:03Z</time>
      </trkpt>
      <trkpt lat="46.001941" lon="6.796341">
        <ele>1973.317</ele>
        <time>2018-07-11T12:54:16Z</time>
      </trkpt>
      <trkpt lat="46.001956" lon="6.796406">
        <ele>1975.312</ele>
        <time>2018-07-11T12:54:30Z</time>
      </trkpt>
      <trkpt lat="46.001979" lon="6.796469">
        <ele>1977.432</ele>
        <time>2018-07-11T12:54:49Z</time>
      </trkpt>
      <trkpt lat="46.002013" lon="6.796515">
        <ele>1978.105</ele>
        <time>2018-07-11T12:54:59Z</time>
      </trkpt>
      <trkpt lat="46.002044" lon="6.796562">
        <ele>1978.608</ele>
        <time>2018-07-11T12:55:06Z</time>
      </trkpt>
      <trkpt lat="46.002059" lon="6.796626">
        <ele>1979.393</ele>
        <time>2018-07-11T12:55:16Z</time>
      </trkpt>
      <trkpt lat="46.002085" lon="6.796684">
        <ele>1980.227</ele>
        <time>2018-07-11T12:55:26Z</time>
      </trkpt>
      <trkpt lat="46.002113" lon="6.796741">
        <ele>1981.015</ele>
        <time>2018-07-11T12:55:36Z</time>
      </trkpt>
      <trkpt lat="46.002129" lon="6.796806">
        <ele>1982.734</ele>
        <time>2018-07-11T12:55:49Z</time>
      </trkpt>
      <trkpt lat="46.002151" lon="6.796867">
        <ele>1983.985</ele>
        <time>2018-07-11T12:56:04Z</time>
      </trkpt>
      <trkpt lat="46.002164" lon="6.796934">
        <ele>1985.351</ele>
        <time>2018-07-11T12:56:21Z</time>
      </trkpt>
      <trkpt lat="46.002184" lon="6.797002">
        <ele>1986.361</ele>
        <time>2018-07-11T12:56:34Z</time>
      </trkpt>
      <trkpt lat="46.002193" lon="6.797067">
        <ele>1987.655</ele>
        <time>2018-07-11T12:56:47Z</time>
      </trkpt>
      <trkpt lat="46.002196" lon="6.797138">
        <ele>1988.439</ele>
        <time>2018-07-11T12:56:57Z</time>
      </trkpt>
      <trkpt lat="46.002206" lon="6.797206">
        <ele>1989.201</ele>
        <time>2018-07-11T12:57:07Z</time>
      </trkpt>
      <trkpt lat="46.002190" lon="6.797271">
        <ele>1990.421</ele>
        <time>2018-07-11T12:57:19Z</time>
      </trkpt>
      <trkpt lat="46.002168" lon="6.797331">
        <ele>1992.008</ele>
        <time>2018-07-11T12:57:31Z</time>
      </trkpt>
      <trkpt lat="46.002178" lon="6.797397">
        <ele>1993.035</ele>
        <time>2018-07-11T12:57:39Z</time>
      </trkpt>
      <trkpt lat="46.002133" lon="6.797381">
        <ele>1995.499</ele>
        <time>2018-07-11T12:58:03Z</time>
      </trkpt>
      <trkpt lat="46.002088" lon="6.797382">
        <ele>1996.087</ele>
        <time>2018-07-11T12:58:13Z</time>
      </trkpt>
      <trkpt lat="46.002063" lon="6.797325">
        <ele>1997.226</ele>
        <time>2018-07-11T13:01:24Z</time>
      </trkpt>
      <trkpt lat="46.002012" lon="6.797318">
        <ele>1997.257</ele>
        <time>2018-07-11T13:01:43Z</time>
      </trkpt>
      <trkpt lat="46.001962" lon="6.797314">
        <ele>1997.263</ele>
        <time>2018-07-11T13:01:50Z</time>
      </trkpt>
      <trkpt lat="46.001913" lon="6.797321">
        <ele>1997.563</ele>
        <time>2018-07-11T13:01:59Z</time>
      </trkpt>
      <trkpt lat="46.001864" lon="6.797330">
        <ele>1997.927</ele>
        <time>2018-07-11T13:02:08Z</time>
      </trkpt>
      <trkpt lat="46.001821" lon="6.797310">
        <ele>1998.243</ele>
        <time>2018-07-11T13:02:17Z</time>
      </trkpt>
      <trkpt lat="46.001795" lon="6.797255">
        <ele>1999.064</ele>
        <time>2018-07-11T13:02:26Z</time>
      </trkpt>
      <trkpt lat="46.001750" lon="6.797234">
        <ele>1999.710</ele>
        <time>2018-07-11T13:02:36Z</time>
      </trkpt>
      <trkpt lat="46.001705" lon="6.797218">
        <ele>2000.608</ele>
        <time>2018-07-11T13:02:46Z</time>
      </trkpt>
      <trkpt lat="46.001662" lon="6.797240">
        <ele>2002.316</ele>
        <time>2018-07-11T13:03:02Z</time>
      </trkpt>
      <trkpt lat="46.001614" lon="6.797236">
        <ele>2004.020</ele>
        <time>2018-07-11T13:03:18Z</time>
      </trkpt>
      <trkpt lat="46.001571" lon="6.797264">
        <ele>2005.448</ele>
        <time>2018-07-11T13:03:34Z</time>
      </trkpt>
      <trkpt lat="46.001524" lon="6.797272">
        <ele>2006.617</ele>
        <time>2018-07-11T13:03:47Z</time>
      </trkpt>
      <trkpt lat="46.001475" lon="6.797285">
        <ele>2008.148</ele>
        <time>2018-07-11T13:04:01Z</time>
      </trkpt>
      <trkpt lat="46.001489" lon="6.797347">
        <ele>2010.664</ele>
        <time>2018-07-11T13:04:30Z</time>
      </trkpt>
      <trkpt lat="46.001524" lon="6.797398">
        <ele>2011.584</ele>
        <time>2018-07-11T13:04:42Z</time>
      </trkpt>
      <trkpt lat="46.001524" lon="6.797464">
        <ele>2012.988</ele>
        <time>2018-07-11T13:04:56Z</time>
      </trkpt>
      <trkpt lat="46.001544" lon="6.797527">
        <ele>2014.024</ele>
        <time>2018-07-11T13:05:11Z</time>
      </trkpt>
      <trkpt lat="46.001560" lon="6.797589">
        <ele>2015.504</ele>
        <time>2018-07-11T13:05:26Z</time>
      </trkpt>
      <trkpt lat="46.001604" lon="6.797612">
        <ele>2015.914</ele>
        <time>2018-07-11T13:05:35Z</time>
      </trkpt>
      <trkpt lat="46.001629" lon="6.797671">
        <ele>2017.308</ele>
        <time>2018-07-11T13:05:50Z</time>
      </trkpt>
      <trkpt lat="46.001637" lon="6.797736">
        <ele>2018.324</ele>
        <time>2018-07-11T13:06:04Z</time>
      </trkpt>
      <trkpt lat="46.001665" lon="6.797877">
        <ele>2020.688</ele>
        <time>2018-07-11T13:06:35Z</time>
      </trkpt>
      <trkpt lat="46.001681" lon="6.797938">
        <ele>2022.126</ele>
        <time>2018-07-11T13:06:50Z</time>
      </trkpt>
      <trkpt lat="46.001677" lon="6.798009">
        <ele>2023.735</ele>
        <time>2018-07-11T13:07:15Z</time>
      </trkpt>
      <trkpt lat="46.001679" lon="6.798074">
        <ele>2024.966</ele>
        <time>2018-07-11T13:07:32Z</time>
      </trkpt>
      <trkpt lat="46.001635" lon="6.798097">
        <ele>2028.092</ele>
        <time>2018-07-11T13:08:12Z</time>
      </trkpt>
      <trkpt lat="46.001626" lon="6.798164">
        <ele>2030.112</ele>
        <time>2018-07-11T13:08:30Z</time>
      </trkpt>
      <trkpt lat="46.001589" lon="6.798206">
        <ele>2031.856</ele>
        <time>2018-07-11T13:08:51Z</time>
      </trkpt>
      <trkpt lat="46.001584" lon="6.798272">
        <ele>2033.339</ele>
        <time>2018-07-11T13:09:10Z</time>
      </trkpt>
      <trkpt lat="46.001537" lon="6.798284">
        <ele>2034.701</ele>
        <time>2018-07-11T13:09:56Z</time>
      </trkpt>
      <trkpt lat="46.001489" lon="6.798294">
        <ele>2033.921</ele>
        <time>2018-07-11T13:10:07Z</time>
      </trkpt>
      <trkpt lat="46.001453" lon="6.798246">
        <ele>2036.808</ele>
        <time>2018-07-11T13:10:21Z</time>
      </trkpt>
      <trkpt lat="46.001445" lon="6.798313">
        <ele>2040.245</ele>
        <time>2018-07-11T13:10:50Z</time>
      </trkpt>
      <trkpt lat="46.001438" lon="6.798379">
        <ele>2041.869</ele>
        <time>2018-07-11T13:11:10Z</time>
      </trkpt>
      <trkpt lat="46.001414" lon="6.798446">
        <ele>2042.787</ele>
        <time>2018-07-11T13:11:46Z</time>
      </trkpt>
      <trkpt lat="46.001372" lon="6.798481">
        <ele>2045.246</ele>
        <time>2018-07-11T13:12:13Z</time>
      </trkpt>
      <trkpt lat="46.001329" lon="6.798461">
        <ele>2046.167</ele>
        <time>2018-07-11T13:12:27Z</time>
      </trkpt>
      <trkpt lat="46.001295" lon="6.798506">
        <ele>2048.723</ele>
        <time>2018-07-11T13:12:54Z</time>
      </trkpt>
      <trkpt lat="46.001245" lon="6.798516">
        <ele>2048.733</ele>
        <time>2018-07-11T13:13:24Z</time>
      </trkpt>
      <trkpt lat="46.001200" lon="6.798505">
        <ele>2052.077</ele>
        <time>2018-07-11T13:13:37Z</time>
      </trkpt>
      <trkpt lat="46.001149" lon="6.798507">
        <ele>2053.676</ele>
        <time>2018-07-11T13:13:49Z</time>
      </trkpt>
      <trkpt lat="46.001101" lon="6.798519">
        <ele>2054.790</ele>
        <time>2018-07-11T13:13:58Z</time>
      </trkpt>
      <trkpt lat="46.001051" lon="6.798526">
        <ele>2055.519</ele>
        <time>2018-07-11T13:14:10Z</time>
      </trkpt>
      <trkpt lat="46.001007" lon="6.798510">
        <ele>2054.308</ele>
        <time>2018-07-11T13:14:20Z</time>
      </trkpt>
      <trkpt lat="46.000961" lon="6.798528">
        <ele>2057.399</ele>
        <time>2018-07-11T13:14:34Z</time>
      </trkpt>
      <trkpt lat="46.000915" lon="6.798536">
        <ele>2058.833</ele>
        <time>2018-07-11T13:14:50Z</time>
      </trkpt>
      <trkpt lat="46.000864" lon="6.798539">
        <ele>2060.331</ele>
        <time>2018-07-11T13:15:19Z</time>
      </trkpt>
      <trkpt lat="46.000814" lon="6.798535">
        <ele>2061.020</ele>
        <time>2018-07-11T13:15:30Z</time>
      </trkpt>
      <trkpt lat="46.000767" lon="6.798531">
        <ele>2059.831</ele>
        <time>2018-07-11T13:15:41Z</time>
      </trkpt>
      <trkpt lat="46.000718" lon="6.798502">
        <ele>2063.337</ele>
        <time>2018-07-11T13:15:57Z</time>
      </trkpt>
      <trkpt lat="46.000672" lon="6.798484">
        <ele>2065.627</ele>
        <time>2018-07-11T13:16:18Z</time>
      </trkpt>
      <trkpt lat="46.000627" lon="6.798471">
        <ele>2067.031</ele>
        <time>2018-07-11T13:16:33Z</time>
      </trkpt>
      <trkpt lat="46.000579" lon="6.798473">
        <ele>2069.033</ele>
        <time>2018-07-11T13:17:03Z</time>
      </trkpt>
      <trkpt lat="46.000526" lon="6.798481">
        <ele>2072.223</ele>
        <time>2018-07-11T13:17:37Z</time>
      </trkpt>
      <trkpt lat="46.000480" lon="6.798476">
        <ele>2073.215</ele>
        <time>2018-07-11T13:17:56Z</time>
      </trkpt>
      <trkpt lat="46.000440" lon="6.798446">
        <ele>2073.908</ele>
        <time>2018-07-11T13:18:03Z</time>
      </trkpt>
      <trkpt lat="46.000394" lon="6.798437">
        <ele>2075.825</ele>
        <time>2018-07-11T13:18:21Z</time>
      </trkpt>
      <trkpt lat="46.000349" lon="6.798408">
        <ele>2077.699</ele>
        <time>2018-07-11T13:18:36Z</time>
      </trkpt>
      <trkpt lat="46.000302" lon="6.798403">
        <ele>2076.847</ele>
        <time>2018-07-11T13:18:46Z</time>
      </trkpt>
      <trkpt lat="46.000254" lon="6.798399">
        <ele>2080.126</ele>
        <time>2018-07-11T13:19:00Z</time>
      </trkpt>
      <trkpt lat="46.000206" lon="6.798413">
        <ele>2078.287</ele>
        <time>2018-07-11T13:19:08Z</time>
      </trkpt>
      <trkpt lat="46.000160" lon="6.798423">
        <ele>2078.253</ele>
        <time>2018-07-11T13:19:13Z</time>
      </trkpt>
      <trkpt lat="46.000113" lon="6.798421">
        <ele>2077.923</ele>
        <time>2018-07-11T13:19:19Z</time>
      </trkpt>
      <trkpt lat="46.000062" lon="6.798434">
        <ele>2078.777</ele>
        <time>2018-07-11T13:19:26Z</time>
      </trkpt>
      <trkpt lat="46.000013" lon="6.798439">
        <ele>2079.593</ele>
        <time>2018-07-11T13:19:34Z</time>
      </trkpt>
      <trkpt lat="45.999963" lon="6.798436">
        <ele>2079.865</ele>
        <time>2018-07-11T13:19:41Z</time>
      </trkpt>
      <trkpt lat="45.999914" lon="6.798442">
        <ele>2080.721</ele>
        <time>2018-07-11T13:19:49Z</time>
      </trkpt>
      <trkpt lat="45.999867" lon="6.798447">
        <ele>2080.808</ele>
        <time>2018-07-11T13:19:55Z</time>
      </trkpt>
      <trkpt lat="45.999822" lon="6.798475">
        <ele>2081.751</ele>
        <time>2018-07-11T13:20:03Z</time>
      </trkpt>
      <trkpt lat="45.999781" lon="6.798515">
        <ele>2082.465</ele>
        <time>2018-07-11T13:20:12Z</time>
      </trkpt>
      <trkpt lat="45.999740" lon="6.798563">
        <ele>2083.643</ele>
        <time>2018-07-11T13:20:21Z</time>
      </trkpt>
      <trkpt lat="45.999701" lon="6.798607">
        <ele>2084.732</ele>
        <time>2018-07-11T13:20:31Z</time>
      </trkpt>
      <trkpt lat="45.999653" lon="6.798635">
        <ele>2084.633</ele>
        <time>2018-07-11T13:20:38Z</time>
      </trkpt>
      <trkpt lat="45.999607" lon="6.798668">
        <ele>2084.649</ele>
        <time>2018-07-11T13:20:45Z</time>
      </trkpt>
      <trkpt lat="45.999561" lon="6.798695">
        <ele>2085.269</ele>
        <time>2018-07-11T13:20:52Z</time>
      </trkpt>
      <trkpt lat="45.999530" lon="6.798743">
        <ele>2085.763</ele>
        <time>2018-07-11T13:21:00Z</time>
      </trkpt>
      <trkpt lat="45.999501" lon="6.798793">
        <ele>2086.265</ele>
        <time>2018-07-11T13:21:09Z</time>
      </trkpt>
      <trkpt lat="45.999457" lon="6.798818">
        <ele>2088.168</ele>
        <time>2018-07-11T13:21:16Z</time>
      </trkpt>
      <trkpt lat="45.999414" lon="6.798857">
        <ele>2088.114</ele>
        <time>2018-07-11T13:21:21Z</time>
      </trkpt>
      <trkpt lat="45.999372" lon="6.798899">
        <ele>2087.808</ele>
        <time>2018-07-11T13:21:27Z</time>
      </trkpt>
      <trkpt lat="45.999342" lon="6.798949">
        <ele>2087.718</ele>
        <time>2018-07-11T13:21:33Z</time>
      </trkpt>
      <trkpt lat="45.999311" lon="6.798998">
        <ele>2087.732</ele>
        <time>2018-07-11T13:21:39Z</time>
      </trkpt>
      <trkpt lat="45.999271" lon="6.799045">
        <ele>2087.830</ele>
        <time>2018-07-11T13:21:44Z</time>
      </trkpt>
      <trkpt lat="45.999228" lon="6.799093">
        <ele>2087.889</ele>
        <time>2018-07-11T13:21:49Z</time>
      </trkpt>
      <trkpt lat="45.999199" lon="6.799142">
        <ele>2086.880</ele>
        <time>2018-07-11T13:21:56Z</time>
      </trkpt>
      <trkpt lat="45.999179" lon="6.799201">
        <ele>2089.136</ele>
        <time>2018-07-11T13:22:04Z</time>
      </trkpt>
      <trkpt lat="45.999144" lon="6.799252">
        <ele>2087.816</ele>
        <time>2018-07-11T13:22:18Z</time>
      </trkpt>
      <trkpt lat="45.999094" lon="6.799255">
        <ele>2090.410</ele>
        <time>2018-07-11T13:22:35Z</time>
      </trkpt>
      <trkpt lat="45.999041" lon="6.799262">
        <ele>2089.356</ele>
        <time>2018-07-11T13:22:43Z</time>
      </trkpt>
      <trkpt lat="45.998993" lon="6.799277">
        <ele>2089.459</ele>
        <time>2018-07-11T13:22:49Z</time>
      </trkpt>
      <trkpt lat="45.998943" lon="6.799296">
        <ele>2092.814</ele>
        <time>2018-07-11T13:22:58Z</time>
      </trkpt>
      <trkpt lat="45.998892" lon="6.799298">
        <ele>2093.408</ele>
        <time>2018-07-11T13:23:07Z</time>
      </trkpt>
      <trkpt lat="45.998843" lon="6.799308">
        <ele>2094.687</ele>
        <time>2018-07-11T13:23:19Z</time>
      </trkpt>
      <trkpt lat="45.998796" lon="6.799285">
        <ele>2095.831</ele>
        <time>2018-07-11T13:23:33Z</time>
      </trkpt>
      <trkpt lat="45.998750" lon="6.799260">
        <ele>2095.959</ele>
        <time>2018-07-11T13:23:43Z</time>
      </trkpt>
      <trkpt lat="45.998708" lon="6.799232">
        <ele>2095.428</ele>
        <time>2018-07-11T13:23:53Z</time>
      </trkpt>
      <trkpt lat="45.998666" lon="6.799199">
        <ele>2097.019</ele>
        <time>2018-07-11T13:24:04Z</time>
      </trkpt>
      <trkpt lat="45.998620" lon="6.799178">
        <ele>2097.875</ele>
        <time>2018-07-11T13:24:14Z</time>
      </trkpt>
      <trkpt lat="45.998598" lon="6.799119">
        <ele>2098.025</ele>
        <time>2018-07-11T13:24:20Z</time>
      </trkpt>
      <trkpt lat="45.998559" lon="6.799085">
        <ele>2098.589</ele>
        <time>2018-07-11T13:24:26Z</time>
      </trkpt>
      <trkpt lat="45.998524" lon="6.799042">
        <ele>2097.752</ele>
        <time>2018-07-11T13:24:34Z</time>
      </trkpt>
      <trkpt lat="45.998480" lon="6.799021">
        <ele>2099.753</ele>
        <time>2018-07-11T13:24:42Z</time>
      </trkpt>
      <trkpt lat="45.998435" lon="6.798989">
        <ele>2098.508</ele>
        <time>2018-07-11T13:24:51Z</time>
      </trkpt>
      <trkpt lat="45.998400" lon="6.798947">
        <ele>2101.208</ele>
        <time>2018-07-11T13:24:58Z</time>
      </trkpt>
      <trkpt lat="45.998359" lon="6.798921">
        <ele>2102.217</ele>
        <time>2018-07-11T13:25:07Z</time>
      </trkpt>
      <trkpt lat="45.998343" lon="6.798855">
        <ele>2100.191</ele>
        <time>2018-07-11T13:25:14Z</time>
      </trkpt>
      <trkpt lat="45.998341" lon="6.798784">
        <ele>2103.139</ele>
        <time>2018-07-11T13:26:20Z</time>
      </trkpt>
      <trkpt lat="45.998298" lon="6.798759">
        <ele>2103.638</ele>
        <time>2018-07-11T13:26:28Z</time>
      </trkpt>
      <trkpt lat="45.998262" lon="6.798708">
        <ele>2103.939</ele>
        <time>2018-07-11T13:26:35Z</time>
      </trkpt>
      <trkpt lat="45.998227" lon="6.798661">
        <ele>2104.195</ele>
        <time>2018-07-11T13:26:45Z</time>
      </trkpt>
      <trkpt lat="45.998187" lon="6.798623">
        <ele>2105.445</ele>
        <time>2018-07-11T13:27:21Z</time>
      </trkpt>
      <trkpt lat="45.998172" lon="6.798561">
        <ele>2106.989</ele>
        <time>2018-07-11T13:27:33Z</time>
      </trkpt>
      <trkpt lat="45.998142" lon="6.798508">
        <ele>2109.259</ele>
        <time>2018-07-11T13:28:01Z</time>
      </trkpt>
      <trkpt lat="45.998125" lon="6.798442">
        <ele>2110.903</ele>
        <time>2018-07-11T13:28:22Z</time>
      </trkpt>
      <trkpt lat="45.998104" lon="6.798384">
        <ele>2111.323</ele>
        <time>2018-07-11T13:28:33Z</time>
      </trkpt>
      <trkpt lat="45.998087" lon="6.798315">
        <ele>2112.008</ele>
        <time>2018-07-11T13:28:44Z</time>
      </trkpt>
      <trkpt lat="45.998080" lon="6.798243">
        <ele>2111.257</ele>
        <time>2018-07-11T13:28:56Z</time>
      </trkpt>
      <trkpt lat="45.998052" lon="6.798179">
        <ele>2111.671</ele>
        <time>2018-07-11T13:29:03Z</time>
      </trkpt>
      <trkpt lat="45.998027" lon="6.798122">
        <ele>2111.159</ele>
        <time>2018-07-11T13:29:09Z</time>
      </trkpt>
      <trkpt lat="45.997985" lon="6.798087">
        <ele>2112.958</ele>
        <time>2018-07-11T13:29:25Z</time>
      </trkpt>
      <trkpt lat="45.997950" lon="6.798037">
        <ele>2114.229</ele>
        <time>2018-07-11T13:29:36Z</time>
      </trkpt>
      <trkpt lat="45.997908" lon="6.798010">
        <ele>2112.785</ele>
        <time>2018-07-11T13:29:44Z</time>
      </trkpt>
      <trkpt lat="45.997858" lon="6.798002">
        <ele>2112.945</ele>
        <time>2018-07-11T13:29:50Z</time>
      </trkpt>
      <trkpt lat="45.997828" lon="6.797943">
        <ele>2112.629</ele>
        <time>2018-07-11T13:29:57Z</time>
      </trkpt>
      <trkpt lat="45.997791" lon="6.797890">
        <ele>2113.326</ele>
        <time>2018-07-11T13:30:07Z</time>
      </trkpt>
      <trkpt lat="45.997749" lon="6.797849">
        <ele>2113.347</ele>
        <time>2018-07-11T13:30:16Z</time>
      </trkpt>
      <trkpt lat="45.997710" lon="6.797813">
        <ele>2113.011</ele>
        <time>2018-07-11T13:30:23Z</time>
      </trkpt>
      <trkpt lat="45.997668" lon="6.797778">
        <ele>2113.308</ele>
        <time>2018-07-11T13:30:31Z</time>
      </trkpt>
      <trkpt lat="45.997629" lon="6.797738">
        <ele>2114.684</ele>
        <time>2018-07-11T13:30:41Z</time>
      </trkpt>
      <trkpt lat="45.997595" lon="6.797695">
        <ele>2113.978</ele>
        <time>2018-07-11T13:30:47Z</time>
      </trkpt>
      <trkpt lat="45.997559" lon="6.797641">
        <ele>2113.066</ele>
        <time>2018-07-11T13:30:53Z</time>
      </trkpt>
      <trkpt lat="45.997520" lon="6.797604">
        <ele>2112.565</ele>
        <time>2018-07-11T13:30:59Z</time>
      </trkpt>
      <trkpt lat="45.997473" lon="6.797578">
        <ele>2111.456</ele>
        <time>2018-07-11T13:31:06Z</time>
      </trkpt>
      <trkpt lat="45.997421" lon="6.797584">
        <ele>2110.972</ele>
        <time>2018-07-11T13:31:13Z</time>
      </trkpt>
      <trkpt lat="45.997375" lon="6.797590">
        <ele>2110.172</ele>
        <time>2018-07-11T13:31:18Z</time>
      </trkpt>
      <trkpt lat="45.997337" lon="6.797552">
        <ele>2112.126</ele>
        <time>2018-07-11T13:31:23Z</time>
      </trkpt>
      <trkpt lat="45.997292" lon="6.797519">
        <ele>2109.684</ele>
        <time>2018-07-11T13:31:28Z</time>
      </trkpt>
      <trkpt lat="45.997246" lon="6.797494">
        <ele>2111.607</ele>
        <time>2018-07-11T13:31:33Z</time>
      </trkpt>
      <trkpt lat="45.997201" lon="6.797464">
        <ele>2110.317</ele>
        <time>2018-07-11T13:31:39Z</time>
      </trkpt>
      <trkpt lat="45.997155" lon="6.797458">
        <ele>2108.508</ele>
        <time>2018-07-11T13:31:47Z</time>
      </trkpt>
      <trkpt lat="45.997108" lon="6.797457">
        <ele>2107.080</ele>
        <time>2018-07-11T13:32:01Z</time>
      </trkpt>
      <trkpt lat="45.997066" lon="6.797432">
        <ele>2108.724</ele>
        <time>2018-07-11T13:32:15Z</time>
      </trkpt>
      <trkpt lat="45.997045" lon="6.797495">
        <ele>2109.532</ele>
        <time>2018-07-11T13:33:07Z</time>
      </trkpt>
      <trkpt lat="45.997054" lon="6.797560">
        <ele>2109.321</ele>
        <time>2018-07-11T13:33:14Z</time>
      </trkpt>
      <trkpt lat="45.997070" lon="6.797628">
        <ele>2109.482</ele>
        <time>2018-07-11T13:33:20Z</time>
      </trkpt>
      <trkpt lat="45.997064" lon="6.797704">
        <ele>2109.518</ele>
        <time>2018-07-11T13:33:27Z</time>
      </trkpt>
      <trkpt lat="45.997036" lon="6.797763">
        <ele>2107.018</ele>
        <time>2018-07-11T13:33:32Z</time>
      </trkpt>
      <trkpt lat="45.997031" lon="6.797837">
        <ele>2106.592</ele>
        <time>2018-07-11T13:33:38Z</time>
      </trkpt>
      <trkpt lat="45.997002" lon="6.797897">
        <ele>2106.183</ele>
        <time>2018-07-11T13:33:46Z</time>
      </trkpt>
      <trkpt lat="45.996982" lon="6.797962">
        <ele>2105.525</ele>
        <time>2018-07-11T13:33:53Z</time>
      </trkpt>
      <trkpt lat="45.996951" lon="6.798014">
        <ele>2106.817</ele>
        <time>2018-07-11T13:33:58Z</time>
      </trkpt>
      <trkpt lat="45.996922" lon="6.798078">
        <ele>2104.508</ele>
        <time>2018-07-11T13:34:03Z</time>
      </trkpt>
      <trkpt lat="45.996912" lon="6.798145">
        <ele>2103.750</ele>
        <time>2018-07-11T13:34:08Z</time>
      </trkpt>
      <trkpt lat="45.996913" lon="6.798211">
        <ele>2103.324</ele>
        <time>2018-07-11T13:34:15Z</time>
      </trkpt>
      <trkpt lat="45.996897" lon="6.798277">
        <ele>2102.112</ele>
        <time>2018-07-11T13:34:24Z</time>
      </trkpt>
      <trkpt lat="45.996860" lon="6.798319">
        <ele>2101.051</ele>
        <time>2018-07-11T13:34:35Z</time>
      </trkpt>
      <trkpt lat="45.996829" lon="6.798366">
        <ele>2099.032</ele>
        <time>2018-07-11T13:34:49Z</time>
      </trkpt>
      <trkpt lat="45.996798" lon="6.798418">
        <ele>2097.338</ele>
        <time>2018-07-11T13:35:02Z</time>
      </trkpt>
      <trkpt lat="45.996775" lon="6.798475">
        <ele>2096.028</ele>
        <time>2018-07-11T13:35:12Z</time>
      </trkpt>
      <trkpt lat="45.996756" lon="6.798537">
        <ele>2094.532</ele>
        <time>2018-07-11T13:35:22Z</time>
      </trkpt>
      <trkpt lat="45.996720" lon="6.798578">
        <ele>2094.135</ele>
        <time>2018-07-11T13:36:31Z</time>
      </trkpt>
      <trkpt lat="45.996675" lon="6.798588">
        <ele>2092.586</ele>
        <time>2018-07-11T13:36:39Z</time>
      </trkpt>
      <trkpt lat="45.996635" lon="6.798550">
        <ele>2091.914</ele>
        <time>2018-07-11T13:36:44Z</time>
      </trkpt>
      <trkpt lat="45.996586" lon="6.798528">
        <ele>2091.708</ele>
        <time>2018-07-11T13:36:51Z</time>
      </trkpt>
      <trkpt lat="45.996540" lon="6.798529">
        <ele>2091.035</ele>
        <time>2018-07-11T13:36:57Z</time>
      </trkpt>
      <trkpt lat="45.996493" lon="6.798550">
        <ele>2090.129</ele>
        <time>2018-07-11T13:37:03Z</time>
      </trkpt>
      <trkpt lat="45.996451" lon="6.798580">
        <ele>2089.557</ele>
        <time>2018-07-11T13:37:09Z</time>
      </trkpt>
      <trkpt lat="45.996406" lon="6.798617">
        <ele>2088.536</ele>
        <time>2018-07-11T13:37:20Z</time>
      </trkpt>
      <trkpt lat="45.996360" lon="6.798631">
        <ele>2087.747</ele>
        <time>2018-07-11T13:37:26Z</time>
      </trkpt>
      <trkpt lat="45.996313" lon="6.798653">
        <ele>2086.453</ele>
        <time>2018-07-11T13:37:32Z</time>
      </trkpt>
      <trkpt lat="45.996261" lon="6.798666">
        <ele>2085.093</ele>
        <time>2018-07-11T13:37:39Z</time>
      </trkpt>
      <trkpt lat="45.996214" lon="6.798677">
        <ele>2084.277</ele>
        <time>2018-07-11T13:37:45Z</time>
      </trkpt>
      <trkpt lat="45.996168" lon="6.798683">
        <ele>2083.621</ele>
        <time>2018-07-11T13:37:50Z</time>
      </trkpt>
      <trkpt lat="45.996118" lon="6.798690">
        <ele>2082.741</ele>
        <time>2018-07-11T13:37:55Z</time>
      </trkpt>
      <trkpt lat="45.996072" lon="6.798694">
        <ele>2082.105</ele>
        <time>2018-07-11T13:38:00Z</time>
      </trkpt>
      <trkpt lat="45.996020" lon="6.798706">
        <ele>2081.108</ele>
        <time>2018-07-11T13:38:06Z</time>
      </trkpt>
      <trkpt lat="45.995968" lon="6.798717">
        <ele>2080.284</ele>
        <time>2018-07-11T13:38:12Z</time>
      </trkpt>
      <trkpt lat="45.995917" lon="6.798737">
        <ele>2080.368</ele>
        <time>2018-07-11T13:38:17Z</time>
      </trkpt>
      <trkpt lat="45.995868" lon="6.798754">
        <ele>2079.646</ele>
        <time>2018-07-11T13:38:22Z</time>
      </trkpt>
      <trkpt lat="45.995818" lon="6.798765">
        <ele>2079.645</ele>
        <time>2018-07-11T13:38:27Z</time>
      </trkpt>
      <trkpt lat="45.995770" lon="6.798785">
        <ele>2078.796</ele>
        <time>2018-07-11T13:38:32Z</time>
      </trkpt>
      <trkpt lat="45.995720" lon="6.798805">
        <ele>2078.222</ele>
        <time>2018-07-11T13:38:37Z</time>
      </trkpt>
      <trkpt lat="45.995673" lon="6.798830">
        <ele>2078.022</ele>
        <time>2018-07-11T13:38:42Z</time>
      </trkpt>
      <trkpt lat="45.995630" lon="6.798860">
        <ele>2076.996</ele>
        <time>2018-07-11T13:38:47Z</time>
      </trkpt>
      <trkpt lat="45.995579" lon="6.798882">
        <ele>2076.695</ele>
        <time>2018-07-11T13:38:53Z</time>
      </trkpt>
      <trkpt lat="45.995528" lon="6.798891">
        <ele>2078.049</ele>
        <time>2018-07-11T13:38:58Z</time>
      </trkpt>
      <trkpt lat="45.995483" lon="6.798902">
        <ele>2075.323</ele>
        <time>2018-07-11T13:39:02Z</time>
      </trkpt>
      <trkpt lat="45.995436" lon="6.798913">
        <ele>2075.308</ele>
        <time>2018-07-11T13:39:06Z</time>
      </trkpt>
      <trkpt lat="45.995381" lon="6.798923">
        <ele>2075.211</ele>
        <time>2018-07-11T13:39:11Z</time>
      </trkpt>
      <trkpt lat="45.995329" lon="6.798926">
        <ele>2074.285</ele>
        <time>2018-07-11T13:39:16Z</time>
      </trkpt>
      <trkpt lat="45.995281" lon="6.798931">
        <ele>2074.523</ele>
        <time>2018-07-11T13:39:21Z</time>
      </trkpt>
      <trkpt lat="45.995233" lon="6.798941">
        <ele>2073.152</ele>
        <time>2018-07-11T13:39:26Z</time>
      </trkpt>
      <trkpt lat="45.995181" lon="6.798946">
        <ele>2072.023</ele>
        <time>2018-07-11T13:39:32Z</time>
      </trkpt>
      <trkpt lat="45.995128" lon="6.798948">
        <ele>2072.159</ele>
        <time>2018-07-11T13:39:38Z</time>
      </trkpt>
      <trkpt lat="45.995081" lon="6.798954">
        <ele>2070.689</ele>
        <time>2018-07-11T13:39:43Z</time>
      </trkpt>
      <trkpt lat="45.995031" lon="6.798977">
        <ele>2069.973</ele>
        <time>2018-07-11T13:39:48Z</time>
      </trkpt>
      <trkpt lat="45.994979" lon="6.798988">
        <ele>2069.452</ele>
        <time>2018-07-11T13:39:53Z</time>
      </trkpt>
      <trkpt lat="45.994931" lon="6.798983">
        <ele>2068.853</ele>
        <time>2018-07-11T13:39:58Z</time>
      </trkpt>
      <trkpt lat="45.994876" lon="6.798989">
        <ele>2068.308</ele>
        <time>2018-07-11T13:40:03Z</time>
      </trkpt>
      <trkpt lat="45.994826" lon="6.798991">
        <ele>2069.308</ele>
        <time>2018-07-11T13:40:08Z</time>
      </trkpt>
      <trkpt lat="45.994778" lon="6.798995">
        <ele>2067.937</ele>
        <time>2018-07-11T13:40:13Z</time>
      </trkpt>
      <trkpt lat="45.994727" lon="6.798991">
        <ele>2067.831</ele>
        <time>2018-07-11T13:40:19Z</time>
      </trkpt>
      <trkpt lat="45.994681" lon="6.798995">
        <ele>2067.139</ele>
        <time>2018-07-11T13:40:24Z</time>
      </trkpt>
      <trkpt lat="45.994636" lon="6.799003">
        <ele>2066.698</ele>
        <time>2018-07-11T13:40:29Z</time>
      </trkpt>
      <trkpt lat="45.994586" lon="6.799023">
        <ele>2065.959</ele>
        <time>2018-07-11T13:40:34Z</time>
      </trkpt>
      <trkpt lat="45.994535" lon="6.799035">
        <ele>2066.275</ele>
        <time>2018-07-11T13:40:39Z</time>
      </trkpt>
      <trkpt lat="45.994486" lon="6.799031">
        <ele>2065.475</ele>
        <time>2018-07-11T13:40:44Z</time>
      </trkpt>
      <trkpt lat="45.994440" lon="6.799033">
        <ele>2065.279</ele>
        <time>2018-07-11T13:40:49Z</time>
      </trkpt>
      <trkpt lat="45.994385" lon="6.799039">
        <ele>2065.083</ele>
        <time>2018-07-11T13:40:55Z</time>
      </trkpt>
      <trkpt lat="45.994340" lon="6.799062">
        <ele>2064.925</ele>
        <time>2018-07-11T13:41:00Z</time>
      </trkpt>
      <trkpt lat="45.994304" lon="6.799111">
        <ele>2064.117</ele>
        <time>2018-07-11T13:41:06Z</time>
      </trkpt>
      <trkpt lat="45.994273" lon="6.799170">
        <ele>2063.608</ele>
        <time>2018-07-11T13:41:11Z</time>
      </trkpt>
      <trkpt lat="45.994240" lon="6.799222">
        <ele>2064.020</ele>
        <time>2018-07-11T13:41:16Z</time>
      </trkpt>
      <trkpt lat="45.994213" lon="6.799283">
        <ele>2064.444</ele>
        <time>2018-07-11T13:41:21Z</time>
      </trkpt>
      <trkpt lat="45.994191" lon="6.799349">
        <ele>2064.592</ele>
        <time>2018-07-11T13:41:27Z</time>
      </trkpt>
      <trkpt lat="45.994173" lon="6.799411">
        <ele>2064.811</ele>
        <time>2018-07-11T13:41:33Z</time>
      </trkpt>
      <trkpt lat="45.994161" lon="6.799481">
        <ele>2065.772</ele>
        <time>2018-07-11T13:41:40Z</time>
      </trkpt>
      <trkpt lat="45.994159" lon="6.799546">
        <ele>2065.368</ele>
        <time>2018-07-11T13:41:46Z</time>
      </trkpt>
      <trkpt lat="45.994139" lon="6.799608">
        <ele>2065.628</ele>
        <time>2018-07-11T13:41:51Z</time>
      </trkpt>
      <trkpt lat="45.994110" lon="6.799662">
        <ele>2065.252</ele>
        <time>2018-07-11T13:41:56Z</time>
      </trkpt>
      <trkpt lat="45.994092" lon="6.799722">
        <ele>2065.852</ele>
        <time>2018-07-11T13:42:02Z</time>
      </trkpt>
      <trkpt lat="45.994066" lon="6.799788">
        <ele>2066.553</ele>
        <time>2018-07-11T13:42:09Z</time>
      </trkpt>
      <trkpt lat="45.994036" lon="6.799840">
        <ele>2065.208</ele>
        <time>2018-07-11T13:42:19Z</time>
      </trkpt>
      <trkpt lat="45.993994" lon="6.799879">
        <ele>2065.508</ele>
        <time>2018-07-11T13:42:27Z</time>
      </trkpt>
      <trkpt lat="45.993954" lon="6.799911">
        <ele>2065.067</ele>
        <time>2018-07-11T13:42:32Z</time>
      </trkpt>
      <trkpt lat="45.993908" lon="6.799949">
        <ele>2064.841</ele>
        <time>2018-07-11T13:42:38Z</time>
      </trkpt>
      <trkpt lat="45.993871" lon="6.799988">
        <ele>2065.119</ele>
        <time>2018-07-11T13:42:43Z</time>
      </trkpt>
      <trkpt lat="45.993836" lon="6.800048">
        <ele>2064.818</ele>
        <time>2018-07-11T13:42:48Z</time>
      </trkpt>
      <trkpt lat="45.993805" lon="6.800108">
        <ele>2064.049</ele>
        <time>2018-07-11T13:42:53Z</time>
      </trkpt>
      <trkpt lat="45.993767" lon="6.800163">
        <ele>2063.935</ele>
        <time>2018-07-11T13:42:59Z</time>
      </trkpt>
      <trkpt lat="45.993729" lon="6.800217">
        <ele>2064.075</ele>
        <time>2018-07-11T13:43:04Z</time>
      </trkpt>
      <trkpt lat="45.993686" lon="6.800236">
        <ele>2064.389</ele>
        <time>2018-07-11T13:43:09Z</time>
      </trkpt>
      <trkpt lat="45.993646" lon="6.800272">
        <ele>2064.751</ele>
        <time>2018-07-11T13:43:15Z</time>
      </trkpt>
      <trkpt lat="45.993609" lon="6.800326">
        <ele>2065.101</ele>
        <time>2018-07-11T13:43:21Z</time>
      </trkpt>
      <trkpt lat="45.993571" lon="6.800370">
        <ele>2064.211</ele>
        <time>2018-07-11T13:43:28Z</time>
      </trkpt>
      <trkpt lat="45.993522" lon="6.800398">
        <ele>2063.208</ele>
        <time>2018-07-11T13:43:38Z</time>
      </trkpt>
      <trkpt lat="45.993474" lon="6.800383">
        <ele>2063.677</ele>
        <time>2018-07-11T13:43:44Z</time>
      </trkpt>
      <trkpt lat="45.993425" lon="6.800388">
        <ele>2063.881</ele>
        <time>2018-07-11T13:43:51Z</time>
      </trkpt>
      <trkpt lat="45.993399" lon="6.800443">
        <ele>2063.999</ele>
        <time>2018-07-11T13:44:09Z</time>
      </trkpt>
      <trkpt lat="45.993366" lon="6.800493">
        <ele>2064.428</ele>
        <time>2018-07-11T13:44:18Z</time>
      </trkpt>
      <trkpt lat="45.993320" lon="6.800516">
        <ele>2064.299</ele>
        <time>2018-07-11T13:44:25Z</time>
      </trkpt>
      <trkpt lat="45.993274" lon="6.800518">
        <ele>2063.535</ele>
        <time>2018-07-11T13:44:33Z</time>
      </trkpt>
      <trkpt lat="45.993225" lon="6.800520">
        <ele>2062.495</ele>
        <time>2018-07-11T13:44:43Z</time>
      </trkpt>
      <trkpt lat="45.993175" lon="6.800516">
        <ele>2062.869</ele>
        <time>2018-07-11T13:44:49Z</time>
      </trkpt>
      <trkpt lat="45.993129" lon="6.800531">
        <ele>2062.959</ele>
        <time>2018-07-11T13:44:54Z</time>
      </trkpt>
      <trkpt lat="45.993083" lon="6.800537">
        <ele>2063.203</ele>
        <time>2018-07-11T13:44:59Z</time>
      </trkpt>
      <trkpt lat="45.993036" lon="6.800535">
        <ele>2063.623</ele>
        <time>2018-07-11T13:45:05Z</time>
      </trkpt>
      <trkpt lat="45.992990" lon="6.800529">
        <ele>2063.608</ele>
        <time>2018-07-11T13:45:12Z</time>
      </trkpt>
      <trkpt lat="45.992943" lon="6.800536">
        <ele>2063.437</ele>
        <time>2018-07-11T13:45:20Z</time>
      </trkpt>
      <trkpt lat="45.992897" lon="6.800535">
        <ele>2063.241</ele>
        <time>2018-07-11T13:45:30Z</time>
      </trkpt>
      <trkpt lat="45.992851" lon="6.800538">
        <ele>2063.669</ele>
        <time>2018-07-11T13:45:38Z</time>
      </trkpt>
      <trkpt lat="45.992802" lon="6.800541">
        <ele>2063.998</ele>
        <time>2018-07-11T13:45:45Z</time>
      </trkpt>
      <trkpt lat="45.992754" lon="6.800544">
        <ele>2063.219</ele>
        <time>2018-07-11T13:45:51Z</time>
      </trkpt>
      <trkpt lat="45.992703" lon="6.800570">
        <ele>2063.135</ele>
        <time>2018-07-11T13:45:59Z</time>
      </trkpt>
      <trkpt lat="45.992655" lon="6.800602">
        <ele>2062.825</ele>
        <time>2018-07-11T13:46:05Z</time>
      </trkpt>
      <trkpt lat="45.992606" lon="6.800615">
        <ele>2063.169</ele>
        <time>2018-07-11T13:46:10Z</time>
      </trkpt>
      <trkpt lat="45.992555" lon="6.800623">
        <ele>2062.872</ele>
        <time>2018-07-11T13:46:15Z</time>
      </trkpt>
      <trkpt lat="45.992509" lon="6.800631">
        <ele>2064.313</ele>
        <time>2018-07-11T13:46:20Z</time>
      </trkpt>
      <trkpt lat="45.992465" lon="6.800665">
        <ele>2063.714</ele>
        <time>2018-07-11T13:46:25Z</time>
      </trkpt>
      <trkpt lat="45.992414" lon="6.800678">
        <ele>2063.608</ele>
        <time>2018-07-11T13:46:30Z</time>
      </trkpt>
      <trkpt lat="45.992364" lon="6.800694">
        <ele>2063.889</ele>
        <time>2018-07-11T13:46:35Z</time>
      </trkpt>
      <trkpt lat="45.992312" lon="6.800706">
        <ele>2063.723</ele>
        <time>2018-07-11T13:46:40Z</time>
      </trkpt>
      <trkpt lat="45.992260" lon="6.800724">
        <ele>2064.011</ele>
        <time>2018-07-11T13:46:45Z</time>
      </trkpt>
      <trkpt lat="45.992205" lon="6.800735">
        <ele>2063.660</ele>
        <time>2018-07-11T13:46:50Z</time>
      </trkpt>
      <trkpt lat="45.992155" lon="6.800746">
        <ele>2064.061</ele>
        <time>2018-07-11T13:46:55Z</time>
      </trkpt>
      <trkpt lat="45.992104" lon="6.800756">
        <ele>2063.527</ele>
        <time>2018-07-11T13:47:00Z</time>
      </trkpt>
      <trkpt lat="45.992051" lon="6.800769">
        <ele>2063.357</ele>
        <time>2018-07-11T13:47:05Z</time>
      </trkpt>
      <trkpt lat="45.991999" lon="6.800776">
        <ele>2063.361</ele>
        <time>2018-07-11T13:47:10Z</time>
      </trkpt>
      <trkpt lat="45.991949" lon="6.800782">
        <ele>2065.349</ele>
        <time>2018-07-11T13:47:15Z</time>
      </trkpt>
      <trkpt lat="45.991904" lon="6.800787">
        <ele>2063.302</ele>
        <time>2018-07-11T13:47:23Z</time>
      </trkpt>
      <trkpt lat="45.991858" lon="6.800774">
        <ele>2062.822</ele>
        <time>2018-07-11T13:47:29Z</time>
      </trkpt>
      <trkpt lat="45.991815" lon="6.800756">
        <ele>2062.708</ele>
        <time>2018-07-11T13:47:35Z</time>
      </trkpt>
      <trkpt lat="45.991763" lon="6.800748">
        <ele>2062.866</ele>
        <time>2018-07-11T13:47:43Z</time>
      </trkpt>
      <trkpt lat="45.991716" lon="6.800757">
        <ele>2062.320</ele>
        <time>2018-07-11T13:47:49Z</time>
      </trkpt>
      <trkpt lat="45.991665" lon="6.800764">
        <ele>2062.788</ele>
        <time>2018-07-11T13:47:55Z</time>
      </trkpt>
      <trkpt lat="45.991615" lon="6.800792">
        <ele>2062.947</ele>
        <time>2018-07-11T13:48:01Z</time>
      </trkpt>
      <trkpt lat="45.991569" lon="6.800802">
        <ele>2062.778</ele>
        <time>2018-07-11T13:48:07Z</time>
      </trkpt>
      <trkpt lat="45.991519" lon="6.800813">
        <ele>2063.464</ele>
        <time>2018-07-11T13:48:13Z</time>
      </trkpt>
      <trkpt lat="45.991474" lon="6.800830">
        <ele>2062.614</ele>
        <time>2018-07-11T13:48:18Z</time>
      </trkpt>
      <trkpt lat="45.991429" lon="6.800837">
        <ele>2062.768</ele>
        <time>2018-07-11T13:48:23Z</time>
      </trkpt>
      <trkpt lat="45.991380" lon="6.800849">
        <ele>2062.823</ele>
        <time>2018-07-11T13:48:28Z</time>
      </trkpt>
      <trkpt lat="45.991335" lon="6.800872">
        <ele>2062.483</ele>
        <time>2018-07-11T13:48:32Z</time>
      </trkpt>
      <trkpt lat="45.991292" lon="6.800892">
        <ele>2062.211</ele>
        <time>2018-07-11T13:48:36Z</time>
      </trkpt>
      <trkpt lat="45.991248" lon="6.800917">
        <ele>2062.508</ele>
        <time>2018-07-11T13:48:40Z</time>
      </trkpt>
      <trkpt lat="45.991200" lon="6.800952">
        <ele>2062.764</ele>
        <time>2018-07-11T13:48:44Z</time>
      </trkpt>
      <trkpt lat="45.991152" lon="6.800969">
        <ele>2062.418</ele>
        <time>2018-07-11T13:48:50Z</time>
      </trkpt>
      <trkpt lat="45.991098" lon="6.800980">
        <ele>2063.956</ele>
        <time>2018-07-11T13:48:56Z</time>
      </trkpt>
      <trkpt lat="45.991047" lon="6.800998">
        <ele>2063.455</ele>
        <time>2018-07-11T13:49:01Z</time>
      </trkpt>
      <trkpt lat="45.991002" lon="6.801015">
        <ele>2062.446</ele>
        <time>2018-07-11T13:49:05Z</time>
      </trkpt>
      <trkpt lat="45.990956" lon="6.801038">
        <ele>2062.142</ele>
        <time>2018-07-11T13:49:09Z</time>
      </trkpt>
      <trkpt lat="45.990911" lon="6.801049">
        <ele>2062.762</ele>
        <time>2018-07-11T13:49:14Z</time>
      </trkpt>
      <trkpt lat="45.990855" lon="6.801067">
        <ele>2062.746</ele>
        <time>2018-07-11T13:49:19Z</time>
      </trkpt>
      <trkpt lat="45.990813" lon="6.801090">
        <ele>2062.996</ele>
        <time>2018-07-11T13:49:22Z</time>
      </trkpt>
      <trkpt lat="45.990765" lon="6.801087">
        <ele>2063.031</ele>
        <time>2018-07-11T13:49:28Z</time>
      </trkpt>
      <trkpt lat="45.990718" lon="6.801086">
        <ele>2063.124</ele>
        <time>2018-07-11T13:49:34Z</time>
      </trkpt>
      <trkpt lat="45.990665" lon="6.801107">
        <ele>2062.908</ele>
        <time>2018-07-11T13:49:39Z</time>
      </trkpt>
      <trkpt lat="45.990611" lon="6.801127">
        <ele>2063.141</ele>
        <time>2018-07-11T13:49:44Z</time>
      </trkpt>
      <trkpt lat="45.990554" lon="6.801136">
        <ele>2063.055</ele>
        <time>2018-07-11T13:49:49Z</time>
      </trkpt>
      <trkpt lat="45.990505" lon="6.801135">
        <ele>2062.973</ele>
        <time>2018-07-11T13:49:55Z</time>
      </trkpt>
      <trkpt lat="45.990449" lon="6.801158">
        <ele>2062.642</ele>
        <time>2018-07-11T13:50:01Z</time>
      </trkpt>
      <trkpt lat="45.990400" lon="6.801193">
        <ele>2062.093</ele>
        <time>2018-07-11T13:50:05Z</time>
      </trkpt>
      <trkpt lat="45.990366" lon="6.801253">
        <ele>2062.359</ele>
        <time>2018-07-11T13:50:10Z</time>
      </trkpt>
      <trkpt lat="45.990318" lon="6.801284">
        <ele>2062.659</ele>
        <time>2018-07-11T13:50:16Z</time>
      </trkpt>
      <trkpt lat="45.990269" lon="6.801282">
        <ele>2063.123</ele>
        <time>2018-07-11T13:50:21Z</time>
      </trkpt>
      <trkpt lat="45.990220" lon="6.801270">
        <ele>2062.725</ele>
        <time>2018-07-11T13:50:27Z</time>
      </trkpt>
      <trkpt lat="45.990179" lon="6.801298">
        <ele>2062.826</ele>
        <time>2018-07-11T13:50:56Z</time>
      </trkpt>
      <trkpt lat="45.990135" lon="6.801311">
        <ele>2063.208</ele>
        <time>2018-07-11T13:51:14Z</time>
      </trkpt>
      <trkpt lat="45.990089" lon="6.801288">
        <ele>2062.608</ele>
        <time>2018-07-11T13:51:23Z</time>
      </trkpt>
      <trkpt lat="45.990040" lon="6.801286">
        <ele>2062.624</ele>
        <time>2018-07-11T13:51:30Z</time>
      </trkpt>
      <trkpt lat="45.989991" lon="6.801276">
        <ele>2062.778</ele>
        <time>2018-07-11T13:51:39Z</time>
      </trkpt>
      <trkpt lat="45.989942" lon="6.801268">
        <ele>2062.566</ele>
        <time>2018-07-11T13:51:48Z</time>
      </trkpt>
      <trkpt lat="45.989898" lon="6.801245">
        <ele>2062.245</ele>
        <time>2018-07-11T13:51:55Z</time>
      </trkpt>
      <trkpt lat="45.989850" lon="6.801219">
        <ele>2062.376</ele>
        <time>2018-07-11T13:52:05Z</time>
      </trkpt>
      <trkpt lat="45.989805" lon="6.801182">
        <ele>2061.432</ele>
        <time>2018-07-11T13:52:11Z</time>
      </trkpt>
      <trkpt lat="45.989766" lon="6.801150">
        <ele>2061.472</ele>
        <time>2018-07-11T13:52:16Z</time>
      </trkpt>
      <trkpt lat="45.989727" lon="6.801117">
        <ele>2061.416</ele>
        <time>2018-07-11T13:52:22Z</time>
      </trkpt>
      <trkpt lat="45.989677" lon="6.801116">
        <ele>2061.569</ele>
        <time>2018-07-11T13:52:31Z</time>
      </trkpt>
      <trkpt lat="45.989635" lon="6.801069">
        <ele>2061.104</ele>
        <time>2018-07-11T13:52:38Z</time>
      </trkpt>
      <trkpt lat="45.989600" lon="6.801019">
        <ele>2061.724</ele>
        <time>2018-07-11T13:52:43Z</time>
      </trkpt>
      <trkpt lat="45.989559" lon="6.800973">
        <ele>2062.008</ele>
        <time>2018-07-11T13:52:49Z</time>
      </trkpt>
      <trkpt lat="45.989517" lon="6.800941">
        <ele>2062.768</ele>
        <time>2018-07-11T13:52:55Z</time>
      </trkpt>
      <trkpt lat="45.989479" lon="6.800898">
        <ele>2062.842</ele>
        <time>2018-07-11T13:53:01Z</time>
      </trkpt>
      <trkpt lat="45.989442" lon="6.800853">
        <ele>2063.310</ele>
        <time>2018-07-11T13:53:09Z</time>
      </trkpt>
      <trkpt lat="45.989397" lon="6.800815">
        <ele>2064.269</ele>
        <time>2018-07-11T13:53:17Z</time>
      </trkpt>
      <trkpt lat="45.989358" lon="6.800782">
        <ele>2064.390</ele>
        <time>2018-07-11T13:53:22Z</time>
      </trkpt>
      <trkpt lat="45.989321" lon="6.800743">
        <ele>2064.536</ele>
        <time>2018-07-11T13:53:28Z</time>
      </trkpt>
      <trkpt lat="45.989279" lon="6.800713">
        <ele>2064.456</ele>
        <time>2018-07-11T13:53:34Z</time>
      </trkpt>
      <trkpt lat="45.989235" lon="6.800691">
        <ele>2065.110</ele>
        <time>2018-07-11T13:53:41Z</time>
      </trkpt>
      <trkpt lat="45.989188" lon="6.800681">
        <ele>2065.863</ele>
        <time>2018-07-11T13:53:52Z</time>
      </trkpt>
      <trkpt lat="45.989141" lon="6.800690">
        <ele>2068.544</ele>
        <time>2018-07-11T13:53:58Z</time>
      </trkpt>
      <trkpt lat="45.989091" lon="6.800702">
        <ele>2066.418</ele>
        <time>2018-07-11T13:54:09Z</time>
      </trkpt>
      <trkpt lat="45.989048" lon="6.800721">
        <ele>2067.208</ele>
        <time>2018-07-11T13:54:21Z</time>
      </trkpt>
      <trkpt lat="45.989001" lon="6.800721">
        <ele>2067.788</ele>
        <time>2018-07-11T13:54:29Z</time>
      </trkpt>
      <trkpt lat="45.988954" lon="6.800711">
        <ele>2068.292</ele>
        <time>2018-07-11T13:54:37Z</time>
      </trkpt>
      <trkpt lat="45.988926" lon="6.800660">
        <ele>2068.920</ele>
        <time>2018-07-11T13:54:44Z</time>
      </trkpt>
      <trkpt lat="45.988908" lon="6.800593">
        <ele>2068.059</ele>
        <time>2018-07-11T13:54:52Z</time>
      </trkpt>
      <trkpt lat="45.988888" lon="6.800534">
        <ele>2068.060</ele>
        <time>2018-07-11T13:54:58Z</time>
      </trkpt>
      <trkpt lat="45.988864" lon="6.800467">
        <ele>2067.156</ele>
        <time>2018-07-11T13:55:05Z</time>
      </trkpt>
      <trkpt lat="45.988837" lon="6.800405">
        <ele>2067.796</ele>
        <time>2018-07-11T13:55:12Z</time>
      </trkpt>
      <trkpt lat="45.988795" lon="6.800371">
        <ele>2068.190</ele>
        <time>2018-07-11T13:55:20Z</time>
      </trkpt>
      <trkpt lat="45.988756" lon="6.800335">
        <ele>2068.141</ele>
        <time>2018-07-11T13:55:27Z</time>
      </trkpt>
      <trkpt lat="45.988718" lon="6.800290">
        <ele>2068.381</ele>
        <time>2018-07-11T13:55:34Z</time>
      </trkpt>
      <trkpt lat="45.988677" lon="6.800254">
        <ele>2069.809</ele>
        <time>2018-07-11T13:55:48Z</time>
      </trkpt>
      <trkpt lat="45.988639" lon="6.800215">
        <ele>2070.408</ele>
        <time>2018-07-11T13:55:57Z</time>
      </trkpt>
      <trkpt lat="45.988591" lon="6.800204">
        <ele>2071.996</ele>
        <time>2018-07-11T13:56:10Z</time>
      </trkpt>
      <trkpt lat="45.988541" lon="6.800209">
        <ele>2072.650</ele>
        <time>2018-07-11T13:56:22Z</time>
      </trkpt>
      <trkpt lat="45.988497" lon="6.800232">
        <ele>2073.698</ele>
        <time>2018-07-11T13:56:32Z</time>
      </trkpt>
      <trkpt lat="45.988452" lon="6.800237">
        <ele>2074.157</ele>
        <time>2018-07-11T13:56:39Z</time>
      </trkpt>
      <trkpt lat="45.988410" lon="6.800197">
        <ele>2074.438</ele>
        <time>2018-07-11T13:56:47Z</time>
      </trkpt>
      <trkpt lat="45.988377" lon="6.800153">
        <ele>2074.974</ele>
        <time>2018-07-11T13:56:53Z</time>
      </trkpt>
      <trkpt lat="45.988346" lon="6.800098">
        <ele>2074.424</ele>
        <time>2018-07-11T13:57:01Z</time>
      </trkpt>
      <trkpt lat="45.988319" lon="6.800040">
        <ele>2073.828</ele>
        <time>2018-07-11T13:57:08Z</time>
      </trkpt>
      <trkpt lat="45.988297" lon="6.799979">
        <ele>2073.888</ele>
        <time>2018-07-11T13:57:16Z</time>
      </trkpt>
      <trkpt lat="45.988267" lon="6.799923">
        <ele>2073.724</ele>
        <time>2018-07-11T13:57:25Z</time>
      </trkpt>
      <trkpt lat="45.988233" lon="6.799881">
        <ele>2074.326</ele>
        <time>2018-07-11T13:57:34Z</time>
      </trkpt>
      <trkpt lat="45.988187" lon="6.799856">
        <ele>2074.608</ele>
        <time>2018-07-11T13:57:40Z</time>
      </trkpt>
      <trkpt lat="45.988147" lon="6.799812">
        <ele>2074.870</ele>
        <time>2018-07-11T13:57:49Z</time>
      </trkpt>
      <trkpt lat="45.988098" lon="6.799832">
        <ele>2076.334</ele>
        <time>2018-07-11T13:58:28Z</time>
      </trkpt>
      <trkpt lat="45.988049" lon="6.799845">
        <ele>2076.982</ele>
        <time>2018-07-11T13:58:44Z</time>
      </trkpt>
      <trkpt lat="45.988002" lon="6.799835">
        <ele>2079.471</ele>
        <time>2018-07-11T13:58:56Z</time>
      </trkpt>
      <trkpt lat="45.987956" lon="6.799814">
        <ele>2078.092</ele>
        <time>2018-07-11T13:59:10Z</time>
      </trkpt>
      <trkpt lat="45.987931" lon="6.799760">
        <ele>2078.588</ele>
        <time>2018-07-11T13:59:21Z</time>
      </trkpt>
      <trkpt lat="45.987909" lon="6.799702">
        <ele>2079.178</ele>
        <time>2018-07-11T13:59:35Z</time>
      </trkpt>
      <trkpt lat="45.987921" lon="6.799635">
        <ele>2081.952</ele>
        <time>2018-07-11T13:59:57Z</time>
      </trkpt>
      <trkpt lat="45.987883" lon="6.799598">
        <ele>2084.182</ele>
        <time>2018-07-11T14:00:19Z</time>
      </trkpt>
      <trkpt lat="45.987837" lon="6.799600">
        <ele>2085.543</ele>
        <time>2018-07-11T14:00:35Z</time>
      </trkpt>
      <trkpt lat="45.987798" lon="6.799632">
        <ele>2088.317</ele>
        <time>2018-07-11T14:00:58Z</time>
      </trkpt>
      <trkpt lat="45.987736" lon="6.799668">
        <ele>2089.608</ele>
        <time>2018-07-11T14:01:23Z</time>
      </trkpt>
      <trkpt lat="45.987722" lon="6.799600">
        <ele>2093.480</ele>
        <time>2018-07-11T14:02:07Z</time>
      </trkpt>
      <trkpt lat="45.987641" lon="6.799653">
        <ele>2100.474</ele>
        <time>2018-07-11T14:04:47Z</time>
      </trkpt>
      <trkpt lat="45.987598" lon="6.799628">
        <ele>2100.462</ele>
        <time>2018-07-11T14:05:28Z</time>
      </trkpt>
      <trkpt lat="45.987553" lon="6.799627">
        <ele>2100.461</ele>
        <time>2018-07-11T14:05:42Z</time>
      </trkpt>
      <trkpt lat="45.987513" lon="6.799669">
        <ele>2102.272</ele>
        <time>2018-07-11T14:06:08Z</time>
      </trkpt>
      <trkpt lat="45.987467" lon="6.799680">
        <ele>2103.228</ele>
        <time>2018-07-11T14:06:20Z</time>
      </trkpt>
      <trkpt lat="45.987422" lon="6.799671">
        <ele>2104.548</ele>
        <time>2018-07-11T14:06:38Z</time>
      </trkpt>
      <trkpt lat="45.987378" lon="6.799713">
        <ele>2105.852</ele>
        <time>2018-07-11T14:06:53Z</time>
      </trkpt>
      <trkpt lat="45.987356" lon="6.799655">
        <ele>2107.114</ele>
        <time>2018-07-11T14:07:07Z</time>
      </trkpt>
      <trkpt lat="45.987311" lon="6.799678">
        <ele>2108.354</ele>
        <time>2018-07-11T14:07:23Z</time>
      </trkpt>
      <trkpt lat="45.987269" lon="6.799634">
        <ele>2112.509</ele>
        <time>2018-07-11T14:17:51Z</time>
      </trkpt>
      <trkpt lat="45.987226" lon="6.799652">
        <ele>2112.508</ele>
        <time>2018-07-11T14:18:07Z</time>
      </trkpt>
      <trkpt lat="45.987195" lon="6.799702">
        <ele>2112.583</ele>
        <time>2018-07-11T14:18:16Z</time>
      </trkpt>
      <trkpt lat="45.987150" lon="6.799728">
        <ele>2113.017</ele>
        <time>2018-07-11T14:18:26Z</time>
      </trkpt>
      <trkpt lat="45.987099" lon="6.799743">
        <ele>2114.725</ele>
        <time>2018-07-11T14:18:38Z</time>
      </trkpt>
      <trkpt lat="45.987051" lon="6.799742">
        <ele>2115.624</ele>
        <time>2018-07-11T14:18:48Z</time>
      </trkpt>
      <trkpt lat="45.987007" lon="6.799758">
        <ele>2118.815</ele>
        <time>2018-07-11T14:18:57Z</time>
      </trkpt>
      <trkpt lat="45.986963" lon="6.799727">
        <ele>2118.091</ele>
        <time>2018-07-11T14:19:15Z</time>
      </trkpt>
      <trkpt lat="45.986917" lon="6.799733">
        <ele>2119.721</ele>
        <time>2018-07-11T14:19:27Z</time>
      </trkpt>
      <trkpt lat="45.986871" lon="6.799746">
        <ele>2120.555</ele>
        <time>2018-07-11T14:19:37Z</time>
      </trkpt>
      <trkpt lat="45.986824" lon="6.799773">
        <ele>2121.224</ele>
        <time>2018-07-11T14:19:46Z</time>
      </trkpt>
      <trkpt lat="45.986772" lon="6.799772">
        <ele>2122.504</ele>
        <time>2018-07-11T14:20:01Z</time>
      </trkpt>
      <trkpt lat="45.986728" lon="6.799756">
        <ele>2125.114</ele>
        <time>2018-07-11T14:20:26Z</time>
      </trkpt>
      <trkpt lat="45.986679" lon="6.799758">
        <ele>2127.308</ele>
        <time>2018-07-11T14:20:40Z</time>
      </trkpt>
      <trkpt lat="45.986636" lon="6.799736">
        <ele>2129.124</ele>
        <time>2018-07-11T14:20:58Z</time>
      </trkpt>
      <trkpt lat="45.986591" lon="6.799750">
        <ele>2129.978</ele>
        <time>2018-07-11T14:21:09Z</time>
      </trkpt>
      <trkpt lat="45.986560" lon="6.799799">
        <ele>2130.186</ele>
        <time>2018-07-11T14:21:31Z</time>
      </trkpt>
      <trkpt lat="45.986518" lon="6.799828">
        <ele>2131.295</ele>
        <time>2018-07-11T14:21:42Z</time>
      </trkpt>
      <trkpt lat="45.986474" lon="6.799855">
        <ele>2132.936</ele>
        <time>2018-07-11T14:21:56Z</time>
      </trkpt>
      <trkpt lat="45.986427" lon="6.799831">
        <ele>2133.582</ele>
        <time>2018-07-11T14:22:05Z</time>
      </trkpt>
      <trkpt lat="45.986381" lon="6.799842">
        <ele>2134.212</ele>
        <time>2018-07-11T14:22:13Z</time>
      </trkpt>
      <trkpt lat="45.986335" lon="6.799826">
        <ele>2134.486</ele>
        <time>2018-07-11T14:22:22Z</time>
      </trkpt>
      <trkpt lat="45.986291" lon="6.799808">
        <ele>2137.872</ele>
        <time>2018-07-11T14:22:31Z</time>
      </trkpt>
      <trkpt lat="45.986247" lon="6.799783">
        <ele>2138.413</ele>
        <time>2018-07-11T14:22:42Z</time>
      </trkpt>
      <trkpt lat="45.986200" lon="6.799768">
        <ele>2137.314</ele>
        <time>2018-07-11T14:22:52Z</time>
      </trkpt>
      <trkpt lat="45.986159" lon="6.799732">
        <ele>2137.808</ele>
        <time>2018-07-11T14:23:02Z</time>
      </trkpt>
      <trkpt lat="45.986114" lon="6.799699">
        <ele>2140.989</ele>
        <time>2018-07-11T14:23:11Z</time>
      </trkpt>
      <trkpt lat="45.986081" lon="6.799650">
        <ele>2139.583</ele>
        <time>2018-07-11T14:23:19Z</time>
      </trkpt>
      <trkpt lat="45.986056" lon="6.799591">
        <ele>2140.111</ele>
        <time>2018-07-11T14:23:28Z</time>
      </trkpt>
      <trkpt lat="45.986020" lon="6.799546">
        <ele>2141.260</ele>
        <time>2018-07-11T14:23:39Z</time>
      </trkpt>
      <trkpt lat="45.985975" lon="6.799532">
        <ele>2141.551</ele>
        <time>2018-07-11T14:23:49Z</time>
      </trkpt>
      <trkpt lat="45.985928" lon="6.799533">
        <ele>2144.137</ele>
        <time>2018-07-11T14:23:57Z</time>
      </trkpt>
      <trkpt lat="45.985884" lon="6.799516">
        <ele>2143.367</ele>
        <time>2018-07-11T14:24:07Z</time>
      </trkpt>
      <trkpt lat="45.985838" lon="6.799532">
        <ele>2144.231</ele>
        <time>2018-07-11T14:24:16Z</time>
      </trkpt>
      <trkpt lat="45.985804" lon="6.799478">
        <ele>2145.185</ele>
        <time>2018-07-11T14:24:26Z</time>
      </trkpt>
      <trkpt lat="45.985764" lon="6.799433">
        <ele>2145.789</ele>
        <time>2018-07-11T14:24:34Z</time>
      </trkpt>
      <trkpt lat="45.985725" lon="6.799385">
        <ele>2146.917</ele>
        <time>2018-07-11T14:24:41Z</time>
      </trkpt>
      <trkpt lat="45.985694" lon="6.799328">
        <ele>2145.808</ele>
        <time>2018-07-11T14:24:47Z</time>
      </trkpt>
      <trkpt lat="45.985664" lon="6.799267">
        <ele>2145.620</ele>
        <time>2018-07-11T14:24:53Z</time>
      </trkpt>
      <trkpt lat="45.985647" lon="6.799200">
        <ele>2146.754</ele>
        <time>2018-07-11T14:24:59Z</time>
      </trkpt>
      <trkpt lat="45.985638" lon="6.799126">
        <ele>2146.652</ele>
        <time>2018-07-11T14:25:05Z</time>
      </trkpt>
      <trkpt lat="45.985623" lon="6.799060">
        <ele>2146.931</ele>
        <time>2018-07-11T14:25:11Z</time>
      </trkpt>
      <trkpt lat="45.985600" lon="6.798997">
        <ele>2147.452</ele>
        <time>2018-07-11T14:25:19Z</time>
      </trkpt>
      <trkpt lat="45.985584" lon="6.798933">
        <ele>2148.858</ele>
        <time>2018-07-11T14:25:26Z</time>
      </trkpt>
      <trkpt lat="45.985577" lon="6.798863">
        <ele>2148.758</ele>
        <time>2018-07-11T14:25:32Z</time>
      </trkpt>
      <trkpt lat="45.985558" lon="6.798804">
        <ele>2148.332</ele>
        <time>2018-07-11T14:25:38Z</time>
      </trkpt>
      <trkpt lat="45.985539" lon="6.798737">
        <ele>2149.078</ele>
        <time>2018-07-11T14:25:45Z</time>
      </trkpt>
      <trkpt lat="45.985520" lon="6.798675">
        <ele>2148.933</ele>
        <time>2018-07-11T14:25:50Z</time>
      </trkpt>
      <trkpt lat="45.985493" lon="6.798614">
        <ele>2149.626</ele>
        <time>2018-07-11T14:25:56Z</time>
      </trkpt>
      <trkpt lat="45.985478" lon="6.798547">
        <ele>2149.608</ele>
        <time>2018-07-11T14:26:03Z</time>
      </trkpt>
      <trkpt lat="45.985467" lon="6.798477">
        <ele>2150.039</ele>
        <time>2018-07-11T14:26:09Z</time>
      </trkpt>
      <trkpt lat="45.985459" lon="6.798413">
        <ele>2150.443</ele>
        <time>2018-07-11T14:26:15Z</time>
      </trkpt>
      <trkpt lat="45.985438" lon="6.798347">
        <ele>2150.911</ele>
        <time>2018-07-11T14:26:22Z</time>
      </trkpt>
      <trkpt lat="45.985396" lon="6.798308">
        <ele>2151.020</ele>
        <time>2018-07-11T14:26:29Z</time>
      </trkpt>
      <trkpt lat="45.985349" lon="6.798276">
        <ele>2151.081</ele>
        <time>2018-07-11T14:26:37Z</time>
      </trkpt>
      <trkpt lat="45.985308" lon="6.798228">
        <ele>2151.727</ele>
        <time>2018-07-11T14:26:44Z</time>
      </trkpt>
      <trkpt lat="45.985262" lon="6.798212">
        <ele>2153.077</ele>
        <time>2018-07-11T14:26:56Z</time>
      </trkpt>
      <trkpt lat="45.985215" lon="6.798223">
        <ele>2153.651</ele>
        <time>2018-07-11T14:27:06Z</time>
      </trkpt>
      <trkpt lat="45.985166" lon="6.798225">
        <ele>2154.494</ele>
        <time>2018-07-11T14:27:15Z</time>
      </trkpt>
      <trkpt lat="45.985116" lon="6.798234">
        <ele>2154.357</ele>
        <time>2018-07-11T14:27:24Z</time>
      </trkpt>
      <trkpt lat="45.985070" lon="6.798228">
        <ele>2154.622</ele>
        <time>2018-07-11T14:27:35Z</time>
      </trkpt>
      <trkpt lat="45.985025" lon="6.798207">
        <ele>2155.208</ele>
        <time>2018-07-11T14:27:44Z</time>
      </trkpt>
      <trkpt lat="45.984976" lon="6.798190">
        <ele>2156.171</ele>
        <time>2018-07-11T14:27:52Z</time>
      </trkpt>
      <trkpt lat="45.984925" lon="6.798195">
        <ele>2157.065</ele>
        <time>2018-07-11T14:28:01Z</time>
      </trkpt>
      <trkpt lat="45.984876" lon="6.798188">
        <ele>2157.193</ele>
        <time>2018-07-11T14:28:08Z</time>
      </trkpt>
      <trkpt lat="45.984833" lon="6.798169">
        <ele>2157.552</ele>
        <time>2018-07-11T14:28:16Z</time>
      </trkpt>
      <trkpt lat="45.984794" lon="6.798133">
        <ele>2157.783</ele>
        <time>2018-07-11T14:28:23Z</time>
      </trkpt>
      <trkpt lat="45.984750" lon="6.798150">
        <ele>2157.979</ele>
        <time>2018-07-11T14:28:31Z</time>
      </trkpt>
      <trkpt lat="45.984712" lon="6.798197">
        <ele>2158.219</ele>
        <time>2018-07-11T14:28:39Z</time>
      </trkpt>
      <trkpt lat="45.984667" lon="6.798206">
        <ele>2158.443</ele>
        <time>2018-07-11T14:28:46Z</time>
      </trkpt>
      <trkpt lat="45.984617" lon="6.798190">
        <ele>2159.124</ele>
        <time>2018-07-11T14:28:55Z</time>
      </trkpt>
      <trkpt lat="45.984576" lon="6.798159">
        <ele>2160.204</ele>
        <time>2018-07-11T14:29:01Z</time>
      </trkpt>
      <trkpt lat="45.984537" lon="6.798124">
        <ele>2159.714</ele>
        <time>2018-07-11T14:29:08Z</time>
      </trkpt>
      <trkpt lat="45.984503" lon="6.798080">
        <ele>2160.208</ele>
        <time>2018-07-11T14:29:15Z</time>
      </trkpt>
      <trkpt lat="45.984459" lon="6.798047">
        <ele>2160.764</ele>
        <time>2018-07-11T14:29:22Z</time>
      </trkpt>
      <trkpt lat="45.984417" lon="6.798023">
        <ele>2160.788</ele>
        <time>2018-07-11T14:29:28Z</time>
      </trkpt>
      <trkpt lat="45.984375" lon="6.797993">
        <ele>2161.126</ele>
        <time>2018-07-11T14:29:36Z</time>
      </trkpt>
      <trkpt lat="45.984327" lon="6.797976">
        <ele>2161.955</ele>
        <time>2018-07-11T14:30:47Z</time>
      </trkpt>
      <trkpt lat="45.984283" lon="6.797988">
        <ele>2162.226</ele>
        <time>2018-07-11T14:32:12Z</time>
      </trkpt>
      <trkpt lat="45.984237" lon="6.798003">
        <ele>2163.392</ele>
        <time>2018-07-11T14:32:25Z</time>
      </trkpt>
      <trkpt lat="45.984192" lon="6.798022">
        <ele>2166.282</ele>
        <time>2018-07-11T14:32:38Z</time>
      </trkpt>
      <trkpt lat="45.984147" lon="6.798053">
        <ele>2165.966</ele>
        <time>2018-07-11T14:32:52Z</time>
      </trkpt>
      <trkpt lat="45.984107" lon="6.798083">
        <ele>2167.536</ele>
        <time>2018-07-11T14:33:09Z</time>
      </trkpt>
      <trkpt lat="45.984076" lon="6.798131">
        <ele>2169.317</ele>
        <time>2018-07-11T14:33:29Z</time>
      </trkpt>
      <trkpt lat="45.984034" lon="6.798160">
        <ele>2170.818</ele>
        <time>2018-07-11T14:33:45Z</time>
      </trkpt>
      <trkpt lat="45.983992" lon="6.798191">
        <ele>2174.308</ele>
        <time>2018-07-11T14:33:58Z</time>
      </trkpt>
      <trkpt lat="45.983946" lon="6.798195">
        <ele>2173.355</ele>
        <time>2018-07-11T14:34:12Z</time>
      </trkpt>
      <trkpt lat="45.983905" lon="6.798161">
        <ele>2174.389</ele>
        <time>2018-07-11T14:34:24Z</time>
      </trkpt>
      <trkpt lat="45.983858" lon="6.798159">
        <ele>2175.897</ele>
        <time>2018-07-11T14:34:38Z</time>
      </trkpt>
      <trkpt lat="45.983815" lon="6.798181">
        <ele>2176.376</ele>
        <time>2018-07-11T14:34:51Z</time>
      </trkpt>
      <trkpt lat="45.983771" lon="6.798200">
        <ele>2178.277</ele>
        <time>2018-07-11T14:35:02Z</time>
      </trkpt>
      <trkpt lat="45.983720" lon="6.798199">
        <ele>2177.823</ele>
        <time>2018-07-11T14:35:14Z</time>
      </trkpt>
      <trkpt lat="45.983675" lon="6.798182">
        <ele>2178.573</ele>
        <time>2018-07-11T14:35:22Z</time>
      </trkpt>
      <trkpt lat="45.983632" lon="6.798157">
        <ele>2179.267</ele>
        <time>2018-07-11T14:35:33Z</time>
      </trkpt>
      <trkpt lat="45.983597" lon="6.798105">
        <ele>2179.931</ele>
        <time>2018-07-11T14:35:44Z</time>
      </trkpt>
      <trkpt lat="45.983563" lon="6.798054">
        <ele>2180.261</ele>
        <time>2018-07-11T14:35:51Z</time>
      </trkpt>
      <trkpt lat="45.983532" lon="6.798001">
        <ele>2180.407</ele>
        <time>2018-07-11T14:35:57Z</time>
      </trkpt>
      <trkpt lat="45.983506" lon="6.797943">
        <ele>2181.108</ele>
        <time>2018-07-11T14:36:06Z</time>
      </trkpt>
      <trkpt lat="45.983477" lon="6.797893">
        <ele>2181.765</ele>
        <time>2018-07-11T14:36:19Z</time>
      </trkpt>
      <trkpt lat="45.983430" lon="6.797892">
        <ele>2183.169</ele>
        <time>2018-07-11T14:36:32Z</time>
      </trkpt>
      <trkpt lat="45.983386" lon="6.797864">
        <ele>2183.817</ele>
        <time>2018-07-11T14:36:40Z</time>
      </trkpt>
      <trkpt lat="45.983349" lon="6.797820">
        <ele>2184.446</ele>
        <time>2018-07-11T14:36:48Z</time>
      </trkpt>
      <trkpt lat="45.983304" lon="6.797796">
        <ele>2185.347</ele>
        <time>2018-07-11T14:36:56Z</time>
      </trkpt>
      <trkpt lat="45.983260" lon="6.797769">
        <ele>2186.053</ele>
        <time>2018-07-11T14:37:07Z</time>
      </trkpt>
      <trkpt lat="45.983210" lon="6.797761">
        <ele>2187.183</ele>
        <time>2018-07-11T14:37:16Z</time>
      </trkpt>
      <trkpt lat="45.983163" lon="6.797742">
        <ele>2186.887</ele>
        <time>2018-07-11T14:37:24Z</time>
      </trkpt>
      <trkpt lat="45.983115" lon="6.797740">
        <ele>2188.585</ele>
        <time>2018-07-11T14:37:34Z</time>
      </trkpt>
      <trkpt lat="45.983067" lon="6.797733">
        <ele>2189.489</ele>
        <time>2018-07-11T14:37:46Z</time>
      </trkpt>
      <trkpt lat="45.983021" lon="6.797712">
        <ele>2190.117</ele>
        <time>2018-07-11T14:37:56Z</time>
      </trkpt>
      <trkpt lat="45.982974" lon="6.797696">
        <ele>2190.208</ele>
        <time>2018-07-11T14:38:02Z</time>
      </trkpt>
      <trkpt lat="45.982925" lon="6.797676">
        <ele>2190.230</ele>
        <time>2018-07-11T14:38:07Z</time>
      </trkpt>
      <trkpt lat="45.982879" lon="6.797665">
        <ele>2190.254</ele>
        <time>2018-07-11T14:38:12Z</time>
      </trkpt>
      <trkpt lat="45.982829" lon="6.797656">
        <ele>2191.052</ele>
        <time>2018-07-11T14:38:19Z</time>
      </trkpt>
      <trkpt lat="45.982786" lon="6.797627">
        <ele>2191.411</ele>
        <time>2018-07-11T14:38:29Z</time>
      </trkpt>
      <trkpt lat="45.982740" lon="6.797619">
        <ele>2192.242</ele>
        <time>2018-07-11T14:38:40Z</time>
      </trkpt>
      <trkpt lat="45.982695" lon="6.797614">
        <ele>2192.978</ele>
        <time>2018-07-11T14:38:51Z</time>
      </trkpt>
      <trkpt lat="45.982646" lon="6.797610">
        <ele>2193.918</ele>
        <time>2018-07-11T14:39:05Z</time>
      </trkpt>
      <trkpt lat="45.982600" lon="6.797616">
        <ele>2194.762</ele>
        <time>2018-07-11T14:39:15Z</time>
      </trkpt>
      <trkpt lat="45.982553" lon="6.797624">
        <ele>2195.432</ele>
        <time>2018-07-11T14:39:28Z</time>
      </trkpt>
      <trkpt lat="45.982505" lon="6.797627">
        <ele>2196.192</ele>
        <time>2018-07-11T14:39:38Z</time>
      </trkpt>
      <trkpt lat="45.982455" lon="6.797620">
        <ele>2196.811</ele>
        <time>2018-07-11T14:39:46Z</time>
      </trkpt>
      <trkpt lat="45.982409" lon="6.797629">
        <ele>2197.608</ele>
        <time>2018-07-11T14:39:54Z</time>
      </trkpt>
      <trkpt lat="45.982366" lon="6.797654">
        <ele>2198.365</ele>
        <time>2018-07-11T14:40:01Z</time>
      </trkpt>
      <trkpt lat="45.982320" lon="6.797677">
        <ele>2199.399</ele>
        <time>2018-07-11T14:40:11Z</time>
      </trkpt>
      <trkpt lat="45.982272" lon="6.797696">
        <ele>2200.017</ele>
        <time>2018-07-11T14:40:20Z</time>
      </trkpt>
      <trkpt lat="45.982228" lon="6.797721">
        <ele>2200.756</ele>
        <time>2018-07-11T14:40:32Z</time>
      </trkpt>
      <trkpt lat="45.982195" lon="6.797774">
        <ele>2202.047</ele>
        <time>2018-07-11T14:40:43Z</time>
      </trkpt>
      <trkpt lat="45.982160" lon="6.797815">
        <ele>2203.063</ele>
        <time>2018-07-11T14:40:55Z</time>
      </trkpt>
      <trkpt lat="45.982120" lon="6.797849">
        <ele>2204.393</ele>
        <time>2018-07-11T14:41:28Z</time>
      </trkpt>
      <trkpt lat="45.982084" lon="6.797889">
        <ele>2205.517</ele>
        <time>2018-07-11T14:41:38Z</time>
      </trkpt>
      <trkpt lat="45.982045" lon="6.797929">
        <ele>2206.728</ele>
        <time>2018-07-11T14:41:50Z</time>
      </trkpt>
      <trkpt lat="45.982004" lon="6.797968">
        <ele>2207.789</ele>
        <time>2018-07-11T14:42:00Z</time>
      </trkpt>
      <trkpt lat="45.981958" lon="6.797966">
        <ele>2208.217</ele>
        <time>2018-07-11T14:43:03Z</time>
      </trkpt>
      <trkpt lat="45.981908" lon="6.797973">
        <ele>2211.508</ele>
        <time>2018-07-11T14:43:12Z</time>
      </trkpt>
      <trkpt lat="45.981865" lon="6.797944">
        <ele>2210.024</ele>
        <time>2018-07-11T14:43:21Z</time>
      </trkpt>
      <trkpt lat="45.981816" lon="6.797941">
        <ele>2211.218</ele>
        <time>2018-07-11T14:43:34Z</time>
      </trkpt>
      <trkpt lat="45.981769" lon="6.797917">
        <ele>2212.366</ele>
        <time>2018-07-11T14:43:43Z</time>
      </trkpt>
      <trkpt lat="45.981725" lon="6.797900">
        <ele>2213.645</ele>
        <time>2018-07-11T14:43:55Z</time>
      </trkpt>
      <trkpt lat="45.981681" lon="6.797878">
        <ele>2215.316</ele>
        <time>2018-07-11T14:44:09Z</time>
      </trkpt>
      <trkpt lat="45.981639" lon="6.797849">
        <ele>2216.082</ele>
        <time>2018-07-11T14:44:20Z</time>
      </trkpt>
      <trkpt lat="45.981597" lon="6.797818">
        <ele>2217.152</ele>
        <time>2018-07-11T14:44:33Z</time>
      </trkpt>
      <trkpt lat="45.981551" lon="6.797794">
        <ele>2218.636</ele>
        <time>2018-07-11T14:44:45Z</time>
      </trkpt>
      <trkpt lat="45.981509" lon="6.797762">
        <ele>2219.426</ele>
        <time>2018-07-11T14:44:57Z</time>
      </trkpt>
      <trkpt lat="45.981464" lon="6.797731">
        <ele>2220.847</ele>
        <time>2018-07-11T14:45:07Z</time>
      </trkpt>
      <trkpt lat="45.981426" lon="6.797695">
        <ele>2221.611</ele>
        <time>2018-07-11T14:45:17Z</time>
      </trkpt>
      <trkpt lat="45.981385" lon="6.797662">
        <ele>2222.508</ele>
        <time>2018-07-11T14:45:29Z</time>
      </trkpt>
      <trkpt lat="45.981348" lon="6.797625">
        <ele>2223.314</ele>
        <time>2018-07-11T14:45:50Z</time>
      </trkpt>
      <trkpt lat="45.981313" lon="6.797578">
        <ele>2224.828</ele>
        <time>2018-07-11T14:46:01Z</time>
      </trkpt>
      <trkpt lat="45.981277" lon="6.797538">
        <ele>2226.176</ele>
        <time>2018-07-11T14:46:13Z</time>
      </trkpt>
      <trkpt lat="45.981246" lon="6.797489">
        <ele>2226.555</ele>
        <time>2018-07-11T14:46:20Z</time>
      </trkpt>
      <trkpt lat="45.981218" lon="6.797435">
        <ele>2226.656</ele>
        <time>2018-07-11T14:46:26Z</time>
      </trkpt>
      <trkpt lat="45.981192" lon="6.797377">
        <ele>2227.312</ele>
        <time>2018-07-11T14:46:34Z</time>
      </trkpt>
      <trkpt lat="45.981155" lon="6.797330">
        <ele>2227.822</ele>
        <time>2018-07-11T14:46:44Z</time>
      </trkpt>
      <trkpt lat="45.981128" lon="6.797276">
        <ele>2229.236</ele>
        <time>2018-07-11T14:46:52Z</time>
      </trkpt>
      <trkpt lat="45.981096" lon="6.797229">
        <ele>2230.147</ele>
        <time>2018-07-11T14:47:01Z</time>
      </trkpt>
      <trkpt lat="45.981066" lon="6.797178">
        <ele>2231.429</ele>
        <time>2018-07-11T14:47:09Z</time>
      </trkpt>
      <trkpt lat="45.981038" lon="6.797125">
        <ele>2231.621</ele>
        <time>2018-07-11T14:47:17Z</time>
      </trkpt>
      <trkpt lat="45.981013" lon="6.797065">
        <ele>2232.608</ele>
        <time>2018-07-11T14:47:26Z</time>
      </trkpt>
      <trkpt lat="45.980972" lon="6.797037">
        <ele>2235.076</ele>
        <time>2018-07-11T14:47:39Z</time>
      </trkpt>
      <trkpt lat="45.980932" lon="6.796999">
        <ele>2234.630</ele>
        <time>2018-07-11T14:47:46Z</time>
      </trkpt>
      <trkpt lat="45.980890" lon="6.796972">
        <ele>2235.498</ele>
        <time>2018-07-11T14:47:53Z</time>
      </trkpt>
      <trkpt lat="45.980856" lon="6.796927">
        <ele>2236.187</ele>
        <time>2018-07-11T14:48:01Z</time>
      </trkpt>
      <trkpt lat="45.980820" lon="6.796888">
        <ele>2237.118</ele>
        <time>2018-07-11T14:48:12Z</time>
      </trkpt>
      <trkpt lat="45.980773" lon="6.796871">
        <ele>2237.884</ele>
        <time>2018-07-11T14:48:22Z</time>
      </trkpt>
      <trkpt lat="45.980733" lon="6.796833">
        <ele>2238.664</ele>
        <time>2018-07-11T14:48:32Z</time>
      </trkpt>
      <trkpt lat="45.980690" lon="6.796809">
        <ele>2239.928</ele>
        <time>2018-07-11T14:48:41Z</time>
      </trkpt>
      <trkpt lat="45.980654" lon="6.796763">
        <ele>2240.789</ele>
        <time>2018-07-11T14:48:50Z</time>
      </trkpt>
      <trkpt lat="45.980613" lon="6.796727">
        <ele>2243.706</ele>
        <time>2018-07-11T14:48:58Z</time>
      </trkpt>
      <trkpt lat="45.980574" lon="6.796693">
        <ele>2242.326</ele>
        <time>2018-07-11T14:49:07Z</time>
      </trkpt>
      <trkpt lat="45.980552" lon="6.796634">
        <ele>2243.008</ele>
        <time>2018-07-11T14:49:18Z</time>
      </trkpt>
      <trkpt lat="45.980507" lon="6.796611">
        <ele>2244.660</ele>
        <time>2018-07-11T14:49:32Z</time>
      </trkpt>
      <trkpt lat="45.980461" lon="6.796612">
        <ele>2246.294</ele>
        <time>2018-07-11T14:49:42Z</time>
      </trkpt>
      <trkpt lat="45.980422" lon="6.796578">
        <ele>2247.652</ele>
        <time>2018-07-11T14:49:52Z</time>
      </trkpt>
      <trkpt lat="45.980386" lon="6.796534">
        <ele>2248.751</ele>
        <time>2018-07-11T14:50:04Z</time>
      </trkpt>
      <trkpt lat="45.980344" lon="6.796508">
        <ele>2250.152</ele>
        <time>2018-07-11T14:50:14Z</time>
      </trkpt>
      <trkpt lat="45.980308" lon="6.796465">
        <ele>2251.198</ele>
        <time>2018-07-11T14:50:25Z</time>
      </trkpt>
      <trkpt lat="45.980262" lon="6.796465">
        <ele>2256.048</ele>
        <time>2018-07-11T14:50:59Z</time>
      </trkpt>
      <trkpt lat="45.980233" lon="6.796405">
        <ele>2257.432</ele>
        <time>2018-07-11T14:51:08Z</time>
      </trkpt>
      <trkpt lat="45.980197" lon="6.796357">
        <ele>2259.554</ele>
        <time>2018-07-11T14:51:21Z</time>
      </trkpt>
      <trkpt lat="45.980163" lon="6.796310">
        <ele>2260.956</ele>
        <time>2018-07-11T14:51:30Z</time>
      </trkpt>
      <trkpt lat="45.980142" lon="6.796249">
        <ele>2261.011</ele>
        <time>2018-07-11T14:51:38Z</time>
      </trkpt>
      <trkpt lat="45.980171" lon="6.796305">
        <ele>2260.408</ele>
        <time>2018-07-11T14:53:00Z</time>
      </trkpt>
      <trkpt lat="45.980205" lon="6.796355">
        <ele>2256.657</ele>
        <time>2018-07-11T14:53:13Z</time>
      </trkpt>
      <trkpt lat="45.980233" lon="6.796410">
        <ele>2257.851</ele>
        <time>2018-07-11T14:53:24Z</time>
      </trkpt>
      <trkpt lat="45.980216" lon="6.796475">
        <ele>2253.679</ele>
        <time>2018-07-11T14:53:51Z</time>
      </trkpt>
      <trkpt lat="45.980176" lon="6.796525">
        <ele>2252.048</ele>
        <time>2018-07-11T14:54:12Z</time>
      </trkpt>
      <trkpt lat="45.980132" lon="6.796497">
        <ele>2250.339</ele>
        <time>2018-07-11T14:54:23Z</time>
      </trkpt>
      <trkpt lat="45.980089" lon="6.796477">
        <ele>2248.945</ele>
        <time>2018-07-11T14:54:32Z</time>
      </trkpt>
      <trkpt lat="45.980109" lon="6.796542">
        <ele>2247.675</ele>
        <time>2018-07-11T14:54:43Z</time>
      </trkpt>
      <trkpt lat="45.980062" lon="6.796542">
        <ele>2246.339</ele>
        <time>2018-07-11T14:55:08Z</time>
      </trkpt>
      <trkpt lat="45.980013" lon="6.796534">
        <ele>2245.694</ele>
        <time>2018-07-11T14:55:15Z</time>
      </trkpt>
      <trkpt lat="45.979982" lon="6.796585">
        <ele>2239.957</ele>
        <time>2018-07-11T14:55:38Z</time>
      </trkpt>
      <trkpt lat="45.979979" lon="6.796653">
        <ele>2239.022</ele>
        <time>2018-07-11T14:55:49Z</time>
      </trkpt>
      <trkpt lat="45.979931" lon="6.796673">
        <ele>2236.808</ele>
        <time>2018-07-11T14:56:04Z</time>
      </trkpt>
      <trkpt lat="45.979927" lon="6.796745">
        <ele>2234.751</ele>
        <time>2018-07-11T14:56:22Z</time>
      </trkpt>
      <trkpt lat="45.979885" lon="6.796773">
        <ele>2232.535</ele>
        <time>2018-07-11T14:56:52Z</time>
      </trkpt>
      <trkpt lat="45.979853" lon="6.796821">
        <ele>2229.123</ele>
        <time>2018-07-11T14:57:06Z</time>
      </trkpt>
      <trkpt lat="45.979855" lon="6.796887">
        <ele>2227.762</ele>
        <time>2018-07-11T14:57:19Z</time>
      </trkpt>
      <trkpt lat="45.979860" lon="6.796954">
        <ele>2227.983</ele>
        <time>2018-07-11T14:57:28Z</time>
      </trkpt>
      <trkpt lat="45.979847" lon="6.797019">
        <ele>2225.199</ele>
        <time>2018-07-11T14:57:37Z</time>
      </trkpt>
      <trkpt lat="45.979832" lon="6.797084">
        <ele>2225.889</ele>
        <time>2018-07-11T14:57:46Z</time>
      </trkpt>
      <trkpt lat="45.979848" lon="6.797147">
        <ele>2222.693</ele>
        <time>2018-07-11T14:57:59Z</time>
      </trkpt>
      <trkpt lat="45.979812" lon="6.797190">
        <ele>2220.748</ele>
        <time>2018-07-11T14:58:16Z</time>
      </trkpt>
      <trkpt lat="45.979786" lon="6.797243">
        <ele>2218.461</ele>
        <time>2018-07-11T14:58:35Z</time>
      </trkpt>
      <trkpt lat="45.979753" lon="6.797293">
        <ele>2216.817</ele>
        <time>2018-07-11T14:59:02Z</time>
      </trkpt>
      <trkpt lat="45.979751" lon="6.797366">
        <ele>2213.908</ele>
        <time>2018-07-11T14:59:12Z</time>
      </trkpt>
      <trkpt lat="45.979734" lon="6.797426">
        <ele>2215.016</ele>
        <time>2018-07-11T14:59:18Z</time>
      </trkpt>
      <trkpt lat="45.979716" lon="6.797488">
        <ele>2211.960</ele>
        <time>2018-07-11T14:59:26Z</time>
      </trkpt>
      <trkpt lat="45.979718" lon="6.797554">
        <ele>2212.228</ele>
        <time>2018-07-11T14:59:37Z</time>
      </trkpt>
      <trkpt lat="45.979709" lon="6.797619">
        <ele>2208.417</ele>
        <time>2018-07-11T14:59:59Z</time>
      </trkpt>
      <trkpt lat="45.979715" lon="6.797688">
        <ele>2205.728</ele>
        <time>2018-07-11T15:00:17Z</time>
      </trkpt>
      <trkpt lat="45.979722" lon="6.797757">
        <ele>2207.394</ele>
        <time>2018-07-11T15:00:25Z</time>
      </trkpt>
      <trkpt lat="45.979681" lon="6.797725">
        <ele>2203.634</ele>
        <time>2018-07-11T15:00:37Z</time>
      </trkpt>
      <trkpt lat="45.979644" lon="6.797675">
        <ele>2203.828</ele>
        <time>2018-07-11T15:00:58Z</time>
      </trkpt>
      <trkpt lat="45.979625" lon="6.797613">
        <ele>2202.165</ele>
        <time>2018-07-11T15:01:10Z</time>
      </trkpt>
      <trkpt lat="45.979594" lon="6.797561">
        <ele>2199.168</ele>
        <time>2018-07-11T15:01:16Z</time>
      </trkpt>
      <trkpt lat="45.979552" lon="6.797528">
        <ele>2196.414</ele>
        <time>2018-07-11T15:01:26Z</time>
      </trkpt>
      <trkpt lat="45.979506" lon="6.797520">
        <ele>2195.308</ele>
        <time>2018-07-11T15:01:36Z</time>
      </trkpt>
      <trkpt lat="45.979458" lon="6.797529">
        <ele>2196.778</ele>
        <time>2018-07-11T15:01:43Z</time>
      </trkpt>
      <trkpt lat="45.979416" lon="6.797502">
        <ele>2194.752</ele>
        <time>2018-07-11T15:01:51Z</time>
      </trkpt>
      <trkpt lat="45.979384" lon="6.797449">
        <ele>2192.850</ele>
        <time>2018-07-11T15:02:02Z</time>
      </trkpt>
      <trkpt lat="45.979349" lon="6.797403">
        <ele>2190.769</ele>
        <time>2018-07-11T15:02:12Z</time>
      </trkpt>
      <trkpt lat="45.979307" lon="6.797380">
        <ele>2189.250</ele>
        <time>2018-07-11T15:02:21Z</time>
      </trkpt>
      <trkpt lat="45.979268" lon="6.797331">
        <ele>2186.846</ele>
        <time>2018-07-11T15:02:32Z</time>
      </trkpt>
      <trkpt lat="45.979228" lon="6.797288">
        <ele>2183.646</ele>
        <time>2018-07-11T15:02:40Z</time>
      </trkpt>
      <trkpt lat="45.979192" lon="6.797235">
        <ele>2182.330</ele>
        <time>2018-07-11T15:02:47Z</time>
      </trkpt>
      <trkpt lat="45.979155" lon="6.797180">
        <ele>2182.554</ele>
        <time>2018-07-11T15:02:53Z</time>
      </trkpt>
      <trkpt lat="45.979138" lon="6.797116">
        <ele>2180.256</ele>
        <time>2018-07-11T15:03:01Z</time>
      </trkpt>
      <trkpt lat="45.979134" lon="6.797046">
        <ele>2179.211</ele>
        <time>2018-07-11T15:03:10Z</time>
      </trkpt>
      <trkpt lat="45.979100" lon="6.796998">
        <ele>2179.708</ele>
        <time>2018-07-11T15:03:15Z</time>
      </trkpt>
      <trkpt lat="45.979058" lon="6.796965">
        <ele>2178.137</ele>
        <time>2018-07-11T15:03:21Z</time>
      </trkpt>
      <trkpt lat="45.979019" lon="6.796927">
        <ele>2176.081</ele>
        <time>2018-07-11T15:03:28Z</time>
      </trkpt>
      <trkpt lat="45.978972" lon="6.796912">
        <ele>2175.019</ele>
        <time>2018-07-11T15:03:37Z</time>
      </trkpt>
      <trkpt lat="45.978921" lon="6.796906">
        <ele>2173.868</ele>
        <time>2018-07-11T15:03:45Z</time>
      </trkpt>
      <trkpt lat="45.978881" lon="6.796866">
        <ele>2172.669</ele>
        <time>2018-07-11T15:03:51Z</time>
      </trkpt>
      <trkpt lat="45.978844" lon="6.796828">
        <ele>2172.175</ele>
        <time>2018-07-11T15:03:57Z</time>
      </trkpt>
      <trkpt lat="45.978811" lon="6.796784">
        <ele>2169.485</ele>
        <time>2018-07-11T15:04:03Z</time>
      </trkpt>
      <trkpt lat="45.978766" lon="6.796759">
        <ele>2168.779</ele>
        <time>2018-07-11T15:04:10Z</time>
      </trkpt>
      <trkpt lat="45.978724" lon="6.796733">
        <ele>2167.762</ele>
        <time>2018-07-11T15:04:17Z</time>
      </trkpt>
      <trkpt lat="45.978689" lon="6.796690">
        <ele>2167.783</ele>
        <time>2018-07-11T15:04:27Z</time>
      </trkpt>
      <trkpt lat="45.978641" lon="6.796666">
        <ele>2166.411</ele>
        <time>2018-07-11T15:04:35Z</time>
      </trkpt>
      <trkpt lat="45.978596" lon="6.796648">
        <ele>2166.008</ele>
        <time>2018-07-11T15:04:39Z</time>
      </trkpt>
      <trkpt lat="45.978552" lon="6.796628">
        <ele>2164.728</ele>
        <time>2018-07-11T15:04:47Z</time>
      </trkpt>
      <trkpt lat="45.978511" lon="6.796598">
        <ele>2161.232</ele>
        <time>2018-07-11T15:04:57Z</time>
      </trkpt>
      <trkpt lat="45.978466" lon="6.796574">
        <ele>2158.430</ele>
        <time>2018-07-11T15:05:12Z</time>
      </trkpt>
      <trkpt lat="45.978408" lon="6.796567">
        <ele>2159.059</ele>
        <time>2018-07-11T15:05:24Z</time>
      </trkpt>
      <trkpt lat="45.978360" lon="6.796579">
        <ele>2158.920</ele>
        <time>2018-07-11T15:05:36Z</time>
      </trkpt>
      <trkpt lat="45.978315" lon="6.796542">
        <ele>2155.816</ele>
        <time>2018-07-11T15:05:47Z</time>
      </trkpt>
      <trkpt lat="45.978272" lon="6.796509">
        <ele>2155.316</ele>
        <time>2018-07-11T15:06:00Z</time>
      </trkpt>
      <trkpt lat="45.978230" lon="6.796483">
        <ele>2154.860</ele>
        <time>2018-07-11T15:06:07Z</time>
      </trkpt>
      <trkpt lat="45.978213" lon="6.796547">
        <ele>2150.019</ele>
        <time>2018-07-11T15:06:24Z</time>
      </trkpt>
      <trkpt lat="45.978237" lon="6.796611">
        <ele>2148.609</ele>
        <time>2018-07-11T15:06:31Z</time>
      </trkpt>
      <trkpt lat="45.978246" lon="6.796678">
        <ele>2148.019</ele>
        <time>2018-07-11T15:06:37Z</time>
      </trkpt>
      <trkpt lat="45.978256" lon="6.796748">
        <ele>2146.508</ele>
        <time>2018-07-11T15:06:43Z</time>
      </trkpt>
      <trkpt lat="45.978266" lon="6.796814">
        <ele>2145.543</ele>
        <time>2018-07-11T15:06:49Z</time>
      </trkpt>
      <trkpt lat="45.978259" lon="6.796878">
        <ele>2144.357</ele>
        <time>2018-07-11T15:06:59Z</time>
      </trkpt>
      <trkpt lat="45.978271" lon="6.796941">
        <ele>2146.695</ele>
        <time>2018-07-11T15:07:21Z</time>
      </trkpt>
      <trkpt lat="45.978263" lon="6.797006">
        <ele>2142.844</ele>
        <time>2018-07-11T15:07:29Z</time>
      </trkpt>
      <trkpt lat="45.978261" lon="6.797071">
        <ele>2142.955</ele>
        <time>2018-07-11T15:07:39Z</time>
      </trkpt>
      <trkpt lat="45.978239" lon="6.797127">
        <ele>2141.011</ele>
        <time>2018-07-11T15:07:50Z</time>
      </trkpt>
      <trkpt lat="45.978218" lon="6.797185">
        <ele>2139.311</ele>
        <time>2018-07-11T15:07:59Z</time>
      </trkpt>
      <trkpt lat="45.978221" lon="6.797260">
        <ele>2137.935</ele>
        <time>2018-07-11T15:08:06Z</time>
      </trkpt>
      <trkpt lat="45.978211" lon="6.797335">
        <ele>2137.786</ele>
        <time>2018-07-11T15:08:13Z</time>
      </trkpt>
      <trkpt lat="45.978188" lon="6.797393">
        <ele>2136.460</ele>
        <time>2018-07-11T15:08:20Z</time>
      </trkpt>
      <trkpt lat="45.978153" lon="6.797440">
        <ele>2134.126</ele>
        <time>2018-07-11T15:08:29Z</time>
      </trkpt>
      <trkpt lat="45.978142" lon="6.797504">
        <ele>2132.608</ele>
        <time>2018-07-11T15:08:43Z</time>
      </trkpt>
      <trkpt lat="45.978098" lon="6.797519">
        <ele>2131.450</ele>
        <time>2018-07-11T15:08:51Z</time>
      </trkpt>
      <trkpt lat="45.978047" lon="6.797538">
        <ele>2131.874</ele>
        <time>2018-07-11T15:08:59Z</time>
      </trkpt>
      <trkpt lat="45.977996" lon="6.797526">
        <ele>2128.422</ele>
        <time>2018-07-11T15:09:07Z</time>
      </trkpt>
      <trkpt lat="45.977954" lon="6.797486">
        <ele>2127.031</ele>
        <time>2018-07-11T15:09:14Z</time>
      </trkpt>
      <trkpt lat="45.977920" lon="6.797428">
        <ele>2126.142</ele>
        <time>2018-07-11T15:09:21Z</time>
      </trkpt>
      <trkpt lat="45.977891" lon="6.797369">
        <ele>2125.068</ele>
        <time>2018-07-11T15:09:36Z</time>
      </trkpt>
      <trkpt lat="45.977865" lon="6.797309">
        <ele>2124.448</ele>
        <time>2018-07-11T15:09:43Z</time>
      </trkpt>
      <trkpt lat="45.977839" lon="6.797256">
        <ele>2123.192</ele>
        <time>2018-07-11T15:09:50Z</time>
      </trkpt>
      <trkpt lat="45.977814" lon="6.797191">
        <ele>2121.524</ele>
        <time>2018-07-11T15:09:57Z</time>
      </trkpt>
      <trkpt lat="45.977789" lon="6.797126">
        <ele>2120.104</ele>
        <time>2018-07-11T15:10:03Z</time>
      </trkpt>
      <trkpt lat="45.977772" lon="6.797058">
        <ele>2119.414</ele>
        <time>2018-07-11T15:10:09Z</time>
      </trkpt>
      <trkpt lat="45.977774" lon="6.796990">
        <ele>2119.008</ele>
        <time>2018-07-11T15:10:14Z</time>
      </trkpt>
      <trkpt lat="45.977758" lon="6.796924">
        <ele>2118.124</ele>
        <time>2018-07-11T15:10:21Z</time>
      </trkpt>
      <trkpt lat="45.977723" lon="6.796880">
        <ele>2117.138</ele>
        <time>2018-07-11T15:10:28Z</time>
      </trkpt>
      <trkpt lat="45.977677" lon="6.796857">
        <ele>2115.816</ele>
        <time>2018-07-11T15:10:35Z</time>
      </trkpt>
      <trkpt lat="45.977627" lon="6.796827">
        <ele>2114.965</ele>
        <time>2018-07-11T15:10:41Z</time>
      </trkpt>
      <trkpt lat="45.977591" lon="6.796781">
        <ele>2114.786</ele>
        <time>2018-07-11T15:10:47Z</time>
      </trkpt>
      <trkpt lat="45.977570" lon="6.796714">
        <ele>2114.052</ele>
        <time>2018-07-11T15:10:53Z</time>
      </trkpt>
      <trkpt lat="45.977561" lon="6.796646">
        <ele>2113.042</ele>
        <time>2018-07-11T15:11:00Z</time>
      </trkpt>
      <trkpt lat="45.977545" lon="6.796584">
        <ele>2112.316</ele>
        <time>2018-07-11T15:11:08Z</time>
      </trkpt>
      <trkpt lat="45.977520" lon="6.796529">
        <ele>2110.157</ele>
        <time>2018-07-11T15:11:24Z</time>
      </trkpt>
      <trkpt lat="45.977472" lon="6.796530">
        <ele>2109.000</ele>
        <time>2018-07-11T15:11:37Z</time>
      </trkpt>
      <trkpt lat="45.977440" lon="6.796482">
        <ele>2109.620</ele>
        <time>2018-07-11T15:11:51Z</time>
      </trkpt>
      <trkpt lat="45.977458" lon="6.796548">
        <ele>2106.508</ele>
        <time>2018-07-11T15:12:10Z</time>
      </trkpt>
      <trkpt lat="45.977425" lon="6.796499">
        <ele>2105.097</ele>
        <time>2018-07-11T15:12:18Z</time>
      </trkpt>
      <trkpt lat="45.977379" lon="6.796510">
        <ele>2103.221</ele>
        <time>2018-07-11T15:12:25Z</time>
      </trkpt>
      <trkpt lat="45.977334" lon="6.796491">
        <ele>2102.669</ele>
        <time>2018-07-11T15:12:34Z</time>
      </trkpt>
      <trkpt lat="45.977294" lon="6.796447">
        <ele>2102.158</ele>
        <time>2018-07-11T15:12:42Z</time>
      </trkpt>
      <trkpt lat="45.977256" lon="6.796409">
        <ele>2098.629</ele>
        <time>2018-07-11T15:12:49Z</time>
      </trkpt>
      <trkpt lat="45.977222" lon="6.796458">
        <ele>2094.685</ele>
        <time>2018-07-11T15:13:11Z</time>
      </trkpt>
      <trkpt lat="45.977222" lon="6.796529">
        <ele>2093.185</ele>
        <time>2018-07-11T15:13:19Z</time>
      </trkpt>
      <trkpt lat="45.977208" lon="6.796597">
        <ele>2092.569</ele>
        <time>2018-07-11T15:13:27Z</time>
      </trkpt>
      <trkpt lat="45.977225" lon="6.796661">
        <ele>2091.217</ele>
        <time>2018-07-11T15:13:38Z</time>
      </trkpt>
      <trkpt lat="45.977233" lon="6.796726">
        <ele>2090.087</ele>
        <time>2018-07-11T15:13:49Z</time>
      </trkpt>
      <trkpt lat="45.977186" lon="6.796738">
        <ele>2087.915</ele>
        <time>2018-07-11T15:14:02Z</time>
      </trkpt>
      <trkpt lat="45.977139" lon="6.796726">
        <ele>2086.408</ele>
        <time>2018-07-11T15:14:12Z</time>
      </trkpt>
      <trkpt lat="45.977114" lon="6.796667">
        <ele>2084.663</ele>
        <time>2018-07-11T15:14:23Z</time>
      </trkpt>
      <trkpt lat="45.977083" lon="6.796616">
        <ele>2083.817</ele>
        <time>2018-07-11T15:14:29Z</time>
      </trkpt>
      <trkpt lat="45.977034" lon="6.796606">
        <ele>2086.085</ele>
        <time>2018-07-11T15:14:37Z</time>
      </trkpt>
      <trkpt lat="45.977000" lon="6.796655">
        <ele>2083.784</ele>
        <time>2018-07-11T15:14:50Z</time>
      </trkpt>
      <trkpt lat="45.976983" lon="6.796718">
        <ele>2083.325</ele>
        <time>2018-07-11T15:15:04Z</time>
      </trkpt>
      <trkpt lat="45.976942" lon="6.796756">
        <ele>2081.751</ele>
        <time>2018-07-11T15:15:15Z</time>
      </trkpt>
      <trkpt lat="45.976892" lon="6.796752">
        <ele>2080.751</ele>
        <time>2018-07-11T15:15:23Z</time>
      </trkpt>
      <trkpt lat="45.976845" lon="6.796775">
        <ele>2079.545</ele>
        <time>2018-07-11T15:15:31Z</time>
      </trkpt>
      <trkpt lat="45.976796" lon="6.796778">
        <ele>2078.029</ele>
        <time>2018-07-11T15:15:39Z</time>
      </trkpt>
      <trkpt lat="45.976762" lon="6.796722">
        <ele>2077.000</ele>
        <time>2018-07-11T15:15:48Z</time>
      </trkpt>
      <trkpt lat="45.976726" lon="6.796666">
        <ele>2075.820</ele>
        <time>2018-07-11T15:15:56Z</time>
      </trkpt>
      <trkpt lat="45.976681" lon="6.796638">
        <ele>2074.308</ele>
        <time>2018-07-11T15:16:04Z</time>
      </trkpt>
      <trkpt lat="45.976637" lon="6.796612">
        <ele>2072.994</ele>
        <time>2018-07-11T15:16:11Z</time>
      </trkpt>
      <trkpt lat="45.976592" lon="6.796600">
        <ele>2070.078</ele>
        <time>2018-07-11T15:16:17Z</time>
      </trkpt>
      <trkpt lat="45.976548" lon="6.796586">
        <ele>2068.696</ele>
        <time>2018-07-11T15:16:22Z</time>
      </trkpt>
      <trkpt lat="45.976503" lon="6.796580">
        <ele>2069.845</ele>
        <time>2018-07-11T15:16:30Z</time>
      </trkpt>
      <trkpt lat="45.976454" lon="6.796573">
        <ele>2066.416</ele>
        <time>2018-07-11T15:16:38Z</time>
      </trkpt>
      <trkpt lat="45.976412" lon="6.796539">
        <ele>2064.792</ele>
        <time>2018-07-11T15:16:48Z</time>
      </trkpt>
      <trkpt lat="45.976364" lon="6.796502">
        <ele>2063.682</ele>
        <time>2018-07-11T15:16:54Z</time>
      </trkpt>
      <trkpt lat="45.976322" lon="6.796469">
        <ele>2064.876</ele>
        <time>2018-07-11T15:17:01Z</time>
      </trkpt>
      <trkpt lat="45.976325" lon="6.796543">
        <ele>2061.466</ele>
        <time>2018-07-11T15:17:24Z</time>
      </trkpt>
      <trkpt lat="45.976342" lon="6.796603">
        <ele>2059.029</ele>
        <time>2018-07-11T15:17:31Z</time>
      </trkpt>
      <trkpt lat="45.976345" lon="6.796670">
        <ele>2058.121</ele>
        <time>2018-07-11T15:17:37Z</time>
      </trkpt>
      <trkpt lat="45.976327" lon="6.796731">
        <ele>2057.308</ele>
        <time>2018-07-11T15:17:45Z</time>
      </trkpt>
      <trkpt lat="45.976337" lon="6.796804">
        <ele>2055.958</ele>
        <time>2018-07-11T15:17:53Z</time>
      </trkpt>
      <trkpt lat="45.976326" lon="6.796867">
        <ele>2055.582</ele>
        <time>2018-07-11T15:18:00Z</time>
      </trkpt>
      <trkpt lat="45.976305" lon="6.796929">
        <ele>2054.060</ele>
        <time>2018-07-11T15:18:08Z</time>
      </trkpt>
      <trkpt lat="45.976301" lon="6.796994">
        <ele>2054.539</ele>
        <time>2018-07-11T15:18:14Z</time>
      </trkpt>
      <trkpt lat="45.976277" lon="6.797058">
        <ele>2054.720</ele>
        <time>2018-07-11T15:18:20Z</time>
      </trkpt>
      <trkpt lat="45.976265" lon="6.797123">
        <ele>2053.356</ele>
        <time>2018-07-11T15:18:27Z</time>
      </trkpt>
      <trkpt lat="45.976263" lon="6.797190">
        <ele>2052.526</ele>
        <time>2018-07-11T15:18:33Z</time>
      </trkpt>
      <trkpt lat="45.976263" lon="6.797258">
        <ele>2049.160</ele>
        <time>2018-07-11T15:18:40Z</time>
      </trkpt>
      <trkpt lat="45.976275" lon="6.797330">
        <ele>2048.328</ele>
        <time>2018-07-11T15:18:46Z</time>
      </trkpt>
      <trkpt lat="45.976290" lon="6.797394">
        <ele>2047.589</ele>
        <time>2018-07-11T15:18:52Z</time>
      </trkpt>
      <trkpt lat="45.976289" lon="6.797466">
        <ele>2048.717</ele>
        <time>2018-07-11T15:19:00Z</time>
      </trkpt>
      <trkpt lat="45.976303" lon="6.797533">
        <ele>2045.008</ele>
        <time>2018-07-11T15:19:07Z</time>
      </trkpt>
      <trkpt lat="45.976319" lon="6.797596">
        <ele>2044.684</ele>
        <time>2018-07-11T15:19:13Z</time>
      </trkpt>
      <trkpt lat="45.976326" lon="6.797660">
        <ele>2044.078</ele>
        <time>2018-07-11T15:19:19Z</time>
      </trkpt>
      <trkpt lat="45.976319" lon="6.797734">
        <ele>2042.436</ele>
        <time>2018-07-11T15:19:25Z</time>
      </trkpt>
      <trkpt lat="45.976329" lon="6.797799">
        <ele>2041.745</ele>
        <time>2018-07-11T15:19:32Z</time>
      </trkpt>
      <trkpt lat="45.976320" lon="6.797868">
        <ele>2042.046</ele>
        <time>2018-07-11T15:19:40Z</time>
      </trkpt>
      <trkpt lat="45.976290" lon="6.797927">
        <ele>2037.882</ele>
        <time>2018-07-11T15:19:57Z</time>
      </trkpt>
      <trkpt lat="45.976288" lon="6.797992">
        <ele>2036.792</ele>
        <time>2018-07-11T15:20:07Z</time>
      </trkpt>
      <trkpt lat="45.976260" lon="6.798050">
        <ele>2036.766</ele>
        <time>2018-07-11T15:20:14Z</time>
      </trkpt>
      <trkpt lat="45.976226" lon="6.798101">
        <ele>2037.045</ele>
        <time>2018-07-11T15:20:19Z</time>
      </trkpt>
      <trkpt lat="45.976198" lon="6.798159">
        <ele>2038.047</ele>
        <time>2018-07-11T15:20:25Z</time>
      </trkpt>
      <trkpt lat="45.976185" lon="6.798222">
        <ele>2037.211</ele>
        <time>2018-07-11T15:20:31Z</time>
      </trkpt>
      <trkpt lat="45.976182" lon="6.798287">
        <ele>2036.508</ele>
        <time>2018-07-11T15:20:37Z</time>
      </trkpt>
      <trkpt lat="45.976191" lon="6.798362">
        <ele>2035.746</ele>
        <time>2018-07-11T15:20:43Z</time>
      </trkpt>
      <trkpt lat="45.976195" lon="6.798435">
        <ele>2034.760</ele>
        <time>2018-07-11T15:20:49Z</time>
      </trkpt>
      <trkpt lat="45.976189" lon="6.798504">
        <ele>2033.678</ele>
        <time>2018-07-11T15:20:55Z</time>
      </trkpt>
      <trkpt lat="45.976193" lon="6.798569">
        <ele>2032.657</ele>
        <time>2018-07-11T15:21:00Z</time>
      </trkpt>
      <trkpt lat="45.976200" lon="6.798640">
        <ele>2032.128</ele>
        <time>2018-07-11T15:21:06Z</time>
      </trkpt>
      <trkpt lat="45.976204" lon="6.798705">
        <ele>2031.184</ele>
        <time>2018-07-11T15:21:11Z</time>
      </trkpt>
      <trkpt lat="45.976204" lon="6.798778">
        <ele>2031.064</ele>
        <time>2018-07-11T15:21:16Z</time>
      </trkpt>
      <trkpt lat="45.976176" lon="6.798833">
        <ele>2031.278</ele>
        <time>2018-07-11T15:21:21Z</time>
      </trkpt>
      <trkpt lat="45.976143" lon="6.798893">
        <ele>2030.535</ele>
        <time>2018-07-11T15:21:26Z</time>
      </trkpt>
      <trkpt lat="45.976123" lon="6.798951">
        <ele>2029.286</ele>
        <time>2018-07-11T15:21:32Z</time>
      </trkpt>
      <trkpt lat="45.976115" lon="6.799019">
        <ele>2027.814</ele>
        <time>2018-07-11T15:21:41Z</time>
      </trkpt>
      <trkpt lat="45.976106" lon="6.799093">
        <ele>2026.108</ele>
        <time>2018-07-11T15:21:51Z</time>
      </trkpt>
      <trkpt lat="45.976130" lon="6.799149">
        <ele>2024.645</ele>
        <time>2018-07-11T15:21:59Z</time>
      </trkpt>
      <trkpt lat="45.976158" lon="6.799200">
        <ele>2024.029</ele>
        <time>2018-07-11T15:22:25Z</time>
      </trkpt>
      <trkpt lat="45.976208" lon="6.799223">
        <ele>2022.667</ele>
        <time>2018-07-11T15:22:32Z</time>
      </trkpt>
      <trkpt lat="45.976252" lon="6.799251">
        <ele>2022.126</ele>
        <time>2018-07-11T15:22:39Z</time>
      </trkpt>
      <trkpt lat="45.976281" lon="6.799308">
        <ele>2022.847</ele>
        <time>2018-07-11T15:22:44Z</time>
      </trkpt>
      <trkpt lat="45.976277" lon="6.799377">
        <ele>2022.433</ele>
        <time>2018-07-11T15:22:49Z</time>
      </trkpt>
      <trkpt lat="45.976264" lon="6.799453">
        <ele>2022.923</ele>
        <time>2018-07-11T15:22:54Z</time>
      </trkpt>
      <trkpt lat="45.976256" lon="6.799522">
        <ele>2022.437</ele>
        <time>2018-07-11T15:22:58Z</time>
      </trkpt>
      <trkpt lat="45.976253" lon="6.799588">
        <ele>2022.212</ele>
        <time>2018-07-11T15:23:02Z</time>
      </trkpt>
      <trkpt lat="45.976250" lon="6.799654">
        <ele>2022.232</ele>
        <time>2018-07-11T15:23:06Z</time>
      </trkpt>
      <trkpt lat="45.976237" lon="6.799726">
        <ele>2021.905</ele>
        <time>2018-07-11T15:23:11Z</time>
      </trkpt>
      <trkpt lat="45.976208" lon="6.799779">
        <ele>2021.008</ele>
        <time>2018-07-11T15:23:16Z</time>
      </trkpt>
      <trkpt lat="45.976172" lon="6.799823">
        <ele>2020.213</ele>
        <time>2018-07-11T15:23:21Z</time>
      </trkpt>
      <trkpt lat="45.976133" lon="6.799878">
        <ele>2021.337</ele>
        <time>2018-07-11T15:23:26Z</time>
      </trkpt>
      <trkpt lat="45.976096" lon="6.799915">
        <ele>2021.355</ele>
        <time>2018-07-11T15:23:30Z</time>
      </trkpt>
      <trkpt lat="45.976051" lon="6.799960">
        <ele>2020.884</ele>
        <time>2018-07-11T15:23:35Z</time>
      </trkpt>
      <trkpt lat="45.976012" lon="6.799994">
        <ele>2020.745</ele>
        <time>2018-07-11T15:23:39Z</time>
      </trkpt>
      <trkpt lat="45.975971" lon="6.800030">
        <ele>2020.371</ele>
        <time>2018-07-11T15:23:43Z</time>
      </trkpt>
      <trkpt lat="45.975930" lon="6.800059">
        <ele>2020.181</ele>
        <time>2018-07-11T15:23:47Z</time>
      </trkpt>
      <trkpt lat="45.975891" lon="6.800094">
        <ele>2020.215</ele>
        <time>2018-07-11T15:23:51Z</time>
      </trkpt>
      <trkpt lat="45.975853" lon="6.800128">
        <ele>2019.787</ele>
        <time>2018-07-11T15:23:55Z</time>
      </trkpt>
      <trkpt lat="45.975811" lon="6.800175">
        <ele>2017.942</ele>
        <time>2018-07-11T15:24:01Z</time>
      </trkpt>
      <trkpt lat="45.975783" lon="6.800235">
        <ele>2015.226</ele>
        <time>2018-07-11T15:24:07Z</time>
      </trkpt>
      <trkpt lat="45.975755" lon="6.800292">
        <ele>2014.408</ele>
        <time>2018-07-11T15:24:13Z</time>
      </trkpt>
      <trkpt lat="45.975727" lon="6.800344">
        <ele>2015.440</ele>
        <time>2018-07-11T15:24:19Z</time>
      </trkpt>
      <trkpt lat="45.975691" lon="6.800385">
        <ele>2014.664</ele>
        <time>2018-07-11T15:24:24Z</time>
      </trkpt>
      <trkpt lat="45.975646" lon="6.800416">
        <ele>2013.612</ele>
        <time>2018-07-11T15:24:30Z</time>
      </trkpt>
      <trkpt lat="45.975600" lon="6.800447">
        <ele>2011.241</ele>
        <time>2018-07-11T15:24:37Z</time>
      </trkpt>
      <trkpt lat="45.975562" lon="6.800491">
        <ele>2010.832</ele>
        <time>2018-07-11T15:24:42Z</time>
      </trkpt>
      <trkpt lat="45.975527" lon="6.800536">
        <ele>2009.388</ele>
        <time>2018-07-11T15:24:47Z</time>
      </trkpt>
      <trkpt lat="45.975499" lon="6.800588">
        <ele>2009.998</ele>
        <time>2018-07-11T15:24:53Z</time>
      </trkpt>
      <trkpt lat="45.975464" lon="6.800633">
        <ele>2006.612</ele>
        <time>2018-07-11T15:24:59Z</time>
      </trkpt>
      <trkpt lat="45.975423" lon="6.800659">
        <ele>2008.392</ele>
        <time>2018-07-11T15:25:04Z</time>
      </trkpt>
      <trkpt lat="45.975378" lon="6.800682">
        <ele>2007.473</ele>
        <time>2018-07-11T15:25:46Z</time>
      </trkpt>
      <trkpt lat="45.975333" lon="6.800695">
        <ele>2007.420</ele>
        <time>2018-07-11T15:25:53Z</time>
      </trkpt>
      <trkpt lat="45.975296" lon="6.800647">
        <ele>2007.008</ele>
        <time>2018-07-11T15:25:58Z</time>
      </trkpt>
      <trkpt lat="45.975252" lon="6.800612">
        <ele>2007.761</ele>
        <time>2018-07-11T15:26:03Z</time>
      </trkpt>
      <trkpt lat="45.975201" lon="6.800602">
        <ele>2006.875</ele>
        <time>2018-07-11T15:26:09Z</time>
      </trkpt>
      <trkpt lat="45.975154" lon="6.800584">
        <ele>2005.563</ele>
        <time>2018-07-11T15:26:14Z</time>
      </trkpt>
      <trkpt lat="45.975105" lon="6.800571">
        <ele>2005.482</ele>
        <time>2018-07-11T15:26:27Z</time>
      </trkpt>
      <trkpt lat="45.975053" lon="6.800561">
        <ele>2003.943</ele>
        <time>2018-07-11T15:26:32Z</time>
      </trkpt>
      <trkpt lat="45.975003" lon="6.800588">
        <ele>2002.469</ele>
        <time>2018-07-11T15:26:37Z</time>
      </trkpt>
      <trkpt lat="45.974959" lon="6.800568">
        <ele>2003.299</ele>
        <time>2018-07-11T15:26:46Z</time>
      </trkpt>
      <trkpt lat="45.974996" lon="6.800571">
        <ele>1977.483</ele>
        <time>2018-07-12T05:37:46Z</time>
      </trkpt>
      <trkpt lat="45.974980" lon="6.800499">
        <ele>1977.425</ele>
        <time>2018-07-12T05:38:31Z</time>
      </trkpt>
      <trkpt lat="45.974945" lon="6.800451">
        <ele>1977.417</ele>
        <time>2018-07-12T05:38:39Z</time>
      </trkpt>
      <trkpt lat="45.974897" lon="6.800424">
        <ele>1977.408</ele>
        <time>2018-07-12T05:38:47Z</time>
      </trkpt>
      <trkpt lat="45.974856" lon="6.800395">
        <ele>1977.460</ele>
        <time>2018-07-12T05:38:58Z</time>
      </trkpt>
      <trkpt lat="45.974809" lon="6.800375">
        <ele>1977.454</ele>
        <time>2018-07-12T05:39:10Z</time>
      </trkpt>
      <trkpt lat="45.974759" lon="6.800363">
        <ele>1977.452</ele>
        <time>2018-07-12T05:39:17Z</time>
      </trkpt>
      <trkpt lat="45.974711" lon="6.800363">
        <ele>1977.431</ele>
        <time>2018-07-12T05:39:22Z</time>
      </trkpt>
      <trkpt lat="45.974663" lon="6.800345">
        <ele>1977.425</ele>
        <time>2018-07-12T05:39:27Z</time>
      </trkpt>
      <trkpt lat="45.974619" lon="6.800311">
        <ele>1977.440</ele>
        <time>2018-07-12T05:39:32Z</time>
      </trkpt>
      <trkpt lat="45.974582" lon="6.800270">
        <ele>1977.484</ele>
        <time>2018-07-12T05:39:37Z</time>
      </trkpt>
      <trkpt lat="45.974545" lon="6.800232">
        <ele>1977.450</ele>
        <time>2018-07-12T05:39:42Z</time>
      </trkpt>
      <trkpt lat="45.974499" lon="6.800196">
        <ele>1977.415</ele>
        <time>2018-07-12T05:39:47Z</time>
      </trkpt>
      <trkpt lat="45.974454" lon="6.800157">
        <ele>1977.465</ele>
        <time>2018-07-12T05:39:52Z</time>
      </trkpt>
      <trkpt lat="45.974415" lon="6.800100">
        <ele>1977.411</ele>
        <time>2018-07-12T05:39:57Z</time>
      </trkpt>
      <trkpt lat="45.974374" lon="6.800045">
        <ele>1976.408</ele>
        <time>2018-07-12T05:40:02Z</time>
      </trkpt>
      <trkpt lat="45.974330" lon="6.799998">
        <ele>1975.983</ele>
        <time>2018-07-12T05:40:07Z</time>
      </trkpt>
      <trkpt lat="45.974281" lon="6.799962">
        <ele>1975.437</ele>
        <time>2018-07-12T05:40:12Z</time>
      </trkpt>
      <trkpt lat="45.974231" lon="6.799931">
        <ele>1976.435</ele>
        <time>2018-07-12T05:40:17Z</time>
      </trkpt>
      <trkpt lat="45.974187" lon="6.799912">
        <ele>1976.414</ele>
        <time>2018-07-12T05:40:21Z</time>
      </trkpt>
      <trkpt lat="45.974146" lon="6.799885">
        <ele>1976.348</ele>
        <time>2018-07-12T05:40:25Z</time>
      </trkpt>
      <trkpt lat="45.974096" lon="6.799848">
        <ele>1975.563</ele>
        <time>2018-07-12T05:40:30Z</time>
      </trkpt>
      <trkpt lat="45.974056" lon="6.799795">
        <ele>1973.787</ele>
        <time>2018-07-12T05:40:35Z</time>
      </trkpt>
      <trkpt lat="45.974018" lon="6.799754">
        <ele>1973.233</ele>
        <time>2018-07-12T05:40:40Z</time>
      </trkpt>
      <trkpt lat="45.973977" lon="6.799727">
        <ele>1972.949</ele>
        <time>2018-07-12T05:40:45Z</time>
      </trkpt>
      <trkpt lat="45.973933" lon="6.799744">
        <ele>1972.902</ele>
        <time>2018-07-12T05:41:27Z</time>
      </trkpt>
      <trkpt lat="45.973886" lon="6.799754">
        <ele>1974.322</ele>
        <time>2018-07-12T05:41:33Z</time>
      </trkpt>
      <trkpt lat="45.973838" lon="6.799758">
        <ele>1971.008</ele>
        <time>2018-07-12T05:41:38Z</time>
      </trkpt>
      <trkpt lat="45.973792" lon="6.799740">
        <ele>1970.286</ele>
        <time>2018-07-12T05:41:43Z</time>
      </trkpt>
      <trkpt lat="45.973748" lon="6.799700">
        <ele>1969.710</ele>
        <time>2018-07-12T05:41:48Z</time>
      </trkpt>
      <trkpt lat="45.973697" lon="6.799662">
        <ele>1969.238</ele>
        <time>2018-07-12T05:41:53Z</time>
      </trkpt>
      <trkpt lat="45.973654" lon="6.799632">
        <ele>1969.227</ele>
        <time>2018-07-12T05:41:57Z</time>
      </trkpt>
      <trkpt lat="45.973617" lon="6.799590">
        <ele>1968.921</ele>
        <time>2018-07-12T05:42:01Z</time>
      </trkpt>
      <trkpt lat="45.973576" lon="6.799537">
        <ele>1968.426</ele>
        <time>2018-07-12T05:42:06Z</time>
      </trkpt>
      <trkpt lat="45.973542" lon="6.799485">
        <ele>1967.080</ele>
        <time>2018-07-12T05:42:11Z</time>
      </trkpt>
      <trkpt lat="45.973508" lon="6.799437">
        <ele>1966.416</ele>
        <time>2018-07-12T05:42:16Z</time>
      </trkpt>
      <trkpt lat="45.973456" lon="6.799408">
        <ele>1966.958</ele>
        <time>2018-07-12T05:42:21Z</time>
      </trkpt>
      <trkpt lat="45.973413" lon="6.799387">
        <ele>1965.952</ele>
        <time>2018-07-12T05:42:25Z</time>
      </trkpt>
      <trkpt lat="45.973370" lon="6.799356">
        <ele>1966.017</ele>
        <time>2018-07-12T05:42:30Z</time>
      </trkpt>
      <trkpt lat="45.973334" lon="6.799317">
        <ele>1964.208</ele>
        <time>2018-07-12T05:42:35Z</time>
      </trkpt>
      <trkpt lat="45.973287" lon="6.799279">
        <ele>1964.997</ele>
        <time>2018-07-12T05:42:40Z</time>
      </trkpt>
      <trkpt lat="45.973247" lon="6.799239">
        <ele>1963.831</ele>
        <time>2018-07-12T05:42:45Z</time>
      </trkpt>
      <trkpt lat="45.973208" lon="6.799203">
        <ele>1963.489</ele>
        <time>2018-07-12T05:42:49Z</time>
      </trkpt>
      <trkpt lat="45.973164" lon="6.799178">
        <ele>1961.158</ele>
        <time>2018-07-12T05:42:53Z</time>
      </trkpt>
      <trkpt lat="45.973116" lon="6.799157">
        <ele>1960.272</ele>
        <time>2018-07-12T05:42:57Z</time>
      </trkpt>
      <trkpt lat="45.973064" lon="6.799132">
        <ele>1959.347</ele>
        <time>2018-07-12T05:43:02Z</time>
      </trkpt>
      <trkpt lat="45.973016" lon="6.799096">
        <ele>1961.191</ele>
        <time>2018-07-12T05:43:07Z</time>
      </trkpt>
      <trkpt lat="45.972967" lon="6.799057">
        <ele>1959.367</ele>
        <time>2018-07-12T05:43:12Z</time>
      </trkpt>
      <trkpt lat="45.972927" lon="6.799024">
        <ele>1959.654</ele>
        <time>2018-07-12T05:43:16Z</time>
      </trkpt>
      <trkpt lat="45.972881" lon="6.798998">
        <ele>1957.156</ele>
        <time>2018-07-12T05:43:20Z</time>
      </trkpt>
      <trkpt lat="45.972842" lon="6.798966">
        <ele>1958.211</ele>
        <time>2018-07-12T05:43:24Z</time>
      </trkpt>
      <trkpt lat="45.972803" lon="6.798930">
        <ele>1957.908</ele>
        <time>2018-07-12T05:43:28Z</time>
      </trkpt>
      <trkpt lat="45.972765" lon="6.798893">
        <ele>1956.237</ele>
        <time>2018-07-12T05:43:32Z</time>
      </trkpt>
      <trkpt lat="45.972719" lon="6.798848">
        <ele>1956.271</ele>
        <time>2018-07-12T05:43:37Z</time>
      </trkpt>
      <trkpt lat="45.972680" lon="6.798808">
        <ele>1955.929</ele>
        <time>2018-07-12T05:43:42Z</time>
      </trkpt>
      <trkpt lat="45.972635" lon="6.798762">
        <ele>1955.388</ele>
        <time>2018-07-12T05:43:47Z</time>
      </trkpt>
      <trkpt lat="45.972596" lon="6.798725">
        <ele>1954.982</ele>
        <time>2018-07-12T05:43:51Z</time>
      </trkpt>
      <trkpt lat="45.972558" lon="6.798690">
        <ele>1954.597</ele>
        <time>2018-07-12T05:43:55Z</time>
      </trkpt>
      <trkpt lat="45.972514" lon="6.798644">
        <ele>1953.541</ele>
        <time>2018-07-12T05:44:00Z</time>
      </trkpt>
      <trkpt lat="45.972473" lon="6.798591">
        <ele>1952.927</ele>
        <time>2018-07-12T05:44:05Z</time>
      </trkpt>
      <trkpt lat="45.972426" lon="6.798557">
        <ele>1950.388</ele>
        <time>2018-07-12T05:44:10Z</time>
      </trkpt>
      <trkpt lat="45.972371" lon="6.798538">
        <ele>1951.324</ele>
        <time>2018-07-12T05:44:15Z</time>
      </trkpt>
      <trkpt lat="45.972326" lon="6.798527">
        <ele>1949.826</ele>
        <time>2018-07-12T05:44:19Z</time>
      </trkpt>
      <trkpt lat="45.972272" lon="6.798518">
        <ele>1949.708</ele>
        <time>2018-07-12T05:44:24Z</time>
      </trkpt>
      <trkpt lat="45.972224" lon="6.798502">
        <ele>1949.650</ele>
        <time>2018-07-12T05:44:28Z</time>
      </trkpt>
      <trkpt lat="45.972180" lon="6.798480">
        <ele>1947.614</ele>
        <time>2018-07-12T05:44:32Z</time>
      </trkpt>
      <trkpt lat="45.972133" lon="6.798460">
        <ele>1948.362</ele>
        <time>2018-07-12T05:44:37Z</time>
      </trkpt>
      <trkpt lat="45.972078" lon="6.798445">
        <ele>1947.061</ele>
        <time>2018-07-12T05:44:42Z</time>
      </trkpt>
      <trkpt lat="45.972032" lon="6.798433">
        <ele>1947.045</ele>
        <time>2018-07-12T05:44:46Z</time>
      </trkpt>
      <trkpt lat="45.971984" lon="6.798411">
        <ele>1946.920</ele>
        <time>2018-07-12T05:44:50Z</time>
      </trkpt>
      <trkpt lat="45.971938" lon="6.798379">
        <ele>1945.194</ele>
        <time>2018-07-12T05:44:54Z</time>
      </trkpt>
      <trkpt lat="45.971898" lon="6.798339">
        <ele>1944.540</ele>
        <time>2018-07-12T05:44:58Z</time>
      </trkpt>
      <trkpt lat="45.971855" lon="6.798311">
        <ele>1944.545</ele>
        <time>2018-07-12T05:45:02Z</time>
      </trkpt>
      <trkpt lat="45.971808" lon="6.798290">
        <ele>1944.947</ele>
        <time>2018-07-12T05:45:06Z</time>
      </trkpt>
      <trkpt lat="45.971762" lon="6.798275">
        <ele>1944.611</ele>
        <time>2018-07-12T05:45:10Z</time>
      </trkpt>
      <trkpt lat="45.971717" lon="6.798263">
        <ele>1945.208</ele>
        <time>2018-07-12T05:45:14Z</time>
      </trkpt>
      <trkpt lat="45.971664" lon="6.798245">
        <ele>1945.476</ele>
        <time>2018-07-12T05:45:19Z</time>
      </trkpt>
      <trkpt lat="45.971620" lon="6.798232">
        <ele>1945.680</ele>
        <time>2018-07-12T05:45:23Z</time>
      </trkpt>
      <trkpt lat="45.971573" lon="6.798208">
        <ele>1947.468</ele>
        <time>2018-07-12T05:45:28Z</time>
      </trkpt>
      <trkpt lat="45.971539" lon="6.798163">
        <ele>1947.657</ele>
        <time>2018-07-12T05:46:03Z</time>
      </trkpt>
      <trkpt lat="45.971503" lon="6.798118">
        <ele>1946.631</ele>
        <time>2018-07-12T05:46:08Z</time>
      </trkpt>
      <trkpt lat="45.971553" lon="6.798155">
        <ele>1946.216</ele>
        <time>2018-07-12T05:46:23Z</time>
      </trkpt>
      <trkpt lat="45.971595" lon="6.798180">
        <ele>1947.910</ele>
        <time>2018-07-12T05:46:31Z</time>
      </trkpt>
      <trkpt lat="45.971639" lon="6.798207">
        <ele>1945.516</ele>
        <time>2018-07-12T05:46:36Z</time>
      </trkpt>
      <trkpt lat="45.971685" lon="6.798239">
        <ele>1945.717</ele>
        <time>2018-07-12T05:46:41Z</time>
      </trkpt>
      <trkpt lat="45.971737" lon="6.798269">
        <ele>1944.687</ele>
        <time>2018-07-12T05:46:46Z</time>
      </trkpt>
      <trkpt lat="45.971783" lon="6.798289">
        <ele>1944.215</ele>
        <time>2018-07-12T05:46:50Z</time>
      </trkpt>
      <trkpt lat="45.971830" lon="6.798300">
        <ele>1944.508</ele>
        <time>2018-07-12T05:46:54Z</time>
      </trkpt>
      <trkpt lat="45.971875" lon="6.798323">
        <ele>1944.893</ele>
        <time>2018-07-12T05:46:58Z</time>
      </trkpt>
      <trkpt lat="45.971922" lon="6.798361">
        <ele>1945.077</ele>
        <time>2018-07-12T05:47:03Z</time>
      </trkpt>
      <trkpt lat="45.971967" lon="6.798385">
        <ele>1945.155</ele>
        <time>2018-07-12T05:47:08Z</time>
      </trkpt>
      <trkpt lat="45.972016" lon="6.798408">
        <ele>1945.134</ele>
        <time>2018-07-12T05:47:13Z</time>
      </trkpt>
      <trkpt lat="45.972061" lon="6.798429">
        <ele>1946.478</ele>
        <time>2018-07-12T05:47:18Z</time>
      </trkpt>
      <trkpt lat="45.972107" lon="6.798455">
        <ele>1946.023</ele>
        <time>2018-07-12T05:47:23Z</time>
      </trkpt>
      <trkpt lat="45.972155" lon="6.798477">
        <ele>1946.797</ele>
        <time>2018-07-12T05:47:28Z</time>
      </trkpt>
      <trkpt lat="45.972206" lon="6.798502">
        <ele>1947.523</ele>
        <time>2018-07-12T05:47:34Z</time>
      </trkpt>
      <trkpt lat="45.972197" lon="6.798566">
        <ele>1945.612</ele>
        <time>2018-07-12T05:47:44Z</time>
      </trkpt>
      <trkpt lat="45.972157" lon="6.798613">
        <ele>1946.832</ele>
        <time>2018-07-12T05:47:49Z</time>
      </trkpt>
      <trkpt lat="45.972124" lon="6.798666">
        <ele>1943.905</ele>
        <time>2018-07-12T05:47:54Z</time>
      </trkpt>
      <trkpt lat="45.972099" lon="6.798722">
        <ele>1943.208</ele>
        <time>2018-07-12T05:47:59Z</time>
      </trkpt>
      <trkpt lat="45.972086" lon="6.798794">
        <ele>1943.423</ele>
        <time>2018-07-12T05:48:04Z</time>
      </trkpt>
      <trkpt lat="45.972093" lon="6.798867">
        <ele>1942.597</ele>
        <time>2018-07-12T05:48:09Z</time>
      </trkpt>
      <trkpt lat="45.972109" lon="6.798944">
        <ele>1942.145</ele>
        <time>2018-07-12T05:48:14Z</time>
      </trkpt>
      <trkpt lat="45.972116" lon="6.799018">
        <ele>1941.874</ele>
        <time>2018-07-12T05:48:19Z</time>
      </trkpt>
      <trkpt lat="45.972107" lon="6.799084">
        <ele>1941.228</ele>
        <time>2018-07-12T05:48:23Z</time>
      </trkpt>
      <trkpt lat="45.972087" lon="6.799160">
        <ele>1940.523</ele>
        <time>2018-07-12T05:48:28Z</time>
      </trkpt>
      <trkpt lat="45.972058" lon="6.799225">
        <ele>1940.447</ele>
        <time>2018-07-12T05:48:33Z</time>
      </trkpt>
      <trkpt lat="45.972020" lon="6.799280">
        <ele>1939.253</ele>
        <time>2018-07-12T05:48:38Z</time>
      </trkpt>
      <trkpt lat="45.971974" lon="6.799310">
        <ele>1938.787</ele>
        <time>2018-07-12T05:48:44Z</time>
      </trkpt>
      <trkpt lat="45.971929" lon="6.799317">
        <ele>1939.142</ele>
        <time>2018-07-12T05:48:49Z</time>
      </trkpt>
      <trkpt lat="45.971880" lon="6.799332">
        <ele>1937.026</ele>
        <time>2018-07-12T05:48:54Z</time>
      </trkpt>
      <trkpt lat="45.971833" lon="6.799341">
        <ele>1936.408</ele>
        <time>2018-07-12T05:48:59Z</time>
      </trkpt>
      <trkpt lat="45.971785" lon="6.799348">
        <ele>1937.910</ele>
        <time>2018-07-12T05:49:04Z</time>
      </trkpt>
      <trkpt lat="45.971746" lon="6.799386">
        <ele>1936.734</ele>
        <time>2018-07-12T05:49:09Z</time>
      </trkpt>
      <trkpt lat="45.971721" lon="6.799455">
        <ele>1934.222</ele>
        <time>2018-07-12T05:49:14Z</time>
      </trkpt>
      <trkpt lat="45.971711" lon="6.799520">
        <ele>1934.631</ele>
        <time>2018-07-12T05:49:18Z</time>
      </trkpt>
      <trkpt lat="45.971705" lon="6.799586">
        <ele>1934.545</ele>
        <time>2018-07-12T05:49:22Z</time>
      </trkpt>
      <trkpt lat="45.971708" lon="6.799652">
        <ele>1934.150</ele>
        <time>2018-07-12T05:49:26Z</time>
      </trkpt>
      <trkpt lat="45.971720" lon="6.799716">
        <ele>1933.574</ele>
        <time>2018-07-12T05:49:30Z</time>
      </trkpt>
      <trkpt lat="45.971741" lon="6.799781">
        <ele>1933.380</ele>
        <time>2018-07-12T05:49:34Z</time>
      </trkpt>
      <trkpt lat="45.971765" lon="6.799846">
        <ele>1933.372</ele>
        <time>2018-07-12T05:49:38Z</time>
      </trkpt>
      <trkpt lat="45.971791" lon="6.799906">
        <ele>1932.913</ele>
        <time>2018-07-12T05:49:42Z</time>
      </trkpt>
      <trkpt lat="45.971814" lon="6.799965">
        <ele>1932.914</ele>
        <time>2018-07-12T05:49:46Z</time>
      </trkpt>
      <trkpt lat="45.971840" lon="6.800023">
        <ele>1932.208</ele>
        <time>2018-07-12T05:49:50Z</time>
      </trkpt>
      <trkpt lat="45.971867" lon="6.800078">
        <ele>1932.089</ele>
        <time>2018-07-12T05:49:54Z</time>
      </trkpt>
      <trkpt lat="45.971900" lon="6.800131">
        <ele>1932.373</ele>
        <time>2018-07-12T05:49:58Z</time>
      </trkpt>
      <trkpt lat="45.971942" lon="6.800183">
        <ele>1931.961</ele>
        <time>2018-07-12T05:50:03Z</time>
      </trkpt>
      <trkpt lat="45.971975" lon="6.800239">
        <ele>1931.260</ele>
        <time>2018-07-12T05:50:08Z</time>
      </trkpt>
      <trkpt lat="45.971997" lon="6.800306">
        <ele>1932.374</ele>
        <time>2018-07-12T05:50:13Z</time>
      </trkpt>
      <trkpt lat="45.972012" lon="6.800368">
        <ele>1929.959</ele>
        <time>2018-07-12T05:50:18Z</time>
      </trkpt>
      <trkpt lat="45.972021" lon="6.800435">
        <ele>1929.383</ele>
        <time>2018-07-12T05:50:23Z</time>
      </trkpt>
      <trkpt lat="45.972027" lon="6.800505">
        <ele>1928.699</ele>
        <time>2018-07-12T05:50:28Z</time>
      </trkpt>
      <trkpt lat="45.972032" lon="6.800571">
        <ele>1927.776</ele>
        <time>2018-07-12T05:50:33Z</time>
      </trkpt>
      <trkpt lat="45.972051" lon="6.800639">
        <ele>1927.290</ele>
        <time>2018-07-12T05:50:38Z</time>
      </trkpt>
      <trkpt lat="45.972076" lon="6.800703">
        <ele>1926.319</ele>
        <time>2018-07-12T05:50:43Z</time>
      </trkpt>
      <trkpt lat="45.972108" lon="6.800765">
        <ele>1925.908</ele>
        <time>2018-07-12T05:50:48Z</time>
      </trkpt>
      <trkpt lat="45.972147" lon="6.800818">
        <ele>1925.419</ele>
        <time>2018-07-12T05:50:53Z</time>
      </trkpt>
      <trkpt lat="45.972189" lon="6.800866">
        <ele>1925.183</ele>
        <time>2018-07-12T05:50:58Z</time>
      </trkpt>
      <trkpt lat="45.972226" lon="6.800912">
        <ele>1924.591</ele>
        <time>2018-07-12T05:51:02Z</time>
      </trkpt>
      <trkpt lat="45.972246" lon="6.800971">
        <ele>1924.220</ele>
        <time>2018-07-12T05:51:06Z</time>
      </trkpt>
      <trkpt lat="45.972257" lon="6.801047">
        <ele>1923.564</ele>
        <time>2018-07-12T05:51:11Z</time>
      </trkpt>
      <trkpt lat="45.972269" lon="6.801118">
        <ele>1923.059</ele>
        <time>2018-07-12T05:51:16Z</time>
      </trkpt>
      <trkpt lat="45.972270" lon="6.801193">
        <ele>1922.453</ele>
        <time>2018-07-12T05:51:21Z</time>
      </trkpt>
      <trkpt lat="45.972274" lon="6.801271">
        <ele>1922.739</ele>
        <time>2018-07-12T05:51:26Z</time>
      </trkpt>
      <trkpt lat="45.972263" lon="6.801345">
        <ele>1925.067</ele>
        <time>2018-07-12T05:51:31Z</time>
      </trkpt>
      <trkpt lat="45.972251" lon="6.801422">
        <ele>1922.581</ele>
        <time>2018-07-12T05:51:36Z</time>
      </trkpt>
      <trkpt lat="45.972258" lon="6.801488">
        <ele>1921.919</ele>
        <time>2018-07-12T05:51:41Z</time>
      </trkpt>
      <trkpt lat="45.972284" lon="6.801549">
        <ele>1921.108</ele>
        <time>2018-07-12T05:51:46Z</time>
      </trkpt>
      <trkpt lat="45.972311" lon="6.801607">
        <ele>1920.498</ele>
        <time>2018-07-12T05:51:51Z</time>
      </trkpt>
      <trkpt lat="45.972332" lon="6.801674">
        <ele>1919.352</ele>
        <time>2018-07-12T05:51:57Z</time>
      </trkpt>
      <trkpt lat="45.972352" lon="6.801743">
        <ele>1918.910</ele>
        <time>2018-07-12T05:52:02Z</time>
      </trkpt>
      <trkpt lat="45.972371" lon="6.801817">
        <ele>1918.349</ele>
        <time>2018-07-12T05:52:07Z</time>
      </trkpt>
      <trkpt lat="45.972386" lon="6.801879">
        <ele>1918.083</ele>
        <time>2018-07-12T05:52:11Z</time>
      </trkpt>
      <trkpt lat="45.972399" lon="6.801947">
        <ele>1917.878</ele>
        <time>2018-07-12T05:52:16Z</time>
      </trkpt>
      <trkpt lat="45.972415" lon="6.802014">
        <ele>1916.982</ele>
        <time>2018-07-12T05:52:21Z</time>
      </trkpt>
      <trkpt lat="45.972443" lon="6.802081">
        <ele>1916.058</ele>
        <time>2018-07-12T05:52:26Z</time>
      </trkpt>
      <trkpt lat="45.972468" lon="6.802139">
        <ele>1915.481</ele>
        <time>2018-07-12T05:52:31Z</time>
      </trkpt>
      <trkpt lat="45.972489" lon="6.802208">
        <ele>1916.161</ele>
        <time>2018-07-12T05:52:36Z</time>
      </trkpt>
      <trkpt lat="45.972501" lon="6.802270">
        <ele>1914.617</ele>
        <time>2018-07-12T05:52:40Z</time>
      </trkpt>
      <trkpt lat="45.972511" lon="6.802342">
        <ele>1914.308</ele>
        <time>2018-07-12T05:52:45Z</time>
      </trkpt>
      <trkpt lat="45.972508" lon="6.802423">
        <ele>1914.440</ele>
        <time>2018-07-12T05:52:50Z</time>
      </trkpt>
      <trkpt lat="45.972505" lon="6.802502">
        <ele>1913.724</ele>
        <time>2018-07-12T05:52:55Z</time>
      </trkpt>
      <trkpt lat="45.972510" lon="6.802569">
        <ele>1913.132</ele>
        <time>2018-07-12T05:53:00Z</time>
      </trkpt>
      <trkpt lat="45.972519" lon="6.802642">
        <ele>1913.031</ele>
        <time>2018-07-12T05:53:06Z</time>
      </trkpt>
      <trkpt lat="45.972536" lon="6.802712">
        <ele>1910.955</ele>
        <time>2018-07-12T05:53:11Z</time>
      </trkpt>
      <trkpt lat="45.972559" lon="6.802783">
        <ele>1911.040</ele>
        <time>2018-07-12T05:53:16Z</time>
      </trkpt>
      <trkpt lat="45.972568" lon="6.802862">
        <ele>1910.164</ele>
        <time>2018-07-12T05:53:21Z</time>
      </trkpt>
      <trkpt lat="45.972569" lon="6.802941">
        <ele>1909.590</ele>
        <time>2018-07-12T05:53:26Z</time>
      </trkpt>
      <trkpt lat="45.972583" lon="6.803005">
        <ele>1909.019</ele>
        <time>2018-07-12T05:53:30Z</time>
      </trkpt>
      <trkpt lat="45.972609" lon="6.803071">
        <ele>1908.509</ele>
        <time>2018-07-12T05:53:35Z</time>
      </trkpt>
      <trkpt lat="45.972642" lon="6.803134">
        <ele>1907.819</ele>
        <time>2018-07-12T05:53:40Z</time>
      </trkpt>
      <trkpt lat="45.972656" lon="6.803197">
        <ele>1907.008</ele>
        <time>2018-07-12T05:53:45Z</time>
      </trkpt>
      <trkpt lat="45.972647" lon="6.803261">
        <ele>1906.213</ele>
        <time>2018-07-12T05:53:59Z</time>
      </trkpt>
      <trkpt lat="45.972603" lon="6.803292">
        <ele>1905.597</ele>
        <time>2018-07-12T05:54:08Z</time>
      </trkpt>
      <trkpt lat="45.972568" lon="6.803339">
        <ele>1904.785</ele>
        <time>2018-07-12T05:54:15Z</time>
      </trkpt>
      <trkpt lat="45.972536" lon="6.803390">
        <ele>1903.354</ele>
        <time>2018-07-12T05:54:21Z</time>
      </trkpt>
      <trkpt lat="45.972508" lon="6.803446">
        <ele>1902.538</ele>
        <time>2018-07-12T05:54:29Z</time>
      </trkpt>
      <trkpt lat="45.972492" lon="6.803507">
        <ele>1901.543</ele>
        <time>2018-07-12T05:54:35Z</time>
      </trkpt>
      <trkpt lat="45.972481" lon="6.803581">
        <ele>1900.437</ele>
        <time>2018-07-12T05:54:41Z</time>
      </trkpt>
      <trkpt lat="45.972473" lon="6.803649">
        <ele>1899.713</ele>
        <time>2018-07-12T05:54:46Z</time>
      </trkpt>
      <trkpt lat="45.972458" lon="6.803715">
        <ele>1899.134</ele>
        <time>2018-07-12T05:54:51Z</time>
      </trkpt>
      <trkpt lat="45.972436" lon="6.803782">
        <ele>1898.355</ele>
        <time>2018-07-12T05:54:56Z</time>
      </trkpt>
      <trkpt lat="45.972409" lon="6.803843">
        <ele>1897.510</ele>
        <time>2018-07-12T05:55:01Z</time>
      </trkpt>
      <trkpt lat="45.972379" lon="6.803899">
        <ele>1898.208</ele>
        <time>2018-07-12T05:55:07Z</time>
      </trkpt>
      <trkpt lat="45.972357" lon="6.803960">
        <ele>1895.585</ele>
        <time>2018-07-12T05:55:15Z</time>
      </trkpt>
      <trkpt lat="45.972334" lon="6.804025">
        <ele>1895.089</ele>
        <time>2018-07-12T05:55:23Z</time>
      </trkpt>
      <trkpt lat="45.972305" lon="6.804076">
        <ele>1893.687</ele>
        <time>2018-07-12T05:55:30Z</time>
      </trkpt>
      <trkpt lat="45.972280" lon="6.804134">
        <ele>1893.086</ele>
        <time>2018-07-12T05:55:36Z</time>
      </trkpt>
      <trkpt lat="45.972255" lon="6.804188">
        <ele>1891.630</ele>
        <time>2018-07-12T05:55:42Z</time>
      </trkpt>
      <trkpt lat="45.972217" lon="6.804230">
        <ele>1891.055</ele>
        <time>2018-07-12T05:56:51Z</time>
      </trkpt>
      <trkpt lat="45.972178" lon="6.804276">
        <ele>1889.749</ele>
        <time>2018-07-12T05:56:57Z</time>
      </trkpt>
      <trkpt lat="45.972164" lon="6.804338">
        <ele>1888.865</ele>
        <time>2018-07-12T05:57:03Z</time>
      </trkpt>
      <trkpt lat="45.972164" lon="6.804412">
        <ele>1887.896</ele>
        <time>2018-07-12T05:57:20Z</time>
      </trkpt>
      <trkpt lat="45.972138" lon="6.804465">
        <ele>1887.031</ele>
        <time>2018-07-12T05:57:26Z</time>
      </trkpt>
      <trkpt lat="45.972090" lon="6.804503">
        <ele>1888.624</ele>
        <time>2018-07-12T05:57:33Z</time>
      </trkpt>
      <trkpt lat="45.972049" lon="6.804540">
        <ele>1887.608</ele>
        <time>2018-07-12T05:57:38Z</time>
      </trkpt>
      <trkpt lat="45.972006" lon="6.804564">
        <ele>1887.071</ele>
        <time>2018-07-12T05:57:42Z</time>
      </trkpt>
      <trkpt lat="45.971964" lon="6.804591">
        <ele>1886.245</ele>
        <time>2018-07-12T05:57:46Z</time>
      </trkpt>
      <trkpt lat="45.971930" lon="6.804635">
        <ele>1886.073</ele>
        <time>2018-07-12T05:57:50Z</time>
      </trkpt>
      <trkpt lat="45.971913" lon="6.804695">
        <ele>1885.262</ele>
        <time>2018-07-12T05:57:54Z</time>
      </trkpt>
      <trkpt lat="45.971900" lon="6.804760">
        <ele>1884.656</ele>
        <time>2018-07-12T05:57:58Z</time>
      </trkpt>
      <trkpt lat="45.971888" lon="6.804828">
        <ele>1884.551</ele>
        <time>2018-07-12T05:58:03Z</time>
      </trkpt>
      <trkpt lat="45.971870" lon="6.804891">
        <ele>1883.725</ele>
        <time>2018-07-12T05:58:11Z</time>
      </trkpt>
      <trkpt lat="45.971849" lon="6.804955">
        <ele>1883.041</ele>
        <time>2018-07-12T05:58:16Z</time>
      </trkpt>
      <trkpt lat="45.971834" lon="6.805020">
        <ele>1880.813</ele>
        <time>2018-07-12T05:58:21Z</time>
      </trkpt>
      <trkpt lat="45.971819" lon="6.805094">
        <ele>1878.543</ele>
        <time>2018-07-12T05:58:27Z</time>
      </trkpt>
      <trkpt lat="45.971799" lon="6.805155">
        <ele>1877.507</ele>
        <time>2018-07-12T05:58:32Z</time>
      </trkpt>
      <trkpt lat="45.971764" lon="6.805210">
        <ele>1876.308</ele>
        <time>2018-07-12T05:58:38Z</time>
      </trkpt>
      <trkpt lat="45.971727" lon="6.805259">
        <ele>1875.573</ele>
        <time>2018-07-12T05:58:44Z</time>
      </trkpt>
      <trkpt lat="45.971692" lon="6.805310">
        <ele>1874.587</ele>
        <time>2018-07-12T05:58:52Z</time>
      </trkpt>
      <trkpt lat="45.971660" lon="6.805361">
        <ele>1873.945</ele>
        <time>2018-07-12T05:58:58Z</time>
      </trkpt>
      <trkpt lat="45.971628" lon="6.805416">
        <ele>1872.974</ele>
        <time>2018-07-12T05:59:05Z</time>
      </trkpt>
      <trkpt lat="45.971635" lon="6.805481">
        <ele>1871.948</ele>
        <time>2018-07-12T05:59:21Z</time>
      </trkpt>
      <trkpt lat="45.971604" lon="6.805536">
        <ele>1873.283</ele>
        <time>2018-07-12T05:59:29Z</time>
      </trkpt>
      <trkpt lat="45.971589" lon="6.805603">
        <ele>1872.697</ele>
        <time>2018-07-12T05:59:34Z</time>
      </trkpt>
      <trkpt lat="45.971565" lon="6.805659">
        <ele>1872.133</ele>
        <time>2018-07-12T05:59:43Z</time>
      </trkpt>
      <trkpt lat="45.971560" lon="6.805725">
        <ele>1870.688</ele>
        <time>2018-07-12T06:00:00Z</time>
      </trkpt>
      <trkpt lat="45.971545" lon="6.805799">
        <ele>1870.024</ele>
        <time>2018-07-12T06:00:07Z</time>
      </trkpt>
      <trkpt lat="45.971532" lon="6.805874">
        <ele>1870.726</ele>
        <time>2018-07-12T06:00:12Z</time>
      </trkpt>
      <trkpt lat="45.971519" lon="6.805945">
        <ele>1871.008</ele>
        <time>2018-07-12T06:00:17Z</time>
      </trkpt>
      <trkpt lat="45.971501" lon="6.806011">
        <ele>1870.570</ele>
        <time>2018-07-12T06:00:21Z</time>
      </trkpt>
      <trkpt lat="45.971497" lon="6.806079">
        <ele>1870.274</ele>
        <time>2018-07-12T06:00:25Z</time>
      </trkpt>
      <trkpt lat="45.971488" lon="6.806145">
        <ele>1869.982</ele>
        <time>2018-07-12T06:00:29Z</time>
      </trkpt>
      <trkpt lat="45.971485" lon="6.806212">
        <ele>1869.821</ele>
        <time>2018-07-12T06:00:33Z</time>
      </trkpt>
      <trkpt lat="45.971477" lon="6.806281">
        <ele>1869.725</ele>
        <time>2018-07-12T06:00:37Z</time>
      </trkpt>
      <trkpt lat="45.971470" lon="6.806357">
        <ele>1869.070</ele>
        <time>2018-07-12T06:00:42Z</time>
      </trkpt>
      <trkpt lat="45.971460" lon="6.806435">
        <ele>1868.344</ele>
        <time>2018-07-12T06:00:47Z</time>
      </trkpt>
      <trkpt lat="45.971441" lon="6.806495">
        <ele>1868.290</ele>
        <time>2018-07-12T06:00:51Z</time>
      </trkpt>
      <trkpt lat="45.971419" lon="6.806551">
        <ele>1867.841</ele>
        <time>2018-07-12T06:00:55Z</time>
      </trkpt>
      <trkpt lat="45.971407" lon="6.806626">
        <ele>1867.081</ele>
        <time>2018-07-12T06:01:00Z</time>
      </trkpt>
      <trkpt lat="45.971401" lon="6.806696">
        <ele>1867.009</ele>
        <time>2018-07-12T06:01:05Z</time>
      </trkpt>
      <trkpt lat="45.971384" lon="6.806770">
        <ele>1867.008</ele>
        <time>2018-07-12T06:01:10Z</time>
      </trkpt>
      <trkpt lat="45.971374" lon="6.806845">
        <ele>1866.796</ele>
        <time>2018-07-12T06:01:15Z</time>
      </trkpt>
      <trkpt lat="45.971354" lon="6.806914">
        <ele>1866.390</ele>
        <time>2018-07-12T06:01:20Z</time>
      </trkpt>
      <trkpt lat="45.971323" lon="6.806972">
        <ele>1866.338</ele>
        <time>2018-07-12T06:01:25Z</time>
      </trkpt>
      <trkpt lat="45.971287" lon="6.807028">
        <ele>1866.027</ele>
        <time>2018-07-12T06:01:30Z</time>
      </trkpt>
      <trkpt lat="45.971239" lon="6.807061">
        <ele>1865.761</ele>
        <time>2018-07-12T06:01:35Z</time>
      </trkpt>
      <trkpt lat="45.971197" lon="6.807091">
        <ele>1866.186</ele>
        <time>2018-07-12T06:01:39Z</time>
      </trkpt>
      <trkpt lat="45.971159" lon="6.807130">
        <ele>1865.340</ele>
        <time>2018-07-12T06:01:43Z</time>
      </trkpt>
      <trkpt lat="45.971127" lon="6.807184">
        <ele>1864.766</ele>
        <time>2018-07-12T06:01:48Z</time>
      </trkpt>
      <trkpt lat="45.971101" lon="6.807250">
        <ele>1864.344</ele>
        <time>2018-07-12T06:01:53Z</time>
      </trkpt>
      <trkpt lat="45.971072" lon="6.807315">
        <ele>1864.105</ele>
        <time>2018-07-12T06:01:58Z</time>
      </trkpt>
      <trkpt lat="45.971044" lon="6.807367">
        <ele>1863.515</ele>
        <time>2018-07-12T06:02:02Z</time>
      </trkpt>
      <trkpt lat="45.971011" lon="6.807419">
        <ele>1863.808</ele>
        <time>2018-07-12T06:02:06Z</time>
      </trkpt>
      <trkpt lat="45.970988" lon="6.807481">
        <ele>1863.766</ele>
        <time>2018-07-12T06:02:10Z</time>
      </trkpt>
      <trkpt lat="45.970971" lon="6.807549">
        <ele>1863.580</ele>
        <time>2018-07-12T06:02:14Z</time>
      </trkpt>
      <trkpt lat="45.970947" lon="6.807620">
        <ele>1862.878</ele>
        <time>2018-07-12T06:02:19Z</time>
      </trkpt>
      <trkpt lat="45.970925" lon="6.807681">
        <ele>1862.377</ele>
        <time>2018-07-12T06:02:24Z</time>
      </trkpt>
      <trkpt lat="45.970901" lon="6.807748">
        <ele>1862.441</ele>
        <time>2018-07-12T06:02:29Z</time>
      </trkpt>
      <trkpt lat="45.970883" lon="6.807807">
        <ele>1862.476</ele>
        <time>2018-07-12T06:02:33Z</time>
      </trkpt>
      <trkpt lat="45.970880" lon="6.807884">
        <ele>1861.780</ele>
        <time>2018-07-12T06:02:38Z</time>
      </trkpt>
      <trkpt lat="45.970890" lon="6.807962">
        <ele>1860.696</ele>
        <time>2018-07-12T06:02:43Z</time>
      </trkpt>
      <trkpt lat="45.970910" lon="6.808022">
        <ele>1860.516</ele>
        <time>2018-07-12T06:02:47Z</time>
      </trkpt>
      <trkpt lat="45.970922" lon="6.808092">
        <ele>1859.476</ele>
        <time>2018-07-12T06:02:52Z</time>
      </trkpt>
      <trkpt lat="45.970930" lon="6.808164">
        <ele>1859.413</ele>
        <time>2018-07-12T06:02:57Z</time>
      </trkpt>
      <trkpt lat="45.970935" lon="6.808234">
        <ele>1858.208</ele>
        <time>2018-07-12T06:03:02Z</time>
      </trkpt>
      <trkpt lat="45.970917" lon="6.808294">
        <ele>1857.483</ele>
        <time>2018-07-12T06:03:07Z</time>
      </trkpt>
      <trkpt lat="45.970904" lon="6.808367">
        <ele>1855.777</ele>
        <time>2018-07-12T06:03:13Z</time>
      </trkpt>
      <trkpt lat="45.970893" lon="6.808442">
        <ele>1854.655</ele>
        <time>2018-07-12T06:03:18Z</time>
      </trkpt>
      <trkpt lat="45.970873" lon="6.808512">
        <ele>1853.834</ele>
        <time>2018-07-12T06:03:23Z</time>
      </trkpt>
      <trkpt lat="45.970856" lon="6.808580">
        <ele>1852.748</ele>
        <time>2018-07-12T06:03:28Z</time>
      </trkpt>
      <trkpt lat="45.970837" lon="6.808648">
        <ele>1851.753</ele>
        <time>2018-07-12T06:03:33Z</time>
      </trkpt>
      <trkpt lat="45.970817" lon="6.808715">
        <ele>1851.017</ele>
        <time>2018-07-12T06:03:38Z</time>
      </trkpt>
      <trkpt lat="45.970794" lon="6.808779">
        <ele>1849.773</ele>
        <time>2018-07-12T06:03:43Z</time>
      </trkpt>
      <trkpt lat="45.970771" lon="6.808845">
        <ele>1849.256</ele>
        <time>2018-07-12T06:03:49Z</time>
      </trkpt>
      <trkpt lat="45.970758" lon="6.808912">
        <ele>1848.359</ele>
        <time>2018-07-12T06:03:55Z</time>
      </trkpt>
      <trkpt lat="45.970768" lon="6.808978">
        <ele>1847.314</ele>
        <time>2018-07-12T06:04:03Z</time>
      </trkpt>
      <trkpt lat="45.970805" lon="6.809033">
        <ele>1845.708</ele>
        <time>2018-07-12T06:04:11Z</time>
      </trkpt>
      <trkpt lat="45.970833" lon="6.809092">
        <ele>1845.677</ele>
        <time>2018-07-12T06:04:17Z</time>
      </trkpt>
      <trkpt lat="45.970853" lon="6.809150">
        <ele>1844.671</ele>
        <time>2018-07-12T06:04:23Z</time>
      </trkpt>
      <trkpt lat="45.970879" lon="6.809205">
        <ele>1843.379</ele>
        <time>2018-07-12T06:04:31Z</time>
      </trkpt>
      <trkpt lat="45.970912" lon="6.809251">
        <ele>1842.698</ele>
        <time>2018-07-12T06:04:37Z</time>
      </trkpt>
      <trkpt lat="45.970948" lon="6.809292">
        <ele>1841.072</ele>
        <time>2018-07-12T06:04:45Z</time>
      </trkpt>
      <trkpt lat="45.970990" lon="6.809327">
        <ele>1840.057</ele>
        <time>2018-07-12T06:04:53Z</time>
      </trkpt>
      <trkpt lat="45.971012" lon="6.809391">
        <ele>1838.641</ele>
        <time>2018-07-12T06:05:01Z</time>
      </trkpt>
      <trkpt lat="45.971029" lon="6.809458">
        <ele>1837.187</ele>
        <time>2018-07-12T06:05:27Z</time>
      </trkpt>
      <trkpt lat="45.971062" lon="6.809507">
        <ele>1836.245</ele>
        <time>2018-07-12T06:05:33Z</time>
      </trkpt>
      <trkpt lat="45.971100" lon="6.809553">
        <ele>1835.447</ele>
        <time>2018-07-12T06:05:38Z</time>
      </trkpt>
      <trkpt lat="45.971140" lon="6.809605">
        <ele>1835.511</ele>
        <time>2018-07-12T06:05:43Z</time>
      </trkpt>
      <trkpt lat="45.971176" lon="6.809658">
        <ele>1834.708</ele>
        <time>2018-07-12T06:05:49Z</time>
      </trkpt>
      <trkpt lat="45.971197" lon="6.809721">
        <ele>1834.336</ele>
        <time>2018-07-12T06:05:54Z</time>
      </trkpt>
      <trkpt lat="45.971226" lon="6.809788">
        <ele>1833.810</ele>
        <time>2018-07-12T06:05:59Z</time>
      </trkpt>
      <trkpt lat="45.971257" lon="6.809844">
        <ele>1833.238</ele>
        <time>2018-07-12T06:06:04Z</time>
      </trkpt>
      <trkpt lat="45.971277" lon="6.809905">
        <ele>1832.867</ele>
        <time>2018-07-12T06:06:09Z</time>
      </trkpt>
      <trkpt lat="45.971293" lon="6.809968">
        <ele>1832.141</ele>
        <time>2018-07-12T06:06:14Z</time>
      </trkpt>
      <trkpt lat="45.971319" lon="6.810032">
        <ele>1831.986</ele>
        <time>2018-07-12T06:06:19Z</time>
      </trkpt>
      <trkpt lat="45.971341" lon="6.810093">
        <ele>1831.450</ele>
        <time>2018-07-12T06:06:26Z</time>
      </trkpt>
      <trkpt lat="45.971376" lon="6.810137">
        <ele>1833.336</ele>
        <time>2018-07-12T06:06:33Z</time>
      </trkpt>
      <trkpt lat="45.971403" lon="6.810194">
        <ele>1830.529</ele>
        <time>2018-07-12T06:06:41Z</time>
      </trkpt>
      <trkpt lat="45.971429" lon="6.810257">
        <ele>1830.700</ele>
        <time>2018-07-12T06:06:48Z</time>
      </trkpt>
      <trkpt lat="45.971433" lon="6.810325">
        <ele>1829.820</ele>
        <time>2018-07-12T06:06:54Z</time>
      </trkpt>
      <trkpt lat="45.971419" lon="6.810397">
        <ele>1828.908</ele>
        <time>2018-07-12T06:07:01Z</time>
      </trkpt>
      <trkpt lat="45.971426" lon="6.810468">
        <ele>1828.714</ele>
        <time>2018-07-12T06:07:08Z</time>
      </trkpt>
      <trkpt lat="45.971431" lon="6.810533">
        <ele>1827.918</ele>
        <time>2018-07-12T06:07:23Z</time>
      </trkpt>
      <trkpt lat="45.971432" lon="6.810614">
        <ele>1829.596</ele>
        <time>2018-07-12T06:07:43Z</time>
      </trkpt>
      <trkpt lat="45.971460" lon="6.810673">
        <ele>1826.095</ele>
        <time>2018-07-12T06:08:51Z</time>
      </trkpt>
      <trkpt lat="45.971485" lon="6.810737">
        <ele>1825.869</ele>
        <time>2018-07-12T06:08:56Z</time>
      </trkpt>
      <trkpt lat="45.971498" lon="6.810801">
        <ele>1825.634</ele>
        <time>2018-07-12T06:09:01Z</time>
      </trkpt>
      <trkpt lat="45.971509" lon="6.810874">
        <ele>1824.958</ele>
        <time>2018-07-12T06:09:09Z</time>
      </trkpt>
      <trkpt lat="45.971513" lon="6.810945">
        <ele>1823.984</ele>
        <time>2018-07-12T06:09:15Z</time>
      </trkpt>
      <trkpt lat="45.971512" lon="6.811010">
        <ele>1823.333</ele>
        <time>2018-07-12T06:09:21Z</time>
      </trkpt>
      <trkpt lat="45.971508" lon="6.811086">
        <ele>1822.623</ele>
        <time>2018-07-12T06:09:28Z</time>
      </trkpt>
      <trkpt lat="45.971489" lon="6.811156">
        <ele>1821.315</ele>
        <time>2018-07-12T06:09:35Z</time>
      </trkpt>
      <trkpt lat="45.971459" lon="6.811219">
        <ele>1820.708</ele>
        <time>2018-07-12T06:09:40Z</time>
      </trkpt>
      <trkpt lat="45.971440" lon="6.811285">
        <ele>1819.925</ele>
        <time>2018-07-12T06:09:46Z</time>
      </trkpt>
      <trkpt lat="45.971457" lon="6.811352">
        <ele>1819.149</ele>
        <time>2018-07-12T06:09:54Z</time>
      </trkpt>
      <trkpt lat="45.971449" lon="6.811416">
        <ele>1819.457</ele>
        <time>2018-07-12T06:10:04Z</time>
      </trkpt>
      <trkpt lat="45.971425" lon="6.811474">
        <ele>1818.416</ele>
        <time>2018-07-12T06:10:10Z</time>
      </trkpt>
      <trkpt lat="45.971395" lon="6.811532">
        <ele>1818.710</ele>
        <time>2018-07-12T06:10:16Z</time>
      </trkpt>
      <trkpt lat="45.971385" lon="6.811597">
        <ele>1816.945</ele>
        <time>2018-07-12T06:10:23Z</time>
      </trkpt>
      <trkpt lat="45.971381" lon="6.811673">
        <ele>1816.059</ele>
        <time>2018-07-12T06:10:30Z</time>
      </trkpt>
      <trkpt lat="45.971385" lon="6.811739">
        <ele>1815.825</ele>
        <time>2018-07-12T06:10:36Z</time>
      </trkpt>
      <trkpt lat="45.971377" lon="6.811807">
        <ele>1814.958</ele>
        <time>2018-07-12T06:10:43Z</time>
      </trkpt>
      <trkpt lat="45.971362" lon="6.811872">
        <ele>1813.552</ele>
        <time>2018-07-12T06:10:50Z</time>
      </trkpt>
      <trkpt lat="45.971361" lon="6.811942">
        <ele>1813.317</ele>
        <time>2018-07-12T06:10:56Z</time>
      </trkpt>
      <trkpt lat="45.971365" lon="6.812018">
        <ele>1812.008</ele>
        <time>2018-07-12T06:11:12Z</time>
      </trkpt>
      <trkpt lat="45.971373" lon="6.812090">
        <ele>1811.467</ele>
        <time>2018-07-12T06:11:19Z</time>
      </trkpt>
      <trkpt lat="45.971387" lon="6.812166">
        <ele>1810.781</ele>
        <time>2018-07-12T06:11:26Z</time>
      </trkpt>
      <trkpt lat="45.971395" lon="6.812231">
        <ele>1812.189</ele>
        <time>2018-07-12T06:11:32Z</time>
      </trkpt>
      <trkpt lat="45.971400" lon="6.812296">
        <ele>1808.748</ele>
        <time>2018-07-12T06:11:38Z</time>
      </trkpt>
      <trkpt lat="45.971383" lon="6.812363">
        <ele>1807.472</ele>
        <time>2018-07-12T06:11:46Z</time>
      </trkpt>
      <trkpt lat="45.971359" lon="6.812425">
        <ele>1806.497</ele>
        <time>2018-07-12T06:11:55Z</time>
      </trkpt>
      <trkpt lat="45.971330" lon="6.812476">
        <ele>1805.321</ele>
        <time>2018-07-12T06:12:21Z</time>
      </trkpt>
      <trkpt lat="45.971292" lon="6.812526">
        <ele>1804.367</ele>
        <time>2018-07-12T06:12:29Z</time>
      </trkpt>
      <trkpt lat="45.971269" lon="6.812592">
        <ele>1802.613</ele>
        <time>2018-07-12T06:12:36Z</time>
      </trkpt>
      <trkpt lat="45.971245" lon="6.812651">
        <ele>1801.643</ele>
        <time>2018-07-12T06:12:44Z</time>
      </trkpt>
      <trkpt lat="45.971225" lon="6.812712">
        <ele>1801.207</ele>
        <time>2018-07-12T06:12:50Z</time>
      </trkpt>
      <trkpt lat="45.971191" lon="6.812768">
        <ele>1800.208</ele>
        <time>2018-07-12T06:12:56Z</time>
      </trkpt>
      <trkpt lat="45.971184" lon="6.812840">
        <ele>1798.473</ele>
        <time>2018-07-12T06:13:02Z</time>
      </trkpt>
      <trkpt lat="45.971181" lon="6.812910">
        <ele>1797.847</ele>
        <time>2018-07-12T06:13:09Z</time>
      </trkpt>
      <trkpt lat="45.971169" lon="6.812975">
        <ele>1797.355</ele>
        <time>2018-07-12T06:13:23Z</time>
      </trkpt>
      <trkpt lat="45.971156" lon="6.813037">
        <ele>1795.794</ele>
        <time>2018-07-12T06:13:32Z</time>
      </trkpt>
      <trkpt lat="45.971148" lon="6.813112">
        <ele>1795.068</ele>
        <time>2018-07-12T06:13:38Z</time>
      </trkpt>
      <trkpt lat="45.971127" lon="6.813177">
        <ele>1794.613</ele>
        <time>2018-07-12T06:13:43Z</time>
      </trkpt>
      <trkpt lat="45.971100" lon="6.813235">
        <ele>1794.217</ele>
        <time>2018-07-12T06:13:48Z</time>
      </trkpt>
      <trkpt lat="45.971080" lon="6.813299">
        <ele>1793.053</ele>
        <time>2018-07-12T06:13:53Z</time>
      </trkpt>
      <trkpt lat="45.971057" lon="6.813362">
        <ele>1791.949</ele>
        <time>2018-07-12T06:13:59Z</time>
      </trkpt>
      <trkpt lat="45.971056" lon="6.813434">
        <ele>1792.002</ele>
        <time>2018-07-12T06:14:05Z</time>
      </trkpt>
      <trkpt lat="45.971059" lon="6.813506">
        <ele>1790.622</ele>
        <time>2018-07-12T06:14:12Z</time>
      </trkpt>
      <trkpt lat="45.971032" lon="6.813571">
        <ele>1789.208</ele>
        <time>2018-07-12T06:14:19Z</time>
      </trkpt>
      <trkpt lat="45.970995" lon="6.813619">
        <ele>1788.536</ele>
        <time>2018-07-12T06:14:25Z</time>
      </trkpt>
      <trkpt lat="45.970962" lon="6.813678">
        <ele>1787.670</ele>
        <time>2018-07-12T06:14:31Z</time>
      </trkpt>
      <trkpt lat="45.970935" lon="6.813731">
        <ele>1786.938</ele>
        <time>2018-07-12T06:14:36Z</time>
      </trkpt>
      <trkpt lat="45.970930" lon="6.813804">
        <ele>1786.177</ele>
        <time>2018-07-12T06:14:41Z</time>
      </trkpt>
      <trkpt lat="45.970905" lon="6.813865">
        <ele>1785.591</ele>
        <time>2018-07-12T06:14:46Z</time>
      </trkpt>
      <trkpt lat="45.970870" lon="6.813918">
        <ele>1784.266</ele>
        <time>2018-07-12T06:14:52Z</time>
      </trkpt>
      <trkpt lat="45.970831" lon="6.813950">
        <ele>1782.890</ele>
        <time>2018-07-12T06:14:57Z</time>
      </trkpt>
      <trkpt lat="45.970793" lon="6.814005">
        <ele>1781.836</ele>
        <time>2018-07-12T06:15:03Z</time>
      </trkpt>
      <trkpt lat="45.970769" lon="6.814061">
        <ele>1780.916</ele>
        <time>2018-07-12T06:15:08Z</time>
      </trkpt>
      <trkpt lat="45.970763" lon="6.814135">
        <ele>1779.676</ele>
        <time>2018-07-12T06:15:15Z</time>
      </trkpt>
      <trkpt lat="45.970748" lon="6.814210">
        <ele>1778.513</ele>
        <time>2018-07-12T06:15:21Z</time>
      </trkpt>
      <trkpt lat="45.970728" lon="6.814274">
        <ele>1777.208</ele>
        <time>2018-07-12T06:15:27Z</time>
      </trkpt>
      <trkpt lat="45.970699" lon="6.814324">
        <ele>1775.853</ele>
        <time>2018-07-12T06:15:34Z</time>
      </trkpt>
      <trkpt lat="45.970678" lon="6.814383">
        <ele>1775.367</ele>
        <time>2018-07-12T06:15:40Z</time>
      </trkpt>
      <trkpt lat="45.970651" lon="6.814439">
        <ele>1774.195</ele>
        <time>2018-07-12T06:15:45Z</time>
      </trkpt>
      <trkpt lat="45.970630" lon="6.814497">
        <ele>1773.094</ele>
        <time>2018-07-12T06:15:51Z</time>
      </trkpt>
      <trkpt lat="45.970597" lon="6.814546">
        <ele>1772.868</ele>
        <time>2018-07-12T06:15:58Z</time>
      </trkpt>
      <trkpt lat="45.970566" lon="6.814597">
        <ele>1770.693</ele>
        <time>2018-07-12T06:16:08Z</time>
      </trkpt>
      <trkpt lat="45.970532" lon="6.814651">
        <ele>1769.337</ele>
        <time>2018-07-12T06:16:16Z</time>
      </trkpt>
      <trkpt lat="45.970511" lon="6.814709">
        <ele>1769.213</ele>
        <time>2018-07-12T06:16:22Z</time>
      </trkpt>
      <trkpt lat="45.970480" lon="6.814762">
        <ele>1767.355</ele>
        <time>2018-07-12T06:16:29Z</time>
      </trkpt>
      <trkpt lat="45.970451" lon="6.814812">
        <ele>1766.807</ele>
        <time>2018-07-12T06:16:37Z</time>
      </trkpt>
      <trkpt lat="45.970430" lon="6.814880">
        <ele>1765.317</ele>
        <time>2018-07-12T06:16:45Z</time>
      </trkpt>
      <trkpt lat="45.970401" lon="6.814942">
        <ele>1764.908</ele>
        <time>2018-07-12T06:16:51Z</time>
      </trkpt>
      <trkpt lat="45.970367" lon="6.814990">
        <ele>1763.567</ele>
        <time>2018-07-12T06:16:58Z</time>
      </trkpt>
      <trkpt lat="45.970335" lon="6.815038">
        <ele>1762.291</ele>
        <time>2018-07-12T06:17:06Z</time>
      </trkpt>
      <trkpt lat="45.970294" lon="6.815066">
        <ele>1760.079</ele>
        <time>2018-07-12T06:17:17Z</time>
      </trkpt>
      <trkpt lat="45.970266" lon="6.815119">
        <ele>1759.068</ele>
        <time>2018-07-12T06:17:27Z</time>
      </trkpt>
      <trkpt lat="45.970241" lon="6.815185">
        <ele>1758.462</ele>
        <time>2018-07-12T06:17:33Z</time>
      </trkpt>
      <trkpt lat="45.970218" lon="6.815247">
        <ele>1757.637</ele>
        <time>2018-07-12T06:17:39Z</time>
      </trkpt>
      <trkpt lat="45.970171" lon="6.815280">
        <ele>1756.431</ele>
        <time>2018-07-12T06:17:47Z</time>
      </trkpt>
      <trkpt lat="45.970143" lon="6.815348">
        <ele>1756.427</ele>
        <time>2018-07-12T06:17:53Z</time>
      </trkpt>
      <trkpt lat="45.970135" lon="6.815416">
        <ele>1755.112</ele>
        <time>2018-07-12T06:17:58Z</time>
      </trkpt>
      <trkpt lat="45.970135" lon="6.815488">
        <ele>1754.632</ele>
        <time>2018-07-12T06:18:03Z</time>
      </trkpt>
      <trkpt lat="45.970124" lon="6.815551">
        <ele>1753.705</ele>
        <time>2018-07-12T06:18:09Z</time>
      </trkpt>
      <trkpt lat="45.970106" lon="6.815614">
        <ele>1752.508</ele>
        <time>2018-07-12T06:18:15Z</time>
      </trkpt>
      <trkpt lat="45.970087" lon="6.815675">
        <ele>1752.583</ele>
        <time>2018-07-12T06:18:21Z</time>
      </trkpt>
      <trkpt lat="45.970052" lon="6.815719">
        <ele>1751.347</ele>
        <time>2018-07-12T06:18:27Z</time>
      </trkpt>
      <trkpt lat="45.970015" lon="6.815765">
        <ele>1750.215</ele>
        <time>2018-07-12T06:18:35Z</time>
      </trkpt>
      <trkpt lat="45.969977" lon="6.815807">
        <ele>1749.454</ele>
        <time>2018-07-12T06:18:42Z</time>
      </trkpt>
      <trkpt lat="45.969942" lon="6.815849">
        <ele>1748.528</ele>
        <time>2018-07-12T06:18:48Z</time>
      </trkpt>
      <trkpt lat="45.969901" lon="6.815888">
        <ele>1748.123</ele>
        <time>2018-07-12T06:18:55Z</time>
      </trkpt>
      <trkpt lat="45.969860" lon="6.815927">
        <ele>1746.497</ele>
        <time>2018-07-12T06:19:02Z</time>
      </trkpt>
      <trkpt lat="45.969835" lon="6.815984">
        <ele>1746.383</ele>
        <time>2018-07-12T06:19:07Z</time>
      </trkpt>
      <trkpt lat="45.969812" lon="6.816051">
        <ele>1744.985</ele>
        <time>2018-07-12T06:19:13Z</time>
      </trkpt>
      <trkpt lat="45.969791" lon="6.816115">
        <ele>1744.589</ele>
        <time>2018-07-12T06:19:20Z</time>
      </trkpt>
      <trkpt lat="45.969773" lon="6.816176">
        <ele>1743.717</ele>
        <time>2018-07-12T06:19:26Z</time>
      </trkpt>
      <trkpt lat="45.969734" lon="6.816216">
        <ele>1743.408</ele>
        <time>2018-07-12T06:19:32Z</time>
      </trkpt>
      <trkpt lat="45.969703" lon="6.816280">
        <ele>1742.950</ele>
        <time>2018-07-12T06:19:39Z</time>
      </trkpt>
      <trkpt lat="45.969686" lon="6.816351">
        <ele>1742.444</ele>
        <time>2018-07-12T06:19:44Z</time>
      </trkpt>
      <trkpt lat="45.969687" lon="6.816423">
        <ele>1741.922</ele>
        <time>2018-07-12T06:19:50Z</time>
      </trkpt>
      <trkpt lat="45.969703" lon="6.816493">
        <ele>1741.311</ele>
        <time>2018-07-12T06:19:56Z</time>
      </trkpt>
      <trkpt lat="45.969691" lon="6.816557">
        <ele>1740.315</ele>
        <time>2018-07-12T06:20:03Z</time>
      </trkpt>
      <trkpt lat="45.969663" lon="6.816621">
        <ele>1740.220</ele>
        <time>2018-07-12T06:20:08Z</time>
      </trkpt>
      <trkpt lat="45.969636" lon="6.816675">
        <ele>1739.334</ele>
        <time>2018-07-12T06:20:13Z</time>
      </trkpt>
      <trkpt lat="45.969605" lon="6.816723">
        <ele>1739.520</ele>
        <time>2018-07-12T06:20:18Z</time>
      </trkpt>
      <trkpt lat="45.969589" lon="6.816794">
        <ele>1738.534</ele>
        <time>2018-07-12T06:20:23Z</time>
      </trkpt>
      <trkpt lat="45.969589" lon="6.816860">
        <ele>1738.255</ele>
        <time>2018-07-12T06:20:28Z</time>
      </trkpt>
      <trkpt lat="45.969586" lon="6.816937">
        <ele>1737.010</ele>
        <time>2018-07-12T06:20:34Z</time>
      </trkpt>
      <trkpt lat="45.969581" lon="6.817002">
        <ele>1736.808</ele>
        <time>2018-07-12T06:20:38Z</time>
      </trkpt>
      <trkpt lat="45.969560" lon="6.817074">
        <ele>1736.565</ele>
        <time>2018-07-12T06:20:43Z</time>
      </trkpt>
      <trkpt lat="45.969537" lon="6.817130">
        <ele>1736.139</ele>
        <time>2018-07-12T06:20:48Z</time>
      </trkpt>
      <trkpt lat="45.969486" lon="6.817123">
        <ele>1735.077</ele>
        <time>2018-07-12T06:20:56Z</time>
      </trkpt>
      <trkpt lat="45.969448" lon="6.817087">
        <ele>1734.046</ele>
        <time>2018-07-12T06:21:02Z</time>
      </trkpt>
      <trkpt lat="45.969407" lon="6.817043">
        <ele>1732.910</ele>
        <time>2018-07-12T06:21:08Z</time>
      </trkpt>
      <trkpt lat="45.969372" lon="6.817083">
        <ele>1732.055</ele>
        <time>2018-07-12T06:21:16Z</time>
      </trkpt>
      <trkpt lat="45.969363" lon="6.817153">
        <ele>1731.519</ele>
        <time>2018-07-12T06:21:21Z</time>
      </trkpt>
      <trkpt lat="45.969371" lon="6.817219">
        <ele>1731.115</ele>
        <time>2018-07-12T06:21:26Z</time>
      </trkpt>
      <trkpt lat="45.969388" lon="6.817288">
        <ele>1732.782</ele>
        <time>2018-07-12T06:21:32Z</time>
      </trkpt>
      <trkpt lat="45.969417" lon="6.817354">
        <ele>1728.343</ele>
        <time>2018-07-12T06:21:39Z</time>
      </trkpt>
      <trkpt lat="45.969464" lon="6.817385">
        <ele>1728.017</ele>
        <time>2018-07-12T06:21:44Z</time>
      </trkpt>
      <trkpt lat="45.969513" lon="6.817413">
        <ele>1727.108</ele>
        <time>2018-07-12T06:21:49Z</time>
      </trkpt>
      <trkpt lat="45.969526" lon="6.817480">
        <ele>1727.490</ele>
        <time>2018-07-12T06:21:56Z</time>
      </trkpt>
      <trkpt lat="45.969513" lon="6.817547">
        <ele>1727.934</ele>
        <time>2018-07-12T06:22:01Z</time>
      </trkpt>
      <trkpt lat="45.969498" lon="6.817612">
        <ele>1726.952</ele>
        <time>2018-07-12T06:22:07Z</time>
      </trkpt>
      <trkpt lat="45.969480" lon="6.817676">
        <ele>1726.571</ele>
        <time>2018-07-12T06:22:13Z</time>
      </trkpt>
      <trkpt lat="45.969452" lon="6.817736">
        <ele>1725.495</ele>
        <time>2018-07-12T06:22:19Z</time>
      </trkpt>
      <trkpt lat="45.969423" lon="6.817786">
        <ele>1724.810</ele>
        <time>2018-07-12T06:22:26Z</time>
      </trkpt>
      <trkpt lat="45.969387" lon="6.817836">
        <ele>1723.334</ele>
        <time>2018-07-12T06:22:33Z</time>
      </trkpt>
      <trkpt lat="45.969363" lon="6.817897">
        <ele>1722.330</ele>
        <time>2018-07-12T06:22:40Z</time>
      </trkpt>
      <trkpt lat="45.969340" lon="6.817953">
        <ele>1721.129</ele>
        <time>2018-07-12T06:22:46Z</time>
      </trkpt>
      <trkpt lat="45.969314" lon="6.818018">
        <ele>1720.000</ele>
        <time>2018-07-12T06:22:52Z</time>
      </trkpt>
      <trkpt lat="45.969285" lon="6.818072">
        <ele>1719.420</ele>
        <time>2018-07-12T06:22:57Z</time>
      </trkpt>
      <trkpt lat="45.969251" lon="6.818124">
        <ele>1719.008</ele>
        <time>2018-07-12T06:23:05Z</time>
      </trkpt>
      <trkpt lat="45.969208" lon="6.818149">
        <ele>1720.074</ele>
        <time>2018-07-12T06:23:13Z</time>
      </trkpt>
      <trkpt lat="45.969164" lon="6.818162">
        <ele>1719.418</ele>
        <time>2018-07-12T06:23:22Z</time>
      </trkpt>
      <trkpt lat="45.969123" lon="6.818193">
        <ele>1716.576</ele>
        <time>2018-07-12T06:24:45Z</time>
      </trkpt>
      <trkpt lat="45.969088" lon="6.818238">
        <ele>1716.045</ele>
        <time>2018-07-12T06:25:00Z</time>
      </trkpt>
      <trkpt lat="45.969059" lon="6.818290">
        <ele>1715.079</ele>
        <time>2018-07-12T06:25:07Z</time>
      </trkpt>
      <trkpt lat="45.969032" lon="6.818344">
        <ele>1714.494</ele>
        <time>2018-07-12T06:25:12Z</time>
      </trkpt>
      <trkpt lat="45.968999" lon="6.818397">
        <ele>1713.418</ele>
        <time>2018-07-12T06:25:19Z</time>
      </trkpt>
      <trkpt lat="45.968962" lon="6.818438">
        <ele>1713.064</ele>
        <time>2018-07-12T06:25:25Z</time>
      </trkpt>
      <trkpt lat="45.968932" lon="6.818494">
        <ele>1712.593</ele>
        <time>2018-07-12T06:25:30Z</time>
      </trkpt>
      <trkpt lat="45.968901" lon="6.818551">
        <ele>1711.765</ele>
        <time>2018-07-12T06:25:37Z</time>
      </trkpt>
      <trkpt lat="45.968868" lon="6.818602">
        <ele>1710.921</ele>
        <time>2018-07-12T06:25:44Z</time>
      </trkpt>
      <trkpt lat="45.968834" lon="6.818659">
        <ele>1710.308</ele>
        <time>2018-07-12T06:25:50Z</time>
      </trkpt>
      <trkpt lat="45.968798" lon="6.818711">
        <ele>1709.891</ele>
        <time>2018-07-12T06:25:55Z</time>
      </trkpt>
      <trkpt lat="45.968763" lon="6.818770">
        <ele>1709.195</ele>
        <time>2018-07-12T06:26:01Z</time>
      </trkpt>
      <trkpt lat="45.968736" lon="6.818831">
        <ele>1708.683</ele>
        <time>2018-07-12T06:26:06Z</time>
      </trkpt>
      <trkpt lat="45.968722" lon="6.818892">
        <ele>1708.292</ele>
        <time>2018-07-12T06:26:11Z</time>
      </trkpt>
      <trkpt lat="45.968690" lon="6.818942">
        <ele>1707.326</ele>
        <time>2018-07-12T06:26:17Z</time>
      </trkpt>
      <trkpt lat="45.968662" lon="6.819010">
        <ele>1706.661</ele>
        <time>2018-07-12T06:26:23Z</time>
      </trkpt>
      <trkpt lat="45.968634" lon="6.819072">
        <ele>1707.195</ele>
        <time>2018-07-12T06:26:28Z</time>
      </trkpt>
      <trkpt lat="45.968609" lon="6.819133">
        <ele>1707.711</ele>
        <time>2018-07-12T06:26:33Z</time>
      </trkpt>
      <trkpt lat="45.968586" lon="6.819189">
        <ele>1704.726</ele>
        <time>2018-07-12T06:26:38Z</time>
      </trkpt>
      <trkpt lat="45.968565" lon="6.819251">
        <ele>1704.047</ele>
        <time>2018-07-12T06:26:44Z</time>
      </trkpt>
      <trkpt lat="45.968526" lon="6.819292">
        <ele>1703.011</ele>
        <time>2018-07-12T06:26:51Z</time>
      </trkpt>
      <trkpt lat="45.968490" lon="6.819343">
        <ele>1703.308</ele>
        <time>2018-07-12T06:26:57Z</time>
      </trkpt>
      <trkpt lat="45.968463" lon="6.819399">
        <ele>1702.154</ele>
        <time>2018-07-12T06:27:02Z</time>
      </trkpt>
      <trkpt lat="45.968421" lon="6.819443">
        <ele>1701.598</ele>
        <time>2018-07-12T06:27:07Z</time>
      </trkpt>
      <trkpt lat="45.968385" lon="6.819494">
        <ele>1701.036</ele>
        <time>2018-07-12T06:27:12Z</time>
      </trkpt>
      <trkpt lat="45.968354" lon="6.819564">
        <ele>1700.635</ele>
        <time>2018-07-12T06:27:18Z</time>
      </trkpt>
      <trkpt lat="45.968317" lon="6.819615">
        <ele>1699.329</ele>
        <time>2018-07-12T06:27:24Z</time>
      </trkpt>
      <trkpt lat="45.968272" lon="6.819644">
        <ele>1699.014</ele>
        <time>2018-07-12T06:27:29Z</time>
      </trkpt>
      <trkpt lat="45.968236" lon="6.819683">
        <ele>1698.568</ele>
        <time>2018-07-12T06:27:33Z</time>
      </trkpt>
      <trkpt lat="45.968200" lon="6.819741">
        <ele>1697.914</ele>
        <time>2018-07-12T06:27:38Z</time>
      </trkpt>
      <trkpt lat="45.968174" lon="6.819795">
        <ele>1697.662</ele>
        <time>2018-07-12T06:27:42Z</time>
      </trkpt>
      <trkpt lat="45.968147" lon="6.819848">
        <ele>1696.983</ele>
        <time>2018-07-12T06:27:46Z</time>
      </trkpt>
      <trkpt lat="45.968121" lon="6.819912">
        <ele>1696.711</ele>
        <time>2018-07-12T06:27:51Z</time>
      </trkpt>
      <trkpt lat="45.968081" lon="6.819947">
        <ele>1696.008</ele>
        <time>2018-07-12T06:27:57Z</time>
      </trkpt>
      <trkpt lat="45.968047" lon="6.819991">
        <ele>1695.228</ele>
        <time>2018-07-12T06:28:02Z</time>
      </trkpt>
      <trkpt lat="45.968006" lon="6.820033">
        <ele>1695.122</ele>
        <time>2018-07-12T06:28:08Z</time>
      </trkpt>
      <trkpt lat="45.967958" lon="6.820062">
        <ele>1694.310</ele>
        <time>2018-07-12T06:28:16Z</time>
      </trkpt>
      <trkpt lat="45.967915" lon="6.820100">
        <ele>1693.589</ele>
        <time>2018-07-12T06:28:21Z</time>
      </trkpt>
      <trkpt lat="45.967874" lon="6.820133">
        <ele>1693.313</ele>
        <time>2018-07-12T06:28:26Z</time>
      </trkpt>
      <trkpt lat="45.967826" lon="6.820164">
        <ele>1692.588</ele>
        <time>2018-07-12T06:28:31Z</time>
      </trkpt>
      <trkpt lat="45.967791" lon="6.820206">
        <ele>1692.432</ele>
        <time>2018-07-12T06:28:35Z</time>
      </trkpt>
      <trkpt lat="45.967757" lon="6.820250">
        <ele>1692.348</ele>
        <time>2018-07-12T06:28:39Z</time>
      </trkpt>
      <trkpt lat="45.967706" lon="6.820286">
        <ele>1691.959</ele>
        <time>2018-07-12T06:28:44Z</time>
      </trkpt>
      <trkpt lat="45.967665" lon="6.820323">
        <ele>1691.803</ele>
        <time>2018-07-12T06:28:48Z</time>
      </trkpt>
      <trkpt lat="45.967625" lon="6.820373">
        <ele>1691.023</ele>
        <time>2018-07-12T06:28:53Z</time>
      </trkpt>
      <trkpt lat="45.967600" lon="6.820435">
        <ele>1690.708</ele>
        <time>2018-07-12T06:28:58Z</time>
      </trkpt>
      <trkpt lat="45.967577" lon="6.820502">
        <ele>1690.427</ele>
        <time>2018-07-12T06:29:03Z</time>
      </trkpt>
      <trkpt lat="45.967559" lon="6.820571">
        <ele>1689.211</ele>
        <time>2018-07-12T06:29:08Z</time>
      </trkpt>
      <trkpt lat="45.967549" lon="6.820643">
        <ele>1688.959</ele>
        <time>2018-07-12T06:29:13Z</time>
      </trkpt>
      <trkpt lat="45.967542" lon="6.820715">
        <ele>1688.988</ele>
        <time>2018-07-12T06:29:18Z</time>
      </trkpt>
      <trkpt lat="45.967526" lon="6.820785">
        <ele>1688.522</ele>
        <time>2018-07-12T06:29:23Z</time>
      </trkpt>
      <trkpt lat="45.967516" lon="6.820861">
        <ele>1688.687</ele>
        <time>2018-07-12T06:29:28Z</time>
      </trkpt>
      <trkpt lat="45.967508" lon="6.820926">
        <ele>1688.771</ele>
        <time>2018-07-12T06:29:32Z</time>
      </trkpt>
      <trkpt lat="45.967472" lon="6.820975">
        <ele>1688.187</ele>
        <time>2018-07-12T06:29:37Z</time>
      </trkpt>
      <trkpt lat="45.967430" lon="6.821015">
        <ele>1687.832</ele>
        <time>2018-07-12T06:29:41Z</time>
      </trkpt>
      <trkpt lat="45.967392" lon="6.821058">
        <ele>1688.492</ele>
        <time>2018-07-12T06:29:47Z</time>
      </trkpt>
      <trkpt lat="45.967381" lon="6.821135">
        <ele>1687.911</ele>
        <time>2018-07-12T06:29:53Z</time>
      </trkpt>
      <trkpt lat="45.967367" lon="6.821213">
        <ele>1687.508</ele>
        <time>2018-07-12T06:29:58Z</time>
      </trkpt>
      <trkpt lat="45.967357" lon="6.821285">
        <ele>1687.275</ele>
        <time>2018-07-12T06:30:03Z</time>
      </trkpt>
      <trkpt lat="45.967360" lon="6.821355">
        <ele>1687.689</ele>
        <time>2018-07-12T06:30:09Z</time>
      </trkpt>
      <trkpt lat="45.967378" lon="6.821417">
        <ele>1686.997</ele>
        <time>2018-07-12T06:30:14Z</time>
      </trkpt>
      <trkpt lat="45.967398" lon="6.821480">
        <ele>1686.996</ele>
        <time>2018-07-12T06:30:19Z</time>
      </trkpt>
      <trkpt lat="45.967420" lon="6.821541">
        <ele>1687.140</ele>
        <time>2018-07-12T06:30:24Z</time>
      </trkpt>
      <trkpt lat="45.967440" lon="6.821612">
        <ele>1686.975</ele>
        <time>2018-07-12T06:30:29Z</time>
      </trkpt>
      <trkpt lat="45.967463" lon="6.821682">
        <ele>1687.089</ele>
        <time>2018-07-12T06:30:34Z</time>
      </trkpt>
      <trkpt lat="45.967493" lon="6.821731">
        <ele>1686.755</ele>
        <time>2018-07-12T06:30:38Z</time>
      </trkpt>
      <trkpt lat="45.967534" lon="6.821782">
        <ele>1687.198</ele>
        <time>2018-07-12T06:30:43Z</time>
      </trkpt>
      <trkpt lat="45.967558" lon="6.821843">
        <ele>1687.515</ele>
        <time>2018-07-12T06:30:49Z</time>
      </trkpt>
      <trkpt lat="45.967567" lon="6.821911">
        <ele>1687.826</ele>
        <time>2018-07-12T06:30:54Z</time>
      </trkpt>
      <trkpt lat="45.967579" lon="6.821986">
        <ele>1687.508</ele>
        <time>2018-07-12T06:30:59Z</time>
      </trkpt>
      <trkpt lat="45.967590" lon="6.822059">
        <ele>1687.611</ele>
        <time>2018-07-12T06:31:04Z</time>
      </trkpt>
      <trkpt lat="45.967579" lon="6.822133">
        <ele>1687.875</ele>
        <time>2018-07-12T06:31:09Z</time>
      </trkpt>
      <trkpt lat="45.967568" lon="6.822198">
        <ele>1686.993</ele>
        <time>2018-07-12T06:31:14Z</time>
      </trkpt>
      <trkpt lat="45.967582" lon="6.822271">
        <ele>1686.532</ele>
        <time>2018-07-12T06:31:19Z</time>
      </trkpt>
      <trkpt lat="45.967613" lon="6.822325">
        <ele>1686.526</ele>
        <time>2018-07-12T06:31:23Z</time>
      </trkpt>
      <trkpt lat="45.967655" lon="6.822378">
        <ele>1685.571</ele>
        <time>2018-07-12T06:31:28Z</time>
      </trkpt>
      <trkpt lat="45.967688" lon="6.822439">
        <ele>1687.565</ele>
        <time>2018-07-12T06:31:33Z</time>
      </trkpt>
      <trkpt lat="45.967688" lon="6.822507">
        <ele>1684.311</ele>
        <time>2018-07-12T06:31:38Z</time>
      </trkpt>
      <trkpt lat="45.967726" lon="6.822544">
        <ele>1683.095</ele>
        <time>2018-07-12T06:31:45Z</time>
      </trkpt>
      <trkpt lat="45.967770" lon="6.822514">
        <ele>1682.449</ele>
        <time>2018-07-12T06:31:50Z</time>
      </trkpt>
      <trkpt lat="45.967815" lon="6.822494">
        <ele>1681.323</ele>
        <time>2018-07-12T06:31:55Z</time>
      </trkpt>
      <trkpt lat="45.967865" lon="6.822487">
        <ele>1680.108</ele>
        <time>2018-07-12T06:32:01Z</time>
      </trkpt>
      <trkpt lat="45.967913" lon="6.822486">
        <ele>1679.441</ele>
        <time>2018-07-12T06:32:06Z</time>
      </trkpt>
      <trkpt lat="45.967958" lon="6.822494">
        <ele>1678.515</ele>
        <time>2018-07-12T06:32:11Z</time>
      </trkpt>
      <trkpt lat="45.968003" lon="6.822512">
        <ele>1677.753</ele>
        <time>2018-07-12T06:32:16Z</time>
      </trkpt>
      <trkpt lat="45.968028" lon="6.822569">
        <ele>1677.232</ele>
        <time>2018-07-12T06:32:23Z</time>
      </trkpt>
      <trkpt lat="45.968042" lon="6.822633">
        <ele>1675.686</ele>
        <time>2018-07-12T06:32:31Z</time>
      </trkpt>
      <trkpt lat="45.968072" lon="6.822688">
        <ele>1674.041</ele>
        <time>2018-07-12T06:32:38Z</time>
      </trkpt>
      <trkpt lat="45.968121" lon="6.822716">
        <ele>1673.255</ele>
        <time>2018-07-12T06:32:44Z</time>
      </trkpt>
      <trkpt lat="45.968164" lon="6.822747">
        <ele>1672.081</ele>
        <time>2018-07-12T06:32:50Z</time>
      </trkpt>
      <trkpt lat="45.968193" lon="6.822810">
        <ele>1670.591</ele>
        <time>2018-07-12T06:32:57Z</time>
      </trkpt>
      <trkpt lat="45.968221" lon="6.822868">
        <ele>1669.881</ele>
        <time>2018-07-12T06:33:02Z</time>
      </trkpt>
      <trkpt lat="45.968264" lon="6.822913">
        <ele>1668.919</ele>
        <time>2018-07-12T06:33:08Z</time>
      </trkpt>
      <trkpt lat="45.968303" lon="6.822949">
        <ele>1668.008</ele>
        <time>2018-07-12T06:33:14Z</time>
      </trkpt>
      <trkpt lat="45.968344" lon="6.822980">
        <ele>1665.911</ele>
        <time>2018-07-12T06:33:22Z</time>
      </trkpt>
      <trkpt lat="45.968392" lon="6.822965">
        <ele>1665.765</ele>
        <time>2018-07-12T06:33:31Z</time>
      </trkpt>
      <trkpt lat="45.968441" lon="6.822985">
        <ele>1664.483</ele>
        <time>2018-07-12T06:33:39Z</time>
      </trkpt>
      <trkpt lat="45.968481" lon="6.823032">
        <ele>1663.872</ele>
        <time>2018-07-12T06:33:46Z</time>
      </trkpt>
      <trkpt lat="45.968512" lon="6.823086">
        <ele>1662.626</ele>
        <time>2018-07-12T06:33:52Z</time>
      </trkpt>
      <trkpt lat="45.968552" lon="6.823136">
        <ele>1661.961</ele>
        <time>2018-07-12T06:33:58Z</time>
      </trkpt>
      <trkpt lat="45.968601" lon="6.823158">
        <ele>1661.795</ele>
        <time>2018-07-12T06:34:03Z</time>
      </trkpt>
      <trkpt lat="45.968649" lon="6.823172">
        <ele>1660.541</ele>
        <time>2018-07-12T06:34:08Z</time>
      </trkpt>
      <trkpt lat="45.968695" lon="6.823180">
        <ele>1660.718</ele>
        <time>2018-07-12T06:34:13Z</time>
      </trkpt>
      <trkpt lat="45.968742" lon="6.823189">
        <ele>1659.598</ele>
        <time>2018-07-12T06:34:18Z</time>
      </trkpt>
      <trkpt lat="45.968779" lon="6.823228">
        <ele>1658.817</ele>
        <time>2018-07-12T06:34:23Z</time>
      </trkpt>
      <trkpt lat="45.968826" lon="6.823251">
        <ele>1657.908</ele>
        <time>2018-07-12T06:34:28Z</time>
      </trkpt>
      <trkpt lat="45.968873" lon="6.823277">
        <ele>1657.623</ele>
        <time>2018-07-12T06:34:34Z</time>
      </trkpt>
      <trkpt lat="45.968912" lon="6.823315">
        <ele>1656.517</ele>
        <time>2018-07-12T06:34:40Z</time>
      </trkpt>
      <trkpt lat="45.968952" lon="6.823348">
        <ele>1655.315</ele>
        <time>2018-07-12T06:34:48Z</time>
      </trkpt>
      <trkpt lat="45.968986" lon="6.823393">
        <ele>1653.584</ele>
        <time>2018-07-12T06:34:57Z</time>
      </trkpt>
      <trkpt lat="45.969014" lon="6.823447">
        <ele>1652.068</ele>
        <time>2018-07-12T06:35:04Z</time>
      </trkpt>
      <trkpt lat="45.969051" lon="6.823498">
        <ele>1649.973</ele>
        <time>2018-07-12T06:35:12Z</time>
      </trkpt>
      <trkpt lat="45.969087" lon="6.823537">
        <ele>1649.387</ele>
        <time>2018-07-12T06:35:17Z</time>
      </trkpt>
      <trkpt lat="45.969135" lon="6.823567">
        <ele>1648.653</ele>
        <time>2018-07-12T06:35:23Z</time>
      </trkpt>
      <trkpt lat="45.969181" lon="6.823590">
        <ele>1647.472</ele>
        <time>2018-07-12T06:35:29Z</time>
      </trkpt>
      <trkpt lat="45.969221" lon="6.823624">
        <ele>1646.413</ele>
        <time>2018-07-12T06:35:34Z</time>
      </trkpt>
      <trkpt lat="45.969265" lon="6.823657">
        <ele>1646.114</ele>
        <time>2018-07-12T06:35:39Z</time>
      </trkpt>
      <trkpt lat="45.969310" lon="6.823691">
        <ele>1645.508</ele>
        <time>2018-07-12T06:35:44Z</time>
      </trkpt>
      <trkpt lat="45.969352" lon="6.823738">
        <ele>1645.159</ele>
        <time>2018-07-12T06:35:49Z</time>
      </trkpt>
      <trkpt lat="45.969388" lon="6.823790">
        <ele>1643.763</ele>
        <time>2018-07-12T06:35:55Z</time>
      </trkpt>
      <trkpt lat="45.969432" lon="6.823832">
        <ele>1643.321</ele>
        <time>2018-07-12T06:36:00Z</time>
      </trkpt>
      <trkpt lat="45.969481" lon="6.823868">
        <ele>1643.450</ele>
        <time>2018-07-12T06:36:05Z</time>
      </trkpt>
      <trkpt lat="45.969520" lon="6.823907">
        <ele>1643.334</ele>
        <time>2018-07-12T06:36:11Z</time>
      </trkpt>
      <trkpt lat="45.969539" lon="6.823970">
        <ele>1642.559</ele>
        <time>2018-07-12T06:36:19Z</time>
      </trkpt>
      <trkpt lat="45.969564" lon="6.824025">
        <ele>1641.513</ele>
        <time>2018-07-12T06:36:24Z</time>
      </trkpt>
      <trkpt lat="45.969597" lon="6.824084">
        <ele>1641.269</ele>
        <time>2018-07-12T06:36:30Z</time>
      </trkpt>
      <trkpt lat="45.969629" lon="6.824140">
        <ele>1639.737</ele>
        <time>2018-07-12T06:36:36Z</time>
      </trkpt>
      <trkpt lat="45.969650" lon="6.824202">
        <ele>1638.249</ele>
        <time>2018-07-12T06:36:48Z</time>
      </trkpt>
      <trkpt lat="45.969669" lon="6.824268">
        <ele>1636.913</ele>
        <time>2018-07-12T06:36:59Z</time>
      </trkpt>
      <trkpt lat="45.969692" lon="6.824330">
        <ele>1635.608</ele>
        <time>2018-07-12T06:37:07Z</time>
      </trkpt>
      <trkpt lat="45.969715" lon="6.824399">
        <ele>1634.585</ele>
        <time>2018-07-12T06:37:13Z</time>
      </trkpt>
      <trkpt lat="45.969744" lon="6.824456">
        <ele>1633.429</ele>
        <time>2018-07-12T06:37:18Z</time>
      </trkpt>
      <trkpt lat="45.969775" lon="6.824510">
        <ele>1632.947</ele>
        <time>2018-07-12T06:37:23Z</time>
      </trkpt>
      <trkpt lat="45.969798" lon="6.824570">
        <ele>1631.846</ele>
        <time>2018-07-12T06:37:31Z</time>
      </trkpt>
      <trkpt lat="45.969802" lon="6.824638">
        <ele>1630.730</ele>
        <time>2018-07-12T06:37:38Z</time>
      </trkpt>
      <trkpt lat="45.969819" lon="6.824705">
        <ele>1630.325</ele>
        <time>2018-07-12T06:37:44Z</time>
      </trkpt>
      <trkpt lat="45.969843" lon="6.824770">
        <ele>1628.959</ele>
        <time>2018-07-12T06:37:50Z</time>
      </trkpt>
      <trkpt lat="45.969868" lon="6.824830">
        <ele>1627.535</ele>
        <time>2018-07-12T06:37:55Z</time>
      </trkpt>
      <trkpt lat="45.969900" lon="6.824885">
        <ele>1626.817</ele>
        <time>2018-07-12T06:38:00Z</time>
      </trkpt>
      <trkpt lat="45.969924" lon="6.824943">
        <ele>1626.587</ele>
        <time>2018-07-12T06:38:05Z</time>
      </trkpt>
      <trkpt lat="45.969949" lon="6.824999">
        <ele>1625.415</ele>
        <time>2018-07-12T06:38:09Z</time>
      </trkpt>
      <trkpt lat="45.969979" lon="6.825054">
        <ele>1625.808</ele>
        <time>2018-07-12T06:38:14Z</time>
      </trkpt>
      <trkpt lat="45.970012" lon="6.825105">
        <ele>1624.373</ele>
        <time>2018-07-12T06:38:19Z</time>
      </trkpt>
      <trkpt lat="45.970035" lon="6.825165">
        <ele>1624.057</ele>
        <time>2018-07-12T06:38:23Z</time>
      </trkpt>
      <trkpt lat="45.970052" lon="6.825230">
        <ele>1623.015</ele>
        <time>2018-07-12T06:38:28Z</time>
      </trkpt>
      <trkpt lat="45.970075" lon="6.825289">
        <ele>1622.654</ele>
        <time>2018-07-12T06:38:33Z</time>
      </trkpt>
      <trkpt lat="45.970097" lon="6.825348">
        <ele>1622.128</ele>
        <time>2018-07-12T06:38:38Z</time>
      </trkpt>
      <trkpt lat="45.970114" lon="6.825420">
        <ele>1621.173</ele>
        <time>2018-07-12T06:38:45Z</time>
      </trkpt>
      <trkpt lat="45.970141" lon="6.825473">
        <ele>1619.917</ele>
        <time>2018-07-12T06:38:50Z</time>
      </trkpt>
      <trkpt lat="45.970170" lon="6.825532">
        <ele>1619.233</ele>
        <time>2018-07-12T06:38:56Z</time>
      </trkpt>
      <trkpt lat="45.970150" lon="6.825591">
        <ele>1617.561</ele>
        <time>2018-07-12T06:39:07Z</time>
      </trkpt>
      <trkpt lat="45.970099" lon="6.825577">
        <ele>1616.421</ele>
        <time>2018-07-12T06:39:14Z</time>
      </trkpt>
      <trkpt lat="45.970054" lon="6.825567">
        <ele>1617.113</ele>
        <time>2018-07-12T06:39:19Z</time>
      </trkpt>
      <trkpt lat="45.970015" lon="6.825523">
        <ele>1617.108</ele>
        <time>2018-07-12T06:39:25Z</time>
      </trkpt>
      <trkpt lat="45.969974" lon="6.825474">
        <ele>1616.678</ele>
        <time>2018-07-12T06:39:31Z</time>
      </trkpt>
      <trkpt lat="45.969926" lon="6.825445">
        <ele>1615.712</ele>
        <time>2018-07-12T06:39:37Z</time>
      </trkpt>
      <trkpt lat="45.969884" lon="6.825413">
        <ele>1614.760</ele>
        <time>2018-07-12T06:39:42Z</time>
      </trkpt>
      <trkpt lat="45.969836" lon="6.825390">
        <ele>1611.639</ele>
        <time>2018-07-12T06:39:47Z</time>
      </trkpt>
      <trkpt lat="45.969784" lon="6.825378">
        <ele>1610.573</ele>
        <time>2018-07-12T06:39:52Z</time>
      </trkpt>
      <trkpt lat="45.969735" lon="6.825362">
        <ele>1610.648</ele>
        <time>2018-07-12T06:39:57Z</time>
      </trkpt>
      <trkpt lat="45.969685" lon="6.825362">
        <ele>1609.282</ele>
        <time>2018-07-12T06:40:03Z</time>
      </trkpt>
      <trkpt lat="45.969646" lon="6.825319">
        <ele>1607.758</ele>
        <time>2018-07-12T06:40:10Z</time>
      </trkpt>
      <trkpt lat="45.969603" lon="6.825285">
        <ele>1606.587</ele>
        <time>2018-07-12T06:40:17Z</time>
      </trkpt>
      <trkpt lat="45.969563" lon="6.825248">
        <ele>1605.742</ele>
        <time>2018-07-12T06:40:22Z</time>
      </trkpt>
      <trkpt lat="45.969513" lon="6.825241">
        <ele>1607.226</ele>
        <time>2018-07-12T06:40:27Z</time>
      </trkpt>
      <trkpt lat="45.969461" lon="6.825236">
        <ele>1604.508</ele>
        <time>2018-07-12T06:40:33Z</time>
      </trkpt>
      <trkpt lat="45.969411" lon="6.825247">
        <ele>1603.330</ele>
        <time>2018-07-12T06:40:40Z</time>
      </trkpt>
      <trkpt lat="45.969417" lon="6.825312">
        <ele>1600.114</ele>
        <time>2018-07-12T06:40:50Z</time>
      </trkpt>
      <trkpt lat="45.969397" lon="6.825371">
        <ele>1600.792</ele>
        <time>2018-07-12T06:40:59Z</time>
      </trkpt>
      <trkpt lat="45.969376" lon="6.825436">
        <ele>1597.811</ele>
        <time>2018-07-12T06:41:06Z</time>
      </trkpt>
      <trkpt lat="45.969384" lon="6.825508">
        <ele>1597.595</ele>
        <time>2018-07-12T06:41:13Z</time>
      </trkpt>
      <trkpt lat="45.969409" lon="6.825565">
        <ele>1595.680</ele>
        <time>2018-07-12T06:41:18Z</time>
      </trkpt>
      <trkpt lat="45.969453" lon="6.825612">
        <ele>1594.894</ele>
        <time>2018-07-12T06:41:23Z</time>
      </trkpt>
      <trkpt lat="45.969496" lon="6.825651">
        <ele>1594.620</ele>
        <time>2018-07-12T06:41:28Z</time>
      </trkpt>
      <trkpt lat="45.969539" lon="6.825686">
        <ele>1596.295</ele>
        <time>2018-07-12T06:41:33Z</time>
      </trkpt>
      <trkpt lat="45.969584" lon="6.825726">
        <ele>1592.749</ele>
        <time>2018-07-12T06:41:38Z</time>
      </trkpt>
      <trkpt lat="45.969623" lon="6.825779">
        <ele>1592.523</ele>
        <time>2018-07-12T06:41:43Z</time>
      </trkpt>
      <trkpt lat="45.969648" lon="6.825846">
        <ele>1592.208</ele>
        <time>2018-07-12T06:41:48Z</time>
      </trkpt>
      <trkpt lat="45.969682" lon="6.825904">
        <ele>1591.811</ele>
        <time>2018-07-12T06:41:53Z</time>
      </trkpt>
      <trkpt lat="45.969713" lon="6.825963">
        <ele>1591.015</ele>
        <time>2018-07-12T06:41:58Z</time>
      </trkpt>
      <trkpt lat="45.969738" lon="6.826032">
        <ele>1592.323</ele>
        <time>2018-07-12T06:42:03Z</time>
      </trkpt>
      <trkpt lat="45.969744" lon="6.826106">
        <ele>1592.542</ele>
        <time>2018-07-12T06:42:44Z</time>
      </trkpt>
      <trkpt lat="45.969770" lon="6.826171">
        <ele>1592.836</ele>
        <time>2018-07-12T06:42:51Z</time>
      </trkpt>
      <trkpt lat="45.969785" lon="6.826239">
        <ele>1590.081</ele>
        <time>2018-07-12T06:43:00Z</time>
      </trkpt>
      <trkpt lat="45.969794" lon="6.826309">
        <ele>1590.155</ele>
        <time>2018-07-12T06:43:06Z</time>
      </trkpt>
      <trkpt lat="45.969784" lon="6.826377">
        <ele>1590.521</ele>
        <time>2018-07-12T06:43:12Z</time>
      </trkpt>
      <trkpt lat="45.969771" lon="6.826440">
        <ele>1591.493</ele>
        <time>2018-07-12T06:43:17Z</time>
      </trkpt>
      <trkpt lat="45.969759" lon="6.826507">
        <ele>1592.265</ele>
        <time>2018-07-12T06:43:22Z</time>
      </trkpt>
      <trkpt lat="45.969766" lon="6.826572">
        <ele>1590.921</ele>
        <time>2018-07-12T06:43:30Z</time>
      </trkpt>
      <trkpt lat="45.969801" lon="6.826625">
        <ele>1591.608</ele>
        <time>2018-07-12T06:43:36Z</time>
      </trkpt>
      <trkpt lat="45.969853" lon="6.826641">
        <ele>1592.481</ele>
        <time>2018-07-12T06:43:41Z</time>
      </trkpt>
      <trkpt lat="45.969893" lon="6.826680">
        <ele>1593.255</ele>
        <time>2018-07-12T06:43:47Z</time>
      </trkpt>
      <trkpt lat="45.969929" lon="6.826726">
        <ele>1593.633</ele>
        <time>2018-07-12T06:43:52Z</time>
      </trkpt>
      <trkpt lat="45.969959" lon="6.826774">
        <ele>1593.732</ele>
        <time>2018-07-12T06:43:57Z</time>
      </trkpt>
      <trkpt lat="45.969986" lon="6.826833">
        <ele>1594.616</ele>
        <time>2018-07-12T06:44:03Z</time>
      </trkpt>
      <trkpt lat="45.969999" lon="6.826901">
        <ele>1598.181</ele>
        <time>2018-07-12T06:44:28Z</time>
      </trkpt>
      <trkpt lat="45.969994" lon="6.826976">
        <ele>1597.365</ele>
        <time>2018-07-12T06:44:46Z</time>
      </trkpt>
      <trkpt lat="45.969995" lon="6.827050">
        <ele>1598.391</ele>
        <time>2018-07-12T06:44:57Z</time>
      </trkpt>
      <trkpt lat="45.969990" lon="6.827120">
        <ele>1598.836</ele>
        <time>2018-07-12T06:45:10Z</time>
      </trkpt>
      <trkpt lat="45.969972" lon="6.827187">
        <ele>1599.217</ele>
        <time>2018-07-12T06:45:18Z</time>
      </trkpt>
      <trkpt lat="45.969952" lon="6.827253">
        <ele>1600.018</ele>
        <time>2018-07-12T06:45:33Z</time>
      </trkpt>
      <trkpt lat="45.969914" lon="6.827290">
        <ele>1600.008</ele>
        <time>2018-07-12T06:45:38Z</time>
      </trkpt>
      <trkpt lat="45.969876" lon="6.827333">
        <ele>1600.475</ele>
        <time>2018-07-12T06:45:44Z</time>
      </trkpt>
      <trkpt lat="45.969829" lon="6.827339">
        <ele>1600.759</ele>
        <time>2018-07-12T06:45:50Z</time>
      </trkpt>
      <trkpt lat="45.969783" lon="6.827343">
        <ele>1601.117</ele>
        <time>2018-07-12T06:45:56Z</time>
      </trkpt>
      <trkpt lat="45.969722" lon="6.827308">
        <ele>1603.636</ele>
        <time>2018-07-12T06:46:13Z</time>
      </trkpt>
      <trkpt lat="45.969673" lon="6.827292">
        <ele>1603.380</ele>
        <time>2018-07-12T06:46:22Z</time>
      </trkpt>
      <trkpt lat="45.969704" lon="6.827347">
        <ele>1604.585</ele>
        <time>2018-07-12T06:46:40Z</time>
      </trkpt>
      <trkpt lat="45.969747" lon="6.827376">
        <ele>1605.959</ele>
        <time>2018-07-12T06:46:47Z</time>
      </trkpt>
      <trkpt lat="45.969773" lon="6.827432">
        <ele>1605.865</ele>
        <time>2018-07-12T06:46:54Z</time>
      </trkpt>
      <trkpt lat="45.969788" lon="6.827500">
        <ele>1606.662</ele>
        <time>2018-07-12T06:47:01Z</time>
      </trkpt>
      <trkpt lat="45.969812" lon="6.827560">
        <ele>1607.383</ele>
        <time>2018-07-12T06:47:08Z</time>
      </trkpt>
      <trkpt lat="45.969816" lon="6.827626">
        <ele>1608.411</ele>
        <time>2018-07-12T06:47:16Z</time>
      </trkpt>
      <trkpt lat="45.969857" lon="6.827664">
        <ele>1608.908</ele>
        <time>2018-07-12T06:47:23Z</time>
      </trkpt>
      <trkpt lat="45.969887" lon="6.827717">
        <ele>1610.138</ele>
        <time>2018-07-12T06:47:31Z</time>
      </trkpt>
      <trkpt lat="45.969922" lon="6.827772">
        <ele>1613.412</ele>
        <time>2018-07-12T06:47:43Z</time>
      </trkpt>
      <trkpt lat="45.969942" lon="6.827787">
        <ele>1620.980</ele>
        <time>2018-07-12T06:50:03Z</time>
      </trkpt>
      <trkpt lat="45.969972" lon="6.827839">
        <ele>1620.969</ele>
        <time>2018-07-12T06:50:29Z</time>
      </trkpt>
      <trkpt lat="45.969972" lon="6.827907">
        <ele>1620.963</ele>
        <time>2018-07-12T06:50:37Z</time>
      </trkpt>
      <trkpt lat="45.970018" lon="6.827933">
        <ele>1620.998</ele>
        <time>2018-07-12T06:50:43Z</time>
      </trkpt>
      <trkpt lat="45.970042" lon="6.827992">
        <ele>1621.162</ele>
        <time>2018-07-12T06:50:50Z</time>
      </trkpt>
      <trkpt lat="45.970053" lon="6.828063">
        <ele>1622.178</ele>
        <time>2018-07-12T06:50:58Z</time>
      </trkpt>
      <trkpt lat="45.970080" lon="6.828116">
        <ele>1622.851</ele>
        <time>2018-07-12T06:51:14Z</time>
      </trkpt>
      <trkpt lat="45.970112" lon="6.828165">
        <ele>1623.601</ele>
        <time>2018-07-12T06:51:24Z</time>
      </trkpt>
      <trkpt lat="45.970153" lon="6.828198">
        <ele>1625.311</ele>
        <time>2018-07-12T06:51:36Z</time>
      </trkpt>
      <trkpt lat="45.970182" lon="6.828258">
        <ele>1626.408</ele>
        <time>2018-07-12T06:51:44Z</time>
      </trkpt>
      <trkpt lat="45.970202" lon="6.828318">
        <ele>1628.077</ele>
        <time>2018-07-12T06:51:55Z</time>
      </trkpt>
      <trkpt lat="45.970231" lon="6.828369">
        <ele>1628.931</ele>
        <time>2018-07-12T06:52:06Z</time>
      </trkpt>
      <trkpt lat="45.970189" lon="6.828406">
        <ele>1631.239</ele>
        <time>2018-07-12T06:52:21Z</time>
      </trkpt>
      <trkpt lat="45.970146" lon="6.828383">
        <ele>1631.458</ele>
        <time>2018-07-12T06:52:28Z</time>
      </trkpt>
      <trkpt lat="45.970106" lon="6.828338">
        <ele>1632.332</ele>
        <time>2018-07-12T06:52:37Z</time>
      </trkpt>
      <trkpt lat="45.970061" lon="6.828330">
        <ele>1634.027</ele>
        <time>2018-07-12T06:52:49Z</time>
      </trkpt>
      <trkpt lat="45.970010" lon="6.828336">
        <ele>1634.721</ele>
        <time>2018-07-12T06:52:56Z</time>
      </trkpt>
      <trkpt lat="45.969964" lon="6.828330">
        <ele>1635.667</ele>
        <time>2018-07-12T06:53:03Z</time>
      </trkpt>
      <trkpt lat="45.969916" lon="6.828324">
        <ele>1636.386</ele>
        <time>2018-07-12T06:53:10Z</time>
      </trkpt>
      <trkpt lat="45.969868" lon="6.828315">
        <ele>1636.760</ele>
        <time>2018-07-12T06:53:18Z</time>
      </trkpt>
      <trkpt lat="45.969820" lon="6.828271">
        <ele>1639.526</ele>
        <time>2018-07-12T06:53:27Z</time>
      </trkpt>
      <trkpt lat="45.969783" lon="6.828222">
        <ele>1639.708</ele>
        <time>2018-07-12T06:53:33Z</time>
      </trkpt>
      <trkpt lat="45.969743" lon="6.828192">
        <ele>1638.980</ele>
        <time>2018-07-12T06:53:45Z</time>
      </trkpt>
      <trkpt lat="45.969696" lon="6.828198">
        <ele>1639.774</ele>
        <time>2018-07-12T06:53:52Z</time>
      </trkpt>
      <trkpt lat="45.969650" lon="6.828185">
        <ele>1641.082</ele>
        <time>2018-07-12T06:54:01Z</time>
      </trkpt>
      <trkpt lat="45.969604" lon="6.828167">
        <ele>1642.011</ele>
        <time>2018-07-12T06:54:10Z</time>
      </trkpt>
      <trkpt lat="45.969561" lon="6.828146">
        <ele>1643.225</ele>
        <time>2018-07-12T06:54:18Z</time>
      </trkpt>
      <trkpt lat="45.969520" lon="6.828118">
        <ele>1644.120</ele>
        <time>2018-07-12T06:54:30Z</time>
      </trkpt>
      <trkpt lat="45.969481" lon="6.828079">
        <ele>1645.374</ele>
        <time>2018-07-12T06:54:39Z</time>
      </trkpt>
      <trkpt lat="45.969433" lon="6.828066">
        <ele>1645.920</ele>
        <time>2018-07-12T06:54:46Z</time>
      </trkpt>
      <trkpt lat="45.969386" lon="6.828058">
        <ele>1647.297</ele>
        <time>2018-07-12T06:54:53Z</time>
      </trkpt>
      <trkpt lat="45.969334" lon="6.828058">
        <ele>1647.723</ele>
        <time>2018-07-12T06:55:00Z</time>
      </trkpt>
      <trkpt lat="45.969294" lon="6.828022">
        <ele>1648.225</ele>
        <time>2018-07-12T06:55:06Z</time>
      </trkpt>
      <trkpt lat="45.969246" lon="6.828009">
        <ele>1649.208</ele>
        <time>2018-07-12T06:55:13Z</time>
      </trkpt>
      <trkpt lat="45.969199" lon="6.828008">
        <ele>1650.181</ele>
        <time>2018-07-12T06:55:23Z</time>
      </trkpt>
      <trkpt lat="45.969154" lon="6.827992">
        <ele>1651.925</ele>
        <time>2018-07-12T06:55:33Z</time>
      </trkpt>
      <trkpt lat="45.969105" lon="6.827979">
        <ele>1652.813</ele>
        <time>2018-07-12T06:55:43Z</time>
      </trkpt>
      <trkpt lat="45.969061" lon="6.827960">
        <ele>1653.792</ele>
        <time>2018-07-12T06:55:51Z</time>
      </trkpt>
      <trkpt lat="45.969016" lon="6.827964">
        <ele>1654.396</ele>
        <time>2018-07-12T06:55:57Z</time>
      </trkpt>
      <trkpt lat="45.968971" lon="6.827971">
        <ele>1655.191</ele>
        <time>2018-07-12T06:56:08Z</time>
      </trkpt>
      <trkpt lat="45.968921" lon="6.827969">
        <ele>1656.165</ele>
        <time>2018-07-12T06:56:17Z</time>
      </trkpt>
      <trkpt lat="45.968876" lon="6.827943">
        <ele>1657.481</ele>
        <time>2018-07-12T06:56:28Z</time>
      </trkpt>
      <trkpt lat="45.968831" lon="6.827925">
        <ele>1658.479</ele>
        <time>2018-07-12T06:56:38Z</time>
      </trkpt>
      <trkpt lat="45.968783" lon="6.827905">
        <ele>1660.005</ele>
        <time>2018-07-12T06:56:47Z</time>
      </trkpt>
      <trkpt lat="45.968752" lon="6.827852">
        <ele>1661.325</ele>
        <time>2018-07-12T06:56:57Z</time>
      </trkpt>
      <trkpt lat="45.968710" lon="6.827827">
        <ele>1662.608</ele>
        <time>2018-07-12T06:57:07Z</time>
      </trkpt>
      <trkpt lat="45.968664" lon="6.827815">
        <ele>1663.989</ele>
        <time>2018-07-12T06:57:17Z</time>
      </trkpt>
      <trkpt lat="45.968625" lon="6.827775">
        <ele>1664.683</ele>
        <time>2018-07-12T06:57:25Z</time>
      </trkpt>
      <trkpt lat="45.968581" lon="6.827759">
        <ele>1666.211</ele>
        <time>2018-07-12T06:57:37Z</time>
      </trkpt>
      <trkpt lat="45.968534" lon="6.827757">
        <ele>1668.440</ele>
        <time>2018-07-12T06:57:46Z</time>
      </trkpt>
      <trkpt lat="45.968487" lon="6.827745">
        <ele>1667.854</ele>
        <time>2018-07-12T06:57:54Z</time>
      </trkpt>
      <trkpt lat="45.968440" lon="6.827728">
        <ele>1669.129</ele>
        <time>2018-07-12T06:58:06Z</time>
      </trkpt>
      <trkpt lat="45.968396" lon="6.827714">
        <ele>1670.043</ele>
        <time>2018-07-12T06:58:24Z</time>
      </trkpt>
      <trkpt lat="45.968350" lon="6.827707">
        <ele>1671.739</ele>
        <time>2018-07-12T06:58:37Z</time>
      </trkpt>
      <trkpt lat="45.968303" lon="6.827697">
        <ele>1672.852</ele>
        <time>2018-07-12T06:58:49Z</time>
      </trkpt>
      <trkpt lat="45.968257" lon="6.827693">
        <ele>1673.953</ele>
        <time>2018-07-12T06:59:00Z</time>
      </trkpt>
      <trkpt lat="45.968209" lon="6.827690">
        <ele>1675.608</ele>
        <time>2018-07-12T06:59:13Z</time>
      </trkpt>
      <trkpt lat="45.968163" lon="6.827677">
        <ele>1676.608</ele>
        <time>2018-07-12T06:59:22Z</time>
      </trkpt>
      <trkpt lat="45.968119" lon="6.827646">
        <ele>1677.327</ele>
        <time>2018-07-12T06:59:32Z</time>
      </trkpt>
      <trkpt lat="45.968078" lon="6.827617">
        <ele>1679.291</ele>
        <time>2018-07-12T06:59:42Z</time>
      </trkpt>
      <trkpt lat="45.968031" lon="6.827614">
        <ele>1679.689</ele>
        <time>2018-07-12T06:59:51Z</time>
      </trkpt>
      <trkpt lat="45.967981" lon="6.827605">
        <ele>1680.578</ele>
        <time>2018-07-12T07:00:01Z</time>
      </trkpt>
      <trkpt lat="45.967938" lon="6.827578">
        <ele>1683.992</ele>
        <time>2018-07-12T07:00:13Z</time>
      </trkpt>
      <trkpt lat="45.967896" lon="6.827556">
        <ele>1683.167</ele>
        <time>2018-07-12T07:00:23Z</time>
      </trkpt>
      <trkpt lat="45.967848" lon="6.827539">
        <ele>1685.531</ele>
        <time>2018-07-12T07:00:36Z</time>
      </trkpt>
      <trkpt lat="45.967803" lon="6.827532">
        <ele>1686.077</ele>
        <time>2018-07-12T07:00:47Z</time>
      </trkpt>
      <trkpt lat="45.967760" lon="6.827555">
        <ele>1688.132</ele>
        <time>2018-07-12T07:00:58Z</time>
      </trkpt>
      <trkpt lat="45.967720" lon="6.827519">
        <ele>1687.992</ele>
        <time>2018-07-12T07:01:06Z</time>
      </trkpt>
      <trkpt lat="45.967679" lon="6.827485">
        <ele>1689.311</ele>
        <time>2018-07-12T07:01:17Z</time>
      </trkpt>
      <trkpt lat="45.967634" lon="6.827461">
        <ele>1690.308</ele>
        <time>2018-07-12T07:01:28Z</time>
      </trkpt>
      <trkpt lat="45.967587" lon="6.827454">
        <ele>1692.015</ele>
        <time>2018-07-12T07:01:39Z</time>
      </trkpt>
      <trkpt lat="45.967536" lon="6.827455">
        <ele>1693.149</ele>
        <time>2018-07-12T07:01:52Z</time>
      </trkpt>
      <trkpt lat="45.967492" lon="6.827430">
        <ele>1694.527</ele>
        <time>2018-07-12T07:02:03Z</time>
      </trkpt>
      <trkpt lat="45.967443" lon="6.827413">
        <ele>1696.876</ele>
        <time>2018-07-12T07:02:19Z</time>
      </trkpt>
      <trkpt lat="45.967399" lon="6.827388">
        <ele>1696.410</ele>
        <time>2018-07-12T07:02:26Z</time>
      </trkpt>
      <trkpt lat="45.967356" lon="6.827363">
        <ele>1698.345</ele>
        <time>2018-07-12T07:02:33Z</time>
      </trkpt>
      <trkpt lat="45.967309" lon="6.827353">
        <ele>1698.559</ele>
        <time>2018-07-12T07:02:45Z</time>
      </trkpt>
      <trkpt lat="45.967264" lon="6.827357">
        <ele>1700.075</ele>
        <time>2018-07-12T07:02:53Z</time>
      </trkpt>
      <trkpt lat="45.967226" lon="6.827320">
        <ele>1700.114</ele>
        <time>2018-07-12T07:03:01Z</time>
      </trkpt>
      <trkpt lat="45.967185" lon="6.827288">
        <ele>1701.654</ele>
        <time>2018-07-12T07:03:12Z</time>
      </trkpt>
      <trkpt lat="45.967140" lon="6.827267">
        <ele>1702.509</ele>
        <time>2018-07-12T07:03:21Z</time>
      </trkpt>
      <trkpt lat="45.967093" lon="6.827255">
        <ele>1704.108</ele>
        <time>2018-07-12T07:03:30Z</time>
      </trkpt>
      <trkpt lat="45.967049" lon="6.827243">
        <ele>1705.633</ele>
        <time>2018-07-12T07:03:41Z</time>
      </trkpt>
      <trkpt lat="45.967000" lon="6.827238">
        <ele>1706.497</ele>
        <time>2018-07-12T07:03:57Z</time>
      </trkpt>
      <trkpt lat="45.966953" lon="6.827236">
        <ele>1707.575</ele>
        <time>2018-07-12T07:04:07Z</time>
      </trkpt>
      <trkpt lat="45.966911" lon="6.827207">
        <ele>1709.034</ele>
        <time>2018-07-12T07:04:18Z</time>
      </trkpt>
      <trkpt lat="45.966861" lon="6.827182">
        <ele>1710.648</ele>
        <time>2018-07-12T07:04:30Z</time>
      </trkpt>
      <trkpt lat="45.966815" lon="6.827168">
        <ele>1711.393</ele>
        <time>2018-07-12T07:04:37Z</time>
      </trkpt>
      <trkpt lat="45.966773" lon="6.827143">
        <ele>1711.777</ele>
        <time>2018-07-12T07:04:46Z</time>
      </trkpt>
      <trkpt lat="45.966730" lon="6.827121">
        <ele>1712.653</ele>
        <time>2018-07-12T07:04:57Z</time>
      </trkpt>
      <trkpt lat="45.966682" lon="6.827098">
        <ele>1713.491</ele>
        <time>2018-07-12T07:05:06Z</time>
      </trkpt>
      <trkpt lat="45.966627" lon="6.827070">
        <ele>1716.681</ele>
        <time>2018-07-12T07:05:24Z</time>
      </trkpt>
      <trkpt lat="45.966579" lon="6.827068">
        <ele>1715.219</ele>
        <time>2018-07-12T07:05:34Z</time>
      </trkpt>
      <trkpt lat="45.966544" lon="6.827125">
        <ele>1715.908</ele>
        <time>2018-07-12T07:05:41Z</time>
      </trkpt>
      <trkpt lat="45.966527" lon="6.827199">
        <ele>1718.061</ele>
        <time>2018-07-12T07:05:54Z</time>
      </trkpt>
      <trkpt lat="45.966482" lon="6.827226">
        <ele>1719.725</ele>
        <time>2018-07-12T07:06:14Z</time>
      </trkpt>
      <trkpt lat="45.966465" lon="6.827287">
        <ele>1720.363</ele>
        <time>2018-07-12T07:06:24Z</time>
      </trkpt>
      <trkpt lat="45.966420" lon="6.827274">
        <ele>1721.842</ele>
        <time>2018-07-12T07:06:36Z</time>
      </trkpt>
      <trkpt lat="45.966372" lon="6.827294">
        <ele>1722.796</ele>
        <time>2018-07-12T07:06:50Z</time>
      </trkpt>
      <trkpt lat="45.966328" lon="6.827273">
        <ele>1723.261</ele>
        <time>2018-07-12T07:07:00Z</time>
      </trkpt>
      <trkpt lat="45.966282" lon="6.827235">
        <ele>1725.935</ele>
        <time>2018-07-12T07:07:14Z</time>
      </trkpt>
      <trkpt lat="45.966253" lon="6.827176">
        <ele>1724.861</ele>
        <time>2018-07-12T07:07:20Z</time>
      </trkpt>
      <trkpt lat="45.966232" lon="6.827114">
        <ele>1724.947</ele>
        <time>2018-07-12T07:07:26Z</time>
      </trkpt>
      <trkpt lat="45.966216" lon="6.827050">
        <ele>1725.329</ele>
        <time>2018-07-12T07:07:36Z</time>
      </trkpt>
      <trkpt lat="45.966196" lon="6.826988">
        <ele>1725.621</ele>
        <time>2018-07-12T07:07:46Z</time>
      </trkpt>
      <trkpt lat="45.966170" lon="6.826933">
        <ele>1725.908</ele>
        <time>2018-07-12T07:07:53Z</time>
      </trkpt>
      <trkpt lat="45.966126" lon="6.826896">
        <ele>1726.476</ele>
        <time>2018-07-12T07:08:09Z</time>
      </trkpt>
      <trkpt lat="45.966080" lon="6.826886">
        <ele>1727.260</ele>
        <time>2018-07-12T07:08:19Z</time>
      </trkpt>
      <trkpt lat="45.966033" lon="6.826891">
        <ele>1729.438</ele>
        <time>2018-07-12T07:08:47Z</time>
      </trkpt>
      <trkpt lat="45.965987" lon="6.826888">
        <ele>1730.267</ele>
        <time>2018-07-12T07:08:58Z</time>
      </trkpt>
      <trkpt lat="45.965946" lon="6.826929">
        <ele>1731.631</ele>
        <time>2018-07-12T07:09:07Z</time>
      </trkpt>
      <trkpt lat="45.965896" lon="6.826929">
        <ele>1731.876</ele>
        <time>2018-07-12T07:09:17Z</time>
      </trkpt>
      <trkpt lat="45.965849" lon="6.826907">
        <ele>1732.260</ele>
        <time>2018-07-12T07:09:26Z</time>
      </trkpt>
      <trkpt lat="45.965809" lon="6.826871">
        <ele>1732.736</ele>
        <time>2018-07-12T07:09:32Z</time>
      </trkpt>
      <trkpt lat="45.965779" lon="6.826813">
        <ele>1732.837</ele>
        <time>2018-07-12T07:09:37Z</time>
      </trkpt>
      <trkpt lat="45.965734" lon="6.826795">
        <ele>1736.049</ele>
        <time>2018-07-12T07:09:47Z</time>
      </trkpt>
      <trkpt lat="45.965689" lon="6.826778">
        <ele>1737.013</ele>
        <time>2018-07-12T07:10:00Z</time>
      </trkpt>
      <trkpt lat="45.965659" lon="6.826719">
        <ele>1737.108</ele>
        <time>2018-07-12T07:10:07Z</time>
      </trkpt>
      <trkpt lat="45.965619" lon="6.826685">
        <ele>1737.665</ele>
        <time>2018-07-12T07:10:22Z</time>
      </trkpt>
      <trkpt lat="45.965593" lon="6.826629">
        <ele>1737.829</ele>
        <time>2018-07-12T07:10:29Z</time>
      </trkpt>
      <trkpt lat="45.965556" lon="6.826584">
        <ele>1737.857</ele>
        <time>2018-07-12T07:10:38Z</time>
      </trkpt>
      <trkpt lat="45.965560" lon="6.826493">
        <ele>1738.376</ele>
        <time>2018-07-12T07:11:37Z</time>
      </trkpt>
      <trkpt lat="45.965508" lon="6.826502">
        <ele>1739.870</ele>
        <time>2018-07-12T07:12:06Z</time>
      </trkpt>
      <trkpt lat="45.965454" lon="6.826516">
        <ele>1738.895</ele>
        <time>2018-07-12T07:12:14Z</time>
      </trkpt>
      <trkpt lat="45.965409" lon="6.826510">
        <ele>1740.089</ele>
        <time>2018-07-12T07:12:21Z</time>
      </trkpt>
      <trkpt lat="45.965367" lon="6.826467">
        <ele>1740.345</ele>
        <time>2018-07-12T07:12:28Z</time>
      </trkpt>
      <trkpt lat="45.965318" lon="6.826481">
        <ele>1741.749</ele>
        <time>2018-07-12T07:13:00Z</time>
      </trkpt>
      <trkpt lat="45.965268" lon="6.826482">
        <ele>1742.102</ele>
        <time>2018-07-12T07:13:06Z</time>
      </trkpt>
      <trkpt lat="45.965219" lon="6.826474">
        <ele>1742.722</ele>
        <time>2018-07-12T07:13:12Z</time>
      </trkpt>
      <trkpt lat="45.965161" lon="6.826481">
        <ele>1742.808</ele>
        <time>2018-07-12T07:13:24Z</time>
      </trkpt>
      <trkpt lat="45.965116" lon="6.826505">
        <ele>1743.646</ele>
        <time>2018-07-12T07:13:32Z</time>
      </trkpt>
      <trkpt lat="45.965069" lon="6.826513">
        <ele>1743.740</ele>
        <time>2018-07-12T07:13:39Z</time>
      </trkpt>
      <trkpt lat="45.965024" lon="6.826518">
        <ele>1744.478</ele>
        <time>2018-07-12T07:13:58Z</time>
      </trkpt>
      <trkpt lat="45.965014" lon="6.826586">
        <ele>1746.097</ele>
        <time>2018-07-12T07:14:10Z</time>
      </trkpt>
      <trkpt lat="45.964978" lon="6.826627">
        <ele>1748.741</ele>
        <time>2018-07-12T07:14:22Z</time>
      </trkpt>
      <trkpt lat="45.964930" lon="6.826638">
        <ele>1748.516</ele>
        <time>2018-07-12T07:14:31Z</time>
      </trkpt>
      <trkpt lat="45.964891" lon="6.826679">
        <ele>1749.950</ele>
        <time>2018-07-12T07:14:45Z</time>
      </trkpt>
      <trkpt lat="45.964843" lon="6.826692">
        <ele>1751.016</ele>
        <time>2018-07-12T07:14:56Z</time>
      </trkpt>
      <trkpt lat="45.964798" lon="6.826678">
        <ele>1752.143</ele>
        <time>2018-07-12T07:15:02Z</time>
      </trkpt>
      <trkpt lat="45.964759" lon="6.826639">
        <ele>1752.264</ele>
        <time>2018-07-12T07:15:11Z</time>
      </trkpt>
      <trkpt lat="45.964723" lon="6.826592">
        <ele>1755.710</ele>
        <time>2018-07-12T07:15:21Z</time>
      </trkpt>
      <trkpt lat="45.964677" lon="6.826591">
        <ele>1755.308</ele>
        <time>2018-07-12T07:15:37Z</time>
      </trkpt>
      <trkpt lat="45.964630" lon="6.826595">
        <ele>1757.426</ele>
        <time>2018-07-12T07:15:54Z</time>
      </trkpt>
      <trkpt lat="45.964595" lon="6.826547">
        <ele>1756.910</ele>
        <time>2018-07-12T07:16:06Z</time>
      </trkpt>
      <trkpt lat="45.964542" lon="6.826514">
        <ele>1756.858</ele>
        <time>2018-07-12T07:16:11Z</time>
      </trkpt>
      <trkpt lat="45.964491" lon="6.826494">
        <ele>1756.617</ele>
        <time>2018-07-12T07:16:17Z</time>
      </trkpt>
      <trkpt lat="45.964446" lon="6.826485">
        <ele>1757.081</ele>
        <time>2018-07-12T07:16:23Z</time>
      </trkpt>
      <trkpt lat="45.964398" lon="6.826484">
        <ele>1757.426</ele>
        <time>2018-07-12T07:16:30Z</time>
      </trkpt>
      <trkpt lat="45.964348" lon="6.826466">
        <ele>1758.330</ele>
        <time>2018-07-12T07:16:38Z</time>
      </trkpt>
      <trkpt lat="45.964303" lon="6.826461">
        <ele>1759.086</ele>
        <time>2018-07-12T07:16:44Z</time>
      </trkpt>
      <trkpt lat="45.964252" lon="6.826464">
        <ele>1759.723</ele>
        <time>2018-07-12T07:16:52Z</time>
      </trkpt>
      <trkpt lat="45.964206" lon="6.826461">
        <ele>1759.783</ele>
        <time>2018-07-12T07:16:58Z</time>
      </trkpt>
      <trkpt lat="45.964164" lon="6.826486">
        <ele>1761.211</ele>
        <time>2018-07-12T07:17:05Z</time>
      </trkpt>
      <trkpt lat="45.964119" lon="6.826516">
        <ele>1761.708</ele>
        <time>2018-07-12T07:17:14Z</time>
      </trkpt>
      <trkpt lat="45.964076" lon="6.826545">
        <ele>1762.234</ele>
        <time>2018-07-12T07:17:22Z</time>
      </trkpt>
      <trkpt lat="45.964034" lon="6.826578">
        <ele>1763.148</ele>
        <time>2018-07-12T07:17:30Z</time>
      </trkpt>
      <trkpt lat="45.964068" lon="6.826628">
        <ele>1764.296</ele>
        <time>2018-07-12T07:17:41Z</time>
      </trkpt>
      <trkpt lat="45.964096" lon="6.826681">
        <ele>1764.795</ele>
        <time>2018-07-12T07:17:50Z</time>
      </trkpt>
      <trkpt lat="45.964080" lon="6.826743">
        <ele>1765.959</ele>
        <time>2018-07-12T07:17:59Z</time>
      </trkpt>
      <trkpt lat="45.964036" lon="6.826777">
        <ele>1766.814</ele>
        <time>2018-07-12T07:18:07Z</time>
      </trkpt>
      <trkpt lat="45.963999" lon="6.826827">
        <ele>1768.568</ele>
        <time>2018-07-12T07:18:15Z</time>
      </trkpt>
      <trkpt lat="45.963967" lon="6.826884">
        <ele>1767.864</ele>
        <time>2018-07-12T07:18:22Z</time>
      </trkpt>
      <trkpt lat="45.963939" lon="6.826935">
        <ele>1767.195</ele>
        <time>2018-07-12T07:18:27Z</time>
      </trkpt>
      <trkpt lat="45.963906" lon="6.826984">
        <ele>1767.549</ele>
        <time>2018-07-12T07:18:32Z</time>
      </trkpt>
      <trkpt lat="45.963862" lon="6.827026">
        <ele>1766.323</ele>
        <time>2018-07-12T07:18:38Z</time>
      </trkpt>
      <trkpt lat="45.963818" lon="6.827053">
        <ele>1766.508</ele>
        <time>2018-07-12T07:18:44Z</time>
      </trkpt>
      <trkpt lat="45.963772" lon="6.827066">
        <ele>1765.691</ele>
        <time>2018-07-12T07:18:49Z</time>
      </trkpt>
      <trkpt lat="45.963722" lon="6.827067">
        <ele>1765.785</ele>
        <time>2018-07-12T07:18:54Z</time>
      </trkpt>
      <trkpt lat="45.963666" lon="6.827069">
        <ele>1765.783</ele>
        <time>2018-07-12T07:19:11Z</time>
      </trkpt>
      <trkpt lat="45.963620" lon="6.827100">
        <ele>1764.872</ele>
        <time>2018-07-12T07:19:19Z</time>
      </trkpt>
      <trkpt lat="45.963573" lon="6.827136">
        <ele>1765.146</ele>
        <time>2018-07-12T07:19:24Z</time>
      </trkpt>
      <trkpt lat="45.963533" lon="6.827169">
        <ele>1765.131</ele>
        <time>2018-07-12T07:19:28Z</time>
      </trkpt>
      <trkpt lat="45.963492" lon="6.827197">
        <ele>1764.695</ele>
        <time>2018-07-12T07:19:32Z</time>
      </trkpt>
      <trkpt lat="45.963442" lon="6.827227">
        <ele>1764.131</ele>
        <time>2018-07-12T07:19:37Z</time>
      </trkpt>
      <trkpt lat="45.963397" lon="6.827264">
        <ele>1764.188</ele>
        <time>2018-07-12T07:19:42Z</time>
      </trkpt>
      <trkpt lat="45.963355" lon="6.827300">
        <ele>1764.224</ele>
        <time>2018-07-12T07:19:47Z</time>
      </trkpt>
      <trkpt lat="45.963311" lon="6.827337">
        <ele>1765.626</ele>
        <time>2018-07-12T07:19:52Z</time>
      </trkpt>
      <trkpt lat="45.963258" lon="6.827346">
        <ele>1764.508</ele>
        <time>2018-07-12T07:19:59Z</time>
      </trkpt>
      <trkpt lat="45.963215" lon="6.827368">
        <ele>1765.040</ele>
        <time>2018-07-12T07:20:04Z</time>
      </trkpt>
      <trkpt lat="45.963171" lon="6.827387">
        <ele>1765.164</ele>
        <time>2018-07-12T07:20:09Z</time>
      </trkpt>
      <trkpt lat="45.963122" lon="6.827394">
        <ele>1766.312</ele>
        <time>2018-07-12T07:20:17Z</time>
      </trkpt>
      <trkpt lat="45.963081" lon="6.827427">
        <ele>1768.211</ele>
        <time>2018-07-12T07:20:24Z</time>
      </trkpt>
      <trkpt lat="45.963038" lon="6.827457">
        <ele>1767.255</ele>
        <time>2018-07-12T07:20:29Z</time>
      </trkpt>
      <trkpt lat="45.962996" lon="6.827497">
        <ele>1768.070</ele>
        <time>2018-07-12T07:20:35Z</time>
      </trkpt>
      <trkpt lat="45.962960" lon="6.827543">
        <ele>1769.184</ele>
        <time>2018-07-12T07:20:42Z</time>
      </trkpt>
      <trkpt lat="45.962922" lon="6.827584">
        <ele>1769.550</ele>
        <time>2018-07-12T07:20:49Z</time>
      </trkpt>
      <trkpt lat="45.962883" lon="6.827619">
        <ele>1770.171</ele>
        <time>2018-07-12T07:20:56Z</time>
      </trkpt>
      <trkpt lat="45.962852" lon="6.827673">
        <ele>1770.941</ele>
        <time>2018-07-12T07:21:03Z</time>
      </trkpt>
      <trkpt lat="45.962821" lon="6.827732">
        <ele>1771.615</ele>
        <time>2018-07-12T07:21:10Z</time>
      </trkpt>
      <trkpt lat="45.962776" lon="6.827753">
        <ele>1772.008</ele>
        <time>2018-07-12T07:21:18Z</time>
      </trkpt>
      <trkpt lat="45.962739" lon="6.827801">
        <ele>1772.839</ele>
        <time>2018-07-12T07:21:25Z</time>
      </trkpt>
      <trkpt lat="45.962720" lon="6.827860">
        <ele>1775.323</ele>
        <time>2018-07-12T07:21:31Z</time>
      </trkpt>
      <trkpt lat="45.962684" lon="6.827901">
        <ele>1773.221</ele>
        <time>2018-07-12T07:21:37Z</time>
      </trkpt>
      <trkpt lat="45.962635" lon="6.827925">
        <ele>1774.120</ele>
        <time>2018-07-12T07:21:46Z</time>
      </trkpt>
      <trkpt lat="45.962599" lon="6.827969">
        <ele>1775.174</ele>
        <time>2018-07-12T07:21:53Z</time>
      </trkpt>
      <trkpt lat="45.962569" lon="6.828023">
        <ele>1775.839</ele>
        <time>2018-07-12T07:21:59Z</time>
      </trkpt>
      <trkpt lat="45.962537" lon="6.828070">
        <ele>1775.773</ele>
        <time>2018-07-12T07:22:06Z</time>
      </trkpt>
      <trkpt lat="45.962499" lon="6.828119">
        <ele>1775.999</ele>
        <time>2018-07-12T07:22:12Z</time>
      </trkpt>
      <trkpt lat="45.962460" lon="6.828158">
        <ele>1777.341</ele>
        <time>2018-07-12T07:22:19Z</time>
      </trkpt>
      <trkpt lat="45.962417" lon="6.828200">
        <ele>1777.181</ele>
        <time>2018-07-12T07:22:26Z</time>
      </trkpt>
      <trkpt lat="45.962374" lon="6.828233">
        <ele>1779.509</ele>
        <time>2018-07-12T07:22:33Z</time>
      </trkpt>
      <trkpt lat="45.962328" lon="6.828266">
        <ele>1777.908</ele>
        <time>2018-07-12T07:22:40Z</time>
      </trkpt>
      <trkpt lat="45.962284" lon="6.828302">
        <ele>1778.436</ele>
        <time>2018-07-12T07:22:48Z</time>
      </trkpt>
      <trkpt lat="45.962246" lon="6.828340">
        <ele>1780.150</ele>
        <time>2018-07-12T07:22:54Z</time>
      </trkpt>
      <trkpt lat="45.962211" lon="6.828381">
        <ele>1779.538</ele>
        <time>2018-07-12T07:22:59Z</time>
      </trkpt>
      <trkpt lat="45.962171" lon="6.828430">
        <ele>1780.217</ele>
        <time>2018-07-12T07:23:05Z</time>
      </trkpt>
      <trkpt lat="45.962126" lon="6.828475">
        <ele>1778.911</ele>
        <time>2018-07-12T07:23:10Z</time>
      </trkpt>
      <trkpt lat="45.962090" lon="6.828515">
        <ele>1779.646</ele>
        <time>2018-07-12T07:23:17Z</time>
      </trkpt>
      <trkpt lat="45.962046" lon="6.828540">
        <ele>1779.170</ele>
        <time>2018-07-12T07:23:24Z</time>
      </trkpt>
      <trkpt lat="45.962004" lon="6.828575">
        <ele>1779.596</ele>
        <time>2018-07-12T07:23:31Z</time>
      </trkpt>
      <trkpt lat="45.961962" lon="6.828609">
        <ele>1780.024</ele>
        <time>2018-07-12T07:23:39Z</time>
      </trkpt>
      <trkpt lat="45.961921" lon="6.828654">
        <ele>1781.004</ele>
        <time>2018-07-12T07:23:50Z</time>
      </trkpt>
      <trkpt lat="45.961887" lon="6.828699">
        <ele>1781.814</ele>
        <time>2018-07-12T07:23:57Z</time>
      </trkpt>
      <trkpt lat="45.961857" lon="6.828756">
        <ele>1783.508</ele>
        <time>2018-07-12T07:24:08Z</time>
      </trkpt>
      <trkpt lat="45.961824" lon="6.828803">
        <ele>1783.774</ele>
        <time>2018-07-12T07:24:15Z</time>
      </trkpt>
      <trkpt lat="45.961796" lon="6.828857">
        <ele>1784.838</ele>
        <time>2018-07-12T07:24:22Z</time>
      </trkpt>
      <trkpt lat="45.961762" lon="6.828905">
        <ele>1785.536</ele>
        <time>2018-07-12T07:24:30Z</time>
      </trkpt>
      <trkpt lat="45.961722" lon="6.828934">
        <ele>1786.235</ele>
        <time>2018-07-12T07:24:37Z</time>
      </trkpt>
      <trkpt lat="45.961682" lon="6.828971">
        <ele>1786.719</ele>
        <time>2018-07-12T07:24:43Z</time>
      </trkpt>
      <trkpt lat="45.961652" lon="6.829021">
        <ele>1788.044</ele>
        <time>2018-07-12T07:24:54Z</time>
      </trkpt>
      <trkpt lat="45.961615" lon="6.829065">
        <ele>1788.378</ele>
        <time>2018-07-12T07:25:02Z</time>
      </trkpt>
      <trkpt lat="45.961579" lon="6.829109">
        <ele>1789.354</ele>
        <time>2018-07-12T07:25:11Z</time>
      </trkpt>
      <trkpt lat="45.961546" lon="6.829164">
        <ele>1790.475</ele>
        <time>2018-07-12T07:25:24Z</time>
      </trkpt>
      <trkpt lat="45.961517" lon="6.829220">
        <ele>1791.828</ele>
        <time>2018-07-12T07:25:35Z</time>
      </trkpt>
      <trkpt lat="45.961490" lon="6.829273">
        <ele>1793.220</ele>
        <time>2018-07-12T07:25:45Z</time>
      </trkpt>
      <trkpt lat="45.961466" lon="6.829328">
        <ele>1793.508</ele>
        <time>2018-07-12T07:25:54Z</time>
      </trkpt>
      <trkpt lat="45.961438" lon="6.829386">
        <ele>1796.759</ele>
        <time>2018-07-12T07:26:02Z</time>
      </trkpt>
      <trkpt lat="45.961422" lon="6.829448">
        <ele>1797.513</ele>
        <time>2018-07-12T07:26:12Z</time>
      </trkpt>
      <trkpt lat="45.961395" lon="6.829506">
        <ele>1798.231</ele>
        <time>2018-07-12T07:26:20Z</time>
      </trkpt>
      <trkpt lat="45.961372" lon="6.829569">
        <ele>1797.880</ele>
        <time>2018-07-12T07:26:30Z</time>
      </trkpt>
      <trkpt lat="45.961362" lon="6.829635">
        <ele>1798.014</ele>
        <time>2018-07-12T07:26:39Z</time>
      </trkpt>
      <trkpt lat="45.961358" lon="6.829707">
        <ele>1799.039</ele>
        <time>2018-07-12T07:26:49Z</time>
      </trkpt>
      <trkpt lat="45.961325" lon="6.829760">
        <ele>1799.063</ele>
        <time>2018-07-12T07:26:58Z</time>
      </trkpt>
      <trkpt lat="45.961292" lon="6.829809">
        <ele>1800.559</ele>
        <time>2018-07-12T07:27:08Z</time>
      </trkpt>
      <trkpt lat="45.961243" lon="6.829823">
        <ele>1801.621</ele>
        <time>2018-07-12T07:27:17Z</time>
      </trkpt>
      <trkpt lat="45.961205" lon="6.829867">
        <ele>1802.341</ele>
        <time>2018-07-12T07:27:25Z</time>
      </trkpt>
      <trkpt lat="45.961182" lon="6.829925">
        <ele>1804.605</ele>
        <time>2018-07-12T07:27:32Z</time>
      </trkpt>
      <trkpt lat="45.961148" lon="6.829972">
        <ele>1803.408</ele>
        <time>2018-07-12T07:27:41Z</time>
      </trkpt>
      <trkpt lat="45.961114" lon="6.830026">
        <ele>1804.814</ele>
        <time>2018-07-12T07:27:49Z</time>
      </trkpt>
      <trkpt lat="45.961083" lon="6.830073">
        <ele>1804.658</ele>
        <time>2018-07-12T07:27:59Z</time>
      </trkpt>
      <trkpt lat="45.961051" lon="6.830123">
        <ele>1805.166</ele>
        <time>2018-07-12T07:28:06Z</time>
      </trkpt>
      <trkpt lat="45.961018" lon="6.830178">
        <ele>1806.015</ele>
        <time>2018-07-12T07:28:13Z</time>
      </trkpt>
      <trkpt lat="45.960999" lon="6.830240">
        <ele>1806.999</ele>
        <time>2018-07-12T07:28:20Z</time>
      </trkpt>
      <trkpt lat="45.960970" lon="6.830294">
        <ele>1807.234</ele>
        <time>2018-07-12T07:28:27Z</time>
      </trkpt>
      <trkpt lat="45.960935" lon="6.830346">
        <ele>1807.478</ele>
        <time>2018-07-12T07:28:34Z</time>
      </trkpt>
      <trkpt lat="45.960897" lon="6.830393">
        <ele>1807.794</ele>
        <time>2018-07-12T07:28:42Z</time>
      </trkpt>
      <trkpt lat="45.960853" lon="6.830427">
        <ele>1806.691</ele>
        <time>2018-07-12T07:28:49Z</time>
      </trkpt>
      <trkpt lat="45.960811" lon="6.830460">
        <ele>1806.781</ele>
        <time>2018-07-12T07:28:55Z</time>
      </trkpt>
      <trkpt lat="45.960770" lon="6.830503">
        <ele>1806.919</ele>
        <time>2018-07-12T07:29:00Z</time>
      </trkpt>
      <trkpt lat="45.960730" lon="6.830540">
        <ele>1806.508</ele>
        <time>2018-07-12T07:29:05Z</time>
      </trkpt>
      <trkpt lat="45.960683" lon="6.830569">
        <ele>1807.371</ele>
        <time>2018-07-12T07:29:10Z</time>
      </trkpt>
      <trkpt lat="45.960640" lon="6.830603">
        <ele>1807.075</ele>
        <time>2018-07-12T07:29:15Z</time>
      </trkpt>
      <trkpt lat="45.960594" lon="6.830639">
        <ele>1807.613</ele>
        <time>2018-07-12T07:29:20Z</time>
      </trkpt>
      <trkpt lat="45.960543" lon="6.830656">
        <ele>1807.652</ele>
        <time>2018-07-12T07:29:27Z</time>
      </trkpt>
      <trkpt lat="45.960499" lon="6.830681">
        <ele>1808.166</ele>
        <time>2018-07-12T07:29:33Z</time>
      </trkpt>
      <trkpt lat="45.960447" lon="6.830699">
        <ele>1809.061</ele>
        <time>2018-07-12T07:29:40Z</time>
      </trkpt>
      <trkpt lat="45.960400" lon="6.830713">
        <ele>1808.765</ele>
        <time>2018-07-12T07:29:48Z</time>
      </trkpt>
      <trkpt lat="45.960351" lon="6.830726">
        <ele>1811.651</ele>
        <time>2018-07-12T07:29:57Z</time>
      </trkpt>
      <trkpt lat="45.960318" lon="6.830775">
        <ele>1811.422</ele>
        <time>2018-07-12T07:30:04Z</time>
      </trkpt>
      <trkpt lat="45.960284" lon="6.830818">
        <ele>1811.062</ele>
        <time>2018-07-12T07:30:11Z</time>
      </trkpt>
      <trkpt lat="45.960236" lon="6.830828">
        <ele>1811.808</ele>
        <time>2018-07-12T07:30:19Z</time>
      </trkpt>
      <trkpt lat="45.960189" lon="6.830823">
        <ele>1812.508</ele>
        <time>2018-07-12T07:30:27Z</time>
      </trkpt>
      <trkpt lat="45.960144" lon="6.830826">
        <ele>1812.264</ele>
        <time>2018-07-12T07:30:33Z</time>
      </trkpt>
      <trkpt lat="45.960093" lon="6.830834">
        <ele>1812.818</ele>
        <time>2018-07-12T07:30:40Z</time>
      </trkpt>
      <trkpt lat="45.960043" lon="6.830829">
        <ele>1813.446</ele>
        <time>2018-07-12T07:30:47Z</time>
      </trkpt>
      <trkpt lat="45.959996" lon="6.830818">
        <ele>1814.825</ele>
        <time>2018-07-12T07:30:55Z</time>
      </trkpt>
      <trkpt lat="45.959946" lon="6.830825">
        <ele>1814.479</ele>
        <time>2018-07-12T07:31:03Z</time>
      </trkpt>
      <trkpt lat="45.959900" lon="6.830822">
        <ele>1817.644</ele>
        <time>2018-07-12T07:31:10Z</time>
      </trkpt>
      <trkpt lat="45.959852" lon="6.830806">
        <ele>1816.078</ele>
        <time>2018-07-12T07:31:18Z</time>
      </trkpt>
      <trkpt lat="45.959806" lon="6.830802">
        <ele>1816.384</ele>
        <time>2018-07-12T07:31:25Z</time>
      </trkpt>
      <trkpt lat="45.959773" lon="6.830848">
        <ele>1819.528</ele>
        <time>2018-07-12T07:31:33Z</time>
      </trkpt>
      <trkpt lat="45.959765" lon="6.830916">
        <ele>1818.789</ele>
        <time>2018-07-12T07:31:42Z</time>
      </trkpt>
      <trkpt lat="45.959768" lon="6.830981">
        <ele>1819.417</ele>
        <time>2018-07-12T07:31:56Z</time>
      </trkpt>
      <trkpt lat="45.959749" lon="6.831043">
        <ele>1820.808</ele>
        <time>2018-07-12T07:32:04Z</time>
      </trkpt>
      <trkpt lat="45.959703" lon="6.831054">
        <ele>1820.334</ele>
        <time>2018-07-12T07:32:13Z</time>
      </trkpt>
      <trkpt lat="45.959654" lon="6.831060">
        <ele>1821.328</ele>
        <time>2018-07-12T07:32:24Z</time>
      </trkpt>
      <trkpt lat="45.959607" lon="6.831046">
        <ele>1821.696</ele>
        <time>2018-07-12T07:32:31Z</time>
      </trkpt>
      <trkpt lat="45.959561" lon="6.831050">
        <ele>1822.575</ele>
        <time>2018-07-12T07:32:39Z</time>
      </trkpt>
      <trkpt lat="45.959513" lon="6.831067">
        <ele>1822.799</ele>
        <time>2018-07-12T07:32:46Z</time>
      </trkpt>
      <trkpt lat="45.959470" lon="6.831094">
        <ele>1823.784</ele>
        <time>2018-07-12T07:32:52Z</time>
      </trkpt>
      <trkpt lat="45.959432" lon="6.831136">
        <ele>1824.838</ele>
        <time>2018-07-12T07:32:59Z</time>
      </trkpt>
      <trkpt lat="45.959401" lon="6.831185">
        <ele>1825.584</ele>
        <time>2018-07-12T07:33:07Z</time>
      </trkpt>
      <trkpt lat="45.959374" lon="6.831242">
        <ele>1825.634</ele>
        <time>2018-07-12T07:33:23Z</time>
      </trkpt>
      <trkpt lat="45.959334" lon="6.831280">
        <ele>1826.155</ele>
        <time>2018-07-12T07:33:45Z</time>
      </trkpt>
      <trkpt lat="45.959314" lon="6.831338">
        <ele>1826.710</ele>
        <time>2018-07-12T07:33:51Z</time>
      </trkpt>
      <trkpt lat="45.959300" lon="6.831402">
        <ele>1827.108</ele>
        <time>2018-07-12T07:33:57Z</time>
      </trkpt>
      <trkpt lat="45.959272" lon="6.831458">
        <ele>1828.295</ele>
        <time>2018-07-12T07:34:05Z</time>
      </trkpt>
      <trkpt lat="45.959235" lon="6.831505">
        <ele>1828.789</ele>
        <time>2018-07-12T07:34:14Z</time>
      </trkpt>
      <trkpt lat="45.959188" lon="6.831535">
        <ele>1829.087</ele>
        <time>2018-07-12T07:34:21Z</time>
      </trkpt>
      <trkpt lat="45.959146" lon="6.831574">
        <ele>1829.236</ele>
        <time>2018-07-12T07:34:27Z</time>
      </trkpt>
      <trkpt lat="45.959100" lon="6.831605">
        <ele>1829.640</ele>
        <time>2018-07-12T07:34:33Z</time>
      </trkpt>
      <trkpt lat="45.959051" lon="6.831621">
        <ele>1830.655</ele>
        <time>2018-07-12T07:34:39Z</time>
      </trkpt>
      <trkpt lat="45.959006" lon="6.831629">
        <ele>1830.439</ele>
        <time>2018-07-12T07:34:44Z</time>
      </trkpt>
      <trkpt lat="45.958962" lon="6.831648">
        <ele>1831.115</ele>
        <time>2018-07-12T07:34:50Z</time>
      </trkpt>
      <trkpt lat="45.958925" lon="6.831692">
        <ele>1831.229</ele>
        <time>2018-07-12T07:34:57Z</time>
      </trkpt>
      <trkpt lat="45.958894" lon="6.831749">
        <ele>1831.500</ele>
        <time>2018-07-12T07:35:06Z</time>
      </trkpt>
      <trkpt lat="45.958852" lon="6.831790">
        <ele>1831.820</ele>
        <time>2018-07-12T07:35:14Z</time>
      </trkpt>
      <trkpt lat="45.958820" lon="6.831837">
        <ele>1832.708</ele>
        <time>2018-07-12T07:35:21Z</time>
      </trkpt>
      <trkpt lat="45.958776" lon="6.831853">
        <ele>1832.564</ele>
        <time>2018-07-12T07:35:27Z</time>
      </trkpt>
      <trkpt lat="45.958732" lon="6.831868">
        <ele>1833.088</ele>
        <time>2018-07-12T07:35:33Z</time>
      </trkpt>
      <trkpt lat="45.958691" lon="6.831909">
        <ele>1832.826</ele>
        <time>2018-07-12T07:35:40Z</time>
      </trkpt>
      <trkpt lat="45.958658" lon="6.831959">
        <ele>1834.185</ele>
        <time>2018-07-12T07:35:49Z</time>
      </trkpt>
      <trkpt lat="45.958608" lon="6.831955">
        <ele>1834.029</ele>
        <time>2018-07-12T07:35:56Z</time>
      </trkpt>
      <trkpt lat="45.958563" lon="6.831969">
        <ele>1834.554</ele>
        <time>2018-07-12T07:36:02Z</time>
      </trkpt>
      <trkpt lat="45.958516" lon="6.831974">
        <ele>1834.918</ele>
        <time>2018-07-12T07:36:08Z</time>
      </trkpt>
      <trkpt lat="45.958466" lon="6.831970">
        <ele>1835.194</ele>
        <time>2018-07-12T07:36:14Z</time>
      </trkpt>
      <trkpt lat="45.958415" lon="6.831972">
        <ele>1835.327</ele>
        <time>2018-07-12T07:36:20Z</time>
      </trkpt>
      <trkpt lat="45.958371" lon="6.831983">
        <ele>1836.168</ele>
        <time>2018-07-12T07:36:26Z</time>
      </trkpt>
      <trkpt lat="45.958319" lon="6.831984">
        <ele>1836.814</ele>
        <time>2018-07-12T07:36:48Z</time>
      </trkpt>
      <trkpt lat="45.958274" lon="6.832007">
        <ele>1837.408</ele>
        <time>2018-07-12T07:36:54Z</time>
      </trkpt>
      <trkpt lat="45.958232" lon="6.832042">
        <ele>1838.064</ele>
        <time>2018-07-12T07:37:01Z</time>
      </trkpt>
      <trkpt lat="45.958185" lon="6.832050">
        <ele>1838.788</ele>
        <time>2018-07-12T07:37:08Z</time>
      </trkpt>
      <trkpt lat="45.958141" lon="6.832070">
        <ele>1839.126</ele>
        <time>2018-07-12T07:37:20Z</time>
      </trkpt>
      <trkpt lat="45.958091" lon="6.832088">
        <ele>1839.415</ele>
        <time>2018-07-12T07:37:27Z</time>
      </trkpt>
      <trkpt lat="45.958043" lon="6.832097">
        <ele>1839.819</ele>
        <time>2018-07-12T07:37:34Z</time>
      </trkpt>
      <trkpt lat="45.957997" lon="6.832125">
        <ele>1840.864</ele>
        <time>2018-07-12T07:37:43Z</time>
      </trkpt>
      <trkpt lat="45.957952" lon="6.832139">
        <ele>1841.788</ele>
        <time>2018-07-12T07:37:52Z</time>
      </trkpt>
      <trkpt lat="45.957907" lon="6.832162">
        <ele>1842.774</ele>
        <time>2018-07-12T07:37:59Z</time>
      </trkpt>
      <trkpt lat="45.957863" lon="6.832201">
        <ele>1843.351</ele>
        <time>2018-07-12T07:38:07Z</time>
      </trkpt>
      <trkpt lat="45.957820" lon="6.832225">
        <ele>1844.401</ele>
        <time>2018-07-12T07:38:19Z</time>
      </trkpt>
      <trkpt lat="45.957770" lon="6.832214">
        <ele>1845.411</ele>
        <time>2018-07-12T07:38:29Z</time>
      </trkpt>
      <trkpt lat="45.957722" lon="6.832224">
        <ele>1846.008</ele>
        <time>2018-07-12T07:38:40Z</time>
      </trkpt>
      <trkpt lat="45.957678" lon="6.832193">
        <ele>1846.597</ele>
        <time>2018-07-12T07:38:48Z</time>
      </trkpt>
      <trkpt lat="45.957634" lon="6.832212">
        <ele>1847.131</ele>
        <time>2018-07-12T07:38:56Z</time>
      </trkpt>
      <trkpt lat="45.957594" lon="6.832254">
        <ele>1849.619</ele>
        <time>2018-07-12T07:39:03Z</time>
      </trkpt>
      <trkpt lat="45.957547" lon="6.832281">
        <ele>1848.948</ele>
        <time>2018-07-12T07:39:12Z</time>
      </trkpt>
      <trkpt lat="45.957503" lon="6.832297">
        <ele>1849.262</ele>
        <time>2018-07-12T07:39:20Z</time>
      </trkpt>
      <trkpt lat="45.957455" lon="6.832318">
        <ele>1849.727</ele>
        <time>2018-07-12T07:39:33Z</time>
      </trkpt>
      <trkpt lat="45.957412" lon="6.832350">
        <ele>1849.961</ele>
        <time>2018-07-12T07:39:41Z</time>
      </trkpt>
      <trkpt lat="45.957375" lon="6.832396">
        <ele>1850.657</ele>
        <time>2018-07-12T07:39:49Z</time>
      </trkpt>
      <trkpt lat="45.957327" lon="6.832423">
        <ele>1850.928</ele>
        <time>2018-07-12T07:39:56Z</time>
      </trkpt>
      <trkpt lat="45.957270" lon="6.832439">
        <ele>1851.489</ele>
        <time>2018-07-12T07:40:04Z</time>
      </trkpt>
      <trkpt lat="45.957220" lon="6.832449">
        <ele>1851.717</ele>
        <time>2018-07-12T07:40:10Z</time>
      </trkpt>
      <trkpt lat="45.957171" lon="6.832458">
        <ele>1851.708</ele>
        <time>2018-07-12T07:40:15Z</time>
      </trkpt>
      <trkpt lat="45.957125" lon="6.832473">
        <ele>1851.554</ele>
        <time>2018-07-12T07:40:20Z</time>
      </trkpt>
      <trkpt lat="45.957078" lon="6.832496">
        <ele>1852.948</ele>
        <time>2018-07-12T07:40:27Z</time>
      </trkpt>
      <trkpt lat="45.957043" lon="6.832539">
        <ele>1853.416</ele>
        <time>2018-07-12T07:40:32Z</time>
      </trkpt>
      <trkpt lat="45.957012" lon="6.832587">
        <ele>1854.285</ele>
        <time>2018-07-12T07:40:39Z</time>
      </trkpt>
      <trkpt lat="45.956963" lon="6.832613">
        <ele>1854.649</ele>
        <time>2018-07-12T07:40:46Z</time>
      </trkpt>
      <trkpt lat="45.956920" lon="6.832647">
        <ele>1855.014</ele>
        <time>2018-07-12T07:40:52Z</time>
      </trkpt>
      <trkpt lat="45.956883" lon="6.832700">
        <ele>1855.588</ele>
        <time>2018-07-12T07:40:58Z</time>
      </trkpt>
      <trkpt lat="45.956848" lon="6.832749">
        <ele>1856.344</ele>
        <time>2018-07-12T07:41:07Z</time>
      </trkpt>
      <trkpt lat="45.956803" lon="6.832775">
        <ele>1857.318</ele>
        <time>2018-07-12T07:41:13Z</time>
      </trkpt>
      <trkpt lat="45.956770" lon="6.832819">
        <ele>1857.398</ele>
        <time>2018-07-12T07:41:18Z</time>
      </trkpt>
      <trkpt lat="45.956730" lon="6.832854">
        <ele>1858.717</ele>
        <time>2018-07-12T07:41:23Z</time>
      </trkpt>
      <trkpt lat="45.956685" lon="6.832872">
        <ele>1858.308</ele>
        <time>2018-07-12T07:41:30Z</time>
      </trkpt>
      <trkpt lat="45.956644" lon="6.832906">
        <ele>1858.453</ele>
        <time>2018-07-12T07:41:35Z</time>
      </trkpt>
      <trkpt lat="45.956597" lon="6.832931">
        <ele>1859.097</ele>
        <time>2018-07-12T07:41:41Z</time>
      </trkpt>
      <trkpt lat="45.956545" lon="6.832933">
        <ele>1859.265</ele>
        <time>2018-07-12T07:41:46Z</time>
      </trkpt>
      <trkpt lat="45.956496" lon="6.832927">
        <ele>1859.414</ele>
        <time>2018-07-12T07:41:51Z</time>
      </trkpt>
      <trkpt lat="45.956450" lon="6.832928">
        <ele>1859.738</ele>
        <time>2018-07-12T07:41:55Z</time>
      </trkpt>
      <trkpt lat="45.956403" lon="6.832918">
        <ele>1860.213</ele>
        <time>2018-07-12T07:42:01Z</time>
      </trkpt>
      <trkpt lat="45.956362" lon="6.832959">
        <ele>1860.727</ele>
        <time>2018-07-12T07:42:09Z</time>
      </trkpt>
      <trkpt lat="45.956313" lon="6.832978">
        <ele>1861.673</ele>
        <time>2018-07-12T07:42:16Z</time>
      </trkpt>
      <trkpt lat="45.956266" lon="6.832975">
        <ele>1862.263</ele>
        <time>2018-07-12T07:42:23Z</time>
      </trkpt>
      <trkpt lat="45.956216" lon="6.832982">
        <ele>1862.444</ele>
        <time>2018-07-12T07:42:31Z</time>
      </trkpt>
      <trkpt lat="45.956167" lon="6.832993">
        <ele>1862.318</ele>
        <time>2018-07-12T07:42:37Z</time>
      </trkpt>
      <trkpt lat="45.956117" lon="6.833013">
        <ele>1862.708</ele>
        <time>2018-07-12T07:42:43Z</time>
      </trkpt>
      <trkpt lat="45.956070" lon="6.833022">
        <ele>1865.698</ele>
        <time>2018-07-12T07:42:49Z</time>
      </trkpt>
      <trkpt lat="45.956022" lon="6.832998">
        <ele>1864.292</ele>
        <time>2018-07-12T07:43:05Z</time>
      </trkpt>
      <trkpt lat="45.955980" lon="6.833021">
        <ele>1863.780</ele>
        <time>2018-07-12T07:44:06Z</time>
      </trkpt>
      <trkpt lat="45.955953" lon="6.833076">
        <ele>1864.089</ele>
        <time>2018-07-12T07:44:12Z</time>
      </trkpt>
      <trkpt lat="45.955936" lon="6.833141">
        <ele>1867.383</ele>
        <time>2018-07-12T07:44:20Z</time>
      </trkpt>
      <trkpt lat="45.955916" lon="6.833207">
        <ele>1866.248</ele>
        <time>2018-07-12T07:44:31Z</time>
      </trkpt>
      <trkpt lat="45.955875" lon="6.833244">
        <ele>1868.452</ele>
        <time>2018-07-12T07:44:38Z</time>
      </trkpt>
      <trkpt lat="45.955855" lon="6.833305">
        <ele>1866.318</ele>
        <time>2018-07-12T07:44:46Z</time>
      </trkpt>
      <trkpt lat="45.955831" lon="6.833367">
        <ele>1867.425</ele>
        <time>2018-07-12T07:44:51Z</time>
      </trkpt>
      <trkpt lat="45.955806" lon="6.833424">
        <ele>1867.126</ele>
        <time>2018-07-12T07:44:56Z</time>
      </trkpt>
      <trkpt lat="45.955769" lon="6.833461">
        <ele>1866.608</ele>
        <time>2018-07-12T07:45:02Z</time>
      </trkpt>
      <trkpt lat="45.955739" lon="6.833518">
        <ele>1866.708</ele>
        <time>2018-07-12T07:45:08Z</time>
      </trkpt>
      <trkpt lat="45.955695" lon="6.833558">
        <ele>1866.984</ele>
        <time>2018-07-12T07:45:15Z</time>
      </trkpt>
      <trkpt lat="45.955667" lon="6.833618">
        <ele>1867.618</ele>
        <time>2018-07-12T07:45:21Z</time>
      </trkpt>
      <trkpt lat="45.955650" lon="6.833686">
        <ele>1867.326</ele>
        <time>2018-07-12T07:45:27Z</time>
      </trkpt>
      <trkpt lat="45.955613" lon="6.833739">
        <ele>1867.895</ele>
        <time>2018-07-12T07:45:33Z</time>
      </trkpt>
      <trkpt lat="45.955574" lon="6.833778">
        <ele>1867.859</ele>
        <time>2018-07-12T07:45:38Z</time>
      </trkpt>
      <trkpt lat="45.955542" lon="6.833832">
        <ele>1868.474</ele>
        <time>2018-07-12T07:45:44Z</time>
      </trkpt>
      <trkpt lat="45.955508" lon="6.833878">
        <ele>1868.548</ele>
        <time>2018-07-12T07:45:50Z</time>
      </trkpt>
      <trkpt lat="45.955473" lon="6.833928">
        <ele>1869.484</ele>
        <time>2018-07-12T07:45:56Z</time>
      </trkpt>
      <trkpt lat="45.955443" lon="6.833979">
        <ele>1869.799</ele>
        <time>2018-07-12T07:46:04Z</time>
      </trkpt>
      <trkpt lat="45.955400" lon="6.834024">
        <ele>1869.907</ele>
        <time>2018-07-12T07:46:11Z</time>
      </trkpt>
      <trkpt lat="45.955362" lon="6.834072">
        <ele>1869.927</ele>
        <time>2018-07-12T07:46:17Z</time>
      </trkpt>
      <trkpt lat="45.955328" lon="6.834116">
        <ele>1871.008</ele>
        <time>2018-07-12T07:46:23Z</time>
      </trkpt>
      <trkpt lat="45.955287" lon="6.834153">
        <ele>1871.311</ele>
        <time>2018-07-12T07:46:30Z</time>
      </trkpt>
      <trkpt lat="45.955244" lon="6.834189">
        <ele>1872.525</ele>
        <time>2018-07-12T07:46:36Z</time>
      </trkpt>
      <trkpt lat="45.955205" lon="6.834239">
        <ele>1871.853</ele>
        <time>2018-07-12T07:46:43Z</time>
      </trkpt>
      <trkpt lat="45.955175" lon="6.834289">
        <ele>1872.062</ele>
        <time>2018-07-12T07:46:50Z</time>
      </trkpt>
      <trkpt lat="45.955128" lon="6.834318">
        <ele>1872.746</ele>
        <time>2018-07-12T07:46:57Z</time>
      </trkpt>
      <trkpt lat="45.955087" lon="6.834345">
        <ele>1872.631</ele>
        <time>2018-07-12T07:47:01Z</time>
      </trkpt>
      <trkpt lat="45.955038" lon="6.834373">
        <ele>1872.785</ele>
        <time>2018-07-12T07:47:06Z</time>
      </trkpt>
      <trkpt lat="45.954993" lon="6.834410">
        <ele>1875.731</ele>
        <time>2018-07-12T07:47:11Z</time>
      </trkpt>
      <trkpt lat="45.954960" lon="6.834463">
        <ele>1875.856</ele>
        <time>2018-07-12T07:47:16Z</time>
      </trkpt>
      <trkpt lat="45.954948" lon="6.834537">
        <ele>1875.759</ele>
        <time>2018-07-12T07:47:22Z</time>
      </trkpt>
      <trkpt lat="45.954926" lon="6.834601">
        <ele>1876.114</ele>
        <time>2018-07-12T07:47:28Z</time>
      </trkpt>
      <trkpt lat="45.954892" lon="6.834658">
        <ele>1876.508</ele>
        <time>2018-07-12T07:47:33Z</time>
      </trkpt>
      <trkpt lat="45.954863" lon="6.834712">
        <ele>1876.547</ele>
        <time>2018-07-12T07:47:38Z</time>
      </trkpt>
      <trkpt lat="45.954836" lon="6.834780">
        <ele>1876.111</ele>
        <time>2018-07-12T07:47:45Z</time>
      </trkpt>
      <trkpt lat="45.954800" lon="6.834825">
        <ele>1874.279</ele>
        <time>2018-07-12T07:47:53Z</time>
      </trkpt>
      <trkpt lat="45.954758" lon="6.834802">
        <ele>1873.568</ele>
        <time>2018-07-12T07:47:58Z</time>
      </trkpt>
      <trkpt lat="45.954712" lon="6.834759">
        <ele>1873.592</ele>
        <time>2018-07-12T07:48:03Z</time>
      </trkpt>
      <trkpt lat="45.954668" lon="6.834737">
        <ele>1873.587</ele>
        <time>2018-07-12T07:48:09Z</time>
      </trkpt>
      <trkpt lat="45.954633" lon="6.834796">
        <ele>1874.021</ele>
        <time>2018-07-12T07:48:15Z</time>
      </trkpt>
      <trkpt lat="45.954581" lon="6.834804">
        <ele>1874.247</ele>
        <time>2018-07-12T07:48:21Z</time>
      </trkpt>
      <trkpt lat="45.954530" lon="6.834818">
        <ele>1875.413</ele>
        <time>2018-07-12T07:48:28Z</time>
      </trkpt>
      <trkpt lat="45.954481" lon="6.834849">
        <ele>1877.243</ele>
        <time>2018-07-12T07:48:35Z</time>
      </trkpt>
      <trkpt lat="45.954448" lon="6.834893">
        <ele>1877.307</ele>
        <time>2018-07-12T07:48:39Z</time>
      </trkpt>
      <trkpt lat="45.954406" lon="6.834927">
        <ele>1877.608</ele>
        <time>2018-07-12T07:48:46Z</time>
      </trkpt>
      <trkpt lat="45.954359" lon="6.834962">
        <ele>1877.993</ele>
        <time>2018-07-12T07:48:53Z</time>
      </trkpt>
      <trkpt lat="45.954309" lon="6.834984">
        <ele>1878.057</ele>
        <time>2018-07-12T07:48:59Z</time>
      </trkpt>
      <trkpt lat="45.954278" lon="6.834927">
        <ele>1878.325</ele>
        <time>2018-07-12T07:49:06Z</time>
      </trkpt>
      <trkpt lat="45.954249" lon="6.834871">
        <ele>1877.384</ele>
        <time>2018-07-12T07:49:12Z</time>
      </trkpt>
      <trkpt lat="45.954199" lon="6.834871">
        <ele>1876.778</ele>
        <time>2018-07-12T07:49:18Z</time>
      </trkpt>
      <trkpt lat="45.954149" lon="6.834869">
        <ele>1877.463</ele>
        <time>2018-07-12T07:49:24Z</time>
      </trkpt>
      <trkpt lat="45.954099" lon="6.834887">
        <ele>1877.127</ele>
        <time>2018-07-12T07:49:30Z</time>
      </trkpt>
      <trkpt lat="45.954058" lon="6.834916">
        <ele>1877.813</ele>
        <time>2018-07-12T07:49:35Z</time>
      </trkpt>
      <trkpt lat="45.954017" lon="6.834950">
        <ele>1879.138</ele>
        <time>2018-07-12T07:49:43Z</time>
      </trkpt>
      <trkpt lat="45.953974" lon="6.834993">
        <ele>1880.070</ele>
        <time>2018-07-12T07:49:51Z</time>
      </trkpt>
      <trkpt lat="45.953928" lon="6.835015">
        <ele>1880.217</ele>
        <time>2018-07-12T07:50:02Z</time>
      </trkpt>
      <trkpt lat="45.953877" lon="6.835035">
        <ele>1881.408</ele>
        <time>2018-07-12T07:50:08Z</time>
      </trkpt>
      <trkpt lat="45.953836" lon="6.835063">
        <ele>1882.925</ele>
        <time>2018-07-12T07:50:13Z</time>
      </trkpt>
      <trkpt lat="45.953801" lon="6.835122">
        <ele>1884.179</ele>
        <time>2018-07-12T07:50:19Z</time>
      </trkpt>
      <trkpt lat="45.953761" lon="6.835169">
        <ele>1884.927</ele>
        <time>2018-07-12T07:50:23Z</time>
      </trkpt>
      <trkpt lat="45.953724" lon="6.835210">
        <ele>1883.866</ele>
        <time>2018-07-12T07:50:28Z</time>
      </trkpt>
      <trkpt lat="45.953676" lon="6.835216">
        <ele>1883.890</ele>
        <time>2018-07-12T07:50:41Z</time>
      </trkpt>
      <trkpt lat="45.953627" lon="6.835190">
        <ele>1884.645</ele>
        <time>2018-07-12T07:50:47Z</time>
      </trkpt>
      <trkpt lat="45.953588" lon="6.835151">
        <ele>1885.499</ele>
        <time>2018-07-12T07:50:53Z</time>
      </trkpt>
      <trkpt lat="45.953561" lon="6.835091">
        <ele>1885.315</ele>
        <time>2018-07-12T07:50:59Z</time>
      </trkpt>
      <trkpt lat="45.953524" lon="6.835051">
        <ele>1885.978</ele>
        <time>2018-07-12T07:51:04Z</time>
      </trkpt>
      <trkpt lat="45.953480" lon="6.835028">
        <ele>1887.033</ele>
        <time>2018-07-12T07:51:11Z</time>
      </trkpt>
      <trkpt lat="45.953433" lon="6.835034">
        <ele>1888.826</ele>
        <time>2018-07-12T07:51:22Z</time>
      </trkpt>
      <trkpt lat="45.953389" lon="6.835052">
        <ele>1889.108</ele>
        <time>2018-07-12T07:51:30Z</time>
      </trkpt>
      <trkpt lat="45.953344" lon="6.835083">
        <ele>1890.069</ele>
        <time>2018-07-12T07:51:41Z</time>
      </trkpt>
      <trkpt lat="45.953295" lon="6.835091">
        <ele>1891.113</ele>
        <time>2018-07-12T07:51:50Z</time>
      </trkpt>
      <trkpt lat="45.953247" lon="6.835109">
        <ele>1892.291</ele>
        <time>2018-07-12T07:52:00Z</time>
      </trkpt>
      <trkpt lat="45.953202" lon="6.835120">
        <ele>1893.610</ele>
        <time>2018-07-12T07:52:11Z</time>
      </trkpt>
      <trkpt lat="45.953158" lon="6.835132">
        <ele>1894.894</ele>
        <time>2018-07-12T07:52:22Z</time>
      </trkpt>
      <trkpt lat="45.953112" lon="6.835140">
        <ele>1895.419</ele>
        <time>2018-07-12T07:52:32Z</time>
      </trkpt>
      <trkpt lat="45.953066" lon="6.835163">
        <ele>1897.273</ele>
        <time>2018-07-12T07:52:45Z</time>
      </trkpt>
      <trkpt lat="45.953020" lon="6.835183">
        <ele>1897.949</ele>
        <time>2018-07-12T07:52:54Z</time>
      </trkpt>
      <trkpt lat="45.952983" lon="6.835225">
        <ele>1899.491</ele>
        <time>2018-07-12T07:53:03Z</time>
      </trkpt>
      <trkpt lat="45.952974" lon="6.835289">
        <ele>1900.181</ele>
        <time>2018-07-12T07:53:15Z</time>
      </trkpt>
      <trkpt lat="45.952956" lon="6.835353">
        <ele>1901.719</ele>
        <time>2018-07-12T07:53:27Z</time>
      </trkpt>
      <trkpt lat="45.952933" lon="6.835414">
        <ele>1902.108</ele>
        <time>2018-07-12T07:53:37Z</time>
      </trkpt>
      <trkpt lat="45.952919" lon="6.835478">
        <ele>1903.241</ele>
        <time>2018-07-12T07:53:46Z</time>
      </trkpt>
      <trkpt lat="45.952876" lon="6.835509">
        <ele>1904.265</ele>
        <time>2018-07-12T07:53:56Z</time>
      </trkpt>
      <trkpt lat="45.952826" lon="6.835494">
        <ele>1904.813</ele>
        <time>2018-07-12T07:54:05Z</time>
      </trkpt>
      <trkpt lat="45.952782" lon="6.835473">
        <ele>1905.482</ele>
        <time>2018-07-12T07:54:12Z</time>
      </trkpt>
      <trkpt lat="45.952739" lon="6.835449">
        <ele>1905.346</ele>
        <time>2018-07-12T07:54:20Z</time>
      </trkpt>
      <trkpt lat="45.952690" lon="6.835453">
        <ele>1907.421</ele>
        <time>2018-07-12T07:54:31Z</time>
      </trkpt>
      <trkpt lat="45.952647" lon="6.835471">
        <ele>1907.795</ele>
        <time>2018-07-12T07:54:41Z</time>
      </trkpt>
      <trkpt lat="45.952599" lon="6.835489">
        <ele>1908.741</ele>
        <time>2018-07-12T07:54:51Z</time>
      </trkpt>
      <trkpt lat="45.952557" lon="6.835467">
        <ele>1912.159</ele>
        <time>2018-07-12T07:55:07Z</time>
      </trkpt>
      <trkpt lat="45.952518" lon="6.835424">
        <ele>1912.903</ele>
        <time>2018-07-12T07:55:16Z</time>
      </trkpt>
      <trkpt lat="45.952490" lon="6.835366">
        <ele>1911.923</ele>
        <time>2018-07-12T07:55:23Z</time>
      </trkpt>
      <trkpt lat="45.952453" lon="6.835322">
        <ele>1911.208</ele>
        <time>2018-07-12T07:55:30Z</time>
      </trkpt>
      <trkpt lat="45.952412" lon="6.835290">
        <ele>1911.417</ele>
        <time>2018-07-12T07:55:36Z</time>
      </trkpt>
      <trkpt lat="45.952364" lon="6.835262">
        <ele>1911.721</ele>
        <time>2018-07-12T07:55:42Z</time>
      </trkpt>
      <trkpt lat="45.952324" lon="6.835230">
        <ele>1912.039</ele>
        <time>2018-07-12T07:55:48Z</time>
      </trkpt>
      <trkpt lat="45.952281" lon="6.835199">
        <ele>1912.828</ele>
        <time>2018-07-12T07:55:54Z</time>
      </trkpt>
      <trkpt lat="45.952232" lon="6.835199">
        <ele>1912.852</ele>
        <time>2018-07-12T07:56:00Z</time>
      </trkpt>
      <trkpt lat="45.952185" lon="6.835180">
        <ele>1912.737</ele>
        <time>2018-07-12T07:56:06Z</time>
      </trkpt>
      <trkpt lat="45.952136" lon="6.835157">
        <ele>1912.861</ele>
        <time>2018-07-12T07:56:12Z</time>
      </trkpt>
      <trkpt lat="45.952087" lon="6.835176">
        <ele>1913.157</ele>
        <time>2018-07-12T07:56:19Z</time>
      </trkpt>
      <trkpt lat="45.952044" lon="6.835211">
        <ele>1913.556</ele>
        <time>2018-07-12T07:57:23Z</time>
      </trkpt>
      <trkpt lat="45.951995" lon="6.835220">
        <ele>1913.759</ele>
        <time>2018-07-12T07:58:12Z</time>
      </trkpt>
      <trkpt lat="45.951944" lon="6.835216">
        <ele>1913.914</ele>
        <time>2018-07-12T07:58:27Z</time>
      </trkpt>
      <trkpt lat="45.951898" lon="6.835227">
        <ele>1915.808</ele>
        <time>2018-07-12T07:58:33Z</time>
      </trkpt>
      <trkpt lat="45.951854" lon="6.835211">
        <ele>1914.777</ele>
        <time>2018-07-12T07:58:43Z</time>
      </trkpt>
      <trkpt lat="45.951806" lon="6.835216">
        <ele>1915.311</ele>
        <time>2018-07-12T07:58:50Z</time>
      </trkpt>
      <trkpt lat="45.951760" lon="6.835219">
        <ele>1916.029</ele>
        <time>2018-07-12T07:58:59Z</time>
      </trkpt>
      <trkpt lat="45.951712" lon="6.835208">
        <ele>1916.918</ele>
        <time>2018-07-12T07:59:07Z</time>
      </trkpt>
      <trkpt lat="45.951664" lon="6.835199">
        <ele>1918.092</ele>
        <time>2018-07-12T07:59:17Z</time>
      </trkpt>
      <trkpt lat="45.951621" lon="6.835172">
        <ele>1918.917</ele>
        <time>2018-07-12T07:59:27Z</time>
      </trkpt>
      <trkpt lat="45.951575" lon="6.835157">
        <ele>1919.921</ele>
        <time>2018-07-12T07:59:40Z</time>
      </trkpt>
      <trkpt lat="45.951527" lon="6.835136">
        <ele>1920.567</ele>
        <time>2018-07-12T07:59:49Z</time>
      </trkpt>
      <trkpt lat="45.951481" lon="6.835104">
        <ele>1920.914</ele>
        <time>2018-07-12T07:59:57Z</time>
      </trkpt>
      <trkpt lat="45.951434" lon="6.835100">
        <ele>1921.854</ele>
        <time>2018-07-12T08:00:06Z</time>
      </trkpt>
      <trkpt lat="45.951384" lon="6.835095">
        <ele>1923.109</ele>
        <time>2018-07-12T08:00:15Z</time>
      </trkpt>
      <trkpt lat="45.951344" lon="6.835065">
        <ele>1923.908</ele>
        <time>2018-07-12T08:00:22Z</time>
      </trkpt>
      <trkpt lat="45.951304" lon="6.835026">
        <ele>1923.953</ele>
        <time>2018-07-12T08:00:33Z</time>
      </trkpt>
      <trkpt lat="45.951259" lon="6.835009">
        <ele>1923.617</ele>
        <time>2018-07-12T08:00:39Z</time>
      </trkpt>
      <trkpt lat="45.951206" lon="6.834999">
        <ele>1924.375</ele>
        <time>2018-07-12T08:00:45Z</time>
      </trkpt>
      <trkpt lat="45.951158" lon="6.834965">
        <ele>1924.144</ele>
        <time>2018-07-12T08:00:51Z</time>
      </trkpt>
      <trkpt lat="45.951116" lon="6.834933">
        <ele>1924.738</ele>
        <time>2018-07-12T08:00:58Z</time>
      </trkpt>
      <trkpt lat="45.951068" lon="6.834908">
        <ele>1924.923</ele>
        <time>2018-07-12T08:01:05Z</time>
      </trkpt>
      <trkpt lat="45.951023" lon="6.834891">
        <ele>1926.017</ele>
        <time>2018-07-12T08:01:11Z</time>
      </trkpt>
      <trkpt lat="45.950977" lon="6.834873">
        <ele>1926.623</ele>
        <time>2018-07-12T08:01:18Z</time>
      </trkpt>
      <trkpt lat="45.950926" lon="6.834854">
        <ele>1926.955</ele>
        <time>2018-07-12T08:01:26Z</time>
      </trkpt>
      <trkpt lat="45.950878" lon="6.834842">
        <ele>1930.007</ele>
        <time>2018-07-12T08:01:32Z</time>
      </trkpt>
      <trkpt lat="45.950830" lon="6.834832">
        <ele>1927.817</ele>
        <time>2018-07-12T08:01:38Z</time>
      </trkpt>
      <trkpt lat="45.950788" lon="6.834807">
        <ele>1928.608</ele>
        <time>2018-07-12T08:01:44Z</time>
      </trkpt>
      <trkpt lat="45.950747" lon="6.834771">
        <ele>1928.797</ele>
        <time>2018-07-12T08:01:50Z</time>
      </trkpt>
      <trkpt lat="45.950702" lon="6.834747">
        <ele>1929.271</ele>
        <time>2018-07-12T08:01:56Z</time>
      </trkpt>
      <trkpt lat="45.950655" lon="6.834733">
        <ele>1929.459</ele>
        <time>2018-07-12T08:02:02Z</time>
      </trkpt>
      <trkpt lat="45.950613" lon="6.834701">
        <ele>1929.468</ele>
        <time>2018-07-12T08:02:08Z</time>
      </trkpt>
      <trkpt lat="45.950576" lon="6.834658">
        <ele>1931.052</ele>
        <time>2018-07-12T08:02:14Z</time>
      </trkpt>
      <trkpt lat="45.950536" lon="6.834607">
        <ele>1930.097</ele>
        <time>2018-07-12T08:02:20Z</time>
      </trkpt>
      <trkpt lat="45.950492" lon="6.834564">
        <ele>1930.091</ele>
        <time>2018-07-12T08:02:26Z</time>
      </trkpt>
      <trkpt lat="45.950451" lon="6.834520">
        <ele>1930.397</ele>
        <time>2018-07-12T08:02:32Z</time>
      </trkpt>
      <trkpt lat="45.950401" lon="6.834506">
        <ele>1931.728</ele>
        <time>2018-07-12T08:02:39Z</time>
      </trkpt>
      <trkpt lat="45.950353" lon="6.834481">
        <ele>1931.989</ele>
        <time>2018-07-12T08:02:46Z</time>
      </trkpt>
      <trkpt lat="45.950308" lon="6.834469">
        <ele>1932.417</ele>
        <time>2018-07-12T08:02:53Z</time>
      </trkpt>
      <trkpt lat="45.950262" lon="6.834476">
        <ele>1933.408</ele>
        <time>2018-07-12T08:03:00Z</time>
      </trkpt>
      <trkpt lat="45.950214" lon="6.834471">
        <ele>1933.914</ele>
        <time>2018-07-12T08:03:07Z</time>
      </trkpt>
      <trkpt lat="45.950165" lon="6.834465">
        <ele>1936.348</ele>
        <time>2018-07-12T08:03:14Z</time>
      </trkpt>
      <trkpt lat="45.950119" lon="6.834450">
        <ele>1936.436</ele>
        <time>2018-07-12T08:03:22Z</time>
      </trkpt>
      <trkpt lat="45.950073" lon="6.834441">
        <ele>1937.335</ele>
        <time>2018-07-12T08:03:30Z</time>
      </trkpt>
      <trkpt lat="45.950025" lon="6.834426">
        <ele>1938.669</ele>
        <time>2018-07-12T08:03:38Z</time>
      </trkpt>
      <trkpt lat="45.949977" lon="6.834432">
        <ele>1939.044</ele>
        <time>2018-07-12T08:03:48Z</time>
      </trkpt>
      <trkpt lat="45.949933" lon="6.834447">
        <ele>1939.878</ele>
        <time>2018-07-12T08:03:55Z</time>
      </trkpt>
      <trkpt lat="45.949887" lon="6.834473">
        <ele>1940.184</ele>
        <time>2018-07-12T08:04:03Z</time>
      </trkpt>
      <trkpt lat="45.949858" lon="6.834526">
        <ele>1941.657</ele>
        <time>2018-07-12T08:04:12Z</time>
      </trkpt>
      <trkpt lat="45.949835" lon="6.834587">
        <ele>1941.700</ele>
        <time>2018-07-12T08:04:19Z</time>
      </trkpt>
      <trkpt lat="45.949819" lon="6.834656">
        <ele>1942.620</ele>
        <time>2018-07-12T08:04:29Z</time>
      </trkpt>
      <trkpt lat="45.949787" lon="6.834715">
        <ele>1943.408</ele>
        <time>2018-07-12T08:04:37Z</time>
      </trkpt>
      <trkpt lat="45.949758" lon="6.834766">
        <ele>1943.887</ele>
        <time>2018-07-12T08:04:43Z</time>
      </trkpt>
      <trkpt lat="45.949717" lon="6.834807">
        <ele>1944.661</ele>
        <time>2018-07-12T08:04:51Z</time>
      </trkpt>
      <trkpt lat="45.949675" lon="6.834838">
        <ele>1946.489</ele>
        <time>2018-07-12T08:04:59Z</time>
      </trkpt>
      <trkpt lat="45.949629" lon="6.834858">
        <ele>1945.848</ele>
        <time>2018-07-12T08:05:05Z</time>
      </trkpt>
      <trkpt lat="45.949583" lon="6.834869">
        <ele>1946.812</ele>
        <time>2018-07-12T08:05:13Z</time>
      </trkpt>
      <trkpt lat="45.949539" lon="6.834886">
        <ele>1947.667</ele>
        <time>2018-07-12T08:05:23Z</time>
      </trkpt>
      <trkpt lat="45.949496" lon="6.834909">
        <ele>1948.441</ele>
        <time>2018-07-12T08:05:31Z</time>
      </trkpt>
      <trkpt lat="45.949449" lon="6.834922">
        <ele>1949.427</ele>
        <time>2018-07-12T08:05:41Z</time>
      </trkpt>
      <trkpt lat="45.949411" lon="6.834876">
        <ele>1949.538</ele>
        <time>2018-07-12T08:05:53Z</time>
      </trkpt>
      <trkpt lat="45.949371" lon="6.834828">
        <ele>1949.970</ele>
        <time>2018-07-12T08:06:00Z</time>
      </trkpt>
      <trkpt lat="45.949328" lon="6.834792">
        <ele>1950.617</ele>
        <time>2018-07-12T08:06:07Z</time>
      </trkpt>
      <trkpt lat="45.949279" lon="6.834804">
        <ele>1951.308</ele>
        <time>2018-07-12T08:06:14Z</time>
      </trkpt>
      <trkpt lat="45.949236" lon="6.834825">
        <ele>1951.775</ele>
        <time>2018-07-12T08:06:21Z</time>
      </trkpt>
      <trkpt lat="45.949187" lon="6.834841">
        <ele>1952.939</ele>
        <time>2018-07-12T08:06:30Z</time>
      </trkpt>
      <trkpt lat="45.949153" lon="6.834891">
        <ele>1954.227</ele>
        <time>2018-07-12T08:06:42Z</time>
      </trkpt>
      <trkpt lat="45.949124" lon="6.834942">
        <ele>1955.896</ele>
        <time>2018-07-12T08:06:53Z</time>
      </trkpt>
      <trkpt lat="45.949082" lon="6.834967">
        <ele>1957.130</ele>
        <time>2018-07-12T08:07:05Z</time>
      </trkpt>
      <trkpt lat="45.949039" lon="6.835001">
        <ele>1958.415</ele>
        <time>2018-07-12T08:07:15Z</time>
      </trkpt>
      <trkpt lat="45.948998" lon="6.835042">
        <ele>1959.439</ele>
        <time>2018-07-12T08:07:24Z</time>
      </trkpt>
      <trkpt lat="45.949037" lon="6.835075">
        <ele>1962.365</ele>
        <time>2018-07-12T08:07:46Z</time>
      </trkpt>
      <trkpt lat="45.949015" lon="6.835134">
        <ele>1964.276</ele>
        <time>2018-07-12T08:08:09Z</time>
      </trkpt>
      <trkpt lat="45.948976" lon="6.835171">
        <ele>1966.190</ele>
        <time>2018-07-12T08:08:23Z</time>
      </trkpt>
      <trkpt lat="45.948948" lon="6.835228">
        <ele>1967.219</ele>
        <time>2018-07-12T08:08:35Z</time>
      </trkpt>
      <trkpt lat="45.948905" lon="6.835253">
        <ele>1968.608</ele>
        <time>2018-07-12T08:08:48Z</time>
      </trkpt>
      <trkpt lat="45.948861" lon="6.835285">
        <ele>1969.729</ele>
        <time>2018-07-12T08:08:59Z</time>
      </trkpt>
      <trkpt lat="45.948819" lon="6.835320">
        <ele>1971.183</ele>
        <time>2018-07-12T08:09:10Z</time>
      </trkpt>
      <trkpt lat="45.948775" lon="6.835335">
        <ele>1972.011</ele>
        <time>2018-07-12T08:09:31Z</time>
      </trkpt>
      <trkpt lat="45.948737" lon="6.835377">
        <ele>1973.870</ele>
        <time>2018-07-12T08:09:40Z</time>
      </trkpt>
      <trkpt lat="45.948689" lon="6.835392">
        <ele>1975.394</ele>
        <time>2018-07-12T08:09:51Z</time>
      </trkpt>
      <trkpt lat="45.948643" lon="6.835416">
        <ele>1975.479</ele>
        <time>2018-07-12T08:10:03Z</time>
      </trkpt>
      <trkpt lat="45.948601" lon="6.835445">
        <ele>1976.293</ele>
        <time>2018-07-12T08:10:14Z</time>
      </trkpt>
      <trkpt lat="45.948560" lon="6.835482">
        <ele>1977.569</ele>
        <time>2018-07-12T08:10:27Z</time>
      </trkpt>
      <trkpt lat="45.948513" lon="6.835493">
        <ele>1978.319</ele>
        <time>2018-07-12T08:10:37Z</time>
      </trkpt>
      <trkpt lat="45.948468" lon="6.835501">
        <ele>1978.709</ele>
        <time>2018-07-12T08:10:44Z</time>
      </trkpt>
      <trkpt lat="45.948422" lon="6.835504">
        <ele>1979.819</ele>
        <time>2018-07-12T08:10:52Z</time>
      </trkpt>
      <trkpt lat="45.948376" lon="6.835503">
        <ele>1980.608</ele>
        <time>2018-07-12T08:11:03Z</time>
      </trkpt>
      <trkpt lat="45.948327" lon="6.835516">
        <ele>1981.353</ele>
        <time>2018-07-12T08:11:14Z</time>
      </trkpt>
      <trkpt lat="45.948282" lon="6.835531">
        <ele>1982.567</ele>
        <time>2018-07-12T08:11:23Z</time>
      </trkpt>
      <trkpt lat="45.948223" lon="6.835527">
        <ele>1983.725</ele>
        <time>2018-07-12T08:11:38Z</time>
      </trkpt>
      <trkpt lat="45.948178" lon="6.835536">
        <ele>1984.614</ele>
        <time>2018-07-12T08:11:49Z</time>
      </trkpt>
      <trkpt lat="45.948131" lon="6.835537">
        <ele>1985.358</ele>
        <time>2018-07-12T08:11:58Z</time>
      </trkpt>
      <trkpt lat="45.948081" lon="6.835537">
        <ele>1986.173</ele>
        <time>2018-07-12T08:12:07Z</time>
      </trkpt>
      <trkpt lat="45.948033" lon="6.835533">
        <ele>1986.797</ele>
        <time>2018-07-12T08:12:15Z</time>
      </trkpt>
      <trkpt lat="45.947988" lon="6.835517">
        <ele>1987.653</ele>
        <time>2018-07-12T08:12:23Z</time>
      </trkpt>
      <trkpt lat="45.947940" lon="6.835507">
        <ele>1988.149</ele>
        <time>2018-07-12T08:12:31Z</time>
      </trkpt>
      <trkpt lat="45.947893" lon="6.835501">
        <ele>1989.202</ele>
        <time>2018-07-12T08:12:42Z</time>
      </trkpt>
      <trkpt lat="45.947855" lon="6.835465">
        <ele>1990.422</ele>
        <time>2018-07-12T08:12:51Z</time>
      </trkpt>
      <trkpt lat="45.947815" lon="6.835435">
        <ele>1990.708</ele>
        <time>2018-07-12T08:12:58Z</time>
      </trkpt>
      <trkpt lat="45.947772" lon="6.835401">
        <ele>1991.426</ele>
        <time>2018-07-12T08:13:07Z</time>
      </trkpt>
      <trkpt lat="45.947729" lon="6.835376">
        <ele>1992.260</ele>
        <time>2018-07-12T08:13:16Z</time>
      </trkpt>
      <trkpt lat="45.947683" lon="6.835366">
        <ele>1993.788</ele>
        <time>2018-07-12T08:13:25Z</time>
      </trkpt>
      <trkpt lat="45.947634" lon="6.835367">
        <ele>1994.787</ele>
        <time>2018-07-12T08:13:35Z</time>
      </trkpt>
      <trkpt lat="45.947589" lon="6.835378">
        <ele>1995.341</ele>
        <time>2018-07-12T08:13:43Z</time>
      </trkpt>
      <trkpt lat="45.947541" lon="6.835374">
        <ele>1996.256</ele>
        <time>2018-07-12T08:13:52Z</time>
      </trkpt>
      <trkpt lat="45.947493" lon="6.835379">
        <ele>1997.450</ele>
        <time>2018-07-12T08:14:07Z</time>
      </trkpt>
      <trkpt lat="45.947447" lon="6.835390">
        <ele>1998.426</ele>
        <time>2018-07-12T08:14:19Z</time>
      </trkpt>
      <trkpt lat="45.947400" lon="6.835412">
        <ele>1999.862</ele>
        <time>2018-07-12T08:14:28Z</time>
      </trkpt>
      <trkpt lat="45.947353" lon="6.835408">
        <ele>1999.783</ele>
        <time>2018-07-12T08:14:36Z</time>
      </trkpt>
      <trkpt lat="45.947302" lon="6.835416">
        <ele>2000.711</ele>
        <time>2018-07-12T08:14:45Z</time>
      </trkpt>
      <trkpt lat="45.947254" lon="6.835433">
        <ele>2001.208</ele>
        <time>2018-07-12T08:14:53Z</time>
      </trkpt>
      <trkpt lat="45.947204" lon="6.835425">
        <ele>2001.998</ele>
        <time>2018-07-12T08:15:00Z</time>
      </trkpt>
      <trkpt lat="45.947157" lon="6.835398">
        <ele>2002.252</ele>
        <time>2018-07-12T08:15:12Z</time>
      </trkpt>
      <trkpt lat="45.947126" lon="6.835343">
        <ele>2003.570</ele>
        <time>2018-07-12T08:15:23Z</time>
      </trkpt>
      <trkpt lat="45.947099" lon="6.835287">
        <ele>2004.159</ele>
        <time>2018-07-12T08:15:30Z</time>
      </trkpt>
      <trkpt lat="45.947074" lon="6.835226">
        <ele>2004.133</ele>
        <time>2018-07-12T08:15:36Z</time>
      </trkpt>
      <trkpt lat="45.947028" lon="6.835196">
        <ele>2004.878</ele>
        <time>2018-07-12T08:15:46Z</time>
      </trkpt>
      <trkpt lat="45.946983" lon="6.835182">
        <ele>2005.332</ele>
        <time>2018-07-12T08:15:53Z</time>
      </trkpt>
      <trkpt lat="45.946935" lon="6.835181">
        <ele>2006.158</ele>
        <time>2018-07-12T08:16:00Z</time>
      </trkpt>
      <trkpt lat="45.946966" lon="6.835230">
        <ele>2008.237</ele>
        <time>2018-07-12T08:16:21Z</time>
      </trkpt>
      <trkpt lat="45.946999" lon="6.835284">
        <ele>2009.549</ele>
        <time>2018-07-12T08:16:30Z</time>
      </trkpt>
      <trkpt lat="45.946961" lon="6.835326">
        <ele>2011.913</ele>
        <time>2018-07-12T08:16:53Z</time>
      </trkpt>
      <trkpt lat="45.946914" lon="6.835328">
        <ele>2012.408</ele>
        <time>2018-07-12T08:17:03Z</time>
      </trkpt>
      <trkpt lat="45.946938" lon="6.835387">
        <ele>2014.515</ele>
        <time>2018-07-12T08:17:20Z</time>
      </trkpt>
      <trkpt lat="45.946961" lon="6.835444">
        <ele>2016.259</ele>
        <time>2018-07-12T08:17:32Z</time>
      </trkpt>
      <trkpt lat="45.946977" lon="6.835510">
        <ele>2016.537</ele>
        <time>2018-07-12T08:17:42Z</time>
      </trkpt>
      <trkpt lat="45.946991" lon="6.835576">
        <ele>2017.846</ele>
        <time>2018-07-12T08:17:54Z</time>
      </trkpt>
      <trkpt lat="45.947010" lon="6.835643">
        <ele>2018.890</ele>
        <time>2018-07-12T08:18:06Z</time>
      </trkpt>
      <trkpt lat="45.947023" lon="6.835709">
        <ele>2019.755</ele>
        <time>2018-07-12T08:18:17Z</time>
      </trkpt>
      <trkpt lat="45.946981" lon="6.835739">
        <ele>2021.019</ele>
        <time>2018-07-12T08:18:30Z</time>
      </trkpt>
      <trkpt lat="45.946939" lon="6.835704">
        <ele>2021.485</ele>
        <time>2018-07-12T08:18:37Z</time>
      </trkpt>
      <trkpt lat="45.946897" lon="6.835675">
        <ele>2022.315</ele>
        <time>2018-07-12T08:18:46Z</time>
      </trkpt>
      <trkpt lat="45.946851" lon="6.835684">
        <ele>2023.265</ele>
        <time>2018-07-12T08:18:57Z</time>
      </trkpt>
      <trkpt lat="45.946805" lon="6.835703">
        <ele>2024.511</ele>
        <time>2018-07-12T08:19:08Z</time>
      </trkpt>
      <trkpt lat="45.946763" lon="6.835736">
        <ele>2026.208</ele>
        <time>2018-07-12T08:19:20Z</time>
      </trkpt>
      <trkpt lat="45.946725" lon="6.835780">
        <ele>2027.183</ele>
        <time>2018-07-12T08:19:31Z</time>
      </trkpt>
      <trkpt lat="45.946728" lon="6.835849">
        <ele>2028.427</ele>
        <time>2018-07-12T08:19:46Z</time>
      </trkpt>
      <trkpt lat="45.946744" lon="6.835915">
        <ele>2029.365</ele>
        <time>2018-07-12T08:19:56Z</time>
      </trkpt>
      <trkpt lat="45.946783" lon="6.835952">
        <ele>2031.044</ele>
        <time>2018-07-12T08:20:47Z</time>
      </trkpt>
      <trkpt lat="45.946817" lon="6.836000">
        <ele>2031.728</ele>
        <time>2018-07-12T08:20:58Z</time>
      </trkpt>
      <trkpt lat="45.946865" lon="6.836020">
        <ele>2032.493</ele>
        <time>2018-07-12T08:21:08Z</time>
      </trkpt>
      <trkpt lat="45.946913" lon="6.836029">
        <ele>2033.537</ele>
        <time>2018-07-12T08:21:17Z</time>
      </trkpt>
      <trkpt lat="45.946938" lon="6.836087">
        <ele>2034.953</ele>
        <time>2018-07-12T08:21:30Z</time>
      </trkpt>
      <trkpt lat="45.946936" lon="6.836157">
        <ele>2035.516</ele>
        <time>2018-07-12T08:21:38Z</time>
      </trkpt>
      <trkpt lat="45.946950" lon="6.836221">
        <ele>2036.576</ele>
        <time>2018-07-12T08:21:48Z</time>
      </trkpt>
      <trkpt lat="45.946997" lon="6.836246">
        <ele>2036.713</ele>
        <time>2018-07-12T08:21:56Z</time>
      </trkpt>
      <trkpt lat="45.947037" lon="6.836279">
        <ele>2037.808</ele>
        <time>2018-07-12T08:22:04Z</time>
      </trkpt>
      <trkpt lat="45.947070" lon="6.836325">
        <ele>2038.993</ele>
        <time>2018-07-12T08:22:14Z</time>
      </trkpt>
      <trkpt lat="45.947022" lon="6.836337">
        <ele>2039.747</ele>
        <time>2018-07-12T08:22:24Z</time>
      </trkpt>
      <trkpt lat="45.946976" lon="6.836351">
        <ele>2040.445</ele>
        <time>2018-07-12T08:22:32Z</time>
      </trkpt>
      <trkpt lat="45.946931" lon="6.836374">
        <ele>2042.034</ele>
        <time>2018-07-12T08:22:46Z</time>
      </trkpt>
      <trkpt lat="45.946885" lon="6.836367">
        <ele>2042.858</ele>
        <time>2018-07-12T08:22:57Z</time>
      </trkpt>
      <trkpt lat="45.946838" lon="6.836357">
        <ele>2044.893</ele>
        <time>2018-07-12T08:23:09Z</time>
      </trkpt>
      <trkpt lat="45.946800" lon="6.836323">
        <ele>2044.747</ele>
        <time>2018-07-12T08:23:16Z</time>
      </trkpt>
      <trkpt lat="45.946773" lon="6.836378">
        <ele>2047.683</ele>
        <time>2018-07-12T08:23:48Z</time>
      </trkpt>
      <trkpt lat="45.946801" lon="6.836432">
        <ele>2049.047</ele>
        <time>2018-07-12T08:24:01Z</time>
      </trkpt>
      <trkpt lat="45.946757" lon="6.836460">
        <ele>2051.329</ele>
        <time>2018-07-12T08:24:24Z</time>
      </trkpt>
      <trkpt lat="45.946712" lon="6.836432">
        <ele>2052.521</ele>
        <time>2018-07-12T08:24:32Z</time>
      </trkpt>
      <trkpt lat="45.946665" lon="6.836406">
        <ele>2053.208</ele>
        <time>2018-07-12T08:24:40Z</time>
      </trkpt>
      <trkpt lat="45.946626" lon="6.836368">
        <ele>2053.666</ele>
        <time>2018-07-12T08:24:48Z</time>
      </trkpt>
      <trkpt lat="45.946625" lon="6.836436">
        <ele>2055.710</ele>
        <time>2018-07-12T08:25:08Z</time>
      </trkpt>
      <trkpt lat="45.946657" lon="6.836487">
        <ele>2056.288</ele>
        <time>2018-07-12T08:25:17Z</time>
      </trkpt>
      <trkpt lat="45.946692" lon="6.836530">
        <ele>2056.817</ele>
        <time>2018-07-12T08:25:29Z</time>
      </trkpt>
      <trkpt lat="45.946643" lon="6.836541">
        <ele>2058.591</ele>
        <time>2018-07-12T08:25:41Z</time>
      </trkpt>
      <trkpt lat="45.946595" lon="6.836527">
        <ele>2059.446</ele>
        <time>2018-07-12T08:25:48Z</time>
      </trkpt>
      <trkpt lat="45.946549" lon="6.836504">
        <ele>2060.140</ele>
        <time>2018-07-12T08:25:56Z</time>
      </trkpt>
      <trkpt lat="45.946511" lon="6.836458">
        <ele>2060.466</ele>
        <time>2018-07-12T08:26:08Z</time>
      </trkpt>
      <trkpt lat="45.946483" lon="6.836407">
        <ele>2061.063</ele>
        <time>2018-07-12T08:26:16Z</time>
      </trkpt>
      <trkpt lat="45.946463" lon="6.836349">
        <ele>2062.844</ele>
        <time>2018-07-12T08:26:39Z</time>
      </trkpt>
      <trkpt lat="45.946431" lon="6.836297">
        <ele>2062.818</ele>
        <time>2018-07-12T08:26:49Z</time>
      </trkpt>
      <trkpt lat="45.946401" lon="6.836349">
        <ele>2065.108</ele>
        <time>2018-07-12T08:27:44Z</time>
      </trkpt>
      <trkpt lat="45.946403" lon="6.836422">
        <ele>2065.648</ele>
        <time>2018-07-12T08:27:55Z</time>
      </trkpt>
      <trkpt lat="45.946380" lon="6.836484">
        <ele>2066.362</ele>
        <time>2018-07-12T08:28:04Z</time>
      </trkpt>
      <trkpt lat="45.946344" lon="6.836524">
        <ele>2069.910</ele>
        <time>2018-07-12T08:28:17Z</time>
      </trkpt>
      <trkpt lat="45.946322" lon="6.836581">
        <ele>2069.079</ele>
        <time>2018-07-12T08:28:30Z</time>
      </trkpt>
      <trkpt lat="45.946310" lon="6.836647">
        <ele>2070.693</ele>
        <time>2018-07-12T08:29:01Z</time>
      </trkpt>
      <trkpt lat="45.946348" lon="6.836687">
        <ele>2070.638</ele>
        <time>2018-07-12T08:29:08Z</time>
      </trkpt>
      <trkpt lat="45.946391" lon="6.836707">
        <ele>2071.242</ele>
        <time>2018-07-12T08:29:14Z</time>
      </trkpt>
      <trkpt lat="45.946441" lon="6.836711">
        <ele>2071.768</ele>
        <time>2018-07-12T08:29:20Z</time>
      </trkpt>
      <trkpt lat="45.946486" lon="6.836707">
        <ele>2073.668</ele>
        <time>2018-07-12T08:29:28Z</time>
      </trkpt>
      <trkpt lat="45.946528" lon="6.836731">
        <ele>2072.842</ele>
        <time>2018-07-12T08:29:37Z</time>
      </trkpt>
      <trkpt lat="45.946576" lon="6.836761">
        <ele>2073.326</ele>
        <time>2018-07-12T08:29:45Z</time>
      </trkpt>
      <trkpt lat="45.946613" lon="6.836802">
        <ele>2074.108</ele>
        <time>2018-07-12T08:29:55Z</time>
      </trkpt>
      <trkpt lat="45.946629" lon="6.836869">
        <ele>2074.998</ele>
        <time>2018-07-12T08:30:04Z</time>
      </trkpt>
      <trkpt lat="45.946644" lon="6.836931">
        <ele>2076.022</ele>
        <time>2018-07-12T08:30:15Z</time>
      </trkpt>
      <trkpt lat="45.946623" lon="6.836991">
        <ele>2076.920</ele>
        <time>2018-07-12T08:30:25Z</time>
      </trkpt>
      <trkpt lat="45.946573" lon="6.837010">
        <ele>2079.079</ele>
        <time>2018-07-12T08:30:41Z</time>
      </trkpt>
      <trkpt lat="45.946532" lon="6.836974">
        <ele>2079.143</ele>
        <time>2018-07-12T08:30:49Z</time>
      </trkpt>
      <trkpt lat="45.946486" lon="6.836975">
        <ele>2079.978</ele>
        <time>2018-07-12T08:30:56Z</time>
      </trkpt>
      <trkpt lat="45.946449" lon="6.837014">
        <ele>2080.772</ele>
        <time>2018-07-12T08:31:10Z</time>
      </trkpt>
      <trkpt lat="45.946404" lon="6.837032">
        <ele>2081.798</ele>
        <time>2018-07-12T08:31:16Z</time>
      </trkpt>
      <trkpt lat="45.946365" lon="6.837069">
        <ele>2082.563</ele>
        <time>2018-07-12T08:31:29Z</time>
      </trkpt>
      <trkpt lat="45.946315" lon="6.837078">
        <ele>2084.244</ele>
        <time>2018-07-12T08:31:41Z</time>
      </trkpt>
      <trkpt lat="45.946267" lon="6.837094">
        <ele>2085.618</ele>
        <time>2018-07-12T08:31:55Z</time>
      </trkpt>
      <trkpt lat="45.946205" lon="6.837098">
        <ele>2086.308</ele>
        <time>2018-07-12T08:32:02Z</time>
      </trkpt>
      <trkpt lat="45.946157" lon="6.837094">
        <ele>2086.558</ele>
        <time>2018-07-12T08:32:09Z</time>
      </trkpt>
      <trkpt lat="45.946111" lon="6.837069">
        <ele>2086.532</ele>
        <time>2018-07-12T08:32:16Z</time>
      </trkpt>
      <trkpt lat="45.946062" lon="6.837054">
        <ele>2086.850</ele>
        <time>2018-07-12T08:32:22Z</time>
      </trkpt>
      <trkpt lat="45.946014" lon="6.837043">
        <ele>2088.559</ele>
        <time>2018-07-12T08:32:33Z</time>
      </trkpt>
      <trkpt lat="45.946031" lon="6.837104">
        <ele>2090.133</ele>
        <time>2018-07-12T08:33:00Z</time>
      </trkpt>
      <trkpt lat="45.946053" lon="6.837165">
        <ele>2091.118</ele>
        <time>2018-07-12T08:33:11Z</time>
      </trkpt>
      <trkpt lat="45.946071" lon="6.837231">
        <ele>2092.612</ele>
        <time>2018-07-12T08:33:23Z</time>
      </trkpt>
      <trkpt lat="45.946107" lon="6.837273">
        <ele>2094.828</ele>
        <time>2018-07-12T08:33:33Z</time>
      </trkpt>
      <trkpt lat="45.946155" lon="6.837301">
        <ele>2094.338</ele>
        <time>2018-07-12T08:33:40Z</time>
      </trkpt>
      <trkpt lat="45.946196" lon="6.837332">
        <ele>2093.870</ele>
        <time>2018-07-12T08:33:47Z</time>
      </trkpt>
      <trkpt lat="45.946238" lon="6.837358">
        <ele>2094.517</ele>
        <time>2018-07-12T08:33:55Z</time>
      </trkpt>
      <trkpt lat="45.946280" lon="6.837399">
        <ele>2095.208</ele>
        <time>2018-07-12T08:34:02Z</time>
      </trkpt>
      <trkpt lat="45.946327" lon="6.837413">
        <ele>2095.035</ele>
        <time>2018-07-12T08:34:10Z</time>
      </trkpt>
      <trkpt lat="45.946373" lon="6.837422">
        <ele>2096.659</ele>
        <time>2018-07-12T08:34:20Z</time>
      </trkpt>
      <trkpt lat="45.946370" lon="6.837487">
        <ele>2097.677</ele>
        <time>2018-07-12T08:34:30Z</time>
      </trkpt>
      <trkpt lat="45.946373" lon="6.837554">
        <ele>2098.216</ele>
        <time>2018-07-12T08:34:40Z</time>
      </trkpt>
      <trkpt lat="45.946355" lon="6.837613">
        <ele>2099.620</ele>
        <time>2018-07-12T08:34:52Z</time>
      </trkpt>
      <trkpt lat="45.946311" lon="6.837648">
        <ele>2101.685</ele>
        <time>2018-07-12T08:35:14Z</time>
      </trkpt>
      <trkpt lat="45.946276" lon="6.837691">
        <ele>2104.359</ele>
        <time>2018-07-12T08:35:45Z</time>
      </trkpt>
      <trkpt lat="45.946228" lon="6.837691">
        <ele>2105.185</ele>
        <time>2018-07-12T08:36:01Z</time>
      </trkpt>
      <trkpt lat="45.946230" lon="6.837710">
        <ele>2109.616</ele>
        <time>2018-07-12T08:40:51Z</time>
      </trkpt>
      <trkpt lat="45.946184" lon="6.837722">
        <ele>2109.676</ele>
        <time>2018-07-12T08:41:22Z</time>
      </trkpt>
      <trkpt lat="45.946161" lon="6.837712">
        <ele>2112.613</ele>
        <time>2018-07-12T08:43:34Z</time>
      </trkpt>
      <trkpt lat="45.946125" lon="6.837756">
        <ele>2112.608</ele>
        <time>2018-07-12T08:43:50Z</time>
      </trkpt>
      <trkpt lat="45.946086" lon="6.837795">
        <ele>2115.683</ele>
        <time>2018-07-12T08:43:59Z</time>
      </trkpt>
      <trkpt lat="45.946038" lon="6.837864">
        <ele>2118.357</ele>
        <time>2018-07-12T08:44:14Z</time>
      </trkpt>
      <trkpt lat="45.945999" lon="6.837901">
        <ele>2119.785</ele>
        <time>2018-07-12T08:44:26Z</time>
      </trkpt>
      <trkpt lat="45.945949" lon="6.837907">
        <ele>2118.744</ele>
        <time>2018-07-12T08:44:38Z</time>
      </trkpt>
      <trkpt lat="45.945902" lon="6.837920">
        <ele>2121.698</ele>
        <time>2018-07-12T08:44:46Z</time>
      </trkpt>
      <trkpt lat="45.945857" lon="6.837936">
        <ele>2122.293</ele>
        <time>2018-07-12T08:44:55Z</time>
      </trkpt>
      <trkpt lat="45.945827" lon="6.837990">
        <ele>2121.197</ele>
        <time>2018-07-12T08:45:11Z</time>
      </trkpt>
      <trkpt lat="45.945790" lon="6.838037">
        <ele>2122.863</ele>
        <time>2018-07-12T08:45:49Z</time>
      </trkpt>
      <trkpt lat="45.945743" lon="6.838066">
        <ele>2121.845</ele>
        <time>2018-07-12T08:45:58Z</time>
      </trkpt>
      <trkpt lat="45.945688" lon="6.838086">
        <ele>2122.547</ele>
        <time>2018-07-12T08:46:07Z</time>
      </trkpt>
      <trkpt lat="45.945643" lon="6.838078">
        <ele>2125.411</ele>
        <time>2018-07-12T08:46:16Z</time>
      </trkpt>
      <trkpt lat="45.945597" lon="6.838106">
        <ele>2123.808</ele>
        <time>2018-07-12T08:46:25Z</time>
      </trkpt>
      <trkpt lat="45.945554" lon="6.838134">
        <ele>2126.416</ele>
        <time>2018-07-12T08:46:32Z</time>
      </trkpt>
      <trkpt lat="45.945513" lon="6.838162">
        <ele>2124.170</ele>
        <time>2018-07-12T08:46:39Z</time>
      </trkpt>
      <trkpt lat="45.945468" lon="6.838179">
        <ele>2124.518</ele>
        <time>2018-07-12T08:46:45Z</time>
      </trkpt>
      <trkpt lat="45.945423" lon="6.838196">
        <ele>2124.587</ele>
        <time>2018-07-12T08:46:51Z</time>
      </trkpt>
      <trkpt lat="45.945379" lon="6.838212">
        <ele>2125.091</ele>
        <time>2018-07-12T08:46:57Z</time>
      </trkpt>
      <trkpt lat="45.945334" lon="6.838217">
        <ele>2127.086</ele>
        <time>2018-07-12T08:47:04Z</time>
      </trkpt>
      <trkpt lat="45.945289" lon="6.838240">
        <ele>2126.190</ele>
        <time>2018-07-12T08:47:14Z</time>
      </trkpt>
      <trkpt lat="45.945247" lon="6.838277">
        <ele>2126.366</ele>
        <time>2018-07-12T08:47:22Z</time>
      </trkpt>
      <trkpt lat="45.945201" lon="6.838281">
        <ele>2127.336</ele>
        <time>2018-07-12T08:47:33Z</time>
      </trkpt>
      <trkpt lat="45.945151" lon="6.838290">
        <ele>2127.917</ele>
        <time>2018-07-12T08:47:44Z</time>
      </trkpt>
      <trkpt lat="45.945105" lon="6.838281">
        <ele>2131.618</ele>
        <time>2018-07-12T08:47:56Z</time>
      </trkpt>
      <trkpt lat="45.945149" lon="6.838317">
        <ele>2130.708</ele>
        <time>2018-07-12T08:48:09Z</time>
      </trkpt>
      <trkpt lat="45.945117" lon="6.838367">
        <ele>2133.045</ele>
        <time>2018-07-12T08:48:27Z</time>
      </trkpt>
      <trkpt lat="45.945070" lon="6.838376">
        <ele>2133.819</ele>
        <time>2018-07-12T08:48:36Z</time>
      </trkpt>
      <trkpt lat="45.945054" lon="6.838443">
        <ele>2135.517</ele>
        <time>2018-07-12T08:49:07Z</time>
      </trkpt>
      <trkpt lat="45.945015" lon="6.838522">
        <ele>2138.196</ele>
        <time>2018-07-12T08:49:33Z</time>
      </trkpt>
      <trkpt lat="45.944973" lon="6.838488">
        <ele>2138.960</ele>
        <time>2018-07-12T08:50:03Z</time>
      </trkpt>
      <trkpt lat="45.944929" lon="6.838456">
        <ele>2139.325</ele>
        <time>2018-07-12T08:50:14Z</time>
      </trkpt>
      <trkpt lat="45.944881" lon="6.838440">
        <ele>2140.079</ele>
        <time>2018-07-12T08:50:23Z</time>
      </trkpt>
      <trkpt lat="45.944834" lon="6.838458">
        <ele>2140.815</ele>
        <time>2018-07-12T08:50:32Z</time>
      </trkpt>
      <trkpt lat="45.944788" lon="6.838447">
        <ele>2141.098</ele>
        <time>2018-07-12T08:50:40Z</time>
      </trkpt>
      <trkpt lat="45.944738" lon="6.838429">
        <ele>2141.415</ele>
        <time>2018-07-12T08:50:47Z</time>
      </trkpt>
      <trkpt lat="45.944687" lon="6.838427">
        <ele>2141.826</ele>
        <time>2018-07-12T08:50:55Z</time>
      </trkpt>
      <trkpt lat="45.944637" lon="6.838424">
        <ele>2142.708</ele>
        <time>2018-07-12T08:51:04Z</time>
      </trkpt>
      <trkpt lat="45.944591" lon="6.838420">
        <ele>2143.821</ele>
        <time>2018-07-12T08:51:20Z</time>
      </trkpt>
      <trkpt lat="45.944633" lon="6.838446">
        <ele>2146.045</ele>
        <time>2018-07-12T08:51:43Z</time>
      </trkpt>
      <trkpt lat="45.944674" lon="6.838477">
        <ele>2146.433</ele>
        <time>2018-07-12T08:51:54Z</time>
      </trkpt>
      <trkpt lat="45.944633" lon="6.838506">
        <ele>2148.622</ele>
        <time>2018-07-12T08:52:17Z</time>
      </trkpt>
      <trkpt lat="45.944582" lon="6.838517">
        <ele>2150.746</ele>
        <time>2018-07-12T08:52:28Z</time>
      </trkpt>
      <trkpt lat="45.944536" lon="6.838502">
        <ele>2150.131</ele>
        <time>2018-07-12T08:52:34Z</time>
      </trkpt>
      <trkpt lat="45.944535" lon="6.838568">
        <ele>2153.315</ele>
        <time>2018-07-12T08:53:00Z</time>
      </trkpt>
      <trkpt lat="45.944567" lon="6.838621">
        <ele>2154.071</ele>
        <time>2018-07-12T08:53:11Z</time>
      </trkpt>
      <trkpt lat="45.944595" lon="6.838673">
        <ele>2155.828</ele>
        <time>2018-07-12T08:53:24Z</time>
      </trkpt>
      <trkpt lat="45.944609" lon="6.838735">
        <ele>2156.489</ele>
        <time>2018-07-12T08:53:34Z</time>
      </trkpt>
      <trkpt lat="45.944558" lon="6.838742">
        <ele>2157.617</ele>
        <time>2018-07-12T08:53:48Z</time>
      </trkpt>
      <trkpt lat="45.944513" lon="6.838717">
        <ele>2160.108</ele>
        <time>2018-07-12T08:53:57Z</time>
      </trkpt>
      <trkpt lat="45.944466" lon="6.838708">
        <ele>2159.634</ele>
        <time>2018-07-12T08:54:08Z</time>
      </trkpt>
      <trkpt lat="45.944483" lon="6.838773">
        <ele>2162.398</ele>
        <time>2018-07-12T08:54:39Z</time>
      </trkpt>
      <trkpt lat="45.944496" lon="6.838840">
        <ele>2163.076</ele>
        <time>2018-07-12T08:54:53Z</time>
      </trkpt>
      <trkpt lat="45.944463" lon="6.838885">
        <ele>2168.715</ele>
        <time>2018-07-12T08:56:05Z</time>
      </trkpt>
      <trkpt lat="45.944415" lon="6.838884">
        <ele>2170.499</ele>
        <time>2018-07-12T08:56:20Z</time>
      </trkpt>
      <trkpt lat="45.944367" lon="6.838887">
        <ele>2173.364</ele>
        <time>2018-07-12T08:56:31Z</time>
      </trkpt>
      <trkpt lat="45.944351" lon="6.838948">
        <ele>2173.248</ele>
        <time>2018-07-12T08:56:51Z</time>
      </trkpt>
      <trkpt lat="45.944382" lon="6.839001">
        <ele>2174.144</ele>
        <time>2018-07-12T08:57:02Z</time>
      </trkpt>
      <trkpt lat="45.944406" lon="6.839058">
        <ele>2175.495</ele>
        <time>2018-07-12T08:57:12Z</time>
      </trkpt>
      <trkpt lat="45.944399" lon="6.839128">
        <ele>2176.949</ele>
        <time>2018-07-12T08:57:21Z</time>
      </trkpt>
      <trkpt lat="45.944361" lon="6.839089">
        <ele>2177.423</ele>
        <time>2018-07-12T08:57:25Z</time>
      </trkpt>
      <trkpt lat="45.944321" lon="6.839052">
        <ele>2177.108</ele>
        <time>2018-07-12T08:57:32Z</time>
      </trkpt>
      <trkpt lat="45.944278" lon="6.839027">
        <ele>2177.781</ele>
        <time>2018-07-12T08:57:42Z</time>
      </trkpt>
      <trkpt lat="45.944231" lon="6.839040">
        <ele>2179.355</ele>
        <time>2018-07-12T08:57:55Z</time>
      </trkpt>
      <trkpt lat="45.944196" lon="6.839087">
        <ele>2180.863</ele>
        <time>2018-07-12T08:58:04Z</time>
      </trkpt>
      <trkpt lat="45.944202" lon="6.839155">
        <ele>2185.362</ele>
        <time>2018-07-12T08:59:03Z</time>
      </trkpt>
      <trkpt lat="45.944234" lon="6.839207">
        <ele>2186.126</ele>
        <time>2018-07-12T08:59:14Z</time>
      </trkpt>
      <trkpt lat="45.944320" lon="6.839380">
        <ele>2189.421</ele>
        <time>2018-07-12T08:59:38Z</time>
      </trkpt>
      <trkpt lat="45.944278" lon="6.839414">
        <ele>2188.495</ele>
        <time>2018-07-12T08:59:48Z</time>
      </trkpt>
      <trkpt lat="45.944296" lon="6.839477">
        <ele>2190.171</ele>
        <time>2018-07-12T09:00:09Z</time>
      </trkpt>
      <trkpt lat="45.944330" lon="6.839531">
        <ele>2190.865</ele>
        <time>2018-07-12T09:00:34Z</time>
      </trkpt>
      <trkpt lat="45.944359" lon="6.839582">
        <ele>2192.368</ele>
        <time>2018-07-12T09:00:43Z</time>
      </trkpt>
      <trkpt lat="45.944300" lon="6.839582">
        <ele>2194.014</ele>
        <time>2018-07-12T09:01:01Z</time>
      </trkpt>
      <trkpt lat="45.944265" lon="6.839533">
        <ele>2195.008</ele>
        <time>2018-07-12T09:01:23Z</time>
      </trkpt>
      <trkpt lat="45.944224" lon="6.839501">
        <ele>2195.158</ele>
        <time>2018-07-12T09:01:28Z</time>
      </trkpt>
      <trkpt lat="45.944191" lon="6.839454">
        <ele>2197.512</ele>
        <time>2018-07-12T09:01:37Z</time>
      </trkpt>
      <trkpt lat="45.944144" lon="6.839429">
        <ele>2196.780</ele>
        <time>2018-07-12T09:01:43Z</time>
      </trkpt>
      <trkpt lat="45.944097" lon="6.839430">
        <ele>2197.019</ele>
        <time>2018-07-12T09:01:48Z</time>
      </trkpt>
      <trkpt lat="45.944053" lon="6.839446">
        <ele>2198.393</ele>
        <time>2018-07-12T09:01:59Z</time>
      </trkpt>
      <trkpt lat="45.944021" lon="6.839499">
        <ele>2199.638</ele>
        <time>2018-07-12T09:02:19Z</time>
      </trkpt>
      <trkpt lat="45.943975" lon="6.839496">
        <ele>2201.432</ele>
        <time>2018-07-12T09:02:37Z</time>
      </trkpt>
      <trkpt lat="45.943927" lon="6.839476">
        <ele>2202.248</ele>
        <time>2018-07-12T09:02:47Z</time>
      </trkpt>
      <trkpt lat="45.943879" lon="6.839464">
        <ele>2204.781</ele>
        <time>2018-07-12T09:03:58Z</time>
      </trkpt>
      <trkpt lat="45.943831" lon="6.839477">
        <ele>2205.261</ele>
        <time>2018-07-12T09:04:07Z</time>
      </trkpt>
      <trkpt lat="45.943774" lon="6.839476">
        <ele>2205.717</ele>
        <time>2018-07-12T09:04:14Z</time>
      </trkpt>
      <trkpt lat="45.943805" lon="6.839531">
        <ele>2208.108</ele>
        <time>2018-07-12T09:04:35Z</time>
      </trkpt>
      <trkpt lat="45.943852" lon="6.839557">
        <ele>2209.480</ele>
        <time>2018-07-12T09:04:48Z</time>
      </trkpt>
      <trkpt lat="45.943815" lon="6.839597">
        <ele>2211.224</ele>
        <time>2018-07-12T09:05:04Z</time>
      </trkpt>
      <trkpt lat="45.943789" lon="6.839654">
        <ele>2213.462</ele>
        <time>2018-07-12T09:05:32Z</time>
      </trkpt>
      <trkpt lat="45.943826" lon="6.839696">
        <ele>2216.871</ele>
        <time>2018-07-12T09:06:04Z</time>
      </trkpt>
      <trkpt lat="45.943783" lon="6.839674">
        <ele>2214.065</ele>
        <time>2018-07-12T09:07:16Z</time>
      </trkpt>
      <trkpt lat="45.943738" lon="6.839705">
        <ele>2215.480</ele>
        <time>2018-07-12T09:07:28Z</time>
      </trkpt>
      <trkpt lat="45.943704" lon="6.839753">
        <ele>2216.554</ele>
        <time>2018-07-12T09:07:38Z</time>
      </trkpt>
      <trkpt lat="45.943660" lon="6.839775">
        <ele>2217.890</ele>
        <time>2018-07-12T09:08:02Z</time>
      </trkpt>
      <trkpt lat="45.943613" lon="6.839762">
        <ele>2218.956</ele>
        <time>2018-07-12T09:08:23Z</time>
      </trkpt>
      <trkpt lat="45.943562" lon="6.839758">
        <ele>2219.959</ele>
        <time>2018-07-12T09:08:34Z</time>
      </trkpt>
      <trkpt lat="45.943515" lon="6.839751">
        <ele>2220.014</ele>
        <time>2018-07-12T09:08:39Z</time>
      </trkpt>
      <trkpt lat="45.943470" lon="6.839755">
        <ele>2220.808</ele>
        <time>2018-07-12T09:08:47Z</time>
      </trkpt>
      <trkpt lat="45.943426" lon="6.839740">
        <ele>2221.787</ele>
        <time>2018-07-12T09:08:56Z</time>
      </trkpt>
      <trkpt lat="45.943377" lon="6.839733">
        <ele>2222.891</ele>
        <time>2018-07-12T09:09:05Z</time>
      </trkpt>
      <trkpt lat="45.943414" lon="6.839781">
        <ele>2226.339</ele>
        <time>2018-07-12T09:09:48Z</time>
      </trkpt>
      <trkpt lat="45.943448" lon="6.839827">
        <ele>2226.878</ele>
        <time>2018-07-12T09:09:57Z</time>
      </trkpt>
      <trkpt lat="45.943488" lon="6.839873">
        <ele>2228.462</ele>
        <time>2018-07-12T09:10:13Z</time>
      </trkpt>
      <trkpt lat="45.943523" lon="6.839914">
        <ele>2229.987</ele>
        <time>2018-07-12T09:10:28Z</time>
      </trkpt>
      <trkpt lat="45.943573" lon="6.839954">
        <ele>2232.261</ele>
        <time>2018-07-12T09:10:47Z</time>
      </trkpt>
      <trkpt lat="45.943614" lon="6.839984">
        <ele>2233.027</ele>
        <time>2018-07-12T09:10:59Z</time>
      </trkpt>
      <trkpt lat="45.943572" lon="6.840016">
        <ele>2234.332</ele>
        <time>2018-07-12T09:11:10Z</time>
      </trkpt>
      <trkpt lat="45.943538" lon="6.840065">
        <ele>2236.392</ele>
        <time>2018-07-12T09:11:26Z</time>
      </trkpt>
      <trkpt lat="45.943515" lon="6.840124">
        <ele>2239.911</ele>
        <time>2018-07-12T09:12:13Z</time>
      </trkpt>
      <trkpt lat="45.943470" lon="6.840146">
        <ele>2241.508</ele>
        <time>2018-07-12T09:12:27Z</time>
      </trkpt>
      <trkpt lat="45.943427" lon="6.840182">
        <ele>2242.625</ele>
        <time>2018-07-12T09:12:37Z</time>
      </trkpt>
      <trkpt lat="45.943382" lon="6.840174">
        <ele>2243.119</ele>
        <time>2018-07-12T09:12:45Z</time>
      </trkpt>
      <trkpt lat="45.943335" lon="6.840152">
        <ele>2244.277</ele>
        <time>2018-07-12T09:12:52Z</time>
      </trkpt>
      <trkpt lat="45.943289" lon="6.840139">
        <ele>2244.216</ele>
        <time>2018-07-12T09:13:02Z</time>
      </trkpt>
      <trkpt lat="45.943244" lon="6.840141">
        <ele>2246.040</ele>
        <time>2018-07-12T09:13:16Z</time>
      </trkpt>
      <trkpt lat="45.943280" lon="6.840189">
        <ele>2249.435</ele>
        <time>2018-07-12T09:13:47Z</time>
      </trkpt>
      <trkpt lat="45.943323" lon="6.840232">
        <ele>2251.369</ele>
        <time>2018-07-12T09:14:04Z</time>
      </trkpt>
      <trkpt lat="45.943362" lon="6.840266">
        <ele>2252.145</ele>
        <time>2018-07-12T09:14:17Z</time>
      </trkpt>
      <trkpt lat="45.943323" lon="6.840310">
        <ele>2254.127</ele>
        <time>2018-07-12T09:14:33Z</time>
      </trkpt>
      <trkpt lat="45.943279" lon="6.840354">
        <ele>2257.168</ele>
        <time>2018-07-12T09:15:03Z</time>
      </trkpt>
      <trkpt lat="45.943240" lon="6.840321">
        <ele>2258.314</ele>
        <time>2018-07-12T09:15:16Z</time>
      </trkpt>
      <trkpt lat="45.943189" lon="6.840310">
        <ele>2259.908</ele>
        <time>2018-07-12T09:15:28Z</time>
      </trkpt>
      <trkpt lat="45.943142" lon="6.840306">
        <ele>2262.374</ele>
        <time>2018-07-12T09:15:55Z</time>
      </trkpt>
      <trkpt lat="45.943092" lon="6.840310">
        <ele>2263.668</ele>
        <time>2018-07-12T09:16:08Z</time>
      </trkpt>
      <trkpt lat="45.943047" lon="6.840297">
        <ele>2262.746</ele>
        <time>2018-07-12T09:16:18Z</time>
      </trkpt>
      <trkpt lat="45.942995" lon="6.840277">
        <ele>2265.415</ele>
        <time>2018-07-12T09:16:27Z</time>
      </trkpt>
      <trkpt lat="45.942949" lon="6.840229">
        <ele>2266.649</ele>
        <time>2018-07-12T09:16:32Z</time>
      </trkpt>
      <trkpt lat="45.942906" lon="6.840203">
        <ele>2265.394</ele>
        <time>2018-07-12T09:16:47Z</time>
      </trkpt>
      <trkpt lat="45.942930" lon="6.840260">
        <ele>2267.258</ele>
        <time>2018-07-12T09:17:07Z</time>
      </trkpt>
      <trkpt lat="45.942962" lon="6.840311">
        <ele>2268.314</ele>
        <time>2018-07-12T09:17:18Z</time>
      </trkpt>
      <trkpt lat="45.942994" lon="6.840365">
        <ele>2269.586</ele>
        <time>2018-07-12T09:17:31Z</time>
      </trkpt>
      <trkpt lat="45.943024" lon="6.840415">
        <ele>2269.860</ele>
        <time>2018-07-12T09:17:43Z</time>
      </trkpt>
      <trkpt lat="45.943052" lon="6.840466">
        <ele>2271.126</ele>
        <time>2018-07-12T09:17:56Z</time>
      </trkpt>
      <trkpt lat="45.943091" lon="6.840507">
        <ele>2271.708</ele>
        <time>2018-07-12T09:18:14Z</time>
      </trkpt>
      <trkpt lat="45.943122" lon="6.840554">
        <ele>2274.570</ele>
        <time>2018-07-12T09:18:31Z</time>
      </trkpt>
      <trkpt lat="45.943167" lon="6.840570">
        <ele>2273.574</ele>
        <time>2018-07-12T09:18:44Z</time>
      </trkpt>
      <trkpt lat="45.943204" lon="6.840608">
        <ele>2277.482</ele>
        <time>2018-07-12T09:19:10Z</time>
      </trkpt>
      <trkpt lat="45.943251" lon="6.840604">
        <ele>2277.561</ele>
        <time>2018-07-12T09:19:17Z</time>
      </trkpt>
      <trkpt lat="45.943299" lon="6.840610">
        <ele>2277.825</ele>
        <time>2018-07-12T09:19:26Z</time>
      </trkpt>
      <trkpt lat="45.943345" lon="6.840588">
        <ele>2278.890</ele>
        <time>2018-07-12T09:19:35Z</time>
      </trkpt>
      <trkpt lat="45.943392" lon="6.840594">
        <ele>2278.364</ele>
        <time>2018-07-12T09:19:50Z</time>
      </trkpt>
      <trkpt lat="45.943440" lon="6.840587">
        <ele>2279.710</ele>
        <time>2018-07-12T09:20:00Z</time>
      </trkpt>
      <trkpt lat="45.943486" lon="6.840592">
        <ele>2281.944</ele>
        <time>2018-07-12T09:20:31Z</time>
      </trkpt>
      <trkpt lat="45.943514" lon="6.840651">
        <ele>2283.905</ele>
        <time>2018-07-12T09:21:09Z</time>
      </trkpt>
      <trkpt lat="45.943488" lon="6.840710">
        <ele>2285.915</ele>
        <time>2018-07-12T09:21:39Z</time>
      </trkpt>
      <trkpt lat="45.943456" lon="6.840759">
        <ele>2286.308</ele>
        <time>2018-07-12T09:21:48Z</time>
      </trkpt>
      <trkpt lat="45.943416" lon="6.840797">
        <ele>2287.686</ele>
        <time>2018-07-12T09:22:25Z</time>
      </trkpt>
      <trkpt lat="45.943368" lon="6.840827">
        <ele>2289.070</ele>
        <time>2018-07-12T09:22:36Z</time>
      </trkpt>
      <trkpt lat="45.943331" lon="6.840865">
        <ele>2289.828</ele>
        <time>2018-07-12T09:22:47Z</time>
      </trkpt>
      <trkpt lat="45.943305" lon="6.840918">
        <ele>2291.747</ele>
        <time>2018-07-12T09:23:34Z</time>
      </trkpt>
      <trkpt lat="45.943270" lon="6.840968">
        <ele>2292.921</ele>
        <time>2018-07-12T09:23:45Z</time>
      </trkpt>
      <trkpt lat="45.943228" lon="6.840991">
        <ele>2294.846</ele>
        <time>2018-07-12T09:23:56Z</time>
      </trkpt>
      <trkpt lat="45.943195" lon="6.841037">
        <ele>2295.750</ele>
        <time>2018-07-12T09:24:05Z</time>
      </trkpt>
      <trkpt lat="45.943149" lon="6.841052">
        <ele>2296.516</ele>
        <time>2018-07-12T09:24:16Z</time>
      </trkpt>
      <trkpt lat="45.943103" lon="6.841065">
        <ele>2297.843</ele>
        <time>2018-07-12T09:24:28Z</time>
      </trkpt>
      <trkpt lat="45.943087" lon="6.841130">
        <ele>2298.964</ele>
        <time>2018-07-12T09:24:38Z</time>
      </trkpt>
      <trkpt lat="45.943051" lon="6.841087">
        <ele>2302.610</ele>
        <time>2018-07-12T09:24:51Z</time>
      </trkpt>
      <trkpt lat="45.943013" lon="6.841132">
        <ele>2302.908</ele>
        <time>2018-07-12T09:25:01Z</time>
      </trkpt>
      <trkpt lat="45.942974" lon="6.841175">
        <ele>2302.996</ele>
        <time>2018-07-12T09:25:20Z</time>
      </trkpt>
      <trkpt lat="45.942929" lon="6.841200">
        <ele>2304.170</ele>
        <time>2018-07-12T09:25:40Z</time>
      </trkpt>
      <trkpt lat="45.942893" lon="6.841261">
        <ele>2305.418</ele>
        <time>2018-07-12T09:25:50Z</time>
      </trkpt>
      <trkpt lat="45.942859" lon="6.841311">
        <ele>2306.567</ele>
        <time>2018-07-12T09:25:58Z</time>
      </trkpt>
      <trkpt lat="45.942812" lon="6.841311">
        <ele>2306.531</ele>
        <time>2018-07-12T09:26:07Z</time>
      </trkpt>
      <trkpt lat="45.942766" lon="6.841338">
        <ele>2307.846</ele>
        <time>2018-07-12T09:26:19Z</time>
      </trkpt>
      <trkpt lat="45.942725" lon="6.841368">
        <ele>2308.860</ele>
        <time>2018-07-12T09:26:30Z</time>
      </trkpt>
      <trkpt lat="45.942675" lon="6.841373">
        <ele>2309.566</ele>
        <time>2018-07-12T09:26:39Z</time>
      </trkpt>
      <trkpt lat="45.942627" lon="6.841381">
        <ele>2311.439</ele>
        <time>2018-07-12T09:28:05Z</time>
      </trkpt>
      <trkpt lat="45.942578" lon="6.841386">
        <ele>2311.501</ele>
        <time>2018-07-12T09:28:15Z</time>
      </trkpt>
      <trkpt lat="45.942539" lon="6.841427">
        <ele>2311.921</ele>
        <time>2018-07-12T09:28:28Z</time>
      </trkpt>
      <trkpt lat="45.942498" lon="6.841453">
        <ele>2312.708</ele>
        <time>2018-07-12T09:28:35Z</time>
      </trkpt>
      <trkpt lat="45.942459" lon="6.841486">
        <ele>2312.765</ele>
        <time>2018-07-12T09:28:41Z</time>
      </trkpt>
      <trkpt lat="45.942419" lon="6.841524">
        <ele>2312.829</ele>
        <time>2018-07-12T09:28:48Z</time>
      </trkpt>
      <trkpt lat="45.942372" lon="6.841527">
        <ele>2312.777</ele>
        <time>2018-07-12T09:29:06Z</time>
      </trkpt>
      <trkpt lat="45.942338" lon="6.841570">
        <ele>2312.766</ele>
        <time>2018-07-12T09:29:12Z</time>
      </trkpt>
      <trkpt lat="45.942301" lon="6.841619">
        <ele>2312.520</ele>
        <time>2018-07-12T09:29:18Z</time>
      </trkpt>
      <trkpt lat="45.942265" lon="6.841659">
        <ele>2312.195</ele>
        <time>2018-07-12T09:29:24Z</time>
      </trkpt>
      <trkpt lat="45.942226" lon="6.841691">
        <ele>2311.939</ele>
        <time>2018-07-12T09:29:30Z</time>
      </trkpt>
      <trkpt lat="45.942187" lon="6.841732">
        <ele>2311.985</ele>
        <time>2018-07-12T09:29:36Z</time>
      </trkpt>
      <trkpt lat="45.942163" lon="6.841787">
        <ele>2312.078</ele>
        <time>2018-07-12T09:29:43Z</time>
      </trkpt>
      <trkpt lat="45.942142" lon="6.841852">
        <ele>2313.033</ele>
        <time>2018-07-12T09:29:54Z</time>
      </trkpt>
      <trkpt lat="45.942104" lon="6.841908">
        <ele>2320.926</ele>
        <time>2018-07-12T09:32:18Z</time>
      </trkpt>
      <trkpt lat="45.942074" lon="6.841958">
        <ele>2320.908</ele>
        <time>2018-07-12T09:32:30Z</time>
      </trkpt>
      <trkpt lat="45.942034" lon="6.842007">
        <ele>2321.039</ele>
        <time>2018-07-12T09:32:37Z</time>
      </trkpt>
      <trkpt lat="45.941998" lon="6.842058">
        <ele>2320.833</ele>
        <time>2018-07-12T09:32:44Z</time>
      </trkpt>
      <trkpt lat="45.941953" lon="6.842064">
        <ele>2320.551</ele>
        <time>2018-07-12T09:33:10Z</time>
      </trkpt>
      <trkpt lat="45.941907" lon="6.842063">
        <ele>2320.690</ele>
        <time>2018-07-12T09:33:52Z</time>
      </trkpt>
      <trkpt lat="45.941862" lon="6.842048">
        <ele>2321.744</ele>
        <time>2018-07-12T09:34:03Z</time>
      </trkpt>
      <trkpt lat="45.941818" lon="6.842027">
        <ele>2322.829</ele>
        <time>2018-07-12T09:34:12Z</time>
      </trkpt>
      <trkpt lat="45.941784" lon="6.841979">
        <ele>2324.493</ele>
        <time>2018-07-12T09:34:24Z</time>
      </trkpt>
      <trkpt lat="45.941756" lon="6.841927">
        <ele>2325.979</ele>
        <time>2018-07-12T09:34:40Z</time>
      </trkpt>
      <trkpt lat="45.941731" lon="6.841867">
        <ele>2327.814</ele>
        <time>2018-07-12T09:35:01Z</time>
      </trkpt>
      <trkpt lat="45.941703" lon="6.841807">
        <ele>2329.454</ele>
        <time>2018-07-12T09:36:12Z</time>
      </trkpt>
      <trkpt lat="45.941732" lon="6.841857">
        <ele>2326.009</ele>
        <time>2018-07-12T09:36:50Z</time>
      </trkpt>
      <trkpt lat="45.941755" lon="6.841914">
        <ele>2324.008</ele>
        <time>2018-07-12T09:37:27Z</time>
      </trkpt>
      <trkpt lat="45.941778" lon="6.841975">
        <ele>2323.213</ele>
        <time>2018-07-12T09:37:54Z</time>
      </trkpt>
      <trkpt lat="45.941817" lon="6.842008">
        <ele>2321.737</ele>
        <time>2018-07-12T09:38:07Z</time>
      </trkpt>
      <trkpt lat="45.941857" lon="6.842043">
        <ele>2319.925</ele>
        <time>2018-07-12T09:38:21Z</time>
      </trkpt>
      <trkpt lat="45.941895" lon="6.842079">
        <ele>2319.294</ele>
        <time>2018-07-12T09:38:31Z</time>
      </trkpt>
      <trkpt lat="45.941899" lon="6.842148">
        <ele>2319.138</ele>
        <time>2018-07-12T09:38:39Z</time>
      </trkpt>
      <trkpt lat="45.941889" lon="6.842214">
        <ele>2320.353</ele>
        <time>2018-07-12T09:38:52Z</time>
      </trkpt>
      <trkpt lat="45.941882" lon="6.842283">
        <ele>2321.587</ele>
        <time>2018-07-12T09:39:07Z</time>
      </trkpt>
      <trkpt lat="45.941867" lon="6.842347">
        <ele>2322.993</ele>
        <time>2018-07-12T09:39:20Z</time>
      </trkpt>
      <trkpt lat="45.941843" lon="6.842405">
        <ele>2324.197</ele>
        <time>2018-07-12T09:39:36Z</time>
      </trkpt>
      <trkpt lat="45.941818" lon="6.842460">
        <ele>2325.423</ele>
        <time>2018-07-12T09:39:54Z</time>
      </trkpt>
      <trkpt lat="45.941805" lon="6.842524">
        <ele>2327.425</ele>
        <time>2018-07-12T09:40:12Z</time>
      </trkpt>
      <trkpt lat="45.941797" lon="6.842588">
        <ele>2329.008</ele>
        <time>2018-07-12T09:40:31Z</time>
      </trkpt>
      <trkpt lat="45.941784" lon="6.842655">
        <ele>2331.421</ele>
        <time>2018-07-12T09:40:50Z</time>
      </trkpt>
      <trkpt lat="45.941769" lon="6.842718">
        <ele>2333.945</ele>
        <time>2018-07-12T09:41:17Z</time>
      </trkpt>
      <trkpt lat="45.941751" lon="6.842779">
        <ele>2336.443</ele>
        <time>2018-07-12T09:42:09Z</time>
      </trkpt>
      <trkpt lat="45.941735" lon="6.842843">
        <ele>2338.542</ele>
        <time>2018-07-12T09:42:25Z</time>
      </trkpt>
      <trkpt lat="45.941730" lon="6.842911">
        <ele>2340.436</ele>
        <time>2018-07-12T09:42:41Z</time>
      </trkpt>
      <trkpt lat="45.941736" lon="6.842982">
        <ele>2342.891</ele>
        <time>2018-07-12T09:43:03Z</time>
      </trkpt>
      <trkpt lat="45.941767" lon="6.843033">
        <ele>2346.385</ele>
        <time>2018-07-12T09:43:51Z</time>
      </trkpt>
      <trkpt lat="45.941760" lon="6.843104">
        <ele>2347.731</ele>
        <time>2018-07-12T09:44:08Z</time>
      </trkpt>
      <trkpt lat="45.941732" lon="6.843157">
        <ele>2348.987</ele>
        <time>2018-07-12T09:44:19Z</time>
      </trkpt>
      <trkpt lat="45.941699" lon="6.843204">
        <ele>2350.342</ele>
        <time>2018-07-12T09:44:29Z</time>
      </trkpt>
      <trkpt lat="45.941666" lon="6.843253">
        <ele>2350.926</ele>
        <time>2018-07-12T09:44:42Z</time>
      </trkpt>
      <trkpt lat="45.941636" lon="6.843305">
        <ele>2352.108</ele>
        <time>2018-07-12T09:44:55Z</time>
      </trkpt>
      <trkpt lat="45.941597" lon="6.843340">
        <ele>2352.890</ele>
        <time>2018-07-12T09:45:08Z</time>
      </trkpt>
      <trkpt lat="45.941557" lon="6.843372">
        <ele>2353.874</ele>
        <time>2018-07-12T09:45:19Z</time>
      </trkpt>
      <trkpt lat="45.941528" lon="6.843422">
        <ele>2355.042</ele>
        <time>2018-07-12T09:45:36Z</time>
      </trkpt>
      <trkpt lat="45.941504" lon="6.843481">
        <ele>2357.531</ele>
        <time>2018-07-12T09:47:07Z</time>
      </trkpt>
      <trkpt lat="45.941460" lon="6.843515">
        <ele>2358.055</ele>
        <time>2018-07-12T09:47:16Z</time>
      </trkpt>
      <trkpt lat="45.941415" lon="6.843529">
        <ele>2359.440</ele>
        <time>2018-07-12T09:47:27Z</time>
      </trkpt>
      <trkpt lat="45.941371" lon="6.843544">
        <ele>2357.794</ele>
        <time>2018-07-12T09:48:43Z</time>
      </trkpt>
      <trkpt lat="45.941371" lon="6.843518">
        <ele>2356.840</ele>
        <time>2018-07-12T10:03:54Z</time>
      </trkpt>
      <trkpt lat="45.941413" lon="6.843481">
        <ele>2356.846</ele>
        <time>2018-07-12T10:04:04Z</time>
      </trkpt>
      <trkpt lat="45.941390" lon="6.843425">
        <ele>2357.488</ele>
        <time>2018-07-12T10:04:13Z</time>
      </trkpt>
      <trkpt lat="45.941370" lon="6.843363">
        <ele>2357.916</ele>
        <time>2018-07-12T10:04:28Z</time>
      </trkpt>
      <trkpt lat="45.941344" lon="6.843306">
        <ele>2358.108</ele>
        <time>2018-07-12T10:04:50Z</time>
      </trkpt>
      <trkpt lat="45.941328" lon="6.843243">
        <ele>2360.116</ele>
        <time>2018-07-12T10:05:04Z</time>
      </trkpt>
      <trkpt lat="45.941318" lon="6.843179">
        <ele>2362.140</ele>
        <time>2018-07-12T10:05:23Z</time>
      </trkpt>
      <trkpt lat="45.941305" lon="6.843117">
        <ele>2362.818</ele>
        <time>2018-07-12T10:05:39Z</time>
      </trkpt>
      <trkpt lat="45.941301" lon="6.843050">
        <ele>2366.127</ele>
        <time>2018-07-12T10:06:01Z</time>
      </trkpt>
      <trkpt lat="45.941298" lon="6.842983">
        <ele>2367.511</ele>
        <time>2018-07-12T10:06:15Z</time>
      </trkpt>
      <trkpt lat="45.941309" lon="6.842895">
        <ele>2377.246</ele>
        <time>2018-07-12T10:07:28Z</time>
      </trkpt>
      <trkpt lat="45.941296" lon="6.842831">
        <ele>2377.260</ele>
        <time>2018-07-12T10:07:42Z</time>
      </trkpt>
      <trkpt lat="45.941293" lon="6.842763">
        <ele>2377.486</ele>
        <time>2018-07-12T10:07:49Z</time>
      </trkpt>
      <trkpt lat="45.941271" lon="6.842697">
        <ele>2377.622</ele>
        <time>2018-07-12T10:07:57Z</time>
      </trkpt>
      <trkpt lat="45.941257" lon="6.842627">
        <ele>2377.562</ele>
        <time>2018-07-12T10:08:05Z</time>
      </trkpt>
      <trkpt lat="45.941245" lon="6.842556">
        <ele>2377.308</ele>
        <time>2018-07-12T10:08:13Z</time>
      </trkpt>
      <trkpt lat="45.941234" lon="6.842493">
        <ele>2376.708</ele>
        <time>2018-07-12T10:08:44Z</time>
      </trkpt>
      <trkpt lat="45.941190" lon="6.842470">
        <ele>2378.674</ele>
        <time>2018-07-12T10:08:58Z</time>
      </trkpt>
      <trkpt lat="45.941147" lon="6.842437">
        <ele>2379.878</ele>
        <time>2018-07-12T10:09:10Z</time>
      </trkpt>
      <trkpt lat="45.941110" lon="6.842399">
        <ele>2381.136</ele>
        <time>2018-07-12T10:09:33Z</time>
      </trkpt>
      <trkpt lat="45.941087" lon="6.842339">
        <ele>2380.375</ele>
        <time>2018-07-12T10:10:17Z</time>
      </trkpt>
      <trkpt lat="45.941070" lon="6.842276">
        <ele>2379.849</ele>
        <time>2018-07-12T10:10:25Z</time>
      </trkpt>
      <trkpt lat="45.941054" lon="6.842215">
        <ele>2379.374</ele>
        <time>2018-07-12T10:10:32Z</time>
      </trkpt>
      <trkpt lat="45.941036" lon="6.842153">
        <ele>2378.998</ele>
        <time>2018-07-12T10:10:40Z</time>
      </trkpt>
      <trkpt lat="45.941023" lon="6.842084">
        <ele>2379.784</ele>
        <time>2018-07-12T10:10:48Z</time>
      </trkpt>
      <trkpt lat="45.941012" lon="6.842015">
        <ele>2379.542</ele>
        <time>2018-07-12T10:10:57Z</time>
      </trkpt>
      <trkpt lat="45.940996" lon="6.841949">
        <ele>2379.122</ele>
        <time>2018-07-12T10:11:06Z</time>
      </trkpt>
      <trkpt lat="45.940985" lon="6.841885">
        <ele>2379.314</ele>
        <time>2018-07-12T10:11:14Z</time>
      </trkpt>
      <trkpt lat="45.940970" lon="6.841818">
        <ele>2379.408</ele>
        <time>2018-07-12T10:11:21Z</time>
      </trkpt>
      <trkpt lat="45.940945" lon="6.841759">
        <ele>2379.286</ele>
        <time>2018-07-12T10:11:28Z</time>
      </trkpt>
      <trkpt lat="45.940929" lon="6.841693">
        <ele>2379.050</ele>
        <time>2018-07-12T10:11:39Z</time>
      </trkpt>
      <trkpt lat="45.940911" lon="6.841630">
        <ele>2379.088</ele>
        <time>2018-07-12T10:11:53Z</time>
      </trkpt>
      <trkpt lat="45.940894" lon="6.841565">
        <ele>2379.887</ele>
        <time>2018-07-12T10:12:00Z</time>
      </trkpt>
      <trkpt lat="45.940878" lon="6.841504">
        <ele>2377.761</ele>
        <time>2018-07-12T10:12:06Z</time>
      </trkpt>
      <trkpt lat="45.940860" lon="6.841444">
        <ele>2377.756</ele>
        <time>2018-07-12T10:12:12Z</time>
      </trkpt>
      <trkpt lat="45.940848" lon="6.841376">
        <ele>2376.830</ele>
        <time>2018-07-12T10:12:19Z</time>
      </trkpt>
      <trkpt lat="45.940823" lon="6.841321">
        <ele>2379.196</ele>
        <time>2018-07-12T10:12:49Z</time>
      </trkpt>
      <trkpt lat="45.940808" lon="6.841255">
        <ele>2375.768</ele>
        <time>2018-07-12T10:12:59Z</time>
      </trkpt>
      <trkpt lat="45.940808" lon="6.841178">
        <ele>2374.342</ele>
        <time>2018-07-12T10:13:05Z</time>
      </trkpt>
      <trkpt lat="45.940814" lon="6.841112">
        <ele>2375.926</ele>
        <time>2018-07-12T10:13:09Z</time>
      </trkpt>
      <trkpt lat="45.940806" lon="6.841046">
        <ele>2373.508</ele>
        <time>2018-07-12T10:13:14Z</time>
      </trkpt>
      <trkpt lat="45.940766" lon="6.841003">
        <ele>2372.928</ele>
        <time>2018-07-12T10:13:22Z</time>
      </trkpt>
      <trkpt lat="45.940730" lon="6.840965">
        <ele>2372.232</ele>
        <time>2018-07-12T10:13:28Z</time>
      </trkpt>
      <trkpt lat="45.940697" lon="6.840914">
        <ele>2371.880</ele>
        <time>2018-07-12T10:13:35Z</time>
      </trkpt>
      <trkpt lat="45.940669" lon="6.840861">
        <ele>2371.979</ele>
        <time>2018-07-12T10:13:40Z</time>
      </trkpt>
      <trkpt lat="45.940657" lon="6.840787">
        <ele>2371.673</ele>
        <time>2018-07-12T10:13:45Z</time>
      </trkpt>
      <trkpt lat="45.940639" lon="6.840724">
        <ele>2370.658</ele>
        <time>2018-07-12T10:13:53Z</time>
      </trkpt>
      <trkpt lat="45.940617" lon="6.840663">
        <ele>2369.172</ele>
        <time>2018-07-12T10:14:03Z</time>
      </trkpt>
      <trkpt lat="45.940592" lon="6.840606">
        <ele>2367.848</ele>
        <time>2018-07-12T10:14:18Z</time>
      </trkpt>
      <trkpt lat="45.940563" lon="6.840552">
        <ele>2368.291</ele>
        <time>2018-07-12T10:14:31Z</time>
      </trkpt>
      <trkpt lat="45.940548" lon="6.840488">
        <ele>2368.081</ele>
        <time>2018-07-12T10:14:41Z</time>
      </trkpt>
      <trkpt lat="45.940525" lon="6.840432">
        <ele>2367.019</ele>
        <time>2018-07-12T10:14:49Z</time>
      </trkpt>
      <trkpt lat="45.940519" lon="6.840360">
        <ele>2366.208</ele>
        <time>2018-07-12T10:14:56Z</time>
      </trkpt>
      <trkpt lat="45.940478" lon="6.840401">
        <ele>2362.881</ele>
        <time>2018-07-12T10:15:15Z</time>
      </trkpt>
      <trkpt lat="45.940441" lon="6.840363">
        <ele>2361.385</ele>
        <time>2018-07-12T10:15:28Z</time>
      </trkpt>
      <trkpt lat="45.940404" lon="6.840319">
        <ele>2358.623</ele>
        <time>2018-07-12T10:15:46Z</time>
      </trkpt>
      <trkpt lat="45.940361" lon="6.840288">
        <ele>2356.162</ele>
        <time>2018-07-12T10:15:59Z</time>
      </trkpt>
      <trkpt lat="45.940348" lon="6.840222">
        <ele>2355.276</ele>
        <time>2018-07-12T10:16:08Z</time>
      </trkpt>
      <trkpt lat="45.940336" lon="6.840149">
        <ele>2354.541</ele>
        <time>2018-07-12T10:16:17Z</time>
      </trkpt>
      <trkpt lat="45.940317" lon="6.840087">
        <ele>2353.235</ele>
        <time>2018-07-12T10:16:22Z</time>
      </trkpt>
      <trkpt lat="45.940305" lon="6.840016">
        <ele>2352.811</ele>
        <time>2018-07-12T10:16:27Z</time>
      </trkpt>
      <trkpt lat="45.940281" lon="6.839950">
        <ele>2353.978</ele>
        <time>2018-07-12T10:16:35Z</time>
      </trkpt>
      <trkpt lat="45.940247" lon="6.839902">
        <ele>2350.333</ele>
        <time>2018-07-12T10:16:42Z</time>
      </trkpt>
      <trkpt lat="45.940218" lon="6.839846">
        <ele>2349.026</ele>
        <time>2018-07-12T10:16:50Z</time>
      </trkpt>
      <trkpt lat="45.940203" lon="6.839778">
        <ele>2347.808</ele>
        <time>2018-07-12T10:16:56Z</time>
      </trkpt>
      <trkpt lat="45.940189" lon="6.839715">
        <ele>2346.689</ele>
        <time>2018-07-12T10:17:03Z</time>
      </trkpt>
      <trkpt lat="45.940164" lon="6.839656">
        <ele>2348.343</ele>
        <time>2018-07-12T10:17:27Z</time>
      </trkpt>
      <trkpt lat="45.940143" lon="6.839589">
        <ele>2347.111</ele>
        <time>2018-07-12T10:17:34Z</time>
      </trkpt>
      <trkpt lat="45.940106" lon="6.839633">
        <ele>2343.840</ele>
        <time>2018-07-12T10:18:16Z</time>
      </trkpt>
      <trkpt lat="45.940145" lon="6.839599">
        <ele>2343.294</ele>
        <time>2018-07-12T10:18:57Z</time>
      </trkpt>
      <trkpt lat="45.940113" lon="6.839544">
        <ele>2343.219</ele>
        <time>2018-07-12T10:19:05Z</time>
      </trkpt>
      <trkpt lat="45.940076" lon="6.839503">
        <ele>2344.043</ele>
        <time>2018-07-12T10:19:11Z</time>
      </trkpt>
      <trkpt lat="45.940033" lon="6.839480">
        <ele>2343.859</ele>
        <time>2018-07-12T10:19:17Z</time>
      </trkpt>
      <trkpt lat="45.939991" lon="6.839447">
        <ele>2343.087</ele>
        <time>2018-07-12T10:19:25Z</time>
      </trkpt>
      <trkpt lat="45.939941" lon="6.839462">
        <ele>2341.042</ele>
        <time>2018-07-12T10:19:36Z</time>
      </trkpt>
      <trkpt lat="45.939902" lon="6.839417">
        <ele>2341.226</ele>
        <time>2018-07-12T10:19:42Z</time>
      </trkpt>
      <trkpt lat="45.939900" lon="6.839351">
        <ele>2341.608</ele>
        <time>2018-07-12T10:19:50Z</time>
      </trkpt>
      <trkpt lat="45.939870" lon="6.839293">
        <ele>2341.180</ele>
        <time>2018-07-12T10:20:04Z</time>
      </trkpt>
      <trkpt lat="45.939855" lon="6.839228">
        <ele>2341.774</ele>
        <time>2018-07-12T10:20:10Z</time>
      </trkpt>
      <trkpt lat="45.939864" lon="6.839156">
        <ele>2342.542</ele>
        <time>2018-07-12T10:20:16Z</time>
      </trkpt>
      <trkpt lat="45.939880" lon="6.839091">
        <ele>2343.321</ele>
        <time>2018-07-12T10:20:22Z</time>
      </trkpt>
      <trkpt lat="45.939900" lon="6.839028">
        <ele>2343.325</ele>
        <time>2018-07-12T10:20:28Z</time>
      </trkpt>
      <trkpt lat="45.939924" lon="6.838972">
        <ele>2343.990</ele>
        <time>2018-07-12T10:20:34Z</time>
      </trkpt>
      <trkpt lat="45.939939" lon="6.838903">
        <ele>2344.784</ele>
        <time>2018-07-12T10:20:43Z</time>
      </trkpt>
      <trkpt lat="45.939929" lon="6.838832">
        <ele>2344.620</ele>
        <time>2018-07-12T10:20:57Z</time>
      </trkpt>
      <trkpt lat="45.939914" lon="6.838770">
        <ele>2343.251</ele>
        <time>2018-07-12T10:21:14Z</time>
      </trkpt>
      <trkpt lat="45.939881" lon="6.838721">
        <ele>2342.001</ele>
        <time>2018-07-12T10:21:27Z</time>
      </trkpt>
      <trkpt lat="45.939866" lon="6.838659">
        <ele>2344.211</ele>
        <time>2018-07-12T10:21:36Z</time>
      </trkpt>
      <trkpt lat="45.939839" lon="6.838603">
        <ele>2343.008</ele>
        <time>2018-07-12T10:21:43Z</time>
      </trkpt>
      <trkpt lat="45.939804" lon="6.838561">
        <ele>2343.637</ele>
        <time>2018-07-12T10:21:51Z</time>
      </trkpt>
      <trkpt lat="45.939764" lon="6.838523">
        <ele>2343.941</ele>
        <time>2018-07-12T10:22:01Z</time>
      </trkpt>
      <trkpt lat="45.939740" lon="6.838449">
        <ele>2344.199</ele>
        <time>2018-07-12T10:22:33Z</time>
      </trkpt>
      <trkpt lat="45.939699" lon="6.838413">
        <ele>2342.548</ele>
        <time>2018-07-12T10:22:59Z</time>
      </trkpt>
      <trkpt lat="45.939654" lon="6.838403">
        <ele>2342.612</ele>
        <time>2018-07-12T10:23:06Z</time>
      </trkpt>
      <trkpt lat="45.939617" lon="6.838363">
        <ele>2344.197</ele>
        <time>2018-07-12T10:23:24Z</time>
      </trkpt>
      <trkpt lat="45.939572" lon="6.838361">
        <ele>2344.721</ele>
        <time>2018-07-12T10:23:33Z</time>
      </trkpt>
      <trkpt lat="45.939520" lon="6.838344">
        <ele>2345.297</ele>
        <time>2018-07-12T10:23:41Z</time>
      </trkpt>
      <trkpt lat="45.939468" lon="6.838329">
        <ele>2345.614</ele>
        <time>2018-07-12T10:23:47Z</time>
      </trkpt>
      <trkpt lat="45.939420" lon="6.838327">
        <ele>2346.154</ele>
        <time>2018-07-12T10:23:55Z</time>
      </trkpt>
      <trkpt lat="45.939381" lon="6.838283">
        <ele>2345.809</ele>
        <time>2018-07-12T10:24:01Z</time>
      </trkpt>
      <trkpt lat="45.939359" lon="6.838226">
        <ele>2345.608</ele>
        <time>2018-07-12T10:24:10Z</time>
      </trkpt>
      <trkpt lat="45.939361" lon="6.838158">
        <ele>2344.773</ele>
        <time>2018-07-12T10:24:17Z</time>
      </trkpt>
      <trkpt lat="45.939322" lon="6.838124">
        <ele>2345.637</ele>
        <time>2018-07-12T10:24:27Z</time>
      </trkpt>
      <trkpt lat="45.939286" lon="6.838167">
        <ele>2349.175</ele>
        <time>2018-07-12T10:24:53Z</time>
      </trkpt>
      <trkpt lat="45.939251" lon="6.838122">
        <ele>2349.174</ele>
        <time>2018-07-12T10:25:01Z</time>
      </trkpt>
      <trkpt lat="45.939213" lon="6.838078">
        <ele>2349.528</ele>
        <time>2018-07-12T10:25:09Z</time>
      </trkpt>
      <trkpt lat="45.939178" lon="6.838024">
        <ele>2349.983</ele>
        <time>2018-07-12T10:25:17Z</time>
      </trkpt>
      <trkpt lat="45.939137" lon="6.837978">
        <ele>2350.647</ele>
        <time>2018-07-12T10:25:26Z</time>
      </trkpt>
      <trkpt lat="45.939106" lon="6.837926">
        <ele>2350.273</ele>
        <time>2018-07-12T10:25:35Z</time>
      </trkpt>
      <trkpt lat="45.939072" lon="6.837877">
        <ele>2351.189</ele>
        <time>2018-07-12T10:25:47Z</time>
      </trkpt>
      <trkpt lat="45.939029" lon="6.837855">
        <ele>2352.106</ele>
        <time>2018-07-12T10:26:12Z</time>
      </trkpt>
      <trkpt lat="45.938993" lon="6.837812">
        <ele>2353.726</ele>
        <time>2018-07-12T10:26:23Z</time>
      </trkpt>
      <trkpt lat="45.938957" lon="6.837769">
        <ele>2355.008</ele>
        <time>2018-07-12T10:26:39Z</time>
      </trkpt>
      <trkpt lat="45.938913" lon="6.837746">
        <ele>2357.610</ele>
        <time>2018-07-12T10:27:03Z</time>
      </trkpt>
      <trkpt lat="45.938869" lon="6.837716">
        <ele>2361.064</ele>
        <time>2018-07-12T10:27:30Z</time>
      </trkpt>
      <trkpt lat="45.938828" lon="6.837685">
        <ele>2360.432</ele>
        <time>2018-07-12T10:27:40Z</time>
      </trkpt>
      <trkpt lat="45.938793" lon="6.837634">
        <ele>2361.051</ele>
        <time>2018-07-12T10:27:50Z</time>
      </trkpt>
      <trkpt lat="45.938754" lon="6.837593">
        <ele>2361.865</ele>
        <time>2018-07-12T10:28:02Z</time>
      </trkpt>
      <trkpt lat="45.938716" lon="6.837557">
        <ele>2363.070</ele>
        <time>2018-07-12T10:28:14Z</time>
      </trkpt>
      <trkpt lat="45.938683" lon="6.837502">
        <ele>2363.714</ele>
        <time>2018-07-12T10:28:39Z</time>
      </trkpt>
      <trkpt lat="45.938635" lon="6.837498">
        <ele>2366.410</ele>
        <time>2018-07-12T10:29:06Z</time>
      </trkpt>
      <trkpt lat="45.938589" lon="6.837518">
        <ele>2368.552</ele>
        <time>2018-07-12T10:29:19Z</time>
      </trkpt>
      <trkpt lat="45.938544" lon="6.837509">
        <ele>2369.353</ele>
        <time>2018-07-12T10:29:29Z</time>
      </trkpt>
      <trkpt lat="45.938496" lon="6.837523">
        <ele>2370.308</ele>
        <time>2018-07-12T10:29:48Z</time>
      </trkpt>
      <trkpt lat="45.938449" lon="6.837518">
        <ele>2371.808</ele>
        <time>2018-07-12T10:30:01Z</time>
      </trkpt>
      <trkpt lat="45.938404" lon="6.837508">
        <ele>2372.437</ele>
        <time>2018-07-12T10:30:12Z</time>
      </trkpt>
      <trkpt lat="45.938356" lon="6.837499">
        <ele>2373.271</ele>
        <time>2018-07-12T10:30:22Z</time>
      </trkpt>
      <trkpt lat="45.938312" lon="6.837486">
        <ele>2372.989</ele>
        <time>2018-07-12T10:30:32Z</time>
      </trkpt>
      <trkpt lat="45.938283" lon="6.837436">
        <ele>2372.098</ele>
        <time>2018-07-12T10:30:43Z</time>
      </trkpt>
      <trkpt lat="45.938261" lon="6.837379">
        <ele>2370.212</ele>
        <time>2018-07-12T10:31:03Z</time>
      </trkpt>
      <trkpt lat="45.938230" lon="6.837330">
        <ele>2368.477</ele>
        <time>2018-07-12T10:31:18Z</time>
      </trkpt>
      <trkpt lat="45.938180" lon="6.837334">
        <ele>2369.371</ele>
        <time>2018-07-12T10:31:32Z</time>
      </trkpt>
      <trkpt lat="45.938129" lon="6.837338">
        <ele>2369.357</ele>
        <time>2018-07-12T10:31:41Z</time>
      </trkpt>
      <trkpt lat="45.938084" lon="6.837331">
        <ele>2370.875</ele>
        <time>2018-07-12T10:31:59Z</time>
      </trkpt>
      <trkpt lat="45.938038" lon="6.837316">
        <ele>2371.728</ele>
        <time>2018-07-12T10:32:07Z</time>
      </trkpt>
      <trkpt lat="45.937988" lon="6.837317">
        <ele>2372.420</ele>
        <time>2018-07-12T10:32:16Z</time>
      </trkpt>
      <trkpt lat="45.937938" lon="6.837312">
        <ele>2373.108</ele>
        <time>2018-07-12T10:32:23Z</time>
      </trkpt>
      <trkpt lat="45.937886" lon="6.837303">
        <ele>2372.529</ele>
        <time>2018-07-12T10:32:31Z</time>
      </trkpt>
      <trkpt lat="45.937837" lon="6.837320">
        <ele>2372.593</ele>
        <time>2018-07-12T10:32:38Z</time>
      </trkpt>
      <trkpt lat="45.937787" lon="6.837331">
        <ele>2374.571</ele>
        <time>2018-07-12T10:32:45Z</time>
      </trkpt>
      <trkpt lat="45.937740" lon="6.837335">
        <ele>2372.960</ele>
        <time>2018-07-12T10:32:51Z</time>
      </trkpt>
      <trkpt lat="45.937689" lon="6.837338">
        <ele>2372.294</ele>
        <time>2018-07-12T10:32:58Z</time>
      </trkpt>
      <trkpt lat="45.937641" lon="6.837285">
        <ele>2372.259</ele>
        <time>2018-07-12T10:34:07Z</time>
      </trkpt>
      <trkpt lat="45.937595" lon="6.837281">
        <ele>2371.673</ele>
        <time>2018-07-12T10:34:17Z</time>
      </trkpt>
      <trkpt lat="45.937542" lon="6.837285">
        <ele>2372.729</ele>
        <time>2018-07-12T10:34:25Z</time>
      </trkpt>
      <trkpt lat="45.937498" lon="6.837245">
        <ele>2373.362</ele>
        <time>2018-07-12T10:34:32Z</time>
      </trkpt>
      <trkpt lat="45.937448" lon="6.837239">
        <ele>2373.083</ele>
        <time>2018-07-12T10:34:39Z</time>
      </trkpt>
      <trkpt lat="45.937403" lon="6.837262">
        <ele>2372.611</ele>
        <time>2018-07-12T10:35:25Z</time>
      </trkpt>
      <trkpt lat="45.937371" lon="6.837311">
        <ele>2375.608</ele>
        <time>2018-07-12T10:35:45Z</time>
      </trkpt>
      <trkpt lat="45.937316" lon="6.837338">
        <ele>2378.668</ele>
        <time>2018-07-12T10:36:03Z</time>
      </trkpt>
      <trkpt lat="45.937265" lon="6.837289">
        <ele>2378.792</ele>
        <time>2018-07-12T10:37:24Z</time>
      </trkpt>
      <trkpt lat="45.937225" lon="6.837250">
        <ele>2382.060</ele>
        <time>2018-07-12T10:39:06Z</time>
      </trkpt>
      <trkpt lat="45.937177" lon="6.837214">
        <ele>2387.629</ele>
        <time>2018-07-12T10:39:50Z</time>
      </trkpt>
      <trkpt lat="45.937131" lon="6.837217">
        <ele>2389.173</ele>
        <time>2018-07-12T10:40:10Z</time>
      </trkpt>
      <trkpt lat="45.937085" lon="6.837220">
        <ele>2391.288</ele>
        <time>2018-07-12T10:40:23Z</time>
      </trkpt>
      <trkpt lat="45.937046" lon="6.837254">
        <ele>2393.462</ele>
        <time>2018-07-12T10:40:44Z</time>
      </trkpt>
      <trkpt lat="45.936989" lon="6.837262">
        <ele>2395.768</ele>
        <time>2018-07-12T10:41:01Z</time>
      </trkpt>
      <trkpt lat="45.936943" lon="6.837260">
        <ele>2394.337</ele>
        <time>2018-07-12T10:41:13Z</time>
      </trkpt>
      <trkpt lat="45.936895" lon="6.837264">
        <ele>2397.049</ele>
        <time>2018-07-12T10:41:37Z</time>
      </trkpt>
      <trkpt lat="45.936906" lon="6.837330">
        <ele>2399.513</ele>
        <time>2018-07-12T10:42:15Z</time>
      </trkpt>
      <trkpt lat="45.936902" lon="6.837397">
        <ele>2401.108</ele>
        <time>2018-07-12T10:42:38Z</time>
      </trkpt>
      <trkpt lat="45.936860" lon="6.837419">
        <ele>2402.225</ele>
        <time>2018-07-12T10:42:47Z</time>
      </trkpt>
      <trkpt lat="45.936813" lon="6.837425">
        <ele>2403.659</ele>
        <time>2018-07-12T10:42:59Z</time>
      </trkpt>
      <trkpt lat="45.936789" lon="6.837485">
        <ele>2406.867</ele>
        <time>2018-07-12T10:43:33Z</time>
      </trkpt>
      <trkpt lat="45.936750" lon="6.837525">
        <ele>2409.126</ele>
        <time>2018-07-12T10:43:46Z</time>
      </trkpt>
      <trkpt lat="45.936770" lon="6.837585">
        <ele>2414.120</ele>
        <time>2018-07-12T10:44:27Z</time>
      </trkpt>
      <trkpt lat="45.936800" lon="6.837634">
        <ele>2414.635</ele>
        <time>2018-07-12T10:44:53Z</time>
      </trkpt>
      <trkpt lat="45.936775" lon="6.837692">
        <ele>2416.829</ele>
        <time>2018-07-12T10:45:18Z</time>
      </trkpt>
      <trkpt lat="45.936738" lon="6.837733">
        <ele>2417.845</ele>
        <time>2018-07-12T10:45:31Z</time>
      </trkpt>
      <trkpt lat="45.936699" lon="6.837765">
        <ele>2418.761</ele>
        <time>2018-07-12T10:45:42Z</time>
      </trkpt>
      <trkpt lat="45.936662" lon="6.837810">
        <ele>2419.621</ele>
        <time>2018-07-12T10:46:01Z</time>
      </trkpt>
      <trkpt lat="45.936612" lon="6.837787">
        <ele>2422.513</ele>
        <time>2018-07-12T10:47:12Z</time>
      </trkpt>
      <trkpt lat="45.936565" lon="6.837763">
        <ele>2422.808</ele>
        <time>2018-07-12T10:47:18Z</time>
      </trkpt>
      <trkpt lat="45.936512" lon="6.837736">
        <ele>2422.398</ele>
        <time>2018-07-12T10:47:24Z</time>
      </trkpt>
      <trkpt lat="45.936465" lon="6.837740">
        <ele>2421.722</ele>
        <time>2018-07-12T10:47:36Z</time>
      </trkpt>
      <trkpt lat="45.936419" lon="6.837723">
        <ele>2422.130</ele>
        <time>2018-07-12T10:47:42Z</time>
      </trkpt>
      <trkpt lat="45.936384" lon="6.837676">
        <ele>2421.319</ele>
        <time>2018-07-12T10:47:49Z</time>
      </trkpt>
      <trkpt lat="45.936342" lon="6.837632">
        <ele>2424.293</ele>
        <time>2018-07-12T10:47:56Z</time>
      </trkpt>
      <trkpt lat="45.936305" lon="6.837594">
        <ele>2422.868</ele>
        <time>2018-07-12T10:48:03Z</time>
      </trkpt>
      <trkpt lat="45.936258" lon="6.837575">
        <ele>2423.522</ele>
        <time>2018-07-12T10:48:11Z</time>
      </trkpt>
      <trkpt lat="45.936217" lon="6.837544">
        <ele>2424.418</ele>
        <time>2018-07-12T10:48:19Z</time>
      </trkpt>
      <trkpt lat="45.936177" lon="6.837504">
        <ele>2425.614</ele>
        <time>2018-07-12T10:48:30Z</time>
      </trkpt>
      <trkpt lat="45.936136" lon="6.837472">
        <ele>2426.354</ele>
        <time>2018-07-12T10:48:40Z</time>
      </trkpt>
      <trkpt lat="45.936096" lon="6.837439">
        <ele>2427.709</ele>
        <time>2018-07-12T10:48:52Z</time>
      </trkpt>
      <trkpt lat="45.936052" lon="6.837413">
        <ele>2428.708</ele>
        <time>2018-07-12T10:49:05Z</time>
      </trkpt>
      <trkpt lat="45.936009" lon="6.837389">
        <ele>2430.483</ele>
        <time>2018-07-12T10:49:24Z</time>
      </trkpt>
      <trkpt lat="45.935964" lon="6.837386">
        <ele>2431.127</ele>
        <time>2018-07-12T10:49:33Z</time>
      </trkpt>
      <trkpt lat="45.935919" lon="6.837386">
        <ele>2431.155</ele>
        <time>2018-07-12T10:49:44Z</time>
      </trkpt>
      <trkpt lat="45.935871" lon="6.837393">
        <ele>2432.564</ele>
        <time>2018-07-12T10:49:56Z</time>
      </trkpt>
      <trkpt lat="45.935826" lon="6.837404">
        <ele>2432.978</ele>
        <time>2018-07-12T10:50:06Z</time>
      </trkpt>
      <trkpt lat="45.935781" lon="6.837417">
        <ele>2435.033</ele>
        <time>2018-07-12T10:50:16Z</time>
      </trkpt>
      <trkpt lat="45.935736" lon="6.837429">
        <ele>2434.537</ele>
        <time>2018-07-12T10:50:26Z</time>
      </trkpt>
      <trkpt lat="45.935690" lon="6.837452">
        <ele>2435.073</ele>
        <time>2018-07-12T10:50:37Z</time>
      </trkpt>
      <trkpt lat="45.935645" lon="6.837468">
        <ele>2435.611</ele>
        <time>2018-07-12T10:50:48Z</time>
      </trkpt>
      <trkpt lat="45.935602" lon="6.837494">
        <ele>2436.121</ele>
        <time>2018-07-12T10:50:59Z</time>
      </trkpt>
      <trkpt lat="45.935562" lon="6.837528">
        <ele>2437.103</ele>
        <time>2018-07-12T10:51:11Z</time>
      </trkpt>
      <trkpt lat="45.935517" lon="6.837541">
        <ele>2437.008</ele>
        <time>2018-07-12T10:51:21Z</time>
      </trkpt>
      <trkpt lat="45.935474" lon="6.837565">
        <ele>2437.713</ele>
        <time>2018-07-12T10:51:31Z</time>
      </trkpt>
      <trkpt lat="45.935430" lon="6.837587">
        <ele>2439.747</ele>
        <time>2018-07-12T10:51:40Z</time>
      </trkpt>
      <trkpt lat="45.935383" lon="6.837591">
        <ele>2439.225</ele>
        <time>2018-07-12T10:51:51Z</time>
      </trkpt>
      <trkpt lat="45.935336" lon="6.837608">
        <ele>2440.244</ele>
        <time>2018-07-12T10:52:01Z</time>
      </trkpt>
      <trkpt lat="45.935290" lon="6.837605">
        <ele>2440.898</ele>
        <time>2018-07-12T10:52:10Z</time>
      </trkpt>
      <trkpt lat="45.935243" lon="6.837590">
        <ele>2442.153</ele>
        <time>2018-07-12T10:52:26Z</time>
      </trkpt>
      <trkpt lat="45.935195" lon="6.837578">
        <ele>2442.987</ele>
        <time>2018-07-12T10:52:35Z</time>
      </trkpt>
      <trkpt lat="45.935152" lon="6.837557">
        <ele>2444.123</ele>
        <time>2018-07-12T10:52:46Z</time>
      </trkpt>
      <trkpt lat="45.935103" lon="6.837567">
        <ele>2445.226</ele>
        <time>2018-07-12T10:52:56Z</time>
      </trkpt>
      <trkpt lat="45.935060" lon="6.837539">
        <ele>2445.747</ele>
        <time>2018-07-12T10:53:07Z</time>
      </trkpt>
      <trkpt lat="45.935016" lon="6.837514">
        <ele>2446.611</ele>
        <time>2018-07-12T10:53:17Z</time>
      </trkpt>
      <trkpt lat="45.934974" lon="6.837482">
        <ele>2447.608</ele>
        <time>2018-07-12T10:53:30Z</time>
      </trkpt>
      <trkpt lat="45.934933" lon="6.837453">
        <ele>2448.074</ele>
        <time>2018-07-12T10:53:40Z</time>
      </trkpt>
      <trkpt lat="45.934892" lon="6.837416">
        <ele>2448.998</ele>
        <time>2018-07-12T10:53:51Z</time>
      </trkpt>
      <trkpt lat="45.934852" lon="6.837374">
        <ele>2449.636</ele>
        <time>2018-07-12T10:54:00Z</time>
      </trkpt>
      <trkpt lat="45.934812" lon="6.837334">
        <ele>2450.255</ele>
        <time>2018-07-12T10:54:13Z</time>
      </trkpt>
      <trkpt lat="45.934770" lon="6.837301">
        <ele>2451.229</ele>
        <time>2018-07-12T10:54:26Z</time>
      </trkpt>
      <trkpt lat="45.934727" lon="6.837269">
        <ele>2454.434</ele>
        <time>2018-07-12T10:54:37Z</time>
      </trkpt>
      <trkpt lat="45.934695" lon="6.837223">
        <ele>2454.138</ele>
        <time>2018-07-12T10:54:47Z</time>
      </trkpt>
      <trkpt lat="45.934663" lon="6.837170">
        <ele>2454.234</ele>
        <time>2018-07-12T10:54:59Z</time>
      </trkpt>
      <trkpt lat="45.934621" lon="6.837131">
        <ele>2455.772</ele>
        <time>2018-07-12T10:55:15Z</time>
      </trkpt>
      <trkpt lat="45.934582" lon="6.837091">
        <ele>2458.913</ele>
        <time>2018-07-12T10:55:26Z</time>
      </trkpt>
      <trkpt lat="45.934542" lon="6.837057">
        <ele>2457.914</ele>
        <time>2018-07-12T10:55:36Z</time>
      </trkpt>
      <trkpt lat="45.934497" lon="6.837033">
        <ele>2460.408</ele>
        <time>2018-07-12T10:55:46Z</time>
      </trkpt>
      <trkpt lat="45.934450" lon="6.837018">
        <ele>2460.319</ele>
        <time>2018-07-12T10:55:56Z</time>
      </trkpt>
      <trkpt lat="45.934400" lon="6.837009">
        <ele>2462.043</ele>
        <time>2018-07-12T10:56:15Z</time>
      </trkpt>
      <trkpt lat="45.934353" lon="6.837001">
        <ele>2462.921</ele>
        <time>2018-07-12T10:56:41Z</time>
      </trkpt>
      <trkpt lat="45.934307" lon="6.836989">
        <ele>2464.140</ele>
        <time>2018-07-12T10:56:57Z</time>
      </trkpt>
      <trkpt lat="45.934262" lon="6.836971">
        <ele>2464.934</ele>
        <time>2018-07-12T10:57:06Z</time>
      </trkpt>
      <trkpt lat="45.934216" lon="6.836962">
        <ele>2466.019</ele>
        <time>2018-07-12T10:57:19Z</time>
      </trkpt>
      <trkpt lat="45.934172" lon="6.836940">
        <ele>2467.673</ele>
        <time>2018-07-12T10:57:31Z</time>
      </trkpt>
      <trkpt lat="45.934128" lon="6.836925">
        <ele>2468.039</ele>
        <time>2018-07-12T10:57:42Z</time>
      </trkpt>
      <trkpt lat="45.934082" lon="6.836898">
        <ele>2468.054</ele>
        <time>2018-07-12T10:59:14Z</time>
      </trkpt>
      <trkpt lat="45.934035" lon="6.836898">
        <ele>2469.156</ele>
        <time>2018-07-12T10:59:21Z</time>
      </trkpt>
      <trkpt lat="45.933989" lon="6.836917">
        <ele>2469.911</ele>
        <time>2018-07-12T10:59:32Z</time>
      </trkpt>
      <trkpt lat="45.933944" lon="6.836925">
        <ele>2473.708</ele>
        <time>2018-07-12T10:59:47Z</time>
      </trkpt>
      <trkpt lat="45.933889" lon="6.836925">
        <ele>2472.367</ele>
        <time>2018-07-12T11:00:33Z</time>
      </trkpt>
      <trkpt lat="45.933853" lon="6.836874">
        <ele>2471.331</ele>
        <time>2018-07-12T11:01:02Z</time>
      </trkpt>
      <trkpt lat="45.933815" lon="6.836834">
        <ele>2470.569</ele>
        <time>2018-07-12T11:01:11Z</time>
      </trkpt>
      <trkpt lat="45.933774" lon="6.836802">
        <ele>2468.968</ele>
        <time>2018-07-12T11:01:25Z</time>
      </trkpt>
      <trkpt lat="45.933734" lon="6.836763">
        <ele>2470.012</ele>
        <time>2018-07-12T11:01:35Z</time>
      </trkpt>
      <trkpt lat="45.933697" lon="6.836722">
        <ele>2466.897</ele>
        <time>2018-07-12T11:01:53Z</time>
      </trkpt>
      <trkpt lat="45.933653" lon="6.836700">
        <ele>2465.311</ele>
        <time>2018-07-12T11:02:03Z</time>
      </trkpt>
      <trkpt lat="45.933607" lon="6.836677">
        <ele>2463.957</ele>
        <time>2018-07-12T11:02:13Z</time>
      </trkpt>
      <trkpt lat="45.933560" lon="6.836652">
        <ele>2462.822</ele>
        <time>2018-07-12T11:02:20Z</time>
      </trkpt>
      <trkpt lat="45.933509" lon="6.836646">
        <ele>2462.062</ele>
        <time>2018-07-12T11:02:28Z</time>
      </trkpt>
      <trkpt lat="45.933464" lon="6.836634">
        <ele>2461.408</ele>
        <time>2018-07-12T11:02:34Z</time>
      </trkpt>
      <trkpt lat="45.933415" lon="6.836628">
        <ele>2460.808</ele>
        <time>2018-07-12T11:02:43Z</time>
      </trkpt>
      <trkpt lat="45.933370" lon="6.836633">
        <ele>2460.094</ele>
        <time>2018-07-12T11:02:51Z</time>
      </trkpt>
      <trkpt lat="45.933323" lon="6.836646">
        <ele>2459.188</ele>
        <time>2018-07-12T11:03:02Z</time>
      </trkpt>
      <trkpt lat="45.933278" lon="6.836659">
        <ele>2459.656</ele>
        <time>2018-07-12T11:03:14Z</time>
      </trkpt>
      <trkpt lat="45.933235" lon="6.836679">
        <ele>2456.075</ele>
        <time>2018-07-12T11:03:27Z</time>
      </trkpt>
      <trkpt lat="45.933193" lon="6.836704">
        <ele>2455.569</ele>
        <time>2018-07-12T11:03:38Z</time>
      </trkpt>
      <trkpt lat="45.933156" lon="6.836665">
        <ele>2456.014</ele>
        <time>2018-07-12T11:04:45Z</time>
      </trkpt>
      <trkpt lat="45.933173" lon="6.836601">
        <ele>2452.728</ele>
        <time>2018-07-12T11:04:55Z</time>
      </trkpt>
      <trkpt lat="45.933209" lon="6.836558">
        <ele>2451.254</ele>
        <time>2018-07-12T11:05:05Z</time>
      </trkpt>
      <trkpt lat="45.933242" lon="6.836505">
        <ele>2450.442</ele>
        <time>2018-07-12T11:05:13Z</time>
      </trkpt>
      <trkpt lat="45.933264" lon="6.836444">
        <ele>2449.722</ele>
        <time>2018-07-12T11:05:23Z</time>
      </trkpt>
      <trkpt lat="45.933230" lon="6.836399">
        <ele>2446.914</ele>
        <time>2018-07-12T11:05:48Z</time>
      </trkpt>
      <trkpt lat="45.933186" lon="6.836416">
        <ele>2446.008</ele>
        <time>2018-07-12T11:05:57Z</time>
      </trkpt>
      <trkpt lat="45.933141" lon="6.836448">
        <ele>2446.596</ele>
        <time>2018-07-12T11:06:04Z</time>
      </trkpt>
      <trkpt lat="45.933094" lon="6.836471">
        <ele>2443.840</ele>
        <time>2018-07-12T11:06:10Z</time>
      </trkpt>
      <trkpt lat="45.933047" lon="6.836504">
        <ele>2442.598</ele>
        <time>2018-07-12T11:06:17Z</time>
      </trkpt>
      <trkpt lat="45.933006" lon="6.836533">
        <ele>2442.497</ele>
        <time>2018-07-12T11:06:24Z</time>
      </trkpt>
      <trkpt lat="45.932965" lon="6.836570">
        <ele>2441.941</ele>
        <time>2018-07-12T11:06:37Z</time>
      </trkpt>
      <trkpt lat="45.932919" lon="6.836602">
        <ele>2437.996</ele>
        <time>2018-07-12T11:06:47Z</time>
      </trkpt>
      <trkpt lat="45.932871" lon="6.836616">
        <ele>2437.040</ele>
        <time>2018-07-12T11:06:52Z</time>
      </trkpt>
      <trkpt lat="45.932817" lon="6.836626">
        <ele>2435.736</ele>
        <time>2018-07-12T11:07:00Z</time>
      </trkpt>
      <trkpt lat="45.932774" lon="6.836647">
        <ele>2434.025</ele>
        <time>2018-07-12T11:07:06Z</time>
      </trkpt>
      <trkpt lat="45.932793" lon="6.836584">
        <ele>2431.526</ele>
        <time>2018-07-12T11:07:24Z</time>
      </trkpt>
      <trkpt lat="45.932827" lon="6.836539">
        <ele>2430.508</ele>
        <time>2018-07-12T11:07:30Z</time>
      </trkpt>
      <trkpt lat="45.932856" lon="6.836482">
        <ele>2428.708</ele>
        <time>2018-07-12T11:07:41Z</time>
      </trkpt>
      <trkpt lat="45.932812" lon="6.836461">
        <ele>2425.094</ele>
        <time>2018-07-12T11:08:00Z</time>
      </trkpt>
      <trkpt lat="45.932770" lon="6.836492">
        <ele>2424.498</ele>
        <time>2018-07-12T11:08:06Z</time>
      </trkpt>
      <trkpt lat="45.932728" lon="6.836517">
        <ele>2422.696</ele>
        <time>2018-07-12T11:08:17Z</time>
      </trkpt>
      <trkpt lat="45.932683" lon="6.836549">
        <ele>2421.145</ele>
        <time>2018-07-12T11:08:27Z</time>
      </trkpt>
      <trkpt lat="45.932635" lon="6.836554">
        <ele>2420.879</ele>
        <time>2018-07-12T11:08:38Z</time>
      </trkpt>
      <trkpt lat="45.932587" lon="6.836554">
        <ele>2419.354</ele>
        <time>2018-07-12T11:08:47Z</time>
      </trkpt>
      <trkpt lat="45.932541" lon="6.836565">
        <ele>2418.168</ele>
        <time>2018-07-12T11:08:54Z</time>
      </trkpt>
      <trkpt lat="45.932501" lon="6.836596">
        <ele>2417.374</ele>
        <time>2018-07-12T11:09:00Z</time>
      </trkpt>
      <trkpt lat="45.932456" lon="6.836630">
        <ele>2417.821</ele>
        <time>2018-07-12T11:09:08Z</time>
      </trkpt>
      <trkpt lat="45.932406" lon="6.836651">
        <ele>2415.241</ele>
        <time>2018-07-12T11:09:16Z</time>
      </trkpt>
      <trkpt lat="45.932358" lon="6.836668">
        <ele>2414.905</ele>
        <time>2018-07-12T11:09:25Z</time>
      </trkpt>
      <trkpt lat="45.932316" lon="6.836701">
        <ele>2413.508</ele>
        <time>2018-07-12T11:09:33Z</time>
      </trkpt>
      <trkpt lat="45.932277" lon="6.836745">
        <ele>2411.964</ele>
        <time>2018-07-12T11:09:44Z</time>
      </trkpt>
      <trkpt lat="45.932234" lon="6.836779">
        <ele>2410.778</ele>
        <time>2018-07-12T11:09:52Z</time>
      </trkpt>
      <trkpt lat="45.932189" lon="6.836808">
        <ele>2410.076</ele>
        <time>2018-07-12T11:10:01Z</time>
      </trkpt>
      <trkpt lat="45.932145" lon="6.836843">
        <ele>2408.875</ele>
        <time>2018-07-12T11:10:09Z</time>
      </trkpt>
      <trkpt lat="45.932102" lon="6.836872">
        <ele>2407.759</ele>
        <time>2018-07-12T11:10:17Z</time>
      </trkpt>
      <trkpt lat="45.932057" lon="6.836887">
        <ele>2405.824</ele>
        <time>2018-07-12T11:10:29Z</time>
      </trkpt>
      <trkpt lat="45.932011" lon="6.836868">
        <ele>2404.548</ele>
        <time>2018-07-12T11:10:38Z</time>
      </trkpt>
      <trkpt lat="45.931962" lon="6.836866">
        <ele>2402.784</ele>
        <time>2018-07-12T11:10:47Z</time>
      </trkpt>
      <trkpt lat="45.931982" lon="6.836808">
        <ele>2401.365</ele>
        <time>2018-07-12T11:11:03Z</time>
      </trkpt>
      <trkpt lat="45.932004" lon="6.836751">
        <ele>2399.968</ele>
        <time>2018-07-12T11:11:13Z</time>
      </trkpt>
      <trkpt lat="45.931963" lon="6.836710">
        <ele>2401.314</ele>
        <time>2018-07-12T11:11:23Z</time>
      </trkpt>
      <trkpt lat="45.931920" lon="6.836748">
        <ele>2398.508</ele>
        <time>2018-07-12T11:11:38Z</time>
      </trkpt>
      <trkpt lat="45.931894" lon="6.836692">
        <ele>2396.568</ele>
        <time>2018-07-12T11:11:51Z</time>
      </trkpt>
      <trkpt lat="45.931922" lon="6.836633">
        <ele>2395.852</ele>
        <time>2018-07-12T11:11:58Z</time>
      </trkpt>
      <trkpt lat="45.931932" lon="6.836570">
        <ele>2397.180</ele>
        <time>2018-07-12T11:12:05Z</time>
      </trkpt>
      <trkpt lat="45.931881" lon="6.836575">
        <ele>2393.219</ele>
        <time>2018-07-12T11:12:14Z</time>
      </trkpt>
      <trkpt lat="45.931839" lon="6.836611">
        <ele>2393.023</ele>
        <time>2018-07-12T11:12:21Z</time>
      </trkpt>
      <trkpt lat="45.931793" lon="6.836628">
        <ele>2394.488</ele>
        <time>2018-07-12T11:12:43Z</time>
      </trkpt>
      <trkpt lat="45.931802" lon="6.836559">
        <ele>2394.032</ele>
        <time>2018-07-12T11:12:52Z</time>
      </trkpt>
      <trkpt lat="45.931817" lon="6.836489">
        <ele>2390.588</ele>
        <time>2018-07-12T11:12:58Z</time>
      </trkpt>
      <trkpt lat="45.931839" lon="6.836421">
        <ele>2391.738</ele>
        <time>2018-07-12T11:13:03Z</time>
      </trkpt>
      <trkpt lat="45.931852" lon="6.836347">
        <ele>2389.270</ele>
        <time>2018-07-12T11:13:10Z</time>
      </trkpt>
      <trkpt lat="45.931889" lon="6.836294">
        <ele>2388.117</ele>
        <time>2018-07-12T11:13:15Z</time>
      </trkpt>
      <trkpt lat="45.931923" lon="6.836239">
        <ele>2387.808</ele>
        <time>2018-07-12T11:13:20Z</time>
      </trkpt>
      <trkpt lat="45.931878" lon="6.836205">
        <ele>2386.835</ele>
        <time>2018-07-12T11:13:29Z</time>
      </trkpt>
      <trkpt lat="45.931829" lon="6.836222">
        <ele>2386.479</ele>
        <time>2018-07-12T11:13:36Z</time>
      </trkpt>
      <trkpt lat="45.931784" lon="6.836226">
        <ele>2387.627</ele>
        <time>2018-07-12T11:13:44Z</time>
      </trkpt>
      <trkpt lat="45.931738" lon="6.836241">
        <ele>2386.926</ele>
        <time>2018-07-12T11:13:54Z</time>
      </trkpt>
      <trkpt lat="45.931694" lon="6.836262">
        <ele>2383.710</ele>
        <time>2018-07-12T11:15:09Z</time>
      </trkpt>
      <trkpt lat="45.931650" lon="6.836277">
        <ele>2383.425</ele>
        <time>2018-07-12T11:15:25Z</time>
      </trkpt>
      <trkpt lat="45.931604" lon="6.836284">
        <ele>2383.349</ele>
        <time>2018-07-12T11:15:36Z</time>
      </trkpt>
      <trkpt lat="45.931583" lon="6.836348">
        <ele>2380.715</ele>
        <time>2018-07-12T11:15:45Z</time>
      </trkpt>
      <trkpt lat="45.931553" lon="6.836406">
        <ele>2379.234</ele>
        <time>2018-07-12T11:15:55Z</time>
      </trkpt>
      <trkpt lat="45.931520" lon="6.836455">
        <ele>2379.955</ele>
        <time>2018-07-12T11:16:07Z</time>
      </trkpt>
      <trkpt lat="45.931489" lon="6.836510">
        <ele>2378.510</ele>
        <time>2018-07-12T11:16:25Z</time>
      </trkpt>
      <trkpt lat="45.931518" lon="6.836460">
        <ele>2378.908</ele>
        <time>2018-07-12T11:17:01Z</time>
      </trkpt>
      <trkpt lat="45.931506" lon="6.836392">
        <ele>2377.255</ele>
        <time>2018-07-12T11:17:09Z</time>
      </trkpt>
      <trkpt lat="45.931482" lon="6.836335">
        <ele>2376.319</ele>
        <time>2018-07-12T11:17:18Z</time>
      </trkpt>
      <trkpt lat="45.931493" lon="6.836272">
        <ele>2376.647</ele>
        <time>2018-07-12T11:17:24Z</time>
      </trkpt>
      <trkpt lat="45.931520" lon="6.836211">
        <ele>2376.366</ele>
        <time>2018-07-12T11:17:29Z</time>
      </trkpt>
      <trkpt lat="45.931560" lon="6.836158">
        <ele>2376.060</ele>
        <time>2018-07-12T11:17:34Z</time>
      </trkpt>
      <trkpt lat="45.931603" lon="6.836117">
        <ele>2375.515</ele>
        <time>2018-07-12T11:17:39Z</time>
      </trkpt>
      <trkpt lat="45.931643" lon="6.836073">
        <ele>2374.599</ele>
        <time>2018-07-12T11:17:44Z</time>
      </trkpt>
      <trkpt lat="45.931682" lon="6.836030">
        <ele>2373.875</ele>
        <time>2018-07-12T11:17:49Z</time>
      </trkpt>
      <trkpt lat="45.931714" lon="6.835984">
        <ele>2373.787</ele>
        <time>2018-07-12T11:17:53Z</time>
      </trkpt>
      <trkpt lat="45.931738" lon="6.835926">
        <ele>2370.642</ele>
        <time>2018-07-12T11:17:58Z</time>
      </trkpt>
      <trkpt lat="45.931762" lon="6.835861">
        <ele>2372.526</ele>
        <time>2018-07-12T11:18:04Z</time>
      </trkpt>
      <trkpt lat="45.931791" lon="6.835809">
        <ele>2369.408</ele>
        <time>2018-07-12T11:18:12Z</time>
      </trkpt>
      <trkpt lat="45.931822" lon="6.835752">
        <ele>2368.330</ele>
        <time>2018-07-12T11:18:37Z</time>
      </trkpt>
      <trkpt lat="45.931862" lon="6.835704">
        <ele>2368.714</ele>
        <time>2018-07-12T11:18:42Z</time>
      </trkpt>
      <trkpt lat="45.931909" lon="6.835674">
        <ele>2367.782</ele>
        <time>2018-07-12T11:18:48Z</time>
      </trkpt>
      <trkpt lat="45.931957" lon="6.835647">
        <ele>2366.631</ele>
        <time>2018-07-12T11:18:55Z</time>
      </trkpt>
      <trkpt lat="45.932001" lon="6.835623">
        <ele>2366.075</ele>
        <time>2018-07-12T11:19:02Z</time>
      </trkpt>
      <trkpt lat="45.932041" lon="6.835589">
        <ele>2365.660</ele>
        <time>2018-07-12T11:19:09Z</time>
      </trkpt>
      <trkpt lat="45.932060" lon="6.835529">
        <ele>2364.764</ele>
        <time>2018-07-12T11:19:16Z</time>
      </trkpt>
      <trkpt lat="45.932097" lon="6.835482">
        <ele>2364.830</ele>
        <time>2018-07-12T11:19:23Z</time>
      </trkpt>
      <trkpt lat="45.932139" lon="6.835444">
        <ele>2362.645</ele>
        <time>2018-07-12T11:19:31Z</time>
      </trkpt>
      <trkpt lat="45.932172" lon="6.835398">
        <ele>2361.847</ele>
        <time>2018-07-12T11:19:40Z</time>
      </trkpt>
      <trkpt lat="45.932132" lon="6.835360">
        <ele>2360.011</ele>
        <time>2018-07-12T11:19:55Z</time>
      </trkpt>
      <trkpt lat="45.932085" lon="6.835357">
        <ele>2361.508</ele>
        <time>2018-07-12T11:20:02Z</time>
      </trkpt>
      <trkpt lat="45.932105" lon="6.835298">
        <ele>2360.226</ele>
        <time>2018-07-12T11:20:14Z</time>
      </trkpt>
      <trkpt lat="45.932139" lon="6.835254">
        <ele>2359.180</ele>
        <time>2018-07-12T11:20:22Z</time>
      </trkpt>
      <trkpt lat="45.932167" lon="6.835196">
        <ele>2358.368</ele>
        <time>2018-07-12T11:20:29Z</time>
      </trkpt>
      <trkpt lat="45.932197" lon="6.835140">
        <ele>2356.247</ele>
        <time>2018-07-12T11:20:36Z</time>
      </trkpt>
      <trkpt lat="45.932228" lon="6.835085">
        <ele>2354.651</ele>
        <time>2018-07-12T11:20:44Z</time>
      </trkpt>
      <trkpt lat="45.932178" lon="6.835078">
        <ele>2352.966</ele>
        <time>2018-07-12T11:21:03Z</time>
      </trkpt>
      <trkpt lat="45.932130" lon="6.835073">
        <ele>2350.880</ele>
        <time>2018-07-12T11:21:12Z</time>
      </trkpt>
      <trkpt lat="45.932082" lon="6.835066">
        <ele>2350.336</ele>
        <time>2018-07-12T11:21:21Z</time>
      </trkpt>
      <trkpt lat="45.932032" lon="6.835078">
        <ele>2349.242</ele>
        <time>2018-07-12T11:21:30Z</time>
      </trkpt>
      <trkpt lat="45.931988" lon="6.835095">
        <ele>2349.722</ele>
        <time>2018-07-12T11:21:38Z</time>
      </trkpt>
      <trkpt lat="45.931941" lon="6.835079">
        <ele>2346.414</ele>
        <time>2018-07-12T11:21:46Z</time>
      </trkpt>
      <trkpt lat="45.931929" lon="6.835013">
        <ele>2345.108</ele>
        <time>2018-07-12T11:21:57Z</time>
      </trkpt>
      <trkpt lat="45.931930" lon="6.834947">
        <ele>2346.436</ele>
        <time>2018-07-12T11:22:10Z</time>
      </trkpt>
      <trkpt lat="45.931954" lon="6.834882">
        <ele>2342.250</ele>
        <time>2018-07-12T11:22:19Z</time>
      </trkpt>
      <trkpt lat="45.931989" lon="6.834832">
        <ele>2343.668</ele>
        <time>2018-07-12T11:22:26Z</time>
      </trkpt>
      <trkpt lat="45.931951" lon="6.834793">
        <ele>2340.867</ele>
        <time>2018-07-12T11:22:35Z</time>
      </trkpt>
      <trkpt lat="45.931905" lon="6.834786">
        <ele>2340.251</ele>
        <time>2018-07-12T11:22:44Z</time>
      </trkpt>
      <trkpt lat="45.931868" lon="6.834825">
        <ele>2338.286</ele>
        <time>2018-07-12T11:22:58Z</time>
      </trkpt>
      <trkpt lat="45.931821" lon="6.834850">
        <ele>2339.610</ele>
        <time>2018-07-12T11:23:07Z</time>
      </trkpt>
      <trkpt lat="45.931777" lon="6.834880">
        <ele>2337.386</ele>
        <time>2018-07-12T11:23:14Z</time>
      </trkpt>
      <trkpt lat="45.931732" lon="6.834901">
        <ele>2338.579</ele>
        <time>2018-07-12T11:23:21Z</time>
      </trkpt>
      <trkpt lat="45.931693" lon="6.834938">
        <ele>2335.905</ele>
        <time>2018-07-12T11:23:28Z</time>
      </trkpt>
      <trkpt lat="45.931649" lon="6.834966">
        <ele>2336.625</ele>
        <time>2018-07-12T11:23:39Z</time>
      </trkpt>
      <trkpt lat="45.931606" lon="6.834987">
        <ele>2333.408</ele>
        <time>2018-07-12T11:23:49Z</time>
      </trkpt>
      <trkpt lat="45.931558" lon="6.834986">
        <ele>2331.749</ele>
        <time>2018-07-12T11:24:01Z</time>
      </trkpt>
      <trkpt lat="45.931511" lon="6.835006">
        <ele>2331.593</ele>
        <time>2018-07-12T11:24:14Z</time>
      </trkpt>
      <trkpt lat="45.931470" lon="6.835036">
        <ele>2330.371</ele>
        <time>2018-07-12T11:24:21Z</time>
      </trkpt>
      <trkpt lat="45.931424" lon="6.835075">
        <ele>2331.150</ele>
        <time>2018-07-12T11:24:27Z</time>
      </trkpt>
      <trkpt lat="45.931380" lon="6.835105">
        <ele>2329.624</ele>
        <time>2018-07-12T11:24:35Z</time>
      </trkpt>
      <trkpt lat="45.931328" lon="6.835095">
        <ele>2331.789</ele>
        <time>2018-07-12T11:24:42Z</time>
      </trkpt>
      <trkpt lat="45.931283" lon="6.835070">
        <ele>2329.123</ele>
        <time>2018-07-12T11:24:47Z</time>
      </trkpt>
      <trkpt lat="45.931233" lon="6.835057">
        <ele>2330.779</ele>
        <time>2018-07-12T11:24:55Z</time>
      </trkpt>
      <trkpt lat="45.931180" lon="6.835058">
        <ele>2328.227</ele>
        <time>2018-07-12T11:25:05Z</time>
      </trkpt>
      <trkpt lat="45.931135" lon="6.835071">
        <ele>2327.268</ele>
        <time>2018-07-12T11:25:11Z</time>
      </trkpt>
      <trkpt lat="45.931090" lon="6.835078">
        <ele>2326.514</ele>
        <time>2018-07-12T11:25:21Z</time>
      </trkpt>
      <trkpt lat="45.931044" lon="6.835072">
        <ele>2325.808</ele>
        <time>2018-07-12T11:25:30Z</time>
      </trkpt>
      <trkpt lat="45.931007" lon="6.835109">
        <ele>2324.714</ele>
        <time>2018-07-12T11:25:40Z</time>
      </trkpt>
      <trkpt lat="45.930961" lon="6.835075">
        <ele>2323.298</ele>
        <time>2018-07-12T11:25:47Z</time>
      </trkpt>
      <trkpt lat="45.930912" lon="6.835060">
        <ele>2323.326</ele>
        <time>2018-07-12T11:25:53Z</time>
      </trkpt>
      <trkpt lat="45.930867" lon="6.835046">
        <ele>2324.035</ele>
        <time>2018-07-12T11:26:03Z</time>
      </trkpt>
      <trkpt lat="45.930820" lon="6.835059">
        <ele>2321.949</ele>
        <time>2018-07-12T11:26:21Z</time>
      </trkpt>
      <trkpt lat="45.930776" lon="6.835082">
        <ele>2321.374</ele>
        <time>2018-07-12T11:26:35Z</time>
      </trkpt>
      <trkpt lat="45.930724" lon="6.835061">
        <ele>2320.248</ele>
        <time>2018-07-12T11:26:46Z</time>
      </trkpt>
      <trkpt lat="45.930670" lon="6.835054">
        <ele>2318.254</ele>
        <time>2018-07-12T11:26:52Z</time>
      </trkpt>
      <trkpt lat="45.930622" lon="6.835025">
        <ele>2319.417</ele>
        <time>2018-07-12T11:26:58Z</time>
      </trkpt>
      <trkpt lat="45.930580" lon="6.834983">
        <ele>2317.687</ele>
        <time>2018-07-12T11:27:03Z</time>
      </trkpt>
      <trkpt lat="45.930554" lon="6.834923">
        <ele>2316.915</ele>
        <time>2018-07-12T11:27:08Z</time>
      </trkpt>
      <trkpt lat="45.930508" lon="6.834887">
        <ele>2318.208</ele>
        <time>2018-07-12T11:27:14Z</time>
      </trkpt>
      <trkpt lat="45.930481" lon="6.834831">
        <ele>2317.613</ele>
        <time>2018-07-12T11:27:20Z</time>
      </trkpt>
      <trkpt lat="45.930454" lon="6.834775">
        <ele>2316.367</ele>
        <time>2018-07-12T11:27:26Z</time>
      </trkpt>
      <trkpt lat="45.930434" lon="6.834707">
        <ele>2315.815</ele>
        <time>2018-07-12T11:27:32Z</time>
      </trkpt>
      <trkpt lat="45.930400" lon="6.834659">
        <ele>2312.794</ele>
        <time>2018-07-12T11:27:38Z</time>
      </trkpt>
      <trkpt lat="45.930355" lon="6.834644">
        <ele>2314.268</ele>
        <time>2018-07-12T11:27:45Z</time>
      </trkpt>
      <trkpt lat="45.930309" lon="6.834642">
        <ele>2314.233</ele>
        <time>2018-07-12T11:27:56Z</time>
      </trkpt>
      <trkpt lat="45.930263" lon="6.834625">
        <ele>2312.967</ele>
        <time>2018-07-12T11:28:03Z</time>
      </trkpt>
      <trkpt lat="45.930217" lon="6.834619">
        <ele>2311.623</ele>
        <time>2018-07-12T11:28:10Z</time>
      </trkpt>
      <trkpt lat="45.930167" lon="6.834632">
        <ele>2310.953</ele>
        <time>2018-07-12T11:28:17Z</time>
      </trkpt>
      <trkpt lat="45.930118" lon="6.834642">
        <ele>2311.404</ele>
        <time>2018-07-12T11:28:27Z</time>
      </trkpt>
      <trkpt lat="45.930069" lon="6.834655">
        <ele>2308.814</ele>
        <time>2018-07-12T11:28:33Z</time>
      </trkpt>
      <trkpt lat="45.930024" lon="6.834664">
        <ele>2308.408</ele>
        <time>2018-07-12T11:28:51Z</time>
      </trkpt>
      <trkpt lat="45.929986" lon="6.834627">
        <ele>2306.987</ele>
        <time>2018-07-12T11:29:02Z</time>
      </trkpt>
      <trkpt lat="45.929948" lon="6.834585">
        <ele>2306.371</ele>
        <time>2018-07-12T11:29:14Z</time>
      </trkpt>
      <trkpt lat="45.929908" lon="6.834554">
        <ele>2306.919</ele>
        <time>2018-07-12T11:29:26Z</time>
      </trkpt>
      <trkpt lat="45.929875" lon="6.834509">
        <ele>2306.198</ele>
        <time>2018-07-12T11:29:41Z</time>
      </trkpt>
      <trkpt lat="45.929826" lon="6.834516">
        <ele>2303.842</ele>
        <time>2018-07-12T11:29:58Z</time>
      </trkpt>
      <trkpt lat="45.929785" lon="6.834549">
        <ele>2302.457</ele>
        <time>2018-07-12T11:30:11Z</time>
      </trkpt>
      <trkpt lat="45.929745" lon="6.834583">
        <ele>2298.521</ele>
        <time>2018-07-12T11:30:29Z</time>
      </trkpt>
      <trkpt lat="45.929700" lon="6.834593">
        <ele>2296.447</ele>
        <time>2018-07-12T11:30:39Z</time>
      </trkpt>
      <trkpt lat="45.929655" lon="6.834608">
        <ele>2294.995</ele>
        <time>2018-07-12T11:30:50Z</time>
      </trkpt>
      <trkpt lat="45.929612" lon="6.834633">
        <ele>2293.849</ele>
        <time>2018-07-12T11:30:57Z</time>
      </trkpt>
      <trkpt lat="45.929573" lon="6.834665">
        <ele>2292.523</ele>
        <time>2018-07-12T11:31:05Z</time>
      </trkpt>
      <trkpt lat="45.929528" lon="6.834675">
        <ele>2291.608</ele>
        <time>2018-07-12T11:31:13Z</time>
      </trkpt>
      <trkpt lat="45.929481" lon="6.834687">
        <ele>2290.421</ele>
        <time>2018-07-12T11:31:23Z</time>
      </trkpt>
      <trkpt lat="45.929440" lon="6.834715">
        <ele>2289.455</ele>
        <time>2018-07-12T11:31:31Z</time>
      </trkpt>
      <trkpt lat="45.929397" lon="6.834748">
        <ele>2289.633</ele>
        <time>2018-07-12T11:31:39Z</time>
      </trkpt>
      <trkpt lat="45.929411" lon="6.834681">
        <ele>2287.582</ele>
        <time>2018-07-12T11:31:50Z</time>
      </trkpt>
      <trkpt lat="45.929414" lon="6.834613">
        <ele>2285.926</ele>
        <time>2018-07-12T11:32:05Z</time>
      </trkpt>
      <trkpt lat="45.929369" lon="6.834582">
        <ele>2284.441</ele>
        <time>2018-07-12T11:32:15Z</time>
      </trkpt>
      <trkpt lat="45.929321" lon="6.834588">
        <ele>2283.035</ele>
        <time>2018-07-12T11:32:22Z</time>
      </trkpt>
      <trkpt lat="45.929274" lon="6.834579">
        <ele>2282.331</ele>
        <time>2018-07-12T11:32:30Z</time>
      </trkpt>
      <trkpt lat="45.929223" lon="6.834565">
        <ele>2281.244</ele>
        <time>2018-07-12T11:32:37Z</time>
      </trkpt>
      <trkpt lat="45.929177" lon="6.834543">
        <ele>2280.505</ele>
        <time>2018-07-12T11:32:43Z</time>
      </trkpt>
      <trkpt lat="45.929133" lon="6.834514">
        <ele>2279.315</ele>
        <time>2018-07-12T11:32:49Z</time>
      </trkpt>
      <trkpt lat="45.929086" lon="6.834494">
        <ele>2278.908</ele>
        <time>2018-07-12T11:33:01Z</time>
      </trkpt>
      <trkpt lat="45.929039" lon="6.834458">
        <ele>2277.576</ele>
        <time>2018-07-12T11:33:07Z</time>
      </trkpt>
      <trkpt lat="45.928996" lon="6.834430">
        <ele>2277.950</ele>
        <time>2018-07-12T11:33:12Z</time>
      </trkpt>
      <trkpt lat="45.928951" lon="6.834391">
        <ele>2276.898</ele>
        <time>2018-07-12T11:33:18Z</time>
      </trkpt>
      <trkpt lat="45.928913" lon="6.834353">
        <ele>2276.937</ele>
        <time>2018-07-12T11:33:23Z</time>
      </trkpt>
      <trkpt lat="45.928868" lon="6.834313">
        <ele>2276.641</ele>
        <time>2018-07-12T11:33:30Z</time>
      </trkpt>
      <trkpt lat="45.928833" lon="6.834256">
        <ele>2274.746</ele>
        <time>2018-07-12T11:33:36Z</time>
      </trkpt>
      <trkpt lat="45.928805" lon="6.834203">
        <ele>2274.450</ele>
        <time>2018-07-12T11:33:41Z</time>
      </trkpt>
      <trkpt lat="45.928779" lon="6.834145">
        <ele>2274.486</ele>
        <time>2018-07-12T11:33:47Z</time>
      </trkpt>
      <trkpt lat="45.928738" lon="6.834102">
        <ele>2274.318</ele>
        <time>2018-07-12T11:33:53Z</time>
      </trkpt>
      <trkpt lat="45.928695" lon="6.834078">
        <ele>2274.398</ele>
        <time>2018-07-12T11:34:00Z</time>
      </trkpt>
      <trkpt lat="45.928650" lon="6.834062">
        <ele>2272.717</ele>
        <time>2018-07-12T11:34:06Z</time>
      </trkpt>
      <trkpt lat="45.928608" lon="6.834026">
        <ele>2272.308</ele>
        <time>2018-07-12T11:34:11Z</time>
      </trkpt>
      <trkpt lat="45.928558" lon="6.834014">
        <ele>2272.043</ele>
        <time>2018-07-12T11:34:17Z</time>
      </trkpt>
      <trkpt lat="45.928514" lon="6.833997">
        <ele>2272.957</ele>
        <time>2018-07-12T11:34:22Z</time>
      </trkpt>
      <trkpt lat="45.928469" lon="6.833986">
        <ele>2271.955</ele>
        <time>2018-07-12T11:34:28Z</time>
      </trkpt>
      <trkpt lat="45.928422" lon="6.833972">
        <ele>2271.454</ele>
        <time>2018-07-12T11:34:35Z</time>
      </trkpt>
      <trkpt lat="45.928378" lon="6.833952">
        <ele>2272.148</ele>
        <time>2018-07-12T11:34:45Z</time>
      </trkpt>
      <trkpt lat="45.928326" lon="6.833937">
        <ele>2270.133</ele>
        <time>2018-07-12T11:34:51Z</time>
      </trkpt>
      <trkpt lat="45.928282" lon="6.833920">
        <ele>2270.637</ele>
        <time>2018-07-12T11:34:56Z</time>
      </trkpt>
      <trkpt lat="45.928235" lon="6.833889">
        <ele>2271.833</ele>
        <time>2018-07-12T11:35:02Z</time>
      </trkpt>
      <trkpt lat="45.928187" lon="6.833893">
        <ele>2272.761</ele>
        <time>2018-07-12T11:35:08Z</time>
      </trkpt>
      <trkpt lat="45.928140" lon="6.833900">
        <ele>2271.821</ele>
        <time>2018-07-12T11:35:14Z</time>
      </trkpt>
      <trkpt lat="45.928093" lon="6.833900">
        <ele>2269.613</ele>
        <time>2018-07-12T11:35:19Z</time>
      </trkpt>
      <trkpt lat="45.928048" lon="6.833891">
        <ele>2270.008</ele>
        <time>2018-07-12T11:35:25Z</time>
      </trkpt>
      <trkpt lat="45.927995" lon="6.833882">
        <ele>2270.698</ele>
        <time>2018-07-12T11:35:31Z</time>
      </trkpt>
      <trkpt lat="45.927950" lon="6.833865">
        <ele>2270.722</ele>
        <time>2018-07-12T11:35:37Z</time>
      </trkpt>
      <trkpt lat="45.927904" lon="6.833871">
        <ele>2271.680</ele>
        <time>2018-07-12T11:35:56Z</time>
      </trkpt>
      <trkpt lat="45.927857" lon="6.833874">
        <ele>2271.579</ele>
        <time>2018-07-12T11:36:05Z</time>
      </trkpt>
      <trkpt lat="45.927810" lon="6.833863">
        <ele>2271.943</ele>
        <time>2018-07-12T11:36:11Z</time>
      </trkpt>
      <trkpt lat="45.927769" lon="6.833819">
        <ele>2272.388</ele>
        <time>2018-07-12T11:36:19Z</time>
      </trkpt>
      <trkpt lat="45.927727" lon="6.833796">
        <ele>2273.812</ele>
        <time>2018-07-12T11:36:29Z</time>
      </trkpt>
      <trkpt lat="45.927677" lon="6.833787">
        <ele>2275.478</ele>
        <time>2018-07-12T11:36:37Z</time>
      </trkpt>
      <trkpt lat="45.927628" lon="6.833769">
        <ele>2275.587</ele>
        <time>2018-07-12T11:36:44Z</time>
      </trkpt>
      <trkpt lat="45.927588" lon="6.833723">
        <ele>2272.342</ele>
        <time>2018-07-12T11:36:51Z</time>
      </trkpt>
      <trkpt lat="45.927555" lon="6.833674">
        <ele>2271.726</ele>
        <time>2018-07-12T11:36:56Z</time>
      </trkpt>
      <trkpt lat="45.927523" lon="6.833626">
        <ele>2272.408</ele>
        <time>2018-07-12T11:37:03Z</time>
      </trkpt>
      <trkpt lat="45.927485" lon="6.833585">
        <ele>2274.610</ele>
        <time>2018-07-12T11:37:10Z</time>
      </trkpt>
      <trkpt lat="45.927437" lon="6.833578">
        <ele>2275.494</ele>
        <time>2018-07-12T11:37:17Z</time>
      </trkpt>
      <trkpt lat="45.927388" lon="6.833560">
        <ele>2275.632</ele>
        <time>2018-07-12T11:37:23Z</time>
      </trkpt>
      <trkpt lat="45.927351" lon="6.833520">
        <ele>2275.511</ele>
        <time>2018-07-12T11:37:29Z</time>
      </trkpt>
      <trkpt lat="45.927310" lon="6.833473">
        <ele>2276.255</ele>
        <time>2018-07-12T11:37:36Z</time>
      </trkpt>
      <trkpt lat="45.927259" lon="6.833437">
        <ele>2275.910</ele>
        <time>2018-07-12T11:37:46Z</time>
      </trkpt>
      <trkpt lat="45.927215" lon="6.833418">
        <ele>2276.694</ele>
        <time>2018-07-12T11:37:59Z</time>
      </trkpt>
      <trkpt lat="45.927168" lon="6.833407">
        <ele>2275.780</ele>
        <time>2018-07-12T11:38:06Z</time>
      </trkpt>
      <trkpt lat="45.927121" lon="6.833397">
        <ele>2277.364</ele>
        <time>2018-07-12T11:38:13Z</time>
      </trkpt>
      <trkpt lat="45.927075" lon="6.833390">
        <ele>2276.606</ele>
        <time>2018-07-12T11:38:19Z</time>
      </trkpt>
      <trkpt lat="45.927031" lon="6.833356">
        <ele>2277.816</ele>
        <time>2018-07-12T11:38:25Z</time>
      </trkpt>
      <trkpt lat="45.926989" lon="6.833324">
        <ele>2278.008</ele>
        <time>2018-07-12T11:38:31Z</time>
      </trkpt>
      <trkpt lat="45.926940" lon="6.833311">
        <ele>2275.928</ele>
        <time>2018-07-12T11:38:40Z</time>
      </trkpt>
      <trkpt lat="45.926891" lon="6.833282">
        <ele>2276.472</ele>
        <time>2018-07-12T11:38:47Z</time>
      </trkpt>
      <trkpt lat="45.926847" lon="6.833258">
        <ele>2273.920</ele>
        <time>2018-07-12T11:38:52Z</time>
      </trkpt>
      <trkpt lat="45.926805" lon="6.833230">
        <ele>2275.679</ele>
        <time>2018-07-12T11:38:56Z</time>
      </trkpt>
      <trkpt lat="45.926759" lon="6.833211">
        <ele>2274.433</ele>
        <time>2018-07-12T11:39:01Z</time>
      </trkpt>
      <trkpt lat="45.926709" lon="6.833216">
        <ele>2276.728</ele>
        <time>2018-07-12T11:39:07Z</time>
      </trkpt>
      <trkpt lat="45.926662" lon="6.833191">
        <ele>2276.152</ele>
        <time>2018-07-12T11:39:16Z</time>
      </trkpt>
      <trkpt lat="45.926616" lon="6.833189">
        <ele>2276.758</ele>
        <time>2018-07-12T11:39:27Z</time>
      </trkpt>
      <trkpt lat="45.926558" lon="6.833184">
        <ele>2277.992</ele>
        <time>2018-07-12T11:39:36Z</time>
      </trkpt>
      <trkpt lat="45.926501" lon="6.833169">
        <ele>2277.373</ele>
        <time>2018-07-12T11:40:09Z</time>
      </trkpt>
      <trkpt lat="45.926514" lon="6.833231">
        <ele>2276.220</ele>
        <time>2018-07-12T11:41:49Z</time>
      </trkpt>
      <trkpt lat="45.926538" lon="6.833297">
        <ele>2277.108</ele>
        <time>2018-07-12T11:42:00Z</time>
      </trkpt>
      <trkpt lat="45.926544" lon="6.833366">
        <ele>2274.211</ele>
        <time>2018-07-12T11:42:14Z</time>
      </trkpt>
      <trkpt lat="45.926552" lon="6.833439">
        <ele>2274.695</ele>
        <time>2018-07-12T11:42:30Z</time>
      </trkpt>
      <trkpt lat="45.926591" lon="6.833486">
        <ele>2274.493</ele>
        <time>2018-07-12T11:42:34Z</time>
      </trkpt>
      <trkpt lat="45.926615" lon="6.833549">
        <ele>2270.962</ele>
        <time>2018-07-12T11:42:40Z</time>
      </trkpt>
      <trkpt lat="45.926609" lon="6.833614">
        <ele>2271.586</ele>
        <time>2018-07-12T11:42:53Z</time>
      </trkpt>
      <trkpt lat="45.926562" lon="6.833637">
        <ele>2269.131</ele>
        <time>2018-07-12T11:43:00Z</time>
      </trkpt>
      <trkpt lat="45.926516" lon="6.833653">
        <ele>2269.935</ele>
        <time>2018-07-12T11:43:08Z</time>
      </trkpt>
      <trkpt lat="45.926465" lon="6.833650">
        <ele>2267.071</ele>
        <time>2018-07-12T11:43:13Z</time>
      </trkpt>
      <trkpt lat="45.926422" lon="6.833608">
        <ele>2268.414</ele>
        <time>2018-07-12T11:43:19Z</time>
      </trkpt>
      <trkpt lat="45.926378" lon="6.833574">
        <ele>2268.154</ele>
        <time>2018-07-12T11:43:24Z</time>
      </trkpt>
      <trkpt lat="45.926344" lon="6.833530">
        <ele>2266.009</ele>
        <time>2018-07-12T11:43:29Z</time>
      </trkpt>
      <trkpt lat="45.926308" lon="6.833485">
        <ele>2266.508</ele>
        <time>2018-07-12T11:43:35Z</time>
      </trkpt>
      <trkpt lat="45.926265" lon="6.833442">
        <ele>2264.453</ele>
        <time>2018-07-12T11:43:40Z</time>
      </trkpt>
      <trkpt lat="45.926226" lon="6.833400">
        <ele>2264.097</ele>
        <time>2018-07-12T11:43:45Z</time>
      </trkpt>
      <trkpt lat="45.926183" lon="6.833367">
        <ele>2265.965</ele>
        <time>2018-07-12T11:43:51Z</time>
      </trkpt>
      <trkpt lat="45.926144" lon="6.833335">
        <ele>2263.884</ele>
        <time>2018-07-12T11:43:57Z</time>
      </trkpt>
      <trkpt lat="45.926103" lon="6.833300">
        <ele>2265.338</ele>
        <time>2018-07-12T11:44:03Z</time>
      </trkpt>
      <trkpt lat="45.926071" lon="6.833242">
        <ele>2263.923</ele>
        <time>2018-07-12T11:44:10Z</time>
      </trkpt>
      <trkpt lat="45.926028" lon="6.833202">
        <ele>2261.747</ele>
        <time>2018-07-12T11:44:16Z</time>
      </trkpt>
      <trkpt lat="45.925987" lon="6.833155">
        <ele>2261.153</ele>
        <time>2018-07-12T11:44:22Z</time>
      </trkpt>
      <trkpt lat="45.925950" lon="6.833104">
        <ele>2260.544</ele>
        <time>2018-07-12T11:44:29Z</time>
      </trkpt>
      <trkpt lat="45.925928" lon="6.833047">
        <ele>2259.505</ele>
        <time>2018-07-12T11:44:34Z</time>
      </trkpt>
      <trkpt lat="45.925901" lon="6.832991">
        <ele>2259.615</ele>
        <time>2018-07-12T11:44:39Z</time>
      </trkpt>
      <trkpt lat="45.925853" lon="6.832960">
        <ele>2259.008</ele>
        <time>2018-07-12T11:44:45Z</time>
      </trkpt>
      <trkpt lat="45.925817" lon="6.832920">
        <ele>2258.456</ele>
        <time>2018-07-12T11:44:50Z</time>
      </trkpt>
      <trkpt lat="45.925788" lon="6.832867">
        <ele>2257.850</ele>
        <time>2018-07-12T11:44:56Z</time>
      </trkpt>
      <trkpt lat="45.925748" lon="6.832835">
        <ele>2257.988</ele>
        <time>2018-07-12T11:45:01Z</time>
      </trkpt>
      <trkpt lat="45.925714" lon="6.832792">
        <ele>2258.567</ele>
        <time>2018-07-12T11:45:07Z</time>
      </trkpt>
      <trkpt lat="45.925701" lon="6.832727">
        <ele>2260.851</ele>
        <time>2018-07-12T11:45:42Z</time>
      </trkpt>
      <trkpt lat="45.925673" lon="6.832676">
        <ele>2259.526</ele>
        <time>2018-07-12T11:45:50Z</time>
      </trkpt>
      <trkpt lat="45.925632" lon="6.832638">
        <ele>2260.990</ele>
        <time>2018-07-12T11:45:59Z</time>
      </trkpt>
      <trkpt lat="45.925599" lon="6.832585">
        <ele>2260.456</ele>
        <time>2018-07-12T11:46:20Z</time>
      </trkpt>
      <trkpt lat="45.925597" lon="6.832516">
        <ele>2261.012</ele>
        <time>2018-07-12T11:46:27Z</time>
      </trkpt>
      <trkpt lat="45.925581" lon="6.832453">
        <ele>2261.232</ele>
        <time>2018-07-12T11:46:38Z</time>
      </trkpt>
      <trkpt lat="45.925565" lon="6.832380">
        <ele>2258.605</ele>
        <time>2018-07-12T11:46:46Z</time>
      </trkpt>
      <trkpt lat="45.925556" lon="6.832314">
        <ele>2258.208</ele>
        <time>2018-07-12T11:46:51Z</time>
      </trkpt>
      <trkpt lat="45.925538" lon="6.832251">
        <ele>2258.213</ele>
        <time>2018-07-12T11:46:57Z</time>
      </trkpt>
      <trkpt lat="45.925521" lon="6.832186">
        <ele>2259.437</ele>
        <time>2018-07-12T11:47:05Z</time>
      </trkpt>
      <trkpt lat="45.925492" lon="6.832128">
        <ele>2259.875</ele>
        <time>2018-07-12T11:47:11Z</time>
      </trkpt>
      <trkpt lat="45.925449" lon="6.832083">
        <ele>2259.984</ele>
        <time>2018-07-12T11:47:17Z</time>
      </trkpt>
      <trkpt lat="45.925409" lon="6.832041">
        <ele>2260.398</ele>
        <time>2018-07-12T11:47:22Z</time>
      </trkpt>
      <trkpt lat="45.925371" lon="6.832002">
        <ele>2260.133</ele>
        <time>2018-07-12T11:47:27Z</time>
      </trkpt>
      <trkpt lat="45.925326" lon="6.831966">
        <ele>2261.337</ele>
        <time>2018-07-12T11:47:34Z</time>
      </trkpt>
      <trkpt lat="45.925303" lon="6.831908">
        <ele>2260.963</ele>
        <time>2018-07-12T11:47:41Z</time>
      </trkpt>
      <trkpt lat="45.925327" lon="6.831853">
        <ele>2261.327</ele>
        <time>2018-07-12T11:47:48Z</time>
      </trkpt>
      <trkpt lat="45.925312" lon="6.831785">
        <ele>2261.568</ele>
        <time>2018-07-12T11:48:01Z</time>
      </trkpt>
      <trkpt lat="45.925281" lon="6.831732">
        <ele>2261.414</ele>
        <time>2018-07-12T11:48:06Z</time>
      </trkpt>
      <trkpt lat="45.925257" lon="6.831673">
        <ele>2260.908</ele>
        <time>2018-07-12T11:48:11Z</time>
      </trkpt>
      <trkpt lat="45.925235" lon="6.831616">
        <ele>2260.734</ele>
        <time>2018-07-12T11:48:16Z</time>
      </trkpt>
      <trkpt lat="45.925217" lon="6.831550">
        <ele>2260.738</ele>
        <time>2018-07-12T11:48:21Z</time>
      </trkpt>
      <trkpt lat="45.925182" lon="6.831491">
        <ele>2260.536</ele>
        <time>2018-07-12T11:48:26Z</time>
      </trkpt>
      <trkpt lat="45.925150" lon="6.831435">
        <ele>2260.385</ele>
        <time>2018-07-12T11:48:31Z</time>
      </trkpt>
      <trkpt lat="45.925126" lon="6.831373">
        <ele>2260.559</ele>
        <time>2018-07-12T11:48:36Z</time>
      </trkpt>
      <trkpt lat="45.925122" lon="6.831304">
        <ele>2259.694</ele>
        <time>2018-07-12T11:48:41Z</time>
      </trkpt>
      <trkpt lat="45.925111" lon="6.831236">
        <ele>2259.368</ele>
        <time>2018-07-12T11:48:47Z</time>
      </trkpt>
      <trkpt lat="45.925089" lon="6.831169">
        <ele>2259.424</ele>
        <time>2018-07-12T11:48:53Z</time>
      </trkpt>
      <trkpt lat="45.925058" lon="6.831109">
        <ele>2258.877</ele>
        <time>2018-07-12T11:49:02Z</time>
      </trkpt>
      <trkpt lat="45.925031" lon="6.831052">
        <ele>2257.761</ele>
        <time>2018-07-12T11:49:18Z</time>
      </trkpt>
      <trkpt lat="45.925019" lon="6.830988">
        <ele>2259.127</ele>
        <time>2018-07-12T11:49:26Z</time>
      </trkpt>
      <trkpt lat="45.925017" lon="6.830922">
        <ele>2257.908</ele>
        <time>2018-07-12T11:49:33Z</time>
      </trkpt>
      <trkpt lat="45.925024" lon="6.830855">
        <ele>2255.359</ele>
        <time>2018-07-12T11:49:39Z</time>
      </trkpt>
      <trkpt lat="45.925027" lon="6.830786">
        <ele>2255.863</ele>
        <time>2018-07-12T11:49:54Z</time>
      </trkpt>
      <trkpt lat="45.925016" lon="6.830721">
        <ele>2256.331</ele>
        <time>2018-07-12T11:50:01Z</time>
      </trkpt>
      <trkpt lat="45.925002" lon="6.830652">
        <ele>2258.450</ele>
        <time>2018-07-12T11:50:07Z</time>
      </trkpt>
      <trkpt lat="45.925006" lon="6.830586">
        <ele>2256.234</ele>
        <time>2018-07-12T11:50:12Z</time>
      </trkpt>
      <trkpt lat="45.925021" lon="6.830516">
        <ele>2256.199</ele>
        <time>2018-07-12T11:50:17Z</time>
      </trkpt>
      <trkpt lat="45.925042" lon="6.830454">
        <ele>2256.353</ele>
        <time>2018-07-12T11:50:22Z</time>
      </trkpt>
      <trkpt lat="45.925059" lon="6.830382">
        <ele>2256.099</ele>
        <time>2018-07-12T11:50:27Z</time>
      </trkpt>
      <trkpt lat="45.925075" lon="6.830312">
        <ele>2256.433</ele>
        <time>2018-07-12T11:50:32Z</time>
      </trkpt>
      <trkpt lat="45.925098" lon="6.830255">
        <ele>2257.723</ele>
        <time>2018-07-12T11:50:37Z</time>
      </trkpt>
      <trkpt lat="45.925120" lon="6.830198">
        <ele>2257.715</ele>
        <time>2018-07-12T11:50:41Z</time>
      </trkpt>
      <trkpt lat="45.925135" lon="6.830136">
        <ele>2257.308</ele>
        <time>2018-07-12T11:50:45Z</time>
      </trkpt>
      <trkpt lat="45.925135" lon="6.830063">
        <ele>2257.355</ele>
        <time>2018-07-12T11:50:50Z</time>
      </trkpt>
      <trkpt lat="45.925146" lon="6.829989">
        <ele>2254.719</ele>
        <time>2018-07-12T11:50:56Z</time>
      </trkpt>
      <trkpt lat="45.925151" lon="6.829914">
        <ele>2256.247</ele>
        <time>2018-07-12T11:51:02Z</time>
      </trkpt>
      <trkpt lat="45.925130" lon="6.829854">
        <ele>2255.196</ele>
        <time>2018-07-12T11:51:08Z</time>
      </trkpt>
      <trkpt lat="45.925107" lon="6.829798">
        <ele>2253.990</ele>
        <time>2018-07-12T11:51:16Z</time>
      </trkpt>
      <trkpt lat="45.925150" lon="6.829772">
        <ele>2252.675</ele>
        <time>2018-07-12T11:51:23Z</time>
      </trkpt>
      <trkpt lat="45.925200" lon="6.829765">
        <ele>2252.119</ele>
        <time>2018-07-12T11:51:29Z</time>
      </trkpt>
      <trkpt lat="45.925249" lon="6.829763">
        <ele>2251.655</ele>
        <time>2018-07-12T11:51:35Z</time>
      </trkpt>
      <trkpt lat="45.925290" lon="6.829732">
        <ele>2251.274</ele>
        <time>2018-07-12T11:51:42Z</time>
      </trkpt>
      <trkpt lat="45.925252" lon="6.829688">
        <ele>2250.356</ele>
        <time>2018-07-12T11:51:50Z</time>
      </trkpt>
      <trkpt lat="45.925204" lon="6.829665">
        <ele>2249.921</ele>
        <time>2018-07-12T11:51:56Z</time>
      </trkpt>
      <trkpt lat="45.925155" lon="6.829650">
        <ele>2249.108</ele>
        <time>2018-07-12T11:52:03Z</time>
      </trkpt>
      <trkpt lat="45.925110" lon="6.829618">
        <ele>2246.989</ele>
        <time>2018-07-12T11:52:09Z</time>
      </trkpt>
      <trkpt lat="45.925069" lon="6.829586">
        <ele>2246.183</ele>
        <time>2018-07-12T11:52:15Z</time>
      </trkpt>
      <trkpt lat="45.925025" lon="6.829562">
        <ele>2246.591</ele>
        <time>2018-07-12T11:52:24Z</time>
      </trkpt>
      <trkpt lat="45.924985" lon="6.829527">
        <ele>2245.360</ele>
        <time>2018-07-12T11:52:43Z</time>
      </trkpt>
      <trkpt lat="45.924958" lon="6.829468">
        <ele>2242.414</ele>
        <time>2018-07-12T11:52:52Z</time>
      </trkpt>
      <trkpt lat="45.924929" lon="6.829408">
        <ele>2241.579</ele>
        <time>2018-07-12T11:53:02Z</time>
      </trkpt>
      <trkpt lat="45.924903" lon="6.829353">
        <ele>2241.113</ele>
        <time>2018-07-12T11:53:11Z</time>
      </trkpt>
      <trkpt lat="45.924881" lon="6.829292">
        <ele>2239.629</ele>
        <time>2018-07-12T11:53:22Z</time>
      </trkpt>
      <trkpt lat="45.924859" lon="6.829228">
        <ele>2237.813</ele>
        <time>2018-07-12T11:53:32Z</time>
      </trkpt>
      <trkpt lat="45.924837" lon="6.829291">
        <ele>2235.143</ele>
        <time>2018-07-12T11:53:50Z</time>
      </trkpt>
      <trkpt lat="45.924791" lon="6.829302">
        <ele>2234.307</ele>
        <time>2018-07-12T11:53:57Z</time>
      </trkpt>
      <trkpt lat="45.924749" lon="6.829274">
        <ele>2235.508</ele>
        <time>2018-07-12T11:54:05Z</time>
      </trkpt>
      <trkpt lat="45.924700" lon="6.829271">
        <ele>2234.433</ele>
        <time>2018-07-12T11:54:15Z</time>
      </trkpt>
      <trkpt lat="45.924656" lon="6.829254">
        <ele>2232.527</ele>
        <time>2018-07-12T11:54:28Z</time>
      </trkpt>
      <trkpt lat="45.924611" lon="6.829243">
        <ele>2230.985</ele>
        <time>2018-07-12T11:54:39Z</time>
      </trkpt>
      <trkpt lat="45.924562" lon="6.829225">
        <ele>2227.744</ele>
        <time>2018-07-12T11:54:48Z</time>
      </trkpt>
      <trkpt lat="45.924517" lon="6.829220">
        <ele>2229.538</ele>
        <time>2018-07-12T11:54:53Z</time>
      </trkpt>
      <trkpt lat="45.924472" lon="6.829219">
        <ele>2229.523</ele>
        <time>2018-07-12T11:55:01Z</time>
      </trkpt>
      <trkpt lat="45.924421" lon="6.829211">
        <ele>2229.047</ele>
        <time>2018-07-12T11:55:08Z</time>
      </trkpt>
      <trkpt lat="45.924375" lon="6.829224">
        <ele>2226.053</ele>
        <time>2018-07-12T11:55:14Z</time>
      </trkpt>
      <trkpt lat="45.924327" lon="6.829218">
        <ele>2225.631</ele>
        <time>2018-07-12T11:55:22Z</time>
      </trkpt>
      <trkpt lat="45.924281" lon="6.829212">
        <ele>2225.361</ele>
        <time>2018-07-12T11:55:29Z</time>
      </trkpt>
      <trkpt lat="45.924235" lon="6.829224">
        <ele>2224.407</ele>
        <time>2018-07-12T11:55:35Z</time>
      </trkpt>
      <trkpt lat="45.924184" lon="6.829223">
        <ele>2223.608</ele>
        <time>2018-07-12T11:55:41Z</time>
      </trkpt>
      <trkpt lat="45.924136" lon="6.829237">
        <ele>2225.075</ele>
        <time>2018-07-12T11:55:48Z</time>
      </trkpt>
      <trkpt lat="45.924094" lon="6.829282">
        <ele>2221.719</ele>
        <time>2018-07-12T11:55:54Z</time>
      </trkpt>
      <trkpt lat="45.924048" lon="6.829300">
        <ele>2221.447</ele>
        <time>2018-07-12T11:56:00Z</time>
      </trkpt>
      <trkpt lat="45.924001" lon="6.829312">
        <ele>2222.816</ele>
        <time>2018-07-12T11:56:08Z</time>
      </trkpt>
      <trkpt lat="45.923961" lon="6.829352">
        <ele>2222.130</ele>
        <time>2018-07-12T11:56:15Z</time>
      </trkpt>
      <trkpt lat="45.923927" lon="6.829397">
        <ele>2221.515</ele>
        <time>2018-07-12T11:56:24Z</time>
      </trkpt>
      <trkpt lat="45.923903" lon="6.829454">
        <ele>2220.189</ele>
        <time>2018-07-12T11:56:34Z</time>
      </trkpt>
      <trkpt lat="45.923860" lon="6.829429">
        <ele>2215.845</ele>
        <time>2018-07-12T11:56:52Z</time>
      </trkpt>
      <trkpt lat="45.923840" lon="6.829359">
        <ele>2214.377</ele>
        <time>2018-07-12T11:57:02Z</time>
      </trkpt>
      <trkpt lat="45.923841" lon="6.829289">
        <ele>2216.361</ele>
        <time>2018-07-12T11:57:08Z</time>
      </trkpt>
      <trkpt lat="45.923851" lon="6.829223">
        <ele>2215.127</ele>
        <time>2018-07-12T11:57:14Z</time>
      </trkpt>
      <trkpt lat="45.923854" lon="6.829149">
        <ele>2215.208</ele>
        <time>2018-07-12T11:57:54Z</time>
      </trkpt>
      <trkpt lat="45.923881" lon="6.829070">
        <ele>2214.189</ele>
        <time>2018-07-12T11:58:35Z</time>
      </trkpt>
      <trkpt lat="45.923929" lon="6.829036">
        <ele>2211.683</ele>
        <time>2018-07-12T11:58:44Z</time>
      </trkpt>
      <trkpt lat="45.923973" lon="6.829008">
        <ele>2210.791</ele>
        <time>2018-07-12T11:58:49Z</time>
      </trkpt>
      <trkpt lat="45.924020" lon="6.828980">
        <ele>2209.820</ele>
        <time>2018-07-12T11:58:54Z</time>
      </trkpt>
      <trkpt lat="45.924065" lon="6.828954">
        <ele>2211.354</ele>
        <time>2018-07-12T11:58:59Z</time>
      </trkpt>
      <trkpt lat="45.924110" lon="6.828917">
        <ele>2210.719</ele>
        <time>2018-07-12T11:59:04Z</time>
      </trkpt>
      <trkpt lat="45.924152" lon="6.828868">
        <ele>2209.983</ele>
        <time>2018-07-12T11:59:10Z</time>
      </trkpt>
      <trkpt lat="45.924189" lon="6.828821">
        <ele>2209.599</ele>
        <time>2018-07-12T11:59:15Z</time>
      </trkpt>
      <trkpt lat="45.924232" lon="6.828790">
        <ele>2208.633</ele>
        <time>2018-07-12T11:59:21Z</time>
      </trkpt>
      <trkpt lat="45.924277" lon="6.828793">
        <ele>2206.423</ele>
        <time>2018-07-12T11:59:39Z</time>
      </trkpt>
      <trkpt lat="45.924325" lon="6.828800">
        <ele>2206.215</ele>
        <time>2018-07-12T11:59:51Z</time>
      </trkpt>
      <trkpt lat="45.924312" lon="6.828735">
        <ele>2205.808</ele>
        <time>2018-07-12T12:00:42Z</time>
      </trkpt>
      <trkpt lat="45.924271" lon="6.828705">
        <ele>2203.355</ele>
        <time>2018-07-12T12:01:01Z</time>
      </trkpt>
      <trkpt lat="45.924227" lon="6.828681">
        <ele>2202.799</ele>
        <time>2018-07-12T12:01:12Z</time>
      </trkpt>
      <trkpt lat="45.924198" lon="6.828627">
        <ele>2202.117</ele>
        <time>2018-07-12T12:01:23Z</time>
      </trkpt>
      <trkpt lat="45.924152" lon="6.828604">
        <ele>2203.116</ele>
        <time>2018-07-12T12:01:34Z</time>
      </trkpt>
      <trkpt lat="45.924121" lon="6.828556">
        <ele>2200.330</ele>
        <time>2018-07-12T12:01:46Z</time>
      </trkpt>
      <trkpt lat="45.924076" lon="6.828557">
        <ele>2198.885</ele>
        <time>2018-07-12T12:02:02Z</time>
      </trkpt>
      <trkpt lat="45.924028" lon="6.828537">
        <ele>2197.019</ele>
        <time>2018-07-12T12:02:13Z</time>
      </trkpt>
      <trkpt lat="45.923983" lon="6.828545">
        <ele>2196.415</ele>
        <time>2018-07-12T12:02:21Z</time>
      </trkpt>
      <trkpt lat="45.923936" lon="6.828526">
        <ele>2193.856</ele>
        <time>2018-07-12T12:02:39Z</time>
      </trkpt>
      <trkpt lat="45.923890" lon="6.828510">
        <ele>2192.659</ele>
        <time>2018-07-12T12:02:55Z</time>
      </trkpt>
      <trkpt lat="45.923846" lon="6.828493">
        <ele>2190.514</ele>
        <time>2018-07-12T12:03:10Z</time>
      </trkpt>
      <trkpt lat="45.923803" lon="6.828473">
        <ele>2189.208</ele>
        <time>2018-07-12T12:03:25Z</time>
      </trkpt>
      <trkpt lat="45.923759" lon="6.828462">
        <ele>2187.467</ele>
        <time>2018-07-12T12:03:42Z</time>
      </trkpt>
      <trkpt lat="45.923713" lon="6.828461">
        <ele>2185.751</ele>
        <time>2018-07-12T12:04:05Z</time>
      </trkpt>
      <trkpt lat="45.923669" lon="6.828479">
        <ele>2183.519</ele>
        <time>2018-07-12T12:04:31Z</time>
      </trkpt>
      <trkpt lat="45.923631" lon="6.828525">
        <ele>2183.398</ele>
        <time>2018-07-12T12:04:55Z</time>
      </trkpt>
      <trkpt lat="45.923597" lon="6.828576">
        <ele>2182.382</ele>
        <time>2018-07-12T12:05:11Z</time>
      </trkpt>
      <trkpt lat="45.923564" lon="6.828631">
        <ele>2181.467</ele>
        <time>2018-07-12T12:05:20Z</time>
      </trkpt>
      <trkpt lat="45.923522" lon="6.828678">
        <ele>2181.671</ele>
        <time>2018-07-12T12:05:26Z</time>
      </trkpt>
      <trkpt lat="45.923483" lon="6.828736">
        <ele>2181.237</ele>
        <time>2018-07-12T12:05:31Z</time>
      </trkpt>
      <trkpt lat="45.923460" lon="6.828795">
        <ele>2179.846</ele>
        <time>2018-07-12T12:05:36Z</time>
      </trkpt>
      <trkpt lat="45.923429" lon="6.828848">
        <ele>2178.988</ele>
        <time>2018-07-12T12:05:40Z</time>
      </trkpt>
      <trkpt lat="45.923404" lon="6.828903">
        <ele>2180.216</ele>
        <time>2018-07-12T12:05:45Z</time>
      </trkpt>
      <trkpt lat="45.923356" lon="6.828910">
        <ele>2179.008</ele>
        <time>2018-07-12T12:05:55Z</time>
      </trkpt>
      <trkpt lat="45.923322" lon="6.828860">
        <ele>2176.576</ele>
        <time>2018-07-12T12:06:01Z</time>
      </trkpt>
      <trkpt lat="45.923278" lon="6.828832">
        <ele>2175.980</ele>
        <time>2018-07-12T12:06:10Z</time>
      </trkpt>
      <trkpt lat="45.923234" lon="6.828808">
        <ele>2174.328</ele>
        <time>2018-07-12T12:06:34Z</time>
      </trkpt>
      <trkpt lat="45.923195" lon="6.828854">
        <ele>2172.757</ele>
        <time>2018-07-12T12:06:41Z</time>
      </trkpt>
      <trkpt lat="45.923162" lon="6.828902">
        <ele>2172.321</ele>
        <time>2018-07-12T12:06:47Z</time>
      </trkpt>
      <trkpt lat="45.923130" lon="6.828960">
        <ele>2169.286</ele>
        <time>2018-07-12T12:06:55Z</time>
      </trkpt>
      <trkpt lat="45.923107" lon="6.829023">
        <ele>2170.020</ele>
        <time>2018-07-12T12:07:02Z</time>
      </trkpt>
      <trkpt lat="45.923094" lon="6.829088">
        <ele>2169.356</ele>
        <time>2018-07-12T12:07:09Z</time>
      </trkpt>
      <trkpt lat="45.923094" lon="6.829157">
        <ele>2168.945</ele>
        <time>2018-07-12T12:07:14Z</time>
      </trkpt>
      <trkpt lat="45.923060" lon="6.829213">
        <ele>2168.247</ele>
        <time>2018-07-12T12:07:19Z</time>
      </trkpt>
      <trkpt lat="45.923025" lon="6.829257">
        <ele>2167.411</ele>
        <time>2018-07-12T12:07:23Z</time>
      </trkpt>
      <trkpt lat="45.922976" lon="6.829299">
        <ele>2166.908</ele>
        <time>2018-07-12T12:07:28Z</time>
      </trkpt>
      <trkpt lat="45.922927" lon="6.829338">
        <ele>2164.336</ele>
        <time>2018-07-12T12:07:33Z</time>
      </trkpt>
      <trkpt lat="45.922882" lon="6.829346">
        <ele>2164.010</ele>
        <time>2018-07-12T12:07:37Z</time>
      </trkpt>
      <trkpt lat="45.922838" lon="6.829328">
        <ele>2163.898</ele>
        <time>2018-07-12T12:07:42Z</time>
      </trkpt>
      <trkpt lat="45.922785" lon="6.829319">
        <ele>2164.257</ele>
        <time>2018-07-12T12:07:47Z</time>
      </trkpt>
      <trkpt lat="45.922734" lon="6.829317">
        <ele>2162.831</ele>
        <time>2018-07-12T12:07:53Z</time>
      </trkpt>
      <trkpt lat="45.922685" lon="6.829328">
        <ele>2164.246</ele>
        <time>2018-07-12T12:07:58Z</time>
      </trkpt>
      <trkpt lat="45.922635" lon="6.829347">
        <ele>2161.480</ele>
        <time>2018-07-12T12:08:03Z</time>
      </trkpt>
      <trkpt lat="45.922589" lon="6.829333">
        <ele>2160.686</ele>
        <time>2018-07-12T12:08:13Z</time>
      </trkpt>
      <trkpt lat="45.922550" lon="6.829377">
        <ele>2160.289</ele>
        <time>2018-07-12T12:08:37Z</time>
      </trkpt>
      <trkpt lat="45.922504" lon="6.829391">
        <ele>2158.106</ele>
        <time>2018-07-12T12:08:46Z</time>
      </trkpt>
      <trkpt lat="45.922455" lon="6.829389">
        <ele>2155.426</ele>
        <time>2018-07-12T12:09:02Z</time>
      </trkpt>
      <trkpt lat="45.922414" lon="6.829360">
        <ele>2154.608</ele>
        <time>2018-07-12T12:09:08Z</time>
      </trkpt>
      <trkpt lat="45.922367" lon="6.829359">
        <ele>2153.510</ele>
        <time>2018-07-12T12:09:13Z</time>
      </trkpt>
      <trkpt lat="45.922320" lon="6.829364">
        <ele>2152.464</ele>
        <time>2018-07-12T12:09:24Z</time>
      </trkpt>
      <trkpt lat="45.922276" lon="6.829400">
        <ele>2154.952</ele>
        <time>2018-07-12T12:09:46Z</time>
      </trkpt>
      <trkpt lat="45.922228" lon="6.829405">
        <ele>2150.361</ele>
        <time>2018-07-12T12:10:45Z</time>
      </trkpt>
      <trkpt lat="45.922186" lon="6.829437">
        <ele>2148.815</ele>
        <time>2018-07-12T12:10:57Z</time>
      </trkpt>
      <trkpt lat="45.922166" lon="6.829498">
        <ele>2146.920</ele>
        <time>2018-07-12T12:11:08Z</time>
      </trkpt>
      <trkpt lat="45.922140" lon="6.829553">
        <ele>2144.494</ele>
        <time>2018-07-12T12:11:21Z</time>
      </trkpt>
      <trkpt lat="45.922101" lon="6.829525">
        <ele>2142.390</ele>
        <time>2018-07-12T12:50:16Z</time>
      </trkpt>
      <trkpt lat="45.922098" lon="6.829459">
        <ele>2142.397</ele>
        <time>2018-07-12T12:50:28Z</time>
      </trkpt>
      <trkpt lat="45.922103" lon="6.829389">
        <ele>2143.123</ele>
        <time>2018-07-12T12:50:39Z</time>
      </trkpt>
      <trkpt lat="45.922114" lon="6.829319">
        <ele>2142.925</ele>
        <time>2018-07-12T12:50:46Z</time>
      </trkpt>
      <trkpt lat="45.922129" lon="6.829257">
        <ele>2142.708</ele>
        <time>2018-07-12T12:50:51Z</time>
      </trkpt>
      <trkpt lat="45.922153" lon="6.829191">
        <ele>2142.921</ele>
        <time>2018-07-12T12:50:56Z</time>
      </trkpt>
      <trkpt lat="45.922165" lon="6.829117">
        <ele>2142.455</ele>
        <time>2018-07-12T12:51:02Z</time>
      </trkpt>
      <trkpt lat="45.922184" lon="6.829049">
        <ele>2144.273</ele>
        <time>2018-07-12T12:51:08Z</time>
      </trkpt>
      <trkpt lat="45.922209" lon="6.828986">
        <ele>2143.012</ele>
        <time>2018-07-12T12:51:14Z</time>
      </trkpt>
      <trkpt lat="45.922201" lon="6.828915">
        <ele>2143.276</ele>
        <time>2018-07-12T12:51:20Z</time>
      </trkpt>
      <trkpt lat="45.922181" lon="6.828852">
        <ele>2139.651</ele>
        <time>2018-07-12T12:51:28Z</time>
      </trkpt>
      <trkpt lat="45.922149" lon="6.828798">
        <ele>2139.355</ele>
        <time>2018-07-12T12:51:34Z</time>
      </trkpt>
      <trkpt lat="45.922172" lon="6.828732">
        <ele>2137.841</ele>
        <time>2018-07-12T12:51:41Z</time>
      </trkpt>
      <trkpt lat="45.922202" lon="6.828683">
        <ele>2139.123</ele>
        <time>2018-07-12T12:51:50Z</time>
      </trkpt>
      <trkpt lat="45.922215" lon="6.828611">
        <ele>2138.483</ele>
        <time>2018-07-12T12:51:58Z</time>
      </trkpt>
      <trkpt lat="45.922235" lon="6.828548">
        <ele>2136.311</ele>
        <time>2018-07-12T12:52:06Z</time>
      </trkpt>
      <trkpt lat="45.922264" lon="6.828490">
        <ele>2135.808</ele>
        <time>2018-07-12T12:52:12Z</time>
      </trkpt>
      <trkpt lat="45.922296" lon="6.828443">
        <ele>2132.584</ele>
        <time>2018-07-12T12:52:18Z</time>
      </trkpt>
      <trkpt lat="45.922305" lon="6.828377">
        <ele>2129.168</ele>
        <time>2018-07-12T12:52:37Z</time>
      </trkpt>
      <trkpt lat="45.922307" lon="6.828294">
        <ele>2130.676</ele>
        <time>2018-07-12T12:53:37Z</time>
      </trkpt>
      <trkpt lat="45.922334" lon="6.828231">
        <ele>2127.965</ele>
        <time>2018-07-12T12:53:46Z</time>
      </trkpt>
      <trkpt lat="45.922323" lon="6.828168">
        <ele>2126.639</ele>
        <time>2018-07-12T12:53:54Z</time>
      </trkpt>
      <trkpt lat="45.922301" lon="6.828111">
        <ele>2125.284</ele>
        <time>2018-07-12T12:54:06Z</time>
      </trkpt>
      <trkpt lat="45.922273" lon="6.828173">
        <ele>2122.488</ele>
        <time>2018-07-12T12:54:24Z</time>
      </trkpt>
      <trkpt lat="45.922231" lon="6.828146">
        <ele>2119.694</ele>
        <time>2018-07-12T12:54:47Z</time>
      </trkpt>
      <trkpt lat="45.922213" lon="6.828082">
        <ele>2117.575</ele>
        <time>2018-07-12T12:54:59Z</time>
      </trkpt>
      <trkpt lat="45.922181" lon="6.828133">
        <ele>2115.328</ele>
        <time>2018-07-12T12:55:14Z</time>
      </trkpt>
      <trkpt lat="45.922148" lon="6.828087">
        <ele>2112.820</ele>
        <time>2018-07-12T12:55:37Z</time>
      </trkpt>
      <trkpt lat="45.922114" lon="6.828130">
        <ele>2109.908</ele>
        <time>2018-07-12T12:56:05Z</time>
      </trkpt>
      <trkpt lat="45.922083" lon="6.828079">
        <ele>2108.249</ele>
        <time>2018-07-12T12:56:29Z</time>
      </trkpt>
      <trkpt lat="45.922042" lon="6.828107">
        <ele>2105.713</ele>
        <time>2018-07-12T12:56:53Z</time>
      </trkpt>
      <trkpt lat="45.922039" lon="6.828041">
        <ele>2104.141</ele>
        <time>2018-07-12T12:57:12Z</time>
      </trkpt>
      <trkpt lat="45.922012" lon="6.827979">
        <ele>2101.230</ele>
        <time>2018-07-12T12:57:33Z</time>
      </trkpt>
      <trkpt lat="45.921973" lon="6.827947">
        <ele>2098.234</ele>
        <time>2018-07-12T12:58:02Z</time>
      </trkpt>
      <trkpt lat="45.921951" lon="6.828013">
        <ele>2097.019</ele>
        <time>2018-07-12T12:58:13Z</time>
      </trkpt>
      <trkpt lat="45.921934" lon="6.828074">
        <ele>2096.683</ele>
        <time>2018-07-12T12:58:19Z</time>
      </trkpt>
      <trkpt lat="45.921897" lon="6.828027">
        <ele>2094.249</ele>
        <time>2018-07-12T12:58:30Z</time>
      </trkpt>
      <trkpt lat="45.921889" lon="6.827963">
        <ele>2093.241</ele>
        <time>2018-07-12T12:58:36Z</time>
      </trkpt>
      <trkpt lat="45.921873" lon="6.827902">
        <ele>2092.081</ele>
        <time>2018-07-12T12:58:43Z</time>
      </trkpt>
      <trkpt lat="45.921831" lon="6.827877">
        <ele>2090.409</ele>
        <time>2018-07-12T12:58:58Z</time>
      </trkpt>
      <trkpt lat="45.921797" lon="6.827922">
        <ele>2087.708</ele>
        <time>2018-07-12T12:59:19Z</time>
      </trkpt>
      <trkpt lat="45.921749" lon="6.827899">
        <ele>2084.946</ele>
        <time>2018-07-12T12:59:34Z</time>
      </trkpt>
      <trkpt lat="45.921710" lon="6.827866">
        <ele>2085.420</ele>
        <time>2018-07-12T12:59:42Z</time>
      </trkpt>
      <trkpt lat="45.921674" lon="6.827827">
        <ele>2083.318</ele>
        <time>2018-07-12T12:59:53Z</time>
      </trkpt>
      <trkpt lat="45.921634" lon="6.827862">
        <ele>2080.647</ele>
        <time>2018-07-12T13:00:12Z</time>
      </trkpt>
      <trkpt lat="45.921599" lon="6.827907">
        <ele>2078.411</ele>
        <time>2018-07-12T13:00:29Z</time>
      </trkpt>
      <trkpt lat="45.921581" lon="6.827968">
        <ele>2076.926</ele>
        <time>2018-07-12T13:00:38Z</time>
      </trkpt>
      <trkpt lat="45.921566" lon="6.828036">
        <ele>2075.870</ele>
        <time>2018-07-12T13:00:47Z</time>
      </trkpt>
      <trkpt lat="45.921541" lon="6.828090">
        <ele>2074.556</ele>
        <time>2018-07-12T13:00:56Z</time>
      </trkpt>
      <trkpt lat="45.921494" lon="6.828066">
        <ele>2072.386</ele>
        <time>2018-07-12T13:01:17Z</time>
      </trkpt>
      <trkpt lat="45.921450" lon="6.828104">
        <ele>2072.260</ele>
        <time>2018-07-12T13:01:23Z</time>
      </trkpt>
      <trkpt lat="45.921408" lon="6.828126">
        <ele>2071.426</ele>
        <time>2018-07-12T13:01:28Z</time>
      </trkpt>
      <trkpt lat="45.921364" lon="6.828150">
        <ele>2068.208</ele>
        <time>2018-07-12T13:01:38Z</time>
      </trkpt>
      <trkpt lat="45.921332" lon="6.828096">
        <ele>2067.080</ele>
        <time>2018-07-12T13:01:46Z</time>
      </trkpt>
      <trkpt lat="45.921332" lon="6.828019">
        <ele>2065.874</ele>
        <time>2018-07-12T13:01:53Z</time>
      </trkpt>
      <trkpt lat="45.921357" lon="6.827951">
        <ele>2064.522</ele>
        <time>2018-07-12T13:01:59Z</time>
      </trkpt>
      <trkpt lat="45.921369" lon="6.827876">
        <ele>2063.641</ele>
        <time>2018-07-12T13:02:05Z</time>
      </trkpt>
      <trkpt lat="45.921368" lon="6.827810">
        <ele>2062.735</ele>
        <time>2018-07-12T13:02:11Z</time>
      </trkpt>
      <trkpt lat="45.921363" lon="6.827738">
        <ele>2061.290</ele>
        <time>2018-07-12T13:02:18Z</time>
      </trkpt>
      <trkpt lat="45.921338" lon="6.827675">
        <ele>2059.194</ele>
        <time>2018-07-12T13:02:26Z</time>
      </trkpt>
      <trkpt lat="45.921298" lon="6.827633">
        <ele>2058.090</ele>
        <time>2018-07-12T13:02:33Z</time>
      </trkpt>
      <trkpt lat="45.921259" lon="6.827584">
        <ele>2057.577</ele>
        <time>2018-07-12T13:02:39Z</time>
      </trkpt>
      <trkpt lat="45.921236" lon="6.827528">
        <ele>2058.861</ele>
        <time>2018-07-12T13:02:44Z</time>
      </trkpt>
      <trkpt lat="45.921224" lon="6.827459">
        <ele>2055.727</ele>
        <time>2018-07-12T13:02:50Z</time>
      </trkpt>
      <trkpt lat="45.921208" lon="6.827398">
        <ele>2054.808</ele>
        <time>2018-07-12T13:02:56Z</time>
      </trkpt>
      <trkpt lat="45.921199" lon="6.827334">
        <ele>2053.359</ele>
        <time>2018-07-12T13:03:02Z</time>
      </trkpt>
      <trkpt lat="45.921177" lon="6.827270">
        <ele>2052.643</ele>
        <time>2018-07-12T13:03:11Z</time>
      </trkpt>
      <trkpt lat="45.921152" lon="6.827210">
        <ele>2052.291</ele>
        <time>2018-07-12T13:03:19Z</time>
      </trkpt>
      <trkpt lat="45.921119" lon="6.827160">
        <ele>2049.930</ele>
        <time>2018-07-12T13:03:28Z</time>
      </trkpt>
      <trkpt lat="45.921103" lon="6.827229">
        <ele>2050.844</ele>
        <time>2018-07-12T13:03:40Z</time>
      </trkpt>
      <trkpt lat="45.921103" lon="6.827296">
        <ele>2047.469</ele>
        <time>2018-07-12T13:03:48Z</time>
      </trkpt>
      <trkpt lat="45.921057" lon="6.827274">
        <ele>2045.943</ele>
        <time>2018-07-12T13:04:03Z</time>
      </trkpt>
      <trkpt lat="45.921019" lon="6.827230">
        <ele>2043.969</ele>
        <time>2018-07-12T13:04:13Z</time>
      </trkpt>
      <trkpt lat="45.920986" lon="6.827182">
        <ele>2042.239</ele>
        <time>2018-07-12T13:04:22Z</time>
      </trkpt>
      <trkpt lat="45.920939" lon="6.827163">
        <ele>2040.901</ele>
        <time>2018-07-12T13:04:32Z</time>
      </trkpt>
      <trkpt lat="45.920893" lon="6.827160">
        <ele>2039.721</ele>
        <time>2018-07-12T13:04:38Z</time>
      </trkpt>
      <trkpt lat="45.920852" lon="6.827127">
        <ele>2038.908</ele>
        <time>2018-07-12T13:04:46Z</time>
      </trkpt>
      <trkpt lat="45.920812" lon="6.827096">
        <ele>2038.395</ele>
        <time>2018-07-12T13:04:55Z</time>
      </trkpt>
      <trkpt lat="45.920769" lon="6.827116">
        <ele>2038.099</ele>
        <time>2018-07-12T13:05:04Z</time>
      </trkpt>
      <trkpt lat="45.920727" lon="6.827144">
        <ele>2034.997</ele>
        <time>2018-07-12T13:05:16Z</time>
      </trkpt>
      <trkpt lat="45.920681" lon="6.827128">
        <ele>2034.366</ele>
        <time>2018-07-12T13:05:26Z</time>
      </trkpt>
      <trkpt lat="45.920631" lon="6.827102">
        <ele>2032.630</ele>
        <time>2018-07-12T13:05:34Z</time>
      </trkpt>
      <trkpt lat="45.920588" lon="6.827075">
        <ele>2031.915</ele>
        <time>2018-07-12T13:05:40Z</time>
      </trkpt>
      <trkpt lat="45.920579" lon="6.827008">
        <ele>2031.839</ele>
        <time>2018-07-12T13:05:51Z</time>
      </trkpt>
      <trkpt lat="45.920587" lon="6.826941">
        <ele>2030.595</ele>
        <time>2018-07-12T13:05:59Z</time>
      </trkpt>
      <trkpt lat="45.920585" lon="6.826868">
        <ele>2031.518</ele>
        <time>2018-07-12T13:07:13Z</time>
      </trkpt>
      <trkpt lat="45.920542" lon="6.826892">
        <ele>2029.698</ele>
        <time>2018-07-12T13:08:23Z</time>
      </trkpt>
      <trkpt lat="45.920496" lon="6.826891">
        <ele>2029.017</ele>
        <time>2018-07-12T13:08:49Z</time>
      </trkpt>
      <trkpt lat="45.920455" lon="6.826924">
        <ele>2025.708</ele>
        <time>2018-07-12T13:09:10Z</time>
      </trkpt>
      <trkpt lat="45.920406" lon="6.826920">
        <ele>2024.083</ele>
        <time>2018-07-12T13:09:18Z</time>
      </trkpt>
      <trkpt lat="45.920370" lon="6.826879">
        <ele>2025.017</ele>
        <time>2018-07-12T13:09:24Z</time>
      </trkpt>
      <trkpt lat="45.920330" lon="6.826849">
        <ele>2021.435</ele>
        <time>2018-07-12T13:09:34Z</time>
      </trkpt>
      <trkpt lat="45.920355" lon="6.826908">
        <ele>2018.034</ele>
        <time>2018-07-12T13:10:06Z</time>
      </trkpt>
      <trkpt lat="45.920374" lon="6.826971">
        <ele>2017.268</ele>
        <time>2018-07-12T13:10:13Z</time>
      </trkpt>
      <trkpt lat="45.920335" lon="6.827016">
        <ele>2017.873</ele>
        <time>2018-07-12T13:10:28Z</time>
      </trkpt>
      <trkpt lat="45.920293" lon="6.826991">
        <ele>2014.577</ele>
        <time>2018-07-12T13:10:35Z</time>
      </trkpt>
      <trkpt lat="45.920250" lon="6.826954">
        <ele>2015.563</ele>
        <time>2018-07-12T13:10:46Z</time>
      </trkpt>
      <trkpt lat="45.920211" lon="6.826912">
        <ele>2012.075</ele>
        <time>2018-07-12T13:10:55Z</time>
      </trkpt>
      <trkpt lat="45.920181" lon="6.826966">
        <ele>2009.228</ele>
        <time>2018-07-12T13:11:20Z</time>
      </trkpt>
      <trkpt lat="45.920210" lon="6.827027">
        <ele>2007.920</ele>
        <time>2018-07-12T13:11:29Z</time>
      </trkpt>
      <trkpt lat="45.920223" lon="6.827098">
        <ele>2010.108</ele>
        <time>2018-07-12T13:11:37Z</time>
      </trkpt>
      <trkpt lat="45.920179" lon="6.827118">
        <ele>2004.989</ele>
        <time>2018-07-12T13:12:06Z</time>
      </trkpt>
      <trkpt lat="45.920146" lon="6.827074">
        <ele>2004.593</ele>
        <time>2018-07-12T13:12:15Z</time>
      </trkpt>
      <trkpt lat="45.920127" lon="6.827135">
        <ele>2000.061</ele>
        <time>2018-07-12T13:12:47Z</time>
      </trkpt>
      <trkpt lat="45.920112" lon="6.827198">
        <ele>1998.380</ele>
        <time>2018-07-12T13:12:57Z</time>
      </trkpt>
      <trkpt lat="45.920070" lon="6.827173">
        <ele>1997.464</ele>
        <time>2018-07-12T13:13:07Z</time>
      </trkpt>
      <trkpt lat="45.920024" lon="6.827164">
        <ele>1994.029</ele>
        <time>2018-07-12T13:13:31Z</time>
      </trkpt>
      <trkpt lat="45.919979" lon="6.827125">
        <ele>1990.683</ele>
        <time>2018-07-12T13:14:07Z</time>
      </trkpt>
      <trkpt lat="45.919937" lon="6.827086">
        <ele>1989.129</ele>
        <time>2018-07-12T13:14:15Z</time>
      </trkpt>
      <trkpt lat="45.919893" lon="6.827100">
        <ele>1990.118</ele>
        <time>2018-07-12T13:14:24Z</time>
      </trkpt>
      <trkpt lat="45.919907" lon="6.827165">
        <ele>1986.898</ele>
        <time>2018-07-12T13:14:38Z</time>
      </trkpt>
      <trkpt lat="45.919921" lon="6.827227">
        <ele>1985.417</ele>
        <time>2018-07-12T13:14:45Z</time>
      </trkpt>
      <trkpt lat="45.919940" lon="6.827286">
        <ele>1984.208</ele>
        <time>2018-07-12T13:14:54Z</time>
      </trkpt>
      <trkpt lat="45.919943" lon="6.827351">
        <ele>1984.363</ele>
        <time>2018-07-12T13:15:03Z</time>
      </trkpt>
      <trkpt lat="45.919987" lon="6.827381">
        <ele>1983.477</ele>
        <time>2018-07-12T13:15:12Z</time>
      </trkpt>
      <trkpt lat="45.920019" lon="6.827432">
        <ele>1981.365</ele>
        <time>2018-07-12T13:15:26Z</time>
      </trkpt>
      <trkpt lat="45.919996" lon="6.827488">
        <ele>1979.724</ele>
        <time>2018-07-12T13:15:36Z</time>
      </trkpt>
      <trkpt lat="45.919982" lon="6.827553">
        <ele>1974.698</ele>
        <time>2018-07-12T13:16:20Z</time>
      </trkpt>
      <trkpt lat="45.919950" lon="6.827600">
        <ele>1973.073</ele>
        <time>2018-07-12T13:16:33Z</time>
      </trkpt>
      <trkpt lat="45.919904" lon="6.827589">
        <ele>1970.797</ele>
        <time>2018-07-12T13:16:48Z</time>
      </trkpt>
      <trkpt lat="45.919857" lon="6.827601">
        <ele>1969.483</ele>
        <time>2018-07-12T13:17:00Z</time>
      </trkpt>
      <trkpt lat="45.919820" lon="6.827560">
        <ele>1967.918</ele>
        <time>2018-07-12T13:17:11Z</time>
      </trkpt>
      <trkpt lat="45.919771" lon="6.827541">
        <ele>1966.798</ele>
        <time>2018-07-12T13:17:19Z</time>
      </trkpt>
      <trkpt lat="45.919737" lon="6.827497">
        <ele>1966.917</ele>
        <time>2018-07-12T13:17:25Z</time>
      </trkpt>
      <trkpt lat="45.919702" lon="6.827454">
        <ele>1964.508</ele>
        <time>2018-07-12T13:17:31Z</time>
      </trkpt>
      <trkpt lat="45.919671" lon="6.827405">
        <ele>1963.193</ele>
        <time>2018-07-12T13:17:39Z</time>
      </trkpt>
      <trkpt lat="45.919643" lon="6.827351">
        <ele>1962.747</ele>
        <time>2018-07-12T13:17:46Z</time>
      </trkpt>
      <trkpt lat="45.919606" lon="6.827308">
        <ele>1960.325</ele>
        <time>2018-07-12T13:17:58Z</time>
      </trkpt>
      <trkpt lat="45.919565" lon="6.827266">
        <ele>1961.794</ele>
        <time>2018-07-12T13:18:05Z</time>
      </trkpt>
      <trkpt lat="45.919532" lon="6.827220">
        <ele>1959.238</ele>
        <time>2018-07-12T13:18:10Z</time>
      </trkpt>
      <trkpt lat="45.919506" lon="6.827166">
        <ele>1959.733</ele>
        <time>2018-07-12T13:18:17Z</time>
      </trkpt>
      <trkpt lat="45.919466" lon="6.827122">
        <ele>1962.357</ele>
        <time>2018-07-12T13:18:26Z</time>
      </trkpt>
      <trkpt lat="45.919422" lon="6.827105">
        <ele>1961.293</ele>
        <time>2018-07-12T13:18:35Z</time>
      </trkpt>
      <trkpt lat="45.919378" lon="6.827085">
        <ele>1959.882</ele>
        <time>2018-07-12T13:18:47Z</time>
      </trkpt>
      <trkpt lat="45.919338" lon="6.827045">
        <ele>1958.243</ele>
        <time>2018-07-12T13:18:54Z</time>
      </trkpt>
      <trkpt lat="45.919300" lon="6.827006">
        <ele>1959.017</ele>
        <time>2018-07-12T13:19:04Z</time>
      </trkpt>
      <trkpt lat="45.919258" lon="6.826981">
        <ele>1956.108</ele>
        <time>2018-07-12T13:19:12Z</time>
      </trkpt>
      <trkpt lat="45.919212" lon="6.826978">
        <ele>1955.360</ele>
        <time>2018-07-12T13:19:19Z</time>
      </trkpt>
      <trkpt lat="45.919168" lon="6.827004">
        <ele>1957.374</ele>
        <time>2018-07-12T13:19:24Z</time>
      </trkpt>
      <trkpt lat="45.919126" lon="6.827045">
        <ele>1954.842</ele>
        <time>2018-07-12T13:19:30Z</time>
      </trkpt>
      <trkpt lat="45.919083" lon="6.827067">
        <ele>1952.721</ele>
        <time>2018-07-12T13:19:38Z</time>
      </trkpt>
      <trkpt lat="45.919122" lon="6.827098">
        <ele>1950.335</ele>
        <time>2018-07-12T13:19:57Z</time>
      </trkpt>
      <trkpt lat="45.919092" lon="6.827150">
        <ele>1950.260</ele>
        <time>2018-07-12T13:20:07Z</time>
      </trkpt>
      <trkpt lat="45.919048" lon="6.827181">
        <ele>1948.374</ele>
        <time>2018-07-12T13:20:15Z</time>
      </trkpt>
      <trkpt lat="45.919002" lon="6.827183">
        <ele>1947.680</ele>
        <time>2018-07-12T13:20:21Z</time>
      </trkpt>
      <trkpt lat="45.918957" lon="6.827183">
        <ele>1949.693</ele>
        <time>2018-07-12T13:20:26Z</time>
      </trkpt>
      <trkpt lat="45.918910" lon="6.827202">
        <ele>1946.465</ele>
        <time>2018-07-12T13:20:31Z</time>
      </trkpt>
      <trkpt lat="45.918869" lon="6.827233">
        <ele>1945.921</ele>
        <time>2018-07-12T13:20:36Z</time>
      </trkpt>
      <trkpt lat="45.918822" lon="6.827253">
        <ele>1945.008</ele>
        <time>2018-07-12T13:20:41Z</time>
      </trkpt>
      <trkpt lat="45.918778" lon="6.827273">
        <ele>1945.851</ele>
        <time>2018-07-12T13:20:46Z</time>
      </trkpt>
      <trkpt lat="45.918731" lon="6.827301">
        <ele>1943.495</ele>
        <time>2018-07-12T13:20:52Z</time>
      </trkpt>
      <trkpt lat="45.918680" lon="6.827326">
        <ele>1942.413</ele>
        <time>2018-07-12T13:20:58Z</time>
      </trkpt>
      <trkpt lat="45.918631" lon="6.827314">
        <ele>1944.572</ele>
        <time>2018-07-12T13:21:03Z</time>
      </trkpt>
      <trkpt lat="45.918582" lon="6.827321">
        <ele>1945.216</ele>
        <time>2018-07-12T13:21:15Z</time>
      </trkpt>
      <trkpt lat="45.918530" lon="6.827316">
        <ele>1944.841</ele>
        <time>2018-07-12T13:21:33Z</time>
      </trkpt>
      <trkpt lat="45.918479" lon="6.827325">
        <ele>1945.115</ele>
        <time>2018-07-12T13:21:35Z</time>
      </trkpt>
      <trkpt lat="45.918427" lon="6.827320">
        <ele>1941.991</ele>
        <time>2018-07-12T13:21:41Z</time>
      </trkpt>
      <trkpt lat="45.918379" lon="6.827311">
        <ele>1943.811</ele>
        <time>2018-07-12T13:21:47Z</time>
      </trkpt>
      <trkpt lat="45.918332" lon="6.827303">
        <ele>1939.921</ele>
        <time>2018-07-12T13:21:58Z</time>
      </trkpt>
      <trkpt lat="45.918285" lon="6.827302">
        <ele>1941.403</ele>
        <time>2018-07-12T13:22:06Z</time>
      </trkpt>
      <trkpt lat="45.918237" lon="6.827285">
        <ele>1937.208</ele>
        <time>2018-07-12T13:22:15Z</time>
      </trkpt>
      <trkpt lat="45.918189" lon="6.827263">
        <ele>1935.913</ele>
        <time>2018-07-12T13:22:22Z</time>
      </trkpt>
      <trkpt lat="45.918143" lon="6.827229">
        <ele>1937.287</ele>
        <time>2018-07-12T13:22:30Z</time>
      </trkpt>
      <trkpt lat="45.918114" lon="6.827282">
        <ele>1929.875</ele>
        <time>2018-07-12T13:23:04Z</time>
      </trkpt>
      <trkpt lat="45.918066" lon="6.827262">
        <ele>1927.834</ele>
        <time>2018-07-12T13:23:14Z</time>
      </trkpt>
      <trkpt lat="45.918015" lon="6.827244">
        <ele>1926.138</ele>
        <time>2018-07-12T13:23:22Z</time>
      </trkpt>
      <trkpt lat="45.917969" lon="6.827257">
        <ele>1925.723</ele>
        <time>2018-07-12T13:23:27Z</time>
      </trkpt>
      <trkpt lat="45.917923" lon="6.827266">
        <ele>1925.657</ele>
        <time>2018-07-12T13:23:32Z</time>
      </trkpt>
      <trkpt lat="45.917874" lon="6.827282">
        <ele>1924.873</ele>
        <time>2018-07-12T13:23:39Z</time>
      </trkpt>
      <trkpt lat="45.917837" lon="6.827324">
        <ele>1926.525</ele>
        <time>2018-07-12T13:23:44Z</time>
      </trkpt>
      <trkpt lat="45.917799" lon="6.827367">
        <ele>1923.026</ele>
        <time>2018-07-12T13:23:55Z</time>
      </trkpt>
      <trkpt lat="45.917767" lon="6.827417">
        <ele>1922.008</ele>
        <time>2018-07-12T13:24:02Z</time>
      </trkpt>
      <trkpt lat="45.917722" lon="6.827441">
        <ele>1920.808</ele>
        <time>2018-07-12T13:24:12Z</time>
      </trkpt>
      <trkpt lat="45.917673" lon="6.827455">
        <ele>1919.874</ele>
        <time>2018-07-12T13:24:22Z</time>
      </trkpt>
      <trkpt lat="45.917626" lon="6.827462">
        <ele>1918.958</ele>
        <time>2018-07-12T13:24:32Z</time>
      </trkpt>
      <trkpt lat="45.917588" lon="6.827507">
        <ele>1918.026</ele>
        <time>2018-07-12T13:24:39Z</time>
      </trkpt>
      <trkpt lat="45.917542" lon="6.827526">
        <ele>1920.035</ele>
        <time>2018-07-12T13:24:44Z</time>
      </trkpt>
      <trkpt lat="45.917493" lon="6.827526">
        <ele>1920.389</ele>
        <time>2018-07-12T13:24:49Z</time>
      </trkpt>
      <trkpt lat="45.917445" lon="6.827517">
        <ele>1921.134</ele>
        <time>2018-07-12T13:24:54Z</time>
      </trkpt>
      <trkpt lat="45.917394" lon="6.827504">
        <ele>1920.888</ele>
        <time>2018-07-12T13:25:03Z</time>
      </trkpt>
      <trkpt lat="45.917359" lon="6.827461">
        <ele>1921.744</ele>
        <time>2018-07-12T13:25:15Z</time>
      </trkpt>
      <trkpt lat="45.917316" lon="6.827501">
        <ele>1921.843</ele>
        <time>2018-07-12T13:25:31Z</time>
      </trkpt>
      <trkpt lat="45.917268" lon="6.827518">
        <ele>1920.464</ele>
        <time>2018-07-12T13:25:42Z</time>
      </trkpt>
      <trkpt lat="45.917221" lon="6.827495">
        <ele>1919.610</ele>
        <time>2018-07-12T13:25:50Z</time>
      </trkpt>
      <trkpt lat="45.917180" lon="6.827455">
        <ele>1919.908</ele>
        <time>2018-07-12T13:25:59Z</time>
      </trkpt>
      <trkpt lat="45.917134" lon="6.827424">
        <ele>1917.486</ele>
        <time>2018-07-12T13:26:27Z</time>
      </trkpt>
      <trkpt lat="45.917099" lon="6.827379">
        <ele>1918.880</ele>
        <time>2018-07-12T13:26:38Z</time>
      </trkpt>
      <trkpt lat="45.917068" lon="6.827467">
        <ele>1916.598</ele>
        <time>2018-07-12T13:28:14Z</time>
      </trkpt>
      <trkpt lat="45.917032" lon="6.827417">
        <ele>1912.857</ele>
        <time>2018-07-12T13:28:43Z</time>
      </trkpt>
      <trkpt lat="45.916998" lon="6.827366">
        <ele>1911.021</ele>
        <time>2018-07-12T13:28:57Z</time>
      </trkpt>
      <trkpt lat="45.916953" lon="6.827394">
        <ele>1908.866</ele>
        <time>2018-07-12T13:29:19Z</time>
      </trkpt>
      <trkpt lat="45.916924" lon="6.827450">
        <ele>1907.060</ele>
        <time>2018-07-12T13:29:30Z</time>
      </trkpt>
      <trkpt lat="45.916880" lon="6.827466">
        <ele>1905.926</ele>
        <time>2018-07-12T13:29:37Z</time>
      </trkpt>
      <trkpt lat="45.916836" lon="6.827453">
        <ele>1906.422</ele>
        <time>2018-07-12T13:29:46Z</time>
      </trkpt>
      <trkpt lat="45.916786" lon="6.827449">
        <ele>1900.462</ele>
        <time>2018-07-12T13:30:07Z</time>
      </trkpt>
      <trkpt lat="45.916751" lon="6.827407">
        <ele>1901.108</ele>
        <time>2018-07-12T13:30:30Z</time>
      </trkpt>
      <trkpt lat="45.916698" lon="6.827391">
        <ele>1899.908</ele>
        <time>2018-07-12T13:30:40Z</time>
      </trkpt>
      <trkpt lat="45.916683" lon="6.827457">
        <ele>1894.984</ele>
        <time>2018-07-12T13:31:12Z</time>
      </trkpt>
      <trkpt lat="45.916669" lon="6.827530">
        <ele>1891.818</ele>
        <time>2018-07-12T13:31:26Z</time>
      </trkpt>
      <trkpt lat="45.916664" lon="6.827599">
        <ele>1891.176</ele>
        <time>2018-07-12T13:31:34Z</time>
      </trkpt>
      <trkpt lat="45.916622" lon="6.827577">
        <ele>1888.235</ele>
        <time>2018-07-12T13:31:59Z</time>
      </trkpt>
      <trkpt lat="45.916588" lon="6.827623">
        <ele>1883.679</ele>
        <time>2018-07-12T13:32:33Z</time>
      </trkpt>
      <trkpt lat="45.916546" lon="6.827659">
        <ele>1881.654</ele>
        <time>2018-07-12T13:32:53Z</time>
      </trkpt>
      <trkpt lat="45.916511" lon="6.827707">
        <ele>1881.298</ele>
        <time>2018-07-12T13:33:18Z</time>
      </trkpt>
      <trkpt lat="45.916514" lon="6.827780">
        <ele>1879.834</ele>
        <time>2018-07-12T13:33:27Z</time>
      </trkpt>
      <trkpt lat="45.916469" lon="6.827772">
        <ele>1876.292</ele>
        <time>2018-07-12T13:33:45Z</time>
      </trkpt>
      <trkpt lat="45.916419" lon="6.827757">
        <ele>1875.973</ele>
        <time>2018-07-12T13:33:52Z</time>
      </trkpt>
      <trkpt lat="45.916405" lon="6.827692">
        <ele>1872.020</ele>
        <time>2018-07-12T13:34:07Z</time>
      </trkpt>
      <trkpt lat="45.916405" lon="6.827620">
        <ele>1870.608</ele>
        <time>2018-07-12T13:34:16Z</time>
      </trkpt>
      <trkpt lat="45.916371" lon="6.827572">
        <ele>1870.761</ele>
        <time>2018-07-12T13:34:23Z</time>
      </trkpt>
      <trkpt lat="45.916327" lon="6.827595">
        <ele>1867.235</ele>
        <time>2018-07-12T13:34:52Z</time>
      </trkpt>
      <trkpt lat="45.916283" lon="6.827565">
        <ele>1864.233</ele>
        <time>2018-07-12T13:35:07Z</time>
      </trkpt>
      <trkpt lat="45.916262" lon="6.827502">
        <ele>1863.012</ele>
        <time>2018-07-12T13:35:20Z</time>
      </trkpt>
      <trkpt lat="45.916248" lon="6.827434">
        <ele>1862.086</ele>
        <time>2018-07-12T13:35:25Z</time>
      </trkpt>
      <trkpt lat="45.916218" lon="6.827376">
        <ele>1860.851</ele>
        <time>2018-07-12T13:35:30Z</time>
      </trkpt>
      <trkpt lat="45.916173" lon="6.827384">
        <ele>1858.095</ele>
        <time>2018-07-12T13:36:05Z</time>
      </trkpt>
      <trkpt lat="45.916130" lon="6.827349">
        <ele>1855.681</ele>
        <time>2018-07-12T13:36:16Z</time>
      </trkpt>
      <trkpt lat="45.916084" lon="6.827337">
        <ele>1849.321</ele>
        <time>2018-07-12T13:36:59Z</time>
      </trkpt>
      <trkpt lat="45.916065" lon="6.827276">
        <ele>1851.541</ele>
        <time>2018-07-12T13:37:09Z</time>
      </trkpt>
      <trkpt lat="45.916027" lon="6.827237">
        <ele>1847.305</ele>
        <time>2018-07-12T13:37:24Z</time>
      </trkpt>
      <trkpt lat="45.916009" lon="6.827176">
        <ele>1846.708</ele>
        <time>2018-07-12T13:37:43Z</time>
      </trkpt>
      <trkpt lat="45.915972" lon="6.827125">
        <ele>1844.324</ele>
        <time>2018-07-12T13:37:52Z</time>
      </trkpt>
      <trkpt lat="45.915934" lon="6.827090">
        <ele>1840.988</ele>
        <time>2018-07-12T13:38:00Z</time>
      </trkpt>
      <trkpt lat="45.915890" lon="6.827072">
        <ele>1840.716</ele>
        <time>2018-07-12T13:38:09Z</time>
      </trkpt>
      <trkpt lat="45.915868" lon="6.827006">
        <ele>1840.115</ele>
        <time>2018-07-12T13:38:16Z</time>
      </trkpt>
      <trkpt lat="45.915860" lon="6.826935">
        <ele>1838.829</ele>
        <time>2018-07-12T13:38:25Z</time>
      </trkpt>
      <trkpt lat="45.915848" lon="6.826870">
        <ele>1836.834</ele>
        <time>2018-07-12T13:38:34Z</time>
      </trkpt>
      <trkpt lat="45.915803" lon="6.826835">
        <ele>1835.038</ele>
        <time>2018-07-12T13:38:51Z</time>
      </trkpt>
      <trkpt lat="45.915753" lon="6.826851">
        <ele>1833.614</ele>
        <time>2018-07-12T13:38:57Z</time>
      </trkpt>
      <trkpt lat="45.915707" lon="6.826836">
        <ele>1834.741</ele>
        <time>2018-07-12T13:39:05Z</time>
      </trkpt>
      <trkpt lat="45.915662" lon="6.826815">
        <ele>1833.281</ele>
        <time>2018-07-12T13:39:15Z</time>
      </trkpt>
      <trkpt lat="45.915624" lon="6.826775">
        <ele>1826.309</ele>
        <time>2018-07-12T13:40:00Z</time>
      </trkpt>
      <trkpt lat="45.915587" lon="6.826729">
        <ele>1826.908</ele>
        <time>2018-07-12T13:40:08Z</time>
      </trkpt>
      <trkpt lat="45.915549" lon="6.826691">
        <ele>1823.276</ele>
        <time>2018-07-12T13:40:21Z</time>
      </trkpt>
      <trkpt lat="45.915515" lon="6.826648">
        <ele>1825.190</ele>
        <time>2018-07-12T13:40:27Z</time>
      </trkpt>
      <trkpt lat="45.915479" lon="6.826596">
        <ele>1822.578</ele>
        <time>2018-07-12T13:40:34Z</time>
      </trkpt>
      <trkpt lat="45.915435" lon="6.826564">
        <ele>1823.457</ele>
        <time>2018-07-12T13:40:42Z</time>
      </trkpt>
      <trkpt lat="45.915430" lon="6.826498">
        <ele>1824.271</ele>
        <time>2018-07-12T13:40:47Z</time>
      </trkpt>
      <trkpt lat="45.915427" lon="6.826432">
        <ele>1821.216</ele>
        <time>2018-07-12T13:40:54Z</time>
      </trkpt>
      <trkpt lat="45.915398" lon="6.826379">
        <ele>1818.630</ele>
        <time>2018-07-12T13:41:12Z</time>
      </trkpt>
      <trkpt lat="45.915361" lon="6.826343">
        <ele>1816.046</ele>
        <time>2018-07-12T13:41:38Z</time>
      </trkpt>
      <trkpt lat="45.915319" lon="6.826303">
        <ele>1816.033</ele>
        <time>2018-07-12T13:41:45Z</time>
      </trkpt>
      <trkpt lat="45.915283" lon="6.826260">
        <ele>1813.523</ele>
        <time>2018-07-12T13:41:53Z</time>
      </trkpt>
      <trkpt lat="45.915240" lon="6.826234">
        <ele>1813.215</ele>
        <time>2018-07-12T13:42:07Z</time>
      </trkpt>
      <trkpt lat="45.915187" lon="6.826243">
        <ele>1810.908</ele>
        <time>2018-07-12T13:42:16Z</time>
      </trkpt>
      <trkpt lat="45.915166" lon="6.826179">
        <ele>1809.185</ele>
        <time>2018-07-12T13:42:57Z</time>
      </trkpt>
      <trkpt lat="45.915144" lon="6.826116">
        <ele>1809.819</ele>
        <time>2018-07-12T13:43:08Z</time>
      </trkpt>
      <trkpt lat="45.915097" lon="6.826116">
        <ele>1807.557</ele>
        <time>2018-07-12T13:43:24Z</time>
      </trkpt>
      <trkpt lat="45.915081" lon="6.826048">
        <ele>1803.966</ele>
        <time>2018-07-12T13:43:35Z</time>
      </trkpt>
      <trkpt lat="45.915053" lon="6.825994">
        <ele>1803.810</ele>
        <time>2018-07-12T13:43:45Z</time>
      </trkpt>
      <trkpt lat="45.915011" lon="6.825963">
        <ele>1799.795</ele>
        <time>2018-07-12T13:44:01Z</time>
      </trkpt>
      <trkpt lat="45.914987" lon="6.825905">
        <ele>1800.339</ele>
        <time>2018-07-12T13:44:12Z</time>
      </trkpt>
      <trkpt lat="45.914943" lon="6.825892">
        <ele>1797.745</ele>
        <time>2018-07-12T13:44:20Z</time>
      </trkpt>
      <trkpt lat="45.914906" lon="6.825846">
        <ele>1796.629</ele>
        <time>2018-07-12T13:44:31Z</time>
      </trkpt>
      <trkpt lat="45.914871" lon="6.825804">
        <ele>1797.600</ele>
        <time>2018-07-12T13:44:41Z</time>
      </trkpt>
      <trkpt lat="45.914861" lon="6.825734">
        <ele>1795.320</ele>
        <time>2018-07-12T13:44:52Z</time>
      </trkpt>
      <trkpt lat="45.914822" lon="6.825690">
        <ele>1794.508</ele>
        <time>2018-07-12T13:45:07Z</time>
      </trkpt>
      <trkpt lat="45.914783" lon="6.825647">
        <ele>1787.464</ele>
        <time>2018-07-12T13:45:36Z</time>
      </trkpt>
      <trkpt lat="45.914765" lon="6.825581">
        <ele>1787.948</ele>
        <time>2018-07-12T13:45:47Z</time>
      </trkpt>
      <trkpt lat="45.914742" lon="6.825517">
        <ele>1786.656</ele>
        <time>2018-07-12T13:45:54Z</time>
      </trkpt>
      <trkpt lat="45.914693" lon="6.825515">
        <ele>1783.735</ele>
        <time>2018-07-12T13:46:02Z</time>
      </trkpt>
      <trkpt lat="45.914649" lon="6.825536">
        <ele>1784.139</ele>
        <time>2018-07-12T13:46:09Z</time>
      </trkpt>
      <trkpt lat="45.914604" lon="6.825564">
        <ele>1781.414</ele>
        <time>2018-07-12T13:46:15Z</time>
      </trkpt>
      <trkpt lat="45.914553" lon="6.825559">
        <ele>1780.648</ele>
        <time>2018-07-12T13:46:21Z</time>
      </trkpt>
      <trkpt lat="45.914528" lon="6.825497">
        <ele>1781.164</ele>
        <time>2018-07-12T13:46:29Z</time>
      </trkpt>
      <trkpt lat="45.914501" lon="6.825438">
        <ele>1781.359</ele>
        <time>2018-07-12T13:46:36Z</time>
      </trkpt>
      <trkpt lat="45.914457" lon="6.825402">
        <ele>1778.803</ele>
        <time>2018-07-12T13:46:47Z</time>
      </trkpt>
      <trkpt lat="45.914411" lon="6.825378">
        <ele>1777.123</ele>
        <time>2018-07-12T13:46:54Z</time>
      </trkpt>
      <trkpt lat="45.914363" lon="6.825385">
        <ele>1777.308</ele>
        <time>2018-07-12T13:47:03Z</time>
      </trkpt>
      <trkpt lat="45.914314" lon="6.825361">
        <ele>1775.627</ele>
        <time>2018-07-12T13:47:11Z</time>
      </trkpt>
      <trkpt lat="45.914272" lon="6.825309">
        <ele>1771.721</ele>
        <time>2018-07-12T13:48:03Z</time>
      </trkpt>
      <trkpt lat="45.914224" lon="6.825291">
        <ele>1767.769</ele>
        <time>2018-07-12T13:49:36Z</time>
      </trkpt>
      <trkpt lat="45.914188" lon="6.825242">
        <ele>1766.698</ele>
        <time>2018-07-12T13:49:43Z</time>
      </trkpt>
      <trkpt lat="45.914150" lon="6.825193">
        <ele>1765.542</ele>
        <time>2018-07-12T13:49:51Z</time>
      </trkpt>
      <trkpt lat="45.914117" lon="6.825149">
        <ele>1767.467</ele>
        <time>2018-07-12T13:49:57Z</time>
      </trkpt>
      <trkpt lat="45.914071" lon="6.825137">
        <ele>1766.191</ele>
        <time>2018-07-12T13:50:02Z</time>
      </trkpt>
      <trkpt lat="45.914032" lon="6.825091">
        <ele>1764.267</ele>
        <time>2018-07-12T13:50:09Z</time>
      </trkpt>
      <trkpt lat="45.913993" lon="6.825050">
        <ele>1760.894</ele>
        <time>2018-07-12T13:50:18Z</time>
      </trkpt>
      <trkpt lat="45.913964" lon="6.824994">
        <ele>1760.857</ele>
        <time>2018-07-12T13:50:28Z</time>
      </trkpt>
      <trkpt lat="45.913921" lon="6.824971">
        <ele>1760.122</ele>
        <time>2018-07-12T13:50:33Z</time>
      </trkpt>
      <trkpt lat="45.913873" lon="6.824939">
        <ele>1759.108</ele>
        <time>2018-07-12T13:50:39Z</time>
      </trkpt>
      <trkpt lat="45.913833" lon="6.824894">
        <ele>1756.531</ele>
        <time>2018-07-12T13:50:45Z</time>
      </trkpt>
      <trkpt lat="45.913791" lon="6.824870">
        <ele>1756.455</ele>
        <time>2018-07-12T13:50:53Z</time>
      </trkpt>
      <trkpt lat="45.913746" lon="6.824884">
        <ele>1755.573</ele>
        <time>2018-07-12T13:50:58Z</time>
      </trkpt>
      <trkpt lat="45.913698" lon="6.824875">
        <ele>1754.792</ele>
        <time>2018-07-12T13:51:04Z</time>
      </trkpt>
      <trkpt lat="45.913645" lon="6.824880">
        <ele>1753.166</ele>
        <time>2018-07-12T13:51:11Z</time>
      </trkpt>
      <trkpt lat="45.913597" lon="6.824888">
        <ele>1750.841</ele>
        <time>2018-07-12T13:51:17Z</time>
      </trkpt>
      <trkpt lat="45.913545" lon="6.824869">
        <ele>1751.965</ele>
        <time>2018-07-12T13:51:23Z</time>
      </trkpt>
      <trkpt lat="45.913499" lon="6.824854">
        <ele>1750.741</ele>
        <time>2018-07-12T13:51:28Z</time>
      </trkpt>
      <trkpt lat="45.913453" lon="6.824837">
        <ele>1749.467</ele>
        <time>2018-07-12T13:51:33Z</time>
      </trkpt>
      <trkpt lat="45.913409" lon="6.824810">
        <ele>1747.281</ele>
        <time>2018-07-12T13:51:40Z</time>
      </trkpt>
      <trkpt lat="45.913369" lon="6.824767">
        <ele>1747.019</ele>
        <time>2018-07-12T13:51:48Z</time>
      </trkpt>
      <trkpt lat="45.913336" lon="6.824705">
        <ele>1747.608</ele>
        <time>2018-07-12T13:51:55Z</time>
      </trkpt>
      <trkpt lat="45.913305" lon="6.824653">
        <ele>1746.728</ele>
        <time>2018-07-12T13:52:02Z</time>
      </trkpt>
      <trkpt lat="45.913274" lon="6.824592">
        <ele>1745.462</ele>
        <time>2018-07-12T13:52:10Z</time>
      </trkpt>
      <trkpt lat="45.913233" lon="6.824552">
        <ele>1743.670</ele>
        <time>2018-07-12T13:52:20Z</time>
      </trkpt>
      <trkpt lat="45.913200" lon="6.824492">
        <ele>1743.599</ele>
        <time>2018-07-12T13:52:26Z</time>
      </trkpt>
      <trkpt lat="45.913180" lon="6.824430">
        <ele>1742.943</ele>
        <time>2018-07-12T13:52:30Z</time>
      </trkpt>
      <trkpt lat="45.913148" lon="6.824369">
        <ele>1742.518</ele>
        <time>2018-07-12T13:52:35Z</time>
      </trkpt>
      <trkpt lat="45.913110" lon="6.824321">
        <ele>1739.782</ele>
        <time>2018-07-12T13:52:47Z</time>
      </trkpt>
      <trkpt lat="45.913075" lon="6.824256">
        <ele>1739.688</ele>
        <time>2018-07-12T13:52:52Z</time>
      </trkpt>
      <trkpt lat="45.913041" lon="6.824206">
        <ele>1739.219</ele>
        <time>2018-07-12T13:52:57Z</time>
      </trkpt>
      <trkpt lat="45.913014" lon="6.824146">
        <ele>1738.309</ele>
        <time>2018-07-12T13:53:03Z</time>
      </trkpt>
      <trkpt lat="45.913000" lon="6.824077">
        <ele>1735.819</ele>
        <time>2018-07-12T13:53:08Z</time>
      </trkpt>
      <trkpt lat="45.912978" lon="6.824019">
        <ele>1736.008</ele>
        <time>2018-07-12T13:53:12Z</time>
      </trkpt>
      <trkpt lat="45.912956" lon="6.823948">
        <ele>1735.123</ele>
        <time>2018-07-12T13:53:17Z</time>
      </trkpt>
      <trkpt lat="45.912934" lon="6.823882">
        <ele>1736.177</ele>
        <time>2018-07-12T13:53:22Z</time>
      </trkpt>
      <trkpt lat="45.912907" lon="6.823820">
        <ele>1733.735</ele>
        <time>2018-07-12T13:53:27Z</time>
      </trkpt>
      <trkpt lat="45.912877" lon="6.823763">
        <ele>1733.044</ele>
        <time>2018-07-12T13:53:32Z</time>
      </trkpt>
      <trkpt lat="45.912857" lon="6.823702">
        <ele>1732.198</ele>
        <time>2018-07-12T13:53:38Z</time>
      </trkpt>
      <trkpt lat="45.912825" lon="6.823648">
        <ele>1730.713</ele>
        <time>2018-07-12T13:53:46Z</time>
      </trkpt>
      <trkpt lat="45.912793" lon="6.823594">
        <ele>1731.347</ele>
        <time>2018-07-12T13:53:53Z</time>
      </trkpt>
      <trkpt lat="45.912766" lon="6.823538">
        <ele>1728.863</ele>
        <time>2018-07-12T13:54:00Z</time>
      </trkpt>
      <trkpt lat="45.912736" lon="6.823489">
        <ele>1727.395</ele>
        <time>2018-07-12T13:54:08Z</time>
      </trkpt>
      <trkpt lat="45.912721" lon="6.823415">
        <ele>1726.249</ele>
        <time>2018-07-12T13:54:14Z</time>
      </trkpt>
      <trkpt lat="45.912704" lon="6.823354">
        <ele>1725.423</ele>
        <time>2018-07-12T13:54:20Z</time>
      </trkpt>
      <trkpt lat="45.912679" lon="6.823293">
        <ele>1724.308</ele>
        <time>2018-07-12T13:54:27Z</time>
      </trkpt>
      <trkpt lat="45.912655" lon="6.823231">
        <ele>1722.931</ele>
        <time>2018-07-12T13:54:34Z</time>
      </trkpt>
      <trkpt lat="45.912624" lon="6.823181">
        <ele>1721.555</ele>
        <time>2018-07-12T13:54:44Z</time>
      </trkpt>
      <trkpt lat="45.912588" lon="6.823140">
        <ele>1720.053</ele>
        <time>2018-07-12T13:54:54Z</time>
      </trkpt>
      <trkpt lat="45.912564" lon="6.823077">
        <ele>1718.472</ele>
        <time>2018-07-12T13:55:02Z</time>
      </trkpt>
      <trkpt lat="45.912544" lon="6.823015">
        <ele>1717.986</ele>
        <time>2018-07-12T13:55:07Z</time>
      </trkpt>
      <trkpt lat="45.912521" lon="6.822951">
        <ele>1716.521</ele>
        <time>2018-07-12T13:55:13Z</time>
      </trkpt>
      <trkpt lat="45.912523" lon="6.822884">
        <ele>1715.775</ele>
        <time>2018-07-12T13:55:19Z</time>
      </trkpt>
      <trkpt lat="45.912485" lon="6.822835">
        <ele>1714.151</ele>
        <time>2018-07-12T13:55:27Z</time>
      </trkpt>
      <trkpt lat="45.912472" lon="6.822761">
        <ele>1712.629</ele>
        <time>2018-07-12T13:55:34Z</time>
      </trkpt>
      <trkpt lat="45.912469" lon="6.822696">
        <ele>1711.400</ele>
        <time>2018-07-12T13:55:40Z</time>
      </trkpt>
      <trkpt lat="45.912423" lon="6.822687">
        <ele>1708.120</ele>
        <time>2018-07-12T13:56:02Z</time>
      </trkpt>
      <trkpt lat="45.912369" lon="6.821267">
        <ele>1689.108</ele>
        <time>2018-07-12T14:02:41Z</time>
      </trkpt>
      <trkpt lat="45.912391" lon="6.821209">
        <ele>1689.124</ele>
        <time>2018-07-12T14:02:47Z</time>
      </trkpt>
      <trkpt lat="45.912421" lon="6.821268">
        <ele>1688.288</ele>
        <time>2018-07-12T14:03:28Z</time>
      </trkpt>
      <trkpt lat="45.912420" lon="6.821192">
        <ele>1685.916</ele>
        <time>2018-07-12T14:03:39Z</time>
      </trkpt>
      <trkpt lat="45.912408" lon="6.821105">
        <ele>1683.155</ele>
        <time>2018-07-12T14:03:53Z</time>
      </trkpt>
      <trkpt lat="45.912424" lon="6.821037">
        <ele>1682.619</ele>
        <time>2018-07-12T14:04:09Z</time>
      </trkpt>
      <trkpt lat="45.912444" lon="6.820979">
        <ele>1681.524</ele>
        <time>2018-07-12T14:04:31Z</time>
      </trkpt>
      <trkpt lat="45.912417" lon="6.821035">
        <ele>1677.568</ele>
        <time>2018-07-12T14:05:20Z</time>
      </trkpt>
      <trkpt lat="45.912373" lon="6.821071">
        <ele>1675.294</ele>
        <time>2018-07-12T14:05:48Z</time>
      </trkpt>
      <trkpt lat="45.912334" lon="6.821119">
        <ele>1673.169</ele>
        <time>2018-07-12T14:06:11Z</time>
      </trkpt>
      <trkpt lat="45.912285" lon="6.821124">
        <ele>1672.804</ele>
        <time>2018-07-12T14:06:23Z</time>
      </trkpt>
      <trkpt lat="45.912239" lon="6.821153">
        <ele>1666.924</ele>
        <time>2018-07-12T14:07:12Z</time>
      </trkpt>
      <trkpt lat="45.912207" lon="6.821201">
        <ele>1665.208</ele>
        <time>2018-07-12T14:07:22Z</time>
      </trkpt>
      <trkpt lat="45.912216" lon="6.821130">
        <ele>1664.878</ele>
        <time>2018-07-12T14:07:33Z</time>
      </trkpt>
      <trkpt lat="45.912250" lon="6.821076">
        <ele>1663.422</ele>
        <time>2018-07-12T14:07:40Z</time>
      </trkpt>
      <trkpt lat="45.912282" lon="6.821015">
        <ele>1662.530</ele>
        <time>2018-07-12T14:07:47Z</time>
      </trkpt>
      <trkpt lat="45.912312" lon="6.820963">
        <ele>1662.249</ele>
        <time>2018-07-12T14:07:56Z</time>
      </trkpt>
      <trkpt lat="45.912266" lon="6.820951">
        <ele>1659.393</ele>
        <time>2018-07-12T14:08:27Z</time>
      </trkpt>
      <trkpt lat="45.912222" lon="6.820974">
        <ele>1657.898</ele>
        <time>2018-07-12T14:08:41Z</time>
      </trkpt>
      <trkpt lat="45.912178" lon="6.820994">
        <ele>1655.742</ele>
        <time>2018-07-12T14:09:06Z</time>
      </trkpt>
      <trkpt lat="45.912132" lon="6.820985">
        <ele>1656.258</ele>
        <time>2018-07-12T14:09:25Z</time>
      </trkpt>
      <trkpt lat="45.912086" lon="6.820981">
        <ele>1655.916</ele>
        <time>2018-07-12T14:09:34Z</time>
      </trkpt>
      <trkpt lat="45.912038" lon="6.820976">
        <ele>1655.576</ele>
        <time>2018-07-12T14:09:42Z</time>
      </trkpt>
      <trkpt lat="45.912001" lon="6.821014">
        <ele>1653.513</ele>
        <time>2018-07-12T14:10:07Z</time>
      </trkpt>
      <trkpt lat="45.911949" lon="6.821014">
        <ele>1653.208</ele>
        <time>2018-07-12T14:10:14Z</time>
      </trkpt>
      <trkpt lat="45.911901" lon="6.821008">
        <ele>1653.623</ele>
        <time>2018-07-12T14:10:22Z</time>
      </trkpt>
      <trkpt lat="45.911850" lon="6.820999">
        <ele>1653.987</ele>
        <time>2018-07-12T14:10:30Z</time>
      </trkpt>
      <trkpt lat="45.911800" lon="6.821000">
        <ele>1654.355</ele>
        <time>2018-07-12T14:10:36Z</time>
      </trkpt>
      <trkpt lat="45.911753" lon="6.821014">
        <ele>1654.274</ele>
        <time>2018-07-12T14:10:40Z</time>
      </trkpt>
      <trkpt lat="45.911720" lon="6.820964">
        <ele>1656.178</ele>
        <time>2018-07-12T14:10:52Z</time>
      </trkpt>
      <trkpt lat="45.911674" lon="6.820962">
        <ele>1657.233</ele>
        <time>2018-07-12T14:11:00Z</time>
      </trkpt>
      <trkpt lat="45.911625" lon="6.820959">
        <ele>1657.337</ele>
        <time>2018-07-12T14:11:08Z</time>
      </trkpt>
      <trkpt lat="45.911586" lon="6.820924">
        <ele>1659.273</ele>
        <time>2018-07-12T14:11:13Z</time>
      </trkpt>
      <trkpt lat="45.911542" lon="6.820884">
        <ele>1658.787</ele>
        <time>2018-07-12T14:11:18Z</time>
      </trkpt>
      <trkpt lat="45.911493" lon="6.820875">
        <ele>1657.942</ele>
        <time>2018-07-12T14:11:23Z</time>
      </trkpt>
      <trkpt lat="45.911446" lon="6.820888">
        <ele>1657.326</ele>
        <time>2018-07-12T14:11:30Z</time>
      </trkpt>
      <trkpt lat="45.911399" lon="6.820895">
        <ele>1654.908</ele>
        <time>2018-07-12T14:11:39Z</time>
      </trkpt>
      <trkpt lat="45.911354" lon="6.820914">
        <ele>1655.540</ele>
        <time>2018-07-12T14:11:45Z</time>
      </trkpt>
      <trkpt lat="45.911307" lon="6.820911">
        <ele>1654.534</ele>
        <time>2018-07-12T14:11:49Z</time>
      </trkpt>
      <trkpt lat="45.911259" lon="6.820914">
        <ele>1654.742</ele>
        <time>2018-07-12T14:11:53Z</time>
      </trkpt>
      <trkpt lat="45.911207" lon="6.820897">
        <ele>1653.221</ele>
        <time>2018-07-12T14:11:58Z</time>
      </trkpt>
      <trkpt lat="45.911163" lon="6.820863">
        <ele>1654.335</ele>
        <time>2018-07-12T14:12:03Z</time>
      </trkpt>
      <trkpt lat="45.911115" lon="6.820857">
        <ele>1653.750</ele>
        <time>2018-07-12T14:12:08Z</time>
      </trkpt>
      <trkpt lat="45.911118" lon="6.820830">
        <ele>1647.344</ele>
        <time>2018-07-12T14:13:00Z</time>
      </trkpt>
      <trkpt lat="45.911066" lon="6.820815">
        <ele>1647.310</ele>
        <time>2018-07-12T14:13:49Z</time>
      </trkpt>
      <trkpt lat="45.911052" lon="6.820738">
        <ele>1650.462</ele>
        <time>2018-07-12T14:14:20Z</time>
      </trkpt>
      <trkpt lat="45.911013" lon="6.820775">
        <ele>1650.083</ele>
        <time>2018-07-12T14:14:33Z</time>
      </trkpt>
      <trkpt lat="45.910983" lon="6.820725">
        <ele>1650.711</ele>
        <time>2018-07-12T14:14:43Z</time>
      </trkpt>
      <trkpt lat="45.910948" lon="6.820674">
        <ele>1650.008</ele>
        <time>2018-07-12T14:14:50Z</time>
      </trkpt>
      <trkpt lat="45.910917" lon="6.820618">
        <ele>1649.818</ele>
        <time>2018-07-12T14:14:55Z</time>
      </trkpt>
      <trkpt lat="45.910854" lon="6.820534">
        <ele>1650.272</ele>
        <time>2018-07-12T14:15:05Z</time>
      </trkpt>
      <trkpt lat="45.910807" lon="6.820488">
        <ele>1649.830</ele>
        <time>2018-07-12T14:15:09Z</time>
      </trkpt>
      <trkpt lat="45.910775" lon="6.820421">
        <ele>1649.029</ele>
        <time>2018-07-12T14:15:14Z</time>
      </trkpt>
      <trkpt lat="45.910764" lon="6.820354">
        <ele>1647.783</ele>
        <time>2018-07-12T14:15:20Z</time>
      </trkpt>
      <trkpt lat="45.910776" lon="6.820282">
        <ele>1648.498</ele>
        <time>2018-07-12T14:15:24Z</time>
      </trkpt>
      <trkpt lat="45.910747" lon="6.820212">
        <ele>1647.962</ele>
        <time>2018-07-12T14:15:26Z</time>
      </trkpt>
      <trkpt lat="45.910719" lon="6.820153">
        <ele>1647.168</ele>
        <time>2018-07-12T14:15:28Z</time>
      </trkpt>
      <trkpt lat="45.910689" lon="6.820098">
        <ele>1646.974</ele>
        <time>2018-07-12T14:15:39Z</time>
      </trkpt>
      <trkpt lat="45.910649" lon="6.820052">
        <ele>1647.056</ele>
        <time>2018-07-12T14:15:46Z</time>
      </trkpt>
      <trkpt lat="45.910645" lon="6.819979">
        <ele>1646.921</ele>
        <time>2018-07-12T14:15:52Z</time>
      </trkpt>
      <trkpt lat="45.910622" lon="6.819906">
        <ele>1646.508</ele>
        <time>2018-07-12T14:15:57Z</time>
      </trkpt>
      <trkpt lat="45.910604" lon="6.819839">
        <ele>1646.139</ele>
        <time>2018-07-12T14:16:02Z</time>
      </trkpt>
      <trkpt lat="45.910559" lon="6.819820">
        <ele>1645.833</ele>
        <time>2018-07-12T14:16:06Z</time>
      </trkpt>
      <trkpt lat="45.910530" lon="6.819759">
        <ele>1645.091</ele>
        <time>2018-07-12T14:16:11Z</time>
      </trkpt>
      <trkpt lat="45.910493" lon="6.819709">
        <ele>1643.790</ele>
        <time>2018-07-12T14:16:15Z</time>
      </trkpt>
      <trkpt lat="45.910463" lon="6.819654">
        <ele>1643.244</ele>
        <time>2018-07-12T14:16:19Z</time>
      </trkpt>
      <trkpt lat="45.910430" lon="6.819601">
        <ele>1642.899</ele>
        <time>2018-07-12T14:16:31Z</time>
      </trkpt>
      <trkpt lat="45.910390" lon="6.819554">
        <ele>1642.143</ele>
        <time>2018-07-12T14:16:38Z</time>
      </trkpt>
      <trkpt lat="45.910368" lon="6.819494">
        <ele>1641.529</ele>
        <time>2018-07-12T14:16:44Z</time>
      </trkpt>
      <trkpt lat="45.910347" lon="6.819432">
        <ele>1640.396</ele>
        <time>2018-07-12T14:16:53Z</time>
      </trkpt>
      <trkpt lat="45.910301" lon="6.819395">
        <ele>1639.831</ele>
        <time>2018-07-12T14:16:59Z</time>
      </trkpt>
      <trkpt lat="45.910257" lon="6.819356">
        <ele>1640.324</ele>
        <time>2018-07-12T14:17:05Z</time>
      </trkpt>
      <trkpt lat="45.910233" lon="6.819297">
        <ele>1641.408</ele>
        <time>2018-07-12T14:17:12Z</time>
      </trkpt>
      <trkpt lat="45.910194" lon="6.819261">
        <ele>1641.371</ele>
        <time>2018-07-12T14:17:20Z</time>
      </trkpt>
      <trkpt lat="45.910183" lon="6.819198">
        <ele>1642.835</ele>
        <time>2018-07-12T14:17:26Z</time>
      </trkpt>
      <trkpt lat="45.910169" lon="6.819134">
        <ele>1643.233</ele>
        <time>2018-07-12T14:17:32Z</time>
      </trkpt>
      <trkpt lat="45.910119" lon="6.819085">
        <ele>1644.372</ele>
        <time>2018-07-12T14:18:00Z</time>
      </trkpt>
      <trkpt lat="45.910085" lon="6.819132">
        <ele>1639.466</ele>
        <time>2018-07-12T14:18:45Z</time>
      </trkpt>
      <trkpt lat="45.910044" lon="6.819057">
        <ele>1638.391</ele>
        <time>2018-07-12T14:19:07Z</time>
      </trkpt>
      <trkpt lat="45.909991" lon="6.819044">
        <ele>1637.585</ele>
        <time>2018-07-12T14:19:19Z</time>
      </trkpt>
      <trkpt lat="45.909952" lon="6.818997">
        <ele>1636.531</ele>
        <time>2018-07-12T14:19:25Z</time>
      </trkpt>
      <trkpt lat="45.909925" lon="6.818927">
        <ele>1637.392</ele>
        <time>2018-07-12T14:19:32Z</time>
      </trkpt>
      <trkpt lat="45.909917" lon="6.818863">
        <ele>1635.073</ele>
        <time>2018-07-12T14:19:37Z</time>
      </trkpt>
      <trkpt lat="45.909894" lon="6.818795">
        <ele>1634.920</ele>
        <time>2018-07-12T14:19:43Z</time>
      </trkpt>
      <trkpt lat="45.909892" lon="6.818719">
        <ele>1634.308</ele>
        <time>2018-07-12T14:19:49Z</time>
      </trkpt>
      <trkpt lat="45.909891" lon="6.818642">
        <ele>1633.691</ele>
        <time>2018-07-12T14:19:57Z</time>
      </trkpt>
      <trkpt lat="45.909899" lon="6.818560">
        <ele>1633.415</ele>
        <time>2018-07-12T14:20:02Z</time>
      </trkpt>
      <trkpt lat="45.909899" lon="6.818489">
        <ele>1633.593</ele>
        <time>2018-07-12T14:20:05Z</time>
      </trkpt>
      <trkpt lat="45.909866" lon="6.818434">
        <ele>1633.172</ele>
        <time>2018-07-12T14:20:11Z</time>
      </trkpt>
      <trkpt lat="45.909850" lon="6.818334">
        <ele>1635.016</ele>
        <time>2018-07-12T14:20:33Z</time>
      </trkpt>
      <trkpt lat="45.909850" lon="6.818260">
        <ele>1635.861</ele>
        <time>2018-07-12T14:20:41Z</time>
      </trkpt>
      <trkpt lat="45.909824" lon="6.818194">
        <ele>1635.525</ele>
        <time>2018-07-12T14:20:46Z</time>
      </trkpt>
      <trkpt lat="45.909814" lon="6.818128">
        <ele>1635.991</ele>
        <time>2018-07-12T14:20:52Z</time>
      </trkpt>
      <trkpt lat="45.909805" lon="6.818063">
        <ele>1634.348</ele>
        <time>2018-07-12T14:21:01Z</time>
      </trkpt>
      <trkpt lat="45.909767" lon="6.818011">
        <ele>1635.061</ele>
        <time>2018-07-12T14:21:07Z</time>
      </trkpt>
      <trkpt lat="45.909722" lon="6.817970">
        <ele>1633.517</ele>
        <time>2018-07-12T14:21:12Z</time>
      </trkpt>
      <trkpt lat="45.909686" lon="6.817863">
        <ele>1634.108</ele>
        <time>2018-07-12T14:21:24Z</time>
      </trkpt>
      <trkpt lat="45.909680" lon="6.817798">
        <ele>1634.046</ele>
        <time>2018-07-12T14:21:28Z</time>
      </trkpt>
      <trkpt lat="45.909668" lon="6.817722">
        <ele>1631.660</ele>
        <time>2018-07-12T14:21:33Z</time>
      </trkpt>
      <trkpt lat="45.909643" lon="6.817666">
        <ele>1630.928</ele>
        <time>2018-07-12T14:21:38Z</time>
      </trkpt>
      <trkpt lat="45.909606" lon="6.817623">
        <ele>1630.887</ele>
        <time>2018-07-12T14:21:46Z</time>
      </trkpt>
      <trkpt lat="45.909573" lon="6.817574">
        <ele>1630.431</ele>
        <time>2018-07-12T14:21:53Z</time>
      </trkpt>
      <trkpt lat="45.909537" lon="6.817532">
        <ele>1628.946</ele>
        <time>2018-07-12T14:22:00Z</time>
      </trkpt>
      <trkpt lat="45.909510" lon="6.817475">
        <ele>1627.760</ele>
        <time>2018-07-12T14:22:08Z</time>
      </trkpt>
      <trkpt lat="45.909478" lon="6.817417">
        <ele>1625.196</ele>
        <time>2018-07-12T14:22:16Z</time>
      </trkpt>
      <trkpt lat="45.909469" lon="6.817333">
        <ele>1625.913</ele>
        <time>2018-07-12T14:22:23Z</time>
      </trkpt>
      <trkpt lat="45.909440" lon="6.817266">
        <ele>1624.943</ele>
        <time>2018-07-12T14:22:29Z</time>
      </trkpt>
      <trkpt lat="45.909432" lon="6.817198">
        <ele>1622.507</ele>
        <time>2018-07-12T14:23:51Z</time>
      </trkpt>
      <trkpt lat="45.909416" lon="6.817120">
        <ele>1621.408</ele>
        <time>2018-07-12T14:23:57Z</time>
      </trkpt>
      <trkpt lat="45.909392" lon="6.817053">
        <ele>1622.473</ele>
        <time>2018-07-12T14:24:03Z</time>
      </trkpt>
      <trkpt lat="45.909353" lon="6.817019">
        <ele>1621.037</ele>
        <time>2018-07-12T14:24:13Z</time>
      </trkpt>
      <trkpt lat="45.909312" lon="6.816985">
        <ele>1620.735</ele>
        <time>2018-07-12T14:24:18Z</time>
      </trkpt>
      <trkpt lat="45.909267" lon="6.816959">
        <ele>1619.814</ele>
        <time>2018-07-12T14:24:22Z</time>
      </trkpt>
      <trkpt lat="45.909226" lon="6.816926">
        <ele>1618.138</ele>
        <time>2018-07-12T14:24:27Z</time>
      </trkpt>
      <trkpt lat="45.909190" lon="6.816877">
        <ele>1616.183</ele>
        <time>2018-07-12T14:24:33Z</time>
      </trkpt>
      <trkpt lat="45.909179" lon="6.816804">
        <ele>1615.487</ele>
        <time>2018-07-12T14:24:49Z</time>
      </trkpt>
      <trkpt lat="45.909169" lon="6.816738">
        <ele>1614.173</ele>
        <time>2018-07-12T14:24:52Z</time>
      </trkpt>
      <trkpt lat="45.909146" lon="6.816670">
        <ele>1612.187</ele>
        <time>2018-07-12T14:24:55Z</time>
      </trkpt>
      <trkpt lat="45.909123" lon="6.816614">
        <ele>1611.542</ele>
        <time>2018-07-12T14:24:58Z</time>
      </trkpt>
      <trkpt lat="45.909127" lon="6.816544">
        <ele>1611.626</ele>
        <time>2018-07-12T14:25:02Z</time>
      </trkpt>
      <trkpt lat="45.909132" lon="6.816450">
        <ele>1609.708</ele>
        <time>2018-07-12T14:25:21Z</time>
      </trkpt>
      <trkpt lat="45.909114" lon="6.816384">
        <ele>1609.870</ele>
        <time>2018-07-12T14:25:28Z</time>
      </trkpt>
      <trkpt lat="45.909086" lon="6.816323">
        <ele>1607.914</ele>
        <time>2018-07-12T14:25:37Z</time>
      </trkpt>
      <trkpt lat="45.909045" lon="6.816295">
        <ele>1606.482</ele>
        <time>2018-07-12T14:25:51Z</time>
      </trkpt>
      <trkpt lat="45.909099" lon="6.816278">
        <ele>1605.161</ele>
        <time>2018-07-12T14:26:00Z</time>
      </trkpt>
      <trkpt lat="45.909140" lon="6.816247">
        <ele>1604.395</ele>
        <time>2018-07-12T14:26:07Z</time>
      </trkpt>
      <trkpt lat="45.909124" lon="6.816186">
        <ele>1604.530</ele>
        <time>2018-07-12T14:26:12Z</time>
      </trkpt>
      <trkpt lat="45.909083" lon="6.816139">
        <ele>1604.054</ele>
        <time>2018-07-12T14:26:15Z</time>
      </trkpt>
      <trkpt lat="45.909042" lon="6.816112">
        <ele>1604.620</ele>
        <time>2018-07-12T14:26:18Z</time>
      </trkpt>
      <trkpt lat="45.909056" lon="6.816003">
        <ele>1604.232</ele>
        <time>2018-07-12T14:26:25Z</time>
      </trkpt>
      <trkpt lat="45.909065" lon="6.815918">
        <ele>1604.292</ele>
        <time>2018-07-12T14:26:27Z</time>
      </trkpt>
      <trkpt lat="45.909022" lon="6.816036">
        <ele>1601.111</ele>
        <time>2018-07-12T14:26:53Z</time>
      </trkpt>
      <trkpt lat="45.908971" lon="6.816069">
        <ele>1600.408</ele>
        <time>2018-07-12T14:26:58Z</time>
      </trkpt>
      <trkpt lat="45.908924" lon="6.816053">
        <ele>1599.615</ele>
        <time>2018-07-12T14:27:03Z</time>
      </trkpt>
      <trkpt lat="45.908891" lon="6.815997">
        <ele>1597.199</ele>
        <time>2018-07-12T14:27:12Z</time>
      </trkpt>
      <trkpt lat="45.908899" lon="6.815932">
        <ele>1595.987</ele>
        <time>2018-07-12T14:27:26Z</time>
      </trkpt>
      <trkpt lat="45.908856" lon="6.815895">
        <ele>1593.556</ele>
        <time>2018-07-12T14:27:43Z</time>
      </trkpt>
      <trkpt lat="45.908837" lon="6.815816">
        <ele>1592.790</ele>
        <time>2018-07-12T14:27:48Z</time>
      </trkpt>
      <trkpt lat="45.908834" lon="6.815747">
        <ele>1592.885</ele>
        <time>2018-07-12T14:27:51Z</time>
      </trkpt>
      <trkpt lat="45.908811" lon="6.815690">
        <ele>1592.589</ele>
        <time>2018-07-12T14:27:55Z</time>
      </trkpt>
      <trkpt lat="45.908772" lon="6.815644">
        <ele>1591.585</ele>
        <time>2018-07-12T14:28:03Z</time>
      </trkpt>
      <trkpt lat="45.908718" lon="6.815658">
        <ele>1589.265</ele>
        <time>2018-07-12T14:28:18Z</time>
      </trkpt>
      <trkpt lat="45.908665" lon="6.815611">
        <ele>1589.168</ele>
        <time>2018-07-12T14:28:22Z</time>
      </trkpt>
      <trkpt lat="45.908620" lon="6.815562">
        <ele>1589.014</ele>
        <time>2018-07-12T14:28:24Z</time>
      </trkpt>
      <trkpt lat="45.908606" lon="6.815498">
        <ele>1588.808</ele>
        <time>2018-07-12T14:28:26Z</time>
      </trkpt>
      <trkpt lat="45.908599" lon="6.815422">
        <ele>1588.298</ele>
        <time>2018-07-12T14:28:32Z</time>
      </trkpt>
      <trkpt lat="45.908574" lon="6.815351">
        <ele>1585.852</ele>
        <time>2018-07-12T14:28:49Z</time>
      </trkpt>
      <trkpt lat="45.908555" lon="6.815289">
        <ele>1585.790</ele>
        <time>2018-07-12T14:28:52Z</time>
      </trkpt>
      <trkpt lat="45.908537" lon="6.815225">
        <ele>1584.119</ele>
        <time>2018-07-12T14:28:57Z</time>
      </trkpt>
      <trkpt lat="45.908556" lon="6.815290">
        <ele>1582.543</ele>
        <time>2018-07-12T14:29:12Z</time>
      </trkpt>
      <trkpt lat="45.908573" lon="6.815352">
        <ele>1580.728</ele>
        <time>2018-07-12T14:29:25Z</time>
      </trkpt>
      <trkpt lat="45.908525" lon="6.815370">
        <ele>1578.962</ele>
        <time>2018-07-12T14:29:45Z</time>
      </trkpt>
      <trkpt lat="45.908490" lon="6.815311">
        <ele>1578.428</ele>
        <time>2018-07-12T14:29:51Z</time>
      </trkpt>
      <trkpt lat="45.908457" lon="6.815263">
        <ele>1577.984</ele>
        <time>2018-07-12T14:29:54Z</time>
      </trkpt>
      <trkpt lat="45.908407" lon="6.815249">
        <ele>1577.107</ele>
        <time>2018-07-12T14:29:59Z</time>
      </trkpt>
      <trkpt lat="45.908431" lon="6.815313">
        <ele>1575.517</ele>
        <time>2018-07-12T14:30:18Z</time>
      </trkpt>
      <trkpt lat="45.908439" lon="6.815379">
        <ele>1574.608</ele>
        <time>2018-07-12T14:30:24Z</time>
      </trkpt>
      <trkpt lat="45.908395" lon="6.815270">
        <ele>1571.110</ele>
        <time>2018-07-12T14:30:57Z</time>
      </trkpt>
      <trkpt lat="45.908370" lon="6.815194">
        <ele>1570.754</ele>
        <time>2018-07-12T14:31:01Z</time>
      </trkpt>
      <trkpt lat="45.908353" lon="6.815133">
        <ele>1569.932</ele>
        <time>2018-07-12T14:31:06Z</time>
      </trkpt>
      <trkpt lat="45.908307" lon="6.815076">
        <ele>1569.441</ele>
        <time>2018-07-12T14:31:11Z</time>
      </trkpt>
      <trkpt lat="45.908264" lon="6.815040">
        <ele>1567.425</ele>
        <time>2018-07-12T14:31:19Z</time>
      </trkpt>
      <trkpt lat="45.908225" lon="6.815004">
        <ele>1566.160</ele>
        <time>2018-07-12T14:31:30Z</time>
      </trkpt>
      <trkpt lat="45.908178" lon="6.814984">
        <ele>1567.064</ele>
        <time>2018-07-12T14:31:37Z</time>
      </trkpt>
      <trkpt lat="45.908150" lon="6.814929">
        <ele>1563.870</ele>
        <time>2018-07-12T14:31:42Z</time>
      </trkpt>
      <trkpt lat="45.908127" lon="6.814865">
        <ele>1563.372</ele>
        <time>2018-07-12T14:31:46Z</time>
      </trkpt>
      <trkpt lat="45.908110" lon="6.814803">
        <ele>1562.413</ele>
        <time>2018-07-12T14:31:52Z</time>
      </trkpt>
      <trkpt lat="45.908118" lon="6.814738">
        <ele>1562.414</ele>
        <time>2018-07-12T14:32:04Z</time>
      </trkpt>
      <trkpt lat="45.908115" lon="6.814673">
        <ele>1560.008</ele>
        <time>2018-07-12T14:32:17Z</time>
      </trkpt>
      <trkpt lat="45.908143" lon="6.814621">
        <ele>1558.319</ele>
        <time>2018-07-12T14:32:28Z</time>
      </trkpt>
      <trkpt lat="45.908121" lon="6.814564">
        <ele>1557.183</ele>
        <time>2018-07-12T14:32:32Z</time>
      </trkpt>
      <trkpt lat="45.908150" lon="6.814503">
        <ele>1556.031</ele>
        <time>2018-07-12T14:32:39Z</time>
      </trkpt>
      <trkpt lat="45.908137" lon="6.814429">
        <ele>1555.180</ele>
        <time>2018-07-12T14:32:45Z</time>
      </trkpt>
      <trkpt lat="45.908100" lon="6.814361">
        <ele>1555.264</ele>
        <time>2018-07-12T14:32:47Z</time>
      </trkpt>
      <trkpt lat="45.908055" lon="6.814308">
        <ele>1550.229</ele>
        <time>2018-07-12T14:33:16Z</time>
      </trkpt>
      <trkpt lat="45.908009" lon="6.814265">
        <ele>1548.823</ele>
        <time>2018-07-12T14:33:21Z</time>
      </trkpt>
      <trkpt lat="45.907975" lon="6.814220">
        <ele>1548.579</ele>
        <time>2018-07-12T14:33:24Z</time>
      </trkpt>
      <trkpt lat="45.907944" lon="6.814166">
        <ele>1547.183</ele>
        <time>2018-07-12T14:33:30Z</time>
      </trkpt>
      <trkpt lat="45.907911" lon="6.814113">
        <ele>1546.525</ele>
        <time>2018-07-12T14:33:34Z</time>
      </trkpt>
      <trkpt lat="45.907874" lon="6.814060">
        <ele>1546.117</ele>
        <time>2018-07-12T14:33:38Z</time>
      </trkpt>
      <trkpt lat="45.907861" lon="6.813985">
        <ele>1544.408</ele>
        <time>2018-07-12T14:33:44Z</time>
      </trkpt>
      <trkpt lat="45.907851" lon="6.813920">
        <ele>1543.380</ele>
        <time>2018-07-12T14:33:51Z</time>
      </trkpt>
      <trkpt lat="45.907804" lon="6.813934">
        <ele>1537.434</ele>
        <time>2018-07-12T14:34:29Z</time>
      </trkpt>
      <trkpt lat="45.907755" lon="6.813908">
        <ele>1536.662</ele>
        <time>2018-07-12T14:34:34Z</time>
      </trkpt>
      <trkpt lat="45.907712" lon="6.813886">
        <ele>1535.691</ele>
        <time>2018-07-12T14:34:38Z</time>
      </trkpt>
      <trkpt lat="45.907665" lon="6.813852">
        <ele>1534.575</ele>
        <time>2018-07-12T14:34:44Z</time>
      </trkpt>
      <trkpt lat="45.907690" lon="6.813910">
        <ele>1533.120</ele>
        <time>2018-07-12T14:34:58Z</time>
      </trkpt>
      <trkpt lat="45.907695" lon="6.813980">
        <ele>1532.144</ele>
        <time>2018-07-12T14:35:04Z</time>
      </trkpt>
      <trkpt lat="45.907717" lon="6.814038">
        <ele>1530.740</ele>
        <time>2018-07-12T14:35:10Z</time>
      </trkpt>
      <trkpt lat="45.907710" lon="6.814103">
        <ele>1529.328</ele>
        <time>2018-07-12T14:35:16Z</time>
      </trkpt>
      <trkpt lat="45.907688" lon="6.814166">
        <ele>1529.089</ele>
        <time>2018-07-12T14:35:24Z</time>
      </trkpt>
      <trkpt lat="45.907656" lon="6.814107">
        <ele>1527.417</ele>
        <time>2018-07-12T14:35:30Z</time>
      </trkpt>
      <trkpt lat="45.907614" lon="6.814067">
        <ele>1527.008</ele>
        <time>2018-07-12T14:35:36Z</time>
      </trkpt>
      <trkpt lat="45.907565" lon="6.814040">
        <ele>1525.864</ele>
        <time>2018-07-12T14:35:41Z</time>
      </trkpt>
      <trkpt lat="45.907521" lon="6.813992">
        <ele>1525.018</ele>
        <time>2018-07-12T14:36:09Z</time>
      </trkpt>
      <trkpt lat="45.907486" lon="6.813939">
        <ele>1521.286</ele>
        <time>2018-07-12T14:36:43Z</time>
      </trkpt>
      <trkpt lat="45.907454" lon="6.813874">
        <ele>1520.455</ele>
        <time>2018-07-12T14:36:49Z</time>
      </trkpt>
      <trkpt lat="45.907442" lon="6.813804">
        <ele>1520.869</ele>
        <time>2018-07-12T14:36:54Z</time>
      </trkpt>
      <trkpt lat="45.907408" lon="6.813754">
        <ele>1517.354</ele>
        <time>2018-07-12T14:37:01Z</time>
      </trkpt>
      <trkpt lat="45.907373" lon="6.813688">
        <ele>1516.218</ele>
        <time>2018-07-12T14:37:07Z</time>
      </trkpt>
      <trkpt lat="45.907340" lon="6.813636">
        <ele>1515.264</ele>
        <time>2018-07-12T14:37:13Z</time>
      </trkpt>
      <trkpt lat="45.907315" lon="6.813569">
        <ele>1515.011</ele>
        <time>2018-07-12T14:37:18Z</time>
      </trkpt>
      <trkpt lat="45.907321" lon="6.813474">
        <ele>1514.221</ele>
        <time>2018-07-12T14:38:16Z</time>
      </trkpt>
      <trkpt lat="45.907327" lon="6.813409">
        <ele>1515.703</ele>
        <time>2018-07-12T14:38:22Z</time>
      </trkpt>
      <trkpt lat="45.907367" lon="6.813349">
        <ele>1515.108</ele>
        <time>2018-07-12T14:38:26Z</time>
      </trkpt>
      <trkpt lat="45.907398" lon="6.813297">
        <ele>1514.663</ele>
        <time>2018-07-12T14:38:31Z</time>
      </trkpt>
      <trkpt lat="45.907407" lon="6.813220">
        <ele>1511.227</ele>
        <time>2018-07-12T14:38:37Z</time>
      </trkpt>
      <trkpt lat="45.907397" lon="6.813144">
        <ele>1510.975</ele>
        <time>2018-07-12T14:38:41Z</time>
      </trkpt>
      <trkpt lat="45.907396" lon="6.813079">
        <ele>1510.944</ele>
        <time>2018-07-12T14:38:45Z</time>
      </trkpt>
      <trkpt lat="45.907380" lon="6.813009">
        <ele>1510.778</ele>
        <time>2018-07-12T14:38:48Z</time>
      </trkpt>
      <trkpt lat="45.907361" lon="6.812924">
        <ele>1510.673</ele>
        <time>2018-07-12T14:38:51Z</time>
      </trkpt>
      <trkpt lat="45.907350" lon="6.812852">
        <ele>1510.457</ele>
        <time>2018-07-12T14:38:54Z</time>
      </trkpt>
      <trkpt lat="45.907319" lon="6.812789">
        <ele>1510.433</ele>
        <time>2018-07-12T14:38:58Z</time>
      </trkpt>
      <trkpt lat="45.907297" lon="6.812720">
        <ele>1511.421</ele>
        <time>2018-07-12T14:39:03Z</time>
      </trkpt>
      <trkpt lat="45.907269" lon="6.812664">
        <ele>1510.341</ele>
        <time>2018-07-12T14:39:09Z</time>
      </trkpt>
      <trkpt lat="45.907234" lon="6.812615">
        <ele>1511.205</ele>
        <time>2018-07-12T14:39:18Z</time>
      </trkpt>
      <trkpt lat="45.907185" lon="6.812559">
        <ele>1509.908</ele>
        <time>2018-07-12T14:39:28Z</time>
      </trkpt>
      <trkpt lat="45.907165" lon="6.812500">
        <ele>1509.174</ele>
        <time>2018-07-12T14:39:34Z</time>
      </trkpt>
      <trkpt lat="45.907150" lon="6.812436">
        <ele>1507.058</ele>
        <time>2018-07-12T14:39:42Z</time>
      </trkpt>
      <trkpt lat="45.907148" lon="6.812361">
        <ele>1507.126</ele>
        <time>2018-07-12T14:39:48Z</time>
      </trkpt>
      <trkpt lat="45.907135" lon="6.812291">
        <ele>1507.045</ele>
        <time>2018-07-12T14:39:51Z</time>
      </trkpt>
      <trkpt lat="45.907128" lon="6.812224">
        <ele>1504.429</ele>
        <time>2018-07-12T14:39:55Z</time>
      </trkpt>
      <trkpt lat="45.907104" lon="6.812137">
        <ele>1502.314</ele>
        <time>2018-07-12T14:40:08Z</time>
      </trkpt>
      <trkpt lat="45.907080" lon="6.812080">
        <ele>1501.658</ele>
        <time>2018-07-12T14:40:13Z</time>
      </trkpt>
      <trkpt lat="45.907055" lon="6.812022">
        <ele>1500.354</ele>
        <time>2018-07-12T14:40:20Z</time>
      </trkpt>
      <trkpt lat="45.907029" lon="6.811960">
        <ele>1502.183</ele>
        <time>2018-07-12T14:40:25Z</time>
      </trkpt>
      <trkpt lat="45.907021" lon="6.811895">
        <ele>1501.225</ele>
        <time>2018-07-12T14:40:29Z</time>
      </trkpt>
      <trkpt lat="45.907010" lon="6.811807">
        <ele>1497.617</ele>
        <time>2018-07-12T14:40:38Z</time>
      </trkpt>
      <trkpt lat="45.906989" lon="6.811741">
        <ele>1499.208</ele>
        <time>2018-07-12T14:40:44Z</time>
      </trkpt>
      <trkpt lat="45.906962" lon="6.811679">
        <ele>1498.580</ele>
        <time>2018-07-12T14:40:49Z</time>
      </trkpt>
      <trkpt lat="45.906955" lon="6.811610">
        <ele>1495.574</ele>
        <time>2018-07-12T14:40:56Z</time>
      </trkpt>
      <trkpt lat="45.906947" lon="6.811543">
        <ele>1495.212</ele>
        <time>2018-07-12T14:40:59Z</time>
      </trkpt>
      <trkpt lat="45.906946" lon="6.811464">
        <ele>1495.111</ele>
        <time>2018-07-12T14:41:04Z</time>
      </trkpt>
      <trkpt lat="45.906942" lon="6.811398">
        <ele>1495.255</ele>
        <time>2018-07-12T14:41:11Z</time>
      </trkpt>
      <trkpt lat="45.906919" lon="6.811455">
        <ele>1492.380</ele>
        <time>2018-07-12T14:41:37Z</time>
      </trkpt>
      <trkpt lat="45.906885" lon="6.811511">
        <ele>1488.954</ele>
        <time>2018-07-12T14:41:44Z</time>
      </trkpt>
      <trkpt lat="45.906887" lon="6.811576">
        <ele>1488.220</ele>
        <time>2018-07-12T14:41:49Z</time>
      </trkpt>
      <trkpt lat="45.906875" lon="6.811642">
        <ele>1487.251</ele>
        <time>2018-07-12T14:41:57Z</time>
      </trkpt>
      <trkpt lat="45.906867" lon="6.811715">
        <ele>1486.101</ele>
        <time>2018-07-12T14:42:04Z</time>
      </trkpt>
      <trkpt lat="45.906866" lon="6.811787">
        <ele>1484.911</ele>
        <time>2018-07-12T14:42:11Z</time>
      </trkpt>
      <trkpt lat="45.906847" lon="6.811850">
        <ele>1483.508</ele>
        <time>2018-07-12T14:42:20Z</time>
      </trkpt>
      <trkpt lat="45.906836" lon="6.811920">
        <ele>1481.857</ele>
        <time>2018-07-12T14:42:29Z</time>
      </trkpt>
      <trkpt lat="45.906838" lon="6.811987">
        <ele>1482.641</ele>
        <time>2018-07-12T14:42:36Z</time>
      </trkpt>
      <trkpt lat="45.906826" lon="6.812057">
        <ele>1481.519</ele>
        <time>2018-07-12T14:42:44Z</time>
      </trkpt>
      <trkpt lat="45.906817" lon="6.812123">
        <ele>1480.758</ele>
        <time>2018-07-12T14:42:48Z</time>
      </trkpt>
      <trkpt lat="45.906807" lon="6.812191">
        <ele>1477.652</ele>
        <time>2018-07-12T14:42:55Z</time>
      </trkpt>
      <trkpt lat="45.906779" lon="6.812244">
        <ele>1476.117</ele>
        <time>2018-07-12T14:43:09Z</time>
      </trkpt>
      <trkpt lat="45.906776" lon="6.812313">
        <ele>1477.831</ele>
        <time>2018-07-12T14:43:15Z</time>
      </trkpt>
      <trkpt lat="45.906776" lon="6.812385">
        <ele>1477.327</ele>
        <time>2018-07-12T14:43:20Z</time>
      </trkpt>
      <trkpt lat="45.906777" lon="6.812463">
        <ele>1477.419</ele>
        <time>2018-07-12T14:43:26Z</time>
      </trkpt>
      <trkpt lat="45.906773" lon="6.812533">
        <ele>1476.909</ele>
        <time>2018-07-12T14:43:32Z</time>
      </trkpt>
      <trkpt lat="45.906756" lon="6.812597">
        <ele>1473.519</ele>
        <time>2018-07-12T14:43:39Z</time>
      </trkpt>
      <trkpt lat="45.906725" lon="6.812644">
        <ele>1474.108</ele>
        <time>2018-07-12T14:43:51Z</time>
      </trkpt>
      <trkpt lat="45.906695" lon="6.812693">
        <ele>1467.933</ele>
        <time>2018-07-12T14:44:19Z</time>
      </trkpt>
      <trkpt lat="45.906708" lon="6.812762">
        <ele>1467.197</ele>
        <time>2018-07-12T14:44:28Z</time>
      </trkpt>
      <trkpt lat="45.906718" lon="6.812838">
        <ele>1463.445</ele>
        <time>2018-07-12T14:44:34Z</time>
      </trkpt>
      <trkpt lat="45.906730" lon="6.812908">
        <ele>1462.574</ele>
        <time>2018-07-12T14:44:41Z</time>
      </trkpt>
      <trkpt lat="45.906716" lon="6.812979">
        <ele>1459.358</ele>
        <time>2018-07-12T14:44:54Z</time>
      </trkpt>
      <trkpt lat="45.906707" lon="6.813044">
        <ele>1459.423</ele>
        <time>2018-07-12T14:44:59Z</time>
      </trkpt>
      <trkpt lat="45.906700" lon="6.813116">
        <ele>1457.877</ele>
        <time>2018-07-12T14:45:05Z</time>
      </trkpt>
      <trkpt lat="45.906685" lon="6.813187">
        <ele>1457.183</ele>
        <time>2018-07-12T14:45:10Z</time>
      </trkpt>
      <trkpt lat="45.906662" lon="6.813253">
        <ele>1455.976</ele>
        <time>2018-07-12T14:45:18Z</time>
      </trkpt>
      <trkpt lat="45.906651" lon="6.813325">
        <ele>1454.990</ele>
        <time>2018-07-12T14:45:27Z</time>
      </trkpt>
      <trkpt lat="45.906645" lon="6.813391">
        <ele>1456.419</ele>
        <time>2018-07-12T14:45:33Z</time>
      </trkpt>
      <trkpt lat="45.906635" lon="6.813458">
        <ele>1453.308</ele>
        <time>2018-07-12T14:45:42Z</time>
      </trkpt>
      <trkpt lat="45.906655" lon="6.813525">
        <ele>1452.959</ele>
        <time>2018-07-12T14:45:48Z</time>
      </trkpt>
      <trkpt lat="45.906626" lon="6.813580">
        <ele>1451.343</ele>
        <time>2018-07-12T14:45:57Z</time>
      </trkpt>
      <trkpt lat="45.906625" lon="6.813646">
        <ele>1450.571</ele>
        <time>2018-07-12T14:46:03Z</time>
      </trkpt>
      <trkpt lat="45.906634" lon="6.813713">
        <ele>1450.020</ele>
        <time>2018-07-12T14:46:08Z</time>
      </trkpt>
      <trkpt lat="45.906651" lon="6.813785">
        <ele>1452.124</ele>
        <time>2018-07-12T14:46:12Z</time>
      </trkpt>
      <trkpt lat="45.906656" lon="6.813856">
        <ele>1452.069</ele>
        <time>2018-07-12T14:46:16Z</time>
      </trkpt>
      <trkpt lat="45.906652" lon="6.813934">
        <ele>1451.333</ele>
        <time>2018-07-12T14:46:21Z</time>
      </trkpt>
      <trkpt lat="45.906664" lon="6.814005">
        <ele>1451.089</ele>
        <time>2018-07-12T14:46:25Z</time>
      </trkpt>
      <trkpt lat="45.906669" lon="6.814082">
        <ele>1450.585</ele>
        <time>2018-07-12T14:46:30Z</time>
      </trkpt>
      <trkpt lat="45.906675" lon="6.814151">
        <ele>1449.689</ele>
        <time>2018-07-12T14:46:35Z</time>
      </trkpt>
      <trkpt lat="45.906661" lon="6.814215">
        <ele>1447.417</ele>
        <time>2018-07-12T14:46:41Z</time>
      </trkpt>
      <trkpt lat="45.906648" lon="6.814286">
        <ele>1447.608</ele>
        <time>2018-07-12T14:46:47Z</time>
      </trkpt>
      <trkpt lat="45.906634" lon="6.814355">
        <ele>1446.590</ele>
        <time>2018-07-12T14:46:50Z</time>
      </trkpt>
      <trkpt lat="45.906602" lon="6.814427">
        <ele>1445.714</ele>
        <time>2018-07-12T14:46:54Z</time>
      </trkpt>
      <trkpt lat="45.906571" lon="6.814478">
        <ele>1445.232</ele>
        <time>2018-07-12T14:46:58Z</time>
      </trkpt>
      <trkpt lat="45.906536" lon="6.814526">
        <ele>1445.781</ele>
        <time>2018-07-12T14:47:05Z</time>
      </trkpt>
      <trkpt lat="45.906503" lon="6.814464">
        <ele>1444.455</ele>
        <time>2018-07-12T14:47:14Z</time>
      </trkpt>
      <trkpt lat="45.906491" lon="6.814390">
        <ele>1444.770</ele>
        <time>2018-07-12T14:47:19Z</time>
      </trkpt>
      <trkpt lat="45.906478" lon="6.814314">
        <ele>1444.084</ele>
        <time>2018-07-12T14:47:24Z</time>
      </trkpt>
      <trkpt lat="45.906464" lon="6.814244">
        <ele>1442.870</ele>
        <time>2018-07-12T14:47:30Z</time>
      </trkpt>
      <trkpt lat="45.906469" lon="6.814175">
        <ele>1441.845</ele>
        <time>2018-07-12T14:47:36Z</time>
      </trkpt>
      <trkpt lat="45.906470" lon="6.814098">
        <ele>1440.547</ele>
        <time>2018-07-12T14:47:44Z</time>
      </trkpt>
      <trkpt lat="45.906456" lon="6.814030">
        <ele>1439.811</ele>
        <time>2018-07-12T14:47:49Z</time>
      </trkpt>
      <trkpt lat="45.906442" lon="6.813960">
        <ele>1436.708</ele>
        <time>2018-07-12T14:47:54Z</time>
      </trkpt>
      <trkpt lat="45.906421" lon="6.813898">
        <ele>1438.246</ele>
        <time>2018-07-12T14:47:59Z</time>
      </trkpt>
      <trkpt lat="45.906391" lon="6.813848">
        <ele>1437.130</ele>
        <time>2018-07-12T14:48:07Z</time>
      </trkpt>
      <trkpt lat="45.906364" lon="6.813787">
        <ele>1436.828</ele>
        <time>2018-07-12T14:48:12Z</time>
      </trkpt>
      <trkpt lat="45.906345" lon="6.813726">
        <ele>1434.017</ele>
        <time>2018-07-12T14:48:16Z</time>
      </trkpt>
      <trkpt lat="45.906317" lon="6.813672">
        <ele>1432.871</ele>
        <time>2018-07-12T14:48:23Z</time>
      </trkpt>
      <trkpt lat="45.906280" lon="6.813619">
        <ele>1432.356</ele>
        <time>2018-07-12T14:48:30Z</time>
      </trkpt>
      <trkpt lat="45.906248" lon="6.813568">
        <ele>1433.920</ele>
        <time>2018-07-12T14:48:36Z</time>
      </trkpt>
      <trkpt lat="45.906212" lon="6.813469">
        <ele>1431.376</ele>
        <time>2018-07-12T14:48:48Z</time>
      </trkpt>
      <trkpt lat="45.906211" lon="6.813402">
        <ele>1428.827</ele>
        <time>2018-07-12T14:48:55Z</time>
      </trkpt>
      <trkpt lat="45.906204" lon="6.813326">
        <ele>1427.568</ele>
        <time>2018-07-12T14:49:00Z</time>
      </trkpt>
      <trkpt lat="45.906200" lon="6.813255">
        <ele>1429.614</ele>
        <time>2018-07-12T14:49:04Z</time>
      </trkpt>
      <trkpt lat="45.906177" lon="6.813157">
        <ele>1429.208</ele>
        <time>2018-07-12T14:49:08Z</time>
      </trkpt>
      <trkpt lat="45.906152" lon="6.813087">
        <ele>1428.824</ele>
        <time>2018-07-12T14:49:11Z</time>
      </trkpt>
      <trkpt lat="45.906129" lon="6.813013">
        <ele>1426.378</ele>
        <time>2018-07-12T14:49:15Z</time>
      </trkpt>
      <trkpt lat="45.906119" lon="6.812933">
        <ele>1426.986</ele>
        <time>2018-07-12T14:49:19Z</time>
      </trkpt>
      <trkpt lat="45.906093" lon="6.812877">
        <ele>1426.095</ele>
        <time>2018-07-12T14:49:22Z</time>
      </trkpt>
      <trkpt lat="45.906045" lon="6.812875">
        <ele>1425.729</ele>
        <time>2018-07-12T14:49:34Z</time>
      </trkpt>
      <trkpt lat="45.906062" lon="6.812948">
        <ele>1425.084</ele>
        <time>2018-07-12T14:49:39Z</time>
      </trkpt>
      <trkpt lat="45.906070" lon="6.813014">
        <ele>1423.518</ele>
        <time>2018-07-12T14:49:45Z</time>
      </trkpt>
      <trkpt lat="45.906070" lon="6.813081">
        <ele>1418.784</ele>
        <time>2018-07-12T14:49:55Z</time>
      </trkpt>
      <trkpt lat="45.906021" lon="6.813090">
        <ele>1417.166</ele>
        <time>2018-07-12T14:50:01Z</time>
      </trkpt>
      <trkpt lat="45.905971" lon="6.813087">
        <ele>1418.729</ele>
        <time>2018-07-12T14:50:05Z</time>
      </trkpt>
      <trkpt lat="45.905945" lon="6.813033">
        <ele>1416.921</ele>
        <time>2018-07-12T14:50:11Z</time>
      </trkpt>
      <trkpt lat="45.905914" lon="6.812983">
        <ele>1414.808</ele>
        <time>2018-07-12T14:50:18Z</time>
      </trkpt>
      <trkpt lat="45.905868" lon="6.812960">
        <ele>1415.388</ele>
        <time>2018-07-12T14:50:23Z</time>
      </trkpt>
      <trkpt lat="45.905845" lon="6.812888">
        <ele>1414.762</ele>
        <time>2018-07-12T14:50:28Z</time>
      </trkpt>
      <trkpt lat="45.905843" lon="6.812822">
        <ele>1414.590</ele>
        <time>2018-07-12T14:50:32Z</time>
      </trkpt>
      <trkpt lat="45.905840" lon="6.812749">
        <ele>1411.949</ele>
        <time>2018-07-12T14:50:39Z</time>
      </trkpt>
      <trkpt lat="45.905818" lon="6.812691">
        <ele>1412.153</ele>
        <time>2018-07-12T14:50:47Z</time>
      </trkpt>
      <trkpt lat="45.905803" lon="6.812626">
        <ele>1410.698</ele>
        <time>2018-07-12T14:50:58Z</time>
      </trkpt>
      <trkpt lat="45.905801" lon="6.812547">
        <ele>1409.482</ele>
        <time>2018-07-12T14:51:05Z</time>
      </trkpt>
      <trkpt lat="45.905784" lon="6.812487">
        <ele>1408.458</ele>
        <time>2018-07-12T14:51:12Z</time>
      </trkpt>
      <trkpt lat="45.905775" lon="6.812416">
        <ele>1406.795</ele>
        <time>2018-07-12T14:51:18Z</time>
      </trkpt>
      <trkpt lat="45.905739" lon="6.812351">
        <ele>1407.249</ele>
        <time>2018-07-12T14:51:22Z</time>
      </trkpt>
      <trkpt lat="45.905702" lon="6.812312">
        <ele>1407.723</ele>
        <time>2018-07-12T14:51:25Z</time>
      </trkpt>
      <trkpt lat="45.905670" lon="6.812264">
        <ele>1407.208</ele>
        <time>2018-07-12T14:51:30Z</time>
      </trkpt>
      <trkpt lat="45.905664" lon="6.812196">
        <ele>1404.851</ele>
        <time>2018-07-12T14:51:38Z</time>
      </trkpt>
      <trkpt lat="45.905642" lon="6.812135">
        <ele>1403.865</ele>
        <time>2018-07-12T14:51:48Z</time>
      </trkpt>
      <trkpt lat="45.905628" lon="6.812072">
        <ele>1402.543</ele>
        <time>2018-07-12T14:51:57Z</time>
      </trkpt>
      <trkpt lat="45.905583" lon="6.812028">
        <ele>1402.212</ele>
        <time>2018-07-12T14:52:06Z</time>
      </trkpt>
      <trkpt lat="45.905565" lon="6.811950">
        <ele>1398.426</ele>
        <time>2018-07-12T14:52:21Z</time>
      </trkpt>
      <trkpt lat="45.905549" lon="6.811878">
        <ele>1399.241</ele>
        <time>2018-07-12T14:52:31Z</time>
      </trkpt>
      <trkpt lat="45.905554" lon="6.811806">
        <ele>1397.445</ele>
        <time>2018-07-12T14:52:52Z</time>
      </trkpt>
      <trkpt lat="45.905538" lon="6.811740">
        <ele>1397.381</ele>
        <time>2018-07-12T14:52:57Z</time>
      </trkpt>
      <trkpt lat="45.905522" lon="6.811671">
        <ele>1396.644</ele>
        <time>2018-07-12T14:53:03Z</time>
      </trkpt>
      <trkpt lat="45.905514" lon="6.811604">
        <ele>1396.405</ele>
        <time>2018-07-12T14:53:08Z</time>
      </trkpt>
      <trkpt lat="45.905521" lon="6.811536">
        <ele>1393.715</ele>
        <time>2018-07-12T14:53:14Z</time>
      </trkpt>
      <trkpt lat="45.905518" lon="6.811470">
        <ele>1392.508</ele>
        <time>2018-07-12T14:53:20Z</time>
      </trkpt>
      <trkpt lat="45.905507" lon="6.811396">
        <ele>1393.646</ele>
        <time>2018-07-12T14:53:25Z</time>
      </trkpt>
      <trkpt lat="45.905499" lon="6.811317">
        <ele>1392.270</ele>
        <time>2018-07-12T14:53:31Z</time>
      </trkpt>
      <trkpt lat="45.905483" lon="6.811255">
        <ele>1389.358</ele>
        <time>2018-07-12T14:53:36Z</time>
      </trkpt>
      <trkpt lat="45.905471" lon="6.811181">
        <ele>1388.797</ele>
        <time>2018-07-12T14:53:41Z</time>
      </trkpt>
      <trkpt lat="45.905460" lon="6.811116">
        <ele>1389.781</ele>
        <time>2018-07-12T14:53:46Z</time>
      </trkpt>
      <trkpt lat="45.905445" lon="6.811048">
        <ele>1388.876</ele>
        <time>2018-07-12T14:53:51Z</time>
      </trkpt>
      <trkpt lat="45.905438" lon="6.810979">
        <ele>1386.720</ele>
        <time>2018-07-12T14:53:57Z</time>
      </trkpt>
      <trkpt lat="45.905433" lon="6.810911">
        <ele>1386.896</ele>
        <time>2018-07-12T14:54:04Z</time>
      </trkpt>
      <trkpt lat="45.905424" lon="6.810844">
        <ele>1386.932</ele>
        <time>2018-07-12T14:54:14Z</time>
      </trkpt>
      <trkpt lat="45.905418" lon="6.810775">
        <ele>1386.092</ele>
        <time>2018-07-12T14:54:19Z</time>
      </trkpt>
      <trkpt lat="45.905421" lon="6.810700">
        <ele>1385.611</ele>
        <time>2018-07-12T14:54:23Z</time>
      </trkpt>
      <trkpt lat="45.905426" lon="6.810632">
        <ele>1385.708</ele>
        <time>2018-07-12T14:54:28Z</time>
      </trkpt>
      <trkpt lat="45.905428" lon="6.810552">
        <ele>1385.055</ele>
        <time>2018-07-12T14:54:33Z</time>
      </trkpt>
      <trkpt lat="45.905424" lon="6.810479">
        <ele>1382.829</ele>
        <time>2018-07-12T14:54:39Z</time>
      </trkpt>
      <trkpt lat="45.905424" lon="6.810406">
        <ele>1382.937</ele>
        <time>2018-07-12T14:54:45Z</time>
      </trkpt>
      <trkpt lat="45.905429" lon="6.810332">
        <ele>1381.176</ele>
        <time>2018-07-12T14:54:52Z</time>
      </trkpt>
      <trkpt lat="45.905419" lon="6.810261">
        <ele>1379.480</ele>
        <time>2018-07-12T14:54:57Z</time>
      </trkpt>
      <trkpt lat="45.905411" lon="6.810193">
        <ele>1380.475</ele>
        <time>2018-07-12T14:55:02Z</time>
      </trkpt>
      <trkpt lat="45.905405" lon="6.810120">
        <ele>1379.229</ele>
        <time>2018-07-12T14:55:07Z</time>
      </trkpt>
      <trkpt lat="45.905386" lon="6.810061">
        <ele>1380.285</ele>
        <time>2018-07-12T14:55:11Z</time>
      </trkpt>
      <trkpt lat="45.905393" lon="6.809986">
        <ele>1380.238</ele>
        <time>2018-07-12T14:55:17Z</time>
      </trkpt>
      <trkpt lat="45.905392" lon="6.809913">
        <ele>1380.270</ele>
        <time>2018-07-12T14:55:22Z</time>
      </trkpt>
      <trkpt lat="45.905379" lon="6.809843">
        <ele>1379.317</ele>
        <time>2018-07-12T14:55:27Z</time>
      </trkpt>
      <trkpt lat="45.905367" lon="6.809773">
        <ele>1378.808</ele>
        <time>2018-07-12T14:55:32Z</time>
      </trkpt>
      <trkpt lat="45.905352" lon="6.809700">
        <ele>1377.155</ele>
        <time>2018-07-12T14:55:37Z</time>
      </trkpt>
      <trkpt lat="45.905338" lon="6.809636">
        <ele>1377.099</ele>
        <time>2018-07-12T14:55:42Z</time>
      </trkpt>
      <trkpt lat="45.905306" lon="6.809575">
        <ele>1377.287</ele>
        <time>2018-07-12T14:55:49Z</time>
      </trkpt>
      <trkpt lat="45.905268" lon="6.809517">
        <ele>1374.416</ele>
        <time>2018-07-12T14:55:55Z</time>
      </trkpt>
      <trkpt lat="45.905244" lon="6.809459">
        <ele>1374.130</ele>
        <time>2018-07-12T14:55:59Z</time>
      </trkpt>
      <trkpt lat="45.905289" lon="6.809453">
        <ele>1370.415</ele>
        <time>2018-07-12T14:56:24Z</time>
      </trkpt>
      <trkpt lat="45.905332" lon="6.809497">
        <ele>1372.079</ele>
        <time>2018-07-12T14:56:29Z</time>
      </trkpt>
      <trkpt lat="45.905280" lon="6.809480">
        <ele>1371.425</ele>
        <time>2018-07-12T14:56:32Z</time>
      </trkpt>
      <trkpt lat="45.905221" lon="6.809467">
        <ele>1371.085</ele>
        <time>2018-07-12T14:56:34Z</time>
      </trkpt>
      <trkpt lat="45.905241" lon="6.809527">
        <ele>1369.889</ele>
        <time>2018-07-12T14:56:40Z</time>
      </trkpt>
      <trkpt lat="45.905259" lon="6.809587">
        <ele>1369.117</ele>
        <time>2018-07-12T14:56:44Z</time>
      </trkpt>
      <trkpt lat="45.905236" lon="6.809686">
        <ele>1364.508</ele>
        <time>2018-07-12T14:57:17Z</time>
      </trkpt>
      <trkpt lat="45.905192" lon="6.809833">
        <ele>1362.460</ele>
        <time>2018-07-12T14:57:58Z</time>
      </trkpt>
      <trkpt lat="45.905090" lon="6.809886">
        <ele>1354.844</ele>
        <time>2018-07-12T14:58:59Z</time>
      </trkpt>
      <trkpt lat="45.905040" lon="6.809847">
        <ele>1354.412</ele>
        <time>2018-07-12T14:59:08Z</time>
      </trkpt>
      <trkpt lat="45.905001" lon="6.809812">
        <ele>1353.831</ele>
        <time>2018-07-12T14:59:11Z</time>
      </trkpt>
      <trkpt lat="45.904953" lon="6.809776">
        <ele>1351.815</ele>
        <time>2018-07-12T14:59:15Z</time>
      </trkpt>
      <trkpt lat="45.904930" lon="6.809720">
        <ele>1352.740</ele>
        <time>2018-07-12T14:59:22Z</time>
      </trkpt>
      <trkpt lat="45.904917" lon="6.809653">
        <ele>1348.674</ele>
        <time>2018-07-12T14:59:40Z</time>
      </trkpt>
      <trkpt lat="45.904933" lon="6.809583">
        <ele>1347.030</ele>
        <time>2018-07-12T14:59:58Z</time>
      </trkpt>
      <trkpt lat="45.904929" lon="6.809515">
        <ele>1345.825</ele>
        <time>2018-07-12T15:00:03Z</time>
      </trkpt>
      <trkpt lat="45.904920" lon="6.809448">
        <ele>1345.126</ele>
        <time>2018-07-12T15:00:08Z</time>
      </trkpt>
      <trkpt lat="45.904892" lon="6.809376">
        <ele>1342.608</ele>
        <time>2018-07-12T15:00:13Z</time>
      </trkpt>
      <trkpt lat="45.904869" lon="6.809306">
        <ele>1342.408</ele>
        <time>2018-07-12T15:00:17Z</time>
      </trkpt>
      <trkpt lat="45.904861" lon="6.809242">
        <ele>1344.664</ele>
        <time>2018-07-12T15:00:21Z</time>
      </trkpt>
      <trkpt lat="45.904845" lon="6.809168">
        <ele>1344.298</ele>
        <time>2018-07-12T15:00:25Z</time>
      </trkpt>
      <trkpt lat="45.904843" lon="6.809100">
        <ele>1344.496</ele>
        <time>2018-07-12T15:00:29Z</time>
      </trkpt>
      <trkpt lat="45.904815" lon="6.809037">
        <ele>1342.475</ele>
        <time>2018-07-12T15:00:34Z</time>
      </trkpt>
      <trkpt lat="45.904792" lon="6.808975">
        <ele>1343.339</ele>
        <time>2018-07-12T15:00:42Z</time>
      </trkpt>
      <trkpt lat="45.904762" lon="6.808917">
        <ele>1342.054</ele>
        <time>2018-07-12T15:00:50Z</time>
      </trkpt>
      <trkpt lat="45.904737" lon="6.808842">
        <ele>1339.228</ele>
        <time>2018-07-12T15:01:05Z</time>
      </trkpt>
      <trkpt lat="45.904726" lon="6.808772">
        <ele>1336.294</ele>
        <time>2018-07-12T15:01:13Z</time>
      </trkpt>
      <trkpt lat="45.904709" lon="6.808711">
        <ele>1336.018</ele>
        <time>2018-07-12T15:01:50Z</time>
      </trkpt>
      <trkpt lat="45.904704" lon="6.808643">
        <ele>1332.598</ele>
        <time>2018-07-12T15:01:58Z</time>
      </trkpt>
      <trkpt lat="45.904693" lon="6.808576">
        <ele>1333.617</ele>
        <time>2018-07-12T15:02:03Z</time>
      </trkpt>
      <trkpt lat="45.904664" lon="6.808514">
        <ele>1331.908</ele>
        <time>2018-07-12T15:02:07Z</time>
      </trkpt>
      <trkpt lat="45.904654" lon="6.808447">
        <ele>1330.543</ele>
        <time>2018-07-12T15:02:13Z</time>
      </trkpt>
      <trkpt lat="45.904679" lon="6.808385">
        <ele>1329.387</ele>
        <time>2018-07-12T15:02:20Z</time>
      </trkpt>
      <trkpt lat="45.904666" lon="6.808315">
        <ele>1328.915</ele>
        <time>2018-07-12T15:02:25Z</time>
      </trkpt>
      <trkpt lat="45.904643" lon="6.808238">
        <ele>1329.964</ele>
        <time>2018-07-12T15:02:30Z</time>
      </trkpt>
      <trkpt lat="45.904622" lon="6.808161">
        <ele>1329.838</ele>
        <time>2018-07-12T15:02:34Z</time>
      </trkpt>
      <trkpt lat="45.904594" lon="6.808086">
        <ele>1328.233</ele>
        <time>2018-07-12T15:02:38Z</time>
      </trkpt>
      <trkpt lat="45.904573" lon="6.808021">
        <ele>1329.737</ele>
        <time>2018-07-12T15:02:44Z</time>
      </trkpt>
      <trkpt lat="45.904562" lon="6.807956">
        <ele>1328.773</ele>
        <time>2018-07-12T15:02:48Z</time>
      </trkpt>
      <trkpt lat="45.904550" lon="6.807893">
        <ele>1328.442</ele>
        <time>2018-07-12T15:02:52Z</time>
      </trkpt>
      <trkpt lat="45.904539" lon="6.807820">
        <ele>1328.022</ele>
        <time>2018-07-12T15:02:58Z</time>
      </trkpt>
      <trkpt lat="45.904526" lon="6.807754">
        <ele>1328.314</ele>
        <time>2018-07-12T15:03:02Z</time>
      </trkpt>
      <trkpt lat="45.904500" lon="6.807687">
        <ele>1327.208</ele>
        <time>2018-07-12T15:03:09Z</time>
      </trkpt>
      <trkpt lat="45.904482" lon="6.807622">
        <ele>1325.386</ele>
        <time>2018-07-12T15:03:13Z</time>
      </trkpt>
      <trkpt lat="45.904470" lon="6.807558">
        <ele>1324.280</ele>
        <time>2018-07-12T15:03:21Z</time>
      </trkpt>
      <trkpt lat="45.904423" lon="6.807531">
        <ele>1324.518</ele>
        <time>2018-07-12T15:03:24Z</time>
      </trkpt>
      <trkpt lat="45.904374" lon="6.807480">
        <ele>1323.627</ele>
        <time>2018-07-12T15:03:29Z</time>
      </trkpt>
      <trkpt lat="45.904332" lon="6.807424">
        <ele>1322.291</ele>
        <time>2018-07-12T15:03:33Z</time>
      </trkpt>
      <trkpt lat="45.904296" lon="6.807371">
        <ele>1321.676</ele>
        <time>2018-07-12T15:03:38Z</time>
      </trkpt>
      <trkpt lat="45.904274" lon="6.807305">
        <ele>1322.720</ele>
        <time>2018-07-12T15:03:43Z</time>
      </trkpt>
      <trkpt lat="45.904245" lon="6.807231">
        <ele>1320.936</ele>
        <time>2018-07-12T15:04:08Z</time>
      </trkpt>
      <trkpt lat="45.904265" lon="6.807173">
        <ele>1319.456</ele>
        <time>2018-07-12T15:04:29Z</time>
      </trkpt>
      <trkpt lat="45.904235" lon="6.807101">
        <ele>1317.359</ele>
        <time>2018-07-12T15:04:34Z</time>
      </trkpt>
      <trkpt lat="45.904231" lon="6.807028">
        <ele>1316.814</ele>
        <time>2018-07-12T15:04:38Z</time>
      </trkpt>
      <trkpt lat="45.904224" lon="6.806964">
        <ele>1316.508</ele>
        <time>2018-07-12T15:04:42Z</time>
      </trkpt>
      <trkpt lat="45.904204" lon="6.806904">
        <ele>1317.857</ele>
        <time>2018-07-12T15:04:47Z</time>
      </trkpt>
      <trkpt lat="45.904202" lon="6.806833">
        <ele>1316.241</ele>
        <time>2018-07-12T15:04:52Z</time>
      </trkpt>
      <trkpt lat="45.904198" lon="6.806756">
        <ele>1314.449</ele>
        <time>2018-07-12T15:04:57Z</time>
      </trkpt>
      <trkpt lat="45.904184" lon="6.806683">
        <ele>1314.088</ele>
        <time>2018-07-12T15:05:01Z</time>
      </trkpt>
      <trkpt lat="45.904161" lon="6.806620">
        <ele>1314.692</ele>
        <time>2018-07-12T15:05:05Z</time>
      </trkpt>
      <trkpt lat="45.904151" lon="6.806551">
        <ele>1314.247</ele>
        <time>2018-07-12T15:05:09Z</time>
      </trkpt>
      <trkpt lat="45.904133" lon="6.806475">
        <ele>1311.781</ele>
        <time>2018-07-12T15:05:14Z</time>
      </trkpt>
      <trkpt lat="45.904122" lon="6.806408">
        <ele>1311.457</ele>
        <time>2018-07-12T15:05:19Z</time>
      </trkpt>
      <trkpt lat="45.904113" lon="6.806339">
        <ele>1312.017</ele>
        <time>2018-07-12T15:05:23Z</time>
      </trkpt>
      <trkpt lat="45.904108" lon="6.806266">
        <ele>1311.587</ele>
        <time>2018-07-12T15:05:28Z</time>
      </trkpt>
      <trkpt lat="45.904106" lon="6.806184">
        <ele>1312.115</ele>
        <time>2018-07-12T15:05:33Z</time>
      </trkpt>
      <trkpt lat="45.904108" lon="6.806114">
        <ele>1310.808</ele>
        <time>2018-07-12T15:05:39Z</time>
      </trkpt>
      <trkpt lat="45.904119" lon="6.806045">
        <ele>1310.463</ele>
        <time>2018-07-12T15:05:44Z</time>
      </trkpt>
      <trkpt lat="45.904169" lon="6.806000">
        <ele>1310.097</ele>
        <time>2018-07-12T15:05:49Z</time>
      </trkpt>
      <trkpt lat="45.904199" lon="6.805939">
        <ele>1308.245</ele>
        <time>2018-07-12T15:05:54Z</time>
      </trkpt>
      <trkpt lat="45.904230" lon="6.805856">
        <ele>1308.944</ele>
        <time>2018-07-12T15:06:13Z</time>
      </trkpt>
      <trkpt lat="45.904269" lon="6.805798">
        <ele>1307.548</ele>
        <time>2018-07-12T15:06:18Z</time>
      </trkpt>
      <trkpt lat="45.904296" lon="6.805729">
        <ele>1307.363</ele>
        <time>2018-07-12T15:06:21Z</time>
      </trkpt>
      <trkpt lat="45.904320" lon="6.805654">
        <ele>1307.537</ele>
        <time>2018-07-12T15:06:24Z</time>
      </trkpt>
      <trkpt lat="45.904331" lon="6.805586">
        <ele>1307.513</ele>
        <time>2018-07-12T15:06:27Z</time>
      </trkpt>
      <trkpt lat="45.904329" lon="6.805519">
        <ele>1308.197</ele>
        <time>2018-07-12T15:06:30Z</time>
      </trkpt>
      <trkpt lat="45.904325" lon="6.805445">
        <ele>1306.923</ele>
        <time>2018-07-12T15:06:34Z</time>
      </trkpt>
      <trkpt lat="45.904322" lon="6.805372">
        <ele>1308.725</ele>
        <time>2018-07-12T15:06:38Z</time>
      </trkpt>
      <trkpt lat="45.904336" lon="6.805297">
        <ele>1306.808</ele>
        <time>2018-07-12T15:06:43Z</time>
      </trkpt>
      <trkpt lat="45.904355" lon="6.805231">
        <ele>1306.671</ele>
        <time>2018-07-12T15:06:48Z</time>
      </trkpt>
      <trkpt lat="45.904351" lon="6.805162">
        <ele>1305.465</ele>
        <time>2018-07-12T15:06:53Z</time>
      </trkpt>
      <trkpt lat="45.904327" lon="6.805103">
        <ele>1304.533</ele>
        <time>2018-07-12T15:06:58Z</time>
      </trkpt>
      <trkpt lat="45.904328" lon="6.805033">
        <ele>1304.732</ele>
        <time>2018-07-12T15:07:06Z</time>
      </trkpt>
      <trkpt lat="45.904354" lon="6.804975">
        <ele>1305.476</ele>
        <time>2018-07-12T15:07:10Z</time>
      </trkpt>
      <trkpt lat="45.904381" lon="6.804918">
        <ele>1304.181</ele>
        <time>2018-07-12T15:07:17Z</time>
      </trkpt>
      <trkpt lat="45.904408" lon="6.804850">
        <ele>1301.645</ele>
        <time>2018-07-12T15:07:33Z</time>
      </trkpt>
      <trkpt lat="45.904395" lon="6.804767">
        <ele>1300.991</ele>
        <time>2018-07-12T15:07:38Z</time>
      </trkpt>
      <trkpt lat="45.904357" lon="6.804708">
        <ele>1301.627</ele>
        <time>2018-07-12T15:07:42Z</time>
      </trkpt>
      <trkpt lat="45.904362" lon="6.804635">
        <ele>1301.768</ele>
        <time>2018-07-12T15:07:47Z</time>
      </trkpt>
      <trkpt lat="45.904357" lon="6.804569">
        <ele>1301.214</ele>
        <time>2018-07-12T15:07:51Z</time>
      </trkpt>
      <trkpt lat="45.904385" lon="6.804518">
        <ele>1298.908</ele>
        <time>2018-07-12T15:07:55Z</time>
      </trkpt>
      <trkpt lat="45.904370" lon="6.804418">
        <ele>1294.714</ele>
        <time>2018-07-12T15:08:19Z</time>
      </trkpt>
      <trkpt lat="45.904364" lon="6.804333">
        <ele>1294.958</ele>
        <time>2018-07-12T15:08:24Z</time>
      </trkpt>
      <trkpt lat="45.904372" lon="6.804269">
        <ele>1294.136</ele>
        <time>2018-07-12T15:08:28Z</time>
      </trkpt>
      <trkpt lat="45.904367" lon="6.804199">
        <ele>1293.685</ele>
        <time>2018-07-12T15:08:32Z</time>
      </trkpt>
      <trkpt lat="45.904361" lon="6.804126">
        <ele>1291.769</ele>
        <time>2018-07-12T15:08:36Z</time>
      </trkpt>
      <trkpt lat="45.904346" lon="6.804055">
        <ele>1291.234</ele>
        <time>2018-07-12T15:08:40Z</time>
      </trkpt>
      <trkpt lat="45.904311" lon="6.804006">
        <ele>1290.968</ele>
        <time>2018-07-12T15:08:46Z</time>
      </trkpt>
      <trkpt lat="45.904271" lon="6.803964">
        <ele>1290.564</ele>
        <time>2018-07-12T15:08:51Z</time>
      </trkpt>
      <trkpt lat="45.904240" lon="6.803907">
        <ele>1288.477</ele>
        <time>2018-07-12T15:08:55Z</time>
      </trkpt>
      <trkpt lat="45.904217" lon="6.803837">
        <ele>1288.461</ele>
        <time>2018-07-12T15:08:59Z</time>
      </trkpt>
      <trkpt lat="45.904197" lon="6.803779">
        <ele>1289.327</ele>
        <time>2018-07-12T15:09:03Z</time>
      </trkpt>
      <trkpt lat="45.904183" lon="6.803714">
        <ele>1288.408</ele>
        <time>2018-07-12T15:09:07Z</time>
      </trkpt>
      <trkpt lat="45.904197" lon="6.803652">
        <ele>1286.279</ele>
        <time>2018-07-12T15:09:13Z</time>
      </trkpt>
      <trkpt lat="45.904177" lon="6.803590">
        <ele>1284.613</ele>
        <time>2018-07-12T15:09:21Z</time>
      </trkpt>
      <trkpt lat="45.904173" lon="6.803522">
        <ele>1284.741</ele>
        <time>2018-07-12T15:09:27Z</time>
      </trkpt>
      <trkpt lat="45.904167" lon="6.803448">
        <ele>1283.660</ele>
        <time>2018-07-12T15:09:37Z</time>
      </trkpt>
      <trkpt lat="45.904146" lon="6.803375">
        <ele>1281.954</ele>
        <time>2018-07-12T15:09:44Z</time>
      </trkpt>
      <trkpt lat="45.904111" lon="6.803326">
        <ele>1280.719</ele>
        <time>2018-07-12T15:09:53Z</time>
      </trkpt>
      <trkpt lat="45.904101" lon="6.803262">
        <ele>1279.263</ele>
        <time>2018-07-12T15:09:57Z</time>
      </trkpt>
      <trkpt lat="45.904118" lon="6.803200">
        <ele>1278.359</ele>
        <time>2018-07-12T15:10:01Z</time>
      </trkpt>
      <trkpt lat="45.904117" lon="6.803132">
        <ele>1279.642</ele>
        <time>2018-07-12T15:10:06Z</time>
      </trkpt>
      <trkpt lat="45.904116" lon="6.803062">
        <ele>1277.322</ele>
        <time>2018-07-12T15:10:13Z</time>
      </trkpt>
      <trkpt lat="45.904100" lon="6.802986">
        <ele>1276.514</ele>
        <time>2018-07-12T15:10:19Z</time>
      </trkpt>
      <trkpt lat="45.904083" lon="6.802914">
        <ele>1277.308</ele>
        <time>2018-07-12T15:10:22Z</time>
      </trkpt>
      <trkpt lat="45.904049" lon="6.802870">
        <ele>1276.936</ele>
        <time>2018-07-12T15:10:26Z</time>
      </trkpt>
      <trkpt lat="45.904049" lon="6.802802">
        <ele>1275.310</ele>
        <time>2018-07-12T15:10:32Z</time>
      </trkpt>
      <trkpt lat="45.904042" lon="6.802736">
        <ele>1274.778</ele>
        <time>2018-07-12T15:10:36Z</time>
      </trkpt>
      <trkpt lat="45.904022" lon="6.802670">
        <ele>1274.397</ele>
        <time>2018-07-12T15:10:41Z</time>
      </trkpt>
      <trkpt lat="45.904003" lon="6.802605">
        <ele>1273.711</ele>
        <time>2018-07-12T15:10:47Z</time>
      </trkpt>
      <trkpt lat="45.904000" lon="6.802540">
        <ele>1273.276</ele>
        <time>2018-07-12T15:10:51Z</time>
      </trkpt>
      <trkpt lat="45.903979" lon="6.802475">
        <ele>1270.860</ele>
        <time>2018-07-12T15:11:01Z</time>
      </trkpt>
      <trkpt lat="45.903976" lon="6.802410">
        <ele>1271.866</ele>
        <time>2018-07-12T15:11:04Z</time>
      </trkpt>
      <trkpt lat="45.903975" lon="6.802339">
        <ele>1270.716</ele>
        <time>2018-07-12T15:11:09Z</time>
      </trkpt>
      <trkpt lat="45.903949" lon="6.802271">
        <ele>1270.076</ele>
        <time>2018-07-12T15:11:13Z</time>
      </trkpt>
      <trkpt lat="45.903919" lon="6.802211">
        <ele>1267.913</ele>
        <time>2018-07-12T15:11:17Z</time>
      </trkpt>
      <trkpt lat="45.903925" lon="6.802141">
        <ele>1268.608</ele>
        <time>2018-07-12T15:11:23Z</time>
      </trkpt>
      <trkpt lat="45.903933" lon="6.802076">
        <ele>1267.323</ele>
        <time>2018-07-12T15:11:34Z</time>
      </trkpt>
      <trkpt lat="45.903907" lon="6.802004">
        <ele>1265.417</ele>
        <time>2018-07-12T15:11:40Z</time>
      </trkpt>
      <trkpt lat="45.903883" lon="6.801946">
        <ele>1266.095</ele>
        <time>2018-07-12T15:11:44Z</time>
      </trkpt>
      <trkpt lat="45.903866" lon="6.801882">
        <ele>1265.514</ele>
        <time>2018-07-12T15:11:50Z</time>
      </trkpt>
      <trkpt lat="45.903819" lon="6.801834">
        <ele>1263.598</ele>
        <time>2018-07-12T15:11:54Z</time>
      </trkpt>
      <trkpt lat="45.903783" lon="6.801794">
        <ele>1262.413</ele>
        <time>2018-07-12T15:11:58Z</time>
      </trkpt>
      <trkpt lat="45.903766" lon="6.801733">
        <ele>1263.117</ele>
        <time>2018-07-12T15:12:02Z</time>
      </trkpt>
      <trkpt lat="45.903761" lon="6.801812">
        <ele>1259.213</ele>
        <time>2018-07-12T15:12:18Z</time>
      </trkpt>
      <trkpt lat="45.903758" lon="6.801887">
        <ele>1260.268</ele>
        <time>2018-07-12T15:12:23Z</time>
      </trkpt>
      <trkpt lat="45.903788" lon="6.801941">
        <ele>1259.042</ele>
        <time>2018-07-12T15:12:27Z</time>
      </trkpt>
      <trkpt lat="45.903813" lon="6.802006">
        <ele>1258.026</ele>
        <time>2018-07-12T15:12:32Z</time>
      </trkpt>
      <trkpt lat="45.903832" lon="6.802076">
        <ele>1256.908</ele>
        <time>2018-07-12T15:12:42Z</time>
      </trkpt>
      <trkpt lat="45.903823" lon="6.802148">
        <ele>1255.818</ele>
        <time>2018-07-12T15:12:51Z</time>
      </trkpt>
      <trkpt lat="45.903773" lon="6.802170">
        <ele>1253.912</ele>
        <time>2018-07-12T15:12:55Z</time>
      </trkpt>
      <trkpt lat="45.903727" lon="6.802159">
        <ele>1253.080</ele>
        <time>2018-07-12T15:12:58Z</time>
      </trkpt>
      <trkpt lat="45.903677" lon="6.802164">
        <ele>1253.699</ele>
        <time>2018-07-12T15:13:05Z</time>
      </trkpt>
      <trkpt lat="45.903628" lon="6.802171">
        <ele>1253.013</ele>
        <time>2018-07-12T15:13:09Z</time>
      </trkpt>
      <trkpt lat="45.903596" lon="6.802111">
        <ele>1251.048</ele>
        <time>2018-07-12T15:13:13Z</time>
      </trkpt>
      <trkpt lat="45.903559" lon="6.802069">
        <ele>1249.872</ele>
        <time>2018-07-12T15:13:20Z</time>
      </trkpt>
      <trkpt lat="45.903514" lon="6.802022">
        <ele>1252.228</ele>
        <time>2018-07-12T15:13:37Z</time>
      </trkpt>
      <trkpt lat="45.903504" lon="6.802094">
        <ele>1250.521</ele>
        <time>2018-07-12T15:13:58Z</time>
      </trkpt>
      <trkpt lat="45.903472" lon="6.802185">
        <ele>1246.941</ele>
        <time>2018-07-12T15:14:16Z</time>
      </trkpt>
      <trkpt lat="45.903469" lon="6.802281">
        <ele>1246.005</ele>
        <time>2018-07-12T15:14:33Z</time>
      </trkpt>
      <trkpt lat="45.903443" lon="6.802343">
        <ele>1244.808</ele>
        <time>2018-07-12T15:14:40Z</time>
      </trkpt>
      <trkpt lat="45.903423" lon="6.802411">
        <ele>1243.814</ele>
        <time>2018-07-12T15:14:46Z</time>
      </trkpt>
      <trkpt lat="45.903420" lon="6.802493">
        <ele>1243.088</ele>
        <time>2018-07-12T15:14:52Z</time>
      </trkpt>
      <trkpt lat="45.903424" lon="6.802559">
        <ele>1242.826</ele>
        <time>2018-07-12T15:14:57Z</time>
      </trkpt>
      <trkpt lat="45.903381" lon="6.802585">
        <ele>1238.535</ele>
        <time>2018-07-12T15:15:16Z</time>
      </trkpt>
      <trkpt lat="45.903332" lon="6.802559">
        <ele>1238.699</ele>
        <time>2018-07-12T15:15:21Z</time>
      </trkpt>
      <trkpt lat="45.903265" lon="6.802603">
        <ele>1236.344</ele>
        <time>2018-07-12T15:15:34Z</time>
      </trkpt>
      <trkpt lat="45.903220" lon="6.802588">
        <ele>1236.398</ele>
        <time>2018-07-12T15:15:40Z</time>
      </trkpt>
      <trkpt lat="45.903179" lon="6.802536">
        <ele>1234.814</ele>
        <time>2018-07-12T15:15:50Z</time>
      </trkpt>
      <trkpt lat="45.903142" lon="6.802488">
        <ele>1233.834</ele>
        <time>2018-07-12T15:15:58Z</time>
      </trkpt>
      <trkpt lat="45.903098" lon="6.802448">
        <ele>1233.155</ele>
        <time>2018-07-12T15:16:03Z</time>
      </trkpt>
      <trkpt lat="45.903056" lon="6.802404">
        <ele>1231.910</ele>
        <time>2018-07-12T15:16:09Z</time>
      </trkpt>
      <trkpt lat="45.903011" lon="6.802367">
        <ele>1231.208</ele>
        <time>2018-07-12T15:16:15Z</time>
      </trkpt>
      <trkpt lat="45.902967" lon="6.802279">
        <ele>1228.175</ele>
        <time>2018-07-12T15:16:30Z</time>
      </trkpt>
      <trkpt lat="45.902953" lon="6.802190">
        <ele>1225.339</ele>
        <time>2018-07-12T15:16:41Z</time>
      </trkpt>
      <trkpt lat="45.902930" lon="6.802117">
        <ele>1225.637</ele>
        <time>2018-07-12T15:16:47Z</time>
      </trkpt>
      <trkpt lat="45.902904" lon="6.802062">
        <ele>1224.826</ele>
        <time>2018-07-12T15:16:53Z</time>
      </trkpt>
      <trkpt lat="45.902880" lon="6.801996">
        <ele>1222.560</ele>
        <time>2018-07-12T15:16:59Z</time>
      </trkpt>
      <trkpt lat="45.902858" lon="6.801929">
        <ele>1222.835</ele>
        <time>2018-07-12T15:17:04Z</time>
      </trkpt>
      <trkpt lat="45.902823" lon="6.801858">
        <ele>1223.339</ele>
        <time>2018-07-12T15:17:55Z</time>
      </trkpt>
      <trkpt lat="45.902831" lon="6.801780">
        <ele>1222.585</ele>
        <time>2018-07-12T15:18:08Z</time>
      </trkpt>
      <trkpt lat="45.902826" lon="6.801702">
        <ele>1222.146</ele>
        <time>2018-07-12T15:18:15Z</time>
      </trkpt>
      <trkpt lat="45.902812" lon="6.801640">
        <ele>1221.088</ele>
        <time>2018-07-12T15:18:22Z</time>
      </trkpt>
      <trkpt lat="45.902745" lon="6.801682">
        <ele>1196.616</ele>
        <time>2018-07-12T15:26:18Z</time>
      </trkpt>
      <trkpt lat="45.902779" lon="6.801637">
        <ele>1196.608</ele>
        <time>2018-07-12T15:26:26Z</time>
      </trkpt>
      <trkpt lat="45.902791" lon="6.801568">
        <ele>1193.336</ele>
        <time>2018-07-12T15:27:01Z</time>
      </trkpt>
      <trkpt lat="45.902809" lon="6.801503">
        <ele>1194.370</ele>
        <time>2018-07-12T15:27:08Z</time>
      </trkpt>
      <trkpt lat="45.902836" lon="6.801436">
        <ele>1193.958</ele>
        <time>2018-07-12T15:27:15Z</time>
      </trkpt>
      <trkpt lat="45.902840" lon="6.801362">
        <ele>1192.257</ele>
        <time>2018-07-12T15:27:26Z</time>
      </trkpt>
      <trkpt lat="45.902860" lon="6.801299">
        <ele>1188.941</ele>
        <time>2018-07-12T15:27:34Z</time>
      </trkpt>
      <trkpt lat="45.902847" lon="6.801235">
        <ele>1187.576</ele>
        <time>2018-07-12T15:27:39Z</time>
      </trkpt>
      <trkpt lat="45.902830" lon="6.801174">
        <ele>1189.970</ele>
        <time>2018-07-12T15:27:46Z</time>
      </trkpt>
      <trkpt lat="45.902843" lon="6.801103">
        <ele>1185.696</ele>
        <time>2018-07-12T15:27:57Z</time>
      </trkpt>
      <trkpt lat="45.902836" lon="6.801027">
        <ele>1184.589</ele>
        <time>2018-07-12T15:28:04Z</time>
      </trkpt>
      <trkpt lat="45.902842" lon="6.800962">
        <ele>1185.706</ele>
        <time>2018-07-12T15:28:12Z</time>
      </trkpt>
      <trkpt lat="45.902836" lon="6.800888">
        <ele>1184.626</ele>
        <time>2018-07-12T15:28:20Z</time>
      </trkpt>
      <trkpt lat="45.902826" lon="6.800821">
        <ele>1183.808</ele>
        <time>2018-07-12T15:28:27Z</time>
      </trkpt>
      <trkpt lat="45.902834" lon="6.800755">
        <ele>1180.360</ele>
        <time>2018-07-12T15:28:34Z</time>
      </trkpt>
      <trkpt lat="45.902837" lon="6.800684">
        <ele>1179.124</ele>
        <time>2018-07-12T15:28:46Z</time>
      </trkpt>
      <trkpt lat="45.902829" lon="6.800612">
        <ele>1177.892</ele>
        <time>2018-07-12T15:28:52Z</time>
      </trkpt>
      <trkpt lat="45.902844" lon="6.800548">
        <ele>1177.571</ele>
        <time>2018-07-12T15:29:03Z</time>
      </trkpt>
      <trkpt lat="45.902843" lon="6.800467">
        <ele>1178.695</ele>
        <time>2018-07-12T15:29:25Z</time>
      </trkpt>
      <trkpt lat="45.902854" lon="6.800531">
        <ele>1174.330</ele>
        <time>2018-07-12T15:30:00Z</time>
      </trkpt>
      <trkpt lat="45.902830" lon="6.800589">
        <ele>1172.534</ele>
        <time>2018-07-12T15:30:08Z</time>
      </trkpt>
      <trkpt lat="45.902797" lon="6.800638">
        <ele>1170.320</ele>
        <time>2018-07-12T15:30:22Z</time>
      </trkpt>
      <trkpt lat="45.902780" lon="6.800701">
        <ele>1168.224</ele>
        <time>2018-07-12T15:30:32Z</time>
      </trkpt>
      <trkpt lat="45.902751" lon="6.800755">
        <ele>1164.004</ele>
        <time>2018-07-12T15:30:53Z</time>
      </trkpt>
      <trkpt lat="45.902733" lon="6.800818">
        <ele>1164.014</ele>
        <time>2018-07-12T15:30:57Z</time>
      </trkpt>
      <trkpt lat="45.902720" lon="6.800880">
        <ele>1163.808</ele>
        <time>2018-07-12T15:31:01Z</time>
      </trkpt>
      <trkpt lat="45.902708" lon="6.800953">
        <ele>1163.574</ele>
        <time>2018-07-12T15:31:06Z</time>
      </trkpt>
      <trkpt lat="45.902689" lon="6.801020">
        <ele>1162.788</ele>
        <time>2018-07-12T15:31:11Z</time>
      </trkpt>
      <trkpt lat="45.902663" lon="6.801090">
        <ele>1162.146</ele>
        <time>2018-07-12T15:31:16Z</time>
      </trkpt>
      <trkpt lat="45.902616" lon="6.801187">
        <ele>1160.235</ele>
        <time>2018-07-12T15:31:28Z</time>
      </trkpt>
      <trkpt lat="45.902590" lon="6.801244">
        <ele>1160.229</ele>
        <time>2018-07-12T15:31:33Z</time>
      </trkpt>
      <trkpt lat="45.902569" lon="6.801303">
        <ele>1162.224</ele>
        <time>2018-07-12T15:31:37Z</time>
      </trkpt>
      <trkpt lat="45.902536" lon="6.801360">
        <ele>1160.558</ele>
        <time>2018-07-12T15:31:42Z</time>
      </trkpt>
      <trkpt lat="45.902529" lon="6.801431">
        <ele>1160.524</ele>
        <time>2018-07-12T15:31:47Z</time>
      </trkpt>
      <trkpt lat="45.902530" lon="6.801500">
        <ele>1158.932</ele>
        <time>2018-07-12T15:31:58Z</time>
      </trkpt>
      <trkpt lat="45.902523" lon="6.801573">
        <ele>1158.592</ele>
        <time>2018-07-12T15:32:02Z</time>
      </trkpt>
      <trkpt lat="45.902525" lon="6.801646">
        <ele>1158.211</ele>
        <time>2018-07-12T15:32:05Z</time>
      </trkpt>
      <trkpt lat="45.902516" lon="6.801721">
        <ele>1157.408</ele>
        <time>2018-07-12T15:32:10Z</time>
      </trkpt>
      <trkpt lat="45.902500" lon="6.801792">
        <ele>1156.955</ele>
        <time>2018-07-12T15:32:15Z</time>
      </trkpt>
      <trkpt lat="45.902471" lon="6.801876">
        <ele>1156.979</ele>
        <time>2018-07-12T15:32:25Z</time>
      </trkpt>
      <trkpt lat="45.902464" lon="6.801946">
        <ele>1156.097</ele>
        <time>2018-07-12T15:32:32Z</time>
      </trkpt>
      <trkpt lat="45.902457" lon="6.802024">
        <ele>1154.246</ele>
        <time>2018-07-12T15:32:45Z</time>
      </trkpt>
      <trkpt lat="45.902443" lon="6.802087">
        <ele>1154.030</ele>
        <time>2018-07-12T15:32:50Z</time>
      </trkpt>
      <trkpt lat="45.902437" lon="6.802155">
        <ele>1152.495</ele>
        <time>2018-07-12T15:33:04Z</time>
      </trkpt>
      <trkpt lat="45.902409" lon="6.802206">
        <ele>1150.089</ele>
        <time>2018-07-12T15:33:12Z</time>
      </trkpt>
      <trkpt lat="45.902386" lon="6.802267">
        <ele>1148.135</ele>
        <time>2018-07-12T15:33:22Z</time>
      </trkpt>
      <trkpt lat="45.902381" lon="6.802338">
        <ele>1147.295</ele>
        <time>2018-07-12T15:33:30Z</time>
      </trkpt>
      <trkpt lat="45.902378" lon="6.802415">
        <ele>1146.149</ele>
        <time>2018-07-12T15:33:36Z</time>
      </trkpt>
      <trkpt lat="45.902375" lon="6.802485">
        <ele>1146.023</ele>
        <time>2018-07-12T15:33:42Z</time>
      </trkpt>
      <trkpt lat="45.902366" lon="6.802558">
        <ele>1145.008</ele>
        <time>2018-07-12T15:33:49Z</time>
      </trkpt>
      <trkpt lat="45.902365" lon="6.802637">
        <ele>1143.951</ele>
        <time>2018-07-12T15:33:55Z</time>
      </trkpt>
      <trkpt lat="45.902343" lon="6.802733">
        <ele>1140.785</ele>
        <time>2018-07-12T15:34:16Z</time>
      </trkpt>
      <trkpt lat="45.902301" lon="6.802826">
        <ele>1138.593</ele>
        <time>2018-07-12T15:34:29Z</time>
      </trkpt>
      <trkpt lat="45.902280" lon="6.802943">
        <ele>1135.632</ele>
        <time>2018-07-12T15:34:44Z</time>
      </trkpt>
      <trkpt lat="45.902237" lon="6.802973">
        <ele>1133.756</ele>
        <time>2018-07-12T15:34:57Z</time>
      </trkpt>
      <trkpt lat="45.902191" lon="6.802978">
        <ele>1132.141</ele>
        <time>2018-07-12T15:35:05Z</time>
      </trkpt>
      <trkpt lat="45.902150" lon="6.802945">
        <ele>1131.015</ele>
        <time>2018-07-12T15:35:13Z</time>
      </trkpt>
      <trkpt lat="45.902092" lon="6.802896">
        <ele>1126.491</ele>
        <time>2018-07-12T15:35:45Z</time>
      </trkpt>
      <trkpt lat="45.902059" lon="6.802844">
        <ele>1125.027</ele>
        <time>2018-07-12T15:35:53Z</time>
      </trkpt>
      <trkpt lat="45.902019" lon="6.802804">
        <ele>1123.868</ele>
        <time>2018-07-12T15:35:58Z</time>
      </trkpt>
      <trkpt lat="45.901994" lon="6.802746">
        <ele>1122.714</ele>
        <time>2018-07-12T15:36:04Z</time>
      </trkpt>
      <trkpt lat="45.901956" lon="6.802703">
        <ele>1120.408</ele>
        <time>2018-07-12T15:36:13Z</time>
      </trkpt>
      <trkpt lat="45.901935" lon="6.802644">
        <ele>1119.434</ele>
        <time>2018-07-12T15:36:20Z</time>
      </trkpt>
      <trkpt lat="45.901890" lon="6.802605">
        <ele>1117.958</ele>
        <time>2018-07-12T15:36:31Z</time>
      </trkpt>
      <trkpt lat="45.901845" lon="6.802615">
        <ele>1115.396</ele>
        <time>2018-07-12T15:36:46Z</time>
      </trkpt>
      <trkpt lat="45.901837" lon="6.802683">
        <ele>1113.325</ele>
        <time>2018-07-12T15:36:59Z</time>
      </trkpt>
      <trkpt lat="45.901824" lon="6.802757">
        <ele>1110.619</ele>
        <time>2018-07-12T15:37:15Z</time>
      </trkpt>
      <trkpt lat="45.901793" lon="6.802806">
        <ele>1109.334</ele>
        <time>2018-07-12T15:37:22Z</time>
      </trkpt>
      <trkpt lat="45.901748" lon="6.802836">
        <ele>1108.888</ele>
        <time>2018-07-12T15:37:27Z</time>
      </trkpt>
      <trkpt lat="45.901701" lon="6.802840">
        <ele>1106.984</ele>
        <time>2018-07-12T15:37:35Z</time>
      </trkpt>
      <trkpt lat="45.901658" lon="6.802871">
        <ele>1105.372</ele>
        <time>2018-07-12T15:37:47Z</time>
      </trkpt>
      <trkpt lat="45.901616" lon="6.802896">
        <ele>1104.213</ele>
        <time>2018-07-12T15:37:55Z</time>
      </trkpt>
      <trkpt lat="45.901578" lon="6.802846">
        <ele>1103.314</ele>
        <time>2018-07-12T15:38:07Z</time>
      </trkpt>
      <trkpt lat="45.901535" lon="6.802810">
        <ele>1102.208</ele>
        <time>2018-07-12T15:38:17Z</time>
      </trkpt>
      <trkpt lat="45.901479" lon="6.802765">
        <ele>1101.089</ele>
        <time>2018-07-12T15:38:25Z</time>
      </trkpt>
      <trkpt lat="45.901440" lon="6.802725">
        <ele>1102.063</ele>
        <time>2018-07-12T15:38:34Z</time>
      </trkpt>
      <trkpt lat="45.901394" lon="6.802729">
        <ele>1097.781</ele>
        <time>2018-07-12T15:38:45Z</time>
      </trkpt>
      <trkpt lat="45.901376" lon="6.802809">
        <ele>1095.950</ele>
        <time>2018-07-12T15:39:00Z</time>
      </trkpt>
      <trkpt lat="45.901357" lon="6.802882">
        <ele>1093.334</ele>
        <time>2018-07-12T15:39:18Z</time>
      </trkpt>
      <trkpt lat="45.901339" lon="6.802948">
        <ele>1093.039</ele>
        <time>2018-07-12T15:39:23Z</time>
      </trkpt>
      <trkpt lat="45.901302" lon="6.803017">
        <ele>1092.493</ele>
        <time>2018-07-12T15:39:27Z</time>
      </trkpt>
      <trkpt lat="45.901277" lon="6.803073">
        <ele>1092.369</ele>
        <time>2018-07-12T15:39:30Z</time>
      </trkpt>
      <trkpt lat="45.901230" lon="6.803104">
        <ele>1088.976</ele>
        <time>2018-07-12T15:39:58Z</time>
      </trkpt>
      <trkpt lat="45.901186" lon="6.803132">
        <ele>1087.490</ele>
        <time>2018-07-12T15:40:05Z</time>
      </trkpt>
      <trkpt lat="45.901164" lon="6.803194">
        <ele>1086.819</ele>
        <time>2018-07-12T15:40:08Z</time>
      </trkpt>
      <trkpt lat="45.901195" lon="6.803241">
        <ele>1084.408</ele>
        <time>2018-07-12T15:40:14Z</time>
      </trkpt>
      <trkpt lat="45.901198" lon="6.803306">
        <ele>1084.239</ele>
        <time>2018-07-12T15:40:19Z</time>
      </trkpt>
      <trkpt lat="45.901209" lon="6.803380">
        <ele>1084.533</ele>
        <time>2018-07-12T15:40:33Z</time>
      </trkpt>
      <trkpt lat="45.901202" lon="6.803444">
        <ele>1083.631</ele>
        <time>2018-07-12T15:40:40Z</time>
      </trkpt>
      <trkpt lat="45.901186" lon="6.803509">
        <ele>1083.250</ele>
        <time>2018-07-12T15:40:46Z</time>
      </trkpt>
      <trkpt lat="45.901180" lon="6.803575">
        <ele>1082.734</ele>
        <time>2018-07-12T15:40:50Z</time>
      </trkpt>
      <trkpt lat="45.901183" lon="6.803648">
        <ele>1081.849</ele>
        <time>2018-07-12T15:40:54Z</time>
      </trkpt>
      <trkpt lat="45.901192" lon="6.803717">
        <ele>1080.773</ele>
        <time>2018-07-12T15:41:02Z</time>
      </trkpt>
      <trkpt lat="45.901216" lon="6.803788">
        <ele>1080.649</ele>
        <time>2018-07-12T15:41:09Z</time>
      </trkpt>
      <trkpt lat="45.901245" lon="6.803853">
        <ele>1079.059</ele>
        <time>2018-07-12T15:41:16Z</time>
      </trkpt>
      <trkpt lat="45.901274" lon="6.803906">
        <ele>1077.603</ele>
        <time>2018-07-12T15:41:24Z</time>
      </trkpt>
      <trkpt lat="45.901232" lon="6.803877">
        <ele>1077.123</ele>
        <time>2018-07-12T15:41:35Z</time>
      </trkpt>
      <trkpt lat="45.901200" lon="6.803829">
        <ele>1075.408</ele>
        <time>2018-07-12T15:41:40Z</time>
      </trkpt>
      <trkpt lat="45.901176" lon="6.803765">
        <ele>1074.417</ele>
        <time>2018-07-12T15:41:46Z</time>
      </trkpt>
      <trkpt lat="45.901153" lon="6.803703">
        <ele>1073.381</ele>
        <time>2018-07-12T15:41:54Z</time>
      </trkpt>
      <trkpt lat="45.901101" lon="6.803685">
        <ele>1071.619</ele>
        <time>2018-07-12T15:42:01Z</time>
      </trkpt>
      <trkpt lat="45.901071" lon="6.803626">
        <ele>1071.998</ele>
        <time>2018-07-12T15:42:07Z</time>
      </trkpt>
      <trkpt lat="45.901030" lon="6.803652">
        <ele>1069.032</ele>
        <time>2018-07-12T15:42:18Z</time>
      </trkpt>
      <trkpt lat="45.901013" lon="6.803723">
        <ele>1068.827</ele>
        <time>2018-07-12T15:42:26Z</time>
      </trkpt>
      <trkpt lat="45.900996" lon="6.803788">
        <ele>1068.191</ele>
        <time>2018-07-12T15:42:33Z</time>
      </trkpt>
      <trkpt lat="45.900978" lon="6.803850">
        <ele>1065.047</ele>
        <time>2018-07-12T15:42:39Z</time>
      </trkpt>
      <trkpt lat="45.900930" lon="6.803931">
        <ele>1062.363</ele>
        <time>2018-07-12T15:42:54Z</time>
      </trkpt>
      <trkpt lat="45.900896" lon="6.803978">
        <ele>1061.244</ele>
        <time>2018-07-12T15:43:01Z</time>
      </trkpt>
      <trkpt lat="45.900855" lon="6.804024">
        <ele>1061.718</ele>
        <time>2018-07-12T15:43:06Z</time>
      </trkpt>
      <trkpt lat="45.900823" lon="6.804082">
        <ele>1058.708</ele>
        <time>2018-07-12T15:43:13Z</time>
      </trkpt>
      <trkpt lat="45.900804" lon="6.804149">
        <ele>1057.338</ele>
        <time>2018-07-12T15:43:20Z</time>
      </trkpt>
      <trkpt lat="45.900802" lon="6.804222">
        <ele>1057.912</ele>
        <time>2018-07-12T15:43:27Z</time>
      </trkpt>
      <trkpt lat="45.900794" lon="6.804292">
        <ele>1057.530</ele>
        <time>2018-07-12T15:43:33Z</time>
      </trkpt>
      <trkpt lat="45.900780" lon="6.804361">
        <ele>1054.659</ele>
        <time>2018-07-12T15:43:40Z</time>
      </trkpt>
      <trkpt lat="45.900782" lon="6.804433">
        <ele>1054.353</ele>
        <time>2018-07-12T15:43:47Z</time>
      </trkpt>
      <trkpt lat="45.900771" lon="6.804505">
        <ele>1053.518</ele>
        <time>2018-07-12T15:43:58Z</time>
      </trkpt>
      <trkpt lat="45.900750" lon="6.804566">
        <ele>1051.842</ele>
        <time>2018-07-12T15:44:04Z</time>
      </trkpt>
      <trkpt lat="45.900735" lon="6.804638">
        <ele>1048.178</ele>
        <time>2018-07-12T15:44:15Z</time>
      </trkpt>
      <trkpt lat="45.900706" lon="6.804703">
        <ele>1048.642</ele>
        <time>2018-07-12T15:44:23Z</time>
      </trkpt>
      <trkpt lat="45.900661" lon="6.804740">
        <ele>1047.322</ele>
        <time>2018-07-12T15:44:29Z</time>
      </trkpt>
      <trkpt lat="45.900619" lon="6.804710">
        <ele>1046.914</ele>
        <time>2018-07-12T15:44:34Z</time>
      </trkpt>
      <trkpt lat="45.900583" lon="6.804648">
        <ele>1046.408</ele>
        <time>2018-07-12T15:44:39Z</time>
      </trkpt>
      <trkpt lat="45.900547" lon="6.804594">
        <ele>1046.276</ele>
        <time>2018-07-12T15:44:43Z</time>
      </trkpt>
      <trkpt lat="45.900510" lon="6.804552">
        <ele>1046.150</ele>
        <time>2018-07-12T15:44:46Z</time>
      </trkpt>
      <trkpt lat="45.900468" lon="6.804517">
        <ele>1046.388</ele>
        <time>2018-07-12T15:44:50Z</time>
      </trkpt>
      <trkpt lat="45.900425" lon="6.804475">
        <ele>1044.327</ele>
        <time>2018-07-12T15:44:55Z</time>
      </trkpt>
      <trkpt lat="45.900380" lon="6.804434">
        <ele>1043.731</ele>
        <time>2018-07-12T15:45:00Z</time>
      </trkpt>
      <trkpt lat="45.900335" lon="6.804419">
        <ele>1044.636</ele>
        <time>2018-07-12T15:45:05Z</time>
      </trkpt>
      <trkpt lat="45.900294" lon="6.804384">
        <ele>1043.510</ele>
        <time>2018-07-12T15:45:11Z</time>
      </trkpt>
      <trkpt lat="45.900224" lon="6.804313">
        <ele>1038.726</ele>
        <time>2018-07-12T15:45:34Z</time>
      </trkpt>
      <trkpt lat="45.900191" lon="6.804264">
        <ele>1038.042</ele>
        <time>2018-07-12T15:45:39Z</time>
      </trkpt>
      <trkpt lat="45.900151" lon="6.804226">
        <ele>1037.722</ele>
        <time>2018-07-12T15:45:42Z</time>
      </trkpt>
      <trkpt lat="45.900110" lon="6.804191">
        <ele>1037.214</ele>
        <time>2018-07-12T15:45:46Z</time>
      </trkpt>
      <trkpt lat="45.900064" lon="6.804155">
        <ele>1036.508</ele>
        <time>2018-07-12T15:45:50Z</time>
      </trkpt>
      <trkpt lat="45.900029" lon="6.804100">
        <ele>1036.036</ele>
        <time>2018-07-12T15:45:54Z</time>
      </trkpt>
      <trkpt lat="45.900001" lon="6.804031">
        <ele>1033.880</ele>
        <time>2018-07-12T15:45:58Z</time>
      </trkpt>
      <trkpt lat="45.899975" lon="6.803971">
        <ele>1035.328</ele>
        <time>2018-07-12T15:46:02Z</time>
      </trkpt>
      <trkpt lat="45.899944" lon="6.803913">
        <ele>1034.327</ele>
        <time>2018-07-12T15:46:06Z</time>
      </trkpt>
      <trkpt lat="45.899919" lon="6.803855">
        <ele>1033.461</ele>
        <time>2018-07-12T15:46:10Z</time>
      </trkpt>
      <trkpt lat="45.899877" lon="6.803807">
        <ele>1033.136</ele>
        <time>2018-07-12T15:46:16Z</time>
      </trkpt>
      <trkpt lat="45.899834" lon="6.803787">
        <ele>1032.510</ele>
        <time>2018-07-12T15:46:20Z</time>
      </trkpt>
      <trkpt lat="45.899776" lon="6.803750">
        <ele>1032.426</ele>
        <time>2018-07-12T15:46:39Z</time>
      </trkpt>
      <trkpt lat="45.899789" lon="6.803820">
        <ele>1031.672</ele>
        <time>2018-07-12T15:46:44Z</time>
      </trkpt>
      <trkpt lat="45.899808" lon="6.803879">
        <ele>1030.713</ele>
        <time>2018-07-12T15:46:48Z</time>
      </trkpt>
      <trkpt lat="45.899823" lon="6.803949">
        <ele>1029.414</ele>
        <time>2018-07-12T15:46:53Z</time>
      </trkpt>
      <trkpt lat="45.899848" lon="6.804018">
        <ele>1028.308</ele>
        <time>2018-07-12T15:46:58Z</time>
      </trkpt>
      <trkpt lat="45.899868" lon="6.804078">
        <ele>1029.819</ele>
        <time>2018-07-12T15:47:01Z</time>
      </trkpt>
      <trkpt lat="45.899892" lon="6.804140">
        <ele>1029.733</ele>
        <time>2018-07-12T15:47:04Z</time>
      </trkpt>
      <trkpt lat="45.899915" lon="6.804209">
        <ele>1029.781</ele>
        <time>2018-07-12T15:47:08Z</time>
      </trkpt>
      <trkpt lat="45.899934" lon="6.804286">
        <ele>1028.760</ele>
        <time>2018-07-12T15:47:12Z</time>
      </trkpt>
      <trkpt lat="45.899951" lon="6.804349">
        <ele>1026.914</ele>
        <time>2018-07-12T15:47:16Z</time>
      </trkpt>
      <trkpt lat="45.899966" lon="6.804421">
        <ele>1026.239</ele>
        <time>2018-07-12T15:47:21Z</time>
      </trkpt>
      <trkpt lat="45.899932" lon="6.804474">
        <ele>1026.953</ele>
        <time>2018-07-12T15:47:26Z</time>
      </trkpt>
      <trkpt lat="45.899887" lon="6.804480">
        <ele>1026.459</ele>
        <time>2018-07-12T15:47:30Z</time>
      </trkpt>
      <trkpt lat="45.899841" lon="6.804474">
        <ele>1023.784</ele>
        <time>2018-07-12T15:47:34Z</time>
      </trkpt>
      <trkpt lat="45.899806" lon="6.804417">
        <ele>1022.407</ele>
        <time>2018-07-12T15:47:40Z</time>
      </trkpt>
      <trkpt lat="45.899792" lon="6.804354">
        <ele>1023.917</ele>
        <time>2018-07-12T15:47:45Z</time>
      </trkpt>
      <trkpt lat="45.899747" lon="6.804300">
        <ele>1023.008</ele>
        <time>2018-07-12T15:47:49Z</time>
      </trkpt>
      <trkpt lat="45.899708" lon="6.804264">
        <ele>1023.260</ele>
        <time>2018-07-12T15:47:52Z</time>
      </trkpt>
      <trkpt lat="45.899664" lon="6.804218">
        <ele>1020.864</ele>
        <time>2018-07-12T15:47:56Z</time>
      </trkpt>
      <trkpt lat="45.899622" lon="6.804184">
        <ele>1020.742</ele>
        <time>2018-07-12T15:48:00Z</time>
      </trkpt>
      <trkpt lat="45.899573" lon="6.804151">
        <ele>1021.711</ele>
        <time>2018-07-12T15:48:05Z</time>
      </trkpt>
      <trkpt lat="45.899524" lon="6.804135">
        <ele>1020.915</ele>
        <time>2018-07-12T15:48:09Z</time>
      </trkpt>
      <trkpt lat="45.899467" lon="6.804132">
        <ele>1019.790</ele>
        <time>2018-07-12T15:48:13Z</time>
      </trkpt>
      <trkpt lat="45.899421" lon="6.804111">
        <ele>1018.894</ele>
        <time>2018-07-12T15:48:17Z</time>
      </trkpt>
      <trkpt lat="45.899378" lon="6.804090">
        <ele>1018.480</ele>
        <time>2018-07-12T15:48:21Z</time>
      </trkpt>
      <trkpt lat="45.899325" lon="6.804065">
        <ele>1019.265</ele>
        <time>2018-07-12T15:48:26Z</time>
      </trkpt>
      <trkpt lat="45.899290" lon="6.804010">
        <ele>1019.168</ele>
        <time>2018-07-12T15:48:30Z</time>
      </trkpt>
      <trkpt lat="45.899253" lon="6.803957">
        <ele>1016.714</ele>
        <time>2018-07-12T15:48:34Z</time>
      </trkpt>
      <trkpt lat="45.899226" lon="6.803893">
        <ele>1016.408</ele>
        <time>2018-07-12T15:48:39Z</time>
      </trkpt>
      <trkpt lat="45.899191" lon="6.803758">
        <ele>1018.288</ele>
        <time>2018-07-12T15:49:06Z</time>
      </trkpt>
      <trkpt lat="45.899146" lon="6.803760">
        <ele>1015.762</ele>
        <time>2018-07-12T15:49:09Z</time>
      </trkpt>
      <trkpt lat="45.899101" lon="6.803737">
        <ele>1017.490</ele>
        <time>2018-07-12T15:49:12Z</time>
      </trkpt>
      <trkpt lat="45.899057" lon="6.803708">
        <ele>1016.859</ele>
        <time>2018-07-12T15:49:15Z</time>
      </trkpt>
      <trkpt lat="45.899010" lon="6.803678">
        <ele>1016.973</ele>
        <time>2018-07-12T15:49:16Z</time>
      </trkpt>
      <trkpt lat="45.898974" lon="6.803636">
        <ele>1016.178</ele>
        <time>2018-07-12T15:49:21Z</time>
      </trkpt>
      <trkpt lat="45.898929" lon="6.803592">
        <ele>1016.112</ele>
        <time>2018-07-12T15:49:26Z</time>
      </trkpt>
      <trkpt lat="45.898885" lon="6.803562">
        <ele>1015.398</ele>
        <time>2018-07-12T15:49:30Z</time>
      </trkpt>
      <trkpt lat="45.898840" lon="6.803513">
        <ele>1012.821</ele>
        <time>2018-07-12T15:49:35Z</time>
      </trkpt>
      <trkpt lat="45.898804" lon="6.803472">
        <ele>1012.141</ele>
        <time>2018-07-12T15:49:39Z</time>
      </trkpt>
      <trkpt lat="45.898764" lon="6.803436">
        <ele>1013.105</ele>
        <time>2018-07-12T15:49:43Z</time>
      </trkpt>
      <trkpt lat="45.898722" lon="6.803401">
        <ele>1012.608</ele>
        <time>2018-07-12T15:49:47Z</time>
      </trkpt>
      <trkpt lat="45.898681" lon="6.803350">
        <ele>1011.424</ele>
        <time>2018-07-12T15:49:52Z</time>
      </trkpt>
      <trkpt lat="45.898651" lon="6.803297">
        <ele>1011.738</ele>
        <time>2018-07-12T15:49:56Z</time>
      </trkpt>
      <trkpt lat="45.898607" lon="6.803254">
        <ele>1009.576</ele>
        <time>2018-07-12T15:50:01Z</time>
      </trkpt>
      <trkpt lat="45.898570" lon="6.803206">
        <ele>1011.035</ele>
        <time>2018-07-12T15:50:05Z</time>
      </trkpt>
      <trkpt lat="45.898533" lon="6.803154">
        <ele>1010.059</ele>
        <time>2018-07-12T15:50:09Z</time>
      </trkpt>
      <trkpt lat="45.898486" lon="6.803130">
        <ele>1008.414</ele>
        <time>2018-07-12T15:50:14Z</time>
      </trkpt>
      <trkpt lat="45.898438" lon="6.803094">
        <ele>1007.968</ele>
        <time>2018-07-12T15:50:19Z</time>
      </trkpt>
      <trkpt lat="45.898386" lon="6.803057">
        <ele>1008.454</ele>
        <time>2018-07-12T15:50:25Z</time>
      </trkpt>
      <trkpt lat="45.898332" lon="6.803024">
        <ele>1008.349</ele>
        <time>2018-07-12T15:50:29Z</time>
      </trkpt>
      <trkpt lat="45.898289" lon="6.802993">
        <ele>1007.102</ele>
        <time>2018-07-12T15:50:33Z</time>
      </trkpt>
      <trkpt lat="45.898241" lon="6.802963">
        <ele>1006.622</ele>
        <time>2018-07-12T15:50:38Z</time>
      </trkpt>
      <trkpt lat="45.898193" lon="6.802942">
        <ele>1007.708</ele>
        <time>2018-07-12T15:50:43Z</time>
      </trkpt>
      <trkpt lat="45.898151" lon="6.802908">
        <ele>1008.726</ele>
        <time>2018-07-12T15:51:15Z</time>
      </trkpt>
      <trkpt lat="45.898105" lon="6.802868">
        <ele>1008.760</ele>
        <time>2018-07-12T15:51:19Z</time>
      </trkpt>
      <trkpt lat="45.898056" lon="6.802836">
        <ele>1008.688</ele>
        <time>2018-07-12T15:51:23Z</time>
      </trkpt>
      <trkpt lat="45.898008" lon="6.802818">
        <ele>1008.477</ele>
        <time>2018-07-12T15:51:28Z</time>
      </trkpt>
      <trkpt lat="45.897963" lon="6.802832">
        <ele>1006.541</ele>
        <time>2018-07-12T15:51:34Z</time>
      </trkpt>
      <trkpt lat="45.898000" lon="6.802786">
        <ele>1007.256</ele>
        <time>2018-07-12T15:52:18Z</time>
      </trkpt>
      <trkpt lat="45.897979" lon="6.802718">
        <ele>1008.210</ele>
        <time>2018-07-12T15:52:22Z</time>
      </trkpt>
      <trkpt lat="45.897951" lon="6.802666">
        <ele>1008.466</ele>
        <time>2018-07-12T15:52:33Z</time>
      </trkpt>
      <trkpt lat="45.897934" lon="6.802600">
        <ele>1008.988</ele>
        <time>2018-07-12T15:52:48Z</time>
      </trkpt>
      <trkpt lat="45.897893" lon="6.802546">
        <ele>1008.924</ele>
        <time>2018-07-12T15:52:54Z</time>
      </trkpt>
      <trkpt lat="45.897858" lon="6.802500">
        <ele>1009.526</ele>
        <time>2018-07-12T15:53:00Z</time>
      </trkpt>
      <trkpt lat="45.897816" lon="6.802463">
        <ele>1009.108</ele>
        <time>2018-07-12T15:53:11Z</time>
      </trkpt>
      <trkpt lat="45.897777" lon="6.802411">
        <ele>1009.470</ele>
        <time>2018-07-12T15:53:15Z</time>
      </trkpt>
      <trkpt lat="45.897734" lon="6.802377">
        <ele>1009.154</ele>
        <time>2018-07-12T15:53:19Z</time>
      </trkpt>
      <trkpt lat="45.897704" lon="6.802328">
        <ele>1010.052</ele>
        <time>2018-07-12T15:53:24Z</time>
      </trkpt>
      <trkpt lat="45.897667" lon="6.802278">
        <ele>1009.731</ele>
        <time>2018-07-12T15:53:30Z</time>
      </trkpt>
      <trkpt lat="45.897647" lon="6.802217">
        <ele>1008.845</ele>
        <time>2018-07-12T15:53:40Z</time>
      </trkpt>
      <trkpt lat="45.897642" lon="6.802139">
        <ele>1009.180</ele>
        <time>2018-07-12T15:53:44Z</time>
      </trkpt>
      <trkpt lat="45.897642" lon="6.802073">
        <ele>1009.834</ele>
        <time>2018-07-12T15:53:49Z</time>
      </trkpt>
      <trkpt lat="45.897625" lon="6.801997">
        <ele>1010.230</ele>
        <time>2018-07-12T15:53:55Z</time>
      </trkpt>
      <trkpt lat="45.897618" lon="6.801920">
        <ele>1008.161</ele>
        <time>2018-07-12T15:54:00Z</time>
      </trkpt>
      <trkpt lat="45.897625" lon="6.801848">
        <ele>1008.221</ele>
        <time>2018-07-12T15:54:04Z</time>
      </trkpt>
      <trkpt lat="45.897624" lon="6.801766">
        <ele>1009.013</ele>
        <time>2018-07-12T15:54:08Z</time>
      </trkpt>
      <trkpt lat="45.897622" lon="6.801688">
        <ele>1010.608</ele>
        <time>2018-07-12T15:54:12Z</time>
      </trkpt>
      <trkpt lat="45.897615" lon="6.801613">
        <ele>1008.338</ele>
        <time>2018-07-12T15:54:16Z</time>
      </trkpt>
      <trkpt lat="45.897609" lon="6.801545">
        <ele>1008.372</ele>
        <time>2018-07-12T15:54:20Z</time>
      </trkpt>
      <trkpt lat="45.897598" lon="6.801478">
        <ele>1009.840</ele>
        <time>2018-07-12T15:54:24Z</time>
      </trkpt>
      <trkpt lat="45.897587" lon="6.801409">
        <ele>1009.799</ele>
        <time>2018-07-12T15:54:28Z</time>
      </trkpt>
      <trkpt lat="45.897580" lon="6.801339">
        <ele>1008.733</ele>
        <time>2018-07-12T15:54:32Z</time>
      </trkpt>
      <trkpt lat="45.897574" lon="6.801266">
        <ele>1008.748</ele>
        <time>2018-07-12T15:54:36Z</time>
      </trkpt>
      <trkpt lat="45.897569" lon="6.801188">
        <ele>1009.182</ele>
        <time>2018-07-12T15:54:41Z</time>
      </trkpt>
      <trkpt lat="45.897558" lon="6.801117">
        <ele>1008.588</ele>
        <time>2018-07-12T15:54:46Z</time>
      </trkpt>
      <trkpt lat="45.897536" lon="6.801049">
        <ele>1008.666</ele>
        <time>2018-07-12T15:54:51Z</time>
      </trkpt>
      <trkpt lat="45.897512" lon="6.800993">
        <ele>1009.529</ele>
        <time>2018-07-12T15:54:55Z</time>
      </trkpt>
      <trkpt lat="45.897491" lon="6.800933">
        <ele>1008.221</ele>
        <time>2018-07-12T15:54:59Z</time>
      </trkpt>
      <trkpt lat="45.897469" lon="6.800876">
        <ele>1009.308</ele>
        <time>2018-07-12T15:55:03Z</time>
      </trkpt>
      <trkpt lat="45.897441" lon="6.800808">
        <ele>1007.868</ele>
        <time>2018-07-12T15:55:08Z</time>
      </trkpt>
      <trkpt lat="45.897410" lon="6.800742">
        <ele>1007.312</ele>
        <time>2018-07-12T15:55:13Z</time>
      </trkpt>
      <trkpt lat="45.897382" lon="6.800685">
        <ele>1007.320</ele>
        <time>2018-07-12T15:55:17Z</time>
      </trkpt>
      <trkpt lat="45.897354" lon="6.800622">
        <ele>1007.179</ele>
        <time>2018-07-12T15:55:21Z</time>
      </trkpt>
      <trkpt lat="45.897326" lon="6.800569">
        <ele>1007.283</ele>
        <time>2018-07-12T15:55:25Z</time>
      </trkpt>
      <trkpt lat="45.897306" lon="6.800510">
        <ele>1007.118</ele>
        <time>2018-07-12T15:55:29Z</time>
      </trkpt>
      <trkpt lat="45.897284" lon="6.800453">
        <ele>1007.172</ele>
        <time>2018-07-12T15:55:33Z</time>
      </trkpt>
      <trkpt lat="45.897260" lon="6.800388">
        <ele>1006.798</ele>
        <time>2018-07-12T15:55:38Z</time>
      </trkpt>
      <trkpt lat="45.897225" lon="6.800332">
        <ele>1008.498</ele>
        <time>2018-07-12T15:55:43Z</time>
      </trkpt>
      <trkpt lat="45.897182" lon="6.800310">
        <ele>1006.615</ele>
        <time>2018-07-12T15:55:47Z</time>
      </trkpt>
      <trkpt lat="45.897132" lon="6.800288">
        <ele>1006.726</ele>
        <time>2018-07-12T15:55:52Z</time>
      </trkpt>
      <trkpt lat="45.897081" lon="6.800268">
        <ele>1007.008</ele>
        <time>2018-07-12T15:55:57Z</time>
      </trkpt>
      <trkpt lat="45.897033" lon="6.800247">
        <ele>1007.141</ele>
        <time>2018-07-12T15:56:01Z</time>
      </trkpt>
      <trkpt lat="45.896991" lon="6.800212">
        <ele>1006.815</ele>
        <time>2018-07-12T15:56:05Z</time>
      </trkpt>
      <trkpt lat="45.896954" lon="6.800172">
        <ele>1006.643</ele>
        <time>2018-07-12T15:56:09Z</time>
      </trkpt>
      <trkpt lat="45.896922" lon="6.800120">
        <ele>1008.922</ele>
        <time>2018-07-12T15:56:13Z</time>
      </trkpt>
      <trkpt lat="45.896881" lon="6.800065">
        <ele>1009.016</ele>
        <time>2018-07-12T15:56:17Z</time>
      </trkpt>
      <trkpt lat="45.896853" lon="6.800000">
        <ele>1008.571</ele>
        <time>2018-07-12T15:56:21Z</time>
      </trkpt>
      <trkpt lat="45.896822" lon="6.799947">
        <ele>1006.725</ele>
        <time>2018-07-12T15:56:25Z</time>
      </trkpt>
      <trkpt lat="45.896789" lon="6.799894">
        <ele>1007.731</ele>
        <time>2018-07-12T15:56:30Z</time>
      </trkpt>
      <trkpt lat="45.896741" lon="6.799856">
        <ele>1007.845</ele>
        <time>2018-07-12T15:56:35Z</time>
      </trkpt>
      <trkpt lat="45.896687" lon="6.799823">
        <ele>1007.547</ele>
        <time>2018-07-12T15:56:40Z</time>
      </trkpt>
      <trkpt lat="45.896644" lon="6.799793">
        <ele>1007.611</ele>
        <time>2018-07-12T15:56:44Z</time>
      </trkpt>
      <trkpt lat="45.896599" lon="6.799763">
        <ele>1007.308</ele>
        <time>2018-07-12T15:56:48Z</time>
      </trkpt>
      <trkpt lat="45.896548" lon="6.799748">
        <ele>1007.196</ele>
        <time>2018-07-12T15:56:53Z</time>
      </trkpt>
      <trkpt lat="45.896505" lon="6.799724">
        <ele>1005.960</ele>
        <time>2018-07-12T15:56:57Z</time>
      </trkpt>
      <trkpt lat="45.896451" lon="6.799714">
        <ele>1006.938</ele>
        <time>2018-07-12T15:57:02Z</time>
      </trkpt>
      <trkpt lat="45.896404" lon="6.799706">
        <ele>1005.337</ele>
        <time>2018-07-12T15:57:09Z</time>
      </trkpt>
      <trkpt lat="45.896358" lon="6.799668">
        <ele>1004.411</ele>
        <time>2018-07-12T15:57:14Z</time>
      </trkpt>
      <trkpt lat="45.896316" lon="6.799627">
        <ele>1003.646</ele>
        <time>2018-07-12T15:57:19Z</time>
      </trkpt>
      <trkpt lat="45.896288" lon="6.799576">
        <ele>1003.390</ele>
        <time>2018-07-12T15:57:23Z</time>
      </trkpt>
      <trkpt lat="45.896239" lon="6.799546">
        <ele>1004.126</ele>
        <time>2018-07-12T15:57:29Z</time>
      </trkpt>
      <trkpt lat="45.896197" lon="6.799579">
        <ele>1003.034</ele>
        <time>2018-07-12T15:57:33Z</time>
      </trkpt>
      <trkpt lat="45.896149" lon="6.799555">
        <ele>1002.455</ele>
        <time>2018-07-12T15:57:37Z</time>
      </trkpt>
      <trkpt lat="45.896102" lon="6.799523">
        <ele>1001.210</ele>
        <time>2018-07-12T15:57:41Z</time>
      </trkpt>
      <trkpt lat="45.896051" lon="6.799501">
        <ele>1001.108</ele>
        <time>2018-07-12T15:57:45Z</time>
      </trkpt>
      <trkpt lat="45.895999" lon="6.799476">
        <ele>1000.715</ele>
        <time>2018-07-12T15:57:49Z</time>
      </trkpt>
      <trkpt lat="45.895949" lon="6.799458">
        <ele>1000.099</ele>
        <time>2018-07-12T15:57:53Z</time>
      </trkpt>
      <trkpt lat="45.895899" lon="6.799433">
        <ele>999.897</ele>
        <time>2018-07-12T15:57:57Z</time>
      </trkpt>
      <trkpt lat="45.895854" lon="6.799406">
        <ele>999.266</ele>
        <time>2018-07-12T15:58:01Z</time>
      </trkpt>
      <trkpt lat="45.895809" lon="6.799386">
        <ele>999.740</ele>
        <time>2018-07-12T15:58:05Z</time>
      </trkpt>
      <trkpt lat="45.895757" lon="6.799356">
        <ele>998.435</ele>
        <time>2018-07-12T15:58:10Z</time>
      </trkpt>
      <trkpt lat="45.895712" lon="6.799320">
        <ele>997.989</ele>
        <time>2018-07-12T15:58:14Z</time>
      </trkpt>
      <trkpt lat="45.895666" lon="6.799283">
        <ele>997.915</ele>
        <time>2018-07-12T15:58:18Z</time>
      </trkpt>
      <trkpt lat="45.895616" lon="6.799260">
        <ele>997.363</ele>
        <time>2018-07-12T15:58:22Z</time>
      </trkpt>
      <trkpt lat="45.895560" lon="6.799237">
        <ele>997.344</ele>
        <time>2018-07-12T15:58:26Z</time>
      </trkpt>
      <trkpt lat="45.895505" lon="6.799210">
        <ele>996.018</ele>
        <time>2018-07-12T15:58:30Z</time>
      </trkpt>
      <trkpt lat="45.895457" lon="6.799187">
        <ele>998.708</ele>
        <time>2018-07-12T15:58:34Z</time>
      </trkpt>
      <trkpt lat="45.895406" lon="6.799161">
        <ele>998.668</ele>
        <time>2018-07-12T15:58:38Z</time>
      </trkpt>
      <trkpt lat="45.895352" lon="6.799148">
        <ele>996.862</ele>
        <time>2018-07-12T15:58:42Z</time>
      </trkpt>
      <trkpt lat="45.895309" lon="6.799111">
        <ele>995.640</ele>
        <time>2018-07-12T15:58:46Z</time>
      </trkpt>
      <trkpt lat="45.895267" lon="6.799075">
        <ele>996.369</ele>
        <time>2018-07-12T15:58:50Z</time>
      </trkpt>
      <trkpt lat="45.895227" lon="6.799045">
        <ele>995.883</ele>
        <time>2018-07-12T15:59:13Z</time>
      </trkpt>
      <trkpt lat="45.895180" lon="6.799033">
        <ele>995.738</ele>
        <time>2018-07-12T15:59:17Z</time>
      </trkpt>
      <trkpt lat="45.895127" lon="6.799007">
        <ele>995.932</ele>
        <time>2018-07-12T15:59:22Z</time>
      </trkpt>
      <trkpt lat="45.895085" lon="6.798980">
        <ele>996.058</ele>
        <time>2018-07-12T15:59:26Z</time>
      </trkpt>
      <trkpt lat="45.895043" lon="6.798954">
        <ele>998.221</ele>
        <time>2018-07-12T15:59:30Z</time>
      </trkpt>
      <trkpt lat="45.895002" lon="6.798925">
        <ele>998.741</ele>
        <time>2018-07-12T15:59:34Z</time>
      </trkpt>
      <trkpt lat="45.894957" lon="6.798890">
        <ele>999.005</ele>
        <time>2018-07-12T15:59:39Z</time>
      </trkpt>
      <trkpt lat="45.894908" lon="6.798865">
        <ele>999.308</ele>
        <time>2018-07-12T15:59:44Z</time>
      </trkpt>
      <trkpt lat="45.894862" lon="6.798843">
        <ele>999.684</ele>
        <time>2018-07-12T15:59:49Z</time>
      </trkpt>
      <trkpt lat="45.894813" lon="6.798827">
        <ele>998.038</ele>
        <time>2018-07-12T15:59:54Z</time>
      </trkpt>
      <trkpt lat="45.894766" lon="6.798808">
        <ele>997.536</ele>
        <time>2018-07-12T15:59:59Z</time>
      </trkpt>
      <trkpt lat="45.894721" lon="6.798840">
        <ele>997.095</ele>
        <time>2018-07-12T16:00:04Z</time>
      </trkpt>
      <trkpt lat="45.894677" lon="6.798870">
        <ele>996.489</ele>
        <time>2018-07-12T16:00:09Z</time>
      </trkpt>
      <trkpt lat="45.894634" lon="6.798899">
        <ele>998.274</ele>
        <time>2018-07-12T16:00:13Z</time>
      </trkpt>
      <trkpt lat="45.894594" lon="6.798950">
        <ele>997.138</ele>
        <time>2018-07-12T16:00:18Z</time>
      </trkpt>
      <trkpt lat="45.894538" lon="6.798957">
        <ele>996.464</ele>
        <time>2018-07-12T16:00:23Z</time>
      </trkpt>
      <trkpt lat="45.894493" lon="6.798933">
        <ele>995.898</ele>
        <time>2018-07-12T16:00:27Z</time>
      </trkpt>
      <trkpt lat="45.894454" lon="6.798879">
        <ele>995.615</ele>
        <time>2018-07-12T16:00:32Z</time>
      </trkpt>
      <trkpt lat="45.894423" lon="6.798822">
        <ele>994.526</ele>
        <time>2018-07-12T16:00:37Z</time>
      </trkpt>
      <trkpt lat="45.894397" lon="6.798768">
        <ele>994.208</ele>
        <time>2018-07-12T16:00:41Z</time>
      </trkpt>
      <trkpt lat="45.894369" lon="6.798713">
        <ele>994.031</ele>
        <time>2018-07-12T16:00:45Z</time>
      </trkpt>
      <trkpt lat="45.894342" lon="6.798658">
        <ele>993.565</ele>
        <time>2018-07-12T16:00:49Z</time>
      </trkpt>
      <trkpt lat="45.894317" lon="6.798602">
        <ele>991.883</ele>
        <time>2018-07-12T16:00:53Z</time>
      </trkpt>
      <trkpt lat="45.894288" lon="6.798550">
        <ele>993.292</ele>
        <time>2018-07-12T16:00:57Z</time>
      </trkpt>
      <trkpt lat="45.894258" lon="6.798484">
        <ele>993.086</ele>
        <time>2018-07-12T16:01:02Z</time>
      </trkpt>
      <trkpt lat="45.894232" lon="6.798430">
        <ele>992.261</ele>
        <time>2018-07-12T16:01:06Z</time>
      </trkpt>
      <trkpt lat="45.894201" lon="6.798378">
        <ele>993.045</ele>
        <time>2018-07-12T16:01:10Z</time>
      </trkpt>
      <trkpt lat="45.894170" lon="6.798330">
        <ele>990.521</ele>
        <time>2018-07-12T16:01:14Z</time>
      </trkpt>
      <trkpt lat="45.894142" lon="6.798267">
        <ele>989.894</ele>
        <time>2018-07-12T16:01:19Z</time>
      </trkpt>
      <trkpt lat="45.894111" lon="6.798192">
        <ele>991.257</ele>
        <time>2018-07-12T16:01:24Z</time>
      </trkpt>
      <trkpt lat="45.894076" lon="6.798132">
        <ele>991.222</ele>
        <time>2018-07-12T16:01:30Z</time>
      </trkpt>
      <trkpt lat="45.894053" lon="6.798073">
        <ele>988.308</ele>
        <time>2018-07-12T16:02:35Z</time>
      </trkpt>
      <trkpt lat="45.894016" lon="6.798023">
        <ele>986.651</ele>
        <time>2018-07-12T16:02:40Z</time>
      </trkpt>
      <trkpt lat="45.893970" lon="6.797991">
        <ele>986.135</ele>
        <time>2018-07-12T16:02:45Z</time>
      </trkpt>
      <trkpt lat="45.893920" lon="6.797974">
        <ele>986.143</ele>
        <time>2018-07-12T16:02:50Z</time>
      </trkpt>
      <trkpt lat="45.893875" lon="6.797959">
        <ele>987.942</ele>
        <time>2018-07-12T16:02:54Z</time>
      </trkpt>
      <trkpt lat="45.893825" lon="6.797998">
        <ele>985.646</ele>
        <time>2018-07-12T16:03:13Z</time>
      </trkpt>
      <trkpt lat="45.893820" lon="6.797923">
        <ele>985.531</ele>
        <time>2018-07-12T16:03:20Z</time>
      </trkpt>
      <trkpt lat="45.893810" lon="6.797858">
        <ele>986.935</ele>
        <time>2018-07-12T16:03:24Z</time>
      </trkpt>
      <trkpt lat="45.893777" lon="6.797799">
        <ele>987.121</ele>
        <time>2018-07-12T16:03:29Z</time>
      </trkpt>
      <trkpt lat="45.893743" lon="6.797754">
        <ele>986.016</ele>
        <time>2018-07-12T16:03:33Z</time>
      </trkpt>
      <trkpt lat="45.893709" lon="6.797711">
        <ele>985.876</ele>
        <time>2018-07-12T16:03:37Z</time>
      </trkpt>
      <trkpt lat="45.893672" lon="6.797671">
        <ele>985.813</ele>
        <time>2018-07-12T16:03:41Z</time>
      </trkpt>
      <trkpt lat="45.893635" lon="6.797625">
        <ele>985.608</ele>
        <time>2018-07-12T16:03:45Z</time>
      </trkpt>
      <trkpt lat="45.893599" lon="6.797580">
        <ele>985.623</ele>
        <time>2018-07-12T16:03:49Z</time>
      </trkpt>
      <trkpt lat="45.893559" lon="6.797542">
        <ele>987.797</ele>
        <time>2018-07-12T16:03:54Z</time>
      </trkpt>
      <trkpt lat="45.893612" lon="6.797599">
        <ele>1009.132</ele>
        <time>2018-07-13T08:23:08Z</time>
      </trkpt>
      <trkpt lat="45.893666" lon="6.797626">
        <ele>1009.192</ele>
        <time>2018-07-13T08:23:26Z</time>
      </trkpt>
      <trkpt lat="45.893710" lon="6.797676">
        <ele>1009.111</ele>
        <time>2018-07-13T08:23:31Z</time>
      </trkpt>
      <trkpt lat="45.893749" lon="6.797723">
        <ele>1009.108</ele>
        <time>2018-07-13T08:23:36Z</time>
      </trkpt>
      <trkpt lat="45.893792" lon="6.797775">
        <ele>1009.195</ele>
        <time>2018-07-13T08:23:41Z</time>
      </trkpt>
      <trkpt lat="45.893826" lon="6.797831">
        <ele>1009.138</ele>
        <time>2018-07-13T08:23:46Z</time>
      </trkpt>
      <trkpt lat="45.893859" lon="6.797896">
        <ele>1009.117</ele>
        <time>2018-07-13T08:23:51Z</time>
      </trkpt>
      <trkpt lat="45.893894" lon="6.797955">
        <ele>1009.176</ele>
        <time>2018-07-13T08:24:27Z</time>
      </trkpt>
      <trkpt lat="45.893848" lon="6.797910">
        <ele>1009.176</ele>
        <time>2018-07-13T08:25:00Z</time>
      </trkpt>
      <trkpt lat="45.893837" lon="6.797985">
        <ele>1009.175</ele>
        <time>2018-07-13T08:25:06Z</time>
      </trkpt>
      <trkpt lat="45.893827" lon="6.798048">
        <ele>1009.130</ele>
        <time>2018-07-13T08:25:16Z</time>
      </trkpt>
      <trkpt lat="45.893818" lon="6.798128">
        <ele>1009.129</ele>
        <time>2018-07-13T08:25:21Z</time>
      </trkpt>
      <trkpt lat="45.893822" lon="6.798200">
        <ele>1009.156</ele>
        <time>2018-07-13T08:25:32Z</time>
      </trkpt>
      <trkpt lat="45.893808" lon="6.798276">
        <ele>1009.159</ele>
        <time>2018-07-13T08:25:37Z</time>
      </trkpt>
      <trkpt lat="45.893796" lon="6.798347">
        <ele>1009.114</ele>
        <time>2018-07-13T08:25:41Z</time>
      </trkpt>
      <trkpt lat="45.893784" lon="6.798418">
        <ele>1008.808</ele>
        <time>2018-07-13T08:25:45Z</time>
      </trkpt>
      <trkpt lat="45.893789" lon="6.798489">
        <ele>1009.097</ele>
        <time>2018-07-13T08:25:54Z</time>
      </trkpt>
      <trkpt lat="45.893806" lon="6.798552">
        <ele>1009.460</ele>
        <time>2018-07-13T08:25:58Z</time>
      </trkpt>
      <trkpt lat="45.893808" lon="6.798630">
        <ele>1009.639</ele>
        <time>2018-07-13T08:26:03Z</time>
      </trkpt>
      <trkpt lat="45.893814" lon="6.798703">
        <ele>1012.168</ele>
        <time>2018-07-13T08:26:08Z</time>
      </trkpt>
      <trkpt lat="45.893808" lon="6.798772">
        <ele>1012.358</ele>
        <time>2018-07-13T08:26:12Z</time>
      </trkpt>
      <trkpt lat="45.893797" lon="6.798844">
        <ele>1011.427</ele>
        <time>2018-07-13T08:26:16Z</time>
      </trkpt>
      <trkpt lat="45.893789" lon="6.798909">
        <ele>1013.972</ele>
        <time>2018-07-13T08:26:29Z</time>
      </trkpt>
      <trkpt lat="45.893768" lon="6.798984">
        <ele>1012.571</ele>
        <time>2018-07-13T08:26:33Z</time>
      </trkpt>
      <trkpt lat="45.893750" lon="6.799045">
        <ele>1014.421</ele>
        <time>2018-07-13T08:26:37Z</time>
      </trkpt>
      <trkpt lat="45.893733" lon="6.799114">
        <ele>1014.541</ele>
        <time>2018-07-13T08:26:46Z</time>
      </trkpt>
      <trkpt lat="45.893694" lon="6.799171">
        <ele>1014.805</ele>
        <time>2018-07-13T08:26:55Z</time>
      </trkpt>
      <trkpt lat="45.893661" lon="6.799226">
        <ele>1014.608</ele>
        <time>2018-07-13T08:27:00Z</time>
      </trkpt>
      <trkpt lat="45.893621" lon="6.799281">
        <ele>1016.464</ele>
        <time>2018-07-13T08:27:05Z</time>
      </trkpt>
      <trkpt lat="45.893590" lon="6.799330">
        <ele>1015.317</ele>
        <time>2018-07-13T08:27:09Z</time>
      </trkpt>
      <trkpt lat="45.893551" lon="6.799376">
        <ele>1017.376</ele>
        <time>2018-07-13T08:27:13Z</time>
      </trkpt>
      <trkpt lat="45.893520" lon="6.799425">
        <ele>1017.935</ele>
        <time>2018-07-13T08:27:18Z</time>
      </trkpt>
      <trkpt lat="45.893476" lon="6.799473">
        <ele>1018.085</ele>
        <time>2018-07-13T08:27:23Z</time>
      </trkpt>
      <trkpt lat="45.893444" lon="6.799525">
        <ele>1018.694</ele>
        <time>2018-07-13T08:27:28Z</time>
      </trkpt>
      <trkpt lat="45.893407" lon="6.799569">
        <ele>1019.789</ele>
        <time>2018-07-13T08:27:32Z</time>
      </trkpt>
      <trkpt lat="45.893372" lon="6.799624">
        <ele>1018.278</ele>
        <time>2018-07-13T08:27:36Z</time>
      </trkpt>
      <trkpt lat="45.893335" lon="6.799670">
        <ele>1020.467</ele>
        <time>2018-07-13T08:27:40Z</time>
      </trkpt>
      <trkpt lat="45.893289" lon="6.799702">
        <ele>1020.981</ele>
        <time>2018-07-13T08:27:44Z</time>
      </trkpt>
      <trkpt lat="45.893242" lon="6.799711">
        <ele>1020.219</ele>
        <time>2018-07-13T08:27:49Z</time>
      </trkpt>
      <trkpt lat="45.893194" lon="6.799718">
        <ele>1021.708</ele>
        <time>2018-07-13T08:27:53Z</time>
      </trkpt>
      <trkpt lat="45.893144" lon="6.799691">
        <ele>1022.788</ele>
        <time>2018-07-13T08:28:02Z</time>
      </trkpt>
      <trkpt lat="45.893102" lon="6.799669">
        <ele>1022.671</ele>
        <time>2018-07-13T08:28:05Z</time>
      </trkpt>
      <trkpt lat="45.893053" lon="6.799635">
        <ele>1022.650</ele>
        <time>2018-07-13T08:28:07Z</time>
      </trkpt>
      <trkpt lat="45.893017" lon="6.799588">
        <ele>1022.959</ele>
        <time>2018-07-13T08:28:11Z</time>
      </trkpt>
      <trkpt lat="45.893062" lon="6.799616">
        <ele>1023.149</ele>
        <time>2018-07-13T08:28:13Z</time>
      </trkpt>
      <trkpt lat="45.893112" lon="6.799631">
        <ele>1023.638</ele>
        <time>2018-07-13T08:28:16Z</time>
      </trkpt>
      <trkpt lat="45.893082" lon="6.799558">
        <ele>1024.073</ele>
        <time>2018-07-13T08:28:26Z</time>
      </trkpt>
      <trkpt lat="45.893032" lon="6.799518">
        <ele>1024.952</ele>
        <time>2018-07-13T08:28:29Z</time>
      </trkpt>
      <trkpt lat="45.892986" lon="6.799476">
        <ele>1025.369</ele>
        <time>2018-07-13T08:28:32Z</time>
      </trkpt>
      <trkpt lat="45.892949" lon="6.799434">
        <ele>1023.804</ele>
        <time>2018-07-13T08:28:35Z</time>
      </trkpt>
      <trkpt lat="45.892899" lon="6.799390">
        <ele>1026.224</ele>
        <time>2018-07-13T08:28:38Z</time>
      </trkpt>
      <trkpt lat="45.892832" lon="6.799324">
        <ele>1026.508</ele>
        <time>2018-07-13T08:28:42Z</time>
      </trkpt>
      <trkpt lat="45.892782" lon="6.799296">
        <ele>1026.658</ele>
        <time>2018-07-13T08:28:45Z</time>
      </trkpt>
      <trkpt lat="45.892760" lon="6.799234">
        <ele>1026.941</ele>
        <time>2018-07-13T08:28:52Z</time>
      </trkpt>
      <trkpt lat="45.892736" lon="6.799165">
        <ele>1028.010</ele>
        <time>2018-07-13T08:28:56Z</time>
      </trkpt>
      <trkpt lat="45.892688" lon="6.799119">
        <ele>1026.999</ele>
        <time>2018-07-13T08:29:01Z</time>
      </trkpt>
      <trkpt lat="45.892641" lon="6.799103">
        <ele>1029.229</ele>
        <time>2018-07-13T08:29:03Z</time>
      </trkpt>
      <trkpt lat="45.892578" lon="6.799089">
        <ele>1029.818</ele>
        <time>2018-07-13T08:29:06Z</time>
      </trkpt>
      <trkpt lat="45.892525" lon="6.799098">
        <ele>1030.173</ele>
        <time>2018-07-13T08:29:09Z</time>
      </trkpt>
      <trkpt lat="45.892474" lon="6.799127">
        <ele>1030.512</ele>
        <time>2018-07-13T08:29:13Z</time>
      </trkpt>
      <trkpt lat="45.892441" lon="6.799179">
        <ele>1030.644</ele>
        <time>2018-07-13T08:29:17Z</time>
      </trkpt>
      <trkpt lat="45.892439" lon="6.799252">
        <ele>1031.105</ele>
        <time>2018-07-13T08:29:21Z</time>
      </trkpt>
      <trkpt lat="45.892454" lon="6.799320">
        <ele>1032.015</ele>
        <time>2018-07-13T08:29:25Z</time>
      </trkpt>
      <trkpt lat="45.892475" lon="6.799386">
        <ele>1031.808</ele>
        <time>2018-07-13T08:29:29Z</time>
      </trkpt>
      <trkpt lat="45.892496" lon="6.799447">
        <ele>1033.236</ele>
        <time>2018-07-13T08:29:33Z</time>
      </trkpt>
      <trkpt lat="45.892519" lon="6.799507">
        <ele>1031.569</ele>
        <time>2018-07-13T08:29:37Z</time>
      </trkpt>
      <trkpt lat="45.892533" lon="6.799569">
        <ele>1032.748</ele>
        <time>2018-07-13T08:29:41Z</time>
      </trkpt>
      <trkpt lat="45.892509" lon="6.799628">
        <ele>1034.237</ele>
        <time>2018-07-13T08:29:46Z</time>
      </trkpt>
      <trkpt lat="45.892481" lon="6.799697">
        <ele>1033.477</ele>
        <time>2018-07-13T08:29:50Z</time>
      </trkpt>
      <trkpt lat="45.892454" lon="6.799749">
        <ele>1035.046</ele>
        <time>2018-07-13T08:29:54Z</time>
      </trkpt>
      <trkpt lat="45.892401" lon="6.799775">
        <ele>1033.991</ele>
        <time>2018-07-13T08:29:59Z</time>
      </trkpt>
      <trkpt lat="45.892347" lon="6.799765">
        <ele>1035.460</ele>
        <time>2018-07-13T08:30:05Z</time>
      </trkpt>
      <trkpt lat="45.892304" lon="6.799726">
        <ele>1034.952</ele>
        <time>2018-07-13T08:30:11Z</time>
      </trkpt>
      <trkpt lat="45.892254" lon="6.799735">
        <ele>1034.653</ele>
        <time>2018-07-13T08:30:16Z</time>
      </trkpt>
      <trkpt lat="45.892207" lon="6.799743">
        <ele>1036.608</ele>
        <time>2018-07-13T08:30:20Z</time>
      </trkpt>
      <trkpt lat="45.892159" lon="6.799716">
        <ele>1037.008</ele>
        <time>2018-07-13T08:30:25Z</time>
      </trkpt>
      <trkpt lat="45.892137" lon="6.799652">
        <ele>1035.677</ele>
        <time>2018-07-13T08:30:32Z</time>
      </trkpt>
      <trkpt lat="45.892110" lon="6.799582">
        <ele>1037.440</ele>
        <time>2018-07-13T08:30:37Z</time>
      </trkpt>
      <trkpt lat="45.892083" lon="6.799517">
        <ele>1036.369</ele>
        <time>2018-07-13T08:30:43Z</time>
      </trkpt>
      <trkpt lat="45.892055" lon="6.799463">
        <ele>1037.468</ele>
        <time>2018-07-13T08:30:47Z</time>
      </trkpt>
      <trkpt lat="45.892022" lon="6.799408">
        <ele>1037.618</ele>
        <time>2018-07-13T08:30:51Z</time>
      </trkpt>
      <trkpt lat="45.891982" lon="6.799364">
        <ele>1037.847</ele>
        <time>2018-07-13T08:30:54Z</time>
      </trkpt>
      <trkpt lat="45.891943" lon="6.799313">
        <ele>1037.362</ele>
        <time>2018-07-13T08:30:58Z</time>
      </trkpt>
      <trkpt lat="45.891897" lon="6.799265">
        <ele>1035.491</ele>
        <time>2018-07-13T08:31:03Z</time>
      </trkpt>
      <trkpt lat="45.891857" lon="6.799233">
        <ele>1035.097</ele>
        <time>2018-07-13T08:31:07Z</time>
      </trkpt>
      <trkpt lat="45.891811" lon="6.799197">
        <ele>1035.123</ele>
        <time>2018-07-13T08:31:11Z</time>
      </trkpt>
      <trkpt lat="45.891762" lon="6.799161">
        <ele>1035.325</ele>
        <time>2018-07-13T08:31:15Z</time>
      </trkpt>
      <trkpt lat="45.891711" lon="6.799132">
        <ele>1035.108</ele>
        <time>2018-07-13T08:31:20Z</time>
      </trkpt>
      <trkpt lat="45.891656" lon="6.799104">
        <ele>1035.661</ele>
        <time>2018-07-13T08:31:24Z</time>
      </trkpt>
      <trkpt lat="45.891599" lon="6.799078">
        <ele>1037.984</ele>
        <time>2018-07-13T08:31:28Z</time>
      </trkpt>
      <trkpt lat="45.891546" lon="6.799053">
        <ele>1037.433</ele>
        <time>2018-07-13T08:31:32Z</time>
      </trkpt>
      <trkpt lat="45.891496" lon="6.799033">
        <ele>1037.642</ele>
        <time>2018-07-13T08:31:36Z</time>
      </trkpt>
      <trkpt lat="45.891446" lon="6.799020">
        <ele>1036.012</ele>
        <time>2018-07-13T08:31:40Z</time>
      </trkpt>
      <trkpt lat="45.891394" lon="6.799028">
        <ele>1036.031</ele>
        <time>2018-07-13T08:31:45Z</time>
      </trkpt>
      <trkpt lat="45.891338" lon="6.799002">
        <ele>1036.496</ele>
        <time>2018-07-13T08:31:50Z</time>
      </trkpt>
      <trkpt lat="45.891233" lon="6.798961">
        <ele>1039.445</ele>
        <time>2018-07-13T08:32:05Z</time>
      </trkpt>
      <trkpt lat="45.891181" lon="6.798938">
        <ele>1039.892</ele>
        <time>2018-07-13T08:32:11Z</time>
      </trkpt>
      <trkpt lat="45.891126" lon="6.798918">
        <ele>1037.273</ele>
        <time>2018-07-13T08:32:14Z</time>
      </trkpt>
      <trkpt lat="45.891076" lon="6.798893">
        <ele>1037.120</ele>
        <time>2018-07-13T08:32:18Z</time>
      </trkpt>
      <trkpt lat="45.891023" lon="6.798882">
        <ele>1037.108</ele>
        <time>2018-07-13T08:32:23Z</time>
      </trkpt>
      <trkpt lat="45.890976" lon="6.798867">
        <ele>1037.171</ele>
        <time>2018-07-13T08:32:25Z</time>
      </trkpt>
      <trkpt lat="45.890929" lon="6.798849">
        <ele>1037.234</ele>
        <time>2018-07-13T08:32:27Z</time>
      </trkpt>
      <trkpt lat="45.890886" lon="6.798829">
        <ele>1039.473</ele>
        <time>2018-07-13T08:32:29Z</time>
      </trkpt>
      <trkpt lat="45.890831" lon="6.798805">
        <ele>1037.852</ele>
        <time>2018-07-13T08:32:32Z</time>
      </trkpt>
      <trkpt lat="45.890782" lon="6.798785">
        <ele>1037.532</ele>
        <time>2018-07-13T08:32:35Z</time>
      </trkpt>
      <trkpt lat="45.890739" lon="6.798764">
        <ele>1037.471</ele>
        <time>2018-07-13T08:32:38Z</time>
      </trkpt>
      <trkpt lat="45.890693" lon="6.798743">
        <ele>1037.916</ele>
        <time>2018-07-13T08:32:41Z</time>
      </trkpt>
      <trkpt lat="45.890636" lon="6.798718">
        <ele>1037.535</ele>
        <time>2018-07-13T08:32:45Z</time>
      </trkpt>
      <trkpt lat="45.890583" lon="6.798702">
        <ele>1037.866</ele>
        <time>2018-07-13T08:32:49Z</time>
      </trkpt>
      <trkpt lat="45.890538" lon="6.798734">
        <ele>1040.229</ele>
        <time>2018-07-13T08:32:53Z</time>
      </trkpt>
      <trkpt lat="45.890493" lon="6.798783">
        <ele>1040.721</ele>
        <time>2018-07-13T08:32:57Z</time>
      </trkpt>
      <trkpt lat="45.890444" lon="6.798802">
        <ele>1040.808</ele>
        <time>2018-07-13T08:33:01Z</time>
      </trkpt>
      <trkpt lat="45.890385" lon="6.798795">
        <ele>1038.158</ele>
        <time>2018-07-13T08:33:05Z</time>
      </trkpt>
      <trkpt lat="45.890333" lon="6.798765">
        <ele>1040.061</ele>
        <time>2018-07-13T08:33:09Z</time>
      </trkpt>
      <trkpt lat="45.890289" lon="6.798714">
        <ele>1039.720</ele>
        <time>2018-07-13T08:33:14Z</time>
      </trkpt>
      <trkpt lat="45.890254" lon="6.798650">
        <ele>1038.349</ele>
        <time>2018-07-13T08:33:19Z</time>
      </trkpt>
      <trkpt lat="45.890215" lon="6.798603">
        <ele>1037.869</ele>
        <time>2018-07-13T08:33:23Z</time>
      </trkpt>
      <trkpt lat="45.890185" lon="6.798546">
        <ele>1037.728</ele>
        <time>2018-07-13T08:33:29Z</time>
      </trkpt>
      <trkpt lat="45.890160" lon="6.798485">
        <ele>1038.173</ele>
        <time>2018-07-13T08:33:34Z</time>
      </trkpt>
      <trkpt lat="45.890117" lon="6.798428">
        <ele>1038.592</ele>
        <time>2018-07-13T08:33:42Z</time>
      </trkpt>
      <trkpt lat="45.890088" lon="6.798366">
        <ele>1038.894</ele>
        <time>2018-07-13T08:33:49Z</time>
      </trkpt>
      <trkpt lat="45.890059" lon="6.798311">
        <ele>1037.357</ele>
        <time>2018-07-13T08:33:52Z</time>
      </trkpt>
      <trkpt lat="45.890027" lon="6.798250">
        <ele>1038.722</ele>
        <time>2018-07-13T08:33:56Z</time>
      </trkpt>
      <trkpt lat="45.889991" lon="6.798206">
        <ele>1039.208</ele>
        <time>2018-07-13T08:34:03Z</time>
      </trkpt>
      <trkpt lat="45.889951" lon="6.798163">
        <ele>1038.741</ele>
        <time>2018-07-13T08:34:09Z</time>
      </trkpt>
      <trkpt lat="45.889915" lon="6.798111">
        <ele>1038.864</ele>
        <time>2018-07-13T08:34:13Z</time>
      </trkpt>
      <trkpt lat="45.889871" lon="6.798065">
        <ele>1038.923</ele>
        <time>2018-07-13T08:34:16Z</time>
      </trkpt>
      <trkpt lat="45.889836" lon="6.798021">
        <ele>1038.922</ele>
        <time>2018-07-13T08:34:19Z</time>
      </trkpt>
      <trkpt lat="45.889805" lon="6.797972">
        <ele>1039.012</ele>
        <time>2018-07-13T08:34:23Z</time>
      </trkpt>
      <trkpt lat="45.889777" lon="6.797915">
        <ele>1037.161</ele>
        <time>2018-07-13T08:34:28Z</time>
      </trkpt>
      <trkpt lat="45.889736" lon="6.797863">
        <ele>1037.646</ele>
        <time>2018-07-13T08:34:32Z</time>
      </trkpt>
      <trkpt lat="45.889686" lon="6.797810">
        <ele>1037.485</ele>
        <time>2018-07-13T08:34:36Z</time>
      </trkpt>
      <trkpt lat="45.889646" lon="6.797753">
        <ele>1037.217</ele>
        <time>2018-07-13T08:34:39Z</time>
      </trkpt>
      <trkpt lat="45.889608" lon="6.797696">
        <ele>1036.987</ele>
        <time>2018-07-13T08:34:42Z</time>
      </trkpt>
      <trkpt lat="45.889566" lon="6.797603">
        <ele>1036.815</ele>
        <time>2018-07-13T08:34:49Z</time>
      </trkpt>
      <trkpt lat="45.889541" lon="6.797548">
        <ele>1036.908</ele>
        <time>2018-07-13T08:34:53Z</time>
      </trkpt>
      <trkpt lat="45.889512" lon="6.797471">
        <ele>1038.633</ele>
        <time>2018-07-13T08:34:58Z</time>
      </trkpt>
      <trkpt lat="45.889483" lon="6.797410">
        <ele>1038.156</ele>
        <time>2018-07-13T08:35:02Z</time>
      </trkpt>
      <trkpt lat="45.889450" lon="6.797349">
        <ele>1036.845</ele>
        <time>2018-07-13T08:35:06Z</time>
      </trkpt>
      <trkpt lat="45.889437" lon="6.797285">
        <ele>1038.814</ele>
        <time>2018-07-13T08:35:09Z</time>
      </trkpt>
      <trkpt lat="45.889451" lon="6.797215">
        <ele>1038.644</ele>
        <time>2018-07-13T08:35:12Z</time>
      </trkpt>
      <trkpt lat="45.889471" lon="6.797148">
        <ele>1038.523</ele>
        <time>2018-07-13T08:35:16Z</time>
      </trkpt>
      <trkpt lat="45.889444" lon="6.797080">
        <ele>1039.248</ele>
        <time>2018-07-13T08:35:19Z</time>
      </trkpt>
      <trkpt lat="45.889417" lon="6.797028">
        <ele>1038.677</ele>
        <time>2018-07-13T08:35:21Z</time>
      </trkpt>
      <trkpt lat="45.889398" lon="6.796960">
        <ele>1038.352</ele>
        <time>2018-07-13T08:35:24Z</time>
      </trkpt>
      <trkpt lat="45.889387" lon="6.796891">
        <ele>1037.153</ele>
        <time>2018-07-13T08:35:27Z</time>
      </trkpt>
      <trkpt lat="45.889386" lon="6.796824">
        <ele>1037.508</ele>
        <time>2018-07-13T08:35:30Z</time>
      </trkpt>
      <trkpt lat="45.889367" lon="6.796750">
        <ele>1037.508</ele>
        <time>2018-07-13T08:35:34Z</time>
      </trkpt>
      <trkpt lat="45.889351" lon="6.796674">
        <ele>1037.577</ele>
        <time>2018-07-13T08:35:38Z</time>
      </trkpt>
      <trkpt lat="45.889393" lon="6.796638">
        <ele>1037.450</ele>
        <time>2018-07-13T08:35:42Z</time>
      </trkpt>
      <trkpt lat="45.889404" lon="6.796559">
        <ele>1037.939</ele>
        <time>2018-07-13T08:35:47Z</time>
      </trkpt>
      <trkpt lat="45.889392" lon="6.796488">
        <ele>1038.018</ele>
        <time>2018-07-13T08:35:51Z</time>
      </trkpt>
      <trkpt lat="45.889386" lon="6.796421">
        <ele>1037.818</ele>
        <time>2018-07-13T08:35:55Z</time>
      </trkpt>
      <trkpt lat="45.889389" lon="6.796355">
        <ele>1038.077</ele>
        <time>2018-07-13T08:35:59Z</time>
      </trkpt>
      <trkpt lat="45.889383" lon="6.796287">
        <ele>1038.752</ele>
        <time>2018-07-13T08:36:03Z</time>
      </trkpt>
      <trkpt lat="45.889361" lon="6.796213">
        <ele>1038.641</ele>
        <time>2018-07-13T08:36:07Z</time>
      </trkpt>
      <trkpt lat="45.889336" lon="6.796135">
        <ele>1038.529</ele>
        <time>2018-07-13T08:36:11Z</time>
      </trkpt>
      <trkpt lat="45.889317" lon="6.796057">
        <ele>1039.600</ele>
        <time>2018-07-13T08:36:15Z</time>
      </trkpt>
      <trkpt lat="45.889305" lon="6.795980">
        <ele>1039.720</ele>
        <time>2018-07-13T08:36:19Z</time>
      </trkpt>
      <trkpt lat="45.889301" lon="6.795909">
        <ele>1039.608</ele>
        <time>2018-07-13T08:36:23Z</time>
      </trkpt>
      <trkpt lat="45.889285" lon="6.795833">
        <ele>1040.084</ele>
        <time>2018-07-13T08:36:27Z</time>
      </trkpt>
      <trkpt lat="45.889271" lon="6.795761">
        <ele>1039.977</ele>
        <time>2018-07-13T08:36:31Z</time>
      </trkpt>
      <trkpt lat="45.889266" lon="6.795685">
        <ele>1040.396</ele>
        <time>2018-07-13T08:36:37Z</time>
      </trkpt>
      <trkpt lat="45.889246" lon="6.795620">
        <ele>1040.365</ele>
        <time>2018-07-13T08:36:42Z</time>
      </trkpt>
      <trkpt lat="45.889249" lon="6.795554">
        <ele>1040.455</ele>
        <time>2018-07-13T08:36:45Z</time>
      </trkpt>
      <trkpt lat="45.889236" lon="6.795471">
        <ele>1040.994</ele>
        <time>2018-07-13T08:36:48Z</time>
      </trkpt>
      <trkpt lat="45.889216" lon="6.795411">
        <ele>1040.699</ele>
        <time>2018-07-13T08:36:50Z</time>
      </trkpt>
      <trkpt lat="45.889187" lon="6.795334">
        <ele>1040.538</ele>
        <time>2018-07-13T08:36:53Z</time>
      </trkpt>
      <trkpt lat="45.889167" lon="6.795270">
        <ele>1040.426</ele>
        <time>2018-07-13T08:36:56Z</time>
      </trkpt>
      <trkpt lat="45.889156" lon="6.795191">
        <ele>1040.247</ele>
        <time>2018-07-13T08:37:00Z</time>
      </trkpt>
      <trkpt lat="45.889145" lon="6.795113">
        <ele>1040.111</ele>
        <time>2018-07-13T08:37:04Z</time>
      </trkpt>
      <trkpt lat="45.889143" lon="6.795039">
        <ele>1039.908</ele>
        <time>2018-07-13T08:37:08Z</time>
      </trkpt>
      <trkpt lat="45.889163" lon="6.794965">
        <ele>1040.034</ele>
        <time>2018-07-13T08:37:12Z</time>
      </trkpt>
      <trkpt lat="45.889177" lon="6.794902">
        <ele>1039.717</ele>
        <time>2018-07-13T08:37:16Z</time>
      </trkpt>
      <trkpt lat="45.889197" lon="6.794830">
        <ele>1039.536</ele>
        <time>2018-07-13T08:37:21Z</time>
      </trkpt>
      <trkpt lat="45.889212" lon="6.794768">
        <ele>1039.875</ele>
        <time>2018-07-13T08:37:25Z</time>
      </trkpt>
      <trkpt lat="45.889235" lon="6.794697">
        <ele>1041.775</ele>
        <time>2018-07-13T08:37:29Z</time>
      </trkpt>
      <trkpt lat="45.889256" lon="6.794620">
        <ele>1041.834</ele>
        <time>2018-07-13T08:37:33Z</time>
      </trkpt>
      <trkpt lat="45.889258" lon="6.794552">
        <ele>1039.249</ele>
        <time>2018-07-13T08:37:37Z</time>
      </trkpt>
      <trkpt lat="45.889261" lon="6.794474">
        <ele>1038.638</ele>
        <time>2018-07-13T08:37:41Z</time>
      </trkpt>
      <trkpt lat="45.889254" lon="6.794391">
        <ele>1038.944</ele>
        <time>2018-07-13T08:37:45Z</time>
      </trkpt>
      <trkpt lat="45.889254" lon="6.794313">
        <ele>1038.505</ele>
        <time>2018-07-13T08:37:49Z</time>
      </trkpt>
      <trkpt lat="45.889255" lon="6.794239">
        <ele>1038.015</ele>
        <time>2018-07-13T08:37:53Z</time>
      </trkpt>
      <trkpt lat="45.889269" lon="6.794163">
        <ele>1037.908</ele>
        <time>2018-07-13T08:37:57Z</time>
      </trkpt>
      <trkpt lat="45.889280" lon="6.794083">
        <ele>1038.466</ele>
        <time>2018-07-13T08:38:01Z</time>
      </trkpt>
      <trkpt lat="45.889283" lon="6.794015">
        <ele>1037.659</ele>
        <time>2018-07-13T08:38:05Z</time>
      </trkpt>
      <trkpt lat="45.889281" lon="6.793933">
        <ele>1037.148</ele>
        <time>2018-07-13T08:38:10Z</time>
      </trkpt>
      <trkpt lat="45.889279" lon="6.793867">
        <ele>1037.227</ele>
        <time>2018-07-13T08:38:14Z</time>
      </trkpt>
      <trkpt lat="45.889269" lon="6.793799">
        <ele>1036.627</ele>
        <time>2018-07-13T08:38:18Z</time>
      </trkpt>
      <trkpt lat="45.889261" lon="6.793725">
        <ele>1036.496</ele>
        <time>2018-07-13T08:38:23Z</time>
      </trkpt>
      <trkpt lat="45.889250" lon="6.793661">
        <ele>1036.351</ele>
        <time>2018-07-13T08:38:28Z</time>
      </trkpt>
      <trkpt lat="45.889251" lon="6.793589">
        <ele>1035.960</ele>
        <time>2018-07-13T08:38:32Z</time>
      </trkpt>
      <trkpt lat="45.889240" lon="6.793518">
        <ele>1035.667</ele>
        <time>2018-07-13T08:38:36Z</time>
      </trkpt>
      <trkpt lat="45.889234" lon="6.793448">
        <ele>1035.181</ele>
        <time>2018-07-13T08:38:40Z</time>
      </trkpt>
      <trkpt lat="45.889233" lon="6.793367">
        <ele>1034.819</ele>
        <time>2018-07-13T08:38:44Z</time>
      </trkpt>
      <trkpt lat="45.889240" lon="6.793298">
        <ele>1034.608</ele>
        <time>2018-07-13T08:38:48Z</time>
      </trkpt>
      <trkpt lat="45.889234" lon="6.793217">
        <ele>1034.458</ele>
        <time>2018-07-13T08:38:52Z</time>
      </trkpt>
      <trkpt lat="45.889229" lon="6.793140">
        <ele>1034.571</ele>
        <time>2018-07-13T08:38:56Z</time>
      </trkpt>
      <trkpt lat="45.889233" lon="6.793075">
        <ele>1034.380</ele>
        <time>2018-07-13T08:39:00Z</time>
      </trkpt>
      <trkpt lat="45.889226" lon="6.792996">
        <ele>1033.789</ele>
        <time>2018-07-13T08:39:04Z</time>
      </trkpt>
      <trkpt lat="45.889224" lon="6.792918">
        <ele>1033.819</ele>
        <time>2018-07-13T08:39:08Z</time>
      </trkpt>
      <trkpt lat="45.889218" lon="6.792848">
        <ele>1033.928</ele>
        <time>2018-07-13T08:39:12Z</time>
      </trkpt>
      <trkpt lat="45.889223" lon="6.792774">
        <ele>1033.273</ele>
        <time>2018-07-13T08:39:16Z</time>
      </trkpt>
      <trkpt lat="45.889218" lon="6.792698">
        <ele>1033.672</ele>
        <time>2018-07-13T08:39:20Z</time>
      </trkpt>
      <trkpt lat="45.889217" lon="6.792631">
        <ele>1032.951</ele>
        <time>2018-07-13T08:39:24Z</time>
      </trkpt>
      <trkpt lat="45.889210" lon="6.792559">
        <ele>1032.701</ele>
        <time>2018-07-13T08:39:28Z</time>
      </trkpt>
      <trkpt lat="45.889201" lon="6.792495">
        <ele>1032.711</ele>
        <time>2018-07-13T08:39:31Z</time>
      </trkpt>
      <trkpt lat="45.889190" lon="6.792411">
        <ele>1032.708</ele>
        <time>2018-07-13T08:39:35Z</time>
      </trkpt>
      <trkpt lat="45.889182" lon="6.792336">
        <ele>1032.847</ele>
        <time>2018-07-13T08:39:39Z</time>
      </trkpt>
      <trkpt lat="45.889171" lon="6.792257">
        <ele>1032.460</ele>
        <time>2018-07-13T08:39:43Z</time>
      </trkpt>
      <trkpt lat="45.889163" lon="6.792193">
        <ele>1032.219</ele>
        <time>2018-07-13T08:39:47Z</time>
      </trkpt>
      <trkpt lat="45.889176" lon="6.792117">
        <ele>1032.058</ele>
        <time>2018-07-13T08:39:51Z</time>
      </trkpt>
      <trkpt lat="45.889189" lon="6.792046">
        <ele>1031.938</ele>
        <time>2018-07-13T08:39:55Z</time>
      </trkpt>
      <trkpt lat="45.889190" lon="6.791974">
        <ele>1032.427</ele>
        <time>2018-07-13T08:39:59Z</time>
      </trkpt>
      <trkpt lat="45.889187" lon="6.791895">
        <ele>1031.942</ele>
        <time>2018-07-13T08:40:04Z</time>
      </trkpt>
      <trkpt lat="45.889193" lon="6.791824">
        <ele>1031.871</ele>
        <time>2018-07-13T08:40:08Z</time>
      </trkpt>
      <trkpt lat="45.889193" lon="6.791759">
        <ele>1032.014</ele>
        <time>2018-07-13T08:40:12Z</time>
      </trkpt>
      <trkpt lat="45.889212" lon="6.791698">
        <ele>1031.754</ele>
        <time>2018-07-13T08:40:15Z</time>
      </trkpt>
      <trkpt lat="45.889232" lon="6.791621">
        <ele>1031.809</ele>
        <time>2018-07-13T08:40:19Z</time>
      </trkpt>
      <trkpt lat="45.889239" lon="6.791551">
        <ele>1031.308</ele>
        <time>2018-07-13T08:40:23Z</time>
      </trkpt>
      <trkpt lat="45.889244" lon="6.791482">
        <ele>1031.643</ele>
        <time>2018-07-13T08:40:27Z</time>
      </trkpt>
      <trkpt lat="45.889268" lon="6.791399">
        <ele>1032.156</ele>
        <time>2018-07-13T08:40:37Z</time>
      </trkpt>
      <trkpt lat="45.889294" lon="6.791316">
        <ele>1033.685</ele>
        <time>2018-07-13T08:40:39Z</time>
      </trkpt>
      <trkpt lat="45.889304" lon="6.791249">
        <ele>1033.934</ele>
        <time>2018-07-13T08:40:42Z</time>
      </trkpt>
      <trkpt lat="45.889292" lon="6.791181">
        <ele>1032.624</ele>
        <time>2018-07-13T08:40:45Z</time>
      </trkpt>
      <trkpt lat="45.889271" lon="6.791116">
        <ele>1031.243</ele>
        <time>2018-07-13T08:40:48Z</time>
      </trkpt>
      <trkpt lat="45.889275" lon="6.791041">
        <ele>1031.518</ele>
        <time>2018-07-13T08:40:52Z</time>
      </trkpt>
      <trkpt lat="45.889284" lon="6.790935">
        <ele>1032.197</ele>
        <time>2018-07-13T08:40:55Z</time>
      </trkpt>
      <trkpt lat="45.889284" lon="6.790869">
        <ele>1031.098</ele>
        <time>2018-07-13T08:41:00Z</time>
      </trkpt>
      <trkpt lat="45.889308" lon="6.790799">
        <ele>1030.515</ele>
        <time>2018-07-13T08:41:06Z</time>
      </trkpt>
      <trkpt lat="45.889320" lon="6.790735">
        <ele>1030.226</ele>
        <time>2018-07-13T08:41:10Z</time>
      </trkpt>
      <trkpt lat="45.889326" lon="6.790654">
        <ele>1029.608</ele>
        <time>2018-07-13T08:41:14Z</time>
      </trkpt>
      <trkpt lat="45.889330" lon="6.790576">
        <ele>1029.491</ele>
        <time>2018-07-13T08:41:18Z</time>
      </trkpt>
      <trkpt lat="45.889341" lon="6.790498">
        <ele>1029.264</ele>
        <time>2018-07-13T08:41:22Z</time>
      </trkpt>
      <trkpt lat="45.889364" lon="6.790433">
        <ele>1029.263</ele>
        <time>2018-07-13T08:41:26Z</time>
      </trkpt>
      <trkpt lat="45.889392" lon="6.790376">
        <ele>1028.742</ele>
        <time>2018-07-13T08:41:30Z</time>
      </trkpt>
      <trkpt lat="45.889408" lon="6.790312">
        <ele>1028.412</ele>
        <time>2018-07-13T08:41:34Z</time>
      </trkpt>
      <trkpt lat="45.889425" lon="6.790237">
        <ele>1028.541</ele>
        <time>2018-07-13T08:41:38Z</time>
      </trkpt>
      <trkpt lat="45.889450" lon="6.790169">
        <ele>1028.156</ele>
        <time>2018-07-13T08:41:42Z</time>
      </trkpt>
      <trkpt lat="45.889479" lon="6.790103">
        <ele>1028.265</ele>
        <time>2018-07-13T08:41:46Z</time>
      </trkpt>
      <trkpt lat="45.889497" lon="6.790034">
        <ele>1027.872</ele>
        <time>2018-07-13T08:41:50Z</time>
      </trkpt>
      <trkpt lat="45.889514" lon="6.789966">
        <ele>1027.413</ele>
        <time>2018-07-13T08:41:54Z</time>
      </trkpt>
      <trkpt lat="45.889533" lon="6.789902">
        <ele>1027.114</ele>
        <time>2018-07-13T08:41:58Z</time>
      </trkpt>
      <trkpt lat="45.889553" lon="6.789834">
        <ele>1026.708</ele>
        <time>2018-07-13T08:42:02Z</time>
      </trkpt>
      <trkpt lat="45.889565" lon="6.789759">
        <ele>1026.349</ele>
        <time>2018-07-13T08:42:06Z</time>
      </trkpt>
      <trkpt lat="45.889583" lon="6.789686">
        <ele>1026.032</ele>
        <time>2018-07-13T08:42:10Z</time>
      </trkpt>
      <trkpt lat="45.889607" lon="6.789613">
        <ele>1025.811</ele>
        <time>2018-07-13T08:42:14Z</time>
      </trkpt>
      <trkpt lat="45.889623" lon="6.789535">
        <ele>1025.740</ele>
        <time>2018-07-13T08:42:18Z</time>
      </trkpt>
      <trkpt lat="45.889635" lon="6.789464">
        <ele>1025.510</ele>
        <time>2018-07-13T08:42:22Z</time>
      </trkpt>
      <trkpt lat="45.889650" lon="6.789397">
        <ele>1025.239</ele>
        <time>2018-07-13T08:42:26Z</time>
      </trkpt>
      <trkpt lat="45.889660" lon="6.789326">
        <ele>1027.434</ele>
        <time>2018-07-13T08:42:30Z</time>
      </trkpt>
      <trkpt lat="45.889676" lon="6.789258">
        <ele>1024.593</ele>
        <time>2018-07-13T08:42:34Z</time>
      </trkpt>
      <trkpt lat="45.889697" lon="6.789200">
        <ele>1024.885</ele>
        <time>2018-07-13T08:42:38Z</time>
      </trkpt>
      <trkpt lat="45.889712" lon="6.789139">
        <ele>1024.489</ele>
        <time>2018-07-13T08:42:42Z</time>
      </trkpt>
      <trkpt lat="45.889728" lon="6.789078">
        <ele>1024.917</ele>
        <time>2018-07-13T08:42:46Z</time>
      </trkpt>
      <trkpt lat="45.889736" lon="6.789011">
        <ele>1024.408</ele>
        <time>2018-07-13T08:42:51Z</time>
      </trkpt>
      <trkpt lat="45.889763" lon="6.788948">
        <ele>1024.330</ele>
        <time>2018-07-13T08:42:57Z</time>
      </trkpt>
      <trkpt lat="45.889806" lon="6.788892">
        <ele>1027.133</ele>
        <time>2018-07-13T08:43:03Z</time>
      </trkpt>
      <trkpt lat="45.889835" lon="6.788814">
        <ele>1025.792</ele>
        <time>2018-07-13T08:43:06Z</time>
      </trkpt>
      <trkpt lat="45.889867" lon="6.788756">
        <ele>1026.021</ele>
        <time>2018-07-13T08:43:08Z</time>
      </trkpt>
      <trkpt lat="45.889900" lon="6.788687">
        <ele>1025.781</ele>
        <time>2018-07-13T08:43:11Z</time>
      </trkpt>
      <trkpt lat="45.889933" lon="6.788623">
        <ele>1027.780</ele>
        <time>2018-07-13T08:43:15Z</time>
      </trkpt>
      <trkpt lat="45.889964" lon="6.788571">
        <ele>1026.465</ele>
        <time>2018-07-13T08:43:20Z</time>
      </trkpt>
      <trkpt lat="45.889965" lon="6.788496">
        <ele>1026.364</ele>
        <time>2018-07-13T08:43:26Z</time>
      </trkpt>
      <trkpt lat="45.889966" lon="6.788414">
        <ele>1026.899</ele>
        <time>2018-07-13T08:43:30Z</time>
      </trkpt>
      <trkpt lat="45.889981" lon="6.788342">
        <ele>1026.707</ele>
        <time>2018-07-13T08:43:34Z</time>
      </trkpt>
      <trkpt lat="45.889988" lon="6.788276">
        <ele>1029.127</ele>
        <time>2018-07-13T08:43:41Z</time>
      </trkpt>
      <trkpt lat="45.890010" lon="6.788208">
        <ele>1028.408</ele>
        <time>2018-07-13T08:43:47Z</time>
      </trkpt>
      <trkpt lat="45.890028" lon="6.788148">
        <ele>1027.871</ele>
        <time>2018-07-13T08:43:51Z</time>
      </trkpt>
      <trkpt lat="45.890048" lon="6.788083">
        <ele>1028.054</ele>
        <time>2018-07-13T08:43:55Z</time>
      </trkpt>
      <trkpt lat="45.890068" lon="6.788021">
        <ele>1027.853</ele>
        <time>2018-07-13T08:43:59Z</time>
      </trkpt>
      <trkpt lat="45.890090" lon="6.787952">
        <ele>1027.922</ele>
        <time>2018-07-13T08:44:03Z</time>
      </trkpt>
      <trkpt lat="45.890109" lon="6.787881">
        <ele>1028.962</ele>
        <time>2018-07-13T08:44:07Z</time>
      </trkpt>
      <trkpt lat="45.890128" lon="6.787813">
        <ele>1028.721</ele>
        <time>2018-07-13T08:44:11Z</time>
      </trkpt>
      <trkpt lat="45.890147" lon="6.787747">
        <ele>1028.546</ele>
        <time>2018-07-13T08:44:15Z</time>
      </trkpt>
      <trkpt lat="45.890171" lon="6.787687">
        <ele>1028.445</ele>
        <time>2018-07-13T08:44:19Z</time>
      </trkpt>
      <trkpt lat="45.890194" lon="6.787616">
        <ele>1028.595</ele>
        <time>2018-07-13T08:44:24Z</time>
      </trkpt>
      <trkpt lat="45.890216" lon="6.787556">
        <ele>1028.649</ele>
        <time>2018-07-13T08:44:28Z</time>
      </trkpt>
      <trkpt lat="45.890238" lon="6.787490">
        <ele>1029.023</ele>
        <time>2018-07-13T08:44:32Z</time>
      </trkpt>
      <trkpt lat="45.890258" lon="6.787413">
        <ele>1028.708</ele>
        <time>2018-07-13T08:44:36Z</time>
      </trkpt>
      <trkpt lat="45.890277" lon="6.787346">
        <ele>1029.311</ele>
        <time>2018-07-13T08:44:40Z</time>
      </trkpt>
      <trkpt lat="45.890303" lon="6.787284">
        <ele>1029.544</ele>
        <time>2018-07-13T08:44:44Z</time>
      </trkpt>
      <trkpt lat="45.890337" lon="6.787222">
        <ele>1029.323</ele>
        <time>2018-07-13T08:44:49Z</time>
      </trkpt>
      <trkpt lat="45.890366" lon="6.787166">
        <ele>1029.362</ele>
        <time>2018-07-13T08:44:53Z</time>
      </trkpt>
      <trkpt lat="45.890390" lon="6.787102">
        <ele>1029.332</ele>
        <time>2018-07-13T08:44:57Z</time>
      </trkpt>
      <trkpt lat="45.890417" lon="6.787035">
        <ele>1030.291</ele>
        <time>2018-07-13T08:45:01Z</time>
      </trkpt>
      <trkpt lat="45.890450" lon="6.786975">
        <ele>1029.776</ele>
        <time>2018-07-13T08:45:05Z</time>
      </trkpt>
      <trkpt lat="45.890483" lon="6.786919">
        <ele>1029.655</ele>
        <time>2018-07-13T08:45:09Z</time>
      </trkpt>
      <trkpt lat="45.890513" lon="6.786860">
        <ele>1030.338</ele>
        <time>2018-07-13T08:45:13Z</time>
      </trkpt>
      <trkpt lat="45.890549" lon="6.786789">
        <ele>1030.070</ele>
        <time>2018-07-13T08:45:16Z</time>
      </trkpt>
      <trkpt lat="45.890570" lon="6.786724">
        <ele>1030.717</ele>
        <time>2018-07-13T08:45:20Z</time>
      </trkpt>
      <trkpt lat="45.890583" lon="6.786660">
        <ele>1031.608</ele>
        <time>2018-07-13T08:45:24Z</time>
      </trkpt>
      <trkpt lat="45.890631" lon="6.786625">
        <ele>1030.845</ele>
        <time>2018-07-13T08:45:28Z</time>
      </trkpt>
      <trkpt lat="45.890717" lon="6.786475">
        <ele>1031.358</ele>
        <time>2018-07-13T08:45:40Z</time>
      </trkpt>
      <trkpt lat="45.890732" lon="6.786410">
        <ele>1032.157</ele>
        <time>2018-07-13T08:45:42Z</time>
      </trkpt>
      <trkpt lat="45.890760" lon="6.786348">
        <ele>1031.416</ele>
        <time>2018-07-13T08:45:47Z</time>
      </trkpt>
      <trkpt lat="45.890800" lon="6.786291">
        <ele>1031.836</ele>
        <time>2018-07-13T08:45:51Z</time>
      </trkpt>
      <trkpt lat="45.890835" lon="6.786239">
        <ele>1031.925</ele>
        <time>2018-07-13T08:45:55Z</time>
      </trkpt>
      <trkpt lat="45.890871" lon="6.786185">
        <ele>1032.340</ele>
        <time>2018-07-13T08:45:59Z</time>
      </trkpt>
      <trkpt lat="45.890912" lon="6.786140">
        <ele>1032.629</ele>
        <time>2018-07-13T08:46:03Z</time>
      </trkpt>
      <trkpt lat="45.890949" lon="6.786087">
        <ele>1032.318</ele>
        <time>2018-07-13T08:46:07Z</time>
      </trkpt>
      <trkpt lat="45.890982" lon="6.786037">
        <ele>1032.198</ele>
        <time>2018-07-13T08:46:11Z</time>
      </trkpt>
      <trkpt lat="45.891025" lon="6.785999">
        <ele>1032.717</ele>
        <time>2018-07-13T08:46:15Z</time>
      </trkpt>
      <trkpt lat="45.891072" lon="6.785974">
        <ele>1033.308</ele>
        <time>2018-07-13T08:46:19Z</time>
      </trkpt>
      <trkpt lat="45.891116" lon="6.785959">
        <ele>1033.213</ele>
        <time>2018-07-13T08:46:22Z</time>
      </trkpt>
      <trkpt lat="45.891156" lon="6.785913">
        <ele>1032.916</ele>
        <time>2018-07-13T08:46:28Z</time>
      </trkpt>
      <trkpt lat="45.891202" lon="6.785901">
        <ele>1033.055</ele>
        <time>2018-07-13T08:46:32Z</time>
      </trkpt>
      <trkpt lat="45.891252" lon="6.785897">
        <ele>1033.264</ele>
        <time>2018-07-13T08:46:36Z</time>
      </trkpt>
      <trkpt lat="45.891303" lon="6.785915">
        <ele>1033.554</ele>
        <time>2018-07-13T08:46:40Z</time>
      </trkpt>
      <trkpt lat="45.891350" lon="6.785933">
        <ele>1033.023</ele>
        <time>2018-07-13T08:46:44Z</time>
      </trkpt>
      <trkpt lat="45.891397" lon="6.785938">
        <ele>1033.768</ele>
        <time>2018-07-13T08:46:48Z</time>
      </trkpt>
      <trkpt lat="45.891454" lon="6.785941">
        <ele>1033.857</ele>
        <time>2018-07-13T08:46:52Z</time>
      </trkpt>
      <trkpt lat="45.891505" lon="6.785952">
        <ele>1034.388</ele>
        <time>2018-07-13T08:46:56Z</time>
      </trkpt>
      <trkpt lat="45.891559" lon="6.785965">
        <ele>1034.224</ele>
        <time>2018-07-13T08:47:00Z</time>
      </trkpt>
      <trkpt lat="45.891605" lon="6.785976">
        <ele>1034.326</ele>
        <time>2018-07-13T08:47:03Z</time>
      </trkpt>
      <trkpt lat="45.891660" lon="6.785976">
        <ele>1034.708</ele>
        <time>2018-07-13T08:47:07Z</time>
      </trkpt>
      <trkpt lat="45.891709" lon="6.785974">
        <ele>1034.620</ele>
        <time>2018-07-13T08:47:11Z</time>
      </trkpt>
      <trkpt lat="45.891757" lon="6.785967">
        <ele>1037.773</ele>
        <time>2018-07-13T08:47:15Z</time>
      </trkpt>
      <trkpt lat="45.891800" lon="6.785944">
        <ele>1038.022</ele>
        <time>2018-07-13T08:47:20Z</time>
      </trkpt>
      <trkpt lat="45.891852" lon="6.785924">
        <ele>1038.581</ele>
        <time>2018-07-13T08:47:26Z</time>
      </trkpt>
      <trkpt lat="45.891898" lon="6.785916">
        <ele>1038.661</ele>
        <time>2018-07-13T08:47:30Z</time>
      </trkpt>
      <trkpt lat="45.891955" lon="6.785924">
        <ele>1036.560</ele>
        <time>2018-07-13T08:47:34Z</time>
      </trkpt>
      <trkpt lat="45.892007" lon="6.785907">
        <ele>1036.835</ele>
        <time>2018-07-13T08:47:38Z</time>
      </trkpt>
      <trkpt lat="45.892056" lon="6.785880">
        <ele>1037.664</ele>
        <time>2018-07-13T08:47:42Z</time>
      </trkpt>
      <trkpt lat="45.892095" lon="6.785847">
        <ele>1037.166</ele>
        <time>2018-07-13T08:47:46Z</time>
      </trkpt>
      <trkpt lat="45.892137" lon="6.785820">
        <ele>1037.529</ele>
        <time>2018-07-13T08:47:50Z</time>
      </trkpt>
      <trkpt lat="45.892186" lon="6.785786">
        <ele>1037.521</ele>
        <time>2018-07-13T08:47:55Z</time>
      </trkpt>
      <trkpt lat="45.892230" lon="6.785753">
        <ele>1037.508</ele>
        <time>2018-07-13T08:47:59Z</time>
      </trkpt>
      <trkpt lat="45.892278" lon="6.785715">
        <ele>1037.858</ele>
        <time>2018-07-13T08:48:04Z</time>
      </trkpt>
      <trkpt lat="45.892317" lon="6.785655">
        <ele>1037.531</ele>
        <time>2018-07-13T08:48:09Z</time>
      </trkpt>
      <trkpt lat="45.892357" lon="6.785615">
        <ele>1038.070</ele>
        <time>2018-07-13T08:48:12Z</time>
      </trkpt>
      <trkpt lat="45.892408" lon="6.785588">
        <ele>1037.749</ele>
        <time>2018-07-13T08:48:15Z</time>
      </trkpt>
      <trkpt lat="45.892458" lon="6.785559">
        <ele>1037.939</ele>
        <time>2018-07-13T08:48:18Z</time>
      </trkpt>
      <trkpt lat="45.892502" lon="6.785507">
        <ele>1038.838</ele>
        <time>2018-07-13T08:48:22Z</time>
      </trkpt>
      <trkpt lat="45.892539" lon="6.785458">
        <ele>1039.163</ele>
        <time>2018-07-13T08:48:26Z</time>
      </trkpt>
      <trkpt lat="45.892572" lon="6.785404">
        <ele>1039.782</ele>
        <time>2018-07-13T08:48:30Z</time>
      </trkpt>
      <trkpt lat="45.892598" lon="6.785345">
        <ele>1039.192</ele>
        <time>2018-07-13T08:48:34Z</time>
      </trkpt>
      <trkpt lat="45.892627" lon="6.785288">
        <ele>1040.173</ele>
        <time>2018-07-13T08:48:38Z</time>
      </trkpt>
      <trkpt lat="45.892674" lon="6.785244">
        <ele>1038.120</ele>
        <time>2018-07-13T08:48:42Z</time>
      </trkpt>
      <trkpt lat="45.892714" lon="6.785195">
        <ele>1038.408</ele>
        <time>2018-07-13T08:48:46Z</time>
      </trkpt>
      <trkpt lat="45.892741" lon="6.785137">
        <ele>1038.751</ele>
        <time>2018-07-13T08:48:51Z</time>
      </trkpt>
      <trkpt lat="45.892774" lon="6.785086">
        <ele>1039.774</ele>
        <time>2018-07-13T08:48:57Z</time>
      </trkpt>
      <trkpt lat="45.892813" lon="6.785042">
        <ele>1040.943</ele>
        <time>2018-07-13T08:49:02Z</time>
      </trkpt>
      <trkpt lat="45.892847" lon="6.784991">
        <ele>1041.662</ele>
        <time>2018-07-13T08:49:07Z</time>
      </trkpt>
      <trkpt lat="45.892887" lon="6.784961">
        <ele>1042.042</ele>
        <time>2018-07-13T08:49:11Z</time>
      </trkpt>
      <trkpt lat="45.892924" lon="6.784923">
        <ele>1042.771</ele>
        <time>2018-07-13T08:49:15Z</time>
      </trkpt>
      <trkpt lat="45.892956" lon="6.784873">
        <ele>1043.746</ele>
        <time>2018-07-13T08:49:22Z</time>
      </trkpt>
      <trkpt lat="45.892988" lon="6.784819">
        <ele>1044.525</ele>
        <time>2018-07-13T08:49:28Z</time>
      </trkpt>
      <trkpt lat="45.893031" lon="6.784775">
        <ele>1047.014</ele>
        <time>2018-07-13T08:49:32Z</time>
      </trkpt>
      <trkpt lat="45.893079" lon="6.784748">
        <ele>1047.154</ele>
        <time>2018-07-13T08:49:36Z</time>
      </trkpt>
      <trkpt lat="45.893026" lon="6.784755">
        <ele>1045.009</ele>
        <time>2018-07-13T08:49:52Z</time>
      </trkpt>
      <trkpt lat="45.892986" lon="6.784787">
        <ele>1044.908</ele>
        <time>2018-07-13T08:49:55Z</time>
      </trkpt>
      <trkpt lat="45.892938" lon="6.784831">
        <ele>1044.973</ele>
        <time>2018-07-13T08:49:59Z</time>
      </trkpt>
      <trkpt lat="45.892908" lon="6.784881">
        <ele>1044.246</ele>
        <time>2018-07-13T08:50:03Z</time>
      </trkpt>
      <trkpt lat="45.892871" lon="6.784929">
        <ele>1043.635</ele>
        <time>2018-07-13T08:50:07Z</time>
      </trkpt>
      <trkpt lat="45.892831" lon="6.784976">
        <ele>1043.544</ele>
        <time>2018-07-13T08:50:12Z</time>
      </trkpt>
      <trkpt lat="45.892792" lon="6.785019">
        <ele>1043.074</ele>
        <time>2018-07-13T08:50:16Z</time>
      </trkpt>
      <trkpt lat="45.892747" lon="6.785063">
        <ele>1041.613</ele>
        <time>2018-07-13T08:50:21Z</time>
      </trkpt>
      <trkpt lat="45.892704" lon="6.785092">
        <ele>1040.658</ele>
        <time>2018-07-13T08:50:26Z</time>
      </trkpt>
      <trkpt lat="45.892657" lon="6.785102">
        <ele>1039.877</ele>
        <time>2018-07-13T08:50:31Z</time>
      </trkpt>
      <trkpt lat="45.892617" lon="6.785071">
        <ele>1042.175</ele>
        <time>2018-07-13T08:50:51Z</time>
      </trkpt>
      <trkpt lat="45.892585" lon="6.785023">
        <ele>1042.728</ele>
        <time>2018-07-13T08:51:07Z</time>
      </trkpt>
      <trkpt lat="45.892558" lon="6.784968">
        <ele>1047.920</ele>
        <time>2018-07-13T08:51:22Z</time>
      </trkpt>
      <trkpt lat="45.892532" lon="6.784916">
        <ele>1047.808</ele>
        <time>2018-07-13T08:51:33Z</time>
      </trkpt>
      <trkpt lat="45.892501" lon="6.784868">
        <ele>1050.289</ele>
        <time>2018-07-13T08:51:52Z</time>
      </trkpt>
      <trkpt lat="45.892454" lon="6.784841">
        <ele>1054.362</ele>
        <time>2018-07-13T08:52:08Z</time>
      </trkpt>
      <trkpt lat="45.892409" lon="6.784799">
        <ele>1054.431</ele>
        <time>2018-07-13T08:52:54Z</time>
      </trkpt>
      <trkpt lat="45.892358" lon="6.784797">
        <ele>1055.140</ele>
        <time>2018-07-13T08:53:09Z</time>
      </trkpt>
      <trkpt lat="45.892323" lon="6.784750">
        <ele>1055.490</ele>
        <time>2018-07-13T08:53:26Z</time>
      </trkpt>
      <trkpt lat="45.892292" lon="6.784702">
        <ele>1057.849</ele>
        <time>2018-07-13T08:53:38Z</time>
      </trkpt>
      <trkpt lat="45.892254" lon="6.784652">
        <ele>1061.994</ele>
        <time>2018-07-13T08:53:51Z</time>
      </trkpt>
      <trkpt lat="45.892245" lon="6.784588">
        <ele>1060.933</ele>
        <time>2018-07-13T08:54:02Z</time>
      </trkpt>
      <trkpt lat="45.892231" lon="6.784522">
        <ele>1066.495</ele>
        <time>2018-07-13T08:54:22Z</time>
      </trkpt>
      <trkpt lat="45.892186" lon="6.784513">
        <ele>1065.549</ele>
        <time>2018-07-13T08:54:36Z</time>
      </trkpt>
      <trkpt lat="45.892137" lon="6.784524">
        <ele>1066.123</ele>
        <time>2018-07-13T08:54:46Z</time>
      </trkpt>
      <trkpt lat="45.892109" lon="6.784470">
        <ele>1067.308</ele>
        <time>2018-07-13T08:55:00Z</time>
      </trkpt>
      <trkpt lat="45.892116" lon="6.784401">
        <ele>1068.451</ele>
        <time>2018-07-13T08:55:09Z</time>
      </trkpt>
      <trkpt lat="45.892122" lon="6.784333">
        <ele>1070.024</ele>
        <time>2018-07-13T08:55:21Z</time>
      </trkpt>
      <trkpt lat="45.892138" lon="6.784261">
        <ele>1071.273</ele>
        <time>2018-07-13T08:55:32Z</time>
      </trkpt>
      <trkpt lat="45.892148" lon="6.784195">
        <ele>1072.312</ele>
        <time>2018-07-13T08:55:42Z</time>
      </trkpt>
      <trkpt lat="45.892162" lon="6.784130">
        <ele>1073.052</ele>
        <time>2018-07-13T08:55:57Z</time>
      </trkpt>
      <trkpt lat="45.892181" lon="6.784070">
        <ele>1074.381</ele>
        <time>2018-07-13T08:56:08Z</time>
      </trkpt>
      <trkpt lat="45.892172" lon="6.784001">
        <ele>1076.466</ele>
        <time>2018-07-13T08:56:23Z</time>
      </trkpt>
      <trkpt lat="45.892181" lon="6.783934">
        <ele>1077.755</ele>
        <time>2018-07-13T08:56:37Z</time>
      </trkpt>
      <trkpt lat="45.892164" lon="6.783869">
        <ele>1079.013</ele>
        <time>2018-07-13T08:56:49Z</time>
      </trkpt>
      <trkpt lat="45.892180" lon="6.783804">
        <ele>1080.043</ele>
        <time>2018-07-13T08:56:59Z</time>
      </trkpt>
      <trkpt lat="45.892187" lon="6.783740">
        <ele>1080.907</ele>
        <time>2018-07-13T08:57:08Z</time>
      </trkpt>
      <trkpt lat="45.892180" lon="6.783671">
        <ele>1082.008</ele>
        <time>2018-07-13T08:57:19Z</time>
      </trkpt>
      <trkpt lat="45.892133" lon="6.783668">
        <ele>1086.293</ele>
        <time>2018-07-13T08:57:42Z</time>
      </trkpt>
      <trkpt lat="45.892088" lon="6.783683">
        <ele>1085.266</ele>
        <time>2018-07-13T08:57:52Z</time>
      </trkpt>
      <trkpt lat="45.892042" lon="6.783697">
        <ele>1086.125</ele>
        <time>2018-07-13T08:58:06Z</time>
      </trkpt>
      <trkpt lat="45.891986" lon="6.783679">
        <ele>1086.934</ele>
        <time>2018-07-13T08:58:16Z</time>
      </trkpt>
      <trkpt lat="45.891991" lon="6.783613">
        <ele>1088.344</ele>
        <time>2018-07-13T08:58:28Z</time>
      </trkpt>
      <trkpt lat="45.892013" lon="6.783557">
        <ele>1088.613</ele>
        <time>2018-07-13T08:58:34Z</time>
      </trkpt>
      <trkpt lat="45.892032" lon="6.783495">
        <ele>1088.538</ele>
        <time>2018-07-13T08:58:40Z</time>
      </trkpt>
      <trkpt lat="45.892047" lon="6.783422">
        <ele>1089.477</ele>
        <time>2018-07-13T08:58:46Z</time>
      </trkpt>
      <trkpt lat="45.892054" lon="6.783355">
        <ele>1089.469</ele>
        <time>2018-07-13T08:58:51Z</time>
      </trkpt>
      <trkpt lat="45.892059" lon="6.783286">
        <ele>1092.204</ele>
        <time>2018-07-13T08:58:56Z</time>
      </trkpt>
      <trkpt lat="45.892067" lon="6.783222">
        <ele>1092.824</ele>
        <time>2018-07-13T08:59:01Z</time>
      </trkpt>
      <trkpt lat="45.892069" lon="6.783149">
        <ele>1090.808</ele>
        <time>2018-07-13T08:59:07Z</time>
      </trkpt>
      <trkpt lat="45.892069" lon="6.783077">
        <ele>1091.368</ele>
        <time>2018-07-13T08:59:13Z</time>
      </trkpt>
      <trkpt lat="45.892069" lon="6.783003">
        <ele>1093.421</ele>
        <time>2018-07-13T08:59:39Z</time>
      </trkpt>
      <trkpt lat="45.892082" lon="6.782941">
        <ele>1094.210</ele>
        <time>2018-07-13T08:59:44Z</time>
      </trkpt>
      <trkpt lat="45.892073" lon="6.782877">
        <ele>1095.059</ele>
        <time>2018-07-13T08:59:49Z</time>
      </trkpt>
      <trkpt lat="45.892072" lon="6.782802">
        <ele>1095.529</ele>
        <time>2018-07-13T08:59:54Z</time>
      </trkpt>
      <trkpt lat="45.892071" lon="6.782732">
        <ele>1094.068</ele>
        <time>2018-07-13T09:00:04Z</time>
      </trkpt>
      <trkpt lat="45.892071" lon="6.782660">
        <ele>1094.633</ele>
        <time>2018-07-13T09:00:11Z</time>
      </trkpt>
      <trkpt lat="45.892072" lon="6.782587">
        <ele>1097.992</ele>
        <time>2018-07-13T09:00:18Z</time>
      </trkpt>
      <trkpt lat="45.892066" lon="6.782512">
        <ele>1096.059</ele>
        <time>2018-07-13T09:00:25Z</time>
      </trkpt>
      <trkpt lat="45.892062" lon="6.782439">
        <ele>1097.003</ele>
        <time>2018-07-13T09:00:31Z</time>
      </trkpt>
      <trkpt lat="45.892055" lon="6.782369">
        <ele>1097.423</ele>
        <time>2018-07-13T09:00:37Z</time>
      </trkpt>
      <trkpt lat="45.892051" lon="6.782298">
        <ele>1098.108</ele>
        <time>2018-07-13T09:00:43Z</time>
      </trkpt>
      <trkpt lat="45.892065" lon="6.782233">
        <ele>1098.677</ele>
        <time>2018-07-13T09:00:49Z</time>
      </trkpt>
      <trkpt lat="45.892078" lon="6.782171">
        <ele>1100.920</ele>
        <time>2018-07-13T09:00:54Z</time>
      </trkpt>
      <trkpt lat="45.892098" lon="6.782108">
        <ele>1099.349</ele>
        <time>2018-07-13T09:00:59Z</time>
      </trkpt>
      <trkpt lat="45.892130" lon="6.782062">
        <ele>1101.498</ele>
        <time>2018-07-13T09:01:04Z</time>
      </trkpt>
      <trkpt lat="45.892162" lon="6.781999">
        <ele>1100.058</ele>
        <time>2018-07-13T09:01:10Z</time>
      </trkpt>
      <trkpt lat="45.892182" lon="6.781928">
        <ele>1099.757</ele>
        <time>2018-07-13T09:01:15Z</time>
      </trkpt>
      <trkpt lat="45.892205" lon="6.781857">
        <ele>1099.672</ele>
        <time>2018-07-13T09:01:20Z</time>
      </trkpt>
      <trkpt lat="45.892218" lon="6.781788">
        <ele>1100.261</ele>
        <time>2018-07-13T09:01:24Z</time>
      </trkpt>
      <trkpt lat="45.892237" lon="6.781727">
        <ele>1099.657</ele>
        <time>2018-07-13T09:01:28Z</time>
      </trkpt>
      <trkpt lat="45.892255" lon="6.781667">
        <ele>1100.000</ele>
        <time>2018-07-13T09:01:32Z</time>
      </trkpt>
      <trkpt lat="45.892278" lon="6.781597">
        <ele>1100.520</ele>
        <time>2018-07-13T09:01:37Z</time>
      </trkpt>
      <trkpt lat="45.892295" lon="6.781524">
        <ele>1101.308</ele>
        <time>2018-07-13T09:01:42Z</time>
      </trkpt>
      <trkpt lat="45.892309" lon="6.781462">
        <ele>1101.167</ele>
        <time>2018-07-13T09:01:46Z</time>
      </trkpt>
      <trkpt lat="45.892322" lon="6.781397">
        <ele>1101.650</ele>
        <time>2018-07-13T09:01:50Z</time>
      </trkpt>
      <trkpt lat="45.892333" lon="6.781323">
        <ele>1101.989</ele>
        <time>2018-07-13T09:01:55Z</time>
      </trkpt>
      <trkpt lat="45.892343" lon="6.781251">
        <ele>1102.428</ele>
        <time>2018-07-13T09:02:00Z</time>
      </trkpt>
      <trkpt lat="45.892348" lon="6.781184">
        <ele>1103.628</ele>
        <time>2018-07-13T09:02:05Z</time>
      </trkpt>
      <trkpt lat="45.892359" lon="6.781118">
        <ele>1103.327</ele>
        <time>2018-07-13T09:02:10Z</time>
      </trkpt>
      <trkpt lat="45.892368" lon="6.781043">
        <ele>1103.762</ele>
        <time>2018-07-13T09:02:15Z</time>
      </trkpt>
      <trkpt lat="45.892369" lon="6.780968">
        <ele>1104.261</ele>
        <time>2018-07-13T09:02:20Z</time>
      </trkpt>
      <trkpt lat="45.892381" lon="6.780896">
        <ele>1104.365</ele>
        <time>2018-07-13T09:02:25Z</time>
      </trkpt>
      <trkpt lat="45.892398" lon="6.780830">
        <ele>1107.068</ele>
        <time>2018-07-13T09:02:30Z</time>
      </trkpt>
      <trkpt lat="45.892412" lon="6.780765">
        <ele>1105.314</ele>
        <time>2018-07-13T09:02:35Z</time>
      </trkpt>
      <trkpt lat="45.892423" lon="6.780700">
        <ele>1105.708</ele>
        <time>2018-07-13T09:02:40Z</time>
      </trkpt>
      <trkpt lat="45.892446" lon="6.780632">
        <ele>1106.228</ele>
        <time>2018-07-13T09:02:45Z</time>
      </trkpt>
      <trkpt lat="45.892466" lon="6.780564">
        <ele>1108.721</ele>
        <time>2018-07-13T09:02:50Z</time>
      </trkpt>
      <trkpt lat="45.892494" lon="6.780501">
        <ele>1107.010</ele>
        <time>2018-07-13T09:02:56Z</time>
      </trkpt>
      <trkpt lat="45.892507" lon="6.780425">
        <ele>1107.859</ele>
        <time>2018-07-13T09:03:02Z</time>
      </trkpt>
      <trkpt lat="45.892515" lon="6.780355">
        <ele>1108.649</ele>
        <time>2018-07-13T09:03:07Z</time>
      </trkpt>
      <trkpt lat="45.892508" lon="6.780278">
        <ele>1108.458</ele>
        <time>2018-07-13T09:03:12Z</time>
      </trkpt>
      <trkpt lat="45.892498" lon="6.780203">
        <ele>1108.843</ele>
        <time>2018-07-13T09:03:17Z</time>
      </trkpt>
      <trkpt lat="45.892492" lon="6.780131">
        <ele>1108.992</ele>
        <time>2018-07-13T09:03:22Z</time>
      </trkpt>
      <trkpt lat="45.892490" lon="6.780064">
        <ele>1109.353</ele>
        <time>2018-07-13T09:03:27Z</time>
      </trkpt>
      <trkpt lat="45.892494" lon="6.779994">
        <ele>1109.404</ele>
        <time>2018-07-13T09:03:32Z</time>
      </trkpt>
      <trkpt lat="45.892495" lon="6.779917">
        <ele>1109.714</ele>
        <time>2018-07-13T09:03:38Z</time>
      </trkpt>
      <trkpt lat="45.892495" lon="6.779852">
        <ele>1110.008</ele>
        <time>2018-07-13T09:03:42Z</time>
      </trkpt>
      <trkpt lat="45.892495" lon="6.779781">
        <ele>1109.957</ele>
        <time>2018-07-13T09:03:46Z</time>
      </trkpt>
      <trkpt lat="45.892495" lon="6.779710">
        <ele>1110.020</ele>
        <time>2018-07-13T09:03:50Z</time>
      </trkpt>
      <trkpt lat="45.892495" lon="6.779636">
        <ele>1110.259</ele>
        <time>2018-07-13T09:03:54Z</time>
      </trkpt>
      <trkpt lat="45.892489" lon="6.779559">
        <ele>1110.348</ele>
        <time>2018-07-13T09:03:58Z</time>
      </trkpt>
      <trkpt lat="45.892485" lon="6.779486">
        <ele>1110.018</ele>
        <time>2018-07-13T09:04:02Z</time>
      </trkpt>
      <trkpt lat="45.892481" lon="6.779422">
        <ele>1111.257</ele>
        <time>2018-07-13T09:04:06Z</time>
      </trkpt>
      <trkpt lat="45.892469" lon="6.779351">
        <ele>1109.832</ele>
        <time>2018-07-13T09:04:10Z</time>
      </trkpt>
      <trkpt lat="45.892455" lon="6.779280">
        <ele>1109.861</ele>
        <time>2018-07-13T09:04:14Z</time>
      </trkpt>
      <trkpt lat="45.892440" lon="6.779215">
        <ele>1109.246</ele>
        <time>2018-07-13T09:04:18Z</time>
      </trkpt>
      <trkpt lat="45.892422" lon="6.779141">
        <ele>1109.388</ele>
        <time>2018-07-13T09:04:23Z</time>
      </trkpt>
      <trkpt lat="45.892402" lon="6.779080">
        <ele>1109.816</ele>
        <time>2018-07-13T09:04:30Z</time>
      </trkpt>
      <trkpt lat="45.892369" lon="6.779022">
        <ele>1111.708</ele>
        <time>2018-07-13T09:04:42Z</time>
      </trkpt>
      <trkpt lat="45.892346" lon="6.778953">
        <ele>1112.056</ele>
        <time>2018-07-13T09:04:49Z</time>
      </trkpt>
      <trkpt lat="45.892326" lon="6.778888">
        <ele>1112.969</ele>
        <time>2018-07-13T09:04:56Z</time>
      </trkpt>
      <trkpt lat="45.892296" lon="6.778826">
        <ele>1114.698</ele>
        <time>2018-07-13T09:05:04Z</time>
      </trkpt>
      <trkpt lat="45.892267" lon="6.778767">
        <ele>1115.087</ele>
        <time>2018-07-13T09:05:12Z</time>
      </trkpt>
      <trkpt lat="45.892234" lon="6.778722">
        <ele>1118.437</ele>
        <time>2018-07-13T09:05:20Z</time>
      </trkpt>
      <trkpt lat="45.892193" lon="6.778692">
        <ele>1118.166</ele>
        <time>2018-07-13T09:05:28Z</time>
      </trkpt>
      <trkpt lat="45.892154" lon="6.778653">
        <ele>1121.311</ele>
        <time>2018-07-13T09:05:45Z</time>
      </trkpt>
      <trkpt lat="45.892129" lon="6.778593">
        <ele>1123.530</ele>
        <time>2018-07-13T09:05:56Z</time>
      </trkpt>
      <trkpt lat="45.892129" lon="6.778518">
        <ele>1123.924</ele>
        <time>2018-07-13T09:06:03Z</time>
      </trkpt>
      <trkpt lat="45.892121" lon="6.778446">
        <ele>1124.704</ele>
        <time>2018-07-13T09:06:10Z</time>
      </trkpt>
      <trkpt lat="45.892116" lon="6.778374">
        <ele>1125.714</ele>
        <time>2018-07-13T09:06:17Z</time>
      </trkpt>
      <trkpt lat="45.892095" lon="6.778309">
        <ele>1126.108</ele>
        <time>2018-07-13T09:06:24Z</time>
      </trkpt>
      <trkpt lat="45.892077" lon="6.778237">
        <ele>1127.384</ele>
        <time>2018-07-13T09:06:32Z</time>
      </trkpt>
      <trkpt lat="45.892068" lon="6.778165">
        <ele>1125.497</ele>
        <time>2018-07-13T09:06:40Z</time>
      </trkpt>
      <trkpt lat="45.892063" lon="6.778095">
        <ele>1125.896</ele>
        <time>2018-07-13T09:06:45Z</time>
      </trkpt>
      <trkpt lat="45.892071" lon="6.778030">
        <ele>1128.095</ele>
        <time>2018-07-13T09:06:50Z</time>
      </trkpt>
      <trkpt lat="45.892080" lon="6.777967">
        <ele>1128.495</ele>
        <time>2018-07-13T09:06:55Z</time>
      </trkpt>
      <trkpt lat="45.892089" lon="6.777896">
        <ele>1127.994</ele>
        <time>2018-07-13T09:07:01Z</time>
      </trkpt>
      <trkpt lat="45.892113" lon="6.777833">
        <ele>1126.669</ele>
        <time>2018-07-13T09:07:07Z</time>
      </trkpt>
      <trkpt lat="45.892122" lon="6.777769">
        <ele>1128.628</ele>
        <time>2018-07-13T09:07:13Z</time>
      </trkpt>
      <trkpt lat="45.892143" lon="6.777699">
        <ele>1129.062</ele>
        <time>2018-07-13T09:07:20Z</time>
      </trkpt>
      <trkpt lat="45.892155" lon="6.777633">
        <ele>1130.783</ele>
        <time>2018-07-13T09:07:25Z</time>
      </trkpt>
      <trkpt lat="45.892180" lon="6.777567">
        <ele>1131.111</ele>
        <time>2018-07-13T09:07:31Z</time>
      </trkpt>
      <trkpt lat="45.892205" lon="6.777503">
        <ele>1129.708</ele>
        <time>2018-07-13T09:07:37Z</time>
      </trkpt>
      <trkpt lat="45.892229" lon="6.777447">
        <ele>1133.068</ele>
        <time>2018-07-13T09:07:54Z</time>
      </trkpt>
      <trkpt lat="45.892240" lon="6.777379">
        <ele>1131.191</ele>
        <time>2018-07-13T09:08:00Z</time>
      </trkpt>
      <trkpt lat="45.892261" lon="6.777320">
        <ele>1130.120</ele>
        <time>2018-07-13T09:08:04Z</time>
      </trkpt>
      <trkpt lat="45.892299" lon="6.777260">
        <ele>1130.369</ele>
        <time>2018-07-13T09:08:09Z</time>
      </trkpt>
      <trkpt lat="45.892331" lon="6.777211">
        <ele>1130.119</ele>
        <time>2018-07-13T09:08:13Z</time>
      </trkpt>
      <trkpt lat="45.892360" lon="6.777158">
        <ele>1130.058</ele>
        <time>2018-07-13T09:08:17Z</time>
      </trkpt>
      <trkpt lat="45.892397" lon="6.777102">
        <ele>1130.013</ele>
        <time>2018-07-13T09:08:22Z</time>
      </trkpt>
      <trkpt lat="45.892426" lon="6.777049">
        <ele>1129.912</ele>
        <time>2018-07-13T09:08:26Z</time>
      </trkpt>
      <trkpt lat="45.892457" lon="6.776982">
        <ele>1129.852</ele>
        <time>2018-07-13T09:08:31Z</time>
      </trkpt>
      <trkpt lat="45.892485" lon="6.776923">
        <ele>1130.253</ele>
        <time>2018-07-13T09:08:35Z</time>
      </trkpt>
      <trkpt lat="45.892512" lon="6.776859">
        <ele>1130.008</ele>
        <time>2018-07-13T09:08:39Z</time>
      </trkpt>
      <trkpt lat="45.892531" lon="6.776788">
        <ele>1129.608</ele>
        <time>2018-07-13T09:08:43Z</time>
      </trkpt>
      <trkpt lat="45.892551" lon="6.776722">
        <ele>1129.747</ele>
        <time>2018-07-13T09:08:47Z</time>
      </trkpt>
      <trkpt lat="45.892577" lon="6.776669">
        <ele>1130.620</ele>
        <time>2018-07-13T09:08:52Z</time>
      </trkpt>
      <trkpt lat="45.892532" lon="6.776721">
        <ele>1130.829</ele>
        <time>2018-07-13T09:09:16Z</time>
      </trkpt>
      <trkpt lat="45.892508" lon="6.776790">
        <ele>1130.388</ele>
        <time>2018-07-13T09:09:20Z</time>
      </trkpt>
      <trkpt lat="45.892487" lon="6.776849">
        <ele>1130.428</ele>
        <time>2018-07-13T09:09:24Z</time>
      </trkpt>
      <trkpt lat="45.892463" lon="6.776910">
        <ele>1130.997</ele>
        <time>2018-07-13T09:09:28Z</time>
      </trkpt>
      <trkpt lat="45.892445" lon="6.776975">
        <ele>1131.022</ele>
        <time>2018-07-13T09:09:32Z</time>
      </trkpt>
      <trkpt lat="45.892424" lon="6.777035">
        <ele>1130.571</ele>
        <time>2018-07-13T09:09:36Z</time>
      </trkpt>
      <trkpt lat="45.892395" lon="6.777093">
        <ele>1130.963</ele>
        <time>2018-07-13T09:09:40Z</time>
      </trkpt>
      <trkpt lat="45.892363" lon="6.777150">
        <ele>1130.644</ele>
        <time>2018-07-13T09:09:44Z</time>
      </trkpt>
      <trkpt lat="45.892329" lon="6.777199">
        <ele>1130.418</ele>
        <time>2018-07-13T09:09:48Z</time>
      </trkpt>
      <trkpt lat="45.892292" lon="6.777245">
        <ele>1131.308</ele>
        <time>2018-07-13T09:09:52Z</time>
      </trkpt>
      <trkpt lat="45.892258" lon="6.777305">
        <ele>1131.528</ele>
        <time>2018-07-13T09:09:57Z</time>
      </trkpt>
      <trkpt lat="45.892223" lon="6.777347">
        <ele>1131.081</ele>
        <time>2018-07-13T09:10:01Z</time>
      </trkpt>
      <trkpt lat="45.892195" lon="6.777398">
        <ele>1131.980</ele>
        <time>2018-07-13T09:10:05Z</time>
      </trkpt>
      <trkpt lat="45.892170" lon="6.777470">
        <ele>1132.139</ele>
        <time>2018-07-13T09:10:10Z</time>
      </trkpt>
      <trkpt lat="45.892135" lon="6.777534">
        <ele>1132.049</ele>
        <time>2018-07-13T09:10:15Z</time>
      </trkpt>
      <trkpt lat="45.892118" lon="6.777597">
        <ele>1133.078</ele>
        <time>2018-07-13T09:10:20Z</time>
      </trkpt>
      <trkpt lat="45.892082" lon="6.777648">
        <ele>1132.343</ele>
        <time>2018-07-13T09:10:24Z</time>
      </trkpt>
      <trkpt lat="45.892063" lon="6.777709">
        <ele>1134.162</ele>
        <time>2018-07-13T09:10:29Z</time>
      </trkpt>
      <trkpt lat="45.892039" lon="6.777776">
        <ele>1132.442</ele>
        <time>2018-07-13T09:10:35Z</time>
      </trkpt>
      <trkpt lat="45.892008" lon="6.777843">
        <ele>1133.222</ele>
        <time>2018-07-13T09:10:40Z</time>
      </trkpt>
      <trkpt lat="45.891986" lon="6.777903">
        <ele>1133.414</ele>
        <time>2018-07-13T09:10:44Z</time>
      </trkpt>
      <trkpt lat="45.891974" lon="6.777972">
        <ele>1133.908</ele>
        <time>2018-07-13T09:10:49Z</time>
      </trkpt>
      <trkpt lat="45.891962" lon="6.778042">
        <ele>1134.466</ele>
        <time>2018-07-13T09:10:54Z</time>
      </trkpt>
      <trkpt lat="45.891954" lon="6.778107">
        <ele>1135.339</ele>
        <time>2018-07-13T09:10:59Z</time>
      </trkpt>
      <trkpt lat="45.891942" lon="6.778171">
        <ele>1135.828</ele>
        <time>2018-07-13T09:11:04Z</time>
      </trkpt>
      <trkpt lat="45.891936" lon="6.778241">
        <ele>1135.767</ele>
        <time>2018-07-13T09:11:09Z</time>
      </trkpt>
      <trkpt lat="45.891918" lon="6.778303">
        <ele>1135.947</ele>
        <time>2018-07-13T09:11:14Z</time>
      </trkpt>
      <trkpt lat="45.891897" lon="6.778371">
        <ele>1137.036</ele>
        <time>2018-07-13T09:11:23Z</time>
      </trkpt>
      <trkpt lat="45.891878" lon="6.778443">
        <ele>1139.231</ele>
        <time>2018-07-13T09:11:29Z</time>
      </trkpt>
      <trkpt lat="45.891866" lon="6.778508">
        <ele>1138.630</ele>
        <time>2018-07-13T09:11:37Z</time>
      </trkpt>
      <trkpt lat="45.891841" lon="6.778565">
        <ele>1137.712</ele>
        <time>2018-07-13T09:11:42Z</time>
      </trkpt>
      <trkpt lat="45.891813" lon="6.778626">
        <ele>1140.532</ele>
        <time>2018-07-13T09:11:46Z</time>
      </trkpt>
      <trkpt lat="45.891776" lon="6.778689">
        <ele>1138.505</ele>
        <time>2018-07-13T09:11:50Z</time>
      </trkpt>
      <trkpt lat="45.891752" lon="6.778755">
        <ele>1138.408</ele>
        <time>2018-07-13T09:11:55Z</time>
      </trkpt>
      <trkpt lat="45.891743" lon="6.778830">
        <ele>1138.983</ele>
        <time>2018-07-13T09:12:00Z</time>
      </trkpt>
      <trkpt lat="45.891728" lon="6.778895">
        <ele>1139.066</ele>
        <time>2018-07-13T09:12:04Z</time>
      </trkpt>
      <trkpt lat="45.891711" lon="6.778965">
        <ele>1141.615</ele>
        <time>2018-07-13T09:12:09Z</time>
      </trkpt>
      <trkpt lat="45.891692" lon="6.779027">
        <ele>1140.434</ele>
        <time>2018-07-13T09:12:14Z</time>
      </trkpt>
      <trkpt lat="45.891667" lon="6.779091">
        <ele>1140.554</ele>
        <time>2018-07-13T09:12:19Z</time>
      </trkpt>
      <trkpt lat="45.891652" lon="6.779154">
        <ele>1140.943</ele>
        <time>2018-07-13T09:12:24Z</time>
      </trkpt>
      <trkpt lat="45.891643" lon="6.779221">
        <ele>1141.548</ele>
        <time>2018-07-13T09:12:29Z</time>
      </trkpt>
      <trkpt lat="45.891636" lon="6.779290">
        <ele>1142.377</ele>
        <time>2018-07-13T09:12:35Z</time>
      </trkpt>
      <trkpt lat="45.891615" lon="6.779350">
        <ele>1142.742</ele>
        <time>2018-07-13T09:12:41Z</time>
      </trkpt>
      <trkpt lat="45.891582" lon="6.779406">
        <ele>1143.122</ele>
        <time>2018-07-13T09:12:47Z</time>
      </trkpt>
      <trkpt lat="45.891549" lon="6.779451">
        <ele>1143.714</ele>
        <time>2018-07-13T09:12:52Z</time>
      </trkpt>
      <trkpt lat="45.891518" lon="6.779502">
        <ele>1144.908</ele>
        <time>2018-07-13T09:12:57Z</time>
      </trkpt>
      <trkpt lat="45.891476" lon="6.779545">
        <ele>1145.026</ele>
        <time>2018-07-13T09:13:03Z</time>
      </trkpt>
      <trkpt lat="45.891433" lon="6.779580">
        <ele>1145.299</ele>
        <time>2018-07-13T09:13:08Z</time>
      </trkpt>
      <trkpt lat="45.891385" lon="6.779612">
        <ele>1145.818</ele>
        <time>2018-07-13T09:13:14Z</time>
      </trkpt>
      <trkpt lat="45.891334" lon="6.779635">
        <ele>1146.677</ele>
        <time>2018-07-13T09:13:20Z</time>
      </trkpt>
      <trkpt lat="45.891289" lon="6.779652">
        <ele>1146.517</ele>
        <time>2018-07-13T09:13:25Z</time>
      </trkpt>
      <trkpt lat="45.891243" lon="6.779677">
        <ele>1147.226</ele>
        <time>2018-07-13T09:13:30Z</time>
      </trkpt>
      <trkpt lat="45.891198" lon="6.779695">
        <ele>1147.771</ele>
        <time>2018-07-13T09:13:35Z</time>
      </trkpt>
      <trkpt lat="45.891153" lon="6.779718">
        <ele>1148.480</ele>
        <time>2018-07-13T09:13:41Z</time>
      </trkpt>
      <trkpt lat="45.891110" lon="6.779756">
        <ele>1149.377</ele>
        <time>2018-07-13T09:13:48Z</time>
      </trkpt>
      <trkpt lat="45.891072" lon="6.779795">
        <ele>1150.261</ele>
        <time>2018-07-13T09:13:55Z</time>
      </trkpt>
      <trkpt lat="45.891042" lon="6.779852">
        <ele>1153.027</ele>
        <time>2018-07-13T09:14:01Z</time>
      </trkpt>
      <trkpt lat="45.891003" lon="6.779902">
        <ele>1153.308</ele>
        <time>2018-07-13T09:14:07Z</time>
      </trkpt>
      <trkpt lat="45.890971" lon="6.779960">
        <ele>1153.749</ele>
        <time>2018-07-13T09:14:13Z</time>
      </trkpt>
      <trkpt lat="45.890944" lon="6.780018">
        <ele>1154.332</ele>
        <time>2018-07-13T09:14:19Z</time>
      </trkpt>
      <trkpt lat="45.890923" lon="6.780076">
        <ele>1155.271</ele>
        <time>2018-07-13T09:14:25Z</time>
      </trkpt>
      <trkpt lat="45.890907" lon="6.780149">
        <ele>1156.020</ele>
        <time>2018-07-13T09:14:32Z</time>
      </trkpt>
      <trkpt lat="45.890900" lon="6.780222">
        <ele>1154.620</ele>
        <time>2018-07-13T09:14:39Z</time>
      </trkpt>
      <trkpt lat="45.890888" lon="6.780286">
        <ele>1154.849</ele>
        <time>2018-07-13T09:15:41Z</time>
      </trkpt>
      <trkpt lat="45.890878" lon="6.780357">
        <ele>1155.954</ele>
        <time>2018-07-13T09:15:48Z</time>
      </trkpt>
      <trkpt lat="45.890871" lon="6.780429">
        <ele>1155.913</ele>
        <time>2018-07-13T09:15:53Z</time>
      </trkpt>
      <trkpt lat="45.890861" lon="6.780503">
        <ele>1157.126</ele>
        <time>2018-07-13T09:15:59Z</time>
      </trkpt>
      <trkpt lat="45.890838" lon="6.780561">
        <ele>1157.547</ele>
        <time>2018-07-13T09:16:04Z</time>
      </trkpt>
      <trkpt lat="45.890799" lon="6.780595">
        <ele>1157.711</ele>
        <time>2018-07-13T09:16:09Z</time>
      </trkpt>
      <trkpt lat="45.890751" lon="6.780592">
        <ele>1158.308</ele>
        <time>2018-07-13T09:16:14Z</time>
      </trkpt>
      <trkpt lat="45.890704" lon="6.780576">
        <ele>1158.414</ele>
        <time>2018-07-13T09:16:19Z</time>
      </trkpt>
      <trkpt lat="45.890662" lon="6.780545">
        <ele>1158.937</ele>
        <time>2018-07-13T09:16:24Z</time>
      </trkpt>
      <trkpt lat="45.890624" lon="6.780504">
        <ele>1159.176</ele>
        <time>2018-07-13T09:16:29Z</time>
      </trkpt>
      <trkpt lat="45.890589" lon="6.780463">
        <ele>1160.135</ele>
        <time>2018-07-13T09:16:34Z</time>
      </trkpt>
      <trkpt lat="45.890550" lon="6.780420">
        <ele>1160.595</ele>
        <time>2018-07-13T09:16:40Z</time>
      </trkpt>
      <trkpt lat="45.890509" lon="6.780384">
        <ele>1161.144</ele>
        <time>2018-07-13T09:16:45Z</time>
      </trkpt>
      <trkpt lat="45.890464" lon="6.780353">
        <ele>1161.779</ele>
        <time>2018-07-13T09:16:50Z</time>
      </trkpt>
      <trkpt lat="45.890419" lon="6.780330">
        <ele>1162.288</ele>
        <time>2018-07-13T09:16:55Z</time>
      </trkpt>
      <trkpt lat="45.890370" lon="6.780313">
        <ele>1162.652</ele>
        <time>2018-07-13T09:17:01Z</time>
      </trkpt>
      <trkpt lat="45.890320" lon="6.780309">
        <ele>1163.353</ele>
        <time>2018-07-13T09:17:07Z</time>
      </trkpt>
      <trkpt lat="45.890267" lon="6.780314">
        <ele>1164.008</ele>
        <time>2018-07-13T09:17:24Z</time>
      </trkpt>
      <trkpt lat="45.890218" lon="6.780325">
        <ele>1166.408</ele>
        <time>2018-07-13T09:17:30Z</time>
      </trkpt>
      <trkpt lat="45.890169" lon="6.780344">
        <ele>1165.727</ele>
        <time>2018-07-13T09:17:36Z</time>
      </trkpt>
      <trkpt lat="45.890122" lon="6.780375">
        <ele>1168.620</ele>
        <time>2018-07-13T09:17:43Z</time>
      </trkpt>
      <trkpt lat="45.890077" lon="6.780412">
        <ele>1168.179</ele>
        <time>2018-07-13T09:17:50Z</time>
      </trkpt>
      <trkpt lat="45.890034" lon="6.780444">
        <ele>1168.528</ele>
        <time>2018-07-13T09:17:56Z</time>
      </trkpt>
      <trkpt lat="45.889982" lon="6.780457">
        <ele>1168.768</ele>
        <time>2018-07-13T09:18:02Z</time>
      </trkpt>
      <trkpt lat="45.889929" lon="6.780458">
        <ele>1168.857</ele>
        <time>2018-07-13T09:18:07Z</time>
      </trkpt>
      <trkpt lat="45.889875" lon="6.780454">
        <ele>1169.622</ele>
        <time>2018-07-13T09:18:12Z</time>
      </trkpt>
      <trkpt lat="45.889825" lon="6.780450">
        <ele>1170.091</ele>
        <time>2018-07-13T09:18:17Z</time>
      </trkpt>
      <trkpt lat="45.889778" lon="6.780443">
        <ele>1170.551</ele>
        <time>2018-07-13T09:18:22Z</time>
      </trkpt>
      <trkpt lat="45.889733" lon="6.780443">
        <ele>1172.001</ele>
        <time>2018-07-13T09:18:27Z</time>
      </trkpt>
      <trkpt lat="45.889686" lon="6.780447">
        <ele>1171.311</ele>
        <time>2018-07-13T09:18:32Z</time>
      </trkpt>
      <trkpt lat="45.889640" lon="6.780459">
        <ele>1171.408</ele>
        <time>2018-07-13T09:18:37Z</time>
      </trkpt>
      <trkpt lat="45.889594" lon="6.780470">
        <ele>1172.517</ele>
        <time>2018-07-13T09:18:42Z</time>
      </trkpt>
      <trkpt lat="45.889547" lon="6.780466">
        <ele>1172.490</ele>
        <time>2018-07-13T09:18:47Z</time>
      </trkpt>
      <trkpt lat="45.889494" lon="6.780452">
        <ele>1172.879</ele>
        <time>2018-07-13T09:18:53Z</time>
      </trkpt>
      <trkpt lat="45.889449" lon="6.780437">
        <ele>1174.388</ele>
        <time>2018-07-13T09:18:58Z</time>
      </trkpt>
      <trkpt lat="45.889399" lon="6.780416">
        <ele>1173.868</ele>
        <time>2018-07-13T09:19:04Z</time>
      </trkpt>
      <trkpt lat="45.889355" lon="6.780395">
        <ele>1174.277</ele>
        <time>2018-07-13T09:19:09Z</time>
      </trkpt>
      <trkpt lat="45.889309" lon="6.780376">
        <ele>1174.742</ele>
        <time>2018-07-13T09:19:15Z</time>
      </trkpt>
      <trkpt lat="45.889265" lon="6.780358">
        <ele>1175.481</ele>
        <time>2018-07-13T09:19:20Z</time>
      </trkpt>
      <trkpt lat="45.889216" lon="6.780340">
        <ele>1176.116</ele>
        <time>2018-07-13T09:19:26Z</time>
      </trkpt>
      <trkpt lat="45.889162" lon="6.780342">
        <ele>1176.776</ele>
        <time>2018-07-13T09:19:33Z</time>
      </trkpt>
      <trkpt lat="45.889115" lon="6.780352">
        <ele>1177.013</ele>
        <time>2018-07-13T09:19:38Z</time>
      </trkpt>
      <trkpt lat="45.889064" lon="6.780370">
        <ele>1177.308</ele>
        <time>2018-07-13T09:19:44Z</time>
      </trkpt>
      <trkpt lat="45.889016" lon="6.780378">
        <ele>1178.113</ele>
        <time>2018-07-13T09:19:50Z</time>
      </trkpt>
      <trkpt lat="45.888965" lon="6.780370">
        <ele>1179.076</ele>
        <time>2018-07-13T09:19:57Z</time>
      </trkpt>
      <trkpt lat="45.888922" lon="6.780339">
        <ele>1179.215</ele>
        <time>2018-07-13T09:20:03Z</time>
      </trkpt>
      <trkpt lat="45.888883" lon="6.780298">
        <ele>1179.554</ele>
        <time>2018-07-13T09:20:09Z</time>
      </trkpt>
      <trkpt lat="45.888863" lon="6.780231">
        <ele>1179.974</ele>
        <time>2018-07-13T09:20:15Z</time>
      </trkpt>
      <trkpt lat="45.888833" lon="6.780180">
        <ele>1181.163</ele>
        <time>2018-07-13T09:20:23Z</time>
      </trkpt>
      <trkpt lat="45.888811" lon="6.780119">
        <ele>1180.998</ele>
        <time>2018-07-13T09:20:30Z</time>
      </trkpt>
      <trkpt lat="45.888821" lon="6.780042">
        <ele>1181.237</ele>
        <time>2018-07-13T09:20:36Z</time>
      </trkpt>
      <trkpt lat="45.888844" lon="6.779977">
        <ele>1181.296</ele>
        <time>2018-07-13T09:20:40Z</time>
      </trkpt>
      <trkpt lat="45.888881" lon="6.779937">
        <ele>1181.831</ele>
        <time>2018-07-13T09:20:45Z</time>
      </trkpt>
      <trkpt lat="45.888925" lon="6.779917">
        <ele>1182.024</ele>
        <time>2018-07-13T09:20:50Z</time>
      </trkpt>
      <trkpt lat="45.888977" lon="6.779911">
        <ele>1182.908</ele>
        <time>2018-07-13T09:20:56Z</time>
      </trkpt>
      <trkpt lat="45.889028" lon="6.779910">
        <ele>1183.371</ele>
        <time>2018-07-13T09:21:02Z</time>
      </trkpt>
      <trkpt lat="45.889074" lon="6.779912">
        <ele>1183.684</ele>
        <time>2018-07-13T09:21:07Z</time>
      </trkpt>
      <trkpt lat="45.889120" lon="6.779910">
        <ele>1183.813</ele>
        <time>2018-07-13T09:21:12Z</time>
      </trkpt>
      <trkpt lat="45.889166" lon="6.779902">
        <ele>1184.622</ele>
        <time>2018-07-13T09:21:17Z</time>
      </trkpt>
      <trkpt lat="45.889218" lon="6.779882">
        <ele>1184.992</ele>
        <time>2018-07-13T09:21:23Z</time>
      </trkpt>
      <trkpt lat="45.889266" lon="6.779861">
        <ele>1185.381</ele>
        <time>2018-07-13T09:21:28Z</time>
      </trkpt>
      <trkpt lat="45.889312" lon="6.779847">
        <ele>1185.676</ele>
        <time>2018-07-13T09:21:33Z</time>
      </trkpt>
      <trkpt lat="45.889357" lon="6.779834">
        <ele>1185.945</ele>
        <time>2018-07-13T09:21:38Z</time>
      </trkpt>
      <trkpt lat="45.889403" lon="6.779823">
        <ele>1186.254</ele>
        <time>2018-07-13T09:21:43Z</time>
      </trkpt>
      <trkpt lat="45.889451" lon="6.779796">
        <ele>1186.856</ele>
        <time>2018-07-13T09:21:49Z</time>
      </trkpt>
      <trkpt lat="45.889495" lon="6.779774">
        <ele>1187.511</ele>
        <time>2018-07-13T09:21:54Z</time>
      </trkpt>
      <trkpt lat="45.889536" lon="6.779732">
        <ele>1188.708</ele>
        <time>2018-07-13T09:21:59Z</time>
      </trkpt>
      <trkpt lat="45.889578" lon="6.779706">
        <ele>1188.137</ele>
        <time>2018-07-13T09:22:07Z</time>
      </trkpt>
      <trkpt lat="45.889600" lon="6.779768">
        <ele>1190.530</ele>
        <time>2018-07-13T09:22:14Z</time>
      </trkpt>
      <trkpt lat="45.889603" lon="6.779837">
        <ele>1189.919</ele>
        <time>2018-07-13T09:22:19Z</time>
      </trkpt>
      <trkpt lat="45.889646" lon="6.779873">
        <ele>1187.718</ele>
        <time>2018-07-13T09:23:28Z</time>
      </trkpt>
      <trkpt lat="45.889627" lon="6.779807">
        <ele>1188.088</ele>
        <time>2018-07-13T09:23:36Z</time>
      </trkpt>
      <trkpt lat="45.889617" lon="6.779741">
        <ele>1188.547</ele>
        <time>2018-07-13T09:23:41Z</time>
      </trkpt>
      <trkpt lat="45.889618" lon="6.779664">
        <ele>1189.142</ele>
        <time>2018-07-13T09:23:46Z</time>
      </trkpt>
      <trkpt lat="45.889633" lon="6.779589">
        <ele>1189.451</ele>
        <time>2018-07-13T09:23:51Z</time>
      </trkpt>
      <trkpt lat="45.889648" lon="6.779515">
        <ele>1189.376</ele>
        <time>2018-07-13T09:23:56Z</time>
      </trkpt>
      <trkpt lat="45.889665" lon="6.779443">
        <ele>1190.090</ele>
        <time>2018-07-13T09:24:01Z</time>
      </trkpt>
      <trkpt lat="45.889679" lon="6.779378">
        <ele>1190.119</ele>
        <time>2018-07-13T09:24:06Z</time>
      </trkpt>
      <trkpt lat="45.889696" lon="6.779309">
        <ele>1190.908</ele>
        <time>2018-07-13T09:24:11Z</time>
      </trkpt>
      <trkpt lat="45.889712" lon="6.779235">
        <ele>1192.089</ele>
        <time>2018-07-13T09:24:16Z</time>
      </trkpt>
      <trkpt lat="45.889733" lon="6.779163">
        <ele>1191.792</ele>
        <time>2018-07-13T09:24:21Z</time>
      </trkpt>
      <trkpt lat="45.889750" lon="6.779094">
        <ele>1191.721</ele>
        <time>2018-07-13T09:24:26Z</time>
      </trkpt>
      <trkpt lat="45.889760" lon="6.779023">
        <ele>1192.350</ele>
        <time>2018-07-13T09:24:31Z</time>
      </trkpt>
      <trkpt lat="45.889777" lon="6.778952">
        <ele>1192.820</ele>
        <time>2018-07-13T09:24:36Z</time>
      </trkpt>
      <trkpt lat="45.889785" lon="6.778882">
        <ele>1193.169</ele>
        <time>2018-07-13T09:24:41Z</time>
      </trkpt>
      <trkpt lat="45.889798" lon="6.778811">
        <ele>1193.634</ele>
        <time>2018-07-13T09:24:46Z</time>
      </trkpt>
      <trkpt lat="45.889808" lon="6.778738">
        <ele>1195.583</ele>
        <time>2018-07-13T09:24:51Z</time>
      </trkpt>
      <trkpt lat="45.889817" lon="6.778666">
        <ele>1194.494</ele>
        <time>2018-07-13T09:24:56Z</time>
      </trkpt>
      <trkpt lat="45.889830" lon="6.778596">
        <ele>1194.957</ele>
        <time>2018-07-13T09:25:01Z</time>
      </trkpt>
      <trkpt lat="45.889834" lon="6.778528">
        <ele>1195.122</ele>
        <time>2018-07-13T09:25:06Z</time>
      </trkpt>
      <trkpt lat="45.889836" lon="6.778459">
        <ele>1195.608</ele>
        <time>2018-07-13T09:25:11Z</time>
      </trkpt>
      <trkpt lat="45.889822" lon="6.778391">
        <ele>1196.611</ele>
        <time>2018-07-13T09:25:17Z</time>
      </trkpt>
      <trkpt lat="45.889779" lon="6.778358">
        <ele>1198.274</ele>
        <time>2018-07-13T09:25:24Z</time>
      </trkpt>
      <trkpt lat="45.889734" lon="6.778368">
        <ele>1198.093</ele>
        <time>2018-07-13T09:25:30Z</time>
      </trkpt>
      <trkpt lat="45.889689" lon="6.778402">
        <ele>1198.582</ele>
        <time>2018-07-13T09:25:36Z</time>
      </trkpt>
      <trkpt lat="45.889652" lon="6.778450">
        <ele>1199.282</ele>
        <time>2018-07-13T09:25:42Z</time>
      </trkpt>
      <trkpt lat="45.889616" lon="6.778495">
        <ele>1199.731</ele>
        <time>2018-07-13T09:25:48Z</time>
      </trkpt>
      <trkpt lat="45.889579" lon="6.778537">
        <ele>1200.356</ele>
        <time>2018-07-13T09:25:54Z</time>
      </trkpt>
      <trkpt lat="45.889542" lon="6.778575">
        <ele>1200.415</ele>
        <time>2018-07-13T09:25:59Z</time>
      </trkpt>
      <trkpt lat="45.889503" lon="6.778620">
        <ele>1200.894</ele>
        <time>2018-07-13T09:26:04Z</time>
      </trkpt>
      <trkpt lat="45.889461" lon="6.778663">
        <ele>1201.457</ele>
        <time>2018-07-13T09:26:10Z</time>
      </trkpt>
      <trkpt lat="45.889417" lon="6.778709">
        <ele>1201.922</ele>
        <time>2018-07-13T09:26:16Z</time>
      </trkpt>
      <trkpt lat="45.889376" lon="6.778749">
        <ele>1202.108</ele>
        <time>2018-07-13T09:26:21Z</time>
      </trkpt>
      <trkpt lat="45.889332" lon="6.778787">
        <ele>1202.431</ele>
        <time>2018-07-13T09:26:27Z</time>
      </trkpt>
      <trkpt lat="45.889295" lon="6.778829">
        <ele>1203.124</ele>
        <time>2018-07-13T09:26:32Z</time>
      </trkpt>
      <trkpt lat="45.889248" lon="6.778862">
        <ele>1203.453</ele>
        <time>2018-07-13T09:26:37Z</time>
      </trkpt>
      <trkpt lat="45.889199" lon="6.778876">
        <ele>1203.792</ele>
        <time>2018-07-13T09:26:42Z</time>
      </trkpt>
      <trkpt lat="45.889151" lon="6.778859">
        <ele>1203.942</ele>
        <time>2018-07-13T09:26:47Z</time>
      </trkpt>
      <trkpt lat="45.889124" lon="6.778807">
        <ele>1204.471</ele>
        <time>2018-07-13T09:26:53Z</time>
      </trkpt>
      <trkpt lat="45.889115" lon="6.778739">
        <ele>1205.476</ele>
        <time>2018-07-13T09:27:02Z</time>
      </trkpt>
      <trkpt lat="45.889090" lon="6.778678">
        <ele>1207.215</ele>
        <time>2018-07-13T09:27:13Z</time>
      </trkpt>
      <trkpt lat="45.889057" lon="6.778628">
        <ele>1208.371</ele>
        <time>2018-07-13T09:27:24Z</time>
      </trkpt>
      <trkpt lat="45.889025" lon="6.778582">
        <ele>1211.841</ele>
        <time>2018-07-13T09:27:31Z</time>
      </trkpt>
      <trkpt lat="45.888992" lon="6.778537">
        <ele>1210.815</ele>
        <time>2018-07-13T09:27:43Z</time>
      </trkpt>
      <trkpt lat="45.888947" lon="6.778496">
        <ele>1211.608</ele>
        <time>2018-07-13T09:27:54Z</time>
      </trkpt>
      <trkpt lat="45.888901" lon="6.778454">
        <ele>1212.229</ele>
        <time>2018-07-13T09:28:01Z</time>
      </trkpt>
      <trkpt lat="45.888900" lon="6.778385">
        <ele>1214.172</ele>
        <time>2018-07-13T09:28:15Z</time>
      </trkpt>
      <trkpt lat="45.888920" lon="6.778321">
        <ele>1215.771</ele>
        <time>2018-07-13T09:28:26Z</time>
      </trkpt>
      <trkpt lat="45.888955" lon="6.778278">
        <ele>1216.960</ele>
        <time>2018-07-13T09:28:34Z</time>
      </trkpt>
      <trkpt lat="45.888999" lon="6.778250">
        <ele>1218.370</ele>
        <time>2018-07-13T09:28:47Z</time>
      </trkpt>
      <trkpt lat="45.889036" lon="6.778197">
        <ele>1219.149</ele>
        <time>2018-07-13T09:28:56Z</time>
      </trkpt>
      <trkpt lat="45.889060" lon="6.778132">
        <ele>1219.844</ele>
        <time>2018-07-13T09:29:04Z</time>
      </trkpt>
      <trkpt lat="45.889072" lon="6.778069">
        <ele>1220.363</ele>
        <time>2018-07-13T09:29:11Z</time>
      </trkpt>
      <trkpt lat="45.889075" lon="6.778002">
        <ele>1223.915</ele>
        <time>2018-07-13T09:29:20Z</time>
      </trkpt>
      <trkpt lat="45.889038" lon="6.777962">
        <ele>1223.565</ele>
        <time>2018-07-13T09:29:34Z</time>
      </trkpt>
      <trkpt lat="45.888988" lon="6.777957">
        <ele>1225.011</ele>
        <time>2018-07-13T09:29:46Z</time>
      </trkpt>
      <trkpt lat="45.888939" lon="6.777962">
        <ele>1226.308</ele>
        <time>2018-07-13T09:29:57Z</time>
      </trkpt>
      <trkpt lat="45.888891" lon="6.777957">
        <ele>1227.853</ele>
        <time>2018-07-13T09:30:10Z</time>
      </trkpt>
      <trkpt lat="45.888849" lon="6.777925">
        <ele>1229.546</ele>
        <time>2018-07-13T09:30:20Z</time>
      </trkpt>
      <trkpt lat="45.888802" lon="6.777931">
        <ele>1230.315</ele>
        <time>2018-07-13T09:30:33Z</time>
      </trkpt>
      <trkpt lat="45.888751" lon="6.777924">
        <ele>1232.534</ele>
        <time>2018-07-13T09:30:52Z</time>
      </trkpt>
      <trkpt lat="45.888702" lon="6.777898">
        <ele>1233.724</ele>
        <time>2018-07-13T09:31:03Z</time>
      </trkpt>
      <trkpt lat="45.888651" lon="6.777914">
        <ele>1234.113</ele>
        <time>2018-07-13T09:31:10Z</time>
      </trkpt>
      <trkpt lat="45.888602" lon="6.777920">
        <ele>1234.658</ele>
        <time>2018-07-13T09:31:17Z</time>
      </trkpt>
      <trkpt lat="45.888553" lon="6.777929">
        <ele>1235.217</ele>
        <time>2018-07-13T09:31:24Z</time>
      </trkpt>
      <trkpt lat="45.888505" lon="6.777940">
        <ele>1235.871</ele>
        <time>2018-07-13T09:31:31Z</time>
      </trkpt>
      <trkpt lat="45.888456" lon="6.777931">
        <ele>1236.241</ele>
        <time>2018-07-13T09:31:37Z</time>
      </trkpt>
      <trkpt lat="45.888409" lon="6.777896">
        <ele>1236.715</ele>
        <time>2018-07-13T09:31:43Z</time>
      </trkpt>
      <trkpt lat="45.888365" lon="6.777844">
        <ele>1237.208</ele>
        <time>2018-07-13T09:31:51Z</time>
      </trkpt>
      <trkpt lat="45.888335" lon="6.777787">
        <ele>1237.679</ele>
        <time>2018-07-13T09:31:57Z</time>
      </trkpt>
      <trkpt lat="45.888335" lon="6.777710">
        <ele>1238.232</ele>
        <time>2018-07-13T09:32:03Z</time>
      </trkpt>
      <trkpt lat="45.888350" lon="6.777638">
        <ele>1238.971</ele>
        <time>2018-07-13T09:32:09Z</time>
      </trkpt>
      <trkpt lat="45.888367" lon="6.777578">
        <ele>1238.950</ele>
        <time>2018-07-13T09:32:14Z</time>
      </trkpt>
      <trkpt lat="45.888390" lon="6.777510">
        <ele>1241.580</ele>
        <time>2018-07-13T09:32:20Z</time>
      </trkpt>
      <trkpt lat="45.888415" lon="6.777448">
        <ele>1242.169</ele>
        <time>2018-07-13T09:32:26Z</time>
      </trkpt>
      <trkpt lat="45.888449" lon="6.777394">
        <ele>1240.734</ele>
        <time>2018-07-13T09:32:45Z</time>
      </trkpt>
      <trkpt lat="45.888469" lon="6.777325">
        <ele>1242.533</ele>
        <time>2018-07-13T09:32:51Z</time>
      </trkpt>
      <trkpt lat="45.888473" lon="6.777257">
        <ele>1243.993</ele>
        <time>2018-07-13T09:32:57Z</time>
      </trkpt>
      <trkpt lat="45.888463" lon="6.777192">
        <ele>1242.565</ele>
        <time>2018-07-13T09:33:05Z</time>
      </trkpt>
      <trkpt lat="45.888435" lon="6.777141">
        <ele>1243.321</ele>
        <time>2018-07-13T09:33:15Z</time>
      </trkpt>
      <trkpt lat="45.888393" lon="6.777111">
        <ele>1244.108</ele>
        <time>2018-07-13T09:33:23Z</time>
      </trkpt>
      <trkpt lat="45.888349" lon="6.777080">
        <ele>1244.821</ele>
        <time>2018-07-13T09:33:30Z</time>
      </trkpt>
      <trkpt lat="45.888297" lon="6.777055">
        <ele>1245.254</ele>
        <time>2018-07-13T09:33:36Z</time>
      </trkpt>
      <trkpt lat="45.888254" lon="6.777027">
        <ele>1245.613</ele>
        <time>2018-07-13T09:33:41Z</time>
      </trkpt>
      <trkpt lat="45.888214" lon="6.776996">
        <ele>1245.962</ele>
        <time>2018-07-13T09:33:46Z</time>
      </trkpt>
      <trkpt lat="45.888177" lon="6.776958">
        <ele>1245.932</ele>
        <time>2018-07-13T09:33:51Z</time>
      </trkpt>
      <trkpt lat="45.888156" lon="6.776893">
        <ele>1246.031</ele>
        <time>2018-07-13T09:33:56Z</time>
      </trkpt>
      <trkpt lat="45.888154" lon="6.776814">
        <ele>1246.736</ele>
        <time>2018-07-13T09:34:02Z</time>
      </trkpt>
      <trkpt lat="45.888162" lon="6.776741">
        <ele>1247.215</ele>
        <time>2018-07-13T09:34:08Z</time>
      </trkpt>
      <trkpt lat="45.888176" lon="6.776679">
        <ele>1247.455</ele>
        <time>2018-07-13T09:34:13Z</time>
      </trkpt>
      <trkpt lat="45.888183" lon="6.776613">
        <ele>1247.907</ele>
        <time>2018-07-13T09:34:18Z</time>
      </trkpt>
      <trkpt lat="45.888203" lon="6.776551">
        <ele>1248.317</ele>
        <time>2018-07-13T09:34:23Z</time>
      </trkpt>
      <trkpt lat="45.888210" lon="6.776484">
        <ele>1248.608</ele>
        <time>2018-07-13T09:34:28Z</time>
      </trkpt>
      <trkpt lat="45.888216" lon="6.776414">
        <ele>1248.757</ele>
        <time>2018-07-13T09:34:33Z</time>
      </trkpt>
      <trkpt lat="45.888229" lon="6.776346">
        <ele>1249.070</ele>
        <time>2018-07-13T09:34:38Z</time>
      </trkpt>
      <trkpt lat="45.888244" lon="6.776280">
        <ele>1249.149</ele>
        <time>2018-07-13T09:34:43Z</time>
      </trkpt>
      <trkpt lat="45.888247" lon="6.776211">
        <ele>1249.828</ele>
        <time>2018-07-13T09:34:48Z</time>
      </trkpt>
      <trkpt lat="45.888226" lon="6.776147">
        <ele>1250.348</ele>
        <time>2018-07-13T09:34:55Z</time>
      </trkpt>
      <trkpt lat="45.888184" lon="6.776112">
        <ele>1251.137</ele>
        <time>2018-07-13T09:35:02Z</time>
      </trkpt>
      <trkpt lat="45.888135" lon="6.776086">
        <ele>1251.992</ele>
        <time>2018-07-13T09:35:09Z</time>
      </trkpt>
      <trkpt lat="45.888092" lon="6.776058">
        <ele>1252.221</ele>
        <time>2018-07-13T09:35:15Z</time>
      </trkpt>
      <trkpt lat="45.888060" lon="6.776006">
        <ele>1252.782</ele>
        <time>2018-07-13T09:35:21Z</time>
      </trkpt>
      <trkpt lat="45.888026" lon="6.775961">
        <ele>1255.943</ele>
        <time>2018-07-13T09:35:29Z</time>
      </trkpt>
      <trkpt lat="45.887998" lon="6.775906">
        <ele>1256.517</ele>
        <time>2018-07-13T09:35:37Z</time>
      </trkpt>
      <trkpt lat="45.887965" lon="6.775852">
        <ele>1257.408</ele>
        <time>2018-07-13T09:35:45Z</time>
      </trkpt>
      <trkpt lat="45.887923" lon="6.775813">
        <ele>1257.970</ele>
        <time>2018-07-13T09:35:53Z</time>
      </trkpt>
      <trkpt lat="45.887885" lon="6.775763">
        <ele>1259.153</ele>
        <time>2018-07-13T09:36:01Z</time>
      </trkpt>
      <trkpt lat="45.887858" lon="6.775703">
        <ele>1258.282</ele>
        <time>2018-07-13T09:36:07Z</time>
      </trkpt>
      <trkpt lat="45.887845" lon="6.775636">
        <ele>1258.461</ele>
        <time>2018-07-13T09:36:14Z</time>
      </trkpt>
      <trkpt lat="45.887837" lon="6.775565">
        <ele>1259.531</ele>
        <time>2018-07-13T09:36:21Z</time>
      </trkpt>
      <trkpt lat="45.887834" lon="6.775496">
        <ele>1260.060</ele>
        <time>2018-07-13T09:36:29Z</time>
      </trkpt>
      <trkpt lat="45.887839" lon="6.775431">
        <ele>1260.675</ele>
        <time>2018-07-13T09:36:36Z</time>
      </trkpt>
      <trkpt lat="45.887830" lon="6.775361">
        <ele>1261.494</ele>
        <time>2018-07-13T09:36:45Z</time>
      </trkpt>
      <trkpt lat="45.887815" lon="6.775298">
        <ele>1262.081</ele>
        <time>2018-07-13T09:36:52Z</time>
      </trkpt>
      <trkpt lat="45.887801" lon="6.775233">
        <ele>1262.761</ele>
        <time>2018-07-13T09:36:59Z</time>
      </trkpt>
      <trkpt lat="45.887793" lon="6.775166">
        <ele>1263.517</ele>
        <time>2018-07-13T09:37:05Z</time>
      </trkpt>
      <trkpt lat="45.887791" lon="6.775097">
        <ele>1264.208</ele>
        <time>2018-07-13T09:37:12Z</time>
      </trkpt>
      <trkpt lat="45.887791" lon="6.775028">
        <ele>1265.540</ele>
        <time>2018-07-13T09:37:21Z</time>
      </trkpt>
      <trkpt lat="45.887799" lon="6.774958">
        <ele>1268.933</ele>
        <time>2018-07-13T09:37:31Z</time>
      </trkpt>
      <trkpt lat="45.887831" lon="6.774910">
        <ele>1267.622</ele>
        <time>2018-07-13T09:37:40Z</time>
      </trkpt>
      <trkpt lat="45.887856" lon="6.774842">
        <ele>1268.491</ele>
        <time>2018-07-13T09:37:48Z</time>
      </trkpt>
      <trkpt lat="45.887884" lon="6.774782">
        <ele>1269.211</ele>
        <time>2018-07-13T09:37:58Z</time>
      </trkpt>
      <trkpt lat="45.887920" lon="6.774741">
        <ele>1270.040</ele>
        <time>2018-07-13T09:38:06Z</time>
      </trkpt>
      <trkpt lat="45.887953" lon="6.774688">
        <ele>1271.025</ele>
        <time>2018-07-13T09:38:15Z</time>
      </trkpt>
      <trkpt lat="45.887977" lon="6.774625">
        <ele>1273.084</ele>
        <time>2018-07-13T09:38:23Z</time>
      </trkpt>
      <trkpt lat="45.887993" lon="6.774559">
        <ele>1274.585</ele>
        <time>2018-07-13T09:38:33Z</time>
      </trkpt>
      <trkpt lat="45.888003" lon="6.774493">
        <ele>1273.989</ele>
        <time>2018-07-13T09:38:40Z</time>
      </trkpt>
      <trkpt lat="45.887991" lon="6.774425">
        <ele>1274.517</ele>
        <time>2018-07-13T09:38:49Z</time>
      </trkpt>
      <trkpt lat="45.887993" lon="6.774353">
        <ele>1276.008</ele>
        <time>2018-07-13T09:39:00Z</time>
      </trkpt>
      <trkpt lat="45.887970" lon="6.774292">
        <ele>1277.460</ele>
        <time>2018-07-13T09:39:12Z</time>
      </trkpt>
      <trkpt lat="45.887927" lon="6.774265">
        <ele>1280.893</ele>
        <time>2018-07-13T09:39:27Z</time>
      </trkpt>
      <trkpt lat="45.887876" lon="6.774256">
        <ele>1282.452</ele>
        <time>2018-07-13T09:39:56Z</time>
      </trkpt>
      <trkpt lat="45.887824" lon="6.774245">
        <ele>1283.051</ele>
        <time>2018-07-13T09:40:03Z</time>
      </trkpt>
      <trkpt lat="45.887775" lon="6.774234">
        <ele>1283.611</ele>
        <time>2018-07-13T09:40:11Z</time>
      </trkpt>
      <trkpt lat="45.887731" lon="6.774252">
        <ele>1284.560</ele>
        <time>2018-07-13T09:40:19Z</time>
      </trkpt>
      <trkpt lat="45.887683" lon="6.774257">
        <ele>1286.935</ele>
        <time>2018-07-13T09:40:28Z</time>
      </trkpt>
      <trkpt lat="45.887633" lon="6.774254">
        <ele>1286.994</ele>
        <time>2018-07-13T09:40:38Z</time>
      </trkpt>
      <trkpt lat="45.887586" lon="6.774255">
        <ele>1287.682</ele>
        <time>2018-07-13T09:40:48Z</time>
      </trkpt>
      <trkpt lat="45.887541" lon="6.774258">
        <ele>1289.043</ele>
        <time>2018-07-13T09:41:00Z</time>
      </trkpt>
      <trkpt lat="45.887495" lon="6.774276">
        <ele>1290.417</ele>
        <time>2018-07-13T09:41:18Z</time>
      </trkpt>
      <trkpt lat="45.887450" lon="6.774302">
        <ele>1292.008</ele>
        <time>2018-07-13T09:41:36Z</time>
      </trkpt>
      <trkpt lat="45.887402" lon="6.774286">
        <ele>1294.970</ele>
        <time>2018-07-13T09:41:49Z</time>
      </trkpt>
      <trkpt lat="45.887354" lon="6.774261">
        <ele>1295.273</ele>
        <time>2018-07-13T09:41:59Z</time>
      </trkpt>
      <trkpt lat="45.887311" lon="6.774230">
        <ele>1296.112</ele>
        <time>2018-07-13T09:42:11Z</time>
      </trkpt>
      <trkpt lat="45.887265" lon="6.774260">
        <ele>1299.031</ele>
        <time>2018-07-13T09:42:35Z</time>
      </trkpt>
      <trkpt lat="45.887221" lon="6.774297">
        <ele>1300.651</ele>
        <time>2018-07-13T09:42:50Z</time>
      </trkpt>
      <trkpt lat="45.887179" lon="6.774330">
        <ele>1301.310</ele>
        <time>2018-07-13T09:42:57Z</time>
      </trkpt>
      <trkpt lat="45.887121" lon="6.774330">
        <ele>1302.385</ele>
        <time>2018-07-13T09:43:07Z</time>
      </trkpt>
      <trkpt lat="45.887073" lon="6.774329">
        <ele>1303.464</ele>
        <time>2018-07-13T09:43:15Z</time>
      </trkpt>
      <trkpt lat="45.887021" lon="6.774327">
        <ele>1305.232</ele>
        <time>2018-07-13T09:43:22Z</time>
      </trkpt>
      <trkpt lat="45.886978" lon="6.774305">
        <ele>1305.992</ele>
        <time>2018-07-13T09:43:30Z</time>
      </trkpt>
      <trkpt lat="45.886929" lon="6.774309">
        <ele>1305.111</ele>
        <time>2018-07-13T09:43:38Z</time>
      </trkpt>
      <trkpt lat="45.886876" lon="6.774310">
        <ele>1306.208</ele>
        <time>2018-07-13T09:43:46Z</time>
      </trkpt>
      <trkpt lat="45.886832" lon="6.774340">
        <ele>1308.545</ele>
        <time>2018-07-13T09:44:05Z</time>
      </trkpt>
      <trkpt lat="45.886784" lon="6.774355">
        <ele>1309.468</ele>
        <time>2018-07-13T09:44:15Z</time>
      </trkpt>
      <trkpt lat="45.886734" lon="6.774376">
        <ele>1311.477</ele>
        <time>2018-07-13T09:44:22Z</time>
      </trkpt>
      <trkpt lat="45.886673" lon="6.774387">
        <ele>1314.136</ele>
        <time>2018-07-13T09:44:38Z</time>
      </trkpt>
      <trkpt lat="45.886625" lon="6.774375">
        <ele>1313.246</ele>
        <time>2018-07-13T09:44:48Z</time>
      </trkpt>
      <trkpt lat="45.886574" lon="6.774360">
        <ele>1314.165</ele>
        <time>2018-07-13T09:44:56Z</time>
      </trkpt>
      <trkpt lat="45.886529" lon="6.774352">
        <ele>1316.880</ele>
        <time>2018-07-13T09:45:03Z</time>
      </trkpt>
      <trkpt lat="45.886491" lon="6.774311">
        <ele>1316.019</ele>
        <time>2018-07-13T09:45:11Z</time>
      </trkpt>
      <trkpt lat="45.886480" lon="6.774243">
        <ele>1316.775</ele>
        <time>2018-07-13T09:45:23Z</time>
      </trkpt>
      <trkpt lat="45.886453" lon="6.774189">
        <ele>1318.828</ele>
        <time>2018-07-13T09:45:36Z</time>
      </trkpt>
      <trkpt lat="45.886456" lon="6.774116">
        <ele>1319.320</ele>
        <time>2018-07-13T09:45:44Z</time>
      </trkpt>
      <trkpt lat="45.886469" lon="6.774034">
        <ele>1320.508</ele>
        <time>2018-07-13T09:45:57Z</time>
      </trkpt>
      <trkpt lat="45.886494" lon="6.773980">
        <ele>1321.679</ele>
        <time>2018-07-13T09:46:05Z</time>
      </trkpt>
      <trkpt lat="45.886536" lon="6.773945">
        <ele>1322.462</ele>
        <time>2018-07-13T09:46:13Z</time>
      </trkpt>
      <trkpt lat="45.886573" lon="6.773908">
        <ele>1324.691</ele>
        <time>2018-07-13T09:46:32Z</time>
      </trkpt>
      <trkpt lat="45.886620" lon="6.773882">
        <ele>1325.690</ele>
        <time>2018-07-13T09:46:45Z</time>
      </trkpt>
      <trkpt lat="45.886676" lon="6.773844">
        <ele>1330.040</ele>
        <time>2018-07-13T09:47:56Z</time>
      </trkpt>
      <trkpt lat="45.886720" lon="6.773793">
        <ele>1329.729</ele>
        <time>2018-07-13T09:48:29Z</time>
      </trkpt>
      <trkpt lat="45.886765" lon="6.773780">
        <ele>1331.944</ele>
        <time>2018-07-13T09:48:47Z</time>
      </trkpt>
      <trkpt lat="45.886808" lon="6.773750">
        <ele>1333.243</ele>
        <time>2018-07-13T09:48:57Z</time>
      </trkpt>
      <trkpt lat="45.886849" lon="6.773717">
        <ele>1334.063</ele>
        <time>2018-07-13T09:49:12Z</time>
      </trkpt>
      <trkpt lat="45.886898" lon="6.773684">
        <ele>1337.144</ele>
        <time>2018-07-13T09:49:21Z</time>
      </trkpt>
      <trkpt lat="45.886932" lon="6.773624">
        <ele>1339.018</ele>
        <time>2018-07-13T09:49:36Z</time>
      </trkpt>
      <trkpt lat="45.886959" lon="6.773565">
        <ele>1339.708</ele>
        <time>2018-07-13T09:49:46Z</time>
      </trkpt>
      <trkpt lat="45.886933" lon="6.773513">
        <ele>1339.578</ele>
        <time>2018-07-13T09:50:02Z</time>
      </trkpt>
      <trkpt lat="45.886886" lon="6.773482">
        <ele>1342.251</ele>
        <time>2018-07-13T09:50:22Z</time>
      </trkpt>
      <trkpt lat="45.886839" lon="6.773456">
        <ele>1343.210</ele>
        <time>2018-07-13T09:50:40Z</time>
      </trkpt>
      <trkpt lat="45.886795" lon="6.773432">
        <ele>1344.669</ele>
        <time>2018-07-13T09:50:50Z</time>
      </trkpt>
      <trkpt lat="45.886753" lon="6.773400">
        <ele>1345.639</ele>
        <time>2018-07-13T09:51:00Z</time>
      </trkpt>
      <trkpt lat="45.886711" lon="6.773370">
        <ele>1346.848</ele>
        <time>2018-07-13T09:51:13Z</time>
      </trkpt>
      <trkpt lat="45.886678" lon="6.773318">
        <ele>1348.093</ele>
        <time>2018-07-13T09:51:25Z</time>
      </trkpt>
      <trkpt lat="45.886622" lon="6.773294">
        <ele>1348.812</ele>
        <time>2018-07-13T09:51:34Z</time>
      </trkpt>
      <trkpt lat="45.886580" lon="6.773263">
        <ele>1351.554</ele>
        <time>2018-07-13T09:51:41Z</time>
      </trkpt>
      <trkpt lat="45.886537" lon="6.773237">
        <ele>1352.756</ele>
        <time>2018-07-13T09:51:47Z</time>
      </trkpt>
      <trkpt lat="45.886489" lon="6.773215">
        <ele>1352.911</ele>
        <time>2018-07-13T09:51:53Z</time>
      </trkpt>
      <trkpt lat="45.886449" lon="6.773183">
        <ele>1351.608</ele>
        <time>2018-07-13T09:51:58Z</time>
      </trkpt>
      <trkpt lat="45.886408" lon="6.773146">
        <ele>1352.457</ele>
        <time>2018-07-13T09:52:05Z</time>
      </trkpt>
      <trkpt lat="45.886374" lon="6.773096">
        <ele>1352.890</ele>
        <time>2018-07-13T09:52:13Z</time>
      </trkpt>
      <trkpt lat="45.886337" lon="6.773056">
        <ele>1353.759</ele>
        <time>2018-07-13T09:52:20Z</time>
      </trkpt>
      <trkpt lat="45.886298" lon="6.773006">
        <ele>1354.118</ele>
        <time>2018-07-13T09:52:26Z</time>
      </trkpt>
      <trkpt lat="45.886282" lon="6.772944">
        <ele>1356.788</ele>
        <time>2018-07-13T09:52:32Z</time>
      </trkpt>
      <trkpt lat="45.886254" lon="6.772879">
        <ele>1354.767</ele>
        <time>2018-07-13T09:52:37Z</time>
      </trkpt>
      <trkpt lat="45.886230" lon="6.772816">
        <ele>1355.142</ele>
        <time>2018-07-13T09:52:43Z</time>
      </trkpt>
      <trkpt lat="45.886200" lon="6.772759">
        <ele>1355.041</ele>
        <time>2018-07-13T09:52:50Z</time>
      </trkpt>
      <trkpt lat="45.886160" lon="6.772720">
        <ele>1355.871</ele>
        <time>2018-07-13T09:52:56Z</time>
      </trkpt>
      <trkpt lat="45.886124" lon="6.772674">
        <ele>1356.541</ele>
        <time>2018-07-13T09:53:02Z</time>
      </trkpt>
      <trkpt lat="45.886100" lon="6.772620">
        <ele>1357.315</ele>
        <time>2018-07-13T09:53:09Z</time>
      </trkpt>
      <trkpt lat="45.886074" lon="6.772558">
        <ele>1358.108</ele>
        <time>2018-07-13T09:53:18Z</time>
      </trkpt>
      <trkpt lat="45.886043" lon="6.772498">
        <ele>1358.599</ele>
        <time>2018-07-13T09:53:25Z</time>
      </trkpt>
      <trkpt lat="45.886025" lon="6.772430">
        <ele>1359.052</ele>
        <time>2018-07-13T09:53:32Z</time>
      </trkpt>
      <trkpt lat="45.886007" lon="6.772369">
        <ele>1360.341</ele>
        <time>2018-07-13T09:53:38Z</time>
      </trkpt>
      <trkpt lat="45.885973" lon="6.772322">
        <ele>1360.810</ele>
        <time>2018-07-13T09:53:45Z</time>
      </trkpt>
      <trkpt lat="45.885951" lon="6.772261">
        <ele>1361.510</ele>
        <time>2018-07-13T09:53:53Z</time>
      </trkpt>
      <trkpt lat="45.885944" lon="6.772193">
        <ele>1362.579</ele>
        <time>2018-07-13T09:54:02Z</time>
      </trkpt>
      <trkpt lat="45.885954" lon="6.772124">
        <ele>1363.084</ele>
        <time>2018-07-13T09:54:11Z</time>
      </trkpt>
      <trkpt lat="45.885967" lon="6.772056">
        <ele>1363.873</ele>
        <time>2018-07-13T09:54:17Z</time>
      </trkpt>
      <trkpt lat="45.885971" lon="6.771989">
        <ele>1363.922</ele>
        <time>2018-07-13T09:54:22Z</time>
      </trkpt>
      <trkpt lat="45.885975" lon="6.771923">
        <ele>1364.562</ele>
        <time>2018-07-13T09:54:28Z</time>
      </trkpt>
      <trkpt lat="45.885977" lon="6.771844">
        <ele>1365.608</ele>
        <time>2018-07-13T09:54:37Z</time>
      </trkpt>
      <trkpt lat="45.885967" lon="6.771773">
        <ele>1366.208</ele>
        <time>2018-07-13T09:54:44Z</time>
      </trkpt>
      <trkpt lat="45.885952" lon="6.771712">
        <ele>1367.914</ele>
        <time>2018-07-13T09:54:55Z</time>
      </trkpt>
      <trkpt lat="45.885941" lon="6.771640">
        <ele>1368.067</ele>
        <time>2018-07-13T09:55:01Z</time>
      </trkpt>
      <trkpt lat="45.885924" lon="6.771568">
        <ele>1368.256</ele>
        <time>2018-07-13T09:55:06Z</time>
      </trkpt>
      <trkpt lat="45.885897" lon="6.771507">
        <ele>1369.135</ele>
        <time>2018-07-13T09:55:12Z</time>
      </trkpt>
      <trkpt lat="45.885870" lon="6.771444">
        <ele>1369.785</ele>
        <time>2018-07-13T09:55:19Z</time>
      </trkpt>
      <trkpt lat="45.885839" lon="6.771391">
        <ele>1369.954</ele>
        <time>2018-07-13T09:55:25Z</time>
      </trkpt>
      <trkpt lat="45.885821" lon="6.771331">
        <ele>1370.589</ele>
        <time>2018-07-13T09:55:30Z</time>
      </trkpt>
      <trkpt lat="45.885789" lon="6.771280">
        <ele>1371.098</ele>
        <time>2018-07-13T09:55:37Z</time>
      </trkpt>
      <trkpt lat="45.885733" lon="6.771263">
        <ele>1371.931</ele>
        <time>2018-07-13T09:55:48Z</time>
      </trkpt>
      <trkpt lat="45.885708" lon="6.771205">
        <ele>1373.661</ele>
        <time>2018-07-13T09:55:59Z</time>
      </trkpt>
      <trkpt lat="45.885730" lon="6.771148">
        <ele>1375.007</ele>
        <time>2018-07-13T09:56:08Z</time>
      </trkpt>
      <trkpt lat="45.885774" lon="6.771129">
        <ele>1377.508</ele>
        <time>2018-07-13T09:56:30Z</time>
      </trkpt>
      <trkpt lat="45.885821" lon="6.771140">
        <ele>1378.315</ele>
        <time>2018-07-13T09:56:37Z</time>
      </trkpt>
      <trkpt lat="45.885871" lon="6.771141">
        <ele>1378.418</ele>
        <time>2018-07-13T09:56:45Z</time>
      </trkpt>
      <trkpt lat="45.885915" lon="6.771154">
        <ele>1379.517</ele>
        <time>2018-07-13T09:56:52Z</time>
      </trkpt>
      <trkpt lat="45.885957" lon="6.771120">
        <ele>1378.436</ele>
        <time>2018-07-13T09:57:05Z</time>
      </trkpt>
      <trkpt lat="45.886002" lon="6.771121">
        <ele>1381.646</ele>
        <time>2018-07-13T09:57:12Z</time>
      </trkpt>
      <trkpt lat="45.886050" lon="6.771115">
        <ele>1381.875</ele>
        <time>2018-07-13T09:57:19Z</time>
      </trkpt>
      <trkpt lat="45.886097" lon="6.771105">
        <ele>1380.970</ele>
        <time>2018-07-13T09:57:26Z</time>
      </trkpt>
      <trkpt lat="45.886162" lon="6.771092">
        <ele>1381.489</ele>
        <time>2018-07-13T09:57:47Z</time>
      </trkpt>
      <trkpt lat="45.886206" lon="6.771076">
        <ele>1382.286</ele>
        <time>2018-07-13T09:57:55Z</time>
      </trkpt>
      <trkpt lat="45.886254" lon="6.771057">
        <ele>1382.660</ele>
        <time>2018-07-13T09:58:02Z</time>
      </trkpt>
      <trkpt lat="45.886302" lon="6.771033">
        <ele>1383.126</ele>
        <time>2018-07-13T09:58:10Z</time>
      </trkpt>
      <trkpt lat="45.886353" lon="6.771022">
        <ele>1384.308</ele>
        <time>2018-07-13T09:58:17Z</time>
      </trkpt>
      <trkpt lat="45.886402" lon="6.771010">
        <ele>1385.250</ele>
        <time>2018-07-13T09:58:23Z</time>
      </trkpt>
      <trkpt lat="45.886450" lon="6.771000">
        <ele>1386.043</ele>
        <time>2018-07-13T09:58:30Z</time>
      </trkpt>
      <trkpt lat="45.886496" lon="6.771009">
        <ele>1385.622</ele>
        <time>2018-07-13T09:58:37Z</time>
      </trkpt>
      <trkpt lat="45.886544" lon="6.771019">
        <ele>1386.921</ele>
        <time>2018-07-13T09:58:46Z</time>
      </trkpt>
      <trkpt lat="45.886593" lon="6.771033">
        <ele>1388.281</ele>
        <time>2018-07-13T09:58:54Z</time>
      </trkpt>
      <trkpt lat="45.886642" lon="6.771052">
        <ele>1389.040</ele>
        <time>2018-07-13T09:59:04Z</time>
      </trkpt>
      <trkpt lat="45.886689" lon="6.771067">
        <ele>1390.245</ele>
        <time>2018-07-13T09:59:13Z</time>
      </trkpt>
      <trkpt lat="45.886771" lon="6.771055">
        <ele>1395.394</ele>
        <time>2018-07-13T10:00:19Z</time>
      </trkpt>
      <trkpt lat="45.886767" lon="6.770987">
        <ele>1394.663</ele>
        <time>2018-07-13T10:00:52Z</time>
      </trkpt>
      <trkpt lat="45.886773" lon="6.770921">
        <ele>1396.044</ele>
        <time>2018-07-13T10:01:08Z</time>
      </trkpt>
      <trkpt lat="45.886759" lon="6.770853">
        <ele>1396.218</ele>
        <time>2018-07-13T10:01:16Z</time>
      </trkpt>
      <trkpt lat="45.886733" lon="6.770794">
        <ele>1397.608</ele>
        <time>2018-07-13T10:01:26Z</time>
      </trkpt>
      <trkpt lat="45.886711" lon="6.770735">
        <ele>1399.238</ele>
        <time>2018-07-13T10:01:37Z</time>
      </trkpt>
      <trkpt lat="45.886700" lon="6.770666">
        <ele>1399.611</ele>
        <time>2018-07-13T10:01:47Z</time>
      </trkpt>
      <trkpt lat="45.886725" lon="6.770609">
        <ele>1400.720</ele>
        <time>2018-07-13T10:02:06Z</time>
      </trkpt>
      <trkpt lat="45.886734" lon="6.770538">
        <ele>1402.269</ele>
        <time>2018-07-13T10:02:15Z</time>
      </trkpt>
      <trkpt lat="45.886723" lon="6.770473">
        <ele>1403.499</ele>
        <time>2018-07-13T10:02:26Z</time>
      </trkpt>
      <trkpt lat="45.886708" lon="6.770408">
        <ele>1406.578</ele>
        <time>2018-07-13T10:02:44Z</time>
      </trkpt>
      <trkpt lat="45.886705" lon="6.770342">
        <ele>1407.933</ele>
        <time>2018-07-13T10:02:52Z</time>
      </trkpt>
      <trkpt lat="45.886718" lon="6.770278">
        <ele>1408.152</ele>
        <time>2018-07-13T10:03:07Z</time>
      </trkpt>
      <trkpt lat="45.886759" lon="6.770241">
        <ele>1410.414</ele>
        <time>2018-07-13T10:03:26Z</time>
      </trkpt>
      <trkpt lat="45.886784" lon="6.770186">
        <ele>1411.354</ele>
        <time>2018-07-13T10:03:35Z</time>
      </trkpt>
      <trkpt lat="45.886794" lon="6.770121">
        <ele>1411.809</ele>
        <time>2018-07-13T10:03:44Z</time>
      </trkpt>
      <trkpt lat="45.886766" lon="6.770070">
        <ele>1414.008</ele>
        <time>2018-07-13T10:04:13Z</time>
      </trkpt>
      <trkpt lat="45.886719" lon="6.770062">
        <ele>1417.593</ele>
        <time>2018-07-13T10:04:24Z</time>
      </trkpt>
      <trkpt lat="45.886686" lon="6.770012">
        <ele>1416.536</ele>
        <time>2018-07-13T10:04:35Z</time>
      </trkpt>
      <trkpt lat="45.886652" lon="6.769964">
        <ele>1417.355</ele>
        <time>2018-07-13T10:04:46Z</time>
      </trkpt>
      <trkpt lat="45.886631" lon="6.769904">
        <ele>1418.424</ele>
        <time>2018-07-13T10:04:56Z</time>
      </trkpt>
      <trkpt lat="45.886623" lon="6.769822">
        <ele>1420.874</ele>
        <time>2018-07-13T10:05:18Z</time>
      </trkpt>
      <trkpt lat="45.886678" lon="6.769746">
        <ele>1423.283</ele>
        <time>2018-07-13T10:05:42Z</time>
      </trkpt>
      <trkpt lat="45.886700" lon="6.769687">
        <ele>1424.948</ele>
        <time>2018-07-13T10:05:57Z</time>
      </trkpt>
      <trkpt lat="45.886721" lon="6.769622">
        <ele>1426.787</ele>
        <time>2018-07-13T10:06:12Z</time>
      </trkpt>
      <trkpt lat="45.886761" lon="6.769575">
        <ele>1427.961</ele>
        <time>2018-07-13T10:06:23Z</time>
      </trkpt>
      <trkpt lat="45.886794" lon="6.769529">
        <ele>1428.921</ele>
        <time>2018-07-13T10:06:31Z</time>
      </trkpt>
      <trkpt lat="45.886824" lon="6.769478">
        <ele>1430.413</ele>
        <time>2018-07-13T10:06:42Z</time>
      </trkpt>
      <trkpt lat="45.886838" lon="6.769405">
        <ele>1431.108</ele>
        <time>2018-07-13T10:06:49Z</time>
      </trkpt>
      <trkpt lat="45.886855" lon="6.769339">
        <ele>1433.718</ele>
        <time>2018-07-13T10:07:15Z</time>
      </trkpt>
      <trkpt lat="45.886848" lon="6.769273">
        <ele>1437.661</ele>
        <time>2018-07-13T10:07:31Z</time>
      </trkpt>
      <trkpt lat="45.886820" lon="6.769218">
        <ele>1437.470</ele>
        <time>2018-07-13T10:07:49Z</time>
      </trkpt>
      <trkpt lat="45.886782" lon="6.769177">
        <ele>1439.219</ele>
        <time>2018-07-13T10:08:03Z</time>
      </trkpt>
      <trkpt lat="45.886737" lon="6.769166">
        <ele>1440.769</ele>
        <time>2018-07-13T10:08:17Z</time>
      </trkpt>
      <trkpt lat="45.886710" lon="6.769112">
        <ele>1442.918</ele>
        <time>2018-07-13T10:08:48Z</time>
      </trkpt>
      <trkpt lat="45.886710" lon="6.769031">
        <ele>1443.223</ele>
        <time>2018-07-13T10:09:03Z</time>
      </trkpt>
      <trkpt lat="45.886670" lon="6.768983">
        <ele>1444.632</ele>
        <time>2018-07-13T10:09:14Z</time>
      </trkpt>
      <trkpt lat="45.886639" lon="6.768936">
        <ele>1444.511</ele>
        <time>2018-07-13T10:09:20Z</time>
      </trkpt>
      <trkpt lat="45.886629" lon="6.768871">
        <ele>1445.521</ele>
        <time>2018-07-13T10:09:36Z</time>
      </trkpt>
      <trkpt lat="45.886640" lon="6.768798">
        <ele>1445.103</ele>
        <time>2018-07-13T10:09:48Z</time>
      </trkpt>
      <trkpt lat="45.886630" lon="6.768735">
        <ele>1445.908</ele>
        <time>2018-07-13T10:09:56Z</time>
      </trkpt>
      <trkpt lat="45.886628" lon="6.768662">
        <ele>1446.853</ele>
        <time>2018-07-13T10:10:02Z</time>
      </trkpt>
      <trkpt lat="45.886627" lon="6.768593">
        <ele>1447.976</ele>
        <time>2018-07-13T10:10:13Z</time>
      </trkpt>
      <trkpt lat="45.886598" lon="6.768543">
        <ele>1450.295</ele>
        <time>2018-07-13T10:11:05Z</time>
      </trkpt>
      <trkpt lat="45.886578" lon="6.768484">
        <ele>1452.234</ele>
        <time>2018-07-13T10:11:20Z</time>
      </trkpt>
      <trkpt lat="45.886573" lon="6.768419">
        <ele>1452.974</ele>
        <time>2018-07-13T10:11:29Z</time>
      </trkpt>
      <trkpt lat="45.886587" lon="6.768349">
        <ele>1454.613</ele>
        <time>2018-07-13T10:11:40Z</time>
      </trkpt>
      <trkpt lat="45.886577" lon="6.768285">
        <ele>1455.618</ele>
        <time>2018-07-13T10:11:47Z</time>
      </trkpt>
      <trkpt lat="45.886559" lon="6.768221">
        <ele>1457.077</ele>
        <time>2018-07-13T10:11:57Z</time>
      </trkpt>
      <trkpt lat="45.886561" lon="6.768137">
        <ele>1458.449</ele>
        <time>2018-07-13T10:12:33Z</time>
      </trkpt>
      <trkpt lat="45.886601" lon="6.768092">
        <ele>1458.802</ele>
        <time>2018-07-13T10:12:43Z</time>
      </trkpt>
      <trkpt lat="45.886612" lon="6.768024">
        <ele>1460.022</ele>
        <time>2018-07-13T10:12:53Z</time>
      </trkpt>
      <trkpt lat="45.886616" lon="6.767957">
        <ele>1461.308</ele>
        <time>2018-07-13T10:13:03Z</time>
      </trkpt>
      <trkpt lat="45.886633" lon="6.767895">
        <ele>1463.546</ele>
        <time>2018-07-13T10:13:18Z</time>
      </trkpt>
      <trkpt lat="45.886634" lon="6.767822">
        <ele>1465.099</ele>
        <time>2018-07-13T10:13:28Z</time>
      </trkpt>
      <trkpt lat="45.886636" lon="6.767756">
        <ele>1465.418</ele>
        <time>2018-07-13T10:13:36Z</time>
      </trkpt>
      <trkpt lat="45.886633" lon="6.767691">
        <ele>1466.717</ele>
        <time>2018-07-13T10:13:43Z</time>
      </trkpt>
      <trkpt lat="45.886578" lon="6.767702">
        <ele>1467.227</ele>
        <time>2018-07-13T10:15:02Z</time>
      </trkpt>
      <trkpt lat="45.886575" lon="6.767636">
        <ele>1468.066</ele>
        <time>2018-07-13T10:16:00Z</time>
      </trkpt>
      <trkpt lat="45.886545" lon="6.767583">
        <ele>1469.331</ele>
        <time>2018-07-13T10:16:12Z</time>
      </trkpt>
      <trkpt lat="45.886522" lon="6.767523">
        <ele>1470.330</ele>
        <time>2018-07-13T10:16:21Z</time>
      </trkpt>
      <trkpt lat="45.886506" lon="6.767457">
        <ele>1471.987</ele>
        <time>2018-07-13T10:16:36Z</time>
      </trkpt>
      <trkpt lat="45.886482" lon="6.767397">
        <ele>1473.542</ele>
        <time>2018-07-13T10:16:48Z</time>
      </trkpt>
      <trkpt lat="45.886446" lon="6.767351">
        <ele>1474.626</ele>
        <time>2018-07-13T10:16:58Z</time>
      </trkpt>
      <trkpt lat="45.886435" lon="6.767286">
        <ele>1475.908</ele>
        <time>2018-07-13T10:17:12Z</time>
      </trkpt>
      <trkpt lat="45.886441" lon="6.767221">
        <ele>1477.540</ele>
        <time>2018-07-13T10:17:22Z</time>
      </trkpt>
      <trkpt lat="45.886455" lon="6.767156">
        <ele>1480.193</ele>
        <time>2018-07-13T10:17:40Z</time>
      </trkpt>
      <trkpt lat="45.886673" lon="6.766934">
        <ele>1483.782</ele>
        <time>2018-07-13T10:18:02Z</time>
      </trkpt>
      <trkpt lat="45.886590" lon="6.767089">
        <ele>1481.521</ele>
        <time>2018-07-13T10:18:23Z</time>
      </trkpt>
      <trkpt lat="45.886641" lon="6.767087">
        <ele>1485.861</ele>
        <time>2018-07-13T10:18:55Z</time>
      </trkpt>
      <trkpt lat="45.886680" lon="6.767033">
        <ele>1486.860</ele>
        <time>2018-07-13T10:19:01Z</time>
      </trkpt>
      <trkpt lat="45.886706" lon="6.766975">
        <ele>1488.445</ele>
        <time>2018-07-13T10:19:12Z</time>
      </trkpt>
      <trkpt lat="45.886690" lon="6.766914">
        <ele>1489.554</ele>
        <time>2018-07-13T10:19:24Z</time>
      </trkpt>
      <trkpt lat="45.886676" lon="6.766848">
        <ele>1491.293</ele>
        <time>2018-07-13T10:19:34Z</time>
      </trkpt>
      <trkpt lat="45.886663" lon="6.766776">
        <ele>1492.565</ele>
        <time>2018-07-13T10:19:46Z</time>
      </trkpt>
      <trkpt lat="45.886656" lon="6.766707">
        <ele>1493.421</ele>
        <time>2018-07-13T10:19:54Z</time>
      </trkpt>
      <trkpt lat="45.886640" lon="6.766645">
        <ele>1494.108</ele>
        <time>2018-07-13T10:20:00Z</time>
      </trkpt>
      <trkpt lat="45.886627" lon="6.766571">
        <ele>1494.991</ele>
        <time>2018-07-13T10:20:06Z</time>
      </trkpt>
      <trkpt lat="45.886635" lon="6.766527">
        <ele>1498.254</ele>
        <time>2018-07-13T10:29:07Z</time>
      </trkpt>
      <trkpt lat="45.886639" lon="6.766457">
        <ele>1498.573</ele>
        <time>2018-07-13T10:29:17Z</time>
      </trkpt>
      <trkpt lat="45.886630" lon="6.766390">
        <ele>1497.242</ele>
        <time>2018-07-13T10:29:22Z</time>
      </trkpt>
      <trkpt lat="45.886642" lon="6.766327">
        <ele>1498.532</ele>
        <time>2018-07-13T10:29:32Z</time>
      </trkpt>
      <trkpt lat="45.886648" lon="6.766259">
        <ele>1498.891</ele>
        <time>2018-07-13T10:29:40Z</time>
      </trkpt>
      <trkpt lat="45.886652" lon="6.766193">
        <ele>1499.716</ele>
        <time>2018-07-13T10:29:47Z</time>
      </trkpt>
      <trkpt lat="45.886639" lon="6.766130">
        <ele>1500.335</ele>
        <time>2018-07-13T10:29:53Z</time>
      </trkpt>
      <trkpt lat="45.886610" lon="6.766076">
        <ele>1501.746</ele>
        <time>2018-07-13T10:29:59Z</time>
      </trkpt>
      <trkpt lat="45.886568" lon="6.766033">
        <ele>1502.188</ele>
        <time>2018-07-13T10:30:07Z</time>
      </trkpt>
      <trkpt lat="45.886540" lon="6.765974">
        <ele>1503.316</ele>
        <time>2018-07-13T10:30:15Z</time>
      </trkpt>
      <trkpt lat="45.886521" lon="6.765911">
        <ele>1504.308</ele>
        <time>2018-07-13T10:30:23Z</time>
      </trkpt>
      <trkpt lat="45.886499" lon="6.765850">
        <ele>1505.516</ele>
        <time>2018-07-13T10:30:31Z</time>
      </trkpt>
      <trkpt lat="45.886472" lon="6.765798">
        <ele>1507.219</ele>
        <time>2018-07-13T10:30:41Z</time>
      </trkpt>
      <trkpt lat="45.886428" lon="6.765766">
        <ele>1507.738</ele>
        <time>2018-07-13T10:30:50Z</time>
      </trkpt>
      <trkpt lat="45.886404" lon="6.765701">
        <ele>1508.997</ele>
        <time>2018-07-13T10:30:57Z</time>
      </trkpt>
      <trkpt lat="45.886373" lon="6.765648">
        <ele>1509.687</ele>
        <time>2018-07-13T10:31:04Z</time>
      </trkpt>
      <trkpt lat="45.886344" lon="6.765590">
        <ele>1511.026</ele>
        <time>2018-07-13T10:31:13Z</time>
      </trkpt>
      <trkpt lat="45.886311" lon="6.765545">
        <ele>1511.971</ele>
        <time>2018-07-13T10:31:21Z</time>
      </trkpt>
      <trkpt lat="45.886270" lon="6.765517">
        <ele>1513.020</ele>
        <time>2018-07-13T10:31:30Z</time>
      </trkpt>
      <trkpt lat="45.886231" lon="6.765484">
        <ele>1514.241</ele>
        <time>2018-07-13T10:31:40Z</time>
      </trkpt>
      <trkpt lat="45.886195" lon="6.765433">
        <ele>1515.381</ele>
        <time>2018-07-13T10:31:49Z</time>
      </trkpt>
      <trkpt lat="45.886149" lon="6.765402">
        <ele>1516.009</ele>
        <time>2018-07-13T10:31:56Z</time>
      </trkpt>
      <trkpt lat="45.886112" lon="6.765365">
        <ele>1516.908</ele>
        <time>2018-07-13T10:32:04Z</time>
      </trkpt>
      <trkpt lat="45.886062" lon="6.765344">
        <ele>1517.856</ele>
        <time>2018-07-13T10:32:12Z</time>
      </trkpt>
      <trkpt lat="45.886019" lon="6.765312">
        <ele>1518.659</ele>
        <time>2018-07-13T10:32:21Z</time>
      </trkpt>
      <trkpt lat="45.885986" lon="6.765262">
        <ele>1520.438</ele>
        <time>2018-07-13T10:32:29Z</time>
      </trkpt>
      <trkpt lat="45.885952" lon="6.765216">
        <ele>1520.877</ele>
        <time>2018-07-13T10:32:40Z</time>
      </trkpt>
      <trkpt lat="45.885911" lon="6.765180">
        <ele>1521.737</ele>
        <time>2018-07-13T10:32:47Z</time>
      </trkpt>
      <trkpt lat="45.885877" lon="6.765131">
        <ele>1522.546</ele>
        <time>2018-07-13T10:32:55Z</time>
      </trkpt>
      <trkpt lat="45.885839" lon="6.765087">
        <ele>1523.871</ele>
        <time>2018-07-13T10:33:05Z</time>
      </trkpt>
      <trkpt lat="45.885808" lon="6.765035">
        <ele>1524.660</ele>
        <time>2018-07-13T10:33:12Z</time>
      </trkpt>
      <trkpt lat="45.885794" lon="6.764970">
        <ele>1525.654</ele>
        <time>2018-07-13T10:33:18Z</time>
      </trkpt>
      <trkpt lat="45.885774" lon="6.764903">
        <ele>1526.156</ele>
        <time>2018-07-13T10:33:25Z</time>
      </trkpt>
      <trkpt lat="45.885726" lon="6.764878">
        <ele>1527.111</ele>
        <time>2018-07-13T10:33:35Z</time>
      </trkpt>
      <trkpt lat="45.885689" lon="6.764826">
        <ele>1528.708</ele>
        <time>2018-07-13T10:33:47Z</time>
      </trkpt>
      <trkpt lat="45.885665" lon="6.764770">
        <ele>1529.537</ele>
        <time>2018-07-13T10:33:57Z</time>
      </trkpt>
      <trkpt lat="45.885620" lon="6.764747">
        <ele>1531.090</ele>
        <time>2018-07-13T10:34:08Z</time>
      </trkpt>
      <trkpt lat="45.885583" lon="6.764703">
        <ele>1532.429</ele>
        <time>2018-07-13T10:34:19Z</time>
      </trkpt>
      <trkpt lat="45.885552" lon="6.764655">
        <ele>1536.098</ele>
        <time>2018-07-13T10:34:35Z</time>
      </trkpt>
      <trkpt lat="45.885500" lon="6.764635">
        <ele>1535.458</ele>
        <time>2018-07-13T10:34:44Z</time>
      </trkpt>
      <trkpt lat="45.885460" lon="6.764599">
        <ele>1536.127</ele>
        <time>2018-07-13T10:34:54Z</time>
      </trkpt>
      <trkpt lat="45.885448" lon="6.764531">
        <ele>1537.892</ele>
        <time>2018-07-13T10:35:05Z</time>
      </trkpt>
      <trkpt lat="45.885411" lon="6.764484">
        <ele>1538.851</ele>
        <time>2018-07-13T10:35:15Z</time>
      </trkpt>
      <trkpt lat="45.885376" lon="6.764440">
        <ele>1540.892</ele>
        <time>2018-07-13T10:35:35Z</time>
      </trkpt>
      <trkpt lat="45.885337" lon="6.764404">
        <ele>1542.673</ele>
        <time>2018-07-13T10:35:47Z</time>
      </trkpt>
      <trkpt lat="45.885330" lon="6.764335">
        <ele>1544.520</ele>
        <time>2018-07-13T10:36:01Z</time>
      </trkpt>
      <trkpt lat="45.885347" lon="6.764273">
        <ele>1544.408</ele>
        <time>2018-07-13T10:36:07Z</time>
      </trkpt>
      <trkpt lat="45.885321" lon="6.764215">
        <ele>1546.261</ele>
        <time>2018-07-13T10:36:17Z</time>
      </trkpt>
      <trkpt lat="45.885278" lon="6.764181">
        <ele>1547.284</ele>
        <time>2018-07-13T10:36:25Z</time>
      </trkpt>
      <trkpt lat="45.885241" lon="6.764129">
        <ele>1548.333</ele>
        <time>2018-07-13T10:36:34Z</time>
      </trkpt>
      <trkpt lat="45.885205" lon="6.764083">
        <ele>1550.592</ele>
        <time>2018-07-13T10:36:50Z</time>
      </trkpt>
      <trkpt lat="45.885145" lon="6.764072">
        <ele>1551.782</ele>
        <time>2018-07-13T10:37:01Z</time>
      </trkpt>
      <trkpt lat="45.885102" lon="6.764050">
        <ele>1552.541</ele>
        <time>2018-07-13T10:37:08Z</time>
      </trkpt>
      <trkpt lat="45.885067" lon="6.763988">
        <ele>1554.166</ele>
        <time>2018-07-13T10:37:20Z</time>
      </trkpt>
      <trkpt lat="45.885025" lon="6.763965">
        <ele>1555.185</ele>
        <time>2018-07-13T10:37:25Z</time>
      </trkpt>
      <trkpt lat="45.884977" lon="6.763938">
        <ele>1556.397</ele>
        <time>2018-07-13T10:37:36Z</time>
      </trkpt>
      <trkpt lat="45.884924" lon="6.763956">
        <ele>1557.323</ele>
        <time>2018-07-13T10:37:42Z</time>
      </trkpt>
      <trkpt lat="45.884878" lon="6.763940">
        <ele>1558.525</ele>
        <time>2018-07-13T10:37:54Z</time>
      </trkpt>
      <trkpt lat="45.884828" lon="6.763922">
        <ele>1559.008</ele>
        <time>2018-07-13T10:37:59Z</time>
      </trkpt>
      <trkpt lat="45.884782" lon="6.763908">
        <ele>1559.851</ele>
        <time>2018-07-13T10:38:04Z</time>
      </trkpt>
      <trkpt lat="45.884739" lon="6.763887">
        <ele>1560.924</ele>
        <time>2018-07-13T10:38:15Z</time>
      </trkpt>
      <trkpt lat="45.884677" lon="6.763878">
        <ele>1563.153</ele>
        <time>2018-07-13T10:38:31Z</time>
      </trkpt>
      <trkpt lat="45.884631" lon="6.763857">
        <ele>1565.242</ele>
        <time>2018-07-13T10:38:43Z</time>
      </trkpt>
      <trkpt lat="45.884587" lon="6.763839">
        <ele>1566.192</ele>
        <time>2018-07-13T10:38:54Z</time>
      </trkpt>
      <trkpt lat="45.884537" lon="6.763813">
        <ele>1567.371</ele>
        <time>2018-07-13T10:39:05Z</time>
      </trkpt>
      <trkpt lat="45.884491" lon="6.763801">
        <ele>1568.056</ele>
        <time>2018-07-13T10:39:10Z</time>
      </trkpt>
      <trkpt lat="45.884445" lon="6.763780">
        <ele>1569.245</ele>
        <time>2018-07-13T10:39:16Z</time>
      </trkpt>
      <trkpt lat="45.884395" lon="6.763759">
        <ele>1571.455</ele>
        <time>2018-07-13T10:39:23Z</time>
      </trkpt>
      <trkpt lat="45.884344" lon="6.763757">
        <ele>1569.807</ele>
        <time>2018-07-13T10:39:30Z</time>
      </trkpt>
      <trkpt lat="45.884299" lon="6.763763">
        <ele>1571.217</ele>
        <time>2018-07-13T10:39:38Z</time>
      </trkpt>
      <trkpt lat="45.884249" lon="6.763764">
        <ele>1572.208</ele>
        <time>2018-07-13T10:39:45Z</time>
      </trkpt>
      <trkpt lat="45.884206" lon="6.763737">
        <ele>1572.517</ele>
        <time>2018-07-13T10:39:52Z</time>
      </trkpt>
      <trkpt lat="45.884177" lon="6.763684">
        <ele>1573.550</ele>
        <time>2018-07-13T10:40:11Z</time>
      </trkpt>
      <trkpt lat="45.884156" lon="6.763622">
        <ele>1574.369</ele>
        <time>2018-07-13T10:41:19Z</time>
      </trkpt>
      <trkpt lat="45.884154" lon="6.763552">
        <ele>1575.338</ele>
        <time>2018-07-13T10:41:28Z</time>
      </trkpt>
      <trkpt lat="45.884150" lon="6.763484">
        <ele>1575.968</ele>
        <time>2018-07-13T10:41:36Z</time>
      </trkpt>
      <trkpt lat="45.884129" lon="6.763426">
        <ele>1576.857</ele>
        <time>2018-07-13T10:41:43Z</time>
      </trkpt>
      <trkpt lat="45.884098" lon="6.763377">
        <ele>1577.642</ele>
        <time>2018-07-13T10:41:51Z</time>
      </trkpt>
      <trkpt lat="45.884073" lon="6.763323">
        <ele>1579.251</ele>
        <time>2018-07-13T10:42:01Z</time>
      </trkpt>
      <trkpt lat="45.884051" lon="6.763263">
        <ele>1580.812</ele>
        <time>2018-07-13T10:42:14Z</time>
      </trkpt>
      <trkpt lat="45.884042" lon="6.763198">
        <ele>1583.232</ele>
        <time>2018-07-13T10:42:25Z</time>
      </trkpt>
      <trkpt lat="45.884025" lon="6.763128">
        <ele>1583.605</ele>
        <time>2018-07-13T10:42:38Z</time>
      </trkpt>
      <trkpt lat="45.884045" lon="6.763062">
        <ele>1584.108</ele>
        <time>2018-07-13T10:42:48Z</time>
      </trkpt>
      <trkpt lat="45.884065" lon="6.763001">
        <ele>1584.953</ele>
        <time>2018-07-13T10:42:56Z</time>
      </trkpt>
      <trkpt lat="45.884075" lon="6.762926">
        <ele>1586.366</ele>
        <time>2018-07-13T10:43:08Z</time>
      </trkpt>
      <trkpt lat="45.884090" lon="6.762864">
        <ele>1587.035</ele>
        <time>2018-07-13T10:43:27Z</time>
      </trkpt>
      <trkpt lat="45.884089" lon="6.762799">
        <ele>1587.114</ele>
        <time>2018-07-13T10:43:32Z</time>
      </trkpt>
      <trkpt lat="45.884079" lon="6.762731">
        <ele>1587.474</ele>
        <time>2018-07-13T10:43:37Z</time>
      </trkpt>
      <trkpt lat="45.884065" lon="6.762657">
        <ele>1587.833</ele>
        <time>2018-07-13T10:43:43Z</time>
      </trkpt>
      <trkpt lat="45.884047" lon="6.762589">
        <ele>1589.318</ele>
        <time>2018-07-13T10:43:48Z</time>
      </trkpt>
      <trkpt lat="45.884032" lon="6.762518">
        <ele>1588.577</ele>
        <time>2018-07-13T10:43:53Z</time>
      </trkpt>
      <trkpt lat="45.884019" lon="6.762444">
        <ele>1589.167</ele>
        <time>2018-07-13T10:43:58Z</time>
      </trkpt>
      <trkpt lat="45.884008" lon="6.762377">
        <ele>1589.081</ele>
        <time>2018-07-13T10:44:02Z</time>
      </trkpt>
      <trkpt lat="45.884010" lon="6.762304">
        <ele>1589.219</ele>
        <time>2018-07-13T10:44:06Z</time>
      </trkpt>
      <trkpt lat="45.884016" lon="6.762234">
        <ele>1589.108</ele>
        <time>2018-07-13T10:44:10Z</time>
      </trkpt>
      <trkpt lat="45.884018" lon="6.762166">
        <ele>1589.378</ele>
        <time>2018-07-13T10:44:14Z</time>
      </trkpt>
      <trkpt lat="45.884010" lon="6.762102">
        <ele>1589.521</ele>
        <time>2018-07-13T10:44:18Z</time>
      </trkpt>
      <trkpt lat="45.884001" lon="6.762038">
        <ele>1589.580</ele>
        <time>2018-07-13T10:44:22Z</time>
      </trkpt>
      <trkpt lat="45.883991" lon="6.761972">
        <ele>1589.499</ele>
        <time>2018-07-13T10:44:26Z</time>
      </trkpt>
      <trkpt lat="45.883979" lon="6.761906">
        <ele>1589.429</ele>
        <time>2018-07-13T10:44:30Z</time>
      </trkpt>
      <trkpt lat="45.883966" lon="6.761836">
        <ele>1589.318</ele>
        <time>2018-07-13T10:44:34Z</time>
      </trkpt>
      <trkpt lat="45.883942" lon="6.761773">
        <ele>1589.493</ele>
        <time>2018-07-13T10:44:38Z</time>
      </trkpt>
      <trkpt lat="45.883924" lon="6.761706">
        <ele>1589.152</ele>
        <time>2018-07-13T10:44:42Z</time>
      </trkpt>
      <trkpt lat="45.883910" lon="6.761628">
        <ele>1589.189</ele>
        <time>2018-07-13T10:44:47Z</time>
      </trkpt>
      <trkpt lat="45.883883" lon="6.761562">
        <ele>1589.906</ele>
        <time>2018-07-13T10:44:52Z</time>
      </trkpt>
      <trkpt lat="45.883844" lon="6.761506">
        <ele>1589.726</ele>
        <time>2018-07-13T10:44:57Z</time>
      </trkpt>
      <trkpt lat="45.883802" lon="6.761453">
        <ele>1589.508</ele>
        <time>2018-07-13T10:45:02Z</time>
      </trkpt>
      <trkpt lat="45.883766" lon="6.761397">
        <ele>1590.310</ele>
        <time>2018-07-13T10:45:07Z</time>
      </trkpt>
      <trkpt lat="45.883725" lon="6.761357">
        <ele>1590.493</ele>
        <time>2018-07-13T10:45:12Z</time>
      </trkpt>
      <trkpt lat="45.883687" lon="6.761310">
        <ele>1591.082</ele>
        <time>2018-07-13T10:45:17Z</time>
      </trkpt>
      <trkpt lat="45.883645" lon="6.761268">
        <ele>1592.031</ele>
        <time>2018-07-13T10:45:23Z</time>
      </trkpt>
      <trkpt lat="45.883604" lon="6.761237">
        <ele>1592.311</ele>
        <time>2018-07-13T10:45:29Z</time>
      </trkpt>
      <trkpt lat="45.883562" lon="6.761198">
        <ele>1593.710</ele>
        <time>2018-07-13T10:45:36Z</time>
      </trkpt>
      <trkpt lat="45.883519" lon="6.761168">
        <ele>1594.955</ele>
        <time>2018-07-13T10:45:45Z</time>
      </trkpt>
      <trkpt lat="45.883476" lon="6.761139">
        <ele>1596.344</ele>
        <time>2018-07-13T10:45:53Z</time>
      </trkpt>
      <trkpt lat="45.883433" lon="6.761108">
        <ele>1597.514</ele>
        <time>2018-07-13T10:46:00Z</time>
      </trkpt>
      <trkpt lat="45.883385" lon="6.761087">
        <ele>1598.154</ele>
        <time>2018-07-13T10:46:07Z</time>
      </trkpt>
      <trkpt lat="45.883338" lon="6.761065">
        <ele>1599.009</ele>
        <time>2018-07-13T10:46:14Z</time>
      </trkpt>
      <trkpt lat="45.883292" lon="6.761054">
        <ele>1599.808</ele>
        <time>2018-07-13T10:46:21Z</time>
      </trkpt>
      <trkpt lat="45.883238" lon="6.761050">
        <ele>1600.943</ele>
        <time>2018-07-13T10:46:52Z</time>
      </trkpt>
      <trkpt lat="45.883188" lon="6.761047">
        <ele>1602.326</ele>
        <time>2018-07-13T10:47:01Z</time>
      </trkpt>
      <trkpt lat="45.883143" lon="6.761027">
        <ele>1603.565</ele>
        <time>2018-07-13T10:47:08Z</time>
      </trkpt>
      <trkpt lat="45.883094" lon="6.761020">
        <ele>1604.484</ele>
        <time>2018-07-13T10:47:15Z</time>
      </trkpt>
      <trkpt lat="45.883045" lon="6.761016">
        <ele>1605.834</ele>
        <time>2018-07-13T10:47:22Z</time>
      </trkpt>
      <trkpt lat="45.882995" lon="6.761003">
        <ele>1606.423</ele>
        <time>2018-07-13T10:47:29Z</time>
      </trkpt>
      <trkpt lat="45.882945" lon="6.761000">
        <ele>1607.948</ele>
        <time>2018-07-13T10:47:36Z</time>
      </trkpt>
      <trkpt lat="45.882894" lon="6.761000">
        <ele>1608.147</ele>
        <time>2018-07-13T10:47:43Z</time>
      </trkpt>
      <trkpt lat="45.882843" lon="6.760990">
        <ele>1608.869</ele>
        <time>2018-07-13T10:47:51Z</time>
      </trkpt>
      <trkpt lat="45.882794" lon="6.760982">
        <ele>1609.404</ele>
        <time>2018-07-13T10:47:58Z</time>
      </trkpt>
      <trkpt lat="45.882743" lon="6.760972">
        <ele>1610.624</ele>
        <time>2018-07-13T10:48:04Z</time>
      </trkpt>
      <trkpt lat="45.882698" lon="6.760962">
        <ele>1611.508</ele>
        <time>2018-07-13T10:48:10Z</time>
      </trkpt>
      <trkpt lat="45.882650" lon="6.760946">
        <ele>1611.858</ele>
        <time>2018-07-13T10:48:16Z</time>
      </trkpt>
      <trkpt lat="45.882604" lon="6.760929">
        <ele>1613.211</ele>
        <time>2018-07-13T10:48:22Z</time>
      </trkpt>
      <trkpt lat="45.882557" lon="6.760904">
        <ele>1612.610</ele>
        <time>2018-07-13T10:48:28Z</time>
      </trkpt>
      <trkpt lat="45.882508" lon="6.760892">
        <ele>1613.199</ele>
        <time>2018-07-13T10:48:33Z</time>
      </trkpt>
      <trkpt lat="45.882464" lon="6.760869">
        <ele>1613.329</ele>
        <time>2018-07-13T10:48:38Z</time>
      </trkpt>
      <trkpt lat="45.882418" lon="6.760842">
        <ele>1613.758</ele>
        <time>2018-07-13T10:48:43Z</time>
      </trkpt>
      <trkpt lat="45.882373" lon="6.760802">
        <ele>1615.013</ele>
        <time>2018-07-13T10:48:48Z</time>
      </trkpt>
      <trkpt lat="45.882328" lon="6.760761">
        <ele>1614.122</ele>
        <time>2018-07-13T10:48:53Z</time>
      </trkpt>
      <trkpt lat="45.882280" lon="6.760720">
        <ele>1614.697</ele>
        <time>2018-07-13T10:48:58Z</time>
      </trkpt>
      <trkpt lat="45.882241" lon="6.760679">
        <ele>1614.623</ele>
        <time>2018-07-13T10:49:02Z</time>
      </trkpt>
      <trkpt lat="45.882202" lon="6.760638">
        <ele>1614.725</ele>
        <time>2018-07-13T10:49:06Z</time>
      </trkpt>
      <trkpt lat="45.882165" lon="6.760593">
        <ele>1614.608</ele>
        <time>2018-07-13T10:49:10Z</time>
      </trkpt>
      <trkpt lat="45.882129" lon="6.760540">
        <ele>1615.141</ele>
        <time>2018-07-13T10:49:14Z</time>
      </trkpt>
      <trkpt lat="45.882091" lon="6.760499">
        <ele>1615.424</ele>
        <time>2018-07-13T10:49:18Z</time>
      </trkpt>
      <trkpt lat="45.882058" lon="6.760448">
        <ele>1615.193</ele>
        <time>2018-07-13T10:49:22Z</time>
      </trkpt>
      <trkpt lat="45.882018" lon="6.760391">
        <ele>1615.872</ele>
        <time>2018-07-13T10:49:27Z</time>
      </trkpt>
      <trkpt lat="45.881976" lon="6.760341">
        <ele>1615.922</ele>
        <time>2018-07-13T10:49:32Z</time>
      </trkpt>
      <trkpt lat="45.881931" lon="6.760297">
        <ele>1616.521</ele>
        <time>2018-07-13T10:49:37Z</time>
      </trkpt>
      <trkpt lat="45.881888" lon="6.760273">
        <ele>1616.796</ele>
        <time>2018-07-13T10:49:41Z</time>
      </trkpt>
      <trkpt lat="45.881842" lon="6.760246">
        <ele>1617.375</ele>
        <time>2018-07-13T10:49:45Z</time>
      </trkpt>
      <trkpt lat="45.881800" lon="6.760215">
        <ele>1617.863</ele>
        <time>2018-07-13T10:49:49Z</time>
      </trkpt>
      <trkpt lat="45.881755" lon="6.760170">
        <ele>1618.244</ele>
        <time>2018-07-13T10:49:54Z</time>
      </trkpt>
      <trkpt lat="45.881710" lon="6.760130">
        <ele>1618.918</ele>
        <time>2018-07-13T10:49:59Z</time>
      </trkpt>
      <trkpt lat="45.881670" lon="6.760095">
        <ele>1619.708</ele>
        <time>2018-07-13T10:50:03Z</time>
      </trkpt>
      <trkpt lat="45.881626" lon="6.760063">
        <ele>1620.678</ele>
        <time>2018-07-13T10:50:08Z</time>
      </trkpt>
      <trkpt lat="45.881583" lon="6.760039">
        <ele>1621.271</ele>
        <time>2018-07-13T10:50:13Z</time>
      </trkpt>
      <trkpt lat="45.881535" lon="6.760021">
        <ele>1621.940</ele>
        <time>2018-07-13T10:50:18Z</time>
      </trkpt>
      <trkpt lat="45.881481" lon="6.760014">
        <ele>1622.579</ele>
        <time>2018-07-13T10:50:24Z</time>
      </trkpt>
      <trkpt lat="45.881433" lon="6.760037">
        <ele>1623.279</ele>
        <time>2018-07-13T10:50:29Z</time>
      </trkpt>
      <trkpt lat="45.881381" lon="6.760066">
        <ele>1623.068</ele>
        <time>2018-07-13T10:50:34Z</time>
      </trkpt>
      <trkpt lat="45.881335" lon="6.760092">
        <ele>1624.173</ele>
        <time>2018-07-13T10:50:39Z</time>
      </trkpt>
      <trkpt lat="45.881296" lon="6.760134">
        <ele>1624.352</ele>
        <time>2018-07-13T10:50:45Z</time>
      </trkpt>
      <trkpt lat="45.881258" lon="6.760177">
        <ele>1625.324</ele>
        <time>2018-07-13T10:50:52Z</time>
      </trkpt>
      <trkpt lat="45.881230" lon="6.760231">
        <ele>1626.604</ele>
        <time>2018-07-13T10:51:00Z</time>
      </trkpt>
      <trkpt lat="45.881209" lon="6.760290">
        <ele>1627.814</ele>
        <time>2018-07-13T10:51:10Z</time>
      </trkpt>
      <trkpt lat="45.881189" lon="6.760352">
        <ele>1629.308</ele>
        <time>2018-07-13T10:51:22Z</time>
      </trkpt>
      <trkpt lat="45.881168" lon="6.760414">
        <ele>1630.874</ele>
        <time>2018-07-13T10:51:36Z</time>
      </trkpt>
      <trkpt lat="45.881155" lon="6.760479">
        <ele>1632.157</ele>
        <time>2018-07-13T10:51:45Z</time>
      </trkpt>
      <trkpt lat="45.881142" lon="6.760547">
        <ele>1632.936</ele>
        <time>2018-07-13T10:51:55Z</time>
      </trkpt>
      <trkpt lat="45.881114" lon="6.760601">
        <ele>1633.895</ele>
        <time>2018-07-13T10:52:05Z</time>
      </trkpt>
      <trkpt lat="45.881081" lon="6.760646">
        <ele>1635.065</ele>
        <time>2018-07-13T10:52:13Z</time>
      </trkpt>
      <trkpt lat="45.881045" lon="6.760693">
        <ele>1635.314</ele>
        <time>2018-07-13T10:52:20Z</time>
      </trkpt>
      <trkpt lat="45.881009" lon="6.760735">
        <ele>1639.069</ele>
        <time>2018-07-13T10:52:31Z</time>
      </trkpt>
      <trkpt lat="45.880970" lon="6.760774">
        <ele>1637.518</ele>
        <time>2018-07-13T10:52:39Z</time>
      </trkpt>
      <trkpt lat="45.880923" lon="6.760799">
        <ele>1638.364</ele>
        <time>2018-07-13T10:52:47Z</time>
      </trkpt>
      <trkpt lat="45.880877" lon="6.760824">
        <ele>1639.206</ele>
        <time>2018-07-13T10:52:55Z</time>
      </trkpt>
      <trkpt lat="45.880834" lon="6.760842">
        <ele>1640.316</ele>
        <time>2018-07-13T10:53:02Z</time>
      </trkpt>
      <trkpt lat="45.880789" lon="6.760856">
        <ele>1640.608</ele>
        <time>2018-07-13T10:53:10Z</time>
      </trkpt>
      <trkpt lat="45.880740" lon="6.760877">
        <ele>1641.998</ele>
        <time>2018-07-13T10:53:18Z</time>
      </trkpt>
      <trkpt lat="45.880695" lon="6.760899">
        <ele>1642.511</ele>
        <time>2018-07-13T10:53:25Z</time>
      </trkpt>
      <trkpt lat="45.880648" lon="6.760914">
        <ele>1643.130</ele>
        <time>2018-07-13T10:53:32Z</time>
      </trkpt>
      <trkpt lat="45.880603" lon="6.760926">
        <ele>1644.289</ele>
        <time>2018-07-13T10:53:39Z</time>
      </trkpt>
      <trkpt lat="45.880557" lon="6.760943">
        <ele>1646.039</ele>
        <time>2018-07-13T10:53:46Z</time>
      </trkpt>
      <trkpt lat="45.880517" lon="6.760973">
        <ele>1645.048</ele>
        <time>2018-07-13T10:53:52Z</time>
      </trkpt>
      <trkpt lat="45.880471" lon="6.761005">
        <ele>1646.423</ele>
        <time>2018-07-13T10:53:59Z</time>
      </trkpt>
      <trkpt lat="45.880429" lon="6.761032">
        <ele>1646.212</ele>
        <time>2018-07-13T10:54:06Z</time>
      </trkpt>
      <trkpt lat="45.880385" lon="6.761068">
        <ele>1647.092</ele>
        <time>2018-07-13T10:54:13Z</time>
      </trkpt>
      <trkpt lat="45.880340" lon="6.761094">
        <ele>1647.173</ele>
        <time>2018-07-13T10:54:19Z</time>
      </trkpt>
      <trkpt lat="45.880288" lon="6.761113">
        <ele>1647.720</ele>
        <time>2018-07-13T10:54:25Z</time>
      </trkpt>
      <trkpt lat="45.880235" lon="6.761124">
        <ele>1648.008</ele>
        <time>2018-07-13T10:54:31Z</time>
      </trkpt>
      <trkpt lat="45.880190" lon="6.761122">
        <ele>1648.471</ele>
        <time>2018-07-13T10:54:36Z</time>
      </trkpt>
      <trkpt lat="45.880144" lon="6.761109">
        <ele>1649.354</ele>
        <time>2018-07-13T10:54:42Z</time>
      </trkpt>
      <trkpt lat="45.880098" lon="6.761088">
        <ele>1650.343</ele>
        <time>2018-07-13T10:54:48Z</time>
      </trkpt>
      <trkpt lat="45.880054" lon="6.761072">
        <ele>1650.792</ele>
        <time>2018-07-13T10:54:54Z</time>
      </trkpt>
      <trkpt lat="45.880008" lon="6.761048">
        <ele>1651.642</ele>
        <time>2018-07-13T10:55:02Z</time>
      </trkpt>
      <trkpt lat="45.879962" lon="6.761031">
        <ele>1652.781</ele>
        <time>2018-07-13T10:55:10Z</time>
      </trkpt>
      <trkpt lat="45.879917" lon="6.761012">
        <ele>1654.226</ele>
        <time>2018-07-13T10:55:18Z</time>
      </trkpt>
      <trkpt lat="45.879867" lon="6.761006">
        <ele>1654.575</ele>
        <time>2018-07-13T10:55:26Z</time>
      </trkpt>
      <trkpt lat="45.879818" lon="6.761001">
        <ele>1655.997</ele>
        <time>2018-07-13T10:55:35Z</time>
      </trkpt>
      <trkpt lat="45.879773" lon="6.760992">
        <ele>1656.723</ele>
        <time>2018-07-13T10:55:44Z</time>
      </trkpt>
      <trkpt lat="45.879721" lon="6.760988">
        <ele>1658.525</ele>
        <time>2018-07-13T10:55:57Z</time>
      </trkpt>
      <trkpt lat="45.879673" lon="6.760968">
        <ele>1659.008</ele>
        <time>2018-07-13T10:56:04Z</time>
      </trkpt>
      <trkpt lat="45.879632" lon="6.760940">
        <ele>1659.621</ele>
        <time>2018-07-13T10:56:10Z</time>
      </trkpt>
      <trkpt lat="45.879583" lon="6.760924">
        <ele>1660.114</ele>
        <time>2018-07-13T10:56:17Z</time>
      </trkpt>
      <trkpt lat="45.879538" lon="6.760909">
        <ele>1661.063</ele>
        <time>2018-07-13T10:56:24Z</time>
      </trkpt>
      <trkpt lat="45.879494" lon="6.760891">
        <ele>1662.152</ele>
        <time>2018-07-13T10:56:31Z</time>
      </trkpt>
      <trkpt lat="45.879446" lon="6.760882">
        <ele>1663.082</ele>
        <time>2018-07-13T10:56:42Z</time>
      </trkpt>
      <trkpt lat="45.879398" lon="6.760869">
        <ele>1664.351</ele>
        <time>2018-07-13T10:56:53Z</time>
      </trkpt>
      <trkpt lat="45.879357" lon="6.760834">
        <ele>1665.246</ele>
        <time>2018-07-13T10:57:01Z</time>
      </trkpt>
      <trkpt lat="45.879348" lon="6.760761">
        <ele>1669.915</ele>
        <time>2018-07-13T10:57:22Z</time>
      </trkpt>
      <trkpt lat="45.879362" lon="6.760699">
        <ele>1671.766</ele>
        <time>2018-07-13T10:57:39Z</time>
      </trkpt>
      <trkpt lat="45.879391" lon="6.760646">
        <ele>1672.329</ele>
        <time>2018-07-13T10:57:44Z</time>
      </trkpt>
      <trkpt lat="45.879432" lon="6.760591">
        <ele>1673.721</ele>
        <time>2018-07-13T10:57:55Z</time>
      </trkpt>
      <trkpt lat="45.879447" lon="6.760528">
        <ele>1674.808</ele>
        <time>2018-07-13T10:58:01Z</time>
      </trkpt>
      <trkpt lat="45.879498" lon="6.760501">
        <ele>1675.288</ele>
        <time>2018-07-13T10:58:06Z</time>
      </trkpt>
      <trkpt lat="45.879544" lon="6.760484">
        <ele>1675.511</ele>
        <time>2018-07-13T10:58:10Z</time>
      </trkpt>
      <trkpt lat="45.879582" lon="6.760437">
        <ele>1676.630</ele>
        <time>2018-07-13T10:58:17Z</time>
      </trkpt>
      <trkpt lat="45.879605" lon="6.760377">
        <ele>1677.979</ele>
        <time>2018-07-13T10:58:27Z</time>
      </trkpt>
      <trkpt lat="45.879575" lon="6.760328">
        <ele>1677.639</ele>
        <time>2018-07-13T10:58:40Z</time>
      </trkpt>
      <trkpt lat="45.879538" lon="6.760287">
        <ele>1678.648</ele>
        <time>2018-07-13T10:58:52Z</time>
      </trkpt>
      <trkpt lat="45.879494" lon="6.760261">
        <ele>1680.113</ele>
        <time>2018-07-13T10:58:58Z</time>
      </trkpt>
      <trkpt lat="45.879445" lon="6.760241">
        <ele>1680.792</ele>
        <time>2018-07-13T10:59:06Z</time>
      </trkpt>
      <trkpt lat="45.879393" lon="6.760222">
        <ele>1681.145</ele>
        <time>2018-07-13T10:59:12Z</time>
      </trkpt>
      <trkpt lat="45.879347" lon="6.760211">
        <ele>1684.347</ele>
        <time>2018-07-13T10:59:18Z</time>
      </trkpt>
      <trkpt lat="45.879298" lon="6.760191">
        <ele>1683.211</ele>
        <time>2018-07-13T10:59:24Z</time>
      </trkpt>
      <trkpt lat="45.879244" lon="6.760167">
        <ele>1683.108</ele>
        <time>2018-07-13T10:59:30Z</time>
      </trkpt>
      <trkpt lat="45.879189" lon="6.760162">
        <ele>1683.256</ele>
        <time>2018-07-13T10:59:35Z</time>
      </trkpt>
      <trkpt lat="45.879134" lon="6.760156">
        <ele>1683.369</ele>
        <time>2018-07-13T10:59:40Z</time>
      </trkpt>
      <trkpt lat="45.879080" lon="6.760143">
        <ele>1683.638</ele>
        <time>2018-07-13T10:59:45Z</time>
      </trkpt>
      <trkpt lat="45.879025" lon="6.760134">
        <ele>1683.557</ele>
        <time>2018-07-13T10:59:50Z</time>
      </trkpt>
      <trkpt lat="45.878979" lon="6.760127">
        <ele>1683.657</ele>
        <time>2018-07-13T10:59:54Z</time>
      </trkpt>
      <trkpt lat="45.878933" lon="6.760120">
        <ele>1683.486</ele>
        <time>2018-07-13T10:59:58Z</time>
      </trkpt>
      <trkpt lat="45.878887" lon="6.760120">
        <ele>1684.031</ele>
        <time>2018-07-13T11:00:02Z</time>
      </trkpt>
      <trkpt lat="45.878833" lon="6.760099">
        <ele>1686.010</ele>
        <time>2018-07-13T11:00:07Z</time>
      </trkpt>
      <trkpt lat="45.878781" lon="6.760099">
        <ele>1686.593</ele>
        <time>2018-07-13T11:00:11Z</time>
      </trkpt>
      <trkpt lat="45.878730" lon="6.760088">
        <ele>1686.965</ele>
        <time>2018-07-13T11:00:15Z</time>
      </trkpt>
      <trkpt lat="45.878675" lon="6.760073">
        <ele>1687.221</ele>
        <time>2018-07-13T11:00:21Z</time>
      </trkpt>
      <trkpt lat="45.878627" lon="6.760066">
        <ele>1685.808</ele>
        <time>2018-07-13T11:00:26Z</time>
      </trkpt>
      <trkpt lat="45.878577" lon="6.760060">
        <ele>1686.371</ele>
        <time>2018-07-13T11:00:31Z</time>
      </trkpt>
      <trkpt lat="45.878577" lon="6.760060">
        <ele>1686.364</ele>
        <time>2018-07-13T11:00:31Z</time>
      </trkpt>
      <trkpt lat="45.878527" lon="6.760064">
        <ele>1685.163</ele>
        <time>2018-07-13T11:01:16Z</time>
      </trkpt>
      <trkpt lat="45.878471" lon="6.760053">
        <ele>1685.582</ele>
        <time>2018-07-13T11:01:21Z</time>
      </trkpt>
      <trkpt lat="45.878423" lon="6.760046">
        <ele>1686.522</ele>
        <time>2018-07-13T11:01:25Z</time>
      </trkpt>
      <trkpt lat="45.878370" lon="6.760043">
        <ele>1686.681</ele>
        <time>2018-07-13T11:01:29Z</time>
      </trkpt>
      <trkpt lat="45.878321" lon="6.760036">
        <ele>1684.226</ele>
        <time>2018-07-13T11:01:33Z</time>
      </trkpt>
      <trkpt lat="45.878269" lon="6.760034">
        <ele>1684.395</ele>
        <time>2018-07-13T11:01:37Z</time>
      </trkpt>
      <trkpt lat="45.878216" lon="6.760043">
        <ele>1684.036</ele>
        <time>2018-07-13T11:01:41Z</time>
      </trkpt>
      <trkpt lat="45.878166" lon="6.760058">
        <ele>1682.817</ele>
        <time>2018-07-13T11:01:45Z</time>
      </trkpt>
      <trkpt lat="45.878110" lon="6.760069">
        <ele>1682.118</ele>
        <time>2018-07-13T11:01:49Z</time>
      </trkpt>
      <trkpt lat="45.878056" lon="6.760079">
        <ele>1681.508</ele>
        <time>2018-07-13T11:01:53Z</time>
      </trkpt>
      <trkpt lat="45.878004" lon="6.760085">
        <ele>1681.095</ele>
        <time>2018-07-13T11:01:57Z</time>
      </trkpt>
      <trkpt lat="45.877952" lon="6.760091">
        <ele>1680.288</ele>
        <time>2018-07-13T11:02:01Z</time>
      </trkpt>
      <trkpt lat="45.877899" lon="6.760109">
        <ele>1679.987</ele>
        <time>2018-07-13T11:02:05Z</time>
      </trkpt>
      <trkpt lat="45.877850" lon="6.760128">
        <ele>1679.596</ele>
        <time>2018-07-13T11:02:09Z</time>
      </trkpt>
      <trkpt lat="45.877799" lon="6.760147">
        <ele>1680.626</ele>
        <time>2018-07-13T11:02:13Z</time>
      </trkpt>
      <trkpt lat="45.877744" lon="6.760162">
        <ele>1678.715</ele>
        <time>2018-07-13T11:02:17Z</time>
      </trkpt>
      <trkpt lat="45.877692" lon="6.760173">
        <ele>1678.990</ele>
        <time>2018-07-13T11:02:21Z</time>
      </trkpt>
      <trkpt lat="45.877642" lon="6.760186">
        <ele>1678.739</ele>
        <time>2018-07-13T11:02:25Z</time>
      </trkpt>
      <trkpt lat="45.877592" lon="6.760207">
        <ele>1677.142</ele>
        <time>2018-07-13T11:02:29Z</time>
      </trkpt>
      <trkpt lat="45.877541" lon="6.760235">
        <ele>1679.522</ele>
        <time>2018-07-13T11:02:33Z</time>
      </trkpt>
      <trkpt lat="45.877489" lon="6.760263">
        <ele>1676.514</ele>
        <time>2018-07-13T11:02:37Z</time>
      </trkpt>
      <trkpt lat="45.877442" lon="6.760293">
        <ele>1676.308</ele>
        <time>2018-07-13T11:02:41Z</time>
      </trkpt>
      <trkpt lat="45.877397" lon="6.760301">
        <ele>1676.356</ele>
        <time>2018-07-13T11:02:45Z</time>
      </trkpt>
      <trkpt lat="45.877351" lon="6.760290">
        <ele>1676.469</ele>
        <time>2018-07-13T11:02:49Z</time>
      </trkpt>
      <trkpt lat="45.877303" lon="6.760267">
        <ele>1675.998</ele>
        <time>2018-07-13T11:03:00Z</time>
      </trkpt>
      <trkpt lat="45.877256" lon="6.760314">
        <ele>1675.457</ele>
        <time>2018-07-13T11:03:05Z</time>
      </trkpt>
      <trkpt lat="45.877213" lon="6.760362">
        <ele>1674.877</ele>
        <time>2018-07-13T11:03:09Z</time>
      </trkpt>
      <trkpt lat="45.877175" lon="6.760407">
        <ele>1674.576</ele>
        <time>2018-07-13T11:03:13Z</time>
      </trkpt>
      <trkpt lat="45.877138" lon="6.760456">
        <ele>1674.241</ele>
        <time>2018-07-13T11:03:17Z</time>
      </trkpt>
      <trkpt lat="45.877106" lon="6.760515">
        <ele>1673.820</ele>
        <time>2018-07-13T11:03:22Z</time>
      </trkpt>
      <trkpt lat="45.877079" lon="6.760584">
        <ele>1673.121</ele>
        <time>2018-07-13T11:03:27Z</time>
      </trkpt>
      <trkpt lat="45.877061" lon="6.760658">
        <ele>1673.041</ele>
        <time>2018-07-13T11:03:32Z</time>
      </trkpt>
      <trkpt lat="45.877041" lon="6.760721">
        <ele>1672.005</ele>
        <time>2018-07-13T11:03:36Z</time>
      </trkpt>
      <trkpt lat="45.877016" lon="6.760790">
        <ele>1671.808</ele>
        <time>2018-07-13T11:03:40Z</time>
      </trkpt>
      <trkpt lat="45.877002" lon="6.760865">
        <ele>1672.384</ele>
        <time>2018-07-13T11:03:44Z</time>
      </trkpt>
      <trkpt lat="45.876989" lon="6.760932">
        <ele>1671.397</ele>
        <time>2018-07-13T11:03:48Z</time>
      </trkpt>
      <trkpt lat="45.876975" lon="6.760997">
        <ele>1670.966</ele>
        <time>2018-07-13T11:03:52Z</time>
      </trkpt>
      <trkpt lat="45.876961" lon="6.761068">
        <ele>1671.255</ele>
        <time>2018-07-13T11:04:00Z</time>
      </trkpt>
      <trkpt lat="45.876941" lon="6.761141">
        <ele>1672.755</ele>
        <time>2018-07-13T11:04:05Z</time>
      </trkpt>
      <trkpt lat="45.876926" lon="6.761210">
        <ele>1670.654</ele>
        <time>2018-07-13T11:04:09Z</time>
      </trkpt>
      <trkpt lat="45.876906" lon="6.761278">
        <ele>1670.299</ele>
        <time>2018-07-13T11:04:13Z</time>
      </trkpt>
      <trkpt lat="45.876886" lon="6.761337">
        <ele>1670.188</ele>
        <time>2018-07-13T11:04:17Z</time>
      </trkpt>
      <trkpt lat="45.876851" lon="6.761384">
        <ele>1669.857</ele>
        <time>2018-07-13T11:04:21Z</time>
      </trkpt>
      <trkpt lat="45.876805" lon="6.761409">
        <ele>1670.000</ele>
        <time>2018-07-13T11:04:25Z</time>
      </trkpt>
      <trkpt lat="45.876758" lon="6.761393">
        <ele>1670.120</ele>
        <time>2018-07-13T11:04:30Z</time>
      </trkpt>
      <trkpt lat="45.876705" lon="6.761365">
        <ele>1669.908</ele>
        <time>2018-07-13T11:04:41Z</time>
      </trkpt>
      <trkpt lat="45.876659" lon="6.761362">
        <ele>1670.057</ele>
        <time>2018-07-13T11:04:45Z</time>
      </trkpt>
      <trkpt lat="45.876611" lon="6.761336">
        <ele>1669.850</ele>
        <time>2018-07-13T11:04:49Z</time>
      </trkpt>
      <trkpt lat="45.876567" lon="6.761316">
        <ele>1669.739</ele>
        <time>2018-07-13T11:04:53Z</time>
      </trkpt>
      <trkpt lat="45.876549" lon="6.761239">
        <ele>1672.238</ele>
        <time>2018-07-13T11:05:48Z</time>
      </trkpt>
      <trkpt lat="45.876527" lon="6.761165">
        <ele>1671.768</ele>
        <time>2018-07-13T11:05:53Z</time>
      </trkpt>
      <trkpt lat="45.876500" lon="6.761102">
        <ele>1671.357</ele>
        <time>2018-07-13T11:05:58Z</time>
      </trkpt>
      <trkpt lat="45.876474" lon="6.761039">
        <ele>1670.312</ele>
        <time>2018-07-13T11:06:03Z</time>
      </trkpt>
      <trkpt lat="45.876432" lon="6.761003">
        <ele>1667.831</ele>
        <time>2018-07-13T11:06:09Z</time>
      </trkpt>
      <trkpt lat="45.876397" lon="6.760944">
        <ele>1667.393</ele>
        <time>2018-07-13T11:06:14Z</time>
      </trkpt>
      <trkpt lat="45.876369" lon="6.760886">
        <ele>1667.065</ele>
        <time>2018-07-13T11:06:18Z</time>
      </trkpt>
      <trkpt lat="45.876341" lon="6.760823">
        <ele>1666.421</ele>
        <time>2018-07-13T11:06:22Z</time>
      </trkpt>
      <trkpt lat="45.876318" lon="6.760762">
        <ele>1666.008</ele>
        <time>2018-07-13T11:06:26Z</time>
      </trkpt>
      <trkpt lat="45.876302" lon="6.760701">
        <ele>1665.561</ele>
        <time>2018-07-13T11:06:30Z</time>
      </trkpt>
      <trkpt lat="45.876289" lon="6.760637">
        <ele>1664.374</ele>
        <time>2018-07-13T11:06:34Z</time>
      </trkpt>
      <trkpt lat="45.876274" lon="6.760573">
        <ele>1664.283</ele>
        <time>2018-07-13T11:06:38Z</time>
      </trkpt>
      <trkpt lat="45.876255" lon="6.760511">
        <ele>1665.552</ele>
        <time>2018-07-13T11:06:42Z</time>
      </trkpt>
      <trkpt lat="45.876218" lon="6.760453">
        <ele>1665.132</ele>
        <time>2018-07-13T11:06:46Z</time>
      </trkpt>
      <trkpt lat="45.876183" lon="6.760397">
        <ele>1663.971</ele>
        <time>2018-07-13T11:06:52Z</time>
      </trkpt>
      <trkpt lat="45.876135" lon="6.760415">
        <ele>1662.786</ele>
        <time>2018-07-13T11:06:58Z</time>
      </trkpt>
      <trkpt lat="45.876085" lon="6.760414">
        <ele>1660.575</ele>
        <time>2018-07-13T11:07:09Z</time>
      </trkpt>
      <trkpt lat="45.876033" lon="6.760451">
        <ele>1657.349</ele>
        <time>2018-07-13T11:07:14Z</time>
      </trkpt>
      <trkpt lat="45.875994" lon="6.760497">
        <ele>1658.602</ele>
        <time>2018-07-13T11:07:17Z</time>
      </trkpt>
      <trkpt lat="45.875945" lon="6.760523">
        <ele>1658.122</ele>
        <time>2018-07-13T11:07:20Z</time>
      </trkpt>
      <trkpt lat="45.875911" lon="6.760577">
        <ele>1657.208</ele>
        <time>2018-07-13T11:07:24Z</time>
      </trkpt>
      <trkpt lat="45.875897" lon="6.760651">
        <ele>1656.146</ele>
        <time>2018-07-13T11:07:28Z</time>
      </trkpt>
      <trkpt lat="45.875862" lon="6.760710">
        <ele>1655.279</ele>
        <time>2018-07-13T11:07:33Z</time>
      </trkpt>
      <trkpt lat="45.875831" lon="6.760762">
        <ele>1654.348</ele>
        <time>2018-07-13T11:07:38Z</time>
      </trkpt>
      <trkpt lat="45.875827" lon="6.760836">
        <ele>1653.487</ele>
        <time>2018-07-13T11:07:43Z</time>
      </trkpt>
      <trkpt lat="45.875813" lon="6.760902">
        <ele>1652.447</ele>
        <time>2018-07-13T11:07:48Z</time>
      </trkpt>
      <trkpt lat="45.875817" lon="6.760974">
        <ele>1651.276</ele>
        <time>2018-07-13T11:07:53Z</time>
      </trkpt>
      <trkpt lat="45.875826" lon="6.761046">
        <ele>1649.851</ele>
        <time>2018-07-13T11:07:58Z</time>
      </trkpt>
      <trkpt lat="45.875838" lon="6.761114">
        <ele>1648.530</ele>
        <time>2018-07-13T11:08:03Z</time>
      </trkpt>
      <trkpt lat="45.875824" lon="6.761177">
        <ele>1646.812</ele>
        <time>2018-07-13T11:08:09Z</time>
      </trkpt>
      <trkpt lat="45.875786" lon="6.761228">
        <ele>1645.832</ele>
        <time>2018-07-13T11:08:14Z</time>
      </trkpt>
      <trkpt lat="45.875787" lon="6.761293">
        <ele>1644.505</ele>
        <time>2018-07-13T11:08:19Z</time>
      </trkpt>
      <trkpt lat="45.875794" lon="6.761365">
        <ele>1643.708</ele>
        <time>2018-07-13T11:08:23Z</time>
      </trkpt>
      <trkpt lat="45.875789" lon="6.761431">
        <ele>1642.933</ele>
        <time>2018-07-13T11:08:27Z</time>
      </trkpt>
      <trkpt lat="45.875798" lon="6.761504">
        <ele>1642.226</ele>
        <time>2018-07-13T11:08:32Z</time>
      </trkpt>
      <trkpt lat="45.875808" lon="6.761580">
        <ele>1641.235</ele>
        <time>2018-07-13T11:08:36Z</time>
      </trkpt>
      <trkpt lat="45.875819" lon="6.761644">
        <ele>1640.964</ele>
        <time>2018-07-13T11:08:39Z</time>
      </trkpt>
      <trkpt lat="45.875844" lon="6.761707">
        <ele>1640.534</ele>
        <time>2018-07-13T11:08:42Z</time>
      </trkpt>
      <trkpt lat="45.875849" lon="6.761775">
        <ele>1639.823</ele>
        <time>2018-07-13T11:08:46Z</time>
      </trkpt>
      <trkpt lat="45.875852" lon="6.761854">
        <ele>1639.068</ele>
        <time>2018-07-13T11:08:51Z</time>
      </trkpt>
      <trkpt lat="45.875852" lon="6.761928">
        <ele>1637.957</ele>
        <time>2018-07-13T11:08:56Z</time>
      </trkpt>
      <trkpt lat="45.875819" lon="6.761982">
        <ele>1635.225</ele>
        <time>2018-07-13T11:09:01Z</time>
      </trkpt>
      <trkpt lat="45.875781" lon="6.762033">
        <ele>1635.426</ele>
        <time>2018-07-13T11:09:07Z</time>
      </trkpt>
      <trkpt lat="45.875737" lon="6.762058">
        <ele>1634.108</ele>
        <time>2018-07-13T11:09:12Z</time>
      </trkpt>
      <trkpt lat="45.875687" lon="6.762070">
        <ele>1633.108</ele>
        <time>2018-07-13T11:09:17Z</time>
      </trkpt>
      <trkpt lat="45.875645" lon="6.762114">
        <ele>1631.684</ele>
        <time>2018-07-13T11:09:23Z</time>
      </trkpt>
      <trkpt lat="45.875603" lon="6.762142">
        <ele>1630.437</ele>
        <time>2018-07-13T11:09:28Z</time>
      </trkpt>
      <trkpt lat="45.875558" lon="6.762190">
        <ele>1629.066</ele>
        <time>2018-07-13T11:09:33Z</time>
      </trkpt>
      <trkpt lat="45.875509" lon="6.762218">
        <ele>1627.895</ele>
        <time>2018-07-13T11:09:39Z</time>
      </trkpt>
      <trkpt lat="45.875460" lon="6.762215">
        <ele>1626.445</ele>
        <time>2018-07-13T11:09:44Z</time>
      </trkpt>
      <trkpt lat="45.875408" lon="6.762198">
        <ele>1625.074</ele>
        <time>2018-07-13T11:09:49Z</time>
      </trkpt>
      <trkpt lat="45.875355" lon="6.762201">
        <ele>1623.819</ele>
        <time>2018-07-13T11:09:54Z</time>
      </trkpt>
      <trkpt lat="45.875295" lon="6.762186">
        <ele>1623.488</ele>
        <time>2018-07-13T11:09:58Z</time>
      </trkpt>
      <trkpt lat="45.875244" lon="6.762192">
        <ele>1622.523</ele>
        <time>2018-07-13T11:10:02Z</time>
      </trkpt>
      <trkpt lat="45.875196" lon="6.762215">
        <ele>1621.383</ele>
        <time>2018-07-13T11:10:08Z</time>
      </trkpt>
      <trkpt lat="45.875151" lon="6.762183">
        <ele>1619.811</ele>
        <time>2018-07-13T11:10:15Z</time>
      </trkpt>
      <trkpt lat="45.875115" lon="6.762137">
        <ele>1619.008</ele>
        <time>2018-07-13T11:10:21Z</time>
      </trkpt>
      <trkpt lat="45.875100" lon="6.762066">
        <ele>1617.374</ele>
        <time>2018-07-13T11:10:28Z</time>
      </trkpt>
      <trkpt lat="45.875047" lon="6.762043">
        <ele>1616.317</ele>
        <time>2018-07-13T11:10:35Z</time>
      </trkpt>
      <trkpt lat="45.875006" lon="6.762076">
        <ele>1615.146</ele>
        <time>2018-07-13T11:10:41Z</time>
      </trkpt>
      <trkpt lat="45.874966" lon="6.762120">
        <ele>1613.955</ele>
        <time>2018-07-13T11:10:46Z</time>
      </trkpt>
      <trkpt lat="45.874937" lon="6.762173">
        <ele>1613.115</ele>
        <time>2018-07-13T11:10:51Z</time>
      </trkpt>
      <trkpt lat="45.874888" lon="6.762187">
        <ele>1611.644</ele>
        <time>2018-07-13T11:10:57Z</time>
      </trkpt>
      <trkpt lat="45.874887" lon="6.762256">
        <ele>1611.099</ele>
        <time>2018-07-13T11:11:01Z</time>
      </trkpt>
      <trkpt lat="45.874887" lon="6.762333">
        <ele>1610.548</ele>
        <time>2018-07-13T11:11:05Z</time>
      </trkpt>
      <trkpt lat="45.874849" lon="6.762382">
        <ele>1609.516</ele>
        <time>2018-07-13T11:11:10Z</time>
      </trkpt>
      <trkpt lat="45.874813" lon="6.762440">
        <ele>1608.576</ele>
        <time>2018-07-13T11:11:16Z</time>
      </trkpt>
      <trkpt lat="45.874778" lon="6.762490">
        <ele>1607.613</ele>
        <time>2018-07-13T11:11:21Z</time>
      </trkpt>
      <trkpt lat="45.874723" lon="6.762505">
        <ele>1606.808</ele>
        <time>2018-07-13T11:11:25Z</time>
      </trkpt>
      <trkpt lat="45.874680" lon="6.762541">
        <ele>1606.253</ele>
        <time>2018-07-13T11:11:29Z</time>
      </trkpt>
      <trkpt lat="45.874631" lon="6.762541">
        <ele>1605.376</ele>
        <time>2018-07-13T11:11:34Z</time>
      </trkpt>
      <trkpt lat="45.874587" lon="6.762520">
        <ele>1604.895</ele>
        <time>2018-07-13T11:11:38Z</time>
      </trkpt>
      <trkpt lat="45.874544" lon="6.762488">
        <ele>1603.844</ele>
        <time>2018-07-13T11:11:42Z</time>
      </trkpt>
      <trkpt lat="45.874497" lon="6.762450">
        <ele>1600.544</ele>
        <time>2018-07-13T11:11:46Z</time>
      </trkpt>
      <trkpt lat="45.874448" lon="6.762421">
        <ele>1601.373</ele>
        <time>2018-07-13T11:11:51Z</time>
      </trkpt>
      <trkpt lat="45.874406" lon="6.762396">
        <ele>1597.338</ele>
        <time>2018-07-13T11:12:02Z</time>
      </trkpt>
      <trkpt lat="45.874358" lon="6.762347">
        <ele>1598.617</ele>
        <time>2018-07-13T11:12:07Z</time>
      </trkpt>
      <trkpt lat="45.874316" lon="6.762317">
        <ele>1596.217</ele>
        <time>2018-07-13T11:12:11Z</time>
      </trkpt>
      <trkpt lat="45.874279" lon="6.762264">
        <ele>1596.987</ele>
        <time>2018-07-13T11:12:15Z</time>
      </trkpt>
      <trkpt lat="45.874239" lon="6.762212">
        <ele>1596.515</ele>
        <time>2018-07-13T11:12:18Z</time>
      </trkpt>
      <trkpt lat="45.874210" lon="6.762148">
        <ele>1595.108</ele>
        <time>2018-07-13T11:12:21Z</time>
      </trkpt>
      <trkpt lat="45.874188" lon="6.762084">
        <ele>1593.533</ele>
        <time>2018-07-13T11:12:25Z</time>
      </trkpt>
      <trkpt lat="45.874170" lon="6.762012">
        <ele>1594.026</ele>
        <time>2018-07-13T11:12:31Z</time>
      </trkpt>
      <trkpt lat="45.874155" lon="6.761944">
        <ele>1590.955</ele>
        <time>2018-07-13T11:12:36Z</time>
      </trkpt>
      <trkpt lat="45.874155" lon="6.761875">
        <ele>1592.294</ele>
        <time>2018-07-13T11:12:41Z</time>
      </trkpt>
      <trkpt lat="45.874158" lon="6.761807">
        <ele>1590.014</ele>
        <time>2018-07-13T11:12:46Z</time>
      </trkpt>
      <trkpt lat="45.874162" lon="6.761729">
        <ele>1590.793</ele>
        <time>2018-07-13T11:12:51Z</time>
      </trkpt>
      <trkpt lat="45.874166" lon="6.761650">
        <ele>1589.928</ele>
        <time>2018-07-13T11:12:56Z</time>
      </trkpt>
      <trkpt lat="45.874170" lon="6.761584">
        <ele>1589.517</ele>
        <time>2018-07-13T11:13:00Z</time>
      </trkpt>
      <trkpt lat="45.874177" lon="6.761508">
        <ele>1588.814</ele>
        <time>2018-07-13T11:13:05Z</time>
      </trkpt>
      <trkpt lat="45.874160" lon="6.761434">
        <ele>1588.454</ele>
        <time>2018-07-13T11:13:10Z</time>
      </trkpt>
      <trkpt lat="45.874123" lon="6.761375">
        <ele>1586.609</ele>
        <time>2018-07-13T11:13:15Z</time>
      </trkpt>
      <trkpt lat="45.874077" lon="6.761342">
        <ele>1586.908</ele>
        <time>2018-07-13T11:13:19Z</time>
      </trkpt>
      <trkpt lat="45.874024" lon="6.761320">
        <ele>1583.823</ele>
        <time>2018-07-13T11:13:31Z</time>
      </trkpt>
      <trkpt lat="45.873974" lon="6.761298">
        <ele>1583.616</ele>
        <time>2018-07-13T11:13:36Z</time>
      </trkpt>
      <trkpt lat="45.873923" lon="6.761273">
        <ele>1582.455</ele>
        <time>2018-07-13T11:13:41Z</time>
      </trkpt>
      <trkpt lat="45.873875" lon="6.761242">
        <ele>1580.954</ele>
        <time>2018-07-13T11:13:46Z</time>
      </trkpt>
      <trkpt lat="45.873831" lon="6.761228">
        <ele>1580.214</ele>
        <time>2018-07-13T11:13:53Z</time>
      </trkpt>
      <trkpt lat="45.873781" lon="6.761235">
        <ele>1577.093</ele>
        <time>2018-07-13T11:15:01Z</time>
      </trkpt>
      <trkpt lat="45.873733" lon="6.761231">
        <ele>1575.728</ele>
        <time>2018-07-13T11:15:07Z</time>
      </trkpt>
      <trkpt lat="45.873688" lon="6.761196">
        <ele>1575.847</ele>
        <time>2018-07-13T11:15:12Z</time>
      </trkpt>
      <trkpt lat="45.873644" lon="6.761153">
        <ele>1574.949</ele>
        <time>2018-07-13T11:15:17Z</time>
      </trkpt>
      <trkpt lat="45.873610" lon="6.761092">
        <ele>1574.102</ele>
        <time>2018-07-13T11:15:22Z</time>
      </trkpt>
      <trkpt lat="45.873576" lon="6.761038">
        <ele>1572.922</ele>
        <time>2018-07-13T11:15:27Z</time>
      </trkpt>
      <trkpt lat="45.873538" lon="6.760981">
        <ele>1572.308</ele>
        <time>2018-07-13T11:15:32Z</time>
      </trkpt>
      <trkpt lat="45.873502" lon="6.760932">
        <ele>1571.776</ele>
        <time>2018-07-13T11:15:37Z</time>
      </trkpt>
      <trkpt lat="45.873470" lon="6.760881">
        <ele>1569.149</ele>
        <time>2018-07-13T11:15:42Z</time>
      </trkpt>
      <trkpt lat="45.873433" lon="6.760825">
        <ele>1569.598</ele>
        <time>2018-07-13T11:15:47Z</time>
      </trkpt>
      <trkpt lat="45.873401" lon="6.760774">
        <ele>1569.077</ele>
        <time>2018-07-13T11:15:51Z</time>
      </trkpt>
      <trkpt lat="45.873363" lon="6.760718">
        <ele>1566.017</ele>
        <time>2018-07-13T11:15:56Z</time>
      </trkpt>
      <trkpt lat="45.873318" lon="6.760676">
        <ele>1567.186</ele>
        <time>2018-07-13T11:16:01Z</time>
      </trkpt>
      <trkpt lat="45.873274" lon="6.760627">
        <ele>1565.181</ele>
        <time>2018-07-13T11:16:06Z</time>
      </trkpt>
      <trkpt lat="45.873236" lon="6.760585">
        <ele>1565.150</ele>
        <time>2018-07-13T11:16:11Z</time>
      </trkpt>
      <trkpt lat="45.873201" lon="6.760530">
        <ele>1563.617</ele>
        <time>2018-07-13T11:16:17Z</time>
      </trkpt>
      <trkpt lat="45.873181" lon="6.760463">
        <ele>1561.687</ele>
        <time>2018-07-13T11:16:24Z</time>
      </trkpt>
      <trkpt lat="45.873162" lon="6.760401">
        <ele>1561.015</ele>
        <time>2018-07-13T11:16:29Z</time>
      </trkpt>
      <trkpt lat="45.873153" lon="6.760328">
        <ele>1558.908</ele>
        <time>2018-07-13T11:16:36Z</time>
      </trkpt>
      <trkpt lat="45.873138" lon="6.760263">
        <ele>1557.723</ele>
        <time>2018-07-13T11:16:42Z</time>
      </trkpt>
      <trkpt lat="45.873111" lon="6.760199">
        <ele>1556.446</ele>
        <time>2018-07-13T11:16:47Z</time>
      </trkpt>
      <trkpt lat="45.873076" lon="6.760144">
        <ele>1555.995</ele>
        <time>2018-07-13T11:16:53Z</time>
      </trkpt>
      <trkpt lat="45.873032" lon="6.760100">
        <ele>1552.784</ele>
        <time>2018-07-13T11:16:59Z</time>
      </trkpt>
      <trkpt lat="45.872985" lon="6.760080">
        <ele>1551.694</ele>
        <time>2018-07-13T11:17:03Z</time>
      </trkpt>
      <trkpt lat="45.872928" lon="6.760066">
        <ele>1552.843</ele>
        <time>2018-07-13T11:17:07Z</time>
      </trkpt>
      <trkpt lat="45.872885" lon="6.760044">
        <ele>1552.368</ele>
        <time>2018-07-13T11:17:11Z</time>
      </trkpt>
      <trkpt lat="45.872841" lon="6.760029">
        <ele>1548.967</ele>
        <time>2018-07-13T11:17:17Z</time>
      </trkpt>
      <trkpt lat="45.872806" lon="6.760071">
        <ele>1547.332</ele>
        <time>2018-07-13T11:17:23Z</time>
      </trkpt>
      <trkpt lat="45.872765" lon="6.760117">
        <ele>1548.192</ele>
        <time>2018-07-13T11:17:28Z</time>
      </trkpt>
      <trkpt lat="45.872723" lon="6.760160">
        <ele>1548.011</ele>
        <time>2018-07-13T11:17:32Z</time>
      </trkpt>
      <trkpt lat="45.872682" lon="6.760199">
        <ele>1547.008</ele>
        <time>2018-07-13T11:17:37Z</time>
      </trkpt>
      <trkpt lat="45.872644" lon="6.760237">
        <ele>1546.465</ele>
        <time>2018-07-13T11:17:41Z</time>
      </trkpt>
      <trkpt lat="45.872612" lon="6.760285">
        <ele>1545.518</ele>
        <time>2018-07-13T11:17:45Z</time>
      </trkpt>
      <trkpt lat="45.872563" lon="6.760308">
        <ele>1544.777</ele>
        <time>2018-07-13T11:17:50Z</time>
      </trkpt>
      <trkpt lat="45.872519" lon="6.760358">
        <ele>1543.516</ele>
        <time>2018-07-13T11:17:55Z</time>
      </trkpt>
      <trkpt lat="45.872477" lon="6.760411">
        <ele>1542.846</ele>
        <time>2018-07-13T11:18:00Z</time>
      </trkpt>
      <trkpt lat="45.872436" lon="6.760454">
        <ele>1541.735</ele>
        <time>2018-07-13T11:18:05Z</time>
      </trkpt>
      <trkpt lat="45.872396" lon="6.760503">
        <ele>1541.490</ele>
        <time>2018-07-13T11:18:10Z</time>
      </trkpt>
      <trkpt lat="45.872356" lon="6.760555">
        <ele>1540.989</ele>
        <time>2018-07-13T11:18:15Z</time>
      </trkpt>
      <trkpt lat="45.872323" lon="6.760605">
        <ele>1540.692</ele>
        <time>2018-07-13T11:18:19Z</time>
      </trkpt>
      <trkpt lat="45.872282" lon="6.760660">
        <ele>1539.773</ele>
        <time>2018-07-13T11:18:24Z</time>
      </trkpt>
      <trkpt lat="45.872238" lon="6.760707">
        <ele>1539.020</ele>
        <time>2018-07-13T11:18:29Z</time>
      </trkpt>
      <trkpt lat="45.872194" lon="6.760748">
        <ele>1538.608</ele>
        <time>2018-07-13T11:18:34Z</time>
      </trkpt>
      <trkpt lat="45.872151" lon="6.760795">
        <ele>1537.831</ele>
        <time>2018-07-13T11:18:39Z</time>
      </trkpt>
      <trkpt lat="45.872106" lon="6.760834">
        <ele>1537.464</ele>
        <time>2018-07-13T11:18:44Z</time>
      </trkpt>
      <trkpt lat="45.872063" lon="6.760880">
        <ele>1536.643</ele>
        <time>2018-07-13T11:18:49Z</time>
      </trkpt>
      <trkpt lat="45.872030" lon="6.760937">
        <ele>1535.752</ele>
        <time>2018-07-13T11:18:54Z</time>
      </trkpt>
      <trkpt lat="45.871993" lon="6.760996">
        <ele>1534.762</ele>
        <time>2018-07-13T11:18:59Z</time>
      </trkpt>
      <trkpt lat="45.871969" lon="6.761053">
        <ele>1533.891</ele>
        <time>2018-07-13T11:19:05Z</time>
      </trkpt>
      <trkpt lat="45.871965" lon="6.761126">
        <ele>1532.856</ele>
        <time>2018-07-13T11:19:13Z</time>
      </trkpt>
      <trkpt lat="45.871962" lon="6.761191">
        <ele>1531.625</ele>
        <time>2018-07-13T11:19:19Z</time>
      </trkpt>
      <trkpt lat="45.871962" lon="6.761259">
        <ele>1530.696</ele>
        <time>2018-07-13T11:19:25Z</time>
      </trkpt>
      <trkpt lat="45.871963" lon="6.761332">
        <ele>1529.731</ele>
        <time>2018-07-13T11:19:31Z</time>
      </trkpt>
      <trkpt lat="45.871950" lon="6.761409">
        <ele>1528.724</ele>
        <time>2018-07-13T11:19:37Z</time>
      </trkpt>
      <trkpt lat="45.871940" lon="6.761487">
        <ele>1527.708</ele>
        <time>2018-07-13T11:19:42Z</time>
      </trkpt>
      <trkpt lat="45.871900" lon="6.761534">
        <ele>1526.771</ele>
        <time>2018-07-13T11:19:48Z</time>
      </trkpt>
      <trkpt lat="45.871854" lon="6.761559">
        <ele>1525.664</ele>
        <time>2018-07-13T11:19:53Z</time>
      </trkpt>
      <trkpt lat="45.871806" lon="6.761558">
        <ele>1524.743</ele>
        <time>2018-07-13T11:19:58Z</time>
      </trkpt>
      <trkpt lat="45.871751" lon="6.761568">
        <ele>1523.012</ele>
        <time>2018-07-13T11:20:04Z</time>
      </trkpt>
      <trkpt lat="45.871706" lon="6.761584">
        <ele>1521.532</ele>
        <time>2018-07-13T11:20:09Z</time>
      </trkpt>
      <trkpt lat="45.871660" lon="6.761589">
        <ele>1520.681</ele>
        <time>2018-07-13T11:20:14Z</time>
      </trkpt>
      <trkpt lat="45.871613" lon="6.761600">
        <ele>1519.626</ele>
        <time>2018-07-13T11:20:19Z</time>
      </trkpt>
      <trkpt lat="45.871571" lon="6.761623">
        <ele>1518.685</ele>
        <time>2018-07-13T11:20:24Z</time>
      </trkpt>
      <trkpt lat="45.871532" lon="6.761674">
        <ele>1517.289</ele>
        <time>2018-07-13T11:20:29Z</time>
      </trkpt>
      <trkpt lat="45.871506" lon="6.761735">
        <ele>1516.006</ele>
        <time>2018-07-13T11:20:34Z</time>
      </trkpt>
      <trkpt lat="45.871490" lon="6.761802">
        <ele>1514.326</ele>
        <time>2018-07-13T11:20:42Z</time>
      </trkpt>
      <trkpt lat="45.871466" lon="6.761857">
        <ele>1513.208</ele>
        <time>2018-07-13T11:20:48Z</time>
      </trkpt>
      <trkpt lat="45.871466" lon="6.761932">
        <ele>1512.460</ele>
        <time>2018-07-13T11:20:53Z</time>
      </trkpt>
      <trkpt lat="45.871462" lon="6.761999">
        <ele>1511.223</ele>
        <time>2018-07-13T11:20:58Z</time>
      </trkpt>
      <trkpt lat="45.871448" lon="6.762076">
        <ele>1510.132</ele>
        <time>2018-07-13T11:21:03Z</time>
      </trkpt>
      <trkpt lat="45.871414" lon="6.762137">
        <ele>1509.191</ele>
        <time>2018-07-13T11:21:08Z</time>
      </trkpt>
      <trkpt lat="45.871371" lon="6.762162">
        <ele>1507.891</ele>
        <time>2018-07-13T11:21:13Z</time>
      </trkpt>
      <trkpt lat="45.871326" lon="6.762176">
        <ele>1506.510</ele>
        <time>2018-07-13T11:21:18Z</time>
      </trkpt>
      <trkpt lat="45.871276" lon="6.762154">
        <ele>1505.235</ele>
        <time>2018-07-13T11:21:24Z</time>
      </trkpt>
      <trkpt lat="45.871225" lon="6.762133">
        <ele>1504.174</ele>
        <time>2018-07-13T11:21:30Z</time>
      </trkpt>
      <trkpt lat="45.871171" lon="6.762135">
        <ele>1502.083</ele>
        <time>2018-07-13T11:21:37Z</time>
      </trkpt>
      <trkpt lat="45.871125" lon="6.762113">
        <ele>1501.325</ele>
        <time>2018-07-13T11:21:42Z</time>
      </trkpt>
      <trkpt lat="45.871081" lon="6.762082">
        <ele>1500.117</ele>
        <time>2018-07-13T11:21:47Z</time>
      </trkpt>
      <trkpt lat="45.871027" lon="6.762056">
        <ele>1498.908</ele>
        <time>2018-07-13T11:21:52Z</time>
      </trkpt>
      <trkpt lat="45.870978" lon="6.762045">
        <ele>1497.370</ele>
        <time>2018-07-13T11:21:57Z</time>
      </trkpt>
      <trkpt lat="45.870923" lon="6.762026">
        <ele>1495.413</ele>
        <time>2018-07-13T11:22:05Z</time>
      </trkpt>
      <trkpt lat="45.870874" lon="6.762010">
        <ele>1494.262</ele>
        <time>2018-07-13T11:22:10Z</time>
      </trkpt>
      <trkpt lat="45.870828" lon="6.761981">
        <ele>1490.841</ele>
        <time>2018-07-13T11:22:15Z</time>
      </trkpt>
      <trkpt lat="45.870785" lon="6.761951">
        <ele>1492.391</ele>
        <time>2018-07-13T11:22:19Z</time>
      </trkpt>
      <trkpt lat="45.870745" lon="6.761907">
        <ele>1490.640</ele>
        <time>2018-07-13T11:22:25Z</time>
      </trkpt>
      <trkpt lat="45.870706" lon="6.761871">
        <ele>1488.345</ele>
        <time>2018-07-13T11:22:29Z</time>
      </trkpt>
      <trkpt lat="45.870658" lon="6.761853">
        <ele>1488.984</ele>
        <time>2018-07-13T11:22:33Z</time>
      </trkpt>
      <trkpt lat="45.870612" lon="6.761823">
        <ele>1487.842</ele>
        <time>2018-07-13T11:22:38Z</time>
      </trkpt>
      <trkpt lat="45.870562" lon="6.761808">
        <ele>1486.622</ele>
        <time>2018-07-13T11:22:44Z</time>
      </trkpt>
      <trkpt lat="45.870513" lon="6.761785">
        <ele>1485.614</ele>
        <time>2018-07-13T11:22:49Z</time>
      </trkpt>
      <trkpt lat="45.870474" lon="6.761752">
        <ele>1485.108</ele>
        <time>2018-07-13T11:22:52Z</time>
      </trkpt>
      <trkpt lat="45.870439" lon="6.761702">
        <ele>1484.276</ele>
        <time>2018-07-13T11:22:56Z</time>
      </trkpt>
      <trkpt lat="45.870413" lon="6.761648">
        <ele>1483.519</ele>
        <time>2018-07-13T11:23:00Z</time>
      </trkpt>
      <trkpt lat="45.870386" lon="6.761597">
        <ele>1482.418</ele>
        <time>2018-07-13T11:23:07Z</time>
      </trkpt>
      <trkpt lat="45.870368" lon="6.761534">
        <ele>1481.327</ele>
        <time>2018-07-13T11:23:15Z</time>
      </trkpt>
      <trkpt lat="45.870337" lon="6.761483">
        <ele>1479.737</ele>
        <time>2018-07-13T11:23:22Z</time>
      </trkpt>
      <trkpt lat="45.870292" lon="6.761451">
        <ele>1477.126</ele>
        <time>2018-07-13T11:23:28Z</time>
      </trkpt>
      <trkpt lat="45.870249" lon="6.761417">
        <ele>1478.191</ele>
        <time>2018-07-13T11:23:34Z</time>
      </trkpt>
      <trkpt lat="45.870210" lon="6.761368">
        <ele>1477.220</ele>
        <time>2018-07-13T11:23:40Z</time>
      </trkpt>
      <trkpt lat="45.870176" lon="6.761319">
        <ele>1476.228</ele>
        <time>2018-07-13T11:23:45Z</time>
      </trkpt>
      <trkpt lat="45.870136" lon="6.761272">
        <ele>1475.489</ele>
        <time>2018-07-13T11:23:50Z</time>
      </trkpt>
      <trkpt lat="45.870085" lon="6.761273">
        <ele>1473.917</ele>
        <time>2018-07-13T11:23:58Z</time>
      </trkpt>
      <trkpt lat="45.870034" lon="6.761295">
        <ele>1473.208</ele>
        <time>2018-07-13T11:24:04Z</time>
      </trkpt>
      <trkpt lat="45.869986" lon="6.761319">
        <ele>1472.354</ele>
        <time>2018-07-13T11:24:09Z</time>
      </trkpt>
      <trkpt lat="45.869940" lon="6.761366">
        <ele>1471.527</ele>
        <time>2018-07-13T11:24:14Z</time>
      </trkpt>
      <trkpt lat="45.869906" lon="6.761419">
        <ele>1470.786</ele>
        <time>2018-07-13T11:24:19Z</time>
      </trkpt>
      <trkpt lat="45.869876" lon="6.761470">
        <ele>1469.515</ele>
        <time>2018-07-13T11:24:24Z</time>
      </trkpt>
      <trkpt lat="45.869861" lon="6.761534">
        <ele>1468.625</ele>
        <time>2018-07-13T11:24:29Z</time>
      </trkpt>
      <trkpt lat="45.869860" lon="6.761600">
        <ele>1467.494</ele>
        <time>2018-07-13T11:24:35Z</time>
      </trkpt>
      <trkpt lat="45.869861" lon="6.761669">
        <ele>1466.999</ele>
        <time>2018-07-13T11:24:39Z</time>
      </trkpt>
      <trkpt lat="45.869864" lon="6.761738">
        <ele>1465.948</ele>
        <time>2018-07-13T11:24:43Z</time>
      </trkpt>
      <trkpt lat="45.869851" lon="6.761817">
        <ele>1465.338</ele>
        <time>2018-07-13T11:24:48Z</time>
      </trkpt>
      <trkpt lat="45.869849" lon="6.761904">
        <ele>1464.570</ele>
        <time>2018-07-13T11:24:52Z</time>
      </trkpt>
      <trkpt lat="45.869834" lon="6.761974">
        <ele>1463.917</ele>
        <time>2018-07-13T11:24:57Z</time>
      </trkpt>
      <trkpt lat="45.869837" lon="6.762049">
        <ele>1462.808</ele>
        <time>2018-07-13T11:25:02Z</time>
      </trkpt>
      <trkpt lat="45.869823" lon="6.762115">
        <ele>1462.145</ele>
        <time>2018-07-13T11:25:07Z</time>
      </trkpt>
      <trkpt lat="45.869809" lon="6.762196">
        <ele>1461.538</ele>
        <time>2018-07-13T11:25:12Z</time>
      </trkpt>
      <trkpt lat="45.869799" lon="6.762271">
        <ele>1460.927</ele>
        <time>2018-07-13T11:25:17Z</time>
      </trkpt>
      <trkpt lat="45.869772" lon="6.762338">
        <ele>1460.376</ele>
        <time>2018-07-13T11:25:23Z</time>
      </trkpt>
      <trkpt lat="45.869728" lon="6.762371">
        <ele>1459.786</ele>
        <time>2018-07-13T11:25:28Z</time>
      </trkpt>
      <trkpt lat="45.869673" lon="6.762362">
        <ele>1458.025</ele>
        <time>2018-07-13T11:25:35Z</time>
      </trkpt>
      <trkpt lat="45.869628" lon="6.762333">
        <ele>1457.080</ele>
        <time>2018-07-13T11:25:40Z</time>
      </trkpt>
      <trkpt lat="45.869591" lon="6.762285">
        <ele>1456.259</ele>
        <time>2018-07-13T11:25:46Z</time>
      </trkpt>
      <trkpt lat="45.869567" lon="6.762217">
        <ele>1455.043</ele>
        <time>2018-07-13T11:25:51Z</time>
      </trkpt>
      <trkpt lat="45.869541" lon="6.762154">
        <ele>1454.364</ele>
        <time>2018-07-13T11:25:56Z</time>
      </trkpt>
      <trkpt lat="45.869515" lon="6.762082">
        <ele>1453.410</ele>
        <time>2018-07-13T11:26:00Z</time>
      </trkpt>
      <trkpt lat="45.869495" lon="6.762016">
        <ele>1452.808</ele>
        <time>2018-07-13T11:26:05Z</time>
      </trkpt>
      <trkpt lat="45.869484" lon="6.761953">
        <ele>1451.936</ele>
        <time>2018-07-13T11:26:09Z</time>
      </trkpt>
      <trkpt lat="45.869482" lon="6.761879">
        <ele>1451.579</ele>
        <time>2018-07-13T11:26:14Z</time>
      </trkpt>
      <trkpt lat="45.869478" lon="6.761813">
        <ele>1450.998</ele>
        <time>2018-07-13T11:26:18Z</time>
      </trkpt>
      <trkpt lat="45.869458" lon="6.761743">
        <ele>1449.947</ele>
        <time>2018-07-13T11:26:23Z</time>
      </trkpt>
      <trkpt lat="45.869437" lon="6.761672">
        <ele>1449.717</ele>
        <time>2018-07-13T11:26:27Z</time>
      </trkpt>
      <trkpt lat="45.869435" lon="6.761598">
        <ele>1448.976</ele>
        <time>2018-07-13T11:26:32Z</time>
      </trkpt>
      <trkpt lat="45.869420" lon="6.761534">
        <ele>1447.891</ele>
        <time>2018-07-13T11:26:38Z</time>
      </trkpt>
      <trkpt lat="45.869392" lon="6.761483">
        <ele>1446.990</ele>
        <time>2018-07-13T11:26:43Z</time>
      </trkpt>
      <trkpt lat="45.869352" lon="6.761424">
        <ele>1446.462</ele>
        <time>2018-07-13T11:26:47Z</time>
      </trkpt>
      <trkpt lat="45.869316" lon="6.761377">
        <ele>1445.983</ele>
        <time>2018-07-13T11:26:51Z</time>
      </trkpt>
      <trkpt lat="45.869277" lon="6.761334">
        <ele>1445.311</ele>
        <time>2018-07-13T11:26:56Z</time>
      </trkpt>
      <trkpt lat="45.869239" lon="6.761298">
        <ele>1444.308</ele>
        <time>2018-07-13T11:27:00Z</time>
      </trkpt>
      <trkpt lat="45.869195" lon="6.761256">
        <ele>1443.848</ele>
        <time>2018-07-13T11:27:05Z</time>
      </trkpt>
      <trkpt lat="45.869156" lon="6.761221">
        <ele>1443.141</ele>
        <time>2018-07-13T11:27:09Z</time>
      </trkpt>
      <trkpt lat="45.869113" lon="6.761188">
        <ele>1442.630</ele>
        <time>2018-07-13T11:27:14Z</time>
      </trkpt>
      <trkpt lat="45.869070" lon="6.761161">
        <ele>1442.049</ele>
        <time>2018-07-13T11:27:18Z</time>
      </trkpt>
      <trkpt lat="45.869020" lon="6.761129">
        <ele>1441.389</ele>
        <time>2018-07-13T11:27:22Z</time>
      </trkpt>
      <trkpt lat="45.868978" lon="6.761105">
        <ele>1440.928</ele>
        <time>2018-07-13T11:27:26Z</time>
      </trkpt>
      <trkpt lat="45.868934" lon="6.761072">
        <ele>1440.693</ele>
        <time>2018-07-13T11:27:30Z</time>
      </trkpt>
      <trkpt lat="45.868883" lon="6.761045">
        <ele>1439.962</ele>
        <time>2018-07-13T11:27:34Z</time>
      </trkpt>
      <trkpt lat="45.868832" lon="6.761014">
        <ele>1439.822</ele>
        <time>2018-07-13T11:27:38Z</time>
      </trkpt>
      <trkpt lat="45.868777" lon="6.760988">
        <ele>1439.462</ele>
        <time>2018-07-13T11:27:42Z</time>
      </trkpt>
      <trkpt lat="45.868727" lon="6.760960">
        <ele>1438.708</ele>
        <time>2018-07-13T11:27:46Z</time>
      </trkpt>
      <trkpt lat="45.868708" lon="6.760887">
        <ele>1438.708</ele>
        <time>2018-07-13T11:28:59Z</time>
      </trkpt>
      <trkpt lat="45.868730" lon="6.760950">
        <ele>1438.884</ele>
        <time>2018-07-13T11:29:17Z</time>
      </trkpt>
      <trkpt lat="45.868758" lon="6.761014">
        <ele>1439.037</ele>
        <time>2018-07-13T11:29:25Z</time>
      </trkpt>
      <trkpt lat="45.868714" lon="6.760976">
        <ele>1438.866</ele>
        <time>2018-07-13T11:30:15Z</time>
      </trkpt>
      <trkpt lat="45.868659" lon="6.760935">
        <ele>1437.945</ele>
        <time>2018-07-13T11:30:23Z</time>
      </trkpt>
      <trkpt lat="45.868611" lon="6.760917">
        <ele>1437.645</ele>
        <time>2018-07-13T11:30:29Z</time>
      </trkpt>
      <trkpt lat="45.868558" lon="6.760891">
        <ele>1437.314</ele>
        <time>2018-07-13T11:30:34Z</time>
      </trkpt>
      <trkpt lat="45.868514" lon="6.760873">
        <ele>1436.879</ele>
        <time>2018-07-13T11:30:38Z</time>
      </trkpt>
      <trkpt lat="45.868465" lon="6.760843">
        <ele>1436.178</ele>
        <time>2018-07-13T11:30:42Z</time>
      </trkpt>
      <trkpt lat="45.868415" lon="6.760809">
        <ele>1435.412</ele>
        <time>2018-07-13T11:30:46Z</time>
      </trkpt>
      <trkpt lat="45.868364" lon="6.760774">
        <ele>1435.232</ele>
        <time>2018-07-13T11:30:50Z</time>
      </trkpt>
      <trkpt lat="45.868319" lon="6.760727">
        <ele>1434.905</ele>
        <time>2018-07-13T11:30:54Z</time>
      </trkpt>
      <trkpt lat="45.868278" lon="6.760679">
        <ele>1434.308</ele>
        <time>2018-07-13T11:30:58Z</time>
      </trkpt>
      <trkpt lat="45.868246" lon="6.760624">
        <ele>1433.323</ele>
        <time>2018-07-13T11:31:05Z</time>
      </trkpt>
      <trkpt lat="45.868207" lon="6.760588">
        <ele>1432.326</ele>
        <time>2018-07-13T11:31:11Z</time>
      </trkpt>
      <trkpt lat="45.868163" lon="6.760555">
        <ele>1431.525</ele>
        <time>2018-07-13T11:31:16Z</time>
      </trkpt>
      <trkpt lat="45.868117" lon="6.760523">
        <ele>1431.054</ele>
        <time>2018-07-13T11:31:21Z</time>
      </trkpt>
      <trkpt lat="45.868073" lon="6.760496">
        <ele>1430.434</ele>
        <time>2018-07-13T11:31:26Z</time>
      </trkpt>
      <trkpt lat="45.868028" lon="6.760443">
        <ele>1429.423</ele>
        <time>2018-07-13T11:31:30Z</time>
      </trkpt>
      <trkpt lat="45.867989" lon="6.760393">
        <ele>1429.388</ele>
        <time>2018-07-13T11:31:34Z</time>
      </trkpt>
      <trkpt lat="45.867947" lon="6.760350">
        <ele>1429.097</ele>
        <time>2018-07-13T11:31:47Z</time>
      </trkpt>
      <trkpt lat="45.867904" lon="6.760330">
        <ele>1428.751</ele>
        <time>2018-07-13T11:31:51Z</time>
      </trkpt>
      <trkpt lat="45.867856" lon="6.760305">
        <ele>1428.601</ele>
        <time>2018-07-13T11:31:55Z</time>
      </trkpt>
      <trkpt lat="45.867805" lon="6.760286">
        <ele>1428.611</ele>
        <time>2018-07-13T11:32:00Z</time>
      </trkpt>
      <trkpt lat="45.867754" lon="6.760274">
        <ele>1428.608</ele>
        <time>2018-07-13T11:32:06Z</time>
      </trkpt>
      <trkpt lat="45.867701" lon="6.760268">
        <ele>1428.367</ele>
        <time>2018-07-13T11:32:11Z</time>
      </trkpt>
      <trkpt lat="45.867654" lon="6.760255">
        <ele>1427.280</ele>
        <time>2018-07-13T11:32:18Z</time>
      </trkpt>
      <trkpt lat="45.867603" lon="6.760263">
        <ele>1427.089</ele>
        <time>2018-07-13T11:32:23Z</time>
      </trkpt>
      <trkpt lat="45.867559" lon="6.760283">
        <ele>1426.798</ele>
        <time>2018-07-13T11:32:27Z</time>
      </trkpt>
      <trkpt lat="45.867511" lon="6.760295">
        <ele>1427.078</ele>
        <time>2018-07-13T11:32:31Z</time>
      </trkpt>
      <trkpt lat="45.867469" lon="6.760322">
        <ele>1427.047</ele>
        <time>2018-07-13T11:32:35Z</time>
      </trkpt>
      <trkpt lat="45.867422" lon="6.760347">
        <ele>1427.552</ele>
        <time>2018-07-13T11:32:39Z</time>
      </trkpt>
      <trkpt lat="45.867380" lon="6.760374">
        <ele>1427.411</ele>
        <time>2018-07-13T11:32:43Z</time>
      </trkpt>
      <trkpt lat="45.867340" lon="6.760405">
        <ele>1427.818</ele>
        <time>2018-07-13T11:32:47Z</time>
      </trkpt>
      <trkpt lat="45.867288" lon="6.760433">
        <ele>1427.898</ele>
        <time>2018-07-13T11:32:52Z</time>
      </trkpt>
      <trkpt lat="45.867240" lon="6.760454">
        <ele>1427.617</ele>
        <time>2018-07-13T11:32:57Z</time>
      </trkpt>
      <trkpt lat="45.867199" lon="6.760510">
        <ele>1427.608</ele>
        <time>2018-07-13T11:33:09Z</time>
      </trkpt>
      <trkpt lat="45.867155" lon="6.760531">
        <ele>1427.433</ele>
        <time>2018-07-13T11:33:15Z</time>
      </trkpt>
      <trkpt lat="45.867102" lon="6.760547">
        <ele>1427.336</ele>
        <time>2018-07-13T11:33:20Z</time>
      </trkpt>
      <trkpt lat="45.867052" lon="6.760546">
        <ele>1427.355</ele>
        <time>2018-07-13T11:33:24Z</time>
      </trkpt>
      <trkpt lat="45.866998" lon="6.760535">
        <ele>1427.234</ele>
        <time>2018-07-13T11:33:28Z</time>
      </trkpt>
      <trkpt lat="45.866952" lon="6.760526">
        <ele>1427.024</ele>
        <time>2018-07-13T11:33:32Z</time>
      </trkpt>
      <trkpt lat="45.866904" lon="6.760532">
        <ele>1425.873</ele>
        <time>2018-07-13T11:33:37Z</time>
      </trkpt>
      <trkpt lat="45.866859" lon="6.760542">
        <ele>1425.298</ele>
        <time>2018-07-13T11:33:41Z</time>
      </trkpt>
      <trkpt lat="45.866815" lon="6.760573">
        <ele>1423.367</ele>
        <time>2018-07-13T11:33:46Z</time>
      </trkpt>
      <trkpt lat="45.866764" lon="6.760570">
        <ele>1423.495</ele>
        <time>2018-07-13T11:33:50Z</time>
      </trkpt>
      <trkpt lat="45.866716" lon="6.760540">
        <ele>1422.549</ele>
        <time>2018-07-13T11:33:55Z</time>
      </trkpt>
      <trkpt lat="45.866683" lon="6.760488">
        <ele>1422.623</ele>
        <time>2018-07-13T11:33:59Z</time>
      </trkpt>
      <trkpt lat="45.866660" lon="6.760424">
        <ele>1421.608</ele>
        <time>2018-07-13T11:34:03Z</time>
      </trkpt>
      <trkpt lat="45.866648" lon="6.760360">
        <ele>1420.961</ele>
        <time>2018-07-13T11:34:07Z</time>
      </trkpt>
      <trkpt lat="45.866644" lon="6.760280">
        <ele>1420.394</ele>
        <time>2018-07-13T11:34:12Z</time>
      </trkpt>
      <trkpt lat="45.866640" lon="6.760213">
        <ele>1419.853</ele>
        <time>2018-07-13T11:34:16Z</time>
      </trkpt>
      <trkpt lat="45.866631" lon="6.760142">
        <ele>1418.722</ele>
        <time>2018-07-13T11:34:21Z</time>
      </trkpt>
      <trkpt lat="45.866616" lon="6.760078">
        <ele>1417.912</ele>
        <time>2018-07-13T11:34:26Z</time>
      </trkpt>
      <trkpt lat="45.866603" lon="6.760014">
        <ele>1416.991</ele>
        <time>2018-07-13T11:34:32Z</time>
      </trkpt>
      <trkpt lat="45.866585" lon="6.759952">
        <ele>1416.236</ele>
        <time>2018-07-13T11:34:38Z</time>
      </trkpt>
      <trkpt lat="45.866557" lon="6.759902">
        <ele>1414.875</ele>
        <time>2018-07-13T11:34:43Z</time>
      </trkpt>
      <trkpt lat="45.866540" lon="6.759838">
        <ele>1413.592</ele>
        <time>2018-07-13T11:34:50Z</time>
      </trkpt>
      <trkpt lat="45.866511" lon="6.759776">
        <ele>1412.173</ele>
        <time>2018-07-13T11:34:56Z</time>
      </trkpt>
      <trkpt lat="45.866487" lon="6.759719">
        <ele>1411.720</ele>
        <time>2018-07-13T11:35:01Z</time>
      </trkpt>
      <trkpt lat="45.866463" lon="6.759662">
        <ele>1410.808</ele>
        <time>2018-07-13T11:35:06Z</time>
      </trkpt>
      <trkpt lat="45.866429" lon="6.759605">
        <ele>1409.861</ele>
        <time>2018-07-13T11:35:11Z</time>
      </trkpt>
      <trkpt lat="45.866399" lon="6.759556">
        <ele>1408.894</ele>
        <time>2018-07-13T11:35:16Z</time>
      </trkpt>
      <trkpt lat="45.866368" lon="6.759498">
        <ele>1408.283</ele>
        <time>2018-07-13T11:35:20Z</time>
      </trkpt>
      <trkpt lat="45.866338" lon="6.759443">
        <ele>1407.322</ele>
        <time>2018-07-13T11:35:25Z</time>
      </trkpt>
      <trkpt lat="45.866302" lon="6.759388">
        <ele>1406.682</ele>
        <time>2018-07-13T11:35:30Z</time>
      </trkpt>
      <trkpt lat="45.866271" lon="6.759324">
        <ele>1405.831</ele>
        <time>2018-07-13T11:35:35Z</time>
      </trkpt>
      <trkpt lat="45.866255" lon="6.759258">
        <ele>1405.016</ele>
        <time>2018-07-13T11:35:40Z</time>
      </trkpt>
      <trkpt lat="45.866236" lon="6.759195">
        <ele>1403.525</ele>
        <time>2018-07-13T11:35:46Z</time>
      </trkpt>
      <trkpt lat="45.866233" lon="6.759127">
        <ele>1402.283</ele>
        <time>2018-07-13T11:35:53Z</time>
      </trkpt>
      <trkpt lat="45.866225" lon="6.759059">
        <ele>1401.225</ele>
        <time>2018-07-13T11:35:59Z</time>
      </trkpt>
      <trkpt lat="45.866211" lon="6.758989">
        <ele>1400.217</ele>
        <time>2018-07-13T11:36:05Z</time>
      </trkpt>
      <trkpt lat="45.866198" lon="6.758918">
        <ele>1398.808</ele>
        <time>2018-07-13T11:36:10Z</time>
      </trkpt>
      <trkpt lat="45.866184" lon="6.758849">
        <ele>1398.160</ele>
        <time>2018-07-13T11:36:15Z</time>
      </trkpt>
      <trkpt lat="45.866165" lon="6.758790">
        <ele>1397.483</ele>
        <time>2018-07-13T11:36:19Z</time>
      </trkpt>
      <trkpt lat="45.866158" lon="6.758722">
        <ele>1396.342</ele>
        <time>2018-07-13T11:36:25Z</time>
      </trkpt>
      <trkpt lat="45.866134" lon="6.758660">
        <ele>1395.211</ele>
        <time>2018-07-13T11:36:31Z</time>
      </trkpt>
      <trkpt lat="45.866099" lon="6.758606">
        <ele>1394.251</ele>
        <time>2018-07-13T11:36:37Z</time>
      </trkpt>
      <trkpt lat="45.866056" lon="6.758573">
        <ele>1393.180</ele>
        <time>2018-07-13T11:36:42Z</time>
      </trkpt>
      <trkpt lat="45.866004" lon="6.758573">
        <ele>1392.215</ele>
        <time>2018-07-13T11:36:48Z</time>
      </trkpt>
      <trkpt lat="45.865951" lon="6.758577">
        <ele>1391.194</ele>
        <time>2018-07-13T11:36:53Z</time>
      </trkpt>
      <trkpt lat="45.865898" lon="6.758575">
        <ele>1390.316</ele>
        <time>2018-07-13T11:36:58Z</time>
      </trkpt>
      <trkpt lat="45.865854" lon="6.758563">
        <ele>1388.876</ele>
        <time>2018-07-13T11:37:05Z</time>
      </trkpt>
      <trkpt lat="45.865807" lon="6.758529">
        <ele>1387.513</ele>
        <time>2018-07-13T11:37:12Z</time>
      </trkpt>
      <trkpt lat="45.865762" lon="6.758483">
        <ele>1386.508</ele>
        <time>2018-07-13T11:37:17Z</time>
      </trkpt>
      <trkpt lat="45.865725" lon="6.758436">
        <ele>1386.253</ele>
        <time>2018-07-13T11:37:21Z</time>
      </trkpt>
      <trkpt lat="45.865694" lon="6.758383">
        <ele>1385.786</ele>
        <time>2018-07-13T11:37:25Z</time>
      </trkpt>
      <trkpt lat="45.865673" lon="6.758317">
        <ele>1385.155</ele>
        <time>2018-07-13T11:37:30Z</time>
      </trkpt>
      <trkpt lat="45.865674" lon="6.758246">
        <ele>1384.454</ele>
        <time>2018-07-13T11:37:35Z</time>
      </trkpt>
      <trkpt lat="45.865680" lon="6.758180">
        <ele>1383.684</ele>
        <time>2018-07-13T11:37:40Z</time>
      </trkpt>
      <trkpt lat="45.865681" lon="6.758115">
        <ele>1382.783</ele>
        <time>2018-07-13T11:37:46Z</time>
      </trkpt>
      <trkpt lat="45.865695" lon="6.758041">
        <ele>1381.648</ele>
        <time>2018-07-13T11:37:51Z</time>
      </trkpt>
      <trkpt lat="45.865707" lon="6.757975">
        <ele>1381.247</ele>
        <time>2018-07-13T11:37:55Z</time>
      </trkpt>
      <trkpt lat="45.865716" lon="6.757907">
        <ele>1380.162</ele>
        <time>2018-07-13T11:38:00Z</time>
      </trkpt>
      <trkpt lat="45.865735" lon="6.757838">
        <ele>1378.883</ele>
        <time>2018-07-13T11:38:06Z</time>
      </trkpt>
      <trkpt lat="45.865752" lon="6.757768">
        <ele>1377.511</ele>
        <time>2018-07-13T11:38:12Z</time>
      </trkpt>
      <trkpt lat="45.865766" lon="6.757704">
        <ele>1376.808</ele>
        <time>2018-07-13T11:38:17Z</time>
      </trkpt>
      <trkpt lat="45.865769" lon="6.757638">
        <ele>1375.818</ele>
        <time>2018-07-13T11:38:22Z</time>
      </trkpt>
      <trkpt lat="45.865767" lon="6.757565">
        <ele>1374.851</ele>
        <time>2018-07-13T11:38:27Z</time>
      </trkpt>
      <trkpt lat="45.865767" lon="6.757490">
        <ele>1373.640</ele>
        <time>2018-07-13T11:38:33Z</time>
      </trkpt>
      <trkpt lat="45.865775" lon="6.757427">
        <ele>1373.049</ele>
        <time>2018-07-13T11:38:38Z</time>
      </trkpt>
      <trkpt lat="45.865772" lon="6.757354">
        <ele>1371.739</ele>
        <time>2018-07-13T11:38:44Z</time>
      </trkpt>
      <trkpt lat="45.865765" lon="6.757280">
        <ele>1370.318</ele>
        <time>2018-07-13T11:38:50Z</time>
      </trkpt>
      <trkpt lat="45.865759" lon="6.757205">
        <ele>1369.143</ele>
        <time>2018-07-13T11:38:56Z</time>
      </trkpt>
      <trkpt lat="45.865752" lon="6.757140">
        <ele>1365.892</ele>
        <time>2018-07-13T11:39:02Z</time>
      </trkpt>
      <trkpt lat="45.865749" lon="6.757070">
        <ele>1366.972</ele>
        <time>2018-07-13T11:39:08Z</time>
      </trkpt>
      <trkpt lat="45.865739" lon="6.757004">
        <ele>1366.013</ele>
        <time>2018-07-13T11:39:13Z</time>
      </trkpt>
      <trkpt lat="45.865719" lon="6.756946">
        <ele>1364.514</ele>
        <time>2018-07-13T11:39:18Z</time>
      </trkpt>
      <trkpt lat="45.865689" lon="6.756887">
        <ele>1363.508</ele>
        <time>2018-07-13T11:39:23Z</time>
      </trkpt>
      <trkpt lat="45.865650" lon="6.756842">
        <ele>1362.769</ele>
        <time>2018-07-13T11:39:28Z</time>
      </trkpt>
      <trkpt lat="45.865614" lon="6.756795">
        <ele>1361.882</ele>
        <time>2018-07-13T11:39:33Z</time>
      </trkpt>
      <trkpt lat="45.865579" lon="6.756751">
        <ele>1360.921</ele>
        <time>2018-07-13T11:39:38Z</time>
      </trkpt>
      <trkpt lat="45.865544" lon="6.756704">
        <ele>1359.670</ele>
        <time>2018-07-13T11:39:43Z</time>
      </trkpt>
      <trkpt lat="45.865506" lon="6.756662">
        <ele>1359.060</ele>
        <time>2018-07-13T11:39:48Z</time>
      </trkpt>
      <trkpt lat="45.865462" lon="6.756627">
        <ele>1357.699</ele>
        <time>2018-07-13T11:39:55Z</time>
      </trkpt>
      <trkpt lat="45.865417" lon="6.756596">
        <ele>1356.824</ele>
        <time>2018-07-13T11:40:00Z</time>
      </trkpt>
      <trkpt lat="45.865375" lon="6.756570">
        <ele>1355.423</ele>
        <time>2018-07-13T11:40:04Z</time>
      </trkpt>
      <trkpt lat="45.865333" lon="6.756536">
        <ele>1355.411</ele>
        <time>2018-07-13T11:40:08Z</time>
      </trkpt>
      <trkpt lat="45.865295" lon="6.756495">
        <ele>1354.821</ele>
        <time>2018-07-13T11:40:12Z</time>
      </trkpt>
      <trkpt lat="45.865251" lon="6.756467">
        <ele>1354.403</ele>
        <time>2018-07-13T11:40:17Z</time>
      </trkpt>
      <trkpt lat="45.865208" lon="6.756418">
        <ele>1353.408</ele>
        <time>2018-07-13T11:40:23Z</time>
      </trkpt>
      <trkpt lat="45.865168" lon="6.756374">
        <ele>1353.433</ele>
        <time>2018-07-13T11:40:28Z</time>
      </trkpt>
      <trkpt lat="45.865126" lon="6.756348">
        <ele>1352.676</ele>
        <time>2018-07-13T11:41:41Z</time>
      </trkpt>
      <trkpt lat="45.865131" lon="6.756278">
        <ele>1352.055</ele>
        <time>2018-07-13T11:41:46Z</time>
      </trkpt>
      <trkpt lat="45.865134" lon="6.756212">
        <ele>1351.984</ele>
        <time>2018-07-13T11:41:51Z</time>
      </trkpt>
      <trkpt lat="45.865121" lon="6.756148">
        <ele>1353.094</ele>
        <time>2018-07-13T11:51:43Z</time>
      </trkpt>
      <trkpt lat="45.865086" lon="6.756091">
        <ele>1351.973</ele>
        <time>2018-07-13T11:51:53Z</time>
      </trkpt>
      <trkpt lat="45.865062" lon="6.756031">
        <ele>1350.668</ele>
        <time>2018-07-13T11:52:00Z</time>
      </trkpt>
      <trkpt lat="45.865037" lon="6.755966">
        <ele>1349.547</ele>
        <time>2018-07-13T11:52:06Z</time>
      </trkpt>
      <trkpt lat="45.865009" lon="6.755897">
        <ele>1348.963</ele>
        <time>2018-07-13T11:52:11Z</time>
      </trkpt>
      <trkpt lat="45.864981" lon="6.755834">
        <ele>1347.844</ele>
        <time>2018-07-13T11:52:16Z</time>
      </trkpt>
      <trkpt lat="45.864961" lon="6.755776">
        <ele>1346.418</ele>
        <time>2018-07-13T11:52:21Z</time>
      </trkpt>
      <trkpt lat="45.864921" lon="6.755733">
        <ele>1345.808</ele>
        <time>2018-07-13T11:52:29Z</time>
      </trkpt>
      <trkpt lat="45.864874" lon="6.755717">
        <ele>1344.588</ele>
        <time>2018-07-13T11:52:36Z</time>
      </trkpt>
      <trkpt lat="45.864830" lon="6.755691">
        <ele>1343.591</ele>
        <time>2018-07-13T11:52:41Z</time>
      </trkpt>
      <trkpt lat="45.864788" lon="6.755652">
        <ele>1343.160</ele>
        <time>2018-07-13T11:52:46Z</time>
      </trkpt>
      <trkpt lat="45.864747" lon="6.755613">
        <ele>1342.419</ele>
        <time>2018-07-13T11:52:51Z</time>
      </trkpt>
      <trkpt lat="45.864707" lon="6.755576">
        <ele>1341.999</ele>
        <time>2018-07-13T11:52:56Z</time>
      </trkpt>
      <trkpt lat="45.864664" lon="6.755544">
        <ele>1341.228</ele>
        <time>2018-07-13T11:53:01Z</time>
      </trkpt>
      <trkpt lat="45.864617" lon="6.755524">
        <ele>1340.433</ele>
        <time>2018-07-13T11:53:19Z</time>
      </trkpt>
      <trkpt lat="45.864570" lon="6.755510">
        <ele>1339.172</ele>
        <time>2018-07-13T11:53:26Z</time>
      </trkpt>
      <trkpt lat="45.864527" lon="6.755541">
        <ele>1339.418</ele>
        <time>2018-07-13T11:53:55Z</time>
      </trkpt>
      <trkpt lat="45.864477" lon="6.755532">
        <ele>1337.798</ele>
        <time>2018-07-13T11:54:14Z</time>
      </trkpt>
      <trkpt lat="45.864428" lon="6.755537">
        <ele>1337.017</ele>
        <time>2018-07-13T11:54:19Z</time>
      </trkpt>
      <trkpt lat="45.864381" lon="6.755535">
        <ele>1336.308</ele>
        <time>2018-07-13T11:54:24Z</time>
      </trkpt>
      <trkpt lat="45.864331" lon="6.755528">
        <ele>1335.353</ele>
        <time>2018-07-13T11:54:30Z</time>
      </trkpt>
      <trkpt lat="45.864283" lon="6.755554">
        <ele>1334.086</ele>
        <time>2018-07-13T11:54:36Z</time>
      </trkpt>
      <trkpt lat="45.864234" lon="6.755579">
        <ele>1331.835</ele>
        <time>2018-07-13T11:54:45Z</time>
      </trkpt>
      <trkpt lat="45.864192" lon="6.755615">
        <ele>1330.254</ele>
        <time>2018-07-13T11:54:51Z</time>
      </trkpt>
      <trkpt lat="45.864149" lon="6.755654">
        <ele>1328.924</ele>
        <time>2018-07-13T11:54:57Z</time>
      </trkpt>
      <trkpt lat="45.864116" lon="6.755705">
        <ele>1328.313</ele>
        <time>2018-07-13T11:55:02Z</time>
      </trkpt>
      <trkpt lat="45.864092" lon="6.755764">
        <ele>1326.788</ele>
        <time>2018-07-13T11:55:08Z</time>
      </trkpt>
      <trkpt lat="45.864072" lon="6.755827">
        <ele>1325.417</ele>
        <time>2018-07-13T11:55:15Z</time>
      </trkpt>
      <trkpt lat="45.864034" lon="6.755874">
        <ele>1324.953</ele>
        <time>2018-07-13T11:55:21Z</time>
      </trkpt>
      <trkpt lat="45.864002" lon="6.755931">
        <ele>1325.104</ele>
        <time>2018-07-13T11:55:27Z</time>
      </trkpt>
      <trkpt lat="45.863961" lon="6.755962">
        <ele>1325.114</ele>
        <time>2018-07-13T11:55:32Z</time>
      </trkpt>
      <trkpt lat="45.863928" lon="6.756018">
        <ele>1324.108</ele>
        <time>2018-07-13T11:56:15Z</time>
      </trkpt>
      <trkpt lat="45.863905" lon="6.756100">
        <ele>1322.817</ele>
        <time>2018-07-13T11:56:31Z</time>
      </trkpt>
      <trkpt lat="45.863871" lon="6.756158">
        <ele>1322.560</ele>
        <time>2018-07-13T11:56:37Z</time>
      </trkpt>
      <trkpt lat="45.863834" lon="6.756204">
        <ele>1322.149</ele>
        <time>2018-07-13T11:56:41Z</time>
      </trkpt>
      <trkpt lat="45.863808" lon="6.756259">
        <ele>1322.158</ele>
        <time>2018-07-13T11:56:46Z</time>
      </trkpt>
      <trkpt lat="45.863786" lon="6.756322">
        <ele>1321.748</ele>
        <time>2018-07-13T11:56:51Z</time>
      </trkpt>
      <trkpt lat="45.863786" lon="6.756387">
        <ele>1321.757</ele>
        <time>2018-07-13T11:56:58Z</time>
      </trkpt>
      <trkpt lat="45.863790" lon="6.756462">
        <ele>1321.442</ele>
        <time>2018-07-13T11:57:04Z</time>
      </trkpt>
      <trkpt lat="45.863788" lon="6.756527">
        <ele>1320.291</ele>
        <time>2018-07-13T11:57:08Z</time>
      </trkpt>
      <trkpt lat="45.863777" lon="6.756594">
        <ele>1319.869</ele>
        <time>2018-07-13T11:57:12Z</time>
      </trkpt>
      <trkpt lat="45.863772" lon="6.756663">
        <ele>1320.104</ele>
        <time>2018-07-13T11:57:16Z</time>
      </trkpt>
      <trkpt lat="45.863797" lon="6.756726">
        <ele>1321.124</ele>
        <time>2018-07-13T11:57:21Z</time>
      </trkpt>
      <trkpt lat="45.863807" lon="6.756800">
        <ele>1321.408</ele>
        <time>2018-07-13T11:57:27Z</time>
      </trkpt>
      <trkpt lat="45.863803" lon="6.756873">
        <ele>1321.338</ele>
        <time>2018-07-13T11:57:32Z</time>
      </trkpt>
      <trkpt lat="45.863789" lon="6.756946">
        <ele>1320.441</ele>
        <time>2018-07-13T11:57:37Z</time>
      </trkpt>
      <trkpt lat="45.863763" lon="6.757017">
        <ele>1319.470</ele>
        <time>2018-07-13T11:57:42Z</time>
      </trkpt>
      <trkpt lat="45.863744" lon="6.757077">
        <ele>1319.459</ele>
        <time>2018-07-13T11:57:46Z</time>
      </trkpt>
      <trkpt lat="45.863743" lon="6.757153">
        <ele>1319.319</ele>
        <time>2018-07-13T11:57:51Z</time>
      </trkpt>
      <trkpt lat="45.863754" lon="6.757219">
        <ele>1320.028</ele>
        <time>2018-07-13T11:57:56Z</time>
      </trkpt>
      <trkpt lat="45.863756" lon="6.757287">
        <ele>1320.123</ele>
        <time>2018-07-13T11:58:02Z</time>
      </trkpt>
      <trkpt lat="45.863745" lon="6.757360">
        <ele>1319.032</ele>
        <time>2018-07-13T11:58:07Z</time>
      </trkpt>
      <trkpt lat="45.863744" lon="6.757435">
        <ele>1318.186</ele>
        <time>2018-07-13T11:58:12Z</time>
      </trkpt>
      <trkpt lat="45.863717" lon="6.757502">
        <ele>1316.760</ele>
        <time>2018-07-13T11:58:17Z</time>
      </trkpt>
      <trkpt lat="45.863696" lon="6.757568">
        <ele>1316.126</ele>
        <time>2018-07-13T11:58:22Z</time>
      </trkpt>
      <trkpt lat="45.863692" lon="6.757639">
        <ele>1315.808</ele>
        <time>2018-07-13T11:58:27Z</time>
      </trkpt>
      <trkpt lat="45.863687" lon="6.757705">
        <ele>1314.680</ele>
        <time>2018-07-13T11:58:32Z</time>
      </trkpt>
      <trkpt lat="45.863691" lon="6.757774">
        <ele>1313.713</ele>
        <time>2018-07-13T11:58:38Z</time>
      </trkpt>
      <trkpt lat="45.863667" lon="6.757839">
        <ele>1311.772</ele>
        <time>2018-07-13T11:58:44Z</time>
      </trkpt>
      <trkpt lat="45.863647" lon="6.757903">
        <ele>1310.991</ele>
        <time>2018-07-13T11:58:49Z</time>
      </trkpt>
      <trkpt lat="45.863608" lon="6.757956">
        <ele>1309.311</ele>
        <time>2018-07-13T11:58:55Z</time>
      </trkpt>
      <trkpt lat="45.863572" lon="6.758016">
        <ele>1308.010</ele>
        <time>2018-07-13T11:59:00Z</time>
      </trkpt>
      <trkpt lat="45.863558" lon="6.758081">
        <ele>1307.065</ele>
        <time>2018-07-13T11:59:05Z</time>
      </trkpt>
      <trkpt lat="45.863541" lon="6.758150">
        <ele>1306.034</ele>
        <time>2018-07-13T11:59:11Z</time>
      </trkpt>
      <trkpt lat="45.863534" lon="6.758219">
        <ele>1305.167</ele>
        <time>2018-07-13T11:59:17Z</time>
      </trkpt>
      <trkpt lat="45.863516" lon="6.758281">
        <ele>1304.081</ele>
        <time>2018-07-13T11:59:25Z</time>
      </trkpt>
      <trkpt lat="45.863420" lon="6.758234">
        <ele>1303.419</ele>
        <time>2018-07-13T12:00:19Z</time>
      </trkpt>
      <trkpt lat="45.863380" lon="6.758194">
        <ele>1302.908</ele>
        <time>2018-07-13T12:00:25Z</time>
      </trkpt>
      <trkpt lat="45.863328" lon="6.758174">
        <ele>1303.118</ele>
        <time>2018-07-13T12:00:51Z</time>
      </trkpt>
      <trkpt lat="45.863299" lon="6.758121">
        <ele>1304.391</ele>
        <time>2018-07-13T12:01:05Z</time>
      </trkpt>
      <trkpt lat="45.863258" lon="6.758091">
        <ele>1306.890</ele>
        <time>2018-07-13T12:01:24Z</time>
      </trkpt>
      <trkpt lat="45.863244" lon="6.758153">
        <ele>1309.829</ele>
        <time>2018-07-13T12:01:46Z</time>
      </trkpt>
      <trkpt lat="45.863217" lon="6.758222">
        <ele>1311.279</ele>
        <time>2018-07-13T12:01:58Z</time>
      </trkpt>
      <trkpt lat="45.863177" lon="6.758253">
        <ele>1311.718</ele>
        <time>2018-07-13T12:02:06Z</time>
      </trkpt>
      <trkpt lat="45.863134" lon="6.758308">
        <ele>1312.383</ele>
        <time>2018-07-13T12:02:48Z</time>
      </trkpt>
      <trkpt lat="45.863099" lon="6.758260">
        <ele>1312.832</ele>
        <time>2018-07-13T12:03:08Z</time>
      </trkpt>
      <trkpt lat="45.863122" lon="6.758201">
        <ele>1312.894</ele>
        <time>2018-07-13T12:03:15Z</time>
      </trkpt>
      <trkpt lat="45.863105" lon="6.758136">
        <ele>1314.557</ele>
        <time>2018-07-13T12:03:28Z</time>
      </trkpt>
      <trkpt lat="45.863063" lon="6.758093">
        <ele>1315.922</ele>
        <time>2018-07-13T12:03:36Z</time>
      </trkpt>
      <trkpt lat="45.863021" lon="6.758068">
        <ele>1316.908</ele>
        <time>2018-07-13T12:03:41Z</time>
      </trkpt>
      <trkpt lat="45.862977" lon="6.758107">
        <ele>1318.931</ele>
        <time>2018-07-13T12:03:55Z</time>
      </trkpt>
      <trkpt lat="45.862966" lon="6.758173">
        <ele>1320.644</ele>
        <time>2018-07-13T12:04:09Z</time>
      </trkpt>
      <trkpt lat="45.862937" lon="6.758224">
        <ele>1321.223</ele>
        <time>2018-07-13T12:04:17Z</time>
      </trkpt>
      <trkpt lat="45.862912" lon="6.758285">
        <ele>1321.722</ele>
        <time>2018-07-13T12:04:23Z</time>
      </trkpt>
      <trkpt lat="45.862895" lon="6.758353">
        <ele>1323.392</ele>
        <time>2018-07-13T12:04:34Z</time>
      </trkpt>
      <trkpt lat="45.862876" lon="6.758419">
        <ele>1324.081</ele>
        <time>2018-07-13T12:04:41Z</time>
      </trkpt>
      <trkpt lat="45.862879" lon="6.758485">
        <ele>1325.676</ele>
        <time>2018-07-13T12:04:50Z</time>
      </trkpt>
      <trkpt lat="45.862908" lon="6.758536">
        <ele>1327.075</ele>
        <time>2018-07-13T12:05:03Z</time>
      </trkpt>
      <trkpt lat="45.862855" lon="6.758509">
        <ele>1331.236</ele>
        <time>2018-07-13T12:05:34Z</time>
      </trkpt>
      <trkpt lat="45.862841" lon="6.758574">
        <ele>1334.917</ele>
        <time>2018-07-13T12:06:05Z</time>
      </trkpt>
      <trkpt lat="45.862814" lon="6.758633">
        <ele>1337.718</ele>
        <time>2018-07-13T12:06:29Z</time>
      </trkpt>
      <trkpt lat="45.862736" lon="6.758780">
        <ele>1340.808</ele>
        <time>2018-07-13T12:06:57Z</time>
      </trkpt>
      <trkpt lat="45.862779" lon="6.758883">
        <ele>1343.125</ele>
        <time>2018-07-13T12:07:14Z</time>
      </trkpt>
      <trkpt lat="45.862750" lon="6.758948">
        <ele>1344.418</ele>
        <time>2018-07-13T12:07:27Z</time>
      </trkpt>
      <trkpt lat="45.862700" lon="6.759008">
        <ele>1346.067</ele>
        <time>2018-07-13T12:07:42Z</time>
      </trkpt>
      <trkpt lat="45.862647" lon="6.759043">
        <ele>1347.786</ele>
        <time>2018-07-13T12:07:56Z</time>
      </trkpt>
      <trkpt lat="45.862594" lon="6.759055">
        <ele>1350.246</ele>
        <time>2018-07-13T12:08:18Z</time>
      </trkpt>
      <trkpt lat="45.862555" lon="6.759097">
        <ele>1351.265</ele>
        <time>2018-07-13T12:08:26Z</time>
      </trkpt>
      <trkpt lat="45.862511" lon="6.759134">
        <ele>1353.230</ele>
        <time>2018-07-13T12:08:44Z</time>
      </trkpt>
      <trkpt lat="45.862453" lon="6.759153">
        <ele>1354.729</ele>
        <time>2018-07-13T12:09:01Z</time>
      </trkpt>
      <trkpt lat="45.862442" lon="6.759088">
        <ele>1355.673</ele>
        <time>2018-07-13T12:09:09Z</time>
      </trkpt>
      <trkpt lat="45.862431" lon="6.759013">
        <ele>1357.285</ele>
        <time>2018-07-13T12:09:24Z</time>
      </trkpt>
      <trkpt lat="45.862414" lon="6.759089">
        <ele>1358.113</ele>
        <time>2018-07-13T12:10:01Z</time>
      </trkpt>
      <trkpt lat="45.862410" lon="6.759023">
        <ele>1358.508</ele>
        <time>2018-07-13T12:10:18Z</time>
      </trkpt>
      <trkpt lat="45.862380" lon="6.759078">
        <ele>1362.079</ele>
        <time>2018-07-13T12:10:44Z</time>
      </trkpt>
      <trkpt lat="45.862354" lon="6.759140">
        <ele>1363.322</ele>
        <time>2018-07-13T12:10:59Z</time>
      </trkpt>
      <trkpt lat="45.862330" lon="6.759213">
        <ele>1364.921</ele>
        <time>2018-07-13T12:11:10Z</time>
      </trkpt>
      <trkpt lat="45.862285" lon="6.759304">
        <ele>1367.960</ele>
        <time>2018-07-13T12:11:33Z</time>
      </trkpt>
      <trkpt lat="45.862236" lon="6.759357">
        <ele>1369.320</ele>
        <time>2018-07-13T12:11:53Z</time>
      </trkpt>
      <trkpt lat="45.862189" lon="6.759389">
        <ele>1370.769</ele>
        <time>2018-07-13T12:12:04Z</time>
      </trkpt>
      <trkpt lat="45.862140" lon="6.759394">
        <ele>1371.514</ele>
        <time>2018-07-13T12:12:13Z</time>
      </trkpt>
      <trkpt lat="45.862143" lon="6.759313">
        <ele>1372.123</ele>
        <time>2018-07-13T12:13:37Z</time>
      </trkpt>
      <trkpt lat="45.862161" lon="6.759246">
        <ele>1372.073</ele>
        <time>2018-07-13T12:14:13Z</time>
      </trkpt>
      <trkpt lat="45.862194" lon="6.759198">
        <ele>1372.185</ele>
        <time>2018-07-13T12:14:16Z</time>
      </trkpt>
      <trkpt lat="45.862217" lon="6.759137">
        <ele>1371.813</ele>
        <time>2018-07-13T12:14:20Z</time>
      </trkpt>
      <trkpt lat="45.862230" lon="6.759064">
        <ele>1369.908</ele>
        <time>2018-07-13T12:14:26Z</time>
      </trkpt>
      <trkpt lat="45.862238" lon="6.758991">
        <ele>1371.889</ele>
        <time>2018-07-13T12:14:31Z</time>
      </trkpt>
      <trkpt lat="45.862260" lon="6.758926">
        <ele>1372.032</ele>
        <time>2018-07-13T12:14:36Z</time>
      </trkpt>
      <trkpt lat="45.862288" lon="6.758863">
        <ele>1372.361</ele>
        <time>2018-07-13T12:14:40Z</time>
      </trkpt>
      <trkpt lat="45.862317" lon="6.758799">
        <ele>1372.140</ele>
        <time>2018-07-13T12:14:44Z</time>
      </trkpt>
      <trkpt lat="45.862333" lon="6.758723">
        <ele>1372.320</ele>
        <time>2018-07-13T12:14:48Z</time>
      </trkpt>
      <trkpt lat="45.862334" lon="6.758653">
        <ele>1372.679</ele>
        <time>2018-07-13T12:14:52Z</time>
      </trkpt>
      <trkpt lat="45.862325" lon="6.758572">
        <ele>1372.794</ele>
        <time>2018-07-13T12:14:57Z</time>
      </trkpt>
      <trkpt lat="45.862312" lon="6.758502">
        <ele>1372.223</ele>
        <time>2018-07-13T12:15:01Z</time>
      </trkpt>
      <trkpt lat="45.862304" lon="6.758420">
        <ele>1371.921</ele>
        <time>2018-07-13T12:15:05Z</time>
      </trkpt>
      <trkpt lat="45.862286" lon="6.758346">
        <ele>1371.641</ele>
        <time>2018-07-13T12:15:09Z</time>
      </trkpt>
      <trkpt lat="45.862268" lon="6.758272">
        <ele>1371.105</ele>
        <time>2018-07-13T12:15:13Z</time>
      </trkpt>
      <trkpt lat="45.862258" lon="6.758197">
        <ele>1370.808</ele>
        <time>2018-07-13T12:15:18Z</time>
      </trkpt>
      <trkpt lat="45.862235" lon="6.758128">
        <ele>1370.434</ele>
        <time>2018-07-13T12:15:23Z</time>
      </trkpt>
      <trkpt lat="45.862204" lon="6.758071">
        <ele>1370.017</ele>
        <time>2018-07-13T12:15:27Z</time>
      </trkpt>
      <trkpt lat="45.862177" lon="6.758009">
        <ele>1369.746</ele>
        <time>2018-07-13T12:15:31Z</time>
      </trkpt>
      <trkpt lat="45.862153" lon="6.757943">
        <ele>1369.455</ele>
        <time>2018-07-13T12:15:35Z</time>
      </trkpt>
      <trkpt lat="45.862137" lon="6.757871">
        <ele>1368.825</ele>
        <time>2018-07-13T12:15:39Z</time>
      </trkpt>
      <trkpt lat="45.862131" lon="6.757791">
        <ele>1368.254</ele>
        <time>2018-07-13T12:15:43Z</time>
      </trkpt>
      <trkpt lat="45.862124" lon="6.757721">
        <ele>1367.639</ele>
        <time>2018-07-13T12:15:47Z</time>
      </trkpt>
      <trkpt lat="45.862115" lon="6.757644">
        <ele>1367.138</ele>
        <time>2018-07-13T12:15:51Z</time>
      </trkpt>
      <trkpt lat="45.862102" lon="6.757570">
        <ele>1366.485</ele>
        <time>2018-07-13T12:15:55Z</time>
      </trkpt>
      <trkpt lat="45.862085" lon="6.757497">
        <ele>1363.489</ele>
        <time>2018-07-13T12:15:59Z</time>
      </trkpt>
      <trkpt lat="45.862089" lon="6.757421">
        <ele>1364.017</ele>
        <time>2018-07-13T12:16:03Z</time>
      </trkpt>
      <trkpt lat="45.862091" lon="6.757346">
        <ele>1364.408</ele>
        <time>2018-07-13T12:16:07Z</time>
      </trkpt>
      <trkpt lat="45.862084" lon="6.757282">
        <ele>1363.770</ele>
        <time>2018-07-13T12:16:11Z</time>
      </trkpt>
      <trkpt lat="45.862068" lon="6.757207">
        <ele>1363.263</ele>
        <time>2018-07-13T12:16:15Z</time>
      </trkpt>
      <trkpt lat="45.862048" lon="6.757140">
        <ele>1362.742</ele>
        <time>2018-07-13T12:16:20Z</time>
      </trkpt>
      <trkpt lat="45.862023" lon="6.757085">
        <ele>1362.381</ele>
        <time>2018-07-13T12:16:24Z</time>
      </trkpt>
      <trkpt lat="45.861996" lon="6.757016">
        <ele>1361.661</ele>
        <time>2018-07-13T12:16:28Z</time>
      </trkpt>
      <trkpt lat="45.861971" lon="6.756941">
        <ele>1361.250</ele>
        <time>2018-07-13T12:16:32Z</time>
      </trkpt>
      <trkpt lat="45.861956" lon="6.756860">
        <ele>1361.195</ele>
        <time>2018-07-13T12:16:36Z</time>
      </trkpt>
      <trkpt lat="45.861941" lon="6.756785">
        <ele>1360.444</ele>
        <time>2018-07-13T12:16:40Z</time>
      </trkpt>
      <trkpt lat="45.861929" lon="6.756709">
        <ele>1360.051</ele>
        <time>2018-07-13T12:16:44Z</time>
      </trkpt>
      <trkpt lat="45.861913" lon="6.756641">
        <ele>1359.201</ele>
        <time>2018-07-13T12:16:48Z</time>
      </trkpt>
      <trkpt lat="45.861893" lon="6.756573">
        <ele>1358.711</ele>
        <time>2018-07-13T12:16:53Z</time>
      </trkpt>
      <trkpt lat="45.861873" lon="6.756508">
        <ele>1357.808</ele>
        <time>2018-07-13T12:16:58Z</time>
      </trkpt>
      <trkpt lat="45.861862" lon="6.756440">
        <ele>1357.257</ele>
        <time>2018-07-13T12:17:02Z</time>
      </trkpt>
      <trkpt lat="45.861849" lon="6.756374">
        <ele>1356.410</ele>
        <time>2018-07-13T12:17:06Z</time>
      </trkpt>
      <trkpt lat="45.861831" lon="6.756307">
        <ele>1355.689</ele>
        <time>2018-07-13T12:17:10Z</time>
      </trkpt>
      <trkpt lat="45.861821" lon="6.756235">
        <ele>1354.978</ele>
        <time>2018-07-13T12:17:14Z</time>
      </trkpt>
      <trkpt lat="45.861812" lon="6.756162">
        <ele>1354.698</ele>
        <time>2018-07-13T12:17:18Z</time>
      </trkpt>
      <trkpt lat="45.861811" lon="6.756096">
        <ele>1353.917</ele>
        <time>2018-07-13T12:17:22Z</time>
      </trkpt>
      <trkpt lat="45.861807" lon="6.756027">
        <ele>1353.442</ele>
        <time>2018-07-13T12:17:26Z</time>
      </trkpt>
      <trkpt lat="45.861793" lon="6.755965">
        <ele>1352.821</ele>
        <time>2018-07-13T12:17:30Z</time>
      </trkpt>
      <trkpt lat="45.861776" lon="6.755899">
        <ele>1352.097</ele>
        <time>2018-07-13T12:17:34Z</time>
      </trkpt>
      <trkpt lat="45.861748" lon="6.755836">
        <ele>1350.723</ele>
        <time>2018-07-13T12:17:39Z</time>
      </trkpt>
      <trkpt lat="45.861726" lon="6.755776">
        <ele>1350.425</ele>
        <time>2018-07-13T12:17:43Z</time>
      </trkpt>
      <trkpt lat="45.861709" lon="6.755710">
        <ele>1349.108</ele>
        <time>2018-07-13T12:17:47Z</time>
      </trkpt>
      <trkpt lat="45.861706" lon="6.755642">
        <ele>1348.391</ele>
        <time>2018-07-13T12:17:51Z</time>
      </trkpt>
      <trkpt lat="45.861698" lon="6.755575">
        <ele>1347.624</ele>
        <time>2018-07-13T12:17:55Z</time>
      </trkpt>
      <trkpt lat="45.861683" lon="6.755512">
        <ele>1347.053</ele>
        <time>2018-07-13T12:17:59Z</time>
      </trkpt>
      <trkpt lat="45.861666" lon="6.755440">
        <ele>1346.092</ele>
        <time>2018-07-13T12:18:04Z</time>
      </trkpt>
      <trkpt lat="45.861648" lon="6.755371">
        <ele>1345.372</ele>
        <time>2018-07-13T12:18:08Z</time>
      </trkpt>
      <trkpt lat="45.861636" lon="6.755295">
        <ele>1344.651</ele>
        <time>2018-07-13T12:18:12Z</time>
      </trkpt>
      <trkpt lat="45.861622" lon="6.755228">
        <ele>1343.886</ele>
        <time>2018-07-13T12:18:16Z</time>
      </trkpt>
      <trkpt lat="45.861605" lon="6.755157">
        <ele>1343.135</ele>
        <time>2018-07-13T12:18:21Z</time>
      </trkpt>
      <trkpt lat="45.861596" lon="6.755075">
        <ele>1342.366</ele>
        <time>2018-07-13T12:18:26Z</time>
      </trkpt>
      <trkpt lat="45.861589" lon="6.755011">
        <ele>1342.129</ele>
        <time>2018-07-13T12:18:29Z</time>
      </trkpt>
      <trkpt lat="45.861582" lon="6.754934">
        <ele>1341.321</ele>
        <time>2018-07-13T12:18:33Z</time>
      </trkpt>
      <trkpt lat="45.861569" lon="6.754860">
        <ele>1340.608</ele>
        <time>2018-07-13T12:18:37Z</time>
      </trkpt>
      <trkpt lat="45.861550" lon="6.754795">
        <ele>1340.098</ele>
        <time>2018-07-13T12:18:41Z</time>
      </trkpt>
      <trkpt lat="45.861542" lon="6.754731">
        <ele>1339.271</ele>
        <time>2018-07-13T12:18:45Z</time>
      </trkpt>
      <trkpt lat="45.861541" lon="6.754658">
        <ele>1338.270</ele>
        <time>2018-07-13T12:18:50Z</time>
      </trkpt>
      <trkpt lat="45.861539" lon="6.754593">
        <ele>1337.249</ele>
        <time>2018-07-13T12:18:55Z</time>
      </trkpt>
      <trkpt lat="45.861545" lon="6.754518">
        <ele>1336.079</ele>
        <time>2018-07-13T12:19:00Z</time>
      </trkpt>
      <trkpt lat="45.861553" lon="6.754454">
        <ele>1335.528</ele>
        <time>2018-07-13T12:19:04Z</time>
      </trkpt>
      <trkpt lat="45.861558" lon="6.754384">
        <ele>1334.193</ele>
        <time>2018-07-13T12:19:09Z</time>
      </trkpt>
      <trkpt lat="45.861564" lon="6.754312">
        <ele>1332.842</ele>
        <time>2018-07-13T12:19:14Z</time>
      </trkpt>
      <trkpt lat="45.861573" lon="6.754235">
        <ele>1331.513</ele>
        <time>2018-07-13T12:19:19Z</time>
      </trkpt>
      <trkpt lat="45.861577" lon="6.754167">
        <ele>1330.743</ele>
        <time>2018-07-13T12:19:24Z</time>
      </trkpt>
      <trkpt lat="45.861591" lon="6.754092">
        <ele>1329.407</ele>
        <time>2018-07-13T12:19:29Z</time>
      </trkpt>
      <trkpt lat="45.861597" lon="6.754020">
        <ele>1328.208</ele>
        <time>2018-07-13T12:19:34Z</time>
      </trkpt>
      <trkpt lat="45.861609" lon="6.753955">
        <ele>1327.383</ele>
        <time>2018-07-13T12:19:38Z</time>
      </trkpt>
      <trkpt lat="45.861614" lon="6.753887">
        <ele>1326.566</ele>
        <time>2018-07-13T12:19:42Z</time>
      </trkpt>
      <trkpt lat="45.861609" lon="6.753811">
        <ele>1325.615</ele>
        <time>2018-07-13T12:19:47Z</time>
      </trkpt>
      <trkpt lat="45.861596" lon="6.753747">
        <ele>1324.724</ele>
        <time>2018-07-13T12:19:52Z</time>
      </trkpt>
      <trkpt lat="45.861594" lon="6.753682">
        <ele>1323.654</ele>
        <time>2018-07-13T12:19:56Z</time>
      </trkpt>
      <trkpt lat="45.861607" lon="6.753617">
        <ele>1323.043</ele>
        <time>2018-07-13T12:20:00Z</time>
      </trkpt>
      <trkpt lat="45.861627" lon="6.753548">
        <ele>1321.998</ele>
        <time>2018-07-13T12:20:06Z</time>
      </trkpt>
      <trkpt lat="45.861633" lon="6.753474">
        <ele>1321.087</ele>
        <time>2018-07-13T12:20:12Z</time>
      </trkpt>
      <trkpt lat="45.861627" lon="6.753409">
        <ele>1320.159</ele>
        <time>2018-07-13T12:20:16Z</time>
      </trkpt>
      <trkpt lat="45.861613" lon="6.753339">
        <ele>1319.503</ele>
        <time>2018-07-13T12:20:20Z</time>
      </trkpt>
      <trkpt lat="45.861596" lon="6.753266">
        <ele>1319.123</ele>
        <time>2018-07-13T12:20:24Z</time>
      </trkpt>
      <trkpt lat="45.861574" lon="6.753198">
        <ele>1318.308</ele>
        <time>2018-07-13T12:20:28Z</time>
      </trkpt>
      <trkpt lat="45.861558" lon="6.753137">
        <ele>1317.767</ele>
        <time>2018-07-13T12:20:32Z</time>
      </trkpt>
      <trkpt lat="45.861543" lon="6.753070">
        <ele>1316.930</ele>
        <time>2018-07-13T12:20:37Z</time>
      </trkpt>
      <trkpt lat="45.861508" lon="6.753023">
        <ele>1314.139</ele>
        <time>2018-07-13T12:20:41Z</time>
      </trkpt>
      <trkpt lat="45.861467" lon="6.752978">
        <ele>1315.418</ele>
        <time>2018-07-13T12:20:45Z</time>
      </trkpt>
      <trkpt lat="45.861427" lon="6.752942">
        <ele>1314.438</ele>
        <time>2018-07-13T12:20:49Z</time>
      </trkpt>
      <trkpt lat="45.861384" lon="6.752906">
        <ele>1313.527</ele>
        <time>2018-07-13T12:20:55Z</time>
      </trkpt>
      <trkpt lat="45.861342" lon="6.752879">
        <ele>1312.162</ele>
        <time>2018-07-13T12:21:00Z</time>
      </trkpt>
      <trkpt lat="45.861325" lon="6.752809">
        <ele>1311.371</ele>
        <time>2018-07-13T12:21:05Z</time>
      </trkpt>
      <trkpt lat="45.861332" lon="6.752745">
        <ele>1310.292</ele>
        <time>2018-07-13T12:21:09Z</time>
      </trkpt>
      <trkpt lat="45.861350" lon="6.752671">
        <ele>1309.673</ele>
        <time>2018-07-13T12:21:13Z</time>
      </trkpt>
      <trkpt lat="45.861369" lon="6.752603">
        <ele>1308.820</ele>
        <time>2018-07-13T12:21:17Z</time>
      </trkpt>
      <trkpt lat="45.861381" lon="6.752538">
        <ele>1307.908</ele>
        <time>2018-07-13T12:21:22Z</time>
      </trkpt>
      <trkpt lat="45.861398" lon="6.752472">
        <ele>1307.261</ele>
        <time>2018-07-13T12:21:27Z</time>
      </trkpt>
      <trkpt lat="45.861418" lon="6.752407">
        <ele>1306.194</ele>
        <time>2018-07-13T12:21:33Z</time>
      </trkpt>
      <trkpt lat="45.861441" lon="6.752338">
        <ele>1305.033</ele>
        <time>2018-07-13T12:21:38Z</time>
      </trkpt>
      <trkpt lat="45.861464" lon="6.752282">
        <ele>1304.142</ele>
        <time>2018-07-13T12:21:42Z</time>
      </trkpt>
      <trkpt lat="45.861478" lon="6.752208">
        <ele>1302.992</ele>
        <time>2018-07-13T12:21:48Z</time>
      </trkpt>
      <trkpt lat="45.861513" lon="6.752146">
        <ele>1302.021</ele>
        <time>2018-07-13T12:21:53Z</time>
      </trkpt>
      <trkpt lat="45.861526" lon="6.752078">
        <ele>1301.096</ele>
        <time>2018-07-13T12:21:58Z</time>
      </trkpt>
      <trkpt lat="45.861529" lon="6.752005">
        <ele>1300.445</ele>
        <time>2018-07-13T12:22:02Z</time>
      </trkpt>
      <trkpt lat="45.861518" lon="6.751933">
        <ele>1299.679</ele>
        <time>2018-07-13T12:22:07Z</time>
      </trkpt>
      <trkpt lat="45.861509" lon="6.751852">
        <ele>1299.105</ele>
        <time>2018-07-13T12:22:12Z</time>
      </trkpt>
      <trkpt lat="45.861519" lon="6.751788">
        <ele>1296.725</ele>
        <time>2018-07-13T12:22:15Z</time>
      </trkpt>
      <trkpt lat="45.861519" lon="6.751713">
        <ele>1296.308</ele>
        <time>2018-07-13T12:22:19Z</time>
      </trkpt>
      <trkpt lat="45.861522" lon="6.751640">
        <ele>1296.379</ele>
        <time>2018-07-13T12:22:23Z</time>
      </trkpt>
      <trkpt lat="45.861516" lon="6.751571">
        <ele>1298.122</ele>
        <time>2018-07-13T12:22:27Z</time>
      </trkpt>
      <trkpt lat="45.861521" lon="6.751496">
        <ele>1297.961</ele>
        <time>2018-07-13T12:22:31Z</time>
      </trkpt>
      <trkpt lat="45.861534" lon="6.751432">
        <ele>1296.720</ele>
        <time>2018-07-13T12:22:35Z</time>
      </trkpt>
      <trkpt lat="45.861538" lon="6.751357">
        <ele>1297.050</ele>
        <time>2018-07-13T12:22:39Z</time>
      </trkpt>
      <trkpt lat="45.861542" lon="6.751291">
        <ele>1295.749</ele>
        <time>2018-07-13T12:22:42Z</time>
      </trkpt>
      <trkpt lat="45.861536" lon="6.751218">
        <ele>1298.094</ele>
        <time>2018-07-13T12:22:46Z</time>
      </trkpt>
      <trkpt lat="45.861533" lon="6.751144">
        <ele>1297.153</ele>
        <time>2018-07-13T12:22:51Z</time>
      </trkpt>
      <trkpt lat="45.861521" lon="6.751074">
        <ele>1299.229</ele>
        <time>2018-07-13T12:22:56Z</time>
      </trkpt>
      <trkpt lat="45.861500" lon="6.751010">
        <ele>1297.800</ele>
        <time>2018-07-13T12:23:01Z</time>
      </trkpt>
      <trkpt lat="45.861499" lon="6.750936">
        <ele>1298.720</ele>
        <time>2018-07-13T12:23:07Z</time>
      </trkpt>
      <trkpt lat="45.861494" lon="6.750859">
        <ele>1298.908</ele>
        <time>2018-07-13T12:23:13Z</time>
      </trkpt>
      <trkpt lat="45.861498" lon="6.750791">
        <ele>1299.274</ele>
        <time>2018-07-13T12:23:18Z</time>
      </trkpt>
      <trkpt lat="45.861481" lon="6.750725">
        <ele>1299.497</ele>
        <time>2018-07-13T12:23:23Z</time>
      </trkpt>
      <trkpt lat="45.861476" lon="6.750651">
        <ele>1299.216</ele>
        <time>2018-07-13T12:23:28Z</time>
      </trkpt>
      <trkpt lat="45.861463" lon="6.750577">
        <ele>1299.115</ele>
        <time>2018-07-13T12:23:33Z</time>
      </trkpt>
      <trkpt lat="45.861444" lon="6.750504">
        <ele>1298.125</ele>
        <time>2018-07-13T12:23:38Z</time>
      </trkpt>
      <trkpt lat="45.861436" lon="6.750437">
        <ele>1298.024</ele>
        <time>2018-07-13T12:23:42Z</time>
      </trkpt>
      <trkpt lat="45.861422" lon="6.750362">
        <ele>1297.299</ele>
        <time>2018-07-13T12:23:47Z</time>
      </trkpt>
      <trkpt lat="45.861412" lon="6.750286">
        <ele>1296.918</ele>
        <time>2018-07-13T12:23:53Z</time>
      </trkpt>
      <trkpt lat="45.861408" lon="6.750208">
        <ele>1296.852</ele>
        <time>2018-07-13T12:23:57Z</time>
      </trkpt>
      <trkpt lat="45.861411" lon="6.750128">
        <ele>1296.053</ele>
        <time>2018-07-13T12:24:01Z</time>
      </trkpt>
      <trkpt lat="45.861412" lon="6.750056">
        <ele>1295.608</ele>
        <time>2018-07-13T12:24:05Z</time>
      </trkpt>
      <trkpt lat="45.861401" lon="6.749989">
        <ele>1295.108</ele>
        <time>2018-07-13T12:24:09Z</time>
      </trkpt>
      <trkpt lat="45.861388" lon="6.749926">
        <ele>1294.837</ele>
        <time>2018-07-13T12:24:13Z</time>
      </trkpt>
      <trkpt lat="45.861357" lon="6.749861">
        <ele>1294.110</ele>
        <time>2018-07-13T12:24:18Z</time>
      </trkpt>
      <trkpt lat="45.861336" lon="6.749788">
        <ele>1293.319</ele>
        <time>2018-07-13T12:24:23Z</time>
      </trkpt>
      <trkpt lat="45.861327" lon="6.749720">
        <ele>1293.298</ele>
        <time>2018-07-13T12:24:27Z</time>
      </trkpt>
      <trkpt lat="45.861318" lon="6.749648">
        <ele>1292.218</ele>
        <time>2018-07-13T12:24:31Z</time>
      </trkpt>
      <trkpt lat="45.861305" lon="6.749581">
        <ele>1291.797</ele>
        <time>2018-07-13T12:24:35Z</time>
      </trkpt>
      <trkpt lat="45.861291" lon="6.749503">
        <ele>1292.292</ele>
        <time>2018-07-13T12:24:40Z</time>
      </trkpt>
      <trkpt lat="45.861289" lon="6.749432">
        <ele>1291.261</ele>
        <time>2018-07-13T12:24:44Z</time>
      </trkpt>
      <trkpt lat="45.861287" lon="6.749362">
        <ele>1290.991</ele>
        <time>2018-07-13T12:24:48Z</time>
      </trkpt>
      <trkpt lat="45.861272" lon="6.749293">
        <ele>1291.081</ele>
        <time>2018-07-13T12:24:52Z</time>
      </trkpt>
      <trkpt lat="45.861248" lon="6.749231">
        <ele>1290.419</ele>
        <time>2018-07-13T12:24:56Z</time>
      </trkpt>
      <trkpt lat="45.861207" lon="6.749186">
        <ele>1290.908</ele>
        <time>2018-07-13T12:25:00Z</time>
      </trkpt>
      <trkpt lat="45.861166" lon="6.749145">
        <ele>1290.511</ele>
        <time>2018-07-13T12:25:04Z</time>
      </trkpt>
      <trkpt lat="45.861124" lon="6.749096">
        <ele>1290.634</ele>
        <time>2018-07-13T12:25:09Z</time>
      </trkpt>
      <trkpt lat="45.861085" lon="6.749063">
        <ele>1290.983</ele>
        <time>2018-07-13T12:25:13Z</time>
      </trkpt>
      <trkpt lat="45.861037" lon="6.749032">
        <ele>1290.742</ele>
        <time>2018-07-13T12:25:17Z</time>
      </trkpt>
      <trkpt lat="45.860996" lon="6.748976">
        <ele>1290.432</ele>
        <time>2018-07-13T12:25:21Z</time>
      </trkpt>
      <trkpt lat="45.860953" lon="6.748922">
        <ele>1290.371</ele>
        <time>2018-07-13T12:25:25Z</time>
      </trkpt>
      <trkpt lat="45.860939" lon="6.748846">
        <ele>1290.236</ele>
        <time>2018-07-13T12:25:29Z</time>
      </trkpt>
      <trkpt lat="45.860930" lon="6.748769">
        <ele>1290.335</ele>
        <time>2018-07-13T12:25:33Z</time>
      </trkpt>
      <trkpt lat="45.860932" lon="6.748696">
        <ele>1290.758</ele>
        <time>2018-07-13T12:25:37Z</time>
      </trkpt>
      <trkpt lat="45.860910" lon="6.748639">
        <ele>1290.952</ele>
        <time>2018-07-13T12:25:41Z</time>
      </trkpt>
      <trkpt lat="45.860871" lon="6.748590">
        <ele>1290.417</ele>
        <time>2018-07-13T12:25:45Z</time>
      </trkpt>
      <trkpt lat="45.860836" lon="6.748538">
        <ele>1290.608</ele>
        <time>2018-07-13T12:25:49Z</time>
      </trkpt>
      <trkpt lat="45.860818" lon="6.748462">
        <ele>1290.617</ele>
        <time>2018-07-13T12:25:54Z</time>
      </trkpt>
      <trkpt lat="45.860799" lon="6.748390">
        <ele>1290.850</ele>
        <time>2018-07-13T12:25:58Z</time>
      </trkpt>
      <trkpt lat="45.860821" lon="6.748318">
        <ele>1290.629</ele>
        <time>2018-07-13T12:26:02Z</time>
      </trkpt>
      <trkpt lat="45.860866" lon="6.748270">
        <ele>1290.598</ele>
        <time>2018-07-13T12:26:05Z</time>
      </trkpt>
      <trkpt lat="45.860902" lon="6.748206">
        <ele>1290.248</ele>
        <time>2018-07-13T12:26:09Z</time>
      </trkpt>
      <trkpt lat="45.860937" lon="6.748142">
        <ele>1290.127</ele>
        <time>2018-07-13T12:26:14Z</time>
      </trkpt>
      <trkpt lat="45.860961" lon="6.748076">
        <ele>1289.862</ele>
        <time>2018-07-13T12:26:18Z</time>
      </trkpt>
      <trkpt lat="45.860934" lon="6.748023">
        <ele>1289.821</ele>
        <time>2018-07-13T12:26:21Z</time>
      </trkpt>
      <trkpt lat="45.860928" lon="6.747953">
        <ele>1290.181</ele>
        <time>2018-07-13T12:26:25Z</time>
      </trkpt>
      <trkpt lat="45.860914" lon="6.747888">
        <ele>1290.161</ele>
        <time>2018-07-13T12:26:29Z</time>
      </trkpt>
      <trkpt lat="45.860906" lon="6.747815">
        <ele>1290.017</ele>
        <time>2018-07-13T12:26:33Z</time>
      </trkpt>
      <trkpt lat="45.860909" lon="6.747738">
        <ele>1290.208</ele>
        <time>2018-07-13T12:26:37Z</time>
      </trkpt>
      <trkpt lat="45.860914" lon="6.747660">
        <ele>1289.790</ele>
        <time>2018-07-13T12:26:41Z</time>
      </trkpt>
      <trkpt lat="45.860898" lon="6.747585">
        <ele>1290.353</ele>
        <time>2018-07-13T12:26:45Z</time>
      </trkpt>
      <trkpt lat="45.860900" lon="6.747513">
        <ele>1289.562</ele>
        <time>2018-07-13T12:26:49Z</time>
      </trkpt>
      <trkpt lat="45.860905" lon="6.747448">
        <ele>1289.611</ele>
        <time>2018-07-13T12:26:52Z</time>
      </trkpt>
      <trkpt lat="45.860930" lon="6.747376">
        <ele>1289.821</ele>
        <time>2018-07-13T12:26:56Z</time>
      </trkpt>
      <trkpt lat="45.860953" lon="6.747305">
        <ele>1289.630</ele>
        <time>2018-07-13T12:27:00Z</time>
      </trkpt>
      <trkpt lat="45.860981" lon="6.747245">
        <ele>1289.615</ele>
        <time>2018-07-13T12:27:04Z</time>
      </trkpt>
      <trkpt lat="45.861018" lon="6.747201">
        <ele>1289.994</ele>
        <time>2018-07-13T12:27:07Z</time>
      </trkpt>
      <trkpt lat="45.861053" lon="6.747134">
        <ele>1290.089</ele>
        <time>2018-07-13T12:27:11Z</time>
      </trkpt>
      <trkpt lat="45.861076" lon="6.747067">
        <ele>1289.906</ele>
        <time>2018-07-13T12:27:15Z</time>
      </trkpt>
      <trkpt lat="45.861102" lon="6.747013">
        <ele>1290.426</ele>
        <time>2018-07-13T12:27:18Z</time>
      </trkpt>
      <trkpt lat="45.861136" lon="6.746950">
        <ele>1290.908</ele>
        <time>2018-07-13T12:27:23Z</time>
      </trkpt>
      <trkpt lat="45.861170" lon="6.746894">
        <ele>1291.750</ele>
        <time>2018-07-13T12:27:28Z</time>
      </trkpt>
      <trkpt lat="45.861189" lon="6.746833">
        <ele>1294.683</ele>
        <time>2018-07-13T12:27:33Z</time>
      </trkpt>
      <trkpt lat="45.861200" lon="6.746767">
        <ele>1292.562</ele>
        <time>2018-07-13T12:27:38Z</time>
      </trkpt>
      <trkpt lat="45.861173" lon="6.746702">
        <ele>1292.531</ele>
        <time>2018-07-13T12:27:42Z</time>
      </trkpt>
      <trkpt lat="45.861141" lon="6.746650">
        <ele>1293.221</ele>
        <time>2018-07-13T12:27:45Z</time>
      </trkpt>
      <trkpt lat="45.861125" lon="6.746581">
        <ele>1293.320</ele>
        <time>2018-07-13T12:27:50Z</time>
      </trkpt>
      <trkpt lat="45.861152" lon="6.746518">
        <ele>1293.465</ele>
        <time>2018-07-13T12:27:54Z</time>
      </trkpt>
      <trkpt lat="45.861180" lon="6.746455">
        <ele>1294.014</ele>
        <time>2018-07-13T12:27:58Z</time>
      </trkpt>
      <trkpt lat="45.861226" lon="6.746413">
        <ele>1294.297</ele>
        <time>2018-07-13T12:28:02Z</time>
      </trkpt>
      <trkpt lat="45.861262" lon="6.746368">
        <ele>1294.623</ele>
        <time>2018-07-13T12:28:06Z</time>
      </trkpt>
      <trkpt lat="45.861286" lon="6.746304">
        <ele>1294.825</ele>
        <time>2018-07-13T12:28:11Z</time>
      </trkpt>
      <trkpt lat="45.861293" lon="6.746235">
        <ele>1295.208</ele>
        <time>2018-07-13T12:28:15Z</time>
      </trkpt>
      <trkpt lat="45.861301" lon="6.746170">
        <ele>1296.321</ele>
        <time>2018-07-13T12:28:22Z</time>
      </trkpt>
      <trkpt lat="45.861318" lon="6.746108">
        <ele>1296.614</ele>
        <time>2018-07-13T12:28:30Z</time>
      </trkpt>
      <trkpt lat="45.861344" lon="6.746053">
        <ele>1297.383</ele>
        <time>2018-07-13T12:28:36Z</time>
      </trkpt>
      <trkpt lat="45.861340" lon="6.745974">
        <ele>1298.032</ele>
        <time>2018-07-13T12:28:43Z</time>
      </trkpt>
      <trkpt lat="45.861360" lon="6.745914">
        <ele>1298.072</ele>
        <time>2018-07-13T12:28:47Z</time>
      </trkpt>
      <trkpt lat="45.861342" lon="6.745846">
        <ele>1298.551</ele>
        <time>2018-07-13T12:28:51Z</time>
      </trkpt>
      <trkpt lat="45.861333" lon="6.745776">
        <ele>1298.686</ele>
        <time>2018-07-13T12:28:56Z</time>
      </trkpt>
      <trkpt lat="45.861343" lon="6.745699">
        <ele>1299.195</ele>
        <time>2018-07-13T12:29:01Z</time>
      </trkpt>
      <trkpt lat="45.861386" lon="6.745646">
        <ele>1299.312</ele>
        <time>2018-07-13T12:29:05Z</time>
      </trkpt>
      <trkpt lat="45.861430" lon="6.745614">
        <ele>1299.732</ele>
        <time>2018-07-13T12:29:09Z</time>
      </trkpt>
      <trkpt lat="45.861481" lon="6.745581">
        <ele>1299.905</ele>
        <time>2018-07-13T12:29:13Z</time>
      </trkpt>
      <trkpt lat="45.861521" lon="6.745545">
        <ele>1300.608</ele>
        <time>2018-07-13T12:29:16Z</time>
      </trkpt>
      <trkpt lat="45.861556" lon="6.745481">
        <ele>1300.753</ele>
        <time>2018-07-13T12:29:20Z</time>
      </trkpt>
      <trkpt lat="45.861601" lon="6.745424">
        <ele>1300.876</ele>
        <time>2018-07-13T12:29:23Z</time>
      </trkpt>
      <trkpt lat="45.861644" lon="6.745371">
        <ele>1301.065</ele>
        <time>2018-07-13T12:29:27Z</time>
      </trkpt>
      <trkpt lat="45.861651" lon="6.745296">
        <ele>1301.684</ele>
        <time>2018-07-13T12:29:31Z</time>
      </trkpt>
      <trkpt lat="45.861624" lon="6.745232">
        <ele>1302.544</ele>
        <time>2018-07-13T12:29:36Z</time>
      </trkpt>
      <trkpt lat="45.861587" lon="6.745194">
        <ele>1302.553</ele>
        <time>2018-07-13T12:29:39Z</time>
      </trkpt>
      <trkpt lat="45.861602" lon="6.745117">
        <ele>1303.528</ele>
        <time>2018-07-13T12:29:44Z</time>
      </trkpt>
      <trkpt lat="45.861637" lon="6.745075">
        <ele>1303.517</ele>
        <time>2018-07-13T12:29:48Z</time>
      </trkpt>
      <trkpt lat="45.861676" lon="6.745022">
        <ele>1303.634</ele>
        <time>2018-07-13T12:29:53Z</time>
      </trkpt>
      <trkpt lat="45.861695" lon="6.744951">
        <ele>1304.755</ele>
        <time>2018-07-13T12:29:58Z</time>
      </trkpt>
      <trkpt lat="45.861710" lon="6.744878">
        <ele>1304.410</ele>
        <time>2018-07-13T12:30:03Z</time>
      </trkpt>
      <trkpt lat="45.861716" lon="6.744805">
        <ele>1304.808</ele>
        <time>2018-07-13T12:30:08Z</time>
      </trkpt>
      <trkpt lat="45.861718" lon="6.744724">
        <ele>1304.985</ele>
        <time>2018-07-13T12:30:13Z</time>
      </trkpt>
      <trkpt lat="45.861731" lon="6.744646">
        <ele>1306.018</ele>
        <time>2018-07-13T12:30:18Z</time>
      </trkpt>
      <trkpt lat="45.861754" lon="6.744583">
        <ele>1305.017</ele>
        <time>2018-07-13T12:30:24Z</time>
      </trkpt>
      <trkpt lat="45.861798" lon="6.744557">
        <ele>1305.636</ele>
        <time>2018-07-13T12:30:59Z</time>
      </trkpt>
      <trkpt lat="45.861755" lon="6.744525">
        <ele>1307.336</ele>
        <time>2018-07-13T12:32:06Z</time>
      </trkpt>
      <trkpt lat="45.861714" lon="6.744492">
        <ele>1307.075</ele>
        <time>2018-07-13T12:32:10Z</time>
      </trkpt>
      <trkpt lat="45.861671" lon="6.744465">
        <ele>1306.440</ele>
        <time>2018-07-13T12:32:18Z</time>
      </trkpt>
      <trkpt lat="45.861626" lon="6.744452">
        <ele>1304.919</ele>
        <time>2018-07-13T12:32:24Z</time>
      </trkpt>
      <trkpt lat="45.861578" lon="6.744417">
        <ele>1304.057</ele>
        <time>2018-07-13T12:32:29Z</time>
      </trkpt>
      <trkpt lat="45.861540" lon="6.744380">
        <ele>1303.400</ele>
        <time>2018-07-13T12:32:33Z</time>
      </trkpt>
      <trkpt lat="45.861508" lon="6.744330">
        <ele>1302.920</ele>
        <time>2018-07-13T12:32:37Z</time>
      </trkpt>
      <trkpt lat="45.861472" lon="6.744275">
        <ele>1302.408</ele>
        <time>2018-07-13T12:32:41Z</time>
      </trkpt>
      <trkpt lat="45.861445" lon="6.744220">
        <ele>1302.187</ele>
        <time>2018-07-13T12:32:45Z</time>
      </trkpt>
      <trkpt lat="45.861426" lon="6.744159">
        <ele>1301.890</ele>
        <time>2018-07-13T12:32:49Z</time>
      </trkpt>
      <trkpt lat="45.861402" lon="6.744092">
        <ele>1301.499</ele>
        <time>2018-07-13T12:32:53Z</time>
      </trkpt>
      <trkpt lat="45.861381" lon="6.744032">
        <ele>1300.788</ele>
        <time>2018-07-13T12:32:57Z</time>
      </trkpt>
      <trkpt lat="45.861352" lon="6.743982">
        <ele>1297.788</ele>
        <time>2018-07-13T12:33:01Z</time>
      </trkpt>
      <trkpt lat="45.861321" lon="6.743916">
        <ele>1297.677</ele>
        <time>2018-07-13T12:33:05Z</time>
      </trkpt>
      <trkpt lat="45.861293" lon="6.743861">
        <ele>1297.292</ele>
        <time>2018-07-13T12:33:09Z</time>
      </trkpt>
      <trkpt lat="45.861265" lon="6.743808">
        <ele>1297.221</ele>
        <time>2018-07-13T12:33:13Z</time>
      </trkpt>
      <trkpt lat="45.861238" lon="6.743742">
        <ele>1296.642</ele>
        <time>2018-07-13T12:33:17Z</time>
      </trkpt>
      <trkpt lat="45.861207" lon="6.743694">
        <ele>1296.622</ele>
        <time>2018-07-13T12:33:20Z</time>
      </trkpt>
      <trkpt lat="45.861181" lon="6.743638">
        <ele>1296.414</ele>
        <time>2018-07-13T12:33:23Z</time>
      </trkpt>
      <trkpt lat="45.861147" lon="6.743574">
        <ele>1298.508</ele>
        <time>2018-07-13T12:33:27Z</time>
      </trkpt>
      <trkpt lat="45.861114" lon="6.743523">
        <ele>1296.256</ele>
        <time>2018-07-13T12:33:31Z</time>
      </trkpt>
      <trkpt lat="45.861080" lon="6.743464">
        <ele>1295.499</ele>
        <time>2018-07-13T12:33:35Z</time>
      </trkpt>
      <trkpt lat="45.861046" lon="6.743402">
        <ele>1295.338</ele>
        <time>2018-07-13T12:33:39Z</time>
      </trkpt>
      <trkpt lat="45.861007" lon="6.743344">
        <ele>1295.117</ele>
        <time>2018-07-13T12:33:43Z</time>
      </trkpt>
      <trkpt lat="45.860977" lon="6.743280">
        <ele>1294.327</ele>
        <time>2018-07-13T12:33:48Z</time>
      </trkpt>
      <trkpt lat="45.860943" lon="6.743231">
        <ele>1294.146</ele>
        <time>2018-07-13T12:33:52Z</time>
      </trkpt>
      <trkpt lat="45.860912" lon="6.743165">
        <ele>1293.071</ele>
        <time>2018-07-13T12:33:56Z</time>
      </trkpt>
      <trkpt lat="45.860891" lon="6.743092">
        <ele>1292.270</ele>
        <time>2018-07-13T12:34:00Z</time>
      </trkpt>
      <trkpt lat="45.860863" lon="6.743028">
        <ele>1291.889</ele>
        <time>2018-07-13T12:34:04Z</time>
      </trkpt>
      <trkpt lat="45.860837" lon="6.742967">
        <ele>1291.906</ele>
        <time>2018-07-13T12:34:08Z</time>
      </trkpt>
      <trkpt lat="45.860793" lon="6.742909">
        <ele>1291.526</ele>
        <time>2018-07-13T12:34:12Z</time>
      </trkpt>
      <trkpt lat="45.860764" lon="6.742846">
        <ele>1291.408</ele>
        <time>2018-07-13T12:34:16Z</time>
      </trkpt>
      <trkpt lat="45.860733" lon="6.742787">
        <ele>1291.850</ele>
        <time>2018-07-13T12:34:20Z</time>
      </trkpt>
      <trkpt lat="45.860690" lon="6.742740">
        <ele>1292.333</ele>
        <time>2018-07-13T12:34:24Z</time>
      </trkpt>
      <trkpt lat="45.860655" lon="6.742698">
        <ele>1294.092</ele>
        <time>2018-07-13T12:34:27Z</time>
      </trkpt>
      <trkpt lat="45.860629" lon="6.742641">
        <ele>1291.791</ele>
        <time>2018-07-13T12:34:31Z</time>
      </trkpt>
      <trkpt lat="45.860597" lon="6.742578">
        <ele>1291.811</ele>
        <time>2018-07-13T12:34:35Z</time>
      </trkpt>
      <trkpt lat="45.860564" lon="6.742518">
        <ele>1292.020</ele>
        <time>2018-07-13T12:34:39Z</time>
      </trkpt>
      <trkpt lat="45.860530" lon="6.742460">
        <ele>1291.555</ele>
        <time>2018-07-13T12:34:43Z</time>
      </trkpt>
      <trkpt lat="45.860493" lon="6.742408">
        <ele>1291.424</ele>
        <time>2018-07-13T12:34:47Z</time>
      </trkpt>
      <trkpt lat="45.860454" lon="6.742361">
        <ele>1291.152</ele>
        <time>2018-07-13T12:34:51Z</time>
      </trkpt>
      <trkpt lat="45.860422" lon="6.742303">
        <ele>1291.053</ele>
        <time>2018-07-13T12:34:55Z</time>
      </trkpt>
      <trkpt lat="45.860386" lon="6.742246">
        <ele>1290.708</ele>
        <time>2018-07-13T12:34:59Z</time>
      </trkpt>
      <trkpt lat="45.860354" lon="6.742201">
        <ele>1290.708</ele>
        <time>2018-07-13T12:35:02Z</time>
      </trkpt>
      <trkpt lat="45.860325" lon="6.742143">
        <ele>1290.187</ele>
        <time>2018-07-13T12:35:05Z</time>
      </trkpt>
      <trkpt lat="45.860298" lon="6.742082">
        <ele>1289.910</ele>
        <time>2018-07-13T12:35:08Z</time>
      </trkpt>
      <trkpt lat="45.860276" lon="6.742024">
        <ele>1289.829</ele>
        <time>2018-07-13T12:35:11Z</time>
      </trkpt>
      <trkpt lat="45.860245" lon="6.741961">
        <ele>1289.298</ele>
        <time>2018-07-13T12:35:15Z</time>
      </trkpt>
      <trkpt lat="45.860212" lon="6.741902">
        <ele>1288.818</ele>
        <time>2018-07-13T12:35:19Z</time>
      </trkpt>
      <trkpt lat="45.860185" lon="6.741845">
        <ele>1288.457</ele>
        <time>2018-07-13T12:35:23Z</time>
      </trkpt>
      <trkpt lat="45.860160" lon="6.741771">
        <ele>1288.462</ele>
        <time>2018-07-13T12:35:28Z</time>
      </trkpt>
      <trkpt lat="45.860134" lon="6.741709">
        <ele>1287.211</ele>
        <time>2018-07-13T12:35:32Z</time>
      </trkpt>
      <trkpt lat="45.860114" lon="6.741644">
        <ele>1286.627</ele>
        <time>2018-07-13T12:35:36Z</time>
      </trkpt>
      <trkpt lat="45.860082" lon="6.741575">
        <ele>1286.068</ele>
        <time>2018-07-13T12:35:40Z</time>
      </trkpt>
      <trkpt lat="45.860054" lon="6.741507">
        <ele>1285.414</ele>
        <time>2018-07-13T12:35:44Z</time>
      </trkpt>
      <trkpt lat="45.860027" lon="6.741440">
        <ele>1284.708</ele>
        <time>2018-07-13T12:35:48Z</time>
      </trkpt>
      <trkpt lat="45.860006" lon="6.741365">
        <ele>1284.494</ele>
        <time>2018-07-13T12:35:52Z</time>
      </trkpt>
      <trkpt lat="45.859986" lon="6.741296">
        <ele>1283.637</ele>
        <time>2018-07-13T12:35:56Z</time>
      </trkpt>
      <trkpt lat="45.859975" lon="6.741228">
        <ele>1283.096</ele>
        <time>2018-07-13T12:36:00Z</time>
      </trkpt>
      <trkpt lat="45.859966" lon="6.741143">
        <ele>1282.145</ele>
        <time>2018-07-13T12:36:04Z</time>
      </trkpt>
      <trkpt lat="45.859949" lon="6.741062">
        <ele>1281.485</ele>
        <time>2018-07-13T12:36:08Z</time>
      </trkpt>
      <trkpt lat="45.859922" lon="6.740995">
        <ele>1280.874</ele>
        <time>2018-07-13T12:36:12Z</time>
      </trkpt>
      <trkpt lat="45.859898" lon="6.740932">
        <ele>1280.049</ele>
        <time>2018-07-13T12:36:16Z</time>
      </trkpt>
      <trkpt lat="45.859880" lon="6.740869">
        <ele>1279.548</ele>
        <time>2018-07-13T12:36:20Z</time>
      </trkpt>
      <trkpt lat="45.859867" lon="6.740802">
        <ele>1278.671</ele>
        <time>2018-07-13T12:36:24Z</time>
      </trkpt>
      <trkpt lat="45.859854" lon="6.740730">
        <ele>1279.141</ele>
        <time>2018-07-13T12:36:28Z</time>
      </trkpt>
      <trkpt lat="45.859847" lon="6.740653">
        <ele>1277.415</ele>
        <time>2018-07-13T12:36:32Z</time>
      </trkpt>
      <trkpt lat="45.859842" lon="6.740582">
        <ele>1276.808</ele>
        <time>2018-07-13T12:36:36Z</time>
      </trkpt>
      <trkpt lat="45.859837" lon="6.740517">
        <ele>1276.239</ele>
        <time>2018-07-13T12:36:40Z</time>
      </trkpt>
      <trkpt lat="45.859833" lon="6.740450">
        <ele>1275.792</ele>
        <time>2018-07-13T12:36:44Z</time>
      </trkpt>
      <trkpt lat="45.859827" lon="6.740383">
        <ele>1274.851</ele>
        <time>2018-07-13T12:36:48Z</time>
      </trkpt>
      <trkpt lat="45.859823" lon="6.740314">
        <ele>1274.370</ele>
        <time>2018-07-13T12:36:53Z</time>
      </trkpt>
      <trkpt lat="45.859816" lon="6.740244">
        <ele>1273.040</ele>
        <time>2018-07-13T12:37:10Z</time>
      </trkpt>
      <trkpt lat="45.859798" lon="6.740178">
        <ele>1271.759</ele>
        <time>2018-07-13T12:37:15Z</time>
      </trkpt>
      <trkpt lat="45.859788" lon="6.740113">
        <ele>1271.244</ele>
        <time>2018-07-13T12:37:19Z</time>
      </trkpt>
      <trkpt lat="45.859778" lon="6.740048">
        <ele>1270.663</ele>
        <time>2018-07-13T12:37:23Z</time>
      </trkpt>
      <trkpt lat="45.859760" lon="6.739982">
        <ele>1269.449</ele>
        <time>2018-07-13T12:37:27Z</time>
      </trkpt>
      <trkpt lat="45.859737" lon="6.739920">
        <ele>1270.402</ele>
        <time>2018-07-13T12:37:31Z</time>
      </trkpt>
      <trkpt lat="45.859720" lon="6.739860">
        <ele>1270.122</ele>
        <time>2018-07-13T12:37:35Z</time>
      </trkpt>
      <trkpt lat="45.859702" lon="6.739792">
        <ele>1267.108</ele>
        <time>2018-07-13T12:37:39Z</time>
      </trkpt>
      <trkpt lat="45.859684" lon="6.739726">
        <ele>1266.996</ele>
        <time>2018-07-13T12:37:43Z</time>
      </trkpt>
      <trkpt lat="45.859671" lon="6.739655">
        <ele>1265.699</ele>
        <time>2018-07-13T12:37:47Z</time>
      </trkpt>
      <trkpt lat="45.859654" lon="6.739585">
        <ele>1265.158</ele>
        <time>2018-07-13T12:37:51Z</time>
      </trkpt>
      <trkpt lat="45.859640" lon="6.739520">
        <ele>1264.437</ele>
        <time>2018-07-13T12:37:55Z</time>
      </trkpt>
      <trkpt lat="45.859616" lon="6.739458">
        <ele>1264.477</ele>
        <time>2018-07-13T12:37:59Z</time>
      </trkpt>
      <trkpt lat="45.859592" lon="6.739396">
        <ele>1263.666</ele>
        <time>2018-07-13T12:38:03Z</time>
      </trkpt>
      <trkpt lat="45.859562" lon="6.739329">
        <ele>1263.131</ele>
        <time>2018-07-13T12:38:07Z</time>
      </trkpt>
      <trkpt lat="45.859526" lon="6.739268">
        <ele>1262.630</ele>
        <time>2018-07-13T12:38:11Z</time>
      </trkpt>
      <trkpt lat="45.859494" lon="6.739206">
        <ele>1264.513</ele>
        <time>2018-07-13T12:38:15Z</time>
      </trkpt>
      <trkpt lat="45.859471" lon="6.739136">
        <ele>1261.743</ele>
        <time>2018-07-13T12:38:19Z</time>
      </trkpt>
      <trkpt lat="45.859451" lon="6.739069">
        <ele>1260.507</ele>
        <time>2018-07-13T12:38:23Z</time>
      </trkpt>
      <trkpt lat="45.859424" lon="6.739004">
        <ele>1260.108</ele>
        <time>2018-07-13T12:38:27Z</time>
      </trkpt>
      <trkpt lat="45.859394" lon="6.738944">
        <ele>1259.763</ele>
        <time>2018-07-13T12:38:31Z</time>
      </trkpt>
      <trkpt lat="45.859368" lon="6.738875">
        <ele>1258.726</ele>
        <time>2018-07-13T12:38:35Z</time>
      </trkpt>
      <trkpt lat="45.859348" lon="6.738811">
        <ele>1258.065</ele>
        <time>2018-07-13T12:38:39Z</time>
      </trkpt>
      <trkpt lat="45.859325" lon="6.738753">
        <ele>1257.294</ele>
        <time>2018-07-13T12:38:43Z</time>
      </trkpt>
      <trkpt lat="45.859310" lon="6.738691">
        <ele>1256.574</ele>
        <time>2018-07-13T12:38:47Z</time>
      </trkpt>
      <trkpt lat="45.859314" lon="6.738624">
        <ele>1256.433</ele>
        <time>2018-07-13T12:39:04Z</time>
      </trkpt>
      <trkpt lat="45.859289" lon="6.738570">
        <ele>1255.728</ele>
        <time>2018-07-13T12:39:09Z</time>
      </trkpt>
      <trkpt lat="45.859255" lon="6.738510">
        <ele>1255.057</ele>
        <time>2018-07-13T12:39:14Z</time>
      </trkpt>
      <trkpt lat="45.859233" lon="6.738453">
        <ele>1254.367</ele>
        <time>2018-07-13T12:39:18Z</time>
      </trkpt>
      <trkpt lat="45.859211" lon="6.738390">
        <ele>1253.781</ele>
        <time>2018-07-13T12:39:22Z</time>
      </trkpt>
      <trkpt lat="45.859198" lon="6.738318">
        <ele>1253.519</ele>
        <time>2018-07-13T12:39:26Z</time>
      </trkpt>
      <trkpt lat="45.859189" lon="6.738241">
        <ele>1253.308</ele>
        <time>2018-07-13T12:39:30Z</time>
      </trkpt>
      <trkpt lat="45.859183" lon="6.738166">
        <ele>1252.568</ele>
        <time>2018-07-13T12:39:34Z</time>
      </trkpt>
      <trkpt lat="45.859180" lon="6.738090">
        <ele>1252.651</ele>
        <time>2018-07-13T12:39:38Z</time>
      </trkpt>
      <trkpt lat="45.859180" lon="6.738009">
        <ele>1252.460</ele>
        <time>2018-07-13T12:39:42Z</time>
      </trkpt>
      <trkpt lat="45.859181" lon="6.737929">
        <ele>1252.419</ele>
        <time>2018-07-13T12:39:46Z</time>
      </trkpt>
      <trkpt lat="45.859181" lon="6.737850">
        <ele>1252.099</ele>
        <time>2018-07-13T12:39:50Z</time>
      </trkpt>
      <trkpt lat="45.859180" lon="6.737773">
        <ele>1251.938</ele>
        <time>2018-07-13T12:39:54Z</time>
      </trkpt>
      <trkpt lat="45.859181" lon="6.737692">
        <ele>1251.863</ele>
        <time>2018-07-13T12:39:58Z</time>
      </trkpt>
      <trkpt lat="45.859182" lon="6.737612">
        <ele>1251.872</ele>
        <time>2018-07-13T12:40:02Z</time>
      </trkpt>
      <trkpt lat="45.859184" lon="6.737535">
        <ele>1251.421</ele>
        <time>2018-07-13T12:40:06Z</time>
      </trkpt>
      <trkpt lat="45.859188" lon="6.737458">
        <ele>1251.441</ele>
        <time>2018-07-13T12:40:10Z</time>
      </trkpt>
      <trkpt lat="45.859196" lon="6.737383">
        <ele>1251.205</ele>
        <time>2018-07-13T12:40:14Z</time>
      </trkpt>
      <trkpt lat="45.859206" lon="6.737312">
        <ele>1251.108</ele>
        <time>2018-07-13T12:40:18Z</time>
      </trkpt>
      <trkpt lat="45.859227" lon="6.737248">
        <ele>1250.674</ele>
        <time>2018-07-13T12:40:22Z</time>
      </trkpt>
      <trkpt lat="45.859252" lon="6.737186">
        <ele>1250.957</ele>
        <time>2018-07-13T12:40:29Z</time>
      </trkpt>
      <trkpt lat="45.859209" lon="6.737164">
        <ele>1253.146</ele>
        <time>2018-07-13T12:40:46Z</time>
      </trkpt>
      <trkpt lat="45.859160" lon="6.737131">
        <ele>1252.955</ele>
        <time>2018-07-13T12:40:52Z</time>
      </trkpt>
      <trkpt lat="45.859113" lon="6.737108">
        <ele>1252.565</ele>
        <time>2018-07-13T12:40:58Z</time>
      </trkpt>
      <trkpt lat="45.859146" lon="6.737166">
        <ele>1253.024</ele>
        <time>2018-07-13T12:41:10Z</time>
      </trkpt>
      <trkpt lat="45.859198" lon="6.737173">
        <ele>1252.899</ele>
        <time>2018-07-13T12:41:17Z</time>
      </trkpt>
      <trkpt lat="45.859250" lon="6.737180">
        <ele>1252.638</ele>
        <time>2018-07-13T12:41:22Z</time>
      </trkpt>
      <trkpt lat="45.859301" lon="6.737149">
        <ele>1252.638</ele>
        <time>2018-07-13T12:41:28Z</time>
      </trkpt>
      <trkpt lat="45.859345" lon="6.737103">
        <ele>1251.670</ele>
        <time>2018-07-13T12:41:33Z</time>
      </trkpt>
      <trkpt lat="45.859374" lon="6.737053">
        <ele>1251.017</ele>
        <time>2018-07-13T12:41:37Z</time>
      </trkpt>
      <trkpt lat="45.859400" lon="6.736993">
        <ele>1250.208</ele>
        <time>2018-07-13T12:41:41Z</time>
      </trkpt>
      <trkpt lat="45.859421" lon="6.736932">
        <ele>1249.345</ele>
        <time>2018-07-13T12:41:45Z</time>
      </trkpt>
      <trkpt lat="45.859434" lon="6.736857">
        <ele>1249.078</ele>
        <time>2018-07-13T12:41:50Z</time>
      </trkpt>
      <trkpt lat="45.859448" lon="6.736787">
        <ele>1245.837</ele>
        <time>2018-07-13T12:41:55Z</time>
      </trkpt>
      <trkpt lat="45.859460" lon="6.736720">
        <ele>1245.396</ele>
        <time>2018-07-13T12:41:59Z</time>
      </trkpt>
      <trkpt lat="45.859471" lon="6.736655">
        <ele>1244.336</ele>
        <time>2018-07-13T12:42:03Z</time>
      </trkpt>
      <trkpt lat="45.859481" lon="6.736587">
        <ele>1244.085</ele>
        <time>2018-07-13T12:42:07Z</time>
      </trkpt>
      <trkpt lat="45.859486" lon="6.736516">
        <ele>1243.360</ele>
        <time>2018-07-13T12:42:11Z</time>
      </trkpt>
      <trkpt lat="45.859489" lon="6.736438">
        <ele>1242.569</ele>
        <time>2018-07-13T12:42:16Z</time>
      </trkpt>
      <trkpt lat="45.859492" lon="6.736358">
        <ele>1242.125</ele>
        <time>2018-07-13T12:42:21Z</time>
      </trkpt>
      <trkpt lat="45.859496" lon="6.736282">
        <ele>1242.026</ele>
        <time>2018-07-13T12:42:26Z</time>
      </trkpt>
      <trkpt lat="45.859501" lon="6.736217">
        <ele>1241.108</ele>
        <time>2018-07-13T12:42:30Z</time>
      </trkpt>
      <trkpt lat="45.859522" lon="6.736147">
        <ele>1242.608</ele>
        <time>2018-07-13T12:42:34Z</time>
      </trkpt>
      <trkpt lat="45.859548" lon="6.736075">
        <ele>1240.554</ele>
        <time>2018-07-13T12:42:38Z</time>
      </trkpt>
      <trkpt lat="45.859578" lon="6.736011">
        <ele>1240.317</ele>
        <time>2018-07-13T12:42:42Z</time>
      </trkpt>
      <trkpt lat="45.859600" lon="6.735942">
        <ele>1240.196</ele>
        <time>2018-07-13T12:42:46Z</time>
      </trkpt>
      <trkpt lat="45.859625" lon="6.735879">
        <ele>1239.645</ele>
        <time>2018-07-13T12:42:50Z</time>
      </trkpt>
      <trkpt lat="45.859654" lon="6.735817">
        <ele>1238.725</ele>
        <time>2018-07-13T12:42:55Z</time>
      </trkpt>
      <trkpt lat="45.859685" lon="6.735755">
        <ele>1237.664</ele>
        <time>2018-07-13T12:43:00Z</time>
      </trkpt>
      <trkpt lat="45.859717" lon="6.735691">
        <ele>1237.229</ele>
        <time>2018-07-13T12:43:05Z</time>
      </trkpt>
      <trkpt lat="45.859745" lon="6.735623">
        <ele>1236.018</ele>
        <time>2018-07-13T12:43:09Z</time>
      </trkpt>
      <trkpt lat="45.859773" lon="6.735562">
        <ele>1235.912</ele>
        <time>2018-07-13T12:43:13Z</time>
      </trkpt>
      <trkpt lat="45.859805" lon="6.735511">
        <ele>1236.632</ele>
        <time>2018-07-13T12:43:17Z</time>
      </trkpt>
      <trkpt lat="45.859842" lon="6.735467">
        <ele>1234.505</ele>
        <time>2018-07-13T12:43:21Z</time>
      </trkpt>
      <trkpt lat="45.859889" lon="6.735428">
        <ele>1233.808</ele>
        <time>2018-07-13T12:43:26Z</time>
      </trkpt>
      <trkpt lat="45.859918" lon="6.735369">
        <ele>1233.983</ele>
        <time>2018-07-13T12:43:31Z</time>
      </trkpt>
      <trkpt lat="45.859904" lon="6.735298">
        <ele>1232.696</ele>
        <time>2018-07-13T12:43:36Z</time>
      </trkpt>
      <trkpt lat="45.859867" lon="6.735239">
        <ele>1231.445</ele>
        <time>2018-07-13T12:43:41Z</time>
      </trkpt>
      <trkpt lat="45.859822" lon="6.735218">
        <ele>1230.924</ele>
        <time>2018-07-13T12:43:46Z</time>
      </trkpt>
      <trkpt lat="45.859773" lon="6.735219">
        <ele>1229.834</ele>
        <time>2018-07-13T12:43:51Z</time>
      </trkpt>
      <trkpt lat="45.859733" lon="6.735187">
        <ele>1230.813</ele>
        <time>2018-07-13T12:43:56Z</time>
      </trkpt>
      <trkpt lat="45.859687" lon="6.735175">
        <ele>1230.748</ele>
        <time>2018-07-13T12:44:07Z</time>
      </trkpt>
      <trkpt lat="45.859651" lon="6.735227">
        <ele>1228.987</ele>
        <time>2018-07-13T12:44:48Z</time>
      </trkpt>
      <trkpt lat="45.859612" lon="6.735262">
        <ele>1226.475</ele>
        <time>2018-07-13T12:44:54Z</time>
      </trkpt>
      <trkpt lat="45.859561" lon="6.735292">
        <ele>1225.228</ele>
        <time>2018-07-13T12:44:59Z</time>
      </trkpt>
      <trkpt lat="45.859512" lon="6.735307">
        <ele>1224.720</ele>
        <time>2018-07-13T12:45:08Z</time>
      </trkpt>
      <trkpt lat="45.859480" lon="6.735353">
        <ele>1224.108</ele>
        <time>2018-07-13T12:45:14Z</time>
      </trkpt>
      <trkpt lat="45.859443" lon="6.735400">
        <ele>1223.179</ele>
        <time>2018-07-13T12:45:19Z</time>
      </trkpt>
      <trkpt lat="45.859405" lon="6.735437">
        <ele>1222.352</ele>
        <time>2018-07-13T12:45:36Z</time>
      </trkpt>
      <trkpt lat="45.859352" lon="6.735442">
        <ele>1221.871</ele>
        <time>2018-07-13T12:45:42Z</time>
      </trkpt>
      <trkpt lat="45.859306" lon="6.735441">
        <ele>1220.880</ele>
        <time>2018-07-13T12:45:53Z</time>
      </trkpt>
      <trkpt lat="45.859254" lon="6.735430">
        <ele>1219.540</ele>
        <time>2018-07-13T12:46:00Z</time>
      </trkpt>
      <trkpt lat="45.859202" lon="6.735437">
        <ele>1217.839</ele>
        <time>2018-07-13T12:46:06Z</time>
      </trkpt>
      <trkpt lat="45.859150" lon="6.735451">
        <ele>1216.844</ele>
        <time>2018-07-13T12:46:11Z</time>
      </trkpt>
      <trkpt lat="45.859096" lon="6.735461">
        <ele>1215.973</ele>
        <time>2018-07-13T12:46:16Z</time>
      </trkpt>
      <trkpt lat="45.859041" lon="6.735469">
        <ele>1215.242</ele>
        <time>2018-07-13T12:46:21Z</time>
      </trkpt>
      <trkpt lat="45.858991" lon="6.735480">
        <ele>1214.022</ele>
        <time>2018-07-13T12:46:26Z</time>
      </trkpt>
      <trkpt lat="45.858939" lon="6.735491">
        <ele>1212.914</ele>
        <time>2018-07-13T12:46:31Z</time>
      </trkpt>
      <trkpt lat="45.858895" lon="6.735504">
        <ele>1212.108</ele>
        <time>2018-07-13T12:46:35Z</time>
      </trkpt>
      <trkpt lat="45.858844" lon="6.735516">
        <ele>1211.186</ele>
        <time>2018-07-13T12:46:40Z</time>
      </trkpt>
      <trkpt lat="45.858792" lon="6.735534">
        <ele>1210.259</ele>
        <time>2018-07-13T12:46:45Z</time>
      </trkpt>
      <trkpt lat="45.858740" lon="6.735546">
        <ele>1209.788</ele>
        <time>2018-07-13T12:46:50Z</time>
      </trkpt>
      <trkpt lat="45.858695" lon="6.735549">
        <ele>1208.397</ele>
        <time>2018-07-13T12:46:54Z</time>
      </trkpt>
      <trkpt lat="45.858649" lon="6.735556">
        <ele>1207.257</ele>
        <time>2018-07-13T12:46:58Z</time>
      </trkpt>
      <trkpt lat="45.858604" lon="6.735569">
        <ele>1207.176</ele>
        <time>2018-07-13T12:47:02Z</time>
      </trkpt>
      <trkpt lat="45.858553" lon="6.735577">
        <ele>1205.281</ele>
        <time>2018-07-13T12:47:07Z</time>
      </trkpt>
      <trkpt lat="45.858506" lon="6.735581">
        <ele>1203.770</ele>
        <time>2018-07-13T12:47:12Z</time>
      </trkpt>
      <trkpt lat="45.858453" lon="6.735590">
        <ele>1202.767</ele>
        <time>2018-07-13T12:47:18Z</time>
      </trkpt>
      <trkpt lat="45.858408" lon="6.735596">
        <ele>1201.581</ele>
        <time>2018-07-13T12:47:23Z</time>
      </trkpt>
      <trkpt lat="45.858355" lon="6.735596">
        <ele>1200.219</ele>
        <time>2018-07-13T12:47:30Z</time>
      </trkpt>
      <trkpt lat="45.858310" lon="6.735605">
        <ele>1201.608</ele>
        <time>2018-07-13T12:47:34Z</time>
      </trkpt>
      <trkpt lat="45.858265" lon="6.735607">
        <ele>1198.438</ele>
        <time>2018-07-13T12:47:38Z</time>
      </trkpt>
      <trkpt lat="45.858210" lon="6.735601">
        <ele>1198.221</ele>
        <time>2018-07-13T12:47:45Z</time>
      </trkpt>
      <trkpt lat="45.858160" lon="6.735596">
        <ele>1196.330</ele>
        <time>2018-07-13T12:47:51Z</time>
      </trkpt>
      <trkpt lat="45.858108" lon="6.735592">
        <ele>1194.869</ele>
        <time>2018-07-13T12:47:58Z</time>
      </trkpt>
      <trkpt lat="45.858059" lon="6.735578">
        <ele>1194.019</ele>
        <time>2018-07-13T12:48:04Z</time>
      </trkpt>
      <trkpt lat="45.858006" lon="6.735579">
        <ele>1192.698</ele>
        <time>2018-07-13T12:48:09Z</time>
      </trkpt>
      <trkpt lat="45.857964" lon="6.735555">
        <ele>1191.513</ele>
        <time>2018-07-13T12:48:13Z</time>
      </trkpt>
      <trkpt lat="45.857912" lon="6.735576">
        <ele>1190.742</ele>
        <time>2018-07-13T12:48:18Z</time>
      </trkpt>
      <trkpt lat="45.857868" lon="6.735611">
        <ele>1189.079</ele>
        <time>2018-07-13T12:48:23Z</time>
      </trkpt>
      <trkpt lat="45.857819" lon="6.735635">
        <ele>1190.105</ele>
        <time>2018-07-13T12:48:29Z</time>
      </trkpt>
      <trkpt lat="45.857774" lon="6.735642">
        <ele>1188.725</ele>
        <time>2018-07-13T12:48:34Z</time>
      </trkpt>
      <trkpt lat="45.857727" lon="6.735627">
        <ele>1185.008</ele>
        <time>2018-07-13T12:48:40Z</time>
      </trkpt>
      <trkpt lat="45.857678" lon="6.735644">
        <ele>1183.039</ele>
        <time>2018-07-13T12:48:49Z</time>
      </trkpt>
      <trkpt lat="45.857628" lon="6.735658">
        <ele>1181.052</ele>
        <time>2018-07-13T12:48:56Z</time>
      </trkpt>
      <trkpt lat="45.857572" lon="6.735692">
        <ele>1178.541</ele>
        <time>2018-07-13T12:49:05Z</time>
      </trkpt>
      <trkpt lat="45.857521" lon="6.735683">
        <ele>1175.930</ele>
        <time>2018-07-13T12:49:17Z</time>
      </trkpt>
      <trkpt lat="45.857469" lon="6.735692">
        <ele>1173.820</ele>
        <time>2018-07-13T12:49:24Z</time>
      </trkpt>
      <trkpt lat="45.857423" lon="6.735684">
        <ele>1172.779</ele>
        <time>2018-07-13T12:49:29Z</time>
      </trkpt>
      <trkpt lat="45.857386" lon="6.735726">
        <ele>1172.864</ele>
        <time>2018-07-13T12:49:35Z</time>
      </trkpt>
      <trkpt lat="45.857341" lon="6.735726">
        <ele>1169.873</ele>
        <time>2018-07-13T12:49:42Z</time>
      </trkpt>
      <trkpt lat="45.857296" lon="6.735692">
        <ele>1168.754</ele>
        <time>2018-07-13T12:49:48Z</time>
      </trkpt>
      <trkpt lat="45.857259" lon="6.735643">
        <ele>1167.356</ele>
        <time>2018-07-13T12:49:53Z</time>
      </trkpt>
      <trkpt lat="45.857207" lon="6.735662">
        <ele>1166.111</ele>
        <time>2018-07-13T12:49:59Z</time>
      </trkpt>
      <trkpt lat="45.857167" lon="6.735709">
        <ele>1166.108</ele>
        <time>2018-07-13T12:50:04Z</time>
      </trkpt>
      <trkpt lat="45.857136" lon="6.735768">
        <ele>1164.167</ele>
        <time>2018-07-13T12:50:08Z</time>
      </trkpt>
      <trkpt lat="45.857096" lon="6.735806">
        <ele>1163.180</ele>
        <time>2018-07-13T12:50:13Z</time>
      </trkpt>
      <trkpt lat="45.857040" lon="6.735807">
        <ele>1161.599</ele>
        <time>2018-07-13T12:50:20Z</time>
      </trkpt>
      <trkpt lat="45.856989" lon="6.735831">
        <ele>1160.668</ele>
        <time>2018-07-13T12:50:24Z</time>
      </trkpt>
      <trkpt lat="45.856943" lon="6.735838">
        <ele>1159.988</ele>
        <time>2018-07-13T12:50:28Z</time>
      </trkpt>
      <trkpt lat="45.856896" lon="6.735849">
        <ele>1158.997</ele>
        <time>2018-07-13T12:50:33Z</time>
      </trkpt>
      <trkpt lat="45.856847" lon="6.735819">
        <ele>1158.312</ele>
        <time>2018-07-13T12:50:38Z</time>
      </trkpt>
      <trkpt lat="45.856795" lon="6.735825">
        <ele>1157.411</ele>
        <time>2018-07-13T12:50:42Z</time>
      </trkpt>
      <trkpt lat="45.856743" lon="6.735834">
        <ele>1157.019</ele>
        <time>2018-07-13T12:50:47Z</time>
      </trkpt>
      <trkpt lat="45.856699" lon="6.735822">
        <ele>1156.209</ele>
        <time>2018-07-13T12:50:51Z</time>
      </trkpt>
      <trkpt lat="45.856654" lon="6.735800">
        <ele>1155.619</ele>
        <time>2018-07-13T12:50:55Z</time>
      </trkpt>
      <trkpt lat="45.856606" lon="6.735781">
        <ele>1154.608</ele>
        <time>2018-07-13T12:50:59Z</time>
      </trkpt>
      <trkpt lat="45.856555" lon="6.735780">
        <ele>1154.073</ele>
        <time>2018-07-13T12:51:03Z</time>
      </trkpt>
      <trkpt lat="45.856507" lon="6.735787">
        <ele>1153.436</ele>
        <time>2018-07-13T12:51:07Z</time>
      </trkpt>
      <trkpt lat="45.856461" lon="6.735790">
        <ele>1152.755</ele>
        <time>2018-07-13T12:51:11Z</time>
      </trkpt>
      <trkpt lat="45.856417" lon="6.735806">
        <ele>1151.764</ele>
        <time>2018-07-13T12:51:15Z</time>
      </trkpt>
      <trkpt lat="45.856366" lon="6.735791">
        <ele>1150.924</ele>
        <time>2018-07-13T12:51:20Z</time>
      </trkpt>
      <trkpt lat="45.856316" lon="6.735771">
        <ele>1149.633</ele>
        <time>2018-07-13T12:51:25Z</time>
      </trkpt>
      <trkpt lat="45.856272" lon="6.735799">
        <ele>1148.738</ele>
        <time>2018-07-13T12:51:29Z</time>
      </trkpt>
      <trkpt lat="45.856224" lon="6.735825">
        <ele>1147.437</ele>
        <time>2018-07-13T12:51:37Z</time>
      </trkpt>
      <trkpt lat="45.856170" lon="6.735813">
        <ele>1146.439</ele>
        <time>2018-07-13T12:51:41Z</time>
      </trkpt>
      <trkpt lat="45.856121" lon="6.735842">
        <ele>1145.201</ele>
        <time>2018-07-13T12:51:45Z</time>
      </trkpt>
      <trkpt lat="45.856069" lon="6.735857">
        <ele>1145.221</ele>
        <time>2018-07-13T12:51:50Z</time>
      </trkpt>
      <trkpt lat="45.856023" lon="6.735847">
        <ele>1143.708</ele>
        <time>2018-07-13T12:51:54Z</time>
      </trkpt>
      <trkpt lat="45.855974" lon="6.735841">
        <ele>1142.865</ele>
        <time>2018-07-13T12:51:59Z</time>
      </trkpt>
      <trkpt lat="45.855924" lon="6.735847">
        <ele>1141.518</ele>
        <time>2018-07-13T12:52:04Z</time>
      </trkpt>
      <trkpt lat="45.855879" lon="6.735858">
        <ele>1140.757</ele>
        <time>2018-07-13T12:52:08Z</time>
      </trkpt>
      <trkpt lat="45.855828" lon="6.735862">
        <ele>1139.336</ele>
        <time>2018-07-13T12:52:13Z</time>
      </trkpt>
      <trkpt lat="45.855777" lon="6.735854">
        <ele>1137.816</ele>
        <time>2018-07-13T12:52:21Z</time>
      </trkpt>
      <trkpt lat="45.855732" lon="6.735824">
        <ele>1136.275</ele>
        <time>2018-07-13T12:52:28Z</time>
      </trkpt>
      <trkpt lat="45.855689" lon="6.735789">
        <ele>1136.980</ele>
        <time>2018-07-13T12:52:34Z</time>
      </trkpt>
      <trkpt lat="45.855638" lon="6.735757">
        <ele>1134.079</ele>
        <time>2018-07-13T12:52:39Z</time>
      </trkpt>
      <trkpt lat="45.855587" lon="6.735736">
        <ele>1133.348</ele>
        <time>2018-07-13T12:52:44Z</time>
      </trkpt>
      <trkpt lat="45.855533" lon="6.735743">
        <ele>1131.861</ele>
        <time>2018-07-13T12:52:50Z</time>
      </trkpt>
      <trkpt lat="45.855484" lon="6.735745">
        <ele>1130.517</ele>
        <time>2018-07-13T12:52:56Z</time>
      </trkpt>
      <trkpt lat="45.855431" lon="6.735744">
        <ele>1128.908</ele>
        <time>2018-07-13T12:53:03Z</time>
      </trkpt>
      <trkpt lat="45.855380" lon="6.735733">
        <ele>1127.676</ele>
        <time>2018-07-13T12:53:09Z</time>
      </trkpt>
      <trkpt lat="45.855334" lon="6.735720">
        <ele>1126.569</ele>
        <time>2018-07-13T12:53:14Z</time>
      </trkpt>
      <trkpt lat="45.855288" lon="6.735725">
        <ele>1125.558</ele>
        <time>2018-07-13T12:53:19Z</time>
      </trkpt>
      <trkpt lat="45.855237" lon="6.735742">
        <ele>1124.087</ele>
        <time>2018-07-13T12:53:25Z</time>
      </trkpt>
      <trkpt lat="45.855191" lon="6.735747">
        <ele>1122.857</ele>
        <time>2018-07-13T12:53:30Z</time>
      </trkpt>
      <trkpt lat="45.855155" lon="6.735690">
        <ele>1122.216</ele>
        <time>2018-07-13T12:53:34Z</time>
      </trkpt>
      <trkpt lat="45.855115" lon="6.735655">
        <ele>1122.191</ele>
        <time>2018-07-13T12:53:37Z</time>
      </trkpt>
      <trkpt lat="45.855073" lon="6.735628">
        <ele>1120.860</ele>
        <time>2018-07-13T12:53:41Z</time>
      </trkpt>
      <trkpt lat="45.855027" lon="6.735611">
        <ele>1119.565</ele>
        <time>2018-07-13T12:53:46Z</time>
      </trkpt>
      <trkpt lat="45.854981" lon="6.735579">
        <ele>1119.168</ele>
        <time>2018-07-13T12:53:51Z</time>
      </trkpt>
      <trkpt lat="45.854935" lon="6.735547">
        <ele>1118.414</ele>
        <time>2018-07-13T12:53:55Z</time>
      </trkpt>
      <trkpt lat="45.854898" lon="6.735502">
        <ele>1117.208</ele>
        <time>2018-07-13T12:53:59Z</time>
      </trkpt>
      <trkpt lat="45.854866" lon="6.735447">
        <ele>1116.248</ele>
        <time>2018-07-13T12:54:03Z</time>
      </trkpt>
      <trkpt lat="45.854833" lon="6.735396">
        <ele>1115.891</ele>
        <time>2018-07-13T12:54:08Z</time>
      </trkpt>
      <trkpt lat="45.854798" lon="6.735347">
        <ele>1113.910</ele>
        <time>2018-07-13T12:54:13Z</time>
      </trkpt>
      <trkpt lat="45.854766" lon="6.735298">
        <ele>1113.019</ele>
        <time>2018-07-13T12:54:18Z</time>
      </trkpt>
      <trkpt lat="45.854741" lon="6.735228">
        <ele>1111.469</ele>
        <time>2018-07-13T12:54:24Z</time>
      </trkpt>
      <trkpt lat="45.854717" lon="6.735166">
        <ele>1111.558</ele>
        <time>2018-07-13T12:54:29Z</time>
      </trkpt>
      <trkpt lat="45.854695" lon="6.735098">
        <ele>1110.053</ele>
        <time>2018-07-13T12:54:34Z</time>
      </trkpt>
      <trkpt lat="45.854676" lon="6.735029">
        <ele>1110.512</ele>
        <time>2018-07-13T12:54:39Z</time>
      </trkpt>
      <trkpt lat="45.854656" lon="6.734959">
        <ele>1107.184</ele>
        <time>2018-07-13T12:54:44Z</time>
      </trkpt>
      <trkpt lat="45.854643" lon="6.734882">
        <ele>1105.807</ele>
        <time>2018-07-13T12:54:49Z</time>
      </trkpt>
      <trkpt lat="45.854626" lon="6.734814">
        <ele>1104.917</ele>
        <time>2018-07-13T12:54:54Z</time>
      </trkpt>
      <trkpt lat="45.854610" lon="6.734745">
        <ele>1105.408</ele>
        <time>2018-07-13T12:54:59Z</time>
      </trkpt>
      <trkpt lat="45.854596" lon="6.734678">
        <ele>1104.570</ele>
        <time>2018-07-13T12:55:04Z</time>
      </trkpt>
      <trkpt lat="45.854578" lon="6.734612">
        <ele>1102.953</ele>
        <time>2018-07-13T12:55:09Z</time>
      </trkpt>
      <trkpt lat="45.854561" lon="6.734546">
        <ele>1102.512</ele>
        <time>2018-07-13T12:55:14Z</time>
      </trkpt>
      <trkpt lat="45.854556" lon="6.734478">
        <ele>1099.811</ele>
        <time>2018-07-13T12:55:19Z</time>
      </trkpt>
      <trkpt lat="45.854550" lon="6.734409">
        <ele>1098.611</ele>
        <time>2018-07-13T12:55:24Z</time>
      </trkpt>
      <trkpt lat="45.854532" lon="6.734347">
        <ele>1098.090</ele>
        <time>2018-07-13T12:55:29Z</time>
      </trkpt>
      <trkpt lat="45.854489" lon="6.734305">
        <ele>1097.135</ele>
        <time>2018-07-13T12:55:34Z</time>
      </trkpt>
      <trkpt lat="45.854445" lon="6.734276">
        <ele>1097.614</ele>
        <time>2018-07-13T12:55:39Z</time>
      </trkpt>
      <trkpt lat="45.854400" lon="6.734254">
        <ele>1097.382</ele>
        <time>2018-07-13T12:55:43Z</time>
      </trkpt>
      <trkpt lat="45.854354" lon="6.734233">
        <ele>1095.143</ele>
        <time>2018-07-13T12:55:47Z</time>
      </trkpt>
      <trkpt lat="45.854305" lon="6.734211">
        <ele>1094.717</ele>
        <time>2018-07-13T12:55:51Z</time>
      </trkpt>
      <trkpt lat="45.854257" lon="6.734187">
        <ele>1094.308</ele>
        <time>2018-07-13T12:55:55Z</time>
      </trkpt>
      <trkpt lat="45.854215" lon="6.734163">
        <ele>1093.770</ele>
        <time>2018-07-13T12:55:59Z</time>
      </trkpt>
      <trkpt lat="45.854162" lon="6.734142">
        <ele>1093.463</ele>
        <time>2018-07-13T12:56:04Z</time>
      </trkpt>
      <trkpt lat="45.854112" lon="6.734123">
        <ele>1093.092</ele>
        <time>2018-07-13T12:56:08Z</time>
      </trkpt>
      <trkpt lat="45.854059" lon="6.734106">
        <ele>1092.681</ele>
        <time>2018-07-13T12:56:12Z</time>
      </trkpt>
      <trkpt lat="45.854012" lon="6.734087">
        <ele>1092.771</ele>
        <time>2018-07-13T12:56:16Z</time>
      </trkpt>
      <trkpt lat="45.853963" lon="6.734075">
        <ele>1092.190</ele>
        <time>2018-07-13T12:56:20Z</time>
      </trkpt>
      <trkpt lat="45.853914" lon="6.734059">
        <ele>1092.045</ele>
        <time>2018-07-13T12:56:24Z</time>
      </trkpt>
      <trkpt lat="45.853863" lon="6.734040">
        <ele>1091.834</ele>
        <time>2018-07-13T12:56:28Z</time>
      </trkpt>
      <trkpt lat="45.853814" lon="6.734021">
        <ele>1091.512</ele>
        <time>2018-07-13T12:56:32Z</time>
      </trkpt>
      <trkpt lat="45.853769" lon="6.734000">
        <ele>1090.432</ele>
        <time>2018-07-13T12:56:36Z</time>
      </trkpt>
      <trkpt lat="45.853722" lon="6.733962">
        <ele>1090.105</ele>
        <time>2018-07-13T12:56:41Z</time>
      </trkpt>
      <trkpt lat="45.853692" lon="6.733906">
        <ele>1089.408</ele>
        <time>2018-07-13T12:56:45Z</time>
      </trkpt>
      <trkpt lat="45.853677" lon="6.733834">
        <ele>1088.743</ele>
        <time>2018-07-13T12:56:49Z</time>
      </trkpt>
      <trkpt lat="45.853655" lon="6.733770">
        <ele>1088.486</ele>
        <time>2018-07-13T12:56:53Z</time>
      </trkpt>
      <trkpt lat="45.853656" lon="6.733703">
        <ele>1090.755</ele>
        <time>2018-07-13T12:57:34Z</time>
      </trkpt>
      <trkpt lat="45.853606" lon="6.733717">
        <ele>1087.384</ele>
        <time>2018-07-13T12:58:03Z</time>
      </trkpt>
      <trkpt lat="45.853555" lon="6.733718">
        <ele>1087.224</ele>
        <time>2018-07-13T12:58:08Z</time>
      </trkpt>
      <trkpt lat="45.853504" lon="6.733726">
        <ele>1086.883</ele>
        <time>2018-07-13T12:58:12Z</time>
      </trkpt>
      <trkpt lat="45.853457" lon="6.733740">
        <ele>1088.158</ele>
        <time>2018-07-13T12:58:16Z</time>
      </trkpt>
      <trkpt lat="45.853408" lon="6.733744">
        <ele>1087.977</ele>
        <time>2018-07-13T12:58:20Z</time>
      </trkpt>
      <trkpt lat="45.853360" lon="6.733743">
        <ele>1087.458</ele>
        <time>2018-07-13T12:58:25Z</time>
      </trkpt>
      <trkpt lat="45.853314" lon="6.733745">
        <ele>1086.052</ele>
        <time>2018-07-13T12:58:30Z</time>
      </trkpt>
      <trkpt lat="45.853266" lon="6.733756">
        <ele>1085.117</ele>
        <time>2018-07-13T12:58:35Z</time>
      </trkpt>
      <trkpt lat="45.853220" lon="6.733770">
        <ele>1085.208</ele>
        <time>2018-07-13T12:58:44Z</time>
      </trkpt>
      <trkpt lat="45.853182" lon="6.733810">
        <ele>1085.067</ele>
        <time>2018-07-13T12:58:50Z</time>
      </trkpt>
      <trkpt lat="45.853141" lon="6.733844">
        <ele>1084.620</ele>
        <time>2018-07-13T12:58:54Z</time>
      </trkpt>
      <trkpt lat="45.853101" lon="6.733881">
        <ele>1085.049</ele>
        <time>2018-07-13T12:58:58Z</time>
      </trkpt>
      <trkpt lat="45.853063" lon="6.733923">
        <ele>1085.168</ele>
        <time>2018-07-13T12:59:02Z</time>
      </trkpt>
      <trkpt lat="45.853023" lon="6.733967">
        <ele>1085.148</ele>
        <time>2018-07-13T12:59:06Z</time>
      </trkpt>
      <trkpt lat="45.852975" lon="6.734014">
        <ele>1087.127</ele>
        <time>2018-07-13T12:59:10Z</time>
      </trkpt>
      <trkpt lat="45.852934" lon="6.734061">
        <ele>1087.622</ele>
        <time>2018-07-13T12:59:13Z</time>
      </trkpt>
      <trkpt lat="45.852881" lon="6.734095">
        <ele>1087.541</ele>
        <time>2018-07-13T12:59:17Z</time>
      </trkpt>
      <trkpt lat="45.852834" lon="6.734133">
        <ele>1087.351</ele>
        <time>2018-07-13T12:59:21Z</time>
      </trkpt>
      <trkpt lat="45.852795" lon="6.734185">
        <ele>1087.301</ele>
        <time>2018-07-13T12:59:26Z</time>
      </trkpt>
      <trkpt lat="45.852761" lon="6.734244">
        <ele>1087.811</ele>
        <time>2018-07-13T12:59:30Z</time>
      </trkpt>
      <trkpt lat="45.852722" lon="6.734302">
        <ele>1087.108</ele>
        <time>2018-07-13T12:59:35Z</time>
      </trkpt>
      <trkpt lat="45.852684" lon="6.734348">
        <ele>1088.377</ele>
        <time>2018-07-13T12:59:39Z</time>
      </trkpt>
      <trkpt lat="45.852647" lon="6.734406">
        <ele>1088.150</ele>
        <time>2018-07-13T12:59:43Z</time>
      </trkpt>
      <trkpt lat="45.852603" lon="6.734449">
        <ele>1088.059</ele>
        <time>2018-07-13T12:59:47Z</time>
      </trkpt>
      <trkpt lat="45.852566" lon="6.734489">
        <ele>1086.938</ele>
        <time>2018-07-13T12:59:51Z</time>
      </trkpt>
      <trkpt lat="45.852528" lon="6.734533">
        <ele>1087.388</ele>
        <time>2018-07-13T12:59:55Z</time>
      </trkpt>
      <trkpt lat="45.852493" lon="6.734588">
        <ele>1088.297</ele>
        <time>2018-07-13T13:00:00Z</time>
      </trkpt>
      <trkpt lat="45.852452" lon="6.734647">
        <ele>1088.452</ele>
        <time>2018-07-13T13:00:06Z</time>
      </trkpt>
      <trkpt lat="45.852417" lon="6.734692">
        <ele>1088.631</ele>
        <time>2018-07-13T13:00:09Z</time>
      </trkpt>
      <trkpt lat="45.852377" lon="6.734752">
        <ele>1088.852</ele>
        <time>2018-07-13T13:00:13Z</time>
      </trkpt>
      <trkpt lat="45.852341" lon="6.734809">
        <ele>1086.653</ele>
        <time>2018-07-13T13:00:17Z</time>
      </trkpt>
      <trkpt lat="45.852308" lon="6.734861">
        <ele>1085.808</ele>
        <time>2018-07-13T13:00:21Z</time>
      </trkpt>
      <trkpt lat="45.852277" lon="6.734912">
        <ele>1088.008</ele>
        <time>2018-07-13T13:00:25Z</time>
      </trkpt>
      <trkpt lat="45.852237" lon="6.734959">
        <ele>1087.637</ele>
        <time>2018-07-13T13:00:29Z</time>
      </trkpt>
      <trkpt lat="45.852199" lon="6.735006">
        <ele>1084.930</ele>
        <time>2018-07-13T13:00:34Z</time>
      </trkpt>
      <trkpt lat="45.852156" lon="6.735048">
        <ele>1087.029</ele>
        <time>2018-07-13T13:00:38Z</time>
      </trkpt>
      <trkpt lat="45.852114" lon="6.735079">
        <ele>1086.948</ele>
        <time>2018-07-13T13:00:41Z</time>
      </trkpt>
      <trkpt lat="45.852058" lon="6.735106">
        <ele>1084.278</ele>
        <time>2018-07-13T13:00:45Z</time>
      </trkpt>
      <trkpt lat="45.852011" lon="6.735121">
        <ele>1083.927</ele>
        <time>2018-07-13T13:00:48Z</time>
      </trkpt>
      <trkpt lat="45.851955" lon="6.735133">
        <ele>1084.072</ele>
        <time>2018-07-13T13:00:52Z</time>
      </trkpt>
      <trkpt lat="45.851908" lon="6.735142">
        <ele>1084.291</ele>
        <time>2018-07-13T13:00:56Z</time>
      </trkpt>
      <trkpt lat="45.851858" lon="6.735149">
        <ele>1084.564</ele>
        <time>2018-07-13T13:01:00Z</time>
      </trkpt>
      <trkpt lat="45.851811" lon="6.735150">
        <ele>1084.006</ele>
        <time>2018-07-13T13:01:04Z</time>
      </trkpt>
      <trkpt lat="45.851763" lon="6.735156">
        <ele>1084.416</ele>
        <time>2018-07-13T13:01:08Z</time>
      </trkpt>
      <trkpt lat="45.851708" lon="6.735168">
        <ele>1085.508</ele>
        <time>2018-07-13T13:01:13Z</time>
      </trkpt>
      <trkpt lat="45.851656" lon="6.735177">
        <ele>1085.858</ele>
        <time>2018-07-13T13:01:18Z</time>
      </trkpt>
      <trkpt lat="45.851610" lon="6.735179">
        <ele>1086.211</ele>
        <time>2018-07-13T13:01:22Z</time>
      </trkpt>
      <trkpt lat="45.851555" lon="6.735174">
        <ele>1088.870</ele>
        <time>2018-07-13T13:01:27Z</time>
      </trkpt>
      <trkpt lat="45.851509" lon="6.735162">
        <ele>1089.139</ele>
        <time>2018-07-13T13:01:31Z</time>
      </trkpt>
      <trkpt lat="45.851459" lon="6.735155">
        <ele>1087.619</ele>
        <time>2018-07-13T13:01:35Z</time>
      </trkpt>
      <trkpt lat="45.851413" lon="6.735140">
        <ele>1086.828</ele>
        <time>2018-07-13T13:01:39Z</time>
      </trkpt>
      <trkpt lat="45.851364" lon="6.735136">
        <ele>1087.753</ele>
        <time>2018-07-13T13:01:43Z</time>
      </trkpt>
      <trkpt lat="45.851313" lon="6.735134">
        <ele>1087.322</ele>
        <time>2018-07-13T13:01:47Z</time>
      </trkpt>
      <trkpt lat="45.851264" lon="6.735129">
        <ele>1087.741</ele>
        <time>2018-07-13T13:01:51Z</time>
      </trkpt>
      <trkpt lat="45.851217" lon="6.735126">
        <ele>1087.881</ele>
        <time>2018-07-13T13:01:55Z</time>
      </trkpt>
      <trkpt lat="45.851165" lon="6.735122">
        <ele>1090.109</ele>
        <time>2018-07-13T13:02:00Z</time>
      </trkpt>
      <trkpt lat="45.851118" lon="6.735121">
        <ele>1089.808</ele>
        <time>2018-07-13T13:02:05Z</time>
      </trkpt>
      <trkpt lat="45.851072" lon="6.735112">
        <ele>1090.386</ele>
        <time>2018-07-13T13:02:10Z</time>
      </trkpt>
      <trkpt lat="45.851025" lon="6.735100">
        <ele>1089.959</ele>
        <time>2018-07-13T13:02:16Z</time>
      </trkpt>
      <trkpt lat="45.850977" lon="6.735098">
        <ele>1090.658</ele>
        <time>2018-07-13T13:02:22Z</time>
      </trkpt>
      <trkpt lat="45.850925" lon="6.735101">
        <ele>1092.697</ele>
        <time>2018-07-13T13:02:28Z</time>
      </trkpt>
      <trkpt lat="45.850880" lon="6.735110">
        <ele>1093.287</ele>
        <time>2018-07-13T13:02:34Z</time>
      </trkpt>
      <trkpt lat="45.850833" lon="6.735128">
        <ele>1093.616</ele>
        <time>2018-07-13T13:02:39Z</time>
      </trkpt>
      <trkpt lat="45.850781" lon="6.735146">
        <ele>1094.981</ele>
        <time>2018-07-13T13:02:44Z</time>
      </trkpt>
      <trkpt lat="45.850732" lon="6.735160">
        <ele>1093.180</ele>
        <time>2018-07-13T13:02:49Z</time>
      </trkpt>
      <trkpt lat="45.850684" lon="6.735181">
        <ele>1093.093</ele>
        <time>2018-07-13T13:02:54Z</time>
      </trkpt>
      <trkpt lat="45.850637" lon="6.735199">
        <ele>1093.565</ele>
        <time>2018-07-13T13:02:59Z</time>
      </trkpt>
      <trkpt lat="45.850591" lon="6.735219">
        <ele>1093.921</ele>
        <time>2018-07-13T13:03:05Z</time>
      </trkpt>
      <trkpt lat="45.850545" lon="6.735233">
        <ele>1095.008</ele>
        <time>2018-07-13T13:03:11Z</time>
      </trkpt>
      <trkpt lat="45.850496" lon="6.735255">
        <ele>1095.271</ele>
        <time>2018-07-13T13:03:16Z</time>
      </trkpt>
      <trkpt lat="45.850451" lon="6.735264">
        <ele>1096.464</ele>
        <time>2018-07-13T13:03:21Z</time>
      </trkpt>
      <trkpt lat="45.850403" lon="6.735278">
        <ele>1096.923</ele>
        <time>2018-07-13T13:03:27Z</time>
      </trkpt>
      <trkpt lat="45.850353" lon="6.735302">
        <ele>1097.622</ele>
        <time>2018-07-13T13:03:33Z</time>
      </trkpt>
      <trkpt lat="45.850307" lon="6.735319">
        <ele>1097.822</ele>
        <time>2018-07-13T13:03:39Z</time>
      </trkpt>
      <trkpt lat="45.850261" lon="6.735346">
        <ele>1100.971</ele>
        <time>2018-07-13T13:03:46Z</time>
      </trkpt>
      <trkpt lat="45.850219" lon="6.735376">
        <ele>1101.216</ele>
        <time>2018-07-13T13:03:50Z</time>
      </trkpt>
      <trkpt lat="45.850175" lon="6.735410">
        <ele>1101.745</ele>
        <time>2018-07-13T13:03:56Z</time>
      </trkpt>
      <trkpt lat="45.850127" lon="6.735441">
        <ele>1100.512</ele>
        <time>2018-07-13T13:04:02Z</time>
      </trkpt>
      <trkpt lat="45.850080" lon="6.735471">
        <ele>1100.732</ele>
        <time>2018-07-13T13:04:07Z</time>
      </trkpt>
      <trkpt lat="45.850038" lon="6.735496">
        <ele>1101.605</ele>
        <time>2018-07-13T13:04:13Z</time>
      </trkpt>
      <trkpt lat="45.849993" lon="6.735517">
        <ele>1102.308</ele>
        <time>2018-07-13T13:04:19Z</time>
      </trkpt>
      <trkpt lat="45.849945" lon="6.735547">
        <ele>1102.553</ele>
        <time>2018-07-13T13:04:25Z</time>
      </trkpt>
      <trkpt lat="45.849901" lon="6.735575">
        <ele>1103.056</ele>
        <time>2018-07-13T13:04:30Z</time>
      </trkpt>
      <trkpt lat="45.849852" lon="6.735592">
        <ele>1103.095</ele>
        <time>2018-07-13T13:04:36Z</time>
      </trkpt>
      <trkpt lat="45.849806" lon="6.735613">
        <ele>1103.394</ele>
        <time>2018-07-13T13:04:41Z</time>
      </trkpt>
      <trkpt lat="45.849755" lon="6.735631">
        <ele>1104.284</ele>
        <time>2018-07-13T13:04:46Z</time>
      </trkpt>
      <trkpt lat="45.849711" lon="6.735650">
        <ele>1104.123</ele>
        <time>2018-07-13T13:04:51Z</time>
      </trkpt>
      <trkpt lat="45.849662" lon="6.735676">
        <ele>1104.468</ele>
        <time>2018-07-13T13:04:56Z</time>
      </trkpt>
      <trkpt lat="45.849613" lon="6.735699">
        <ele>1105.167</ele>
        <time>2018-07-13T13:05:01Z</time>
      </trkpt>
      <trkpt lat="45.849567" lon="6.735721">
        <ele>1105.648</ele>
        <time>2018-07-13T13:05:06Z</time>
      </trkpt>
      <trkpt lat="45.849515" lon="6.735744">
        <ele>1105.861</ele>
        <time>2018-07-13T13:05:12Z</time>
      </trkpt>
      <trkpt lat="45.849467" lon="6.735761">
        <ele>1106.517</ele>
        <time>2018-07-13T13:05:18Z</time>
      </trkpt>
      <trkpt lat="45.849418" lon="6.735771">
        <ele>1106.508</ele>
        <time>2018-07-13T13:05:24Z</time>
      </trkpt>
      <trkpt lat="45.849370" lon="6.735789">
        <ele>1107.486</ele>
        <time>2018-07-13T13:05:29Z</time>
      </trkpt>
      <trkpt lat="45.849319" lon="6.735808">
        <ele>1108.019</ele>
        <time>2018-07-13T13:05:35Z</time>
      </trkpt>
      <trkpt lat="45.849274" lon="6.735818">
        <ele>1108.188</ele>
        <time>2018-07-13T13:05:40Z</time>
      </trkpt>
      <trkpt lat="45.849223" lon="6.735830">
        <ele>1108.617</ele>
        <time>2018-07-13T13:05:46Z</time>
      </trkpt>
      <trkpt lat="45.849176" lon="6.735850">
        <ele>1108.167</ele>
        <time>2018-07-13T13:05:51Z</time>
      </trkpt>
      <trkpt lat="45.849122" lon="6.735870">
        <ele>1108.336</ele>
        <time>2018-07-13T13:05:56Z</time>
      </trkpt>
      <trkpt lat="45.849070" lon="6.735877">
        <ele>1108.341</ele>
        <time>2018-07-13T13:06:01Z</time>
      </trkpt>
      <trkpt lat="45.849016" lon="6.735890">
        <ele>1108.190</ele>
        <time>2018-07-13T13:06:06Z</time>
      </trkpt>
      <trkpt lat="45.848962" lon="6.735905">
        <ele>1108.232</ele>
        <time>2018-07-13T13:06:11Z</time>
      </trkpt>
      <trkpt lat="45.848917" lon="6.735914">
        <ele>1108.092</ele>
        <time>2018-07-13T13:06:15Z</time>
      </trkpt>
      <trkpt lat="45.848861" lon="6.735920">
        <ele>1107.911</ele>
        <time>2018-07-13T13:06:20Z</time>
      </trkpt>
      <trkpt lat="45.848813" lon="6.735921">
        <ele>1108.308</ele>
        <time>2018-07-13T13:06:24Z</time>
      </trkpt>
      <trkpt lat="45.848766" lon="6.735930">
        <ele>1108.015</ele>
        <time>2018-07-13T13:06:28Z</time>
      </trkpt>
      <trkpt lat="45.848720" lon="6.735944">
        <ele>1108.548</ele>
        <time>2018-07-13T13:06:32Z</time>
      </trkpt>
      <trkpt lat="45.848673" lon="6.735955">
        <ele>1108.967</ele>
        <time>2018-07-13T13:06:36Z</time>
      </trkpt>
      <trkpt lat="45.848623" lon="6.735955">
        <ele>1108.746</ele>
        <time>2018-07-13T13:06:41Z</time>
      </trkpt>
      <trkpt lat="45.848577" lon="6.735961">
        <ele>1109.416</ele>
        <time>2018-07-13T13:06:46Z</time>
      </trkpt>
      <trkpt lat="45.848522" lon="6.735956">
        <ele>1109.635</ele>
        <time>2018-07-13T13:06:51Z</time>
      </trkpt>
      <trkpt lat="45.848477" lon="6.735968">
        <ele>1109.550</ele>
        <time>2018-07-13T13:06:58Z</time>
      </trkpt>
      <trkpt lat="45.848428" lon="6.735972">
        <ele>1110.749</ele>
        <time>2018-07-13T13:07:21Z</time>
      </trkpt>
      <trkpt lat="45.848384" lon="6.735996">
        <ele>1110.952</ele>
        <time>2018-07-13T13:07:29Z</time>
      </trkpt>
      <trkpt lat="45.848352" lon="6.736042">
        <ele>1111.553</ele>
        <time>2018-07-13T13:07:38Z</time>
      </trkpt>
      <trkpt lat="45.848314" lon="6.736084">
        <ele>1112.308</ele>
        <time>2018-07-13T13:07:45Z</time>
      </trkpt>
      <trkpt lat="45.848284" lon="6.736141">
        <ele>1113.508</ele>
        <time>2018-07-13T13:07:54Z</time>
      </trkpt>
      <trkpt lat="45.848252" lon="6.736194">
        <ele>1114.667</ele>
        <time>2018-07-13T13:08:01Z</time>
      </trkpt>
      <trkpt lat="45.848222" lon="6.736249">
        <ele>1115.290</ele>
        <time>2018-07-13T13:08:09Z</time>
      </trkpt>
      <trkpt lat="45.848192" lon="6.736304">
        <ele>1116.199</ele>
        <time>2018-07-13T13:08:17Z</time>
      </trkpt>
      <trkpt lat="45.848164" lon="6.736355">
        <ele>1117.148</ele>
        <time>2018-07-13T13:08:23Z</time>
      </trkpt>
      <trkpt lat="45.848133" lon="6.736405">
        <ele>1118.218</ele>
        <time>2018-07-13T13:08:31Z</time>
      </trkpt>
      <trkpt lat="45.848105" lon="6.736458">
        <ele>1118.927</ele>
        <time>2018-07-13T13:08:39Z</time>
      </trkpt>
      <trkpt lat="45.848089" lon="6.736526">
        <ele>1119.832</ele>
        <time>2018-07-13T13:08:48Z</time>
      </trkpt>
      <trkpt lat="45.848073" lon="6.736592">
        <ele>1121.021</ele>
        <time>2018-07-13T13:08:57Z</time>
      </trkpt>
      <trkpt lat="45.848063" lon="6.736661">
        <ele>1122.225</ele>
        <time>2018-07-13T13:09:06Z</time>
      </trkpt>
      <trkpt lat="45.848054" lon="6.736725">
        <ele>1123.126</ele>
        <time>2018-07-13T13:09:14Z</time>
      </trkpt>
      <trkpt lat="45.848032" lon="6.736788">
        <ele>1125.208</ele>
        <time>2018-07-13T13:09:22Z</time>
      </trkpt>
      <trkpt lat="45.847998" lon="6.736840">
        <ele>1125.508</ele>
        <time>2018-07-13T13:09:29Z</time>
      </trkpt>
      <trkpt lat="45.847965" lon="6.736894">
        <ele>1126.434</ele>
        <time>2018-07-13T13:09:37Z</time>
      </trkpt>
      <trkpt lat="45.847920" lon="6.736927">
        <ele>1126.337</ele>
        <time>2018-07-13T13:09:44Z</time>
      </trkpt>
      <trkpt lat="45.847877" lon="6.736948">
        <ele>1127.156</ele>
        <time>2018-07-13T13:09:52Z</time>
      </trkpt>
      <trkpt lat="45.847833" lon="6.736969">
        <ele>1128.295</ele>
        <time>2018-07-13T13:10:02Z</time>
      </trkpt>
      <trkpt lat="45.847785" lon="6.736989">
        <ele>1129.525</ele>
        <time>2018-07-13T13:10:08Z</time>
      </trkpt>
      <trkpt lat="45.847738" lon="6.737006">
        <ele>1130.234</ele>
        <time>2018-07-13T13:10:15Z</time>
      </trkpt>
      <trkpt lat="45.847693" lon="6.737044">
        <ele>1131.239</ele>
        <time>2018-07-13T13:10:24Z</time>
      </trkpt>
      <trkpt lat="45.847644" lon="6.737071">
        <ele>1132.218</ele>
        <time>2018-07-13T13:10:31Z</time>
      </trkpt>
      <trkpt lat="45.847604" lon="6.737103">
        <ele>1133.249</ele>
        <time>2018-07-13T13:10:39Z</time>
      </trkpt>
      <trkpt lat="45.847561" lon="6.737139">
        <ele>1134.402</ele>
        <time>2018-07-13T13:10:47Z</time>
      </trkpt>
      <trkpt lat="45.847518" lon="6.737163">
        <ele>1135.322</ele>
        <time>2018-07-13T13:10:54Z</time>
      </trkpt>
      <trkpt lat="45.847477" lon="6.737200">
        <ele>1136.408</ele>
        <time>2018-07-13T13:11:02Z</time>
      </trkpt>
      <trkpt lat="45.847427" lon="6.737216">
        <ele>1138.076</ele>
        <time>2018-07-13T13:11:11Z</time>
      </trkpt>
      <trkpt lat="45.847382" lon="6.737237">
        <ele>1138.529</ele>
        <time>2018-07-13T13:11:18Z</time>
      </trkpt>
      <trkpt lat="45.847338" lon="6.737252">
        <ele>1140.238</ele>
        <time>2018-07-13T13:11:28Z</time>
      </trkpt>
      <trkpt lat="45.847292" lon="6.737272">
        <ele>1141.847</ele>
        <time>2018-07-13T13:11:38Z</time>
      </trkpt>
      <trkpt lat="45.847247" lon="6.737286">
        <ele>1142.027</ele>
        <time>2018-07-13T13:11:45Z</time>
      </trkpt>
      <trkpt lat="45.847202" lon="6.737295">
        <ele>1142.946</ele>
        <time>2018-07-13T13:11:52Z</time>
      </trkpt>
      <trkpt lat="45.847154" lon="6.737299">
        <ele>1144.051</ele>
        <time>2018-07-13T13:12:00Z</time>
      </trkpt>
      <trkpt lat="45.847110" lon="6.737316">
        <ele>1145.160</ele>
        <time>2018-07-13T13:12:07Z</time>
      </trkpt>
      <trkpt lat="45.847065" lon="6.737335">
        <ele>1146.764</ele>
        <time>2018-07-13T13:12:15Z</time>
      </trkpt>
      <trkpt lat="45.847022" lon="6.737358">
        <ele>1147.806</ele>
        <time>2018-07-13T13:12:27Z</time>
      </trkpt>
      <trkpt lat="45.846990" lon="6.737403">
        <ele>1149.616</ele>
        <time>2018-07-13T13:12:34Z</time>
      </trkpt>
      <trkpt lat="45.846951" lon="6.737448">
        <ele>1148.508</ele>
        <time>2018-07-13T13:12:40Z</time>
      </trkpt>
      <trkpt lat="45.846908" lon="6.737473">
        <ele>1148.718</ele>
        <time>2018-07-13T13:12:53Z</time>
      </trkpt>
      <trkpt lat="45.846879" lon="6.737524">
        <ele>1149.651</ele>
        <time>2018-07-13T13:13:00Z</time>
      </trkpt>
      <trkpt lat="45.846838" lon="6.737560">
        <ele>1150.090</ele>
        <time>2018-07-13T13:13:07Z</time>
      </trkpt>
      <trkpt lat="45.846795" lon="6.737582">
        <ele>1150.629</ele>
        <time>2018-07-13T13:13:14Z</time>
      </trkpt>
      <trkpt lat="45.846748" lon="6.737592">
        <ele>1151.859</ele>
        <time>2018-07-13T13:13:22Z</time>
      </trkpt>
      <trkpt lat="45.846701" lon="6.737566">
        <ele>1152.738</ele>
        <time>2018-07-13T13:13:30Z</time>
      </trkpt>
      <trkpt lat="45.846656" lon="6.737543">
        <ele>1152.993</ele>
        <time>2018-07-13T13:13:36Z</time>
      </trkpt>
      <trkpt lat="45.846607" lon="6.737551">
        <ele>1153.122</ele>
        <time>2018-07-13T13:13:42Z</time>
      </trkpt>
      <trkpt lat="45.846563" lon="6.737588">
        <ele>1153.169</ele>
        <time>2018-07-13T13:13:47Z</time>
      </trkpt>
      <trkpt lat="45.846520" lon="6.737638">
        <ele>1153.204</ele>
        <time>2018-07-13T13:13:51Z</time>
      </trkpt>
      <trkpt lat="45.846487" lon="6.737685">
        <ele>1153.024</ele>
        <time>2018-07-13T13:13:55Z</time>
      </trkpt>
      <trkpt lat="45.846464" lon="6.737749">
        <ele>1152.608</ele>
        <time>2018-07-13T13:14:00Z</time>
      </trkpt>
      <trkpt lat="45.846446" lon="6.737823">
        <ele>1152.618</ele>
        <time>2018-07-13T13:14:05Z</time>
      </trkpt>
      <trkpt lat="45.846429" lon="6.737884">
        <ele>1151.771</ele>
        <time>2018-07-13T13:14:09Z</time>
      </trkpt>
      <trkpt lat="45.846403" lon="6.737955">
        <ele>1151.570</ele>
        <time>2018-07-13T13:14:14Z</time>
      </trkpt>
      <trkpt lat="45.846379" lon="6.738016">
        <ele>1150.959</ele>
        <time>2018-07-13T13:14:18Z</time>
      </trkpt>
      <trkpt lat="45.846364" lon="6.738081">
        <ele>1150.539</ele>
        <time>2018-07-13T13:14:22Z</time>
      </trkpt>
      <trkpt lat="45.846354" lon="6.738148">
        <ele>1150.618</ele>
        <time>2018-07-13T13:14:26Z</time>
      </trkpt>
      <trkpt lat="45.846346" lon="6.738215">
        <ele>1150.293</ele>
        <time>2018-07-13T13:14:30Z</time>
      </trkpt>
      <trkpt lat="45.846330" lon="6.738285">
        <ele>1149.552</ele>
        <time>2018-07-13T13:14:34Z</time>
      </trkpt>
      <trkpt lat="45.846317" lon="6.738361">
        <ele>1149.594</ele>
        <time>2018-07-13T13:14:38Z</time>
      </trkpt>
      <trkpt lat="45.846302" lon="6.738434">
        <ele>1149.357</ele>
        <time>2018-07-13T13:14:42Z</time>
      </trkpt>
      <trkpt lat="45.846285" lon="6.738498">
        <ele>1151.722</ele>
        <time>2018-07-13T13:14:46Z</time>
      </trkpt>
      <trkpt lat="45.846258" lon="6.738553">
        <ele>1151.408</ele>
        <time>2018-07-13T13:14:50Z</time>
      </trkpt>
      <trkpt lat="45.846236" lon="6.738613">
        <ele>1149.331</ele>
        <time>2018-07-13T13:14:54Z</time>
      </trkpt>
      <trkpt lat="45.846217" lon="6.738686">
        <ele>1148.484</ele>
        <time>2018-07-13T13:14:58Z</time>
      </trkpt>
      <trkpt lat="45.846199" lon="6.738752">
        <ele>1148.143</ele>
        <time>2018-07-13T13:15:02Z</time>
      </trkpt>
      <trkpt lat="45.846179" lon="6.738824">
        <ele>1147.662</ele>
        <time>2018-07-13T13:15:06Z</time>
      </trkpt>
      <trkpt lat="45.846157" lon="6.738891">
        <ele>1147.732</ele>
        <time>2018-07-13T13:15:10Z</time>
      </trkpt>
      <trkpt lat="45.846135" lon="6.738948">
        <ele>1146.551</ele>
        <time>2018-07-13T13:15:14Z</time>
      </trkpt>
      <trkpt lat="45.846107" lon="6.739017">
        <ele>1145.966</ele>
        <time>2018-07-13T13:15:19Z</time>
      </trkpt>
      <trkpt lat="45.846082" lon="6.739081">
        <ele>1146.335</ele>
        <time>2018-07-13T13:15:23Z</time>
      </trkpt>
      <trkpt lat="45.846061" lon="6.739144">
        <ele>1146.181</ele>
        <time>2018-07-13T13:15:27Z</time>
      </trkpt>
      <trkpt lat="45.846023" lon="6.739188">
        <ele>1146.561</ele>
        <time>2018-07-13T13:15:31Z</time>
      </trkpt>
      <trkpt lat="45.845980" lon="6.739217">
        <ele>1146.417</ele>
        <time>2018-07-13T13:15:36Z</time>
      </trkpt>
      <trkpt lat="45.845919" lon="6.739228">
        <ele>1149.508</ele>
        <time>2018-07-13T13:17:11Z</time>
      </trkpt>
      <trkpt lat="45.845868" lon="6.739204">
        <ele>1149.740</ele>
        <time>2018-07-13T13:17:17Z</time>
      </trkpt>
      <trkpt lat="45.845829" lon="6.739165">
        <ele>1149.633</ele>
        <time>2018-07-13T13:17:21Z</time>
      </trkpt>
      <trkpt lat="45.845808" lon="6.739106">
        <ele>1150.382</ele>
        <time>2018-07-13T13:17:26Z</time>
      </trkpt>
      <trkpt lat="45.845793" lon="6.739040">
        <ele>1151.271</ele>
        <time>2018-07-13T13:17:32Z</time>
      </trkpt>
      <trkpt lat="45.845816" lon="6.738978">
        <ele>1149.641</ele>
        <time>2018-07-13T13:17:40Z</time>
      </trkpt>
      <trkpt lat="45.845850" lon="6.738921">
        <ele>1148.740</ele>
        <time>2018-07-13T13:17:49Z</time>
      </trkpt>
      <trkpt lat="45.845840" lon="6.738856">
        <ele>1147.925</ele>
        <time>2018-07-13T13:17:57Z</time>
      </trkpt>
      <trkpt lat="45.845825" lon="6.738789">
        <ele>1147.484</ele>
        <time>2018-07-13T13:18:05Z</time>
      </trkpt>
      <trkpt lat="45.845804" lon="6.738711">
        <ele>1147.619</ele>
        <time>2018-07-13T13:18:16Z</time>
      </trkpt>
      <trkpt lat="45.845785" lon="6.738648">
        <ele>1147.309</ele>
        <time>2018-07-13T13:18:23Z</time>
      </trkpt>
      <trkpt lat="45.845786" lon="6.738581">
        <ele>1147.119</ele>
        <time>2018-07-13T13:18:29Z</time>
      </trkpt>
      <trkpt lat="45.845775" lon="6.738513">
        <ele>1148.008</ele>
        <time>2018-07-13T13:18:36Z</time>
      </trkpt>
      <trkpt lat="45.845750" lon="6.738450">
        <ele>1147.663</ele>
        <time>2018-07-13T13:18:41Z</time>
      </trkpt>
      <trkpt lat="45.845734" lon="6.738383">
        <ele>1147.776</ele>
        <time>2018-07-13T13:18:47Z</time>
      </trkpt>
      <trkpt lat="45.845723" lon="6.738316">
        <ele>1147.675</ele>
        <time>2018-07-13T13:18:52Z</time>
      </trkpt>
      <trkpt lat="45.845709" lon="6.738245">
        <ele>1147.884</ele>
        <time>2018-07-13T13:18:57Z</time>
      </trkpt>
      <trkpt lat="45.845691" lon="6.738177">
        <ele>1147.954</ele>
        <time>2018-07-13T13:19:03Z</time>
      </trkpt>
      <trkpt lat="45.845689" lon="6.738095">
        <ele>1147.713</ele>
        <time>2018-07-13T13:19:08Z</time>
      </trkpt>
      <trkpt lat="45.845679" lon="6.738030">
        <ele>1147.988</ele>
        <time>2018-07-13T13:19:12Z</time>
      </trkpt>
      <trkpt lat="45.845671" lon="6.737962">
        <ele>1147.657</ele>
        <time>2018-07-13T13:19:15Z</time>
      </trkpt>
      <trkpt lat="45.845668" lon="6.737892">
        <ele>1147.431</ele>
        <time>2018-07-13T13:19:18Z</time>
      </trkpt>
      <trkpt lat="45.845668" lon="6.737826">
        <ele>1147.261</ele>
        <time>2018-07-13T13:19:21Z</time>
      </trkpt>
      <trkpt lat="45.845660" lon="6.737749">
        <ele>1146.707</ele>
        <time>2018-07-13T13:19:25Z</time>
      </trkpt>
      <trkpt lat="45.845663" lon="6.737665">
        <ele>1146.308</ele>
        <time>2018-07-13T13:19:29Z</time>
      </trkpt>
      <trkpt lat="45.845662" lon="6.737589">
        <ele>1145.765</ele>
        <time>2018-07-13T13:19:33Z</time>
      </trkpt>
      <trkpt lat="45.845652" lon="6.737514">
        <ele>1144.728</ele>
        <time>2018-07-13T13:19:38Z</time>
      </trkpt>
      <trkpt lat="45.845655" lon="6.737443">
        <ele>1144.287</ele>
        <time>2018-07-13T13:19:43Z</time>
      </trkpt>
      <trkpt lat="45.845657" lon="6.737360">
        <ele>1143.546</ele>
        <time>2018-07-13T13:19:48Z</time>
      </trkpt>
      <trkpt lat="45.845651" lon="6.737281">
        <ele>1143.686</ele>
        <time>2018-07-13T13:19:52Z</time>
      </trkpt>
      <trkpt lat="45.845650" lon="6.737205">
        <ele>1142.895</ele>
        <time>2018-07-13T13:19:57Z</time>
      </trkpt>
      <trkpt lat="45.845670" lon="6.737141">
        <ele>1142.560</ele>
        <time>2018-07-13T13:20:03Z</time>
      </trkpt>
      <trkpt lat="45.845685" lon="6.737070">
        <ele>1142.189</ele>
        <time>2018-07-13T13:20:08Z</time>
      </trkpt>
      <trkpt lat="45.845698" lon="6.736992">
        <ele>1141.435</ele>
        <time>2018-07-13T13:20:12Z</time>
      </trkpt>
      <trkpt lat="45.845688" lon="6.736921">
        <ele>1141.086</ele>
        <time>2018-07-13T13:20:16Z</time>
      </trkpt>
      <trkpt lat="45.845685" lon="6.736846">
        <ele>1140.614</ele>
        <time>2018-07-13T13:20:20Z</time>
      </trkpt>
      <trkpt lat="45.845695" lon="6.736779">
        <ele>1140.408</ele>
        <time>2018-07-13T13:20:24Z</time>
      </trkpt>
      <trkpt lat="45.845672" lon="6.736715">
        <ele>1141.375</ele>
        <time>2018-07-13T13:20:30Z</time>
      </trkpt>
      <trkpt lat="45.845649" lon="6.736658">
        <ele>1142.238</ele>
        <time>2018-07-13T13:20:35Z</time>
      </trkpt>
      <trkpt lat="45.845597" lon="6.736575">
        <ele>1143.997</ele>
        <time>2018-07-13T13:20:46Z</time>
      </trkpt>
      <trkpt lat="45.845607" lon="6.736507">
        <ele>1144.016</ele>
        <time>2018-07-13T13:20:51Z</time>
      </trkpt>
      <trkpt lat="45.845630" lon="6.736444">
        <ele>1144.676</ele>
        <time>2018-07-13T13:20:57Z</time>
      </trkpt>
      <trkpt lat="45.845650" lon="6.736382">
        <ele>1145.235</ele>
        <time>2018-07-13T13:21:02Z</time>
      </trkpt>
      <trkpt lat="45.845684" lon="6.736335">
        <ele>1145.380</ele>
        <time>2018-07-13T13:21:06Z</time>
      </trkpt>
      <trkpt lat="45.845688" lon="6.736270">
        <ele>1145.339</ele>
        <time>2018-07-13T13:21:09Z</time>
      </trkpt>
      <trkpt lat="45.845696" lon="6.736201">
        <ele>1145.088</ele>
        <time>2018-07-13T13:21:13Z</time>
      </trkpt>
      <trkpt lat="45.845682" lon="6.736138">
        <ele>1144.224</ele>
        <time>2018-07-13T13:21:18Z</time>
      </trkpt>
      <trkpt lat="45.845679" lon="6.736064">
        <ele>1142.926</ele>
        <time>2018-07-13T13:21:23Z</time>
      </trkpt>
      <trkpt lat="45.845656" lon="6.736001">
        <ele>1142.208</ele>
        <time>2018-07-13T13:21:27Z</time>
      </trkpt>
      <trkpt lat="45.845632" lon="6.735925">
        <ele>1142.090</ele>
        <time>2018-07-13T13:21:31Z</time>
      </trkpt>
      <trkpt lat="45.845624" lon="6.735850">
        <ele>1142.233</ele>
        <time>2018-07-13T13:21:35Z</time>
      </trkpt>
      <trkpt lat="45.845612" lon="6.735785">
        <ele>1141.482</ele>
        <time>2018-07-13T13:21:39Z</time>
      </trkpt>
      <trkpt lat="45.845605" lon="6.735714">
        <ele>1140.211</ele>
        <time>2018-07-13T13:21:44Z</time>
      </trkpt>
      <trkpt lat="45.845606" lon="6.735637">
        <ele>1139.211</ele>
        <time>2018-07-13T13:21:49Z</time>
      </trkpt>
      <trkpt lat="45.845605" lon="6.735571">
        <ele>1138.660</ele>
        <time>2018-07-13T13:21:54Z</time>
      </trkpt>
      <trkpt lat="45.845626" lon="6.735501">
        <ele>1137.765</ele>
        <time>2018-07-13T13:21:59Z</time>
      </trkpt>
      <trkpt lat="45.845644" lon="6.735442">
        <ele>1134.464</ele>
        <time>2018-07-13T13:22:04Z</time>
      </trkpt>
      <trkpt lat="45.845666" lon="6.735373">
        <ele>1135.957</ele>
        <time>2018-07-13T13:22:09Z</time>
      </trkpt>
      <trkpt lat="45.845672" lon="6.735305">
        <ele>1135.100</ele>
        <time>2018-07-13T13:22:13Z</time>
      </trkpt>
      <trkpt lat="45.845661" lon="6.735232">
        <ele>1134.620</ele>
        <time>2018-07-13T13:22:17Z</time>
      </trkpt>
      <trkpt lat="45.845640" lon="6.735174">
        <ele>1133.808</ele>
        <time>2018-07-13T13:22:21Z</time>
      </trkpt>
      <trkpt lat="45.845657" lon="6.735105">
        <ele>1132.717</ele>
        <time>2018-07-13T13:22:26Z</time>
      </trkpt>
      <trkpt lat="45.845660" lon="6.735036">
        <ele>1131.560</ele>
        <time>2018-07-13T13:22:32Z</time>
      </trkpt>
      <trkpt lat="45.845662" lon="6.734971">
        <ele>1130.489</ele>
        <time>2018-07-13T13:22:38Z</time>
      </trkpt>
      <trkpt lat="45.845666" lon="6.734905">
        <ele>1129.088</ele>
        <time>2018-07-13T13:22:45Z</time>
      </trkpt>
      <trkpt lat="45.845663" lon="6.734840">
        <ele>1127.478</ele>
        <time>2018-07-13T13:22:51Z</time>
      </trkpt>
      <trkpt lat="45.845671" lon="6.734773">
        <ele>1125.657</ele>
        <time>2018-07-13T13:22:59Z</time>
      </trkpt>
      <trkpt lat="45.845721" lon="6.734803">
        <ele>1124.032</ele>
        <time>2018-07-13T13:23:23Z</time>
      </trkpt>
      <trkpt lat="45.845751" lon="6.734852">
        <ele>1122.211</ele>
        <time>2018-07-13T13:23:32Z</time>
      </trkpt>
      <trkpt lat="45.845801" lon="6.734847">
        <ele>1120.871</ele>
        <time>2018-07-13T13:23:38Z</time>
      </trkpt>
      <trkpt lat="45.845834" lon="6.734798">
        <ele>1119.541</ele>
        <time>2018-07-13T13:23:43Z</time>
      </trkpt>
      <trkpt lat="45.845841" lon="6.734734">
        <ele>1118.215</ele>
        <time>2018-07-13T13:23:51Z</time>
      </trkpt>
      <trkpt lat="45.845858" lon="6.734661">
        <ele>1116.908</ele>
        <time>2018-07-13T13:23:57Z</time>
      </trkpt>
      <trkpt lat="45.845883" lon="6.734600">
        <ele>1113.989</ele>
        <time>2018-07-13T13:24:24Z</time>
      </trkpt>
      <trkpt lat="45.845917" lon="6.734557">
        <ele>1110.332</ele>
        <time>2018-07-13T13:24:32Z</time>
      </trkpt>
      <trkpt lat="45.845959" lon="6.734527">
        <ele>1111.151</ele>
        <time>2018-07-13T13:24:36Z</time>
      </trkpt>
      <trkpt lat="45.846005" lon="6.734518">
        <ele>1110.350</ele>
        <time>2018-07-13T13:24:41Z</time>
      </trkpt>
      <trkpt lat="45.846056" lon="6.734490">
        <ele>1109.020</ele>
        <time>2018-07-13T13:24:47Z</time>
      </trkpt>
      <trkpt lat="45.846037" lon="6.734427">
        <ele>1107.899</ele>
        <time>2018-07-13T13:24:55Z</time>
      </trkpt>
      <trkpt lat="45.845988" lon="6.734417">
        <ele>1106.064</ele>
        <time>2018-07-13T13:25:05Z</time>
      </trkpt>
      <trkpt lat="45.845940" lon="6.734426">
        <ele>1102.993</ele>
        <time>2018-07-13T13:25:16Z</time>
      </trkpt>
      <trkpt lat="45.845900" lon="6.734390">
        <ele>1102.294</ele>
        <time>2018-07-13T13:25:23Z</time>
      </trkpt>
      <trkpt lat="45.845876" lon="6.734329">
        <ele>1099.157</ele>
        <time>2018-07-13T13:25:32Z</time>
      </trkpt>
      <trkpt lat="45.845855" lon="6.734270">
        <ele>1099.522</ele>
        <time>2018-07-13T13:25:39Z</time>
      </trkpt>
      <trkpt lat="45.845854" lon="6.734190">
        <ele>1098.308</ele>
        <time>2018-07-13T13:25:45Z</time>
      </trkpt>
      <trkpt lat="45.845880" lon="6.734130">
        <ele>1097.431</ele>
        <time>2018-07-13T13:25:51Z</time>
      </trkpt>
      <trkpt lat="45.845876" lon="6.734065">
        <ele>1094.994</ele>
        <time>2018-07-13T13:25:55Z</time>
      </trkpt>
      <trkpt lat="45.845872" lon="6.733990">
        <ele>1094.313</ele>
        <time>2018-07-13T13:25:59Z</time>
      </trkpt>
      <trkpt lat="45.845859" lon="6.733925">
        <ele>1096.172</ele>
        <time>2018-07-13T13:26:04Z</time>
      </trkpt>
      <trkpt lat="45.845848" lon="6.733861">
        <ele>1095.672</ele>
        <time>2018-07-13T13:26:08Z</time>
      </trkpt>
      <trkpt lat="45.845829" lon="6.733801">
        <ele>1094.011</ele>
        <time>2018-07-13T13:26:12Z</time>
      </trkpt>
      <trkpt lat="45.845803" lon="6.733733">
        <ele>1092.526</ele>
        <time>2018-07-13T13:26:17Z</time>
      </trkpt>
      <trkpt lat="45.845763" lon="6.733691">
        <ele>1091.415</ele>
        <time>2018-07-13T13:26:22Z</time>
      </trkpt>
      <trkpt lat="45.845716" lon="6.733673">
        <ele>1091.594</ele>
        <time>2018-07-13T13:26:26Z</time>
      </trkpt>
      <trkpt lat="45.845663" lon="6.733655">
        <ele>1090.757</ele>
        <time>2018-07-13T13:26:30Z</time>
      </trkpt>
      <trkpt lat="45.845610" lon="6.733643">
        <ele>1091.022</ele>
        <time>2018-07-13T13:26:34Z</time>
      </trkpt>
      <trkpt lat="45.845558" lon="6.733630">
        <ele>1090.108</ele>
        <time>2018-07-13T13:26:38Z</time>
      </trkpt>
      <trkpt lat="45.845506" lon="6.733621">
        <ele>1091.521</ele>
        <time>2018-07-13T13:26:42Z</time>
      </trkpt>
      <trkpt lat="45.845458" lon="6.733608">
        <ele>1089.114</ele>
        <time>2018-07-13T13:26:46Z</time>
      </trkpt>
      <trkpt lat="45.845409" lon="6.733588">
        <ele>1090.683</ele>
        <time>2018-07-13T13:26:50Z</time>
      </trkpt>
      <trkpt lat="45.845364" lon="6.733589">
        <ele>1089.842</ele>
        <time>2018-07-13T13:26:53Z</time>
      </trkpt>
      <trkpt lat="45.845318" lon="6.733591">
        <ele>1089.482</ele>
        <time>2018-07-13T13:26:57Z</time>
      </trkpt>
      <trkpt lat="45.845265" lon="6.733572">
        <ele>1088.881</ele>
        <time>2018-07-13T13:27:02Z</time>
      </trkpt>
      <trkpt lat="45.845226" lon="6.733535">
        <ele>1088.476</ele>
        <time>2018-07-13T13:27:06Z</time>
      </trkpt>
      <trkpt lat="45.845188" lon="6.733499">
        <ele>1086.775</ele>
        <time>2018-07-13T13:27:10Z</time>
      </trkpt>
      <trkpt lat="45.845146" lon="6.733470">
        <ele>1085.855</ele>
        <time>2018-07-13T13:27:14Z</time>
      </trkpt>
      <trkpt lat="45.845103" lon="6.733445">
        <ele>1085.807</ele>
        <time>2018-07-13T13:27:18Z</time>
      </trkpt>
      <trkpt lat="45.845052" lon="6.733426">
        <ele>1085.217</ele>
        <time>2018-07-13T13:27:22Z</time>
      </trkpt>
      <trkpt lat="45.845005" lon="6.733396">
        <ele>1084.008</ele>
        <time>2018-07-13T13:27:26Z</time>
      </trkpt>
      <trkpt lat="45.844960" lon="6.733368">
        <ele>1083.957</ele>
        <time>2018-07-13T13:27:30Z</time>
      </trkpt>
      <trkpt lat="45.844907" lon="6.733356">
        <ele>1083.660</ele>
        <time>2018-07-13T13:27:34Z</time>
      </trkpt>
      <trkpt lat="45.844865" lon="6.733331">
        <ele>1081.099</ele>
        <time>2018-07-13T13:27:38Z</time>
      </trkpt>
      <trkpt lat="45.844811" lon="6.733299">
        <ele>1082.198</ele>
        <time>2018-07-13T13:27:43Z</time>
      </trkpt>
      <trkpt lat="45.844764" lon="6.733273">
        <ele>1080.618</ele>
        <time>2018-07-13T13:27:47Z</time>
      </trkpt>
      <trkpt lat="45.844723" lon="6.733239">
        <ele>1079.057</ele>
        <time>2018-07-13T13:27:51Z</time>
      </trkpt>
      <trkpt lat="45.844672" lon="6.733212">
        <ele>1080.172</ele>
        <time>2018-07-13T13:27:55Z</time>
      </trkpt>
      <trkpt lat="45.844621" lon="6.733188">
        <ele>1079.881</ele>
        <time>2018-07-13T13:27:59Z</time>
      </trkpt>
      <trkpt lat="45.844577" lon="6.733157">
        <ele>1078.195</ele>
        <time>2018-07-13T13:28:03Z</time>
      </trkpt>
      <trkpt lat="45.844537" lon="6.733121">
        <ele>1078.549</ele>
        <time>2018-07-13T13:28:07Z</time>
      </trkpt>
      <trkpt lat="45.844489" lon="6.733091">
        <ele>1076.823</ele>
        <time>2018-07-13T13:28:12Z</time>
      </trkpt>
      <trkpt lat="45.844441" lon="6.733063">
        <ele>1076.208</ele>
        <time>2018-07-13T13:28:17Z</time>
      </trkpt>
      <trkpt lat="45.844403" lon="6.733025">
        <ele>1075.841</ele>
        <time>2018-07-13T13:28:22Z</time>
      </trkpt>
      <trkpt lat="45.844356" lon="6.732986">
        <ele>1074.944</ele>
        <time>2018-07-13T13:28:27Z</time>
      </trkpt>
      <trkpt lat="45.844318" lon="6.732934">
        <ele>1073.283</ele>
        <time>2018-07-13T13:28:32Z</time>
      </trkpt>
      <trkpt lat="45.844210" lon="6.732772">
        <ele>1072.582</ele>
        <time>2018-07-13T13:28:46Z</time>
      </trkpt>
      <trkpt lat="45.844197" lon="6.732698">
        <ele>1070.862</ele>
        <time>2018-07-13T13:29:29Z</time>
      </trkpt>
      <trkpt lat="45.844181" lon="6.732624">
        <ele>1070.261</ele>
        <time>2018-07-13T13:29:34Z</time>
      </trkpt>
      <trkpt lat="45.844166" lon="6.732561">
        <ele>1068.996</ele>
        <time>2018-07-13T13:29:38Z</time>
      </trkpt>
      <trkpt lat="45.844156" lon="6.732486">
        <ele>1069.415</ele>
        <time>2018-07-13T13:29:43Z</time>
      </trkpt>
      <trkpt lat="45.844161" lon="6.732416">
        <ele>1067.647</ele>
        <time>2018-07-13T13:29:47Z</time>
      </trkpt>
      <trkpt lat="45.844169" lon="6.732348">
        <ele>1068.629</ele>
        <time>2018-07-13T13:29:51Z</time>
      </trkpt>
      <trkpt lat="45.844185" lon="6.732286">
        <ele>1068.621</ele>
        <time>2018-07-13T13:29:55Z</time>
      </trkpt>
      <trkpt lat="45.844211" lon="6.732218">
        <ele>1066.108</ele>
        <time>2018-07-13T13:30:00Z</time>
      </trkpt>
      <trkpt lat="45.844240" lon="6.732164">
        <ele>1067.446</ele>
        <time>2018-07-13T13:30:04Z</time>
      </trkpt>
      <trkpt lat="45.844270" lon="6.732101">
        <ele>1066.739</ele>
        <time>2018-07-13T13:30:08Z</time>
      </trkpt>
      <trkpt lat="45.844291" lon="6.732035">
        <ele>1066.548</ele>
        <time>2018-07-13T13:30:12Z</time>
      </trkpt>
      <trkpt lat="45.844295" lon="6.731967">
        <ele>1066.357</ele>
        <time>2018-07-13T13:30:16Z</time>
      </trkpt>
      <trkpt lat="45.844298" lon="6.731896">
        <ele>1065.147</ele>
        <time>2018-07-13T13:30:20Z</time>
      </trkpt>
      <trkpt lat="45.844295" lon="6.731813">
        <ele>1064.556</ele>
        <time>2018-07-13T13:30:27Z</time>
      </trkpt>
      <trkpt lat="45.844296" lon="6.731743">
        <ele>1064.931</ele>
        <time>2018-07-13T13:30:32Z</time>
      </trkpt>
      <trkpt lat="45.844288" lon="6.731675">
        <ele>1063.940</ele>
        <time>2018-07-13T13:30:36Z</time>
      </trkpt>
      <trkpt lat="45.844270" lon="6.731607">
        <ele>1063.299</ele>
        <time>2018-07-13T13:30:40Z</time>
      </trkpt>
      <trkpt lat="45.844254" lon="6.731531">
        <ele>1063.607</ele>
        <time>2018-07-13T13:30:44Z</time>
      </trkpt>
      <trkpt lat="45.844241" lon="6.731454">
        <ele>1063.527</ele>
        <time>2018-07-13T13:30:48Z</time>
      </trkpt>
      <trkpt lat="45.844230" lon="6.731382">
        <ele>1063.808</ele>
        <time>2018-07-13T13:30:52Z</time>
      </trkpt>
      <trkpt lat="45.844221" lon="6.731318">
        <ele>1063.121</ele>
        <time>2018-07-13T13:30:56Z</time>
      </trkpt>
      <trkpt lat="45.844208" lon="6.731250">
        <ele>1062.934</ele>
        <time>2018-07-13T13:31:00Z</time>
      </trkpt>
      <trkpt lat="45.844192" lon="6.731172">
        <ele>1063.873</ele>
        <time>2018-07-13T13:31:05Z</time>
      </trkpt>
      <trkpt lat="45.844181" lon="6.731107">
        <ele>1063.822</ele>
        <time>2018-07-13T13:31:09Z</time>
      </trkpt>
      <trkpt lat="45.844167" lon="6.731044">
        <ele>1062.212</ele>
        <time>2018-07-13T13:31:21Z</time>
      </trkpt>
      <trkpt lat="45.844159" lon="6.730969">
        <ele>1064.731</ele>
        <time>2018-07-13T13:31:26Z</time>
      </trkpt>
      <trkpt lat="45.844145" lon="6.730901">
        <ele>1064.226</ele>
        <time>2018-07-13T13:31:30Z</time>
      </trkpt>
      <trkpt lat="45.844125" lon="6.730835">
        <ele>1064.135</ele>
        <time>2018-07-13T13:31:34Z</time>
      </trkpt>
      <trkpt lat="45.844101" lon="6.730772">
        <ele>1062.845</ele>
        <time>2018-07-13T13:31:38Z</time>
      </trkpt>
      <trkpt lat="45.844079" lon="6.730710">
        <ele>1063.247</ele>
        <time>2018-07-13T13:31:42Z</time>
      </trkpt>
      <trkpt lat="45.844053" lon="6.730652">
        <ele>1062.811</ele>
        <time>2018-07-13T13:31:46Z</time>
      </trkpt>
      <trkpt lat="45.844024" lon="6.730588">
        <ele>1061.608</ele>
        <time>2018-07-13T13:31:50Z</time>
      </trkpt>
      <trkpt lat="45.843996" lon="6.730532">
        <ele>1062.756</ele>
        <time>2018-07-13T13:31:54Z</time>
      </trkpt>
      <trkpt lat="45.843954" lon="6.730485">
        <ele>1061.429</ele>
        <time>2018-07-13T13:31:59Z</time>
      </trkpt>
      <trkpt lat="45.843905" lon="6.730449">
        <ele>1059.998</ele>
        <time>2018-07-13T13:32:04Z</time>
      </trkpt>
      <trkpt lat="45.843863" lon="6.730402">
        <ele>1060.787</ele>
        <time>2018-07-13T13:32:09Z</time>
      </trkpt>
      <trkpt lat="45.843833" lon="6.730336">
        <ele>1060.717</ele>
        <time>2018-07-13T13:32:14Z</time>
      </trkpt>
      <trkpt lat="45.843813" lon="6.730277">
        <ele>1060.066</ele>
        <time>2018-07-13T13:32:18Z</time>
      </trkpt>
      <trkpt lat="45.843801" lon="6.730204">
        <ele>1059.541</ele>
        <time>2018-07-13T13:32:22Z</time>
      </trkpt>
      <trkpt lat="45.843797" lon="6.730131">
        <ele>1059.530</ele>
        <time>2018-07-13T13:32:26Z</time>
      </trkpt>
      <trkpt lat="45.843801" lon="6.730066">
        <ele>1059.351</ele>
        <time>2018-07-13T13:32:30Z</time>
      </trkpt>
      <trkpt lat="45.843811" lon="6.729995">
        <ele>1059.001</ele>
        <time>2018-07-13T13:32:34Z</time>
      </trkpt>
      <trkpt lat="45.843814" lon="6.729925">
        <ele>1058.811</ele>
        <time>2018-07-13T13:32:38Z</time>
      </trkpt>
      <trkpt lat="45.843809" lon="6.729857">
        <ele>1058.908</ele>
        <time>2018-07-13T13:32:42Z</time>
      </trkpt>
      <trkpt lat="45.843795" lon="6.729787">
        <ele>1058.887</ele>
        <time>2018-07-13T13:32:46Z</time>
      </trkpt>
      <trkpt lat="45.843785" lon="6.729717">
        <ele>1059.260</ele>
        <time>2018-07-13T13:32:50Z</time>
      </trkpt>
      <trkpt lat="45.843774" lon="6.729647">
        <ele>1059.269</ele>
        <time>2018-07-13T13:32:54Z</time>
      </trkpt>
      <trkpt lat="45.843760" lon="6.729576">
        <ele>1058.838</ele>
        <time>2018-07-13T13:32:58Z</time>
      </trkpt>
      <trkpt lat="45.843742" lon="6.729507">
        <ele>1058.578</ele>
        <time>2018-07-13T13:33:02Z</time>
      </trkpt>
      <trkpt lat="45.843728" lon="6.729433">
        <ele>1058.177</ele>
        <time>2018-07-13T13:33:06Z</time>
      </trkpt>
      <trkpt lat="45.843710" lon="6.729364">
        <ele>1058.162</ele>
        <time>2018-07-13T13:33:10Z</time>
      </trkpt>
      <trkpt lat="45.843692" lon="6.729296">
        <ele>1057.921</ele>
        <time>2018-07-13T13:33:14Z</time>
      </trkpt>
      <trkpt lat="45.843675" lon="6.729231">
        <ele>1058.177</ele>
        <time>2018-07-13T13:33:18Z</time>
      </trkpt>
      <trkpt lat="45.843650" lon="6.729167">
        <ele>1057.661</ele>
        <time>2018-07-13T13:33:22Z</time>
      </trkpt>
      <trkpt lat="45.843623" lon="6.729102">
        <ele>1057.427</ele>
        <time>2018-07-13T13:33:26Z</time>
      </trkpt>
      <trkpt lat="45.843590" lon="6.729050">
        <ele>1056.508</ele>
        <time>2018-07-13T13:33:30Z</time>
      </trkpt>
      <trkpt lat="45.843552" lon="6.729004">
        <ele>1056.279</ele>
        <time>2018-07-13T13:33:34Z</time>
      </trkpt>
      <trkpt lat="45.843515" lon="6.728959">
        <ele>1055.892</ele>
        <time>2018-07-13T13:33:38Z</time>
      </trkpt>
      <trkpt lat="45.843479" lon="6.728913">
        <ele>1055.341</ele>
        <time>2018-07-13T13:33:42Z</time>
      </trkpt>
      <trkpt lat="45.843449" lon="6.728864">
        <ele>1054.580</ele>
        <time>2018-07-13T13:33:46Z</time>
      </trkpt>
      <trkpt lat="45.843421" lon="6.728810">
        <ele>1054.170</ele>
        <time>2018-07-13T13:33:50Z</time>
      </trkpt>
      <trkpt lat="45.843392" lon="6.728757">
        <ele>1053.719</ele>
        <time>2018-07-13T13:33:54Z</time>
      </trkpt>
      <trkpt lat="45.843362" lon="6.728709">
        <ele>1053.324</ele>
        <time>2018-07-13T13:33:58Z</time>
      </trkpt>
      <trkpt lat="45.843316" lon="6.728661">
        <ele>1053.323</ele>
        <time>2018-07-13T13:34:06Z</time>
      </trkpt>
      <trkpt lat="45.843306" lon="6.728594">
        <ele>1053.334</ele>
        <time>2018-07-13T13:34:22Z</time>
      </trkpt>
      <trkpt lat="45.843320" lon="6.728522">
        <ele>1053.455</ele>
        <time>2018-07-13T13:34:26Z</time>
      </trkpt>
      <trkpt lat="45.843325" lon="6.728454">
        <ele>1053.110</ele>
        <time>2018-07-13T13:34:30Z</time>
      </trkpt>
      <trkpt lat="45.843320" lon="6.728377">
        <ele>1053.708</ele>
        <time>2018-07-13T13:34:35Z</time>
      </trkpt>
      <trkpt lat="45.843322" lon="6.728301">
        <ele>1053.765</ele>
        <time>2018-07-13T13:34:40Z</time>
      </trkpt>
      <trkpt lat="45.843332" lon="6.728236">
        <ele>1053.188</ele>
        <time>2018-07-13T13:34:44Z</time>
      </trkpt>
      <trkpt lat="45.843331" lon="6.728160">
        <ele>1051.837</ele>
        <time>2018-07-13T13:34:49Z</time>
      </trkpt>
      <trkpt lat="45.843317" lon="6.728095">
        <ele>1053.556</ele>
        <time>2018-07-13T13:34:53Z</time>
      </trkpt>
      <trkpt lat="45.843313" lon="6.728017">
        <ele>1053.726</ele>
        <time>2018-07-13T13:34:58Z</time>
      </trkpt>
      <trkpt lat="45.843283" lon="6.727967">
        <ele>1053.755</ele>
        <time>2018-07-13T13:35:03Z</time>
      </trkpt>
      <trkpt lat="45.843270" lon="6.727897">
        <ele>1053.960</ele>
        <time>2018-07-13T13:35:09Z</time>
      </trkpt>
      <trkpt lat="45.843289" lon="6.727828">
        <ele>1054.889</ele>
        <time>2018-07-13T13:35:14Z</time>
      </trkpt>
      <trkpt lat="45.843328" lon="6.727775">
        <ele>1055.137</ele>
        <time>2018-07-13T13:35:18Z</time>
      </trkpt>
      <trkpt lat="45.843369" lon="6.727725">
        <ele>1055.849</ele>
        <time>2018-07-13T13:35:23Z</time>
      </trkpt>
      <trkpt lat="45.843414" lon="6.727708">
        <ele>1056.013</ele>
        <time>2018-07-13T13:35:28Z</time>
      </trkpt>
      <trkpt lat="45.843466" lon="6.727695">
        <ele>1056.708</ele>
        <time>2018-07-13T13:35:34Z</time>
      </trkpt>
      <trkpt lat="45.843514" lon="6.727679">
        <ele>1057.385</ele>
        <time>2018-07-13T13:35:41Z</time>
      </trkpt>
      <trkpt lat="45.843562" lon="6.727664">
        <ele>1058.428</ele>
        <time>2018-07-13T13:35:47Z</time>
      </trkpt>
      <trkpt lat="45.843609" lon="6.727655">
        <ele>1059.087</ele>
        <time>2018-07-13T13:35:53Z</time>
      </trkpt>
      <trkpt lat="45.843654" lon="6.727649">
        <ele>1059.896</ele>
        <time>2018-07-13T13:35:59Z</time>
      </trkpt>
      <trkpt lat="45.843703" lon="6.727639">
        <ele>1060.696</ele>
        <time>2018-07-13T13:36:06Z</time>
      </trkpt>
      <trkpt lat="45.843749" lon="6.727627">
        <ele>1061.235</ele>
        <time>2018-07-13T13:36:14Z</time>
      </trkpt>
      <trkpt lat="45.843793" lon="6.727590">
        <ele>1062.440</ele>
        <time>2018-07-13T13:36:22Z</time>
      </trkpt>
      <trkpt lat="45.843839" lon="6.727571">
        <ele>1063.379</ele>
        <time>2018-07-13T13:36:28Z</time>
      </trkpt>
      <trkpt lat="45.843890" lon="6.727558">
        <ele>1063.841</ele>
        <time>2018-07-13T13:36:34Z</time>
      </trkpt>
      <trkpt lat="45.843934" lon="6.727535">
        <ele>1064.681</ele>
        <time>2018-07-13T13:36:40Z</time>
      </trkpt>
      <trkpt lat="45.843980" lon="6.727516">
        <ele>1064.909</ele>
        <time>2018-07-13T13:36:46Z</time>
      </trkpt>
      <trkpt lat="45.844018" lon="6.727481">
        <ele>1065.508</ele>
        <time>2018-07-13T13:36:52Z</time>
      </trkpt>
      <trkpt lat="45.844058" lon="6.727441">
        <ele>1066.126</ele>
        <time>2018-07-13T13:36:58Z</time>
      </trkpt>
      <trkpt lat="45.844099" lon="6.727403">
        <ele>1066.779</ele>
        <time>2018-07-13T13:37:05Z</time>
      </trkpt>
      <trkpt lat="45.844143" lon="6.727376">
        <ele>1067.078</ele>
        <time>2018-07-13T13:37:12Z</time>
      </trkpt>
      <trkpt lat="45.844178" lon="6.727334">
        <ele>1067.557</ele>
        <time>2018-07-13T13:37:18Z</time>
      </trkpt>
      <trkpt lat="45.844222" lon="6.727300">
        <ele>1068.237</ele>
        <time>2018-07-13T13:37:25Z</time>
      </trkpt>
      <trkpt lat="45.844262" lon="6.727254">
        <ele>1069.276</ele>
        <time>2018-07-13T13:37:32Z</time>
      </trkpt>
      <trkpt lat="45.844282" lon="6.727196">
        <ele>1070.021</ele>
        <time>2018-07-13T13:37:39Z</time>
      </trkpt>
      <trkpt lat="45.844282" lon="6.727129">
        <ele>1071.160</ele>
        <time>2018-07-13T13:37:47Z</time>
      </trkpt>
      <trkpt lat="45.844236" lon="6.727098">
        <ele>1072.188</ele>
        <time>2018-07-13T13:37:54Z</time>
      </trkpt>
      <trkpt lat="45.844197" lon="6.727051">
        <ele>1073.724</ele>
        <time>2018-07-13T13:38:05Z</time>
      </trkpt>
      <trkpt lat="45.844159" lon="6.727015">
        <ele>1074.226</ele>
        <time>2018-07-13T13:38:11Z</time>
      </trkpt>
      <trkpt lat="45.844145" lon="6.726951">
        <ele>1074.808</ele>
        <time>2018-07-13T13:38:18Z</time>
      </trkpt>
      <trkpt lat="45.844113" lon="6.726897">
        <ele>1075.630</ele>
        <time>2018-07-13T13:38:26Z</time>
      </trkpt>
      <trkpt lat="45.844078" lon="6.726847">
        <ele>1076.563</ele>
        <time>2018-07-13T13:38:33Z</time>
      </trkpt>
      <trkpt lat="45.844042" lon="6.726807">
        <ele>1076.832</ele>
        <time>2018-07-13T13:38:39Z</time>
      </trkpt>
      <trkpt lat="45.844007" lon="6.726757">
        <ele>1077.511</ele>
        <time>2018-07-13T13:38:46Z</time>
      </trkpt>
      <trkpt lat="45.843968" lon="6.726712">
        <ele>1078.531</ele>
        <time>2018-07-13T13:38:54Z</time>
      </trkpt>
      <trkpt lat="45.843926" lon="6.726678">
        <ele>1079.360</ele>
        <time>2018-07-13T13:39:00Z</time>
      </trkpt>
      <trkpt lat="45.843881" lon="6.726642">
        <ele>1080.285</ele>
        <time>2018-07-13T13:39:07Z</time>
      </trkpt>
      <trkpt lat="45.843832" lon="6.726617">
        <ele>1081.164</ele>
        <time>2018-07-13T13:39:15Z</time>
      </trkpt>
      <trkpt lat="45.843786" lon="6.726596">
        <ele>1081.495</ele>
        <time>2018-07-13T13:39:22Z</time>
      </trkpt>
      <trkpt lat="45.843739" lon="6.726583">
        <ele>1081.549</ele>
        <time>2018-07-13T13:39:27Z</time>
      </trkpt>
      <trkpt lat="45.843691" lon="6.726581">
        <ele>1081.823</ele>
        <time>2018-07-13T13:39:31Z</time>
      </trkpt>
      <trkpt lat="45.843643" lon="6.726576">
        <ele>1082.008</ele>
        <time>2018-07-13T13:39:35Z</time>
      </trkpt>
      <trkpt lat="45.843589" lon="6.726573">
        <ele>1082.481</ele>
        <time>2018-07-13T13:39:40Z</time>
      </trkpt>
      <trkpt lat="45.843535" lon="6.726575">
        <ele>1082.844</ele>
        <time>2018-07-13T13:39:45Z</time>
      </trkpt>
      <trkpt lat="45.843484" lon="6.726560">
        <ele>1082.613</ele>
        <time>2018-07-13T13:39:50Z</time>
      </trkpt>
      <trkpt lat="45.843432" lon="6.726532">
        <ele>1082.662</ele>
        <time>2018-07-13T13:39:55Z</time>
      </trkpt>
      <trkpt lat="45.843391" lon="6.726500">
        <ele>1082.372</ele>
        <time>2018-07-13T13:39:59Z</time>
      </trkpt>
      <trkpt lat="45.843345" lon="6.726452">
        <ele>1082.491</ele>
        <time>2018-07-13T13:40:04Z</time>
      </trkpt>
      <trkpt lat="45.843306" lon="6.726415">
        <ele>1082.266</ele>
        <time>2018-07-13T13:40:08Z</time>
      </trkpt>
      <trkpt lat="45.843264" lon="6.726366">
        <ele>1080.835</ele>
        <time>2018-07-13T13:40:13Z</time>
      </trkpt>
      <trkpt lat="45.843223" lon="6.726324">
        <ele>1081.855</ele>
        <time>2018-07-13T13:40:17Z</time>
      </trkpt>
      <trkpt lat="45.843181" lon="6.726284">
        <ele>1081.707</ele>
        <time>2018-07-13T13:40:21Z</time>
      </trkpt>
      <trkpt lat="45.843136" lon="6.726251">
        <ele>1081.517</ele>
        <time>2018-07-13T13:40:25Z</time>
      </trkpt>
      <trkpt lat="45.843092" lon="6.726225">
        <ele>1081.208</ele>
        <time>2018-07-13T13:40:29Z</time>
      </trkpt>
      <trkpt lat="45.843044" lon="6.726208">
        <ele>1081.247</ele>
        <time>2018-07-13T13:40:33Z</time>
      </trkpt>
      <trkpt lat="45.842991" lon="6.726186">
        <ele>1081.410</ele>
        <time>2018-07-13T13:40:38Z</time>
      </trkpt>
      <trkpt lat="45.842948" lon="6.726167">
        <ele>1081.519</ele>
        <time>2018-07-13T13:40:42Z</time>
      </trkpt>
      <trkpt lat="45.842900" lon="6.726141">
        <ele>1081.768</ele>
        <time>2018-07-13T13:40:47Z</time>
      </trkpt>
      <trkpt lat="45.842860" lon="6.726110">
        <ele>1082.148</ele>
        <time>2018-07-13T13:40:52Z</time>
      </trkpt>
      <trkpt lat="45.842819" lon="6.726080">
        <ele>1082.327</ele>
        <time>2018-07-13T13:40:57Z</time>
      </trkpt>
      <trkpt lat="45.842771" lon="6.726066">
        <ele>1082.632</ele>
        <time>2018-07-13T13:41:02Z</time>
      </trkpt>
      <trkpt lat="45.842719" lon="6.726058">
        <ele>1083.151</ele>
        <time>2018-07-13T13:41:07Z</time>
      </trkpt>
      <trkpt lat="45.842673" lon="6.726051">
        <ele>1083.592</ele>
        <time>2018-07-13T13:41:12Z</time>
      </trkpt>
      <trkpt lat="45.842623" lon="6.726042">
        <ele>1084.573</ele>
        <time>2018-07-13T13:41:18Z</time>
      </trkpt>
      <trkpt lat="45.842567" lon="6.726021">
        <ele>1084.420</ele>
        <time>2018-07-13T13:41:35Z</time>
      </trkpt>
      <trkpt lat="45.842512" lon="6.726001">
        <ele>1085.208</ele>
        <time>2018-07-13T13:41:42Z</time>
      </trkpt>
      <trkpt lat="45.842460" lon="6.725995">
        <ele>1087.191</ele>
        <time>2018-07-13T13:41:55Z</time>
      </trkpt>
      <trkpt lat="45.842416" lon="6.725967">
        <ele>1087.674</ele>
        <time>2018-07-13T13:42:01Z</time>
      </trkpt>
      <trkpt lat="45.842366" lon="6.725950">
        <ele>1088.393</ele>
        <time>2018-07-13T13:42:04Z</time>
      </trkpt>
      <trkpt lat="45.842311" lon="6.725940">
        <ele>1088.942</ele>
        <time>2018-07-13T13:42:08Z</time>
      </trkpt>
      <trkpt lat="45.842259" lon="6.725946">
        <ele>1090.532</ele>
        <time>2018-07-13T13:42:13Z</time>
      </trkpt>
      <trkpt lat="45.842210" lon="6.725939">
        <ele>1089.311</ele>
        <time>2018-07-13T13:42:20Z</time>
      </trkpt>
      <trkpt lat="45.842166" lon="6.725912">
        <ele>1089.956</ele>
        <time>2018-07-13T13:42:27Z</time>
      </trkpt>
      <trkpt lat="45.842118" lon="6.725891">
        <ele>1090.955</ele>
        <time>2018-07-13T13:42:35Z</time>
      </trkpt>
      <trkpt lat="45.842072" lon="6.725866">
        <ele>1092.959</ele>
        <time>2018-07-13T13:42:41Z</time>
      </trkpt>
      <trkpt lat="45.842032" lon="6.725834">
        <ele>1093.503</ele>
        <time>2018-07-13T13:42:46Z</time>
      </trkpt>
      <trkpt lat="45.841984" lon="6.725823">
        <ele>1091.923</ele>
        <time>2018-07-13T13:42:50Z</time>
      </trkpt>
      <trkpt lat="45.841928" lon="6.725838">
        <ele>1092.308</ele>
        <time>2018-07-13T13:42:55Z</time>
      </trkpt>
      <trkpt lat="45.841870" lon="6.725835">
        <ele>1092.997</ele>
        <time>2018-07-13T13:42:59Z</time>
      </trkpt>
      <trkpt lat="45.841825" lon="6.725799">
        <ele>1093.420</ele>
        <time>2018-07-13T13:43:03Z</time>
      </trkpt>
      <trkpt lat="45.841789" lon="6.725752">
        <ele>1093.959</ele>
        <time>2018-07-13T13:43:09Z</time>
      </trkpt>
      <trkpt lat="45.841758" lon="6.725697">
        <ele>1096.768</ele>
        <time>2018-07-13T13:43:16Z</time>
      </trkpt>
      <trkpt lat="45.841679" lon="6.725661">
        <ele>1096.828</ele>
        <time>2018-07-13T13:44:11Z</time>
      </trkpt>
      <trkpt lat="45.841634" lon="6.725672">
        <ele>1097.917</ele>
        <time>2018-07-13T13:44:34Z</time>
      </trkpt>
      <trkpt lat="45.841591" lon="6.725634">
        <ele>1098.942</ele>
        <time>2018-07-13T13:44:39Z</time>
      </trkpt>
      <trkpt lat="45.841532" lon="6.725619">
        <ele>1097.661</ele>
        <time>2018-07-13T13:44:47Z</time>
      </trkpt>
      <trkpt lat="45.841483" lon="6.725611">
        <ele>1100.119</ele>
        <time>2018-07-13T13:44:52Z</time>
      </trkpt>
      <trkpt lat="45.841431" lon="6.725616">
        <ele>1098.409</ele>
        <time>2018-07-13T13:44:57Z</time>
      </trkpt>
      <trkpt lat="45.841383" lon="6.725621">
        <ele>1099.019</ele>
        <time>2018-07-13T13:45:07Z</time>
      </trkpt>
      <trkpt lat="45.841334" lon="6.725612">
        <ele>1098.608</ele>
        <time>2018-07-13T13:45:11Z</time>
      </trkpt>
      <trkpt lat="45.841285" lon="6.725607">
        <ele>1098.523</ele>
        <time>2018-07-13T13:45:14Z</time>
      </trkpt>
      <trkpt lat="45.841197" lon="6.725626">
        <ele>1100.486</ele>
        <time>2018-07-13T13:45:30Z</time>
      </trkpt>
      <trkpt lat="45.841101" lon="6.725617">
        <ele>1101.525</ele>
        <time>2018-07-13T13:45:36Z</time>
      </trkpt>
      <trkpt lat="45.841041" lon="6.725618">
        <ele>1101.884</ele>
        <time>2018-07-13T13:45:39Z</time>
      </trkpt>
      <trkpt lat="45.840994" lon="6.725619">
        <ele>1099.944</ele>
        <time>2018-07-13T13:45:41Z</time>
      </trkpt>
      <trkpt lat="45.840936" lon="6.725620">
        <ele>1099.753</ele>
        <time>2018-07-13T13:45:44Z</time>
      </trkpt>
      <trkpt lat="45.840875" lon="6.725617">
        <ele>1099.488</ele>
        <time>2018-07-13T13:45:48Z</time>
      </trkpt>
      <trkpt lat="45.840823" lon="6.725607">
        <ele>1101.177</ele>
        <time>2018-07-13T13:45:52Z</time>
      </trkpt>
      <trkpt lat="45.840773" lon="6.725589">
        <ele>1101.316</ele>
        <time>2018-07-13T13:45:57Z</time>
      </trkpt>
      <trkpt lat="45.840728" lon="6.725573">
        <ele>1101.976</ele>
        <time>2018-07-13T13:46:00Z</time>
      </trkpt>
      <trkpt lat="45.840680" lon="6.725556">
        <ele>1100.813</ele>
        <time>2018-07-13T13:46:04Z</time>
      </trkpt>
      <trkpt lat="45.840627" lon="6.725530">
        <ele>1100.808</ele>
        <time>2018-07-13T13:46:08Z</time>
      </trkpt>
      <trkpt lat="45.840588" lon="6.725496">
        <ele>1102.973</ele>
        <time>2018-07-13T13:46:16Z</time>
      </trkpt>
      <trkpt lat="45.840547" lon="6.725456">
        <ele>1102.886</ele>
        <time>2018-07-13T13:46:23Z</time>
      </trkpt>
      <trkpt lat="45.840502" lon="6.725432">
        <ele>1103.385</ele>
        <time>2018-07-13T13:46:27Z</time>
      </trkpt>
      <trkpt lat="45.840453" lon="6.725399">
        <ele>1105.464</ele>
        <time>2018-07-13T13:46:33Z</time>
      </trkpt>
      <trkpt lat="45.840407" lon="6.725388">
        <ele>1106.084</ele>
        <time>2018-07-13T13:46:38Z</time>
      </trkpt>
      <trkpt lat="45.840353" lon="6.725355">
        <ele>1107.023</ele>
        <time>2018-07-13T13:46:45Z</time>
      </trkpt>
      <trkpt lat="45.840308" lon="6.725337">
        <ele>1107.498</ele>
        <time>2018-07-13T13:46:51Z</time>
      </trkpt>
      <trkpt lat="45.840268" lon="6.725300">
        <ele>1107.627</ele>
        <time>2018-07-13T13:46:55Z</time>
      </trkpt>
      <trkpt lat="45.840229" lon="6.725244">
        <ele>1107.253</ele>
        <time>2018-07-13T13:46:59Z</time>
      </trkpt>
      <trkpt lat="45.840196" lon="6.725175">
        <ele>1106.104</ele>
        <time>2018-07-13T13:47:03Z</time>
      </trkpt>
      <trkpt lat="45.840123" lon="6.725145">
        <ele>1105.514</ele>
        <time>2018-07-13T13:47:09Z</time>
      </trkpt>
      <trkpt lat="45.840071" lon="6.725131">
        <ele>1106.508</ele>
        <time>2018-07-13T13:47:13Z</time>
      </trkpt>
      <trkpt lat="45.840022" lon="6.725101">
        <ele>1104.837</ele>
        <time>2018-07-13T13:47:22Z</time>
      </trkpt>
      <trkpt lat="45.839967" lon="6.725104">
        <ele>1105.050</ele>
        <time>2018-07-13T13:47:26Z</time>
      </trkpt>
      <trkpt lat="45.839922" lon="6.725091">
        <ele>1105.839</ele>
        <time>2018-07-13T13:47:30Z</time>
      </trkpt>
      <trkpt lat="45.839869" lon="6.725088">
        <ele>1106.818</ele>
        <time>2018-07-13T13:47:34Z</time>
      </trkpt>
      <trkpt lat="45.839818" lon="6.725082">
        <ele>1106.278</ele>
        <time>2018-07-13T13:47:38Z</time>
      </trkpt>
      <trkpt lat="45.839772" lon="6.725072">
        <ele>1104.417</ele>
        <time>2018-07-13T13:47:42Z</time>
      </trkpt>
      <trkpt lat="45.839726" lon="6.725065">
        <ele>1104.582</ele>
        <time>2018-07-13T13:47:46Z</time>
      </trkpt>
      <trkpt lat="45.839669" lon="6.725064">
        <ele>1105.911</ele>
        <time>2018-07-13T13:47:51Z</time>
      </trkpt>
      <trkpt lat="45.839619" lon="6.725053">
        <ele>1105.919</ele>
        <time>2018-07-13T13:48:05Z</time>
      </trkpt>
      <trkpt lat="45.839569" lon="6.725077">
        <ele>1105.809</ele>
        <time>2018-07-13T13:48:12Z</time>
      </trkpt>
      <trkpt lat="45.839527" lon="6.725114">
        <ele>1106.819</ele>
        <time>2018-07-13T13:48:17Z</time>
      </trkpt>
      <trkpt lat="45.839484" lon="6.725157">
        <ele>1106.808</ele>
        <time>2018-07-13T13:48:22Z</time>
      </trkpt>
      <trkpt lat="45.839445" lon="6.725195">
        <ele>1107.133</ele>
        <time>2018-07-13T13:48:26Z</time>
      </trkpt>
      <trkpt lat="45.839404" lon="6.725229">
        <ele>1107.446</ele>
        <time>2018-07-13T13:48:30Z</time>
      </trkpt>
      <trkpt lat="45.839358" lon="6.725260">
        <ele>1107.995</ele>
        <time>2018-07-13T13:48:34Z</time>
      </trkpt>
      <trkpt lat="45.839312" lon="6.725280">
        <ele>1107.854</ele>
        <time>2018-07-13T13:48:38Z</time>
      </trkpt>
      <trkpt lat="45.839260" lon="6.725290">
        <ele>1106.364</ele>
        <time>2018-07-13T13:48:43Z</time>
      </trkpt>
      <trkpt lat="45.839205" lon="6.725280">
        <ele>1108.313</ele>
        <time>2018-07-13T13:48:48Z</time>
      </trkpt>
      <trkpt lat="45.839149" lon="6.725274">
        <ele>1108.078</ele>
        <time>2018-07-13T13:48:53Z</time>
      </trkpt>
      <trkpt lat="45.839097" lon="6.725250">
        <ele>1108.537</ele>
        <time>2018-07-13T13:48:58Z</time>
      </trkpt>
      <trkpt lat="45.839057" lon="6.725209">
        <ele>1107.793</ele>
        <time>2018-07-13T13:49:03Z</time>
      </trkpt>
      <trkpt lat="45.839034" lon="6.725143">
        <ele>1108.365</ele>
        <time>2018-07-13T13:49:09Z</time>
      </trkpt>
      <trkpt lat="45.839031" lon="6.725070">
        <ele>1111.421</ele>
        <time>2018-07-13T13:49:15Z</time>
      </trkpt>
      <trkpt lat="45.839027" lon="6.724993">
        <ele>1111.508</ele>
        <time>2018-07-13T13:49:21Z</time>
      </trkpt>
      <trkpt lat="45.839027" lon="6.724920">
        <ele>1111.891</ele>
        <time>2018-07-13T13:49:27Z</time>
      </trkpt>
      <trkpt lat="45.839015" lon="6.724847">
        <ele>1111.114</ele>
        <time>2018-07-13T13:49:32Z</time>
      </trkpt>
      <trkpt lat="45.838997" lon="6.724774">
        <ele>1110.043</ele>
        <time>2018-07-13T13:49:45Z</time>
      </trkpt>
      <trkpt lat="45.838983" lon="6.724706">
        <ele>1109.762</ele>
        <time>2018-07-13T13:49:50Z</time>
      </trkpt>
      <trkpt lat="45.838963" lon="6.724633">
        <ele>1110.372</ele>
        <time>2018-07-13T13:49:55Z</time>
      </trkpt>
      <trkpt lat="45.838948" lon="6.724565">
        <ele>1109.531</ele>
        <time>2018-07-13T13:50:00Z</time>
      </trkpt>
      <trkpt lat="45.838930" lon="6.724505">
        <ele>1106.676</ele>
        <time>2018-07-13T13:50:04Z</time>
      </trkpt>
      <trkpt lat="45.838915" lon="6.724444">
        <ele>1105.845</ele>
        <time>2018-07-13T13:50:08Z</time>
      </trkpt>
      <trkpt lat="45.838894" lon="6.724371">
        <ele>1104.948</ele>
        <time>2018-07-13T13:50:13Z</time>
      </trkpt>
      <trkpt lat="45.838868" lon="6.724310">
        <ele>1103.761</ele>
        <time>2018-07-13T13:50:19Z</time>
      </trkpt>
      <trkpt lat="45.838821" lon="6.724333">
        <ele>1104.917</ele>
        <time>2018-07-13T13:50:25Z</time>
      </trkpt>
      <trkpt lat="45.838800" lon="6.724392">
        <ele>1104.108</ele>
        <time>2018-07-13T13:50:30Z</time>
      </trkpt>
      <trkpt lat="45.838790" lon="6.724458">
        <ele>1102.246</ele>
        <time>2018-07-13T13:50:35Z</time>
      </trkpt>
      <trkpt lat="45.838781" lon="6.724538">
        <ele>1102.869</ele>
        <time>2018-07-13T13:50:40Z</time>
      </trkpt>
      <trkpt lat="45.838769" lon="6.724603">
        <ele>1100.988</ele>
        <time>2018-07-13T13:50:44Z</time>
      </trkpt>
      <trkpt lat="45.838748" lon="6.724665">
        <ele>1100.957</ele>
        <time>2018-07-13T13:50:48Z</time>
      </trkpt>
      <trkpt lat="45.838725" lon="6.724726">
        <ele>1101.037</ele>
        <time>2018-07-13T13:50:52Z</time>
      </trkpt>
      <trkpt lat="45.838704" lon="6.724794">
        <ele>1100.656</ele>
        <time>2018-07-13T13:50:56Z</time>
      </trkpt>
      <trkpt lat="45.838681" lon="6.724852">
        <ele>1102.251</ele>
        <time>2018-07-13T13:51:00Z</time>
      </trkpt>
      <trkpt lat="45.838654" lon="6.724918">
        <ele>1101.680</ele>
        <time>2018-07-13T13:51:05Z</time>
      </trkpt>
      <trkpt lat="45.838626" lon="6.724979">
        <ele>1100.642</ele>
        <time>2018-07-13T13:51:10Z</time>
      </trkpt>
      <trkpt lat="45.838595" lon="6.725030">
        <ele>1101.222</ele>
        <time>2018-07-13T13:51:15Z</time>
      </trkpt>
      <trkpt lat="45.838558" lon="6.725075">
        <ele>1102.414</ele>
        <time>2018-07-13T13:51:19Z</time>
      </trkpt>
      <trkpt lat="45.838513" lon="6.725122">
        <ele>1101.308</ele>
        <time>2018-07-13T13:51:24Z</time>
      </trkpt>
      <trkpt lat="45.838465" lon="6.725161">
        <ele>1102.016</ele>
        <time>2018-07-13T13:51:29Z</time>
      </trkpt>
      <trkpt lat="45.838411" lon="6.725170">
        <ele>1103.039</ele>
        <time>2018-07-13T13:51:34Z</time>
      </trkpt>
      <trkpt lat="45.838357" lon="6.725167">
        <ele>1102.368</ele>
        <time>2018-07-13T13:51:39Z</time>
      </trkpt>
      <trkpt lat="45.838310" lon="6.725175">
        <ele>1099.957</ele>
        <time>2018-07-13T13:51:43Z</time>
      </trkpt>
      <trkpt lat="45.838261" lon="6.725187">
        <ele>1100.967</ele>
        <time>2018-07-13T13:51:48Z</time>
      </trkpt>
      <trkpt lat="45.838207" lon="6.725198">
        <ele>1100.296</ele>
        <time>2018-07-13T13:51:53Z</time>
      </trkpt>
      <trkpt lat="45.838152" lon="6.725216">
        <ele>1099.271</ele>
        <time>2018-07-13T13:51:58Z</time>
      </trkpt>
      <trkpt lat="45.838109" lon="6.725241">
        <ele>1099.030</ele>
        <time>2018-07-13T13:52:02Z</time>
      </trkpt>
      <trkpt lat="45.838062" lon="6.725265">
        <ele>1098.088</ele>
        <time>2018-07-13T13:52:07Z</time>
      </trkpt>
      <trkpt lat="45.838013" lon="6.725244">
        <ele>1098.224</ele>
        <time>2018-07-13T13:52:12Z</time>
      </trkpt>
      <trkpt lat="45.837974" lon="6.725196">
        <ele>1098.026</ele>
        <time>2018-07-13T13:52:16Z</time>
      </trkpt>
      <trkpt lat="45.837938" lon="6.725149">
        <ele>1097.608</ele>
        <time>2018-07-13T13:52:20Z</time>
      </trkpt>
      <trkpt lat="45.837908" lon="6.725098">
        <ele>1096.790</ele>
        <time>2018-07-13T13:52:24Z</time>
      </trkpt>
      <trkpt lat="45.837886" lon="6.725037">
        <ele>1096.183</ele>
        <time>2018-07-13T13:52:28Z</time>
      </trkpt>
      <trkpt lat="45.837859" lon="6.724966">
        <ele>1097.872</ele>
        <time>2018-07-13T13:52:33Z</time>
      </trkpt>
      <trkpt lat="45.837826" lon="6.724906">
        <ele>1096.151</ele>
        <time>2018-07-13T13:52:37Z</time>
      </trkpt>
      <trkpt lat="45.837786" lon="6.724853">
        <ele>1097.261</ele>
        <time>2018-07-13T13:52:41Z</time>
      </trkpt>
      <trkpt lat="45.837786" lon="6.724853">
        <ele>1097.260</ele>
        <time>2018-07-13T13:52:41Z</time>
      </trkpt>
      <trkpt lat="45.837754" lon="6.724785">
        <ele>1107.065</ele>
        <time>2018-07-13T13:53:25Z</time>
      </trkpt>
      <trkpt lat="45.837704" lon="6.724769">
        <ele>1104.694</ele>
        <time>2018-07-13T13:53:34Z</time>
      </trkpt>
      <trkpt lat="45.837650" lon="6.724753">
        <ele>1103.241</ele>
        <time>2018-07-13T13:53:40Z</time>
      </trkpt>
      <trkpt lat="45.837601" lon="6.724752">
        <ele>1086.881</ele>
        <time>2018-07-13T13:53:44Z</time>
      </trkpt>
      <trkpt lat="45.837556" lon="6.724763">
        <ele>1071.509</ele>
        <time>2018-07-13T13:53:48Z</time>
      </trkpt>
      <trkpt lat="45.837508" lon="6.724760">
        <ele>1055.308</ele>
        <time>2018-07-13T13:53:52Z</time>
      </trkpt>
      <trkpt lat="45.837464" lon="6.724779">
        <ele>1054.726</ele>
        <time>2018-07-13T13:53:56Z</time>
      </trkpt>
      <trkpt lat="45.837411" lon="6.724802">
        <ele>1054.919</ele>
        <time>2018-07-13T13:54:01Z</time>
      </trkpt>
      <trkpt lat="45.837360" lon="6.724840">
        <ele>1055.458</ele>
        <time>2018-07-13T13:54:06Z</time>
      </trkpt>
      <trkpt lat="45.837305" lon="6.724868">
        <ele>1056.147</ele>
        <time>2018-07-13T13:54:11Z</time>
      </trkpt>
      <trkpt lat="45.837262" lon="6.724913">
        <ele>1056.577</ele>
        <time>2018-07-13T13:54:15Z</time>
      </trkpt>
      <trkpt lat="45.837219" lon="6.724941">
        <ele>1057.256</ele>
        <time>2018-07-13T13:54:19Z</time>
      </trkpt>
      <trkpt lat="45.837176" lon="6.724962">
        <ele>1057.631</ele>
        <time>2018-07-13T13:54:23Z</time>
      </trkpt>
      <trkpt lat="45.837127" lon="6.724982">
        <ele>1058.240</ele>
        <time>2018-07-13T13:54:27Z</time>
      </trkpt>
      <trkpt lat="45.837077" lon="6.724993">
        <ele>1058.633</ele>
        <time>2018-07-13T13:54:31Z</time>
      </trkpt>
      <trkpt lat="45.837032" lon="6.725004">
        <ele>1058.823</ele>
        <time>2018-07-13T13:54:35Z</time>
      </trkpt>
      <trkpt lat="45.836986" lon="6.725021">
        <ele>1059.315</ele>
        <time>2018-07-13T13:54:39Z</time>
      </trkpt>
      <trkpt lat="45.836931" lon="6.725039">
        <ele>1059.608</ele>
        <time>2018-07-13T13:54:44Z</time>
      </trkpt>
      <trkpt lat="45.836878" lon="6.725057">
        <ele>1059.845</ele>
        <time>2018-07-13T13:54:49Z</time>
      </trkpt>
      <trkpt lat="45.836830" lon="6.725057">
        <ele>1059.558</ele>
        <time>2018-07-13T13:54:55Z</time>
      </trkpt>
      <trkpt lat="45.836775" lon="6.725055">
        <ele>1059.397</ele>
        <time>2018-07-13T13:55:01Z</time>
      </trkpt>
      <trkpt lat="45.836727" lon="6.725076">
        <ele>1059.696</ele>
        <time>2018-07-13T13:55:05Z</time>
      </trkpt>
      <trkpt lat="45.836673" lon="6.725099">
        <ele>1059.896</ele>
        <time>2018-07-13T13:55:10Z</time>
      </trkpt>
      <trkpt lat="45.836618" lon="6.725118">
        <ele>1060.725</ele>
        <time>2018-07-13T13:55:14Z</time>
      </trkpt>
      <trkpt lat="45.836569" lon="6.725130">
        <ele>1061.260</ele>
        <time>2018-07-13T13:55:18Z</time>
      </trkpt>
      <trkpt lat="45.836519" lon="6.725139">
        <ele>1061.149</ele>
        <time>2018-07-13T13:55:22Z</time>
      </trkpt>
      <trkpt lat="45.836470" lon="6.725150">
        <ele>1061.582</ele>
        <time>2018-07-13T13:55:26Z</time>
      </trkpt>
      <trkpt lat="45.836421" lon="6.725160">
        <ele>1061.743</ele>
        <time>2018-07-13T13:55:30Z</time>
      </trkpt>
      <trkpt lat="45.836369" lon="6.725173">
        <ele>1061.417</ele>
        <time>2018-07-13T13:55:35Z</time>
      </trkpt>
      <trkpt lat="45.836313" lon="6.725194">
        <ele>1061.208</ele>
        <time>2018-07-13T13:55:40Z</time>
      </trkpt>
      <trkpt lat="45.836267" lon="6.725209">
        <ele>1061.160</ele>
        <time>2018-07-13T13:55:44Z</time>
      </trkpt>
      <trkpt lat="45.836221" lon="6.725223">
        <ele>1061.043</ele>
        <time>2018-07-13T13:55:48Z</time>
      </trkpt>
      <trkpt lat="45.836169" lon="6.725235">
        <ele>1060.642</ele>
        <time>2018-07-13T13:55:53Z</time>
      </trkpt>
      <trkpt lat="45.836116" lon="6.725258">
        <ele>1060.781</ele>
        <time>2018-07-13T13:55:58Z</time>
      </trkpt>
      <trkpt lat="45.836071" lon="6.725277">
        <ele>1060.861</ele>
        <time>2018-07-13T13:56:02Z</time>
      </trkpt>
      <trkpt lat="45.836023" lon="6.725294">
        <ele>1060.460</ele>
        <time>2018-07-13T13:56:06Z</time>
      </trkpt>
      <trkpt lat="45.835976" lon="6.725307">
        <ele>1060.625</ele>
        <time>2018-07-13T13:56:10Z</time>
      </trkpt>
      <trkpt lat="45.835920" lon="6.725317">
        <ele>1060.384</ele>
        <time>2018-07-13T13:56:15Z</time>
      </trkpt>
      <trkpt lat="45.835872" lon="6.725337">
        <ele>1060.134</ele>
        <time>2018-07-13T13:56:19Z</time>
      </trkpt>
      <trkpt lat="45.835819" lon="6.725358">
        <ele>1060.455</ele>
        <time>2018-07-13T13:56:23Z</time>
      </trkpt>
      <trkpt lat="45.835768" lon="6.725381">
        <ele>1060.610</ele>
        <time>2018-07-13T13:56:27Z</time>
      </trkpt>
      <trkpt lat="45.835718" lon="6.725396">
        <ele>1060.708</ele>
        <time>2018-07-13T13:56:31Z</time>
      </trkpt>
      <trkpt lat="45.835670" lon="6.725424">
        <ele>1060.865</ele>
        <time>2018-07-13T13:56:35Z</time>
      </trkpt>
      <trkpt lat="45.835626" lon="6.725444">
        <ele>1060.848</ele>
        <time>2018-07-13T13:56:39Z</time>
      </trkpt>
      <trkpt lat="45.835581" lon="6.725467">
        <ele>1060.827</ele>
        <time>2018-07-13T13:56:43Z</time>
      </trkpt>
      <trkpt lat="45.835532" lon="6.725488">
        <ele>1060.886</ele>
        <time>2018-07-13T13:56:47Z</time>
      </trkpt>
      <trkpt lat="45.835482" lon="6.725505">
        <ele>1061.256</ele>
        <time>2018-07-13T13:56:51Z</time>
      </trkpt>
      <trkpt lat="45.835432" lon="6.725530">
        <ele>1061.015</ele>
        <time>2018-07-13T13:56:56Z</time>
      </trkpt>
      <trkpt lat="45.835384" lon="6.725547">
        <ele>1060.970</ele>
        <time>2018-07-13T13:57:00Z</time>
      </trkpt>
      <trkpt lat="45.835331" lon="6.725565">
        <ele>1060.819</ele>
        <time>2018-07-13T13:57:05Z</time>
      </trkpt>
      <trkpt lat="45.835279" lon="6.725579">
        <ele>1060.484</ele>
        <time>2018-07-13T13:57:09Z</time>
      </trkpt>
      <trkpt lat="45.835232" lon="6.725589">
        <ele>1059.307</ele>
        <time>2018-07-13T13:57:13Z</time>
      </trkpt>
      <trkpt lat="45.835175" lon="6.725592">
        <ele>1059.117</ele>
        <time>2018-07-13T13:57:18Z</time>
      </trkpt>
      <trkpt lat="45.835123" lon="6.725599">
        <ele>1058.208</ele>
        <time>2018-07-13T13:57:24Z</time>
      </trkpt>
      <trkpt lat="45.835075" lon="6.725602">
        <ele>1057.210</ele>
        <time>2018-07-13T13:57:29Z</time>
      </trkpt>
      <trkpt lat="45.835029" lon="6.725591">
        <ele>1056.263</ele>
        <time>2018-07-13T13:57:34Z</time>
      </trkpt>
      <trkpt lat="45.834970" lon="6.725593">
        <ele>1054.432</ele>
        <time>2018-07-13T13:57:39Z</time>
      </trkpt>
      <trkpt lat="45.834922" lon="6.725589">
        <ele>1052.571</ele>
        <time>2018-07-13T13:57:43Z</time>
      </trkpt>
      <trkpt lat="45.834865" lon="6.725574">
        <ele>1051.451</ele>
        <time>2018-07-13T13:57:47Z</time>
      </trkpt>
      <trkpt lat="45.834811" lon="6.725563">
        <ele>1050.750</ele>
        <time>2018-07-13T13:57:51Z</time>
      </trkpt>
      <trkpt lat="45.834763" lon="6.725553">
        <ele>1051.515</ele>
        <time>2018-07-13T13:57:54Z</time>
      </trkpt>
      <trkpt lat="45.834710" lon="6.725537">
        <ele>1052.074</ele>
        <time>2018-07-13T13:57:58Z</time>
      </trkpt>
      <trkpt lat="45.834666" lon="6.725507">
        <ele>1049.976</ele>
        <time>2018-07-13T13:58:04Z</time>
      </trkpt>
      <trkpt lat="45.834613" lon="6.725486">
        <ele>1049.090</ele>
        <time>2018-07-13T13:58:09Z</time>
      </trkpt>
      <trkpt lat="45.834561" lon="6.725460">
        <ele>1048.519</ele>
        <time>2018-07-13T13:58:14Z</time>
      </trkpt>
      <trkpt lat="45.834507" lon="6.725446">
        <ele>1048.608</ele>
        <time>2018-07-13T13:58:19Z</time>
      </trkpt>
      <trkpt lat="45.834458" lon="6.725450">
        <ele>1049.539</ele>
        <time>2018-07-13T13:58:22Z</time>
      </trkpt>
      <trkpt lat="45.834412" lon="6.725465">
        <ele>1050.452</ele>
        <time>2018-07-13T13:58:25Z</time>
      </trkpt>
      <trkpt lat="45.834360" lon="6.725490">
        <ele>1051.321</ele>
        <time>2018-07-13T13:58:29Z</time>
      </trkpt>
      <trkpt lat="45.834309" lon="6.725511">
        <ele>1051.920</ele>
        <time>2018-07-13T13:58:33Z</time>
      </trkpt>
      <trkpt lat="45.834257" lon="6.725539">
        <ele>1052.670</ele>
        <time>2018-07-13T13:58:37Z</time>
      </trkpt>
      <trkpt lat="45.834213" lon="6.725562">
        <ele>1052.649</ele>
        <time>2018-07-13T13:58:41Z</time>
      </trkpt>
      <trkpt lat="45.834163" lon="6.725575">
        <ele>1052.254</ele>
        <time>2018-07-13T13:58:45Z</time>
      </trkpt>
      <trkpt lat="45.834110" lon="6.725593">
        <ele>1051.633</ele>
        <time>2018-07-13T13:58:49Z</time>
      </trkpt>
      <trkpt lat="45.834060" lon="6.725607">
        <ele>1051.642</ele>
        <time>2018-07-13T13:58:53Z</time>
      </trkpt>
      <trkpt lat="45.834011" lon="6.725624">
        <ele>1051.622</ele>
        <time>2018-07-13T13:58:58Z</time>
      </trkpt>
      <trkpt lat="45.833963" lon="6.725645">
        <ele>1052.014</ele>
        <time>2018-07-13T13:59:02Z</time>
      </trkpt>
      <trkpt lat="45.833919" lon="6.725683">
        <ele>1051.808</ele>
        <time>2018-07-13T13:59:06Z</time>
      </trkpt>
      <trkpt lat="45.833880" lon="6.725731">
        <ele>1052.156</ele>
        <time>2018-07-13T13:59:10Z</time>
      </trkpt>
      <trkpt lat="45.833841" lon="6.725776">
        <ele>1052.379</ele>
        <time>2018-07-13T13:59:14Z</time>
      </trkpt>
      <trkpt lat="45.833796" lon="6.725805">
        <ele>1052.488</ele>
        <time>2018-07-13T13:59:18Z</time>
      </trkpt>
      <trkpt lat="45.833748" lon="6.725821">
        <ele>1052.157</ele>
        <time>2018-07-13T13:59:22Z</time>
      </trkpt>
      <trkpt lat="45.833699" lon="6.725847">
        <ele>1051.987</ele>
        <time>2018-07-13T13:59:27Z</time>
      </trkpt>
      <trkpt lat="45.833643" lon="6.725872">
        <ele>1052.246</ele>
        <time>2018-07-13T13:59:31Z</time>
      </trkpt>
      <trkpt lat="45.833594" lon="6.725892">
        <ele>1052.461</ele>
        <time>2018-07-13T13:59:35Z</time>
      </trkpt>
      <trkpt lat="45.833542" lon="6.725909">
        <ele>1052.970</ele>
        <time>2018-07-13T13:59:39Z</time>
      </trkpt>
      <trkpt lat="45.833492" lon="6.725925">
        <ele>1052.838</ele>
        <time>2018-07-13T13:59:43Z</time>
      </trkpt>
      <trkpt lat="45.833442" lon="6.725934">
        <ele>1052.370</ele>
        <time>2018-07-13T13:59:47Z</time>
      </trkpt>
      <trkpt lat="45.833392" lon="6.725958">
        <ele>1051.617</ele>
        <time>2018-07-13T13:59:51Z</time>
      </trkpt>
      <trkpt lat="45.833343" lon="6.725989">
        <ele>1050.408</ele>
        <time>2018-07-13T13:59:56Z</time>
      </trkpt>
      <trkpt lat="45.833299" lon="6.726013">
        <ele>1050.995</ele>
        <time>2018-07-13T14:00:00Z</time>
      </trkpt>
      <trkpt lat="45.833250" lon="6.726054">
        <ele>1053.298</ele>
        <time>2018-07-13T14:00:04Z</time>
      </trkpt>
      <trkpt lat="45.833208" lon="6.726102">
        <ele>1054.237</ele>
        <time>2018-07-13T14:00:08Z</time>
      </trkpt>
      <trkpt lat="45.833176" lon="6.726154">
        <ele>1054.836</ele>
        <time>2018-07-13T14:00:12Z</time>
      </trkpt>
      <trkpt lat="45.833148" lon="6.726212">
        <ele>1053.936</ele>
        <time>2018-07-13T14:00:16Z</time>
      </trkpt>
      <trkpt lat="45.833124" lon="6.726270">
        <ele>1053.825</ele>
        <time>2018-07-13T14:00:20Z</time>
      </trkpt>
      <trkpt lat="45.833093" lon="6.726330">
        <ele>1053.740</ele>
        <time>2018-07-13T14:00:24Z</time>
      </trkpt>
      <trkpt lat="45.833068" lon="6.726398">
        <ele>1054.549</ele>
        <time>2018-07-13T14:00:28Z</time>
      </trkpt>
      <trkpt lat="45.833059" lon="6.726467">
        <ele>1055.487</ele>
        <time>2018-07-13T14:00:32Z</time>
      </trkpt>
      <trkpt lat="45.833058" lon="6.726533">
        <ele>1056.342</ele>
        <time>2018-07-13T14:00:36Z</time>
      </trkpt>
      <trkpt lat="45.833055" lon="6.726602">
        <ele>1057.226</ele>
        <time>2018-07-13T14:00:40Z</time>
      </trkpt>
      <trkpt lat="45.833050" lon="6.726675">
        <ele>1057.808</ele>
        <time>2018-07-13T14:00:44Z</time>
      </trkpt>
      <trkpt lat="45.833027" lon="6.726734">
        <ele>1058.130</ele>
        <time>2018-07-13T14:00:48Z</time>
      </trkpt>
      <trkpt lat="45.833020" lon="6.726810">
        <ele>1058.723</ele>
        <time>2018-07-13T14:00:53Z</time>
      </trkpt>
      <trkpt lat="45.833023" lon="6.726878">
        <ele>1059.962</ele>
        <time>2018-07-13T14:00:57Z</time>
      </trkpt>
      <trkpt lat="45.833034" lon="6.726947">
        <ele>1061.091</ele>
        <time>2018-07-13T14:01:01Z</time>
      </trkpt>
      <trkpt lat="45.833045" lon="6.727011">
        <ele>1061.791</ele>
        <time>2018-07-13T14:01:05Z</time>
      </trkpt>
      <trkpt lat="45.833039" lon="6.727087">
        <ele>1062.560</ele>
        <time>2018-07-13T14:01:10Z</time>
      </trkpt>
      <trkpt lat="45.833025" lon="6.727154">
        <ele>1064.655</ele>
        <time>2018-07-13T14:01:34Z</time>
      </trkpt>
      <trkpt lat="45.833009" lon="6.727217">
        <ele>1064.284</ele>
        <time>2018-07-13T14:01:43Z</time>
      </trkpt>
      <trkpt lat="45.832977" lon="6.727267">
        <ele>1065.677</ele>
        <time>2018-07-13T14:01:54Z</time>
      </trkpt>
      <trkpt lat="45.832925" lon="6.727264">
        <ele>1066.061</ele>
        <time>2018-07-13T14:01:59Z</time>
      </trkpt>
      <trkpt lat="45.832872" lon="6.727263">
        <ele>1067.927</ele>
        <time>2018-07-13T14:02:16Z</time>
      </trkpt>
      <trkpt lat="45.832827" lon="6.727279">
        <ele>1068.208</ele>
        <time>2018-07-13T14:02:19Z</time>
      </trkpt>
      <trkpt lat="45.832774" lon="6.727305">
        <ele>1068.469</ele>
        <time>2018-07-13T14:02:23Z</time>
      </trkpt>
      <trkpt lat="45.832756" lon="6.727365">
        <ele>1070.532</ele>
        <time>2018-07-13T14:02:35Z</time>
      </trkpt>
      <trkpt lat="45.832744" lon="6.727429">
        <ele>1072.231</ele>
        <time>2018-07-13T14:02:44Z</time>
      </trkpt>
      <trkpt lat="45.832724" lon="6.727491">
        <ele>1073.650</ele>
        <time>2018-07-13T14:02:54Z</time>
      </trkpt>
      <trkpt lat="45.832679" lon="6.727526">
        <ele>1075.280</ele>
        <time>2018-07-13T14:03:04Z</time>
      </trkpt>
      <trkpt lat="45.832620" lon="6.727544">
        <ele>1075.449</ele>
        <time>2018-07-13T14:03:29Z</time>
      </trkpt>
      <trkpt lat="45.832593" lon="6.727600">
        <ele>1077.964</ele>
        <time>2018-07-13T14:03:45Z</time>
      </trkpt>
      <trkpt lat="45.832565" lon="6.727657">
        <ele>1080.253</ele>
        <time>2018-07-13T14:04:01Z</time>
      </trkpt>
      <trkpt lat="45.832481" lon="6.727653">
        <ele>1080.411</ele>
        <time>2018-07-13T14:04:07Z</time>
      </trkpt>
      <trkpt lat="45.832413" lon="6.727700">
        <ele>1082.121</ele>
        <time>2018-07-13T14:04:53Z</time>
      </trkpt>
      <trkpt lat="45.832371" lon="6.727729">
        <ele>1085.103</ele>
        <time>2018-07-13T14:05:07Z</time>
      </trkpt>
      <trkpt lat="45.832313" lon="6.727736">
        <ele>1083.308</ele>
        <time>2018-07-13T14:05:13Z</time>
      </trkpt>
      <trkpt lat="45.832264" lon="6.727733">
        <ele>1082.283</ele>
        <time>2018-07-13T14:05:18Z</time>
      </trkpt>
      <trkpt lat="45.832217" lon="6.727754">
        <ele>1080.816</ele>
        <time>2018-07-13T14:05:23Z</time>
      </trkpt>
      <trkpt lat="45.832169" lon="6.727766">
        <ele>1079.955</ele>
        <time>2018-07-13T14:05:29Z</time>
      </trkpt>
      <trkpt lat="45.832124" lon="6.727787">
        <ele>1079.034</ele>
        <time>2018-07-13T14:05:43Z</time>
      </trkpt>
      <trkpt lat="45.832085" lon="6.727824">
        <ele>1079.264</ele>
        <time>2018-07-13T14:05:49Z</time>
      </trkpt>
      <trkpt lat="45.832038" lon="6.727844">
        <ele>1081.733</ele>
        <time>2018-07-13T14:06:07Z</time>
      </trkpt>
      <trkpt lat="45.831987" lon="6.727882">
        <ele>1084.038</ele>
        <time>2018-07-13T14:06:14Z</time>
      </trkpt>
      <trkpt lat="45.831945" lon="6.727932">
        <ele>1086.697</ele>
        <time>2018-07-13T14:06:21Z</time>
      </trkpt>
      <trkpt lat="45.831910" lon="6.727978">
        <ele>1089.466</ele>
        <time>2018-07-13T14:06:27Z</time>
      </trkpt>
      <trkpt lat="45.831865" lon="6.727996">
        <ele>1090.729</ele>
        <time>2018-07-13T14:06:32Z</time>
      </trkpt>
      <trkpt lat="45.831812" lon="6.727974">
        <ele>1091.121</ele>
        <time>2018-07-13T14:06:37Z</time>
      </trkpt>
      <trkpt lat="45.831764" lon="6.727973">
        <ele>1091.308</ele>
        <time>2018-07-13T14:06:42Z</time>
      </trkpt>
      <trkpt lat="45.831716" lon="6.727955">
        <ele>1091.488</ele>
        <time>2018-07-13T14:06:47Z</time>
      </trkpt>
      <trkpt lat="45.831667" lon="6.727941">
        <ele>1091.551</ele>
        <time>2018-07-13T14:06:52Z</time>
      </trkpt>
      <trkpt lat="45.831622" lon="6.727919">
        <ele>1090.750</ele>
        <time>2018-07-13T14:06:57Z</time>
      </trkpt>
      <trkpt lat="45.831571" lon="6.727889">
        <ele>1090.699</ele>
        <time>2018-07-13T14:07:04Z</time>
      </trkpt>
      <trkpt lat="45.831529" lon="6.727847">
        <ele>1089.029</ele>
        <time>2018-07-13T14:07:10Z</time>
      </trkpt>
      <trkpt lat="45.831488" lon="6.727803">
        <ele>1088.438</ele>
        <time>2018-07-13T14:07:16Z</time>
      </trkpt>
      <trkpt lat="45.831446" lon="6.727766">
        <ele>1089.393</ele>
        <time>2018-07-13T14:07:20Z</time>
      </trkpt>
      <trkpt lat="45.831415" lon="6.727707">
        <ele>1090.262</ele>
        <time>2018-07-13T14:07:26Z</time>
      </trkpt>
      <trkpt lat="45.831421" lon="6.727624">
        <ele>1090.394</ele>
        <time>2018-07-13T14:07:31Z</time>
      </trkpt>
      <trkpt lat="45.831413" lon="6.727545">
        <ele>1091.257</ele>
        <time>2018-07-13T14:07:36Z</time>
      </trkpt>
      <trkpt lat="45.831368" lon="6.727559">
        <ele>1092.922</ele>
        <time>2018-07-13T14:07:45Z</time>
      </trkpt>
      <trkpt lat="45.831323" lon="6.727603">
        <ele>1094.708</ele>
        <time>2018-07-13T14:07:52Z</time>
      </trkpt>
      <trkpt lat="45.831275" lon="6.727601">
        <ele>1094.691</ele>
        <time>2018-07-13T14:07:58Z</time>
      </trkpt>
      <trkpt lat="45.831228" lon="6.727565">
        <ele>1093.344</ele>
        <time>2018-07-13T14:08:06Z</time>
      </trkpt>
      <trkpt lat="45.831179" lon="6.727549">
        <ele>1092.933</ele>
        <time>2018-07-13T14:08:12Z</time>
      </trkpt>
      <trkpt lat="45.831133" lon="6.727534">
        <ele>1094.392</ele>
        <time>2018-07-13T14:08:17Z</time>
      </trkpt>
      <trkpt lat="45.831086" lon="6.727520">
        <ele>1095.152</ele>
        <time>2018-07-13T14:08:23Z</time>
      </trkpt>
      <trkpt lat="45.831037" lon="6.727497">
        <ele>1093.231</ele>
        <time>2018-07-13T14:08:30Z</time>
      </trkpt>
      <trkpt lat="45.830987" lon="6.727516">
        <ele>1093.386</ele>
        <time>2018-07-13T14:08:35Z</time>
      </trkpt>
      <trkpt lat="45.830941" lon="6.727506">
        <ele>1091.715</ele>
        <time>2018-07-13T14:08:41Z</time>
      </trkpt>
      <trkpt lat="45.830889" lon="6.727501">
        <ele>1090.873</ele>
        <time>2018-07-13T14:08:47Z</time>
      </trkpt>
      <trkpt lat="45.830836" lon="6.727494">
        <ele>1090.685</ele>
        <time>2018-07-13T14:08:52Z</time>
      </trkpt>
      <trkpt lat="45.830786" lon="6.727487">
        <ele>1091.313</ele>
        <time>2018-07-13T14:08:56Z</time>
      </trkpt>
      <trkpt lat="45.830737" lon="6.727480">
        <ele>1091.308</ele>
        <time>2018-07-13T14:09:01Z</time>
      </trkpt>
      <trkpt lat="45.830685" lon="6.727485">
        <ele>1091.749</ele>
        <time>2018-07-13T14:09:07Z</time>
      </trkpt>
      <trkpt lat="45.830637" lon="6.727476">
        <ele>1091.962</ele>
        <time>2018-07-13T14:09:13Z</time>
      </trkpt>
      <trkpt lat="45.830596" lon="6.727448">
        <ele>1092.051</ele>
        <time>2018-07-13T14:09:19Z</time>
      </trkpt>
      <trkpt lat="45.830540" lon="6.727445">
        <ele>1094.960</ele>
        <time>2018-07-13T14:09:25Z</time>
      </trkpt>
      <trkpt lat="45.830490" lon="6.727442">
        <ele>1096.620</ele>
        <time>2018-07-13T14:09:29Z</time>
      </trkpt>
      <trkpt lat="45.830441" lon="6.727441">
        <ele>1096.819</ele>
        <time>2018-07-13T14:09:35Z</time>
      </trkpt>
      <trkpt lat="45.830393" lon="6.727427">
        <ele>1096.944</ele>
        <time>2018-07-13T14:09:41Z</time>
      </trkpt>
      <trkpt lat="45.830348" lon="6.727407">
        <ele>1095.423</ele>
        <time>2018-07-13T14:09:49Z</time>
      </trkpt>
      <trkpt lat="45.830299" lon="6.727396">
        <ele>1094.531</ele>
        <time>2018-07-13T14:09:55Z</time>
      </trkpt>
      <trkpt lat="45.830255" lon="6.727384">
        <ele>1092.861</ele>
        <time>2018-07-13T14:10:02Z</time>
      </trkpt>
      <trkpt lat="45.830205" lon="6.727383">
        <ele>1094.207</ele>
        <time>2018-07-13T14:10:07Z</time>
      </trkpt>
      <trkpt lat="45.830158" lon="6.727375">
        <ele>1094.208</ele>
        <time>2018-07-13T14:10:12Z</time>
      </trkpt>
      <trkpt lat="45.830111" lon="6.727354">
        <ele>1093.865</ele>
        <time>2018-07-13T14:10:19Z</time>
      </trkpt>
      <trkpt lat="45.830059" lon="6.727348">
        <ele>1095.298</ele>
        <time>2018-07-13T14:10:24Z</time>
      </trkpt>
      <trkpt lat="45.830011" lon="6.727343">
        <ele>1095.297</ele>
        <time>2018-07-13T14:10:30Z</time>
      </trkpt>
      <trkpt lat="45.829965" lon="6.727334">
        <ele>1096.456</ele>
        <time>2018-07-13T14:10:35Z</time>
      </trkpt>
      <trkpt lat="45.829919" lon="6.727327">
        <ele>1097.586</ele>
        <time>2018-07-13T14:10:40Z</time>
      </trkpt>
      <trkpt lat="45.829872" lon="6.727321">
        <ele>1097.455</ele>
        <time>2018-07-13T14:10:48Z</time>
      </trkpt>
      <trkpt lat="45.829822" lon="6.727333">
        <ele>1097.790</ele>
        <time>2018-07-13T14:10:58Z</time>
      </trkpt>
      <trkpt lat="45.829774" lon="6.727321">
        <ele>1101.739</ele>
        <time>2018-07-13T14:11:01Z</time>
      </trkpt>
      <trkpt lat="45.829721" lon="6.727314">
        <ele>1105.566</ele>
        <time>2018-07-13T14:11:04Z</time>
      </trkpt>
      <trkpt lat="45.829675" lon="6.727299">
        <ele>1108.229</ele>
        <time>2018-07-13T14:11:07Z</time>
      </trkpt>
      <trkpt lat="45.829619" lon="6.727276">
        <ele>1111.821</ele>
        <time>2018-07-13T14:11:12Z</time>
      </trkpt>
      <trkpt lat="45.829569" lon="6.727260">
        <ele>1114.408</ele>
        <time>2018-07-13T14:11:17Z</time>
      </trkpt>
      <trkpt lat="45.829524" lon="6.727246">
        <ele>1115.968</ele>
        <time>2018-07-13T14:11:23Z</time>
      </trkpt>
      <trkpt lat="45.829482" lon="6.727220">
        <ele>1116.411</ele>
        <time>2018-07-13T14:11:30Z</time>
      </trkpt>
      <trkpt lat="45.829433" lon="6.727195">
        <ele>1114.350</ele>
        <time>2018-07-13T14:11:41Z</time>
      </trkpt>
      <trkpt lat="45.829385" lon="6.727231">
        <ele>1112.669</ele>
        <time>2018-07-13T14:11:51Z</time>
      </trkpt>
      <trkpt lat="45.829351" lon="6.727274">
        <ele>1110.819</ele>
        <time>2018-07-13T14:11:57Z</time>
      </trkpt>
      <trkpt lat="45.829300" lon="6.727301">
        <ele>1109.768</ele>
        <time>2018-07-13T14:12:03Z</time>
      </trkpt>
      <trkpt lat="45.829247" lon="6.727301">
        <ele>1109.173</ele>
        <time>2018-07-13T14:12:09Z</time>
      </trkpt>
      <trkpt lat="45.829195" lon="6.727300">
        <ele>1107.132</ele>
        <time>2018-07-13T14:12:17Z</time>
      </trkpt>
      <trkpt lat="45.829148" lon="6.727297">
        <ele>1105.537</ele>
        <time>2018-07-13T14:12:24Z</time>
      </trkpt>
      <trkpt lat="45.829097" lon="6.727290">
        <ele>1106.949</ele>
        <time>2018-07-13T14:12:28Z</time>
      </trkpt>
      <trkpt lat="45.829045" lon="6.727286">
        <ele>1108.213</ele>
        <time>2018-07-13T14:12:32Z</time>
      </trkpt>
      <trkpt lat="45.828998" lon="6.727272">
        <ele>1109.008</ele>
        <time>2018-07-13T14:12:37Z</time>
      </trkpt>
      <trkpt lat="45.828944" lon="6.727258">
        <ele>1109.565</ele>
        <time>2018-07-13T14:12:43Z</time>
      </trkpt>
      <trkpt lat="45.828895" lon="6.727246">
        <ele>1109.088</ele>
        <time>2018-07-13T14:12:49Z</time>
      </trkpt>
      <trkpt lat="45.828854" lon="6.727214">
        <ele>1108.327</ele>
        <time>2018-07-13T14:12:54Z</time>
      </trkpt>
      <trkpt lat="45.828803" lon="6.727189">
        <ele>1109.196</ele>
        <time>2018-07-13T14:12:59Z</time>
      </trkpt>
      <trkpt lat="45.828749" lon="6.727182">
        <ele>1110.026</ele>
        <time>2018-07-13T14:13:04Z</time>
      </trkpt>
      <trkpt lat="45.828701" lon="6.727175">
        <ele>1111.335</ele>
        <time>2018-07-13T14:13:08Z</time>
      </trkpt>
      <trkpt lat="45.828657" lon="6.727155">
        <ele>1112.130</ele>
        <time>2018-07-13T14:13:13Z</time>
      </trkpt>
      <trkpt lat="45.828609" lon="6.727137">
        <ele>1113.069</ele>
        <time>2018-07-13T14:13:18Z</time>
      </trkpt>
      <trkpt lat="45.828564" lon="6.727122">
        <ele>1113.961</ele>
        <time>2018-07-13T14:13:22Z</time>
      </trkpt>
      <trkpt lat="45.828512" lon="6.727103">
        <ele>1116.121</ele>
        <time>2018-07-13T14:13:27Z</time>
      </trkpt>
      <trkpt lat="45.828460" lon="6.727092">
        <ele>1117.013</ele>
        <time>2018-07-13T14:13:32Z</time>
      </trkpt>
      <trkpt lat="45.828408" lon="6.727074">
        <ele>1117.108</ele>
        <time>2018-07-13T14:13:37Z</time>
      </trkpt>
      <trkpt lat="45.828355" lon="6.727062">
        <ele>1117.228</ele>
        <time>2018-07-13T14:13:43Z</time>
      </trkpt>
      <trkpt lat="45.828304" lon="6.727026">
        <ele>1118.031</ele>
        <time>2018-07-13T14:13:48Z</time>
      </trkpt>
      <trkpt lat="45.828262" lon="6.726990">
        <ele>1118.990</ele>
        <time>2018-07-13T14:13:52Z</time>
      </trkpt>
      <trkpt lat="45.828222" lon="6.726959">
        <ele>1119.819</ele>
        <time>2018-07-13T14:13:56Z</time>
      </trkpt>
      <trkpt lat="45.828177" lon="6.726922">
        <ele>1120.459</ele>
        <time>2018-07-13T14:14:01Z</time>
      </trkpt>
      <trkpt lat="45.828134" lon="6.726882">
        <ele>1120.778</ele>
        <time>2018-07-13T14:14:06Z</time>
      </trkpt>
      <trkpt lat="45.828086" lon="6.726842">
        <ele>1121.763</ele>
        <time>2018-07-13T14:14:12Z</time>
      </trkpt>
      <trkpt lat="45.828046" lon="6.726801">
        <ele>1123.182</ele>
        <time>2018-07-13T14:14:17Z</time>
      </trkpt>
      <trkpt lat="45.828003" lon="6.726764">
        <ele>1123.595</ele>
        <time>2018-07-13T14:14:22Z</time>
      </trkpt>
      <trkpt lat="45.827962" lon="6.726720">
        <ele>1124.249</ele>
        <time>2018-07-13T14:14:27Z</time>
      </trkpt>
      <trkpt lat="45.827926" lon="6.726678">
        <ele>1124.623</ele>
        <time>2018-07-13T14:14:32Z</time>
      </trkpt>
      <trkpt lat="45.827874" lon="6.726612">
        <ele>1126.008</ele>
        <time>2018-07-13T14:14:59Z</time>
      </trkpt>
      <trkpt lat="45.827842" lon="6.726558">
        <ele>1127.331</ele>
        <time>2018-07-13T14:15:08Z</time>
      </trkpt>
      <trkpt lat="45.827803" lon="6.726517">
        <ele>1126.964</ele>
        <time>2018-07-13T14:15:14Z</time>
      </trkpt>
      <trkpt lat="45.827767" lon="6.726463">
        <ele>1127.043</ele>
        <time>2018-07-13T14:15:19Z</time>
      </trkpt>
      <trkpt lat="45.827727" lon="6.726418">
        <ele>1127.992</ele>
        <time>2018-07-13T14:15:25Z</time>
      </trkpt>
      <trkpt lat="45.827684" lon="6.726388">
        <ele>1126.852</ele>
        <time>2018-07-13T14:15:31Z</time>
      </trkpt>
      <trkpt lat="45.827640" lon="6.726357">
        <ele>1124.651</ele>
        <time>2018-07-13T14:15:37Z</time>
      </trkpt>
      <trkpt lat="45.827595" lon="6.726316">
        <ele>1123.336</ele>
        <time>2018-07-13T14:15:42Z</time>
      </trkpt>
      <trkpt lat="45.827556" lon="6.726277">
        <ele>1121.335</ele>
        <time>2018-07-13T14:15:46Z</time>
      </trkpt>
      <trkpt lat="45.827519" lon="6.726218">
        <ele>1120.159</ele>
        <time>2018-07-13T14:15:51Z</time>
      </trkpt>
      <trkpt lat="45.827481" lon="6.726174">
        <ele>1119.003</ele>
        <time>2018-07-13T14:15:56Z</time>
      </trkpt>
      <trkpt lat="45.827446" lon="6.726119">
        <ele>1118.323</ele>
        <time>2018-07-13T14:16:02Z</time>
      </trkpt>
      <trkpt lat="45.827412" lon="6.726069">
        <ele>1117.108</ele>
        <time>2018-07-13T14:16:08Z</time>
      </trkpt>
      <trkpt lat="45.827372" lon="6.726032">
        <ele>1116.097</ele>
        <time>2018-07-13T14:16:12Z</time>
      </trkpt>
      <trkpt lat="45.827327" lon="6.725989">
        <ele>1115.380</ele>
        <time>2018-07-13T14:16:16Z</time>
      </trkpt>
      <trkpt lat="45.827293" lon="6.725933">
        <ele>1114.569</ele>
        <time>2018-07-13T14:16:22Z</time>
      </trkpt>
      <trkpt lat="45.827255" lon="6.725891">
        <ele>1112.428</ele>
        <time>2018-07-13T14:16:27Z</time>
      </trkpt>
      <trkpt lat="45.827229" lon="6.725834">
        <ele>1110.868</ele>
        <time>2018-07-13T14:16:35Z</time>
      </trkpt>
      <trkpt lat="45.827167" lon="6.725797">
        <ele>1111.047</ele>
        <time>2018-07-13T14:16:42Z</time>
      </trkpt>
      <trkpt lat="45.827120" lon="6.725784">
        <ele>1111.572</ele>
        <time>2018-07-13T14:16:48Z</time>
      </trkpt>
      <trkpt lat="45.827072" lon="6.725751">
        <ele>1111.471</ele>
        <time>2018-07-13T14:16:53Z</time>
      </trkpt>
      <trkpt lat="45.827015" lon="6.725762">
        <ele>1110.996</ele>
        <time>2018-07-13T14:16:58Z</time>
      </trkpt>
      <trkpt lat="45.826971" lon="6.725781">
        <ele>1110.231</ele>
        <time>2018-07-13T14:17:02Z</time>
      </trkpt>
      <trkpt lat="45.826927" lon="6.725802">
        <ele>1109.424</ele>
        <time>2018-07-13T14:17:09Z</time>
      </trkpt>
      <trkpt lat="45.826863" lon="6.725811">
        <ele>1107.708</ele>
        <time>2018-07-13T14:17:17Z</time>
      </trkpt>
      <trkpt lat="45.826815" lon="6.725785">
        <ele>1107.931</ele>
        <time>2018-07-13T14:17:22Z</time>
      </trkpt>
      <trkpt lat="45.826791" lon="6.725708">
        <ele>1107.214</ele>
        <time>2018-07-13T14:18:29Z</time>
      </trkpt>
      <trkpt lat="45.826747" lon="6.725736">
        <ele>1107.613</ele>
        <time>2018-07-13T14:18:37Z</time>
      </trkpt>
      <trkpt lat="45.826701" lon="6.725780">
        <ele>1107.492</ele>
        <time>2018-07-13T14:18:42Z</time>
      </trkpt>
      <trkpt lat="45.826656" lon="6.725807">
        <ele>1106.582</ele>
        <time>2018-07-13T14:18:46Z</time>
      </trkpt>
      <trkpt lat="45.826610" lon="6.725843">
        <ele>1104.861</ele>
        <time>2018-07-13T14:18:51Z</time>
      </trkpt>
      <trkpt lat="45.826558" lon="6.725865">
        <ele>1101.076</ele>
        <time>2018-07-13T14:18:58Z</time>
      </trkpt>
      <trkpt lat="45.826512" lon="6.725871">
        <ele>1099.165</ele>
        <time>2018-07-13T14:19:03Z</time>
      </trkpt>
      <trkpt lat="45.826461" lon="6.725853">
        <ele>1098.848</ele>
        <time>2018-07-13T14:19:07Z</time>
      </trkpt>
      <trkpt lat="45.826416" lon="6.725843">
        <ele>1097.461</ele>
        <time>2018-07-13T14:19:11Z</time>
      </trkpt>
      <trkpt lat="45.826371" lon="6.725823">
        <ele>1097.017</ele>
        <time>2018-07-13T14:19:15Z</time>
      </trkpt>
      <trkpt lat="45.826322" lon="6.725809">
        <ele>1095.908</ele>
        <time>2018-07-13T14:19:20Z</time>
      </trkpt>
      <trkpt lat="45.826288" lon="6.725741">
        <ele>1094.586</ele>
        <time>2018-07-13T14:19:31Z</time>
      </trkpt>
      <trkpt lat="45.826253" lon="6.725784">
        <ele>1092.029</ele>
        <time>2018-07-13T14:19:56Z</time>
      </trkpt>
      <trkpt lat="45.826201" lon="6.725785">
        <ele>1090.598</ele>
        <time>2018-07-13T14:20:01Z</time>
      </trkpt>
      <trkpt lat="45.826159" lon="6.725817">
        <ele>1090.437</ele>
        <time>2018-07-13T14:20:08Z</time>
      </trkpt>
      <trkpt lat="45.826124" lon="6.725859">
        <ele>1089.987</ele>
        <time>2018-07-13T14:20:14Z</time>
      </trkpt>
      <trkpt lat="45.826096" lon="6.725913">
        <ele>1089.626</ele>
        <time>2018-07-13T14:20:19Z</time>
      </trkpt>
      <trkpt lat="45.826058" lon="6.725956">
        <ele>1091.891</ele>
        <time>2018-07-13T14:20:24Z</time>
      </trkpt>
      <trkpt lat="45.826021" lon="6.726010">
        <ele>1093.920</ele>
        <time>2018-07-13T14:20:33Z</time>
      </trkpt>
      <trkpt lat="45.825979" lon="6.726054">
        <ele>1095.255</ele>
        <time>2018-07-13T14:20:39Z</time>
      </trkpt>
      <trkpt lat="45.825934" lon="6.726081">
        <ele>1096.807</ele>
        <time>2018-07-13T14:20:47Z</time>
      </trkpt>
      <trkpt lat="45.825887" lon="6.726078">
        <ele>1096.117</ele>
        <time>2018-07-13T14:20:52Z</time>
      </trkpt>
      <trkpt lat="45.825839" lon="6.726082">
        <ele>1094.908</ele>
        <time>2018-07-13T14:20:58Z</time>
      </trkpt>
      <trkpt lat="45.825790" lon="6.726111">
        <ele>1092.667</ele>
        <time>2018-07-13T14:21:04Z</time>
      </trkpt>
      <trkpt lat="45.825741" lon="6.726136">
        <ele>1091.660</ele>
        <time>2018-07-13T14:21:09Z</time>
      </trkpt>
      <trkpt lat="45.825692" lon="6.726143">
        <ele>1090.659</ele>
        <time>2018-07-13T14:21:15Z</time>
      </trkpt>
      <trkpt lat="45.825637" lon="6.726157">
        <ele>1090.818</ele>
        <time>2018-07-13T14:21:21Z</time>
      </trkpt>
      <trkpt lat="45.825589" lon="6.726152">
        <ele>1091.388</ele>
        <time>2018-07-13T14:21:26Z</time>
      </trkpt>
      <trkpt lat="45.825538" lon="6.726161">
        <ele>1090.477</ele>
        <time>2018-07-13T14:21:32Z</time>
      </trkpt>
      <trkpt lat="45.825483" lon="6.726169">
        <ele>1091.142</ele>
        <time>2018-07-13T14:21:37Z</time>
      </trkpt>
      <trkpt lat="45.825438" lon="6.726156">
        <ele>1092.351</ele>
        <time>2018-07-13T14:21:40Z</time>
      </trkpt>
      <trkpt lat="45.825390" lon="6.726144">
        <ele>1091.888</ele>
        <time>2018-07-13T14:21:44Z</time>
      </trkpt>
      <trkpt lat="45.825343" lon="6.726157">
        <ele>1090.724</ele>
        <time>2018-07-13T14:21:52Z</time>
      </trkpt>
      <trkpt lat="45.825295" lon="6.726182">
        <ele>1090.826</ele>
        <time>2018-07-13T14:21:59Z</time>
      </trkpt>
      <trkpt lat="45.825249" lon="6.726205">
        <ele>1092.908</ele>
        <time>2018-07-13T14:22:03Z</time>
      </trkpt>
      <trkpt lat="45.825203" lon="6.726218">
        <ele>1094.670</ele>
        <time>2018-07-13T14:22:07Z</time>
      </trkpt>
      <trkpt lat="45.825152" lon="6.726227">
        <ele>1096.093</ele>
        <time>2018-07-13T14:22:11Z</time>
      </trkpt>
      <trkpt lat="45.825099" lon="6.726243">
        <ele>1097.642</ele>
        <time>2018-07-13T14:22:16Z</time>
      </trkpt>
      <trkpt lat="45.825049" lon="6.726256">
        <ele>1100.611</ele>
        <time>2018-07-13T14:22:20Z</time>
      </trkpt>
      <trkpt lat="45.824997" lon="6.726241">
        <ele>1104.461</ele>
        <time>2018-07-13T14:22:24Z</time>
      </trkpt>
      <trkpt lat="45.824952" lon="6.726227">
        <ele>1107.550</ele>
        <time>2018-07-13T14:22:35Z</time>
      </trkpt>
      <trkpt lat="45.824901" lon="6.726206">
        <ele>1109.395</ele>
        <time>2018-07-13T14:22:40Z</time>
      </trkpt>
      <trkpt lat="45.824850" lon="6.726188">
        <ele>1109.694</ele>
        <time>2018-07-13T14:22:44Z</time>
      </trkpt>
      <trkpt lat="45.824802" lon="6.726187">
        <ele>1109.451</ele>
        <time>2018-07-13T14:22:47Z</time>
      </trkpt>
      <trkpt lat="45.824745" lon="6.726186">
        <ele>1109.301</ele>
        <time>2018-07-13T14:22:52Z</time>
      </trkpt>
      <trkpt lat="45.824703" lon="6.726160">
        <ele>1108.811</ele>
        <time>2018-07-13T14:22:57Z</time>
      </trkpt>
      <trkpt lat="45.824656" lon="6.726134">
        <ele>1109.308</ele>
        <time>2018-07-13T14:23:02Z</time>
      </trkpt>
      <trkpt lat="45.824615" lon="6.726102">
        <ele>1108.847</ele>
        <time>2018-07-13T14:23:07Z</time>
      </trkpt>
      <trkpt lat="45.824568" lon="6.726103">
        <ele>1107.730</ele>
        <time>2018-07-13T14:23:15Z</time>
      </trkpt>
      <trkpt lat="45.824509" lon="6.726059">
        <ele>1106.689</ele>
        <time>2018-07-13T14:23:23Z</time>
      </trkpt>
      <trkpt lat="45.824446" lon="6.726053">
        <ele>1107.278</ele>
        <time>2018-07-13T14:23:31Z</time>
      </trkpt>
      <trkpt lat="45.824396" lon="6.726027">
        <ele>1108.368</ele>
        <time>2018-07-13T14:23:35Z</time>
      </trkpt>
      <trkpt lat="45.824348" lon="6.726009">
        <ele>1108.657</ele>
        <time>2018-07-13T14:23:38Z</time>
      </trkpt>
      <trkpt lat="45.824296" lon="6.725994">
        <ele>1108.032</ele>
        <time>2018-07-13T14:23:42Z</time>
      </trkpt>
      <trkpt lat="45.824245" lon="6.725966">
        <ele>1107.281</ele>
        <time>2018-07-13T14:23:46Z</time>
      </trkpt>
      <trkpt lat="45.824201" lon="6.725928">
        <ele>1106.731</ele>
        <time>2018-07-13T14:23:50Z</time>
      </trkpt>
      <trkpt lat="45.824160" lon="6.725886">
        <ele>1106.061</ele>
        <time>2018-07-13T14:23:54Z</time>
      </trkpt>
      <trkpt lat="45.824120" lon="6.725854">
        <ele>1104.807</ele>
        <time>2018-07-13T14:23:58Z</time>
      </trkpt>
      <trkpt lat="45.824075" lon="6.725827">
        <ele>1103.308</ele>
        <time>2018-07-13T14:24:03Z</time>
      </trkpt>
      <trkpt lat="45.824035" lon="6.725797">
        <ele>1103.235</ele>
        <time>2018-07-13T14:24:09Z</time>
      </trkpt>
      <trkpt lat="45.823982" lon="6.725779">
        <ele>1104.398</ele>
        <time>2018-07-13T14:24:15Z</time>
      </trkpt>
      <trkpt lat="45.823929" lon="6.725756">
        <ele>1105.497</ele>
        <time>2018-07-13T14:24:20Z</time>
      </trkpt>
      <trkpt lat="45.823875" lon="6.725770">
        <ele>1106.856</ele>
        <time>2018-07-13T14:24:25Z</time>
      </trkpt>
      <trkpt lat="45.823830" lon="6.725753">
        <ele>1106.996</ele>
        <time>2018-07-13T14:24:32Z</time>
      </trkpt>
      <trkpt lat="45.823784" lon="6.725735">
        <ele>1107.775</ele>
        <time>2018-07-13T14:24:58Z</time>
      </trkpt>
      <trkpt lat="45.823736" lon="6.725734">
        <ele>1108.250</ele>
        <time>2018-07-13T14:25:02Z</time>
      </trkpt>
      <trkpt lat="45.823691" lon="6.725744">
        <ele>1108.599</ele>
        <time>2018-07-13T14:25:07Z</time>
      </trkpt>
      <trkpt lat="45.823645" lon="6.725743">
        <ele>1108.716</ele>
        <time>2018-07-13T14:25:11Z</time>
      </trkpt>
      <trkpt lat="45.823597" lon="6.725736">
        <ele>1108.876</ele>
        <time>2018-07-13T14:25:16Z</time>
      </trkpt>
      <trkpt lat="45.823544" lon="6.725725">
        <ele>1109.313</ele>
        <time>2018-07-13T14:25:21Z</time>
      </trkpt>
      <trkpt lat="45.823493" lon="6.725728">
        <ele>1110.008</ele>
        <time>2018-07-13T14:25:25Z</time>
      </trkpt>
      <trkpt lat="45.823441" lon="6.725723">
        <ele>1110.073</ele>
        <time>2018-07-13T14:25:29Z</time>
      </trkpt>
      <trkpt lat="45.823389" lon="6.725722">
        <ele>1109.286</ele>
        <time>2018-07-13T14:25:34Z</time>
      </trkpt>
      <trkpt lat="45.823334" lon="6.725721">
        <ele>1109.565</ele>
        <time>2018-07-13T14:25:39Z</time>
      </trkpt>
      <trkpt lat="45.823285" lon="6.725698">
        <ele>1110.134</ele>
        <time>2018-07-13T14:25:43Z</time>
      </trkpt>
      <trkpt lat="45.823238" lon="6.725669">
        <ele>1110.514</ele>
        <time>2018-07-13T14:25:47Z</time>
      </trkpt>
      <trkpt lat="45.823196" lon="6.725640">
        <ele>1109.963</ele>
        <time>2018-07-13T14:25:51Z</time>
      </trkpt>
      <trkpt lat="45.823147" lon="6.725614">
        <ele>1109.188</ele>
        <time>2018-07-13T14:25:56Z</time>
      </trkpt>
      <trkpt lat="45.823104" lon="6.725587">
        <ele>1108.267</ele>
        <time>2018-07-13T14:26:00Z</time>
      </trkpt>
      <trkpt lat="45.823051" lon="6.725561">
        <ele>1108.126</ele>
        <time>2018-07-13T14:26:04Z</time>
      </trkpt>
      <trkpt lat="45.823002" lon="6.725549">
        <ele>1108.447</ele>
        <time>2018-07-13T14:26:08Z</time>
      </trkpt>
      <trkpt lat="45.822953" lon="6.725533">
        <ele>1109.411</ele>
        <time>2018-07-13T14:26:12Z</time>
      </trkpt>
      <trkpt lat="45.822900" lon="6.725508">
        <ele>1110.808</ele>
        <time>2018-07-13T14:26:16Z</time>
      </trkpt>
      <trkpt lat="45.822847" lon="6.725481">
        <ele>1111.274</ele>
        <time>2018-07-13T14:26:21Z</time>
      </trkpt>
      <trkpt lat="45.822805" lon="6.725448">
        <ele>1111.517</ele>
        <time>2018-07-13T14:26:25Z</time>
      </trkpt>
      <trkpt lat="45.822758" lon="6.725423">
        <ele>1111.396</ele>
        <time>2018-07-13T14:26:30Z</time>
      </trkpt>
      <trkpt lat="45.822713" lon="6.725407">
        <ele>1111.245</ele>
        <time>2018-07-13T14:26:34Z</time>
      </trkpt>
      <trkpt lat="45.822662" lon="6.725379">
        <ele>1110.785</ele>
        <time>2018-07-13T14:26:39Z</time>
      </trkpt>
      <trkpt lat="45.822619" lon="6.725351">
        <ele>1110.854</ele>
        <time>2018-07-13T14:26:43Z</time>
      </trkpt>
      <trkpt lat="45.822568" lon="6.725351">
        <ele>1110.949</ele>
        <time>2018-07-13T14:26:48Z</time>
      </trkpt>
      <trkpt lat="45.822519" lon="6.725380">
        <ele>1110.918</ele>
        <time>2018-07-13T14:26:53Z</time>
      </trkpt>
      <trkpt lat="45.822470" lon="6.725401">
        <ele>1110.984</ele>
        <time>2018-07-13T14:26:58Z</time>
      </trkpt>
      <trkpt lat="45.822428" lon="6.725430">
        <ele>1108.507</ele>
        <time>2018-07-13T14:27:05Z</time>
      </trkpt>
      <trkpt lat="45.822383" lon="6.725457">
        <ele>1108.317</ele>
        <time>2018-07-13T14:27:10Z</time>
      </trkpt>
      <trkpt lat="45.822334" lon="6.725474">
        <ele>1108.208</ele>
        <time>2018-07-13T14:27:24Z</time>
      </trkpt>
      <trkpt lat="45.822283" lon="6.725495">
        <ele>1108.990</ele>
        <time>2018-07-13T14:27:29Z</time>
      </trkpt>
      <trkpt lat="45.822239" lon="6.725512">
        <ele>1107.373</ele>
        <time>2018-07-13T14:27:34Z</time>
      </trkpt>
      <trkpt lat="45.822188" lon="6.725529">
        <ele>1108.072</ele>
        <time>2018-07-13T14:27:41Z</time>
      </trkpt>
      <trkpt lat="45.822132" lon="6.725517">
        <ele>1109.681</ele>
        <time>2018-07-13T14:27:45Z</time>
      </trkpt>
      <trkpt lat="45.822082" lon="6.725521">
        <ele>1111.451</ele>
        <time>2018-07-13T14:27:49Z</time>
      </trkpt>
      <trkpt lat="45.822030" lon="6.725549">
        <ele>1112.990</ele>
        <time>2018-07-13T14:27:53Z</time>
      </trkpt>
      <trkpt lat="45.821982" lon="6.725572">
        <ele>1113.475</ele>
        <time>2018-07-13T14:27:57Z</time>
      </trkpt>
      <trkpt lat="45.821934" lon="6.725587">
        <ele>1115.354</ele>
        <time>2018-07-13T14:28:01Z</time>
      </trkpt>
      <trkpt lat="45.821878" lon="6.725601">
        <ele>1117.679</ele>
        <time>2018-07-13T14:28:05Z</time>
      </trkpt>
      <trkpt lat="45.821827" lon="6.725635">
        <ele>1119.005</ele>
        <time>2018-07-13T14:28:10Z</time>
      </trkpt>
      <trkpt lat="45.821781" lon="6.725664">
        <ele>1120.225</ele>
        <time>2018-07-13T14:28:14Z</time>
      </trkpt>
      <trkpt lat="45.821728" lon="6.725695">
        <ele>1120.908</ele>
        <time>2018-07-13T14:28:19Z</time>
      </trkpt>
      <trkpt lat="45.821687" lon="6.725729">
        <ele>1120.159</ele>
        <time>2018-07-13T14:28:24Z</time>
      </trkpt>
      <trkpt lat="45.821651" lon="6.725768">
        <ele>1117.272</ele>
        <time>2018-07-13T14:28:28Z</time>
      </trkpt>
      <trkpt lat="45.821600" lon="6.725806">
        <ele>1115.911</ele>
        <time>2018-07-13T14:28:34Z</time>
      </trkpt>
      <trkpt lat="45.821550" lon="6.725827">
        <ele>1115.560</ele>
        <time>2018-07-13T14:28:39Z</time>
      </trkpt>
      <trkpt lat="45.821500" lon="6.725846">
        <ele>1115.390</ele>
        <time>2018-07-13T14:28:43Z</time>
      </trkpt>
      <trkpt lat="45.821454" lon="6.725865">
        <ele>1115.249</ele>
        <time>2018-07-13T14:28:46Z</time>
      </trkpt>
      <trkpt lat="45.821404" lon="6.725873">
        <ele>1114.724</ele>
        <time>2018-07-13T14:28:50Z</time>
      </trkpt>
      <trkpt lat="45.821356" lon="6.725881">
        <ele>1114.483</ele>
        <time>2018-07-13T14:28:54Z</time>
      </trkpt>
      <trkpt lat="45.821310" lon="6.725893">
        <ele>1114.298</ele>
        <time>2018-07-13T14:28:58Z</time>
      </trkpt>
      <trkpt lat="45.821259" lon="6.725915">
        <ele>1113.715</ele>
        <time>2018-07-13T14:29:02Z</time>
      </trkpt>
      <trkpt lat="45.821214" lon="6.725917">
        <ele>1113.026</ele>
        <time>2018-07-13T14:29:06Z</time>
      </trkpt>
      <trkpt lat="45.821153" lon="6.725932">
        <ele>1114.208</ele>
        <time>2018-07-13T14:29:10Z</time>
      </trkpt>
      <trkpt lat="45.821106" lon="6.725954">
        <ele>1115.721</ele>
        <time>2018-07-13T14:29:13Z</time>
      </trkpt>
      <trkpt lat="45.821064" lon="6.725985">
        <ele>1116.694</ele>
        <time>2018-07-13T14:29:17Z</time>
      </trkpt>
      <trkpt lat="45.821029" lon="6.726031">
        <ele>1115.583</ele>
        <time>2018-07-13T14:29:22Z</time>
      </trkpt>
      <trkpt lat="45.820992" lon="6.726069">
        <ele>1115.382</ele>
        <time>2018-07-13T14:29:26Z</time>
      </trkpt>
      <trkpt lat="45.820958" lon="6.726122">
        <ele>1115.292</ele>
        <time>2018-07-13T14:29:31Z</time>
      </trkpt>
      <trkpt lat="45.820918" lon="6.726168">
        <ele>1115.581</ele>
        <time>2018-07-13T14:29:37Z</time>
      </trkpt>
      <trkpt lat="45.820877" lon="6.726207">
        <ele>1113.776</ele>
        <time>2018-07-13T14:29:45Z</time>
      </trkpt>
      <trkpt lat="45.820830" lon="6.726242">
        <ele>1113.415</ele>
        <time>2018-07-13T14:29:50Z</time>
      </trkpt>
      <trkpt lat="45.820783" lon="6.726262">
        <ele>1112.492</ele>
        <time>2018-07-13T14:29:55Z</time>
      </trkpt>
      <trkpt lat="45.820744" lon="6.726298">
        <ele>1112.273</ele>
        <time>2018-07-13T14:30:00Z</time>
      </trkpt>
      <trkpt lat="45.820704" lon="6.726345">
        <ele>1111.320</ele>
        <time>2018-07-13T14:30:05Z</time>
      </trkpt>
      <trkpt lat="45.820662" lon="6.726398">
        <ele>1110.808</ele>
        <time>2018-07-13T14:30:10Z</time>
      </trkpt>
      <trkpt lat="45.820616" lon="6.726436">
        <ele>1110.121</ele>
        <time>2018-07-13T14:30:16Z</time>
      </trkpt>
      <trkpt lat="45.820570" lon="6.726470">
        <ele>1109.754</ele>
        <time>2018-07-13T14:30:20Z</time>
      </trkpt>
      <trkpt lat="45.820532" lon="6.726513">
        <ele>1109.853</ele>
        <time>2018-07-13T14:30:24Z</time>
      </trkpt>
      <trkpt lat="45.820488" lon="6.726560">
        <ele>1110.332</ele>
        <time>2018-07-13T14:30:29Z</time>
      </trkpt>
      <trkpt lat="45.820448" lon="6.726591">
        <ele>1110.642</ele>
        <time>2018-07-13T14:30:33Z</time>
      </trkpt>
      <trkpt lat="45.820400" lon="6.726623">
        <ele>1111.211</ele>
        <time>2018-07-13T14:30:37Z</time>
      </trkpt>
      <trkpt lat="45.820360" lon="6.726661">
        <ele>1111.586</ele>
        <time>2018-07-13T14:30:41Z</time>
      </trkpt>
      <trkpt lat="45.820316" lon="6.726695">
        <ele>1112.585</ele>
        <time>2018-07-13T14:30:45Z</time>
      </trkpt>
      <trkpt lat="45.820267" lon="6.726722">
        <ele>1113.958</ele>
        <time>2018-07-13T14:30:49Z</time>
      </trkpt>
      <trkpt lat="45.820218" lon="6.726752">
        <ele>1115.952</ele>
        <time>2018-07-13T14:30:53Z</time>
      </trkpt>
      <trkpt lat="45.820169" lon="6.726783">
        <ele>1117.917</ele>
        <time>2018-07-13T14:30:57Z</time>
      </trkpt>
      <trkpt lat="45.820119" lon="6.726805">
        <ele>1119.908</ele>
        <time>2018-07-13T14:31:01Z</time>
      </trkpt>
      <trkpt lat="45.820068" lon="6.726838">
        <ele>1120.747</ele>
        <time>2018-07-13T14:31:06Z</time>
      </trkpt>
      <trkpt lat="45.820025" lon="6.726862">
        <ele>1122.010</ele>
        <time>2018-07-13T14:31:10Z</time>
      </trkpt>
      <trkpt lat="45.819987" lon="6.726896">
        <ele>1122.879</ele>
        <time>2018-07-13T14:31:14Z</time>
      </trkpt>
      <trkpt lat="45.819943" lon="6.726923">
        <ele>1123.768</ele>
        <time>2018-07-13T14:31:18Z</time>
      </trkpt>
      <trkpt lat="45.819902" lon="6.726953">
        <ele>1123.438</ele>
        <time>2018-07-13T14:31:22Z</time>
      </trkpt>
      <trkpt lat="45.819857" lon="6.726978">
        <ele>1124.497</ele>
        <time>2018-07-13T14:31:26Z</time>
      </trkpt>
      <trkpt lat="45.819812" lon="6.727010">
        <ele>1125.082</ele>
        <time>2018-07-13T14:31:31Z</time>
      </trkpt>
      <trkpt lat="45.819767" lon="6.727028">
        <ele>1125.421</ele>
        <time>2018-07-13T14:31:36Z</time>
      </trkpt>
      <trkpt lat="45.819712" lon="6.727030">
        <ele>1126.017</ele>
        <time>2018-07-13T14:31:41Z</time>
      </trkpt>
      <trkpt lat="45.819657" lon="6.727038">
        <ele>1128.087</ele>
        <time>2018-07-13T14:31:45Z</time>
      </trkpt>
      <trkpt lat="45.819606" lon="6.727046">
        <ele>1129.215</ele>
        <time>2018-07-13T14:31:49Z</time>
      </trkpt>
      <trkpt lat="45.819554" lon="6.727060">
        <ele>1129.108</ele>
        <time>2018-07-13T14:31:54Z</time>
      </trkpt>
      <trkpt lat="45.819504" lon="6.727078">
        <ele>1129.483</ele>
        <time>2018-07-13T14:31:59Z</time>
      </trkpt>
      <trkpt lat="45.819459" lon="6.727096">
        <ele>1128.016</ele>
        <time>2018-07-13T14:32:05Z</time>
      </trkpt>
      <trkpt lat="45.819413" lon="6.727107">
        <ele>1127.255</ele>
        <time>2018-07-13T14:32:10Z</time>
      </trkpt>
      <trkpt lat="45.819367" lon="6.727110">
        <ele>1127.564</ele>
        <time>2018-07-13T14:32:15Z</time>
      </trkpt>
      <trkpt lat="45.819317" lon="6.727117">
        <ele>1128.184</ele>
        <time>2018-07-13T14:32:19Z</time>
      </trkpt>
      <trkpt lat="45.819271" lon="6.727123">
        <ele>1128.843</ele>
        <time>2018-07-13T14:32:23Z</time>
      </trkpt>
      <trkpt lat="45.819220" lon="6.727125">
        <ele>1128.048</ele>
        <time>2018-07-13T14:32:28Z</time>
      </trkpt>
      <trkpt lat="45.819172" lon="6.727135">
        <ele>1127.527</ele>
        <time>2018-07-13T14:32:32Z</time>
      </trkpt>
      <trkpt lat="45.819126" lon="6.727139">
        <ele>1127.263</ele>
        <time>2018-07-13T14:32:36Z</time>
      </trkpt>
      <trkpt lat="45.819073" lon="6.727150">
        <ele>1127.844</ele>
        <time>2018-07-13T14:32:40Z</time>
      </trkpt>
      <trkpt lat="45.819019" lon="6.727155">
        <ele>1128.618</ele>
        <time>2018-07-13T14:32:44Z</time>
      </trkpt>
      <trkpt lat="45.818964" lon="6.727159">
        <ele>1129.508</ele>
        <time>2018-07-13T14:32:48Z</time>
      </trkpt>
      <trkpt lat="45.818914" lon="6.727167">
        <ele>1130.048</ele>
        <time>2018-07-13T14:32:52Z</time>
      </trkpt>
      <trkpt lat="45.818866" lon="6.727173">
        <ele>1129.511</ele>
        <time>2018-07-13T14:32:56Z</time>
      </trkpt>
      <trkpt lat="45.818820" lon="6.727179">
        <ele>1129.280</ele>
        <time>2018-07-13T14:33:00Z</time>
      </trkpt>
      <trkpt lat="45.818771" lon="6.727190">
        <ele>1129.039</ele>
        <time>2018-07-13T14:33:04Z</time>
      </trkpt>
      <trkpt lat="45.818725" lon="6.727200">
        <ele>1128.579</ele>
        <time>2018-07-13T14:33:08Z</time>
      </trkpt>
      <trkpt lat="45.818678" lon="6.727209">
        <ele>1128.638</ele>
        <time>2018-07-13T14:33:12Z</time>
      </trkpt>
      <trkpt lat="45.818633" lon="6.727224">
        <ele>1128.363</ele>
        <time>2018-07-13T14:33:16Z</time>
      </trkpt>
      <trkpt lat="45.818587" lon="6.727237">
        <ele>1128.112</ele>
        <time>2018-07-13T14:33:20Z</time>
      </trkpt>
      <trkpt lat="45.818543" lon="6.727254">
        <ele>1127.643</ele>
        <time>2018-07-13T14:33:24Z</time>
      </trkpt>
      <trkpt lat="45.818493" lon="6.727285">
        <ele>1128.564</ele>
        <time>2018-07-13T14:33:28Z</time>
      </trkpt>
      <trkpt lat="45.818446" lon="6.727312">
        <ele>1129.010</ele>
        <time>2018-07-13T14:33:32Z</time>
      </trkpt>
      <trkpt lat="45.818398" lon="6.727319">
        <ele>1128.908</ele>
        <time>2018-07-13T14:33:37Z</time>
      </trkpt>
      <trkpt lat="45.818345" lon="6.727326">
        <ele>1129.746</ele>
        <time>2018-07-13T14:33:41Z</time>
      </trkpt>
      <trkpt lat="45.818290" lon="6.727333">
        <ele>1130.649</ele>
        <time>2018-07-13T14:33:46Z</time>
      </trkpt>
      <trkpt lat="45.818239" lon="6.727347">
        <ele>1130.718</ele>
        <time>2018-07-13T14:33:51Z</time>
      </trkpt>
      <trkpt lat="45.818184" lon="6.727362">
        <ele>1131.277</ele>
        <time>2018-07-13T14:33:56Z</time>
      </trkpt>
      <trkpt lat="45.818138" lon="6.727384">
        <ele>1131.937</ele>
        <time>2018-07-13T14:34:00Z</time>
      </trkpt>
      <trkpt lat="45.818090" lon="6.727408">
        <ele>1131.956</ele>
        <time>2018-07-13T14:34:05Z</time>
      </trkpt>
      <trkpt lat="45.818043" lon="6.727420">
        <ele>1131.161</ele>
        <time>2018-07-13T14:34:10Z</time>
      </trkpt>
      <trkpt lat="45.817995" lon="6.727420">
        <ele>1131.030</ele>
        <time>2018-07-13T14:34:14Z</time>
      </trkpt>
      <trkpt lat="45.817940" lon="6.727433">
        <ele>1129.899</ele>
        <time>2018-07-13T14:34:19Z</time>
      </trkpt>
      <trkpt lat="45.817888" lon="6.727433">
        <ele>1127.907</ele>
        <time>2018-07-13T14:34:24Z</time>
      </trkpt>
      <trkpt lat="45.817833" lon="6.727436">
        <ele>1127.527</ele>
        <time>2018-07-13T14:34:29Z</time>
      </trkpt>
      <trkpt lat="45.817784" lon="6.727440">
        <ele>1126.908</ele>
        <time>2018-07-13T14:34:33Z</time>
      </trkpt>
      <trkpt lat="45.817739" lon="6.727445">
        <ele>1126.541</ele>
        <time>2018-07-13T14:34:37Z</time>
      </trkpt>
      <trkpt lat="45.817689" lon="6.727458">
        <ele>1126.714</ele>
        <time>2018-07-13T14:34:41Z</time>
      </trkpt>
      <trkpt lat="45.817640" lon="6.727463">
        <ele>1126.033</ele>
        <time>2018-07-13T14:34:45Z</time>
      </trkpt>
      <trkpt lat="45.817594" lon="6.727472">
        <ele>1126.432</ele>
        <time>2018-07-13T14:34:49Z</time>
      </trkpt>
      <trkpt lat="45.817542" lon="6.727484">
        <ele>1127.442</ele>
        <time>2018-07-13T14:34:53Z</time>
      </trkpt>
      <trkpt lat="45.817493" lon="6.727491">
        <ele>1128.061</ele>
        <time>2018-07-13T14:34:57Z</time>
      </trkpt>
      <trkpt lat="45.817442" lon="6.727511">
        <ele>1128.816</ele>
        <time>2018-07-13T14:35:01Z</time>
      </trkpt>
      <trkpt lat="45.817395" lon="6.727538">
        <ele>1129.335</ele>
        <time>2018-07-13T14:35:05Z</time>
      </trkpt>
      <trkpt lat="45.817347" lon="6.727558">
        <ele>1129.236</ele>
        <time>2018-07-13T14:35:10Z</time>
      </trkpt>
      <trkpt lat="45.817294" lon="6.727565">
        <ele>1129.117</ele>
        <time>2018-07-13T14:35:16Z</time>
      </trkpt>
      <trkpt lat="45.817244" lon="6.727570">
        <ele>1128.718</ele>
        <time>2018-07-13T14:35:22Z</time>
      </trkpt>
      <trkpt lat="45.817192" lon="6.727566">
        <ele>1128.408</ele>
        <time>2018-07-13T14:35:28Z</time>
      </trkpt>
      <trkpt lat="45.817143" lon="6.727564">
        <ele>1129.055</ele>
        <time>2018-07-13T14:35:34Z</time>
      </trkpt>
      <trkpt lat="45.817090" lon="6.727560">
        <ele>1129.828</ele>
        <time>2018-07-13T14:35:40Z</time>
      </trkpt>
      <trkpt lat="45.817044" lon="6.727553">
        <ele>1131.537</ele>
        <time>2018-07-13T14:35:45Z</time>
      </trkpt>
      <trkpt lat="45.817002" lon="6.727529">
        <ele>1131.736</ele>
        <time>2018-07-13T14:35:52Z</time>
      </trkpt>
      <trkpt lat="45.816957" lon="6.727506">
        <ele>1132.256</ele>
        <time>2018-07-13T14:36:03Z</time>
      </trkpt>
      <trkpt lat="45.816912" lon="6.727476">
        <ele>1134.115</ele>
        <time>2018-07-13T14:36:11Z</time>
      </trkpt>
      <trkpt lat="45.816857" lon="6.727458">
        <ele>1138.010</ele>
        <time>2018-07-13T14:36:23Z</time>
      </trkpt>
      <trkpt lat="45.816807" lon="6.727432">
        <ele>1141.689</ele>
        <time>2018-07-13T14:36:30Z</time>
      </trkpt>
      <trkpt lat="45.816762" lon="6.727389">
        <ele>1144.572</ele>
        <time>2018-07-13T14:36:35Z</time>
      </trkpt>
      <trkpt lat="45.816725" lon="6.727349">
        <ele>1146.713</ele>
        <time>2018-07-13T14:36:39Z</time>
      </trkpt>
      <trkpt lat="45.816686" lon="6.727298">
        <ele>1148.014</ele>
        <time>2018-07-13T14:36:44Z</time>
      </trkpt>
      <trkpt lat="45.816653" lon="6.727253">
        <ele>1149.208</ele>
        <time>2018-07-13T14:36:48Z</time>
      </trkpt>
      <trkpt lat="45.816612" lon="6.727201">
        <ele>1149.959</ele>
        <time>2018-07-13T14:36:52Z</time>
      </trkpt>
      <trkpt lat="45.816571" lon="6.727154">
        <ele>1150.362</ele>
        <time>2018-07-13T14:36:56Z</time>
      </trkpt>
      <trkpt lat="45.816529" lon="6.727115">
        <ele>1151.091</ele>
        <time>2018-07-13T14:37:00Z</time>
      </trkpt>
      <trkpt lat="45.816479" lon="6.727081">
        <ele>1151.440</ele>
        <time>2018-07-13T14:37:05Z</time>
      </trkpt>
      <trkpt lat="45.816434" lon="6.727054">
        <ele>1151.680</ele>
        <time>2018-07-13T14:37:10Z</time>
      </trkpt>
      <trkpt lat="45.816393" lon="6.727027">
        <ele>1152.139</ele>
        <time>2018-07-13T14:37:14Z</time>
      </trkpt>
      <trkpt lat="45.816361" lon="6.726979">
        <ele>1152.454</ele>
        <time>2018-07-13T14:37:18Z</time>
      </trkpt>
      <trkpt lat="45.816366" lon="6.726907">
        <ele>1152.253</ele>
        <time>2018-07-13T14:37:23Z</time>
      </trkpt>
      <trkpt lat="45.816383" lon="6.726845">
        <ele>1152.165</ele>
        <time>2018-07-13T14:37:27Z</time>
      </trkpt>
      <trkpt lat="45.816399" lon="6.726773">
        <ele>1151.668</ele>
        <time>2018-07-13T14:37:32Z</time>
      </trkpt>
      <trkpt lat="45.816377" lon="6.726701">
        <ele>1151.314</ele>
        <time>2018-07-13T14:37:37Z</time>
      </trkpt>
      <trkpt lat="45.816339" lon="6.726658">
        <ele>1151.508</ele>
        <time>2018-07-13T14:37:41Z</time>
      </trkpt>
      <trkpt lat="45.816297" lon="6.726618">
        <ele>1151.298</ele>
        <time>2018-07-13T14:37:45Z</time>
      </trkpt>
      <trkpt lat="45.816252" lon="6.726582">
        <ele>1151.021</ele>
        <time>2018-07-13T14:37:49Z</time>
      </trkpt>
      <trkpt lat="45.816210" lon="6.726549">
        <ele>1150.560</ele>
        <time>2018-07-13T14:37:53Z</time>
      </trkpt>
      <trkpt lat="45.816170" lon="6.726512">
        <ele>1150.219</ele>
        <time>2018-07-13T14:37:57Z</time>
      </trkpt>
      <trkpt lat="45.816131" lon="6.726480">
        <ele>1150.019</ele>
        <time>2018-07-13T14:38:01Z</time>
      </trkpt>
      <trkpt lat="45.816090" lon="6.726446">
        <ele>1149.588</ele>
        <time>2018-07-13T14:38:05Z</time>
      </trkpt>
      <trkpt lat="45.816050" lon="6.726410">
        <ele>1149.233</ele>
        <time>2018-07-13T14:38:09Z</time>
      </trkpt>
      <trkpt lat="45.816006" lon="6.726378">
        <ele>1149.042</ele>
        <time>2018-07-13T14:38:13Z</time>
      </trkpt>
      <trkpt lat="45.815959" lon="6.726349">
        <ele>1148.959</ele>
        <time>2018-07-13T14:38:17Z</time>
      </trkpt>
      <trkpt lat="45.815910" lon="6.726328">
        <ele>1149.203</ele>
        <time>2018-07-13T14:38:21Z</time>
      </trkpt>
      <trkpt lat="45.815860" lon="6.726299">
        <ele>1149.023</ele>
        <time>2018-07-13T14:38:26Z</time>
      </trkpt>
      <trkpt lat="45.815808" lon="6.726274">
        <ele>1148.908</ele>
        <time>2018-07-13T14:38:31Z</time>
      </trkpt>
      <trkpt lat="45.815754" lon="6.726251">
        <ele>1148.067</ele>
        <time>2018-07-13T14:38:36Z</time>
      </trkpt>
      <trkpt lat="45.815709" lon="6.726222">
        <ele>1146.720</ele>
        <time>2018-07-13T14:38:41Z</time>
      </trkpt>
      <trkpt lat="45.815661" lon="6.726199">
        <ele>1145.579</ele>
        <time>2018-07-13T14:38:46Z</time>
      </trkpt>
      <trkpt lat="45.815616" lon="6.726187">
        <ele>1144.068</ele>
        <time>2018-07-13T14:38:50Z</time>
      </trkpt>
      <trkpt lat="45.815564" lon="6.726178">
        <ele>1144.368</ele>
        <time>2018-07-13T14:38:54Z</time>
      </trkpt>
      <trkpt lat="45.815516" lon="6.726161">
        <ele>1144.597</ele>
        <time>2018-07-13T14:38:58Z</time>
      </trkpt>
      <trkpt lat="45.815469" lon="6.726154">
        <ele>1143.822</ele>
        <time>2018-07-13T14:39:02Z</time>
      </trkpt>
      <trkpt lat="45.815421" lon="6.726159">
        <ele>1144.211</ele>
        <time>2018-07-13T14:39:06Z</time>
      </trkpt>
      <trkpt lat="45.815375" lon="6.726159">
        <ele>1144.826</ele>
        <time>2018-07-13T14:39:10Z</time>
      </trkpt>
      <trkpt lat="45.815326" lon="6.726150">
        <ele>1144.047</ele>
        <time>2018-07-13T14:39:15Z</time>
      </trkpt>
      <trkpt lat="45.815276" lon="6.726149">
        <ele>1144.711</ele>
        <time>2018-07-13T14:39:19Z</time>
      </trkpt>
      <trkpt lat="45.815223" lon="6.726146">
        <ele>1146.308</ele>
        <time>2018-07-13T14:39:23Z</time>
      </trkpt>
      <trkpt lat="45.815176" lon="6.726144">
        <ele>1148.574</ele>
        <time>2018-07-13T14:39:27Z</time>
      </trkpt>
      <trkpt lat="45.815121" lon="6.726140">
        <ele>1149.447</ele>
        <time>2018-07-13T14:39:32Z</time>
      </trkpt>
      <trkpt lat="45.815073" lon="6.726145">
        <ele>1149.596</ele>
        <time>2018-07-13T14:39:37Z</time>
      </trkpt>
      <trkpt lat="45.815019" lon="6.726127">
        <ele>1148.495</ele>
        <time>2018-07-13T14:39:43Z</time>
      </trkpt>
      <trkpt lat="45.814962" lon="6.726129">
        <ele>1147.715</ele>
        <time>2018-07-13T14:39:48Z</time>
      </trkpt>
      <trkpt lat="45.814905" lon="6.726112">
        <ele>1147.744</ele>
        <time>2018-07-13T14:39:53Z</time>
      </trkpt>
      <trkpt lat="45.814859" lon="6.726124">
        <ele>1148.519</ele>
        <time>2018-07-13T14:39:56Z</time>
      </trkpt>
      <trkpt lat="45.814813" lon="6.726137">
        <ele>1149.438</ele>
        <time>2018-07-13T14:39:59Z</time>
      </trkpt>
      <trkpt lat="45.814768" lon="6.726141">
        <ele>1148.399</ele>
        <time>2018-07-13T14:40:04Z</time>
      </trkpt>
      <trkpt lat="45.814716" lon="6.726130">
        <ele>1147.307</ele>
        <time>2018-07-13T14:40:20Z</time>
      </trkpt>
      <trkpt lat="45.814669" lon="6.726151">
        <ele>1148.327</ele>
        <time>2018-07-13T14:40:24Z</time>
      </trkpt>
      <trkpt lat="45.814621" lon="6.726175">
        <ele>1148.908</ele>
        <time>2018-07-13T14:40:28Z</time>
      </trkpt>
      <trkpt lat="45.814571" lon="6.726193">
        <ele>1149.791</ele>
        <time>2018-07-13T14:40:32Z</time>
      </trkpt>
      <trkpt lat="45.814528" lon="6.726212">
        <ele>1151.414</ele>
        <time>2018-07-13T14:40:36Z</time>
      </trkpt>
      <trkpt lat="45.814483" lon="6.726223">
        <ele>1152.863</ele>
        <time>2018-07-13T14:40:40Z</time>
      </trkpt>
      <trkpt lat="45.814441" lon="6.726257">
        <ele>1153.252</ele>
        <time>2018-07-13T14:40:44Z</time>
      </trkpt>
      <trkpt lat="45.814398" lon="6.726282">
        <ele>1153.542</ele>
        <time>2018-07-13T14:40:47Z</time>
      </trkpt>
      <trkpt lat="45.814360" lon="6.726316">
        <ele>1151.751</ele>
        <time>2018-07-13T14:40:51Z</time>
      </trkpt>
      <trkpt lat="45.814330" lon="6.726369">
        <ele>1150.666</ele>
        <time>2018-07-13T14:40:55Z</time>
      </trkpt>
      <trkpt lat="45.814294" lon="6.726413">
        <ele>1149.975</ele>
        <time>2018-07-13T14:40:59Z</time>
      </trkpt>
      <trkpt lat="45.814258" lon="6.726465">
        <ele>1147.552</ele>
        <time>2018-07-13T14:41:04Z</time>
      </trkpt>
      <trkpt lat="45.814207" lon="6.726490">
        <ele>1144.953</ele>
        <time>2018-07-13T14:41:09Z</time>
      </trkpt>
      <trkpt lat="45.814161" lon="6.726528">
        <ele>1142.508</ele>
        <time>2018-07-13T14:41:14Z</time>
      </trkpt>
      <trkpt lat="45.814107" lon="6.726559">
        <ele>1141.108</ele>
        <time>2018-07-13T14:41:19Z</time>
      </trkpt>
      <trkpt lat="45.814063" lon="6.726598">
        <ele>1138.657</ele>
        <time>2018-07-13T14:41:24Z</time>
      </trkpt>
      <trkpt lat="45.814041" lon="6.726656">
        <ele>1139.570</ele>
        <time>2018-07-13T14:41:27Z</time>
      </trkpt>
      <trkpt lat="45.814018" lon="6.726722">
        <ele>1140.959</ele>
        <time>2018-07-13T14:41:30Z</time>
      </trkpt>
      <trkpt lat="45.813984" lon="6.726766">
        <ele>1144.938</ele>
        <time>2018-07-13T14:41:32Z</time>
      </trkpt>
      <trkpt lat="45.813932" lon="6.726779">
        <ele>1148.988</ele>
        <time>2018-07-13T14:41:37Z</time>
      </trkpt>
      <trkpt lat="45.813884" lon="6.726840">
        <ele>1152.957</ele>
        <time>2018-07-13T14:42:35Z</time>
      </trkpt>
      <trkpt lat="45.813835" lon="6.726852">
        <ele>1154.192</ele>
        <time>2018-07-13T14:42:47Z</time>
      </trkpt>
      <trkpt lat="45.813789" lon="6.726862">
        <ele>1154.491</ele>
        <time>2018-07-13T14:42:51Z</time>
      </trkpt>
      <trkpt lat="45.813733" lon="6.726856">
        <ele>1153.463</ele>
        <time>2018-07-13T14:42:56Z</time>
      </trkpt>
      <trkpt lat="45.813682" lon="6.726851">
        <ele>1152.044</ele>
        <time>2018-07-13T14:43:00Z</time>
      </trkpt>
      <trkpt lat="45.813628" lon="6.726845">
        <ele>1152.018</ele>
        <time>2018-07-13T14:43:04Z</time>
      </trkpt>
      <trkpt lat="45.813582" lon="6.726841">
        <ele>1150.408</ele>
        <time>2018-07-13T14:43:08Z</time>
      </trkpt>
      <trkpt lat="45.813531" lon="6.726839">
        <ele>1149.458</ele>
        <time>2018-07-13T14:43:12Z</time>
      </trkpt>
      <trkpt lat="45.813477" lon="6.726834">
        <ele>1147.681</ele>
        <time>2018-07-13T14:43:17Z</time>
      </trkpt>
      <trkpt lat="45.813427" lon="6.726842">
        <ele>1145.370</ele>
        <time>2018-07-13T14:43:22Z</time>
      </trkpt>
      <trkpt lat="45.813373" lon="6.726851">
        <ele>1143.559</ele>
        <time>2018-07-13T14:43:27Z</time>
      </trkpt>
      <trkpt lat="45.813322" lon="6.726864">
        <ele>1143.229</ele>
        <time>2018-07-13T14:43:31Z</time>
      </trkpt>
      <trkpt lat="45.813276" lon="6.726869">
        <ele>1142.618</ele>
        <time>2018-07-13T14:43:35Z</time>
      </trkpt>
      <trkpt lat="45.813222" lon="6.726882">
        <ele>1142.733</ele>
        <time>2018-07-13T14:43:40Z</time>
      </trkpt>
      <trkpt lat="45.813171" lon="6.726886">
        <ele>1142.352</ele>
        <time>2018-07-13T14:43:45Z</time>
      </trkpt>
      <trkpt lat="45.813119" lon="6.726879">
        <ele>1142.986</ele>
        <time>2018-07-13T14:43:50Z</time>
      </trkpt>
      <trkpt lat="45.813070" lon="6.726883">
        <ele>1143.360</ele>
        <time>2018-07-13T14:43:55Z</time>
      </trkpt>
      <trkpt lat="45.813017" lon="6.726887">
        <ele>1143.926</ele>
        <time>2018-07-13T14:44:00Z</time>
      </trkpt>
      <trkpt lat="45.812964" lon="6.726869">
        <ele>1143.108</ele>
        <time>2018-07-13T14:44:05Z</time>
      </trkpt>
      <trkpt lat="45.812917" lon="6.726831">
        <ele>1141.430</ele>
        <time>2018-07-13T14:44:10Z</time>
      </trkpt>
      <trkpt lat="45.812871" lon="6.726787">
        <ele>1140.423</ele>
        <time>2018-07-13T14:44:15Z</time>
      </trkpt>
      <trkpt lat="45.812813" lon="6.726783">
        <ele>1141.022</ele>
        <time>2018-07-13T14:44:19Z</time>
      </trkpt>
      <trkpt lat="45.812758" lon="6.726794">
        <ele>1142.231</ele>
        <time>2018-07-13T14:44:23Z</time>
      </trkpt>
      <trkpt lat="45.812711" lon="6.726805">
        <ele>1144.121</ele>
        <time>2018-07-13T14:44:27Z</time>
      </trkpt>
      <trkpt lat="45.812667" lon="6.726824">
        <ele>1146.020</ele>
        <time>2018-07-13T14:44:30Z</time>
      </trkpt>
      <trkpt lat="45.812623" lon="6.726841">
        <ele>1148.025</ele>
        <time>2018-07-13T14:44:33Z</time>
      </trkpt>
      <trkpt lat="45.812574" lon="6.726826">
        <ele>1149.624</ele>
        <time>2018-07-13T14:44:38Z</time>
      </trkpt>
      <trkpt lat="45.812520" lon="6.726826">
        <ele>1151.777</ele>
        <time>2018-07-13T14:44:42Z</time>
      </trkpt>
      <trkpt lat="45.812470" lon="6.726818">
        <ele>1153.061</ele>
        <time>2018-07-13T14:44:46Z</time>
      </trkpt>
      <trkpt lat="45.812422" lon="6.726828">
        <ele>1154.227</ele>
        <time>2018-07-13T14:44:50Z</time>
      </trkpt>
      <trkpt lat="45.812373" lon="6.726848">
        <ele>1154.108</ele>
        <time>2018-07-13T14:44:54Z</time>
      </trkpt>
      <trkpt lat="45.812319" lon="6.726841">
        <ele>1153.679</ele>
        <time>2018-07-13T14:44:59Z</time>
      </trkpt>
      <trkpt lat="45.812265" lon="6.726836">
        <ele>1152.122</ele>
        <time>2018-07-13T14:45:04Z</time>
      </trkpt>
      <trkpt lat="45.812218" lon="6.726834">
        <ele>1150.041</ele>
        <time>2018-07-13T14:45:08Z</time>
      </trkpt>
      <trkpt lat="45.812170" lon="6.726836">
        <ele>1149.150</ele>
        <time>2018-07-13T14:45:12Z</time>
      </trkpt>
      <trkpt lat="45.812123" lon="6.726839">
        <ele>1148.240</ele>
        <time>2018-07-13T14:45:16Z</time>
      </trkpt>
      <trkpt lat="45.812077" lon="6.726834">
        <ele>1146.529</ele>
        <time>2018-07-13T14:45:21Z</time>
      </trkpt>
      <trkpt lat="45.812021" lon="6.726834">
        <ele>1143.914</ele>
        <time>2018-07-13T14:45:26Z</time>
      </trkpt>
      <trkpt lat="45.811968" lon="6.726838">
        <ele>1140.373</ele>
        <time>2018-07-13T14:45:31Z</time>
      </trkpt>
      <trkpt lat="45.811920" lon="6.726837">
        <ele>1138.568</ele>
        <time>2018-07-13T14:45:35Z</time>
      </trkpt>
      <trkpt lat="45.811871" lon="6.726834">
        <ele>1139.042</ele>
        <time>2018-07-13T14:45:46Z</time>
      </trkpt>
      <trkpt lat="45.811818" lon="6.726838">
        <ele>1139.726</ele>
        <time>2018-07-13T14:45:51Z</time>
      </trkpt>
      <trkpt lat="45.811768" lon="6.726854">
        <ele>1139.708</ele>
        <time>2018-07-13T14:45:55Z</time>
      </trkpt>
      <trkpt lat="45.811721" lon="6.726864">
        <ele>1139.358</ele>
        <time>2018-07-13T14:45:59Z</time>
      </trkpt>
      <trkpt lat="45.811674" lon="6.726877">
        <ele>1139.181</ele>
        <time>2018-07-13T14:46:03Z</time>
      </trkpt>
      <trkpt lat="45.811626" lon="6.726894">
        <ele>1138.620</ele>
        <time>2018-07-13T14:46:07Z</time>
      </trkpt>
      <trkpt lat="45.811581" lon="6.726903">
        <ele>1139.989</ele>
        <time>2018-07-13T14:46:11Z</time>
      </trkpt>
      <trkpt lat="45.811532" lon="6.726918">
        <ele>1139.549</ele>
        <time>2018-07-13T14:46:16Z</time>
      </trkpt>
      <trkpt lat="45.811488" lon="6.726940">
        <ele>1138.888</ele>
        <time>2018-07-13T14:46:20Z</time>
      </trkpt>
      <trkpt lat="45.811442" lon="6.726967">
        <ele>1138.463</ele>
        <time>2018-07-13T14:46:24Z</time>
      </trkpt>
      <trkpt lat="45.811392" lon="6.726979">
        <ele>1137.852</ele>
        <time>2018-07-13T14:46:28Z</time>
      </trkpt>
      <trkpt lat="45.811346" lon="6.726996">
        <ele>1135.843</ele>
        <time>2018-07-13T14:46:32Z</time>
      </trkpt>
      <trkpt lat="45.811297" lon="6.727006">
        <ele>1135.064</ele>
        <time>2018-07-13T14:46:36Z</time>
      </trkpt>
      <trkpt lat="45.811241" lon="6.727023">
        <ele>1134.510</ele>
        <time>2018-07-13T14:46:40Z</time>
      </trkpt>
      <trkpt lat="45.811190" lon="6.727046">
        <ele>1134.208</ele>
        <time>2018-07-13T14:46:44Z</time>
      </trkpt>
      <trkpt lat="45.811140" lon="6.727086">
        <ele>1135.276</ele>
        <time>2018-07-13T14:46:48Z</time>
      </trkpt>
      <trkpt lat="45.811098" lon="6.727141">
        <ele>1136.669</ele>
        <time>2018-07-13T14:46:52Z</time>
      </trkpt>
      <trkpt lat="45.811065" lon="6.727212">
        <ele>1138.798</ele>
        <time>2018-07-13T14:46:56Z</time>
      </trkpt>
      <trkpt lat="45.811050" lon="6.727274">
        <ele>1141.167</ele>
        <time>2018-07-13T14:46:59Z</time>
      </trkpt>
      <trkpt lat="45.811043" lon="6.727341">
        <ele>1144.267</ele>
        <time>2018-07-13T14:47:02Z</time>
      </trkpt>
      <trkpt lat="45.811038" lon="6.727422">
        <ele>1146.416</ele>
        <time>2018-07-13T14:47:06Z</time>
      </trkpt>
      <trkpt lat="45.811013" lon="6.727476">
        <ele>1148.151</ele>
        <time>2018-07-13T14:47:10Z</time>
      </trkpt>
      <trkpt lat="45.810963" lon="6.727500">
        <ele>1149.190</ele>
        <time>2018-07-13T14:47:14Z</time>
      </trkpt>
      <trkpt lat="45.810918" lon="6.727511">
        <ele>1148.951</ele>
        <time>2018-07-13T14:47:18Z</time>
      </trkpt>
      <trkpt lat="45.810873" lon="6.727504">
        <ele>1148.401</ele>
        <time>2018-07-13T14:47:22Z</time>
      </trkpt>
      <trkpt lat="45.810828" lon="6.727479">
        <ele>1148.911</ele>
        <time>2018-07-13T14:47:26Z</time>
      </trkpt>
      <trkpt lat="45.810781" lon="6.727460">
        <ele>1149.608</ele>
        <time>2018-07-13T14:47:30Z</time>
      </trkpt>
      <trkpt lat="45.810729" lon="6.727435">
        <ele>1148.847</ele>
        <time>2018-07-13T14:47:35Z</time>
      </trkpt>
      <trkpt lat="45.810682" lon="6.727423">
        <ele>1148.720</ele>
        <time>2018-07-13T14:47:39Z</time>
      </trkpt>
      <trkpt lat="45.810631" lon="6.727412">
        <ele>1148.749</ele>
        <time>2018-07-13T14:47:43Z</time>
      </trkpt>
      <trkpt lat="45.810585" lon="6.727386">
        <ele>1148.398</ele>
        <time>2018-07-13T14:47:47Z</time>
      </trkpt>
      <trkpt lat="45.810537" lon="6.727358">
        <ele>1148.058</ele>
        <time>2018-07-13T14:47:51Z</time>
      </trkpt>
      <trkpt lat="45.810492" lon="6.727334">
        <ele>1147.027</ele>
        <time>2018-07-13T14:47:55Z</time>
      </trkpt>
      <trkpt lat="45.810444" lon="6.727318">
        <ele>1146.462</ele>
        <time>2018-07-13T14:47:59Z</time>
      </trkpt>
      <trkpt lat="45.810396" lon="6.727308">
        <ele>1145.781</ele>
        <time>2018-07-13T14:48:03Z</time>
      </trkpt>
      <trkpt lat="45.810341" lon="6.727303">
        <ele>1146.536</ele>
        <time>2018-07-13T14:48:07Z</time>
      </trkpt>
      <trkpt lat="45.810287" lon="6.727298">
        <ele>1147.417</ele>
        <time>2018-07-13T14:48:11Z</time>
      </trkpt>
      <trkpt lat="45.810234" lon="6.727296">
        <ele>1147.918</ele>
        <time>2018-07-13T14:48:15Z</time>
      </trkpt>
      <trkpt lat="45.810184" lon="6.727286">
        <ele>1148.208</ele>
        <time>2018-07-13T14:48:19Z</time>
      </trkpt>
      <trkpt lat="45.810136" lon="6.727269">
        <ele>1147.615</ele>
        <time>2018-07-13T14:48:23Z</time>
      </trkpt>
      <trkpt lat="45.810090" lon="6.727247">
        <ele>1146.418</ele>
        <time>2018-07-13T14:48:27Z</time>
      </trkpt>
      <trkpt lat="45.810041" lon="6.727220">
        <ele>1144.957</ele>
        <time>2018-07-13T14:48:32Z</time>
      </trkpt>
      <trkpt lat="45.809992" lon="6.727199">
        <ele>1144.876</ele>
        <time>2018-07-13T14:48:36Z</time>
      </trkpt>
      <trkpt lat="45.809946" lon="6.727180">
        <ele>1144.756</ele>
        <time>2018-07-13T14:48:40Z</time>
      </trkpt>
      <trkpt lat="45.809897" lon="6.727161">
        <ele>1145.165</ele>
        <time>2018-07-13T14:48:44Z</time>
      </trkpt>
      <trkpt lat="45.809840" lon="6.727154">
        <ele>1146.950</ele>
        <time>2018-07-13T14:48:49Z</time>
      </trkpt>
      <trkpt lat="45.809790" lon="6.727137">
        <ele>1146.859</ele>
        <time>2018-07-13T14:48:54Z</time>
      </trkpt>
      <trkpt lat="45.809743" lon="6.727124">
        <ele>1147.534</ele>
        <time>2018-07-13T14:48:58Z</time>
      </trkpt>
      <trkpt lat="45.809690" lon="6.727106">
        <ele>1149.555</ele>
        <time>2018-07-13T14:49:02Z</time>
      </trkpt>
      <trkpt lat="45.809626" lon="6.727086">
        <ele>1151.510</ele>
        <time>2018-07-13T14:49:10Z</time>
      </trkpt>
      <trkpt lat="45.809539" lon="6.727143">
        <ele>1153.908</ele>
        <time>2018-07-13T14:49:21Z</time>
      </trkpt>
      <trkpt lat="45.809488" lon="6.727151">
        <ele>1154.535</ele>
        <time>2018-07-13T14:49:26Z</time>
      </trkpt>
      <trkpt lat="45.809430" lon="6.727162">
        <ele>1156.548</ele>
        <time>2018-07-13T14:49:30Z</time>
      </trkpt>
      <trkpt lat="45.809383" lon="6.727159">
        <ele>1156.527</ele>
        <time>2018-07-13T14:49:35Z</time>
      </trkpt>
      <trkpt lat="45.809335" lon="6.727184">
        <ele>1157.716</ele>
        <time>2018-07-13T14:49:39Z</time>
      </trkpt>
      <trkpt lat="45.809296" lon="6.727218">
        <ele>1157.286</ele>
        <time>2018-07-13T14:49:43Z</time>
      </trkpt>
      <trkpt lat="45.809254" lon="6.727249">
        <ele>1157.335</ele>
        <time>2018-07-13T14:49:46Z</time>
      </trkpt>
      <trkpt lat="45.809201" lon="6.727308">
        <ele>1158.650</ele>
        <time>2018-07-13T14:49:52Z</time>
      </trkpt>
      <trkpt lat="45.809157" lon="6.727321">
        <ele>1160.259</ele>
        <time>2018-07-13T14:49:57Z</time>
      </trkpt>
      <trkpt lat="45.809101" lon="6.727337">
        <ele>1161.574</ele>
        <time>2018-07-13T14:50:02Z</time>
      </trkpt>
      <trkpt lat="45.809048" lon="6.727360">
        <ele>1161.956</ele>
        <time>2018-07-13T14:50:06Z</time>
      </trkpt>
      <trkpt lat="45.808992" lon="6.727374">
        <ele>1162.121</ele>
        <time>2018-07-13T14:50:10Z</time>
      </trkpt>
      <trkpt lat="45.808942" lon="6.727385">
        <ele>1163.008</ele>
        <time>2018-07-13T14:50:14Z</time>
      </trkpt>
      <trkpt lat="45.808888" lon="6.727377">
        <ele>1164.049</ele>
        <time>2018-07-13T14:50:18Z</time>
      </trkpt>
      <trkpt lat="45.808841" lon="6.727348">
        <ele>1165.092</ele>
        <time>2018-07-13T14:50:22Z</time>
      </trkpt>
      <trkpt lat="45.808796" lon="6.727309">
        <ele>1166.011</ele>
        <time>2018-07-13T14:50:26Z</time>
      </trkpt>
      <trkpt lat="45.808755" lon="6.727255">
        <ele>1166.290</ele>
        <time>2018-07-13T14:50:30Z</time>
      </trkpt>
      <trkpt lat="45.808711" lon="6.727210">
        <ele>1167.160</ele>
        <time>2018-07-13T14:50:34Z</time>
      </trkpt>
      <trkpt lat="45.808669" lon="6.727162">
        <ele>1166.429</ele>
        <time>2018-07-13T14:50:38Z</time>
      </trkpt>
      <trkpt lat="45.808632" lon="6.727114">
        <ele>1165.654</ele>
        <time>2018-07-13T14:50:42Z</time>
      </trkpt>
      <trkpt lat="45.808588" lon="6.727069">
        <ele>1164.323</ele>
        <time>2018-07-13T14:50:47Z</time>
      </trkpt>
      <trkpt lat="45.808544" lon="6.727026">
        <ele>1164.389</ele>
        <time>2018-07-13T14:50:51Z</time>
      </trkpt>
      <trkpt lat="45.808500" lon="6.726984">
        <ele>1164.306</ele>
        <time>2018-07-13T14:50:55Z</time>
      </trkpt>
      <trkpt lat="45.808459" lon="6.726947">
        <ele>1164.326</ele>
        <time>2018-07-13T14:50:59Z</time>
      </trkpt>
      <trkpt lat="45.808417" lon="6.726905">
        <ele>1163.908</ele>
        <time>2018-07-13T14:51:03Z</time>
      </trkpt>
      <trkpt lat="45.808376" lon="6.726864">
        <ele>1163.780</ele>
        <time>2018-07-13T14:51:07Z</time>
      </trkpt>
      <trkpt lat="45.808330" lon="6.726825">
        <ele>1164.473</ele>
        <time>2018-07-13T14:51:11Z</time>
      </trkpt>
      <trkpt lat="45.808285" lon="6.726790">
        <ele>1164.882</ele>
        <time>2018-07-13T14:51:15Z</time>
      </trkpt>
      <trkpt lat="45.808244" lon="6.726753">
        <ele>1163.811</ele>
        <time>2018-07-13T14:51:19Z</time>
      </trkpt>
      <trkpt lat="45.808196" lon="6.726726">
        <ele>1162.451</ele>
        <time>2018-07-13T14:51:24Z</time>
      </trkpt>
      <trkpt lat="45.808151" lon="6.726723">
        <ele>1161.230</ele>
        <time>2018-07-13T14:51:28Z</time>
      </trkpt>
      <trkpt lat="45.808109" lon="6.726699">
        <ele>1160.125</ele>
        <time>2018-07-13T14:51:32Z</time>
      </trkpt>
      <trkpt lat="45.808070" lon="6.726665">
        <ele>1157.874</ele>
        <time>2018-07-13T14:51:36Z</time>
      </trkpt>
      <trkpt lat="45.808031" lon="6.726624">
        <ele>1154.483</ele>
        <time>2018-07-13T14:51:40Z</time>
      </trkpt>
      <trkpt lat="45.807985" lon="6.726593">
        <ele>1153.225</ele>
        <time>2018-07-13T14:51:44Z</time>
      </trkpt>
      <trkpt lat="45.807939" lon="6.726570">
        <ele>1151.317</ele>
        <time>2018-07-13T14:51:48Z</time>
      </trkpt>
      <trkpt lat="45.807892" lon="6.726535">
        <ele>1151.308</ele>
        <time>2018-07-13T14:51:52Z</time>
      </trkpt>
      <trkpt lat="45.807844" lon="6.726510">
        <ele>1150.570</ele>
        <time>2018-07-13T14:51:56Z</time>
      </trkpt>
      <trkpt lat="45.807802" lon="6.726474">
        <ele>1149.623</ele>
        <time>2018-07-13T14:52:00Z</time>
      </trkpt>
      <trkpt lat="45.807755" lon="6.726441">
        <ele>1149.542</ele>
        <time>2018-07-13T14:52:04Z</time>
      </trkpt>
      <trkpt lat="45.807705" lon="6.726409">
        <ele>1149.421</ele>
        <time>2018-07-13T14:52:08Z</time>
      </trkpt>
      <trkpt lat="45.807657" lon="6.726384">
        <ele>1149.851</ele>
        <time>2018-07-13T14:52:12Z</time>
      </trkpt>
      <trkpt lat="45.807606" lon="6.726362">
        <ele>1151.690</ele>
        <time>2018-07-13T14:52:16Z</time>
      </trkpt>
      <trkpt lat="45.807563" lon="6.726328">
        <ele>1151.985</ele>
        <time>2018-07-13T14:52:20Z</time>
      </trkpt>
      <trkpt lat="45.807519" lon="6.726288">
        <ele>1152.924</ele>
        <time>2018-07-13T14:52:24Z</time>
      </trkpt>
      <trkpt lat="45.807471" lon="6.726249">
        <ele>1152.761</ele>
        <time>2018-07-13T14:52:28Z</time>
      </trkpt>
      <trkpt lat="45.807425" lon="6.726217">
        <ele>1153.421</ele>
        <time>2018-07-13T14:52:32Z</time>
      </trkpt>
      <trkpt lat="45.807384" lon="6.726180">
        <ele>1153.413</ele>
        <time>2018-07-13T14:52:36Z</time>
      </trkpt>
      <trkpt lat="45.807338" lon="6.726146">
        <ele>1154.208</ele>
        <time>2018-07-13T14:52:40Z</time>
      </trkpt>
      <trkpt lat="45.807290" lon="6.726118">
        <ele>1154.318</ele>
        <time>2018-07-13T14:52:44Z</time>
      </trkpt>
      <trkpt lat="45.807244" lon="6.726074">
        <ele>1155.181</ele>
        <time>2018-07-13T14:52:48Z</time>
      </trkpt>
      <trkpt lat="45.807198" lon="6.726042">
        <ele>1155.240</ele>
        <time>2018-07-13T14:52:52Z</time>
      </trkpt>
      <trkpt lat="45.807152" lon="6.726010">
        <ele>1155.779</ele>
        <time>2018-07-13T14:52:56Z</time>
      </trkpt>
      <trkpt lat="45.807108" lon="6.725980">
        <ele>1156.489</ele>
        <time>2018-07-13T14:53:00Z</time>
      </trkpt>
      <trkpt lat="45.807061" lon="6.725971">
        <ele>1157.618</ele>
        <time>2018-07-13T14:53:04Z</time>
      </trkpt>
      <trkpt lat="45.807010" lon="6.725966">
        <ele>1159.143</ele>
        <time>2018-07-13T14:53:08Z</time>
      </trkpt>
      <trkpt lat="45.806961" lon="6.725964">
        <ele>1159.632</ele>
        <time>2018-07-13T14:53:12Z</time>
      </trkpt>
      <trkpt lat="45.806912" lon="6.725936">
        <ele>1159.578</ele>
        <time>2018-07-13T14:53:16Z</time>
      </trkpt>
      <trkpt lat="45.806864" lon="6.725901">
        <ele>1158.633</ele>
        <time>2018-07-13T14:53:20Z</time>
      </trkpt>
      <trkpt lat="45.806820" lon="6.725865">
        <ele>1157.726</ele>
        <time>2018-07-13T14:53:24Z</time>
      </trkpt>
      <trkpt lat="45.806774" lon="6.725829">
        <ele>1157.208</ele>
        <time>2018-07-13T14:53:28Z</time>
      </trkpt>
      <trkpt lat="45.806727" lon="6.725794">
        <ele>1156.939</ele>
        <time>2018-07-13T14:53:32Z</time>
      </trkpt>
      <trkpt lat="45.806680" lon="6.725760">
        <ele>1157.982</ele>
        <time>2018-07-13T14:53:36Z</time>
      </trkpt>
      <trkpt lat="45.806634" lon="6.725727">
        <ele>1157.731</ele>
        <time>2018-07-13T14:53:40Z</time>
      </trkpt>
      <trkpt lat="45.806586" lon="6.725701">
        <ele>1158.470</ele>
        <time>2018-07-13T14:53:44Z</time>
      </trkpt>
      <trkpt lat="45.806542" lon="6.725672">
        <ele>1157.610</ele>
        <time>2018-07-13T14:53:48Z</time>
      </trkpt>
      <trkpt lat="45.806494" lon="6.725646">
        <ele>1157.599</ele>
        <time>2018-07-13T14:53:52Z</time>
      </trkpt>
      <trkpt lat="45.806449" lon="6.725625">
        <ele>1156.784</ele>
        <time>2018-07-13T14:53:56Z</time>
      </trkpt>
      <trkpt lat="45.806402" lon="6.725598">
        <ele>1156.613</ele>
        <time>2018-07-13T14:54:00Z</time>
      </trkpt>
      <trkpt lat="45.806350" lon="6.725569">
        <ele>1157.352</ele>
        <time>2018-07-13T14:54:04Z</time>
      </trkpt>
      <trkpt lat="45.806304" lon="6.725542">
        <ele>1157.753</ele>
        <time>2018-07-13T14:54:08Z</time>
      </trkpt>
      <trkpt lat="45.806253" lon="6.725517">
        <ele>1158.808</ele>
        <time>2018-07-13T14:54:12Z</time>
      </trkpt>
      <trkpt lat="45.806205" lon="6.725499">
        <ele>1160.208</ele>
        <time>2018-07-13T14:54:16Z</time>
      </trkpt>
      <trkpt lat="45.806162" lon="6.725482">
        <ele>1160.757</ele>
        <time>2018-07-13T14:54:20Z</time>
      </trkpt>
      <trkpt lat="45.806111" lon="6.725445">
        <ele>1159.810</ele>
        <time>2018-07-13T14:54:25Z</time>
      </trkpt>
      <trkpt lat="45.806069" lon="6.725412">
        <ele>1158.099</ele>
        <time>2018-07-13T14:54:29Z</time>
      </trkpt>
      <trkpt lat="45.806024" lon="6.725378">
        <ele>1156.998</ele>
        <time>2018-07-13T14:54:33Z</time>
      </trkpt>
      <trkpt lat="45.805979" lon="6.725349">
        <ele>1156.358</ele>
        <time>2018-07-13T14:54:37Z</time>
      </trkpt>
      <trkpt lat="45.805933" lon="6.725315">
        <ele>1155.977</ele>
        <time>2018-07-13T14:54:41Z</time>
      </trkpt>
      <trkpt lat="45.805884" lon="6.725282">
        <ele>1155.382</ele>
        <time>2018-07-13T14:54:45Z</time>
      </trkpt>
      <trkpt lat="45.805838" lon="6.725248">
        <ele>1154.591</ele>
        <time>2018-07-13T14:54:49Z</time>
      </trkpt>
      <trkpt lat="45.805787" lon="6.725216">
        <ele>1153.699</ele>
        <time>2018-07-13T14:54:53Z</time>
      </trkpt>
      <trkpt lat="45.805741" lon="6.725182">
        <ele>1152.707</ele>
        <time>2018-07-13T14:54:57Z</time>
      </trkpt>
      <trkpt lat="45.805692" lon="6.725156">
        <ele>1152.527</ele>
        <time>2018-07-13T14:55:01Z</time>
      </trkpt>
      <trkpt lat="45.805647" lon="6.725134">
        <ele>1152.008</ele>
        <time>2018-07-13T14:55:05Z</time>
      </trkpt>
      <trkpt lat="45.805603" lon="6.725113">
        <ele>1151.711</ele>
        <time>2018-07-13T14:55:09Z</time>
      </trkpt>
      <trkpt lat="45.805547" lon="6.725102">
        <ele>1151.574</ele>
        <time>2018-07-13T14:55:14Z</time>
      </trkpt>
      <trkpt lat="45.805496" lon="6.725088">
        <ele>1151.843</ele>
        <time>2018-07-13T14:55:18Z</time>
      </trkpt>
      <trkpt lat="45.805445" lon="6.725076">
        <ele>1153.222</ele>
        <time>2018-07-13T14:55:22Z</time>
      </trkpt>
      <trkpt lat="45.805391" lon="6.725053">
        <ele>1153.642</ele>
        <time>2018-07-13T14:55:27Z</time>
      </trkpt>
      <trkpt lat="45.805348" lon="6.725019">
        <ele>1151.941</ele>
        <time>2018-07-13T14:55:31Z</time>
      </trkpt>
      <trkpt lat="45.805309" lon="6.724984">
        <ele>1150.586</ele>
        <time>2018-07-13T14:55:35Z</time>
      </trkpt>
      <trkpt lat="45.805264" lon="6.724964">
        <ele>1149.645</ele>
        <time>2018-07-13T14:55:39Z</time>
      </trkpt>
      <trkpt lat="45.805214" lon="6.724941">
        <ele>1149.599</ele>
        <time>2018-07-13T14:55:43Z</time>
      </trkpt>
      <trkpt lat="45.805169" lon="6.724910">
        <ele>1147.807</ele>
        <time>2018-07-13T14:55:47Z</time>
      </trkpt>
      <trkpt lat="45.805113" lon="6.724889">
        <ele>1148.027</ele>
        <time>2018-07-13T14:55:51Z</time>
      </trkpt>
      <trkpt lat="45.805060" lon="6.724875">
        <ele>1147.708</ele>
        <time>2018-07-13T14:55:55Z</time>
      </trkpt>
      <trkpt lat="45.805011" lon="6.724860">
        <ele>1147.171</ele>
        <time>2018-07-13T14:55:59Z</time>
      </trkpt>
      <trkpt lat="45.804961" lon="6.724857">
        <ele>1146.874</ele>
        <time>2018-07-13T14:56:03Z</time>
      </trkpt>
      <trkpt lat="45.804909" lon="6.724845">
        <ele>1146.683</ele>
        <time>2018-07-13T14:56:07Z</time>
      </trkpt>
      <trkpt lat="45.804860" lon="6.724834">
        <ele>1146.112</ele>
        <time>2018-07-13T14:56:11Z</time>
      </trkpt>
      <trkpt lat="45.804809" lon="6.724832">
        <ele>1145.462</ele>
        <time>2018-07-13T14:56:15Z</time>
      </trkpt>
      <trkpt lat="45.804762" lon="6.724826">
        <ele>1145.041</ele>
        <time>2018-07-13T14:56:19Z</time>
      </trkpt>
      <trkpt lat="45.804714" lon="6.724826">
        <ele>1145.146</ele>
        <time>2018-07-13T14:56:23Z</time>
      </trkpt>
      <trkpt lat="45.804665" lon="6.724819">
        <ele>1145.275</ele>
        <time>2018-07-13T14:56:27Z</time>
      </trkpt>
      <trkpt lat="45.804615" lon="6.724805">
        <ele>1144.982</ele>
        <time>2018-07-13T14:56:31Z</time>
      </trkpt>
      <trkpt lat="45.804566" lon="6.724793">
        <ele>1143.543</ele>
        <time>2018-07-13T14:56:35Z</time>
      </trkpt>
      <trkpt lat="45.804517" lon="6.724785">
        <ele>1142.717</ele>
        <time>2018-07-13T14:56:39Z</time>
      </trkpt>
      <trkpt lat="45.804467" lon="6.724777">
        <ele>1141.408</ele>
        <time>2018-07-13T14:56:43Z</time>
      </trkpt>
      <trkpt lat="45.804413" lon="6.724776">
        <ele>1140.270</ele>
        <time>2018-07-13T14:56:47Z</time>
      </trkpt>
      <trkpt lat="45.804357" lon="6.724773">
        <ele>1139.963</ele>
        <time>2018-07-13T14:56:51Z</time>
      </trkpt>
      <trkpt lat="45.804299" lon="6.724768">
        <ele>1140.512</ele>
        <time>2018-07-13T14:56:55Z</time>
      </trkpt>
      <trkpt lat="45.804246" lon="6.724763">
        <ele>1140.961</ele>
        <time>2018-07-13T14:56:59Z</time>
      </trkpt>
      <trkpt lat="45.804194" lon="6.724747">
        <ele>1141.521</ele>
        <time>2018-07-13T14:57:04Z</time>
      </trkpt>
      <trkpt lat="45.804141" lon="6.724728">
        <ele>1141.110</ele>
        <time>2018-07-13T14:57:09Z</time>
      </trkpt>
      <trkpt lat="45.804095" lon="6.724715">
        <ele>1140.885</ele>
        <time>2018-07-13T14:57:13Z</time>
      </trkpt>
      <trkpt lat="45.804050" lon="6.724692">
        <ele>1141.434</ele>
        <time>2018-07-13T14:57:17Z</time>
      </trkpt>
      <trkpt lat="45.803995" lon="6.724669">
        <ele>1142.297</ele>
        <time>2018-07-13T14:57:21Z</time>
      </trkpt>
      <trkpt lat="45.803952" lon="6.724651">
        <ele>1142.723</ele>
        <time>2018-07-13T14:57:24Z</time>
      </trkpt>
      <trkpt lat="45.803902" lon="6.724622">
        <ele>1142.625</ele>
        <time>2018-07-13T14:57:28Z</time>
      </trkpt>
      <trkpt lat="45.803861" lon="6.724594">
        <ele>1142.508</ele>
        <time>2018-07-13T14:57:31Z</time>
      </trkpt>
      <trkpt lat="45.803807" lon="6.724555">
        <ele>1143.751</ele>
        <time>2018-07-13T14:57:35Z</time>
      </trkpt>
      <trkpt lat="45.803766" lon="6.724528">
        <ele>1144.824</ele>
        <time>2018-07-13T14:57:38Z</time>
      </trkpt>
      <trkpt lat="45.803714" lon="6.724489">
        <ele>1145.983</ele>
        <time>2018-07-13T14:57:42Z</time>
      </trkpt>
      <trkpt lat="45.803672" lon="6.724468">
        <ele>1146.992</ele>
        <time>2018-07-13T14:57:45Z</time>
      </trkpt>
      <trkpt lat="45.803620" lon="6.724443">
        <ele>1147.122</ele>
        <time>2018-07-13T14:57:49Z</time>
      </trkpt>
      <trkpt lat="45.803567" lon="6.724424">
        <ele>1148.841</ele>
        <time>2018-07-13T14:57:53Z</time>
      </trkpt>
      <trkpt lat="45.803513" lon="6.724405">
        <ele>1149.466</ele>
        <time>2018-07-13T14:57:58Z</time>
      </trkpt>
      <trkpt lat="45.803464" lon="6.724408">
        <ele>1151.035</ele>
        <time>2018-07-13T14:58:02Z</time>
      </trkpt>
      <trkpt lat="45.803407" lon="6.724419">
        <ele>1152.413</ele>
        <time>2018-07-13T14:58:06Z</time>
      </trkpt>
      <trkpt lat="45.803359" lon="6.724430">
        <ele>1153.243</ele>
        <time>2018-07-13T14:58:10Z</time>
      </trkpt>
      <trkpt lat="45.803308" lon="6.724448">
        <ele>1154.107</ele>
        <time>2018-07-13T14:58:14Z</time>
      </trkpt>
      <trkpt lat="45.803264" lon="6.724475">
        <ele>1154.608</ele>
        <time>2018-07-13T14:58:18Z</time>
      </trkpt>
      <trkpt lat="45.803221" lon="6.724509">
        <ele>1156.573</ele>
        <time>2018-07-13T14:58:22Z</time>
      </trkpt>
      <trkpt lat="45.803160" lon="6.724566">
        <ele>1158.186</ele>
        <time>2018-07-13T14:58:28Z</time>
      </trkpt>
      <trkpt lat="45.803115" lon="6.724588">
        <ele>1159.435</ele>
        <time>2018-07-13T14:58:32Z</time>
      </trkpt>
      <trkpt lat="45.803064" lon="6.724609">
        <ele>1161.084</ele>
        <time>2018-07-13T14:58:36Z</time>
      </trkpt>
      <trkpt lat="45.803015" lon="6.724634">
        <ele>1163.694</ele>
        <time>2018-07-13T14:58:40Z</time>
      </trkpt>
      <trkpt lat="45.802967" lon="6.724653">
        <ele>1166.343</ele>
        <time>2018-07-13T14:58:43Z</time>
      </trkpt>
      <trkpt lat="45.802914" lon="6.724670">
        <ele>1168.788</ele>
        <time>2018-07-13T14:58:46Z</time>
      </trkpt>
      <trkpt lat="45.802860" lon="6.724676">
        <ele>1170.667</ele>
        <time>2018-07-13T14:58:49Z</time>
      </trkpt>
      <trkpt lat="45.802812" lon="6.724668">
        <ele>1171.731</ele>
        <time>2018-07-13T14:58:52Z</time>
      </trkpt>
      <trkpt lat="45.802755" lon="6.724662">
        <ele>1172.861</ele>
        <time>2018-07-13T14:58:56Z</time>
      </trkpt>
      <trkpt lat="45.802707" lon="6.724652">
        <ele>1172.207</ele>
        <time>2018-07-13T14:59:00Z</time>
      </trkpt>
      <trkpt lat="45.802661" lon="6.724632">
        <ele>1171.108</ele>
        <time>2018-07-13T14:59:04Z</time>
      </trkpt>
      <trkpt lat="45.802610" lon="6.724618">
        <ele>1170.425</ele>
        <time>2018-07-13T14:59:08Z</time>
      </trkpt>
      <trkpt lat="45.802564" lon="6.724608">
        <ele>1169.228</ele>
        <time>2018-07-13T14:59:12Z</time>
      </trkpt>
      <trkpt lat="45.802514" lon="6.724597">
        <ele>1169.397</ele>
        <time>2018-07-13T14:59:17Z</time>
      </trkpt>
      <trkpt lat="45.802468" lon="6.724592">
        <ele>1170.966</ele>
        <time>2018-07-13T14:59:32Z</time>
      </trkpt>
      <trkpt lat="45.802430" lon="6.724631">
        <ele>1174.986</ele>
        <time>2018-07-13T14:59:48Z</time>
      </trkpt>
      <trkpt lat="45.802384" lon="6.724633">
        <ele>1178.925</ele>
        <time>2018-07-13T14:59:52Z</time>
      </trkpt>
      <trkpt lat="45.802333" lon="6.724631">
        <ele>1182.940</ele>
        <time>2018-07-13T14:59:56Z</time>
      </trkpt>
      <trkpt lat="45.802283" lon="6.724635">
        <ele>1186.969</ele>
        <time>2018-07-13T15:00:00Z</time>
      </trkpt>
      <trkpt lat="45.802230" lon="6.724642">
        <ele>1190.947</ele>
        <time>2018-07-13T15:00:05Z</time>
      </trkpt>
      <trkpt lat="45.802173" lon="6.724637">
        <ele>1194.729</ele>
        <time>2018-07-13T15:00:10Z</time>
      </trkpt>
      <trkpt lat="45.802124" lon="6.724609">
        <ele>1197.421</ele>
        <time>2018-07-13T15:00:15Z</time>
      </trkpt>
      <trkpt lat="45.802070" lon="6.724594">
        <ele>1198.208</ele>
        <time>2018-07-13T15:00:20Z</time>
      </trkpt>
      <trkpt lat="45.802022" lon="6.724583">
        <ele>1198.336</ele>
        <time>2018-07-13T15:00:25Z</time>
      </trkpt>
      <trkpt lat="45.801966" lon="6.724568">
        <ele>1197.539</ele>
        <time>2018-07-13T15:00:29Z</time>
      </trkpt>
      <trkpt lat="45.801919" lon="6.724567">
        <ele>1196.628</ele>
        <time>2018-07-13T15:00:34Z</time>
      </trkpt>
      <trkpt lat="45.801876" lon="6.724540">
        <ele>1194.937</ele>
        <time>2018-07-13T15:00:38Z</time>
      </trkpt>
      <trkpt lat="45.801830" lon="6.724511">
        <ele>1193.517</ele>
        <time>2018-07-13T15:00:43Z</time>
      </trkpt>
      <trkpt lat="45.801784" lon="6.724514">
        <ele>1191.426</ele>
        <time>2018-07-13T15:00:48Z</time>
      </trkpt>
      <trkpt lat="45.801735" lon="6.724535">
        <ele>1187.411</ele>
        <time>2018-07-13T15:01:31Z</time>
      </trkpt>
      <trkpt lat="45.801684" lon="6.724527">
        <ele>1183.870</ele>
        <time>2018-07-13T15:01:35Z</time>
      </trkpt>
      <trkpt lat="45.801635" lon="6.724522">
        <ele>1180.873</ele>
        <time>2018-07-13T15:01:39Z</time>
      </trkpt>
      <trkpt lat="45.801585" lon="6.724513">
        <ele>1179.485</ele>
        <time>2018-07-13T15:01:43Z</time>
      </trkpt>
      <trkpt lat="45.801540" lon="6.724495">
        <ele>1178.213</ele>
        <time>2018-07-13T15:01:47Z</time>
      </trkpt>
      <trkpt lat="45.801497" lon="6.724457">
        <ele>1177.908</ele>
        <time>2018-07-13T15:01:54Z</time>
      </trkpt>
      <trkpt lat="45.801453" lon="6.724442">
        <ele>1176.949</ele>
        <time>2018-07-13T15:01:59Z</time>
      </trkpt>
      <trkpt lat="45.801406" lon="6.724428">
        <ele>1176.392</ele>
        <time>2018-07-13T15:02:03Z</time>
      </trkpt>
      <trkpt lat="45.801356" lon="6.724410">
        <ele>1175.161</ele>
        <time>2018-07-13T15:02:07Z</time>
      </trkpt>
      <trkpt lat="45.801306" lon="6.724395">
        <ele>1173.240</ele>
        <time>2018-07-13T15:02:12Z</time>
      </trkpt>
      <trkpt lat="45.801258" lon="6.724383">
        <ele>1172.150</ele>
        <time>2018-07-13T15:02:16Z</time>
      </trkpt>
      <trkpt lat="45.801207" lon="6.724367">
        <ele>1171.029</ele>
        <time>2018-07-13T15:02:20Z</time>
      </trkpt>
      <trkpt lat="45.801161" lon="6.724349">
        <ele>1170.454</ele>
        <time>2018-07-13T15:02:24Z</time>
      </trkpt>
      <trkpt lat="45.801115" lon="6.724335">
        <ele>1169.253</ele>
        <time>2018-07-13T15:02:28Z</time>
      </trkpt>
      <trkpt lat="45.801067" lon="6.724330">
        <ele>1169.729</ele>
        <time>2018-07-13T15:02:33Z</time>
      </trkpt>
      <trkpt lat="45.801022" lon="6.724316">
        <ele>1168.400</ele>
        <time>2018-07-13T15:02:37Z</time>
      </trkpt>
      <trkpt lat="45.800978" lon="6.724292">
        <ele>1166.820</ele>
        <time>2018-07-13T15:02:41Z</time>
      </trkpt>
      <trkpt lat="45.800930" lon="6.724271">
        <ele>1166.208</ele>
        <time>2018-07-13T15:02:45Z</time>
      </trkpt>
      <trkpt lat="45.800880" lon="6.724243">
        <ele>1166.764</ele>
        <time>2018-07-13T15:02:49Z</time>
      </trkpt>
      <trkpt lat="45.800836" lon="6.724230">
        <ele>1167.897</ele>
        <time>2018-07-13T15:02:52Z</time>
      </trkpt>
      <trkpt lat="45.800785" lon="6.724221">
        <ele>1168.096</ele>
        <time>2018-07-13T15:02:56Z</time>
      </trkpt>
      <trkpt lat="45.800738" lon="6.724211">
        <ele>1167.785</ele>
        <time>2018-07-13T15:03:00Z</time>
      </trkpt>
      <trkpt lat="45.800689" lon="6.724202">
        <ele>1167.135</ele>
        <time>2018-07-13T15:03:04Z</time>
      </trkpt>
      <trkpt lat="45.800643" lon="6.724192">
        <ele>1168.044</ele>
        <time>2018-07-13T15:03:08Z</time>
      </trkpt>
      <trkpt lat="45.800547" lon="6.724172">
        <ele>1195.271</ele>
        <time>2018-07-14T08:49:31Z</time>
      </trkpt>
      <trkpt lat="45.800515" lon="6.724125">
        <ele>1195.241</ele>
        <time>2018-07-14T08:49:52Z</time>
      </trkpt>
      <trkpt lat="45.800458" lon="6.724126">
        <ele>1195.215</ele>
        <time>2018-07-14T08:49:57Z</time>
      </trkpt>
      <trkpt lat="45.800411" lon="6.724105">
        <ele>1195.208</ele>
        <time>2018-07-14T08:50:01Z</time>
      </trkpt>
      <trkpt lat="45.800363" lon="6.724088">
        <ele>1195.259</ele>
        <time>2018-07-14T08:50:06Z</time>
      </trkpt>
      <trkpt lat="45.800309" lon="6.724089">
        <ele>1195.223</ele>
        <time>2018-07-14T08:50:12Z</time>
      </trkpt>
      <trkpt lat="45.800252" lon="6.724112">
        <ele>1195.213</ele>
        <time>2018-07-14T08:50:18Z</time>
      </trkpt>
      <trkpt lat="45.800201" lon="6.724112">
        <ele>1195.250</ele>
        <time>2018-07-14T08:50:23Z</time>
      </trkpt>
      <trkpt lat="45.800144" lon="6.724117">
        <ele>1195.273</ele>
        <time>2018-07-14T08:50:27Z</time>
      </trkpt>
      <trkpt lat="45.800099" lon="6.724113">
        <ele>1195.248</ele>
        <time>2018-07-14T08:50:31Z</time>
      </trkpt>
      <trkpt lat="45.800052" lon="6.724099">
        <ele>1195.224</ele>
        <time>2018-07-14T08:50:36Z</time>
      </trkpt>
      <trkpt lat="45.800010" lon="6.724070">
        <ele>1195.219</ele>
        <time>2018-07-14T08:50:40Z</time>
      </trkpt>
      <trkpt lat="45.799966" lon="6.724044">
        <ele>1195.223</ele>
        <time>2018-07-14T08:50:44Z</time>
      </trkpt>
      <trkpt lat="45.799919" lon="6.724019">
        <ele>1195.283</ele>
        <time>2018-07-14T08:50:48Z</time>
      </trkpt>
      <trkpt lat="45.799876" lon="6.723991">
        <ele>1195.211</ele>
        <time>2018-07-14T08:50:52Z</time>
      </trkpt>
      <trkpt lat="45.799827" lon="6.723960">
        <ele>1195.508</ele>
        <time>2018-07-14T08:50:56Z</time>
      </trkpt>
      <trkpt lat="45.799782" lon="6.723923">
        <ele>1195.464</ele>
        <time>2018-07-14T08:51:00Z</time>
      </trkpt>
      <trkpt lat="45.799736" lon="6.723882">
        <ele>1196.088</ele>
        <time>2018-07-14T08:51:04Z</time>
      </trkpt>
      <trkpt lat="45.799694" lon="6.723837">
        <ele>1195.868</ele>
        <time>2018-07-14T08:51:08Z</time>
      </trkpt>
      <trkpt lat="45.799656" lon="6.723785">
        <ele>1196.235</ele>
        <time>2018-07-14T08:51:12Z</time>
      </trkpt>
      <trkpt lat="45.799630" lon="6.723728">
        <ele>1196.368</ele>
        <time>2018-07-14T08:51:16Z</time>
      </trkpt>
      <trkpt lat="45.799609" lon="6.723653">
        <ele>1196.453</ele>
        <time>2018-07-14T08:51:21Z</time>
      </trkpt>
      <trkpt lat="45.799589" lon="6.723588">
        <ele>1196.649</ele>
        <time>2018-07-14T08:51:25Z</time>
      </trkpt>
      <trkpt lat="45.799568" lon="6.723523">
        <ele>1196.274</ele>
        <time>2018-07-14T08:51:29Z</time>
      </trkpt>
      <trkpt lat="45.799548" lon="6.723463">
        <ele>1198.377</ele>
        <time>2018-07-14T08:51:33Z</time>
      </trkpt>
      <trkpt lat="45.799523" lon="6.723398">
        <ele>1196.961</ele>
        <time>2018-07-14T08:51:37Z</time>
      </trkpt>
      <trkpt lat="45.799497" lon="6.723330">
        <ele>1198.527</ele>
        <time>2018-07-14T08:51:41Z</time>
      </trkpt>
      <trkpt lat="45.799468" lon="6.723276">
        <ele>1196.808</ele>
        <time>2018-07-14T08:51:45Z</time>
      </trkpt>
      <trkpt lat="45.799433" lon="6.723214">
        <ele>1196.929</ele>
        <time>2018-07-14T08:51:49Z</time>
      </trkpt>
      <trkpt lat="45.799397" lon="6.723157">
        <ele>1197.243</ele>
        <time>2018-07-14T08:51:53Z</time>
      </trkpt>
      <trkpt lat="45.799351" lon="6.723097">
        <ele>1197.113</ele>
        <time>2018-07-14T08:51:57Z</time>
      </trkpt>
      <trkpt lat="45.799315" lon="6.723050">
        <ele>1197.440</ele>
        <time>2018-07-14T08:52:00Z</time>
      </trkpt>
      <trkpt lat="45.799276" lon="6.723000">
        <ele>1197.683</ele>
        <time>2018-07-14T08:52:03Z</time>
      </trkpt>
      <trkpt lat="45.799236" lon="6.722957">
        <ele>1197.718</ele>
        <time>2018-07-14T08:52:06Z</time>
      </trkpt>
      <trkpt lat="45.799202" lon="6.722912">
        <ele>1197.824</ele>
        <time>2018-07-14T08:52:11Z</time>
      </trkpt>
      <trkpt lat="45.799154" lon="6.722874">
        <ele>1198.149</ele>
        <time>2018-07-14T08:52:15Z</time>
      </trkpt>
      <trkpt lat="45.799107" lon="6.722837">
        <ele>1197.585</ele>
        <time>2018-07-14T08:52:19Z</time>
      </trkpt>
      <trkpt lat="45.799067" lon="6.722795">
        <ele>1197.989</ele>
        <time>2018-07-14T08:52:23Z</time>
      </trkpt>
      <trkpt lat="45.799022" lon="6.722737">
        <ele>1198.517</ele>
        <time>2018-07-14T08:52:33Z</time>
      </trkpt>
      <trkpt lat="45.798985" lon="6.722697">
        <ele>1197.908</ele>
        <time>2018-07-14T08:52:36Z</time>
      </trkpt>
      <trkpt lat="45.798941" lon="6.722647">
        <ele>1200.690</ele>
        <time>2018-07-14T08:52:40Z</time>
      </trkpt>
      <trkpt lat="45.798899" lon="6.722600">
        <ele>1198.924</ele>
        <time>2018-07-14T08:52:43Z</time>
      </trkpt>
      <trkpt lat="45.798851" lon="6.722547">
        <ele>1198.964</ele>
        <time>2018-07-14T08:52:46Z</time>
      </trkpt>
      <trkpt lat="45.798802" lon="6.722502">
        <ele>1198.271</ele>
        <time>2018-07-14T08:52:49Z</time>
      </trkpt>
      <trkpt lat="45.798763" lon="6.722464">
        <ele>1198.514</ele>
        <time>2018-07-14T08:52:52Z</time>
      </trkpt>
      <trkpt lat="45.798722" lon="6.722430">
        <ele>1199.099</ele>
        <time>2018-07-14T08:52:55Z</time>
      </trkpt>
      <trkpt lat="45.798677" lon="6.722382">
        <ele>1198.465</ele>
        <time>2018-07-14T08:52:59Z</time>
      </trkpt>
      <trkpt lat="45.798632" lon="6.722335">
        <ele>1198.940</ele>
        <time>2018-07-14T08:53:02Z</time>
      </trkpt>
      <trkpt lat="45.798595" lon="6.722293">
        <ele>1199.123</ele>
        <time>2018-07-14T08:53:05Z</time>
      </trkpt>
      <trkpt lat="45.798556" lon="6.722254">
        <ele>1199.183</ele>
        <time>2018-07-14T08:53:08Z</time>
      </trkpt>
      <trkpt lat="45.798516" lon="6.722216">
        <ele>1199.411</ele>
        <time>2018-07-14T08:53:11Z</time>
      </trkpt>
      <trkpt lat="45.798478" lon="6.722178">
        <ele>1198.908</ele>
        <time>2018-07-14T08:53:14Z</time>
      </trkpt>
      <trkpt lat="45.798440" lon="6.722143">
        <ele>1199.364</ele>
        <time>2018-07-14T08:53:17Z</time>
      </trkpt>
      <trkpt lat="45.798399" lon="6.722108">
        <ele>1199.758</ele>
        <time>2018-07-14T08:53:21Z</time>
      </trkpt>
      <trkpt lat="45.798355" lon="6.722071">
        <ele>1199.918</ele>
        <time>2018-07-14T08:53:26Z</time>
      </trkpt>
      <trkpt lat="45.798313" lon="6.722035">
        <ele>1199.865</ele>
        <time>2018-07-14T08:53:31Z</time>
      </trkpt>
      <trkpt lat="45.798268" lon="6.721997">
        <ele>1200.098</ele>
        <time>2018-07-14T08:53:36Z</time>
      </trkpt>
      <trkpt lat="45.798229" lon="6.721957">
        <ele>1200.263</ele>
        <time>2018-07-14T08:53:39Z</time>
      </trkpt>
      <trkpt lat="45.798183" lon="6.721908">
        <ele>1200.329</ele>
        <time>2018-07-14T08:53:43Z</time>
      </trkpt>
      <trkpt lat="45.798144" lon="6.721869">
        <ele>1200.424</ele>
        <time>2018-07-14T08:53:46Z</time>
      </trkpt>
      <trkpt lat="45.798101" lon="6.721825">
        <ele>1200.514</ele>
        <time>2018-07-14T08:53:50Z</time>
      </trkpt>
      <trkpt lat="45.798062" lon="6.721779">
        <ele>1200.054</ele>
        <time>2018-07-14T08:53:54Z</time>
      </trkpt>
      <trkpt lat="45.798019" lon="6.721727">
        <ele>1200.509</ele>
        <time>2018-07-14T08:53:58Z</time>
      </trkpt>
      <trkpt lat="45.797988" lon="6.721678">
        <ele>1200.708</ele>
        <time>2018-07-14T08:54:01Z</time>
      </trkpt>
      <trkpt lat="45.797949" lon="6.721620">
        <ele>1200.583</ele>
        <time>2018-07-14T08:54:05Z</time>
      </trkpt>
      <trkpt lat="45.797910" lon="6.721576">
        <ele>1202.437</ele>
        <time>2018-07-14T08:54:09Z</time>
      </trkpt>
      <trkpt lat="45.797867" lon="6.721532">
        <ele>1200.747</ele>
        <time>2018-07-14T08:54:14Z</time>
      </trkpt>
      <trkpt lat="45.797821" lon="6.721493">
        <ele>1201.074</ele>
        <time>2018-07-14T08:54:18Z</time>
      </trkpt>
      <trkpt lat="45.797781" lon="6.721451">
        <ele>1201.117</ele>
        <time>2018-07-14T08:54:22Z</time>
      </trkpt>
      <trkpt lat="45.797734" lon="6.721405">
        <ele>1201.122</ele>
        <time>2018-07-14T08:54:26Z</time>
      </trkpt>
      <trkpt lat="45.797687" lon="6.721354">
        <ele>1201.458</ele>
        <time>2018-07-14T08:54:30Z</time>
      </trkpt>
      <trkpt lat="45.797645" lon="6.721301">
        <ele>1201.173</ele>
        <time>2018-07-14T08:54:34Z</time>
      </trkpt>
      <trkpt lat="45.797608" lon="6.721257">
        <ele>1201.672</ele>
        <time>2018-07-14T08:54:37Z</time>
      </trkpt>
      <trkpt lat="45.797571" lon="6.721217">
        <ele>1201.513</ele>
        <time>2018-07-14T08:54:40Z</time>
      </trkpt>
      <trkpt lat="45.797519" lon="6.721174">
        <ele>1201.814</ele>
        <time>2018-07-14T08:54:44Z</time>
      </trkpt>
      <trkpt lat="45.797466" lon="6.721142">
        <ele>1201.608</ele>
        <time>2018-07-14T08:54:48Z</time>
      </trkpt>
      <trkpt lat="45.797420" lon="6.721101">
        <ele>1202.069</ele>
        <time>2018-07-14T08:54:52Z</time>
      </trkpt>
      <trkpt lat="45.797374" lon="6.721055">
        <ele>1201.853</ele>
        <time>2018-07-14T08:54:56Z</time>
      </trkpt>
      <trkpt lat="45.797334" lon="6.721025">
        <ele>1201.933</ele>
        <time>2018-07-14T08:54:59Z</time>
      </trkpt>
      <trkpt lat="45.797294" lon="6.720994">
        <ele>1201.940</ele>
        <time>2018-07-14T08:55:02Z</time>
      </trkpt>
      <trkpt lat="45.797247" lon="6.720948">
        <ele>1202.093</ele>
        <time>2018-07-14T08:55:06Z</time>
      </trkpt>
      <trkpt lat="45.797203" lon="6.720903">
        <ele>1202.218</ele>
        <time>2018-07-14T08:55:10Z</time>
      </trkpt>
      <trkpt lat="45.797166" lon="6.720860">
        <ele>1203.794</ele>
        <time>2018-07-14T08:55:14Z</time>
      </trkpt>
      <trkpt lat="45.797126" lon="6.720821">
        <ele>1202.389</ele>
        <time>2018-07-14T08:55:18Z</time>
      </trkpt>
      <trkpt lat="45.797075" lon="6.720796">
        <ele>1202.933</ele>
        <time>2018-07-14T08:55:22Z</time>
      </trkpt>
      <trkpt lat="45.797029" lon="6.720773">
        <ele>1202.923</ele>
        <time>2018-07-14T08:55:26Z</time>
      </trkpt>
      <trkpt lat="45.796986" lon="6.720744">
        <ele>1203.415</ele>
        <time>2018-07-14T08:55:30Z</time>
      </trkpt>
      <trkpt lat="45.796941" lon="6.720720">
        <ele>1203.408</ele>
        <time>2018-07-14T08:55:34Z</time>
      </trkpt>
      <trkpt lat="45.796895" lon="6.720684">
        <ele>1203.415</ele>
        <time>2018-07-14T08:55:38Z</time>
      </trkpt>
      <trkpt lat="45.796849" lon="6.720650">
        <ele>1204.149</ele>
        <time>2018-07-14T08:55:42Z</time>
      </trkpt>
      <trkpt lat="45.796801" lon="6.720611">
        <ele>1203.929</ele>
        <time>2018-07-14T08:55:46Z</time>
      </trkpt>
      <trkpt lat="45.796752" lon="6.720578">
        <ele>1204.096</ele>
        <time>2018-07-14T08:55:50Z</time>
      </trkpt>
      <trkpt lat="45.796711" lon="6.720551">
        <ele>1204.599</ele>
        <time>2018-07-14T08:55:54Z</time>
      </trkpt>
      <trkpt lat="45.796667" lon="6.720526">
        <ele>1204.434</ele>
        <time>2018-07-14T08:55:58Z</time>
      </trkpt>
      <trkpt lat="45.796615" lon="6.720503">
        <ele>1204.650</ele>
        <time>2018-07-14T08:56:03Z</time>
      </trkpt>
      <trkpt lat="45.796568" lon="6.720466">
        <ele>1204.785</ele>
        <time>2018-07-14T08:56:07Z</time>
      </trkpt>
      <trkpt lat="45.796526" lon="6.720436">
        <ele>1204.851</ele>
        <time>2018-07-14T08:56:10Z</time>
      </trkpt>
      <trkpt lat="45.796486" lon="6.720404">
        <ele>1205.101</ele>
        <time>2018-07-14T08:56:13Z</time>
      </trkpt>
      <trkpt lat="45.796438" lon="6.720364">
        <ele>1205.511</ele>
        <time>2018-07-14T08:56:17Z</time>
      </trkpt>
      <trkpt lat="45.796399" lon="6.720330">
        <ele>1205.108</ele>
        <time>2018-07-14T08:56:21Z</time>
      </trkpt>
      <trkpt lat="45.796361" lon="6.720287">
        <ele>1205.477</ele>
        <time>2018-07-14T08:56:26Z</time>
      </trkpt>
      <trkpt lat="45.796323" lon="6.720239">
        <ele>1208.111</ele>
        <time>2018-07-14T08:56:32Z</time>
      </trkpt>
      <trkpt lat="45.796287" lon="6.720186">
        <ele>1205.791</ele>
        <time>2018-07-14T08:56:37Z</time>
      </trkpt>
      <trkpt lat="45.796247" lon="6.720134">
        <ele>1206.028</ele>
        <time>2018-07-14T08:56:41Z</time>
      </trkpt>
      <trkpt lat="45.796208" lon="6.720092">
        <ele>1206.211</ele>
        <time>2018-07-14T08:56:44Z</time>
      </trkpt>
      <trkpt lat="45.796169" lon="6.720053">
        <ele>1206.286</ele>
        <time>2018-07-14T08:56:47Z</time>
      </trkpt>
      <trkpt lat="45.796121" lon="6.720009">
        <ele>1206.182</ele>
        <time>2018-07-14T08:56:51Z</time>
      </trkpt>
      <trkpt lat="45.796084" lon="6.719972">
        <ele>1206.677</ele>
        <time>2018-07-14T08:56:54Z</time>
      </trkpt>
      <trkpt lat="45.796043" lon="6.719937">
        <ele>1206.578</ele>
        <time>2018-07-14T08:56:57Z</time>
      </trkpt>
      <trkpt lat="45.796002" lon="6.719907">
        <ele>1206.733</ele>
        <time>2018-07-14T08:57:01Z</time>
      </trkpt>
      <trkpt lat="45.795957" lon="6.719878">
        <ele>1206.926</ele>
        <time>2018-07-14T08:57:05Z</time>
      </trkpt>
      <trkpt lat="45.795913" lon="6.719851">
        <ele>1206.908</ele>
        <time>2018-07-14T08:57:09Z</time>
      </trkpt>
      <trkpt lat="45.795872" lon="6.719813">
        <ele>1207.019</ele>
        <time>2018-07-14T08:57:13Z</time>
      </trkpt>
      <trkpt lat="45.795825" lon="6.719775">
        <ele>1207.513</ele>
        <time>2018-07-14T08:57:17Z</time>
      </trkpt>
      <trkpt lat="45.795776" lon="6.719736">
        <ele>1207.383</ele>
        <time>2018-07-14T08:57:21Z</time>
      </trkpt>
      <trkpt lat="45.795734" lon="6.719694">
        <ele>1207.890</ele>
        <time>2018-07-14T08:57:25Z</time>
      </trkpt>
      <trkpt lat="45.795695" lon="6.719653">
        <ele>1208.513</ele>
        <time>2018-07-14T08:57:29Z</time>
      </trkpt>
      <trkpt lat="45.795650" lon="6.719613">
        <ele>1208.278</ele>
        <time>2018-07-14T08:57:33Z</time>
      </trkpt>
      <trkpt lat="45.795603" lon="6.719577">
        <ele>1209.084</ele>
        <time>2018-07-14T08:57:37Z</time>
      </trkpt>
      <trkpt lat="45.795555" lon="6.719542">
        <ele>1209.029</ele>
        <time>2018-07-14T08:57:41Z</time>
      </trkpt>
      <trkpt lat="45.795507" lon="6.719501">
        <ele>1209.081</ele>
        <time>2018-07-14T08:57:45Z</time>
      </trkpt>
      <trkpt lat="45.795465" lon="6.719462">
        <ele>1209.161</ele>
        <time>2018-07-14T08:57:49Z</time>
      </trkpt>
      <trkpt lat="45.795425" lon="6.719422">
        <ele>1209.417</ele>
        <time>2018-07-14T08:57:53Z</time>
      </trkpt>
      <trkpt lat="45.795382" lon="6.719380">
        <ele>1209.508</ele>
        <time>2018-07-14T08:57:57Z</time>
      </trkpt>
      <trkpt lat="45.795339" lon="6.719344">
        <ele>1209.770</ele>
        <time>2018-07-14T08:58:01Z</time>
      </trkpt>
      <trkpt lat="45.795292" lon="6.719320">
        <ele>1210.164</ele>
        <time>2018-07-14T08:58:05Z</time>
      </trkpt>
      <trkpt lat="45.795245" lon="6.719296">
        <ele>1211.424</ele>
        <time>2018-07-14T08:58:09Z</time>
      </trkpt>
      <trkpt lat="45.795196" lon="6.719274">
        <ele>1210.561</ele>
        <time>2018-07-14T08:58:13Z</time>
      </trkpt>
      <trkpt lat="45.795154" lon="6.719245">
        <ele>1210.254</ele>
        <time>2018-07-14T08:58:17Z</time>
      </trkpt>
      <trkpt lat="45.795113" lon="6.719201">
        <ele>1210.539</ele>
        <time>2018-07-14T08:58:21Z</time>
      </trkpt>
      <trkpt lat="45.795071" lon="6.719155">
        <ele>1210.495</ele>
        <time>2018-07-14T08:58:25Z</time>
      </trkpt>
      <trkpt lat="45.795030" lon="6.719106">
        <ele>1211.130</ele>
        <time>2018-07-14T08:58:29Z</time>
      </trkpt>
      <trkpt lat="45.794988" lon="6.719068">
        <ele>1211.265</ele>
        <time>2018-07-14T08:58:33Z</time>
      </trkpt>
      <trkpt lat="45.794943" lon="6.719019">
        <ele>1211.468</ele>
        <time>2018-07-14T08:58:37Z</time>
      </trkpt>
      <trkpt lat="45.794901" lon="6.718988">
        <ele>1211.614</ele>
        <time>2018-07-14T08:58:40Z</time>
      </trkpt>
      <trkpt lat="45.794847" lon="6.718968">
        <ele>1211.908</ele>
        <time>2018-07-14T08:58:44Z</time>
      </trkpt>
      <trkpt lat="45.794803" lon="6.718933">
        <ele>1211.718</ele>
        <time>2018-07-14T08:58:48Z</time>
      </trkpt>
      <trkpt lat="45.794756" lon="6.718893">
        <ele>1212.432</ele>
        <time>2018-07-14T08:58:52Z</time>
      </trkpt>
      <trkpt lat="45.794716" lon="6.718859">
        <ele>1212.942</ele>
        <time>2018-07-14T08:58:56Z</time>
      </trkpt>
      <trkpt lat="45.794673" lon="6.718816">
        <ele>1213.429</ele>
        <time>2018-07-14T08:59:01Z</time>
      </trkpt>
      <trkpt lat="45.794632" lon="6.718752">
        <ele>1213.222</ele>
        <time>2018-07-14T08:59:08Z</time>
      </trkpt>
      <trkpt lat="45.794595" lon="6.718702">
        <ele>1214.687</ele>
        <time>2018-07-14T08:59:12Z</time>
      </trkpt>
      <trkpt lat="45.794550" lon="6.718650">
        <ele>1216.073</ele>
        <time>2018-07-14T08:59:18Z</time>
      </trkpt>
      <trkpt lat="45.794504" lon="6.718608">
        <ele>1215.488</ele>
        <time>2018-07-14T08:59:23Z</time>
      </trkpt>
      <trkpt lat="45.794471" lon="6.718556">
        <ele>1215.369</ele>
        <time>2018-07-14T08:59:29Z</time>
      </trkpt>
      <trkpt lat="45.794423" lon="6.718551">
        <ele>1215.204</ele>
        <time>2018-07-14T08:59:34Z</time>
      </trkpt>
      <trkpt lat="45.794362" lon="6.718517">
        <ele>1216.124</ele>
        <time>2018-07-14T08:59:47Z</time>
      </trkpt>
      <trkpt lat="45.794289" lon="6.718487">
        <ele>1214.608</ele>
        <time>2018-07-14T08:59:57Z</time>
      </trkpt>
      <trkpt lat="45.794229" lon="6.718479">
        <ele>1214.488</ele>
        <time>2018-07-14T09:00:00Z</time>
      </trkpt>
      <trkpt lat="45.794175" lon="6.718464">
        <ele>1216.372</ele>
        <time>2018-07-14T09:00:03Z</time>
      </trkpt>
      <trkpt lat="45.794130" lon="6.718454">
        <ele>1214.612</ele>
        <time>2018-07-14T09:00:06Z</time>
      </trkpt>
      <trkpt lat="45.794083" lon="6.718436">
        <ele>1214.819</ele>
        <time>2018-07-14T09:00:10Z</time>
      </trkpt>
      <trkpt lat="45.794034" lon="6.718431">
        <ele>1215.392</ele>
        <time>2018-07-14T09:00:13Z</time>
      </trkpt>
      <trkpt lat="45.793986" lon="6.718430">
        <ele>1215.527</ele>
        <time>2018-07-14T09:00:16Z</time>
      </trkpt>
      <trkpt lat="45.793939" lon="6.718418">
        <ele>1215.313</ele>
        <time>2018-07-14T09:00:20Z</time>
      </trkpt>
      <trkpt lat="45.793896" lon="6.718397">
        <ele>1214.888</ele>
        <time>2018-07-14T09:00:26Z</time>
      </trkpt>
      <trkpt lat="45.793851" lon="6.718379">
        <ele>1215.158</ele>
        <time>2018-07-14T09:00:38Z</time>
      </trkpt>
      <trkpt lat="45.793798" lon="6.718387">
        <ele>1215.652</ele>
        <time>2018-07-14T09:00:46Z</time>
      </trkpt>
      <trkpt lat="45.793737" lon="6.718399">
        <ele>1215.817</ele>
        <time>2018-07-14T09:00:50Z</time>
      </trkpt>
      <trkpt lat="45.793683" lon="6.718405">
        <ele>1216.008</ele>
        <time>2018-07-14T09:00:53Z</time>
      </trkpt>
      <trkpt lat="45.793635" lon="6.718401">
        <ele>1215.757</ele>
        <time>2018-07-14T09:00:57Z</time>
      </trkpt>
      <trkpt lat="45.793583" lon="6.718393">
        <ele>1216.321</ele>
        <time>2018-07-14T09:01:04Z</time>
      </trkpt>
      <trkpt lat="45.793536" lon="6.718357">
        <ele>1216.481</ele>
        <time>2018-07-14T09:01:08Z</time>
      </trkpt>
      <trkpt lat="45.793490" lon="6.718336">
        <ele>1216.348</ele>
        <time>2018-07-14T09:01:11Z</time>
      </trkpt>
      <trkpt lat="45.793441" lon="6.718302">
        <ele>1216.991</ele>
        <time>2018-07-14T09:01:15Z</time>
      </trkpt>
      <trkpt lat="45.793390" lon="6.718277">
        <ele>1216.876</ele>
        <time>2018-07-14T09:01:19Z</time>
      </trkpt>
      <trkpt lat="45.793353" lon="6.718226">
        <ele>1219.782</ele>
        <time>2018-07-14T09:01:24Z</time>
      </trkpt>
      <trkpt lat="45.793337" lon="6.718151">
        <ele>1217.577</ele>
        <time>2018-07-14T09:01:29Z</time>
      </trkpt>
      <trkpt lat="45.793317" lon="6.718081">
        <ele>1217.779</ele>
        <time>2018-07-14T09:01:34Z</time>
      </trkpt>
      <trkpt lat="45.793260" lon="6.718068">
        <ele>1217.905</ele>
        <time>2018-07-14T09:01:36Z</time>
      </trkpt>
      <trkpt lat="45.793193" lon="6.718061">
        <ele>1217.925</ele>
        <time>2018-07-14T09:01:38Z</time>
      </trkpt>
      <trkpt lat="45.793148" lon="6.718048">
        <ele>1220.508</ele>
        <time>2018-07-14T09:01:40Z</time>
      </trkpt>
      <trkpt lat="45.793099" lon="6.718023">
        <ele>1220.369</ele>
        <time>2018-07-14T09:01:43Z</time>
      </trkpt>
      <trkpt lat="45.793052" lon="6.717993">
        <ele>1220.823</ele>
        <time>2018-07-14T09:01:46Z</time>
      </trkpt>
      <trkpt lat="45.793014" lon="6.717956">
        <ele>1220.673</ele>
        <time>2018-07-14T09:01:49Z</time>
      </trkpt>
      <trkpt lat="45.792979" lon="6.717913">
        <ele>1220.870</ele>
        <time>2018-07-14T09:01:52Z</time>
      </trkpt>
      <trkpt lat="45.792942" lon="6.717861">
        <ele>1220.923</ele>
        <time>2018-07-14T09:01:56Z</time>
      </trkpt>
      <trkpt lat="45.792922" lon="6.717799">
        <ele>1221.298</ele>
        <time>2018-07-14T09:02:00Z</time>
      </trkpt>
      <trkpt lat="45.792924" lon="6.717733">
        <ele>1221.554</ele>
        <time>2018-07-14T09:02:05Z</time>
      </trkpt>
      <trkpt lat="45.792922" lon="6.717659">
        <ele>1221.539</ele>
        <time>2018-07-14T09:02:10Z</time>
      </trkpt>
      <trkpt lat="45.792911" lon="6.717588">
        <ele>1222.019</ele>
        <time>2018-07-14T09:02:14Z</time>
      </trkpt>
      <trkpt lat="45.792888" lon="6.717518">
        <ele>1221.909</ele>
        <time>2018-07-14T09:02:18Z</time>
      </trkpt>
      <trkpt lat="45.792864" lon="6.717454">
        <ele>1220.019</ele>
        <time>2018-07-14T09:02:22Z</time>
      </trkpt>
      <trkpt lat="45.792812" lon="6.717409">
        <ele>1220.008</ele>
        <time>2018-07-14T09:02:27Z</time>
      </trkpt>
      <trkpt lat="45.792779" lon="6.717364">
        <ele>1220.433</ele>
        <time>2018-07-14T09:02:31Z</time>
      </trkpt>
      <trkpt lat="45.792754" lon="6.717308">
        <ele>1222.477</ele>
        <time>2018-07-14T09:02:35Z</time>
      </trkpt>
      <trkpt lat="45.792724" lon="6.717260">
        <ele>1222.837</ele>
        <time>2018-07-14T09:02:39Z</time>
      </trkpt>
      <trkpt lat="45.792681" lon="6.717211">
        <ele>1220.374</ele>
        <time>2018-07-14T09:02:44Z</time>
      </trkpt>
      <trkpt lat="45.792639" lon="6.717161">
        <ele>1221.317</ele>
        <time>2018-07-14T09:02:49Z</time>
      </trkpt>
      <trkpt lat="45.792600" lon="6.717116">
        <ele>1220.972</ele>
        <time>2018-07-14T09:02:53Z</time>
      </trkpt>
      <trkpt lat="45.792549" lon="6.717084">
        <ele>1222.178</ele>
        <time>2018-07-14T09:02:56Z</time>
      </trkpt>
      <trkpt lat="45.792497" lon="6.717041">
        <ele>1220.923</ele>
        <time>2018-07-14T09:03:00Z</time>
      </trkpt>
      <trkpt lat="45.792452" lon="6.717003">
        <ele>1221.993</ele>
        <time>2018-07-14T09:03:04Z</time>
      </trkpt>
      <trkpt lat="45.792414" lon="6.716958">
        <ele>1221.665</ele>
        <time>2018-07-14T09:03:08Z</time>
      </trkpt>
      <trkpt lat="45.792373" lon="6.716923">
        <ele>1223.621</ele>
        <time>2018-07-14T09:03:11Z</time>
      </trkpt>
      <trkpt lat="45.792316" lon="6.716902">
        <ele>1222.508</ele>
        <time>2018-07-14T09:03:14Z</time>
      </trkpt>
      <trkpt lat="45.792282" lon="6.716858">
        <ele>1222.341</ele>
        <time>2018-07-14T09:03:18Z</time>
      </trkpt>
      <trkpt lat="45.792237" lon="6.716804">
        <ele>1222.295</ele>
        <time>2018-07-14T09:03:23Z</time>
      </trkpt>
      <trkpt lat="45.792193" lon="6.716762">
        <ele>1221.865</ele>
        <time>2018-07-14T09:03:27Z</time>
      </trkpt>
      <trkpt lat="45.792154" lon="6.716727">
        <ele>1222.232</ele>
        <time>2018-07-14T09:03:30Z</time>
      </trkpt>
      <trkpt lat="45.792108" lon="6.716687">
        <ele>1221.975</ele>
        <time>2018-07-14T09:03:34Z</time>
      </trkpt>
      <trkpt lat="45.792061" lon="6.716656">
        <ele>1222.480</ele>
        <time>2018-07-14T09:03:38Z</time>
      </trkpt>
      <trkpt lat="45.792017" lon="6.716631">
        <ele>1222.426</ele>
        <time>2018-07-14T09:03:41Z</time>
      </trkpt>
      <trkpt lat="45.791970" lon="6.716585">
        <ele>1224.941</ele>
        <time>2018-07-14T09:03:45Z</time>
      </trkpt>
      <trkpt lat="45.791930" lon="6.716531">
        <ele>1225.075</ele>
        <time>2018-07-14T09:03:50Z</time>
      </trkpt>
      <trkpt lat="45.791885" lon="6.716479">
        <ele>1222.928</ele>
        <time>2018-07-14T09:03:54Z</time>
      </trkpt>
      <trkpt lat="45.791849" lon="6.716431">
        <ele>1222.920</ele>
        <time>2018-07-14T09:03:58Z</time>
      </trkpt>
      <trkpt lat="45.791829" lon="6.716364">
        <ele>1225.508</ele>
        <time>2018-07-14T09:04:03Z</time>
      </trkpt>
      <trkpt lat="45.791805" lon="6.716298">
        <ele>1226.089</ele>
        <time>2018-07-14T09:04:28Z</time>
      </trkpt>
      <trkpt lat="45.791776" lon="6.716233">
        <ele>1226.313</ele>
        <time>2018-07-14T09:04:33Z</time>
      </trkpt>
      <trkpt lat="45.791741" lon="6.716188">
        <ele>1226.273</ele>
        <time>2018-07-14T09:04:37Z</time>
      </trkpt>
      <trkpt lat="45.791704" lon="6.716147">
        <ele>1226.630</ele>
        <time>2018-07-14T09:04:42Z</time>
      </trkpt>
      <trkpt lat="45.791686" lon="6.716070">
        <ele>1227.083</ele>
        <time>2018-07-14T09:04:52Z</time>
      </trkpt>
      <trkpt lat="45.791705" lon="6.716002">
        <ele>1226.228</ele>
        <time>2018-07-14T09:04:59Z</time>
      </trkpt>
      <trkpt lat="45.791737" lon="6.715947">
        <ele>1227.064</ele>
        <time>2018-07-14T09:05:03Z</time>
      </trkpt>
      <trkpt lat="45.791762" lon="6.715877">
        <ele>1224.729</ele>
        <time>2018-07-14T09:05:07Z</time>
      </trkpt>
      <trkpt lat="45.791780" lon="6.715810">
        <ele>1225.723</ele>
        <time>2018-07-14T09:05:11Z</time>
      </trkpt>
      <trkpt lat="45.791789" lon="6.715889">
        <ele>1225.483</ele>
        <time>2018-07-14T09:05:25Z</time>
      </trkpt>
      <trkpt lat="45.791774" lon="6.715952">
        <ele>1224.311</ele>
        <time>2018-07-14T09:05:29Z</time>
      </trkpt>
      <trkpt lat="45.791746" lon="6.716003">
        <ele>1225.108</ele>
        <time>2018-07-14T09:05:34Z</time>
      </trkpt>
      <trkpt lat="45.791712" lon="6.716058">
        <ele>1224.884</ele>
        <time>2018-07-14T09:05:39Z</time>
      </trkpt>
      <trkpt lat="45.791676" lon="6.716104">
        <ele>1227.168</ele>
        <time>2018-07-14T09:05:45Z</time>
      </trkpt>
      <trkpt lat="45.791630" lon="6.716121">
        <ele>1225.258</ele>
        <time>2018-07-14T09:05:51Z</time>
      </trkpt>
      <trkpt lat="45.791584" lon="6.716121">
        <ele>1225.565</ele>
        <time>2018-07-14T09:05:56Z</time>
      </trkpt>
      <trkpt lat="45.791542" lon="6.716094">
        <ele>1226.328</ele>
        <time>2018-07-14T09:06:01Z</time>
      </trkpt>
      <trkpt lat="45.791508" lon="6.716052">
        <ele>1228.943</ele>
        <time>2018-07-14T09:06:07Z</time>
      </trkpt>
      <trkpt lat="45.791501" lon="6.715986">
        <ele>1228.419</ele>
        <time>2018-07-14T09:06:14Z</time>
      </trkpt>
      <trkpt lat="45.791489" lon="6.715919">
        <ele>1229.594</ele>
        <time>2018-07-14T09:06:22Z</time>
      </trkpt>
      <trkpt lat="45.791453" lon="6.715877">
        <ele>1229.921</ele>
        <time>2018-07-14T09:06:27Z</time>
      </trkpt>
      <trkpt lat="45.791412" lon="6.715833">
        <ele>1233.441</ele>
        <time>2018-07-14T09:06:33Z</time>
      </trkpt>
      <trkpt lat="45.791358" lon="6.715813">
        <ele>1232.705</ele>
        <time>2018-07-14T09:06:45Z</time>
      </trkpt>
      <trkpt lat="45.791313" lon="6.715795">
        <ele>1233.808</ele>
        <time>2018-07-14T09:06:51Z</time>
      </trkpt>
      <trkpt lat="45.791262" lon="6.715772">
        <ele>1237.094</ele>
        <time>2018-07-14T09:06:57Z</time>
      </trkpt>
      <trkpt lat="45.791224" lon="6.715733">
        <ele>1235.888</ele>
        <time>2018-07-14T09:07:03Z</time>
      </trkpt>
      <trkpt lat="45.791180" lon="6.715698">
        <ele>1238.898</ele>
        <time>2018-07-14T09:07:10Z</time>
      </trkpt>
      <trkpt lat="45.791147" lon="6.715653">
        <ele>1239.435</ele>
        <time>2018-07-14T09:07:17Z</time>
      </trkpt>
      <trkpt lat="45.791109" lon="6.715618">
        <ele>1238.598</ele>
        <time>2018-07-14T09:07:26Z</time>
      </trkpt>
      <trkpt lat="45.791060" lon="6.715604">
        <ele>1242.723</ele>
        <time>2018-07-14T09:07:38Z</time>
      </trkpt>
      <trkpt lat="45.791018" lon="6.715578">
        <ele>1241.879</ele>
        <time>2018-07-14T09:07:47Z</time>
      </trkpt>
      <trkpt lat="45.790978" lon="6.715537">
        <ele>1243.494</ele>
        <time>2018-07-14T09:07:54Z</time>
      </trkpt>
      <trkpt lat="45.790938" lon="6.715506">
        <ele>1246.841</ele>
        <time>2018-07-14T09:08:07Z</time>
      </trkpt>
      <trkpt lat="45.790892" lon="6.715478">
        <ele>1248.381</ele>
        <time>2018-07-14T09:08:18Z</time>
      </trkpt>
      <trkpt lat="45.790846" lon="6.715453">
        <ele>1248.109</ele>
        <time>2018-07-14T09:08:27Z</time>
      </trkpt>
      <trkpt lat="45.790808" lon="6.715409">
        <ele>1249.008</ele>
        <time>2018-07-14T09:08:40Z</time>
      </trkpt>
      <trkpt lat="45.790760" lon="6.715390">
        <ele>1253.086</ele>
        <time>2018-07-14T09:08:49Z</time>
      </trkpt>
      <trkpt lat="45.790718" lon="6.715352">
        <ele>1252.650</ele>
        <time>2018-07-14T09:09:00Z</time>
      </trkpt>
      <trkpt lat="45.790675" lon="6.715326">
        <ele>1255.360</ele>
        <time>2018-07-14T09:09:07Z</time>
      </trkpt>
      <trkpt lat="45.790629" lon="6.715298">
        <ele>1254.667</ele>
        <time>2018-07-14T09:09:15Z</time>
      </trkpt>
      <trkpt lat="45.790584" lon="6.715289">
        <ele>1256.390</ele>
        <time>2018-07-14T09:09:25Z</time>
      </trkpt>
      <trkpt lat="45.790547" lon="6.715239">
        <ele>1260.075</ele>
        <time>2018-07-14T09:09:35Z</time>
      </trkpt>
      <trkpt lat="45.790506" lon="6.715201">
        <ele>1260.651</ele>
        <time>2018-07-14T09:09:43Z</time>
      </trkpt>
      <trkpt lat="45.790463" lon="6.715165">
        <ele>1261.856</ele>
        <time>2018-07-14T09:09:50Z</time>
      </trkpt>
      <trkpt lat="45.790420" lon="6.715137">
        <ele>1260.683</ele>
        <time>2018-07-14T09:09:56Z</time>
      </trkpt>
      <trkpt lat="45.790377" lon="6.715110">
        <ele>1261.425</ele>
        <time>2018-07-14T09:10:02Z</time>
      </trkpt>
      <trkpt lat="45.790328" lon="6.715086">
        <ele>1261.817</ele>
        <time>2018-07-14T09:10:10Z</time>
      </trkpt>
      <trkpt lat="45.790285" lon="6.715058">
        <ele>1262.208</ele>
        <time>2018-07-14T09:10:16Z</time>
      </trkpt>
      <trkpt lat="45.790239" lon="6.715041">
        <ele>1263.590</ele>
        <time>2018-07-14T09:10:24Z</time>
      </trkpt>
      <trkpt lat="45.790198" lon="6.715013">
        <ele>1264.124</ele>
        <time>2018-07-14T09:10:31Z</time>
      </trkpt>
      <trkpt lat="45.790154" lon="6.714993">
        <ele>1268.214</ele>
        <time>2018-07-14T09:10:42Z</time>
      </trkpt>
      <trkpt lat="45.790099" lon="6.714971">
        <ele>1268.731</ele>
        <time>2018-07-14T09:11:02Z</time>
      </trkpt>
      <trkpt lat="45.790061" lon="6.714930">
        <ele>1270.564</ele>
        <time>2018-07-14T09:11:12Z</time>
      </trkpt>
      <trkpt lat="45.790027" lon="6.714888">
        <ele>1273.449</ele>
        <time>2018-07-14T09:11:27Z</time>
      </trkpt>
      <trkpt lat="45.789992" lon="6.714845">
        <ele>1273.095</ele>
        <time>2018-07-14T09:11:36Z</time>
      </trkpt>
      <trkpt lat="45.789965" lon="6.714790">
        <ele>1275.170</ele>
        <time>2018-07-14T09:11:48Z</time>
      </trkpt>
      <trkpt lat="45.789921" lon="6.714769">
        <ele>1276.431</ele>
        <time>2018-07-14T09:11:57Z</time>
      </trkpt>
      <trkpt lat="45.789882" lon="6.714732">
        <ele>1277.161</ele>
        <time>2018-07-14T09:12:05Z</time>
      </trkpt>
      <trkpt lat="45.789835" lon="6.714726">
        <ele>1279.607</ele>
        <time>2018-07-14T09:12:13Z</time>
      </trkpt>
      <trkpt lat="45.789788" lon="6.714702">
        <ele>1279.108</ele>
        <time>2018-07-14T09:12:22Z</time>
      </trkpt>
      <trkpt lat="45.789744" lon="6.714661">
        <ele>1280.175</ele>
        <time>2018-07-14T09:12:32Z</time>
      </trkpt>
      <trkpt lat="45.789695" lon="6.714648">
        <ele>1281.959</ele>
        <time>2018-07-14T09:12:46Z</time>
      </trkpt>
      <trkpt lat="45.789655" lon="6.714616">
        <ele>1283.179</ele>
        <time>2018-07-14T09:12:55Z</time>
      </trkpt>
      <trkpt lat="45.789606" lon="6.714596">
        <ele>1284.696</ele>
        <time>2018-07-14T09:13:07Z</time>
      </trkpt>
      <trkpt lat="45.789556" lon="6.714597">
        <ele>1285.589</ele>
        <time>2018-07-14T09:13:16Z</time>
      </trkpt>
      <trkpt lat="45.789510" lon="6.714576">
        <ele>1287.674</ele>
        <time>2018-07-14T09:13:27Z</time>
      </trkpt>
      <trkpt lat="45.789464" lon="6.714554">
        <ele>1288.630</ele>
        <time>2018-07-14T09:13:38Z</time>
      </trkpt>
      <trkpt lat="45.789418" lon="6.714532">
        <ele>1292.585</ele>
        <time>2018-07-14T09:13:50Z</time>
      </trkpt>
      <trkpt lat="45.789376" lon="6.714507">
        <ele>1292.781</ele>
        <time>2018-07-14T09:13:57Z</time>
      </trkpt>
      <trkpt lat="45.789333" lon="6.714477">
        <ele>1292.961</ele>
        <time>2018-07-14T09:14:02Z</time>
      </trkpt>
      <trkpt lat="45.789291" lon="6.714445">
        <ele>1290.417</ele>
        <time>2018-07-14T09:14:06Z</time>
      </trkpt>
      <trkpt lat="45.789249" lon="6.714395">
        <ele>1292.808</ele>
        <time>2018-07-14T09:14:12Z</time>
      </trkpt>
      <trkpt lat="45.789207" lon="6.714370">
        <ele>1292.140</ele>
        <time>2018-07-14T09:14:16Z</time>
      </trkpt>
      <trkpt lat="45.789163" lon="6.714329">
        <ele>1291.414</ele>
        <time>2018-07-14T09:14:22Z</time>
      </trkpt>
      <trkpt lat="45.789113" lon="6.714315">
        <ele>1292.434</ele>
        <time>2018-07-14T09:14:28Z</time>
      </trkpt>
      <trkpt lat="45.789053" lon="6.714298">
        <ele>1293.971</ele>
        <time>2018-07-14T09:14:37Z</time>
      </trkpt>
      <trkpt lat="45.789007" lon="6.714287">
        <ele>1294.664</ele>
        <time>2018-07-14T09:14:43Z</time>
      </trkpt>
      <trkpt lat="45.788957" lon="6.714273">
        <ele>1294.499</ele>
        <time>2018-07-14T09:14:48Z</time>
      </trkpt>
      <trkpt lat="45.788903" lon="6.714255">
        <ele>1294.655</ele>
        <time>2018-07-14T09:14:53Z</time>
      </trkpt>
      <trkpt lat="45.788851" lon="6.714250">
        <ele>1294.960</ele>
        <time>2018-07-14T09:14:58Z</time>
      </trkpt>
      <trkpt lat="45.788797" lon="6.714226">
        <ele>1294.916</ele>
        <time>2018-07-14T09:15:03Z</time>
      </trkpt>
      <trkpt lat="45.788749" lon="6.714210">
        <ele>1295.076</ele>
        <time>2018-07-14T09:15:08Z</time>
      </trkpt>
      <trkpt lat="45.788704" lon="6.714189">
        <ele>1295.913</ele>
        <time>2018-07-14T09:15:13Z</time>
      </trkpt>
      <trkpt lat="45.788659" lon="6.714179">
        <ele>1295.608</ele>
        <time>2018-07-14T09:15:18Z</time>
      </trkpt>
      <trkpt lat="45.788605" lon="6.714171">
        <ele>1295.973</ele>
        <time>2018-07-14T09:15:23Z</time>
      </trkpt>
      <trkpt lat="45.788561" lon="6.714151">
        <ele>1296.237</ele>
        <time>2018-07-14T09:15:27Z</time>
      </trkpt>
      <trkpt lat="45.788515" lon="6.714135">
        <ele>1297.167</ele>
        <time>2018-07-14T09:15:33Z</time>
      </trkpt>
      <trkpt lat="45.788470" lon="6.714125">
        <ele>1297.974</ele>
        <time>2018-07-14T09:15:40Z</time>
      </trkpt>
      <trkpt lat="45.788428" lon="6.714095">
        <ele>1299.387</ele>
        <time>2018-07-14T09:15:48Z</time>
      </trkpt>
      <trkpt lat="45.788385" lon="6.714061">
        <ele>1300.322</ele>
        <time>2018-07-14T09:15:55Z</time>
      </trkpt>
      <trkpt lat="45.788344" lon="6.714033">
        <ele>1300.398</ele>
        <time>2018-07-14T09:16:00Z</time>
      </trkpt>
      <trkpt lat="45.788303" lon="6.713984">
        <ele>1303.243</ele>
        <time>2018-07-14T09:16:05Z</time>
      </trkpt>
      <trkpt lat="45.788262" lon="6.713950">
        <ele>1302.151</ele>
        <time>2018-07-14T09:16:10Z</time>
      </trkpt>
      <trkpt lat="45.788221" lon="6.713919">
        <ele>1304.101</ele>
        <time>2018-07-14T09:16:21Z</time>
      </trkpt>
      <trkpt lat="45.788196" lon="6.713863">
        <ele>1306.511</ele>
        <time>2018-07-14T09:16:34Z</time>
      </trkpt>
      <trkpt lat="45.788153" lon="6.713823">
        <ele>1304.308</ele>
        <time>2018-07-14T09:16:40Z</time>
      </trkpt>
      <trkpt lat="45.788111" lon="6.713790">
        <ele>1304.427</ele>
        <time>2018-07-14T09:16:44Z</time>
      </trkpt>
      <trkpt lat="45.788064" lon="6.713760">
        <ele>1304.291</ele>
        <time>2018-07-14T09:16:49Z</time>
      </trkpt>
      <trkpt lat="45.788018" lon="6.713733">
        <ele>1305.131</ele>
        <time>2018-07-14T09:16:55Z</time>
      </trkpt>
      <trkpt lat="45.787978" lon="6.713695">
        <ele>1305.648</ele>
        <time>2018-07-14T09:17:00Z</time>
      </trkpt>
      <trkpt lat="45.787932" lon="6.713664">
        <ele>1305.671</ele>
        <time>2018-07-14T09:17:05Z</time>
      </trkpt>
      <trkpt lat="45.787879" lon="6.713643">
        <ele>1306.856</ele>
        <time>2018-07-14T09:17:10Z</time>
      </trkpt>
      <trkpt lat="45.787818" lon="6.713632">
        <ele>1306.492</ele>
        <time>2018-07-14T09:17:16Z</time>
      </trkpt>
      <trkpt lat="45.787771" lon="6.713622">
        <ele>1306.977</ele>
        <time>2018-07-14T09:17:21Z</time>
      </trkpt>
      <trkpt lat="45.787723" lon="6.713618">
        <ele>1307.429</ele>
        <time>2018-07-14T09:17:25Z</time>
      </trkpt>
      <trkpt lat="45.787673" lon="6.713595">
        <ele>1308.100</ele>
        <time>2018-07-14T09:17:30Z</time>
      </trkpt>
      <trkpt lat="45.787628" lon="6.713559">
        <ele>1308.020</ele>
        <time>2018-07-14T09:17:35Z</time>
      </trkpt>
      <trkpt lat="45.787591" lon="6.713514">
        <ele>1307.808</ele>
        <time>2018-07-14T09:17:40Z</time>
      </trkpt>
      <trkpt lat="45.787554" lon="6.713467">
        <ele>1308.074</ele>
        <time>2018-07-14T09:17:45Z</time>
      </trkpt>
      <trkpt lat="45.787519" lon="6.713420">
        <ele>1308.798</ele>
        <time>2018-07-14T09:17:51Z</time>
      </trkpt>
      <trkpt lat="45.787477" lon="6.713391">
        <ele>1309.378</ele>
        <time>2018-07-14T09:17:57Z</time>
      </trkpt>
      <trkpt lat="45.787429" lon="6.713365">
        <ele>1309.985</ele>
        <time>2018-07-14T09:18:03Z</time>
      </trkpt>
      <trkpt lat="45.787379" lon="6.713352">
        <ele>1311.168</ele>
        <time>2018-07-14T09:18:09Z</time>
      </trkpt>
      <trkpt lat="45.787336" lon="6.713326">
        <ele>1311.373</ele>
        <time>2018-07-14T09:18:14Z</time>
      </trkpt>
      <trkpt lat="45.787297" lon="6.713294">
        <ele>1311.569</ele>
        <time>2018-07-14T09:18:19Z</time>
      </trkpt>
      <trkpt lat="45.787245" lon="6.713273">
        <ele>1312.554</ele>
        <time>2018-07-14T09:18:25Z</time>
      </trkpt>
      <trkpt lat="45.787200" lon="6.713248">
        <ele>1314.792</ele>
        <time>2018-07-14T09:18:30Z</time>
      </trkpt>
      <trkpt lat="45.787149" lon="6.713224">
        <ele>1313.173</ele>
        <time>2018-07-14T09:18:35Z</time>
      </trkpt>
      <trkpt lat="45.787100" lon="6.713205">
        <ele>1313.420</ele>
        <time>2018-07-14T09:18:41Z</time>
      </trkpt>
      <trkpt lat="45.787053" lon="6.713207">
        <ele>1315.208</ele>
        <time>2018-07-14T09:18:46Z</time>
      </trkpt>
      <trkpt lat="45.787003" lon="6.713199">
        <ele>1314.861</ele>
        <time>2018-07-14T09:18:52Z</time>
      </trkpt>
      <trkpt lat="45.786950" lon="6.713189">
        <ele>1315.595</ele>
        <time>2018-07-14T09:18:57Z</time>
      </trkpt>
      <trkpt lat="45.786905" lon="6.713179">
        <ele>1316.295</ele>
        <time>2018-07-14T09:19:02Z</time>
      </trkpt>
      <trkpt lat="45.786865" lon="6.713139">
        <ele>1316.912</ele>
        <time>2018-07-14T09:19:09Z</time>
      </trkpt>
      <trkpt lat="45.786827" lon="6.713103">
        <ele>1318.515</ele>
        <time>2018-07-14T09:19:15Z</time>
      </trkpt>
      <trkpt lat="45.786786" lon="6.713068">
        <ele>1318.680</ele>
        <time>2018-07-14T09:19:21Z</time>
      </trkpt>
      <trkpt lat="45.786744" lon="6.713041">
        <ele>1319.266</ele>
        <time>2018-07-14T09:19:28Z</time>
      </trkpt>
      <trkpt lat="45.786699" lon="6.713018">
        <ele>1320.371</ele>
        <time>2018-07-14T09:19:35Z</time>
      </trkpt>
      <trkpt lat="45.786651" lon="6.713014">
        <ele>1321.514</ele>
        <time>2018-07-14T09:19:44Z</time>
      </trkpt>
      <trkpt lat="45.786610" lon="6.712987">
        <ele>1322.754</ele>
        <time>2018-07-14T09:19:53Z</time>
      </trkpt>
      <trkpt lat="45.786565" lon="6.712978">
        <ele>1323.509</ele>
        <time>2018-07-14T09:19:59Z</time>
      </trkpt>
      <trkpt lat="45.786521" lon="6.712967">
        <ele>1324.208</ele>
        <time>2018-07-14T09:20:05Z</time>
      </trkpt>
      <trkpt lat="45.786478" lon="6.712948">
        <ele>1325.323</ele>
        <time>2018-07-14T09:20:13Z</time>
      </trkpt>
      <trkpt lat="45.786428" lon="6.712947">
        <ele>1326.167</ele>
        <time>2018-07-14T09:20:20Z</time>
      </trkpt>
      <trkpt lat="45.786382" lon="6.712934">
        <ele>1329.897</ele>
        <time>2018-07-14T09:20:28Z</time>
      </trkpt>
      <trkpt lat="45.786334" lon="6.712923">
        <ele>1330.444</ele>
        <time>2018-07-14T09:20:35Z</time>
      </trkpt>
      <trkpt lat="45.786283" lon="6.712931">
        <ele>1331.327</ele>
        <time>2018-07-14T09:20:42Z</time>
      </trkpt>
      <trkpt lat="45.786220" lon="6.712938">
        <ele>1332.972</ele>
        <time>2018-07-14T09:20:57Z</time>
      </trkpt>
      <trkpt lat="45.786175" lon="6.712948">
        <ele>1333.548</ele>
        <time>2018-07-14T09:21:03Z</time>
      </trkpt>
      <trkpt lat="45.786125" lon="6.712949">
        <ele>1336.393</ele>
        <time>2018-07-14T09:21:23Z</time>
      </trkpt>
      <trkpt lat="45.786071" lon="6.712952">
        <ele>1337.427</ele>
        <time>2018-07-14T09:21:32Z</time>
      </trkpt>
      <trkpt lat="45.786025" lon="6.712958">
        <ele>1335.868</ele>
        <time>2018-07-14T09:21:39Z</time>
      </trkpt>
      <trkpt lat="45.785979" lon="6.712943">
        <ele>1336.914</ele>
        <time>2018-07-14T09:21:43Z</time>
      </trkpt>
      <trkpt lat="45.785935" lon="6.712914">
        <ele>1336.608</ele>
        <time>2018-07-14T09:21:47Z</time>
      </trkpt>
      <trkpt lat="45.785891" lon="6.712886">
        <ele>1337.294</ele>
        <time>2018-07-14T09:21:51Z</time>
      </trkpt>
      <trkpt lat="45.785851" lon="6.712855">
        <ele>1337.938</ele>
        <time>2018-07-14T09:21:56Z</time>
      </trkpt>
      <trkpt lat="45.785806" lon="6.712815">
        <ele>1337.658</ele>
        <time>2018-07-14T09:22:01Z</time>
      </trkpt>
      <trkpt lat="45.785767" lon="6.712779">
        <ele>1338.245</ele>
        <time>2018-07-14T09:22:08Z</time>
      </trkpt>
      <trkpt lat="45.785714" lon="6.712768">
        <ele>1338.778</ele>
        <time>2018-07-14T09:22:18Z</time>
      </trkpt>
      <trkpt lat="45.785668" lon="6.712766">
        <ele>1339.233</ele>
        <time>2018-07-14T09:22:25Z</time>
      </trkpt>
      <trkpt lat="45.785617" lon="6.712762">
        <ele>1340.259</ele>
        <time>2018-07-14T09:22:33Z</time>
      </trkpt>
      <trkpt lat="45.785566" lon="6.712745">
        <ele>1340.274</ele>
        <time>2018-07-14T09:22:38Z</time>
      </trkpt>
      <trkpt lat="45.785519" lon="6.712735">
        <ele>1341.864</ele>
        <time>2018-07-14T09:22:43Z</time>
      </trkpt>
      <trkpt lat="45.785468" lon="6.712740">
        <ele>1341.706</ele>
        <time>2018-07-14T09:22:49Z</time>
      </trkpt>
      <trkpt lat="45.785421" lon="6.712744">
        <ele>1342.016</ele>
        <time>2018-07-14T09:22:54Z</time>
      </trkpt>
      <trkpt lat="45.785368" lon="6.712736">
        <ele>1342.308</ele>
        <time>2018-07-14T09:23:00Z</time>
      </trkpt>
      <trkpt lat="45.785318" lon="6.712732">
        <ele>1342.878</ele>
        <time>2018-07-14T09:23:05Z</time>
      </trkpt>
      <trkpt lat="45.785274" lon="6.712715">
        <ele>1342.762</ele>
        <time>2018-07-14T09:23:10Z</time>
      </trkpt>
      <trkpt lat="45.785228" lon="6.712709">
        <ele>1342.772</ele>
        <time>2018-07-14T09:23:14Z</time>
      </trkpt>
      <trkpt lat="45.785177" lon="6.712709">
        <ele>1343.429</ele>
        <time>2018-07-14T09:23:19Z</time>
      </trkpt>
      <trkpt lat="45.785132" lon="6.712693">
        <ele>1344.242</ele>
        <time>2018-07-14T09:23:24Z</time>
      </trkpt>
      <trkpt lat="45.785083" lon="6.712684">
        <ele>1345.017</ele>
        <time>2018-07-14T09:23:31Z</time>
      </trkpt>
      <trkpt lat="45.785038" lon="6.712668">
        <ele>1346.083</ele>
        <time>2018-07-14T09:23:37Z</time>
      </trkpt>
      <trkpt lat="45.784986" lon="6.712653">
        <ele>1346.738</ele>
        <time>2018-07-14T09:23:44Z</time>
      </trkpt>
      <trkpt lat="45.784937" lon="6.712658">
        <ele>1348.252</ele>
        <time>2018-07-14T09:23:58Z</time>
      </trkpt>
      <trkpt lat="45.784891" lon="6.712679">
        <ele>1349.853</ele>
        <time>2018-07-14T09:24:08Z</time>
      </trkpt>
      <trkpt lat="45.784838" lon="6.712690">
        <ele>1350.108</ele>
        <time>2018-07-14T09:24:14Z</time>
      </trkpt>
      <trkpt lat="45.784787" lon="6.712707">
        <ele>1352.308</ele>
        <time>2018-07-14T09:24:31Z</time>
      </trkpt>
      <trkpt lat="45.784731" lon="6.712723">
        <ele>1355.977</ele>
        <time>2018-07-14T09:24:50Z</time>
      </trkpt>
      <trkpt lat="45.784688" lon="6.712759">
        <ele>1356.561</ele>
        <time>2018-07-14T09:25:03Z</time>
      </trkpt>
      <trkpt lat="45.784634" lon="6.712754">
        <ele>1357.261</ele>
        <time>2018-07-14T09:25:09Z</time>
      </trkpt>
      <trkpt lat="45.784589" lon="6.712774">
        <ele>1359.258</ele>
        <time>2018-07-14T09:25:16Z</time>
      </trkpt>
      <trkpt lat="45.784541" lon="6.712781">
        <ele>1359.771</ele>
        <time>2018-07-14T09:25:24Z</time>
      </trkpt>
      <trkpt lat="45.784498" lon="6.712825">
        <ele>1360.796</ele>
        <time>2018-07-14T09:25:32Z</time>
      </trkpt>
      <trkpt lat="45.784471" lon="6.712882">
        <ele>1362.052</ele>
        <time>2018-07-14T09:25:39Z</time>
      </trkpt>
      <trkpt lat="45.784429" lon="6.712931">
        <ele>1364.977</ele>
        <time>2018-07-14T09:25:49Z</time>
      </trkpt>
      <trkpt lat="45.784380" lon="6.712949">
        <ele>1366.925</ele>
        <time>2018-07-14T09:25:56Z</time>
      </trkpt>
      <trkpt lat="45.784338" lon="6.712989">
        <ele>1366.526</ele>
        <time>2018-07-14T09:26:03Z</time>
      </trkpt>
      <trkpt lat="45.784301" lon="6.713037">
        <ele>1366.608</ele>
        <time>2018-07-14T09:26:09Z</time>
      </trkpt>
      <trkpt lat="45.784257" lon="6.713065">
        <ele>1367.108</ele>
        <time>2018-07-14T09:26:15Z</time>
      </trkpt>
      <trkpt lat="45.784207" lon="6.713084">
        <ele>1367.454</ele>
        <time>2018-07-14T09:26:21Z</time>
      </trkpt>
      <trkpt lat="45.784158" lon="6.713084">
        <ele>1368.058</ele>
        <time>2018-07-14T09:26:26Z</time>
      </trkpt>
      <trkpt lat="45.784109" lon="6.713084">
        <ele>1367.648</ele>
        <time>2018-07-14T09:26:31Z</time>
      </trkpt>
      <trkpt lat="45.784062" lon="6.713092">
        <ele>1370.285</ele>
        <time>2018-07-14T09:26:35Z</time>
      </trkpt>
      <trkpt lat="45.784011" lon="6.713114">
        <ele>1368.588</ele>
        <time>2018-07-14T09:26:39Z</time>
      </trkpt>
      <trkpt lat="45.783966" lon="6.713125">
        <ele>1368.073</ele>
        <time>2018-07-14T09:26:43Z</time>
      </trkpt>
      <trkpt lat="45.783922" lon="6.713141">
        <ele>1368.139</ele>
        <time>2018-07-14T09:26:48Z</time>
      </trkpt>
      <trkpt lat="45.783878" lon="6.713171">
        <ele>1368.554</ele>
        <time>2018-07-14T09:26:54Z</time>
      </trkpt>
      <trkpt lat="45.783839" lon="6.713213">
        <ele>1368.572</ele>
        <time>2018-07-14T09:26:59Z</time>
      </trkpt>
      <trkpt lat="45.783801" lon="6.713249">
        <ele>1369.013</ele>
        <time>2018-07-14T09:27:03Z</time>
      </trkpt>
      <trkpt lat="45.783759" lon="6.713280">
        <ele>1369.714</ele>
        <time>2018-07-14T09:27:08Z</time>
      </trkpt>
      <trkpt lat="45.783724" lon="6.713332">
        <ele>1370.008</ele>
        <time>2018-07-14T09:27:15Z</time>
      </trkpt>
      <trkpt lat="45.783696" lon="6.713384">
        <ele>1370.659</ele>
        <time>2018-07-14T09:27:21Z</time>
      </trkpt>
      <trkpt lat="45.783658" lon="6.713438">
        <ele>1371.973</ele>
        <time>2018-07-14T09:27:28Z</time>
      </trkpt>
      <trkpt lat="45.783633" lon="6.713500">
        <ele>1372.443</ele>
        <time>2018-07-14T09:27:35Z</time>
      </trkpt>
      <trkpt lat="45.783596" lon="6.713542">
        <ele>1372.760</ele>
        <time>2018-07-14T09:27:40Z</time>
      </trkpt>
      <trkpt lat="45.783568" lon="6.713593">
        <ele>1372.893</ele>
        <time>2018-07-14T09:27:45Z</time>
      </trkpt>
      <trkpt lat="45.783539" lon="6.713646">
        <ele>1372.958</ele>
        <time>2018-07-14T09:27:50Z</time>
      </trkpt>
      <trkpt lat="45.783508" lon="6.713698">
        <ele>1373.534</ele>
        <time>2018-07-14T09:27:55Z</time>
      </trkpt>
      <trkpt lat="45.783475" lon="6.713754">
        <ele>1374.039</ele>
        <time>2018-07-14T09:28:01Z</time>
      </trkpt>
      <trkpt lat="45.783457" lon="6.713820">
        <ele>1374.665</ele>
        <time>2018-07-14T09:28:07Z</time>
      </trkpt>
      <trkpt lat="45.783426" lon="6.713869">
        <ele>1375.168</ele>
        <time>2018-07-14T09:28:15Z</time>
      </trkpt>
      <trkpt lat="45.783406" lon="6.713928">
        <ele>1376.114</ele>
        <time>2018-07-14T09:28:20Z</time>
      </trkpt>
      <trkpt lat="45.783380" lon="6.713988">
        <ele>1376.608</ele>
        <time>2018-07-14T09:28:27Z</time>
      </trkpt>
      <trkpt lat="45.783339" lon="6.714019">
        <ele>1377.418</ele>
        <time>2018-07-14T09:28:34Z</time>
      </trkpt>
      <trkpt lat="45.783304" lon="6.714062">
        <ele>1376.882</ele>
        <time>2018-07-14T09:28:44Z</time>
      </trkpt>
      <trkpt lat="45.783278" lon="6.714126">
        <ele>1376.822</ele>
        <time>2018-07-14T09:28:48Z</time>
      </trkpt>
      <trkpt lat="45.783250" lon="6.714188">
        <ele>1376.699</ele>
        <time>2018-07-14T09:28:52Z</time>
      </trkpt>
      <trkpt lat="45.783231" lon="6.714250">
        <ele>1376.982</ele>
        <time>2018-07-14T09:28:56Z</time>
      </trkpt>
      <trkpt lat="45.783214" lon="6.714326">
        <ele>1377.587</ele>
        <time>2018-07-14T09:29:02Z</time>
      </trkpt>
      <trkpt lat="45.783187" lon="6.714390">
        <ele>1377.693</ele>
        <time>2018-07-14T09:29:07Z</time>
      </trkpt>
      <trkpt lat="45.783156" lon="6.714437">
        <ele>1377.788</ele>
        <time>2018-07-14T09:29:11Z</time>
      </trkpt>
      <trkpt lat="45.783119" lon="6.714488">
        <ele>1377.766</ele>
        <time>2018-07-14T09:29:15Z</time>
      </trkpt>
      <trkpt lat="45.783080" lon="6.714537">
        <ele>1377.529</ele>
        <time>2018-07-14T09:29:19Z</time>
      </trkpt>
      <trkpt lat="45.783043" lon="6.714587">
        <ele>1377.921</ele>
        <time>2018-07-14T09:29:23Z</time>
      </trkpt>
      <trkpt lat="45.783009" lon="6.714633">
        <ele>1377.808</ele>
        <time>2018-07-14T09:29:27Z</time>
      </trkpt>
      <trkpt lat="45.782981" lon="6.714684">
        <ele>1378.168</ele>
        <time>2018-07-14T09:29:32Z</time>
      </trkpt>
      <trkpt lat="45.782938" lon="6.714727">
        <ele>1378.372</ele>
        <time>2018-07-14T09:29:38Z</time>
      </trkpt>
      <trkpt lat="45.782895" lon="6.714776">
        <ele>1379.032</ele>
        <time>2018-07-14T09:29:43Z</time>
      </trkpt>
      <trkpt lat="45.782870" lon="6.714832">
        <ele>1379.639</ele>
        <time>2018-07-14T09:29:48Z</time>
      </trkpt>
      <trkpt lat="45.782843" lon="6.714892">
        <ele>1380.722</ele>
        <time>2018-07-14T09:29:54Z</time>
      </trkpt>
      <trkpt lat="45.782813" lon="6.714947">
        <ele>1381.837</ele>
        <time>2018-07-14T09:30:04Z</time>
      </trkpt>
      <trkpt lat="45.782771" lon="6.714992">
        <ele>1382.263</ele>
        <time>2018-07-14T09:30:10Z</time>
      </trkpt>
      <trkpt lat="45.782727" lon="6.715011">
        <ele>1382.638</ele>
        <time>2018-07-14T09:30:15Z</time>
      </trkpt>
      <trkpt lat="45.782685" lon="6.715036">
        <ele>1383.178</ele>
        <time>2018-07-14T09:30:19Z</time>
      </trkpt>
      <trkpt lat="45.782640" lon="6.715058">
        <ele>1383.633</ele>
        <time>2018-07-14T09:30:25Z</time>
      </trkpt>
      <trkpt lat="45.782592" lon="6.715054">
        <ele>1383.726</ele>
        <time>2018-07-14T09:30:30Z</time>
      </trkpt>
      <trkpt lat="45.782547" lon="6.715055">
        <ele>1384.008</ele>
        <time>2018-07-14T09:30:34Z</time>
      </trkpt>
      <trkpt lat="45.782500" lon="6.715058">
        <ele>1384.539</ele>
        <time>2018-07-14T09:30:38Z</time>
      </trkpt>
      <trkpt lat="45.782447" lon="6.715067">
        <ele>1385.193</ele>
        <time>2018-07-14T09:30:43Z</time>
      </trkpt>
      <trkpt lat="45.782397" lon="6.715056">
        <ele>1385.433</ele>
        <time>2018-07-14T09:30:49Z</time>
      </trkpt>
      <trkpt lat="45.782354" lon="6.715031">
        <ele>1385.910</ele>
        <time>2018-07-14T09:30:55Z</time>
      </trkpt>
      <trkpt lat="45.782329" lon="6.714970">
        <ele>1386.153</ele>
        <time>2018-07-14T09:31:02Z</time>
      </trkpt>
      <trkpt lat="45.782297" lon="6.714898">
        <ele>1383.268</ele>
        <time>2018-07-14T09:31:53Z</time>
      </trkpt>
      <trkpt lat="45.782325" lon="6.714828">
        <ele>1383.554</ele>
        <time>2018-07-14T09:32:46Z</time>
      </trkpt>
      <trkpt lat="45.782331" lon="6.714895">
        <ele>1384.769</ele>
        <time>2018-07-14T09:33:55Z</time>
      </trkpt>
      <trkpt lat="45.782342" lon="6.714972">
        <ele>1384.989</ele>
        <time>2018-07-14T09:34:01Z</time>
      </trkpt>
      <trkpt lat="45.782330" lon="6.715042">
        <ele>1385.906</ele>
        <time>2018-07-14T09:34:09Z</time>
      </trkpt>
      <trkpt lat="45.782285" lon="6.715054">
        <ele>1386.426</ele>
        <time>2018-07-14T09:34:15Z</time>
      </trkpt>
      <trkpt lat="45.782238" lon="6.715073">
        <ele>1388.608</ele>
        <time>2018-07-14T09:34:22Z</time>
      </trkpt>
      <trkpt lat="45.782195" lon="6.715109">
        <ele>1388.620</ele>
        <time>2018-07-14T09:34:29Z</time>
      </trkpt>
      <trkpt lat="45.782154" lon="6.715146">
        <ele>1388.994</ele>
        <time>2018-07-14T09:34:33Z</time>
      </trkpt>
      <trkpt lat="45.782109" lon="6.715178">
        <ele>1389.514</ele>
        <time>2018-07-14T09:34:39Z</time>
      </trkpt>
      <trkpt lat="45.782057" lon="6.715208">
        <ele>1391.621</ele>
        <time>2018-07-14T09:34:51Z</time>
      </trkpt>
      <trkpt lat="45.782017" lon="6.715238">
        <ele>1394.824</ele>
        <time>2018-07-14T09:35:01Z</time>
      </trkpt>
      <trkpt lat="45.781973" lon="6.715264">
        <ele>1395.799</ele>
        <time>2018-07-14T09:35:07Z</time>
      </trkpt>
      <trkpt lat="45.781930" lon="6.715290">
        <ele>1396.845</ele>
        <time>2018-07-14T09:35:16Z</time>
      </trkpt>
      <trkpt lat="45.781886" lon="6.715319">
        <ele>1396.080</ele>
        <time>2018-07-14T09:35:25Z</time>
      </trkpt>
      <trkpt lat="45.781844" lon="6.715360">
        <ele>1396.662</ele>
        <time>2018-07-14T09:35:34Z</time>
      </trkpt>
      <trkpt lat="45.781798" lon="6.715387">
        <ele>1397.483</ele>
        <time>2018-07-14T09:35:40Z</time>
      </trkpt>
      <trkpt lat="45.781757" lon="6.715420">
        <ele>1398.311</ele>
        <time>2018-07-14T09:35:46Z</time>
      </trkpt>
      <trkpt lat="45.781707" lon="6.715430">
        <ele>1397.608</ele>
        <time>2018-07-14T09:36:24Z</time>
      </trkpt>
      <trkpt lat="45.781655" lon="6.715432">
        <ele>1398.638</ele>
        <time>2018-07-14T09:36:30Z</time>
      </trkpt>
      <trkpt lat="45.781607" lon="6.715466">
        <ele>1398.912</ele>
        <time>2018-07-14T09:36:37Z</time>
      </trkpt>
      <trkpt lat="45.781563" lon="6.715481">
        <ele>1398.852</ele>
        <time>2018-07-14T09:36:41Z</time>
      </trkpt>
      <trkpt lat="45.781518" lon="6.715482">
        <ele>1399.499</ele>
        <time>2018-07-14T09:36:46Z</time>
      </trkpt>
      <trkpt lat="45.781474" lon="6.715470">
        <ele>1401.492</ele>
        <time>2018-07-14T09:36:57Z</time>
      </trkpt>
      <trkpt lat="45.781432" lon="6.715498">
        <ele>1399.967</ele>
        <time>2018-07-14T09:37:04Z</time>
      </trkpt>
      <trkpt lat="45.781444" lon="6.715565">
        <ele>1398.633</ele>
        <time>2018-07-14T09:37:47Z</time>
      </trkpt>
      <trkpt lat="45.781406" lon="6.715513">
        <ele>1399.868</ele>
        <time>2018-07-14T09:37:56Z</time>
      </trkpt>
      <trkpt lat="45.781374" lon="6.715464">
        <ele>1400.264</ele>
        <time>2018-07-14T09:38:01Z</time>
      </trkpt>
      <trkpt lat="45.781336" lon="6.715416">
        <ele>1401.506</ele>
        <time>2018-07-14T09:38:07Z</time>
      </trkpt>
      <trkpt lat="45.781294" lon="6.715372">
        <ele>1402.016</ele>
        <time>2018-07-14T09:38:14Z</time>
      </trkpt>
      <trkpt lat="45.781250" lon="6.715334">
        <ele>1403.908</ele>
        <time>2018-07-14T09:38:22Z</time>
      </trkpt>
      <trkpt lat="45.781213" lon="6.715298">
        <ele>1405.878</ele>
        <time>2018-07-14T09:38:28Z</time>
      </trkpt>
      <trkpt lat="45.781171" lon="6.715272">
        <ele>1407.282</ele>
        <time>2018-07-14T09:38:36Z</time>
      </trkpt>
      <trkpt lat="45.781120" lon="6.715253">
        <ele>1408.172</ele>
        <time>2018-07-14T09:38:44Z</time>
      </trkpt>
      <trkpt lat="45.781079" lon="6.715219">
        <ele>1409.259</ele>
        <time>2018-07-14T09:38:52Z</time>
      </trkpt>
      <trkpt lat="45.781035" lon="6.715204">
        <ele>1410.262</ele>
        <time>2018-07-14T09:38:59Z</time>
      </trkpt>
      <trkpt lat="45.780985" lon="6.715196">
        <ele>1411.367</ele>
        <time>2018-07-14T09:39:06Z</time>
      </trkpt>
      <trkpt lat="45.780932" lon="6.715191">
        <ele>1412.233</ele>
        <time>2018-07-14T09:39:13Z</time>
      </trkpt>
      <trkpt lat="45.780884" lon="6.715181">
        <ele>1412.728</ele>
        <time>2018-07-14T09:39:19Z</time>
      </trkpt>
      <trkpt lat="45.780835" lon="6.715171">
        <ele>1413.793</ele>
        <time>2018-07-14T09:39:26Z</time>
      </trkpt>
      <trkpt lat="45.780788" lon="6.715167">
        <ele>1414.265</ele>
        <time>2018-07-14T09:39:32Z</time>
      </trkpt>
      <trkpt lat="45.780739" lon="6.715164">
        <ele>1415.121</ele>
        <time>2018-07-14T09:39:39Z</time>
      </trkpt>
      <trkpt lat="45.780690" lon="6.715149">
        <ele>1416.008</ele>
        <time>2018-07-14T09:39:46Z</time>
      </trkpt>
      <trkpt lat="45.780646" lon="6.715129">
        <ele>1416.721</ele>
        <time>2018-07-14T09:39:52Z</time>
      </trkpt>
      <trkpt lat="45.780601" lon="6.715098">
        <ele>1417.435</ele>
        <time>2018-07-14T09:40:01Z</time>
      </trkpt>
      <trkpt lat="45.780556" lon="6.715089">
        <ele>1418.475</ele>
        <time>2018-07-14T09:40:08Z</time>
      </trkpt>
      <trkpt lat="45.780509" lon="6.715068">
        <ele>1419.622</ele>
        <time>2018-07-14T09:40:19Z</time>
      </trkpt>
      <trkpt lat="45.780464" lon="6.715079">
        <ele>1420.155</ele>
        <time>2018-07-14T09:40:25Z</time>
      </trkpt>
      <trkpt lat="45.780414" lon="6.715075">
        <ele>1420.940</ele>
        <time>2018-07-14T09:40:32Z</time>
      </trkpt>
      <trkpt lat="45.780369" lon="6.715055">
        <ele>1422.126</ele>
        <time>2018-07-14T09:40:40Z</time>
      </trkpt>
      <trkpt lat="45.780324" lon="6.715037">
        <ele>1423.171</ele>
        <time>2018-07-14T09:40:47Z</time>
      </trkpt>
      <trkpt lat="45.780273" lon="6.715027">
        <ele>1423.825</ele>
        <time>2018-07-14T09:40:56Z</time>
      </trkpt>
      <trkpt lat="45.780229" lon="6.715012">
        <ele>1424.326</ele>
        <time>2018-07-14T09:41:04Z</time>
      </trkpt>
      <trkpt lat="45.780184" lon="6.715012">
        <ele>1425.108</ele>
        <time>2018-07-14T09:41:11Z</time>
      </trkpt>
      <trkpt lat="45.780139" lon="6.715009">
        <ele>1425.808</ele>
        <time>2018-07-14T09:41:19Z</time>
      </trkpt>
      <trkpt lat="45.780089" lon="6.714991">
        <ele>1425.574</ele>
        <time>2018-07-14T09:41:27Z</time>
      </trkpt>
      <trkpt lat="45.780045" lon="6.714967">
        <ele>1428.548</ele>
        <time>2018-07-14T09:41:34Z</time>
      </trkpt>
      <trkpt lat="45.779999" lon="6.714938">
        <ele>1426.588</ele>
        <time>2018-07-14T09:41:42Z</time>
      </trkpt>
      <trkpt lat="45.779950" lon="6.714918">
        <ele>1427.615</ele>
        <time>2018-07-14T09:41:50Z</time>
      </trkpt>
      <trkpt lat="45.779906" lon="6.714888">
        <ele>1428.418</ele>
        <time>2018-07-14T09:41:59Z</time>
      </trkpt>
      <trkpt lat="45.779865" lon="6.714857">
        <ele>1429.343</ele>
        <time>2018-07-14T09:42:07Z</time>
      </trkpt>
      <trkpt lat="45.779827" lon="6.714823">
        <ele>1430.169</ele>
        <time>2018-07-14T09:42:15Z</time>
      </trkpt>
      <trkpt lat="45.779785" lon="6.714786">
        <ele>1431.584</ele>
        <time>2018-07-14T09:42:24Z</time>
      </trkpt>
      <trkpt lat="45.779759" lon="6.714728">
        <ele>1432.683</ele>
        <time>2018-07-14T09:42:34Z</time>
      </trkpt>
      <trkpt lat="45.779718" lon="6.714699">
        <ele>1433.225</ele>
        <time>2018-07-14T09:42:44Z</time>
      </trkpt>
      <trkpt lat="45.779676" lon="6.714668">
        <ele>1434.917</ele>
        <time>2018-07-14T09:42:55Z</time>
      </trkpt>
      <trkpt lat="45.779625" lon="6.714672">
        <ele>1439.908</ele>
        <time>2018-07-14T09:43:41Z</time>
      </trkpt>
      <trkpt lat="45.779580" lon="6.714701">
        <ele>1440.690</ele>
        <time>2018-07-14T09:43:47Z</time>
      </trkpt>
      <trkpt lat="45.779541" lon="6.714737">
        <ele>1441.024</ele>
        <time>2018-07-14T09:43:53Z</time>
      </trkpt>
      <trkpt lat="45.779517" lon="6.714773">
        <ele>1442.854</ele>
        <time>2018-07-14T09:53:00Z</time>
      </trkpt>
      <trkpt lat="45.779474" lon="6.714793">
        <ele>1458.041</ele>
        <time>2018-07-14T09:53:05Z</time>
      </trkpt>
      <trkpt lat="45.779440" lon="6.714837">
        <ele>1473.374</ele>
        <time>2018-07-14T09:53:15Z</time>
      </trkpt>
      <trkpt lat="45.779398" lon="6.714871">
        <ele>1488.189</ele>
        <time>2018-07-14T09:53:22Z</time>
      </trkpt>
      <trkpt lat="45.779355" lon="6.714897">
        <ele>1489.425</ele>
        <time>2018-07-14T09:53:29Z</time>
      </trkpt>
      <trkpt lat="45.779313" lon="6.714926">
        <ele>1489.850</ele>
        <time>2018-07-14T09:53:36Z</time>
      </trkpt>
      <trkpt lat="45.779266" lon="6.714955">
        <ele>1490.413</ele>
        <time>2018-07-14T09:53:43Z</time>
      </trkpt>
      <trkpt lat="45.779220" lon="6.714958">
        <ele>1491.243</ele>
        <time>2018-07-14T09:53:50Z</time>
      </trkpt>
      <trkpt lat="45.779167" lon="6.714960">
        <ele>1491.707</ele>
        <time>2018-07-14T09:53:57Z</time>
      </trkpt>
      <trkpt lat="45.779123" lon="6.714937">
        <ele>1492.408</ele>
        <time>2018-07-14T09:54:03Z</time>
      </trkpt>
      <trkpt lat="45.779077" lon="6.714915">
        <ele>1492.853</ele>
        <time>2018-07-14T09:54:11Z</time>
      </trkpt>
      <trkpt lat="45.779031" lon="6.714912">
        <ele>1493.057</ele>
        <time>2018-07-14T09:54:17Z</time>
      </trkpt>
      <trkpt lat="45.778981" lon="6.714912">
        <ele>1493.197</ele>
        <time>2018-07-14T09:54:25Z</time>
      </trkpt>
      <trkpt lat="45.778935" lon="6.714913">
        <ele>1494.034</ele>
        <time>2018-07-14T09:54:31Z</time>
      </trkpt>
      <trkpt lat="45.778886" lon="6.714916">
        <ele>1495.327</ele>
        <time>2018-07-14T09:54:37Z</time>
      </trkpt>
      <trkpt lat="45.778839" lon="6.714924">
        <ele>1496.132</ele>
        <time>2018-07-14T09:54:44Z</time>
      </trkpt>
      <trkpt lat="45.778791" lon="6.714935">
        <ele>1497.458</ele>
        <time>2018-07-14T09:54:53Z</time>
      </trkpt>
      <trkpt lat="45.778743" lon="6.714933">
        <ele>1498.233</ele>
        <time>2018-07-14T09:55:01Z</time>
      </trkpt>
      <trkpt lat="45.778695" lon="6.714922">
        <ele>1499.133</ele>
        <time>2018-07-14T09:55:10Z</time>
      </trkpt>
      <trkpt lat="45.778650" lon="6.714920">
        <ele>1499.623</ele>
        <time>2018-07-14T09:55:17Z</time>
      </trkpt>
      <trkpt lat="45.778602" lon="6.714906">
        <ele>1499.915</ele>
        <time>2018-07-14T09:55:25Z</time>
      </trkpt>
      <trkpt lat="45.778557" lon="6.714893">
        <ele>1500.908</ele>
        <time>2018-07-14T09:55:32Z</time>
      </trkpt>
      <trkpt lat="45.778511" lon="6.714869">
        <ele>1502.345</ele>
        <time>2018-07-14T09:55:42Z</time>
      </trkpt>
      <trkpt lat="45.778461" lon="6.714868">
        <ele>1503.159</ele>
        <time>2018-07-14T09:55:49Z</time>
      </trkpt>
      <trkpt lat="45.778412" lon="6.714856">
        <ele>1504.839</ele>
        <time>2018-07-14T09:56:00Z</time>
      </trkpt>
      <trkpt lat="45.778364" lon="6.714835">
        <ele>1505.476</ele>
        <time>2018-07-14T09:56:09Z</time>
      </trkpt>
      <trkpt lat="45.778321" lon="6.714798">
        <ele>1505.049</ele>
        <time>2018-07-14T09:56:16Z</time>
      </trkpt>
      <trkpt lat="45.778282" lon="6.714752">
        <ele>1504.734</ele>
        <time>2018-07-14T09:56:23Z</time>
      </trkpt>
      <trkpt lat="45.778252" lon="6.714703">
        <ele>1505.320</ele>
        <time>2018-07-14T09:56:31Z</time>
      </trkpt>
      <trkpt lat="45.778220" lon="6.714651">
        <ele>1506.155</ele>
        <time>2018-07-14T09:56:39Z</time>
      </trkpt>
      <trkpt lat="45.778187" lon="6.714604">
        <ele>1506.616</ele>
        <time>2018-07-14T09:56:46Z</time>
      </trkpt>
      <trkpt lat="45.778158" lon="6.714552">
        <ele>1508.176</ele>
        <time>2018-07-14T09:56:55Z</time>
      </trkpt>
      <trkpt lat="45.778140" lon="6.714487">
        <ele>1509.413</ele>
        <time>2018-07-14T09:57:04Z</time>
      </trkpt>
      <trkpt lat="45.778124" lon="6.714420">
        <ele>1510.608</ele>
        <time>2018-07-14T09:57:12Z</time>
      </trkpt>
      <trkpt lat="45.778123" lon="6.714354">
        <ele>1512.123</ele>
        <time>2018-07-14T09:57:20Z</time>
      </trkpt>
      <trkpt lat="45.778082" lon="6.714323">
        <ele>1513.887</ele>
        <time>2018-07-14T09:57:28Z</time>
      </trkpt>
      <trkpt lat="45.778033" lon="6.714312">
        <ele>1515.617</ele>
        <time>2018-07-14T09:57:36Z</time>
      </trkpt>
      <trkpt lat="45.777984" lon="6.714300">
        <ele>1517.524</ele>
        <time>2018-07-14T09:57:45Z</time>
      </trkpt>
      <trkpt lat="45.777940" lon="6.714282">
        <ele>1518.697</ele>
        <time>2018-07-14T09:57:53Z</time>
      </trkpt>
      <trkpt lat="45.777891" lon="6.714276">
        <ele>1518.512</ele>
        <time>2018-07-14T09:57:58Z</time>
      </trkpt>
      <trkpt lat="45.777838" lon="6.714285">
        <ele>1518.448</ele>
        <time>2018-07-14T09:58:04Z</time>
      </trkpt>
      <trkpt lat="45.777789" lon="6.714302">
        <ele>1518.053</ele>
        <time>2018-07-14T09:58:09Z</time>
      </trkpt>
      <trkpt lat="45.777740" lon="6.714314">
        <ele>1518.181</ele>
        <time>2018-07-14T09:58:15Z</time>
      </trkpt>
      <trkpt lat="45.777694" lon="6.714328">
        <ele>1518.661</ele>
        <time>2018-07-14T09:58:23Z</time>
      </trkpt>
      <trkpt lat="45.777651" lon="6.714356">
        <ele>1519.717</ele>
        <time>2018-07-14T09:58:30Z</time>
      </trkpt>
      <trkpt lat="45.777607" lon="6.714382">
        <ele>1521.608</ele>
        <time>2018-07-14T09:58:47Z</time>
      </trkpt>
      <trkpt lat="45.777565" lon="6.714419">
        <ele>1523.560</ele>
        <time>2018-07-14T09:58:57Z</time>
      </trkpt>
      <trkpt lat="45.777515" lon="6.714441">
        <ele>1525.094</ele>
        <time>2018-07-14T09:59:04Z</time>
      </trkpt>
      <trkpt lat="45.777467" lon="6.714458">
        <ele>1525.594</ele>
        <time>2018-07-14T09:59:14Z</time>
      </trkpt>
      <trkpt lat="45.777418" lon="6.714475">
        <ele>1527.091</ele>
        <time>2018-07-14T09:59:22Z</time>
      </trkpt>
      <trkpt lat="45.777368" lon="6.714502">
        <ele>1531.054</ele>
        <time>2018-07-14T09:59:32Z</time>
      </trkpt>
      <trkpt lat="45.777327" lon="6.714545">
        <ele>1534.389</ele>
        <time>2018-07-14T09:59:38Z</time>
      </trkpt>
      <trkpt lat="45.777281" lon="6.714555">
        <ele>1536.795</ele>
        <time>2018-07-14T09:59:46Z</time>
      </trkpt>
      <trkpt lat="45.777236" lon="6.714580">
        <ele>1537.760</ele>
        <time>2018-07-14T09:59:55Z</time>
      </trkpt>
      <trkpt lat="45.777186" lon="6.714607">
        <ele>1538.361</ele>
        <time>2018-07-14T10:00:08Z</time>
      </trkpt>
      <trkpt lat="45.777141" lon="6.714628">
        <ele>1538.321</ele>
        <time>2018-07-14T10:00:15Z</time>
      </trkpt>
      <trkpt lat="45.777099" lon="6.714665">
        <ele>1538.713</ele>
        <time>2018-07-14T10:00:23Z</time>
      </trkpt>
      <trkpt lat="45.777055" lon="6.714704">
        <ele>1539.308</ele>
        <time>2018-07-14T10:00:30Z</time>
      </trkpt>
      <trkpt lat="45.777014" lon="6.714744">
        <ele>1539.748</ele>
        <time>2018-07-14T10:00:42Z</time>
      </trkpt>
      <trkpt lat="45.776974" lon="6.714783">
        <ele>1539.522</ele>
        <time>2018-07-14T10:00:48Z</time>
      </trkpt>
      <trkpt lat="45.776939" lon="6.714834">
        <ele>1539.042</ele>
        <time>2018-07-14T10:00:54Z</time>
      </trkpt>
      <trkpt lat="45.776909" lon="6.714883">
        <ele>1539.559</ele>
        <time>2018-07-14T10:01:04Z</time>
      </trkpt>
      <trkpt lat="45.776864" lon="6.714895">
        <ele>1539.892</ele>
        <time>2018-07-14T10:01:10Z</time>
      </trkpt>
      <trkpt lat="45.776819" lon="6.714916">
        <ele>1540.447</ele>
        <time>2018-07-14T10:01:17Z</time>
      </trkpt>
      <trkpt lat="45.776769" lon="6.714925">
        <ele>1541.113</ele>
        <time>2018-07-14T10:01:25Z</time>
      </trkpt>
      <trkpt lat="45.776721" lon="6.714937">
        <ele>1543.588</ele>
        <time>2018-07-14T10:01:33Z</time>
      </trkpt>
      <trkpt lat="45.776675" lon="6.714963">
        <ele>1546.231</ele>
        <time>2018-07-14T10:01:40Z</time>
      </trkpt>
      <trkpt lat="45.776630" lon="6.714980">
        <ele>1549.461</ele>
        <time>2018-07-14T10:01:46Z</time>
      </trkpt>
      <trkpt lat="45.776578" lon="6.714994">
        <ele>1551.707</ele>
        <time>2018-07-14T10:01:54Z</time>
      </trkpt>
      <trkpt lat="45.776534" lon="6.715009">
        <ele>1553.108</ele>
        <time>2018-07-14T10:02:00Z</time>
      </trkpt>
      <trkpt lat="45.776482" lon="6.714997">
        <ele>1553.175</ele>
        <time>2018-07-14T10:02:07Z</time>
      </trkpt>
      <trkpt lat="45.776434" lon="6.714999">
        <ele>1552.739</ele>
        <time>2018-07-14T10:02:12Z</time>
      </trkpt>
      <trkpt lat="45.776386" lon="6.715008">
        <ele>1552.569</ele>
        <time>2018-07-14T10:02:17Z</time>
      </trkpt>
      <trkpt lat="45.776340" lon="6.715021">
        <ele>1552.446</ele>
        <time>2018-07-14T10:02:22Z</time>
      </trkpt>
      <trkpt lat="45.776290" lon="6.715036">
        <ele>1552.779</ele>
        <time>2018-07-14T10:02:28Z</time>
      </trkpt>
      <trkpt lat="45.776244" lon="6.715045">
        <ele>1553.774</ele>
        <time>2018-07-14T10:02:33Z</time>
      </trkpt>
      <trkpt lat="45.776198" lon="6.715055">
        <ele>1553.920</ele>
        <time>2018-07-14T10:02:38Z</time>
      </trkpt>
      <trkpt lat="45.776148" lon="6.715076">
        <ele>1554.485</ele>
        <time>2018-07-14T10:02:44Z</time>
      </trkpt>
      <trkpt lat="45.776099" lon="6.715100">
        <ele>1554.755</ele>
        <time>2018-07-14T10:02:51Z</time>
      </trkpt>
      <trkpt lat="45.776055" lon="6.715130">
        <ele>1555.707</ele>
        <time>2018-07-14T10:02:58Z</time>
      </trkpt>
      <trkpt lat="45.776008" lon="6.715157">
        <ele>1557.517</ele>
        <time>2018-07-14T10:03:06Z</time>
      </trkpt>
      <trkpt lat="45.775963" lon="6.715183">
        <ele>1559.008</ele>
        <time>2018-07-14T10:03:12Z</time>
      </trkpt>
      <trkpt lat="45.775913" lon="6.715207">
        <ele>1559.967</ele>
        <time>2018-07-14T10:03:18Z</time>
      </trkpt>
      <trkpt lat="45.775862" lon="6.715216">
        <ele>1561.281</ele>
        <time>2018-07-14T10:03:24Z</time>
      </trkpt>
      <trkpt lat="45.775814" lon="6.715232">
        <ele>1562.071</ele>
        <time>2018-07-14T10:03:30Z</time>
      </trkpt>
      <trkpt lat="45.775768" lon="6.715260">
        <ele>1563.388</ele>
        <time>2018-07-14T10:03:37Z</time>
      </trkpt>
      <trkpt lat="45.775722" lon="6.715289">
        <ele>1564.561</ele>
        <time>2018-07-14T10:03:43Z</time>
      </trkpt>
      <trkpt lat="45.775684" lon="6.715327">
        <ele>1565.226</ele>
        <time>2018-07-14T10:03:51Z</time>
      </trkpt>
      <trkpt lat="45.775653" lon="6.715378">
        <ele>1564.892</ele>
        <time>2018-07-14T10:04:01Z</time>
      </trkpt>
      <trkpt lat="45.775616" lon="6.715417">
        <ele>1564.257</ele>
        <time>2018-07-14T10:04:08Z</time>
      </trkpt>
      <trkpt lat="45.775568" lon="6.715452">
        <ele>1563.024</ele>
        <time>2018-07-14T10:04:14Z</time>
      </trkpt>
      <trkpt lat="45.775523" lon="6.715487">
        <ele>1562.304</ele>
        <time>2018-07-14T10:04:20Z</time>
      </trkpt>
      <trkpt lat="45.775508" lon="6.715548">
        <ele>1563.114</ele>
        <time>2018-07-14T10:04:29Z</time>
      </trkpt>
      <trkpt lat="45.775483" lon="6.715608">
        <ele>1564.408</ele>
        <time>2018-07-14T10:04:37Z</time>
      </trkpt>
      <trkpt lat="45.775442" lon="6.715646">
        <ele>1565.684</ele>
        <time>2018-07-14T10:04:45Z</time>
      </trkpt>
      <trkpt lat="45.775402" lon="6.715682">
        <ele>1567.198</ele>
        <time>2018-07-14T10:04:52Z</time>
      </trkpt>
      <trkpt lat="45.775365" lon="6.715721">
        <ele>1569.218</ele>
        <time>2018-07-14T10:04:59Z</time>
      </trkpt>
      <trkpt lat="45.775334" lon="6.715774">
        <ele>1571.715</ele>
        <time>2018-07-14T10:05:07Z</time>
      </trkpt>
      <trkpt lat="45.775300" lon="6.715824">
        <ele>1573.678</ele>
        <time>2018-07-14T10:05:17Z</time>
      </trkpt>
      <trkpt lat="45.775267" lon="6.715871">
        <ele>1575.513</ele>
        <time>2018-07-14T10:05:27Z</time>
      </trkpt>
      <trkpt lat="45.775219" lon="6.715894">
        <ele>1577.519</ele>
        <time>2018-07-14T10:05:35Z</time>
      </trkpt>
      <trkpt lat="45.775173" lon="6.715911">
        <ele>1578.734</ele>
        <time>2018-07-14T10:05:44Z</time>
      </trkpt>
      <trkpt lat="45.775126" lon="6.715929">
        <ele>1580.215</ele>
        <time>2018-07-14T10:05:55Z</time>
      </trkpt>
      <trkpt lat="45.775079" lon="6.715924">
        <ele>1581.965</ele>
        <time>2018-07-14T10:06:07Z</time>
      </trkpt>
      <trkpt lat="45.775031" lon="6.715925">
        <ele>1583.311</ele>
        <time>2018-07-14T10:06:15Z</time>
      </trkpt>
      <trkpt lat="45.774980" lon="6.715925">
        <ele>1585.808</ele>
        <time>2018-07-14T10:06:25Z</time>
      </trkpt>
      <trkpt lat="45.774933" lon="6.715925">
        <ele>1586.123</ele>
        <time>2018-07-14T10:06:33Z</time>
      </trkpt>
      <trkpt lat="45.774886" lon="6.715921">
        <ele>1587.127</ele>
        <time>2018-07-14T10:06:41Z</time>
      </trkpt>
      <trkpt lat="45.774838" lon="6.715932">
        <ele>1589.317</ele>
        <time>2018-07-14T10:06:49Z</time>
      </trkpt>
      <trkpt lat="45.774790" lon="6.715938">
        <ele>1592.624</ele>
        <time>2018-07-14T10:06:56Z</time>
      </trkpt>
      <trkpt lat="45.774742" lon="6.715952">
        <ele>1596.697</ele>
        <time>2018-07-14T10:07:03Z</time>
      </trkpt>
      <trkpt lat="45.774697" lon="6.715984">
        <ele>1600.282</ele>
        <time>2018-07-14T10:07:09Z</time>
      </trkpt>
      <trkpt lat="45.774651" lon="6.715988">
        <ele>1602.478</ele>
        <time>2018-07-14T10:07:16Z</time>
      </trkpt>
      <trkpt lat="45.774601" lon="6.715986">
        <ele>1604.573</ele>
        <time>2018-07-14T10:07:24Z</time>
      </trkpt>
      <trkpt lat="45.774554" lon="6.715974">
        <ele>1605.819</ele>
        <time>2018-07-14T10:07:30Z</time>
      </trkpt>
      <trkpt lat="45.774503" lon="6.715971">
        <ele>1607.809</ele>
        <time>2018-07-14T10:07:43Z</time>
      </trkpt>
      <trkpt lat="45.774457" lon="6.715970">
        <ele>1609.019</ele>
        <time>2018-07-14T10:07:50Z</time>
      </trkpt>
      <trkpt lat="45.774409" lon="6.715973">
        <ele>1609.708</ele>
        <time>2018-07-14T10:07:56Z</time>
      </trkpt>
      <trkpt lat="45.774360" lon="6.715983">
        <ele>1610.163</ele>
        <time>2018-07-14T10:08:02Z</time>
      </trkpt>
      <trkpt lat="45.774314" lon="6.715995">
        <ele>1610.457</ele>
        <time>2018-07-14T10:08:08Z</time>
      </trkpt>
      <trkpt lat="45.774263" lon="6.716011">
        <ele>1610.667</ele>
        <time>2018-07-14T10:08:15Z</time>
      </trkpt>
      <trkpt lat="45.774212" lon="6.716020">
        <ele>1610.754</ele>
        <time>2018-07-14T10:08:21Z</time>
      </trkpt>
      <trkpt lat="45.774161" lon="6.716054">
        <ele>1612.477</ele>
        <time>2018-07-14T10:08:26Z</time>
      </trkpt>
      <trkpt lat="45.774120" lon="6.716082">
        <ele>1612.652</ele>
        <time>2018-07-14T10:08:31Z</time>
      </trkpt>
      <trkpt lat="45.774078" lon="6.716109">
        <ele>1613.198</ele>
        <time>2018-07-14T10:08:37Z</time>
      </trkpt>
      <trkpt lat="45.774026" lon="6.716112">
        <ele>1612.213</ele>
        <time>2018-07-14T10:08:43Z</time>
      </trkpt>
      <trkpt lat="45.773981" lon="6.716104">
        <ele>1612.171</ele>
        <time>2018-07-14T10:08:48Z</time>
      </trkpt>
      <trkpt lat="45.773982" lon="6.716037">
        <ele>1609.241</ele>
        <time>2018-07-14T10:08:55Z</time>
      </trkpt>
      <trkpt lat="45.774026" lon="6.715997">
        <ele>1607.915</ele>
        <time>2018-07-14T10:09:00Z</time>
      </trkpt>
      <trkpt lat="45.773982" lon="6.716030">
        <ele>1607.108</ele>
        <time>2018-07-14T10:09:29Z</time>
      </trkpt>
      <trkpt lat="45.773936" lon="6.716041">
        <ele>1606.619</ele>
        <time>2018-07-14T10:09:34Z</time>
      </trkpt>
      <trkpt lat="45.773884" lon="6.716014">
        <ele>1605.123</ele>
        <time>2018-07-14T10:09:40Z</time>
      </trkpt>
      <trkpt lat="45.773836" lon="6.715998">
        <ele>1603.013</ele>
        <time>2018-07-14T10:09:45Z</time>
      </trkpt>
      <trkpt lat="45.773788" lon="6.715995">
        <ele>1601.720</ele>
        <time>2018-07-14T10:09:50Z</time>
      </trkpt>
      <trkpt lat="45.773739" lon="6.715990">
        <ele>1600.563</ele>
        <time>2018-07-14T10:09:55Z</time>
      </trkpt>
      <trkpt lat="45.773687" lon="6.715991">
        <ele>1599.058</ele>
        <time>2018-07-14T10:10:01Z</time>
      </trkpt>
      <trkpt lat="45.773642" lon="6.716003">
        <ele>1598.114</ele>
        <time>2018-07-14T10:10:06Z</time>
      </trkpt>
      <trkpt lat="45.773592" lon="6.716025">
        <ele>1598.469</ele>
        <time>2018-07-14T10:10:13Z</time>
      </trkpt>
      <trkpt lat="45.773541" lon="6.716028">
        <ele>1598.268</ele>
        <time>2018-07-14T10:10:19Z</time>
      </trkpt>
      <trkpt lat="45.773496" lon="6.716014">
        <ele>1598.542</ele>
        <time>2018-07-14T10:10:25Z</time>
      </trkpt>
      <trkpt lat="45.773447" lon="6.716013">
        <ele>1598.726</ele>
        <time>2018-07-14T10:10:55Z</time>
      </trkpt>
      <trkpt lat="45.773393" lon="6.715991">
        <ele>1597.208</ele>
        <time>2018-07-14T10:11:15Z</time>
      </trkpt>
      <trkpt lat="45.773342" lon="6.715969">
        <ele>1598.378</ele>
        <time>2018-07-14T10:11:23Z</time>
      </trkpt>
      <trkpt lat="45.773297" lon="6.715942">
        <ele>1598.212</ele>
        <time>2018-07-14T10:11:29Z</time>
      </trkpt>
      <trkpt lat="45.773252" lon="6.715918">
        <ele>1598.582</ele>
        <time>2018-07-14T10:11:35Z</time>
      </trkpt>
      <trkpt lat="45.773203" lon="6.715905">
        <ele>1599.529</ele>
        <time>2018-07-14T10:11:40Z</time>
      </trkpt>
      <trkpt lat="45.773157" lon="6.715888">
        <ele>1599.342</ele>
        <time>2018-07-14T10:11:44Z</time>
      </trkpt>
      <trkpt lat="45.773110" lon="6.715873">
        <ele>1599.657</ele>
        <time>2018-07-14T10:11:48Z</time>
      </trkpt>
      <trkpt lat="45.773066" lon="6.715856">
        <ele>1599.423</ele>
        <time>2018-07-14T10:11:52Z</time>
      </trkpt>
      <trkpt lat="45.773017" lon="6.715847">
        <ele>1600.158</ele>
        <time>2018-07-14T10:11:56Z</time>
      </trkpt>
      <trkpt lat="45.772964" lon="6.715838">
        <ele>1600.546</ele>
        <time>2018-07-14T10:12:00Z</time>
      </trkpt>
      <trkpt lat="45.772913" lon="6.715826">
        <ele>1600.788</ele>
        <time>2018-07-14T10:12:04Z</time>
      </trkpt>
      <trkpt lat="45.772855" lon="6.715819">
        <ele>1600.816</ele>
        <time>2018-07-14T10:12:08Z</time>
      </trkpt>
      <trkpt lat="45.772810" lon="6.715813">
        <ele>1601.708</ele>
        <time>2018-07-14T10:12:12Z</time>
      </trkpt>
      <trkpt lat="45.772765" lon="6.715798">
        <ele>1602.276</ele>
        <time>2018-07-14T10:12:16Z</time>
      </trkpt>
      <trkpt lat="45.772714" lon="6.715786">
        <ele>1602.540</ele>
        <time>2018-07-14T10:12:20Z</time>
      </trkpt>
      <trkpt lat="45.772659" lon="6.715778">
        <ele>1602.330</ele>
        <time>2018-07-14T10:12:24Z</time>
      </trkpt>
      <trkpt lat="45.772607" lon="6.715773">
        <ele>1602.247</ele>
        <time>2018-07-14T10:12:28Z</time>
      </trkpt>
      <trkpt lat="45.772557" lon="6.715769">
        <ele>1602.190</ele>
        <time>2018-07-14T10:12:32Z</time>
      </trkpt>
      <trkpt lat="45.772510" lon="6.715776">
        <ele>1602.585</ele>
        <time>2018-07-14T10:12:36Z</time>
      </trkpt>
      <trkpt lat="45.772453" lon="6.715779">
        <ele>1602.741</ele>
        <time>2018-07-14T10:12:41Z</time>
      </trkpt>
      <trkpt lat="45.772403" lon="6.715787">
        <ele>1603.246</ele>
        <time>2018-07-14T10:12:45Z</time>
      </trkpt>
      <trkpt lat="45.772352" lon="6.715796">
        <ele>1603.132</ele>
        <time>2018-07-14T10:12:49Z</time>
      </trkpt>
      <trkpt lat="45.772302" lon="6.715807">
        <ele>1603.092</ele>
        <time>2018-07-14T10:12:53Z</time>
      </trkpt>
      <trkpt lat="45.772253" lon="6.715815">
        <ele>1603.411</ele>
        <time>2018-07-14T10:12:57Z</time>
      </trkpt>
      <trkpt lat="45.772202" lon="6.715820">
        <ele>1603.608</ele>
        <time>2018-07-14T10:13:01Z</time>
      </trkpt>
      <trkpt lat="45.772151" lon="6.715828">
        <ele>1603.725</ele>
        <time>2018-07-14T10:13:05Z</time>
      </trkpt>
      <trkpt lat="45.772102" lon="6.715831">
        <ele>1603.859</ele>
        <time>2018-07-14T10:13:09Z</time>
      </trkpt>
      <trkpt lat="45.772048" lon="6.715842">
        <ele>1603.439</ele>
        <time>2018-07-14T10:13:14Z</time>
      </trkpt>
      <trkpt lat="45.772000" lon="6.715855">
        <ele>1602.846</ele>
        <time>2018-07-14T10:13:18Z</time>
      </trkpt>
      <trkpt lat="45.771946" lon="6.715859">
        <ele>1602.419</ele>
        <time>2018-07-14T10:13:22Z</time>
      </trkpt>
      <trkpt lat="45.771897" lon="6.715859">
        <ele>1602.684</ele>
        <time>2018-07-14T10:13:26Z</time>
      </trkpt>
      <trkpt lat="45.771849" lon="6.715852">
        <ele>1603.130</ele>
        <time>2018-07-14T10:13:30Z</time>
      </trkpt>
      <trkpt lat="45.771802" lon="6.715846">
        <ele>1603.465</ele>
        <time>2018-07-14T10:13:34Z</time>
      </trkpt>
      <trkpt lat="45.771755" lon="6.715842">
        <ele>1603.276</ele>
        <time>2018-07-14T10:13:38Z</time>
      </trkpt>
      <trkpt lat="45.771708" lon="6.715832">
        <ele>1602.790</ele>
        <time>2018-07-14T10:13:42Z</time>
      </trkpt>
      <trkpt lat="45.771662" lon="6.715817">
        <ele>1602.419</ele>
        <time>2018-07-14T10:13:46Z</time>
      </trkpt>
      <trkpt lat="45.771617" lon="6.715807">
        <ele>1602.208</ele>
        <time>2018-07-14T10:13:50Z</time>
      </trkpt>
      <trkpt lat="45.771572" lon="6.715796">
        <ele>1601.769</ele>
        <time>2018-07-14T10:13:54Z</time>
      </trkpt>
      <trkpt lat="45.771527" lon="6.715779">
        <ele>1601.843</ele>
        <time>2018-07-14T10:13:58Z</time>
      </trkpt>
      <trkpt lat="45.771483" lon="6.715741">
        <ele>1602.363</ele>
        <time>2018-07-14T10:14:03Z</time>
      </trkpt>
      <trkpt lat="45.771452" lon="6.715686">
        <ele>1603.040</ele>
        <time>2018-07-14T10:14:08Z</time>
      </trkpt>
      <trkpt lat="45.771423" lon="6.715631">
        <ele>1603.453</ele>
        <time>2018-07-14T10:14:13Z</time>
      </trkpt>
      <trkpt lat="45.771393" lon="6.715576">
        <ele>1604.038</ele>
        <time>2018-07-14T10:14:18Z</time>
      </trkpt>
      <trkpt lat="45.771354" lon="6.715530">
        <ele>1604.414</ele>
        <time>2018-07-14T10:14:24Z</time>
      </trkpt>
      <trkpt lat="45.771306" lon="6.715501">
        <ele>1605.429</ele>
        <time>2018-07-14T10:14:33Z</time>
      </trkpt>
      <trkpt lat="45.771255" lon="6.715482">
        <ele>1606.082</ele>
        <time>2018-07-14T10:14:38Z</time>
      </trkpt>
      <trkpt lat="45.771204" lon="6.715475">
        <ele>1606.443</ele>
        <time>2018-07-14T10:14:42Z</time>
      </trkpt>
      <trkpt lat="45.771154" lon="6.715464">
        <ele>1606.617</ele>
        <time>2018-07-14T10:14:46Z</time>
      </trkpt>
      <trkpt lat="45.771104" lon="6.715459">
        <ele>1606.708</ele>
        <time>2018-07-14T10:14:50Z</time>
      </trkpt>
      <trkpt lat="45.771049" lon="6.715457">
        <ele>1606.050</ele>
        <time>2018-07-14T10:14:54Z</time>
      </trkpt>
      <trkpt lat="45.770996" lon="6.715461">
        <ele>1605.664</ele>
        <time>2018-07-14T10:14:58Z</time>
      </trkpt>
      <trkpt lat="45.770950" lon="6.715460">
        <ele>1605.374</ele>
        <time>2018-07-14T10:15:02Z</time>
      </trkpt>
      <trkpt lat="45.770895" lon="6.715450">
        <ele>1605.111</ele>
        <time>2018-07-14T10:15:07Z</time>
      </trkpt>
      <trkpt lat="45.770848" lon="6.715443">
        <ele>1605.494</ele>
        <time>2018-07-14T10:15:11Z</time>
      </trkpt>
      <trkpt lat="45.770801" lon="6.715425">
        <ele>1605.689</ele>
        <time>2018-07-14T10:15:15Z</time>
      </trkpt>
      <trkpt lat="45.770754" lon="6.715409">
        <ele>1605.735</ele>
        <time>2018-07-14T10:15:19Z</time>
      </trkpt>
      <trkpt lat="45.770699" lon="6.715386">
        <ele>1605.410</ele>
        <time>2018-07-14T10:15:23Z</time>
      </trkpt>
      <trkpt lat="45.770647" lon="6.715361">
        <ele>1605.229</ele>
        <time>2018-07-14T10:15:27Z</time>
      </trkpt>
      <trkpt lat="45.770596" lon="6.715336">
        <ele>1605.100</ele>
        <time>2018-07-14T10:15:31Z</time>
      </trkpt>
      <trkpt lat="45.770543" lon="6.715307">
        <ele>1604.620</ele>
        <time>2018-07-14T10:15:35Z</time>
      </trkpt>
      <trkpt lat="45.770501" lon="6.715273">
        <ele>1604.708</ele>
        <time>2018-07-14T10:15:39Z</time>
      </trkpt>
      <trkpt lat="45.770458" lon="6.715244">
        <ele>1604.844</ele>
        <time>2018-07-14T10:15:43Z</time>
      </trkpt>
      <trkpt lat="45.770410" lon="6.715219">
        <ele>1604.878</ele>
        <time>2018-07-14T10:15:47Z</time>
      </trkpt>
      <trkpt lat="45.770364" lon="6.715189">
        <ele>1604.468</ele>
        <time>2018-07-14T10:15:51Z</time>
      </trkpt>
      <trkpt lat="45.770319" lon="6.715161">
        <ele>1604.245</ele>
        <time>2018-07-14T10:15:55Z</time>
      </trkpt>
      <trkpt lat="45.770275" lon="6.715128">
        <ele>1604.188</ele>
        <time>2018-07-14T10:15:59Z</time>
      </trkpt>
      <trkpt lat="45.770232" lon="6.715092">
        <ele>1604.043</ele>
        <time>2018-07-14T10:16:03Z</time>
      </trkpt>
      <trkpt lat="45.770190" lon="6.715053">
        <ele>1604.049</ele>
        <time>2018-07-14T10:16:07Z</time>
      </trkpt>
      <trkpt lat="45.770138" lon="6.715012">
        <ele>1603.624</ele>
        <time>2018-07-14T10:16:11Z</time>
      </trkpt>
      <trkpt lat="45.770091" lon="6.714972">
        <ele>1603.391</ele>
        <time>2018-07-14T10:16:15Z</time>
      </trkpt>
      <trkpt lat="45.770049" lon="6.714931">
        <ele>1602.781</ele>
        <time>2018-07-14T10:16:19Z</time>
      </trkpt>
      <trkpt lat="45.770006" lon="6.714900">
        <ele>1602.419</ele>
        <time>2018-07-14T10:16:23Z</time>
      </trkpt>
      <trkpt lat="45.769957" lon="6.714879">
        <ele>1602.208</ele>
        <time>2018-07-14T10:16:27Z</time>
      </trkpt>
      <trkpt lat="45.769909" lon="6.714866">
        <ele>1601.731</ele>
        <time>2018-07-14T10:16:31Z</time>
      </trkpt>
      <trkpt lat="45.769858" lon="6.714860">
        <ele>1601.485</ele>
        <time>2018-07-14T10:16:35Z</time>
      </trkpt>
      <trkpt lat="45.769805" lon="6.714854">
        <ele>1601.645</ele>
        <time>2018-07-14T10:16:39Z</time>
      </trkpt>
      <trkpt lat="45.769758" lon="6.714847">
        <ele>1602.152</ele>
        <time>2018-07-14T10:16:43Z</time>
      </trkpt>
      <trkpt lat="45.769713" lon="6.714844">
        <ele>1602.885</ele>
        <time>2018-07-14T10:16:47Z</time>
      </trkpt>
      <trkpt lat="45.769659" lon="6.714848">
        <ele>1604.020</ele>
        <time>2018-07-14T10:16:52Z</time>
      </trkpt>
      <trkpt lat="45.769614" lon="6.714848">
        <ele>1604.326</ele>
        <time>2018-07-14T10:16:56Z</time>
      </trkpt>
      <trkpt lat="45.769565" lon="6.714846">
        <ele>1604.531</ele>
        <time>2018-07-14T10:17:00Z</time>
      </trkpt>
      <trkpt lat="45.769515" lon="6.714844">
        <ele>1605.086</ele>
        <time>2018-07-14T10:17:04Z</time>
      </trkpt>
      <trkpt lat="45.769469" lon="6.714839">
        <ele>1605.760</ele>
        <time>2018-07-14T10:17:08Z</time>
      </trkpt>
      <trkpt lat="45.769424" lon="6.714834">
        <ele>1606.526</ele>
        <time>2018-07-14T10:17:12Z</time>
      </trkpt>
      <trkpt lat="45.769379" lon="6.714829">
        <ele>1607.408</ele>
        <time>2018-07-14T10:17:16Z</time>
      </trkpt>
      <trkpt lat="45.769326" lon="6.714817">
        <ele>1608.740</ele>
        <time>2018-07-14T10:17:21Z</time>
      </trkpt>
      <trkpt lat="45.769281" lon="6.714807">
        <ele>1609.574</ele>
        <time>2018-07-14T10:17:25Z</time>
      </trkpt>
      <trkpt lat="45.769229" lon="6.714797">
        <ele>1610.044</ele>
        <time>2018-07-14T10:17:30Z</time>
      </trkpt>
      <trkpt lat="45.769179" lon="6.714780">
        <ele>1609.981</ele>
        <time>2018-07-14T10:17:35Z</time>
      </trkpt>
      <trkpt lat="45.769130" lon="6.714760">
        <ele>1609.894</ele>
        <time>2018-07-14T10:17:40Z</time>
      </trkpt>
      <trkpt lat="45.769086" lon="6.714742">
        <ele>1609.819</ele>
        <time>2018-07-14T10:17:44Z</time>
      </trkpt>
      <trkpt lat="45.769034" lon="6.714721">
        <ele>1609.845</ele>
        <time>2018-07-14T10:17:49Z</time>
      </trkpt>
      <trkpt lat="45.768984" lon="6.714703">
        <ele>1609.850</ele>
        <time>2018-07-14T10:17:54Z</time>
      </trkpt>
      <trkpt lat="45.768930" lon="6.714682">
        <ele>1609.846</ele>
        <time>2018-07-14T10:17:59Z</time>
      </trkpt>
      <trkpt lat="45.768876" lon="6.714664">
        <ele>1609.888</ele>
        <time>2018-07-14T10:18:04Z</time>
      </trkpt>
      <trkpt lat="45.768824" lon="6.714642">
        <ele>1609.816</ele>
        <time>2018-07-14T10:18:09Z</time>
      </trkpt>
      <trkpt lat="45.768775" lon="6.714616">
        <ele>1610.208</ele>
        <time>2018-07-14T10:18:14Z</time>
      </trkpt>
      <trkpt lat="45.768730" lon="6.714605">
        <ele>1610.476</ele>
        <time>2018-07-14T10:18:18Z</time>
      </trkpt>
      <trkpt lat="45.768679" lon="6.714581">
        <ele>1610.550</ele>
        <time>2018-07-14T10:18:23Z</time>
      </trkpt>
      <trkpt lat="45.768634" lon="6.714561">
        <ele>1610.670</ele>
        <time>2018-07-14T10:18:27Z</time>
      </trkpt>
      <trkpt lat="45.768589" lon="6.714546">
        <ele>1610.767</ele>
        <time>2018-07-14T10:18:31Z</time>
      </trkpt>
      <trkpt lat="45.768540" lon="6.714514">
        <ele>1610.780</ele>
        <time>2018-07-14T10:18:36Z</time>
      </trkpt>
      <trkpt lat="45.768494" lon="6.714492">
        <ele>1610.765</ele>
        <time>2018-07-14T10:18:40Z</time>
      </trkpt>
      <trkpt lat="45.768450" lon="6.714467">
        <ele>1610.781</ele>
        <time>2018-07-14T10:18:44Z</time>
      </trkpt>
      <trkpt lat="45.768405" lon="6.714446">
        <ele>1610.716</ele>
        <time>2018-07-14T10:18:48Z</time>
      </trkpt>
      <trkpt lat="45.768365" lon="6.714415">
        <ele>1610.779</ele>
        <time>2018-07-14T10:18:52Z</time>
      </trkpt>
      <trkpt lat="45.768314" lon="6.714381">
        <ele>1610.705</ele>
        <time>2018-07-14T10:18:57Z</time>
      </trkpt>
      <trkpt lat="45.768273" lon="6.714350">
        <ele>1610.725</ele>
        <time>2018-07-14T10:19:01Z</time>
      </trkpt>
      <trkpt lat="45.768225" lon="6.714320">
        <ele>1610.708</ele>
        <time>2018-07-14T10:19:06Z</time>
      </trkpt>
      <trkpt lat="45.768173" lon="6.714290">
        <ele>1611.199</ele>
        <time>2018-07-14T10:19:11Z</time>
      </trkpt>
      <trkpt lat="45.768129" lon="6.714271">
        <ele>1611.373</ele>
        <time>2018-07-14T10:19:15Z</time>
      </trkpt>
      <trkpt lat="45.768085" lon="6.714255">
        <ele>1611.453</ele>
        <time>2018-07-14T10:19:19Z</time>
      </trkpt>
      <trkpt lat="45.768036" lon="6.714227">
        <ele>1611.520</ele>
        <time>2018-07-14T10:19:24Z</time>
      </trkpt>
      <trkpt lat="45.767982" lon="6.714210">
        <ele>1612.073</ele>
        <time>2018-07-14T10:19:29Z</time>
      </trkpt>
      <trkpt lat="45.767928" lon="6.714196">
        <ele>1612.358</ele>
        <time>2018-07-14T10:19:34Z</time>
      </trkpt>
      <trkpt lat="45.767880" lon="6.714171">
        <ele>1612.934</ele>
        <time>2018-07-14T10:19:39Z</time>
      </trkpt>
      <trkpt lat="45.767830" lon="6.714144">
        <ele>1613.299</ele>
        <time>2018-07-14T10:19:44Z</time>
      </trkpt>
      <trkpt lat="45.767787" lon="6.714125">
        <ele>1613.844</ele>
        <time>2018-07-14T10:19:48Z</time>
      </trkpt>
      <trkpt lat="45.767740" lon="6.714101">
        <ele>1614.205</ele>
        <time>2018-07-14T10:19:52Z</time>
      </trkpt>
      <trkpt lat="45.767697" lon="6.714069">
        <ele>1614.415</ele>
        <time>2018-07-14T10:19:56Z</time>
      </trkpt>
      <trkpt lat="45.767661" lon="6.714020">
        <ele>1614.908</ele>
        <time>2018-07-14T10:20:05Z</time>
      </trkpt>
      <trkpt lat="45.767618" lon="6.713988">
        <ele>1615.226</ele>
        <time>2018-07-14T10:20:10Z</time>
      </trkpt>
      <trkpt lat="45.767576" lon="6.713960">
        <ele>1615.010</ele>
        <time>2018-07-14T10:20:14Z</time>
      </trkpt>
      <trkpt lat="45.767531" lon="6.713929">
        <ele>1614.990</ele>
        <time>2018-07-14T10:20:18Z</time>
      </trkpt>
      <trkpt lat="45.767490" lon="6.713893">
        <ele>1614.827</ele>
        <time>2018-07-14T10:20:22Z</time>
      </trkpt>
      <trkpt lat="45.767451" lon="6.713856">
        <ele>1615.220</ele>
        <time>2018-07-14T10:20:26Z</time>
      </trkpt>
      <trkpt lat="45.767408" lon="6.713821">
        <ele>1615.485</ele>
        <time>2018-07-14T10:20:30Z</time>
      </trkpt>
      <trkpt lat="45.767365" lon="6.713785">
        <ele>1615.591</ele>
        <time>2018-07-14T10:20:34Z</time>
      </trkpt>
      <trkpt lat="45.767325" lon="6.713748">
        <ele>1615.686</ele>
        <time>2018-07-14T10:20:38Z</time>
      </trkpt>
      <trkpt lat="45.767284" lon="6.713714">
        <ele>1615.617</ele>
        <time>2018-07-14T10:20:42Z</time>
      </trkpt>
      <trkpt lat="45.767243" lon="6.713675">
        <ele>1615.687</ele>
        <time>2018-07-14T10:20:46Z</time>
      </trkpt>
      <trkpt lat="45.767199" lon="6.713638">
        <ele>1616.015</ele>
        <time>2018-07-14T10:20:50Z</time>
      </trkpt>
      <trkpt lat="45.767158" lon="6.713598">
        <ele>1615.408</ele>
        <time>2018-07-14T10:20:54Z</time>
      </trkpt>
      <trkpt lat="45.767115" lon="6.713563">
        <ele>1614.783</ele>
        <time>2018-07-14T10:20:58Z</time>
      </trkpt>
      <trkpt lat="45.767080" lon="6.713522">
        <ele>1614.367</ele>
        <time>2018-07-14T10:21:02Z</time>
      </trkpt>
      <trkpt lat="45.767039" lon="6.713485">
        <ele>1614.487</ele>
        <time>2018-07-14T10:21:06Z</time>
      </trkpt>
      <trkpt lat="45.766996" lon="6.713451">
        <ele>1614.924</ele>
        <time>2018-07-14T10:21:10Z</time>
      </trkpt>
      <trkpt lat="45.766957" lon="6.713414">
        <ele>1615.217</ele>
        <time>2018-07-14T10:21:14Z</time>
      </trkpt>
      <trkpt lat="45.766910" lon="6.713367">
        <ele>1615.472</ele>
        <time>2018-07-14T10:21:19Z</time>
      </trkpt>
      <trkpt lat="45.766868" lon="6.713329">
        <ele>1615.528</ele>
        <time>2018-07-14T10:21:23Z</time>
      </trkpt>
      <trkpt lat="45.766831" lon="6.713290">
        <ele>1615.673</ele>
        <time>2018-07-14T10:21:27Z</time>
      </trkpt>
      <trkpt lat="45.766785" lon="6.713244">
        <ele>1615.654</ele>
        <time>2018-07-14T10:21:32Z</time>
      </trkpt>
      <trkpt lat="45.766736" lon="6.713213">
        <ele>1616.056</ele>
        <time>2018-07-14T10:21:37Z</time>
      </trkpt>
      <trkpt lat="45.766687" lon="6.713184">
        <ele>1616.311</ele>
        <time>2018-07-14T10:21:42Z</time>
      </trkpt>
      <trkpt lat="45.766637" lon="6.713166">
        <ele>1616.908</ele>
        <time>2018-07-14T10:21:47Z</time>
      </trkpt>
      <trkpt lat="45.766588" lon="6.713151">
        <ele>1617.217</ele>
        <time>2018-07-14T10:21:52Z</time>
      </trkpt>
      <trkpt lat="45.766541" lon="6.713143">
        <ele>1617.821</ele>
        <time>2018-07-14T10:21:57Z</time>
      </trkpt>
      <trkpt lat="45.766496" lon="6.713137">
        <ele>1617.861</ele>
        <time>2018-07-14T10:22:01Z</time>
      </trkpt>
      <trkpt lat="45.766448" lon="6.713120">
        <ele>1618.628</ele>
        <time>2018-07-14T10:22:06Z</time>
      </trkpt>
      <trkpt lat="45.766402" lon="6.713112">
        <ele>1619.121</ele>
        <time>2018-07-14T10:22:11Z</time>
      </trkpt>
      <trkpt lat="45.766352" lon="6.713098">
        <ele>1619.416</ele>
        <time>2018-07-14T10:22:16Z</time>
      </trkpt>
      <trkpt lat="45.766306" lon="6.713082">
        <ele>1619.642</ele>
        <time>2018-07-14T10:22:21Z</time>
      </trkpt>
      <trkpt lat="45.766261" lon="6.713067">
        <ele>1619.727</ele>
        <time>2018-07-14T10:22:26Z</time>
      </trkpt>
      <trkpt lat="45.766213" lon="6.713056">
        <ele>1620.258</ele>
        <time>2018-07-14T10:22:31Z</time>
      </trkpt>
      <trkpt lat="45.766163" lon="6.713043">
        <ele>1620.952</ele>
        <time>2018-07-14T10:22:36Z</time>
      </trkpt>
      <trkpt lat="45.766115" lon="6.713028">
        <ele>1621.317</ele>
        <time>2018-07-14T10:22:41Z</time>
      </trkpt>
      <trkpt lat="45.766062" lon="6.713010">
        <ele>1621.508</ele>
        <time>2018-07-14T10:22:46Z</time>
      </trkpt>
      <trkpt lat="45.766014" lon="6.712987">
        <ele>1621.647</ele>
        <time>2018-07-14T10:22:51Z</time>
      </trkpt>
      <trkpt lat="45.765962" lon="6.712972">
        <ele>1622.121</ele>
        <time>2018-07-14T10:22:57Z</time>
      </trkpt>
      <trkpt lat="45.765910" lon="6.712951">
        <ele>1622.041</ele>
        <time>2018-07-14T10:23:03Z</time>
      </trkpt>
      <trkpt lat="45.765859" lon="6.712928">
        <ele>1621.958</ele>
        <time>2018-07-14T10:23:08Z</time>
      </trkpt>
      <trkpt lat="45.765804" lon="6.712915">
        <ele>1622.311</ele>
        <time>2018-07-14T10:23:13Z</time>
      </trkpt>
      <trkpt lat="45.765753" lon="6.712911">
        <ele>1622.966</ele>
        <time>2018-07-14T10:23:18Z</time>
      </trkpt>
      <trkpt lat="45.765700" lon="6.712901">
        <ele>1623.792</ele>
        <time>2018-07-14T10:23:23Z</time>
      </trkpt>
      <trkpt lat="45.765648" lon="6.712897">
        <ele>1625.097</ele>
        <time>2018-07-14T10:23:28Z</time>
      </trkpt>
      <trkpt lat="45.765601" lon="6.712890">
        <ele>1626.292</ele>
        <time>2018-07-14T10:23:33Z</time>
      </trkpt>
      <trkpt lat="45.765550" lon="6.712877">
        <ele>1627.373</ele>
        <time>2018-07-14T10:23:38Z</time>
      </trkpt>
      <trkpt lat="45.765498" lon="6.712846">
        <ele>1627.620</ele>
        <time>2018-07-14T10:23:43Z</time>
      </trkpt>
      <trkpt lat="45.765445" lon="6.712830">
        <ele>1627.808</ele>
        <time>2018-07-14T10:23:48Z</time>
      </trkpt>
      <trkpt lat="45.765391" lon="6.712817">
        <ele>1628.321</ele>
        <time>2018-07-14T10:23:53Z</time>
      </trkpt>
      <trkpt lat="45.765346" lon="6.712796">
        <ele>1629.025</ele>
        <time>2018-07-14T10:23:58Z</time>
      </trkpt>
      <trkpt lat="45.765301" lon="6.712781">
        <ele>1629.415</ele>
        <time>2018-07-14T10:24:03Z</time>
      </trkpt>
      <trkpt lat="45.765254" lon="6.712764">
        <ele>1630.122</ele>
        <time>2018-07-14T10:24:08Z</time>
      </trkpt>
      <trkpt lat="45.765212" lon="6.712741">
        <ele>1630.135</ele>
        <time>2018-07-14T10:24:13Z</time>
      </trkpt>
      <trkpt lat="45.765162" lon="6.712704">
        <ele>1629.310</ele>
        <time>2018-07-14T10:24:18Z</time>
      </trkpt>
      <trkpt lat="45.765118" lon="6.712684">
        <ele>1628.896</ele>
        <time>2018-07-14T10:24:22Z</time>
      </trkpt>
      <trkpt lat="45.765072" lon="6.712669">
        <ele>1628.541</ele>
        <time>2018-07-14T10:24:27Z</time>
      </trkpt>
      <trkpt lat="45.765025" lon="6.712652">
        <ele>1628.362</ele>
        <time>2018-07-14T10:24:32Z</time>
      </trkpt>
      <trkpt lat="45.764975" lon="6.712645">
        <ele>1628.683</ele>
        <time>2018-07-14T10:24:37Z</time>
      </trkpt>
      <trkpt lat="45.764922" lon="6.712635">
        <ele>1629.211</ele>
        <time>2018-07-14T10:24:42Z</time>
      </trkpt>
      <trkpt lat="45.764872" lon="6.712618">
        <ele>1629.508</ele>
        <time>2018-07-14T10:24:47Z</time>
      </trkpt>
      <trkpt lat="45.764826" lon="6.712587">
        <ele>1629.328</ele>
        <time>2018-07-14T10:24:52Z</time>
      </trkpt>
      <trkpt lat="45.764777" lon="6.712568">
        <ele>1629.632</ele>
        <time>2018-07-14T10:24:57Z</time>
      </trkpt>
      <trkpt lat="45.764731" lon="6.712547">
        <ele>1630.252</ele>
        <time>2018-07-14T10:25:02Z</time>
      </trkpt>
      <trkpt lat="45.764682" lon="6.712516">
        <ele>1630.999</ele>
        <time>2018-07-14T10:25:08Z</time>
      </trkpt>
      <trkpt lat="45.764642" lon="6.712471">
        <ele>1630.532</ele>
        <time>2018-07-14T10:25:13Z</time>
      </trkpt>
      <trkpt lat="45.764599" lon="6.712439">
        <ele>1630.737</ele>
        <time>2018-07-14T10:25:18Z</time>
      </trkpt>
      <trkpt lat="45.764552" lon="6.712417">
        <ele>1631.233</ele>
        <time>2018-07-14T10:25:23Z</time>
      </trkpt>
      <trkpt lat="45.764500" lon="6.712409">
        <ele>1631.988</ele>
        <time>2018-07-14T10:25:28Z</time>
      </trkpt>
      <trkpt lat="45.764445" lon="6.712407">
        <ele>1632.365</ele>
        <time>2018-07-14T10:25:33Z</time>
      </trkpt>
      <trkpt lat="45.764390" lon="6.712408">
        <ele>1633.068</ele>
        <time>2018-07-14T10:25:38Z</time>
      </trkpt>
      <trkpt lat="45.764335" lon="6.712402">
        <ele>1633.414</ele>
        <time>2018-07-14T10:25:43Z</time>
      </trkpt>
      <trkpt lat="45.764289" lon="6.712396">
        <ele>1634.008</ele>
        <time>2018-07-14T10:25:47Z</time>
      </trkpt>
      <trkpt lat="45.764240" lon="6.712389">
        <ele>1634.478</ele>
        <time>2018-07-14T10:25:51Z</time>
      </trkpt>
      <trkpt lat="45.764195" lon="6.712381">
        <ele>1635.052</ele>
        <time>2018-07-14T10:25:55Z</time>
      </trkpt>
      <trkpt lat="45.764144" lon="6.712372">
        <ele>1635.422</ele>
        <time>2018-07-14T10:26:00Z</time>
      </trkpt>
      <trkpt lat="45.764096" lon="6.712350">
        <ele>1636.079</ele>
        <time>2018-07-14T10:26:05Z</time>
      </trkpt>
      <trkpt lat="45.764044" lon="6.712324">
        <ele>1636.462</ele>
        <time>2018-07-14T10:26:10Z</time>
      </trkpt>
      <trkpt lat="45.764004" lon="6.712292">
        <ele>1637.037</ele>
        <time>2018-07-14T10:26:15Z</time>
      </trkpt>
      <trkpt lat="45.763964" lon="6.712255">
        <ele>1637.013</ele>
        <time>2018-07-14T10:26:26Z</time>
      </trkpt>
      <trkpt lat="45.763933" lon="6.712195">
        <ele>1636.218</ele>
        <time>2018-07-14T10:26:39Z</time>
      </trkpt>
      <trkpt lat="45.763889" lon="6.712168">
        <ele>1636.918</ele>
        <time>2018-07-14T10:26:45Z</time>
      </trkpt>
      <trkpt lat="45.763840" lon="6.712152">
        <ele>1637.398</ele>
        <time>2018-07-14T10:26:57Z</time>
      </trkpt>
      <trkpt lat="45.763789" lon="6.712130">
        <ele>1636.817</ele>
        <time>2018-07-14T10:27:02Z</time>
      </trkpt>
      <trkpt lat="45.763746" lon="6.712107">
        <ele>1636.908</ele>
        <time>2018-07-14T10:27:06Z</time>
      </trkpt>
      <trkpt lat="45.763696" lon="6.712085">
        <ele>1637.773</ele>
        <time>2018-07-14T10:27:12Z</time>
      </trkpt>
      <trkpt lat="45.763649" lon="6.712068">
        <ele>1638.257</ele>
        <time>2018-07-14T10:27:16Z</time>
      </trkpt>
      <trkpt lat="45.763602" lon="6.712056">
        <ele>1638.987</ele>
        <time>2018-07-14T10:27:21Z</time>
      </trkpt>
      <trkpt lat="45.763560" lon="6.712030">
        <ele>1639.764</ele>
        <time>2018-07-14T10:27:27Z</time>
      </trkpt>
      <trkpt lat="45.763517" lon="6.711993">
        <ele>1640.617</ele>
        <time>2018-07-14T10:27:33Z</time>
      </trkpt>
      <trkpt lat="45.763471" lon="6.711978">
        <ele>1641.132</ele>
        <time>2018-07-14T10:27:40Z</time>
      </trkpt>
      <trkpt lat="45.763421" lon="6.711959">
        <ele>1641.418</ele>
        <time>2018-07-14T10:27:46Z</time>
      </trkpt>
      <trkpt lat="45.763370" lon="6.711962">
        <ele>1642.013</ele>
        <time>2018-07-14T10:27:52Z</time>
      </trkpt>
      <trkpt lat="45.763325" lon="6.711971">
        <ele>1641.654</ele>
        <time>2018-07-14T10:28:00Z</time>
      </trkpt>
      <trkpt lat="45.763277" lon="6.711954">
        <ele>1642.556</ele>
        <time>2018-07-14T10:28:17Z</time>
      </trkpt>
      <trkpt lat="45.763231" lon="6.711949">
        <ele>1643.111</ele>
        <time>2018-07-14T10:28:22Z</time>
      </trkpt>
      <trkpt lat="45.763181" lon="6.711929">
        <ele>1643.808</ele>
        <time>2018-07-14T10:28:27Z</time>
      </trkpt>
      <trkpt lat="45.763132" lon="6.711914">
        <ele>1643.827</ele>
        <time>2018-07-14T10:28:33Z</time>
      </trkpt>
      <trkpt lat="45.763087" lon="6.711897">
        <ele>1644.671</ele>
        <time>2018-07-14T10:28:39Z</time>
      </trkpt>
      <trkpt lat="45.763037" lon="6.711881">
        <ele>1645.541</ele>
        <time>2018-07-14T10:28:45Z</time>
      </trkpt>
      <trkpt lat="45.762990" lon="6.711859">
        <ele>1646.448</ele>
        <time>2018-07-14T10:28:51Z</time>
      </trkpt>
      <trkpt lat="45.762942" lon="6.711845">
        <ele>1647.091</ele>
        <time>2018-07-14T10:28:57Z</time>
      </trkpt>
      <trkpt lat="45.762891" lon="6.711824">
        <ele>1647.736</ele>
        <time>2018-07-14T10:29:03Z</time>
      </trkpt>
      <trkpt lat="45.762846" lon="6.711803">
        <ele>1648.512</ele>
        <time>2018-07-14T10:29:09Z</time>
      </trkpt>
      <trkpt lat="45.762802" lon="6.711771">
        <ele>1649.097</ele>
        <time>2018-07-14T10:29:15Z</time>
      </trkpt>
      <trkpt lat="45.762757" lon="6.711740">
        <ele>1649.731</ele>
        <time>2018-07-14T10:29:21Z</time>
      </trkpt>
      <trkpt lat="45.762710" lon="6.711704">
        <ele>1650.161</ele>
        <time>2018-07-14T10:29:27Z</time>
      </trkpt>
      <trkpt lat="45.762666" lon="6.711673">
        <ele>1650.807</ele>
        <time>2018-07-14T10:29:34Z</time>
      </trkpt>
      <trkpt lat="45.762621" lon="6.711658">
        <ele>1651.208</ele>
        <time>2018-07-14T10:29:40Z</time>
      </trkpt>
      <trkpt lat="45.762576" lon="6.711632">
        <ele>1651.815</ele>
        <time>2018-07-14T10:29:46Z</time>
      </trkpt>
      <trkpt lat="45.762530" lon="6.711601">
        <ele>1652.279</ele>
        <time>2018-07-14T10:29:52Z</time>
      </trkpt>
      <trkpt lat="45.762484" lon="6.711581">
        <ele>1653.259</ele>
        <time>2018-07-14T10:29:59Z</time>
      </trkpt>
      <trkpt lat="45.762436" lon="6.711572">
        <ele>1654.246</ele>
        <time>2018-07-14T10:30:05Z</time>
      </trkpt>
      <trkpt lat="45.762388" lon="6.711553">
        <ele>1654.879</ele>
        <time>2018-07-14T10:30:11Z</time>
      </trkpt>
      <trkpt lat="45.762342" lon="6.711535">
        <ele>1655.614</ele>
        <time>2018-07-14T10:30:17Z</time>
      </trkpt>
      <trkpt lat="45.762295" lon="6.711517">
        <ele>1656.520</ele>
        <time>2018-07-14T10:30:23Z</time>
      </trkpt>
      <trkpt lat="45.762246" lon="6.711492">
        <ele>1657.495</ele>
        <time>2018-07-14T10:30:30Z</time>
      </trkpt>
      <trkpt lat="45.762204" lon="6.711461">
        <ele>1657.536</ele>
        <time>2018-07-14T10:30:36Z</time>
      </trkpt>
      <trkpt lat="45.762158" lon="6.711442">
        <ele>1658.017</ele>
        <time>2018-07-14T10:30:42Z</time>
      </trkpt>
      <trkpt lat="45.762115" lon="6.711412">
        <ele>1658.318</ele>
        <time>2018-07-14T10:30:48Z</time>
      </trkpt>
      <trkpt lat="45.762065" lon="6.711391">
        <ele>1658.508</ele>
        <time>2018-07-14T10:30:54Z</time>
      </trkpt>
      <trkpt lat="45.762018" lon="6.711381">
        <ele>1659.015</ele>
        <time>2018-07-14T10:31:01Z</time>
      </trkpt>
      <trkpt lat="45.761968" lon="6.711382">
        <ele>1660.139</ele>
        <time>2018-07-14T10:31:10Z</time>
      </trkpt>
      <trkpt lat="45.761923" lon="6.711386">
        <ele>1661.279</ele>
        <time>2018-07-14T10:31:18Z</time>
      </trkpt>
      <trkpt lat="45.761878" lon="6.711381">
        <ele>1662.226</ele>
        <time>2018-07-14T10:31:25Z</time>
      </trkpt>
      <trkpt lat="45.761828" lon="6.711382">
        <ele>1663.229</ele>
        <time>2018-07-14T10:31:33Z</time>
      </trkpt>
      <trkpt lat="45.761776" lon="6.711385">
        <ele>1664.264</ele>
        <time>2018-07-14T10:31:41Z</time>
      </trkpt>
      <trkpt lat="45.761730" lon="6.711395">
        <ele>1666.090</ele>
        <time>2018-07-14T10:31:48Z</time>
      </trkpt>
      <trkpt lat="45.761683" lon="6.711390">
        <ele>1667.155</ele>
        <time>2018-07-14T10:31:55Z</time>
      </trkpt>
      <trkpt lat="45.761638" lon="6.711363">
        <ele>1667.837</ele>
        <time>2018-07-14T10:32:02Z</time>
      </trkpt>
      <trkpt lat="45.761591" lon="6.711354">
        <ele>1668.649</ele>
        <time>2018-07-14T10:32:10Z</time>
      </trkpt>
      <trkpt lat="45.761544" lon="6.711353">
        <ele>1669.513</ele>
        <time>2018-07-14T10:32:19Z</time>
      </trkpt>
      <trkpt lat="45.761498" lon="6.711353">
        <ele>1670.408</ele>
        <time>2018-07-14T10:32:27Z</time>
      </trkpt>
      <trkpt lat="45.761449" lon="6.711334">
        <ele>1671.855</ele>
        <time>2018-07-14T10:32:35Z</time>
      </trkpt>
      <trkpt lat="45.761403" lon="6.711311">
        <ele>1673.069</ele>
        <time>2018-07-14T10:32:42Z</time>
      </trkpt>
      <trkpt lat="45.761361" lon="6.711271">
        <ele>1674.559</ele>
        <time>2018-07-14T10:32:50Z</time>
      </trkpt>
      <trkpt lat="45.761324" lon="6.711229">
        <ele>1676.626</ele>
        <time>2018-07-14T10:32:59Z</time>
      </trkpt>
      <trkpt lat="45.761290" lon="6.711182">
        <ele>1678.349</ele>
        <time>2018-07-14T10:33:08Z</time>
      </trkpt>
      <trkpt lat="45.761249" lon="6.711153">
        <ele>1677.724</ele>
        <time>2018-07-14T10:33:15Z</time>
      </trkpt>
      <trkpt lat="45.761211" lon="6.711111">
        <ele>1677.760</ele>
        <time>2018-07-14T10:33:24Z</time>
      </trkpt>
      <trkpt lat="45.761170" lon="6.711085">
        <ele>1678.525</ele>
        <time>2018-07-14T10:33:32Z</time>
      </trkpt>
      <trkpt lat="45.761119" lon="6.711023">
        <ele>1678.634</ele>
        <time>2018-07-14T10:33:48Z</time>
      </trkpt>
      <trkpt lat="45.761071" lon="6.711012">
        <ele>1679.155</ele>
        <time>2018-07-14T10:33:57Z</time>
      </trkpt>
      <trkpt lat="45.761026" lon="6.710998">
        <ele>1680.610</ele>
        <time>2018-07-14T10:34:05Z</time>
      </trkpt>
      <trkpt lat="45.760977" lon="6.710981">
        <ele>1681.508</ele>
        <time>2018-07-14T10:34:13Z</time>
      </trkpt>
      <trkpt lat="45.760929" lon="6.710988">
        <ele>1683.255</ele>
        <time>2018-07-14T10:34:22Z</time>
      </trkpt>
      <trkpt lat="45.760877" lon="6.711000">
        <ele>1684.279</ele>
        <time>2018-07-14T10:34:28Z</time>
      </trkpt>
      <trkpt lat="45.760829" lon="6.711004">
        <ele>1683.679</ele>
        <time>2018-07-14T10:34:33Z</time>
      </trkpt>
      <trkpt lat="45.760779" lon="6.711007">
        <ele>1684.176</ele>
        <time>2018-07-14T10:34:39Z</time>
      </trkpt>
      <trkpt lat="45.760727" lon="6.711018">
        <ele>1684.849</ele>
        <time>2018-07-14T10:34:46Z</time>
      </trkpt>
      <trkpt lat="45.760676" lon="6.711026">
        <ele>1685.654</ele>
        <time>2018-07-14T10:34:54Z</time>
      </trkpt>
      <trkpt lat="45.760627" lon="6.711041">
        <ele>1686.520</ele>
        <time>2018-07-14T10:35:01Z</time>
      </trkpt>
      <trkpt lat="45.760581" lon="6.711057">
        <ele>1687.445</ele>
        <time>2018-07-14T10:35:08Z</time>
      </trkpt>
      <trkpt lat="45.760535" lon="6.711089">
        <ele>1688.847</ele>
        <time>2018-07-14T10:35:16Z</time>
      </trkpt>
      <trkpt lat="45.760491" lon="6.711117">
        <ele>1691.229</ele>
        <time>2018-07-14T10:35:28Z</time>
      </trkpt>
      <trkpt lat="45.760445" lon="6.711122">
        <ele>1693.021</ele>
        <time>2018-07-14T10:35:35Z</time>
      </trkpt>
      <trkpt lat="45.760400" lon="6.711144">
        <ele>1694.108</ele>
        <time>2018-07-14T10:35:43Z</time>
      </trkpt>
      <trkpt lat="45.760355" lon="6.711172">
        <ele>1695.696</ele>
        <time>2018-07-14T10:35:50Z</time>
      </trkpt>
      <trkpt lat="45.760309" lon="6.711193">
        <ele>1696.560</ele>
        <time>2018-07-14T10:35:57Z</time>
      </trkpt>
      <trkpt lat="45.760262" lon="6.711207">
        <ele>1696.610</ele>
        <time>2018-07-14T10:36:05Z</time>
      </trkpt>
      <trkpt lat="45.760217" lon="6.711230">
        <ele>1697.527</ele>
        <time>2018-07-14T10:36:14Z</time>
      </trkpt>
      <trkpt lat="45.760176" lon="6.711269">
        <ele>1698.890</ele>
        <time>2018-07-14T10:36:24Z</time>
      </trkpt>
      <trkpt lat="45.760129" lon="6.711283">
        <ele>1699.695</ele>
        <time>2018-07-14T10:36:33Z</time>
      </trkpt>
      <trkpt lat="45.760083" lon="6.711274">
        <ele>1700.531</ele>
        <time>2018-07-14T10:36:42Z</time>
      </trkpt>
      <trkpt lat="45.760038" lon="6.711252">
        <ele>1701.416</ele>
        <time>2018-07-14T10:36:51Z</time>
      </trkpt>
      <trkpt lat="45.759993" lon="6.711214">
        <ele>1702.865</ele>
        <time>2018-07-14T10:37:07Z</time>
      </trkpt>
      <trkpt lat="45.759945" lon="6.711190">
        <ele>1704.868</ele>
        <time>2018-07-14T10:37:15Z</time>
      </trkpt>
      <trkpt lat="45.759902" lon="6.711154">
        <ele>1705.214</ele>
        <time>2018-07-14T10:37:21Z</time>
      </trkpt>
      <trkpt lat="45.759854" lon="6.711139">
        <ele>1706.608</ele>
        <time>2018-07-14T10:37:29Z</time>
      </trkpt>
      <trkpt lat="45.759818" lon="6.711096">
        <ele>1708.328</ele>
        <time>2018-07-14T10:37:39Z</time>
      </trkpt>
      <trkpt lat="45.759778" lon="6.711063">
        <ele>1709.322</ele>
        <time>2018-07-14T10:37:47Z</time>
      </trkpt>
      <trkpt lat="45.759730" lon="6.711037">
        <ele>1710.342</ele>
        <time>2018-07-14T10:37:56Z</time>
      </trkpt>
      <trkpt lat="45.759683" lon="6.711013">
        <ele>1711.789</ele>
        <time>2018-07-14T10:38:03Z</time>
      </trkpt>
      <trkpt lat="45.759642" lon="6.710984">
        <ele>1712.952</ele>
        <time>2018-07-14T10:38:11Z</time>
      </trkpt>
      <trkpt lat="45.759602" lon="6.710949">
        <ele>1713.267</ele>
        <time>2018-07-14T10:38:17Z</time>
      </trkpt>
      <trkpt lat="45.759555" lon="6.710947">
        <ele>1714.243</ele>
        <time>2018-07-14T10:38:24Z</time>
      </trkpt>
      <trkpt lat="45.759510" lon="6.710923">
        <ele>1714.828</ele>
        <time>2018-07-14T10:38:32Z</time>
      </trkpt>
      <trkpt lat="45.759466" lon="6.710883">
        <ele>1714.836</ele>
        <time>2018-07-14T10:38:39Z</time>
      </trkpt>
      <trkpt lat="45.759464" lon="6.710819">
        <ele>1719.717</ele>
        <time>2018-07-14T10:48:39Z</time>
      </trkpt>
      <trkpt lat="45.759429" lon="6.710774">
        <ele>1718.318</ele>
        <time>2018-07-14T10:48:47Z</time>
      </trkpt>
      <trkpt lat="45.759380" lon="6.710747">
        <ele>1717.808</ele>
        <time>2018-07-14T10:48:53Z</time>
      </trkpt>
      <trkpt lat="45.759335" lon="6.710728">
        <ele>1718.785</ele>
        <time>2018-07-14T10:49:00Z</time>
      </trkpt>
      <trkpt lat="45.759288" lon="6.710707">
        <ele>1718.469</ele>
        <time>2018-07-14T10:49:07Z</time>
      </trkpt>
      <trkpt lat="45.759246" lon="6.710671">
        <ele>1718.949</ele>
        <time>2018-07-14T10:49:14Z</time>
      </trkpt>
      <trkpt lat="45.759202" lon="6.710640">
        <ele>1719.686</ele>
        <time>2018-07-14T10:49:20Z</time>
      </trkpt>
      <trkpt lat="45.759159" lon="6.710611">
        <ele>1720.429</ele>
        <time>2018-07-14T10:49:28Z</time>
      </trkpt>
      <trkpt lat="45.759115" lon="6.710590">
        <ele>1721.344</ele>
        <time>2018-07-14T10:49:36Z</time>
      </trkpt>
      <trkpt lat="45.759070" lon="6.710568">
        <ele>1722.290</ele>
        <time>2018-07-14T10:49:45Z</time>
      </trkpt>
      <trkpt lat="45.759029" lon="6.710537">
        <ele>1723.275</ele>
        <time>2018-07-14T10:49:54Z</time>
      </trkpt>
      <trkpt lat="45.758986" lon="6.710518">
        <ele>1723.852</ele>
        <time>2018-07-14T10:50:03Z</time>
      </trkpt>
      <trkpt lat="45.758947" lon="6.710486">
        <ele>1724.953</ele>
        <time>2018-07-14T10:50:16Z</time>
      </trkpt>
      <trkpt lat="45.758902" lon="6.710464">
        <ele>1726.408</ele>
        <time>2018-07-14T10:50:27Z</time>
      </trkpt>
      <trkpt lat="45.758855" lon="6.710461">
        <ele>1728.108</ele>
        <time>2018-07-14T10:50:36Z</time>
      </trkpt>
      <trkpt lat="45.758818" lon="6.710509">
        <ele>1729.167</ele>
        <time>2018-07-14T10:50:47Z</time>
      </trkpt>
      <trkpt lat="45.758790" lon="6.710563">
        <ele>1729.751</ele>
        <time>2018-07-14T10:50:56Z</time>
      </trkpt>
      <trkpt lat="45.758759" lon="6.710623">
        <ele>1730.121</ele>
        <time>2018-07-14T10:51:02Z</time>
      </trkpt>
      <trkpt lat="45.758715" lon="6.710672">
        <ele>1730.328</ele>
        <time>2018-07-14T10:51:08Z</time>
      </trkpt>
      <trkpt lat="45.758674" lon="6.710702">
        <ele>1730.451</ele>
        <time>2018-07-14T10:51:13Z</time>
      </trkpt>
      <trkpt lat="45.758626" lon="6.710718">
        <ele>1731.356</ele>
        <time>2018-07-14T10:51:18Z</time>
      </trkpt>
      <trkpt lat="45.758574" lon="6.710723">
        <ele>1731.872</ele>
        <time>2018-07-14T10:51:23Z</time>
      </trkpt>
      <trkpt lat="45.758528" lon="6.710751">
        <ele>1732.527</ele>
        <time>2018-07-14T10:51:31Z</time>
      </trkpt>
      <trkpt lat="45.758488" lon="6.710790">
        <ele>1733.752</ele>
        <time>2018-07-14T10:51:39Z</time>
      </trkpt>
      <trkpt lat="45.758439" lon="6.710806">
        <ele>1734.053</ele>
        <time>2018-07-14T10:51:46Z</time>
      </trkpt>
      <trkpt lat="45.758387" lon="6.710806">
        <ele>1735.008</ele>
        <time>2018-07-14T10:51:53Z</time>
      </trkpt>
      <trkpt lat="45.758342" lon="6.710794">
        <ele>1736.008</ele>
        <time>2018-07-14T10:52:02Z</time>
      </trkpt>
      <trkpt lat="45.758296" lon="6.710788">
        <ele>1737.057</ele>
        <time>2018-07-14T10:52:10Z</time>
      </trkpt>
      <trkpt lat="45.758251" lon="6.710775">
        <ele>1738.071</ele>
        <time>2018-07-14T10:52:22Z</time>
      </trkpt>
      <trkpt lat="45.758204" lon="6.710764">
        <ele>1739.091</ele>
        <time>2018-07-14T10:52:34Z</time>
      </trkpt>
      <trkpt lat="45.758156" lon="6.710755">
        <ele>1741.618</ele>
        <time>2018-07-14T10:52:45Z</time>
      </trkpt>
      <trkpt lat="45.758111" lon="6.710775">
        <ele>1744.441</ele>
        <time>2018-07-14T10:52:54Z</time>
      </trkpt>
      <trkpt lat="45.758066" lon="6.710796">
        <ele>1746.596</ele>
        <time>2018-07-14T10:53:06Z</time>
      </trkpt>
      <trkpt lat="45.758046" lon="6.710857">
        <ele>1749.362</ele>
        <time>2018-07-14T10:53:22Z</time>
      </trkpt>
      <trkpt lat="45.758037" lon="6.710929">
        <ele>1751.067</ele>
        <time>2018-07-14T10:53:29Z</time>
      </trkpt>
      <trkpt lat="45.758018" lon="6.710992">
        <ele>1752.093</ele>
        <time>2018-07-14T10:53:35Z</time>
      </trkpt>
      <trkpt lat="45.757991" lon="6.711044">
        <ele>1752.665</ele>
        <time>2018-07-14T10:53:40Z</time>
      </trkpt>
      <trkpt lat="45.757953" lon="6.711080">
        <ele>1752.621</ele>
        <time>2018-07-14T10:53:44Z</time>
      </trkpt>
      <trkpt lat="45.757907" lon="6.711113">
        <ele>1753.008</ele>
        <time>2018-07-14T10:53:50Z</time>
      </trkpt>
      <trkpt lat="45.757862" lon="6.711130">
        <ele>1755.211</ele>
        <time>2018-07-14T10:53:58Z</time>
      </trkpt>
      <trkpt lat="45.757809" lon="6.711116">
        <ele>1756.135</ele>
        <time>2018-07-14T10:54:04Z</time>
      </trkpt>
      <trkpt lat="45.757764" lon="6.711105">
        <ele>1756.745</ele>
        <time>2018-07-14T10:54:10Z</time>
      </trkpt>
      <trkpt lat="45.757720" lon="6.711077">
        <ele>1757.082</ele>
        <time>2018-07-14T10:54:17Z</time>
      </trkpt>
      <trkpt lat="45.757675" lon="6.711050">
        <ele>1758.085</ele>
        <time>2018-07-14T10:54:23Z</time>
      </trkpt>
      <trkpt lat="45.757627" lon="6.711043">
        <ele>1758.270</ele>
        <time>2018-07-14T10:54:28Z</time>
      </trkpt>
      <trkpt lat="45.757584" lon="6.711020">
        <ele>1758.346</ele>
        <time>2018-07-14T10:54:33Z</time>
      </trkpt>
      <trkpt lat="45.757548" lon="6.710973">
        <ele>1758.891</ele>
        <time>2018-07-14T10:54:40Z</time>
      </trkpt>
      <trkpt lat="45.757506" lon="6.710932">
        <ele>1759.585</ele>
        <time>2018-07-14T10:54:47Z</time>
      </trkpt>
      <trkpt lat="45.757459" lon="6.710905">
        <ele>1760.389</ele>
        <time>2018-07-14T10:54:54Z</time>
      </trkpt>
      <trkpt lat="45.757485" lon="6.710833">
        <ele>1760.417</ele>
        <time>2018-07-14T10:55:29Z</time>
      </trkpt>
      <trkpt lat="45.757486" lon="6.710763">
        <ele>1760.508</ele>
        <time>2018-07-14T10:55:47Z</time>
      </trkpt>
      <trkpt lat="45.757447" lon="6.710723">
        <ele>1760.180</ele>
        <time>2018-07-14T10:55:58Z</time>
      </trkpt>
      <trkpt lat="45.757398" lon="6.710702">
        <ele>1759.574</ele>
        <time>2018-07-14T10:56:04Z</time>
      </trkpt>
      <trkpt lat="45.757348" lon="6.710691">
        <ele>1759.574</ele>
        <time>2018-07-14T10:56:09Z</time>
      </trkpt>
      <trkpt lat="45.757303" lon="6.710688">
        <ele>1759.521</ele>
        <time>2018-07-14T10:56:13Z</time>
      </trkpt>
      <trkpt lat="45.757255" lon="6.710679">
        <ele>1758.794</ele>
        <time>2018-07-14T10:56:17Z</time>
      </trkpt>
      <trkpt lat="45.757208" lon="6.710644">
        <ele>1758.699</ele>
        <time>2018-07-14T10:56:24Z</time>
      </trkpt>
      <trkpt lat="45.757156" lon="6.710649">
        <ele>1759.455</ele>
        <time>2018-07-14T10:56:29Z</time>
      </trkpt>
      <trkpt lat="45.757175" lon="6.710586">
        <ele>1761.110</ele>
        <time>2018-07-14T10:56:37Z</time>
      </trkpt>
      <trkpt lat="45.757148" lon="6.710526">
        <ele>1762.513</ele>
        <time>2018-07-14T10:56:44Z</time>
      </trkpt>
      <trkpt lat="45.757105" lon="6.710504">
        <ele>1763.743</ele>
        <time>2018-07-14T10:56:49Z</time>
      </trkpt>
      <trkpt lat="45.757062" lon="6.710478">
        <ele>1764.407</ele>
        <time>2018-07-14T10:56:56Z</time>
      </trkpt>
      <trkpt lat="45.757012" lon="6.710455">
        <ele>1764.808</ele>
        <time>2018-07-14T10:57:03Z</time>
      </trkpt>
      <trkpt lat="45.756975" lon="6.710413">
        <ele>1765.933</ele>
        <time>2018-07-14T10:57:11Z</time>
      </trkpt>
      <trkpt lat="45.756966" lon="6.710345">
        <ele>1767.757</ele>
        <time>2018-07-14T10:57:20Z</time>
      </trkpt>
      <trkpt lat="45.756945" lon="6.710283">
        <ele>1768.477</ele>
        <time>2018-07-14T10:57:30Z</time>
      </trkpt>
      <trkpt lat="45.756953" lon="6.710218">
        <ele>1769.694</ele>
        <time>2018-07-14T10:57:37Z</time>
      </trkpt>
      <trkpt lat="45.756914" lon="6.710177">
        <ele>1770.377</ele>
        <time>2018-07-14T10:57:46Z</time>
      </trkpt>
      <trkpt lat="45.756862" lon="6.710183">
        <ele>1771.162</ele>
        <time>2018-07-14T10:58:09Z</time>
      </trkpt>
      <trkpt lat="45.756818" lon="6.710160">
        <ele>1772.458</ele>
        <time>2018-07-14T10:58:19Z</time>
      </trkpt>
      <trkpt lat="45.756836" lon="6.710100">
        <ele>1773.613</ele>
        <time>2018-07-14T10:58:29Z</time>
      </trkpt>
      <trkpt lat="45.756818" lon="6.710032">
        <ele>1775.194</ele>
        <time>2018-07-14T10:58:44Z</time>
      </trkpt>
      <trkpt lat="45.756778" lon="6.709994">
        <ele>1776.457</ele>
        <time>2018-07-14T10:58:57Z</time>
      </trkpt>
      <trkpt lat="45.756752" lon="6.709940">
        <ele>1777.622</ele>
        <time>2018-07-14T10:59:10Z</time>
      </trkpt>
      <trkpt lat="45.756711" lon="6.709901">
        <ele>1779.908</ele>
        <time>2018-07-14T10:59:25Z</time>
      </trkpt>
      <trkpt lat="45.756673" lon="6.709854">
        <ele>1782.151</ele>
        <time>2018-07-14T10:59:44Z</time>
      </trkpt>
      <trkpt lat="45.756638" lon="6.709806">
        <ele>1783.815</ele>
        <time>2018-07-14T10:59:55Z</time>
      </trkpt>
      <trkpt lat="45.756609" lon="6.709750">
        <ele>1784.425</ele>
        <time>2018-07-14T11:00:05Z</time>
      </trkpt>
      <trkpt lat="45.756596" lon="6.709688">
        <ele>1785.272</ele>
        <time>2018-07-14T11:00:14Z</time>
      </trkpt>
      <trkpt lat="45.756590" lon="6.709622">
        <ele>1786.555</ele>
        <time>2018-07-14T11:00:28Z</time>
      </trkpt>
      <trkpt lat="45.756554" lon="6.709579">
        <ele>1788.950</ele>
        <time>2018-07-14T11:00:37Z</time>
      </trkpt>
      <trkpt lat="45.756539" lon="6.709513">
        <ele>1790.736</ele>
        <time>2018-07-14T11:00:52Z</time>
      </trkpt>
      <trkpt lat="45.756524" lon="6.709452">
        <ele>1791.851</ele>
        <time>2018-07-14T11:01:10Z</time>
      </trkpt>
      <trkpt lat="45.756519" lon="6.709387">
        <ele>1792.146</ele>
        <time>2018-07-14T11:01:28Z</time>
      </trkpt>
      <trkpt lat="45.756507" lon="6.709323">
        <ele>1794.388</ele>
        <time>2018-07-14T11:01:42Z</time>
      </trkpt>
      <trkpt lat="45.756461" lon="6.709299">
        <ele>1796.016</ele>
        <time>2018-07-14T11:01:48Z</time>
      </trkpt>
      <trkpt lat="45.756431" lon="6.709247">
        <ele>1797.808</ele>
        <time>2018-07-14T11:02:00Z</time>
      </trkpt>
      <trkpt lat="45.756421" lon="6.709178">
        <ele>1798.576</ele>
        <time>2018-07-14T11:02:09Z</time>
      </trkpt>
      <trkpt lat="45.756409" lon="6.709112">
        <ele>1800.160</ele>
        <time>2018-07-14T11:02:23Z</time>
      </trkpt>
      <trkpt lat="45.756394" lon="6.709050">
        <ele>1800.720</ele>
        <time>2018-07-14T11:02:39Z</time>
      </trkpt>
      <trkpt lat="45.756359" lon="6.709009">
        <ele>1801.457</ele>
        <time>2018-07-14T11:02:50Z</time>
      </trkpt>
      <trkpt lat="45.756326" lon="6.708959">
        <ele>1802.690</ele>
        <time>2018-07-14T11:03:06Z</time>
      </trkpt>
      <trkpt lat="45.756312" lon="6.708894">
        <ele>1803.315</ele>
        <time>2018-07-14T11:03:20Z</time>
      </trkpt>
      <trkpt lat="45.756266" lon="6.708862">
        <ele>1804.991</ele>
        <time>2018-07-14T11:03:38Z</time>
      </trkpt>
      <trkpt lat="45.756231" lon="6.708814">
        <ele>1805.996</ele>
        <time>2018-07-14T11:03:46Z</time>
      </trkpt>
      <trkpt lat="45.756190" lon="6.708776">
        <ele>1806.171</ele>
        <time>2018-07-14T11:03:53Z</time>
      </trkpt>
      <trkpt lat="45.756152" lon="6.708733">
        <ele>1807.041</ele>
        <time>2018-07-14T11:04:00Z</time>
      </trkpt>
      <trkpt lat="45.756115" lon="6.708683">
        <ele>1807.115</ele>
        <time>2018-07-14T11:04:07Z</time>
      </trkpt>
      <trkpt lat="45.756068" lon="6.708648">
        <ele>1806.008</ele>
        <time>2018-07-14T11:04:14Z</time>
      </trkpt>
      <trkpt lat="45.756022" lon="6.708618">
        <ele>1804.959</ele>
        <time>2018-07-14T11:04:19Z</time>
      </trkpt>
      <trkpt lat="45.755985" lon="6.708575">
        <ele>1805.143</ele>
        <time>2018-07-14T11:04:25Z</time>
      </trkpt>
      <trkpt lat="45.755944" lon="6.708530">
        <ele>1805.243</ele>
        <time>2018-07-14T11:04:31Z</time>
      </trkpt>
      <trkpt lat="45.755899" lon="6.708496">
        <ele>1805.790</ele>
        <time>2018-07-14T11:04:36Z</time>
      </trkpt>
      <trkpt lat="45.755869" lon="6.708445">
        <ele>1806.013</ele>
        <time>2018-07-14T11:04:42Z</time>
      </trkpt>
      <trkpt lat="45.755843" lon="6.708385">
        <ele>1806.698</ele>
        <time>2018-07-14T11:04:49Z</time>
      </trkpt>
      <trkpt lat="45.755811" lon="6.708337">
        <ele>1806.964</ele>
        <time>2018-07-14T11:04:56Z</time>
      </trkpt>
      <trkpt lat="45.755765" lon="6.708306">
        <ele>1807.599</ele>
        <time>2018-07-14T11:05:02Z</time>
      </trkpt>
      <trkpt lat="45.755726" lon="6.708262">
        <ele>1808.351</ele>
        <time>2018-07-14T11:05:09Z</time>
      </trkpt>
      <trkpt lat="45.755684" lon="6.708230">
        <ele>1809.201</ele>
        <time>2018-07-14T11:05:15Z</time>
      </trkpt>
      <trkpt lat="45.755637" lon="6.708192">
        <ele>1809.711</ele>
        <time>2018-07-14T11:05:22Z</time>
      </trkpt>
      <trkpt lat="45.755596" lon="6.708161">
        <ele>1811.208</ele>
        <time>2018-07-14T11:05:29Z</time>
      </trkpt>
      <trkpt lat="45.755553" lon="6.708126">
        <ele>1811.737</ele>
        <time>2018-07-14T11:05:36Z</time>
      </trkpt>
      <trkpt lat="45.755514" lon="6.708087">
        <ele>1812.431</ele>
        <time>2018-07-14T11:05:43Z</time>
      </trkpt>
      <trkpt lat="45.755469" lon="6.708077">
        <ele>1813.671</ele>
        <time>2018-07-14T11:05:53Z</time>
      </trkpt>
      <trkpt lat="45.755441" lon="6.708130">
        <ele>1815.548</ele>
        <time>2018-07-14T11:06:06Z</time>
      </trkpt>
      <trkpt lat="45.755399" lon="6.708163">
        <ele>1817.191</ele>
        <time>2018-07-14T11:06:20Z</time>
      </trkpt>
      <trkpt lat="45.755355" lon="6.708184">
        <ele>1818.426</ele>
        <time>2018-07-14T11:06:29Z</time>
      </trkpt>
      <trkpt lat="45.755302" lon="6.708185">
        <ele>1819.252</ele>
        <time>2018-07-14T11:06:48Z</time>
      </trkpt>
      <trkpt lat="45.755253" lon="6.708172">
        <ele>1821.337</ele>
        <time>2018-07-14T11:06:53Z</time>
      </trkpt>
      <trkpt lat="45.755208" lon="6.708142">
        <ele>1823.333</ele>
        <time>2018-07-14T11:07:09Z</time>
      </trkpt>
      <trkpt lat="45.755271" lon="6.708120">
        <ele>1827.323</ele>
        <time>2018-07-14T11:07:46Z</time>
      </trkpt>
      <trkpt lat="45.755223" lon="6.708126">
        <ele>1828.115</ele>
        <time>2018-07-14T11:07:52Z</time>
      </trkpt>
      <trkpt lat="45.755169" lon="6.708110">
        <ele>1828.208</ele>
        <time>2018-07-14T11:07:56Z</time>
      </trkpt>
      <trkpt lat="45.755118" lon="6.708095">
        <ele>1827.935</ele>
        <time>2018-07-14T11:08:01Z</time>
      </trkpt>
      <trkpt lat="45.755078" lon="6.708049">
        <ele>1826.939</ele>
        <time>2018-07-14T11:08:13Z</time>
      </trkpt>
      <trkpt lat="45.755027" lon="6.708025">
        <ele>1826.369</ele>
        <time>2018-07-14T11:08:24Z</time>
      </trkpt>
      <trkpt lat="45.754970" lon="6.707997">
        <ele>1827.196</ele>
        <time>2018-07-14T11:08:39Z</time>
      </trkpt>
      <trkpt lat="45.754924" lon="6.707990">
        <ele>1828.839</ele>
        <time>2018-07-14T11:08:49Z</time>
      </trkpt>
      <trkpt lat="45.754885" lon="6.707948">
        <ele>1829.874</ele>
        <time>2018-07-14T11:09:00Z</time>
      </trkpt>
      <trkpt lat="45.754823" lon="6.707918">
        <ele>1830.420</ele>
        <time>2018-07-14T11:09:11Z</time>
      </trkpt>
      <trkpt lat="45.754777" lon="6.707906">
        <ele>1831.255</ele>
        <time>2018-07-14T11:09:20Z</time>
      </trkpt>
      <trkpt lat="45.754733" lon="6.707891">
        <ele>1832.973</ele>
        <time>2018-07-14T11:09:25Z</time>
      </trkpt>
      <trkpt lat="45.754685" lon="6.707881">
        <ele>1834.385</ele>
        <time>2018-07-14T11:09:36Z</time>
      </trkpt>
      <trkpt lat="45.754635" lon="6.707873">
        <ele>1835.513</ele>
        <time>2018-07-14T11:09:44Z</time>
      </trkpt>
      <trkpt lat="45.754582" lon="6.707864">
        <ele>1835.808</ele>
        <time>2018-07-14T11:09:50Z</time>
      </trkpt>
      <trkpt lat="45.754530" lon="6.707859">
        <ele>1836.429</ele>
        <time>2018-07-14T11:09:56Z</time>
      </trkpt>
      <trkpt lat="45.754485" lon="6.707884">
        <ele>1838.063</ele>
        <time>2018-07-14T11:10:09Z</time>
      </trkpt>
      <trkpt lat="45.754439" lon="6.707902">
        <ele>1838.923</ele>
        <time>2018-07-14T11:10:16Z</time>
      </trkpt>
      <trkpt lat="45.754395" lon="6.707927">
        <ele>1840.720</ele>
        <time>2018-07-14T11:10:22Z</time>
      </trkpt>
      <trkpt lat="45.754363" lon="6.707980">
        <ele>1841.883</ele>
        <time>2018-07-14T11:10:33Z</time>
      </trkpt>
      <trkpt lat="45.754332" lon="6.708032">
        <ele>1843.298</ele>
        <time>2018-07-14T11:10:40Z</time>
      </trkpt>
      <trkpt lat="45.754293" lon="6.708070">
        <ele>1844.144</ele>
        <time>2018-07-14T11:10:46Z</time>
      </trkpt>
      <trkpt lat="45.754252" lon="6.708112">
        <ele>1846.299</ele>
        <time>2018-07-14T11:10:56Z</time>
      </trkpt>
      <trkpt lat="45.754213" lon="6.708155">
        <ele>1849.154</ele>
        <time>2018-07-14T11:11:09Z</time>
      </trkpt>
      <trkpt lat="45.754170" lon="6.708187">
        <ele>1851.656</ele>
        <time>2018-07-14T11:11:21Z</time>
      </trkpt>
      <trkpt lat="45.754130" lon="6.708219">
        <ele>1853.511</ele>
        <time>2018-07-14T11:11:28Z</time>
      </trkpt>
      <trkpt lat="45.754097" lon="6.708273">
        <ele>1856.208</ele>
        <time>2018-07-14T11:11:43Z</time>
      </trkpt>
      <trkpt lat="45.754071" lon="6.708327">
        <ele>1859.047</ele>
        <time>2018-07-14T11:11:55Z</time>
      </trkpt>
      <trkpt lat="45.754024" lon="6.708384">
        <ele>1861.111</ele>
        <time>2018-07-14T11:12:09Z</time>
      </trkpt>
      <trkpt lat="45.753987" lon="6.708422">
        <ele>1863.291</ele>
        <time>2018-07-14T11:12:21Z</time>
      </trkpt>
      <trkpt lat="45.753950" lon="6.708470">
        <ele>1864.468</ele>
        <time>2018-07-14T11:12:29Z</time>
      </trkpt>
      <trkpt lat="45.753922" lon="6.708529">
        <ele>1864.391</ele>
        <time>2018-07-14T11:12:38Z</time>
      </trkpt>
      <trkpt lat="45.753884" lon="6.708569">
        <ele>1865.146</ele>
        <time>2018-07-14T11:12:49Z</time>
      </trkpt>
      <trkpt lat="45.753847" lon="6.708611">
        <ele>1866.032</ele>
        <time>2018-07-14T11:12:58Z</time>
      </trkpt>
      <trkpt lat="45.753819" lon="6.708671">
        <ele>1866.517</ele>
        <time>2018-07-14T11:13:08Z</time>
      </trkpt>
      <trkpt lat="45.753777" lon="6.708699">
        <ele>1867.211</ele>
        <time>2018-07-14T11:13:23Z</time>
      </trkpt>
      <trkpt lat="45.753724" lon="6.708723">
        <ele>1867.621</ele>
        <time>2018-07-14T11:13:47Z</time>
      </trkpt>
      <trkpt lat="45.753679" lon="6.708731">
        <ele>1868.303</ele>
        <time>2018-07-14T11:14:03Z</time>
      </trkpt>
      <trkpt lat="45.753638" lon="6.708758">
        <ele>1869.908</ele>
        <time>2018-07-14T11:14:19Z</time>
      </trkpt>
      <trkpt lat="45.753627" lon="6.708821">
        <ele>1871.763</ele>
        <time>2018-07-14T11:14:31Z</time>
      </trkpt>
      <trkpt lat="45.753611" lon="6.708885">
        <ele>1872.877</ele>
        <time>2018-07-14T11:14:41Z</time>
      </trkpt>
      <trkpt lat="45.753595" lon="6.708950">
        <ele>1875.417</ele>
        <time>2018-07-14T11:14:55Z</time>
      </trkpt>
      <trkpt lat="45.753560" lon="6.708999">
        <ele>1877.414</ele>
        <time>2018-07-14T11:15:04Z</time>
      </trkpt>
      <trkpt lat="45.753514" lon="6.709003">
        <ele>1877.457</ele>
        <time>2018-07-14T11:15:10Z</time>
      </trkpt>
      <trkpt lat="45.753448" lon="6.709005">
        <ele>1877.492</ele>
        <time>2018-07-14T11:15:26Z</time>
      </trkpt>
      <trkpt lat="45.753408" lon="6.709049">
        <ele>1877.868</ele>
        <time>2018-07-14T11:15:42Z</time>
      </trkpt>
      <trkpt lat="45.753363" lon="6.709066">
        <ele>1879.293</ele>
        <time>2018-07-14T11:16:06Z</time>
      </trkpt>
      <trkpt lat="45.753310" lon="6.709080">
        <ele>1880.564</ele>
        <time>2018-07-14T11:16:18Z</time>
      </trkpt>
      <trkpt lat="45.753272" lon="6.709121">
        <ele>1882.106</ele>
        <time>2018-07-14T11:16:28Z</time>
      </trkpt>
      <trkpt lat="45.753231" lon="6.709149">
        <ele>1883.016</ele>
        <time>2018-07-14T11:16:43Z</time>
      </trkpt>
      <trkpt lat="45.753242" lon="6.709216">
        <ele>1886.008</ele>
        <time>2018-07-14T11:16:54Z</time>
      </trkpt>
      <trkpt lat="45.753194" lon="6.709253">
        <ele>1888.268</ele>
        <time>2018-07-14T11:17:13Z</time>
      </trkpt>
      <trkpt lat="45.753144" lon="6.709261">
        <ele>1890.342</ele>
        <time>2018-07-14T11:17:18Z</time>
      </trkpt>
      <trkpt lat="45.753104" lon="6.709295">
        <ele>1891.672</ele>
        <time>2018-07-14T11:17:38Z</time>
      </trkpt>
      <trkpt lat="45.753059" lon="6.709291">
        <ele>1892.829</ele>
        <time>2018-07-14T11:17:44Z</time>
      </trkpt>
      <trkpt lat="45.753048" lon="6.709354">
        <ele>1895.142</ele>
        <time>2018-07-14T11:18:09Z</time>
      </trkpt>
      <trkpt lat="45.752999" lon="6.709384">
        <ele>1896.567</ele>
        <time>2018-07-14T11:18:48Z</time>
      </trkpt>
      <trkpt lat="45.752998" lon="6.709374">
        <ele>1900.083</ele>
        <time>2018-07-14T11:28:11Z</time>
      </trkpt>
      <trkpt lat="45.752994" lon="6.709442">
        <ele>1902.728</ele>
        <time>2018-07-14T11:28:23Z</time>
      </trkpt>
      <trkpt lat="45.752949" lon="6.709465">
        <ele>1902.011</ele>
        <time>2018-07-14T11:28:36Z</time>
      </trkpt>
      <trkpt lat="45.752904" lon="6.709448">
        <ele>1901.921</ele>
        <time>2018-07-14T11:28:45Z</time>
      </trkpt>
      <trkpt lat="45.752859" lon="6.709422">
        <ele>1902.603</ele>
        <time>2018-07-14T11:29:04Z</time>
      </trkpt>
      <trkpt lat="45.752814" lon="6.709437">
        <ele>1903.408</ele>
        <time>2018-07-14T11:29:40Z</time>
      </trkpt>
      <trkpt lat="45.752770" lon="6.709425">
        <ele>1904.393</ele>
        <time>2018-07-14T11:29:53Z</time>
      </trkpt>
      <trkpt lat="45.752724" lon="6.709434">
        <ele>1908.357</ele>
        <time>2018-07-14T11:30:22Z</time>
      </trkpt>
      <trkpt lat="45.752687" lon="6.709393">
        <ele>1909.277</ele>
        <time>2018-07-14T11:30:43Z</time>
      </trkpt>
      <trkpt lat="45.752655" lon="6.709347">
        <ele>1911.014</ele>
        <time>2018-07-14T11:30:57Z</time>
      </trkpt>
      <trkpt lat="45.752613" lon="6.709370">
        <ele>1914.117</ele>
        <time>2018-07-14T11:31:17Z</time>
      </trkpt>
      <trkpt lat="45.752568" lon="6.709368">
        <ele>1915.512</ele>
        <time>2018-07-14T11:31:33Z</time>
      </trkpt>
      <trkpt lat="45.752522" lon="6.709342">
        <ele>1917.278</ele>
        <time>2018-07-14T11:31:45Z</time>
      </trkpt>
      <trkpt lat="45.752485" lon="6.709302">
        <ele>1917.893</ele>
        <time>2018-07-14T11:31:54Z</time>
      </trkpt>
      <trkpt lat="45.752514" lon="6.709243">
        <ele>1920.652</ele>
        <time>2018-07-14T11:32:05Z</time>
      </trkpt>
      <trkpt lat="45.752508" lon="6.709179">
        <ele>1923.153</ele>
        <time>2018-07-14T11:32:19Z</time>
      </trkpt>
      <trkpt lat="45.752470" lon="6.709219">
        <ele>1926.608</ele>
        <time>2018-07-14T11:32:46Z</time>
      </trkpt>
      <trkpt lat="45.752434" lon="6.709268">
        <ele>1929.108</ele>
        <time>2018-07-14T11:32:55Z</time>
      </trkpt>
      <trkpt lat="45.752399" lon="6.709315">
        <ele>1930.227</ele>
        <time>2018-07-14T11:33:08Z</time>
      </trkpt>
      <trkpt lat="45.752368" lon="6.709365">
        <ele>1929.741</ele>
        <time>2018-07-14T11:33:17Z</time>
      </trkpt>
      <trkpt lat="45.752324" lon="6.709396">
        <ele>1930.651</ele>
        <time>2018-07-14T11:33:29Z</time>
      </trkpt>
      <trkpt lat="45.752278" lon="6.709391">
        <ele>1931.578</ele>
        <time>2018-07-14T11:33:46Z</time>
      </trkpt>
      <trkpt lat="45.752233" lon="6.709420">
        <ele>1932.921</ele>
        <time>2018-07-14T11:34:00Z</time>
      </trkpt>
      <trkpt lat="45.752192" lon="6.709454">
        <ele>1934.196</ele>
        <time>2018-07-14T11:34:13Z</time>
      </trkpt>
      <trkpt lat="45.752149" lon="6.709487">
        <ele>1937.242</ele>
        <time>2018-07-14T11:34:38Z</time>
      </trkpt>
      <trkpt lat="45.752118" lon="6.709533">
        <ele>1939.167</ele>
        <time>2018-07-14T11:34:57Z</time>
      </trkpt>
      <trkpt lat="45.752071" lon="6.709534">
        <ele>1939.894</ele>
        <time>2018-07-14T11:35:10Z</time>
      </trkpt>
      <trkpt lat="45.752025" lon="6.709522">
        <ele>1940.257</ele>
        <time>2018-07-14T11:35:26Z</time>
      </trkpt>
      <trkpt lat="45.751978" lon="6.709513">
        <ele>1941.322</ele>
        <time>2018-07-14T11:35:51Z</time>
      </trkpt>
      <trkpt lat="45.751929" lon="6.709494">
        <ele>1942.708</ele>
        <time>2018-07-14T11:36:01Z</time>
      </trkpt>
      <trkpt lat="45.751897" lon="6.709546">
        <ele>1943.641</ele>
        <time>2018-07-14T11:36:18Z</time>
      </trkpt>
      <trkpt lat="45.751851" lon="6.709561">
        <ele>1944.575</ele>
        <time>2018-07-14T11:36:29Z</time>
      </trkpt>
      <trkpt lat="45.751808" lon="6.709593">
        <ele>1947.525</ele>
        <time>2018-07-14T11:36:49Z</time>
      </trkpt>
      <trkpt lat="45.751762" lon="6.709595">
        <ele>1950.922</ele>
        <time>2018-07-14T11:37:14Z</time>
      </trkpt>
      <trkpt lat="45.751716" lon="6.709597">
        <ele>1953.325</ele>
        <time>2018-07-14T11:37:26Z</time>
      </trkpt>
      <trkpt lat="45.751668" lon="6.709610">
        <ele>1954.020</ele>
        <time>2018-07-14T11:37:43Z</time>
      </trkpt>
      <trkpt lat="45.751624" lon="6.709628">
        <ele>1953.676</ele>
        <time>2018-07-14T11:37:51Z</time>
      </trkpt>
      <trkpt lat="45.751582" lon="6.709654">
        <ele>1955.031</ele>
        <time>2018-07-14T11:38:01Z</time>
      </trkpt>
      <trkpt lat="45.751554" lon="6.709707">
        <ele>1957.071</ele>
        <time>2018-07-14T11:38:23Z</time>
      </trkpt>
      <trkpt lat="45.751527" lon="6.709769">
        <ele>1958.241</ele>
        <time>2018-07-14T11:38:39Z</time>
      </trkpt>
      <trkpt lat="45.751479" lon="6.709772">
        <ele>1958.115</ele>
        <time>2018-07-14T11:38:46Z</time>
      </trkpt>
      <trkpt lat="45.751432" lon="6.709772">
        <ele>1959.308</ele>
        <time>2018-07-14T11:38:56Z</time>
      </trkpt>
      <trkpt lat="45.751384" lon="6.709790">
        <ele>1960.069</ele>
        <time>2018-07-14T11:39:08Z</time>
      </trkpt>
      <trkpt lat="45.751339" lon="6.709805">
        <ele>1961.683</ele>
        <time>2018-07-14T11:39:18Z</time>
      </trkpt>
      <trkpt lat="45.751292" lon="6.709807">
        <ele>1964.633</ele>
        <time>2018-07-14T11:39:53Z</time>
      </trkpt>
      <trkpt lat="45.751255" lon="6.709858">
        <ele>1967.630</ele>
        <time>2018-07-14T11:39:59Z</time>
      </trkpt>
      <trkpt lat="45.751218" lon="6.709901">
        <ele>1969.423</ele>
        <time>2018-07-14T11:40:04Z</time>
      </trkpt>
      <trkpt lat="45.751176" lon="6.709938">
        <ele>1970.538</ele>
        <time>2018-07-14T11:40:09Z</time>
      </trkpt>
      <trkpt lat="45.751143" lon="6.709988">
        <ele>1971.524</ele>
        <time>2018-07-14T11:40:14Z</time>
      </trkpt>
      <trkpt lat="45.751111" lon="6.710036">
        <ele>1972.539</ele>
        <time>2018-07-14T11:40:20Z</time>
      </trkpt>
      <trkpt lat="45.751069" lon="6.710086">
        <ele>1973.132</ele>
        <time>2018-07-14T11:40:26Z</time>
      </trkpt>
      <trkpt lat="45.751035" lon="6.710132">
        <ele>1973.592</ele>
        <time>2018-07-14T11:40:31Z</time>
      </trkpt>
      <trkpt lat="45.750996" lon="6.710183">
        <ele>1973.711</ele>
        <time>2018-07-14T11:40:36Z</time>
      </trkpt>
      <trkpt lat="45.750959" lon="6.710222">
        <ele>1973.408</ele>
        <time>2018-07-14T11:40:40Z</time>
      </trkpt>
      <trkpt lat="45.750915" lon="6.710260">
        <ele>1973.245</ele>
        <time>2018-07-14T11:40:45Z</time>
      </trkpt>
      <trkpt lat="45.750873" lon="6.710288">
        <ele>1972.729</ele>
        <time>2018-07-14T11:40:49Z</time>
      </trkpt>
      <trkpt lat="45.750829" lon="6.710314">
        <ele>1972.059</ele>
        <time>2018-07-14T11:40:53Z</time>
      </trkpt>
      <trkpt lat="45.750780" lon="6.710345">
        <ele>1971.636</ele>
        <time>2018-07-14T11:40:57Z</time>
      </trkpt>
      <trkpt lat="45.750727" lon="6.710361">
        <ele>1970.159</ele>
        <time>2018-07-14T11:41:01Z</time>
      </trkpt>
      <trkpt lat="45.750678" lon="6.710369">
        <ele>1969.224</ele>
        <time>2018-07-14T11:41:04Z</time>
      </trkpt>
      <trkpt lat="45.750627" lon="6.710391">
        <ele>1968.730</ele>
        <time>2018-07-14T11:41:08Z</time>
      </trkpt>
      <trkpt lat="45.750581" lon="6.710421">
        <ele>1968.845</ele>
        <time>2018-07-14T11:41:13Z</time>
      </trkpt>
      <trkpt lat="45.750535" lon="6.710455">
        <ele>1968.534</ele>
        <time>2018-07-14T11:41:18Z</time>
      </trkpt>
      <trkpt lat="45.750491" lon="6.710485">
        <ele>1968.755</ele>
        <time>2018-07-14T11:41:24Z</time>
      </trkpt>
      <trkpt lat="45.750432" lon="6.710505">
        <ele>1968.010</ele>
        <time>2018-07-14T11:41:36Z</time>
      </trkpt>
      <trkpt lat="45.750413" lon="6.710566">
        <ele>1967.208</ele>
        <time>2018-07-14T11:41:40Z</time>
      </trkpt>
      <trkpt lat="45.750380" lon="6.710625">
        <ele>1966.385</ele>
        <time>2018-07-14T11:41:47Z</time>
      </trkpt>
      <trkpt lat="45.750361" lon="6.710691">
        <ele>1966.229</ele>
        <time>2018-07-14T11:42:39Z</time>
      </trkpt>
      <trkpt lat="45.750332" lon="6.710750">
        <ele>1966.129</ele>
        <time>2018-07-14T11:42:44Z</time>
      </trkpt>
      <trkpt lat="45.750299" lon="6.710806">
        <ele>1966.556</ele>
        <time>2018-07-14T11:42:50Z</time>
      </trkpt>
      <trkpt lat="45.750266" lon="6.710858">
        <ele>1967.519</ele>
        <time>2018-07-14T11:42:58Z</time>
      </trkpt>
      <trkpt lat="45.750234" lon="6.710909">
        <ele>1968.574</ele>
        <time>2018-07-14T11:43:04Z</time>
      </trkpt>
      <trkpt lat="45.750208" lon="6.710971">
        <ele>1969.180</ele>
        <time>2018-07-14T11:43:10Z</time>
      </trkpt>
      <trkpt lat="45.750188" lon="6.711040">
        <ele>1969.525</ele>
        <time>2018-07-14T11:43:16Z</time>
      </trkpt>
      <trkpt lat="45.750172" lon="6.711108">
        <ele>1969.384</ele>
        <time>2018-07-14T11:43:21Z</time>
      </trkpt>
      <trkpt lat="45.750161" lon="6.711181">
        <ele>1969.207</ele>
        <time>2018-07-14T11:43:26Z</time>
      </trkpt>
      <trkpt lat="45.750146" lon="6.711250">
        <ele>1969.117</ele>
        <time>2018-07-14T11:43:31Z</time>
      </trkpt>
      <trkpt lat="45.750123" lon="6.711311">
        <ele>1969.508</ele>
        <time>2018-07-14T11:43:36Z</time>
      </trkpt>
      <trkpt lat="45.750091" lon="6.711383">
        <ele>1969.750</ele>
        <time>2018-07-14T11:43:45Z</time>
      </trkpt>
      <trkpt lat="45.750070" lon="6.711442">
        <ele>1969.824</ele>
        <time>2018-07-14T11:43:53Z</time>
      </trkpt>
      <trkpt lat="45.750050" lon="6.711505">
        <ele>1969.934</ele>
        <time>2018-07-14T11:44:00Z</time>
      </trkpt>
      <trkpt lat="45.750026" lon="6.711560">
        <ele>1970.331</ele>
        <time>2018-07-14T11:44:06Z</time>
      </trkpt>
      <trkpt lat="45.749999" lon="6.711614">
        <ele>1971.084</ele>
        <time>2018-07-14T11:44:13Z</time>
      </trkpt>
      <trkpt lat="45.749967" lon="6.711670">
        <ele>1971.899</ele>
        <time>2018-07-14T11:44:21Z</time>
      </trkpt>
      <trkpt lat="45.749935" lon="6.711721">
        <ele>1972.775</ele>
        <time>2018-07-14T11:44:28Z</time>
      </trkpt>
      <trkpt lat="45.749907" lon="6.711783">
        <ele>1973.670</ele>
        <time>2018-07-14T11:44:34Z</time>
      </trkpt>
      <trkpt lat="45.749878" lon="6.711839">
        <ele>1974.253</ele>
        <time>2018-07-14T11:44:39Z</time>
      </trkpt>
      <trkpt lat="45.749853" lon="6.711896">
        <ele>1974.504</ele>
        <time>2018-07-14T11:44:44Z</time>
      </trkpt>
      <trkpt lat="45.749828" lon="6.711960">
        <ele>1974.714</ele>
        <time>2018-07-14T11:44:49Z</time>
      </trkpt>
      <trkpt lat="45.749806" lon="6.712019">
        <ele>1974.808</ele>
        <time>2018-07-14T11:44:54Z</time>
      </trkpt>
      <trkpt lat="45.749771" lon="6.712075">
        <ele>1975.337</ele>
        <time>2018-07-14T11:45:00Z</time>
      </trkpt>
      <trkpt lat="45.749725" lon="6.712119">
        <ele>1975.271</ele>
        <time>2018-07-14T11:45:05Z</time>
      </trkpt>
      <trkpt lat="45.749676" lon="6.712151">
        <ele>1975.581</ele>
        <time>2018-07-14T11:45:10Z</time>
      </trkpt>
      <trkpt lat="45.749637" lon="6.712194">
        <ele>1976.168</ele>
        <time>2018-07-14T11:45:15Z</time>
      </trkpt>
      <trkpt lat="45.749597" lon="6.712245">
        <ele>1976.991</ele>
        <time>2018-07-14T11:45:20Z</time>
      </trkpt>
      <trkpt lat="45.749556" lon="6.712296">
        <ele>1976.666</ele>
        <time>2018-07-14T11:45:25Z</time>
      </trkpt>
      <trkpt lat="45.749530" lon="6.712353">
        <ele>1976.072</ele>
        <time>2018-07-14T11:45:30Z</time>
      </trkpt>
      <trkpt lat="45.749509" lon="6.712414">
        <ele>1976.027</ele>
        <time>2018-07-14T11:45:35Z</time>
      </trkpt>
      <trkpt lat="45.749489" lon="6.712483">
        <ele>1975.624</ele>
        <time>2018-07-14T11:45:40Z</time>
      </trkpt>
      <trkpt lat="45.749472" lon="6.712547">
        <ele>1975.804</ele>
        <time>2018-07-14T11:45:45Z</time>
      </trkpt>
      <trkpt lat="45.749456" lon="6.712614">
        <ele>1975.914</ele>
        <time>2018-07-14T11:45:50Z</time>
      </trkpt>
      <trkpt lat="45.749438" lon="6.712682">
        <ele>1976.408</ele>
        <time>2018-07-14T11:45:55Z</time>
      </trkpt>
      <trkpt lat="45.749418" lon="6.712751">
        <ele>1977.194</ele>
        <time>2018-07-14T11:46:00Z</time>
      </trkpt>
      <trkpt lat="45.749394" lon="6.712821">
        <ele>1977.978</ele>
        <time>2018-07-14T11:46:05Z</time>
      </trkpt>
      <trkpt lat="45.749371" lon="6.712881">
        <ele>1978.448</ele>
        <time>2018-07-14T11:46:10Z</time>
      </trkpt>
      <trkpt lat="45.749346" lon="6.712943">
        <ele>1978.795</ele>
        <time>2018-07-14T11:46:15Z</time>
      </trkpt>
      <trkpt lat="45.749326" lon="6.713002">
        <ele>1979.368</ele>
        <time>2018-07-14T11:46:20Z</time>
      </trkpt>
      <trkpt lat="45.749306" lon="6.713063">
        <ele>1980.063</ele>
        <time>2018-07-14T11:46:25Z</time>
      </trkpt>
      <trkpt lat="45.749281" lon="6.713131">
        <ele>1980.479</ele>
        <time>2018-07-14T11:46:31Z</time>
      </trkpt>
      <trkpt lat="45.749256" lon="6.713189">
        <ele>1981.144</ele>
        <time>2018-07-14T11:46:36Z</time>
      </trkpt>
      <trkpt lat="45.749228" lon="6.713242">
        <ele>1981.535</ele>
        <time>2018-07-14T11:46:41Z</time>
      </trkpt>
      <trkpt lat="45.749197" lon="6.713291">
        <ele>1982.186</ele>
        <time>2018-07-14T11:46:46Z</time>
      </trkpt>
      <trkpt lat="45.749164" lon="6.713336">
        <ele>1982.514</ele>
        <time>2018-07-14T11:46:50Z</time>
      </trkpt>
      <trkpt lat="45.749130" lon="6.713386">
        <ele>1983.108</ele>
        <time>2018-07-14T11:46:55Z</time>
      </trkpt>
      <trkpt lat="45.749096" lon="6.713432">
        <ele>1983.145</ele>
        <time>2018-07-14T11:47:00Z</time>
      </trkpt>
      <trkpt lat="45.749062" lon="6.713482">
        <ele>1983.519</ele>
        <time>2018-07-14T11:47:05Z</time>
      </trkpt>
      <trkpt lat="45.749035" lon="6.713534">
        <ele>1984.129</ele>
        <time>2018-07-14T11:47:10Z</time>
      </trkpt>
      <trkpt lat="45.749005" lon="6.713599">
        <ele>1985.316</ele>
        <time>2018-07-14T11:47:16Z</time>
      </trkpt>
      <trkpt lat="45.748972" lon="6.713647">
        <ele>1986.429</ele>
        <time>2018-07-14T11:47:21Z</time>
      </trkpt>
      <trkpt lat="45.748940" lon="6.713697">
        <ele>1987.574</ele>
        <time>2018-07-14T11:47:26Z</time>
      </trkpt>
      <trkpt lat="45.748907" lon="6.713746">
        <ele>1988.190</ele>
        <time>2018-07-14T11:47:31Z</time>
      </trkpt>
      <trkpt lat="45.748872" lon="6.713793">
        <ele>1987.725</ele>
        <time>2018-07-14T11:47:36Z</time>
      </trkpt>
      <trkpt lat="45.748838" lon="6.713839">
        <ele>1987.032</ele>
        <time>2018-07-14T11:47:41Z</time>
      </trkpt>
      <trkpt lat="45.748804" lon="6.713887">
        <ele>1986.692</ele>
        <time>2018-07-14T11:47:46Z</time>
      </trkpt>
      <trkpt lat="45.748771" lon="6.713947">
        <ele>1987.211</ele>
        <time>2018-07-14T11:47:51Z</time>
      </trkpt>
      <trkpt lat="45.748733" lon="6.714001">
        <ele>1987.508</ele>
        <time>2018-07-14T11:47:56Z</time>
      </trkpt>
      <trkpt lat="45.748694" lon="6.714051">
        <ele>1987.745</ele>
        <time>2018-07-14T11:48:01Z</time>
      </trkpt>
      <trkpt lat="45.748653" lon="6.714094">
        <ele>1987.869</ele>
        <time>2018-07-14T11:48:06Z</time>
      </trkpt>
      <trkpt lat="45.748611" lon="6.714138">
        <ele>1987.929</ele>
        <time>2018-07-14T11:48:11Z</time>
      </trkpt>
      <trkpt lat="45.748577" lon="6.714182">
        <ele>1987.966</ele>
        <time>2018-07-14T11:48:15Z</time>
      </trkpt>
      <trkpt lat="45.748531" lon="6.714223">
        <ele>1988.399</ele>
        <time>2018-07-14T11:48:20Z</time>
      </trkpt>
      <trkpt lat="45.748486" lon="6.714251">
        <ele>1988.684</ele>
        <time>2018-07-14T11:48:25Z</time>
      </trkpt>
      <trkpt lat="45.748435" lon="6.714260">
        <ele>1988.420</ele>
        <time>2018-07-14T11:48:30Z</time>
      </trkpt>
      <trkpt lat="45.748384" lon="6.714271">
        <ele>1988.385</ele>
        <time>2018-07-14T11:48:36Z</time>
      </trkpt>
      <trkpt lat="45.748332" lon="6.714279">
        <ele>1987.811</ele>
        <time>2018-07-14T11:48:42Z</time>
      </trkpt>
      <trkpt lat="45.748283" lon="6.714288">
        <ele>1987.121</ele>
        <time>2018-07-14T11:48:47Z</time>
      </trkpt>
      <trkpt lat="45.748235" lon="6.714300">
        <ele>1986.703</ele>
        <time>2018-07-14T11:48:52Z</time>
      </trkpt>
      <trkpt lat="45.748189" lon="6.714321">
        <ele>1986.508</ele>
        <time>2018-07-14T11:48:57Z</time>
      </trkpt>
      <trkpt lat="45.748140" lon="6.714355">
        <ele>1987.233</ele>
        <time>2018-07-14T11:49:02Z</time>
      </trkpt>
      <trkpt lat="45.748098" lon="6.714395">
        <ele>1988.427</ele>
        <time>2018-07-14T11:49:06Z</time>
      </trkpt>
      <trkpt lat="45.748057" lon="6.714434">
        <ele>1989.987</ele>
        <time>2018-07-14T11:49:11Z</time>
      </trkpt>
      <trkpt lat="45.748013" lon="6.714479">
        <ele>1991.264</ele>
        <time>2018-07-14T11:49:16Z</time>
      </trkpt>
      <trkpt lat="45.747968" lon="6.714507">
        <ele>1992.417</ele>
        <time>2018-07-14T11:49:21Z</time>
      </trkpt>
      <trkpt lat="45.747923" lon="6.714517">
        <ele>1993.132</ele>
        <time>2018-07-14T11:49:26Z</time>
      </trkpt>
      <trkpt lat="45.747876" lon="6.714533">
        <ele>1993.538</ele>
        <time>2018-07-14T11:49:31Z</time>
      </trkpt>
      <trkpt lat="45.747833" lon="6.714569">
        <ele>1995.033</ele>
        <time>2018-07-14T11:49:36Z</time>
      </trkpt>
      <trkpt lat="45.747807" lon="6.714625">
        <ele>1996.742</ele>
        <time>2018-07-14T11:49:42Z</time>
      </trkpt>
      <trkpt lat="45.747781" lon="6.714684">
        <ele>1997.722</ele>
        <time>2018-07-14T11:49:49Z</time>
      </trkpt>
      <trkpt lat="45.747746" lon="6.714726">
        <ele>1998.714</ele>
        <time>2018-07-14T11:49:56Z</time>
      </trkpt>
      <trkpt lat="45.747711" lon="6.714771">
        <ele>1999.308</ele>
        <time>2018-07-14T11:50:03Z</time>
      </trkpt>
      <trkpt lat="45.747665" lon="6.714790">
        <ele>1999.396</ele>
        <time>2018-07-14T11:50:10Z</time>
      </trkpt>
      <trkpt lat="45.747687" lon="6.714852">
        <ele>1998.950</ele>
        <time>2018-07-14T11:50:21Z</time>
      </trkpt>
      <trkpt lat="45.747730" lon="6.714879">
        <ele>1997.850</ele>
        <time>2018-07-14T11:50:29Z</time>
      </trkpt>
      <trkpt lat="45.747716" lon="6.714942">
        <ele>1998.497</ele>
        <time>2018-07-14T11:50:49Z</time>
      </trkpt>
      <trkpt lat="45.747677" lon="6.714981">
        <ele>1998.720</ele>
        <time>2018-07-14T11:50:59Z</time>
      </trkpt>
      <trkpt lat="45.747633" lon="6.714998">
        <ele>1999.395</ele>
        <time>2018-07-14T11:51:12Z</time>
      </trkpt>
      <trkpt lat="45.747584" lon="6.715026">
        <ele>2001.371</ele>
        <time>2018-07-14T11:51:27Z</time>
      </trkpt>
      <trkpt lat="45.747551" lon="6.715070">
        <ele>2002.556</ele>
        <time>2018-07-14T11:51:33Z</time>
      </trkpt>
      <trkpt lat="45.747514" lon="6.715119">
        <ele>2004.468</ele>
        <time>2018-07-14T11:51:41Z</time>
      </trkpt>
      <trkpt lat="45.747477" lon="6.715168">
        <ele>2005.942</ele>
        <time>2018-07-14T11:51:49Z</time>
      </trkpt>
      <trkpt lat="45.747436" lon="6.715197">
        <ele>2007.226</ele>
        <time>2018-07-14T11:51:56Z</time>
      </trkpt>
      <trkpt lat="45.747383" lon="6.715196">
        <ele>2007.208</ele>
        <time>2018-07-14T11:52:01Z</time>
      </trkpt>
      <trkpt lat="45.747334" lon="6.715213">
        <ele>2007.228</ele>
        <time>2018-07-14T11:52:08Z</time>
      </trkpt>
      <trkpt lat="45.747298" lon="6.715254">
        <ele>2007.612</ele>
        <time>2018-07-14T11:52:14Z</time>
      </trkpt>
      <trkpt lat="45.747258" lon="6.715285">
        <ele>2007.472</ele>
        <time>2018-07-14T11:52:24Z</time>
      </trkpt>
      <trkpt lat="45.747220" lon="6.715332">
        <ele>2008.129</ele>
        <time>2018-07-14T11:52:34Z</time>
      </trkpt>
      <trkpt lat="45.747189" lon="6.715382">
        <ele>2009.742</ele>
        <time>2018-07-14T11:52:44Z</time>
      </trkpt>
      <trkpt lat="45.747164" lon="6.715439">
        <ele>2010.727</ele>
        <time>2018-07-14T11:52:55Z</time>
      </trkpt>
      <trkpt lat="45.747175" lon="6.715507">
        <ele>2012.923</ele>
        <time>2018-07-14T11:53:07Z</time>
      </trkpt>
      <trkpt lat="45.747149" lon="6.715565">
        <ele>2014.678</ele>
        <time>2018-07-14T11:53:15Z</time>
      </trkpt>
      <trkpt lat="45.747125" lon="6.715623">
        <ele>2015.259</ele>
        <time>2018-07-14T11:53:23Z</time>
      </trkpt>
      <trkpt lat="45.747113" lon="6.715685">
        <ele>2015.603</ele>
        <time>2018-07-14T11:53:31Z</time>
      </trkpt>
      <trkpt lat="45.747090" lon="6.715743">
        <ele>2015.823</ele>
        <time>2018-07-14T11:53:39Z</time>
      </trkpt>
      <trkpt lat="45.747067" lon="6.715799">
        <ele>2016.308</ele>
        <time>2018-07-14T11:53:46Z</time>
      </trkpt>
      <trkpt lat="45.747061" lon="6.715870">
        <ele>2016.647</ele>
        <time>2018-07-14T11:53:55Z</time>
      </trkpt>
      <trkpt lat="45.747035" lon="6.715924">
        <ele>2016.841</ele>
        <time>2018-07-14T11:54:06Z</time>
      </trkpt>
      <trkpt lat="45.747031" lon="6.715993">
        <ele>2016.551</ele>
        <time>2018-07-14T11:54:16Z</time>
      </trkpt>
      <trkpt lat="45.747014" lon="6.716053">
        <ele>2016.728</ele>
        <time>2018-07-14T11:54:25Z</time>
      </trkpt>
      <trkpt lat="45.746984" lon="6.716103">
        <ele>2017.251</ele>
        <time>2018-07-14T11:54:38Z</time>
      </trkpt>
      <trkpt lat="45.746959" lon="6.716160">
        <ele>2018.376</ele>
        <time>2018-07-14T11:54:46Z</time>
      </trkpt>
      <trkpt lat="45.746932" lon="6.716218">
        <ele>2019.062</ele>
        <time>2018-07-14T11:54:52Z</time>
      </trkpt>
      <trkpt lat="45.746917" lon="6.716279">
        <ele>2020.217</ele>
        <time>2018-07-14T11:54:59Z</time>
      </trkpt>
      <trkpt lat="45.746915" lon="6.716345">
        <ele>2020.585</ele>
        <time>2018-07-14T11:55:07Z</time>
      </trkpt>
      <trkpt lat="45.746918" lon="6.716415">
        <ele>2021.189</ele>
        <time>2018-07-14T11:55:17Z</time>
      </trkpt>
      <trkpt lat="45.746907" lon="6.716482">
        <ele>2021.917</ele>
        <time>2018-07-14T11:55:28Z</time>
      </trkpt>
      <trkpt lat="45.746880" lon="6.716541">
        <ele>2022.808</ele>
        <time>2018-07-14T11:55:38Z</time>
      </trkpt>
      <trkpt lat="45.746850" lon="6.716592">
        <ele>2023.390</ele>
        <time>2018-07-14T11:55:45Z</time>
      </trkpt>
      <trkpt lat="45.746829" lon="6.716656">
        <ele>2024.074</ele>
        <time>2018-07-14T11:55:51Z</time>
      </trkpt>
      <trkpt lat="45.746806" lon="6.716712">
        <ele>2024.824</ele>
        <time>2018-07-14T11:55:58Z</time>
      </trkpt>
      <trkpt lat="45.746774" lon="6.716765">
        <ele>2025.351</ele>
        <time>2018-07-14T11:56:05Z</time>
      </trkpt>
      <trkpt lat="45.746750" lon="6.716824">
        <ele>2026.074</ele>
        <time>2018-07-14T11:56:13Z</time>
      </trkpt>
      <trkpt lat="45.746722" lon="6.716881">
        <ele>2026.499</ele>
        <time>2018-07-14T11:56:22Z</time>
      </trkpt>
      <trkpt lat="45.746705" lon="6.716944">
        <ele>2026.765</ele>
        <time>2018-07-14T11:56:31Z</time>
      </trkpt>
      <trkpt lat="45.746704" lon="6.717010">
        <ele>2027.390</ele>
        <time>2018-07-14T11:56:40Z</time>
      </trkpt>
      <trkpt lat="45.746693" lon="6.717073">
        <ele>2028.423</ele>
        <time>2018-07-14T11:56:49Z</time>
      </trkpt>
      <trkpt lat="45.746677" lon="6.717136">
        <ele>2030.783</ele>
        <time>2018-07-14T11:57:08Z</time>
      </trkpt>
      <trkpt lat="45.746644" lon="6.717181">
        <ele>2031.711</ele>
        <time>2018-07-14T11:57:16Z</time>
      </trkpt>
      <trkpt lat="45.746601" lon="6.717210">
        <ele>2031.908</ele>
        <time>2018-07-14T11:57:26Z</time>
      </trkpt>
      <trkpt lat="45.746572" lon="6.717266">
        <ele>2032.064</ele>
        <time>2018-07-14T11:57:35Z</time>
      </trkpt>
      <trkpt lat="45.746562" lon="6.717332">
        <ele>2032.598</ele>
        <time>2018-07-14T11:57:44Z</time>
      </trkpt>
      <trkpt lat="45.746585" lon="6.717395">
        <ele>2033.228</ele>
        <time>2018-07-14T11:57:53Z</time>
      </trkpt>
      <trkpt lat="45.746602" lon="6.717455">
        <ele>2033.295</ele>
        <time>2018-07-14T11:58:00Z</time>
      </trkpt>
      <trkpt lat="45.746592" lon="6.717522">
        <ele>2033.678</ele>
        <time>2018-07-14T11:58:08Z</time>
      </trkpt>
      <trkpt lat="45.746592" lon="6.717592">
        <ele>2033.423</ele>
        <time>2018-07-14T11:58:15Z</time>
      </trkpt>
      <trkpt lat="45.746605" lon="6.717658">
        <ele>2033.369</ele>
        <time>2018-07-14T11:58:22Z</time>
      </trkpt>
      <trkpt lat="45.746617" lon="6.717724">
        <ele>2034.014</ele>
        <time>2018-07-14T11:58:30Z</time>
      </trkpt>
      <trkpt lat="45.746631" lon="6.717787">
        <ele>2034.417</ele>
        <time>2018-07-14T11:58:40Z</time>
      </trkpt>
      <trkpt lat="45.746642" lon="6.717849">
        <ele>2035.587</ele>
        <time>2018-07-14T11:58:47Z</time>
      </trkpt>
      <trkpt lat="45.746643" lon="6.717914">
        <ele>2036.515</ele>
        <time>2018-07-14T11:58:55Z</time>
      </trkpt>
      <trkpt lat="45.746648" lon="6.717983">
        <ele>2037.508</ele>
        <time>2018-07-14T11:59:02Z</time>
      </trkpt>
      <trkpt lat="45.746654" lon="6.718055">
        <ele>2038.563</ele>
        <time>2018-07-14T11:59:11Z</time>
      </trkpt>
      <trkpt lat="45.746645" lon="6.718124">
        <ele>2039.187</ele>
        <time>2018-07-14T11:59:18Z</time>
      </trkpt>
      <trkpt lat="45.746602" lon="6.718158">
        <ele>2039.147</ele>
        <time>2018-07-14T11:59:27Z</time>
      </trkpt>
      <trkpt lat="45.746571" lon="6.718098">
        <ele>2037.564</ele>
        <time>2018-07-14T11:59:34Z</time>
      </trkpt>
      <trkpt lat="45.746550" lon="6.718031">
        <ele>2036.167</ele>
        <time>2018-07-14T11:59:40Z</time>
      </trkpt>
      <trkpt lat="45.746535" lon="6.717968">
        <ele>2034.552</ele>
        <time>2018-07-14T11:59:52Z</time>
      </trkpt>
      <trkpt lat="45.746495" lon="6.717929">
        <ele>2033.138</ele>
        <time>2018-07-14T12:00:05Z</time>
      </trkpt>
      <trkpt lat="45.746458" lon="6.717888">
        <ele>2032.313</ele>
        <time>2018-07-14T12:00:16Z</time>
      </trkpt>
      <trkpt lat="45.746413" lon="6.717864">
        <ele>2031.496</ele>
        <time>2018-07-14T12:00:25Z</time>
      </trkpt>
      <trkpt lat="45.746376" lon="6.717819">
        <ele>2030.531</ele>
        <time>2018-07-14T12:00:33Z</time>
      </trkpt>
      <trkpt lat="45.746342" lon="6.717772">
        <ele>2030.724</ele>
        <time>2018-07-14T12:00:39Z</time>
      </trkpt>
      <trkpt lat="45.746310" lon="6.717718">
        <ele>2030.808</ele>
        <time>2018-07-14T12:00:47Z</time>
      </trkpt>
      <trkpt lat="45.746273" lon="6.717674">
        <ele>2030.131</ele>
        <time>2018-07-14T12:01:00Z</time>
      </trkpt>
      <trkpt lat="45.746235" lon="6.717638">
        <ele>2028.915</ele>
        <time>2018-07-14T12:01:11Z</time>
      </trkpt>
      <trkpt lat="45.746200" lon="6.717588">
        <ele>2029.035</ele>
        <time>2018-07-14T12:01:21Z</time>
      </trkpt>
      <trkpt lat="45.746165" lon="6.717546">
        <ele>2029.852</ele>
        <time>2018-07-14T12:01:35Z</time>
      </trkpt>
      <trkpt lat="45.746127" lon="6.717508">
        <ele>2032.315</ele>
        <time>2018-07-14T12:01:50Z</time>
      </trkpt>
      <trkpt lat="45.746079" lon="6.717471">
        <ele>2036.310</ele>
        <time>2018-07-14T12:02:16Z</time>
      </trkpt>
      <trkpt lat="45.746050" lon="6.717421">
        <ele>2039.856</ele>
        <time>2018-07-14T12:02:29Z</time>
      </trkpt>
      <trkpt lat="45.746018" lon="6.717371">
        <ele>2041.971</ele>
        <time>2018-07-14T12:02:42Z</time>
      </trkpt>
      <trkpt lat="45.745981" lon="6.717326">
        <ele>2043.289</ele>
        <time>2018-07-14T12:02:53Z</time>
      </trkpt>
      <trkpt lat="45.745950" lon="6.717279">
        <ele>2045.206</ele>
        <time>2018-07-14T12:03:02Z</time>
      </trkpt>
      <trkpt lat="45.745917" lon="6.717225">
        <ele>2046.026</ele>
        <time>2018-07-14T12:03:24Z</time>
      </trkpt>
      <trkpt lat="45.745873" lon="6.717208">
        <ele>2048.108</ele>
        <time>2018-07-14T12:03:40Z</time>
      </trkpt>
      <trkpt lat="45.745828" lon="6.717189">
        <ele>2049.740</ele>
        <time>2018-07-14T12:03:54Z</time>
      </trkpt>
      <trkpt lat="45.745785" lon="6.717167">
        <ele>2050.764</ele>
        <time>2018-07-14T12:04:17Z</time>
      </trkpt>
      <trkpt lat="45.745744" lon="6.717137">
        <ele>2052.984</ele>
        <time>2018-07-14T12:04:36Z</time>
      </trkpt>
      <trkpt lat="45.745701" lon="6.717111">
        <ele>2053.871</ele>
        <time>2018-07-14T12:05:03Z</time>
      </trkpt>
      <trkpt lat="45.745640" lon="6.717051">
        <ele>2067.044</ele>
        <time>2018-07-14T12:20:10Z</time>
      </trkpt>
      <trkpt lat="45.745591" lon="6.717040">
        <ele>2066.079</ele>
        <time>2018-07-14T12:20:31Z</time>
      </trkpt>
      <trkpt lat="45.745547" lon="6.717018">
        <ele>2066.225</ele>
        <time>2018-07-14T12:20:44Z</time>
      </trkpt>
      <trkpt lat="45.745513" lon="6.717060">
        <ele>2067.740</ele>
        <time>2018-07-14T12:20:59Z</time>
      </trkpt>
      <trkpt lat="45.745464" lon="6.717056">
        <ele>2068.357</ele>
        <time>2018-07-14T12:21:10Z</time>
      </trkpt>
      <trkpt lat="45.745418" lon="6.717040">
        <ele>2068.300</ele>
        <time>2018-07-14T12:21:27Z</time>
      </trkpt>
      <trkpt lat="45.745379" lon="6.717075">
        <ele>2070.320</ele>
        <time>2018-07-14T12:21:46Z</time>
      </trkpt>
      <trkpt lat="45.745335" lon="6.717050">
        <ele>2071.108</ele>
        <time>2018-07-14T12:22:03Z</time>
      </trkpt>
      <trkpt lat="45.745305" lon="6.716999">
        <ele>2071.297</ele>
        <time>2018-07-14T12:22:24Z</time>
      </trkpt>
      <trkpt lat="45.745267" lon="6.716952">
        <ele>2072.891</ele>
        <time>2018-07-14T12:22:35Z</time>
      </trkpt>
      <trkpt lat="45.745255" lon="6.716888">
        <ele>2074.251</ele>
        <time>2018-07-14T12:22:45Z</time>
      </trkpt>
      <trkpt lat="45.745260" lon="6.716820">
        <ele>2075.878</ele>
        <time>2018-07-14T12:22:58Z</time>
      </trkpt>
      <trkpt lat="45.745246" lon="6.716758">
        <ele>2078.041</ele>
        <time>2018-07-14T12:23:12Z</time>
      </trkpt>
      <trkpt lat="45.745200" lon="6.716754">
        <ele>2080.136</ele>
        <time>2018-07-14T12:23:38Z</time>
      </trkpt>
      <trkpt lat="45.745167" lon="6.716708">
        <ele>2081.022</ele>
        <time>2018-07-14T12:23:50Z</time>
      </trkpt>
      <trkpt lat="45.745134" lon="6.716659">
        <ele>2082.387</ele>
        <time>2018-07-14T12:24:12Z</time>
      </trkpt>
      <trkpt lat="45.745092" lon="6.716630">
        <ele>2083.174</ele>
        <time>2018-07-14T12:24:25Z</time>
      </trkpt>
      <trkpt lat="45.745044" lon="6.716612">
        <ele>2084.056</ele>
        <time>2018-07-14T12:24:36Z</time>
      </trkpt>
      <trkpt lat="45.745010" lon="6.716568">
        <ele>2085.321</ele>
        <time>2018-07-14T12:24:45Z</time>
      </trkpt>
      <trkpt lat="45.744977" lon="6.716524">
        <ele>2086.508</ele>
        <time>2018-07-14T12:24:54Z</time>
      </trkpt>
      <trkpt lat="45.744947" lon="6.716475">
        <ele>2088.029</ele>
        <time>2018-07-14T12:25:05Z</time>
      </trkpt>
      <trkpt lat="45.744914" lon="6.716427">
        <ele>2088.943</ele>
        <time>2018-07-14T12:25:24Z</time>
      </trkpt>
      <trkpt lat="45.744890" lon="6.716372">
        <ele>2091.423</ele>
        <time>2018-07-14T12:25:34Z</time>
      </trkpt>
      <trkpt lat="45.744867" lon="6.716314">
        <ele>2092.950</ele>
        <time>2018-07-14T12:25:42Z</time>
      </trkpt>
      <trkpt lat="45.744829" lon="6.716264">
        <ele>2095.883</ele>
        <time>2018-07-14T12:27:04Z</time>
      </trkpt>
      <trkpt lat="45.744798" lon="6.716207">
        <ele>2096.758</ele>
        <time>2018-07-14T12:27:10Z</time>
      </trkpt>
      <trkpt lat="45.744778" lon="6.716144">
        <ele>2098.124</ele>
        <time>2018-07-14T12:27:16Z</time>
      </trkpt>
      <trkpt lat="45.744744" lon="6.716094">
        <ele>2099.729</ele>
        <time>2018-07-14T12:27:26Z</time>
      </trkpt>
      <trkpt lat="45.744705" lon="6.716058">
        <ele>2100.741</ele>
        <time>2018-07-14T12:27:34Z</time>
      </trkpt>
      <trkpt lat="45.744664" lon="6.716031">
        <ele>2101.381</ele>
        <time>2018-07-14T12:27:50Z</time>
      </trkpt>
      <trkpt lat="45.744617" lon="6.716014">
        <ele>2101.309</ele>
        <time>2018-07-14T12:27:59Z</time>
      </trkpt>
      <trkpt lat="45.744569" lon="6.716004">
        <ele>2101.308</ele>
        <time>2018-07-14T12:28:09Z</time>
      </trkpt>
      <trkpt lat="45.744524" lon="6.715992">
        <ele>2102.146</ele>
        <time>2018-07-14T12:28:18Z</time>
      </trkpt>
      <trkpt lat="45.744478" lon="6.715990">
        <ele>2102.220</ele>
        <time>2018-07-14T12:28:30Z</time>
      </trkpt>
      <trkpt lat="45.744431" lon="6.715977">
        <ele>2102.230</ele>
        <time>2018-07-14T12:28:40Z</time>
      </trkpt>
      <trkpt lat="45.744387" lon="6.715949">
        <ele>2103.077</ele>
        <time>2018-07-14T12:28:52Z</time>
      </trkpt>
      <trkpt lat="45.744341" lon="6.715954">
        <ele>2103.570</ele>
        <time>2018-07-14T12:29:02Z</time>
      </trkpt>
      <trkpt lat="45.744294" lon="6.715955">
        <ele>2103.865</ele>
        <time>2018-07-14T12:29:11Z</time>
      </trkpt>
      <trkpt lat="45.744248" lon="6.715941">
        <ele>2105.291</ele>
        <time>2018-07-14T12:29:21Z</time>
      </trkpt>
      <trkpt lat="45.744201" lon="6.715921">
        <ele>2106.076</ele>
        <time>2018-07-14T12:29:33Z</time>
      </trkpt>
      <trkpt lat="45.744162" lon="6.715887">
        <ele>2106.157</ele>
        <time>2018-07-14T12:29:44Z</time>
      </trkpt>
      <trkpt lat="45.744119" lon="6.715861">
        <ele>2106.600</ele>
        <time>2018-07-14T12:29:52Z</time>
      </trkpt>
      <trkpt lat="45.744076" lon="6.715839">
        <ele>2107.720</ele>
        <time>2018-07-14T12:30:01Z</time>
      </trkpt>
      <trkpt lat="45.744048" lon="6.715785">
        <ele>2107.908</ele>
        <time>2018-07-14T12:30:14Z</time>
      </trkpt>
      <trkpt lat="45.744007" lon="6.715749">
        <ele>2108.837</ele>
        <time>2018-07-14T12:30:22Z</time>
      </trkpt>
      <trkpt lat="45.743965" lon="6.715718">
        <ele>2110.261</ele>
        <time>2018-07-14T12:30:30Z</time>
      </trkpt>
      <trkpt lat="45.743918" lon="6.715707">
        <ele>2111.431</ele>
        <time>2018-07-14T12:30:40Z</time>
      </trkpt>
      <trkpt lat="45.743870" lon="6.715692">
        <ele>2112.578</ele>
        <time>2018-07-14T12:30:50Z</time>
      </trkpt>
      <trkpt lat="45.743828" lon="6.715654">
        <ele>2112.891</ele>
        <time>2018-07-14T12:30:57Z</time>
      </trkpt>
      <trkpt lat="45.743783" lon="6.715643">
        <ele>2113.036</ele>
        <time>2018-07-14T12:31:05Z</time>
      </trkpt>
      <trkpt lat="45.743739" lon="6.715632">
        <ele>2113.972</ele>
        <time>2018-07-14T12:31:14Z</time>
      </trkpt>
      <trkpt lat="45.743700" lon="6.715595">
        <ele>2114.467</ele>
        <time>2018-07-14T12:31:23Z</time>
      </trkpt>
      <trkpt lat="45.743652" lon="6.715576">
        <ele>2114.728</ele>
        <time>2018-07-14T12:31:34Z</time>
      </trkpt>
      <trkpt lat="45.743605" lon="6.715568">
        <ele>2115.389</ele>
        <time>2018-07-14T12:31:41Z</time>
      </trkpt>
      <trkpt lat="45.743560" lon="6.715555">
        <ele>2116.117</ele>
        <time>2018-07-14T12:31:47Z</time>
      </trkpt>
      <trkpt lat="45.743508" lon="6.715550">
        <ele>2116.608</ele>
        <time>2018-07-14T12:31:53Z</time>
      </trkpt>
      <trkpt lat="45.743457" lon="6.715547">
        <ele>2117.394</ele>
        <time>2018-07-14T12:31:58Z</time>
      </trkpt>
      <trkpt lat="45.743410" lon="6.715542">
        <ele>2118.138</ele>
        <time>2018-07-14T12:32:03Z</time>
      </trkpt>
      <trkpt lat="45.743356" lon="6.715538">
        <ele>2117.818</ele>
        <time>2018-07-14T12:32:09Z</time>
      </trkpt>
      <trkpt lat="45.743304" lon="6.715533">
        <ele>2118.435</ele>
        <time>2018-07-14T12:32:14Z</time>
      </trkpt>
      <trkpt lat="45.743253" lon="6.715537">
        <ele>2119.228</ele>
        <time>2018-07-14T12:32:19Z</time>
      </trkpt>
      <trkpt lat="45.743207" lon="6.715553">
        <ele>2119.783</ele>
        <time>2018-07-14T12:32:24Z</time>
      </trkpt>
      <trkpt lat="45.743161" lon="6.715558">
        <ele>2120.499</ele>
        <time>2018-07-14T12:32:30Z</time>
      </trkpt>
      <trkpt lat="45.743116" lon="6.715533">
        <ele>2120.854</ele>
        <time>2018-07-14T12:32:36Z</time>
      </trkpt>
      <trkpt lat="45.743070" lon="6.715502">
        <ele>2120.691</ele>
        <time>2018-07-14T12:32:42Z</time>
      </trkpt>
      <trkpt lat="45.743018" lon="6.715493">
        <ele>2122.181</ele>
        <time>2018-07-14T12:32:49Z</time>
      </trkpt>
      <trkpt lat="45.742977" lon="6.715459">
        <ele>2123.019</ele>
        <time>2018-07-14T12:32:56Z</time>
      </trkpt>
      <trkpt lat="45.742936" lon="6.715418">
        <ele>2123.108</ele>
        <time>2018-07-14T12:33:02Z</time>
      </trkpt>
      <trkpt lat="45.742896" lon="6.715374">
        <ele>2124.061</ele>
        <time>2018-07-14T12:33:07Z</time>
      </trkpt>
      <trkpt lat="45.742848" lon="6.715355">
        <ele>2125.325</ele>
        <time>2018-07-14T12:33:12Z</time>
      </trkpt>
      <trkpt lat="45.742804" lon="6.715344">
        <ele>2125.335</ele>
        <time>2018-07-14T12:33:16Z</time>
      </trkpt>
      <trkpt lat="45.742756" lon="6.715316">
        <ele>2124.922</ele>
        <time>2018-07-14T12:33:21Z</time>
      </trkpt>
      <trkpt lat="45.742724" lon="6.715265">
        <ele>2125.585</ele>
        <time>2018-07-14T12:33:27Z</time>
      </trkpt>
      <trkpt lat="45.742707" lon="6.715202">
        <ele>2126.670</ele>
        <time>2018-07-14T12:33:32Z</time>
      </trkpt>
      <trkpt lat="45.742681" lon="6.715137">
        <ele>2126.536</ele>
        <time>2018-07-14T12:33:38Z</time>
      </trkpt>
      <trkpt lat="45.742644" lon="6.715084">
        <ele>2126.491</ele>
        <time>2018-07-14T12:33:44Z</time>
      </trkpt>
      <trkpt lat="45.742614" lon="6.715033">
        <ele>2126.463</ele>
        <time>2018-07-14T12:33:50Z</time>
      </trkpt>
      <trkpt lat="45.742577" lon="6.714994">
        <ele>2124.844</ele>
        <time>2018-07-14T12:33:56Z</time>
      </trkpt>
      <trkpt lat="45.742535" lon="6.714957">
        <ele>2124.218</ele>
        <time>2018-07-14T12:34:03Z</time>
      </trkpt>
      <trkpt lat="45.742498" lon="6.714917">
        <ele>2124.308</ele>
        <time>2018-07-14T12:34:10Z</time>
      </trkpt>
      <trkpt lat="45.742462" lon="6.714874">
        <ele>2124.368</ele>
        <time>2018-07-14T12:34:18Z</time>
      </trkpt>
      <trkpt lat="45.742417" lon="6.714836">
        <ele>2125.112</ele>
        <time>2018-07-14T12:34:25Z</time>
      </trkpt>
      <trkpt lat="45.742380" lon="6.714791">
        <ele>2126.062</ele>
        <time>2018-07-14T12:34:31Z</time>
      </trkpt>
      <trkpt lat="45.742334" lon="6.714761">
        <ele>2126.529</ele>
        <time>2018-07-14T12:34:37Z</time>
      </trkpt>
      <trkpt lat="45.742298" lon="6.714716">
        <ele>2127.652</ele>
        <time>2018-07-14T12:34:44Z</time>
      </trkpt>
      <trkpt lat="45.742260" lon="6.714673">
        <ele>2129.537</ele>
        <time>2018-07-14T12:34:50Z</time>
      </trkpt>
      <trkpt lat="45.742218" lon="6.714641">
        <ele>2130.633</ele>
        <time>2018-07-14T12:34:58Z</time>
      </trkpt>
      <trkpt lat="45.742176" lon="6.714604">
        <ele>2131.758</ele>
        <time>2018-07-14T12:35:05Z</time>
      </trkpt>
      <trkpt lat="45.742133" lon="6.714577">
        <ele>2133.541</ele>
        <time>2018-07-14T12:35:13Z</time>
      </trkpt>
      <trkpt lat="45.742094" lon="6.714543">
        <ele>2135.081</ele>
        <time>2018-07-14T12:35:19Z</time>
      </trkpt>
      <trkpt lat="45.742050" lon="6.714526">
        <ele>2136.309</ele>
        <time>2018-07-14T12:35:25Z</time>
      </trkpt>
      <trkpt lat="45.742001" lon="6.714510">
        <ele>2136.708</ele>
        <time>2018-07-14T12:35:32Z</time>
      </trkpt>
      <trkpt lat="45.741961" lon="6.714474">
        <ele>2138.156</ele>
        <time>2018-07-14T12:35:38Z</time>
      </trkpt>
      <trkpt lat="45.741925" lon="6.714430">
        <ele>2138.630</ele>
        <time>2018-07-14T12:35:45Z</time>
      </trkpt>
      <trkpt lat="45.741886" lon="6.714393">
        <ele>2139.370</ele>
        <time>2018-07-14T12:35:51Z</time>
      </trkpt>
      <trkpt lat="45.741841" lon="6.714356">
        <ele>2140.197</ele>
        <time>2018-07-14T12:35:58Z</time>
      </trkpt>
      <trkpt lat="45.741796" lon="6.714320">
        <ele>2141.430</ele>
        <time>2018-07-14T12:36:04Z</time>
      </trkpt>
      <trkpt lat="45.741755" lon="6.714278">
        <ele>2142.655</ele>
        <time>2018-07-14T12:36:10Z</time>
      </trkpt>
      <trkpt lat="45.741721" lon="6.714228">
        <ele>2142.961</ele>
        <time>2018-07-14T12:36:17Z</time>
      </trkpt>
      <trkpt lat="45.741691" lon="6.714166">
        <ele>2143.566</ele>
        <time>2018-07-14T12:36:23Z</time>
      </trkpt>
      <trkpt lat="45.741665" lon="6.714109">
        <ele>2144.232</ele>
        <time>2018-07-14T12:36:29Z</time>
      </trkpt>
      <trkpt lat="45.741626" lon="6.714073">
        <ele>2144.292</ele>
        <time>2018-07-14T12:36:34Z</time>
      </trkpt>
      <trkpt lat="45.741582" lon="6.714047">
        <ele>2144.211</ele>
        <time>2018-07-14T12:36:39Z</time>
      </trkpt>
      <trkpt lat="45.741539" lon="6.714022">
        <ele>2144.208</ele>
        <time>2018-07-14T12:36:44Z</time>
      </trkpt>
      <trkpt lat="45.741493" lon="6.713997">
        <ele>2144.645</ele>
        <time>2018-07-14T12:36:49Z</time>
      </trkpt>
      <trkpt lat="45.741448" lon="6.713967">
        <ele>2144.839</ele>
        <time>2018-07-14T12:36:54Z</time>
      </trkpt>
      <trkpt lat="45.741407" lon="6.713931">
        <ele>2144.599</ele>
        <time>2018-07-14T12:36:59Z</time>
      </trkpt>
      <trkpt lat="45.741363" lon="6.713902">
        <ele>2144.356</ele>
        <time>2018-07-14T12:37:07Z</time>
      </trkpt>
      <trkpt lat="45.741316" lon="6.713880">
        <ele>2144.249</ele>
        <time>2018-07-14T12:37:14Z</time>
      </trkpt>
      <trkpt lat="45.741273" lon="6.713856">
        <ele>2144.564</ele>
        <time>2018-07-14T12:37:22Z</time>
      </trkpt>
      <trkpt lat="45.741227" lon="6.713837">
        <ele>2144.780</ele>
        <time>2018-07-14T12:37:31Z</time>
      </trkpt>
      <trkpt lat="45.741180" lon="6.713815">
        <ele>2145.255</ele>
        <time>2018-07-14T12:37:39Z</time>
      </trkpt>
      <trkpt lat="45.741135" lon="6.713797">
        <ele>2146.349</ele>
        <time>2018-07-14T12:37:50Z</time>
      </trkpt>
      <trkpt lat="45.741091" lon="6.713773">
        <ele>2146.602</ele>
        <time>2018-07-14T12:38:01Z</time>
      </trkpt>
      <trkpt lat="45.741046" lon="6.713776">
        <ele>2148.022</ele>
        <time>2018-07-14T12:38:10Z</time>
      </trkpt>
      <trkpt lat="45.741005" lon="6.713737">
        <ele>2149.608</ele>
        <time>2018-07-14T12:38:21Z</time>
      </trkpt>
      <trkpt lat="45.740960" lon="6.713725">
        <ele>2150.216</ele>
        <time>2018-07-14T12:39:26Z</time>
      </trkpt>
      <trkpt lat="45.740912" lon="6.713724">
        <ele>2151.360</ele>
        <time>2018-07-14T12:39:33Z</time>
      </trkpt>
      <trkpt lat="45.740864" lon="6.713729">
        <ele>2152.450</ele>
        <time>2018-07-14T12:39:42Z</time>
      </trkpt>
      <trkpt lat="45.740818" lon="6.713712">
        <ele>2153.987</ele>
        <time>2018-07-14T12:39:49Z</time>
      </trkpt>
      <trkpt lat="45.740773" lon="6.713687">
        <ele>2154.440</ele>
        <time>2018-07-14T12:39:59Z</time>
      </trkpt>
      <trkpt lat="45.740722" lon="6.713677">
        <ele>2155.515</ele>
        <time>2018-07-14T12:40:19Z</time>
      </trkpt>
      <trkpt lat="45.740675" lon="6.713679">
        <ele>2157.311</ele>
        <time>2018-07-14T12:40:30Z</time>
      </trkpt>
      <trkpt lat="45.740626" lon="6.713661">
        <ele>2158.456</ele>
        <time>2018-07-14T12:40:39Z</time>
      </trkpt>
      <trkpt lat="45.740580" lon="6.713626">
        <ele>2159.148</ele>
        <time>2018-07-14T12:40:46Z</time>
      </trkpt>
      <trkpt lat="45.740547" lon="6.713579">
        <ele>2159.561</ele>
        <time>2018-07-14T12:40:54Z</time>
      </trkpt>
      <trkpt lat="45.740518" lon="6.713527">
        <ele>2160.117</ele>
        <time>2018-07-14T12:41:01Z</time>
      </trkpt>
      <trkpt lat="45.740481" lon="6.713479">
        <ele>2161.708</ele>
        <time>2018-07-14T12:41:10Z</time>
      </trkpt>
      <trkpt lat="45.740444" lon="6.713432">
        <ele>2162.316</ele>
        <time>2018-07-14T12:41:17Z</time>
      </trkpt>
      <trkpt lat="45.740398" lon="6.713404">
        <ele>2163.090</ele>
        <time>2018-07-14T12:41:26Z</time>
      </trkpt>
      <trkpt lat="45.740356" lon="6.713373">
        <ele>2163.040</ele>
        <time>2018-07-14T12:41:33Z</time>
      </trkpt>
      <trkpt lat="45.740321" lon="6.713321">
        <ele>2163.467</ele>
        <time>2018-07-14T12:41:43Z</time>
      </trkpt>
      <trkpt lat="45.740294" lon="6.713267">
        <ele>2163.360</ele>
        <time>2018-07-14T12:41:50Z</time>
      </trkpt>
      <trkpt lat="45.740263" lon="6.713215">
        <ele>2164.065</ele>
        <time>2018-07-14T12:41:58Z</time>
      </trkpt>
      <trkpt lat="45.740221" lon="6.713184">
        <ele>2164.831</ele>
        <time>2018-07-14T12:42:08Z</time>
      </trkpt>
      <trkpt lat="45.740180" lon="6.713155">
        <ele>2166.176</ele>
        <time>2018-07-14T12:42:20Z</time>
      </trkpt>
      <trkpt lat="45.740139" lon="6.713126">
        <ele>2166.996</ele>
        <time>2018-07-14T12:42:30Z</time>
      </trkpt>
      <trkpt lat="45.740097" lon="6.713096">
        <ele>2166.631</ele>
        <time>2018-07-14T12:42:39Z</time>
      </trkpt>
      <trkpt lat="45.740047" lon="6.713092">
        <ele>2166.424</ele>
        <time>2018-07-14T12:42:56Z</time>
      </trkpt>
      <trkpt lat="45.740015" lon="6.713046">
        <ele>2166.308</ele>
        <time>2018-07-14T12:43:04Z</time>
      </trkpt>
      <trkpt lat="45.739982" lon="6.712993">
        <ele>2166.261</ele>
        <time>2018-07-14T12:43:11Z</time>
      </trkpt>
      <trkpt lat="45.739947" lon="6.712949">
        <ele>2166.685</ele>
        <time>2018-07-14T12:43:18Z</time>
      </trkpt>
      <trkpt lat="45.739915" lon="6.712893">
        <ele>2168.075</ele>
        <time>2018-07-14T12:44:02Z</time>
      </trkpt>
      <trkpt lat="45.739879" lon="6.712845">
        <ele>2169.672</ele>
        <time>2018-07-14T12:44:13Z</time>
      </trkpt>
      <trkpt lat="45.739853" lon="6.712792">
        <ele>2170.675</ele>
        <time>2018-07-14T12:44:24Z</time>
      </trkpt>
      <trkpt lat="45.739834" lon="6.712728">
        <ele>2171.610</ele>
        <time>2018-07-14T12:44:37Z</time>
      </trkpt>
      <trkpt lat="45.739811" lon="6.712668">
        <ele>2171.856</ele>
        <time>2018-07-14T12:44:46Z</time>
      </trkpt>
      <trkpt lat="45.739769" lon="6.712638">
        <ele>2171.571</ele>
        <time>2018-07-14T12:44:58Z</time>
      </trkpt>
      <trkpt lat="45.739732" lon="6.712599">
        <ele>2171.764</ele>
        <time>2018-07-14T12:45:09Z</time>
      </trkpt>
      <trkpt lat="45.739691" lon="6.712565">
        <ele>2173.006</ele>
        <time>2018-07-14T12:45:23Z</time>
      </trkpt>
      <trkpt lat="45.739666" lon="6.712506">
        <ele>2174.216</ele>
        <time>2018-07-14T12:45:34Z</time>
      </trkpt>
      <trkpt lat="45.739639" lon="6.712447">
        <ele>2176.108</ele>
        <time>2018-07-14T12:45:44Z</time>
      </trkpt>
      <trkpt lat="45.739609" lon="6.712391">
        <ele>2178.118</ele>
        <time>2018-07-14T12:46:01Z</time>
      </trkpt>
      <trkpt lat="45.739583" lon="6.712338">
        <ele>2179.362</ele>
        <time>2018-07-14T12:46:12Z</time>
      </trkpt>
      <trkpt lat="45.739560" lon="6.712278">
        <ele>2180.852</ele>
        <time>2018-07-14T12:46:23Z</time>
      </trkpt>
      <trkpt lat="45.739529" lon="6.712225">
        <ele>2182.569</ele>
        <time>2018-07-14T12:46:35Z</time>
      </trkpt>
      <trkpt lat="45.739496" lon="6.712177">
        <ele>2184.762</ele>
        <time>2018-07-14T12:46:49Z</time>
      </trkpt>
      <trkpt lat="45.739463" lon="6.712130">
        <ele>2185.227</ele>
        <time>2018-07-14T12:47:16Z</time>
      </trkpt>
      <trkpt lat="45.739432" lon="6.712079">
        <ele>2186.353</ele>
        <time>2018-07-14T12:47:31Z</time>
      </trkpt>
      <trkpt lat="45.739415" lon="6.712018">
        <ele>2187.828</ele>
        <time>2018-07-14T12:47:43Z</time>
      </trkpt>
      <trkpt lat="45.739392" lon="6.711959">
        <ele>2189.129</ele>
        <time>2018-07-14T12:47:57Z</time>
      </trkpt>
      <trkpt lat="45.739364" lon="6.711902">
        <ele>2189.500</ele>
        <time>2018-07-14T12:48:27Z</time>
      </trkpt>
      <trkpt lat="45.739329" lon="6.711857">
        <ele>2190.120</ele>
        <time>2018-07-14T12:48:43Z</time>
      </trkpt>
      <trkpt lat="45.739285" lon="6.711830">
        <ele>2192.108</ele>
        <time>2018-07-14T12:48:59Z</time>
      </trkpt>
      <trkpt lat="45.739247" lon="6.711782">
        <ele>2195.344</ele>
        <time>2018-07-14T12:49:16Z</time>
      </trkpt>
      <trkpt lat="45.739200" lon="6.711781">
        <ele>2197.228</ele>
        <time>2018-07-14T12:49:30Z</time>
      </trkpt>
      <trkpt lat="45.739179" lon="6.711722">
        <ele>2199.138</ele>
        <time>2018-07-14T12:49:42Z</time>
      </trkpt>
      <trkpt lat="45.739162" lon="6.711660">
        <ele>2201.535</ele>
        <time>2018-07-14T12:49:54Z</time>
      </trkpt>
      <trkpt lat="45.739120" lon="6.711632">
        <ele>2202.988</ele>
        <time>2018-07-14T12:50:05Z</time>
      </trkpt>
      <trkpt lat="45.739101" lon="6.711568">
        <ele>2205.823</ele>
        <time>2018-07-14T12:50:18Z</time>
      </trkpt>
      <trkpt lat="45.739058" lon="6.711542">
        <ele>2208.379</ele>
        <time>2018-07-14T12:50:34Z</time>
      </trkpt>
      <trkpt lat="45.739041" lon="6.711482">
        <ele>2209.864</ele>
        <time>2018-07-14T12:50:42Z</time>
      </trkpt>
      <trkpt lat="45.739027" lon="6.711419">
        <ele>2210.739</ele>
        <time>2018-07-14T12:50:50Z</time>
      </trkpt>
      <trkpt lat="45.739008" lon="6.711356">
        <ele>2210.801</ele>
        <time>2018-07-14T12:51:00Z</time>
      </trkpt>
      <trkpt lat="45.738980" lon="6.711304">
        <ele>2211.721</ele>
        <time>2018-07-14T12:51:14Z</time>
      </trkpt>
      <trkpt lat="45.738966" lon="6.711241">
        <ele>2212.208</ele>
        <time>2018-07-14T12:51:23Z</time>
      </trkpt>
      <trkpt lat="45.738960" lon="6.711210">
        <ele>2205.255</ele>
        <time>2018-07-14T13:04:14Z</time>
      </trkpt>
      <trkpt lat="45.738927" lon="6.711160">
        <ele>2206.159</ele>
        <time>2018-07-14T13:04:24Z</time>
      </trkpt>
      <trkpt lat="45.738888" lon="6.711124">
        <ele>2207.379</ele>
        <time>2018-07-14T13:04:34Z</time>
      </trkpt>
      <trkpt lat="45.738852" lon="6.711079">
        <ele>2208.096</ele>
        <time>2018-07-14T13:04:59Z</time>
      </trkpt>
      <trkpt lat="45.738810" lon="6.711051">
        <ele>2211.269</ele>
        <time>2018-07-14T13:05:15Z</time>
      </trkpt>
      <trkpt lat="45.738788" lon="6.710988">
        <ele>2213.544</ele>
        <time>2018-07-14T13:05:27Z</time>
      </trkpt>
      <trkpt lat="45.738751" lon="6.710950">
        <ele>2215.390</ele>
        <time>2018-07-14T13:05:39Z</time>
      </trkpt>
      <trkpt lat="45.738719" lon="6.710899">
        <ele>2216.835</ele>
        <time>2018-07-14T13:05:53Z</time>
      </trkpt>
      <trkpt lat="45.738688" lon="6.710849">
        <ele>2219.368</ele>
        <time>2018-07-14T13:06:15Z</time>
      </trkpt>
      <trkpt lat="45.738665" lon="6.710791">
        <ele>2220.842</ele>
        <time>2018-07-14T13:06:31Z</time>
      </trkpt>
      <trkpt lat="45.738650" lon="6.710719">
        <ele>2221.726</ele>
        <time>2018-07-14T13:06:46Z</time>
      </trkpt>
      <trkpt lat="45.738628" lon="6.710656">
        <ele>2222.208</ele>
        <time>2018-07-14T13:06:57Z</time>
      </trkpt>
      <trkpt lat="45.738596" lon="6.710610">
        <ele>2222.978</ele>
        <time>2018-07-14T13:07:13Z</time>
      </trkpt>
      <trkpt lat="45.738570" lon="6.710550">
        <ele>2224.992</ele>
        <time>2018-07-14T13:07:24Z</time>
      </trkpt>
      <trkpt lat="45.738551" lon="6.710489">
        <ele>2225.722</ele>
        <time>2018-07-14T13:07:36Z</time>
      </trkpt>
      <trkpt lat="45.738517" lon="6.710445">
        <ele>2228.249</ele>
        <time>2018-07-14T13:07:53Z</time>
      </trkpt>
      <trkpt lat="45.738478" lon="6.710404">
        <ele>2230.562</ele>
        <time>2018-07-14T13:08:06Z</time>
      </trkpt>
      <trkpt lat="45.738444" lon="6.710361">
        <ele>2231.947</ele>
        <time>2018-07-14T13:08:17Z</time>
      </trkpt>
      <trkpt lat="45.738430" lon="6.710296">
        <ele>2233.173</ele>
        <time>2018-07-14T13:08:39Z</time>
      </trkpt>
      <trkpt lat="45.738417" lon="6.710230">
        <ele>2233.478</ele>
        <time>2018-07-14T13:08:50Z</time>
      </trkpt>
      <trkpt lat="45.738387" lon="6.710178">
        <ele>2235.289</ele>
        <time>2018-07-14T13:09:07Z</time>
      </trkpt>
      <trkpt lat="45.738346" lon="6.710147">
        <ele>2238.306</ele>
        <time>2018-07-14T13:09:30Z</time>
      </trkpt>
      <trkpt lat="45.738316" lon="6.710090">
        <ele>2240.126</ele>
        <time>2018-07-14T13:09:42Z</time>
      </trkpt>
      <trkpt lat="45.738299" lon="6.710030">
        <ele>2241.208</ele>
        <time>2018-07-14T13:09:54Z</time>
      </trkpt>
      <trkpt lat="45.738286" lon="6.709962">
        <ele>2241.920</ele>
        <time>2018-07-14T13:10:06Z</time>
      </trkpt>
      <trkpt lat="45.738287" lon="6.709897">
        <ele>2241.994</ele>
        <time>2018-07-14T13:10:16Z</time>
      </trkpt>
      <trkpt lat="45.738244" lon="6.709926">
        <ele>2243.934</ele>
        <time>2018-07-14T13:10:34Z</time>
      </trkpt>
      <trkpt lat="45.738195" lon="6.709943">
        <ele>2245.971</ele>
        <time>2018-07-14T13:10:51Z</time>
      </trkpt>
      <trkpt lat="45.738153" lon="6.709970">
        <ele>2246.754</ele>
        <time>2018-07-14T13:11:07Z</time>
      </trkpt>
      <trkpt lat="45.738115" lon="6.709935">
        <ele>2247.279</ele>
        <time>2018-07-14T13:11:19Z</time>
      </trkpt>
      <trkpt lat="45.738083" lon="6.709885">
        <ele>2249.585</ele>
        <time>2018-07-14T13:12:52Z</time>
      </trkpt>
      <trkpt lat="45.738044" lon="6.709844">
        <ele>2251.750</ele>
        <time>2018-07-14T13:13:01Z</time>
      </trkpt>
      <trkpt lat="45.738032" lon="6.709782">
        <ele>2252.286</ele>
        <time>2018-07-14T13:13:17Z</time>
      </trkpt>
      <trkpt lat="45.737989" lon="6.709758">
        <ele>2253.360</ele>
        <time>2018-07-14T13:13:28Z</time>
      </trkpt>
      <trkpt lat="45.737978" lon="6.709694">
        <ele>2255.626</ele>
        <time>2018-07-14T13:13:56Z</time>
      </trkpt>
      <trkpt lat="45.737943" lon="6.709648">
        <ele>2258.608</ele>
        <time>2018-07-14T13:14:21Z</time>
      </trkpt>
      <trkpt lat="45.737931" lon="6.709580">
        <ele>2261.240</ele>
        <time>2018-07-14T13:14:54Z</time>
      </trkpt>
      <trkpt lat="45.737885" lon="6.709564">
        <ele>2263.594</ele>
        <time>2018-07-14T13:15:13Z</time>
      </trkpt>
      <trkpt lat="45.737871" lon="6.709502">
        <ele>2266.124</ele>
        <time>2018-07-14T13:15:45Z</time>
      </trkpt>
      <trkpt lat="45.737830" lon="6.709472">
        <ele>2267.781</ele>
        <time>2018-07-14T13:16:00Z</time>
      </trkpt>
      <trkpt lat="45.737837" lon="6.709404">
        <ele>2269.444</ele>
        <time>2018-07-14T13:16:13Z</time>
      </trkpt>
      <trkpt lat="45.737788" lon="6.709398">
        <ele>2270.429</ele>
        <time>2018-07-14T13:16:41Z</time>
      </trkpt>
      <trkpt lat="45.737764" lon="6.709343">
        <ele>2271.435</ele>
        <time>2018-07-14T13:16:59Z</time>
      </trkpt>
      <trkpt lat="45.737772" lon="6.709274">
        <ele>2273.680</ele>
        <time>2018-07-14T13:17:16Z</time>
      </trkpt>
      <trkpt lat="45.737752" lon="6.709215">
        <ele>2275.339</ele>
        <time>2018-07-14T13:17:25Z</time>
      </trkpt>
      <trkpt lat="45.737731" lon="6.709157">
        <ele>2276.701</ele>
        <time>2018-07-14T13:17:43Z</time>
      </trkpt>
      <trkpt lat="45.737695" lon="6.709104">
        <ele>2278.421</ele>
        <time>2018-07-14T13:17:53Z</time>
      </trkpt>
      <trkpt lat="45.737657" lon="6.709056">
        <ele>2279.408</ele>
        <time>2018-07-14T13:18:18Z</time>
      </trkpt>
      <trkpt lat="45.737636" lon="6.708993">
        <ele>2279.665</ele>
        <time>2018-07-14T13:18:29Z</time>
      </trkpt>
      <trkpt lat="45.737593" lon="6.708970">
        <ele>2280.969</ele>
        <time>2018-07-14T13:18:37Z</time>
      </trkpt>
      <trkpt lat="45.737550" lon="6.708934">
        <ele>2282.129</ele>
        <time>2018-07-14T13:18:52Z</time>
      </trkpt>
      <trkpt lat="45.737511" lon="6.708899">
        <ele>2283.266</ele>
        <time>2018-07-14T13:19:04Z</time>
      </trkpt>
      <trkpt lat="45.737472" lon="6.708858">
        <ele>2284.729</ele>
        <time>2018-07-14T13:19:16Z</time>
      </trkpt>
      <trkpt lat="45.737431" lon="6.708831">
        <ele>2286.494</ele>
        <time>2018-07-14T13:19:32Z</time>
      </trkpt>
      <trkpt lat="45.737389" lon="6.708806">
        <ele>2287.880</ele>
        <time>2018-07-14T13:19:41Z</time>
      </trkpt>
      <trkpt lat="45.737364" lon="6.708751">
        <ele>2288.655</ele>
        <time>2018-07-14T13:19:51Z</time>
      </trkpt>
      <trkpt lat="45.737377" lon="6.708681">
        <ele>2289.539</ele>
        <time>2018-07-14T13:20:00Z</time>
      </trkpt>
      <trkpt lat="45.737415" lon="6.708643">
        <ele>2290.801</ele>
        <time>2018-07-14T13:20:08Z</time>
      </trkpt>
      <trkpt lat="45.737459" lon="6.708615">
        <ele>2292.421</ele>
        <time>2018-07-14T13:20:20Z</time>
      </trkpt>
      <trkpt lat="45.737496" lon="6.708570">
        <ele>2293.008</ele>
        <time>2018-07-14T13:20:30Z</time>
      </trkpt>
      <trkpt lat="45.737522" lon="6.708511">
        <ele>2293.375</ele>
        <time>2018-07-14T13:20:41Z</time>
      </trkpt>
      <trkpt lat="45.737561" lon="6.708478">
        <ele>2293.959</ele>
        <time>2018-07-14T13:20:49Z</time>
      </trkpt>
      <trkpt lat="45.737598" lon="6.708428">
        <ele>2294.759</ele>
        <time>2018-07-14T13:20:58Z</time>
      </trkpt>
      <trkpt lat="45.737637" lon="6.708383">
        <ele>2295.286</ele>
        <time>2018-07-14T13:21:06Z</time>
      </trkpt>
      <trkpt lat="45.737685" lon="6.708382">
        <ele>2296.379</ele>
        <time>2018-07-14T13:21:17Z</time>
      </trkpt>
      <trkpt lat="45.737722" lon="6.708341">
        <ele>2297.344</ele>
        <time>2018-07-14T13:21:34Z</time>
      </trkpt>
      <trkpt lat="45.737757" lon="6.708299">
        <ele>2299.150</ele>
        <time>2018-07-14T13:21:44Z</time>
      </trkpt>
      <trkpt lat="45.737799" lon="6.708265">
        <ele>2300.695</ele>
        <time>2018-07-14T13:21:53Z</time>
      </trkpt>
      <trkpt lat="45.737841" lon="6.708239">
        <ele>2301.589</ele>
        <time>2018-07-14T13:22:05Z</time>
      </trkpt>
      <trkpt lat="45.737804" lon="6.708174">
        <ele>2303.206</ele>
        <time>2018-07-14T13:22:46Z</time>
      </trkpt>
      <trkpt lat="45.737771" lon="6.708129">
        <ele>2305.026</ele>
        <time>2018-07-14T13:22:58Z</time>
      </trkpt>
      <trkpt lat="45.737753" lon="6.708064">
        <ele>2305.308</ele>
        <time>2018-07-14T13:23:08Z</time>
      </trkpt>
      <trkpt lat="45.737731" lon="6.708003">
        <ele>2306.790</ele>
        <time>2018-07-14T13:23:17Z</time>
      </trkpt>
      <trkpt lat="45.737687" lon="6.707977">
        <ele>2308.394</ele>
        <time>2018-07-14T13:23:29Z</time>
      </trkpt>
      <trkpt lat="45.737665" lon="6.707920">
        <ele>2310.164</ele>
        <time>2018-07-14T13:23:41Z</time>
      </trkpt>
      <trkpt lat="45.737628" lon="6.707865">
        <ele>2310.871</ele>
        <time>2018-07-14T13:23:52Z</time>
      </trkpt>
      <trkpt lat="45.737582" lon="6.707856">
        <ele>2311.694</ele>
        <time>2018-07-14T13:24:08Z</time>
      </trkpt>
      <trkpt lat="45.737535" lon="6.707884">
        <ele>2312.989</ele>
        <time>2018-07-14T13:24:25Z</time>
      </trkpt>
      <trkpt lat="45.737491" lon="6.707870">
        <ele>2314.925</ele>
        <time>2018-07-14T13:24:36Z</time>
      </trkpt>
      <trkpt lat="45.737440" lon="6.707869">
        <ele>2316.110</ele>
        <time>2018-07-14T13:24:48Z</time>
      </trkpt>
      <trkpt lat="45.737394" lon="6.707845">
        <ele>2316.464</ele>
        <time>2018-07-14T13:25:02Z</time>
      </trkpt>
      <trkpt lat="45.737355" lon="6.707812">
        <ele>2318.206</ele>
        <time>2018-07-14T13:25:15Z</time>
      </trkpt>
      <trkpt lat="45.737317" lon="6.707770">
        <ele>2320.116</ele>
        <time>2018-07-14T13:25:54Z</time>
      </trkpt>
      <trkpt lat="45.737280" lon="6.707732">
        <ele>2321.208</ele>
        <time>2018-07-14T13:26:04Z</time>
      </trkpt>
      <trkpt lat="45.737238" lon="6.707701">
        <ele>2322.318</ele>
        <time>2018-07-14T13:26:15Z</time>
      </trkpt>
      <trkpt lat="45.737195" lon="6.707655">
        <ele>2322.922</ele>
        <time>2018-07-14T13:26:29Z</time>
      </trkpt>
      <trkpt lat="45.737143" lon="6.707670">
        <ele>2322.912</ele>
        <time>2018-07-14T13:26:37Z</time>
      </trkpt>
      <trkpt lat="45.737096" lon="6.707681">
        <ele>2323.399</ele>
        <time>2018-07-14T13:26:41Z</time>
      </trkpt>
      <trkpt lat="45.737045" lon="6.707692">
        <ele>2323.582</ele>
        <time>2018-07-14T13:26:46Z</time>
      </trkpt>
      <trkpt lat="45.736994" lon="6.707700">
        <ele>2323.687</ele>
        <time>2018-07-14T13:26:52Z</time>
      </trkpt>
      <trkpt lat="45.736949" lon="6.707713">
        <ele>2323.783</ele>
        <time>2018-07-14T13:26:57Z</time>
      </trkpt>
      <trkpt lat="45.736896" lon="6.707709">
        <ele>2323.818</ele>
        <time>2018-07-14T13:27:04Z</time>
      </trkpt>
      <trkpt lat="45.736850" lon="6.707715">
        <ele>2324.259</ele>
        <time>2018-07-14T13:27:09Z</time>
      </trkpt>
      <trkpt lat="45.736803" lon="6.707710">
        <ele>2324.503</ele>
        <time>2018-07-14T13:27:16Z</time>
      </trkpt>
      <trkpt lat="45.736757" lon="6.707723">
        <ele>2324.323</ele>
        <time>2018-07-14T13:27:22Z</time>
      </trkpt>
      <trkpt lat="45.736708" lon="6.707726">
        <ele>2325.408</ele>
        <time>2018-07-14T13:27:29Z</time>
      </trkpt>
      <trkpt lat="45.736661" lon="6.707740">
        <ele>2325.687</ele>
        <time>2018-07-14T13:27:35Z</time>
      </trkpt>
      <trkpt lat="45.736616" lon="6.707759">
        <ele>2327.341</ele>
        <time>2018-07-14T13:27:50Z</time>
      </trkpt>
      <trkpt lat="45.736563" lon="6.707758">
        <ele>2329.151</ele>
        <time>2018-07-14T13:28:04Z</time>
      </trkpt>
      <trkpt lat="45.736518" lon="6.707737">
        <ele>2330.628</ele>
        <time>2018-07-14T13:28:17Z</time>
      </trkpt>
      <trkpt lat="45.736471" lon="6.707710">
        <ele>2331.911</ele>
        <time>2018-07-14T13:28:28Z</time>
      </trkpt>
      <trkpt lat="45.736419" lon="6.707705">
        <ele>2333.586</ele>
        <time>2018-07-14T13:28:53Z</time>
      </trkpt>
      <trkpt lat="45.736371" lon="6.707685">
        <ele>2335.232</ele>
        <time>2018-07-14T13:29:04Z</time>
      </trkpt>
      <trkpt lat="45.736329" lon="6.707659">
        <ele>2337.417</ele>
        <time>2018-07-14T13:29:24Z</time>
      </trkpt>
      <trkpt lat="45.736290" lon="6.707626">
        <ele>2339.555</ele>
        <time>2018-07-14T13:29:37Z</time>
      </trkpt>
      <trkpt lat="45.736257" lon="6.707577">
        <ele>2342.007</ele>
        <time>2018-07-14T13:29:59Z</time>
      </trkpt>
      <trkpt lat="45.736208" lon="6.707548">
        <ele>2344.717</ele>
        <time>2018-07-14T13:30:16Z</time>
      </trkpt>
      <trkpt lat="45.736203" lon="6.707480">
        <ele>2346.308</ele>
        <time>2018-07-14T13:30:35Z</time>
      </trkpt>
      <trkpt lat="45.736158" lon="6.707471">
        <ele>2348.197</ele>
        <time>2018-07-14T13:30:52Z</time>
      </trkpt>
      <trkpt lat="45.736108" lon="6.707465">
        <ele>2349.641</ele>
        <time>2018-07-14T13:31:08Z</time>
      </trkpt>
      <trkpt lat="45.736072" lon="6.707418">
        <ele>2350.571</ele>
        <time>2018-07-14T13:31:21Z</time>
      </trkpt>
      <trkpt lat="45.736026" lon="6.707393">
        <ele>2351.418</ele>
        <time>2018-07-14T13:31:31Z</time>
      </trkpt>
      <trkpt lat="45.735978" lon="6.707389">
        <ele>2352.811</ele>
        <time>2018-07-14T13:31:44Z</time>
      </trkpt>
      <trkpt lat="45.735938" lon="6.707353">
        <ele>2354.486</ele>
        <time>2018-07-14T13:32:01Z</time>
      </trkpt>
      <trkpt lat="45.735895" lon="6.707331">
        <ele>2356.612</ele>
        <time>2018-07-14T13:32:11Z</time>
      </trkpt>
      <trkpt lat="45.735850" lon="6.707310">
        <ele>2357.917</ele>
        <time>2018-07-14T13:32:26Z</time>
      </trkpt>
      <trkpt lat="45.735811" lon="6.707268">
        <ele>2358.338</ele>
        <time>2018-07-14T13:32:44Z</time>
      </trkpt>
      <trkpt lat="45.735775" lon="6.707224">
        <ele>2359.370</ele>
        <time>2018-07-14T13:32:58Z</time>
      </trkpt>
      <trkpt lat="45.735751" lon="6.707169">
        <ele>2360.317</ele>
        <time>2018-07-14T13:33:11Z</time>
      </trkpt>
      <trkpt lat="45.735749" lon="6.707102">
        <ele>2361.308</ele>
        <time>2018-07-14T13:33:31Z</time>
      </trkpt>
      <trkpt lat="45.735716" lon="6.707053">
        <ele>2362.355</ele>
        <time>2018-07-14T13:33:41Z</time>
      </trkpt>
      <trkpt lat="45.735689" lon="6.707000">
        <ele>2362.979</ele>
        <time>2018-07-14T13:33:52Z</time>
      </trkpt>
      <trkpt lat="45.735653" lon="6.706957">
        <ele>2364.979</ele>
        <time>2018-07-14T13:34:04Z</time>
      </trkpt>
      <trkpt lat="45.735606" lon="6.706944">
        <ele>2366.986</ele>
        <time>2018-07-14T13:34:19Z</time>
      </trkpt>
      <trkpt lat="45.735560" lon="6.706874">
        <ele>2367.739</ele>
        <time>2018-07-14T13:34:44Z</time>
      </trkpt>
      <trkpt lat="45.735517" lon="6.706849">
        <ele>2368.234</ele>
        <time>2018-07-14T13:34:54Z</time>
      </trkpt>
      <trkpt lat="45.735477" lon="6.706810">
        <ele>2368.560</ele>
        <time>2018-07-14T13:35:05Z</time>
      </trkpt>
      <trkpt lat="45.735434" lon="6.706789">
        <ele>2370.325</ele>
        <time>2018-07-14T13:35:18Z</time>
      </trkpt>
      <trkpt lat="45.735388" lon="6.706789">
        <ele>2372.266</ele>
        <time>2018-07-14T13:35:29Z</time>
      </trkpt>
      <trkpt lat="45.735340" lon="6.706792">
        <ele>2373.329</ele>
        <time>2018-07-14T13:35:37Z</time>
      </trkpt>
      <trkpt lat="45.735294" lon="6.706772">
        <ele>2374.821</ele>
        <time>2018-07-14T13:35:46Z</time>
      </trkpt>
      <trkpt lat="45.735249" lon="6.706760">
        <ele>2376.508</ele>
        <time>2018-07-14T13:35:55Z</time>
      </trkpt>
      <trkpt lat="45.735202" lon="6.706753">
        <ele>2377.548</ele>
        <time>2018-07-14T13:36:04Z</time>
      </trkpt>
      <trkpt lat="45.735156" lon="6.706737">
        <ele>2378.592</ele>
        <time>2018-07-14T13:36:13Z</time>
      </trkpt>
      <trkpt lat="45.735121" lon="6.706694">
        <ele>2379.582</ele>
        <time>2018-07-14T13:36:21Z</time>
      </trkpt>
      <trkpt lat="45.735089" lon="6.706642">
        <ele>2380.569</ele>
        <time>2018-07-14T13:36:27Z</time>
      </trkpt>
      <trkpt lat="45.735089" lon="6.706642">
        <ele>2380.572</ele>
        <time>2018-07-14T13:36:27Z</time>
      </trkpt>
      <trkpt lat="45.735045" lon="6.706618">
        <ele>2381.957</ele>
        <time>2018-07-14T13:37:39Z</time>
      </trkpt>
      <trkpt lat="45.735000" lon="6.706633">
        <ele>2382.433</ele>
        <time>2018-07-14T13:37:45Z</time>
      </trkpt>
      <trkpt lat="45.734965" lon="6.706690">
        <ele>2382.368</ele>
        <time>2018-07-14T13:37:51Z</time>
      </trkpt>
      <trkpt lat="45.734932" lon="6.706738">
        <ele>2382.276</ele>
        <time>2018-07-14T13:37:56Z</time>
      </trkpt>
      <trkpt lat="45.734920" lon="6.706802">
        <ele>2383.090</ele>
        <time>2018-07-14T13:38:11Z</time>
      </trkpt>
      <trkpt lat="45.734940" lon="6.706862">
        <ele>2383.919</ele>
        <time>2018-07-14T13:38:17Z</time>
      </trkpt>
      <trkpt lat="45.734923" lon="6.706936">
        <ele>2384.408</ele>
        <time>2018-07-14T13:38:26Z</time>
      </trkpt>
      <trkpt lat="45.734907" lon="6.707007">
        <ele>2384.319</ele>
        <time>2018-07-14T13:38:36Z</time>
      </trkpt>
      <trkpt lat="45.734913" lon="6.707075">
        <ele>2385.053</ele>
        <time>2018-07-14T13:38:51Z</time>
      </trkpt>
      <trkpt lat="45.734831" lon="6.707063">
        <ele>2387.173</ele>
        <time>2018-07-14T13:45:18Z</time>
      </trkpt>
      <trkpt lat="45.734788" lon="6.707036">
        <ele>2387.190</ele>
        <time>2018-07-14T13:45:30Z</time>
      </trkpt>
      <trkpt lat="45.734744" lon="6.707005">
        <ele>2386.433</ele>
        <time>2018-07-14T13:45:37Z</time>
      </trkpt>
      <trkpt lat="45.734704" lon="6.707038">
        <ele>2386.358</ele>
        <time>2018-07-14T13:45:49Z</time>
      </trkpt>
      <trkpt lat="45.734671" lon="6.707084">
        <ele>2386.624</ele>
        <time>2018-07-14T13:45:57Z</time>
      </trkpt>
      <trkpt lat="45.734633" lon="6.707127">
        <ele>2386.899</ele>
        <time>2018-07-14T13:46:04Z</time>
      </trkpt>
      <trkpt lat="45.734595" lon="6.707176">
        <ele>2386.553</ele>
        <time>2018-07-14T13:46:11Z</time>
      </trkpt>
      <trkpt lat="45.734557" lon="6.707212">
        <ele>2386.704</ele>
        <time>2018-07-14T13:46:17Z</time>
      </trkpt>
      <trkpt lat="45.734527" lon="6.707262">
        <ele>2387.214</ele>
        <time>2018-07-14T13:46:29Z</time>
      </trkpt>
      <trkpt lat="45.734494" lon="6.707311">
        <ele>2387.508</ele>
        <time>2018-07-14T13:46:38Z</time>
      </trkpt>
      <trkpt lat="45.734460" lon="6.707361">
        <ele>2386.977</ele>
        <time>2018-07-14T13:46:45Z</time>
      </trkpt>
      <trkpt lat="45.734432" lon="6.707424">
        <ele>2386.911</ele>
        <time>2018-07-14T13:46:51Z</time>
      </trkpt>
      <trkpt lat="45.734403" lon="6.707487">
        <ele>2387.381</ele>
        <time>2018-07-14T13:46:57Z</time>
      </trkpt>
      <trkpt lat="45.734389" lon="6.707553">
        <ele>2387.688</ele>
        <time>2018-07-14T13:47:03Z</time>
      </trkpt>
      <trkpt lat="45.734378" lon="6.707621">
        <ele>2388.661</ele>
        <time>2018-07-14T13:47:10Z</time>
      </trkpt>
      <trkpt lat="45.734376" lon="6.707693">
        <ele>2389.296</ele>
        <time>2018-07-14T13:47:18Z</time>
      </trkpt>
      <trkpt lat="45.734365" lon="6.707760">
        <ele>2389.512</ele>
        <time>2018-07-14T13:47:24Z</time>
      </trkpt>
      <trkpt lat="45.734340" lon="6.707824">
        <ele>2390.157</ele>
        <time>2018-07-14T13:47:32Z</time>
      </trkpt>
      <trkpt lat="45.734316" lon="6.707886">
        <ele>2389.752</ele>
        <time>2018-07-14T13:47:41Z</time>
      </trkpt>
      <trkpt lat="45.734281" lon="6.707930">
        <ele>2389.853</ele>
        <time>2018-07-14T13:47:46Z</time>
      </trkpt>
      <trkpt lat="45.734242" lon="6.707969">
        <ele>2389.908</ele>
        <time>2018-07-14T13:47:53Z</time>
      </trkpt>
      <trkpt lat="45.734220" lon="6.708030">
        <ele>2389.908</ele>
        <time>2018-07-14T13:48:02Z</time>
      </trkpt>
      <trkpt lat="45.734172" lon="6.708044">
        <ele>2391.187</ele>
        <time>2018-07-14T13:48:10Z</time>
      </trkpt>
      <trkpt lat="45.734128" lon="6.708024">
        <ele>2392.691</ele>
        <time>2018-07-14T13:48:16Z</time>
      </trkpt>
      <trkpt lat="45.734093" lon="6.708064">
        <ele>2393.581</ele>
        <time>2018-07-14T13:48:24Z</time>
      </trkpt>
      <trkpt lat="45.734074" lon="6.708126">
        <ele>2394.138</ele>
        <time>2018-07-14T13:48:31Z</time>
      </trkpt>
      <trkpt lat="45.734064" lon="6.708189">
        <ele>2394.811</ele>
        <time>2018-07-14T13:48:38Z</time>
      </trkpt>
      <trkpt lat="45.734045" lon="6.708253">
        <ele>2395.226</ele>
        <time>2018-07-14T13:48:48Z</time>
      </trkpt>
      <trkpt lat="45.734011" lon="6.708302">
        <ele>2395.542</ele>
        <time>2018-07-14T13:48:57Z</time>
      </trkpt>
      <trkpt lat="45.733970" lon="6.708336">
        <ele>2396.537</ele>
        <time>2018-07-14T13:49:06Z</time>
      </trkpt>
      <trkpt lat="45.733952" lon="6.708396">
        <ele>2396.717</ele>
        <time>2018-07-14T13:49:19Z</time>
      </trkpt>
      <trkpt lat="45.733912" lon="6.708436">
        <ele>2397.687</ele>
        <time>2018-07-14T13:49:28Z</time>
      </trkpt>
      <trkpt lat="45.733873" lon="6.708479">
        <ele>2398.915</ele>
        <time>2018-07-14T13:49:36Z</time>
      </trkpt>
      <trkpt lat="45.733828" lon="6.708494">
        <ele>2400.508</ele>
        <time>2018-07-14T13:49:45Z</time>
      </trkpt>
      <trkpt lat="45.733780" lon="6.708489">
        <ele>2401.583</ele>
        <time>2018-07-14T13:49:54Z</time>
      </trkpt>
      <trkpt lat="45.733735" lon="6.708524">
        <ele>2402.937</ele>
        <time>2018-07-14T13:50:11Z</time>
      </trkpt>
      <trkpt lat="45.733687" lon="6.708536">
        <ele>2404.197</ele>
        <time>2018-07-14T13:50:20Z</time>
      </trkpt>
      <trkpt lat="45.733644" lon="6.708570">
        <ele>2405.644</ele>
        <time>2018-07-14T13:50:30Z</time>
      </trkpt>
      <trkpt lat="45.733596" lon="6.708575">
        <ele>2406.577</ele>
        <time>2018-07-14T13:50:38Z</time>
      </trkpt>
      <trkpt lat="45.733533" lon="6.708588">
        <ele>2407.922</ele>
        <time>2018-07-14T13:51:15Z</time>
      </trkpt>
      <trkpt lat="45.733495" lon="6.708630">
        <ele>2407.998</ele>
        <time>2018-07-14T13:51:34Z</time>
      </trkpt>
      <trkpt lat="45.733446" lon="6.708646">
        <ele>2408.353</ele>
        <time>2018-07-14T13:51:48Z</time>
      </trkpt>
      <trkpt lat="45.733401" lon="6.708670">
        <ele>2410.131</ele>
        <time>2018-07-14T13:52:02Z</time>
      </trkpt>
      <trkpt lat="45.733356" lon="6.708689">
        <ele>2412.061</ele>
        <time>2018-07-14T13:52:17Z</time>
      </trkpt>
      <trkpt lat="45.733312" lon="6.708673">
        <ele>2414.307</ele>
        <time>2018-07-14T13:52:27Z</time>
      </trkpt>
      <trkpt lat="45.733267" lon="6.708691">
        <ele>2415.708</ele>
        <time>2018-07-14T13:52:58Z</time>
      </trkpt>
      <trkpt lat="45.733223" lon="6.708677">
        <ele>2417.335</ele>
        <time>2018-07-14T13:53:05Z</time>
      </trkpt>
      <trkpt lat="45.733178" lon="6.708660">
        <ele>2418.369</ele>
        <time>2018-07-14T13:53:11Z</time>
      </trkpt>
      <trkpt lat="45.733133" lon="6.708648">
        <ele>2420.179</ele>
        <time>2018-07-14T13:53:18Z</time>
      </trkpt>
      <trkpt lat="45.733087" lon="6.708621">
        <ele>2421.646</ele>
        <time>2018-07-14T13:53:28Z</time>
      </trkpt>
      <trkpt lat="45.733042" lon="6.708597">
        <ele>2422.559</ele>
        <time>2018-07-14T13:53:35Z</time>
      </trkpt>
      <trkpt lat="45.733007" lon="6.708543">
        <ele>2423.044</ele>
        <time>2018-07-14T13:53:42Z</time>
      </trkpt>
      <trkpt lat="45.732962" lon="6.708513">
        <ele>2424.170</ele>
        <time>2018-07-14T13:53:49Z</time>
      </trkpt>
      <trkpt lat="45.732922" lon="6.708471">
        <ele>2424.485</ele>
        <time>2018-07-14T13:53:57Z</time>
      </trkpt>
      <trkpt lat="45.732874" lon="6.708464">
        <ele>2424.285</ele>
        <time>2018-07-14T13:54:07Z</time>
      </trkpt>
      <trkpt lat="45.732833" lon="6.708428">
        <ele>2424.189</ele>
        <time>2018-07-14T13:54:14Z</time>
      </trkpt>
      <trkpt lat="45.732794" lon="6.708391">
        <ele>2424.417</ele>
        <time>2018-07-14T13:54:21Z</time>
      </trkpt>
      <trkpt lat="45.732752" lon="6.708367">
        <ele>2425.008</ele>
        <time>2018-07-14T13:54:35Z</time>
      </trkpt>
      <trkpt lat="45.732710" lon="6.708334">
        <ele>2426.680</ele>
        <time>2018-07-14T13:54:45Z</time>
      </trkpt>
      <trkpt lat="45.732672" lon="6.708289">
        <ele>2427.964</ele>
        <time>2018-07-14T13:54:58Z</time>
      </trkpt>
      <trkpt lat="45.732635" lon="6.708330">
        <ele>2426.764</ele>
        <time>2018-07-14T13:55:16Z</time>
      </trkpt>
      <trkpt lat="45.732590" lon="6.708315">
        <ele>2426.461</ele>
        <time>2018-07-14T13:55:26Z</time>
      </trkpt>
      <trkpt lat="45.732547" lon="6.708294">
        <ele>2426.684</ele>
        <time>2018-07-14T13:55:39Z</time>
      </trkpt>
      <trkpt lat="45.732501" lon="6.708283">
        <ele>2427.539</ele>
        <time>2018-07-14T13:55:53Z</time>
      </trkpt>
      <trkpt lat="45.732456" lon="6.708276">
        <ele>2428.945</ele>
        <time>2018-07-14T13:56:08Z</time>
      </trkpt>
      <trkpt lat="45.732410" lon="6.708279">
        <ele>2430.940</ele>
        <time>2018-07-14T13:56:31Z</time>
      </trkpt>
      <trkpt lat="45.732360" lon="6.708285">
        <ele>2432.185</ele>
        <time>2018-07-14T13:56:46Z</time>
      </trkpt>
      <trkpt lat="45.732315" lon="6.708295">
        <ele>2433.289</ele>
        <time>2018-07-14T13:56:53Z</time>
      </trkpt>
      <trkpt lat="45.732267" lon="6.708297">
        <ele>2434.317</ele>
        <time>2018-07-14T13:57:00Z</time>
      </trkpt>
      <trkpt lat="45.732220" lon="6.708297">
        <ele>2435.708</ele>
        <time>2018-07-14T13:57:11Z</time>
      </trkpt>
      <trkpt lat="45.732179" lon="6.708272">
        <ele>2437.010</ele>
        <time>2018-07-14T13:57:23Z</time>
      </trkpt>
      <trkpt lat="45.732133" lon="6.708263">
        <ele>2438.234</ele>
        <time>2018-07-14T13:57:33Z</time>
      </trkpt>
      <trkpt lat="45.732090" lon="6.708282">
        <ele>2439.754</ele>
        <time>2018-07-14T13:57:40Z</time>
      </trkpt>
      <trkpt lat="45.732044" lon="6.708297">
        <ele>2439.841</ele>
        <time>2018-07-14T13:57:49Z</time>
      </trkpt>
      <trkpt lat="45.731999" lon="6.708305">
        <ele>2439.554</ele>
        <time>2018-07-14T13:57:57Z</time>
      </trkpt>
      <trkpt lat="45.731952" lon="6.708319">
        <ele>2438.949</ele>
        <time>2018-07-14T13:58:03Z</time>
      </trkpt>
      <trkpt lat="45.731902" lon="6.708331">
        <ele>2438.955</ele>
        <time>2018-07-14T13:58:08Z</time>
      </trkpt>
      <trkpt lat="45.731851" lon="6.708342">
        <ele>2438.140</ele>
        <time>2018-07-14T13:58:14Z</time>
      </trkpt>
      <trkpt lat="45.731800" lon="6.708346">
        <ele>2437.656</ele>
        <time>2018-07-14T13:58:20Z</time>
      </trkpt>
      <trkpt lat="45.731751" lon="6.708356">
        <ele>2437.759</ele>
        <time>2018-07-14T13:58:26Z</time>
      </trkpt>
      <trkpt lat="45.731702" lon="6.708366">
        <ele>2438.214</ele>
        <time>2018-07-14T13:58:35Z</time>
      </trkpt>
      <trkpt lat="45.731651" lon="6.708357">
        <ele>2438.908</ele>
        <time>2018-07-14T13:59:05Z</time>
      </trkpt>
      <trkpt lat="45.731605" lon="6.708336">
        <ele>2439.747</ele>
        <time>2018-07-14T13:59:13Z</time>
      </trkpt>
      <trkpt lat="45.731559" lon="6.708345">
        <ele>2440.281</ele>
        <time>2018-07-14T13:59:26Z</time>
      </trkpt>
      <trkpt lat="45.731511" lon="6.708350">
        <ele>2440.921</ele>
        <time>2018-07-14T13:59:42Z</time>
      </trkpt>
      <trkpt lat="45.731463" lon="6.708367">
        <ele>2442.138</ele>
        <time>2018-07-14T13:59:58Z</time>
      </trkpt>
      <trkpt lat="45.731420" lon="6.708391">
        <ele>2443.231</ele>
        <time>2018-07-14T14:00:13Z</time>
      </trkpt>
      <trkpt lat="45.731378" lon="6.708425">
        <ele>2444.386</ele>
        <time>2018-07-14T14:00:25Z</time>
      </trkpt>
      <trkpt lat="45.731335" lon="6.708449">
        <ele>2444.912</ele>
        <time>2018-07-14T14:00:33Z</time>
      </trkpt>
      <trkpt lat="45.731290" lon="6.708483">
        <ele>2444.967</ele>
        <time>2018-07-14T14:00:53Z</time>
      </trkpt>
      <trkpt lat="45.731244" lon="6.708510">
        <ele>2444.963</ele>
        <time>2018-07-14T14:01:00Z</time>
      </trkpt>
      <trkpt lat="45.731194" lon="6.708514">
        <ele>2445.344</ele>
        <time>2018-07-14T14:01:06Z</time>
      </trkpt>
      <trkpt lat="45.731149" lon="6.708509">
        <ele>2445.518</ele>
        <time>2018-07-14T14:01:11Z</time>
      </trkpt>
      <trkpt lat="45.731100" lon="6.708503">
        <ele>2445.608</ele>
        <time>2018-07-14T14:01:18Z</time>
      </trkpt>
      <trkpt lat="45.731054" lon="6.708494">
        <ele>2445.788</ele>
        <time>2018-07-14T14:01:26Z</time>
      </trkpt>
      <trkpt lat="45.731006" lon="6.708489">
        <ele>2446.272</ele>
        <time>2018-07-14T14:01:33Z</time>
      </trkpt>
      <trkpt lat="45.730959" lon="6.708513">
        <ele>2446.952</ele>
        <time>2018-07-14T14:01:40Z</time>
      </trkpt>
      <trkpt lat="45.730914" lon="6.708536">
        <ele>2446.969</ele>
        <time>2018-07-14T14:01:47Z</time>
      </trkpt>
      <trkpt lat="45.730891" lon="6.708598">
        <ele>2447.342</ele>
        <time>2018-07-14T14:02:04Z</time>
      </trkpt>
      <trkpt lat="45.730858" lon="6.708648">
        <ele>2447.557</ele>
        <time>2018-07-14T14:02:21Z</time>
      </trkpt>
      <trkpt lat="45.730840" lon="6.708712">
        <ele>2448.013</ele>
        <time>2018-07-14T14:02:33Z</time>
      </trkpt>
      <trkpt lat="45.730839" lon="6.708779">
        <ele>2449.168</ele>
        <time>2018-07-14T14:02:45Z</time>
      </trkpt>
      <trkpt lat="45.730830" lon="6.708843">
        <ele>2450.648</ele>
        <time>2018-07-14T14:03:06Z</time>
      </trkpt>
      <trkpt lat="45.730793" lon="6.708885">
        <ele>2451.561</ele>
        <time>2018-07-14T14:03:16Z</time>
      </trkpt>
      <trkpt lat="45.730748" lon="6.708906">
        <ele>2452.017</ele>
        <time>2018-07-14T14:03:22Z</time>
      </trkpt>
      <trkpt lat="45.730698" lon="6.708897">
        <ele>2452.308</ele>
        <time>2018-07-14T14:03:28Z</time>
      </trkpt>
      <trkpt lat="45.730654" lon="6.708917">
        <ele>2452.926</ele>
        <time>2018-07-14T14:03:35Z</time>
      </trkpt>
      <trkpt lat="45.730622" lon="6.708977">
        <ele>2453.370</ele>
        <time>2018-07-14T14:03:48Z</time>
      </trkpt>
      <trkpt lat="45.730592" lon="6.709028">
        <ele>2453.990</ele>
        <time>2018-07-14T14:03:59Z</time>
      </trkpt>
      <trkpt lat="45.730546" lon="6.709054">
        <ele>2455.547</ele>
        <time>2018-07-14T14:04:12Z</time>
      </trkpt>
      <trkpt lat="45.730511" lon="6.709005">
        <ele>2456.430</ele>
        <time>2018-07-14T14:04:21Z</time>
      </trkpt>
      <trkpt lat="45.730461" lon="6.708999">
        <ele>2457.425</ele>
        <time>2018-07-14T14:04:30Z</time>
      </trkpt>
      <trkpt lat="45.730417" lon="6.709016">
        <ele>2457.671</ele>
        <time>2018-07-14T14:04:37Z</time>
      </trkpt>
      <trkpt lat="45.730385" lon="6.709062">
        <ele>2457.786</ele>
        <time>2018-07-14T14:04:43Z</time>
      </trkpt>
      <trkpt lat="45.730340" lon="6.709090">
        <ele>2457.855</ele>
        <time>2018-07-14T14:04:52Z</time>
      </trkpt>
      <trkpt lat="45.730300" lon="6.709130">
        <ele>2457.807</ele>
        <time>2018-07-14T14:05:02Z</time>
      </trkpt>
      <trkpt lat="45.730256" lon="6.709166">
        <ele>2457.417</ele>
        <time>2018-07-14T14:05:09Z</time>
      </trkpt>
      <trkpt lat="45.730208" lon="6.709178">
        <ele>2457.608</ele>
        <time>2018-07-14T14:05:14Z</time>
      </trkpt>
      <trkpt lat="45.730164" lon="6.709210">
        <ele>2457.737</ele>
        <time>2018-07-14T14:05:20Z</time>
      </trkpt>
      <trkpt lat="45.730147" lon="6.709272">
        <ele>2458.281</ele>
        <time>2018-07-14T14:05:31Z</time>
      </trkpt>
      <trkpt lat="45.730118" lon="6.709325">
        <ele>2458.561</ele>
        <time>2018-07-14T14:05:39Z</time>
      </trkpt>
      <trkpt lat="45.730076" lon="6.709356">
        <ele>2459.568</ele>
        <time>2018-07-14T14:05:47Z</time>
      </trkpt>
      <trkpt lat="45.730026" lon="6.709358">
        <ele>2460.571</ele>
        <time>2018-07-14T14:05:54Z</time>
      </trkpt>
      <trkpt lat="45.729984" lon="6.709385">
        <ele>2461.136</ele>
        <time>2018-07-14T14:06:01Z</time>
      </trkpt>
      <trkpt lat="45.729931" lon="6.709401">
        <ele>2461.582</ele>
        <time>2018-07-14T14:06:07Z</time>
      </trkpt>
      <trkpt lat="45.729889" lon="6.709437">
        <ele>2462.127</ele>
        <time>2018-07-14T14:06:12Z</time>
      </trkpt>
      <trkpt lat="45.729852" lon="6.709493">
        <ele>2462.995</ele>
        <time>2018-07-14T14:06:17Z</time>
      </trkpt>
      <trkpt lat="45.729834" lon="6.709552">
        <ele>2463.449</ele>
        <time>2018-07-14T14:06:22Z</time>
      </trkpt>
      <trkpt lat="45.729808" lon="6.709615">
        <ele>2464.123</ele>
        <time>2018-07-14T14:06:28Z</time>
      </trkpt>
      <trkpt lat="45.729781" lon="6.709667">
        <ele>2464.908</ele>
        <time>2018-07-14T14:06:33Z</time>
      </trkpt>
      <trkpt lat="45.729748" lon="6.709723">
        <ele>2465.441</ele>
        <time>2018-07-14T14:06:40Z</time>
      </trkpt>
      <trkpt lat="45.729711" lon="6.709772">
        <ele>2465.395</ele>
        <time>2018-07-14T14:06:47Z</time>
      </trkpt>
      <trkpt lat="45.729664" lon="6.709805">
        <ele>2465.675</ele>
        <time>2018-07-14T14:06:56Z</time>
      </trkpt>
      <trkpt lat="45.729623" lon="6.709833">
        <ele>2466.652</ele>
        <time>2018-07-14T14:07:10Z</time>
      </trkpt>
      <trkpt lat="45.729613" lon="6.709906">
        <ele>2466.475</ele>
        <time>2018-07-14T14:07:18Z</time>
      </trkpt>
      <trkpt lat="45.729607" lon="6.709977">
        <ele>2466.360</ele>
        <time>2018-07-14T14:07:25Z</time>
      </trkpt>
      <trkpt lat="45.729596" lon="6.710043">
        <ele>2466.636</ele>
        <time>2018-07-14T14:07:34Z</time>
      </trkpt>
      <trkpt lat="45.729557" lon="6.710089">
        <ele>2467.281</ele>
        <time>2018-07-14T14:07:40Z</time>
      </trkpt>
      <trkpt lat="45.729509" lon="6.710119">
        <ele>2466.814</ele>
        <time>2018-07-14T14:07:47Z</time>
      </trkpt>
      <trkpt lat="45.729465" lon="6.710147">
        <ele>2466.954</ele>
        <time>2018-07-14T14:07:54Z</time>
      </trkpt>
      <trkpt lat="45.729436" lon="6.710206">
        <ele>2466.609</ele>
        <time>2018-07-14T14:08:04Z</time>
      </trkpt>
      <trkpt lat="45.729396" lon="6.710249">
        <ele>2466.808</ele>
        <time>2018-07-14T14:08:14Z</time>
      </trkpt>
      <trkpt lat="45.729347" lon="6.710244">
        <ele>2467.773</ele>
        <time>2018-07-14T14:08:24Z</time>
      </trkpt>
      <trkpt lat="45.729298" lon="6.710234">
        <ele>2468.337</ele>
        <time>2018-07-14T14:08:32Z</time>
      </trkpt>
      <trkpt lat="45.729249" lon="6.710235">
        <ele>2468.677</ele>
        <time>2018-07-14T14:08:38Z</time>
      </trkpt>
      <trkpt lat="45.729204" lon="6.710223">
        <ele>2469.264</ele>
        <time>2018-07-14T14:08:43Z</time>
      </trkpt>
      <trkpt lat="45.729154" lon="6.710224">
        <ele>2469.237</ele>
        <time>2018-07-14T14:08:48Z</time>
      </trkpt>
      <trkpt lat="45.729103" lon="6.710232">
        <ele>2469.662</ele>
        <time>2018-07-14T14:08:53Z</time>
      </trkpt>
      <trkpt lat="45.729054" lon="6.710241">
        <ele>2470.278</ele>
        <time>2018-07-14T14:08:57Z</time>
      </trkpt>
      <trkpt lat="45.729009" lon="6.710264">
        <ele>2470.243</ele>
        <time>2018-07-14T14:09:02Z</time>
      </trkpt>
      <trkpt lat="45.728963" lon="6.710288">
        <ele>2471.029</ele>
        <time>2018-07-14T14:09:07Z</time>
      </trkpt>
      <trkpt lat="45.728913" lon="6.710307">
        <ele>2471.100</ele>
        <time>2018-07-14T14:09:13Z</time>
      </trkpt>
      <trkpt lat="45.728866" lon="6.710279">
        <ele>2471.120</ele>
        <time>2018-07-14T14:09:21Z</time>
      </trkpt>
      <trkpt lat="45.728818" lon="6.710260">
        <ele>2471.108</ele>
        <time>2018-07-14T14:09:28Z</time>
      </trkpt>
      <trkpt lat="45.728770" lon="6.710264">
        <ele>2471.174</ele>
        <time>2018-07-14T14:09:37Z</time>
      </trkpt>
      <trkpt lat="45.728723" lon="6.710280">
        <ele>2470.318</ele>
        <time>2018-07-14T14:09:46Z</time>
      </trkpt>
      <trkpt lat="45.728675" lon="6.710280">
        <ele>2469.848</ele>
        <time>2018-07-14T14:09:56Z</time>
      </trkpt>
      <trkpt lat="45.728630" lon="6.710302">
        <ele>2469.145</ele>
        <time>2018-07-14T14:10:03Z</time>
      </trkpt>
      <trkpt lat="45.728589" lon="6.710273">
        <ele>2469.578</ele>
        <time>2018-07-14T14:10:09Z</time>
      </trkpt>
      <trkpt lat="45.728538" lon="6.710261">
        <ele>2469.723</ele>
        <time>2018-07-14T14:10:14Z</time>
      </trkpt>
      <trkpt lat="45.728490" lon="6.710257">
        <ele>2469.469</ele>
        <time>2018-07-14T14:10:19Z</time>
      </trkpt>
      <trkpt lat="45.728440" lon="6.710265">
        <ele>2468.414</ele>
        <time>2018-07-14T14:10:25Z</time>
      </trkpt>
      <trkpt lat="45.728389" lon="6.710264">
        <ele>2467.857</ele>
        <time>2018-07-14T14:10:30Z</time>
      </trkpt>
      <trkpt lat="45.728343" lon="6.710277">
        <ele>2467.100</ele>
        <time>2018-07-14T14:10:35Z</time>
      </trkpt>
      <trkpt lat="45.728296" lon="6.710307">
        <ele>2466.320</ele>
        <time>2018-07-14T14:10:40Z</time>
      </trkpt>
      <trkpt lat="45.728255" lon="6.710335">
        <ele>2465.408</ele>
        <time>2018-07-14T14:10:44Z</time>
      </trkpt>
      <trkpt lat="45.728210" lon="6.710351">
        <ele>2464.557</ele>
        <time>2018-07-14T14:10:48Z</time>
      </trkpt>
      <trkpt lat="45.728160" lon="6.710367">
        <ele>2464.331</ele>
        <time>2018-07-14T14:10:53Z</time>
      </trkpt>
      <trkpt lat="45.728111" lon="6.710379">
        <ele>2464.231</ele>
        <time>2018-07-14T14:10:59Z</time>
      </trkpt>
      <trkpt lat="45.728070" lon="6.710406">
        <ele>2464.578</ele>
        <time>2018-07-14T14:11:12Z</time>
      </trkpt>
      <trkpt lat="45.728050" lon="6.710465">
        <ele>2465.191</ele>
        <time>2018-07-14T14:11:22Z</time>
      </trkpt>
      <trkpt lat="45.728043" lon="6.710537">
        <ele>2465.586</ele>
        <time>2018-07-14T14:11:30Z</time>
      </trkpt>
      <trkpt lat="45.728029" lon="6.710599">
        <ele>2466.112</ele>
        <time>2018-07-14T14:11:38Z</time>
      </trkpt>
      <trkpt lat="45.728032" lon="6.710664">
        <ele>2467.377</ele>
        <time>2018-07-14T14:11:47Z</time>
      </trkpt>
      <trkpt lat="45.728023" lon="6.710728">
        <ele>2467.646</ele>
        <time>2018-07-14T14:12:03Z</time>
      </trkpt>
      <trkpt lat="45.728004" lon="6.710789">
        <ele>2467.888</ele>
        <time>2018-07-14T14:12:12Z</time>
      </trkpt>
      <trkpt lat="45.727956" lon="6.710805">
        <ele>2468.316</ele>
        <time>2018-07-14T14:12:18Z</time>
      </trkpt>
      <trkpt lat="45.727923" lon="6.710853">
        <ele>2468.608</ele>
        <time>2018-07-14T14:12:24Z</time>
      </trkpt>
      <trkpt lat="45.727887" lon="6.710897">
        <ele>2468.486</ele>
        <time>2018-07-14T14:12:30Z</time>
      </trkpt>
      <trkpt lat="45.727846" lon="6.710934">
        <ele>2468.780</ele>
        <time>2018-07-14T14:12:37Z</time>
      </trkpt>
      <trkpt lat="45.727805" lon="6.710961">
        <ele>2469.320</ele>
        <time>2018-07-14T14:12:43Z</time>
      </trkpt>
      <trkpt lat="45.727756" lon="6.710968">
        <ele>2469.617</ele>
        <time>2018-07-14T14:12:49Z</time>
      </trkpt>
      <trkpt lat="45.727708" lon="6.710982">
        <ele>2470.230</ele>
        <time>2018-07-14T14:12:54Z</time>
      </trkpt>
      <trkpt lat="45.727659" lon="6.711001">
        <ele>2471.095</ele>
        <time>2018-07-14T14:13:00Z</time>
      </trkpt>
      <trkpt lat="45.727613" lon="6.711025">
        <ele>2471.521</ele>
        <time>2018-07-14T14:13:06Z</time>
      </trkpt>
      <trkpt lat="45.727570" lon="6.711059">
        <ele>2471.866</ele>
        <time>2018-07-14T14:13:14Z</time>
      </trkpt>
      <trkpt lat="45.727567" lon="6.711128">
        <ele>2471.613</ele>
        <time>2018-07-14T14:13:23Z</time>
      </trkpt>
      <trkpt lat="45.727528" lon="6.711163">
        <ele>2471.543</ele>
        <time>2018-07-14T14:13:32Z</time>
      </trkpt>
      <trkpt lat="45.727478" lon="6.711182">
        <ele>2471.807</ele>
        <time>2018-07-14T14:13:40Z</time>
      </trkpt>
      <trkpt lat="45.727428" lon="6.711194">
        <ele>2471.608</ele>
        <time>2018-07-14T14:13:46Z</time>
      </trkpt>
      <trkpt lat="45.727380" lon="6.711187">
        <ele>2471.553</ele>
        <time>2018-07-14T14:13:51Z</time>
      </trkpt>
      <trkpt lat="45.727330" lon="6.711193">
        <ele>2471.847</ele>
        <time>2018-07-14T14:13:56Z</time>
      </trkpt>
      <trkpt lat="45.727283" lon="6.711211">
        <ele>2471.657</ele>
        <time>2018-07-14T14:14:01Z</time>
      </trkpt>
      <trkpt lat="45.727241" lon="6.711240">
        <ele>2471.124</ele>
        <time>2018-07-14T14:14:08Z</time>
      </trkpt>
      <trkpt lat="45.727188" lon="6.711249">
        <ele>2470.847</ele>
        <time>2018-07-14T14:14:14Z</time>
      </trkpt>
      <trkpt lat="45.727136" lon="6.711262">
        <ele>2470.212</ele>
        <time>2018-07-14T14:14:20Z</time>
      </trkpt>
      <trkpt lat="45.727091" lon="6.711271">
        <ele>2469.858</ele>
        <time>2018-07-14T14:14:25Z</time>
      </trkpt>
      <trkpt lat="45.727055" lon="6.711310">
        <ele>2469.613</ele>
        <time>2018-07-14T14:14:34Z</time>
      </trkpt>
      <trkpt lat="45.727025" lon="6.711358">
        <ele>2470.362</ele>
        <time>2018-07-14T14:14:48Z</time>
      </trkpt>
      <trkpt lat="45.726983" lon="6.711395">
        <ele>2470.783</ele>
        <time>2018-07-14T14:14:57Z</time>
      </trkpt>
      <trkpt lat="45.726969" lon="6.711458">
        <ele>2472.111</ele>
        <time>2018-07-14T14:15:09Z</time>
      </trkpt>
      <trkpt lat="45.726964" lon="6.711524">
        <ele>2473.808</ele>
        <time>2018-07-14T14:15:26Z</time>
      </trkpt>
      <trkpt lat="45.726940" lon="6.711586">
        <ele>2474.898</ele>
        <time>2018-07-14T14:15:34Z</time>
      </trkpt>
      <trkpt lat="45.726920" lon="6.711652">
        <ele>2475.472</ele>
        <time>2018-07-14T14:15:40Z</time>
      </trkpt>
      <trkpt lat="45.726893" lon="6.711708">
        <ele>2476.282</ele>
        <time>2018-07-14T14:15:45Z</time>
      </trkpt>
      <trkpt lat="45.726860" lon="6.711770">
        <ele>2476.339</ele>
        <time>2018-07-14T14:15:51Z</time>
      </trkpt>
      <trkpt lat="45.726821" lon="6.711821">
        <ele>2476.322</ele>
        <time>2018-07-14T14:15:56Z</time>
      </trkpt>
      <trkpt lat="45.726785" lon="6.711876">
        <ele>2476.717</ele>
        <time>2018-07-14T14:16:01Z</time>
      </trkpt>
      <trkpt lat="45.726745" lon="6.711920">
        <ele>2476.633</ele>
        <time>2018-07-14T14:16:06Z</time>
      </trkpt>
      <trkpt lat="45.726719" lon="6.711975">
        <ele>2476.958</ele>
        <time>2018-07-14T14:16:11Z</time>
      </trkpt>
      <trkpt lat="45.726692" lon="6.712030">
        <ele>2477.155</ele>
        <time>2018-07-14T14:16:16Z</time>
      </trkpt>
      <trkpt lat="45.726667" lon="6.712090">
        <ele>2477.607</ele>
        <time>2018-07-14T14:16:21Z</time>
      </trkpt>
      <trkpt lat="45.726635" lon="6.712145">
        <ele>2477.917</ele>
        <time>2018-07-14T14:16:27Z</time>
      </trkpt>
      <trkpt lat="45.726607" lon="6.712196">
        <ele>2478.108</ele>
        <time>2018-07-14T14:16:38Z</time>
      </trkpt>
      <trkpt lat="45.726560" lon="6.712190">
        <ele>2478.217</ele>
        <time>2018-07-14T14:16:47Z</time>
      </trkpt>
      <trkpt lat="45.726513" lon="6.712227">
        <ele>2476.771</ele>
        <time>2018-07-14T14:16:58Z</time>
      </trkpt>
      <trkpt lat="45.726468" lon="6.712265">
        <ele>2475.471</ele>
        <time>2018-07-14T14:17:04Z</time>
      </trkpt>
      <trkpt lat="45.726421" lon="6.712274">
        <ele>2474.688</ele>
        <time>2018-07-14T14:17:09Z</time>
      </trkpt>
      <trkpt lat="45.726372" lon="6.712275">
        <ele>2473.791</ele>
        <time>2018-07-14T14:17:15Z</time>
      </trkpt>
      <trkpt lat="45.726322" lon="6.712261">
        <ele>2472.836</ele>
        <time>2018-07-14T14:17:22Z</time>
      </trkpt>
      <trkpt lat="45.726271" lon="6.712247">
        <ele>2471.832</ele>
        <time>2018-07-14T14:17:28Z</time>
      </trkpt>
      <trkpt lat="45.726232" lon="6.712295">
        <ele>2471.627</ele>
        <time>2018-07-14T14:17:36Z</time>
      </trkpt>
      <trkpt lat="45.726214" lon="6.712365">
        <ele>2471.112</ele>
        <time>2018-07-14T14:17:42Z</time>
      </trkpt>
      <trkpt lat="45.726202" lon="6.712431">
        <ele>2471.632</ele>
        <time>2018-07-14T14:17:47Z</time>
      </trkpt>
      <trkpt lat="45.726195" lon="6.712509">
        <ele>2471.905</ele>
        <time>2018-07-14T14:17:52Z</time>
      </trkpt>
      <trkpt lat="45.726167" lon="6.712559">
        <ele>2471.708</ele>
        <time>2018-07-14T14:17:57Z</time>
      </trkpt>
      <trkpt lat="45.726126" lon="6.712595">
        <ele>2471.693</ele>
        <time>2018-07-14T14:18:02Z</time>
      </trkpt>
      <trkpt lat="45.726075" lon="6.712612">
        <ele>2470.717</ele>
        <time>2018-07-14T14:18:08Z</time>
      </trkpt>
      <trkpt lat="45.726044" lon="6.712663">
        <ele>2471.097</ele>
        <time>2018-07-14T14:18:16Z</time>
      </trkpt>
      <trkpt lat="45.725996" lon="6.712680">
        <ele>2470.424</ele>
        <time>2018-07-14T14:18:27Z</time>
      </trkpt>
      <trkpt lat="45.725951" lon="6.712661">
        <ele>2469.247</ele>
        <time>2018-07-14T14:18:33Z</time>
      </trkpt>
      <trkpt lat="45.725897" lon="6.712658">
        <ele>2468.582</ele>
        <time>2018-07-14T14:18:39Z</time>
      </trkpt>
      <trkpt lat="45.725851" lon="6.712687">
        <ele>2468.948</ele>
        <time>2018-07-14T14:18:45Z</time>
      </trkpt>
      <trkpt lat="45.725820" lon="6.712738">
        <ele>2469.933</ele>
        <time>2018-07-14T14:18:53Z</time>
      </trkpt>
      <trkpt lat="45.725791" lon="6.712791">
        <ele>2471.791</ele>
        <time>2018-07-14T14:19:00Z</time>
      </trkpt>
      <trkpt lat="45.725773" lon="6.712860">
        <ele>2472.881</ele>
        <time>2018-07-14T14:19:07Z</time>
      </trkpt>
      <trkpt lat="45.725763" lon="6.712927">
        <ele>2473.919</ele>
        <time>2018-07-14T14:19:17Z</time>
      </trkpt>
      <trkpt lat="45.725791" lon="6.712978">
        <ele>2474.508</ele>
        <time>2018-07-14T14:19:25Z</time>
      </trkpt>
      <trkpt lat="45.725767" lon="6.713037">
        <ele>2474.931</ele>
        <time>2018-07-14T14:19:36Z</time>
      </trkpt>
      <trkpt lat="45.725758" lon="6.713100">
        <ele>2475.995</ele>
        <time>2018-07-14T14:19:46Z</time>
      </trkpt>
      <trkpt lat="45.725740" lon="6.713162">
        <ele>2476.975</ele>
        <time>2018-07-14T14:19:58Z</time>
      </trkpt>
      <trkpt lat="45.725699" lon="6.713190">
        <ele>2477.522</ele>
        <time>2018-07-14T14:20:12Z</time>
      </trkpt>
      <trkpt lat="45.725674" lon="6.713244">
        <ele>2479.135</ele>
        <time>2018-07-14T14:20:27Z</time>
      </trkpt>
      <trkpt lat="45.725630" lon="6.713272">
        <ele>2480.050</ele>
        <time>2018-07-14T14:20:36Z</time>
      </trkpt>
      <trkpt lat="45.725596" lon="6.713329">
        <ele>2480.686</ele>
        <time>2018-07-14T14:20:42Z</time>
      </trkpt>
      <trkpt lat="45.725562" lon="6.713381">
        <ele>2481.381</ele>
        <time>2018-07-14T14:20:48Z</time>
      </trkpt>
      <trkpt lat="45.725526" lon="6.713427">
        <ele>2481.745</ele>
        <time>2018-07-14T14:20:55Z</time>
      </trkpt>
      <trkpt lat="45.725494" lon="6.713478">
        <ele>2482.047</ele>
        <time>2018-07-14T14:21:03Z</time>
      </trkpt>
      <trkpt lat="45.725451" lon="6.713502">
        <ele>2482.211</ele>
        <time>2018-07-14T14:21:15Z</time>
      </trkpt>
      <trkpt lat="45.725404" lon="6.713522">
        <ele>2483.508</ele>
        <time>2018-07-14T14:21:23Z</time>
      </trkpt>
      <trkpt lat="45.725364" lon="6.713557">
        <ele>2484.796</ele>
        <time>2018-07-14T14:21:29Z</time>
      </trkpt>
      <trkpt lat="45.725338" lon="6.713615">
        <ele>2485.890</ele>
        <time>2018-07-14T14:21:37Z</time>
      </trkpt>
      <trkpt lat="45.725347" lon="6.713679">
        <ele>2486.950</ele>
        <time>2018-07-14T14:22:12Z</time>
      </trkpt>
      <trkpt lat="45.725362" lon="6.713746">
        <ele>2488.327</ele>
        <time>2018-07-14T14:24:24Z</time>
      </trkpt>
      <trkpt lat="45.725374" lon="6.713809">
        <ele>2489.270</ele>
        <time>2018-07-14T14:24:31Z</time>
      </trkpt>
      <trkpt lat="45.725364" lon="6.713876">
        <ele>2490.185</ele>
        <time>2018-07-14T14:24:39Z</time>
      </trkpt>
      <trkpt lat="45.725358" lon="6.713940">
        <ele>2490.721</ele>
        <time>2018-07-14T14:24:46Z</time>
      </trkpt>
      <trkpt lat="45.725363" lon="6.714010">
        <ele>2491.446</ele>
        <time>2018-07-14T14:24:54Z</time>
      </trkpt>
      <trkpt lat="45.725344" lon="6.714069">
        <ele>2491.861</ele>
        <time>2018-07-14T14:25:02Z</time>
      </trkpt>
      <trkpt lat="45.725329" lon="6.714133">
        <ele>2492.521</ele>
        <time>2018-07-14T14:25:14Z</time>
      </trkpt>
      <trkpt lat="45.725307" lon="6.714192">
        <ele>2492.913</ele>
        <time>2018-07-14T14:25:24Z</time>
      </trkpt>
      <trkpt lat="45.725268" lon="6.714232">
        <ele>2493.108</ele>
        <time>2018-07-14T14:25:31Z</time>
      </trkpt>
      <trkpt lat="45.725240" lon="6.714283">
        <ele>2493.228</ele>
        <time>2018-07-14T14:25:37Z</time>
      </trkpt>
      <trkpt lat="45.725210" lon="6.714341">
        <ele>2492.952</ele>
        <time>2018-07-14T14:25:42Z</time>
      </trkpt>
      <trkpt lat="45.725176" lon="6.714396">
        <ele>2492.382</ele>
        <time>2018-07-14T14:25:48Z</time>
      </trkpt>
      <trkpt lat="45.725136" lon="6.714453">
        <ele>2491.599</ele>
        <time>2018-07-14T14:25:53Z</time>
      </trkpt>
      <trkpt lat="45.725119" lon="6.714517">
        <ele>2491.492</ele>
        <time>2018-07-14T14:25:59Z</time>
      </trkpt>
      <trkpt lat="45.725114" lon="6.714589">
        <ele>2491.857</ele>
        <time>2018-07-14T14:26:06Z</time>
      </trkpt>
      <trkpt lat="45.725117" lon="6.714659">
        <ele>2492.013</ele>
        <time>2018-07-14T14:26:11Z</time>
      </trkpt>
      <trkpt lat="45.725145" lon="6.714718">
        <ele>2492.558</ele>
        <time>2018-07-14T14:26:20Z</time>
      </trkpt>
      <trkpt lat="45.725157" lon="6.714792">
        <ele>2493.655</ele>
        <time>2018-07-14T14:26:27Z</time>
      </trkpt>
      <trkpt lat="45.725170" lon="6.714859">
        <ele>2495.507</ele>
        <time>2018-07-14T14:26:34Z</time>
      </trkpt>
      <trkpt lat="45.725197" lon="6.714912">
        <ele>2497.417</ele>
        <time>2018-07-14T14:26:41Z</time>
      </trkpt>
      <trkpt lat="45.725223" lon="6.714972">
        <ele>2498.208</ele>
        <time>2018-07-14T14:26:49Z</time>
      </trkpt>
      <trkpt lat="45.725254" lon="6.715024">
        <ele>2498.737</ele>
        <time>2018-07-14T14:27:00Z</time>
      </trkpt>
      <trkpt lat="45.725268" lon="6.715087">
        <ele>2499.411</ele>
        <time>2018-07-14T14:27:11Z</time>
      </trkpt>
      <trkpt lat="45.725288" lon="6.715147">
        <ele>2501.061</ele>
        <time>2018-07-14T14:27:30Z</time>
      </trkpt>
      <trkpt lat="45.725319" lon="6.715199">
        <ele>2503.258</ele>
        <time>2018-07-14T14:27:51Z</time>
      </trkpt>
      <trkpt lat="45.725333" lon="6.715263">
        <ele>2504.991</ele>
        <time>2018-07-14T14:28:05Z</time>
      </trkpt>
      <trkpt lat="45.725351" lon="6.715331">
        <ele>2505.916</ele>
        <time>2018-07-14T14:28:17Z</time>
      </trkpt>
      <trkpt lat="45.725365" lon="6.715394">
        <ele>2507.332</ele>
        <time>2018-07-14T14:28:32Z</time>
      </trkpt>
      <trkpt lat="45.725377" lon="6.715462">
        <ele>2508.587</ele>
        <time>2018-07-14T14:28:42Z</time>
      </trkpt>
      <trkpt lat="45.725399" lon="6.715522">
        <ele>2510.014</ele>
        <time>2018-07-14T14:29:00Z</time>
      </trkpt>
      <trkpt lat="45.725409" lon="6.715585">
        <ele>2511.354</ele>
        <time>2018-07-14T14:29:19Z</time>
      </trkpt>
      <trkpt lat="45.725416" lon="6.715653">
        <ele>2512.109</ele>
        <time>2018-07-14T14:29:33Z</time>
      </trkpt>
      <trkpt lat="45.725442" lon="6.715709">
        <ele>2513.408</ele>
        <time>2018-07-14T14:31:07Z</time>
      </trkpt>
      <trkpt lat="45.725462" lon="6.715780">
        <ele>2514.243</ele>
        <time>2018-07-14T14:31:44Z</time>
      </trkpt>
      <trkpt lat="45.725486" lon="6.715843">
        <ele>2515.987</ele>
        <time>2018-07-14T14:32:15Z</time>
      </trkpt>
      <trkpt lat="45.725486" lon="6.715910">
        <ele>2518.197</ele>
        <time>2018-07-14T14:32:48Z</time>
      </trkpt>
      <trkpt lat="45.725483" lon="6.715975">
        <ele>2520.244</ele>
        <time>2018-07-14T14:33:05Z</time>
      </trkpt>
      <trkpt lat="45.725472" lon="6.716042">
        <ele>2521.997</ele>
        <time>2018-07-14T14:33:39Z</time>
      </trkpt>
      <trkpt lat="45.725481" lon="6.716116">
        <ele>2523.362</ele>
        <time>2018-07-14T14:33:59Z</time>
      </trkpt>
      <trkpt lat="45.725435" lon="6.716153">
        <ele>2524.568</ele>
        <time>2018-07-14T14:34:25Z</time>
      </trkpt>
      <trkpt lat="45.725394" lon="6.716127">
        <ele>2525.253</ele>
        <time>2018-07-14T14:34:43Z</time>
      </trkpt>
      <trkpt lat="45.725346" lon="6.716101">
        <ele>2525.636</ele>
        <time>2018-07-14T14:34:51Z</time>
      </trkpt>
      <trkpt lat="45.725299" lon="6.716092">
        <ele>2525.917</ele>
        <time>2018-07-14T14:34:58Z</time>
      </trkpt>
      <trkpt lat="45.725260" lon="6.716130">
        <ele>2526.118</ele>
        <time>2018-07-14T14:35:08Z</time>
      </trkpt>
      <trkpt lat="45.725221" lon="6.716172">
        <ele>2527.008</ele>
        <time>2018-07-14T14:35:17Z</time>
      </trkpt>
      <trkpt lat="45.725195" lon="6.716229">
        <ele>2528.385</ele>
        <time>2018-07-14T14:35:25Z</time>
      </trkpt>
      <trkpt lat="45.725177" lon="6.716290">
        <ele>2530.339</ele>
        <time>2018-07-14T14:35:32Z</time>
      </trkpt>
      <trkpt lat="45.725150" lon="6.716351">
        <ele>2531.999</ele>
        <time>2018-07-14T14:35:39Z</time>
      </trkpt>
      <trkpt lat="45.725123" lon="6.716406">
        <ele>2534.146</ele>
        <time>2018-07-14T14:35:46Z</time>
      </trkpt>
      <trkpt lat="45.725090" lon="6.716457">
        <ele>2535.899</ele>
        <time>2018-07-14T14:35:53Z</time>
      </trkpt>
      <trkpt lat="45.725059" lon="6.716508">
        <ele>2537.624</ele>
        <time>2018-07-14T14:36:01Z</time>
      </trkpt>
      <trkpt lat="45.725034" lon="6.716568">
        <ele>2538.730</ele>
        <time>2018-07-14T14:36:07Z</time>
      </trkpt>
      <trkpt lat="45.725006" lon="6.716624">
        <ele>2539.885</ele>
        <time>2018-07-14T14:36:14Z</time>
      </trkpt>
      <trkpt lat="45.724960" lon="6.716631">
        <ele>2540.874</ele>
        <time>2018-07-14T14:36:22Z</time>
      </trkpt>
      <trkpt lat="45.724915" lon="6.716648">
        <ele>2541.456</ele>
        <time>2018-07-14T14:36:31Z</time>
      </trkpt>
      <trkpt lat="45.724869" lon="6.716660">
        <ele>2542.221</ele>
        <time>2018-07-14T14:36:39Z</time>
      </trkpt>
      <trkpt lat="45.724825" lon="6.716685">
        <ele>2543.108</ele>
        <time>2018-07-14T14:36:47Z</time>
      </trkpt>
      <trkpt lat="45.724778" lon="6.716690">
        <ele>2544.089</ele>
        <time>2018-07-14T14:36:55Z</time>
      </trkpt>
      <trkpt lat="45.724731" lon="6.716691">
        <ele>2545.073</ele>
        <time>2018-07-14T14:37:03Z</time>
      </trkpt>
      <trkpt lat="45.724686" lon="6.716701">
        <ele>2545.643</ele>
        <time>2018-07-14T14:37:10Z</time>
      </trkpt>
      <trkpt lat="45.724639" lon="6.716729">
        <ele>2546.760</ele>
        <time>2018-07-14T14:37:18Z</time>
      </trkpt>
      <trkpt lat="45.724595" lon="6.716755">
        <ele>2547.463</ele>
        <time>2018-07-14T14:37:26Z</time>
      </trkpt>
      <trkpt lat="45.724557" lon="6.716801">
        <ele>2547.828</ele>
        <time>2018-07-14T14:37:34Z</time>
      </trkpt>
      <trkpt lat="45.724514" lon="6.716833">
        <ele>2548.034</ele>
        <time>2018-07-14T14:37:47Z</time>
      </trkpt>
      <trkpt lat="45.724469" lon="6.716827">
        <ele>2548.119</ele>
        <time>2018-07-14T14:38:51Z</time>
      </trkpt>
      <trkpt lat="45.724425" lon="6.716860">
        <ele>2547.871</ele>
        <time>2018-07-14T14:39:00Z</time>
      </trkpt>
      <trkpt lat="45.724384" lon="6.716890">
        <ele>2547.241</ele>
        <time>2018-07-14T14:39:05Z</time>
      </trkpt>
      <trkpt lat="45.724348" lon="6.716932">
        <ele>2546.415</ele>
        <time>2018-07-14T14:39:10Z</time>
      </trkpt>
      <trkpt lat="45.724299" lon="6.716960">
        <ele>2544.708</ele>
        <time>2018-07-14T14:39:16Z</time>
      </trkpt>
      <trkpt lat="45.724250" lon="6.716971">
        <ele>2542.919</ele>
        <time>2018-07-14T14:39:21Z</time>
      </trkpt>
      <trkpt lat="45.724207" lon="6.716995">
        <ele>2541.493</ele>
        <time>2018-07-14T14:39:26Z</time>
      </trkpt>
      <trkpt lat="45.724164" lon="6.717039">
        <ele>2540.123</ele>
        <time>2018-07-14T14:39:31Z</time>
      </trkpt>
      <trkpt lat="45.724124" lon="6.717074">
        <ele>2538.970</ele>
        <time>2018-07-14T14:39:35Z</time>
      </trkpt>
      <trkpt lat="45.724078" lon="6.717114">
        <ele>2537.043</ele>
        <time>2018-07-14T14:39:40Z</time>
      </trkpt>
      <trkpt lat="45.724028" lon="6.717127">
        <ele>2535.198</ele>
        <time>2018-07-14T14:39:45Z</time>
      </trkpt>
      <trkpt lat="45.723974" lon="6.717123">
        <ele>2533.524</ele>
        <time>2018-07-14T14:39:50Z</time>
      </trkpt>
      <trkpt lat="45.723919" lon="6.717131">
        <ele>2532.629</ele>
        <time>2018-07-14T14:39:55Z</time>
      </trkpt>
      <trkpt lat="45.723873" lon="6.717134">
        <ele>2531.672</ele>
        <time>2018-07-14T14:39:59Z</time>
      </trkpt>
      <trkpt lat="45.723827" lon="6.717122">
        <ele>2530.613</ele>
        <time>2018-07-14T14:40:03Z</time>
      </trkpt>
      <trkpt lat="45.723782" lon="6.717108">
        <ele>2529.614</ele>
        <time>2018-07-14T14:40:07Z</time>
      </trkpt>
      <trkpt lat="45.723731" lon="6.717093">
        <ele>2529.008</ele>
        <time>2018-07-14T14:40:12Z</time>
      </trkpt>
      <trkpt lat="45.723681" lon="6.717085">
        <ele>2528.679</ele>
        <time>2018-07-14T14:40:16Z</time>
      </trkpt>
      <trkpt lat="45.723630" lon="6.717072">
        <ele>2528.013</ele>
        <time>2018-07-14T14:40:20Z</time>
      </trkpt>
      <trkpt lat="45.723582" lon="6.717055">
        <ele>2527.683</ele>
        <time>2018-07-14T14:40:24Z</time>
      </trkpt>
      <trkpt lat="45.723532" lon="6.717062">
        <ele>2527.450</ele>
        <time>2018-07-14T14:40:28Z</time>
      </trkpt>
      <trkpt lat="45.723484" lon="6.717065">
        <ele>2526.993</ele>
        <time>2018-07-14T14:40:32Z</time>
      </trkpt>
      <trkpt lat="45.723435" lon="6.717072">
        <ele>2526.688</ele>
        <time>2018-07-14T14:40:36Z</time>
      </trkpt>
      <trkpt lat="45.723389" lon="6.717084">
        <ele>2526.054</ele>
        <time>2018-07-14T14:40:40Z</time>
      </trkpt>
      <trkpt lat="45.723342" lon="6.717098">
        <ele>2525.239</ele>
        <time>2018-07-14T14:40:44Z</time>
      </trkpt>
      <trkpt lat="45.723292" lon="6.717108">
        <ele>2524.395</ele>
        <time>2018-07-14T14:40:48Z</time>
      </trkpt>
      <trkpt lat="45.723246" lon="6.717110">
        <ele>2523.849</ele>
        <time>2018-07-14T14:40:52Z</time>
      </trkpt>
      <trkpt lat="45.723195" lon="6.717109">
        <ele>2522.323</ele>
        <time>2018-07-14T14:40:57Z</time>
      </trkpt>
      <trkpt lat="45.723140" lon="6.717108">
        <ele>2520.608</ele>
        <time>2018-07-14T14:41:02Z</time>
      </trkpt>
      <trkpt lat="45.723089" lon="6.717103">
        <ele>2519.211</ele>
        <time>2018-07-14T14:41:07Z</time>
      </trkpt>
      <trkpt lat="45.723035" lon="6.717108">
        <ele>2518.315</ele>
        <time>2018-07-14T14:41:12Z</time>
      </trkpt>
      <trkpt lat="45.722985" lon="6.717117">
        <ele>2518.215</ele>
        <time>2018-07-14T14:41:17Z</time>
      </trkpt>
      <trkpt lat="45.722930" lon="6.717117">
        <ele>2517.772</ele>
        <time>2018-07-14T14:41:22Z</time>
      </trkpt>
      <trkpt lat="45.722885" lon="6.717143">
        <ele>2517.815</ele>
        <time>2018-07-14T14:41:26Z</time>
      </trkpt>
      <trkpt lat="45.722838" lon="6.717165">
        <ele>2517.950</ele>
        <time>2018-07-14T14:41:33Z</time>
      </trkpt>
      <trkpt lat="45.722792" lon="6.717185">
        <ele>2516.776</ele>
        <time>2018-07-14T14:41:41Z</time>
      </trkpt>
      <trkpt lat="45.722746" lon="6.717195">
        <ele>2516.091</ele>
        <time>2018-07-14T14:41:47Z</time>
      </trkpt>
      <trkpt lat="45.722698" lon="6.717202">
        <ele>2515.613</ele>
        <time>2018-07-14T14:41:52Z</time>
      </trkpt>
      <trkpt lat="45.722645" lon="6.717212">
        <ele>2515.043</ele>
        <time>2018-07-14T14:41:57Z</time>
      </trkpt>
      <trkpt lat="45.722595" lon="6.717245">
        <ele>2514.607</ele>
        <time>2018-07-14T14:42:02Z</time>
      </trkpt>
      <trkpt lat="45.722550" lon="6.717274">
        <ele>2514.408</ele>
        <time>2018-07-14T14:42:06Z</time>
      </trkpt>
      <trkpt lat="45.722505" lon="6.717300">
        <ele>2513.953</ele>
        <time>2018-07-14T14:42:10Z</time>
      </trkpt>
      <trkpt lat="45.722467" lon="6.717336">
        <ele>2514.027</ele>
        <time>2018-07-14T14:42:14Z</time>
      </trkpt>
      <trkpt lat="45.722418" lon="6.717354">
        <ele>2512.477</ele>
        <time>2018-07-14T14:42:21Z</time>
      </trkpt>
      <trkpt lat="45.722376" lon="6.717390">
        <ele>2511.194</ele>
        <time>2018-07-14T14:42:29Z</time>
      </trkpt>
      <trkpt lat="45.722345" lon="6.717443">
        <ele>2509.557</ele>
        <time>2018-07-14T14:42:45Z</time>
      </trkpt>
      <trkpt lat="45.722300" lon="6.717468">
        <ele>2508.112</ele>
        <time>2018-07-14T14:42:51Z</time>
      </trkpt>
      <trkpt lat="45.722252" lon="6.717482">
        <ele>2506.978</ele>
        <time>2018-07-14T14:42:56Z</time>
      </trkpt>
      <trkpt lat="45.722202" lon="6.717493">
        <ele>2505.423</ele>
        <time>2018-07-14T14:43:01Z</time>
      </trkpt>
      <trkpt lat="45.722154" lon="6.717495">
        <ele>2504.524</ele>
        <time>2018-07-14T14:43:06Z</time>
      </trkpt>
      <trkpt lat="45.722109" lon="6.717466">
        <ele>2503.504</ele>
        <time>2018-07-14T14:43:12Z</time>
      </trkpt>
      <trkpt lat="45.722069" lon="6.717436">
        <ele>2502.514</ele>
        <time>2018-07-14T14:43:17Z</time>
      </trkpt>
      <trkpt lat="45.722039" lon="6.717385">
        <ele>2501.508</ele>
        <time>2018-07-14T14:44:08Z</time>
      </trkpt>
      <trkpt lat="45.722015" lon="6.717326">
        <ele>2499.384</ele>
        <time>2018-07-14T14:44:18Z</time>
      </trkpt>
      <trkpt lat="45.722010" lon="6.717258">
        <ele>2499.698</ele>
        <time>2018-07-14T14:44:31Z</time>
      </trkpt>
      <trkpt lat="45.721994" lon="6.717219">
        <ele>2489.118</ele>
        <time>2018-07-14T15:09:02Z</time>
      </trkpt>
      <trkpt lat="45.722048" lon="6.717174">
        <ele>2483.495</ele>
        <time>2018-07-14T15:09:07Z</time>
      </trkpt>
      <trkpt lat="45.722083" lon="6.717232">
        <ele>2485.038</ele>
        <time>2018-07-14T15:09:12Z</time>
      </trkpt>
      <trkpt lat="45.722083" lon="6.717320">
        <ele>2487.193</ele>
        <time>2018-07-14T15:09:15Z</time>
      </trkpt>
      <trkpt lat="45.722074" lon="6.717394">
        <ele>2489.659</ele>
        <time>2018-07-14T15:09:18Z</time>
      </trkpt>
      <trkpt lat="45.722066" lon="6.717473">
        <ele>2491.924</ele>
        <time>2018-07-14T15:09:22Z</time>
      </trkpt>
      <trkpt lat="45.722058" lon="6.717547">
        <ele>2486.484</ele>
        <time>2018-07-14T15:09:26Z</time>
      </trkpt>
      <trkpt lat="45.722055" lon="6.717613">
        <ele>2488.607</ele>
        <time>2018-07-14T15:09:31Z</time>
      </trkpt>
      <trkpt lat="45.722038" lon="6.717680">
        <ele>2489.917</ele>
        <time>2018-07-14T15:09:38Z</time>
      </trkpt>
      <trkpt lat="45.722017" lon="6.717738">
        <ele>2490.708</ele>
        <time>2018-07-14T15:09:43Z</time>
      </trkpt>
      <trkpt lat="45.722010" lon="6.717814">
        <ele>2491.270</ele>
        <time>2018-07-14T15:09:47Z</time>
      </trkpt>
      <trkpt lat="45.722005" lon="6.717879">
        <ele>2491.574</ele>
        <time>2018-07-14T15:10:03Z</time>
      </trkpt>
      <trkpt lat="45.722017" lon="6.717815">
        <ele>2491.394</ele>
        <time>2018-07-14T15:10:30Z</time>
      </trkpt>
      <trkpt lat="45.722037" lon="6.717756">
        <ele>2491.251</ele>
        <time>2018-07-14T15:10:36Z</time>
      </trkpt>
      <trkpt lat="45.722051" lon="6.717679">
        <ele>2491.144</ele>
        <time>2018-07-14T15:10:51Z</time>
      </trkpt>
      <trkpt lat="45.722082" lon="6.717622">
        <ele>2491.939</ele>
        <time>2018-07-14T15:10:57Z</time>
      </trkpt>
      <trkpt lat="45.722121" lon="6.717589">
        <ele>2492.475</ele>
        <time>2018-07-14T15:11:03Z</time>
      </trkpt>
      <trkpt lat="45.722067" lon="6.717605">
        <ele>2491.930</ele>
        <time>2018-07-14T15:11:18Z</time>
      </trkpt>
      <trkpt lat="45.722041" lon="6.717679">
        <ele>2491.236</ele>
        <time>2018-07-14T15:11:23Z</time>
      </trkpt>
      <trkpt lat="45.722021" lon="6.717737">
        <ele>2490.817</ele>
        <time>2018-07-14T15:11:27Z</time>
      </trkpt>
      <trkpt lat="45.721997" lon="6.717812">
        <ele>2490.118</ele>
        <time>2018-07-14T15:11:33Z</time>
      </trkpt>
      <trkpt lat="45.721980" lon="6.717875">
        <ele>2489.308</ele>
        <time>2018-07-14T15:11:38Z</time>
      </trkpt>
      <trkpt lat="45.721978" lon="6.717950">
        <ele>2488.435</ele>
        <time>2018-07-14T15:11:43Z</time>
      </trkpt>
      <trkpt lat="45.721969" lon="6.718019">
        <ele>2487.949</ele>
        <time>2018-07-14T15:11:48Z</time>
      </trkpt>
      <trkpt lat="45.721966" lon="6.718094">
        <ele>2486.879</ele>
        <time>2018-07-14T15:11:53Z</time>
      </trkpt>
      <trkpt lat="45.722008" lon="6.718057">
        <ele>2486.146</ele>
        <time>2018-07-14T15:12:13Z</time>
      </trkpt>
      <trkpt lat="45.721995" lon="6.717985">
        <ele>2485.729</ele>
        <time>2018-07-14T15:12:18Z</time>
      </trkpt>
      <trkpt lat="45.722001" lon="6.717912">
        <ele>2485.544</ele>
        <time>2018-07-14T15:12:24Z</time>
      </trkpt>
      <trkpt lat="45.722013" lon="6.717849">
        <ele>2485.830</ele>
        <time>2018-07-14T15:12:31Z</time>
      </trkpt>
      <trkpt lat="45.722017" lon="6.717778">
        <ele>2486.485</ele>
        <time>2018-07-14T15:12:44Z</time>
      </trkpt>
      <trkpt lat="45.722020" lon="6.717705">
        <ele>2487.121</ele>
        <time>2018-07-14T15:12:52Z</time>
      </trkpt>
      <trkpt lat="45.722007" lon="6.717474">
        <ele>2491.841</ele>
        <time>2018-07-14T15:18:27Z</time>
      </trkpt>
      <trkpt lat="45.721969" lon="6.717436">
        <ele>2499.605</ele>
        <time>2018-07-14T15:18:32Z</time>
      </trkpt>
      <trkpt lat="45.721927" lon="6.717409">
        <ele>2498.408</ele>
        <time>2018-07-14T15:18:39Z</time>
      </trkpt>
      <trkpt lat="45.721895" lon="6.717348">
        <ele>2498.144</ele>
        <time>2018-07-14T15:18:47Z</time>
      </trkpt>
      <trkpt lat="45.721876" lon="6.717283">
        <ele>2499.058</ele>
        <time>2018-07-14T15:18:52Z</time>
      </trkpt>
      <trkpt lat="45.721873" lon="6.717212">
        <ele>2498.298</ele>
        <time>2018-07-14T15:18:57Z</time>
      </trkpt>
      <trkpt lat="45.721889" lon="6.717149">
        <ele>2498.125</ele>
        <time>2018-07-14T15:19:02Z</time>
      </trkpt>
      <trkpt lat="45.721924" lon="6.717095">
        <ele>2498.118</ele>
        <time>2018-07-14T15:19:07Z</time>
      </trkpt>
      <trkpt lat="45.721961" lon="6.717059">
        <ele>2497.383</ele>
        <time>2018-07-14T15:19:12Z</time>
      </trkpt>
      <trkpt lat="45.722005" lon="6.717026">
        <ele>2496.889</ele>
        <time>2018-07-14T15:19:22Z</time>
      </trkpt>
      <trkpt lat="45.722023" lon="6.716962">
        <ele>2496.554</ele>
        <time>2018-07-14T15:19:28Z</time>
      </trkpt>
      <trkpt lat="45.722054" lon="6.716910">
        <ele>2496.346</ele>
        <time>2018-07-14T15:19:33Z</time>
      </trkpt>
      <trkpt lat="45.722075" lon="6.716839">
        <ele>2496.288</ele>
        <time>2018-07-14T15:19:39Z</time>
      </trkpt>
      <trkpt lat="45.722086" lon="6.716763">
        <ele>2495.316</ele>
        <time>2018-07-14T15:19:45Z</time>
      </trkpt>
      <trkpt lat="45.722095" lon="6.716698">
        <ele>2494.408</ele>
        <time>2018-07-14T15:19:49Z</time>
      </trkpt>
      <trkpt lat="45.722105" lon="6.716635">
        <ele>2493.456</ele>
        <time>2018-07-14T15:19:53Z</time>
      </trkpt>
      <trkpt lat="45.722106" lon="6.716570">
        <ele>2493.270</ele>
        <time>2018-07-14T15:19:57Z</time>
      </trkpt>
      <trkpt lat="45.722101" lon="6.716501">
        <ele>2492.730</ele>
        <time>2018-07-14T15:20:01Z</time>
      </trkpt>
      <trkpt lat="45.722087" lon="6.716426">
        <ele>2491.697</ele>
        <time>2018-07-14T15:20:06Z</time>
      </trkpt>
      <trkpt lat="45.722073" lon="6.716352">
        <ele>2490.580</ele>
        <time>2018-07-14T15:20:11Z</time>
      </trkpt>
      <trkpt lat="45.722054" lon="6.716288">
        <ele>2489.575</ele>
        <time>2018-07-14T15:20:16Z</time>
      </trkpt>
      <trkpt lat="45.722016" lon="6.716232">
        <ele>2487.741</ele>
        <time>2018-07-14T15:20:22Z</time>
      </trkpt>
      <trkpt lat="45.722009" lon="6.716158">
        <ele>2486.236</ele>
        <time>2018-07-14T15:20:28Z</time>
      </trkpt>
      <trkpt lat="45.721998" lon="6.716095">
        <ele>2485.319</ele>
        <time>2018-07-14T15:20:33Z</time>
      </trkpt>
      <trkpt lat="45.721954" lon="6.716057">
        <ele>2484.409</ele>
        <time>2018-07-14T15:20:38Z</time>
      </trkpt>
      <trkpt lat="45.721917" lon="6.716020">
        <ele>2483.419</ele>
        <time>2018-07-14T15:20:42Z</time>
      </trkpt>
      <trkpt lat="45.721875" lon="6.715988">
        <ele>2482.808</ele>
        <time>2018-07-14T15:20:46Z</time>
      </trkpt>
      <trkpt lat="45.721831" lon="6.715957">
        <ele>2482.113</ele>
        <time>2018-07-14T15:20:50Z</time>
      </trkpt>
      <trkpt lat="45.721789" lon="6.715920">
        <ele>2481.357</ele>
        <time>2018-07-14T15:20:54Z</time>
      </trkpt>
      <trkpt lat="45.721749" lon="6.715882">
        <ele>2481.237</ele>
        <time>2018-07-14T15:20:58Z</time>
      </trkpt>
      <trkpt lat="45.721703" lon="6.715840">
        <ele>2481.114</ele>
        <time>2018-07-14T15:21:03Z</time>
      </trkpt>
      <trkpt lat="45.721651" lon="6.715808">
        <ele>2481.157</ele>
        <time>2018-07-14T15:21:08Z</time>
      </trkpt>
      <trkpt lat="45.721609" lon="6.715778">
        <ele>2481.152</ele>
        <time>2018-07-14T15:21:12Z</time>
      </trkpt>
      <trkpt lat="45.721564" lon="6.715755">
        <ele>2481.148</ele>
        <time>2018-07-14T15:21:16Z</time>
      </trkpt>
      <trkpt lat="45.721517" lon="6.715737">
        <ele>2480.743</ele>
        <time>2018-07-14T15:21:20Z</time>
      </trkpt>
      <trkpt lat="45.721471" lon="6.715723">
        <ele>2480.988</ele>
        <time>2018-07-14T15:21:24Z</time>
      </trkpt>
      <trkpt lat="45.721425" lon="6.715703">
        <ele>2481.424</ele>
        <time>2018-07-14T15:21:28Z</time>
      </trkpt>
      <trkpt lat="45.721379" lon="6.715684">
        <ele>2481.726</ele>
        <time>2018-07-14T15:21:32Z</time>
      </trkpt>
      <trkpt lat="45.721328" lon="6.715651">
        <ele>2481.908</ele>
        <time>2018-07-14T15:21:37Z</time>
      </trkpt>
      <trkpt lat="45.721286" lon="6.715618">
        <ele>2481.670</ele>
        <time>2018-07-14T15:21:41Z</time>
      </trkpt>
      <trkpt lat="45.721241" lon="6.715585">
        <ele>2481.824</ele>
        <time>2018-07-14T15:21:45Z</time>
      </trkpt>
      <trkpt lat="45.721198" lon="6.715550">
        <ele>2481.914</ele>
        <time>2018-07-14T15:21:49Z</time>
      </trkpt>
      <trkpt lat="45.721154" lon="6.715524">
        <ele>2482.071</ele>
        <time>2018-07-14T15:21:53Z</time>
      </trkpt>
      <trkpt lat="45.721112" lon="6.715499">
        <ele>2481.694</ele>
        <time>2018-07-14T15:21:57Z</time>
      </trkpt>
      <trkpt lat="45.721072" lon="6.715458">
        <ele>2481.029</ele>
        <time>2018-07-14T15:22:01Z</time>
      </trkpt>
      <trkpt lat="45.721038" lon="6.715409">
        <ele>2480.675</ele>
        <time>2018-07-14T15:22:05Z</time>
      </trkpt>
      <trkpt lat="45.721011" lon="6.715352">
        <ele>2480.020</ele>
        <time>2018-07-14T15:22:09Z</time>
      </trkpt>
      <trkpt lat="45.720984" lon="6.715299">
        <ele>2479.268</ele>
        <time>2018-07-14T15:22:13Z</time>
      </trkpt>
      <trkpt lat="45.720954" lon="6.715247">
        <ele>2478.342</ele>
        <time>2018-07-14T15:22:17Z</time>
      </trkpt>
      <trkpt lat="45.720919" lon="6.715205">
        <ele>2477.826</ele>
        <time>2018-07-14T15:22:21Z</time>
      </trkpt>
      <trkpt lat="45.720889" lon="6.715154">
        <ele>2477.508</ele>
        <time>2018-07-14T15:22:25Z</time>
      </trkpt>
      <trkpt lat="45.720861" lon="6.715100">
        <ele>2477.318</ele>
        <time>2018-07-14T15:22:29Z</time>
      </trkpt>
      <trkpt lat="45.720830" lon="6.715039">
        <ele>2476.032</ele>
        <time>2018-07-14T15:22:34Z</time>
      </trkpt>
      <trkpt lat="45.720810" lon="6.714976">
        <ele>2475.282</ele>
        <time>2018-07-14T15:22:39Z</time>
      </trkpt>
      <trkpt lat="45.720782" lon="6.714916">
        <ele>2473.989</ele>
        <time>2018-07-14T15:22:44Z</time>
      </trkpt>
      <trkpt lat="45.720741" lon="6.714861">
        <ele>2472.342</ele>
        <time>2018-07-14T15:22:49Z</time>
      </trkpt>
      <trkpt lat="45.720712" lon="6.714810">
        <ele>2471.487</ele>
        <time>2018-07-14T15:22:53Z</time>
      </trkpt>
      <trkpt lat="45.720674" lon="6.714752">
        <ele>2470.463</ele>
        <time>2018-07-14T15:22:58Z</time>
      </trkpt>
      <trkpt lat="45.720640" lon="6.714709">
        <ele>2469.868</ele>
        <time>2018-07-14T15:23:02Z</time>
      </trkpt>
      <trkpt lat="45.720609" lon="6.714659">
        <ele>2469.529</ele>
        <time>2018-07-14T15:23:06Z</time>
      </trkpt>
      <trkpt lat="45.720581" lon="6.714593">
        <ele>2468.900</ele>
        <time>2018-07-14T15:23:11Z</time>
      </trkpt>
      <trkpt lat="45.720547" lon="6.714546">
        <ele>2468.520</ele>
        <time>2018-07-14T15:23:16Z</time>
      </trkpt>
      <trkpt lat="45.720497" lon="6.714535">
        <ele>2468.308</ele>
        <time>2018-07-14T15:23:21Z</time>
      </trkpt>
      <trkpt lat="45.720449" lon="6.714528">
        <ele>2467.814</ele>
        <time>2018-07-14T15:23:26Z</time>
      </trkpt>
      <trkpt lat="45.720398" lon="6.714511">
        <ele>2467.118</ele>
        <time>2018-07-14T15:23:31Z</time>
      </trkpt>
      <trkpt lat="45.720343" lon="6.714500">
        <ele>2466.338</ele>
        <time>2018-07-14T15:23:36Z</time>
      </trkpt>
      <trkpt lat="45.720298" lon="6.714496">
        <ele>2465.425</ele>
        <time>2018-07-14T15:23:40Z</time>
      </trkpt>
      <trkpt lat="45.720243" lon="6.714499">
        <ele>2464.978</ele>
        <time>2018-07-14T15:23:45Z</time>
      </trkpt>
      <trkpt lat="45.720189" lon="6.714505">
        <ele>2464.683</ele>
        <time>2018-07-14T15:23:50Z</time>
      </trkpt>
      <trkpt lat="45.720134" lon="6.714513">
        <ele>2464.499</ele>
        <time>2018-07-14T15:23:55Z</time>
      </trkpt>
      <trkpt lat="45.720088" lon="6.714534">
        <ele>2464.334</ele>
        <time>2018-07-14T15:23:59Z</time>
      </trkpt>
      <trkpt lat="45.720040" lon="6.714557">
        <ele>2463.443</ele>
        <time>2018-07-14T15:24:03Z</time>
      </trkpt>
      <trkpt lat="45.719992" lon="6.714583">
        <ele>2462.964</ele>
        <time>2018-07-14T15:24:07Z</time>
      </trkpt>
      <trkpt lat="45.719941" lon="6.714614">
        <ele>2461.810</ele>
        <time>2018-07-14T15:24:12Z</time>
      </trkpt>
      <trkpt lat="45.719898" lon="6.714639">
        <ele>2461.108</ele>
        <time>2018-07-14T15:24:16Z</time>
      </trkpt>
      <trkpt lat="45.719853" lon="6.714673">
        <ele>2460.796</ele>
        <time>2018-07-14T15:24:20Z</time>
      </trkpt>
      <trkpt lat="45.719810" lon="6.714712">
        <ele>2460.920</ele>
        <time>2018-07-14T15:24:24Z</time>
      </trkpt>
      <trkpt lat="45.719767" lon="6.714735">
        <ele>2461.020</ele>
        <time>2018-07-14T15:24:29Z</time>
      </trkpt>
      <trkpt lat="45.719720" lon="6.714757">
        <ele>2461.167</ele>
        <time>2018-07-14T15:24:37Z</time>
      </trkpt>
      <trkpt lat="45.719675" lon="6.714779">
        <ele>2461.190</ele>
        <time>2018-07-14T15:24:44Z</time>
      </trkpt>
      <trkpt lat="45.719630" lon="6.714811">
        <ele>2461.515</ele>
        <time>2018-07-14T15:24:50Z</time>
      </trkpt>
      <trkpt lat="45.719588" lon="6.714843">
        <ele>2461.821</ele>
        <time>2018-07-14T15:24:57Z</time>
      </trkpt>
      <trkpt lat="45.719544" lon="6.714866">
        <ele>2462.416</ele>
        <time>2018-07-14T15:25:03Z</time>
      </trkpt>
      <trkpt lat="45.719501" lon="6.714888">
        <ele>2463.168</ele>
        <time>2018-07-14T15:25:10Z</time>
      </trkpt>
      <trkpt lat="45.719455" lon="6.714915">
        <ele>2464.342</ele>
        <time>2018-07-14T15:25:17Z</time>
      </trkpt>
      <trkpt lat="45.719410" lon="6.714935">
        <ele>2465.026</ele>
        <time>2018-07-14T15:25:24Z</time>
      </trkpt>
      <trkpt lat="45.719364" lon="6.714956">
        <ele>2466.208</ele>
        <time>2018-07-14T15:25:32Z</time>
      </trkpt>
      <trkpt lat="45.719319" lon="6.714971">
        <ele>2466.958</ele>
        <time>2018-07-14T15:25:40Z</time>
      </trkpt>
      <trkpt lat="45.719270" lon="6.714960">
        <ele>2468.122</ele>
        <time>2018-07-14T15:25:50Z</time>
      </trkpt>
      <trkpt lat="45.719225" lon="6.714954">
        <ele>2469.662</ele>
        <time>2018-07-14T15:26:02Z</time>
      </trkpt>
      <trkpt lat="45.719180" lon="6.714943">
        <ele>2472.189</ele>
        <time>2018-07-14T15:26:11Z</time>
      </trkpt>
      <trkpt lat="45.719133" lon="6.714950">
        <ele>2474.452</ele>
        <time>2018-07-14T15:26:21Z</time>
      </trkpt>
      <trkpt lat="45.719092" lon="6.714918">
        <ele>2476.697</ele>
        <time>2018-07-14T15:27:18Z</time>
      </trkpt>
      <trkpt lat="45.719043" lon="6.714913">
        <ele>2479.193</ele>
        <time>2018-07-14T15:27:40Z</time>
      </trkpt>
      <trkpt lat="45.718997" lon="6.714904">
        <ele>2481.068</ele>
        <time>2018-07-14T15:27:49Z</time>
      </trkpt>
      <trkpt lat="45.718955" lon="6.714869">
        <ele>2481.779</ele>
        <time>2018-07-14T15:27:59Z</time>
      </trkpt>
      <trkpt lat="45.718910" lon="6.714848">
        <ele>2482.905</ele>
        <time>2018-07-14T15:28:07Z</time>
      </trkpt>
      <trkpt lat="45.718865" lon="6.714842">
        <ele>2484.025</ele>
        <time>2018-07-14T15:28:15Z</time>
      </trkpt>
      <trkpt lat="45.718825" lon="6.714811">
        <ele>2485.108</ele>
        <time>2018-07-14T15:28:23Z</time>
      </trkpt>
      <trkpt lat="45.718783" lon="6.714778">
        <ele>2485.859</ele>
        <time>2018-07-14T15:28:32Z</time>
      </trkpt>
      <trkpt lat="45.718741" lon="6.714751">
        <ele>2486.243</ele>
        <time>2018-07-14T15:28:39Z</time>
      </trkpt>
      <trkpt lat="45.718690" lon="6.714729">
        <ele>2486.423</ele>
        <time>2018-07-14T15:28:46Z</time>
      </trkpt>
      <trkpt lat="45.718647" lon="6.714699">
        <ele>2486.920</ele>
        <time>2018-07-14T15:28:54Z</time>
      </trkpt>
      <trkpt lat="45.718603" lon="6.714683">
        <ele>2487.293</ele>
        <time>2018-07-14T15:29:03Z</time>
      </trkpt>
      <trkpt lat="45.718556" lon="6.714670">
        <ele>2487.898</ele>
        <time>2018-07-14T15:29:21Z</time>
      </trkpt>
      <trkpt lat="45.718515" lon="6.714633">
        <ele>2489.444</ele>
        <time>2018-07-14T15:29:31Z</time>
      </trkpt>
      <trkpt lat="45.718470" lon="6.714612">
        <ele>2490.729</ele>
        <time>2018-07-14T15:30:11Z</time>
      </trkpt>
      <trkpt lat="45.718423" lon="6.714619">
        <ele>2490.365</ele>
        <time>2018-07-14T15:30:18Z</time>
      </trkpt>
      <trkpt lat="45.718374" lon="6.714627">
        <ele>2490.568</ele>
        <time>2018-07-14T15:30:28Z</time>
      </trkpt>
      <trkpt lat="45.718328" lon="6.714617">
        <ele>2491.014</ele>
        <time>2018-07-14T15:30:35Z</time>
      </trkpt>
      <trkpt lat="45.718283" lon="6.714610">
        <ele>2491.708</ele>
        <time>2018-07-14T15:30:42Z</time>
      </trkpt>
      <trkpt lat="45.718240" lon="6.714585">
        <ele>2492.118</ele>
        <time>2018-07-14T15:30:49Z</time>
      </trkpt>
      <trkpt lat="45.718195" lon="6.714550">
        <ele>2492.882</ele>
        <time>2018-07-14T15:30:56Z</time>
      </trkpt>
      <trkpt lat="45.718156" lon="6.714508">
        <ele>2493.212</ele>
        <time>2018-07-14T15:31:04Z</time>
      </trkpt>
      <trkpt lat="45.718115" lon="6.714480">
        <ele>2493.459</ele>
        <time>2018-07-14T15:31:12Z</time>
      </trkpt>
      <trkpt lat="45.718073" lon="6.714440">
        <ele>2494.762</ele>
        <time>2018-07-14T15:31:22Z</time>
      </trkpt>
      <trkpt lat="45.718029" lon="6.714421">
        <ele>2495.157</ele>
        <time>2018-07-14T15:31:31Z</time>
      </trkpt>
      <trkpt lat="45.717999" lon="6.714373">
        <ele>2495.713</ele>
        <time>2018-07-14T15:31:41Z</time>
      </trkpt>
      <trkpt lat="45.718046" lon="6.714362">
        <ele>2496.988</ele>
        <time>2018-07-14T15:31:50Z</time>
      </trkpt>
      <trkpt lat="45.718090" lon="6.714382">
        <ele>2498.813</ele>
        <time>2018-07-14T15:31:57Z</time>
      </trkpt>
      <trkpt lat="45.718138" lon="6.714381">
        <ele>2500.343</ele>
        <time>2018-07-14T15:32:06Z</time>
      </trkpt>
      <trkpt lat="45.718186" lon="6.714396">
        <ele>2502.007</ele>
        <time>2018-07-14T15:32:14Z</time>
      </trkpt>
      <trkpt lat="45.718240" lon="6.714405">
        <ele>2503.008</ele>
        <time>2018-07-14T15:32:20Z</time>
      </trkpt>
      <trkpt lat="45.718204" lon="6.714357">
        <ele>2503.283</ele>
        <time>2018-07-14T15:32:50Z</time>
      </trkpt>
      <trkpt lat="45.718174" lon="6.714303">
        <ele>2504.137</ele>
        <time>2018-07-14T15:33:00Z</time>
      </trkpt>
      <trkpt lat="45.718148" lon="6.714243">
        <ele>2505.517</ele>
        <time>2018-07-14T15:33:10Z</time>
      </trkpt>
      <trkpt lat="45.718125" lon="6.714180">
        <ele>2506.714</ele>
        <time>2018-07-14T15:33:19Z</time>
      </trkpt>
      <trkpt lat="45.718096" lon="6.714127">
        <ele>2508.247</ele>
        <time>2018-07-14T15:33:26Z</time>
      </trkpt>
      <trkpt lat="45.718062" lon="6.714078">
        <ele>2509.582</ele>
        <time>2018-07-14T15:33:32Z</time>
      </trkpt>
      <trkpt lat="45.718022" lon="6.714039">
        <ele>2510.748</ele>
        <time>2018-07-14T15:33:39Z</time>
      </trkpt>
      <trkpt lat="45.717982" lon="6.713996">
        <ele>2511.483</ele>
        <time>2018-07-14T15:33:49Z</time>
      </trkpt>
      <trkpt lat="45.717943" lon="6.713952">
        <ele>2512.612</ele>
        <time>2018-07-14T15:33:56Z</time>
      </trkpt>
      <trkpt lat="45.717912" lon="6.713901">
        <ele>2512.932</ele>
        <time>2018-07-14T15:34:02Z</time>
      </trkpt>
      <trkpt lat="45.717873" lon="6.713856">
        <ele>2513.505</ele>
        <time>2018-07-14T15:34:11Z</time>
      </trkpt>
      <trkpt lat="45.717836" lon="6.713805">
        <ele>2514.308</ele>
        <time>2018-07-14T15:34:19Z</time>
      </trkpt>
      <trkpt lat="45.717810" lon="6.713745">
        <ele>2515.273</ele>
        <time>2018-07-14T15:34:27Z</time>
      </trkpt>
      <trkpt lat="45.717774" lon="6.713697">
        <ele>2516.127</ele>
        <time>2018-07-14T15:34:36Z</time>
      </trkpt>
      <trkpt lat="45.717738" lon="6.713648">
        <ele>2517.427</ele>
        <time>2018-07-14T15:34:46Z</time>
      </trkpt>
      <trkpt lat="45.717693" lon="6.713628">
        <ele>2518.694</ele>
        <time>2018-07-14T15:34:57Z</time>
      </trkpt>
      <trkpt lat="45.717665" lon="6.713577">
        <ele>2520.527</ele>
        <time>2018-07-14T15:35:07Z</time>
      </trkpt>
      <trkpt lat="45.717632" lon="6.713528">
        <ele>2521.392</ele>
        <time>2018-07-14T15:35:16Z</time>
      </trkpt>
      <trkpt lat="45.717590" lon="6.713494">
        <ele>2522.678</ele>
        <time>2018-07-14T15:35:26Z</time>
      </trkpt>
      <trkpt lat="45.717545" lon="6.713473">
        <ele>2523.843</ele>
        <time>2018-07-14T15:35:36Z</time>
      </trkpt>
      <trkpt lat="45.717499" lon="6.713476">
        <ele>2524.914</ele>
        <time>2018-07-14T15:35:45Z</time>
      </trkpt>
      <trkpt lat="45.717453" lon="6.713495">
        <ele>2526.454</ele>
        <time>2018-07-14T15:36:12Z</time>
      </trkpt>
      <trkpt lat="45.717406" lon="6.713469">
        <ele>2527.709</ele>
        <time>2018-07-14T15:36:18Z</time>
      </trkpt>
      <trkpt lat="45.717362" lon="6.713441">
        <ele>2528.908</ele>
        <time>2018-07-14T15:36:25Z</time>
      </trkpt>
      <trkpt lat="45.717321" lon="6.713406">
        <ele>2530.093</ele>
        <time>2018-07-14T15:36:31Z</time>
      </trkpt>
      <trkpt lat="45.717286" lon="6.713359">
        <ele>2530.387</ele>
        <time>2018-07-14T15:36:37Z</time>
      </trkpt>
      <trkpt lat="45.717247" lon="6.713319">
        <ele>2530.947</ele>
        <time>2018-07-14T15:36:43Z</time>
      </trkpt>
      <trkpt lat="45.717215" lon="6.713265">
        <ele>2532.014</ele>
        <time>2018-07-14T15:36:51Z</time>
      </trkpt>
      <trkpt lat="45.717194" lon="6.713205">
        <ele>2533.137</ele>
        <time>2018-07-14T15:36:58Z</time>
      </trkpt>
      <trkpt lat="45.717174" lon="6.713141">
        <ele>2534.142</ele>
        <time>2018-07-14T15:37:05Z</time>
      </trkpt>
      <trkpt lat="45.717153" lon="6.713084">
        <ele>2534.758</ele>
        <time>2018-07-14T15:37:12Z</time>
      </trkpt>
      <trkpt lat="45.717122" lon="6.713024">
        <ele>2535.983</ele>
        <time>2018-07-14T15:37:19Z</time>
      </trkpt>
      <trkpt lat="45.717088" lon="6.712979">
        <ele>2536.615</ele>
        <time>2018-07-14T15:37:25Z</time>
      </trkpt>
      <trkpt lat="45.717056" lon="6.712929">
        <ele>2537.465</ele>
        <time>2018-07-14T15:37:30Z</time>
      </trkpt>
      <trkpt lat="45.717019" lon="6.712875">
        <ele>2537.911</ele>
        <time>2018-07-14T15:37:36Z</time>
      </trkpt>
      <trkpt lat="45.716993" lon="6.712819">
        <ele>2538.208</ele>
        <time>2018-07-14T15:37:41Z</time>
      </trkpt>
      <trkpt lat="45.716963" lon="6.712757">
        <ele>2538.493</ele>
        <time>2018-07-14T15:37:46Z</time>
      </trkpt>
      <trkpt lat="45.716932" lon="6.712696">
        <ele>2537.737</ele>
        <time>2018-07-14T15:37:51Z</time>
      </trkpt>
      <trkpt lat="45.716905" lon="6.712636">
        <ele>2536.987</ele>
        <time>2018-07-14T15:37:54Z</time>
      </trkpt>
      <trkpt lat="45.716869" lon="6.712588">
        <ele>2536.844</ele>
        <time>2018-07-14T15:38:00Z</time>
      </trkpt>
      <trkpt lat="45.716845" lon="6.712533">
        <ele>2536.727</ele>
        <time>2018-07-14T15:38:05Z</time>
      </trkpt>
      <trkpt lat="45.716824" lon="6.712465">
        <ele>2537.132</ele>
        <time>2018-07-14T15:38:10Z</time>
      </trkpt>
      <trkpt lat="45.716806" lon="6.712399">
        <ele>2538.188</ele>
        <time>2018-07-14T15:38:14Z</time>
      </trkpt>
      <trkpt lat="45.716794" lon="6.712331">
        <ele>2538.763</ele>
        <time>2018-07-14T15:38:19Z</time>
      </trkpt>
      <trkpt lat="45.716771" lon="6.712271">
        <ele>2539.133</ele>
        <time>2018-07-14T15:38:26Z</time>
      </trkpt>
      <trkpt lat="45.716754" lon="6.712207">
        <ele>2539.323</ele>
        <time>2018-07-14T15:38:32Z</time>
      </trkpt>
      <trkpt lat="45.716742" lon="6.712136">
        <ele>2539.415</ele>
        <time>2018-07-14T15:38:39Z</time>
      </trkpt>
      <trkpt lat="45.716724" lon="6.712075">
        <ele>2539.908</ele>
        <time>2018-07-14T15:38:45Z</time>
      </trkpt>
      <trkpt lat="45.716704" lon="6.712015">
        <ele>2540.285</ele>
        <time>2018-07-14T15:38:50Z</time>
      </trkpt>
      <trkpt lat="45.716681" lon="6.711950">
        <ele>2540.079</ele>
        <time>2018-07-14T15:39:01Z</time>
      </trkpt>
      <trkpt lat="45.716644" lon="6.711901">
        <ele>2539.519</ele>
        <time>2018-07-14T15:39:07Z</time>
      </trkpt>
      <trkpt lat="45.716608" lon="6.711861">
        <ele>2539.296</ele>
        <time>2018-07-14T15:39:12Z</time>
      </trkpt>
      <trkpt lat="45.716568" lon="6.711826">
        <ele>2539.089</ele>
        <time>2018-07-14T15:39:17Z</time>
      </trkpt>
      <trkpt lat="45.716507" lon="6.711814">
        <ele>2538.944</ele>
        <time>2018-07-14T15:39:29Z</time>
      </trkpt>
      <trkpt lat="45.716456" lon="6.711799">
        <ele>2539.240</ele>
        <time>2018-07-14T15:39:37Z</time>
      </trkpt>
      <trkpt lat="45.716403" lon="6.711783">
        <ele>2539.475</ele>
        <time>2018-07-14T15:39:42Z</time>
      </trkpt>
      <trkpt lat="45.716355" lon="6.711750">
        <ele>2539.182</ele>
        <time>2018-07-14T15:39:47Z</time>
      </trkpt>
      <trkpt lat="45.716310" lon="6.711719">
        <ele>2538.943</ele>
        <time>2018-07-14T15:39:52Z</time>
      </trkpt>
      <trkpt lat="45.716268" lon="6.711692">
        <ele>2539.217</ele>
        <time>2018-07-14T15:39:57Z</time>
      </trkpt>
      <trkpt lat="45.716221" lon="6.711659">
        <ele>2539.808</ele>
        <time>2018-07-14T15:40:03Z</time>
      </trkpt>
      <trkpt lat="45.716179" lon="6.711628">
        <ele>2540.540</ele>
        <time>2018-07-14T15:40:09Z</time>
      </trkpt>
      <trkpt lat="45.716138" lon="6.711598">
        <ele>2541.364</ele>
        <time>2018-07-14T15:40:15Z</time>
      </trkpt>
      <trkpt lat="45.716092" lon="6.711559">
        <ele>2541.894</ele>
        <time>2018-07-14T15:40:21Z</time>
      </trkpt>
      <trkpt lat="45.716052" lon="6.711519">
        <ele>2542.121</ele>
        <time>2018-07-14T15:40:26Z</time>
      </trkpt>
      <trkpt lat="45.716017" lon="6.711459">
        <ele>2541.944</ele>
        <time>2018-07-14T15:40:31Z</time>
      </trkpt>
      <trkpt lat="45.715978" lon="6.711406">
        <ele>2542.239</ele>
        <time>2018-07-14T15:40:36Z</time>
      </trkpt>
      <trkpt lat="45.715938" lon="6.711359">
        <ele>2542.015</ele>
        <time>2018-07-14T15:40:41Z</time>
      </trkpt>
      <trkpt lat="45.715901" lon="6.711321">
        <ele>2542.340</ele>
        <time>2018-07-14T15:40:46Z</time>
      </trkpt>
      <trkpt lat="45.715860" lon="6.711281">
        <ele>2542.995</ele>
        <time>2018-07-14T15:40:53Z</time>
      </trkpt>
      <trkpt lat="45.715818" lon="6.711253">
        <ele>2543.249</ele>
        <time>2018-07-14T15:40:59Z</time>
      </trkpt>
      <trkpt lat="45.715776" lon="6.711229">
        <ele>2543.823</ele>
        <time>2018-07-14T15:41:05Z</time>
      </trkpt>
      <trkpt lat="45.715736" lon="6.711187">
        <ele>2544.208</ele>
        <time>2018-07-14T15:41:11Z</time>
      </trkpt>
      <trkpt lat="45.715693" lon="6.711150">
        <ele>2544.491</ele>
        <time>2018-07-14T15:41:18Z</time>
      </trkpt>
      <trkpt lat="45.715647" lon="6.711130">
        <ele>2544.955</ele>
        <time>2018-07-14T15:41:26Z</time>
      </trkpt>
      <trkpt lat="45.715599" lon="6.711118">
        <ele>2545.655</ele>
        <time>2018-07-14T15:41:36Z</time>
      </trkpt>
      <trkpt lat="45.715560" lon="6.711075">
        <ele>2545.682</ele>
        <time>2018-07-14T15:42:00Z</time>
      </trkpt>
      <trkpt lat="45.715512" lon="6.711046">
        <ele>2546.015</ele>
        <time>2018-07-14T15:42:09Z</time>
      </trkpt>
      <trkpt lat="45.715467" lon="6.711026">
        <ele>2546.730</ele>
        <time>2018-07-14T15:42:16Z</time>
      </trkpt>
      <trkpt lat="45.715421" lon="6.711005">
        <ele>2547.916</ele>
        <time>2018-07-14T15:42:24Z</time>
      </trkpt>
      <trkpt lat="45.715381" lon="6.710970">
        <ele>2549.021</ele>
        <time>2018-07-14T15:42:32Z</time>
      </trkpt>
      <trkpt lat="45.715345" lon="6.710924">
        <ele>2549.728</ele>
        <time>2018-07-14T15:42:40Z</time>
      </trkpt>
      <trkpt lat="45.715301" lon="6.710892">
        <ele>2550.189</ele>
        <time>2018-07-14T15:42:50Z</time>
      </trkpt>
      <trkpt lat="45.715259" lon="6.710859">
        <ele>2550.717</ele>
        <time>2018-07-14T15:42:59Z</time>
      </trkpt>
      <trkpt lat="45.715214" lon="6.710847">
        <ele>2551.108</ele>
        <time>2018-07-14T15:43:06Z</time>
      </trkpt>
      <trkpt lat="45.715168" lon="6.710841">
        <ele>2552.144</ele>
        <time>2018-07-14T15:43:16Z</time>
      </trkpt>
      <trkpt lat="45.715126" lon="6.710815">
        <ele>2553.558</ele>
        <time>2018-07-14T15:43:25Z</time>
      </trkpt>
      <trkpt lat="45.715081" lon="6.710796">
        <ele>2554.478</ele>
        <time>2018-07-14T15:43:34Z</time>
      </trkpt>
      <trkpt lat="45.715038" lon="6.710776">
        <ele>2556.525</ele>
        <time>2018-07-14T15:43:41Z</time>
      </trkpt>
      <trkpt lat="45.714990" lon="6.710765">
        <ele>2557.838</ele>
        <time>2018-07-14T15:43:49Z</time>
      </trkpt>
      <trkpt lat="45.714944" lon="6.710746">
        <ele>2559.433</ele>
        <time>2018-07-14T15:43:56Z</time>
      </trkpt>
      <trkpt lat="45.714899" lon="6.710727">
        <ele>2559.999</ele>
        <time>2018-07-14T15:44:05Z</time>
      </trkpt>
      <trkpt lat="45.714852" lon="6.710708">
        <ele>2561.094</ele>
        <time>2018-07-14T15:44:13Z</time>
      </trkpt>
      <trkpt lat="45.714806" lon="6.710702">
        <ele>2562.172</ele>
        <time>2018-07-14T15:44:22Z</time>
      </trkpt>
      <trkpt lat="45.714760" lon="6.710704">
        <ele>2562.713</ele>
        <time>2018-07-14T15:44:30Z</time>
      </trkpt>
      <trkpt lat="45.714713" lon="6.710716">
        <ele>2563.514</ele>
        <time>2018-07-14T15:44:38Z</time>
      </trkpt>
      <trkpt lat="45.714664" lon="6.710701">
        <ele>2564.408</ele>
        <time>2018-07-14T15:44:47Z</time>
      </trkpt>
      <trkpt lat="45.714622" lon="6.710663">
        <ele>2565.379</ele>
        <time>2018-07-14T15:44:56Z</time>
      </trkpt>
      <trkpt lat="45.714576" lon="6.710653">
        <ele>2565.923</ele>
        <time>2018-07-14T15:45:04Z</time>
      </trkpt>
      <trkpt lat="45.714527" lon="6.710641">
        <ele>2566.223</ele>
        <time>2018-07-14T15:45:11Z</time>
      </trkpt>
      <trkpt lat="45.714482" lon="6.710613">
        <ele>2566.830</ele>
        <time>2018-07-14T15:45:18Z</time>
      </trkpt>
      <trkpt lat="45.714433" lon="6.710594">
        <ele>2567.653</ele>
        <time>2018-07-14T15:45:24Z</time>
      </trkpt>
      <trkpt lat="45.714387" lon="6.710592">
        <ele>2568.568</ele>
        <time>2018-07-14T15:45:30Z</time>
      </trkpt>
      <trkpt lat="45.714338" lon="6.710593">
        <ele>2569.434</ele>
        <time>2018-07-14T15:45:36Z</time>
      </trkpt>
      <trkpt lat="45.714290" lon="6.710598">
        <ele>2570.349</ele>
        <time>2018-07-14T15:45:44Z</time>
      </trkpt>
      <trkpt lat="45.714326" lon="6.710545">
        <ele>2570.559</ele>
        <time>2018-07-14T15:45:59Z</time>
      </trkpt>
      <trkpt lat="45.714376" lon="6.710526">
        <ele>2571.003</ele>
        <time>2018-07-14T15:46:06Z</time>
      </trkpt>
      <trkpt lat="45.714420" lon="6.710502">
        <ele>2571.723</ele>
        <time>2018-07-14T15:46:13Z</time>
      </trkpt>
      <trkpt lat="45.714465" lon="6.710480">
        <ele>2572.108</ele>
        <time>2018-07-14T15:46:20Z</time>
      </trkpt>
      <trkpt lat="45.714444" lon="6.710417">
        <ele>2572.887</ele>
        <time>2018-07-14T15:46:33Z</time>
      </trkpt>
      <trkpt lat="45.714406" lon="6.710370">
        <ele>2573.631</ele>
        <time>2018-07-14T15:46:40Z</time>
      </trkpt>
      <trkpt lat="45.714366" lon="6.710324">
        <ele>2573.781</ele>
        <time>2018-07-14T15:46:47Z</time>
      </trkpt>
      <trkpt lat="45.714333" lon="6.710273">
        <ele>2573.728</ele>
        <time>2018-07-14T15:46:53Z</time>
      </trkpt>
      <trkpt lat="45.714293" lon="6.710232">
        <ele>2574.181</ele>
        <time>2018-07-14T15:46:59Z</time>
      </trkpt>
      <trkpt lat="45.714257" lon="6.710190">
        <ele>2574.816</ele>
        <time>2018-07-14T15:47:04Z</time>
      </trkpt>
      <trkpt lat="45.714217" lon="6.710147">
        <ele>2575.682</ele>
        <time>2018-07-14T15:47:10Z</time>
      </trkpt>
      <trkpt lat="45.714176" lon="6.710113">
        <ele>2576.517</ele>
        <time>2018-07-14T15:47:15Z</time>
      </trkpt>
      <trkpt lat="45.714131" lon="6.710079">
        <ele>2577.036</ele>
        <time>2018-07-14T15:47:20Z</time>
      </trkpt>
      <trkpt lat="45.714087" lon="6.710042">
        <ele>2577.717</ele>
        <time>2018-07-14T15:47:25Z</time>
      </trkpt>
      <trkpt lat="45.714043" lon="6.710000">
        <ele>2578.118</ele>
        <time>2018-07-14T15:47:31Z</time>
      </trkpt>
      <trkpt lat="45.714003" lon="6.709968">
        <ele>2578.408</ele>
        <time>2018-07-14T15:47:36Z</time>
      </trkpt>
      <trkpt lat="45.713960" lon="6.709934">
        <ele>2578.625</ele>
        <time>2018-07-14T15:47:41Z</time>
      </trkpt>
      <trkpt lat="45.713920" lon="6.709898">
        <ele>2579.129</ele>
        <time>2018-07-14T15:47:46Z</time>
      </trkpt>
      <trkpt lat="45.713877" lon="6.709855">
        <ele>2579.449</ele>
        <time>2018-07-14T15:47:52Z</time>
      </trkpt>
      <trkpt lat="45.713837" lon="6.709816">
        <ele>2580.026</ele>
        <time>2018-07-14T15:47:58Z</time>
      </trkpt>
      <trkpt lat="45.713797" lon="6.709769">
        <ele>2580.399</ele>
        <time>2018-07-14T15:48:04Z</time>
      </trkpt>
      <trkpt lat="45.713747" lon="6.709740">
        <ele>2580.954</ele>
        <time>2018-07-14T15:48:09Z</time>
      </trkpt>
      <trkpt lat="45.713700" lon="6.709705">
        <ele>2581.320</ele>
        <time>2018-07-14T15:48:14Z</time>
      </trkpt>
      <trkpt lat="45.713658" lon="6.709667">
        <ele>2581.955</ele>
        <time>2018-07-14T15:48:19Z</time>
      </trkpt>
      <trkpt lat="45.713632" lon="6.709614">
        <ele>2581.551</ele>
        <time>2018-07-14T15:48:23Z</time>
      </trkpt>
      <trkpt lat="45.713599" lon="6.709568">
        <ele>2580.801</ele>
        <time>2018-07-14T15:48:28Z</time>
      </trkpt>
      <trkpt lat="45.713588" lon="6.709502">
        <ele>2580.011</ele>
        <time>2018-07-14T15:49:36Z</time>
      </trkpt>
      <trkpt lat="45.713553" lon="6.709459">
        <ele>2579.108</ele>
        <time>2018-07-14T15:49:42Z</time>
      </trkpt>
      <trkpt lat="45.713514" lon="6.709425">
        <ele>2578.237</ele>
        <time>2018-07-14T15:49:48Z</time>
      </trkpt>
      <trkpt lat="45.713473" lon="6.709392">
        <ele>2577.261</ele>
        <time>2018-07-14T15:49:53Z</time>
      </trkpt>
      <trkpt lat="45.713430" lon="6.709362">
        <ele>2576.621</ele>
        <time>2018-07-14T15:49:58Z</time>
      </trkpt>
      <trkpt lat="45.713381" lon="6.709331">
        <ele>2576.348</ele>
        <time>2018-07-14T15:50:03Z</time>
      </trkpt>
      <trkpt lat="45.713337" lon="6.709301">
        <ele>2576.191</ele>
        <time>2018-07-14T15:50:07Z</time>
      </trkpt>
      <trkpt lat="45.713289" lon="6.709277">
        <ele>2576.056</ele>
        <time>2018-07-14T15:50:14Z</time>
      </trkpt>
      <trkpt lat="45.713244" lon="6.709252">
        <ele>2575.532</ele>
        <time>2018-07-14T15:50:19Z</time>
      </trkpt>
      <trkpt lat="45.713191" lon="6.709224">
        <ele>2575.297</ele>
        <time>2018-07-14T15:50:24Z</time>
      </trkpt>
      <trkpt lat="45.713148" lon="6.709204">
        <ele>2575.041</ele>
        <time>2018-07-14T15:50:28Z</time>
      </trkpt>
      <trkpt lat="45.713099" lon="6.709177">
        <ele>2575.381</ele>
        <time>2018-07-14T15:50:33Z</time>
      </trkpt>
      <trkpt lat="45.713056" lon="6.709155">
        <ele>2575.909</ele>
        <time>2018-07-14T15:50:38Z</time>
      </trkpt>
      <trkpt lat="45.713010" lon="6.709127">
        <ele>2576.608</ele>
        <time>2018-07-14T15:50:43Z</time>
      </trkpt>
      <trkpt lat="45.712961" lon="6.709095">
        <ele>2577.046</ele>
        <time>2018-07-14T15:50:48Z</time>
      </trkpt>
      <trkpt lat="45.712918" lon="6.709069">
        <ele>2577.370</ele>
        <time>2018-07-14T15:50:52Z</time>
      </trkpt>
      <trkpt lat="45.712873" lon="6.709042">
        <ele>2577.550</ele>
        <time>2018-07-14T15:50:57Z</time>
      </trkpt>
      <trkpt lat="45.712827" lon="6.709016">
        <ele>2578.027</ele>
        <time>2018-07-14T15:51:03Z</time>
      </trkpt>
      <trkpt lat="45.712778" lon="6.708983">
        <ele>2578.770</ele>
        <time>2018-07-14T15:51:09Z</time>
      </trkpt>
      <trkpt lat="45.712734" lon="6.708935">
        <ele>2580.395</ele>
        <time>2018-07-14T15:51:14Z</time>
      </trkpt>
      <trkpt lat="45.712695" lon="6.708893">
        <ele>2581.371</ele>
        <time>2018-07-14T15:51:19Z</time>
      </trkpt>
      <trkpt lat="45.712658" lon="6.708844">
        <ele>2581.946</ele>
        <time>2018-07-14T15:51:26Z</time>
      </trkpt>
      <trkpt lat="45.712615" lon="6.708808">
        <ele>2582.618</ele>
        <time>2018-07-14T15:51:33Z</time>
      </trkpt>
      <trkpt lat="45.712578" lon="6.708765">
        <ele>2582.698</ele>
        <time>2018-07-14T15:51:45Z</time>
      </trkpt>
      <trkpt lat="45.712543" lon="6.708712">
        <ele>2581.817</ele>
        <time>2018-07-14T15:51:51Z</time>
      </trkpt>
      <trkpt lat="45.712517" lon="6.708659">
        <ele>2580.108</ele>
        <time>2018-07-14T15:51:58Z</time>
      </trkpt>
      <trkpt lat="45.712494" lon="6.708586">
        <ele>2578.763</ele>
        <time>2018-07-14T15:52:03Z</time>
      </trkpt>
      <trkpt lat="45.712475" lon="6.708517">
        <ele>2577.997</ele>
        <time>2018-07-14T15:52:09Z</time>
      </trkpt>
      <trkpt lat="45.712453" lon="6.708446">
        <ele>2577.057</ele>
        <time>2018-07-14T15:52:15Z</time>
      </trkpt>
      <trkpt lat="45.712429" lon="6.708376">
        <ele>2576.574</ele>
        <time>2018-07-14T15:52:20Z</time>
      </trkpt>
      <trkpt lat="45.712408" lon="6.708306">
        <ele>2575.817</ele>
        <time>2018-07-14T15:52:25Z</time>
      </trkpt>
      <trkpt lat="45.712392" lon="6.708240">
        <ele>2575.052</ele>
        <time>2018-07-14T15:52:30Z</time>
      </trkpt>
      <trkpt lat="45.712374" lon="6.708170">
        <ele>2574.188</ele>
        <time>2018-07-14T15:52:36Z</time>
      </trkpt>
      <trkpt lat="45.712361" lon="6.708108">
        <ele>2573.233</ele>
        <time>2018-07-14T15:52:41Z</time>
      </trkpt>
      <trkpt lat="45.712338" lon="6.708042">
        <ele>2572.666</ele>
        <time>2018-07-14T15:52:46Z</time>
      </trkpt>
      <trkpt lat="45.712313" lon="6.707973">
        <ele>2572.329</ele>
        <time>2018-07-14T15:52:51Z</time>
      </trkpt>
      <trkpt lat="45.712294" lon="6.707914">
        <ele>2571.721</ele>
        <time>2018-07-14T15:52:55Z</time>
      </trkpt>
      <trkpt lat="45.712273" lon="6.707851">
        <ele>2570.908</ele>
        <time>2018-07-14T15:53:00Z</time>
      </trkpt>
      <trkpt lat="45.712249" lon="6.707790">
        <ele>2570.048</ele>
        <time>2018-07-14T15:53:05Z</time>
      </trkpt>
      <trkpt lat="45.712226" lon="6.707726">
        <ele>2569.532</ele>
        <time>2018-07-14T15:53:10Z</time>
      </trkpt>
      <trkpt lat="45.712191" lon="6.707670">
        <ele>2568.892</ele>
        <time>2018-07-14T15:53:15Z</time>
      </trkpt>
      <trkpt lat="45.712146" lon="6.707627">
        <ele>2568.049</ele>
        <time>2018-07-14T15:53:20Z</time>
      </trkpt>
      <trkpt lat="45.712099" lon="6.707590">
        <ele>2567.112</ele>
        <time>2018-07-14T15:53:25Z</time>
      </trkpt>
      <trkpt lat="45.712056" lon="6.707542">
        <ele>2566.297</ele>
        <time>2018-07-14T15:53:30Z</time>
      </trkpt>
      <trkpt lat="45.712023" lon="6.707496">
        <ele>2564.883</ele>
        <time>2018-07-14T15:53:34Z</time>
      </trkpt>
      <trkpt lat="45.711988" lon="6.707436">
        <ele>2563.638</ele>
        <time>2018-07-14T15:53:39Z</time>
      </trkpt>
      <trkpt lat="45.711953" lon="6.707387">
        <ele>2562.557</ele>
        <time>2018-07-14T15:53:44Z</time>
      </trkpt>
      <trkpt lat="45.711917" lon="6.707338">
        <ele>2561.400</ele>
        <time>2018-07-14T15:53:49Z</time>
      </trkpt>
      <trkpt lat="45.711886" lon="6.707289">
        <ele>2561.220</ele>
        <time>2018-07-14T15:53:54Z</time>
      </trkpt>
      <trkpt lat="45.711843" lon="6.707247">
        <ele>2560.308</ele>
        <time>2018-07-14T15:53:59Z</time>
      </trkpt>
      <trkpt lat="45.711803" lon="6.707198">
        <ele>2559.317</ele>
        <time>2018-07-14T15:54:04Z</time>
      </trkpt>
      <trkpt lat="45.711771" lon="6.707135">
        <ele>2558.311</ele>
        <time>2018-07-14T15:54:09Z</time>
      </trkpt>
      <trkpt lat="45.711746" lon="6.707074">
        <ele>2557.311</ele>
        <time>2018-07-14T15:54:14Z</time>
      </trkpt>
      <trkpt lat="45.711722" lon="6.707016">
        <ele>2556.758</ele>
        <time>2018-07-14T15:54:18Z</time>
      </trkpt>
      <trkpt lat="45.711695" lon="6.706950">
        <ele>2555.981</ele>
        <time>2018-07-14T15:54:23Z</time>
      </trkpt>
      <trkpt lat="45.711674" lon="6.706891">
        <ele>2555.086</ele>
        <time>2018-07-14T15:54:27Z</time>
      </trkpt>
      <trkpt lat="45.711645" lon="6.706832">
        <ele>2554.572</ele>
        <time>2018-07-14T15:54:33Z</time>
      </trkpt>
      <trkpt lat="45.711616" lon="6.706780">
        <ele>2553.417</ele>
        <time>2018-07-14T15:54:38Z</time>
      </trkpt>
      <trkpt lat="45.711589" lon="6.706717">
        <ele>2552.768</ele>
        <time>2018-07-14T15:54:43Z</time>
      </trkpt>
      <trkpt lat="45.711559" lon="6.706653">
        <ele>2551.942</ele>
        <time>2018-07-14T15:54:48Z</time>
      </trkpt>
      <trkpt lat="45.711533" lon="6.706585">
        <ele>2551.026</ele>
        <time>2018-07-14T15:54:53Z</time>
      </trkpt>
      <trkpt lat="45.711508" lon="6.706518">
        <ele>2550.108</ele>
        <time>2018-07-14T15:54:58Z</time>
      </trkpt>
      <trkpt lat="45.711483" lon="6.706445">
        <ele>2549.198</ele>
        <time>2018-07-14T15:55:03Z</time>
      </trkpt>
      <trkpt lat="45.711459" lon="6.706387">
        <ele>2548.542</ele>
        <time>2018-07-14T15:55:07Z</time>
      </trkpt>
      <trkpt lat="45.711435" lon="6.706332">
        <ele>2548.252</ele>
        <time>2018-07-14T15:55:11Z</time>
      </trkpt>
      <trkpt lat="45.711413" lon="6.706272">
        <ele>2548.049</ele>
        <time>2018-07-14T15:55:15Z</time>
      </trkpt>
      <trkpt lat="45.711394" lon="6.706211">
        <ele>2547.992</ele>
        <time>2018-07-14T15:55:19Z</time>
      </trkpt>
      <trkpt lat="45.711377" lon="6.706142">
        <ele>2547.847</ele>
        <time>2018-07-14T15:55:23Z</time>
      </trkpt>
      <trkpt lat="45.711359" lon="6.706078">
        <ele>2547.893</ele>
        <time>2018-07-14T15:55:27Z</time>
      </trkpt>
      <trkpt lat="45.711343" lon="6.706017">
        <ele>2547.888</ele>
        <time>2018-07-14T15:55:31Z</time>
      </trkpt>
      <trkpt lat="45.711320" lon="6.705944">
        <ele>2547.842</ele>
        <time>2018-07-14T15:55:36Z</time>
      </trkpt>
      <trkpt lat="45.711301" lon="6.705878">
        <ele>2547.822</ele>
        <time>2018-07-14T15:55:40Z</time>
      </trkpt>
      <trkpt lat="45.711282" lon="6.705809">
        <ele>2547.414</ele>
        <time>2018-07-14T15:55:44Z</time>
      </trkpt>
      <trkpt lat="45.711264" lon="6.705749">
        <ele>2547.608</ele>
        <time>2018-07-14T15:55:48Z</time>
      </trkpt>
      <trkpt lat="45.711245" lon="6.705686">
        <ele>2547.326</ele>
        <time>2018-07-14T15:55:53Z</time>
      </trkpt>
      <trkpt lat="45.711226" lon="6.705626">
        <ele>2546.780</ele>
        <time>2018-07-14T15:55:58Z</time>
      </trkpt>
      <trkpt lat="45.711205" lon="6.705562">
        <ele>2546.370</ele>
        <time>2018-07-14T15:56:03Z</time>
      </trkpt>
      <trkpt lat="45.711183" lon="6.705491">
        <ele>2545.797</ele>
        <time>2018-07-14T15:56:08Z</time>
      </trkpt>
      <trkpt lat="45.711159" lon="6.705434">
        <ele>2545.350</ele>
        <time>2018-07-14T15:56:12Z</time>
      </trkpt>
      <trkpt lat="45.711130" lon="6.705374">
        <ele>2544.375</ele>
        <time>2018-07-14T15:56:18Z</time>
      </trkpt>
      <trkpt lat="45.711104" lon="6.705315">
        <ele>2543.321</ele>
        <time>2018-07-14T15:56:23Z</time>
      </trkpt>
      <trkpt lat="45.711075" lon="6.705254">
        <ele>2542.386</ele>
        <time>2018-07-14T15:56:29Z</time>
      </trkpt>
      <trkpt lat="45.711046" lon="6.705197">
        <ele>2541.322</ele>
        <time>2018-07-14T15:56:35Z</time>
      </trkpt>
      <trkpt lat="45.711025" lon="6.705136">
        <ele>2540.362</ele>
        <time>2018-07-14T15:56:44Z</time>
      </trkpt>
      <trkpt lat="45.710997" lon="6.705078">
        <ele>2538.908</ele>
        <time>2018-07-14T15:56:50Z</time>
      </trkpt>
      <trkpt lat="45.710970" lon="6.705021">
        <ele>2536.908</ele>
        <time>2018-07-14T15:56:58Z</time>
      </trkpt>
      <trkpt lat="45.710947" lon="6.704956">
        <ele>2535.784</ele>
        <time>2018-07-14T15:57:04Z</time>
      </trkpt>
      <trkpt lat="45.710926" lon="6.704890">
        <ele>2534.248</ele>
        <time>2018-07-14T15:57:09Z</time>
      </trkpt>
      <trkpt lat="45.710896" lon="6.704828">
        <ele>2533.328</ele>
        <time>2018-07-14T15:57:14Z</time>
      </trkpt>
      <trkpt lat="45.710866" lon="6.704772">
        <ele>2532.335</ele>
        <time>2018-07-14T15:57:20Z</time>
      </trkpt>
      <trkpt lat="45.710834" lon="6.704712">
        <ele>2531.378</ele>
        <time>2018-07-14T15:57:26Z</time>
      </trkpt>
      <trkpt lat="45.710806" lon="6.704656">
        <ele>2530.723</ele>
        <time>2018-07-14T15:57:31Z</time>
      </trkpt>
      <trkpt lat="45.710774" lon="6.704605">
        <ele>2530.019</ele>
        <time>2018-07-14T15:57:36Z</time>
      </trkpt>
      <trkpt lat="45.710745" lon="6.704551">
        <ele>2529.234</ele>
        <time>2018-07-14T15:57:41Z</time>
      </trkpt>
      <trkpt lat="45.710714" lon="6.704489">
        <ele>2528.338</ele>
        <time>2018-07-14T15:57:46Z</time>
      </trkpt>
      <trkpt lat="45.710685" lon="6.704427">
        <ele>2527.470</ele>
        <time>2018-07-14T15:57:52Z</time>
      </trkpt>
      <trkpt lat="45.710664" lon="6.704361">
        <ele>2526.017</ele>
        <time>2018-07-14T15:57:58Z</time>
      </trkpt>
      <trkpt lat="45.710643" lon="6.704292">
        <ele>2524.808</ele>
        <time>2018-07-14T15:58:04Z</time>
      </trkpt>
      <trkpt lat="45.710618" lon="6.704232">
        <ele>2523.775</ele>
        <time>2018-07-14T15:58:09Z</time>
      </trkpt>
      <trkpt lat="45.710591" lon="6.704176">
        <ele>2522.689</ele>
        <time>2018-07-14T15:58:14Z</time>
      </trkpt>
      <trkpt lat="45.710566" lon="6.704119">
        <ele>2521.679</ele>
        <time>2018-07-14T15:58:20Z</time>
      </trkpt>
      <trkpt lat="45.710544" lon="6.704056">
        <ele>2520.656</ele>
        <time>2018-07-14T15:58:27Z</time>
      </trkpt>
      <trkpt lat="45.710524" lon="6.703996">
        <ele>2519.269</ele>
        <time>2018-07-14T15:58:32Z</time>
      </trkpt>
      <trkpt lat="45.710508" lon="6.703932">
        <ele>2517.944</ele>
        <time>2018-07-14T15:58:37Z</time>
      </trkpt>
      <trkpt lat="45.710491" lon="6.703864">
        <ele>2516.790</ele>
        <time>2018-07-14T15:58:43Z</time>
      </trkpt>
      <trkpt lat="45.710472" lon="6.703798">
        <ele>2515.675</ele>
        <time>2018-07-14T15:58:50Z</time>
      </trkpt>
      <trkpt lat="45.710453" lon="6.703732">
        <ele>2514.539</ele>
        <time>2018-07-14T15:58:57Z</time>
      </trkpt>
      <trkpt lat="45.710436" lon="6.703669">
        <ele>2513.101</ele>
        <time>2018-07-14T15:59:03Z</time>
      </trkpt>
      <trkpt lat="45.710416" lon="6.703600">
        <ele>2511.821</ele>
        <time>2018-07-14T15:59:09Z</time>
      </trkpt>
      <trkpt lat="45.710397" lon="6.703533">
        <ele>2510.608</ele>
        <time>2018-07-14T15:59:16Z</time>
      </trkpt>
      <trkpt lat="45.710374" lon="6.703469">
        <ele>2509.115</ele>
        <time>2018-07-14T15:59:23Z</time>
      </trkpt>
      <trkpt lat="45.710359" lon="6.703408">
        <ele>2507.849</ele>
        <time>2018-07-14T15:59:30Z</time>
      </trkpt>
      <trkpt lat="45.710340" lon="6.703338">
        <ele>2506.699</ele>
        <time>2018-07-14T15:59:36Z</time>
      </trkpt>
      <trkpt lat="45.710320" lon="6.703272">
        <ele>2505.946</ele>
        <time>2018-07-14T15:59:41Z</time>
      </trkpt>
      <trkpt lat="45.710298" lon="6.703204">
        <ele>2505.149</ele>
        <time>2018-07-14T15:59:46Z</time>
      </trkpt>
      <trkpt lat="45.710274" lon="6.703147">
        <ele>2503.474</ele>
        <time>2018-07-14T15:59:52Z</time>
      </trkpt>
      <trkpt lat="45.710250" lon="6.703083">
        <ele>2502.040</ele>
        <time>2018-07-14T15:59:58Z</time>
      </trkpt>
      <trkpt lat="45.710230" lon="6.703023">
        <ele>2500.885</ele>
        <time>2018-07-14T16:00:04Z</time>
      </trkpt>
      <trkpt lat="45.710206" lon="6.702960">
        <ele>2499.726</ele>
        <time>2018-07-14T16:00:11Z</time>
      </trkpt>
      <trkpt lat="45.710181" lon="6.702898">
        <ele>2498.247</ele>
        <time>2018-07-14T16:00:19Z</time>
      </trkpt>
      <trkpt lat="45.710160" lon="6.702838">
        <ele>2496.911</ele>
        <time>2018-07-14T16:00:26Z</time>
      </trkpt>
      <trkpt lat="45.710143" lon="6.702777">
        <ele>2495.708</ele>
        <time>2018-07-14T16:00:32Z</time>
      </trkpt>
      <trkpt lat="45.710131" lon="6.702711">
        <ele>2495.034</ele>
        <time>2018-07-14T16:00:40Z</time>
      </trkpt>
      <trkpt lat="45.710117" lon="6.702636">
        <ele>2494.618</ele>
        <time>2018-07-14T16:00:47Z</time>
      </trkpt>
      <trkpt lat="45.710105" lon="6.702567">
        <ele>2493.958</ele>
        <time>2018-07-14T16:00:57Z</time>
      </trkpt>
      <trkpt lat="45.710096" lon="6.702502">
        <ele>2493.155</ele>
        <time>2018-07-14T16:01:05Z</time>
      </trkpt>
      <trkpt lat="45.710071" lon="6.702445">
        <ele>2491.818</ele>
        <time>2018-07-14T16:01:14Z</time>
      </trkpt>
      <trkpt lat="45.710056" lon="6.702377">
        <ele>2491.043</ele>
        <time>2018-07-14T16:01:21Z</time>
      </trkpt>
      <trkpt lat="45.710022" lon="6.702424">
        <ele>2488.989</ele>
        <time>2018-07-14T16:01:40Z</time>
      </trkpt>
      <trkpt lat="45.710017" lon="6.702496">
        <ele>2487.354</ele>
        <time>2018-07-14T16:01:45Z</time>
      </trkpt>
      <trkpt lat="45.709974" lon="6.702463">
        <ele>2485.562</ele>
        <time>2018-07-14T16:02:00Z</time>
      </trkpt>
      <trkpt lat="45.709961" lon="6.702392">
        <ele>2484.083</ele>
        <time>2018-07-14T16:02:06Z</time>
      </trkpt>
      <trkpt lat="45.709958" lon="6.702323">
        <ele>2482.711</ele>
        <time>2018-07-14T16:02:11Z</time>
      </trkpt>
      <trkpt lat="45.709964" lon="6.702253">
        <ele>2481.908</ele>
        <time>2018-07-14T16:02:16Z</time>
      </trkpt>
      <trkpt lat="45.709967" lon="6.702181">
        <ele>2481.428</ele>
        <time>2018-07-14T16:02:21Z</time>
      </trkpt>
      <trkpt lat="45.709954" lon="6.702118">
        <ele>2480.772</ele>
        <time>2018-07-14T16:02:28Z</time>
      </trkpt>
      <trkpt lat="45.709936" lon="6.702053">
        <ele>2479.932</ele>
        <time>2018-07-14T16:02:35Z</time>
      </trkpt>
      <trkpt lat="45.709916" lon="6.701989">
        <ele>2479.819</ele>
        <time>2018-07-14T16:02:40Z</time>
      </trkpt>
      <trkpt lat="45.709915" lon="6.701920">
        <ele>2478.912</ele>
        <time>2018-07-14T16:02:50Z</time>
      </trkpt>
      <trkpt lat="45.709893" lon="6.701844">
        <ele>2478.097</ele>
        <time>2018-07-14T16:02:57Z</time>
      </trkpt>
      <trkpt lat="45.709884" lon="6.701770">
        <ele>2476.723</ele>
        <time>2018-07-14T16:03:04Z</time>
      </trkpt>
      <trkpt lat="45.709860" lon="6.701705">
        <ele>2475.568</ele>
        <time>2018-07-14T16:03:09Z</time>
      </trkpt>
      <trkpt lat="45.709842" lon="6.701640">
        <ele>2474.834</ele>
        <time>2018-07-14T16:03:16Z</time>
      </trkpt>
      <trkpt lat="45.709820" lon="6.701581">
        <ele>2474.055</ele>
        <time>2018-07-14T16:03:26Z</time>
      </trkpt>
      <trkpt lat="45.709806" lon="6.701517">
        <ele>2473.510</ele>
        <time>2018-07-14T16:03:30Z</time>
      </trkpt>
      <trkpt lat="45.709785" lon="6.701451">
        <ele>2472.408</ele>
        <time>2018-07-14T16:03:34Z</time>
      </trkpt>
      <trkpt lat="45.709757" lon="6.701388">
        <ele>2472.165</ele>
        <time>2018-07-14T16:03:40Z</time>
      </trkpt>
      <trkpt lat="45.709737" lon="6.701318">
        <ele>2471.529</ele>
        <time>2018-07-14T16:03:45Z</time>
      </trkpt>
      <trkpt lat="45.709715" lon="6.701244">
        <ele>2471.269</ele>
        <time>2018-07-14T16:03:50Z</time>
      </trkpt>
      <trkpt lat="45.709695" lon="6.701173">
        <ele>2471.436</ele>
        <time>2018-07-14T16:03:55Z</time>
      </trkpt>
      <trkpt lat="45.709677" lon="6.701097">
        <ele>2471.939</ele>
        <time>2018-07-14T16:04:00Z</time>
      </trkpt>
      <trkpt lat="45.709663" lon="6.701021">
        <ele>2472.264</ele>
        <time>2018-07-14T16:04:05Z</time>
      </trkpt>
      <trkpt lat="45.709643" lon="6.700949">
        <ele>2472.880</ele>
        <time>2018-07-14T16:04:10Z</time>
      </trkpt>
      <trkpt lat="45.709629" lon="6.700877">
        <ele>2473.255</ele>
        <time>2018-07-14T16:04:15Z</time>
      </trkpt>
      <trkpt lat="45.709613" lon="6.700803">
        <ele>2473.893</ele>
        <time>2018-07-14T16:04:20Z</time>
      </trkpt>
      <trkpt lat="45.709600" lon="6.700731">
        <ele>2474.665</ele>
        <time>2018-07-14T16:04:25Z</time>
      </trkpt>
      <trkpt lat="45.709585" lon="6.700668">
        <ele>2475.121</ele>
        <time>2018-07-14T16:04:30Z</time>
      </trkpt>
      <trkpt lat="45.709569" lon="6.700598">
        <ele>2475.408</ele>
        <time>2018-07-14T16:04:35Z</time>
      </trkpt>
      <trkpt lat="45.709545" lon="6.700532">
        <ele>2475.221</ele>
        <time>2018-07-14T16:04:40Z</time>
      </trkpt>
      <trkpt lat="45.709517" lon="6.700463">
        <ele>2475.135</ele>
        <time>2018-07-14T16:04:45Z</time>
      </trkpt>
      <trkpt lat="45.709494" lon="6.700398">
        <ele>2475.065</ele>
        <time>2018-07-14T16:04:50Z</time>
      </trkpt>
      <trkpt lat="45.709473" lon="6.700328">
        <ele>2474.942</ele>
        <time>2018-07-14T16:04:55Z</time>
      </trkpt>
      <trkpt lat="45.709457" lon="6.700267">
        <ele>2474.995</ele>
        <time>2018-07-14T16:04:59Z</time>
      </trkpt>
      <trkpt lat="45.709444" lon="6.700191">
        <ele>2475.330</ele>
        <time>2018-07-14T16:05:04Z</time>
      </trkpt>
      <trkpt lat="45.709425" lon="6.700123">
        <ele>2475.986</ele>
        <time>2018-07-14T16:05:09Z</time>
      </trkpt>
      <trkpt lat="45.709400" lon="6.700054">
        <ele>2476.371</ele>
        <time>2018-07-14T16:05:14Z</time>
      </trkpt>
      <trkpt lat="45.709380" lon="6.699982">
        <ele>2476.964</ele>
        <time>2018-07-14T16:05:19Z</time>
      </trkpt>
      <trkpt lat="45.709362" lon="6.699918">
        <ele>2477.306</ele>
        <time>2018-07-14T16:05:24Z</time>
      </trkpt>
      <trkpt lat="45.709339" lon="6.699861">
        <ele>2477.916</ele>
        <time>2018-07-14T16:05:29Z</time>
      </trkpt>
      <trkpt lat="45.709352" lon="6.699798">
        <ele>2477.508</ele>
        <time>2018-07-14T16:05:40Z</time>
      </trkpt>
      <trkpt lat="45.709381" lon="6.699745">
        <ele>2474.438</ele>
        <time>2018-07-14T16:06:17Z</time>
      </trkpt>
      <trkpt lat="45.709400" lon="6.699811">
        <ele>2471.882</ele>
        <time>2018-07-14T16:06:29Z</time>
      </trkpt>
      <trkpt lat="45.709408" lon="6.699878">
        <ele>2469.012</ele>
        <time>2018-07-14T16:06:37Z</time>
      </trkpt>
      <trkpt lat="45.709418" lon="6.699953">
        <ele>2466.549</ele>
        <time>2018-07-14T16:06:44Z</time>
      </trkpt>
      <trkpt lat="45.709431" lon="6.700021">
        <ele>2464.632</ele>
        <time>2018-07-14T16:06:50Z</time>
      </trkpt>
      <trkpt lat="45.709457" lon="6.700074">
        <ele>2463.197</ele>
        <time>2018-07-14T16:06:56Z</time>
      </trkpt>
      <trkpt lat="45.709477" lon="6.700136">
        <ele>2461.093</ele>
        <time>2018-07-14T16:07:03Z</time>
      </trkpt>
      <trkpt lat="45.709495" lon="6.700074">
        <ele>2459.378</ele>
        <time>2018-07-14T16:07:19Z</time>
      </trkpt>
      <trkpt lat="45.709490" lon="6.699999">
        <ele>2458.364</ele>
        <time>2018-07-14T16:07:24Z</time>
      </trkpt>
      <trkpt lat="45.709484" lon="6.699933">
        <ele>2457.306</ele>
        <time>2018-07-14T16:07:28Z</time>
      </trkpt>
      <trkpt lat="45.709483" lon="6.699858">
        <ele>2457.116</ele>
        <time>2018-07-14T16:07:33Z</time>
      </trkpt>
      <trkpt lat="45.709490" lon="6.699788">
        <ele>2457.008</ele>
        <time>2018-07-14T16:07:38Z</time>
      </trkpt>
      <trkpt lat="45.709504" lon="6.699719">
        <ele>2456.168</ele>
        <time>2018-07-14T16:07:45Z</time>
      </trkpt>
      <trkpt lat="45.709514" lon="6.699651">
        <ele>2454.812</ele>
        <time>2018-07-14T16:07:50Z</time>
      </trkpt>
      <trkpt lat="45.709521" lon="6.699582">
        <ele>2454.092</ele>
        <time>2018-07-14T16:07:54Z</time>
      </trkpt>
      <trkpt lat="45.709526" lon="6.699510">
        <ele>2453.189</ele>
        <time>2018-07-14T16:07:59Z</time>
      </trkpt>
      <trkpt lat="45.709530" lon="6.699444">
        <ele>2452.672</ele>
        <time>2018-07-14T16:08:04Z</time>
      </trkpt>
      <trkpt lat="45.709545" lon="6.699369">
        <ele>2451.977</ele>
        <time>2018-07-14T16:08:09Z</time>
      </trkpt>
      <trkpt lat="45.709551" lon="6.699293">
        <ele>2451.593</ele>
        <time>2018-07-14T16:08:14Z</time>
      </trkpt>
      <trkpt lat="45.709551" lon="6.699218">
        <ele>2450.418</ele>
        <time>2018-07-14T16:08:19Z</time>
      </trkpt>
      <trkpt lat="45.709559" lon="6.699149">
        <ele>2449.481</ele>
        <time>2018-07-14T16:08:24Z</time>
      </trkpt>
      <trkpt lat="45.709570" lon="6.699074">
        <ele>2449.261</ele>
        <time>2018-07-14T16:08:30Z</time>
      </trkpt>
      <trkpt lat="45.709587" lon="6.699013">
        <ele>2447.917</ele>
        <time>2018-07-14T16:08:39Z</time>
      </trkpt>
      <trkpt lat="45.709608" lon="6.698943">
        <ele>2447.108</ele>
        <time>2018-07-14T16:08:48Z</time>
      </trkpt>
      <trkpt lat="45.709637" lon="6.698885">
        <ele>2445.820</ele>
        <time>2018-07-14T16:08:53Z</time>
      </trkpt>
      <trkpt lat="45.709666" lon="6.698819">
        <ele>2445.434</ele>
        <time>2018-07-14T16:08:58Z</time>
      </trkpt>
      <trkpt lat="45.709695" lon="6.698762">
        <ele>2444.464</ele>
        <time>2018-07-14T16:09:03Z</time>
      </trkpt>
      <trkpt lat="45.709722" lon="6.698706">
        <ele>2443.461</ele>
        <time>2018-07-14T16:09:09Z</time>
      </trkpt>
      <trkpt lat="45.709740" lon="6.698637">
        <ele>2442.824</ele>
        <time>2018-07-14T16:09:14Z</time>
      </trkpt>
      <trkpt lat="45.709749" lon="6.698571">
        <ele>2442.449</ele>
        <time>2018-07-14T16:09:19Z</time>
      </trkpt>
      <trkpt lat="45.709740" lon="6.698504">
        <ele>2442.255</ele>
        <time>2018-07-14T16:09:26Z</time>
      </trkpt>
      <trkpt lat="45.709703" lon="6.698454">
        <ele>2441.780</ele>
        <time>2018-07-14T16:09:33Z</time>
      </trkpt>
      <trkpt lat="45.709666" lon="6.698411">
        <ele>2439.878</ele>
        <time>2018-07-14T16:09:44Z</time>
      </trkpt>
      <trkpt lat="45.709634" lon="6.698359">
        <ele>2438.233</ele>
        <time>2018-07-14T16:09:56Z</time>
      </trkpt>
      <trkpt lat="45.709614" lon="6.698295">
        <ele>2436.926</ele>
        <time>2018-07-14T16:10:06Z</time>
      </trkpt>
      <trkpt lat="45.709586" lon="6.698238">
        <ele>2435.308</ele>
        <time>2018-07-14T16:10:14Z</time>
      </trkpt>
      <trkpt lat="45.709572" lon="6.698173">
        <ele>2434.379</ele>
        <time>2018-07-14T16:10:21Z</time>
      </trkpt>
      <trkpt lat="45.709561" lon="6.698104">
        <ele>2432.993</ele>
        <time>2018-07-14T16:10:30Z</time>
      </trkpt>
      <trkpt lat="45.709558" lon="6.698035">
        <ele>2431.333</ele>
        <time>2018-07-14T16:10:39Z</time>
      </trkpt>
      <trkpt lat="45.709554" lon="6.697970">
        <ele>2429.910</ele>
        <time>2018-07-14T16:10:47Z</time>
      </trkpt>
      <trkpt lat="45.709539" lon="6.697909">
        <ele>2428.383</ele>
        <time>2018-07-14T16:10:58Z</time>
      </trkpt>
      <trkpt lat="45.709537" lon="6.697836">
        <ele>2426.938</ele>
        <time>2018-07-14T16:11:04Z</time>
      </trkpt>
      <trkpt lat="45.709545" lon="6.697770">
        <ele>2425.754</ele>
        <time>2018-07-14T16:11:10Z</time>
      </trkpt>
      <trkpt lat="45.709555" lon="6.697697">
        <ele>2424.659</ele>
        <time>2018-07-14T16:11:17Z</time>
      </trkpt>
      <trkpt lat="45.709556" lon="6.697630">
        <ele>2423.584</ele>
        <time>2018-07-14T16:11:23Z</time>
      </trkpt>
      <trkpt lat="45.709555" lon="6.697564">
        <ele>2422.907</ele>
        <time>2018-07-14T16:11:29Z</time>
      </trkpt>
      <trkpt lat="45.709566" lon="6.697491">
        <ele>2422.117</ele>
        <time>2018-07-14T16:11:35Z</time>
      </trkpt>
      <trkpt lat="45.709574" lon="6.697420">
        <ele>2421.208</ele>
        <time>2018-07-14T16:11:41Z</time>
      </trkpt>
      <trkpt lat="45.709589" lon="6.697345">
        <ele>2420.750</ele>
        <time>2018-07-14T16:11:47Z</time>
      </trkpt>
      <trkpt lat="45.709601" lon="6.697274">
        <ele>2420.024</ele>
        <time>2018-07-14T16:11:53Z</time>
      </trkpt>
      <trkpt lat="45.709612" lon="6.697210">
        <ele>2419.684</ele>
        <time>2018-07-14T16:12:05Z</time>
      </trkpt>
      <trkpt lat="45.709618" lon="6.697146">
        <ele>2419.791</ele>
        <time>2018-07-14T16:12:11Z</time>
      </trkpt>
      <trkpt lat="45.709615" lon="6.697076">
        <ele>2419.844</ele>
        <time>2018-07-14T16:12:17Z</time>
      </trkpt>
      <trkpt lat="45.709607" lon="6.697004">
        <ele>2419.929</ele>
        <time>2018-07-14T16:12:22Z</time>
      </trkpt>
      <trkpt lat="45.709607" lon="6.696926">
        <ele>2420.385</ele>
        <time>2018-07-14T16:12:28Z</time>
      </trkpt>
      <trkpt lat="45.709611" lon="6.696855">
        <ele>2420.640</ele>
        <time>2018-07-14T16:12:33Z</time>
      </trkpt>
      <trkpt lat="45.709613" lon="6.696789">
        <ele>2420.497</ele>
        <time>2018-07-14T16:12:38Z</time>
      </trkpt>
      <trkpt lat="45.709624" lon="6.696714">
        <ele>2419.523</ele>
        <time>2018-07-14T16:12:44Z</time>
      </trkpt>
      <trkpt lat="45.709638" lon="6.696644">
        <ele>2419.325</ele>
        <time>2018-07-14T16:12:49Z</time>
      </trkpt>
      <trkpt lat="45.709646" lon="6.696580">
        <ele>2418.808</ele>
        <time>2018-07-14T16:12:54Z</time>
      </trkpt>
      <trkpt lat="45.709648" lon="6.696512">
        <ele>2417.731</ele>
        <time>2018-07-14T16:12:59Z</time>
      </trkpt>
      <trkpt lat="45.709643" lon="6.696443">
        <ele>2417.065</ele>
        <time>2018-07-14T16:13:03Z</time>
      </trkpt>
      <trkpt lat="45.709645" lon="6.696363">
        <ele>2415.855</ele>
        <time>2018-07-14T16:13:08Z</time>
      </trkpt>
      <trkpt lat="45.709654" lon="6.696284">
        <ele>2414.712</ele>
        <time>2018-07-14T16:13:13Z</time>
      </trkpt>
      <trkpt lat="45.709666" lon="6.696208">
        <ele>2413.685</ele>
        <time>2018-07-14T16:13:18Z</time>
      </trkpt>
      <trkpt lat="45.709682" lon="6.696144">
        <ele>2413.010</ele>
        <time>2018-07-14T16:13:22Z</time>
      </trkpt>
      <trkpt lat="45.709696" lon="6.696077">
        <ele>2412.266</ele>
        <time>2018-07-14T16:13:26Z</time>
      </trkpt>
      <trkpt lat="45.709710" lon="6.696011">
        <ele>2411.711</ele>
        <time>2018-07-14T16:13:30Z</time>
      </trkpt>
      <trkpt lat="45.709710" lon="6.695937">
        <ele>2411.446</ele>
        <time>2018-07-14T16:13:35Z</time>
      </trkpt>
      <trkpt lat="45.709699" lon="6.695868">
        <ele>2410.888</ele>
        <time>2018-07-14T16:13:47Z</time>
      </trkpt>
      <trkpt lat="45.709672" lon="6.695815">
        <ele>2410.516</ele>
        <time>2018-07-14T16:14:47Z</time>
      </trkpt>
      <trkpt lat="45.709634" lon="6.695769">
        <ele>2409.108</ele>
        <time>2018-07-14T16:14:56Z</time>
      </trkpt>
      <trkpt lat="45.709674" lon="6.695736">
        <ele>2407.516</ele>
        <time>2018-07-14T16:15:27Z</time>
      </trkpt>
      <trkpt lat="45.709721" lon="6.695747">
        <ele>2405.790</ele>
        <time>2018-07-14T16:15:33Z</time>
      </trkpt>
      <trkpt lat="45.709762" lon="6.695788">
        <ele>2404.630</ele>
        <time>2018-07-14T16:15:45Z</time>
      </trkpt>
      <trkpt lat="45.709796" lon="6.695839">
        <ele>2403.687</ele>
        <time>2018-07-14T16:15:53Z</time>
      </trkpt>
      <trkpt lat="45.709832" lon="6.695892">
        <ele>2401.810</ele>
        <time>2018-07-14T16:16:00Z</time>
      </trkpt>
      <trkpt lat="45.709862" lon="6.695948">
        <ele>2399.925</ele>
        <time>2018-07-14T16:16:07Z</time>
      </trkpt>
      <trkpt lat="45.709873" lon="6.696017">
        <ele>2398.871</ele>
        <time>2018-07-14T16:16:14Z</time>
      </trkpt>
      <trkpt lat="45.709910" lon="6.695967">
        <ele>2396.186</ele>
        <time>2018-07-14T16:16:31Z</time>
      </trkpt>
      <trkpt lat="45.709932" lon="6.695907">
        <ele>2393.334</ele>
        <time>2018-07-14T16:16:38Z</time>
      </trkpt>
      <trkpt lat="45.709957" lon="6.695846">
        <ele>2390.855</ele>
        <time>2018-07-14T16:16:46Z</time>
      </trkpt>
      <trkpt lat="45.709981" lon="6.695789">
        <ele>2388.910</ele>
        <time>2018-07-14T16:16:53Z</time>
      </trkpt>
      <trkpt lat="45.709996" lon="6.695726">
        <ele>2387.008</ele>
        <time>2018-07-14T16:17:00Z</time>
      </trkpt>
      <trkpt lat="45.710025" lon="6.695672">
        <ele>2384.675</ele>
        <time>2018-07-14T16:17:07Z</time>
      </trkpt>
      <trkpt lat="45.710057" lon="6.695611">
        <ele>2383.699</ele>
        <time>2018-07-14T16:17:13Z</time>
      </trkpt>
      <trkpt lat="45.710090" lon="6.695553">
        <ele>2383.019</ele>
        <time>2018-07-14T16:17:18Z</time>
      </trkpt>
      <trkpt lat="45.710112" lon="6.695490">
        <ele>2383.096</ele>
        <time>2018-07-14T16:17:23Z</time>
      </trkpt>
      <trkpt lat="45.710134" lon="6.695428">
        <ele>2383.479</ele>
        <time>2018-07-14T16:17:30Z</time>
      </trkpt>
      <trkpt lat="45.710157" lon="6.695365">
        <ele>2383.344</ele>
        <time>2018-07-14T16:17:36Z</time>
      </trkpt>
      <trkpt lat="45.710189" lon="6.695317">
        <ele>2383.220</ele>
        <time>2018-07-14T16:17:42Z</time>
      </trkpt>
      <trkpt lat="45.710220" lon="6.695259">
        <ele>2382.725</ele>
        <time>2018-07-14T16:17:48Z</time>
      </trkpt>
      <trkpt lat="45.710263" lon="6.695231">
        <ele>2382.434</ele>
        <time>2018-07-14T16:17:53Z</time>
      </trkpt>
      <trkpt lat="45.710310" lon="6.695218">
        <ele>2381.855</ele>
        <time>2018-07-14T16:17:59Z</time>
      </trkpt>
      <trkpt lat="45.710356" lon="6.695205">
        <ele>2381.110</ele>
        <time>2018-07-14T16:18:05Z</time>
      </trkpt>
      <trkpt lat="45.710402" lon="6.695192">
        <ele>2380.308</ele>
        <time>2018-07-14T16:18:18Z</time>
      </trkpt>
      <trkpt lat="45.710455" lon="6.695196">
        <ele>2379.055</ele>
        <time>2018-07-14T16:18:26Z</time>
      </trkpt>
      <trkpt lat="45.710501" lon="6.695188">
        <ele>2377.859</ele>
        <time>2018-07-14T16:18:31Z</time>
      </trkpt>
      <trkpt lat="45.710554" lon="6.695162">
        <ele>2376.759</ele>
        <time>2018-07-14T16:18:36Z</time>
      </trkpt>
      <trkpt lat="45.710599" lon="6.695141">
        <ele>2376.066</ele>
        <time>2018-07-14T16:18:40Z</time>
      </trkpt>
      <trkpt lat="45.710645" lon="6.695123">
        <ele>2375.269</ele>
        <time>2018-07-14T16:18:44Z</time>
      </trkpt>
      <trkpt lat="45.710690" lon="6.695107">
        <ele>2374.794</ele>
        <time>2018-07-14T16:18:48Z</time>
      </trkpt>
      <trkpt lat="45.710742" lon="6.695101">
        <ele>2374.050</ele>
        <time>2018-07-14T16:18:53Z</time>
      </trkpt>
      <trkpt lat="45.710792" lon="6.695103">
        <ele>2373.275</ele>
        <time>2018-07-14T16:18:58Z</time>
      </trkpt>
      <trkpt lat="45.710848" lon="6.695111">
        <ele>2372.719</ele>
        <time>2018-07-14T16:19:03Z</time>
      </trkpt>
      <trkpt lat="45.710893" lon="6.695109">
        <ele>2372.009</ele>
        <time>2018-07-14T16:19:07Z</time>
      </trkpt>
      <trkpt lat="45.710937" lon="6.695095">
        <ele>2371.219</ele>
        <time>2018-07-14T16:19:11Z</time>
      </trkpt>
      <trkpt lat="45.710972" lon="6.695040">
        <ele>2370.708</ele>
        <time>2018-07-14T16:19:16Z</time>
      </trkpt>
      <trkpt lat="45.710994" lon="6.694980">
        <ele>2370.413</ele>
        <time>2018-07-14T16:19:21Z</time>
      </trkpt>
      <trkpt lat="45.711035" lon="6.694938">
        <ele>2369.447</ele>
        <time>2018-07-14T16:19:27Z</time>
      </trkpt>
      <trkpt lat="45.711080" lon="6.694928">
        <ele>2368.027</ele>
        <time>2018-07-14T16:19:32Z</time>
      </trkpt>
      <trkpt lat="45.711124" lon="6.694901">
        <ele>2366.824</ele>
        <time>2018-07-14T16:19:37Z</time>
      </trkpt>
      <trkpt lat="45.711160" lon="6.694855">
        <ele>2365.787</ele>
        <time>2018-07-14T16:19:42Z</time>
      </trkpt>
      <trkpt lat="45.711197" lon="6.694807">
        <ele>2365.052</ele>
        <time>2018-07-14T16:19:47Z</time>
      </trkpt>
      <trkpt lat="45.711235" lon="6.694750">
        <ele>2364.698</ele>
        <time>2018-07-14T16:19:52Z</time>
      </trkpt>
      <trkpt lat="45.711272" lon="6.694704">
        <ele>2364.413</ele>
        <time>2018-07-14T16:19:56Z</time>
      </trkpt>
      <trkpt lat="45.711312" lon="6.694660">
        <ele>2364.334</ele>
        <time>2018-07-14T16:20:00Z</time>
      </trkpt>
      <trkpt lat="45.711346" lon="6.694615">
        <ele>2364.655</ele>
        <time>2018-07-14T16:20:04Z</time>
      </trkpt>
      <trkpt lat="45.711383" lon="6.694572">
        <ele>2364.810</ele>
        <time>2018-07-14T16:20:08Z</time>
      </trkpt>
      <trkpt lat="45.711413" lon="6.694519">
        <ele>2364.508</ele>
        <time>2018-07-14T16:20:12Z</time>
      </trkpt>
      <trkpt lat="45.711442" lon="6.694466">
        <ele>2364.385</ele>
        <time>2018-07-14T16:20:16Z</time>
      </trkpt>
      <trkpt lat="45.711484" lon="6.694435">
        <ele>2364.269</ele>
        <time>2018-07-14T16:20:20Z</time>
      </trkpt>
      <trkpt lat="45.711530" lon="6.694418">
        <ele>2364.139</ele>
        <time>2018-07-14T16:20:24Z</time>
      </trkpt>
      <trkpt lat="45.711581" lon="6.694391">
        <ele>2363.716</ele>
        <time>2018-07-14T16:20:29Z</time>
      </trkpt>
      <trkpt lat="45.711631" lon="6.694380">
        <ele>2363.419</ele>
        <time>2018-07-14T16:20:35Z</time>
      </trkpt>
      <trkpt lat="45.711676" lon="6.694400">
        <ele>2363.234</ele>
        <time>2018-07-14T16:21:20Z</time>
      </trkpt>
      <trkpt lat="45.711681" lon="6.694326">
        <ele>2362.790</ele>
        <time>2018-07-14T16:21:53Z</time>
      </trkpt>
      <trkpt lat="45.711655" lon="6.694269">
        <ele>2361.685</ele>
        <time>2018-07-14T16:22:00Z</time>
      </trkpt>
      <trkpt lat="45.711616" lon="6.694225">
        <ele>2360.528</ele>
        <time>2018-07-14T16:22:09Z</time>
      </trkpt>
      <trkpt lat="45.711597" lon="6.694165">
        <ele>2359.589</ele>
        <time>2018-07-14T16:22:15Z</time>
      </trkpt>
      <trkpt lat="45.711573" lon="6.694100">
        <ele>2358.917</ele>
        <time>2018-07-14T16:22:21Z</time>
      </trkpt>
      <trkpt lat="45.711540" lon="6.694043">
        <ele>2358.908</ele>
        <time>2018-07-14T16:22:26Z</time>
      </trkpt>
      <trkpt lat="45.711514" lon="6.693991">
        <ele>2358.954</ele>
        <time>2018-07-14T16:22:30Z</time>
      </trkpt>
      <trkpt lat="45.711482" lon="6.693941">
        <ele>2358.958</ele>
        <time>2018-07-14T16:22:34Z</time>
      </trkpt>
      <trkpt lat="45.711441" lon="6.693889">
        <ele>2358.998</ele>
        <time>2018-07-14T16:22:39Z</time>
      </trkpt>
      <trkpt lat="45.711405" lon="6.693834">
        <ele>2358.925</ele>
        <time>2018-07-14T16:22:44Z</time>
      </trkpt>
      <trkpt lat="45.711362" lon="6.693784">
        <ele>2358.938</ele>
        <time>2018-07-14T16:22:49Z</time>
      </trkpt>
      <trkpt lat="45.711324" lon="6.693729">
        <ele>2358.543</ele>
        <time>2018-07-14T16:22:55Z</time>
      </trkpt>
      <trkpt lat="45.711289" lon="6.693674">
        <ele>2358.319</ele>
        <time>2018-07-14T16:23:00Z</time>
      </trkpt>
      <trkpt lat="45.711257" lon="6.693615">
        <ele>2358.294</ele>
        <time>2018-07-14T16:23:05Z</time>
      </trkpt>
      <trkpt lat="45.711229" lon="6.693564">
        <ele>2357.771</ele>
        <time>2018-07-14T16:23:09Z</time>
      </trkpt>
      <trkpt lat="45.711195" lon="6.693514">
        <ele>2357.441</ele>
        <time>2018-07-14T16:23:13Z</time>
      </trkpt>
      <trkpt lat="45.711152" lon="6.693464">
        <ele>2357.215</ele>
        <time>2018-07-14T16:23:18Z</time>
      </trkpt>
      <trkpt lat="45.711108" lon="6.693417">
        <ele>2357.108</ele>
        <time>2018-07-14T16:23:23Z</time>
      </trkpt>
      <trkpt lat="45.711072" lon="6.693366">
        <ele>2357.069</ele>
        <time>2018-07-14T16:23:28Z</time>
      </trkpt>
      <trkpt lat="45.711040" lon="6.693317">
        <ele>2356.673</ele>
        <time>2018-07-14T16:23:33Z</time>
      </trkpt>
      <trkpt lat="45.711013" lon="6.693264">
        <ele>2356.393</ele>
        <time>2018-07-14T16:23:38Z</time>
      </trkpt>
      <trkpt lat="45.710976" lon="6.693213">
        <ele>2355.750</ele>
        <time>2018-07-14T16:23:44Z</time>
      </trkpt>
      <trkpt lat="45.710931" lon="6.693171">
        <ele>2355.063</ele>
        <time>2018-07-14T16:23:50Z</time>
      </trkpt>
      <trkpt lat="45.710896" lon="6.693126">
        <ele>2354.668</ele>
        <time>2018-07-14T16:23:54Z</time>
      </trkpt>
      <trkpt lat="45.710860" lon="6.693082">
        <ele>2354.374</ele>
        <time>2018-07-14T16:23:58Z</time>
      </trkpt>
      <trkpt lat="45.710821" lon="6.693030">
        <ele>2354.139</ele>
        <time>2018-07-14T16:24:03Z</time>
      </trkpt>
      <trkpt lat="45.710779" lon="6.692985">
        <ele>2354.044</ele>
        <time>2018-07-14T16:24:09Z</time>
      </trkpt>
      <trkpt lat="45.710727" lon="6.692973">
        <ele>2353.505</ele>
        <time>2018-07-14T16:24:16Z</time>
      </trkpt>
      <trkpt lat="45.710672" lon="6.692974">
        <ele>2353.215</ele>
        <time>2018-07-14T16:24:21Z</time>
      </trkpt>
      <trkpt lat="45.710624" lon="6.692952">
        <ele>2352.608</ele>
        <time>2018-07-14T16:24:26Z</time>
      </trkpt>
      <trkpt lat="45.710570" lon="6.692943">
        <ele>2351.976</ele>
        <time>2018-07-14T16:24:31Z</time>
      </trkpt>
      <trkpt lat="45.710531" lon="6.692912">
        <ele>2351.560</ele>
        <time>2018-07-14T16:24:35Z</time>
      </trkpt>
      <trkpt lat="45.710478" lon="6.692882">
        <ele>2350.460</ele>
        <time>2018-07-14T16:24:40Z</time>
      </trkpt>
      <trkpt lat="45.710437" lon="6.692855">
        <ele>2349.837</ele>
        <time>2018-07-14T16:24:44Z</time>
      </trkpt>
      <trkpt lat="45.710395" lon="6.692808">
        <ele>2349.030</ele>
        <time>2018-07-14T16:24:49Z</time>
      </trkpt>
      <trkpt lat="45.710367" lon="6.692754">
        <ele>2348.585</ele>
        <time>2018-07-14T16:24:54Z</time>
      </trkpt>
      <trkpt lat="45.710343" lon="6.692690">
        <ele>2347.431</ele>
        <time>2018-07-14T16:24:59Z</time>
      </trkpt>
      <trkpt lat="45.710325" lon="6.692625">
        <ele>2346.866</ele>
        <time>2018-07-14T16:25:04Z</time>
      </trkpt>
      <trkpt lat="45.710300" lon="6.692565">
        <ele>2346.414</ele>
        <time>2018-07-14T16:25:09Z</time>
      </trkpt>
      <trkpt lat="45.710276" lon="6.692509">
        <ele>2346.254</ele>
        <time>2018-07-14T16:25:13Z</time>
      </trkpt>
      <trkpt lat="45.710250" lon="6.692450">
        <ele>2345.709</ele>
        <time>2018-07-14T16:25:17Z</time>
      </trkpt>
      <trkpt lat="45.710222" lon="6.692389">
        <ele>2345.408</ele>
        <time>2018-07-14T16:25:21Z</time>
      </trkpt>
      <trkpt lat="45.710194" lon="6.692334">
        <ele>2345.243</ele>
        <time>2018-07-14T16:25:25Z</time>
      </trkpt>
      <trkpt lat="45.710164" lon="6.692280">
        <ele>2344.777</ele>
        <time>2018-07-14T16:25:29Z</time>
      </trkpt>
      <trkpt lat="45.710132" lon="6.692216">
        <ele>2344.497</ele>
        <time>2018-07-14T16:25:34Z</time>
      </trkpt>
      <trkpt lat="45.710105" lon="6.692157">
        <ele>2343.874</ele>
        <time>2018-07-14T16:25:38Z</time>
      </trkpt>
      <trkpt lat="45.710080" lon="6.692095">
        <ele>2343.027</ele>
        <time>2018-07-14T16:25:42Z</time>
      </trkpt>
      <trkpt lat="45.710051" lon="6.692035">
        <ele>2342.572</ele>
        <time>2018-07-14T16:25:46Z</time>
      </trkpt>
      <trkpt lat="45.710023" lon="6.691980">
        <ele>2341.858</ele>
        <time>2018-07-14T16:25:50Z</time>
      </trkpt>
      <trkpt lat="45.709999" lon="6.691921">
        <ele>2341.443</ele>
        <time>2018-07-14T16:25:54Z</time>
      </trkpt>
      <trkpt lat="45.709979" lon="6.691850">
        <ele>2341.296</ele>
        <time>2018-07-14T16:25:59Z</time>
      </trkpt>
      <trkpt lat="45.709969" lon="6.691784">
        <ele>2340.731</ele>
        <time>2018-07-14T16:26:03Z</time>
      </trkpt>
      <trkpt lat="45.709957" lon="6.691722">
        <ele>2340.424</ele>
        <time>2018-07-14T16:26:07Z</time>
      </trkpt>
      <trkpt lat="45.709934" lon="6.691664">
        <ele>2340.208</ele>
        <time>2018-07-14T16:26:11Z</time>
      </trkpt>
      <trkpt lat="45.709898" lon="6.691612">
        <ele>2339.781</ele>
        <time>2018-07-14T16:26:16Z</time>
      </trkpt>
      <trkpt lat="45.709864" lon="6.691548">
        <ele>2339.095</ele>
        <time>2018-07-14T16:26:21Z</time>
      </trkpt>
      <trkpt lat="45.709834" lon="6.691493">
        <ele>2338.695</ele>
        <time>2018-07-14T16:26:25Z</time>
      </trkpt>
      <trkpt lat="45.709814" lon="6.691435">
        <ele>2337.992</ele>
        <time>2018-07-14T16:26:29Z</time>
      </trkpt>
      <trkpt lat="45.709821" lon="6.691359">
        <ele>2337.565</ele>
        <time>2018-07-14T16:26:34Z</time>
      </trkpt>
      <trkpt lat="45.709856" lon="6.691296">
        <ele>2336.920</ele>
        <time>2018-07-14T16:26:39Z</time>
      </trkpt>
      <trkpt lat="45.709897" lon="6.691242">
        <ele>2336.516</ele>
        <time>2018-07-14T16:26:44Z</time>
      </trkpt>
      <trkpt lat="45.709921" lon="6.691174">
        <ele>2336.321</ele>
        <time>2018-07-14T16:26:49Z</time>
      </trkpt>
      <trkpt lat="45.709937" lon="6.691112">
        <ele>2335.828</ele>
        <time>2018-07-14T16:26:53Z</time>
      </trkpt>
      <trkpt lat="45.709966" lon="6.691056">
        <ele>2335.589</ele>
        <time>2018-07-14T16:26:56Z</time>
      </trkpt>
      <trkpt lat="45.709984" lon="6.690981">
        <ele>2335.717</ele>
        <time>2018-07-14T16:27:00Z</time>
      </trkpt>
      <trkpt lat="45.710004" lon="6.690921">
        <ele>2335.408</ele>
        <time>2018-07-14T16:27:04Z</time>
      </trkpt>
      <trkpt lat="45.710024" lon="6.690862">
        <ele>2335.294</ele>
        <time>2018-07-14T16:27:08Z</time>
      </trkpt>
      <trkpt lat="45.710045" lon="6.690791">
        <ele>2335.118</ele>
        <time>2018-07-14T16:27:13Z</time>
      </trkpt>
      <trkpt lat="45.710076" lon="6.690729">
        <ele>2334.688</ele>
        <time>2018-07-14T16:27:18Z</time>
      </trkpt>
      <trkpt lat="45.710090" lon="6.690660">
        <ele>2334.315</ele>
        <time>2018-07-14T16:27:22Z</time>
      </trkpt>
      <trkpt lat="45.710089" lon="6.690591">
        <ele>2334.158</ele>
        <time>2018-07-14T16:27:26Z</time>
      </trkpt>
      <trkpt lat="45.710088" lon="6.690510">
        <ele>2334.053</ele>
        <time>2018-07-14T16:27:31Z</time>
      </trkpt>
      <trkpt lat="45.710074" lon="6.690443">
        <ele>2333.989</ele>
        <time>2018-07-14T16:27:36Z</time>
      </trkpt>
      <trkpt lat="45.710069" lon="6.690371">
        <ele>2333.124</ele>
        <time>2018-07-14T16:27:42Z</time>
      </trkpt>
      <trkpt lat="45.710067" lon="6.690297">
        <ele>2332.657</ele>
        <time>2018-07-14T16:27:47Z</time>
      </trkpt>
      <trkpt lat="45.710062" lon="6.690230">
        <ele>2331.900</ele>
        <time>2018-07-14T16:27:51Z</time>
      </trkpt>
      <trkpt lat="45.710052" lon="6.690165">
        <ele>2331.520</ele>
        <time>2018-07-14T16:27:55Z</time>
      </trkpt>
      <trkpt lat="45.710039" lon="6.690100">
        <ele>2331.208</ele>
        <time>2018-07-14T16:27:59Z</time>
      </trkpt>
      <trkpt lat="45.710017" lon="6.690041">
        <ele>2331.437</ele>
        <time>2018-07-14T16:28:03Z</time>
      </trkpt>
      <trkpt lat="45.709980" lon="6.689981">
        <ele>2331.141</ele>
        <time>2018-07-14T16:28:08Z</time>
      </trkpt>
      <trkpt lat="45.709943" lon="6.689943">
        <ele>2330.991</ele>
        <time>2018-07-14T16:28:12Z</time>
      </trkpt>
      <trkpt lat="45.709900" lon="6.689922">
        <ele>2330.878</ele>
        <time>2018-07-14T16:28:16Z</time>
      </trkpt>
      <trkpt lat="45.709854" lon="6.689919">
        <ele>2330.761</ele>
        <time>2018-07-14T16:28:20Z</time>
      </trkpt>
      <trkpt lat="45.709806" lon="6.689914">
        <ele>2330.366</ele>
        <time>2018-07-14T16:28:24Z</time>
      </trkpt>
      <trkpt lat="45.709755" lon="6.689897">
        <ele>2329.242</ele>
        <time>2018-07-14T16:28:29Z</time>
      </trkpt>
      <trkpt lat="45.709712" lon="6.689872">
        <ele>2328.277</ele>
        <time>2018-07-14T16:28:33Z</time>
      </trkpt>
      <trkpt lat="45.709676" lon="6.689828">
        <ele>2327.676</ele>
        <time>2018-07-14T16:28:37Z</time>
      </trkpt>
      <trkpt lat="45.709642" lon="6.689765">
        <ele>2326.890</ele>
        <time>2018-07-14T16:28:42Z</time>
      </trkpt>
      <trkpt lat="45.709615" lon="6.689696">
        <ele>2326.319</ele>
        <time>2018-07-14T16:28:47Z</time>
      </trkpt>
      <trkpt lat="45.709600" lon="6.689623">
        <ele>2325.608</ele>
        <time>2018-07-14T16:28:52Z</time>
      </trkpt>
      <trkpt lat="45.709595" lon="6.689547">
        <ele>2324.859</ele>
        <time>2018-07-14T16:28:57Z</time>
      </trkpt>
      <trkpt lat="45.709595" lon="6.689477">
        <ele>2323.963</ele>
        <time>2018-07-14T16:29:01Z</time>
      </trkpt>
      <trkpt lat="45.709604" lon="6.689408">
        <ele>2323.413</ele>
        <time>2018-07-14T16:29:05Z</time>
      </trkpt>
      <trkpt lat="45.709617" lon="6.689344">
        <ele>2322.790</ele>
        <time>2018-07-14T16:29:09Z</time>
      </trkpt>
      <trkpt lat="45.709633" lon="6.689284">
        <ele>2321.993</ele>
        <time>2018-07-14T16:29:13Z</time>
      </trkpt>
      <trkpt lat="45.709642" lon="6.689206">
        <ele>2321.428</ele>
        <time>2018-07-14T16:29:18Z</time>
      </trkpt>
      <trkpt lat="45.709648" lon="6.689134">
        <ele>2321.144</ele>
        <time>2018-07-14T16:29:23Z</time>
      </trkpt>
      <trkpt lat="45.709642" lon="6.689061">
        <ele>2321.389</ele>
        <time>2018-07-14T16:29:28Z</time>
      </trkpt>
      <trkpt lat="45.709612" lon="6.689012">
        <ele>2321.492</ele>
        <time>2018-07-14T16:29:33Z</time>
      </trkpt>
      <trkpt lat="45.709565" lon="6.688983">
        <ele>2320.773</ele>
        <time>2018-07-14T16:29:39Z</time>
      </trkpt>
      <trkpt lat="45.709526" lon="6.688934">
        <ele>2319.920</ele>
        <time>2018-07-14T16:29:45Z</time>
      </trkpt>
      <trkpt lat="45.709496" lon="6.688875">
        <ele>2319.008</ele>
        <time>2018-07-14T16:29:51Z</time>
      </trkpt>
      <trkpt lat="45.709467" lon="6.688820">
        <ele>2317.751</ele>
        <time>2018-07-14T16:29:57Z</time>
      </trkpt>
      <trkpt lat="45.709432" lon="6.688773">
        <ele>2316.965</ele>
        <time>2018-07-14T16:30:01Z</time>
      </trkpt>
      <trkpt lat="45.709407" lon="6.688707">
        <ele>2316.075</ele>
        <time>2018-07-14T16:30:07Z</time>
      </trkpt>
      <trkpt lat="45.709358" lon="6.688680">
        <ele>2314.782</ele>
        <time>2018-07-14T16:30:13Z</time>
      </trkpt>
      <trkpt lat="45.709312" lon="6.688679">
        <ele>2313.585</ele>
        <time>2018-07-14T16:30:17Z</time>
      </trkpt>
      <trkpt lat="45.709276" lon="6.688633">
        <ele>2313.670</ele>
        <time>2018-07-14T16:30:32Z</time>
      </trkpt>
      <trkpt lat="45.709263" lon="6.688564">
        <ele>2313.216</ele>
        <time>2018-07-14T16:30:37Z</time>
      </trkpt>
      <trkpt lat="45.709252" lon="6.688500">
        <ele>2312.621</ele>
        <time>2018-07-14T16:30:42Z</time>
      </trkpt>
      <trkpt lat="45.709243" lon="6.688422">
        <ele>2311.845</ele>
        <time>2018-07-14T16:30:47Z</time>
      </trkpt>
      <trkpt lat="45.709221" lon="6.688351">
        <ele>2310.947</ele>
        <time>2018-07-14T16:30:54Z</time>
      </trkpt>
      <trkpt lat="45.709188" lon="6.688301">
        <ele>2310.011</ele>
        <time>2018-07-14T16:31:06Z</time>
      </trkpt>
      <trkpt lat="45.709170" lon="6.688230">
        <ele>2309.508</ele>
        <time>2018-07-14T16:31:13Z</time>
      </trkpt>
      <trkpt lat="45.709145" lon="6.688174">
        <ele>2308.826</ele>
        <time>2018-07-14T16:31:22Z</time>
      </trkpt>
      <trkpt lat="45.709119" lon="6.688117">
        <ele>2308.440</ele>
        <time>2018-07-14T16:31:30Z</time>
      </trkpt>
      <trkpt lat="45.709072" lon="6.688087">
        <ele>2307.380</ele>
        <time>2018-07-14T16:31:36Z</time>
      </trkpt>
      <trkpt lat="45.709033" lon="6.688053">
        <ele>2306.787</ele>
        <time>2018-07-14T16:31:43Z</time>
      </trkpt>
      <trkpt lat="45.708991" lon="6.688015">
        <ele>2305.560</ele>
        <time>2018-07-14T16:31:52Z</time>
      </trkpt>
      <trkpt lat="45.708963" lon="6.687960">
        <ele>2304.055</ele>
        <time>2018-07-14T16:31:59Z</time>
      </trkpt>
      <trkpt lat="45.708935" lon="6.687907">
        <ele>2302.741</ele>
        <time>2018-07-14T16:32:06Z</time>
      </trkpt>
      <trkpt lat="45.708907" lon="6.687848">
        <ele>2301.556</ele>
        <time>2018-07-14T16:32:12Z</time>
      </trkpt>
      <trkpt lat="45.708890" lon="6.687778">
        <ele>2300.494</ele>
        <time>2018-07-14T16:32:18Z</time>
      </trkpt>
      <trkpt lat="45.708877" lon="6.687707">
        <ele>2299.357</ele>
        <time>2018-07-14T16:32:25Z</time>
      </trkpt>
      <trkpt lat="45.708842" lon="6.687664">
        <ele>2298.322</ele>
        <time>2018-07-14T16:32:32Z</time>
      </trkpt>
      <trkpt lat="45.708803" lon="6.687626">
        <ele>2297.308</ele>
        <time>2018-07-14T16:32:38Z</time>
      </trkpt>
      <trkpt lat="45.708768" lon="6.687581">
        <ele>2295.921</ele>
        <time>2018-07-14T16:32:43Z</time>
      </trkpt>
      <trkpt lat="45.708742" lon="6.687526">
        <ele>2295.195</ele>
        <time>2018-07-14T16:32:48Z</time>
      </trkpt>
      <trkpt lat="45.708712" lon="6.687473">
        <ele>2294.695</ele>
        <time>2018-07-14T16:32:53Z</time>
      </trkpt>
      <trkpt lat="45.708681" lon="6.687417">
        <ele>2293.922</ele>
        <time>2018-07-14T16:32:59Z</time>
      </trkpt>
      <trkpt lat="45.708659" lon="6.687359">
        <ele>2292.735</ele>
        <time>2018-07-14T16:33:06Z</time>
      </trkpt>
      <trkpt lat="45.708635" lon="6.687299">
        <ele>2292.070</ele>
        <time>2018-07-14T16:33:14Z</time>
      </trkpt>
      <trkpt lat="45.708599" lon="6.687244">
        <ele>2291.296</ele>
        <time>2018-07-14T16:33:20Z</time>
      </trkpt>
      <trkpt lat="45.708569" lon="6.687187">
        <ele>2290.311</ele>
        <time>2018-07-14T16:33:25Z</time>
      </trkpt>
      <trkpt lat="45.708549" lon="6.687115">
        <ele>2289.491</ele>
        <time>2018-07-14T16:33:30Z</time>
      </trkpt>
      <trkpt lat="45.708537" lon="6.687042">
        <ele>2288.881</ele>
        <time>2018-07-14T16:33:35Z</time>
      </trkpt>
      <trkpt lat="45.708525" lon="6.686969">
        <ele>2288.519</ele>
        <time>2018-07-14T16:33:40Z</time>
      </trkpt>
      <trkpt lat="45.708512" lon="6.686900">
        <ele>2287.908</ele>
        <time>2018-07-14T16:33:45Z</time>
      </trkpt>
      <trkpt lat="45.708472" lon="6.686854">
        <ele>2287.521</ele>
        <time>2018-07-14T16:33:52Z</time>
      </trkpt>
      <trkpt lat="45.708438" lon="6.686810">
        <ele>2286.995</ele>
        <time>2018-07-14T16:33:57Z</time>
      </trkpt>
      <trkpt lat="45.708400" lon="6.686758">
        <ele>2286.155</ele>
        <time>2018-07-14T16:34:03Z</time>
      </trkpt>
      <trkpt lat="45.708355" lon="6.686718">
        <ele>2285.272</ele>
        <time>2018-07-14T16:34:09Z</time>
      </trkpt>
      <trkpt lat="45.708322" lon="6.686674">
        <ele>2284.765</ele>
        <time>2018-07-14T16:34:15Z</time>
      </trkpt>
      <trkpt lat="45.708274" lon="6.686641">
        <ele>2283.650</ele>
        <time>2018-07-14T16:34:22Z</time>
      </trkpt>
      <trkpt lat="45.708234" lon="6.686593">
        <ele>2282.926</ele>
        <time>2018-07-14T16:34:27Z</time>
      </trkpt>
      <trkpt lat="45.708203" lon="6.686536">
        <ele>2282.131</ele>
        <time>2018-07-14T16:34:32Z</time>
      </trkpt>
      <trkpt lat="45.708179" lon="6.686479">
        <ele>2281.296</ele>
        <time>2018-07-14T16:34:37Z</time>
      </trkpt>
      <trkpt lat="45.708145" lon="6.686422">
        <ele>2280.731</ele>
        <time>2018-07-14T16:34:43Z</time>
      </trkpt>
      <trkpt lat="45.708123" lon="6.686358">
        <ele>2279.624</ele>
        <time>2018-07-14T16:34:49Z</time>
      </trkpt>
      <trkpt lat="45.708106" lon="6.686291">
        <ele>2278.508</ele>
        <time>2018-07-14T16:34:55Z</time>
      </trkpt>
      <trkpt lat="45.708083" lon="6.686224">
        <ele>2277.141</ele>
        <time>2018-07-14T16:35:03Z</time>
      </trkpt>
      <trkpt lat="45.708045" lon="6.686170">
        <ele>2275.875</ele>
        <time>2018-07-14T16:35:09Z</time>
      </trkpt>
      <trkpt lat="45.708012" lon="6.686113">
        <ele>2274.645</ele>
        <time>2018-07-14T16:35:15Z</time>
      </trkpt>
      <trkpt lat="45.707973" lon="6.686057">
        <ele>2273.552</ele>
        <time>2018-07-14T16:35:21Z</time>
      </trkpt>
      <trkpt lat="45.707941" lon="6.686008">
        <ele>2272.025</ele>
        <time>2018-07-14T16:35:26Z</time>
      </trkpt>
      <trkpt lat="45.707916" lon="6.685952">
        <ele>2270.770</ele>
        <time>2018-07-14T16:35:32Z</time>
      </trkpt>
      <trkpt lat="45.707874" lon="6.685918">
        <ele>2269.956</ele>
        <time>2018-07-14T16:35:39Z</time>
      </trkpt>
      <trkpt lat="45.707834" lon="6.685874">
        <ele>2269.051</ele>
        <time>2018-07-14T16:35:45Z</time>
      </trkpt>
      <trkpt lat="45.707802" lon="6.685827">
        <ele>2268.551</ele>
        <time>2018-07-14T16:35:51Z</time>
      </trkpt>
      <trkpt lat="45.707769" lon="6.685779">
        <ele>2267.401</ele>
        <time>2018-07-14T16:35:57Z</time>
      </trkpt>
      <trkpt lat="45.707726" lon="6.685740">
        <ele>2266.711</ele>
        <time>2018-07-14T16:36:02Z</time>
      </trkpt>
      <trkpt lat="45.707683" lon="6.685698">
        <ele>2265.908</ele>
        <time>2018-07-14T16:36:08Z</time>
      </trkpt>
      <trkpt lat="45.707649" lon="6.685645">
        <ele>2265.467</ele>
        <time>2018-07-14T16:36:14Z</time>
      </trkpt>
      <trkpt lat="45.707604" lon="6.685613">
        <ele>2264.711</ele>
        <time>2018-07-14T16:36:21Z</time>
      </trkpt>
      <trkpt lat="45.707562" lon="6.685578">
        <ele>2263.931</ele>
        <time>2018-07-14T16:36:26Z</time>
      </trkpt>
      <trkpt lat="45.707521" lon="6.685533">
        <ele>2263.468</ele>
        <time>2018-07-14T16:36:32Z</time>
      </trkpt>
      <trkpt lat="45.707483" lon="6.685496">
        <ele>2262.711</ele>
        <time>2018-07-14T16:36:37Z</time>
      </trkpt>
      <trkpt lat="45.707450" lon="6.685437">
        <ele>2261.986</ele>
        <time>2018-07-14T16:36:42Z</time>
      </trkpt>
      <trkpt lat="45.707414" lon="6.685378">
        <ele>2261.042</ele>
        <time>2018-07-14T16:36:47Z</time>
      </trkpt>
      <trkpt lat="45.707374" lon="6.685329">
        <ele>2260.197</ele>
        <time>2018-07-14T16:36:52Z</time>
      </trkpt>
      <trkpt lat="45.707334" lon="6.685296">
        <ele>2259.534</ele>
        <time>2018-07-14T16:36:56Z</time>
      </trkpt>
      <trkpt lat="45.707287" lon="6.685262">
        <ele>2258.455</ele>
        <time>2018-07-14T16:37:02Z</time>
      </trkpt>
      <trkpt lat="45.707240" lon="6.685237">
        <ele>2257.710</ele>
        <time>2018-07-14T16:37:07Z</time>
      </trkpt>
      <trkpt lat="45.707193" lon="6.685202">
        <ele>2256.908</ele>
        <time>2018-07-14T16:37:13Z</time>
      </trkpt>
      <trkpt lat="45.707156" lon="6.685153">
        <ele>2256.835</ele>
        <time>2018-07-14T16:37:19Z</time>
      </trkpt>
      <trkpt lat="45.707133" lon="6.685095">
        <ele>2255.949</ele>
        <time>2018-07-14T16:37:28Z</time>
      </trkpt>
      <trkpt lat="45.707093" lon="6.685049">
        <ele>2255.039</ele>
        <time>2018-07-14T16:37:36Z</time>
      </trkpt>
      <trkpt lat="45.707059" lon="6.684995">
        <ele>2254.176</ele>
        <time>2018-07-14T16:37:42Z</time>
      </trkpt>
      <trkpt lat="45.707045" lon="6.684921">
        <ele>2253.579</ele>
        <time>2018-07-14T16:37:48Z</time>
      </trkpt>
      <trkpt lat="45.707036" lon="6.684853">
        <ele>2252.874</ele>
        <time>2018-07-14T16:37:54Z</time>
      </trkpt>
      <trkpt lat="45.707019" lon="6.684779">
        <ele>2252.430</ele>
        <time>2018-07-14T16:38:00Z</time>
      </trkpt>
      <trkpt lat="45.706997" lon="6.684707">
        <ele>2252.195</ele>
        <time>2018-07-14T16:38:05Z</time>
      </trkpt>
      <trkpt lat="45.706968" lon="6.684645">
        <ele>2251.584</ele>
        <time>2018-07-14T16:38:10Z</time>
      </trkpt>
      <trkpt lat="45.706938" lon="6.684596">
        <ele>2251.207</ele>
        <time>2018-07-14T16:38:14Z</time>
      </trkpt>
      <trkpt lat="45.706907" lon="6.684544">
        <ele>2250.617</ele>
        <time>2018-07-14T16:38:18Z</time>
      </trkpt>
      <trkpt lat="45.706874" lon="6.684484">
        <ele>2249.808</ele>
        <time>2018-07-14T16:38:23Z</time>
      </trkpt>
      <trkpt lat="45.706843" lon="6.684428">
        <ele>2248.980</ele>
        <time>2018-07-14T16:38:28Z</time>
      </trkpt>
      <trkpt lat="45.706820" lon="6.684360">
        <ele>2248.484</ele>
        <time>2018-07-14T16:38:33Z</time>
      </trkpt>
      <trkpt lat="45.706805" lon="6.684285">
        <ele>2247.784</ele>
        <time>2018-07-14T16:38:38Z</time>
      </trkpt>
      <trkpt lat="45.706803" lon="6.684212">
        <ele>2247.341</ele>
        <time>2018-07-14T16:38:43Z</time>
      </trkpt>
      <trkpt lat="45.706809" lon="6.684147">
        <ele>2247.054</ele>
        <time>2018-07-14T16:38:48Z</time>
      </trkpt>
      <trkpt lat="45.706823" lon="6.684085">
        <ele>2246.029</ele>
        <time>2018-07-14T16:38:53Z</time>
      </trkpt>
      <trkpt lat="45.706807" lon="6.684024">
        <ele>2245.465</ele>
        <time>2018-07-14T16:38:58Z</time>
      </trkpt>
      <trkpt lat="45.706766" lon="6.683969">
        <ele>2244.760</ele>
        <time>2018-07-14T16:39:03Z</time>
      </trkpt>
      <trkpt lat="45.706731" lon="6.683926">
        <ele>2244.354</ele>
        <time>2018-07-14T16:39:07Z</time>
      </trkpt>
      <trkpt lat="45.706693" lon="6.683877">
        <ele>2243.656</ele>
        <time>2018-07-14T16:39:12Z</time>
      </trkpt>
      <trkpt lat="45.706661" lon="6.683825">
        <ele>2242.411</ele>
        <time>2018-07-14T16:39:17Z</time>
      </trkpt>
      <trkpt lat="45.706627" lon="6.683769">
        <ele>2241.308</ele>
        <time>2018-07-14T16:39:22Z</time>
      </trkpt>
      <trkpt lat="45.706592" lon="6.683711">
        <ele>2240.277</ele>
        <time>2018-07-14T16:39:27Z</time>
      </trkpt>
      <trkpt lat="45.706552" lon="6.683654">
        <ele>2239.281</ele>
        <time>2018-07-14T16:39:32Z</time>
      </trkpt>
      <trkpt lat="45.706512" lon="6.683604">
        <ele>2238.251</ele>
        <time>2018-07-14T16:39:37Z</time>
      </trkpt>
      <trkpt lat="45.706471" lon="6.683572">
        <ele>2237.678</ele>
        <time>2018-07-14T16:39:42Z</time>
      </trkpt>
      <trkpt lat="45.706433" lon="6.683538">
        <ele>2236.871</ele>
        <time>2018-07-14T16:39:47Z</time>
      </trkpt>
      <trkpt lat="45.706389" lon="6.683503">
        <ele>2235.526</ele>
        <time>2018-07-14T16:39:53Z</time>
      </trkpt>
      <trkpt lat="45.706347" lon="6.683465">
        <ele>2234.762</ele>
        <time>2018-07-14T16:39:58Z</time>
      </trkpt>
      <trkpt lat="45.706301" lon="6.683421">
        <ele>2234.227</ele>
        <time>2018-07-14T16:40:03Z</time>
      </trkpt>
      <trkpt lat="45.706268" lon="6.683364">
        <ele>2233.596</ele>
        <time>2018-07-14T16:40:08Z</time>
      </trkpt>
      <trkpt lat="45.706254" lon="6.683300">
        <ele>2233.131</ele>
        <time>2018-07-14T16:40:13Z</time>
      </trkpt>
      <trkpt lat="45.706228" lon="6.683242">
        <ele>2232.524</ele>
        <time>2018-07-14T16:40:19Z</time>
      </trkpt>
      <trkpt lat="45.706182" lon="6.683208">
        <ele>2231.708</ele>
        <time>2018-07-14T16:40:24Z</time>
      </trkpt>
      <trkpt lat="45.706130" lon="6.683206">
        <ele>2231.221</ele>
        <time>2018-07-14T16:40:29Z</time>
      </trkpt>
      <trkpt lat="45.706085" lon="6.683231">
        <ele>2230.525</ele>
        <time>2018-07-14T16:40:35Z</time>
      </trkpt>
      <trkpt lat="45.706038" lon="6.683248">
        <ele>2229.785</ele>
        <time>2018-07-14T16:40:42Z</time>
      </trkpt>
      <trkpt lat="45.705991" lon="6.683238">
        <ele>2229.232</ele>
        <time>2018-07-14T16:40:49Z</time>
      </trkpt>
      <trkpt lat="45.705947" lon="6.683206">
        <ele>2228.535</ele>
        <time>2018-07-14T16:40:56Z</time>
      </trkpt>
      <trkpt lat="45.705902" lon="6.683178">
        <ele>2228.120</ele>
        <time>2018-07-14T16:41:02Z</time>
      </trkpt>
      <trkpt lat="45.705865" lon="6.683128">
        <ele>2227.556</ele>
        <time>2018-07-14T16:41:09Z</time>
      </trkpt>
      <trkpt lat="45.705823" lon="6.683098">
        <ele>2226.771</ele>
        <time>2018-07-14T16:41:15Z</time>
      </trkpt>
      <trkpt lat="45.705780" lon="6.683058">
        <ele>2225.432</ele>
        <time>2018-07-14T16:41:21Z</time>
      </trkpt>
      <trkpt lat="45.705733" lon="6.683032">
        <ele>2224.292</ele>
        <time>2018-07-14T16:41:26Z</time>
      </trkpt>
      <trkpt lat="45.705689" lon="6.683001">
        <ele>2223.511</ele>
        <time>2018-07-14T16:41:31Z</time>
      </trkpt>
      <trkpt lat="45.705647" lon="6.682979">
        <ele>2222.708</ele>
        <time>2018-07-14T16:41:35Z</time>
      </trkpt>
      <trkpt lat="45.705590" lon="6.682925">
        <ele>2221.875</ele>
        <time>2018-07-14T16:41:41Z</time>
      </trkpt>
      <trkpt lat="45.705546" lon="6.682882">
        <ele>2220.969</ele>
        <time>2018-07-14T16:41:46Z</time>
      </trkpt>
      <trkpt lat="45.705493" lon="6.682871">
        <ele>2220.399</ele>
        <time>2018-07-14T16:41:53Z</time>
      </trkpt>
      <trkpt lat="45.705451" lon="6.682839">
        <ele>2220.056</ele>
        <time>2018-07-14T16:41:57Z</time>
      </trkpt>
      <trkpt lat="45.705406" lon="6.682827">
        <ele>2219.879</ele>
        <time>2018-07-14T16:42:02Z</time>
      </trkpt>
      <trkpt lat="45.705353" lon="6.682829">
        <ele>2219.334</ele>
        <time>2018-07-14T16:42:09Z</time>
      </trkpt>
      <trkpt lat="45.705307" lon="6.682807">
        <ele>2218.210</ele>
        <time>2018-07-14T16:42:14Z</time>
      </trkpt>
      <trkpt lat="45.705256" lon="6.682786">
        <ele>2217.595</ele>
        <time>2018-07-14T16:42:19Z</time>
      </trkpt>
      <trkpt lat="45.705208" lon="6.682764">
        <ele>2216.733</ele>
        <time>2018-07-14T16:42:24Z</time>
      </trkpt>
      <trkpt lat="45.705158" lon="6.682742">
        <ele>2216.223</ele>
        <time>2018-07-14T16:42:29Z</time>
      </trkpt>
      <trkpt lat="45.705110" lon="6.682749">
        <ele>2215.515</ele>
        <time>2018-07-14T16:42:34Z</time>
      </trkpt>
      <trkpt lat="45.705059" lon="6.682767">
        <ele>2214.708</ele>
        <time>2018-07-14T16:42:40Z</time>
      </trkpt>
      <trkpt lat="45.705011" lon="6.682788">
        <ele>2213.825</ele>
        <time>2018-07-14T16:42:46Z</time>
      </trkpt>
      <trkpt lat="45.704961" lon="6.682817">
        <ele>2212.949</ele>
        <time>2018-07-14T16:42:52Z</time>
      </trkpt>
      <trkpt lat="45.704921" lon="6.682846">
        <ele>2211.949</ele>
        <time>2018-07-14T16:42:57Z</time>
      </trkpt>
      <trkpt lat="45.704879" lon="6.682877">
        <ele>2210.936</ele>
        <time>2018-07-14T16:43:03Z</time>
      </trkpt>
      <trkpt lat="45.704831" lon="6.682906">
        <ele>2209.919</ele>
        <time>2018-07-14T16:43:09Z</time>
      </trkpt>
      <trkpt lat="45.704787" lon="6.682919">
        <ele>2208.584</ele>
        <time>2018-07-14T16:43:16Z</time>
      </trkpt>
      <trkpt lat="45.704746" lon="6.682873">
        <ele>2207.320</ele>
        <time>2018-07-14T16:43:22Z</time>
      </trkpt>
      <trkpt lat="45.704713" lon="6.682825">
        <ele>2205.845</ele>
        <time>2018-07-14T16:43:28Z</time>
      </trkpt>
      <trkpt lat="45.704666" lon="6.682793">
        <ele>2204.533</ele>
        <time>2018-07-14T16:43:36Z</time>
      </trkpt>
      <trkpt lat="45.704617" lon="6.682784">
        <ele>2202.523</ele>
        <time>2018-07-14T16:44:41Z</time>
      </trkpt>
      <trkpt lat="45.704572" lon="6.682823">
        <ele>2201.315</ele>
        <time>2018-07-14T16:44:46Z</time>
      </trkpt>
      <trkpt lat="45.704535" lon="6.682871">
        <ele>2200.608</ele>
        <time>2018-07-14T16:44:51Z</time>
      </trkpt>
      <trkpt lat="45.704490" lon="6.682914">
        <ele>2200.685</ele>
        <time>2018-07-14T16:45:13Z</time>
      </trkpt>
      <trkpt lat="45.704455" lon="6.682956">
        <ele>2199.879</ele>
        <time>2018-07-14T16:45:34Z</time>
      </trkpt>
      <trkpt lat="45.704433" lon="6.683017">
        <ele>2198.569</ele>
        <time>2018-07-14T16:45:45Z</time>
      </trkpt>
      <trkpt lat="45.704394" lon="6.682979">
        <ele>2196.526</ele>
        <time>2018-07-14T16:45:57Z</time>
      </trkpt>
      <trkpt lat="45.704360" lon="6.683027">
        <ele>2194.179</ele>
        <time>2018-07-14T16:46:12Z</time>
      </trkpt>
      <trkpt lat="45.704351" lon="6.683103">
        <ele>2192.324</ele>
        <time>2018-07-14T16:46:18Z</time>
      </trkpt>
      <trkpt lat="45.704325" lon="6.683169">
        <ele>2190.880</ele>
        <time>2018-07-14T16:46:24Z</time>
      </trkpt>
      <trkpt lat="45.704277" lon="6.683152">
        <ele>2188.795</ele>
        <time>2018-07-14T16:46:32Z</time>
      </trkpt>
      <trkpt lat="45.704231" lon="6.683153">
        <ele>2187.081</ele>
        <time>2018-07-14T16:46:42Z</time>
      </trkpt>
      <trkpt lat="45.704224" lon="6.683221">
        <ele>2185.261</ele>
        <time>2018-07-14T16:46:49Z</time>
      </trkpt>
      <trkpt lat="45.704235" lon="6.683290">
        <ele>2184.117</ele>
        <time>2018-07-14T16:46:56Z</time>
      </trkpt>
      <trkpt lat="45.704184" lon="6.683291">
        <ele>2182.308</ele>
        <time>2018-07-14T16:47:11Z</time>
      </trkpt>
      <trkpt lat="45.704132" lon="6.683289">
        <ele>2181.290</ele>
        <time>2018-07-14T16:47:18Z</time>
      </trkpt>
      <trkpt lat="45.704094" lon="6.683251">
        <ele>2179.714</ele>
        <time>2018-07-14T16:47:25Z</time>
      </trkpt>
      <trkpt lat="45.704059" lon="6.683292">
        <ele>2178.494</ele>
        <time>2018-07-14T16:47:39Z</time>
      </trkpt>
      <trkpt lat="45.704046" lon="6.683356">
        <ele>2176.831</ele>
        <time>2018-07-14T16:47:50Z</time>
      </trkpt>
      <trkpt lat="45.704007" lon="6.683394">
        <ele>2174.714</ele>
        <time>2018-07-14T16:48:06Z</time>
      </trkpt>
      <trkpt lat="45.703976" lon="6.683345">
        <ele>2173.059</ele>
        <time>2018-07-14T16:48:12Z</time>
      </trkpt>
      <trkpt lat="45.703932" lon="6.683333">
        <ele>2171.215</ele>
        <time>2018-07-14T16:48:25Z</time>
      </trkpt>
      <trkpt lat="45.703948" lon="6.683398">
        <ele>2169.390</ele>
        <time>2018-07-14T16:48:33Z</time>
      </trkpt>
      <trkpt lat="45.703935" lon="6.683472">
        <ele>2167.487</ele>
        <time>2018-07-14T16:48:40Z</time>
      </trkpt>
      <trkpt lat="45.703902" lon="6.683518">
        <ele>2166.242</ele>
        <time>2018-07-14T16:48:46Z</time>
      </trkpt>
      <trkpt lat="45.703853" lon="6.683514">
        <ele>2164.726</ele>
        <time>2018-07-14T16:48:53Z</time>
      </trkpt>
      <trkpt lat="45.703813" lon="6.683467">
        <ele>2163.808</ele>
        <time>2018-07-14T16:48:59Z</time>
      </trkpt>
      <trkpt lat="45.703783" lon="6.683414">
        <ele>2162.960</ele>
        <time>2018-07-14T16:49:05Z</time>
      </trkpt>
      <trkpt lat="45.703752" lon="6.683362">
        <ele>2161.914</ele>
        <time>2018-07-14T16:49:12Z</time>
      </trkpt>
      <trkpt lat="45.703724" lon="6.683307">
        <ele>2161.354</ele>
        <time>2018-07-14T16:49:22Z</time>
      </trkpt>
      <trkpt lat="45.703703" lon="6.683242">
        <ele>2160.691</ele>
        <time>2018-07-14T16:49:28Z</time>
      </trkpt>
      <trkpt lat="45.703685" lon="6.683174">
        <ele>2159.874</ele>
        <time>2018-07-14T16:49:34Z</time>
      </trkpt>
      <trkpt lat="45.703667" lon="6.683114">
        <ele>2158.999</ele>
        <time>2018-07-14T16:49:40Z</time>
      </trkpt>
      <trkpt lat="45.703648" lon="6.683045">
        <ele>2157.645</ele>
        <time>2018-07-14T16:49:46Z</time>
      </trkpt>
      <trkpt lat="45.703622" lon="6.682977">
        <ele>2156.440</ele>
        <time>2018-07-14T16:49:52Z</time>
      </trkpt>
      <trkpt lat="45.703598" lon="6.682911">
        <ele>2155.777</ele>
        <time>2018-07-14T16:49:57Z</time>
      </trkpt>
      <trkpt lat="45.703581" lon="6.682838">
        <ele>2154.961</ele>
        <time>2018-07-14T16:50:02Z</time>
      </trkpt>
      <trkpt lat="45.703575" lon="6.682763">
        <ele>2154.427</ele>
        <time>2018-07-14T16:50:07Z</time>
      </trkpt>
      <trkpt lat="45.703581" lon="6.682687">
        <ele>2153.308</ele>
        <time>2018-07-14T16:50:13Z</time>
      </trkpt>
      <trkpt lat="45.703559" lon="6.682628">
        <ele>2152.219</ele>
        <time>2018-07-14T16:50:20Z</time>
      </trkpt>
      <trkpt lat="45.703513" lon="6.682638">
        <ele>2151.643</ele>
        <time>2018-07-14T16:50:26Z</time>
      </trkpt>
      <trkpt lat="45.703468" lon="6.682626">
        <ele>2150.843</ele>
        <time>2018-07-14T16:50:39Z</time>
      </trkpt>
      <trkpt lat="45.703424" lon="6.682659">
        <ele>2149.950</ele>
        <time>2018-07-14T16:50:44Z</time>
      </trkpt>
      <trkpt lat="45.703405" lon="6.682719">
        <ele>2149.443</ele>
        <time>2018-07-14T16:50:49Z</time>
      </trkpt>
      <trkpt lat="45.703377" lon="6.682775">
        <ele>2148.368</ele>
        <time>2018-07-14T16:50:57Z</time>
      </trkpt>
      <trkpt lat="45.703349" lon="6.682826">
        <ele>2147.224</ele>
        <time>2018-07-14T16:51:02Z</time>
      </trkpt>
      <trkpt lat="45.703318" lon="6.682883">
        <ele>2146.249</ele>
        <time>2018-07-14T16:51:09Z</time>
      </trkpt>
      <trkpt lat="45.703296" lon="6.682945">
        <ele>2145.289</ele>
        <time>2018-07-14T16:51:15Z</time>
      </trkpt>
      <trkpt lat="45.703268" lon="6.683003">
        <ele>2144.206</ele>
        <time>2018-07-14T16:51:21Z</time>
      </trkpt>
      <trkpt lat="45.703243" lon="6.683065">
        <ele>2142.826</ele>
        <time>2018-07-14T16:51:27Z</time>
      </trkpt>
      <trkpt lat="45.703233" lon="6.683133">
        <ele>2140.808</ele>
        <time>2018-07-14T16:51:36Z</time>
      </trkpt>
      <trkpt lat="45.703206" lon="6.683193">
        <ele>2139.230</ele>
        <time>2018-07-14T16:51:44Z</time>
      </trkpt>
      <trkpt lat="45.703191" lon="6.683128">
        <ele>2137.054</ele>
        <time>2018-07-14T16:52:03Z</time>
      </trkpt>
      <trkpt lat="45.703160" lon="6.683081">
        <ele>2135.344</ele>
        <time>2018-07-14T16:52:11Z</time>
      </trkpt>
      <trkpt lat="45.703145" lon="6.683012">
        <ele>2133.961</ele>
        <time>2018-07-14T16:52:20Z</time>
      </trkpt>
      <trkpt lat="45.703159" lon="6.682949">
        <ele>2131.834</ele>
        <time>2018-07-14T16:52:27Z</time>
      </trkpt>
      <trkpt lat="45.703149" lon="6.682881">
        <ele>2130.249</ele>
        <time>2018-07-14T16:52:35Z</time>
      </trkpt>
      <trkpt lat="45.703098" lon="6.682885">
        <ele>2128.825</ele>
        <time>2018-07-14T16:52:43Z</time>
      </trkpt>
      <trkpt lat="45.703061" lon="6.682933">
        <ele>2128.030</ele>
        <time>2018-07-14T16:52:50Z</time>
      </trkpt>
      <trkpt lat="45.703031" lon="6.682985">
        <ele>2126.762</ele>
        <time>2018-07-14T16:52:58Z</time>
      </trkpt>
      <trkpt lat="45.703005" lon="6.683043">
        <ele>2125.983</ele>
        <time>2018-07-14T16:53:05Z</time>
      </trkpt>
      <trkpt lat="45.702986" lon="6.683107">
        <ele>2124.211</ele>
        <time>2018-07-14T16:53:16Z</time>
      </trkpt>
      <trkpt lat="45.702966" lon="6.683170">
        <ele>2122.808</ele>
        <time>2018-07-14T16:53:25Z</time>
      </trkpt>
      <trkpt lat="45.702918" lon="6.683183">
        <ele>2121.228</ele>
        <time>2018-07-14T16:53:36Z</time>
      </trkpt>
      <trkpt lat="45.702895" lon="6.683127">
        <ele>2119.452</ele>
        <time>2018-07-14T16:53:42Z</time>
      </trkpt>
      <trkpt lat="45.702877" lon="6.683058">
        <ele>2117.932</ele>
        <time>2018-07-14T16:53:48Z</time>
      </trkpt>
      <trkpt lat="45.702862" lon="6.682989">
        <ele>2117.069</ele>
        <time>2018-07-14T16:53:54Z</time>
      </trkpt>
      <trkpt lat="45.702853" lon="6.682915">
        <ele>2115.722</ele>
        <time>2018-07-14T16:54:00Z</time>
      </trkpt>
      <trkpt lat="45.702831" lon="6.682854">
        <ele>2115.357</ele>
        <time>2018-07-14T16:54:17Z</time>
      </trkpt>
      <trkpt lat="45.702833" lon="6.682783">
        <ele>2114.773</ele>
        <time>2018-07-14T16:54:28Z</time>
      </trkpt>
      <trkpt lat="45.702841" lon="6.682712">
        <ele>2113.938</ele>
        <time>2018-07-14T16:54:33Z</time>
      </trkpt>
      <trkpt lat="45.702856" lon="6.682647">
        <ele>2113.455</ele>
        <time>2018-07-14T16:54:38Z</time>
      </trkpt>
      <trkpt lat="45.702838" lon="6.682585">
        <ele>2112.707</ele>
        <time>2018-07-14T16:54:43Z</time>
      </trkpt>
      <trkpt lat="45.702874" lon="6.682539">
        <ele>2111.917</ele>
        <time>2018-07-14T16:55:11Z</time>
      </trkpt>
      <trkpt lat="45.702886" lon="6.682468">
        <ele>2111.408</ele>
        <time>2018-07-14T16:55:16Z</time>
      </trkpt>
      <trkpt lat="45.702893" lon="6.682385">
        <ele>2111.137</ele>
        <time>2018-07-14T16:55:21Z</time>
      </trkpt>
      <trkpt lat="45.702898" lon="6.682311">
        <ele>2110.541</ele>
        <time>2018-07-14T16:55:26Z</time>
      </trkpt>
      <trkpt lat="45.702906" lon="6.682241">
        <ele>2110.261</ele>
        <time>2018-07-14T16:55:30Z</time>
      </trkpt>
      <trkpt lat="45.702929" lon="6.682177">
        <ele>2109.618</ele>
        <time>2018-07-14T16:55:35Z</time>
      </trkpt>
      <trkpt lat="45.702953" lon="6.682122">
        <ele>2109.241</ele>
        <time>2018-07-14T16:55:39Z</time>
      </trkpt>
      <trkpt lat="45.702983" lon="6.682064">
        <ele>2108.226</ele>
        <time>2018-07-14T16:55:44Z</time>
      </trkpt>
      <trkpt lat="45.703012" lon="6.682010">
        <ele>2107.282</ele>
        <time>2018-07-14T16:55:48Z</time>
      </trkpt>
      <trkpt lat="45.703049" lon="6.681955">
        <ele>2106.227</ele>
        <time>2018-07-14T16:55:53Z</time>
      </trkpt>
      <trkpt lat="45.703083" lon="6.681911">
        <ele>2104.838</ele>
        <time>2018-07-14T16:55:57Z</time>
      </trkpt>
      <trkpt lat="45.703113" lon="6.681856">
        <ele>2103.670</ele>
        <time>2018-07-14T16:56:02Z</time>
      </trkpt>
      <trkpt lat="45.703143" lon="6.681798">
        <ele>2102.917</ele>
        <time>2018-07-14T16:56:06Z</time>
      </trkpt>
      <trkpt lat="45.703166" lon="6.681728">
        <ele>2101.708</ele>
        <time>2018-07-14T16:56:11Z</time>
      </trkpt>
      <trkpt lat="45.703171" lon="6.681654">
        <ele>2101.095</ele>
        <time>2018-07-14T16:56:16Z</time>
      </trkpt>
      <trkpt lat="45.703169" lon="6.681581">
        <ele>2100.629</ele>
        <time>2018-07-14T16:56:20Z</time>
      </trkpt>
      <trkpt lat="45.703169" lon="6.681509">
        <ele>2099.989</ele>
        <time>2018-07-14T16:56:25Z</time>
      </trkpt>
      <trkpt lat="45.703176" lon="6.681441">
        <ele>2099.136</ele>
        <time>2018-07-14T16:56:30Z</time>
      </trkpt>
      <trkpt lat="45.703185" lon="6.681362">
        <ele>2098.239</ele>
        <time>2018-07-14T16:56:35Z</time>
      </trkpt>
      <trkpt lat="45.703182" lon="6.681288">
        <ele>2097.754</ele>
        <time>2018-07-14T16:56:39Z</time>
      </trkpt>
      <trkpt lat="45.703171" lon="6.681225">
        <ele>2097.090</ele>
        <time>2018-07-14T16:56:43Z</time>
      </trkpt>
      <trkpt lat="45.703150" lon="6.681159">
        <ele>2096.235</ele>
        <time>2018-07-14T16:56:48Z</time>
      </trkpt>
      <trkpt lat="45.703122" lon="6.681093">
        <ele>2095.312</ele>
        <time>2018-07-14T16:56:53Z</time>
      </trkpt>
      <trkpt lat="45.703096" lon="6.681033">
        <ele>2094.832</ele>
        <time>2018-07-14T16:56:57Z</time>
      </trkpt>
      <trkpt lat="45.703067" lon="6.680978">
        <ele>2094.105</ele>
        <time>2018-07-14T16:57:01Z</time>
      </trkpt>
      <trkpt lat="45.703048" lon="6.680904">
        <ele>2093.708</ele>
        <time>2018-07-14T16:57:06Z</time>
      </trkpt>
      <trkpt lat="45.703031" lon="6.680843">
        <ele>2093.093</ele>
        <time>2018-07-14T16:57:11Z</time>
      </trkpt>
      <trkpt lat="45.703019" lon="6.680779">
        <ele>2092.247</ele>
        <time>2018-07-14T16:57:15Z</time>
      </trkpt>
      <trkpt lat="45.702981" lon="6.680727">
        <ele>2091.797</ele>
        <time>2018-07-14T16:57:19Z</time>
      </trkpt>
      <trkpt lat="45.702936" lon="6.680728">
        <ele>2091.814</ele>
        <time>2018-07-14T16:57:22Z</time>
      </trkpt>
      <trkpt lat="45.702896" lon="6.680759">
        <ele>2091.597</ele>
        <time>2018-07-14T16:57:25Z</time>
      </trkpt>
      <trkpt lat="45.702870" lon="6.680816">
        <ele>2091.342</ele>
        <time>2018-07-14T16:57:28Z</time>
      </trkpt>
      <trkpt lat="45.702864" lon="6.680900">
        <ele>2090.438</ele>
        <time>2018-07-14T16:57:32Z</time>
      </trkpt>
      <trkpt lat="45.702878" lon="6.680967">
        <ele>2089.483</ele>
        <time>2018-07-14T16:57:36Z</time>
      </trkpt>
      <trkpt lat="45.702899" lon="6.681036">
        <ele>2088.484</ele>
        <time>2018-07-14T16:57:41Z</time>
      </trkpt>
      <trkpt lat="45.702900" lon="6.681113">
        <ele>2087.807</ele>
        <time>2018-07-14T16:57:46Z</time>
      </trkpt>
      <trkpt lat="45.702880" lon="6.681184">
        <ele>2087.517</ele>
        <time>2018-07-14T16:57:51Z</time>
      </trkpt>
      <trkpt lat="45.702857" lon="6.681252">
        <ele>2087.308</ele>
        <time>2018-07-14T16:57:56Z</time>
      </trkpt>
      <trkpt lat="45.702835" lon="6.681312">
        <ele>2086.890</ele>
        <time>2018-07-14T16:58:00Z</time>
      </trkpt>
      <trkpt lat="45.702813" lon="6.681379">
        <ele>2086.594</ele>
        <time>2018-07-14T16:58:04Z</time>
      </trkpt>
      <trkpt lat="45.702796" lon="6.681450">
        <ele>2085.914</ele>
        <time>2018-07-14T16:58:08Z</time>
      </trkpt>
      <trkpt lat="45.702776" lon="6.681508">
        <ele>2085.511</ele>
        <time>2018-07-14T16:58:12Z</time>
      </trkpt>
      <trkpt lat="45.702741" lon="6.681562">
        <ele>2084.914</ele>
        <time>2018-07-14T16:58:17Z</time>
      </trkpt>
      <trkpt lat="45.702708" lon="6.681615">
        <ele>2084.549</ele>
        <time>2018-07-14T16:58:22Z</time>
      </trkpt>
      <trkpt lat="45.702665" lon="6.681650">
        <ele>2084.365</ele>
        <time>2018-07-14T16:58:26Z</time>
      </trkpt>
      <trkpt lat="45.702625" lon="6.681692">
        <ele>2084.270</ele>
        <time>2018-07-14T16:58:30Z</time>
      </trkpt>
      <trkpt lat="45.702586" lon="6.681733">
        <ele>2083.758</ele>
        <time>2018-07-14T16:58:34Z</time>
      </trkpt>
      <trkpt lat="45.702548" lon="6.681770">
        <ele>2083.052</ele>
        <time>2018-07-14T16:58:39Z</time>
      </trkpt>
      <trkpt lat="45.702508" lon="6.681821">
        <ele>2082.617</ele>
        <time>2018-07-14T16:58:45Z</time>
      </trkpt>
      <trkpt lat="45.702469" lon="6.681854">
        <ele>2082.008</ele>
        <time>2018-07-14T16:58:49Z</time>
      </trkpt>
      <trkpt lat="45.702427" lon="6.681890">
        <ele>2081.277</ele>
        <time>2018-07-14T16:58:53Z</time>
      </trkpt>
      <trkpt lat="45.702385" lon="6.681921">
        <ele>2080.381</ele>
        <time>2018-07-14T16:58:57Z</time>
      </trkpt>
      <trkpt lat="45.702334" lon="6.681955">
        <ele>2079.431</ele>
        <time>2018-07-14T16:59:02Z</time>
      </trkpt>
      <trkpt lat="45.702287" lon="6.681980">
        <ele>2078.898</ele>
        <time>2018-07-14T16:59:06Z</time>
      </trkpt>
      <trkpt lat="45.702243" lon="6.682008">
        <ele>2078.551</ele>
        <time>2018-07-14T16:59:10Z</time>
      </trkpt>
      <trkpt lat="45.702195" lon="6.682047">
        <ele>2077.576</ele>
        <time>2018-07-14T16:59:15Z</time>
      </trkpt>
      <trkpt lat="45.702163" lon="6.682092">
        <ele>2076.572</ele>
        <time>2018-07-14T16:59:19Z</time>
      </trkpt>
      <trkpt lat="45.702131" lon="6.682139">
        <ele>2075.967</ele>
        <time>2018-07-14T16:59:23Z</time>
      </trkpt>
      <trkpt lat="45.702096" lon="6.682184">
        <ele>2075.187</ele>
        <time>2018-07-14T16:59:27Z</time>
      </trkpt>
      <trkpt lat="45.702060" lon="6.682229">
        <ele>2073.842</ele>
        <time>2018-07-14T16:59:32Z</time>
      </trkpt>
      <trkpt lat="45.702011" lon="6.682267">
        <ele>2072.626</ele>
        <time>2018-07-14T16:59:37Z</time>
      </trkpt>
      <trkpt lat="45.701966" lon="6.682285">
        <ele>2071.908</ele>
        <time>2018-07-14T16:59:41Z</time>
      </trkpt>
      <trkpt lat="45.701921" lon="6.682276">
        <ele>2071.570</ele>
        <time>2018-07-14T16:59:45Z</time>
      </trkpt>
      <trkpt lat="45.701873" lon="6.682269">
        <ele>2070.574</ele>
        <time>2018-07-14T16:59:49Z</time>
      </trkpt>
      <trkpt lat="45.701828" lon="6.682254">
        <ele>2069.924</ele>
        <time>2018-07-14T16:59:53Z</time>
      </trkpt>
      <trkpt lat="45.701775" lon="6.682234">
        <ele>2069.541</ele>
        <time>2018-07-14T16:59:58Z</time>
      </trkpt>
      <trkpt lat="45.701720" lon="6.682225">
        <ele>2068.944</ele>
        <time>2018-07-14T17:00:03Z</time>
      </trkpt>
      <trkpt lat="45.701670" lon="6.682234">
        <ele>2068.139</ele>
        <time>2018-07-14T17:00:08Z</time>
      </trkpt>
      <trkpt lat="45.701618" lon="6.682243">
        <ele>2067.245</ele>
        <time>2018-07-14T17:00:13Z</time>
      </trkpt>
      <trkpt lat="45.701588" lon="6.682296">
        <ele>2066.740</ele>
        <time>2018-07-14T17:00:29Z</time>
      </trkpt>
      <trkpt lat="45.701550" lon="6.682331">
        <ele>2065.626</ele>
        <time>2018-07-14T17:00:36Z</time>
      </trkpt>
      <trkpt lat="45.701506" lon="6.682379">
        <ele>2064.547</ele>
        <time>2018-07-14T17:00:41Z</time>
      </trkpt>
      <trkpt lat="45.701468" lon="6.682414">
        <ele>2062.811</ele>
        <time>2018-07-14T17:00:48Z</time>
      </trkpt>
      <trkpt lat="45.701468" lon="6.682414">
        <ele>2062.808</ele>
        <time>2018-07-14T17:00:48Z</time>
      </trkpt>
      <trkpt lat="45.701436" lon="6.682466">
        <ele>2062.064</ele>
        <time>2018-07-14T17:00:53Z</time>
      </trkpt>
      <trkpt lat="45.701407" lon="6.682527">
        <ele>2061.588</ele>
        <time>2018-07-14T17:00:58Z</time>
      </trkpt>
      <trkpt lat="45.701381" lon="6.682591">
        <ele>2061.248</ele>
        <time>2018-07-14T17:01:03Z</time>
      </trkpt>
      <trkpt lat="45.701364" lon="6.682659">
        <ele>2061.065</ele>
        <time>2018-07-14T17:01:08Z</time>
      </trkpt>
      <trkpt lat="45.701337" lon="6.682729">
        <ele>2060.588</ele>
        <time>2018-07-14T17:01:13Z</time>
      </trkpt>
      <trkpt lat="45.701296" lon="6.682761">
        <ele>2060.293</ele>
        <time>2018-07-14T17:01:18Z</time>
      </trkpt>
      <trkpt lat="45.701251" lon="6.682740">
        <ele>2060.039</ele>
        <time>2018-07-14T17:01:24Z</time>
      </trkpt>
      <trkpt lat="45.701249" lon="6.682666">
        <ele>2059.974</ele>
        <time>2018-07-14T17:01:30Z</time>
      </trkpt>
      <trkpt lat="45.701262" lon="6.682599">
        <ele>2059.439</ele>
        <time>2018-07-14T17:01:35Z</time>
      </trkpt>
      <trkpt lat="45.701288" lon="6.682543">
        <ele>2058.301</ele>
        <time>2018-07-14T17:01:40Z</time>
      </trkpt>
      <trkpt lat="45.701324" lon="6.682490">
        <ele>2057.721</ele>
        <time>2018-07-14T17:01:44Z</time>
      </trkpt>
      <trkpt lat="45.701346" lon="6.682430">
        <ele>2056.508</ele>
        <time>2018-07-14T17:01:49Z</time>
      </trkpt>
      <trkpt lat="45.701375" lon="6.682377">
        <ele>2055.495</ele>
        <time>2018-07-14T17:01:54Z</time>
      </trkpt>
      <trkpt lat="45.701410" lon="6.682318">
        <ele>2054.389</ele>
        <time>2018-07-14T17:01:59Z</time>
      </trkpt>
      <trkpt lat="45.701445" lon="6.682257">
        <ele>2053.769</ele>
        <time>2018-07-14T17:02:04Z</time>
      </trkpt>
      <trkpt lat="45.701476" lon="6.682192">
        <ele>2052.926</ele>
        <time>2018-07-14T17:02:09Z</time>
      </trkpt>
      <trkpt lat="45.701507" lon="6.682127">
        <ele>2052.079</ele>
        <time>2018-07-14T17:02:14Z</time>
      </trkpt>
      <trkpt lat="45.701525" lon="6.682065">
        <ele>2051.194</ele>
        <time>2018-07-14T17:02:18Z</time>
      </trkpt>
      <trkpt lat="45.701537" lon="6.681991">
        <ele>2050.990</ele>
        <time>2018-07-14T17:02:22Z</time>
      </trkpt>
      <trkpt lat="45.701522" lon="6.681921">
        <ele>2051.265</ele>
        <time>2018-07-14T17:02:31Z</time>
      </trkpt>
      <trkpt lat="45.701474" lon="6.681914">
        <ele>2049.895</ele>
        <time>2018-07-14T17:02:39Z</time>
      </trkpt>
      <trkpt lat="45.701444" lon="6.681855">
        <ele>2048.649</ele>
        <time>2018-07-14T17:02:46Z</time>
      </trkpt>
      <trkpt lat="45.701426" lon="6.681793">
        <ele>2047.523</ele>
        <time>2018-07-14T17:02:51Z</time>
      </trkpt>
      <trkpt lat="45.701389" lon="6.681754">
        <ele>2046.408</ele>
        <time>2018-07-14T17:02:56Z</time>
      </trkpt>
      <trkpt lat="45.701346" lon="6.681726">
        <ele>2044.911</ele>
        <time>2018-07-14T17:03:02Z</time>
      </trkpt>
      <trkpt lat="45.701334" lon="6.681664">
        <ele>2044.035</ele>
        <time>2018-07-14T17:03:08Z</time>
      </trkpt>
      <trkpt lat="45.701297" lon="6.681620">
        <ele>2043.565</ele>
        <time>2018-07-14T17:03:19Z</time>
      </trkpt>
      <trkpt lat="45.701265" lon="6.681569">
        <ele>2042.862</ele>
        <time>2018-07-14T17:03:29Z</time>
      </trkpt>
      <trkpt lat="45.701228" lon="6.681519">
        <ele>2042.035</ele>
        <time>2018-07-14T17:03:37Z</time>
      </trkpt>
      <trkpt lat="45.701181" lon="6.681486">
        <ele>2041.130</ele>
        <time>2018-07-14T17:03:44Z</time>
      </trkpt>
      <trkpt lat="45.701132" lon="6.681494">
        <ele>2040.226</ele>
        <time>2018-07-14T17:03:50Z</time>
      </trkpt>
      <trkpt lat="45.701093" lon="6.681534">
        <ele>2039.651</ele>
        <time>2018-07-14T17:03:55Z</time>
      </trkpt>
      <trkpt lat="45.701052" lon="6.681562">
        <ele>2038.949</ele>
        <time>2018-07-14T17:03:59Z</time>
      </trkpt>
      <trkpt lat="45.701010" lon="6.681586">
        <ele>2038.102</ele>
        <time>2018-07-14T17:04:03Z</time>
      </trkpt>
      <trkpt lat="45.700961" lon="6.681581">
        <ele>2037.222</ele>
        <time>2018-07-14T17:04:08Z</time>
      </trkpt>
      <trkpt lat="45.700913" lon="6.681551">
        <ele>2036.308</ele>
        <time>2018-07-14T17:04:13Z</time>
      </trkpt>
      <trkpt lat="45.700877" lon="6.681510">
        <ele>2036.136</ele>
        <time>2018-07-14T17:04:17Z</time>
      </trkpt>
      <trkpt lat="45.700841" lon="6.681453">
        <ele>2035.660</ele>
        <time>2018-07-14T17:04:22Z</time>
      </trkpt>
      <trkpt lat="45.700802" lon="6.681410">
        <ele>2035.360</ele>
        <time>2018-07-14T17:04:27Z</time>
      </trkpt>
      <trkpt lat="45.700768" lon="6.681356">
        <ele>2034.397</ele>
        <time>2018-07-14T17:04:33Z</time>
      </trkpt>
      <trkpt lat="45.700736" lon="6.681301">
        <ele>2032.960</ele>
        <time>2018-07-14T17:04:41Z</time>
      </trkpt>
      <trkpt lat="45.700702" lon="6.681258">
        <ele>2031.315</ele>
        <time>2018-07-14T17:04:47Z</time>
      </trkpt>
      <trkpt lat="45.700665" lon="6.681210">
        <ele>2030.371</ele>
        <time>2018-07-14T17:04:53Z</time>
      </trkpt>
      <trkpt lat="45.700638" lon="6.681157">
        <ele>2029.396</ele>
        <time>2018-07-14T17:05:01Z</time>
      </trkpt>
      <trkpt lat="45.700599" lon="6.681114">
        <ele>2027.547</ele>
        <time>2018-07-14T17:05:11Z</time>
      </trkpt>
      <trkpt lat="45.700565" lon="6.681065">
        <ele>2025.229</ele>
        <time>2018-07-14T17:05:21Z</time>
      </trkpt>
      <trkpt lat="45.700515" lon="6.681088">
        <ele>2023.421</ele>
        <time>2018-07-14T17:05:30Z</time>
      </trkpt>
      <trkpt lat="45.700473" lon="6.681061">
        <ele>2021.508</ele>
        <time>2018-07-14T17:05:39Z</time>
      </trkpt>
      <trkpt lat="45.700474" lon="6.680988">
        <ele>2020.086</ele>
        <time>2018-07-14T17:05:46Z</time>
      </trkpt>
      <trkpt lat="45.700475" lon="6.680917">
        <ele>2019.180</ele>
        <time>2018-07-14T17:05:54Z</time>
      </trkpt>
      <trkpt lat="45.700514" lon="6.680880">
        <ele>2017.880</ele>
        <time>2018-07-14T17:06:03Z</time>
      </trkpt>
      <trkpt lat="45.700519" lon="6.680814">
        <ele>2015.877</ele>
        <time>2018-07-14T17:06:21Z</time>
      </trkpt>
      <trkpt lat="45.700483" lon="6.680776">
        <ele>2013.810</ele>
        <time>2018-07-14T17:06:31Z</time>
      </trkpt>
      <trkpt lat="45.700454" lon="6.680721">
        <ele>2011.815</ele>
        <time>2018-07-14T17:06:46Z</time>
      </trkpt>
      <trkpt lat="45.700407" lon="6.680716">
        <ele>2009.811</ele>
        <time>2018-07-14T17:06:55Z</time>
      </trkpt>
      <trkpt lat="45.700359" lon="6.680700">
        <ele>2007.836</ele>
        <time>2018-07-14T17:07:03Z</time>
      </trkpt>
      <trkpt lat="45.700326" lon="6.680654">
        <ele>2006.216</ele>
        <time>2018-07-14T17:07:11Z</time>
      </trkpt>
      <trkpt lat="45.700288" lon="6.680618">
        <ele>2004.476</ele>
        <time>2018-07-14T17:07:22Z</time>
      </trkpt>
      <trkpt lat="45.700249" lon="6.680578">
        <ele>2002.913</ele>
        <time>2018-07-14T17:07:30Z</time>
      </trkpt>
      <trkpt lat="45.700210" lon="6.680542">
        <ele>2001.208</ele>
        <time>2018-07-14T17:07:38Z</time>
      </trkpt>
      <trkpt lat="45.700167" lon="6.680503">
        <ele>1999.483</ele>
        <time>2018-07-14T17:07:45Z</time>
      </trkpt>
      <trkpt lat="45.700123" lon="6.680480">
        <ele>1997.947</ele>
        <time>2018-07-14T17:07:51Z</time>
      </trkpt>
      <trkpt lat="45.700090" lon="6.680432">
        <ele>1996.697</ele>
        <time>2018-07-14T17:07:57Z</time>
      </trkpt>
      <trkpt lat="45.700064" lon="6.680366">
        <ele>1995.424</ele>
        <time>2018-07-14T17:08:03Z</time>
      </trkpt>
      <trkpt lat="45.700045" lon="6.680306">
        <ele>1994.357</ele>
        <time>2018-07-14T17:08:08Z</time>
      </trkpt>
      <trkpt lat="45.700042" lon="6.680238">
        <ele>1993.222</ele>
        <time>2018-07-14T17:08:14Z</time>
      </trkpt>
      <trkpt lat="45.700015" lon="6.680172">
        <ele>1992.298</ele>
        <time>2018-07-14T17:08:20Z</time>
      </trkpt>
      <trkpt lat="45.699982" lon="6.680112">
        <ele>1991.213</ele>
        <time>2018-07-14T17:08:25Z</time>
      </trkpt>
      <trkpt lat="45.699946" lon="6.680059">
        <ele>1990.625</ele>
        <time>2018-07-14T17:08:30Z</time>
      </trkpt>
      <trkpt lat="45.699912" lon="6.680011">
        <ele>1989.826</ele>
        <time>2018-07-14T17:08:36Z</time>
      </trkpt>
      <trkpt lat="45.699902" lon="6.679940">
        <ele>1988.908</ele>
        <time>2018-07-14T17:08:43Z</time>
      </trkpt>
      <trkpt lat="45.699872" lon="6.679890">
        <ele>1988.008</ele>
        <time>2018-07-14T17:08:50Z</time>
      </trkpt>
      <trkpt lat="45.699838" lon="6.679840">
        <ele>1987.194</ele>
        <time>2018-07-14T17:08:57Z</time>
      </trkpt>
      <trkpt lat="45.699804" lon="6.679795">
        <ele>1986.158</ele>
        <time>2018-07-14T17:09:02Z</time>
      </trkpt>
      <trkpt lat="45.699760" lon="6.679761">
        <ele>1985.158</ele>
        <time>2018-07-14T17:09:08Z</time>
      </trkpt>
      <trkpt lat="45.699716" lon="6.679742">
        <ele>1984.135</ele>
        <time>2018-07-14T17:09:14Z</time>
      </trkpt>
      <trkpt lat="45.699672" lon="6.679723">
        <ele>1983.168</ele>
        <time>2018-07-14T17:09:22Z</time>
      </trkpt>
      <trkpt lat="45.699628" lon="6.679702">
        <ele>1982.193</ele>
        <time>2018-07-14T17:09:31Z</time>
      </trkpt>
      <trkpt lat="45.699582" lon="6.679682">
        <ele>1980.369</ele>
        <time>2018-07-14T17:09:39Z</time>
      </trkpt>
      <trkpt lat="45.699544" lon="6.679635">
        <ele>1978.834</ele>
        <time>2018-07-14T17:09:46Z</time>
      </trkpt>
      <trkpt lat="45.699507" lon="6.679590">
        <ele>1977.567</ele>
        <time>2018-07-14T17:09:53Z</time>
      </trkpt>
      <trkpt lat="45.699467" lon="6.679559">
        <ele>1975.981</ele>
        <time>2018-07-14T17:10:01Z</time>
      </trkpt>
      <trkpt lat="45.699423" lon="6.679533">
        <ele>1974.219</ele>
        <time>2018-07-14T17:10:10Z</time>
      </trkpt>
      <trkpt lat="45.699399" lon="6.679476">
        <ele>1972.808</ele>
        <time>2018-07-14T17:10:18Z</time>
      </trkpt>
      <trkpt lat="45.699415" lon="6.679412">
        <ele>1970.738</ele>
        <time>2018-07-14T17:10:27Z</time>
      </trkpt>
      <trkpt lat="45.699447" lon="6.679359">
        <ele>1968.732</ele>
        <time>2018-07-14T17:10:33Z</time>
      </trkpt>
      <trkpt lat="45.699487" lon="6.679305">
        <ele>1967.162</ele>
        <time>2018-07-14T17:10:39Z</time>
      </trkpt>
      <trkpt lat="45.699522" lon="6.679260">
        <ele>1966.149</ele>
        <time>2018-07-14T17:10:44Z</time>
      </trkpt>
      <trkpt lat="45.699501" lon="6.679198">
        <ele>1965.192</ele>
        <time>2018-07-14T17:10:56Z</time>
      </trkpt>
      <trkpt lat="45.699450" lon="6.679181">
        <ele>1963.757</ele>
        <time>2018-07-14T17:11:03Z</time>
      </trkpt>
      <trkpt lat="45.699405" lon="6.679172">
        <ele>1962.983</ele>
        <time>2018-07-14T17:11:09Z</time>
      </trkpt>
      <trkpt lat="45.699363" lon="6.679149">
        <ele>1961.668</ele>
        <time>2018-07-14T17:11:15Z</time>
      </trkpt>
      <trkpt lat="45.699322" lon="6.679122">
        <ele>1960.891</ele>
        <time>2018-07-14T17:11:21Z</time>
      </trkpt>
      <trkpt lat="45.699271" lon="6.679123">
        <ele>1959.581</ele>
        <time>2018-07-14T17:11:27Z</time>
      </trkpt>
      <trkpt lat="45.699225" lon="6.679110">
        <ele>1958.319</ele>
        <time>2018-07-14T17:11:33Z</time>
      </trkpt>
      <trkpt lat="45.699173" lon="6.679101">
        <ele>1957.208</ele>
        <time>2018-07-14T17:11:39Z</time>
      </trkpt>
      <trkpt lat="45.699122" lon="6.679090">
        <ele>1956.181</ele>
        <time>2018-07-14T17:11:44Z</time>
      </trkpt>
      <trkpt lat="45.699076" lon="6.679092">
        <ele>1955.165</ele>
        <time>2018-07-14T17:11:49Z</time>
      </trkpt>
      <trkpt lat="45.699027" lon="6.679105">
        <ele>1954.185</ele>
        <time>2018-07-14T17:11:54Z</time>
      </trkpt>
      <trkpt lat="45.698983" lon="6.679140">
        <ele>1953.592</ele>
        <time>2018-07-14T17:11:59Z</time>
      </trkpt>
      <trkpt lat="45.698945" lon="6.679180">
        <ele>1952.735</ele>
        <time>2018-07-14T17:12:04Z</time>
      </trkpt>
      <trkpt lat="45.698903" lon="6.679221">
        <ele>1951.830</ele>
        <time>2018-07-14T17:12:10Z</time>
      </trkpt>
      <trkpt lat="45.698867" lon="6.679264">
        <ele>1950.566</ele>
        <time>2018-07-14T17:12:16Z</time>
      </trkpt>
      <trkpt lat="45.698838" lon="6.679316">
        <ele>1949.351</ele>
        <time>2018-07-14T17:12:22Z</time>
      </trkpt>
      <trkpt lat="45.698806" lon="6.679364">
        <ele>1948.289</ele>
        <time>2018-07-14T17:12:29Z</time>
      </trkpt>
      <trkpt lat="45.698769" lon="6.679309">
        <ele>1946.706</ele>
        <time>2018-07-14T17:12:36Z</time>
      </trkpt>
      <trkpt lat="45.698750" lon="6.679241">
        <ele>1945.426</ele>
        <time>2018-07-14T17:12:41Z</time>
      </trkpt>
      <trkpt lat="45.698737" lon="6.679173">
        <ele>1944.208</ele>
        <time>2018-07-14T17:12:46Z</time>
      </trkpt>
      <trkpt lat="45.698734" lon="6.679099">
        <ele>1943.160</ele>
        <time>2018-07-14T17:12:52Z</time>
      </trkpt>
      <trkpt lat="45.698693" lon="6.679068">
        <ele>1941.634</ele>
        <time>2018-07-14T17:12:59Z</time>
      </trkpt>
      <trkpt lat="45.698645" lon="6.679042">
        <ele>1940.344</ele>
        <time>2018-07-14T17:13:05Z</time>
      </trkpt>
      <trkpt lat="45.698596" lon="6.679022">
        <ele>1938.751</ele>
        <time>2018-07-14T17:13:10Z</time>
      </trkpt>
      <trkpt lat="45.698555" lon="6.678986">
        <ele>1937.414</ele>
        <time>2018-07-14T17:13:15Z</time>
      </trkpt>
      <trkpt lat="45.698513" lon="6.678948">
        <ele>1935.889</ele>
        <time>2018-07-14T17:13:21Z</time>
      </trkpt>
      <trkpt lat="45.698485" lon="6.678893">
        <ele>1934.055</ele>
        <time>2018-07-14T17:13:27Z</time>
      </trkpt>
      <trkpt lat="45.698465" lon="6.678835">
        <ele>1932.560</ele>
        <time>2018-07-14T17:13:32Z</time>
      </trkpt>
      <trkpt lat="45.698434" lon="6.678786">
        <ele>1931.265</ele>
        <time>2018-07-14T17:13:37Z</time>
      </trkpt>
      <trkpt lat="45.698402" lon="6.678736">
        <ele>1930.068</ele>
        <time>2018-07-14T17:13:42Z</time>
      </trkpt>
      <trkpt lat="45.698371" lon="6.678686">
        <ele>1929.314</ele>
        <time>2018-07-14T17:13:47Z</time>
      </trkpt>
      <trkpt lat="45.698343" lon="6.678632">
        <ele>1928.108</ele>
        <time>2018-07-14T17:13:52Z</time>
      </trkpt>
      <trkpt lat="45.698301" lon="6.678587">
        <ele>1927.488</ele>
        <time>2018-07-14T17:13:58Z</time>
      </trkpt>
      <trkpt lat="45.698262" lon="6.678554">
        <ele>1926.252</ele>
        <time>2018-07-14T17:14:04Z</time>
      </trkpt>
      <trkpt lat="45.698226" lon="6.678508">
        <ele>1925.162</ele>
        <time>2018-07-14T17:14:09Z</time>
      </trkpt>
      <trkpt lat="45.698187" lon="6.678452">
        <ele>1924.059</ele>
        <time>2018-07-14T17:14:14Z</time>
      </trkpt>
      <trkpt lat="45.698146" lon="6.678397">
        <ele>1922.992</ele>
        <time>2018-07-14T17:14:19Z</time>
      </trkpt>
      <trkpt lat="45.698110" lon="6.678342">
        <ele>1921.997</ele>
        <time>2018-07-14T17:14:24Z</time>
      </trkpt>
      <trkpt lat="45.698087" lon="6.678276">
        <ele>1921.393</ele>
        <time>2018-07-14T17:14:30Z</time>
      </trkpt>
      <trkpt lat="45.698063" lon="6.678220">
        <ele>1920.168</ele>
        <time>2018-07-14T17:14:36Z</time>
      </trkpt>
      <trkpt lat="45.698037" lon="6.678161">
        <ele>1918.634</ele>
        <time>2018-07-14T17:14:42Z</time>
      </trkpt>
      <trkpt lat="45.698005" lon="6.678115">
        <ele>1917.755</ele>
        <time>2018-07-14T17:14:47Z</time>
      </trkpt>
      <trkpt lat="45.697958" lon="6.678098">
        <ele>1916.410</ele>
        <time>2018-07-14T17:14:54Z</time>
      </trkpt>
      <trkpt lat="45.697912" lon="6.678116">
        <ele>1915.208</ele>
        <time>2018-07-14T17:15:00Z</time>
      </trkpt>
      <trkpt lat="45.697859" lon="6.678131">
        <ele>1914.175</ele>
        <time>2018-07-14T17:15:06Z</time>
      </trkpt>
      <trkpt lat="45.697806" lon="6.678141">
        <ele>1913.049</ele>
        <time>2018-07-14T17:15:11Z</time>
      </trkpt>
      <trkpt lat="45.697757" lon="6.678111">
        <ele>1912.069</ele>
        <time>2018-07-14T17:15:16Z</time>
      </trkpt>
      <trkpt lat="45.697709" lon="6.678080">
        <ele>1911.086</ele>
        <time>2018-07-14T17:15:21Z</time>
      </trkpt>
      <trkpt lat="45.697661" lon="6.678059">
        <ele>1910.019</ele>
        <time>2018-07-14T17:15:26Z</time>
      </trkpt>
      <trkpt lat="45.697608" lon="6.678045">
        <ele>1909.084</ele>
        <time>2018-07-14T17:15:32Z</time>
      </trkpt>
      <trkpt lat="45.697557" lon="6.678017">
        <ele>1908.080</ele>
        <time>2018-07-14T17:15:38Z</time>
      </trkpt>
      <trkpt lat="45.697517" lon="6.677983">
        <ele>1907.465</ele>
        <time>2018-07-14T17:15:43Z</time>
      </trkpt>
      <trkpt lat="45.697487" lon="6.677930">
        <ele>1906.683</ele>
        <time>2018-07-14T17:15:48Z</time>
      </trkpt>
      <trkpt lat="45.697467" lon="6.677872">
        <ele>1905.725</ele>
        <time>2018-07-14T17:15:53Z</time>
      </trkpt>
      <trkpt lat="45.697433" lon="6.677820">
        <ele>1904.417</ele>
        <time>2018-07-14T17:15:59Z</time>
      </trkpt>
      <trkpt lat="45.697390" lon="6.677781">
        <ele>1903.208</ele>
        <time>2018-07-14T17:16:04Z</time>
      </trkpt>
      <trkpt lat="45.697347" lon="6.677744">
        <ele>1902.170</ele>
        <time>2018-07-14T17:16:09Z</time>
      </trkpt>
      <trkpt lat="45.697309" lon="6.677702">
        <ele>1901.094</ele>
        <time>2018-07-14T17:16:14Z</time>
      </trkpt>
      <trkpt lat="45.697272" lon="6.677646">
        <ele>1900.434</ele>
        <time>2018-07-14T17:16:19Z</time>
      </trkpt>
      <trkpt lat="45.697247" lon="6.677590">
        <ele>1899.671</ele>
        <time>2018-07-14T17:16:23Z</time>
      </trkpt>
      <trkpt lat="45.697219" lon="6.677522">
        <ele>1898.714</ele>
        <time>2018-07-14T17:16:28Z</time>
      </trkpt>
      <trkpt lat="45.697200" lon="6.677454">
        <ele>1897.879</ele>
        <time>2018-07-14T17:16:33Z</time>
      </trkpt>
      <trkpt lat="45.697178" lon="6.677392">
        <ele>1896.465</ele>
        <time>2018-07-14T17:16:39Z</time>
      </trkpt>
      <trkpt lat="45.697151" lon="6.677339">
        <ele>1895.630</ele>
        <time>2018-07-14T17:16:44Z</time>
      </trkpt>
      <trkpt lat="45.697108" lon="6.677317">
        <ele>1894.321</ele>
        <time>2018-07-14T17:16:50Z</time>
      </trkpt>
      <trkpt lat="45.697063" lon="6.677293">
        <ele>1893.141</ele>
        <time>2018-07-14T17:16:55Z</time>
      </trkpt>
      <trkpt lat="45.697024" lon="6.677258">
        <ele>1892.005</ele>
        <time>2018-07-14T17:17:00Z</time>
      </trkpt>
      <trkpt lat="45.696978" lon="6.677226">
        <ele>1890.908</ele>
        <time>2018-07-14T17:17:06Z</time>
      </trkpt>
      <trkpt lat="45.696936" lon="6.677193">
        <ele>1889.954</ele>
        <time>2018-07-14T17:17:11Z</time>
      </trkpt>
      <trkpt lat="45.696894" lon="6.677159">
        <ele>1889.368</ele>
        <time>2018-07-14T17:17:16Z</time>
      </trkpt>
      <trkpt lat="45.696846" lon="6.677141">
        <ele>1888.588</ele>
        <time>2018-07-14T17:17:21Z</time>
      </trkpt>
      <trkpt lat="45.696801" lon="6.677121">
        <ele>1887.615</ele>
        <time>2018-07-14T17:17:26Z</time>
      </trkpt>
      <trkpt lat="45.696764" lon="6.677080">
        <ele>1886.728</ele>
        <time>2018-07-14T17:17:31Z</time>
      </trkpt>
      <trkpt lat="45.696726" lon="6.677038">
        <ele>1885.793</ele>
        <time>2018-07-14T17:17:36Z</time>
      </trkpt>
      <trkpt lat="45.696687" lon="6.676985">
        <ele>1884.779</ele>
        <time>2018-07-14T17:17:41Z</time>
      </trkpt>
      <trkpt lat="45.696653" lon="6.676927">
        <ele>1883.794</ele>
        <time>2018-07-14T17:17:46Z</time>
      </trkpt>
      <trkpt lat="45.696622" lon="6.676873">
        <ele>1882.723</ele>
        <time>2018-07-14T17:17:51Z</time>
      </trkpt>
      <trkpt lat="45.696582" lon="6.676822">
        <ele>1882.183</ele>
        <time>2018-07-14T17:17:56Z</time>
      </trkpt>
      <trkpt lat="45.696539" lon="6.676776">
        <ele>1881.311</ele>
        <time>2018-07-14T17:18:01Z</time>
      </trkpt>
      <trkpt lat="45.696498" lon="6.676734">
        <ele>1880.408</ele>
        <time>2018-07-14T17:18:06Z</time>
      </trkpt>
      <trkpt lat="45.696464" lon="6.676692">
        <ele>1879.544</ele>
        <time>2018-07-14T17:18:11Z</time>
      </trkpt>
      <trkpt lat="45.696448" lon="6.676624">
        <ele>1878.668</ele>
        <time>2018-07-14T17:18:16Z</time>
      </trkpt>
      <trkpt lat="45.696420" lon="6.676559">
        <ele>1878.018</ele>
        <time>2018-07-14T17:18:21Z</time>
      </trkpt>
      <trkpt lat="45.696388" lon="6.676503">
        <ele>1877.715</ele>
        <time>2018-07-14T17:18:25Z</time>
      </trkpt>
      <trkpt lat="45.696357" lon="6.676450">
        <ele>1877.518</ele>
        <time>2018-07-14T17:18:29Z</time>
      </trkpt>
      <trkpt lat="45.696332" lon="6.676393">
        <ele>1877.453</ele>
        <time>2018-07-14T17:18:33Z</time>
      </trkpt>
      <trkpt lat="45.696311" lon="6.676328">
        <ele>1876.989</ele>
        <time>2018-07-14T17:18:37Z</time>
      </trkpt>
      <trkpt lat="45.696290" lon="6.676261">
        <ele>1876.614</ele>
        <time>2018-07-14T17:18:41Z</time>
      </trkpt>
      <trkpt lat="45.696265" lon="6.676201">
        <ele>1876.486</ele>
        <time>2018-07-14T17:18:45Z</time>
      </trkpt>
      <trkpt lat="45.696230" lon="6.676151">
        <ele>1875.960</ele>
        <time>2018-07-14T17:18:49Z</time>
      </trkpt>
      <trkpt lat="45.696193" lon="6.676098">
        <ele>1875.626</ele>
        <time>2018-07-14T17:18:53Z</time>
      </trkpt>
      <trkpt lat="45.696157" lon="6.676041">
        <ele>1875.408</ele>
        <time>2018-07-14T17:18:57Z</time>
      </trkpt>
      <trkpt lat="45.696135" lon="6.675972">
        <ele>1875.760</ele>
        <time>2018-07-14T17:19:02Z</time>
      </trkpt>
      <trkpt lat="45.696152" lon="6.675899">
        <ele>1875.544</ele>
        <time>2018-07-14T17:19:07Z</time>
      </trkpt>
      <trkpt lat="45.696176" lon="6.675830">
        <ele>1875.434</ele>
        <time>2018-07-14T17:19:12Z</time>
      </trkpt>
      <trkpt lat="45.696159" lon="6.675767">
        <ele>1875.361</ele>
        <time>2018-07-14T17:19:17Z</time>
      </trkpt>
      <trkpt lat="45.696108" lon="6.675742">
        <ele>1875.394</ele>
        <time>2018-07-14T17:19:22Z</time>
      </trkpt>
      <trkpt lat="45.696065" lon="6.675722">
        <ele>1875.329</ele>
        <time>2018-07-14T17:19:26Z</time>
      </trkpt>
      <trkpt lat="45.696024" lon="6.675680">
        <ele>1875.385</ele>
        <time>2018-07-14T17:19:30Z</time>
      </trkpt>
      <trkpt lat="45.695990" lon="6.675632">
        <ele>1875.330</ele>
        <time>2018-07-14T17:19:34Z</time>
      </trkpt>
      <trkpt lat="45.695954" lon="6.675586">
        <ele>1875.394</ele>
        <time>2018-07-14T17:19:38Z</time>
      </trkpt>
      <trkpt lat="45.695920" lon="6.675543">
        <ele>1874.957</ele>
        <time>2018-07-14T17:19:42Z</time>
      </trkpt>
      <trkpt lat="45.695883" lon="6.675495">
        <ele>1874.722</ele>
        <time>2018-07-14T17:19:46Z</time>
      </trkpt>
      <trkpt lat="45.695849" lon="6.675447">
        <ele>1874.608</ele>
        <time>2018-07-14T17:19:50Z</time>
      </trkpt>
      <trkpt lat="45.695820" lon="6.675392">
        <ele>1874.521</ele>
        <time>2018-07-14T17:19:54Z</time>
      </trkpt>
      <trkpt lat="45.695793" lon="6.675338">
        <ele>1874.475</ele>
        <time>2018-07-14T17:19:58Z</time>
      </trkpt>
      <trkpt lat="45.695765" lon="6.675280">
        <ele>1874.085</ele>
        <time>2018-07-14T17:20:02Z</time>
      </trkpt>
      <trkpt lat="45.695737" lon="6.675222">
        <ele>1873.742</ele>
        <time>2018-07-14T17:20:06Z</time>
      </trkpt>
      <trkpt lat="45.695712" lon="6.675164">
        <ele>1873.125</ele>
        <time>2018-07-14T17:20:10Z</time>
      </trkpt>
      <trkpt lat="45.695684" lon="6.675107">
        <ele>1872.860</ele>
        <time>2018-07-14T17:20:14Z</time>
      </trkpt>
      <trkpt lat="45.695654" lon="6.675054">
        <ele>1872.256</ele>
        <time>2018-07-14T17:20:18Z</time>
      </trkpt>
      <trkpt lat="45.695620" lon="6.675004">
        <ele>1871.811</ele>
        <time>2018-07-14T17:20:22Z</time>
      </trkpt>
      <trkpt lat="45.695589" lon="6.674956">
        <ele>1871.242</ele>
        <time>2018-07-14T17:20:26Z</time>
      </trkpt>
      <trkpt lat="45.695555" lon="6.674907">
        <ele>1870.422</ele>
        <time>2018-07-14T17:20:30Z</time>
      </trkpt>
      <trkpt lat="45.695523" lon="6.674854">
        <ele>1869.914</ele>
        <time>2018-07-14T17:20:34Z</time>
      </trkpt>
      <trkpt lat="45.695491" lon="6.674796">
        <ele>1869.208</ele>
        <time>2018-07-14T17:20:38Z</time>
      </trkpt>
      <trkpt lat="45.695462" lon="6.674739">
        <ele>1868.876</ele>
        <time>2018-07-14T17:20:42Z</time>
      </trkpt>
      <trkpt lat="45.695431" lon="6.674690">
        <ele>1869.040</ele>
        <time>2018-07-14T17:20:46Z</time>
      </trkpt>
      <trkpt lat="45.695397" lon="6.674639">
        <ele>1869.130</ele>
        <time>2018-07-14T17:20:50Z</time>
      </trkpt>
      <trkpt lat="45.695361" lon="6.674592">
        <ele>1869.277</ele>
        <time>2018-07-14T17:20:54Z</time>
      </trkpt>
      <trkpt lat="45.695322" lon="6.674550">
        <ele>1868.810</ele>
        <time>2018-07-14T17:20:58Z</time>
      </trkpt>
      <trkpt lat="45.695281" lon="6.674510">
        <ele>1868.655</ele>
        <time>2018-07-14T17:21:02Z</time>
      </trkpt>
      <trkpt lat="45.695241" lon="6.674475">
        <ele>1868.591</ele>
        <time>2018-07-14T17:21:06Z</time>
      </trkpt>
      <trkpt lat="45.695198" lon="6.674445">
        <ele>1868.436</ele>
        <time>2018-07-14T17:21:10Z</time>
      </trkpt>
      <trkpt lat="45.695151" lon="6.674417">
        <ele>1868.484</ele>
        <time>2018-07-14T17:21:14Z</time>
      </trkpt>
      <trkpt lat="45.695109" lon="6.674381">
        <ele>1868.007</ele>
        <time>2018-07-14T17:21:22Z</time>
      </trkpt>
      <trkpt lat="45.695072" lon="6.674332">
        <ele>1867.317</ele>
        <time>2018-07-14T17:21:29Z</time>
      </trkpt>
      <trkpt lat="45.695044" lon="6.674276">
        <ele>1867.308</ele>
        <time>2018-07-14T17:21:34Z</time>
      </trkpt>
      <trkpt lat="45.695027" lon="6.674208">
        <ele>1866.970</ele>
        <time>2018-07-14T17:21:39Z</time>
      </trkpt>
      <trkpt lat="45.694991" lon="6.674154">
        <ele>1866.734</ele>
        <time>2018-07-14T17:21:44Z</time>
      </trkpt>
      <trkpt lat="45.694942" lon="6.674147">
        <ele>1866.634</ele>
        <time>2018-07-14T17:21:49Z</time>
      </trkpt>
      <trkpt lat="45.694894" lon="6.674159">
        <ele>1866.981</ele>
        <time>2018-07-14T17:21:53Z</time>
      </trkpt>
      <trkpt lat="45.694846" lon="6.674175">
        <ele>1867.184</ele>
        <time>2018-07-14T17:21:57Z</time>
      </trkpt>
      <trkpt lat="45.694798" lon="6.674188">
        <ele>1867.269</ele>
        <time>2018-07-14T17:22:01Z</time>
      </trkpt>
      <trkpt lat="45.694749" lon="6.674196">
        <ele>1866.995</ele>
        <time>2018-07-14T17:22:05Z</time>
      </trkpt>
      <trkpt lat="45.694702" lon="6.674200">
        <ele>1866.790</ele>
        <time>2018-07-14T17:22:09Z</time>
      </trkpt>
      <trkpt lat="45.694647" lon="6.674190">
        <ele>1866.678</ele>
        <time>2018-07-14T17:22:14Z</time>
      </trkpt>
      <trkpt lat="45.694602" lon="6.674177">
        <ele>1866.533</ele>
        <time>2018-07-14T17:22:18Z</time>
      </trkpt>
      <trkpt lat="45.694560" lon="6.674151">
        <ele>1866.126</ele>
        <time>2018-07-14T17:22:22Z</time>
      </trkpt>
      <trkpt lat="45.694521" lon="6.674110">
        <ele>1865.808</ele>
        <time>2018-07-14T17:22:26Z</time>
      </trkpt>
      <trkpt lat="45.694494" lon="6.674052">
        <ele>1865.649</ele>
        <time>2018-07-14T17:22:30Z</time>
      </trkpt>
      <trkpt lat="45.694470" lon="6.673989">
        <ele>1865.553</ele>
        <time>2018-07-14T17:22:34Z</time>
      </trkpt>
      <trkpt lat="45.694444" lon="6.673936">
        <ele>1865.453</ele>
        <time>2018-07-14T17:22:38Z</time>
      </trkpt>
      <trkpt lat="45.694413" lon="6.673889">
        <ele>1865.860</ele>
        <time>2018-07-14T17:22:42Z</time>
      </trkpt>
      <trkpt lat="45.694378" lon="6.673830">
        <ele>1866.053</ele>
        <time>2018-07-14T17:22:47Z</time>
      </trkpt>
      <trkpt lat="45.694357" lon="6.673759">
        <ele>1866.188</ele>
        <time>2018-07-14T17:22:52Z</time>
      </trkpt>
      <trkpt lat="45.694345" lon="6.673696">
        <ele>1866.294</ele>
        <time>2018-07-14T17:22:56Z</time>
      </trkpt>
      <trkpt lat="45.694336" lon="6.673630">
        <ele>1866.299</ele>
        <time>2018-07-14T17:23:00Z</time>
      </trkpt>
      <trkpt lat="45.694316" lon="6.673559">
        <ele>1866.234</ele>
        <time>2018-07-14T17:23:05Z</time>
      </trkpt>
      <trkpt lat="45.694293" lon="6.673486">
        <ele>1866.255</ele>
        <time>2018-07-14T17:23:10Z</time>
      </trkpt>
      <trkpt lat="45.694271" lon="6.673429">
        <ele>1866.210</ele>
        <time>2018-07-14T17:23:14Z</time>
      </trkpt>
      <trkpt lat="45.694247" lon="6.673372">
        <ele>1866.608</ele>
        <time>2018-07-14T17:23:18Z</time>
      </trkpt>
      <trkpt lat="45.694226" lon="6.673313">
        <ele>1866.865</ele>
        <time>2018-07-14T17:23:22Z</time>
      </trkpt>
      <trkpt lat="45.694199" lon="6.673259">
        <ele>1866.999</ele>
        <time>2018-07-14T17:23:26Z</time>
      </trkpt>
      <trkpt lat="45.694154" lon="6.673211">
        <ele>1867.019</ele>
        <time>2018-07-14T17:23:31Z</time>
      </trkpt>
      <trkpt lat="45.694112" lon="6.673187">
        <ele>1867.526</ele>
        <time>2018-07-14T17:23:35Z</time>
      </trkpt>
      <trkpt lat="45.694069" lon="6.673166">
        <ele>1867.859</ele>
        <time>2018-07-14T17:23:39Z</time>
      </trkpt>
      <trkpt lat="45.694018" lon="6.673149">
        <ele>1868.064</ele>
        <time>2018-07-14T17:23:44Z</time>
      </trkpt>
      <trkpt lat="45.693967" lon="6.673138">
        <ele>1868.540</ele>
        <time>2018-07-14T17:23:49Z</time>
      </trkpt>
      <trkpt lat="45.693920" lon="6.673100">
        <ele>1868.875</ele>
        <time>2018-07-14T17:23:55Z</time>
      </trkpt>
      <trkpt lat="45.693894" lon="6.673048">
        <ele>1869.021</ele>
        <time>2018-07-14T17:24:00Z</time>
      </trkpt>
      <trkpt lat="45.693871" lon="6.672990">
        <ele>1869.141</ele>
        <time>2018-07-14T17:24:06Z</time>
      </trkpt>
      <trkpt lat="45.693868" lon="6.672912">
        <ele>1869.205</ele>
        <time>2018-07-14T17:24:30Z</time>
      </trkpt>
      <trkpt lat="45.693851" lon="6.672850">
        <ele>1869.208</ele>
        <time>2018-07-14T17:24:37Z</time>
      </trkpt>
      <trkpt lat="45.693835" lon="6.672786">
        <ele>1868.884</ele>
        <time>2018-07-14T17:24:42Z</time>
      </trkpt>
      <trkpt lat="45.693834" lon="6.672716">
        <ele>1868.688</ele>
        <time>2018-07-14T17:24:47Z</time>
      </trkpt>
      <trkpt lat="45.693832" lon="6.672650">
        <ele>1868.588</ele>
        <time>2018-07-14T17:24:52Z</time>
      </trkpt>
      <trkpt lat="45.693813" lon="6.672582">
        <ele>1868.415</ele>
        <time>2018-07-14T17:24:57Z</time>
      </trkpt>
      <trkpt lat="45.693811" lon="6.672513">
        <ele>1868.498</ele>
        <time>2018-07-14T17:25:02Z</time>
      </trkpt>
      <trkpt lat="45.693825" lon="6.672448">
        <ele>1868.813</ele>
        <time>2018-07-14T17:25:16Z</time>
      </trkpt>
      <trkpt lat="45.693818" lon="6.672380">
        <ele>1869.089</ele>
        <time>2018-07-14T17:25:21Z</time>
      </trkpt>
      <trkpt lat="45.693811" lon="6.672308">
        <ele>1869.134</ele>
        <time>2018-07-14T17:25:26Z</time>
      </trkpt>
      <trkpt lat="45.693798" lon="6.672246">
        <ele>1868.851</ele>
        <time>2018-07-14T17:25:31Z</time>
      </trkpt>
      <trkpt lat="45.693763" lon="6.672206">
        <ele>1868.601</ele>
        <time>2018-07-14T17:25:46Z</time>
      </trkpt>
      <trkpt lat="45.693748" lon="6.672140">
        <ele>1868.511</ele>
        <time>2018-07-14T17:25:59Z</time>
      </trkpt>
      <trkpt lat="45.693746" lon="6.672074">
        <ele>1868.408</ele>
        <time>2018-07-14T17:26:05Z</time>
      </trkpt>
      <trkpt lat="45.693734" lon="6.671991">
        <ele>1868.427</ele>
        <time>2018-07-14T17:26:10Z</time>
      </trkpt>
      <trkpt lat="45.693731" lon="6.671914">
        <ele>1868.061</ele>
        <time>2018-07-14T17:26:15Z</time>
      </trkpt>
      <trkpt lat="45.693723" lon="6.671845">
        <ele>1868.161</ele>
        <time>2018-07-14T17:26:20Z</time>
      </trkpt>
      <trkpt lat="45.693712" lon="6.671778">
        <ele>1868.638</ele>
        <time>2018-07-14T17:26:25Z</time>
      </trkpt>
      <trkpt lat="45.693702" lon="6.671712">
        <ele>1868.521</ele>
        <time>2018-07-14T17:26:30Z</time>
      </trkpt>
      <trkpt lat="45.693684" lon="6.671650">
        <ele>1868.826</ele>
        <time>2018-07-14T17:26:35Z</time>
      </trkpt>
      <trkpt lat="45.693663" lon="6.671578">
        <ele>1869.012</ele>
        <time>2018-07-14T17:26:41Z</time>
      </trkpt>
      <trkpt lat="45.693657" lon="6.671505">
        <ele>1869.187</ele>
        <time>2018-07-14T17:26:46Z</time>
      </trkpt>
      <trkpt lat="45.693658" lon="6.671437">
        <ele>1869.285</ele>
        <time>2018-07-14T17:26:51Z</time>
      </trkpt>
      <trkpt lat="45.693657" lon="6.671363">
        <ele>1869.289</ele>
        <time>2018-07-14T17:26:56Z</time>
      </trkpt>
      <trkpt lat="45.693650" lon="6.671289">
        <ele>1869.217</ele>
        <time>2018-07-14T17:27:01Z</time>
      </trkpt>
      <trkpt lat="45.693634" lon="6.671228">
        <ele>1869.208</ele>
        <time>2018-07-14T17:27:05Z</time>
      </trkpt>
      <trkpt lat="45.693601" lon="6.671162">
        <ele>1869.240</ele>
        <time>2018-07-14T17:27:10Z</time>
      </trkpt>
      <trkpt lat="45.693574" lon="6.671106">
        <ele>1869.294</ele>
        <time>2018-07-14T17:27:14Z</time>
      </trkpt>
      <trkpt lat="45.693537" lon="6.671046">
        <ele>1869.654</ele>
        <time>2018-07-14T17:27:19Z</time>
      </trkpt>
      <trkpt lat="45.693508" lon="6.670981">
        <ele>1869.891</ele>
        <time>2018-07-14T17:27:24Z</time>
      </trkpt>
      <trkpt lat="45.693480" lon="6.670915">
        <ele>1869.954</ele>
        <time>2018-07-14T17:27:29Z</time>
      </trkpt>
      <trkpt lat="45.693462" lon="6.670845">
        <ele>1870.439</ele>
        <time>2018-07-14T17:27:34Z</time>
      </trkpt>
      <trkpt lat="45.693444" lon="6.670770">
        <ele>1870.355</ele>
        <time>2018-07-14T17:27:39Z</time>
      </trkpt>
      <trkpt lat="45.693426" lon="6.670700">
        <ele>1870.280</ele>
        <time>2018-07-14T17:27:44Z</time>
      </trkpt>
      <trkpt lat="45.693407" lon="6.670637">
        <ele>1870.234</ele>
        <time>2018-07-14T17:27:49Z</time>
      </trkpt>
      <trkpt lat="45.693377" lon="6.670580">
        <ele>1870.655</ele>
        <time>2018-07-14T17:27:54Z</time>
      </trkpt>
      <trkpt lat="45.693333" lon="6.670537">
        <ele>1871.210</ele>
        <time>2018-07-14T17:28:00Z</time>
      </trkpt>
      <trkpt lat="45.693293" lon="6.670498">
        <ele>1872.008</ele>
        <time>2018-07-14T17:28:06Z</time>
      </trkpt>
      <trkpt lat="45.693253" lon="6.670451">
        <ele>1872.515</ele>
        <time>2018-07-14T17:28:13Z</time>
      </trkpt>
      <trkpt lat="45.693217" lon="6.670404">
        <ele>1873.289</ele>
        <time>2018-07-14T17:28:19Z</time>
      </trkpt>
      <trkpt lat="45.693182" lon="6.670346">
        <ele>1873.639</ele>
        <time>2018-07-14T17:28:25Z</time>
      </trkpt>
      <trkpt lat="45.693155" lon="6.670295">
        <ele>1873.496</ele>
        <time>2018-07-14T17:28:30Z</time>
      </trkpt>
      <trkpt lat="45.693128" lon="6.670243">
        <ele>1873.399</ele>
        <time>2018-07-14T17:28:35Z</time>
      </trkpt>
      <trkpt lat="45.693102" lon="6.670179">
        <ele>1873.284</ele>
        <time>2018-07-14T17:28:41Z</time>
      </trkpt>
      <trkpt lat="45.693084" lon="6.670116">
        <ele>1873.660</ele>
        <time>2018-07-14T17:28:47Z</time>
      </trkpt>
      <trkpt lat="45.693054" lon="6.670058">
        <ele>1873.895</ele>
        <time>2018-07-14T17:28:53Z</time>
      </trkpt>
      <trkpt lat="45.693037" lon="6.669994">
        <ele>1873.998</ele>
        <time>2018-07-14T17:28:59Z</time>
      </trkpt>
      <trkpt lat="45.693034" lon="6.669922">
        <ele>1874.015</ele>
        <time>2018-07-14T17:29:04Z</time>
      </trkpt>
      <trkpt lat="45.693021" lon="6.669854">
        <ele>1874.026</ele>
        <time>2018-07-14T17:29:10Z</time>
      </trkpt>
      <trkpt lat="45.693013" lon="6.669788">
        <ele>1874.408</ele>
        <time>2018-07-14T17:29:19Z</time>
      </trkpt>
      <trkpt lat="45.693032" lon="6.669720">
        <ele>1874.791</ele>
        <time>2018-07-14T17:29:24Z</time>
      </trkpt>
      <trkpt lat="45.693042" lon="6.669645">
        <ele>1874.985</ele>
        <time>2018-07-14T17:29:29Z</time>
      </trkpt>
      <trkpt lat="45.693055" lon="6.669576">
        <ele>1875.035</ele>
        <time>2018-07-14T17:29:34Z</time>
      </trkpt>
      <trkpt lat="45.693071" lon="6.669502">
        <ele>1875.182</ele>
        <time>2018-07-14T17:29:39Z</time>
      </trkpt>
      <trkpt lat="45.693086" lon="6.669429">
        <ele>1874.745</ele>
        <time>2018-07-14T17:29:44Z</time>
      </trkpt>
      <trkpt lat="45.693102" lon="6.669366">
        <ele>1874.520</ele>
        <time>2018-07-14T17:29:52Z</time>
      </trkpt>
      <trkpt lat="45.693114" lon="6.669301">
        <ele>1874.466</ele>
        <time>2018-07-14T17:29:57Z</time>
      </trkpt>
      <trkpt lat="45.693130" lon="6.669225">
        <ele>1873.921</ele>
        <time>2018-07-14T17:30:02Z</time>
      </trkpt>
      <trkpt lat="45.693147" lon="6.669154">
        <ele>1873.689</ele>
        <time>2018-07-14T17:30:07Z</time>
      </trkpt>
      <trkpt lat="45.693283" lon="6.669045">
        <ele>1817.547</ele>
        <time>2018-07-15T18:39:47Z</time>
      </trkpt>
      <trkpt lat="45.691616" lon="6.665869">
        <ele>1849.729</ele>
        <time>2018-07-15T18:40:07Z</time>
      </trkpt>
      <trkpt lat="45.691616" lon="6.665869">
        <ele>1849.721</ele>
        <time>2018-07-15T18:40:27Z</time>
      </trkpt>
      <trkpt lat="45.691768" lon="6.664656">
        <ele>1861.608</ele>
        <time>2018-07-15T18:40:47Z</time>
      </trkpt>
      <trkpt lat="45.691768" lon="6.664656">
        <ele>1861.646</ele>
        <time>2018-07-15T18:41:07Z</time>
      </trkpt>
      <trkpt lat="45.691340" lon="6.663805">
        <ele>1871.570</ele>
        <time>2018-07-15T18:41:27Z</time>
      </trkpt>
      <trkpt lat="45.691340" lon="6.663805">
        <ele>1871.570</ele>
        <time>2018-07-15T18:41:47Z</time>
      </trkpt>
      <trkpt lat="45.690871" lon="6.660845">
        <ele>1880.459</ele>
        <time>2018-07-15T18:42:07Z</time>
      </trkpt>
      <trkpt lat="45.690871" lon="6.660845">
        <ele>1880.480</ele>
        <time>2018-07-15T18:42:27Z</time>
      </trkpt>
      <trkpt lat="45.690013" lon="6.659731">
        <ele>1880.147</ele>
        <time>2018-07-15T18:42:47Z</time>
      </trkpt>
      <trkpt lat="45.690013" lon="6.659731">
        <ele>1880.124</ele>
        <time>2018-07-15T18:43:07Z</time>
      </trkpt>
      <trkpt lat="45.689121" lon="6.657599">
        <ele>1886.010</ele>
        <time>2018-07-15T18:43:27Z</time>
      </trkpt>
      <trkpt lat="45.689121" lon="6.657599">
        <ele>1886.042</ele>
        <time>2018-07-15T18:43:47Z</time>
      </trkpt>
      <trkpt lat="45.687761" lon="6.657499">
        <ele>1893.322</ele>
        <time>2018-07-15T18:44:07Z</time>
      </trkpt>
      <trkpt lat="45.687761" lon="6.657499">
        <ele>1893.314</ele>
        <time>2018-07-15T18:44:27Z</time>
      </trkpt>
      <trkpt lat="45.686689" lon="6.656731">
        <ele>1909.708</ele>
        <time>2018-07-15T18:44:47Z</time>
      </trkpt>
      <trkpt lat="45.686689" lon="6.656731">
        <ele>1909.716</ele>
        <time>2018-07-15T18:45:07Z</time>
      </trkpt>
      <trkpt lat="45.685684" lon="6.656894">
        <ele>1934.470</ele>
        <time>2018-07-15T18:45:27Z</time>
      </trkpt>
      <trkpt lat="45.685684" lon="6.656894">
        <ele>1934.410</ele>
        <time>2018-07-15T18:45:47Z</time>
      </trkpt>
      <trkpt lat="45.685198" lon="6.656712">
        <ele>1946.719</ele>
        <time>2018-07-15T18:46:07Z</time>
      </trkpt>
      <trkpt lat="45.685198" lon="6.656712">
        <ele>1946.750</ele>
        <time>2018-07-15T18:46:27Z</time>
      </trkpt>
      <trkpt lat="45.685163" lon="6.656144">
        <ele>1963.567</ele>
        <time>2018-07-15T18:46:47Z</time>
      </trkpt>
      <trkpt lat="45.685163" lon="6.656144">
        <ele>1963.554</ele>
        <time>2018-07-15T18:47:07Z</time>
      </trkpt>
      <trkpt lat="45.684811" lon="6.656014">
        <ele>1973.050</ele>
        <time>2018-07-15T18:47:27Z</time>
      </trkpt>
      <trkpt lat="45.684811" lon="6.656014">
        <ele>1973.093</ele>
        <time>2018-07-15T18:47:47Z</time>
      </trkpt>
      <trkpt lat="45.685004" lon="6.655591">
        <ele>1990.465</ele>
        <time>2018-07-15T18:48:07Z</time>
      </trkpt>
      <trkpt lat="45.685004" lon="6.655591">
        <ele>1990.421</ele>
        <time>2018-07-15T18:48:27Z</time>
      </trkpt>
      <trkpt lat="45.684705" lon="6.655432">
        <ele>1999.108</ele>
        <time>2018-07-15T18:48:47Z</time>
      </trkpt>
      <trkpt lat="45.684705" lon="6.655432">
        <ele>1999.171</ele>
        <time>2018-07-15T18:49:07Z</time>
      </trkpt>
      <trkpt lat="45.684974" lon="6.655066">
        <ele>2007.085</ele>
        <time>2018-07-15T18:49:27Z</time>
      </trkpt>
      <trkpt lat="45.684974" lon="6.655066">
        <ele>2007.035</ele>
        <time>2018-07-15T18:49:47Z</time>
      </trkpt>
      <trkpt lat="45.684420" lon="6.654484">
        <ele>2027.724</ele>
        <time>2018-07-15T18:50:07Z</time>
      </trkpt>
      <trkpt lat="45.684420" lon="6.654484">
        <ele>2027.755</ele>
        <time>2018-07-15T18:50:27Z</time>
      </trkpt>
      <trkpt lat="45.684762" lon="6.654366">
        <ele>2033.192</ele>
        <time>2018-07-15T18:50:47Z</time>
      </trkpt>
      <trkpt lat="45.684762" lon="6.654366">
        <ele>2033.199</ele>
        <time>2018-07-15T18:51:07Z</time>
      </trkpt>
      <trkpt lat="45.684424" lon="6.653979">
        <ele>2041.625</ele>
        <time>2018-07-15T18:51:27Z</time>
      </trkpt>
      <trkpt lat="45.684424" lon="6.653979">
        <ele>2041.672</ele>
        <time>2018-07-15T18:51:47Z</time>
      </trkpt>
      <trkpt lat="45.684016" lon="6.652436">
        <ele>2054.113</ele>
        <time>2018-07-15T18:52:07Z</time>
      </trkpt>
      <trkpt lat="45.684016" lon="6.652436">
        <ele>2054.114</ele>
        <time>2018-07-15T18:52:27Z</time>
      </trkpt>
      <trkpt lat="45.683649" lon="6.652523">
        <ele>2056.908</ele>
        <time>2018-07-15T18:52:47Z</time>
      </trkpt>
      <trkpt lat="45.683649" lon="6.652523">
        <ele>2056.979</ele>
        <time>2018-07-15T18:53:07Z</time>
      </trkpt>
      <trkpt lat="45.682959" lon="6.651766">
        <ele>2064.663</ele>
        <time>2018-07-15T18:53:27Z</time>
      </trkpt>
      <trkpt lat="45.682959" lon="6.651766">
        <ele>2064.633</ele>
        <time>2018-07-15T18:53:47Z</time>
      </trkpt>
      <trkpt lat="45.682636" lon="6.651926">
        <ele>2064.982</ele>
        <time>2018-07-15T18:54:07Z</time>
      </trkpt>
      <trkpt lat="45.682636" lon="6.651926">
        <ele>2064.993</ele>
        <time>2018-07-15T18:54:27Z</time>
      </trkpt>
      <trkpt lat="45.680985" lon="6.651722">
        <ele>2068.620</ele>
        <time>2018-07-15T18:54:47Z</time>
      </trkpt>
      <trkpt lat="45.680985" lon="6.651722">
        <ele>2068.657</ele>
        <time>2018-07-15T18:55:07Z</time>
      </trkpt>
      <trkpt lat="45.680388" lon="6.651071">
        <ele>2066.553</ele>
        <time>2018-07-15T18:55:27Z</time>
      </trkpt>
      <trkpt lat="45.680388" lon="6.651071">
        <ele>2066.561</ele>
        <time>2018-07-15T18:55:47Z</time>
      </trkpt>
      <trkpt lat="45.679652" lon="6.648106">
        <ele>2020.021</ele>
        <time>2018-07-15T18:56:07Z</time>
      </trkpt>
      <trkpt lat="45.679652" lon="6.648106">
        <ele>2020.013</ele>
        <time>2018-07-15T18:56:27Z</time>
      </trkpt>
      <trkpt lat="45.680137" lon="6.647742">
        <ele>2006.408</ele>
        <time>2018-07-15T18:56:47Z</time>
      </trkpt>
      <trkpt lat="45.680137" lon="6.647742">
        <ele>2006.438</ele>
        <time>2018-07-15T18:57:07Z</time>
      </trkpt>
      <trkpt lat="45.680025" lon="6.647248">
        <ele>1999.372</ele>
        <time>2018-07-15T18:57:27Z</time>
      </trkpt>
      <trkpt lat="45.680025" lon="6.647248">
        <ele>1999.312</ele>
        <time>2018-07-15T18:57:47Z</time>
      </trkpt>
      <trkpt lat="45.679450" lon="6.646705">
        <ele>2011.691</ele>
        <time>2018-07-15T18:58:07Z</time>
      </trkpt>
      <trkpt lat="45.679450" lon="6.646705">
        <ele>2011.662</ele>
        <time>2018-07-15T18:58:27Z</time>
      </trkpt>
      <trkpt lat="45.678843" lon="6.646569">
        <ele>2013.289</ele>
        <time>2018-07-15T18:58:47Z</time>
      </trkpt>
      <trkpt lat="45.678843" lon="6.646569">
        <ele>2013.266</ele>
        <time>2018-07-15T18:59:07Z</time>
      </trkpt>
      <trkpt lat="45.677918" lon="6.644775">
        <ele>2039.482</ele>
        <time>2018-07-15T18:59:27Z</time>
      </trkpt>
      <trkpt lat="45.677918" lon="6.644775">
        <ele>2039.425</ele>
        <time>2018-07-15T18:59:47Z</time>
      </trkpt>
      <trkpt lat="45.676754" lon="6.644968">
        <ele>2056.026</ele>
        <time>2018-07-15T19:00:07Z</time>
      </trkpt>
      <trkpt lat="45.676754" lon="6.644968">
        <ele>2056.008</ele>
        <time>2018-07-15T19:00:27Z</time>
      </trkpt>
      <trkpt lat="45.676153" lon="6.644168">
        <ele>2042.908</ele>
        <time>2018-07-15T19:00:47Z</time>
      </trkpt>
      <trkpt lat="45.676153" lon="6.644168">
        <ele>2042.914</ele>
        <time>2018-07-15T19:01:07Z</time>
      </trkpt>
      <trkpt lat="45.675668" lon="6.644693">
        <ele>2034.028</ele>
        <time>2018-07-15T19:01:27Z</time>
      </trkpt>
      <trkpt lat="45.675668" lon="6.644693">
        <ele>2034.088</ele>
        <time>2018-07-15T19:01:47Z</time>
      </trkpt>
      <trkpt lat="45.675770" lon="6.643589">
        <ele>2025.497</ele>
        <time>2018-07-15T19:02:07Z</time>
      </trkpt>
      <trkpt lat="45.675770" lon="6.643589">
        <ele>2025.428</ele>
        <time>2018-07-15T19:02:27Z</time>
      </trkpt>
      <trkpt lat="45.675296" lon="6.644400">
        <ele>2019.265</ele>
        <time>2018-07-15T19:02:47Z</time>
      </trkpt>
      <trkpt lat="45.675296" lon="6.644400">
        <ele>2019.282</ele>
        <time>2018-07-15T19:03:07Z</time>
      </trkpt>
      <trkpt lat="45.674915" lon="6.644400">
        <ele>2019.498</ele>
        <time>2018-07-15T19:03:27Z</time>
      </trkpt>
      <trkpt lat="45.674915" lon="6.644400">
        <ele>2019.429</ele>
        <time>2018-07-15T19:03:47Z</time>
      </trkpt>
      <trkpt lat="45.674631" lon="6.643456">
        <ele>2006.400</ele>
        <time>2018-07-15T19:04:07Z</time>
      </trkpt>
      <trkpt lat="45.674631" lon="6.643456">
        <ele>2006.420</ele>
        <time>2018-07-15T19:04:27Z</time>
      </trkpt>
      <trkpt lat="45.674114" lon="6.643032">
        <ele>2008.908</ele>
        <time>2018-07-15T19:04:47Z</time>
      </trkpt>
      <trkpt lat="45.674114" lon="6.643032">
        <ele>2008.984</ele>
        <time>2018-07-15T19:05:07Z</time>
      </trkpt>
      <trkpt lat="45.671328" lon="6.641885">
        <ele>1999.118</ele>
        <time>2018-07-15T19:05:27Z</time>
      </trkpt>
      <trkpt lat="45.671328" lon="6.641885">
        <ele>1999.148</ele>
        <time>2018-07-15T19:05:47Z</time>
      </trkpt>
      <trkpt lat="45.671204" lon="6.641144">
        <ele>1971.927</ele>
        <time>2018-07-15T19:06:07Z</time>
      </trkpt>
      <trkpt lat="45.671204" lon="6.641144">
        <ele>1971.988</ele>
        <time>2018-07-15T19:06:27Z</time>
      </trkpt>
      <trkpt lat="45.670535" lon="6.641023">
        <ele>1982.335</ele>
        <time>2018-07-15T19:06:47Z</time>
      </trkpt>
      <trkpt lat="45.670535" lon="6.641023">
        <ele>1982.362</ele>
        <time>2018-07-15T19:07:07Z</time>
      </trkpt>
      <trkpt lat="45.670041" lon="6.639717">
        <ele>1977.398</ele>
        <time>2018-07-15T19:07:27Z</time>
      </trkpt>
      <trkpt lat="45.670041" lon="6.639717">
        <ele>1977.387</ele>
        <time>2018-07-15T19:07:47Z</time>
      </trkpt>
      <trkpt lat="45.669256" lon="6.639016">
        <ele>1982.442</ele>
        <time>2018-07-15T19:08:07Z</time>
      </trkpt>
      <trkpt lat="45.669256" lon="6.639016">
        <ele>1982.426</ele>
        <time>2018-07-15T19:08:27Z</time>
      </trkpt>
      <trkpt lat="45.668991" lon="6.638084">
        <ele>1978.508</ele>
        <time>2018-07-15T19:08:47Z</time>
      </trkpt>
      <trkpt lat="45.668991" lon="6.638084">
        <ele>1978.520</ele>
        <time>2018-07-15T19:09:07Z</time>
      </trkpt>
      <trkpt lat="45.668352" lon="6.637237">
        <ele>1984.944</ele>
        <time>2018-07-15T19:09:27Z</time>
      </trkpt>
      <trkpt lat="45.668352" lon="6.637237">
        <ele>1984.934</ele>
        <time>2018-07-15T19:09:47Z</time>
      </trkpt>
      <trkpt lat="45.667542" lon="6.638102">
        <ele>1973.843</ele>
        <time>2018-07-15T19:10:07Z</time>
      </trkpt>
      <trkpt lat="45.667542" lon="6.638102">
        <ele>1973.834</ele>
        <time>2018-07-15T19:10:27Z</time>
      </trkpt>
      <trkpt lat="45.667097" lon="6.637944">
        <ele>1962.391</ele>
        <time>2018-07-15T19:10:47Z</time>
      </trkpt>
      <trkpt lat="45.667097" lon="6.637944">
        <ele>1962.318</ele>
        <time>2018-07-15T19:11:07Z</time>
      </trkpt>
      <trkpt lat="45.666510" lon="6.638284">
        <ele>1953.654</ele>
        <time>2018-07-15T19:11:27Z</time>
      </trkpt>
      <trkpt lat="45.666510" lon="6.638284">
        <ele>1953.693</ele>
        <time>2018-07-15T19:11:47Z</time>
      </trkpt>
      <trkpt lat="45.666405" lon="6.636723">
        <ele>1925.265</ele>
        <time>2018-07-15T19:12:07Z</time>
      </trkpt>
      <trkpt lat="45.666405" lon="6.636723">
        <ele>1925.221</ele>
        <time>2018-07-15T19:12:27Z</time>
      </trkpt>
      <trkpt lat="45.665957" lon="6.637245">
        <ele>1921.708</ele>
        <time>2018-07-15T19:12:47Z</time>
      </trkpt>
      <trkpt lat="45.665957" lon="6.637245">
        <ele>1921.761</ele>
        <time>2018-07-15T19:13:07Z</time>
      </trkpt>
      <trkpt lat="45.665308" lon="6.636767">
        <ele>1911.525</ele>
        <time>2018-07-15T19:13:27Z</time>
      </trkpt>
      <trkpt lat="45.665308" lon="6.636767">
        <ele>1911.565</ele>
        <time>2018-07-15T19:13:47Z</time>
      </trkpt>
      <trkpt lat="45.664987" lon="6.636831">
        <ele>1907.044</ele>
        <time>2018-07-15T19:14:07Z</time>
      </trkpt>
      <trkpt lat="45.664987" lon="6.636831">
        <ele>1907.035</ele>
        <time>2018-07-15T19:14:27Z</time>
      </trkpt>
      <trkpt lat="45.665085" lon="6.636437">
        <ele>1903.032</ele>
        <time>2018-07-15T19:14:47Z</time>
      </trkpt>
      <trkpt lat="45.665085" lon="6.636437">
        <ele>1903.079</ele>
        <time>2018-07-15T19:15:07Z</time>
      </trkpt>
      <trkpt lat="45.664798" lon="6.636657">
        <ele>1898.395</ele>
        <time>2018-07-15T19:15:27Z</time>
      </trkpt>
      <trkpt lat="45.664798" lon="6.636657">
        <ele>1898.368</ele>
        <time>2018-07-15T19:15:47Z</time>
      </trkpt>
      <trkpt lat="45.664792" lon="6.636436">
        <ele>1894.942</ele>
        <time>2018-07-15T19:16:07Z</time>
      </trkpt>
      <trkpt lat="45.664792" lon="6.636436">
        <ele>1894.926</ele>
        <time>2018-07-15T19:16:27Z</time>
      </trkpt>
      <trkpt lat="45.665060" lon="6.635744">
        <ele>1885.808</ele>
        <time>2018-07-15T19:16:47Z</time>
      </trkpt>
      <trkpt lat="45.665060" lon="6.635744">
        <ele>1885.878</ele>
        <time>2018-07-15T19:17:07Z</time>
      </trkpt>
      <trkpt lat="45.664616" lon="6.635885">
        <ele>1875.822</ele>
        <time>2018-07-15T19:17:27Z</time>
      </trkpt>
      <trkpt lat="45.664616" lon="6.635885">
        <ele>1875.832</ele>
        <time>2018-07-15T19:17:47Z</time>
      </trkpt>
      <trkpt lat="45.664336" lon="6.636361">
        <ele>1874.771</ele>
        <time>2018-07-15T19:18:07Z</time>
      </trkpt>
      <trkpt lat="45.664336" lon="6.636361">
        <ele>1874.792</ele>
        <time>2018-07-15T19:18:27Z</time>
      </trkpt>
      <trkpt lat="45.662791" lon="6.637678">
        <ele>1855.319</ele>
        <time>2018-07-15T19:18:47Z</time>
      </trkpt>
      <trkpt lat="45.662791" lon="6.637678">
        <ele>1855.316</ele>
        <time>2018-07-15T19:19:07Z</time>
      </trkpt>
      <trkpt lat="45.662944" lon="6.636766">
        <ele>1838.912</ele>
        <time>2018-07-15T19:19:27Z</time>
      </trkpt>
      <trkpt lat="45.662944" lon="6.636766">
        <ele>1838.927</ele>
        <time>2018-07-15T19:19:47Z</time>
      </trkpt>
      <trkpt lat="45.662114" lon="6.637603">
        <ele>1822.968</ele>
        <time>2018-07-15T19:20:07Z</time>
      </trkpt>
      <trkpt lat="45.662114" lon="6.637603">
        <ele>1822.914</ele>
        <time>2018-07-15T19:20:27Z</time>
      </trkpt>
      <trkpt lat="45.661913" lon="6.637816">
        <ele>1816.508</ele>
        <time>2018-07-15T19:20:47Z</time>
      </trkpt>
      <trkpt lat="45.661913" lon="6.637816">
        <ele>1816.514</ele>
        <time>2018-07-15T19:21:07Z</time>
      </trkpt>
      <trkpt lat="45.661787" lon="6.637909">
        <ele>1813.298</ele>
        <time>2018-07-15T19:21:27Z</time>
      </trkpt>
      <trkpt lat="45.661787" lon="6.637909">
        <ele>1813.298</ele>
        <time>2018-07-15T19:21:47Z</time>
      </trkpt>
      <trkpt lat="45.661687" lon="6.638099">
        <ele>1811.127</ele>
        <time>2018-07-15T19:22:07Z</time>
      </trkpt>
      <trkpt lat="45.661687" lon="6.638099">
        <ele>1811.198</ele>
        <time>2018-07-15T19:22:27Z</time>
      </trkpt>
      <trkpt lat="45.661608" lon="6.638265">
        <ele>1807.785</ele>
        <time>2018-07-15T19:22:47Z</time>
      </trkpt>
      <trkpt lat="45.661608" lon="6.638265">
        <ele>1807.732</ele>
        <time>2018-07-15T19:23:07Z</time>
      </trkpt>
      <trkpt lat="45.661558" lon="6.638455">
        <ele>1807.458</ele>
        <time>2018-07-15T19:23:27Z</time>
      </trkpt>
      <trkpt lat="45.661558" lon="6.638455">
        <ele>1807.465</ele>
        <time>2018-07-15T19:23:47Z</time>
      </trkpt>
      <trkpt lat="45.661487" lon="6.638622">
        <ele>1806.968</ele>
        <time>2018-07-15T19:24:07Z</time>
      </trkpt>
      <trkpt lat="45.661487" lon="6.638622">
        <ele>1806.914</ele>
        <time>2018-07-15T19:24:27Z</time>
      </trkpt>
      <trkpt lat="45.661438" lon="6.638819">
        <ele>1810.308</ele>
        <time>2018-07-15T19:24:47Z</time>
      </trkpt>
      <trkpt lat="45.661438" lon="6.638819">
        <ele>1810.398</ele>
        <time>2018-07-15T19:25:07Z</time>
      </trkpt>
      <trkpt lat="45.661287" lon="6.638726">
        <ele>1804.072</ele>
        <time>2018-07-15T19:25:27Z</time>
      </trkpt>
      <trkpt lat="45.661287" lon="6.638726">
        <ele>1804.062</ele>
        <time>2018-07-15T19:25:47Z</time>
      </trkpt>
      <trkpt lat="45.661202" lon="6.638773">
        <ele>1804.481</ele>
        <time>2018-07-15T19:26:07Z</time>
      </trkpt>
      <trkpt lat="45.661202" lon="6.638773">
        <ele>1804.412</ele>
        <time>2018-07-15T19:26:27Z</time>
      </trkpt>
      <trkpt lat="45.660869" lon="6.638922">
        <ele>1800.889</ele>
        <time>2018-07-15T19:26:47Z</time>
      </trkpt>
      <trkpt lat="45.660869" lon="6.638922">
        <ele>1800.846</ele>
        <time>2018-07-15T19:27:07Z</time>
      </trkpt>
      <trkpt lat="45.660242" lon="6.639091">
        <ele>1796.942</ele>
        <time>2018-07-15T19:27:27Z</time>
      </trkpt>
      <trkpt lat="45.660242" lon="6.639091">
        <ele>1796.931</ele>
        <time>2018-07-15T19:27:47Z</time>
      </trkpt>
      <trkpt lat="45.659673" lon="6.638999">
        <ele>1793.061</ele>
        <time>2018-07-15T19:28:07Z</time>
      </trkpt>
      <trkpt lat="45.659673" lon="6.638999">
        <ele>1793.007</ele>
        <time>2018-07-15T19:28:27Z</time>
      </trkpt>
      <trkpt lat="45.658998" lon="6.639168">
        <ele>1792.408</ele>
        <time>2018-07-15T19:28:47Z</time>
      </trkpt>
      <trkpt lat="45.658998" lon="6.639168">
        <ele>1792.435</ele>
        <time>2018-07-15T19:29:07Z</time>
      </trkpt>
      <trkpt lat="45.658226" lon="6.639554">
        <ele>1796.659</ele>
        <time>2018-07-15T19:29:27Z</time>
      </trkpt>
      <trkpt lat="45.658226" lon="6.639554">
        <ele>1796.619</ele>
        <time>2018-07-15T19:29:47Z</time>
      </trkpt>
      <trkpt lat="45.657143" lon="6.640067">
        <ele>1797.598</ele>
        <time>2018-07-15T19:30:07Z</time>
      </trkpt>
      <trkpt lat="45.657143" lon="6.640067">
        <ele>1797.529</ele>
        <time>2018-07-15T19:30:27Z</time>
      </trkpt>
      <trkpt lat="45.656541" lon="6.640974">
        <ele>1810.496</ele>
        <time>2018-07-15T19:30:47Z</time>
      </trkpt>
      <trkpt lat="45.656541" lon="6.640974">
        <ele>1810.493</ele>
        <time>2018-07-15T19:31:07Z</time>
      </trkpt>
      <trkpt lat="45.656286" lon="6.641358">
        <ele>1814.089</ele>
        <time>2018-07-15T19:31:27Z</time>
      </trkpt>
      <trkpt lat="45.656286" lon="6.641358">
        <ele>1814.059</ele>
        <time>2018-07-15T19:31:47Z</time>
      </trkpt>
      <trkpt lat="45.655445" lon="6.641881">
        <ele>1816.503</ele>
        <time>2018-07-15T19:32:07Z</time>
      </trkpt>
      <trkpt lat="45.655445" lon="6.641881">
        <ele>1816.523</ele>
        <time>2018-07-15T19:32:27Z</time>
      </trkpt>
      <trkpt lat="45.655234" lon="6.642156">
        <ele>1824.508</ele>
        <time>2018-07-15T19:32:47Z</time>
      </trkpt>
      <trkpt lat="45.655234" lon="6.642156">
        <ele>1824.577</ele>
        <time>2018-07-15T19:33:07Z</time>
      </trkpt>
      <trkpt lat="45.653537" lon="6.643112">
        <ele>1879.661</ele>
        <time>2018-07-15T19:33:27Z</time>
      </trkpt>
      <trkpt lat="45.653537" lon="6.643112">
        <ele>1879.691</ele>
        <time>2018-07-15T19:33:47Z</time>
      </trkpt>
      <trkpt lat="45.653585" lon="6.643718">
        <ele>1901.010</ele>
        <time>2018-07-15T19:34:07Z</time>
      </trkpt>
      <trkpt lat="45.653585" lon="6.643718">
        <ele>1901.071</ele>
        <time>2018-07-15T19:34:27Z</time>
      </trkpt>
      <trkpt lat="45.653307" lon="6.643565">
        <ele>1909.438</ele>
        <time>2018-07-15T19:34:47Z</time>
      </trkpt>
      <trkpt lat="45.653307" lon="6.643565">
        <ele>1909.435</ele>
        <time>2018-07-15T19:35:07Z</time>
      </trkpt>
      <trkpt lat="45.653355" lon="6.643758">
        <ele>1915.111</ele>
        <time>2018-07-15T19:35:27Z</time>
      </trkpt>
      <trkpt lat="45.653355" lon="6.643758">
        <ele>1915.138</ele>
        <time>2018-07-15T19:35:47Z</time>
      </trkpt>
      <trkpt lat="45.652672" lon="6.643768">
        <ele>1934.470</ele>
        <time>2018-07-15T19:36:07Z</time>
      </trkpt>
      <trkpt lat="45.652672" lon="6.643768">
        <ele>1934.417</ele>
        <time>2018-07-15T19:36:27Z</time>
      </trkpt>
      <trkpt lat="45.652246" lon="6.642744">
        <ele>1944.608</ele>
        <time>2018-07-15T19:36:47Z</time>
      </trkpt>
      <trkpt lat="45.652246" lon="6.642744">
        <ele>1944.615</ele>
        <time>2018-07-15T19:37:07Z</time>
      </trkpt>
      <trkpt lat="45.650805" lon="6.641401">
        <ele>1980.319</ele>
        <time>2018-07-15T19:37:27Z</time>
      </trkpt>
      <trkpt lat="45.650805" lon="6.641401">
        <ele>1980.379</ele>
        <time>2018-07-15T19:37:47Z</time>
      </trkpt>
      <trkpt lat="45.649769" lon="6.642191">
        <ele>2000.518</ele>
        <time>2018-07-15T19:38:07Z</time>
      </trkpt>
      <trkpt lat="45.649769" lon="6.642191">
        <ele>2000.579</ele>
        <time>2018-07-15T19:38:27Z</time>
      </trkpt>
      <trkpt lat="45.649728" lon="6.642524">
        <ele>2002.096</ele>
        <time>2018-07-15T19:38:47Z</time>
      </trkpt>
      <trkpt lat="45.649728" lon="6.642524">
        <ele>2002.053</ele>
        <time>2018-07-15T19:39:07Z</time>
      </trkpt>
      <trkpt lat="45.648979" lon="6.642256">
        <ele>2011.459</ele>
        <time>2018-07-15T19:39:27Z</time>
      </trkpt>
      <trkpt lat="45.648979" lon="6.642256">
        <ele>2011.426</ele>
        <time>2018-07-15T19:39:47Z</time>
      </trkpt>
      <trkpt lat="45.647845" lon="6.643004">
        <ele>2053.947</ele>
        <time>2018-07-15T19:40:07Z</time>
      </trkpt>
      <trkpt lat="45.647845" lon="6.643004">
        <ele>2053.911</ele>
        <time>2018-07-15T19:40:27Z</time>
      </trkpt>
      <trkpt lat="45.648021" lon="6.644429">
        <ele>2088.308</ele>
        <time>2018-07-15T19:40:47Z</time>
      </trkpt>
      <trkpt lat="45.648021" lon="6.644429">
        <ele>2088.314</ele>
        <time>2018-07-15T19:41:07Z</time>
      </trkpt>
      <trkpt lat="45.648546" lon="6.645340">
        <ele>2105.698</ele>
        <time>2018-07-15T19:41:27Z</time>
      </trkpt>
      <trkpt lat="45.648546" lon="6.645340">
        <ele>2105.638</ele>
        <time>2018-07-15T19:41:47Z</time>
      </trkpt>
      <trkpt lat="45.648586" lon="6.646088">
        <ele>2117.947</ele>
        <time>2018-07-15T19:42:07Z</time>
      </trkpt>
      <trkpt lat="45.648586" lon="6.646088">
        <ele>2117.998</ele>
        <time>2018-07-15T19:42:27Z</time>
      </trkpt>
      <trkpt lat="45.647513" lon="6.647161">
        <ele>2147.565</ele>
        <time>2018-07-15T19:42:47Z</time>
      </trkpt>
      <trkpt lat="45.647513" lon="6.647161">
        <ele>2147.512</ele>
        <time>2018-07-15T19:43:07Z</time>
      </trkpt>
      <trkpt lat="45.647047" lon="6.646873">
        <ele>2161.468</ele>
        <time>2018-07-15T19:43:27Z</time>
      </trkpt>
      <trkpt lat="45.647047" lon="6.646873">
        <ele>2161.447</ele>
        <time>2018-07-15T19:43:47Z</time>
      </trkpt>
      <trkpt lat="45.646593" lon="6.647050">
        <ele>2175.329</ele>
        <time>2018-07-15T19:44:07Z</time>
      </trkpt>
      <trkpt lat="45.646593" lon="6.647050">
        <ele>2175.321</ele>
        <time>2018-07-15T19:44:27Z</time>
      </trkpt>
      <trkpt lat="45.646171" lon="6.647806">
        <ele>2204.708</ele>
        <time>2018-07-15T19:44:47Z</time>
      </trkpt>
      <trkpt lat="45.646171" lon="6.647806">
        <ele>2204.756</ele>
        <time>2018-07-15T19:45:07Z</time>
      </trkpt>
      <trkpt lat="45.647072" lon="6.649540">
        <ele>2251.430</ele>
        <time>2018-07-15T19:45:27Z</time>
      </trkpt>
      <trkpt lat="45.647072" lon="6.649540">
        <ele>2251.480</ele>
        <time>2018-07-15T19:45:47Z</time>
      </trkpt>
      <trkpt lat="45.647105" lon="6.650659">
        <ele>2270.429</ele>
        <time>2018-07-15T19:46:07Z</time>
      </trkpt>
      <trkpt lat="45.647105" lon="6.650659">
        <ele>2270.430</ele>
        <time>2018-07-15T19:46:27Z</time>
      </trkpt>
      <trkpt lat="45.647016" lon="6.651182">
        <ele>2282.137</ele>
        <time>2018-07-15T19:46:47Z</time>
      </trkpt>
      <trkpt lat="45.647016" lon="6.651182">
        <ele>2282.134</ele>
        <time>2018-07-15T19:47:07Z</time>
      </trkpt>
      <trkpt lat="45.646428" lon="6.651763">
        <ele>2311.750</ele>
        <time>2018-07-15T19:47:27Z</time>
      </trkpt>
      <trkpt lat="45.646428" lon="6.651763">
        <ele>2311.784</ele>
        <time>2018-07-15T19:47:47Z</time>
      </trkpt>
      <trkpt lat="45.646051" lon="6.653508">
        <ele>2358.407</ele>
        <time>2018-07-15T19:48:07Z</time>
      </trkpt>
      <trkpt lat="45.646051" lon="6.653508">
        <ele>2358.417</ele>
        <time>2018-07-15T19:48:27Z</time>
      </trkpt>
      <trkpt lat="45.645615" lon="6.653848">
        <ele>2374.908</ele>
        <time>2018-07-15T19:48:47Z</time>
      </trkpt>
      <trkpt lat="45.645615" lon="6.653848">
        <ele>2374.910</ele>
        <time>2018-07-15T19:49:07Z</time>
      </trkpt>
      <trkpt lat="45.644960" lon="6.653934">
        <ele>2380.844</ele>
        <time>2018-07-15T19:49:27Z</time>
      </trkpt>
      <trkpt lat="45.644960" lon="6.653934">
        <ele>2380.884</ele>
        <time>2018-07-15T19:49:47Z</time>
      </trkpt>
      <trkpt lat="45.644879" lon="6.654264">
        <ele>2393.273</ele>
        <time>2018-07-15T19:50:07Z</time>
      </trkpt>
      <trkpt lat="45.644879" lon="6.654264">
        <ele>2393.284</ele>
        <time>2018-07-15T19:50:27Z</time>
      </trkpt>
      <trkpt lat="45.645210" lon="6.654379">
        <ele>2402.521</ele>
        <time>2018-07-15T19:50:47Z</time>
      </trkpt>
      <trkpt lat="45.645210" lon="6.654379">
        <ele>2402.598</ele>
        <time>2018-07-15T19:51:07Z</time>
      </trkpt>
      <trkpt lat="45.645271" lon="6.654912">
        <ele>2427.294</ele>
        <time>2018-07-15T19:51:27Z</time>
      </trkpt>
      <trkpt lat="45.645271" lon="6.654912">
        <ele>2427.252</ele>
        <time>2018-07-15T19:51:47Z</time>
      </trkpt>
      <trkpt lat="45.644873" lon="6.655939">
        <ele>2446.553</ele>
        <time>2018-07-15T19:52:07Z</time>
      </trkpt>
      <trkpt lat="45.644873" lon="6.655939">
        <ele>2446.508</ele>
        <time>2018-07-15T19:52:27Z</time>
      </trkpt>
      <trkpt lat="45.644970" lon="6.657632">
        <ele>2443.908</ele>
        <time>2018-07-15T19:52:47Z</time>
      </trkpt>
      <trkpt lat="45.644970" lon="6.657632">
        <ele>2443.947</ele>
        <time>2018-07-15T19:53:07Z</time>
      </trkpt>
      <trkpt lat="45.644295" lon="6.658575">
        <ele>2400.931</ele>
        <time>2018-07-15T19:53:27Z</time>
      </trkpt>
      <trkpt lat="45.644295" lon="6.658575">
        <ele>2400.941</ele>
        <time>2018-07-15T19:53:47Z</time>
      </trkpt>
      <trkpt lat="45.643796" lon="6.661872">
        <ele>2346.250</ele>
        <time>2018-07-15T19:54:07Z</time>
      </trkpt>
      <trkpt lat="45.643796" lon="6.661872">
        <ele>2346.261</ele>
        <time>2018-07-15T19:54:27Z</time>
      </trkpt>
      <trkpt lat="45.642859" lon="6.662649">
        <ele>2323.078</ele>
        <time>2018-07-15T19:54:47Z</time>
      </trkpt>
      <trkpt lat="45.642859" lon="6.662649">
        <ele>2323.055</ele>
        <time>2018-07-15T19:55:07Z</time>
      </trkpt>
      <trkpt lat="45.642268" lon="6.662627">
        <ele>2307.141</ele>
        <time>2018-07-15T19:55:27Z</time>
      </trkpt>
      <trkpt lat="45.642268" lon="6.662627">
        <ele>2307.143</ele>
        <time>2018-07-15T19:55:47Z</time>
      </trkpt>
      <trkpt lat="45.642119" lon="6.662953">
        <ele>2295.264</ele>
        <time>2018-07-15T19:56:07Z</time>
      </trkpt>
      <trkpt lat="45.642119" lon="6.662953">
        <ele>2295.210</ele>
        <time>2018-07-15T19:56:27Z</time>
      </trkpt>
      <trkpt lat="45.640479" lon="6.662661">
        <ele>2249.508</ele>
        <time>2018-07-15T19:56:47Z</time>
      </trkpt>
      <trkpt lat="45.640479" lon="6.662661">
        <ele>2249.566</ele>
        <time>2018-07-15T19:57:07Z</time>
      </trkpt>
      <trkpt lat="45.638767" lon="6.663130">
        <ele>2207.710</ele>
        <time>2018-07-15T19:57:27Z</time>
      </trkpt>
      <trkpt lat="45.638767" lon="6.663130">
        <ele>2207.740</ele>
        <time>2018-07-15T19:57:47Z</time>
      </trkpt>
      <trkpt lat="45.637826" lon="6.662793">
        <ele>2190.139</ele>
        <time>2018-07-15T19:58:07Z</time>
      </trkpt>
      <trkpt lat="45.637826" lon="6.662793">
        <ele>2190.140</ele>
        <time>2018-07-15T19:58:27Z</time>
      </trkpt>
      <trkpt lat="45.636500" lon="6.661902">
        <ele>2156.817</ele>
        <time>2018-07-15T19:58:47Z</time>
      </trkpt>
      <trkpt lat="45.636500" lon="6.661902">
        <ele>2156.814</ele>
        <time>2018-07-15T19:59:07Z</time>
      </trkpt>
      <trkpt lat="45.635924" lon="6.661945">
        <ele>2150.390</ele>
        <time>2018-07-15T19:59:27Z</time>
      </trkpt>
      <trkpt lat="45.635924" lon="6.661945">
        <ele>2150.399</ele>
        <time>2018-07-15T19:59:47Z</time>
      </trkpt>
      <trkpt lat="45.634356" lon="6.663389">
        <ele>2126.407</ele>
        <time>2018-07-15T20:00:07Z</time>
      </trkpt>
      <trkpt lat="45.634356" lon="6.663389">
        <ele>2126.427</ele>
        <time>2018-07-15T20:00:27Z</time>
      </trkpt>
      <trkpt lat="45.633839" lon="6.663454">
        <ele>2103.708</ele>
        <time>2018-07-15T20:00:47Z</time>
      </trkpt>
      <trkpt lat="45.633839" lon="6.663454">
        <ele>2103.751</ele>
        <time>2018-07-15T20:01:07Z</time>
      </trkpt>
      <trkpt lat="45.633563" lon="6.664167">
        <ele>2089.125</ele>
        <time>2018-07-15T20:01:27Z</time>
      </trkpt>
      <trkpt lat="45.633563" lon="6.664167">
        <ele>2089.135</ele>
        <time>2018-07-15T20:01:47Z</time>
      </trkpt>
      <trkpt lat="45.633249" lon="6.664189">
        <ele>2078.374</ele>
        <time>2018-07-15T20:02:07Z</time>
      </trkpt>
      <trkpt lat="45.633249" lon="6.664189">
        <ele>2078.325</ele>
        <time>2018-07-15T20:02:27Z</time>
      </trkpt>
      <trkpt lat="45.632583" lon="6.664962">
        <ele>2052.162</ele>
        <time>2018-07-15T20:02:47Z</time>
      </trkpt>
      <trkpt lat="45.632583" lon="6.664962">
        <ele>2052.169</ele>
        <time>2018-07-15T20:03:07Z</time>
      </trkpt>
      <trkpt lat="45.632251" lon="6.666067">
        <ele>2036.355</ele>
        <time>2018-07-15T20:03:27Z</time>
      </trkpt>
      <trkpt lat="45.632251" lon="6.666067">
        <ele>2036.331</ele>
        <time>2018-07-15T20:03:47Z</time>
      </trkpt>
      <trkpt lat="45.632375" lon="6.666967">
        <ele>2029.861</ele>
        <time>2018-07-15T20:04:07Z</time>
      </trkpt>
      <trkpt lat="45.632375" lon="6.666967">
        <ele>2029.807</ele>
        <time>2018-07-15T20:04:27Z</time>
      </trkpt>
      <trkpt lat="45.632026" lon="6.668885">
        <ele>2011.308</ele>
        <time>2018-07-15T20:04:47Z</time>
      </trkpt>
      <trkpt lat="45.632026" lon="6.668885">
        <ele>2011.335</ele>
        <time>2018-07-15T20:05:07Z</time>
      </trkpt>
      <trkpt lat="45.632799" lon="6.669627">
        <ele>1998.519</ele>
        <time>2018-07-15T20:05:27Z</time>
      </trkpt>
      <trkpt lat="45.632799" lon="6.669627">
        <ele>1998.579</ele>
        <time>2018-07-15T20:05:47Z</time>
      </trkpt>
      <trkpt lat="45.632208" lon="6.670348">
        <ele>1981.018</ele>
        <time>2018-07-15T20:06:07Z</time>
      </trkpt>
      <trkpt lat="45.632208" lon="6.670348">
        <ele>1981.069</ele>
        <time>2018-07-15T20:06:27Z</time>
      </trkpt>
      <trkpt lat="45.633426" lon="6.670775">
        <ele>1968.616</ele>
        <time>2018-07-15T20:06:47Z</time>
      </trkpt>
      <trkpt lat="45.633426" lon="6.670775">
        <ele>1968.683</ele>
        <time>2018-07-15T20:07:07Z</time>
      </trkpt>
      <trkpt lat="45.634247" lon="6.672956">
        <ele>1941.229</ele>
        <time>2018-07-15T20:07:27Z</time>
      </trkpt>
      <trkpt lat="45.634247" lon="6.672956">
        <ele>1941.295</ele>
        <time>2018-07-15T20:07:47Z</time>
      </trkpt>
      <trkpt lat="45.634092" lon="6.673759">
        <ele>1929.349</ele>
        <time>2018-07-15T20:08:07Z</time>
      </trkpt>
      <trkpt lat="45.634092" lon="6.673759">
        <ele>1929.323</ele>
        <time>2018-07-15T20:08:27Z</time>
      </trkpt>
      <trkpt lat="45.632595" lon="6.675023">
        <ele>1900.608</ele>
        <time>2018-07-15T20:08:47Z</time>
      </trkpt>
      <trkpt lat="45.632595" lon="6.675023">
        <ele>1900.641</ele>
        <time>2018-07-15T20:09:07Z</time>
      </trkpt>
      <trkpt lat="45.631363" lon="6.675350">
        <ele>1880.445</ele>
        <time>2018-07-15T20:09:27Z</time>
      </trkpt>
      <trkpt lat="45.631363" lon="6.675350">
        <ele>1880.475</ele>
        <time>2018-07-15T20:09:47Z</time>
      </trkpt>
      <trkpt lat="45.630958" lon="6.675681">
        <ele>1874.414</ele>
        <time>2018-07-15T20:10:07Z</time>
      </trkpt>
      <trkpt lat="45.630958" lon="6.675681">
        <ele>1874.425</ele>
        <time>2018-07-15T20:10:27Z</time>
      </trkpt>
      <trkpt lat="45.631123" lon="6.674542">
        <ele>1865.092</ele>
        <time>2018-07-15T20:10:47Z</time>
      </trkpt>
      <trkpt lat="45.631123" lon="6.674542">
        <ele>1865.069</ele>
        <time>2018-07-15T20:11:07Z</time>
      </trkpt>
      <trkpt lat="45.630941" lon="6.674546">
        <ele>1861.385</ele>
        <time>2018-07-15T20:11:27Z</time>
      </trkpt>
      <trkpt lat="45.630941" lon="6.674546">
        <ele>1861.391</ele>
        <time>2018-07-15T20:11:47Z</time>
      </trkpt>
      <trkpt lat="45.629808" lon="6.675521">
        <ele>1842.681</ele>
        <time>2018-07-15T20:12:07Z</time>
      </trkpt>
      <trkpt lat="45.629808" lon="6.675521">
        <ele>1842.619</ele>
        <time>2018-07-15T20:12:27Z</time>
      </trkpt>
      <trkpt lat="45.628001" lon="6.675908">
        <ele>1810.208</ele>
        <time>2018-07-15T20:12:47Z</time>
      </trkpt>
      <trkpt lat="45.628001" lon="6.675908">
        <ele>1810.231</ele>
        <time>2018-07-15T20:13:07Z</time>
      </trkpt>
      <trkpt lat="45.625832" lon="6.676991">
        <ele>1773.535</ele>
        <time>2018-07-15T20:13:27Z</time>
      </trkpt>
      <trkpt lat="45.625832" lon="6.676991">
        <ele>1773.545</ele>
        <time>2018-07-15T20:13:47Z</time>
      </trkpt>
      <trkpt lat="45.623287" lon="6.678914">
        <ele>1737.444</ele>
        <time>2018-07-15T20:14:07Z</time>
      </trkpt>
      <trkpt lat="45.623287" lon="6.678914">
        <ele>1737.495</ele>
        <time>2018-07-15T20:14:27Z</time>
      </trkpt>
      <trkpt lat="45.622184" lon="6.678979">
        <ele>1727.452</ele>
        <time>2018-07-15T20:14:47Z</time>
      </trkpt>
      <trkpt lat="45.622184" lon="6.678979">
        <ele>1727.489</ele>
        <time>2018-07-15T20:15:07Z</time>
      </trkpt>
      <trkpt lat="45.621377" lon="6.678729">
        <ele>1714.945</ele>
        <time>2018-07-15T20:15:27Z</time>
      </trkpt>
      <trkpt lat="45.621377" lon="6.678729">
        <ele>1714.985</ele>
        <time>2018-07-15T20:15:47Z</time>
      </trkpt>
      <trkpt lat="45.620897" lon="6.678886">
        <ele>1708.189</ele>
        <time>2018-07-15T20:16:07Z</time>
      </trkpt>
      <trkpt lat="45.620897" lon="6.678886">
        <ele>1708.117</ele>
        <time>2018-07-15T20:16:27Z</time>
      </trkpt>
      <trkpt lat="45.620498" lon="6.678485">
        <ele>1699.008</ele>
        <time>2018-07-15T20:16:47Z</time>
      </trkpt>
      <trkpt lat="45.620498" lon="6.678485">
        <ele>1699.090</ele>
        <time>2018-07-15T20:17:07Z</time>
      </trkpt>
      <trkpt lat="45.620140" lon="6.678825">
        <ele>1695.574</ele>
        <time>2018-07-15T20:17:27Z</time>
      </trkpt>
      <trkpt lat="45.620140" lon="6.678825">
        <ele>1695.514</ele>
        <time>2018-07-15T20:17:47Z</time>
      </trkpt>
      <trkpt lat="45.619644" lon="6.678890">
        <ele>1690.743</ele>
        <time>2018-07-15T20:18:07Z</time>
      </trkpt>
      <trkpt lat="45.619644" lon="6.678890">
        <ele>1690.724</ele>
        <time>2018-07-15T20:18:27Z</time>
      </trkpt>
      <trkpt lat="45.618258" lon="6.678367">
        <ele>1679.881</ele>
        <time>2018-07-15T20:18:47Z</time>
      </trkpt>
      <trkpt lat="45.618258" lon="6.678367">
        <ele>1679.828</ele>
        <time>2018-07-15T20:19:07Z</time>
      </trkpt>
      <trkpt lat="45.616358" lon="6.678544">
        <ele>1658.734</ele>
        <time>2018-07-15T20:19:27Z</time>
      </trkpt>
      <trkpt lat="45.616358" lon="6.678544">
        <ele>1658.768</ele>
        <time>2018-07-15T20:19:47Z</time>
      </trkpt>
      <trkpt lat="45.614285" lon="6.679329">
        <ele>1642.642</ele>
        <time>2018-07-15T20:20:07Z</time>
      </trkpt>
      <trkpt lat="45.614285" lon="6.679329">
        <ele>1642.626</ele>
        <time>2018-07-15T20:20:27Z</time>
      </trkpt>
      <trkpt lat="45.613106" lon="6.679292">
        <ele>1636.308</ele>
        <time>2018-07-15T20:20:47Z</time>
      </trkpt>
      <trkpt lat="45.613106" lon="6.679292">
        <ele>1636.368</ele>
        <time>2018-07-15T20:21:07Z</time>
      </trkpt>
      <trkpt lat="45.612355" lon="6.679961">
        <ele>1632.552</ele>
        <time>2018-07-15T20:21:27Z</time>
      </trkpt>
      <trkpt lat="45.612355" lon="6.679961">
        <ele>1632.532</ele>
        <time>2018-07-15T20:21:47Z</time>
      </trkpt>
      <trkpt lat="45.611615" lon="6.680158">
        <ele>1631.511</ele>
        <time>2018-07-15T20:22:07Z</time>
      </trkpt>
      <trkpt lat="45.611615" lon="6.680158">
        <ele>1631.572</ele>
        <time>2018-07-15T20:22:27Z</time>
      </trkpt>
      <trkpt lat="45.608864" lon="6.678903">
        <ele>1632.079</ele>
        <time>2018-07-15T20:22:47Z</time>
      </trkpt>
      <trkpt lat="45.608864" lon="6.678903">
        <ele>1632.086</ele>
        <time>2018-07-15T20:23:07Z</time>
      </trkpt>
      <trkpt lat="45.608837" lon="6.677681">
        <ele>1622.142</ele>
        <time>2018-07-15T20:23:27Z</time>
      </trkpt>
      <trkpt lat="45.608837" lon="6.677681">
        <ele>1622.145</ele>
        <time>2018-07-15T20:23:47Z</time>
      </trkpt>
      <trkpt lat="45.607971" lon="6.677129">
        <ele>1614.747</ele>
        <time>2018-07-15T20:24:07Z</time>
      </trkpt>
      <trkpt lat="45.607971" lon="6.677129">
        <ele>1614.711</ele>
        <time>2018-07-15T20:24:27Z</time>
      </trkpt>
      <trkpt lat="45.608051" lon="6.677043">
        <ele>1614.008</ele>
        <time>2018-07-15T20:24:47Z</time>
      </trkpt>
      <trkpt lat="45.608051" lon="6.677043">
        <ele>1614.056</ele>
        <time>2018-07-15T20:25:07Z</time>
      </trkpt>
      <trkpt lat="45.608236" lon="6.676941">
        <ele>1612.310</ele>
        <time>2018-07-15T20:25:27Z</time>
      </trkpt>
      <trkpt lat="45.608236" lon="6.676941">
        <ele>1612.380</ele>
        <time>2018-07-15T20:25:47Z</time>
      </trkpt>
      <trkpt lat="45.608409" lon="6.676844">
        <ele>1610.719</ele>
        <time>2018-07-15T20:26:07Z</time>
      </trkpt>
      <trkpt lat="45.608409" lon="6.676844">
        <ele>1610.790</ele>
        <time>2018-07-15T20:26:27Z</time>
      </trkpt>
      <trkpt lat="45.608025" lon="6.676533">
        <ele>1607.077</ele>
        <time>2018-07-15T20:26:47Z</time>
      </trkpt>
      <trkpt lat="45.608025" lon="6.676533">
        <ele>1607.054</ele>
        <time>2018-07-15T20:27:07Z</time>
      </trkpt>
      <trkpt lat="45.607416" lon="6.676586">
        <ele>1605.810</ele>
        <time>2018-07-15T20:27:27Z</time>
      </trkpt>
      <trkpt lat="45.607416" lon="6.676586">
        <ele>1605.822</ele>
        <time>2018-07-15T20:27:47Z</time>
      </trkpt>
      <trkpt lat="45.606973" lon="6.676385">
        <ele>1603.062</ele>
        <time>2018-07-15T20:28:07Z</time>
      </trkpt>
      <trkpt lat="45.606973" lon="6.676385">
        <ele>1603.008</ele>
        <time>2018-07-15T20:28:27Z</time>
      </trkpt>
      <trkpt lat="45.606667" lon="6.676325">
        <ele>1603.508</ele>
        <time>2018-07-15T20:28:47Z</time>
      </trkpt>
      <trkpt lat="45.606667" lon="6.676325">
        <ele>1603.554</ele>
        <time>2018-07-15T20:29:07Z</time>
      </trkpt>
      <trkpt lat="45.606527" lon="6.676301">
        <ele>1602.738</ele>
        <time>2018-07-15T20:29:27Z</time>
      </trkpt>
      <trkpt lat="45.606527" lon="6.676301">
        <ele>1602.798</ele>
        <time>2018-07-15T20:29:47Z</time>
      </trkpt>
      <trkpt lat="45.605421" lon="6.676518">
        <ele>1598.867</ele>
        <time>2018-07-15T20:30:07Z</time>
      </trkpt>
      <trkpt lat="45.605421" lon="6.676518">
        <ele>1598.868</ele>
        <time>2018-07-15T20:30:27Z</time>
      </trkpt>
      <trkpt lat="45.603779" lon="6.675932">
        <ele>1588.285</ele>
        <time>2018-07-15T20:30:47Z</time>
      </trkpt>
      <trkpt lat="45.603779" lon="6.675932">
        <ele>1588.242</ele>
        <time>2018-07-15T20:31:07Z</time>
      </trkpt>
      <trkpt lat="45.602036" lon="6.674968">
        <ele>1576.748</ele>
        <time>2018-07-15T20:31:27Z</time>
      </trkpt>
      <trkpt lat="45.602036" lon="6.674968">
        <ele>1576.738</ele>
        <time>2018-07-15T20:31:47Z</time>
      </trkpt>
      <trkpt lat="45.600375" lon="6.674537">
        <ele>1583.770</ele>
        <time>2018-07-15T20:32:07Z</time>
      </trkpt>
      <trkpt lat="45.600375" lon="6.674537">
        <ele>1583.717</ele>
        <time>2018-07-15T20:32:27Z</time>
      </trkpt>
      <trkpt lat="45.599457" lon="6.674579">
        <ele>1587.508</ele>
        <time>2018-07-15T20:32:47Z</time>
      </trkpt>
      <trkpt lat="45.599457" lon="6.674579">
        <ele>1587.555</ele>
        <time>2018-07-15T20:33:07Z</time>
      </trkpt>
      <trkpt lat="45.598292" lon="6.675432">
        <ele>1599.429</ele>
        <time>2018-07-15T20:33:27Z</time>
      </trkpt>
      <trkpt lat="45.598292" lon="6.675432">
        <ele>1599.489</ele>
        <time>2018-07-15T20:33:47Z</time>
      </trkpt>
      <trkpt lat="45.597815" lon="6.675538">
        <ele>1601.378</ele>
        <time>2018-07-15T20:34:07Z</time>
      </trkpt>
      <trkpt lat="45.597815" lon="6.675538">
        <ele>1601.389</ele>
        <time>2018-07-15T20:34:27Z</time>
      </trkpt>
      <trkpt lat="45.596888" lon="6.676076">
        <ele>1598.446</ele>
        <time>2018-07-15T20:34:47Z</time>
      </trkpt>
      <trkpt lat="45.596888" lon="6.676076">
        <ele>1598.433</ele>
        <time>2018-07-15T20:35:07Z</time>
      </trkpt>
      <trkpt lat="45.596447" lon="6.675922">
        <ele>1591.549</ele>
        <time>2018-07-15T20:35:27Z</time>
      </trkpt>
      <trkpt lat="45.596447" lon="6.675922">
        <ele>1591.537</ele>
        <time>2018-07-15T20:35:47Z</time>
      </trkpt>
      <trkpt lat="45.596077" lon="6.676547">
        <ele>1594.449</ele>
        <time>2018-07-15T20:36:07Z</time>
      </trkpt>
      <trkpt lat="45.596077" lon="6.676547">
        <ele>1594.413</ele>
        <time>2018-07-15T20:36:27Z</time>
      </trkpt>
      <trkpt lat="45.594732" lon="6.676847">
        <ele>1591.208</ele>
        <time>2018-07-15T20:36:47Z</time>
      </trkpt>
      <trkpt lat="45.594732" lon="6.676847">
        <ele>1591.285</ele>
        <time>2018-07-15T20:37:07Z</time>
      </trkpt>
      <trkpt lat="45.594276" lon="6.676632">
        <ele>1587.649</ele>
        <time>2018-07-15T20:37:27Z</time>
      </trkpt>
      <trkpt lat="45.594276" lon="6.676632">
        <ele>1587.619</ele>
        <time>2018-07-15T20:37:47Z</time>
      </trkpt>
      <trkpt lat="45.592488" lon="6.677051">
        <ele>1585.728</ele>
        <time>2018-07-15T20:38:07Z</time>
      </trkpt>
      <trkpt lat="45.592488" lon="6.677051">
        <ele>1585.769</ele>
        <time>2018-07-15T20:38:27Z</time>
      </trkpt>
      <trkpt lat="45.591702" lon="6.677009">
        <ele>1579.476</ele>
        <time>2018-07-15T20:38:47Z</time>
      </trkpt>
      <trkpt lat="45.591702" lon="6.677009">
        <ele>1579.493</ele>
        <time>2018-07-15T20:39:07Z</time>
      </trkpt>
      <trkpt lat="45.591406" lon="6.678394">
        <ele>1561.269</ele>
        <time>2018-07-15T20:39:27Z</time>
      </trkpt>
      <trkpt lat="45.591406" lon="6.678394">
        <ele>1561.215</ele>
        <time>2018-07-15T20:39:47Z</time>
      </trkpt>
      <trkpt lat="45.590623" lon="6.679377">
        <ele>1546.565</ele>
        <time>2018-07-15T20:40:07Z</time>
      </trkpt>
      <trkpt lat="45.590623" lon="6.679377">
        <ele>1546.511</ele>
        <time>2018-07-15T20:40:27Z</time>
      </trkpt>
      <trkpt lat="45.589891" lon="6.679852">
        <ele>1530.308</ele>
        <time>2018-07-15T20:40:47Z</time>
      </trkpt>
      <trkpt lat="45.589891" lon="6.679852">
        <ele>1530.333</ele>
        <time>2018-07-15T20:41:07Z</time>
      </trkpt>
      <trkpt lat="45.588704" lon="6.682354">
        <ele>1510.017</ele>
        <time>2018-07-15T20:41:27Z</time>
      </trkpt>
      <trkpt lat="45.588704" lon="6.682354">
        <ele>1510.037</ele>
        <time>2018-07-15T20:41:47Z</time>
      </trkpt>
      <trkpt lat="45.587413" lon="6.683107">
        <ele>1486.826</ele>
        <time>2018-07-15T20:42:07Z</time>
      </trkpt>
      <trkpt lat="45.587413" lon="6.683107">
        <ele>1486.877</ele>
        <time>2018-07-15T20:42:27Z</time>
      </trkpt>
      <trkpt lat="45.586223" lon="6.683396">
        <ele>1462.914</ele>
        <time>2018-07-15T20:42:47Z</time>
      </trkpt>
      <trkpt lat="45.586223" lon="6.683396">
        <ele>1462.971</ele>
        <time>2018-07-15T20:43:07Z</time>
      </trkpt>
      <trkpt lat="45.584019" lon="6.685858">
        <ele>1412.257</ele>
        <time>2018-07-15T20:43:27Z</time>
      </trkpt>
      <trkpt lat="45.584019" lon="6.685858">
        <ele>1412.272</ele>
        <time>2018-07-15T20:43:47Z</time>
      </trkpt>
      <trkpt lat="45.583838" lon="6.686363">
        <ele>1408.013</ele>
        <time>2018-07-15T20:44:07Z</time>
      </trkpt>
      <trkpt lat="45.583838" lon="6.686363">
        <ele>1408.014</ele>
        <time>2018-07-15T20:44:27Z</time>
      </trkpt>
      <trkpt lat="45.583229" lon="6.685743">
        <ele>1389.008</ele>
        <time>2018-07-15T20:44:47Z</time>
      </trkpt>
      <trkpt lat="45.583229" lon="6.685743">
        <ele>1389.059</ele>
        <time>2018-07-15T20:45:07Z</time>
      </trkpt>
      <trkpt lat="45.583179" lon="6.685357">
        <ele>1386.373</ele>
        <time>2018-07-15T20:45:27Z</time>
      </trkpt>
      <trkpt lat="45.583179" lon="6.685357">
        <ele>1386.343</ele>
        <time>2018-07-15T20:45:47Z</time>
      </trkpt>
      <trkpt lat="45.583029" lon="6.685501">
        <ele>1381.092</ele>
        <time>2018-07-15T20:46:07Z</time>
      </trkpt>
      <trkpt lat="45.583029" lon="6.685501">
        <ele>1381.063</ele>
        <time>2018-07-15T20:46:27Z</time>
      </trkpt>
      <trkpt lat="45.582921" lon="6.686142">
        <ele>1374.120</ele>
        <time>2018-07-15T20:46:47Z</time>
      </trkpt>
      <trkpt lat="45.582921" lon="6.686142">
        <ele>1374.167</ele>
        <time>2018-07-15T20:47:07Z</time>
      </trkpt>
      <trkpt lat="45.582136" lon="6.687025">
        <ele>1348.723</ele>
        <time>2018-07-15T20:47:27Z</time>
      </trkpt>
      <trkpt lat="45.582136" lon="6.687025">
        <ele>1348.738</ele>
        <time>2018-07-15T20:47:47Z</time>
      </trkpt>
      <trkpt lat="45.582268" lon="6.688214">
        <ele>1336.770</ele>
        <time>2018-07-15T20:48:07Z</time>
      </trkpt>
      <trkpt lat="45.582268" lon="6.688214">
        <ele>1336.717</ele>
        <time>2018-07-15T20:48:27Z</time>
      </trkpt>
      <trkpt lat="45.581645" lon="6.688394">
        <ele>1327.808</ele>
        <time>2018-07-15T20:48:47Z</time>
      </trkpt>
      <trkpt lat="45.581645" lon="6.688394">
        <ele>1327.845</ele>
        <time>2018-07-15T20:49:07Z</time>
      </trkpt>
      <trkpt lat="45.579790" lon="6.689783">
        <ele>1297.659</ele>
        <time>2018-07-15T20:49:27Z</time>
      </trkpt>
      <trkpt lat="45.579790" lon="6.689783">
        <ele>1297.659</ele>
        <time>2018-07-15T20:49:47Z</time>
      </trkpt>
      <trkpt lat="45.578282" lon="6.692824">
        <ele>1248.968</ele>
        <time>2018-07-15T20:50:07Z</time>
      </trkpt>
      <trkpt lat="45.578282" lon="6.692824">
        <ele>1248.979</ele>
        <time>2018-07-15T20:50:27Z</time>
      </trkpt>
      <trkpt lat="45.576938" lon="6.692677">
        <ele>1221.166</ele>
        <time>2018-07-15T20:50:47Z</time>
      </trkpt>
      <trkpt lat="45.576938" lon="6.692677">
        <ele>1221.193</ele>
        <time>2018-07-15T20:51:07Z</time>
      </trkpt>
      <trkpt lat="45.576046" lon="6.693564">
        <ele>1202.669</ele>
        <time>2018-07-15T20:51:27Z</time>
      </trkpt>
      <trkpt lat="45.576046" lon="6.693564">
        <ele>1202.631</ele>
        <time>2018-07-15T20:51:47Z</time>
      </trkpt>
      <trkpt lat="45.575663" lon="6.693247">
        <ele>1195.561</ele>
        <time>2018-07-15T20:52:07Z</time>
      </trkpt>
      <trkpt lat="45.575663" lon="6.693247">
        <ele>1195.507</ele>
        <time>2018-07-15T20:52:27Z</time>
      </trkpt>
      <trkpt lat="45.575595" lon="6.693600">
        <ele>1192.908</ele>
        <time>2018-07-15T20:52:47Z</time>
      </trkpt>
      <trkpt lat="45.575595" lon="6.693600">
        <ele>1192.925</ele>
        <time>2018-07-15T20:53:07Z</time>
      </trkpt>
      <trkpt lat="45.574986" lon="6.693787">
        <ele>1175.529</ele>
        <time>2018-07-15T20:53:27Z</time>
      </trkpt>
      <trkpt lat="45.574986" lon="6.693787">
        <ele>1175.549</ele>
        <time>2018-07-15T20:53:47Z</time>
      </trkpt>
      <trkpt lat="45.574405" lon="6.693538">
        <ele>1164.128</ele>
        <time>2018-07-15T20:54:07Z</time>
      </trkpt>
      <trkpt lat="45.574405" lon="6.693538">
        <ele>1164.189</ele>
        <time>2018-07-15T20:54:27Z</time>
      </trkpt>
      <trkpt lat="45.574051" lon="6.692970">
        <ele>1156.016</ele>
        <time>2018-07-15T20:54:47Z</time>
      </trkpt>
      <trkpt lat="45.574051" lon="6.692970">
        <ele>1156.073</ele>
        <time>2018-07-15T20:55:07Z</time>
      </trkpt>
      <trkpt lat="45.573802" lon="6.693597">
        <ele>1145.349</ele>
        <time>2018-07-15T20:55:27Z</time>
      </trkpt>
      <trkpt lat="45.573802" lon="6.693597">
        <ele>1145.392</ele>
        <time>2018-07-15T20:55:47Z</time>
      </trkpt>
      <trkpt lat="45.573455" lon="6.693204">
        <ele>1135.373</ele>
        <time>2018-07-15T20:56:07Z</time>
      </trkpt>
      <trkpt lat="45.573455" lon="6.693204">
        <ele>1135.320</ele>
        <time>2018-07-15T20:56:27Z</time>
      </trkpt>
      <trkpt lat="45.573073" lon="6.693211">
        <ele>1125.308</ele>
        <time>2018-07-15T20:56:47Z</time>
      </trkpt>
      <trkpt lat="45.573073" lon="6.693211">
        <ele>1125.311</ele>
        <time>2018-07-15T20:57:07Z</time>
      </trkpt>
      <trkpt lat="45.572917" lon="6.692890">
        <ele>1121.935</ele>
        <time>2018-07-15T20:57:27Z</time>
      </trkpt>
      <trkpt lat="45.572917" lon="6.692890">
        <ele>1121.995</ele>
        <time>2018-07-15T20:57:47Z</time>
      </trkpt>
      <trkpt lat="45.572556" lon="6.692936">
        <ele>1111.384</ele>
        <time>2018-07-15T20:58:07Z</time>
      </trkpt>
      <trkpt lat="45.572556" lon="6.692936">
        <ele>1111.345</ele>
        <time>2018-07-15T20:58:27Z</time>
      </trkpt>
      <trkpt lat="45.572331" lon="6.694670">
        <ele>1083.082</ele>
        <time>2018-07-15T20:58:47Z</time>
      </trkpt>
      <trkpt lat="45.572331" lon="6.694670">
        <ele>1083.029</ele>
        <time>2018-07-15T20:59:07Z</time>
      </trkpt>
      <trkpt lat="45.572632" lon="6.695846">
        <ele>1068.355</ele>
        <time>2018-07-15T20:59:27Z</time>
      </trkpt>
      <trkpt lat="45.572632" lon="6.695846">
        <ele>1068.369</ele>
        <time>2018-07-15T20:59:47Z</time>
      </trkpt>
      <trkpt lat="45.573049" lon="6.696433">
        <ele>1061.704</ele>
        <time>2018-07-15T21:00:07Z</time>
      </trkpt>
      <trkpt lat="45.573049" lon="6.696433">
        <ele>1061.724</ele>
        <time>2018-07-15T21:00:27Z</time>
      </trkpt>
      <trkpt lat="45.572909" lon="6.696936">
        <ele>1046.508</ele>
        <time>2018-07-15T21:00:47Z</time>
      </trkpt>
      <trkpt lat="45.572909" lon="6.696936">
        <ele>1046.538</ele>
        <time>2018-07-15T21:01:07Z</time>
      </trkpt>
      <trkpt lat="45.573221" lon="6.697748">
        <ele>1040.882</ele>
        <time>2018-07-15T21:01:27Z</time>
      </trkpt>
      <trkpt lat="45.573221" lon="6.697748">
        <ele>1040.882</ele>
        <time>2018-07-15T21:01:47Z</time>
      </trkpt>
      <trkpt lat="45.573043" lon="6.698291">
        <ele>1031.021</ele>
        <time>2018-07-15T21:02:07Z</time>
      </trkpt>
      <trkpt lat="45.573043" lon="6.698291">
        <ele>1031.032</ele>
        <time>2018-07-15T21:02:27Z</time>
      </trkpt>
      <trkpt lat="45.573288" lon="6.698543">
        <ele>1032.199</ele>
        <time>2018-07-15T21:02:47Z</time>
      </trkpt>
      <trkpt lat="45.573288" lon="6.698543">
        <ele>1032.126</ele>
        <time>2018-07-15T21:03:07Z</time>
      </trkpt>
      <trkpt lat="45.572598" lon="6.698402">
        <ele>1017.962</ele>
        <time>2018-07-15T21:03:27Z</time>
      </trkpt>
      <trkpt lat="45.572598" lon="6.698402">
        <ele>1017.979</ele>
        <time>2018-07-15T21:03:47Z</time>
      </trkpt>
      <trkpt lat="45.572687" lon="6.699323">
        <ele>1007.705</ele>
        <time>2018-07-15T21:04:07Z</time>
      </trkpt>
      <trkpt lat="45.572687" lon="6.699323">
        <ele>1007.725</ele>
        <time>2018-07-15T21:04:27Z</time>
      </trkpt>
      <trkpt lat="45.572266" lon="6.699792">
        <ele>990.708</ele>
        <time>2018-07-15T21:04:47Z</time>
      </trkpt>
      <trkpt lat="45.572266" lon="6.699792">
        <ele>990.779</ele>
        <time>2018-07-15T21:05:07Z</time>
      </trkpt>
      <trkpt lat="45.572156" lon="6.700376">
        <ele>979.043</ele>
        <time>2018-07-15T21:05:27Z</time>
      </trkpt>
      <trkpt lat="45.572156" lon="6.700376">
        <ele>979.093</ele>
        <time>2018-07-15T21:05:47Z</time>
      </trkpt>
      <trkpt lat="45.572208" lon="6.703468">
        <ele>964.642</ele>
        <time>2018-07-15T21:06:07Z</time>
      </trkpt>
      <trkpt lat="45.572208" lon="6.703468">
        <ele>964.613</ele>
        <time>2018-07-15T21:06:27Z</time>
      </trkpt>
      <trkpt lat="45.572935" lon="6.704986">
        <ele>949.060</ele>
        <time>2018-07-15T21:06:47Z</time>
      </trkpt>
      <trkpt lat="45.572935" lon="6.704986">
        <ele>949.087</ele>
        <time>2018-07-15T21:07:07Z</time>
      </trkpt>
      <trkpt lat="45.572740" lon="6.706698">
        <ele>918.083</ele>
        <time>2018-07-15T21:07:27Z</time>
      </trkpt>
      <trkpt lat="45.572740" lon="6.706698">
        <ele>918.024</ele>
        <time>2018-07-15T21:07:47Z</time>
      </trkpt>
      <trkpt lat="45.572684" lon="6.706877">
        <ele>913.804</ele>
        <time>2018-07-15T21:08:07Z</time>
      </trkpt>
      <trkpt lat="45.572684" lon="6.706877">
        <ele>913.814</ele>
        <time>2018-07-15T21:08:27Z</time>
      </trkpt>
      <trkpt lat="45.572102" lon="6.706219">
        <ele>894.808</ele>
        <time>2018-07-15T21:08:47Z</time>
      </trkpt>
      <trkpt lat="45.572102" lon="6.706219">
        <ele>894.834</ele>
        <time>2018-07-15T21:09:07Z</time>
      </trkpt>
      <trkpt lat="45.572007" lon="6.707730">
        <ele>883.648</ele>
        <time>2018-07-15T21:09:27Z</time>
      </trkpt>
      <trkpt lat="45.572007" lon="6.707730">
        <ele>883.658</ele>
        <time>2018-07-15T21:09:47Z</time>
      </trkpt>
      <trkpt lat="45.571393" lon="6.707687">
        <ele>862.537</ele>
        <time>2018-07-15T21:10:07Z</time>
      </trkpt>
      <trkpt lat="45.571393" lon="6.707687">
        <ele>862.558</ele>
        <time>2018-07-15T21:10:27Z</time>
      </trkpt>
      <trkpt lat="45.570904" lon="6.708230">
        <ele>835.485</ele>
        <time>2018-07-15T21:10:47Z</time>
      </trkpt>
      <trkpt lat="45.570904" lon="6.708230">
        <ele>835.482</ele>
        <time>2018-07-15T21:11:07Z</time>
      </trkpt>
      <trkpt lat="45.571019" lon="6.710042">
        <ele>820.668</ele>
        <time>2018-07-15T21:11:27Z</time>
      </trkpt>
      <trkpt lat="45.571019" lon="6.710042">
        <ele>820.639</ele>
        <time>2018-07-15T21:11:47Z</time>
      </trkpt>
      <trkpt lat="45.570605" lon="6.710579">
        <ele>810.701</ele>
        <time>2018-07-15T21:12:07Z</time>
      </trkpt>
      <trkpt lat="45.570605" lon="6.710579">
        <ele>810.721</ele>
        <time>2018-07-15T21:12:27Z</time>
      </trkpt>
      <trkpt lat="45.570888" lon="6.710732">
        <ele>801.608</ele>
        <time>2018-07-15T21:12:47Z</time>
      </trkpt>
      <trkpt lat="45.570888" lon="6.710732">
        <ele>801.655</ele>
        <time>2018-07-15T21:13:07Z</time>
      </trkpt>
      <trkpt lat="45.570164" lon="6.712019">
        <ele>788.559</ele>
        <time>2018-07-15T21:13:27Z</time>
      </trkpt>
      <trkpt lat="45.570164" lon="6.712019">
        <ele>788.529</ele>
        <time>2018-07-15T21:13:47Z</time>
      </trkpt>
      <trkpt lat="45.569139" lon="6.712516">
        <ele>770.978</ele>
        <time>2018-07-15T21:14:07Z</time>
      </trkpt>
      <trkpt lat="45.569139" lon="6.712516">
        <ele>770.999</ele>
        <time>2018-07-15T21:14:27Z</time>
      </trkpt>
      <trkpt lat="45.568940" lon="6.712830">
        <ele>774.126</ele>
        <time>2018-07-15T21:14:47Z</time>
      </trkpt>
      <trkpt lat="45.568940" lon="6.712830">
        <ele>774.153</ele>
        <time>2018-07-15T21:15:07Z</time>
      </trkpt>
      <trkpt lat="45.569139" lon="6.713603">
        <ele>772.759</ele>
        <time>2018-07-15T21:15:27Z</time>
      </trkpt>
      <trkpt lat="45.569110" lon="6.713620">
        <ele>772.184</ele>
        <time>2018-07-15T21:15:47Z</time>
      </trkpt>
      <trkpt lat="45.569070" lon="6.713440">
        <ele>773.207</ele>
        <time>2018-07-15T21:16:07Z</time>
      </trkpt>
      <trkpt lat="45.568960" lon="6.713470">
        <ele>771.217</ele>
        <time>2018-07-15T21:16:27Z</time>
      </trkpt>
      <trkpt lat="45.568830" lon="6.713450">
        <ele>769.108</ele>
        <time>2018-07-15T21:16:47Z</time>
      </trkpt>
      <trkpt lat="45.568680" lon="6.713300">
        <ele>767.530</ele>
        <time>2018-07-15T21:17:07Z</time>
      </trkpt>
      <trkpt lat="45.568580" lon="6.713110">
        <ele>766.354</ele>
        <time>2018-07-15T21:17:27Z</time>
      </trkpt>
      <trkpt lat="45.568520" lon="6.713100">
        <ele>763.914</ele>
        <time>2018-07-15T21:17:47Z</time>
      </trkpt>
      <trkpt lat="45.568490" lon="6.713110">
        <ele>762.693</ele>
        <time>2018-07-15T21:18:07Z</time>
      </trkpt>
      <trkpt lat="45.568450" lon="6.713150">
        <ele>761.054</ele>
        <time>2018-07-15T21:18:27Z</time>
      </trkpt>
      <trkpt lat="45.568440" lon="6.713230">
        <ele>760.571</ele>
        <time>2018-07-15T21:18:47Z</time>
      </trkpt>
      <trkpt lat="45.568590" lon="6.714320">
        <ele>760.558</ele>
        <time>2018-07-15T21:19:07Z</time>
      </trkpt>
      <trkpt lat="45.568700" lon="6.714830">
        <ele>758.244</ele>
        <time>2018-07-15T21:19:27Z</time>
      </trkpt>
      <trkpt lat="45.568760" lon="6.715010">
        <ele>757.625</ele>
        <time>2018-07-15T21:19:47Z</time>
      </trkpt>
      <trkpt lat="45.568770" lon="6.715090">
        <ele>757.226</ele>
        <time>2018-07-15T21:20:07Z</time>
      </trkpt>
      <trkpt lat="45.568750" lon="6.715150">
        <ele>756.708</ele>
        <time>2018-07-15T21:20:27Z</time>
      </trkpt>
      <trkpt lat="45.568660" lon="6.715260">
        <ele>755.408</ele>
        <time>2018-07-15T21:20:47Z</time>
      </trkpt>
      <trkpt lat="45.568530" lon="6.715330">
        <ele>754.074</ele>
        <time>2018-07-15T21:21:07Z</time>
      </trkpt>
      <trkpt lat="45.568440" lon="6.715340">
        <ele>753.358</ele>
        <time>2018-07-15T21:21:27Z</time>
      </trkpt>
      <trkpt lat="45.568330" lon="6.715280">
        <ele>752.958</ele>
        <time>2018-07-15T21:21:47Z</time>
      </trkpt>
      <trkpt lat="45.568250" lon="6.715200">
        <ele>752.357</ele>
        <time>2018-07-15T21:22:07Z</time>
      </trkpt>
      <trkpt lat="45.568130" lon="6.715010">
        <ele>751.118</ele>
        <time>2018-07-15T21:22:27Z</time>
      </trkpt>
      <trkpt lat="45.567990" lon="6.714620">
        <ele>746.635</ele>
        <time>2018-07-15T21:22:47Z</time>
      </trkpt>
      <trkpt lat="45.567960" lon="6.714530">
        <ele>745.642</ele>
        <time>2018-07-15T21:23:07Z</time>
      </trkpt>
      <trkpt lat="45.567960" lon="6.714530">
        <ele>745.648</ele>
        <time>2018-07-15T21:23:27Z</time>
      </trkpt>
      <trkpt lat="45.567900" lon="6.714160">
        <ele>742.738</ele>
        <time>2018-07-15T21:23:47Z</time>
      </trkpt>
      <trkpt lat="45.567930" lon="6.713720">
        <ele>741.770</ele>
        <time>2018-07-15T21:24:07Z</time>
      </trkpt>
      <trkpt lat="45.567960" lon="6.713280">
        <ele>741.717</ele>
        <time>2018-07-15T21:24:27Z</time>
      </trkpt>
      <trkpt lat="45.567940" lon="6.713160">
        <ele>742.208</ele>
        <time>2018-07-15T21:24:47Z</time>
      </trkpt>
      <trkpt lat="45.567900" lon="6.713090">
        <ele>742.335</ele>
        <time>2018-07-15T21:25:07Z</time>
      </trkpt>
      <trkpt lat="45.567850" lon="6.713060">
        <ele>742.089</ele>
        <time>2018-07-15T21:25:27Z</time>
      </trkpt>
      <trkpt lat="45.567810" lon="6.713080">
        <ele>740.989</ele>
        <time>2018-07-15T21:25:47Z</time>
      </trkpt>
      <trkpt lat="45.567750" lon="6.713220">
        <ele>737.078</ele>
        <time>2018-07-15T21:26:07Z</time>
      </trkpt>
      <trkpt lat="45.567790" lon="6.713560">
        <ele>734.649</ele>
        <time>2018-07-15T21:26:27Z</time>
      </trkpt>
      <trkpt lat="45.567690" lon="6.714070">
        <ele>733.316</ele>
        <time>2018-07-15T21:26:47Z</time>
      </trkpt>
      <trkpt lat="45.567680" lon="6.714450">
        <ele>734.873</ele>
        <time>2018-07-15T21:27:07Z</time>
      </trkpt>
      <trkpt lat="45.567620" lon="6.714520">
        <ele>732.049</ele>
        <time>2018-07-15T21:27:27Z</time>
      </trkpt>
      <trkpt lat="45.567620" lon="6.714520">
        <ele>732.072</ele>
        <time>2018-07-15T21:27:47Z</time>
      </trkpt>
      <trkpt lat="45.567540" lon="6.714520">
        <ele>728.513</ele>
        <time>2018-07-15T21:28:07Z</time>
      </trkpt>
      <trkpt lat="45.567510" lon="6.714440">
        <ele>727.414</ele>
        <time>2018-07-15T21:28:27Z</time>
      </trkpt>
      <trkpt lat="45.567520" lon="6.714240">
        <ele>727.808</ele>
        <time>2018-07-15T21:28:47Z</time>
      </trkpt>
      <trkpt lat="45.567520" lon="6.714090">
        <ele>727.429</ele>
        <time>2018-07-15T21:29:07Z</time>
      </trkpt>
      <trkpt lat="45.567470" lon="6.713940">
        <ele>725.743</ele>
        <time>2018-07-15T21:29:27Z</time>
      </trkpt>
      <trkpt lat="45.567380" lon="6.713790">
        <ele>724.763</ele>
        <time>2018-07-15T21:29:47Z</time>
      </trkpt>
      <trkpt lat="45.567280" lon="6.713750">
        <ele>723.012</ele>
        <time>2018-07-15T21:30:07Z</time>
      </trkpt>
      <trkpt lat="45.567180" lon="6.713830">
        <ele>721.113</ele>
        <time>2018-07-15T21:30:27Z</time>
      </trkpt>
      <trkpt lat="45.567160" lon="6.714040">
        <ele>719.620</ele>
        <time>2018-07-15T21:30:47Z</time>
      </trkpt>
      <trkpt lat="45.567170" lon="6.714750">
        <ele>715.927</ele>
        <time>2018-07-15T21:31:07Z</time>
      </trkpt>
      <trkpt lat="45.567160" lon="6.714810">
        <ele>715.713</ele>
        <time>2018-07-15T21:31:27Z</time>
      </trkpt>
      <trkpt lat="45.567230" lon="6.714900">
        <ele>717.259</ele>
        <time>2018-07-15T21:31:47Z</time>
      </trkpt>
      <trkpt lat="45.567230" lon="6.714900">
        <ele>717.203</ele>
        <time>2018-07-15T21:32:07Z</time>
      </trkpt>
      <trkpt lat="45.567160" lon="6.714810">
        <ele>715.723</ele>
        <time>2018-07-15T21:32:27Z</time>
      </trkpt>
      <trkpt lat="45.567140" lon="6.714830">
        <ele>715.208</ele>
        <time>2018-07-15T21:32:47Z</time>
      </trkpt>
      <trkpt lat="45.567060" lon="6.714920">
        <ele>713.517</ele>
        <time>2018-07-15T21:33:07Z</time>
      </trkpt>
      <trkpt lat="45.566640" lon="6.715220">
        <ele>715.791</ele>
        <time>2018-07-15T21:33:27Z</time>
      </trkpt>
      <trkpt lat="45.566610" lon="6.715230">
        <ele>717.731</ele>
        <time>2018-07-15T21:33:47Z</time>
      </trkpt>
      <trkpt lat="45.566620" lon="6.715290">
        <ele>718.020</ele>
        <time>2018-07-15T21:34:07Z</time>
      </trkpt>
      <trkpt lat="45.566620" lon="6.715290">
        <ele>718.061</ele>
        <time>2018-07-15T21:34:27Z</time>
      </trkpt>
      <trkpt lat="45.566700" lon="6.715650">
        <ele>718.598</ele>
        <time>2018-07-15T21:34:47Z</time>
      </trkpt>
      <trkpt lat="45.566770" lon="6.715720">
        <ele>718.145</ele>
        <time>2018-07-15T21:35:07Z</time>
      </trkpt>
      <trkpt lat="45.566800" lon="6.715790">
        <ele>718.221</ele>
        <time>2018-07-15T21:35:27Z</time>
      </trkpt>
      <trkpt lat="45.566820" lon="6.715910">
        <ele>718.859</ele>
        <time>2018-07-15T21:35:47Z</time>
      </trkpt>
      <trkpt lat="45.566820" lon="6.715910">
        <ele>718.803</ele>
        <time>2018-07-15T21:36:07Z</time>
      </trkpt>
      <trkpt lat="45.566830" lon="6.716160">
        <ele>720.323</ele>
        <time>2018-07-15T21:36:27Z</time>
      </trkpt>
      <trkpt lat="45.566850" lon="6.716320">
        <ele>720.908</ele>
        <time>2018-07-15T21:36:47Z</time>
      </trkpt>
      <trkpt lat="45.566910" lon="6.716430">
        <ele>720.797</ele>
        <time>2018-07-15T21:37:07Z</time>
      </trkpt>
      <trkpt lat="45.566960" lon="6.716490">
        <ele>720.351</ele>
        <time>2018-07-15T21:37:27Z</time>
      </trkpt>
      <trkpt lat="45.567050" lon="6.716520">
        <ele>719.951</ele>
        <time>2018-07-15T21:37:47Z</time>
      </trkpt>
      <trkpt lat="45.567140" lon="6.716610">
        <ele>719.510</ele>
        <time>2018-07-15T21:38:07Z</time>
      </trkpt>
      <trkpt lat="45.567210" lon="6.716750">
        <ele>719.411</ele>
        <time>2018-07-15T21:38:27Z</time>
      </trkpt>
      <trkpt lat="45.567250" lon="6.716940">
        <ele>720.098</ele>
        <time>2018-07-15T21:38:47Z</time>
      </trkpt>
      <trkpt lat="45.567250" lon="6.716940">
        <ele>720.035</ele>
        <time>2018-07-15T21:39:07Z</time>
      </trkpt>
      <trkpt lat="45.567350" lon="6.717160">
        <ele>720.441</ele>
        <time>2018-07-15T21:39:27Z</time>
      </trkpt>
      <trkpt lat="45.567490" lon="6.717370">
        <ele>720.183</ele>
        <time>2018-07-15T21:39:47Z</time>
      </trkpt>
      <trkpt lat="45.567750" lon="6.717700">
        <ele>720.025</ele>
        <time>2018-07-15T21:40:07Z</time>
      </trkpt>
      <trkpt lat="45.567750" lon="6.717700">
        <ele>720.017</ele>
        <time>2018-07-15T21:40:27Z</time>
      </trkpt>
      <trkpt lat="45.567970" lon="6.718120">
        <ele>720.008</ele>
        <time>2018-07-15T21:40:47Z</time>
      </trkpt>
      <trkpt lat="45.568030" lon="6.718540">
        <ele>720.150</ele>
        <time>2018-07-15T21:41:07Z</time>
      </trkpt>
      <trkpt lat="45.568030" lon="6.718560">
        <ele>720.174</ele>
        <time>2018-07-15T21:41:27Z</time>
      </trkpt>
      <trkpt lat="45.568030" lon="6.718560">
        <ele>720.194</ele>
        <time>2018-07-15T21:41:47Z</time>
      </trkpt>
      <trkpt lat="45.568140" lon="6.718980">
        <ele>720.243</ele>
        <time>2018-07-15T21:42:07Z</time>
      </trkpt>
      <trkpt lat="45.568170" lon="6.719220">
        <ele>720.624</ele>
        <time>2018-07-15T21:42:27Z</time>
      </trkpt>
      <trkpt lat="45.568170" lon="6.719510">
        <ele>720.671</ele>
        <time>2018-07-15T21:42:47Z</time>
      </trkpt>
      <trkpt lat="45.568170" lon="6.719580">
        <ele>720.688</ele>
        <time>2018-07-15T21:43:07Z</time>
      </trkpt>
      <trkpt lat="45.568170" lon="6.719580">
        <ele>720.644</ele>
        <time>2018-07-15T21:43:27Z</time>
      </trkpt>
      <trkpt lat="45.568160" lon="6.720100">
        <ele>720.698</ele>
        <time>2018-07-15T21:43:47Z</time>
      </trkpt>
      <trkpt lat="45.568130" lon="6.720790">
        <ele>720.615</ele>
        <time>2018-07-15T21:44:07Z</time>
      </trkpt>
      <trkpt lat="45.568110" lon="6.720880">
        <ele>720.926</ele>
        <time>2018-07-15T21:44:27Z</time>
      </trkpt>
      <trkpt lat="45.568110" lon="6.720880">
        <ele>720.908</ele>
        <time>2018-07-15T21:44:47Z</time>
      </trkpt>
      <trkpt lat="45.568060" lon="6.721080">
        <ele>721.991</ele>
        <time>2018-07-15T21:45:07Z</time>
      </trkpt>
      <trkpt lat="45.568080" lon="6.721370">
        <ele>722.745</ele>
        <time>2018-07-15T21:45:27Z</time>
      </trkpt>
      <trkpt lat="45.568160" lon="6.722060">
        <ele>723.525</ele>
        <time>2018-07-15T21:45:47Z</time>
      </trkpt>
      <trkpt lat="45.568310" lon="6.722690">
        <ele>722.214</ele>
        <time>2018-07-15T21:46:07Z</time>
      </trkpt>
      <trkpt lat="45.568310" lon="6.722690">
        <ele>722.285</ele>
        <time>2018-07-15T21:46:27Z</time>
      </trkpt>
      <trkpt lat="45.568420" lon="6.723010">
        <ele>722.062</ele>
        <time>2018-07-15T21:46:47Z</time>
      </trkpt>
      <trkpt lat="45.568520" lon="6.723170">
        <ele>721.179</ele>
        <time>2018-07-15T21:47:07Z</time>
      </trkpt>
      <trkpt lat="45.568670" lon="6.723290">
        <ele>720.025</ele>
        <time>2018-07-15T21:47:27Z</time>
      </trkpt>
      <trkpt lat="45.568810" lon="6.723410">
        <ele>720.147</ele>
        <time>2018-07-15T21:47:47Z</time>
      </trkpt>
      <trkpt lat="45.568910" lon="6.723460">
        <ele>720.029</ele>
        <time>2018-07-15T21:48:07Z</time>
      </trkpt>
      <trkpt lat="45.568910" lon="6.723460">
        <ele>720.021</ele>
        <time>2018-07-15T21:48:27Z</time>
      </trkpt>
      <trkpt lat="45.569370" lon="6.723720">
        <ele>720.008</ele>
        <time>2018-07-15T21:48:47Z</time>
      </trkpt>
      <trkpt lat="45.569370" lon="6.723720">
        <ele>720.086</ele>
        <time>2018-07-15T21:49:07Z</time>
      </trkpt>
      <trkpt lat="45.569580" lon="6.723880">
        <ele>720.030</ele>
        <time>2018-07-15T21:49:27Z</time>
      </trkpt>
      <trkpt lat="45.569800" lon="6.724050">
        <ele>720.020</ele>
        <time>2018-07-15T21:49:47Z</time>
      </trkpt>
      <trkpt lat="45.569800" lon="6.724050">
        <ele>720.029</ele>
        <time>2018-07-15T21:50:07Z</time>
      </trkpt>
      <trkpt lat="45.570090" lon="6.724340">
        <ele>720.060</ele>
        <time>2018-07-15T21:50:27Z</time>
      </trkpt>
      <trkpt lat="45.570090" lon="6.724340">
        <ele>720.097</ele>
        <time>2018-07-15T21:50:47Z</time>
      </trkpt>
      <trkpt lat="45.570350" lon="6.724570">
        <ele>720.034</ele>
        <time>2018-07-15T21:51:07Z</time>
      </trkpt>
      <trkpt lat="45.570350" lon="6.724570">
        <ele>720.020</ele>
        <time>2018-07-15T21:51:27Z</time>
      </trkpt>
      <trkpt lat="45.570620" lon="6.724800">
        <ele>720.034</ele>
        <time>2018-07-15T21:51:47Z</time>
      </trkpt>
      <trkpt lat="45.570680" lon="6.724850">
        <ele>720.055</ele>
        <time>2018-07-15T21:52:07Z</time>
      </trkpt>
      <trkpt lat="45.570710" lon="6.724910">
        <ele>720.010</ele>
        <time>2018-07-15T21:52:27Z</time>
      </trkpt>
      <trkpt lat="45.570780" lon="6.725140">
        <ele>720.208</ele>
        <time>2018-07-15T21:52:47Z</time>
      </trkpt>
      <trkpt lat="45.570990" lon="6.725430">
        <ele>720.785</ele>
        <time>2018-07-15T21:53:07Z</time>
      </trkpt>
      <trkpt lat="45.571060" lon="6.725530">
        <ele>720.549</ele>
        <time>2018-07-15T21:53:27Z</time>
      </trkpt>
      <trkpt lat="45.571060" lon="6.725530">
        <ele>720.559</ele>
        <time>2018-07-15T21:53:47Z</time>
      </trkpt>
      <trkpt lat="45.571140" lon="6.725600">
        <ele>720.428</ele>
        <time>2018-07-15T21:54:07Z</time>
      </trkpt>
      <trkpt lat="45.571420" lon="6.725770">
        <ele>721.999</ele>
        <time>2018-07-15T21:54:27Z</time>
      </trkpt>
      <trkpt lat="45.571510" lon="6.725810">
        <ele>722.476</ele>
        <time>2018-07-15T21:54:47Z</time>
      </trkpt>
      <trkpt lat="45.571580" lon="6.725930">
        <ele>723.173</ele>
        <time>2018-07-15T21:55:07Z</time>
      </trkpt>
      <trkpt lat="45.571700" lon="6.726250">
        <ele>724.659</ele>
        <time>2018-07-15T21:55:27Z</time>
      </trkpt>
      <trkpt lat="45.571730" lon="6.726360">
        <ele>725.131</ele>
        <time>2018-07-15T21:55:47Z</time>
      </trkpt>
      <trkpt lat="45.571730" lon="6.726360">
        <ele>725.161</ele>
        <time>2018-07-15T21:56:07Z</time>
      </trkpt>
      <trkpt lat="45.571820" lon="6.726560">
        <ele>725.607</ele>
        <time>2018-07-15T21:56:27Z</time>
      </trkpt>
      <trkpt lat="45.572280" lon="6.727170">
        <ele>728.208</ele>
        <time>2018-07-15T21:56:47Z</time>
      </trkpt>
      <trkpt lat="45.572780" lon="6.727660">
        <ele>730.095</ele>
        <time>2018-07-15T21:57:07Z</time>
      </trkpt>
      <trkpt lat="45.572910" lon="6.727800">
        <ele>730.059</ele>
        <time>2018-07-15T21:57:27Z</time>
      </trkpt>
      <trkpt lat="45.573070" lon="6.727880">
        <ele>730.049</ele>
        <time>2018-07-15T21:57:47Z</time>
      </trkpt>
      <trkpt lat="45.573430" lon="6.728080">
        <ele>730.018</ele>
        <time>2018-07-15T21:58:07Z</time>
      </trkpt>
      <trkpt lat="45.573560" lon="6.728140">
        <ele>730.059</ele>
        <time>2018-07-15T21:58:27Z</time>
      </trkpt>
      <trkpt lat="45.573620" lon="6.728220">
        <ele>730.066</ele>
        <time>2018-07-15T21:58:47Z</time>
      </trkpt>
      <trkpt lat="45.573890" lon="6.728440">
        <ele>730.023</ele>
        <time>2018-07-15T21:59:07Z</time>
      </trkpt>
      <trkpt lat="45.573890" lon="6.728440">
        <ele>730.089</ele>
        <time>2018-07-15T21:59:27Z</time>
      </trkpt>
      <trkpt lat="45.574000" lon="6.728560">
        <ele>730.093</ele>
        <time>2018-07-15T21:59:47Z</time>
      </trkpt>
      <trkpt lat="45.574130" lon="6.728900">
        <ele>730.065</ele>
        <time>2018-07-15T22:00:07Z</time>
      </trkpt>
      <trkpt lat="45.574130" lon="6.729440">
        <ele>730.021</ele>
        <time>2018-07-15T22:00:27Z</time>
      </trkpt>
      <trkpt lat="45.574130" lon="6.729440">
        <ele>730.008</ele>
        <time>2018-07-15T22:00:47Z</time>
      </trkpt>
      <trkpt lat="45.574080" lon="6.729740">
        <ele>730.041</ele>
        <time>2018-07-15T22:01:07Z</time>
      </trkpt>
      <trkpt lat="45.574090" lon="6.729940">
        <ele>730.065</ele>
        <time>2018-07-15T22:01:27Z</time>
      </trkpt>
      <trkpt lat="45.574150" lon="6.730360">
        <ele>730.035</ele>
        <time>2018-07-15T22:01:47Z</time>
      </trkpt>
      <trkpt lat="45.574250" lon="6.730750">
        <ele>730.074</ele>
        <time>2018-07-15T22:02:07Z</time>
      </trkpt>
      <trkpt lat="45.574260" lon="6.730780">
        <ele>730.045</ele>
        <time>2018-07-15T22:02:27Z</time>
      </trkpt>
      <trkpt lat="45.574260" lon="6.730780">
        <ele>730.072</ele>
        <time>2018-07-15T22:02:47Z</time>
      </trkpt>
      <trkpt lat="45.574470" lon="6.731410">
        <ele>730.029</ele>
        <time>2018-07-15T22:03:07Z</time>
      </trkpt>
      <trkpt lat="45.574740" lon="6.731840">
        <ele>730.095</ele>
        <time>2018-07-15T22:03:27Z</time>
      </trkpt>
      <trkpt lat="45.574930" lon="6.732020">
        <ele>730.063</ele>
        <time>2018-07-15T22:03:47Z</time>
      </trkpt>
      <trkpt lat="45.575200" lon="6.732210">
        <ele>730.044</ele>
        <time>2018-07-15T22:04:07Z</time>
      </trkpt>
      <trkpt lat="45.575500" lon="6.732460">
        <ele>730.018</ele>
        <time>2018-07-15T22:04:27Z</time>
      </trkpt>
      <trkpt lat="45.575500" lon="6.732460">
        <ele>730.008</ele>
        <time>2018-07-15T22:04:47Z</time>
      </trkpt>
      <trkpt lat="45.575730" lon="6.732650">
        <ele>730.088</ele>
        <time>2018-07-15T22:05:07Z</time>
      </trkpt>
      <trkpt lat="45.576030" lon="6.733000">
        <ele>730.082</ele>
        <time>2018-07-15T22:05:27Z</time>
      </trkpt>
      <trkpt lat="45.576030" lon="6.733000">
        <ele>730.042</ele>
        <time>2018-07-15T22:05:47Z</time>
      </trkpt>
      <trkpt lat="45.576350" lon="6.733430">
        <ele>730.071</ele>
        <time>2018-07-15T22:06:07Z</time>
      </trkpt>
      <trkpt lat="45.576350" lon="6.733430">
        <ele>730.052</ele>
        <time>2018-07-15T22:06:27Z</time>
      </trkpt>
      <trkpt lat="45.576320" lon="6.733620">
        <ele>730.049</ele>
        <time>2018-07-15T22:06:47Z</time>
      </trkpt>
      <trkpt lat="45.576430" lon="6.733850">
        <ele>730.076</ele>
        <time>2018-07-15T22:07:07Z</time>
      </trkpt>
      <trkpt lat="45.576490" lon="6.733930">
        <ele>730.022</ele>
        <time>2018-07-15T22:07:27Z</time>
      </trkpt>
      <trkpt lat="45.576490" lon="6.733930">
        <ele>730.041</ele>
        <time>2018-07-15T22:07:47Z</time>
      </trkpt>
      <trkpt lat="45.576510" lon="6.733960">
        <ele>730.081</ele>
        <time>2018-07-15T22:08:07Z</time>
      </trkpt>
      <trkpt lat="45.576490" lon="6.734000">
        <ele>730.009</ele>
        <time>2018-07-15T22:08:27Z</time>
      </trkpt>
      <trkpt lat="45.576430" lon="6.734120">
        <ele>730.008</ele>
        <time>2018-07-15T22:08:47Z</time>
      </trkpt>
      <trkpt lat="45.576250" lon="6.734460">
        <ele>732.076</ele>
        <time>2018-07-15T22:09:07Z</time>
      </trkpt>
      <trkpt lat="45.576280" lon="6.734520">
        <ele>731.990</ele>
        <time>2018-07-15T22:09:27Z</time>
      </trkpt>
      <trkpt lat="45.576090" lon="6.733499">
        <ele>742.399</ele>
        <time>2018-07-16T08:48:38Z</time>
      </trkpt>
      <trkpt lat="45.576389" lon="6.734077">
        <ele>742.307</ele>
        <time>2018-07-16T08:48:50Z</time>
      </trkpt>
      <trkpt lat="45.576392" lon="6.734151">
        <ele>742.327</ele>
        <time>2018-07-16T08:49:00Z</time>
      </trkpt>
      <trkpt lat="45.576415" lon="6.734231">
        <ele>742.308</ele>
        <time>2018-07-16T08:49:04Z</time>
      </trkpt>
      <trkpt lat="45.576425" lon="6.734317">
        <ele>742.371</ele>
        <time>2018-07-16T08:49:07Z</time>
      </trkpt>
      <trkpt lat="45.576405" lon="6.734394">
        <ele>742.375</ele>
        <time>2018-07-16T08:49:10Z</time>
      </trkpt>
      <trkpt lat="45.576379" lon="6.734452">
        <ele>742.327</ele>
        <time>2018-07-16T08:49:13Z</time>
      </trkpt>
      <trkpt lat="45.576345" lon="6.734518">
        <ele>742.312</ele>
        <time>2018-07-16T08:49:17Z</time>
      </trkpt>
      <trkpt lat="45.576310" lon="6.734567">
        <ele>742.356</ele>
        <time>2018-07-16T08:49:21Z</time>
      </trkpt>
      <trkpt lat="45.576262" lon="6.734596">
        <ele>742.381</ele>
        <time>2018-07-16T08:49:25Z</time>
      </trkpt>
      <trkpt lat="45.576222" lon="6.734643">
        <ele>742.320</ele>
        <time>2018-07-16T08:49:30Z</time>
      </trkpt>
      <trkpt lat="45.576193" lon="6.734699">
        <ele>742.362</ele>
        <time>2018-07-16T08:49:34Z</time>
      </trkpt>
      <trkpt lat="45.576161" lon="6.734764">
        <ele>742.337</ele>
        <time>2018-07-16T08:49:39Z</time>
      </trkpt>
      <trkpt lat="45.576134" lon="6.734819">
        <ele>742.349</ele>
        <time>2018-07-16T08:49:43Z</time>
      </trkpt>
      <trkpt lat="45.576103" lon="6.734873">
        <ele>742.313</ele>
        <time>2018-07-16T08:49:47Z</time>
      </trkpt>
      <trkpt lat="45.576069" lon="6.734930">
        <ele>742.308</ele>
        <time>2018-07-16T08:49:52Z</time>
      </trkpt>
      <trkpt lat="45.576032" lon="6.734992">
        <ele>742.395</ele>
        <time>2018-07-16T08:49:57Z</time>
      </trkpt>
      <trkpt lat="45.576002" lon="6.735051">
        <ele>744.929</ele>
        <time>2018-07-16T08:50:01Z</time>
      </trkpt>
      <trkpt lat="45.575971" lon="6.735114">
        <ele>745.741</ele>
        <time>2018-07-16T08:50:05Z</time>
      </trkpt>
      <trkpt lat="45.575938" lon="6.735171">
        <ele>746.196</ele>
        <time>2018-07-16T08:50:09Z</time>
      </trkpt>
      <trkpt lat="45.575906" lon="6.735232">
        <ele>745.770</ele>
        <time>2018-07-16T08:50:13Z</time>
      </trkpt>
      <trkpt lat="45.575877" lon="6.735292">
        <ele>746.065</ele>
        <time>2018-07-16T08:50:17Z</time>
      </trkpt>
      <trkpt lat="45.575850" lon="6.735352">
        <ele>745.114</ele>
        <time>2018-07-16T08:50:21Z</time>
      </trkpt>
      <trkpt lat="45.575820" lon="6.735414">
        <ele>746.366</ele>
        <time>2018-07-16T08:50:25Z</time>
      </trkpt>
      <trkpt lat="45.575788" lon="6.735464">
        <ele>746.397</ele>
        <time>2018-07-16T08:50:29Z</time>
      </trkpt>
      <trkpt lat="45.575754" lon="6.735510">
        <ele>747.123</ele>
        <time>2018-07-16T08:50:33Z</time>
      </trkpt>
      <trkpt lat="45.575716" lon="6.735553">
        <ele>745.925</ele>
        <time>2018-07-16T08:50:37Z</time>
      </trkpt>
      <trkpt lat="45.575676" lon="6.735600">
        <ele>746.308</ele>
        <time>2018-07-16T08:50:41Z</time>
      </trkpt>
      <trkpt lat="45.575636" lon="6.735643">
        <ele>747.261</ele>
        <time>2018-07-16T08:50:45Z</time>
      </trkpt>
      <trkpt lat="45.575590" lon="6.735687">
        <ele>748.245</ele>
        <time>2018-07-16T08:50:50Z</time>
      </trkpt>
      <trkpt lat="45.575540" lon="6.735725">
        <ele>749.257</ele>
        <time>2018-07-16T08:50:55Z</time>
      </trkpt>
      <trkpt lat="45.575492" lon="6.735758">
        <ele>747.142</ele>
        <time>2018-07-16T08:50:59Z</time>
      </trkpt>
      <trkpt lat="45.575451" lon="6.735791">
        <ele>749.576</ele>
        <time>2018-07-16T08:51:02Z</time>
      </trkpt>
      <trkpt lat="45.575409" lon="6.735822">
        <ele>750.041</ele>
        <time>2018-07-16T08:51:05Z</time>
      </trkpt>
      <trkpt lat="45.575360" lon="6.735847">
        <ele>747.410</ele>
        <time>2018-07-16T08:51:09Z</time>
      </trkpt>
      <trkpt lat="45.575317" lon="6.735875">
        <ele>747.462</ele>
        <time>2018-07-16T08:51:13Z</time>
      </trkpt>
      <trkpt lat="45.575273" lon="6.735909">
        <ele>747.314</ele>
        <time>2018-07-16T08:51:17Z</time>
      </trkpt>
      <trkpt lat="45.575228" lon="6.735940">
        <ele>747.354</ele>
        <time>2018-07-16T08:51:21Z</time>
      </trkpt>
      <trkpt lat="45.575183" lon="6.735965">
        <ele>747.409</ele>
        <time>2018-07-16T08:51:25Z</time>
      </trkpt>
      <trkpt lat="45.575134" lon="6.735998">
        <ele>747.408</ele>
        <time>2018-07-16T08:51:29Z</time>
      </trkpt>
      <trkpt lat="45.575075" lon="6.736024">
        <ele>750.373</ele>
        <time>2018-07-16T08:51:49Z</time>
      </trkpt>
      <trkpt lat="45.575026" lon="6.736046">
        <ele>750.567</ele>
        <time>2018-07-16T08:51:54Z</time>
      </trkpt>
      <trkpt lat="45.574983" lon="6.736068">
        <ele>750.659</ele>
        <time>2018-07-16T08:51:58Z</time>
      </trkpt>
      <trkpt lat="45.574932" lon="6.736086">
        <ele>750.824</ele>
        <time>2018-07-16T08:52:02Z</time>
      </trkpt>
      <trkpt lat="45.574883" lon="6.736106">
        <ele>750.368</ele>
        <time>2018-07-16T08:52:07Z</time>
      </trkpt>
      <trkpt lat="45.574835" lon="6.736134">
        <ele>749.373</ele>
        <time>2018-07-16T08:52:11Z</time>
      </trkpt>
      <trkpt lat="45.574781" lon="6.736160">
        <ele>749.632</ele>
        <time>2018-07-16T08:52:16Z</time>
      </trkpt>
      <trkpt lat="45.574730" lon="6.736190">
        <ele>749.934</ele>
        <time>2018-07-16T08:52:21Z</time>
      </trkpt>
      <trkpt lat="45.574682" lon="6.736238">
        <ele>750.383</ele>
        <time>2018-07-16T08:52:26Z</time>
      </trkpt>
      <trkpt lat="45.574630" lon="6.736267">
        <ele>750.625</ele>
        <time>2018-07-16T08:52:31Z</time>
      </trkpt>
      <trkpt lat="45.574582" lon="6.736287">
        <ele>750.817</ele>
        <time>2018-07-16T08:52:35Z</time>
      </trkpt>
      <trkpt lat="45.574536" lon="6.736305">
        <ele>751.608</ele>
        <time>2018-07-16T08:52:40Z</time>
      </trkpt>
      <trkpt lat="45.574487" lon="6.736339">
        <ele>749.360</ele>
        <time>2018-07-16T08:52:45Z</time>
      </trkpt>
      <trkpt lat="45.574444" lon="6.736368">
        <ele>752.254</ele>
        <time>2018-07-16T08:52:49Z</time>
      </trkpt>
      <trkpt lat="45.574401" lon="6.736399">
        <ele>751.926</ele>
        <time>2018-07-16T08:52:53Z</time>
      </trkpt>
      <trkpt lat="45.574353" lon="6.736423">
        <ele>751.841</ele>
        <time>2018-07-16T08:52:57Z</time>
      </trkpt>
      <trkpt lat="45.574310" lon="6.736446">
        <ele>751.585</ele>
        <time>2018-07-16T08:53:01Z</time>
      </trkpt>
      <trkpt lat="45.574268" lon="6.736469">
        <ele>752.310</ele>
        <time>2018-07-16T08:53:05Z</time>
      </trkpt>
      <trkpt lat="45.574216" lon="6.736490">
        <ele>751.959</ele>
        <time>2018-07-16T08:53:10Z</time>
      </trkpt>
      <trkpt lat="45.574171" lon="6.736512">
        <ele>751.421</ele>
        <time>2018-07-16T08:53:14Z</time>
      </trkpt>
      <trkpt lat="45.574126" lon="6.736532">
        <ele>753.635</ele>
        <time>2018-07-16T08:53:18Z</time>
      </trkpt>
      <trkpt lat="45.574081" lon="6.736555">
        <ele>753.586</ele>
        <time>2018-07-16T08:53:22Z</time>
      </trkpt>
      <trkpt lat="45.574030" lon="6.736581">
        <ele>754.114</ele>
        <time>2018-07-16T08:53:27Z</time>
      </trkpt>
      <trkpt lat="45.573984" lon="6.736601">
        <ele>754.808</ele>
        <time>2018-07-16T08:53:31Z</time>
      </trkpt>
      <trkpt lat="45.573929" lon="6.736628">
        <ele>752.965</ele>
        <time>2018-07-16T08:53:35Z</time>
      </trkpt>
      <trkpt lat="45.573881" lon="6.736659">
        <ele>753.159</ele>
        <time>2018-07-16T08:53:39Z</time>
      </trkpt>
      <trkpt lat="45.573838" lon="6.736677">
        <ele>753.351</ele>
        <time>2018-07-16T08:53:43Z</time>
      </trkpt>
      <trkpt lat="45.573788" lon="6.736702">
        <ele>755.516</ele>
        <time>2018-07-16T08:53:48Z</time>
      </trkpt>
      <trkpt lat="45.573742" lon="6.736717">
        <ele>756.380</ele>
        <time>2018-07-16T08:53:53Z</time>
      </trkpt>
      <trkpt lat="45.573694" lon="6.736737">
        <ele>758.515</ele>
        <time>2018-07-16T08:53:58Z</time>
      </trkpt>
      <trkpt lat="45.573652" lon="6.736766">
        <ele>758.414</ele>
        <time>2018-07-16T08:54:02Z</time>
      </trkpt>
      <trkpt lat="45.573608" lon="6.736798">
        <ele>759.416</ele>
        <time>2018-07-16T08:54:06Z</time>
      </trkpt>
      <trkpt lat="45.573566" lon="6.736829">
        <ele>759.548</ele>
        <time>2018-07-16T08:54:10Z</time>
      </trkpt>
      <trkpt lat="45.573523" lon="6.736859">
        <ele>759.561</ele>
        <time>2018-07-16T08:54:14Z</time>
      </trkpt>
      <trkpt lat="45.573481" lon="6.736885">
        <ele>758.417</ele>
        <time>2018-07-16T08:54:18Z</time>
      </trkpt>
      <trkpt lat="45.573435" lon="6.736918">
        <ele>758.708</ele>
        <time>2018-07-16T08:54:23Z</time>
      </trkpt>
      <trkpt lat="45.573388" lon="6.736958">
        <ele>758.996</ele>
        <time>2018-07-16T08:54:28Z</time>
      </trkpt>
      <trkpt lat="45.573347" lon="6.736987">
        <ele>759.180</ele>
        <time>2018-07-16T08:54:32Z</time>
      </trkpt>
      <trkpt lat="45.573306" lon="6.737015">
        <ele>759.872</ele>
        <time>2018-07-16T08:54:36Z</time>
      </trkpt>
      <trkpt lat="45.573263" lon="6.737046">
        <ele>760.367</ele>
        <time>2018-07-16T08:54:40Z</time>
      </trkpt>
      <trkpt lat="45.573218" lon="6.737087">
        <ele>760.751</ele>
        <time>2018-07-16T08:54:45Z</time>
      </trkpt>
      <trkpt lat="45.573177" lon="6.737113">
        <ele>760.816</ele>
        <time>2018-07-16T08:54:49Z</time>
      </trkpt>
      <trkpt lat="45.573128" lon="6.737144">
        <ele>761.715</ele>
        <time>2018-07-16T08:54:54Z</time>
      </trkpt>
      <trkpt lat="45.573086" lon="6.737175">
        <ele>761.577</ele>
        <time>2018-07-16T08:54:58Z</time>
      </trkpt>
      <trkpt lat="45.573045" lon="6.737208">
        <ele>762.236</ele>
        <time>2018-07-16T08:55:02Z</time>
      </trkpt>
      <trkpt lat="45.573006" lon="6.737242">
        <ele>762.417</ele>
        <time>2018-07-16T08:55:06Z</time>
      </trkpt>
      <trkpt lat="45.572964" lon="6.737284">
        <ele>763.018</ele>
        <time>2018-07-16T08:55:11Z</time>
      </trkpt>
      <trkpt lat="45.572916" lon="6.737316">
        <ele>764.908</ele>
        <time>2018-07-16T08:55:16Z</time>
      </trkpt>
      <trkpt lat="45.572875" lon="6.737345">
        <ele>763.515</ele>
        <time>2018-07-16T08:55:20Z</time>
      </trkpt>
      <trkpt lat="45.572831" lon="6.737377">
        <ele>764.679</ele>
        <time>2018-07-16T08:55:24Z</time>
      </trkpt>
      <trkpt lat="45.572787" lon="6.737412">
        <ele>764.391</ele>
        <time>2018-07-16T08:55:28Z</time>
      </trkpt>
      <trkpt lat="45.572743" lon="6.737448">
        <ele>764.796</ele>
        <time>2018-07-16T08:55:32Z</time>
      </trkpt>
      <trkpt lat="45.572701" lon="6.737477">
        <ele>765.220</ele>
        <time>2018-07-16T08:55:36Z</time>
      </trkpt>
      <trkpt lat="45.572652" lon="6.737507">
        <ele>765.355</ele>
        <time>2018-07-16T08:55:41Z</time>
      </trkpt>
      <trkpt lat="45.572604" lon="6.737534">
        <ele>766.194</ele>
        <time>2018-07-16T08:55:46Z</time>
      </trkpt>
      <trkpt lat="45.572561" lon="6.737559">
        <ele>766.156</ele>
        <time>2018-07-16T08:55:50Z</time>
      </trkpt>
      <trkpt lat="45.572515" lon="6.737582">
        <ele>766.777</ele>
        <time>2018-07-16T08:55:54Z</time>
      </trkpt>
      <trkpt lat="45.572465" lon="6.737613">
        <ele>767.361</ele>
        <time>2018-07-16T08:55:59Z</time>
      </trkpt>
      <trkpt lat="45.572422" lon="6.737640">
        <ele>769.627</ele>
        <time>2018-07-16T08:56:03Z</time>
      </trkpt>
      <trkpt lat="45.572380" lon="6.737668">
        <ele>769.108</ele>
        <time>2018-07-16T08:56:07Z</time>
      </trkpt>
      <trkpt lat="45.572335" lon="6.737692">
        <ele>769.979</ele>
        <time>2018-07-16T08:56:11Z</time>
      </trkpt>
      <trkpt lat="45.572295" lon="6.737722">
        <ele>770.133</ele>
        <time>2018-07-16T08:56:15Z</time>
      </trkpt>
      <trkpt lat="45.572246" lon="6.737763">
        <ele>770.675</ele>
        <time>2018-07-16T08:56:20Z</time>
      </trkpt>
      <trkpt lat="45.572204" lon="6.737787">
        <ele>770.370</ele>
        <time>2018-07-16T08:56:24Z</time>
      </trkpt>
      <trkpt lat="45.572154" lon="6.737818">
        <ele>771.264</ele>
        <time>2018-07-16T08:56:29Z</time>
      </trkpt>
      <trkpt lat="45.572106" lon="6.737850">
        <ele>771.539</ele>
        <time>2018-07-16T08:56:34Z</time>
      </trkpt>
      <trkpt lat="45.572057" lon="6.737882">
        <ele>772.248</ele>
        <time>2018-07-16T08:56:39Z</time>
      </trkpt>
      <trkpt lat="45.572015" lon="6.737906">
        <ele>772.950</ele>
        <time>2018-07-16T08:56:43Z</time>
      </trkpt>
      <trkpt lat="45.571963" lon="6.737934">
        <ele>773.187</ele>
        <time>2018-07-16T08:56:48Z</time>
      </trkpt>
      <trkpt lat="45.571922" lon="6.737961">
        <ele>773.742</ele>
        <time>2018-07-16T08:56:52Z</time>
      </trkpt>
      <trkpt lat="45.571872" lon="6.737984">
        <ele>772.926</ele>
        <time>2018-07-16T08:56:57Z</time>
      </trkpt>
      <trkpt lat="45.571825" lon="6.738016">
        <ele>772.508</ele>
        <time>2018-07-16T08:57:02Z</time>
      </trkpt>
      <trkpt lat="45.571780" lon="6.738051">
        <ele>773.040</ele>
        <time>2018-07-16T08:57:07Z</time>
      </trkpt>
      <trkpt lat="45.571741" lon="6.738086">
        <ele>773.194</ele>
        <time>2018-07-16T08:57:11Z</time>
      </trkpt>
      <trkpt lat="45.571700" lon="6.738126">
        <ele>773.596</ele>
        <time>2018-07-16T08:57:15Z</time>
      </trkpt>
      <trkpt lat="45.571657" lon="6.738169">
        <ele>774.031</ele>
        <time>2018-07-16T08:57:20Z</time>
      </trkpt>
      <trkpt lat="45.571622" lon="6.738212">
        <ele>774.265</ele>
        <time>2018-07-16T08:57:25Z</time>
      </trkpt>
      <trkpt lat="45.571583" lon="6.738247">
        <ele>776.650</ele>
        <time>2018-07-16T08:57:29Z</time>
      </trkpt>
      <trkpt lat="45.571542" lon="6.738285">
        <ele>777.299</ele>
        <time>2018-07-16T08:57:34Z</time>
      </trkpt>
      <trkpt lat="45.571494" lon="6.738329">
        <ele>777.821</ele>
        <time>2018-07-16T08:57:39Z</time>
      </trkpt>
      <trkpt lat="45.571447" lon="6.738372">
        <ele>777.134</ele>
        <time>2018-07-16T08:57:44Z</time>
      </trkpt>
      <trkpt lat="45.571411" lon="6.738418">
        <ele>778.455</ele>
        <time>2018-07-16T08:57:49Z</time>
      </trkpt>
      <trkpt lat="45.571373" lon="6.738464">
        <ele>778.910</ele>
        <time>2018-07-16T08:57:54Z</time>
      </trkpt>
      <trkpt lat="45.571336" lon="6.738514">
        <ele>779.308</ele>
        <time>2018-07-16T08:57:59Z</time>
      </trkpt>
      <trkpt lat="45.571298" lon="6.738561">
        <ele>778.095</ele>
        <time>2018-07-16T08:58:04Z</time>
      </trkpt>
      <trkpt lat="45.571263" lon="6.738608">
        <ele>778.299</ele>
        <time>2018-07-16T08:58:09Z</time>
      </trkpt>
      <trkpt lat="45.571228" lon="6.738659">
        <ele>778.871</ele>
        <time>2018-07-16T08:58:14Z</time>
      </trkpt>
      <trkpt lat="45.571189" lon="6.738709">
        <ele>779.076</ele>
        <time>2018-07-16T08:58:19Z</time>
      </trkpt>
      <trkpt lat="45.571154" lon="6.738755">
        <ele>779.730</ele>
        <time>2018-07-16T08:58:24Z</time>
      </trkpt>
      <trkpt lat="45.571118" lon="6.738798">
        <ele>779.865</ele>
        <time>2018-07-16T08:58:29Z</time>
      </trkpt>
      <trkpt lat="45.571104" lon="6.738861">
        <ele>780.314</ele>
        <time>2018-07-16T08:58:47Z</time>
      </trkpt>
      <trkpt lat="45.571066" lon="6.738902">
        <ele>780.016</ele>
        <time>2018-07-16T08:58:54Z</time>
      </trkpt>
      <trkpt lat="45.571018" lon="6.738923">
        <ele>779.925</ele>
        <time>2018-07-16T08:59:05Z</time>
      </trkpt>
      <trkpt lat="45.570963" lon="6.738953">
        <ele>780.726</ele>
        <time>2018-07-16T08:59:26Z</time>
      </trkpt>
      <trkpt lat="45.570926" lon="6.738997">
        <ele>780.808</ele>
        <time>2018-07-16T08:59:33Z</time>
      </trkpt>
      <trkpt lat="45.570886" lon="6.739055">
        <ele>781.308</ele>
        <time>2018-07-16T08:59:38Z</time>
      </trkpt>
      <trkpt lat="45.570846" lon="6.739104">
        <ele>781.314</ele>
        <time>2018-07-16T08:59:43Z</time>
      </trkpt>
      <trkpt lat="45.570807" lon="6.739142">
        <ele>781.338</ele>
        <time>2018-07-16T08:59:47Z</time>
      </trkpt>
      <trkpt lat="45.570772" lon="6.739188">
        <ele>783.230</ele>
        <time>2018-07-16T08:59:51Z</time>
      </trkpt>
      <trkpt lat="45.570733" lon="6.739242">
        <ele>783.195</ele>
        <time>2018-07-16T08:59:56Z</time>
      </trkpt>
      <trkpt lat="45.570694" lon="6.739298">
        <ele>782.769</ele>
        <time>2018-07-16T09:00:01Z</time>
      </trkpt>
      <trkpt lat="45.570660" lon="6.739355">
        <ele>783.024</ele>
        <time>2018-07-16T09:00:06Z</time>
      </trkpt>
      <trkpt lat="45.570630" lon="6.739404">
        <ele>783.493</ele>
        <time>2018-07-16T09:00:10Z</time>
      </trkpt>
      <trkpt lat="45.570596" lon="6.739463">
        <ele>783.775</ele>
        <time>2018-07-16T09:00:15Z</time>
      </trkpt>
      <trkpt lat="45.570562" lon="6.739507">
        <ele>784.651</ele>
        <time>2018-07-16T09:00:19Z</time>
      </trkpt>
      <trkpt lat="45.570522" lon="6.739542">
        <ele>784.601</ele>
        <time>2018-07-16T09:00:23Z</time>
      </trkpt>
      <trkpt lat="45.570479" lon="6.739585">
        <ele>785.011</ele>
        <time>2018-07-16T09:00:28Z</time>
      </trkpt>
      <trkpt lat="45.570440" lon="6.739626">
        <ele>785.208</ele>
        <time>2018-07-16T09:00:33Z</time>
      </trkpt>
      <trkpt lat="45.570401" lon="6.739658">
        <ele>785.937</ele>
        <time>2018-07-16T09:00:38Z</time>
      </trkpt>
      <trkpt lat="45.570361" lon="6.739691">
        <ele>786.491</ele>
        <time>2018-07-16T09:00:43Z</time>
      </trkpt>
      <trkpt lat="45.570313" lon="6.739730">
        <ele>786.953</ele>
        <time>2018-07-16T09:00:48Z</time>
      </trkpt>
      <trkpt lat="45.570269" lon="6.739762">
        <ele>787.198</ele>
        <time>2018-07-16T09:00:53Z</time>
      </trkpt>
      <trkpt lat="45.570220" lon="6.739787">
        <ele>787.682</ele>
        <time>2018-07-16T09:00:58Z</time>
      </trkpt>
      <trkpt lat="45.570181" lon="6.739837">
        <ele>790.227</ele>
        <time>2018-07-16T09:01:03Z</time>
      </trkpt>
      <trkpt lat="45.570147" lon="6.739881">
        <ele>790.056</ele>
        <time>2018-07-16T09:01:07Z</time>
      </trkpt>
      <trkpt lat="45.570107" lon="6.739916">
        <ele>790.578</ele>
        <time>2018-07-16T09:01:11Z</time>
      </trkpt>
      <trkpt lat="45.570070" lon="6.739963">
        <ele>790.535</ele>
        <time>2018-07-16T09:01:16Z</time>
      </trkpt>
      <trkpt lat="45.570029" lon="6.739996">
        <ele>792.286</ele>
        <time>2018-07-16T09:01:22Z</time>
      </trkpt>
      <trkpt lat="45.569980" lon="6.740036">
        <ele>792.714</ele>
        <time>2018-07-16T09:01:27Z</time>
      </trkpt>
      <trkpt lat="45.569947" lon="6.740085">
        <ele>793.008</ele>
        <time>2018-07-16T09:01:31Z</time>
      </trkpt>
      <trkpt lat="45.569920" lon="6.740148">
        <ele>793.525</ele>
        <time>2018-07-16T09:01:36Z</time>
      </trkpt>
      <trkpt lat="45.569896" lon="6.740219">
        <ele>793.669</ele>
        <time>2018-07-16T09:01:41Z</time>
      </trkpt>
      <trkpt lat="45.569867" lon="6.740276">
        <ele>793.441</ele>
        <time>2018-07-16T09:01:46Z</time>
      </trkpt>
      <trkpt lat="45.569836" lon="6.740338">
        <ele>793.756</ele>
        <time>2018-07-16T09:01:51Z</time>
      </trkpt>
      <trkpt lat="45.569808" lon="6.740388">
        <ele>795.040</ele>
        <time>2018-07-16T09:01:55Z</time>
      </trkpt>
      <trkpt lat="45.569781" lon="6.740443">
        <ele>795.265</ele>
        <time>2018-07-16T09:01:59Z</time>
      </trkpt>
      <trkpt lat="45.569749" lon="6.740510">
        <ele>794.214</ele>
        <time>2018-07-16T09:02:04Z</time>
      </trkpt>
      <trkpt lat="45.569722" lon="6.740575">
        <ele>794.636</ele>
        <time>2018-07-16T09:02:09Z</time>
      </trkpt>
      <trkpt lat="45.569698" lon="6.740644">
        <ele>794.869</ele>
        <time>2018-07-16T09:02:14Z</time>
      </trkpt>
      <trkpt lat="45.569685" lon="6.740709">
        <ele>795.104</ele>
        <time>2018-07-16T09:02:18Z</time>
      </trkpt>
      <trkpt lat="45.569672" lon="6.740775">
        <ele>795.724</ele>
        <time>2018-07-16T09:02:22Z</time>
      </trkpt>
      <trkpt lat="45.569655" lon="6.740847">
        <ele>795.508</ele>
        <time>2018-07-16T09:02:27Z</time>
      </trkpt>
      <trkpt lat="45.569639" lon="6.740913">
        <ele>797.488</ele>
        <time>2018-07-16T09:02:32Z</time>
      </trkpt>
      <trkpt lat="45.569634" lon="6.740985">
        <ele>798.672</ele>
        <time>2018-07-16T09:02:37Z</time>
      </trkpt>
      <trkpt lat="45.569639" lon="6.741051">
        <ele>797.194</ele>
        <time>2018-07-16T09:02:41Z</time>
      </trkpt>
      <trkpt lat="45.569649" lon="6.741115">
        <ele>797.349</ele>
        <time>2018-07-16T09:02:45Z</time>
      </trkpt>
      <trkpt lat="45.569666" lon="6.741191">
        <ele>798.043</ele>
        <time>2018-07-16T09:02:50Z</time>
      </trkpt>
      <trkpt lat="45.569682" lon="6.741265">
        <ele>799.948</ele>
        <time>2018-07-16T09:02:55Z</time>
      </trkpt>
      <trkpt lat="45.569711" lon="6.741333">
        <ele>798.047</ele>
        <time>2018-07-16T09:03:09Z</time>
      </trkpt>
      <trkpt lat="45.569745" lon="6.741275">
        <ele>797.829</ele>
        <time>2018-07-16T09:03:33Z</time>
      </trkpt>
      <trkpt lat="45.569784" lon="6.741224">
        <ele>797.235</ele>
        <time>2018-07-16T09:03:38Z</time>
      </trkpt>
      <trkpt lat="45.569821" lon="6.741179">
        <ele>797.186</ele>
        <time>2018-07-16T09:03:42Z</time>
      </trkpt>
      <trkpt lat="45.569861" lon="6.741150">
        <ele>796.914</ele>
        <time>2018-07-16T09:03:46Z</time>
      </trkpt>
      <trkpt lat="45.569909" lon="6.741135">
        <ele>797.308</ele>
        <time>2018-07-16T09:03:50Z</time>
      </trkpt>
      <trkpt lat="45.569959" lon="6.741127">
        <ele>799.565</ele>
        <time>2018-07-16T09:03:54Z</time>
      </trkpt>
      <trkpt lat="45.570007" lon="6.741134">
        <ele>800.089</ele>
        <time>2018-07-16T09:03:58Z</time>
      </trkpt>
      <trkpt lat="45.570060" lon="6.741152">
        <ele>798.361</ele>
        <time>2018-07-16T09:04:03Z</time>
      </trkpt>
      <trkpt lat="45.570112" lon="6.741170">
        <ele>798.616</ele>
        <time>2018-07-16T09:04:08Z</time>
      </trkpt>
      <trkpt lat="45.570155" lon="6.741196">
        <ele>799.040</ele>
        <time>2018-07-16T09:04:12Z</time>
      </trkpt>
      <trkpt lat="45.570197" lon="6.741228">
        <ele>799.195</ele>
        <time>2018-07-16T09:04:16Z</time>
      </trkpt>
      <trkpt lat="45.570243" lon="6.741261">
        <ele>799.514</ele>
        <time>2018-07-16T09:04:21Z</time>
      </trkpt>
      <trkpt lat="45.570283" lon="6.741305">
        <ele>799.616</ele>
        <time>2018-07-16T09:04:26Z</time>
      </trkpt>
      <trkpt lat="45.570327" lon="6.741341">
        <ele>799.721</ele>
        <time>2018-07-16T09:04:31Z</time>
      </trkpt>
      <trkpt lat="45.570378" lon="6.741349">
        <ele>800.041</ele>
        <time>2018-07-16T09:04:36Z</time>
      </trkpt>
      <trkpt lat="45.570428" lon="6.741381">
        <ele>800.005</ele>
        <time>2018-07-16T09:04:40Z</time>
      </trkpt>
      <trkpt lat="45.570447" lon="6.741442">
        <ele>801.408</ele>
        <time>2018-07-16T09:04:45Z</time>
      </trkpt>
      <trkpt lat="45.570427" lon="6.741500">
        <ele>801.944</ele>
        <time>2018-07-16T09:04:51Z</time>
      </trkpt>
      <trkpt lat="45.570412" lon="6.741566">
        <ele>802.628</ele>
        <time>2018-07-16T09:04:57Z</time>
      </trkpt>
      <trkpt lat="45.570389" lon="6.741622">
        <ele>803.260</ele>
        <time>2018-07-16T09:05:02Z</time>
      </trkpt>
      <trkpt lat="45.570356" lon="6.741672">
        <ele>803.825</ele>
        <time>2018-07-16T09:05:07Z</time>
      </trkpt>
      <trkpt lat="45.570327" lon="6.741722">
        <ele>804.999</ele>
        <time>2018-07-16T09:05:13Z</time>
      </trkpt>
      <trkpt lat="45.570292" lon="6.741768">
        <ele>805.664</ele>
        <time>2018-07-16T09:05:21Z</time>
      </trkpt>
      <trkpt lat="45.570261" lon="6.741822">
        <ele>807.443</ele>
        <time>2018-07-16T09:05:34Z</time>
      </trkpt>
      <trkpt lat="45.570214" lon="6.741839">
        <ele>808.375</ele>
        <time>2018-07-16T09:05:43Z</time>
      </trkpt>
      <trkpt lat="45.570152" lon="6.741860">
        <ele>808.974</ele>
        <time>2018-07-16T09:05:48Z</time>
      </trkpt>
      <trkpt lat="45.570076" lon="6.741929">
        <ele>812.256</ele>
        <time>2018-07-16T09:06:00Z</time>
      </trkpt>
      <trkpt lat="45.570036" lon="6.741962">
        <ele>813.021</ele>
        <time>2018-07-16T09:06:17Z</time>
      </trkpt>
      <trkpt lat="45.569986" lon="6.741993">
        <ele>815.308</ele>
        <time>2018-07-16T09:06:35Z</time>
      </trkpt>
      <trkpt lat="45.569940" lon="6.742005">
        <ele>815.999</ele>
        <time>2018-07-16T09:06:40Z</time>
      </trkpt>
      <trkpt lat="45.569872" lon="6.742018">
        <ele>816.943</ele>
        <time>2018-07-16T09:06:48Z</time>
      </trkpt>
      <trkpt lat="45.569834" lon="6.742055">
        <ele>817.555</ele>
        <time>2018-07-16T09:06:53Z</time>
      </trkpt>
      <trkpt lat="45.569795" lon="6.742100">
        <ele>818.270</ele>
        <time>2018-07-16T09:06:58Z</time>
      </trkpt>
      <trkpt lat="45.569762" lon="6.742157">
        <ele>818.664</ele>
        <time>2018-07-16T09:07:05Z</time>
      </trkpt>
      <trkpt lat="45.569724" lon="6.742193">
        <ele>819.169</ele>
        <time>2018-07-16T09:07:11Z</time>
      </trkpt>
      <trkpt lat="45.569681" lon="6.742217">
        <ele>820.598</ele>
        <time>2018-07-16T09:07:18Z</time>
      </trkpt>
      <trkpt lat="45.569645" lon="6.742263">
        <ele>823.620</ele>
        <time>2018-07-16T09:08:26Z</time>
      </trkpt>
      <trkpt lat="45.569619" lon="6.742329">
        <ele>825.378</ele>
        <time>2018-07-16T09:08:36Z</time>
      </trkpt>
      <trkpt lat="45.569589" lon="6.742382">
        <ele>825.333</ele>
        <time>2018-07-16T09:08:50Z</time>
      </trkpt>
      <trkpt lat="45.569561" lon="6.742440">
        <ele>825.926</ele>
        <time>2018-07-16T09:09:02Z</time>
      </trkpt>
      <trkpt lat="45.569526" lon="6.742485">
        <ele>828.408</ele>
        <time>2018-07-16T09:09:17Z</time>
      </trkpt>
      <trkpt lat="45.569502" lon="6.742540">
        <ele>830.139</ele>
        <time>2018-07-16T09:09:26Z</time>
      </trkpt>
      <trkpt lat="45.569486" lon="6.742604">
        <ele>832.133</ele>
        <time>2018-07-16T09:09:42Z</time>
      </trkpt>
      <trkpt lat="45.569466" lon="6.742677">
        <ele>832.185</ele>
        <time>2018-07-16T09:10:00Z</time>
      </trkpt>
      <trkpt lat="45.569464" lon="6.742742">
        <ele>833.970</ele>
        <time>2018-07-16T09:10:12Z</time>
      </trkpt>
      <trkpt lat="45.569461" lon="6.742807">
        <ele>834.144</ele>
        <time>2018-07-16T09:10:21Z</time>
      </trkpt>
      <trkpt lat="45.569447" lon="6.742871">
        <ele>834.819</ele>
        <time>2018-07-16T09:10:26Z</time>
      </trkpt>
      <trkpt lat="45.569434" lon="6.742942">
        <ele>836.218</ele>
        <time>2018-07-16T09:10:42Z</time>
      </trkpt>
      <trkpt lat="45.569423" lon="6.743006">
        <ele>837.720</ele>
        <time>2018-07-16T09:10:59Z</time>
      </trkpt>
      <trkpt lat="45.569385" lon="6.743094">
        <ele>839.468</ele>
        <time>2018-07-16T09:11:16Z</time>
      </trkpt>
      <trkpt lat="45.569363" lon="6.743168">
        <ele>843.242</ele>
        <time>2018-07-16T09:11:32Z</time>
      </trkpt>
      <trkpt lat="45.569336" lon="6.743231">
        <ele>842.526</ele>
        <time>2018-07-16T09:11:42Z</time>
      </trkpt>
      <trkpt lat="45.569311" lon="6.743306">
        <ele>843.308</ele>
        <time>2018-07-16T09:11:54Z</time>
      </trkpt>
      <trkpt lat="45.569283" lon="6.743357">
        <ele>845.418</ele>
        <time>2018-07-16T09:12:13Z</time>
      </trkpt>
      <trkpt lat="45.569248" lon="6.743404">
        <ele>847.292</ele>
        <time>2018-07-16T09:12:28Z</time>
      </trkpt>
      <trkpt lat="45.569293" lon="6.743430">
        <ele>849.094</ele>
        <time>2018-07-16T09:12:56Z</time>
      </trkpt>
      <trkpt lat="45.569338" lon="6.743437">
        <ele>850.079</ele>
        <time>2018-07-16T09:13:04Z</time>
      </trkpt>
      <trkpt lat="45.569383" lon="6.743444">
        <ele>850.753</ele>
        <time>2018-07-16T09:13:10Z</time>
      </trkpt>
      <trkpt lat="45.569434" lon="6.743441">
        <ele>851.518</ele>
        <time>2018-07-16T09:13:17Z</time>
      </trkpt>
      <trkpt lat="45.569481" lon="6.743449">
        <ele>851.787</ele>
        <time>2018-07-16T09:13:24Z</time>
      </trkpt>
      <trkpt lat="45.569528" lon="6.743461">
        <ele>852.179</ele>
        <time>2018-07-16T09:13:39Z</time>
      </trkpt>
      <trkpt lat="45.569541" lon="6.743531">
        <ele>853.918</ele>
        <time>2018-07-16T09:13:47Z</time>
      </trkpt>
      <trkpt lat="45.569541" lon="6.743598">
        <ele>853.498</ele>
        <time>2018-07-16T09:13:55Z</time>
      </trkpt>
      <trkpt lat="45.569503" lon="6.743636">
        <ele>855.217</ele>
        <time>2018-07-16T09:15:01Z</time>
      </trkpt>
      <trkpt lat="45.569512" lon="6.743704">
        <ele>856.108</ele>
        <time>2018-07-16T09:15:11Z</time>
      </trkpt>
      <trkpt lat="45.569534" lon="6.743765">
        <ele>856.923</ele>
        <time>2018-07-16T09:15:19Z</time>
      </trkpt>
      <trkpt lat="45.569533" lon="6.743832">
        <ele>857.997</ele>
        <time>2018-07-16T09:15:27Z</time>
      </trkpt>
      <trkpt lat="45.569530" lon="6.743903">
        <ele>859.029</ele>
        <time>2018-07-16T09:15:36Z</time>
      </trkpt>
      <trkpt lat="45.569527" lon="6.743970">
        <ele>859.984</ele>
        <time>2018-07-16T09:15:45Z</time>
      </trkpt>
      <trkpt lat="45.569532" lon="6.744039">
        <ele>861.188</ele>
        <time>2018-07-16T09:15:56Z</time>
      </trkpt>
      <trkpt lat="45.569520" lon="6.744110">
        <ele>864.513</ele>
        <time>2018-07-16T09:16:04Z</time>
      </trkpt>
      <trkpt lat="45.569526" lon="6.744178">
        <ele>865.452</ele>
        <time>2018-07-16T09:16:13Z</time>
      </trkpt>
      <trkpt lat="45.569499" lon="6.744245">
        <ele>864.624</ele>
        <time>2018-07-16T09:16:26Z</time>
      </trkpt>
      <trkpt lat="45.569472" lon="6.744304">
        <ele>867.391</ele>
        <time>2018-07-16T09:16:44Z</time>
      </trkpt>
      <trkpt lat="45.569443" lon="6.744355">
        <ele>868.381</ele>
        <time>2018-07-16T09:16:55Z</time>
      </trkpt>
      <trkpt lat="45.569453" lon="6.744426">
        <ele>869.319</ele>
        <time>2018-07-16T09:17:04Z</time>
      </trkpt>
      <trkpt lat="45.569449" lon="6.744499">
        <ele>870.908</ele>
        <time>2018-07-16T09:17:14Z</time>
      </trkpt>
      <trkpt lat="45.569451" lon="6.744568">
        <ele>873.361</ele>
        <time>2018-07-16T09:17:33Z</time>
      </trkpt>
      <trkpt lat="45.569474" lon="6.744624">
        <ele>875.845</ele>
        <time>2018-07-16T09:17:53Z</time>
      </trkpt>
      <trkpt lat="45.569502" lon="6.744677">
        <ele>878.867</ele>
        <time>2018-07-16T09:18:04Z</time>
      </trkpt>
      <trkpt lat="45.569538" lon="6.744721">
        <ele>878.282</ele>
        <time>2018-07-16T09:18:16Z</time>
      </trkpt>
      <trkpt lat="45.569581" lon="6.744751">
        <ele>878.816</ele>
        <time>2018-07-16T09:18:25Z</time>
      </trkpt>
      <trkpt lat="45.569620" lon="6.744788">
        <ele>879.941</ele>
        <time>2018-07-16T09:18:33Z</time>
      </trkpt>
      <trkpt lat="45.569664" lon="6.744814">
        <ele>883.910</ele>
        <time>2018-07-16T09:18:51Z</time>
      </trkpt>
      <trkpt lat="45.569704" lon="6.744855">
        <ele>884.982</ele>
        <time>2018-07-16T09:19:01Z</time>
      </trkpt>
      <trkpt lat="45.569733" lon="6.744905">
        <ele>885.777</ele>
        <time>2018-07-16T09:19:07Z</time>
      </trkpt>
      <trkpt lat="45.569773" lon="6.744948">
        <ele>885.461</ele>
        <time>2018-07-16T09:19:18Z</time>
      </trkpt>
      <trkpt lat="45.569819" lon="6.744944">
        <ele>886.727</ele>
        <time>2018-07-16T09:19:29Z</time>
      </trkpt>
      <trkpt lat="45.569862" lon="6.744964">
        <ele>888.208</ele>
        <time>2018-07-16T09:19:43Z</time>
      </trkpt>
      <trkpt lat="45.569901" lon="6.744999">
        <ele>889.599</ele>
        <time>2018-07-16T09:19:55Z</time>
      </trkpt>
      <trkpt lat="45.569945" lon="6.745029">
        <ele>890.623</ele>
        <time>2018-07-16T09:20:07Z</time>
      </trkpt>
      <trkpt lat="45.569988" lon="6.745068">
        <ele>891.675</ele>
        <time>2018-07-16T09:20:18Z</time>
      </trkpt>
      <trkpt lat="45.570025" lon="6.745113">
        <ele>892.880</ele>
        <time>2018-07-16T09:20:26Z</time>
      </trkpt>
      <trkpt lat="45.570067" lon="6.745144">
        <ele>893.464</ele>
        <time>2018-07-16T09:20:35Z</time>
      </trkpt>
      <trkpt lat="45.570100" lon="6.745188">
        <ele>894.769</ele>
        <time>2018-07-16T09:20:45Z</time>
      </trkpt>
      <trkpt lat="45.570146" lon="6.745200">
        <ele>897.558</ele>
        <time>2018-07-16T09:20:57Z</time>
      </trkpt>
      <trkpt lat="45.570195" lon="6.745229">
        <ele>898.780</ele>
        <time>2018-07-16T09:21:11Z</time>
      </trkpt>
      <trkpt lat="45.570242" lon="6.745249">
        <ele>898.565</ele>
        <time>2018-07-16T09:21:22Z</time>
      </trkpt>
      <trkpt lat="45.570284" lon="6.745277">
        <ele>898.868</ele>
        <time>2018-07-16T09:21:30Z</time>
      </trkpt>
      <trkpt lat="45.570312" lon="6.745334">
        <ele>899.614</ele>
        <time>2018-07-16T09:21:38Z</time>
      </trkpt>
      <trkpt lat="45.570333" lon="6.745393">
        <ele>902.208</ele>
        <time>2018-07-16T09:21:46Z</time>
      </trkpt>
      <trkpt lat="45.570346" lon="6.745460">
        <ele>904.498</ele>
        <time>2018-07-16T09:22:00Z</time>
      </trkpt>
      <trkpt lat="45.570354" lon="6.745531">
        <ele>904.942</ele>
        <time>2018-07-16T09:22:10Z</time>
      </trkpt>
      <trkpt lat="45.570329" lon="6.745587">
        <ele>904.314</ele>
        <time>2018-07-16T09:22:18Z</time>
      </trkpt>
      <trkpt lat="45.570306" lon="6.745650">
        <ele>905.829</ele>
        <time>2018-07-16T09:22:30Z</time>
      </trkpt>
      <trkpt lat="45.570322" lon="6.745719">
        <ele>907.383</ele>
        <time>2018-07-16T09:22:46Z</time>
      </trkpt>
      <trkpt lat="45.570325" lon="6.745791">
        <ele>908.238</ele>
        <time>2018-07-16T09:22:53Z</time>
      </trkpt>
      <trkpt lat="45.570349" lon="6.745852">
        <ele>911.297</ele>
        <time>2018-07-16T09:23:03Z</time>
      </trkpt>
      <trkpt lat="45.570345" lon="6.745920">
        <ele>911.129</ele>
        <time>2018-07-16T09:23:14Z</time>
      </trkpt>
      <trkpt lat="45.570351" lon="6.745986">
        <ele>912.815</ele>
        <time>2018-07-16T09:23:27Z</time>
      </trkpt>
      <trkpt lat="45.570361" lon="6.746057">
        <ele>914.965</ele>
        <time>2018-07-16T09:23:44Z</time>
      </trkpt>
      <trkpt lat="45.570381" lon="6.746118">
        <ele>916.211</ele>
        <time>2018-07-16T09:23:55Z</time>
      </trkpt>
      <trkpt lat="45.570401" lon="6.746184">
        <ele>918.408</ele>
        <time>2018-07-16T09:24:01Z</time>
      </trkpt>
      <trkpt lat="45.570428" lon="6.746245">
        <ele>918.843</ele>
        <time>2018-07-16T09:24:08Z</time>
      </trkpt>
      <trkpt lat="45.570456" lon="6.746296">
        <ele>918.087</ele>
        <time>2018-07-16T09:24:14Z</time>
      </trkpt>
      <trkpt lat="45.570487" lon="6.746352">
        <ele>918.429</ele>
        <time>2018-07-16T09:24:21Z</time>
      </trkpt>
      <trkpt lat="45.570521" lon="6.746400">
        <ele>918.924</ele>
        <time>2018-07-16T09:24:27Z</time>
      </trkpt>
      <trkpt lat="45.570551" lon="6.746453">
        <ele>919.768</ele>
        <time>2018-07-16T09:24:34Z</time>
      </trkpt>
      <trkpt lat="45.570561" lon="6.746517">
        <ele>921.923</ele>
        <time>2018-07-16T09:24:41Z</time>
      </trkpt>
      <trkpt lat="45.570552" lon="6.746580">
        <ele>920.892</ele>
        <time>2018-07-16T09:24:50Z</time>
      </trkpt>
      <trkpt lat="45.570573" lon="6.746666">
        <ele>922.794</ele>
        <time>2018-07-16T09:25:13Z</time>
      </trkpt>
      <trkpt lat="45.570607" lon="6.746714">
        <ele>924.275</ele>
        <time>2018-07-16T09:25:22Z</time>
      </trkpt>
      <trkpt lat="45.570590" lon="6.746775">
        <ele>925.728</ele>
        <time>2018-07-16T09:25:30Z</time>
      </trkpt>
      <trkpt lat="45.570570" lon="6.746836">
        <ele>927.320</ele>
        <time>2018-07-16T09:25:42Z</time>
      </trkpt>
      <trkpt lat="45.570552" lon="6.746900">
        <ele>930.908</ele>
        <time>2018-07-16T09:25:54Z</time>
      </trkpt>
      <trkpt lat="45.570517" lon="6.746943">
        <ele>930.899</ele>
        <time>2018-07-16T09:26:10Z</time>
      </trkpt>
      <trkpt lat="45.570535" lon="6.747039">
        <ele>932.273</ele>
        <time>2018-07-16T09:26:27Z</time>
      </trkpt>
      <trkpt lat="45.570572" lon="6.747098">
        <ele>934.985</ele>
        <time>2018-07-16T09:26:37Z</time>
      </trkpt>
      <trkpt lat="45.570586" lon="6.747159">
        <ele>934.460</ele>
        <time>2018-07-16T09:26:45Z</time>
      </trkpt>
      <trkpt lat="45.570587" lon="6.747239">
        <ele>937.224</ele>
        <time>2018-07-16T09:30:08Z</time>
      </trkpt>
      <trkpt lat="45.570626" lon="6.747276">
        <ele>952.719</ele>
        <time>2018-07-16T09:30:43Z</time>
      </trkpt>
      <trkpt lat="45.570677" lon="6.747263">
        <ele>938.078</ele>
        <time>2018-07-16T09:31:05Z</time>
      </trkpt>
      <trkpt lat="45.570706" lon="6.747313">
        <ele>935.780</ele>
        <time>2018-07-16T09:31:12Z</time>
      </trkpt>
      <trkpt lat="45.570757" lon="6.747293">
        <ele>936.318</ele>
        <time>2018-07-16T09:31:33Z</time>
      </trkpt>
      <trkpt lat="45.570822" lon="6.747302">
        <ele>938.398</ele>
        <time>2018-07-16T09:31:48Z</time>
      </trkpt>
      <trkpt lat="45.570868" lon="6.747304">
        <ele>940.717</ele>
        <time>2018-07-16T09:31:59Z</time>
      </trkpt>
      <trkpt lat="45.570911" lon="6.747346">
        <ele>942.108</ele>
        <time>2018-07-16T09:32:13Z</time>
      </trkpt>
      <trkpt lat="45.570963" lon="6.747379">
        <ele>943.073</ele>
        <time>2018-07-16T09:32:33Z</time>
      </trkpt>
      <trkpt lat="45.571005" lon="6.747414">
        <ele>943.187</ele>
        <time>2018-07-16T09:32:45Z</time>
      </trkpt>
      <trkpt lat="45.571052" lon="6.747433">
        <ele>943.659</ele>
        <time>2018-07-16T09:32:59Z</time>
      </trkpt>
      <trkpt lat="45.571101" lon="6.747421">
        <ele>947.114</ele>
        <time>2018-07-16T09:33:17Z</time>
      </trkpt>
      <trkpt lat="45.571148" lon="6.747440">
        <ele>948.418</ele>
        <time>2018-07-16T09:33:26Z</time>
      </trkpt>
      <trkpt lat="45.571196" lon="6.747440">
        <ele>950.423</ele>
        <time>2018-07-16T09:33:38Z</time>
      </trkpt>
      <trkpt lat="45.571245" lon="6.747444">
        <ele>951.632</ele>
        <time>2018-07-16T09:33:49Z</time>
      </trkpt>
      <trkpt lat="45.571292" lon="6.747469">
        <ele>953.144</ele>
        <time>2018-07-16T09:34:09Z</time>
      </trkpt>
      <trkpt lat="45.571310" lon="6.747532">
        <ele>954.476</ele>
        <time>2018-07-16T09:34:32Z</time>
      </trkpt>
      <trkpt lat="45.571309" lon="6.747598">
        <ele>955.690</ele>
        <time>2018-07-16T09:34:43Z</time>
      </trkpt>
      <trkpt lat="45.571314" lon="6.747669">
        <ele>957.519</ele>
        <time>2018-07-16T09:34:56Z</time>
      </trkpt>
      <trkpt lat="45.571322" lon="6.747733">
        <ele>959.408</ele>
        <time>2018-07-16T09:35:22Z</time>
      </trkpt>
      <trkpt lat="45.571334" lon="6.747803">
        <ele>961.819</ele>
        <time>2018-07-16T09:35:45Z</time>
      </trkpt>
      <trkpt lat="45.571341" lon="6.747873">
        <ele>963.653</ele>
        <time>2018-07-16T09:35:58Z</time>
      </trkpt>
      <trkpt lat="45.571343" lon="6.747942">
        <ele>964.725</ele>
        <time>2018-07-16T09:36:20Z</time>
      </trkpt>
      <trkpt lat="45.571329" lon="6.748010">
        <ele>966.290</ele>
        <time>2018-07-16T09:36:31Z</time>
      </trkpt>
      <trkpt lat="45.571331" lon="6.748074">
        <ele>967.974</ele>
        <time>2018-07-16T09:36:50Z</time>
      </trkpt>
      <trkpt lat="45.571347" lon="6.748142">
        <ele>969.759</ele>
        <time>2018-07-16T09:37:09Z</time>
      </trkpt>
      <trkpt lat="45.571352" lon="6.748207">
        <ele>970.898</ele>
        <time>2018-07-16T09:37:30Z</time>
      </trkpt>
      <trkpt lat="45.571361" lon="6.748293">
        <ele>972.680</ele>
        <time>2018-07-16T09:37:47Z</time>
      </trkpt>
      <trkpt lat="45.571388" lon="6.748350">
        <ele>974.592</ele>
        <time>2018-07-16T09:38:00Z</time>
      </trkpt>
      <trkpt lat="45.571392" lon="6.748448">
        <ele>977.273</ele>
        <time>2018-07-16T09:38:24Z</time>
      </trkpt>
      <trkpt lat="45.571408" lon="6.748526">
        <ele>978.820</ele>
        <time>2018-07-16T09:38:43Z</time>
      </trkpt>
      <trkpt lat="45.571403" lon="6.748595">
        <ele>980.208</ele>
        <time>2018-07-16T09:38:53Z</time>
      </trkpt>
      <trkpt lat="45.571408" lon="6.748661">
        <ele>982.231</ele>
        <time>2018-07-16T09:39:03Z</time>
      </trkpt>
      <trkpt lat="45.571425" lon="6.748723">
        <ele>984.625</ele>
        <time>2018-07-16T09:39:24Z</time>
      </trkpt>
      <trkpt lat="45.571422" lon="6.748788">
        <ele>986.117</ele>
        <time>2018-07-16T09:39:36Z</time>
      </trkpt>
      <trkpt lat="45.571432" lon="6.748852">
        <ele>988.652</ele>
        <time>2018-07-16T09:39:53Z</time>
      </trkpt>
      <trkpt lat="45.571477" lon="6.748879">
        <ele>989.356</ele>
        <time>2018-07-16T09:40:05Z</time>
      </trkpt>
      <trkpt lat="45.571521" lon="6.748901">
        <ele>990.541</ele>
        <time>2018-07-16T09:40:12Z</time>
      </trkpt>
      <trkpt lat="45.571511" lon="6.748967">
        <ele>991.650</ele>
        <time>2018-07-16T09:40:23Z</time>
      </trkpt>
      <trkpt lat="45.571462" lon="6.748979">
        <ele>991.922</ele>
        <time>2018-07-16T09:40:32Z</time>
      </trkpt>
      <trkpt lat="45.571413" lon="6.748992">
        <ele>992.189</ele>
        <time>2018-07-16T09:40:39Z</time>
      </trkpt>
      <trkpt lat="45.571380" lon="6.749043">
        <ele>993.006</ele>
        <time>2018-07-16T09:40:52Z</time>
      </trkpt>
      <trkpt lat="45.571325" lon="6.749127">
        <ele>993.926</ele>
        <time>2018-07-16T09:41:15Z</time>
      </trkpt>
      <trkpt lat="45.571290" lon="6.749197">
        <ele>995.708</ele>
        <time>2018-07-16T09:41:41Z</time>
      </trkpt>
      <trkpt lat="45.571253" lon="6.749236">
        <ele>996.050</ele>
        <time>2018-07-16T09:41:55Z</time>
      </trkpt>
      <trkpt lat="45.571218" lon="6.749295">
        <ele>997.424</ele>
        <time>2018-07-16T09:42:10Z</time>
      </trkpt>
      <trkpt lat="45.571160" lon="6.749343">
        <ele>1000.626</ele>
        <time>2018-07-16T09:42:27Z</time>
      </trkpt>
      <trkpt lat="45.571115" lon="6.749364">
        <ele>1002.151</ele>
        <time>2018-07-16T09:42:39Z</time>
      </trkpt>
      <trkpt lat="45.571067" lon="6.749384">
        <ele>1004.295</ele>
        <time>2018-07-16T09:42:47Z</time>
      </trkpt>
      <trkpt lat="45.571015" lon="6.749380">
        <ele>1005.110</ele>
        <time>2018-07-16T09:42:56Z</time>
      </trkpt>
      <trkpt lat="45.570969" lon="6.749381">
        <ele>1006.019</ele>
        <time>2018-07-16T09:43:04Z</time>
      </trkpt>
      <trkpt lat="45.570914" lon="6.749382">
        <ele>1007.471</ele>
        <time>2018-07-16T09:43:13Z</time>
      </trkpt>
      <trkpt lat="45.570866" lon="6.749381">
        <ele>1006.656</ele>
        <time>2018-07-16T09:43:26Z</time>
      </trkpt>
      <trkpt lat="45.570814" lon="6.749378">
        <ele>1006.959</ele>
        <time>2018-07-16T09:43:37Z</time>
      </trkpt>
      <trkpt lat="45.570763" lon="6.749366">
        <ele>1007.914</ele>
        <time>2018-07-16T09:43:44Z</time>
      </trkpt>
      <trkpt lat="45.570716" lon="6.749366">
        <ele>1010.908</ele>
        <time>2018-07-16T09:43:55Z</time>
      </trkpt>
      <trkpt lat="45.570671" lon="6.749369">
        <ele>1011.997</ele>
        <time>2018-07-16T09:44:11Z</time>
      </trkpt>
      <trkpt lat="45.570624" lon="6.749381">
        <ele>1013.371</ele>
        <time>2018-07-16T09:44:26Z</time>
      </trkpt>
      <trkpt lat="45.570572" lon="6.749393">
        <ele>1013.743</ele>
        <time>2018-07-16T09:44:35Z</time>
      </trkpt>
      <trkpt lat="45.570524" lon="6.749401">
        <ele>1013.658</ele>
        <time>2018-07-16T09:44:46Z</time>
      </trkpt>
      <trkpt lat="45.570455" lon="6.749393">
        <ele>1013.142</ele>
        <time>2018-07-16T09:45:04Z</time>
      </trkpt>
      <trkpt lat="45.570410" lon="6.749420">
        <ele>1012.877</ele>
        <time>2018-07-16T09:45:16Z</time>
      </trkpt>
      <trkpt lat="45.570363" lon="6.749439">
        <ele>1013.086</ele>
        <time>2018-07-16T09:45:22Z</time>
      </trkpt>
      <trkpt lat="45.570318" lon="6.749460">
        <ele>1012.748</ele>
        <time>2018-07-16T09:45:30Z</time>
      </trkpt>
      <trkpt lat="45.570272" lon="6.749458">
        <ele>1013.796</ele>
        <time>2018-07-16T09:45:36Z</time>
      </trkpt>
      <trkpt lat="45.570220" lon="6.749464">
        <ele>1015.131</ele>
        <time>2018-07-16T09:45:42Z</time>
      </trkpt>
      <trkpt lat="45.570174" lon="6.749479">
        <ele>1016.424</ele>
        <time>2018-07-16T09:45:47Z</time>
      </trkpt>
      <trkpt lat="45.570127" lon="6.749492">
        <ele>1018.008</ele>
        <time>2018-07-16T09:45:55Z</time>
      </trkpt>
      <trkpt lat="45.570079" lon="6.749527">
        <ele>1018.541</ele>
        <time>2018-07-16T09:46:01Z</time>
      </trkpt>
      <trkpt lat="45.570035" lon="6.749552">
        <ele>1019.265</ele>
        <time>2018-07-16T09:46:06Z</time>
      </trkpt>
      <trkpt lat="45.569991" lon="6.749571">
        <ele>1020.057</ele>
        <time>2018-07-16T09:46:12Z</time>
      </trkpt>
      <trkpt lat="45.569950" lon="6.749603">
        <ele>1020.932</ele>
        <time>2018-07-16T09:46:20Z</time>
      </trkpt>
      <trkpt lat="45.569907" lon="6.749641">
        <ele>1021.816</ele>
        <time>2018-07-16T09:46:27Z</time>
      </trkpt>
      <trkpt lat="45.569867" lon="6.749683">
        <ele>1023.261</ele>
        <time>2018-07-16T09:46:34Z</time>
      </trkpt>
      <trkpt lat="45.569829" lon="6.749724">
        <ele>1024.010</ele>
        <time>2018-07-16T09:46:41Z</time>
      </trkpt>
      <trkpt lat="45.569789" lon="6.749764">
        <ele>1025.332</ele>
        <time>2018-07-16T09:46:48Z</time>
      </trkpt>
      <trkpt lat="45.569754" lon="6.749812">
        <ele>1026.963</ele>
        <time>2018-07-16T09:47:03Z</time>
      </trkpt>
      <trkpt lat="45.569707" lon="6.749833">
        <ele>1027.844</ele>
        <time>2018-07-16T09:47:11Z</time>
      </trkpt>
      <trkpt lat="45.569662" lon="6.749854">
        <ele>1028.418</ele>
        <time>2018-07-16T09:47:17Z</time>
      </trkpt>
      <trkpt lat="45.569622" lon="6.749886">
        <ele>1029.508</ele>
        <time>2018-07-16T09:47:24Z</time>
      </trkpt>
      <trkpt lat="45.569588" lon="6.749939">
        <ele>1031.478</ele>
        <time>2018-07-16T09:47:30Z</time>
      </trkpt>
      <trkpt lat="45.569554" lon="6.749987">
        <ele>1033.712</ele>
        <time>2018-07-16T09:47:38Z</time>
      </trkpt>
      <trkpt lat="45.569515" lon="6.750029">
        <ele>1036.334</ele>
        <time>2018-07-16T09:47:50Z</time>
      </trkpt>
      <trkpt lat="45.569470" lon="6.750037">
        <ele>1038.719</ele>
        <time>2018-07-16T09:47:59Z</time>
      </trkpt>
      <trkpt lat="45.569423" lon="6.750007">
        <ele>1040.553</ele>
        <time>2018-07-16T09:48:06Z</time>
      </trkpt>
      <trkpt lat="45.569385" lon="6.749969">
        <ele>1041.228</ele>
        <time>2018-07-16T09:48:29Z</time>
      </trkpt>
      <trkpt lat="45.569360" lon="6.749915">
        <ele>1040.037</ele>
        <time>2018-07-16T09:48:39Z</time>
      </trkpt>
      <trkpt lat="45.569346" lon="6.749852">
        <ele>1036.989</ele>
        <time>2018-07-16T09:48:47Z</time>
      </trkpt>
      <trkpt lat="45.569334" lon="6.749782">
        <ele>1034.635</ele>
        <time>2018-07-16T09:48:56Z</time>
      </trkpt>
      <trkpt lat="45.569303" lon="6.749725">
        <ele>1032.886</ele>
        <time>2018-07-16T09:49:02Z</time>
      </trkpt>
      <trkpt lat="45.569281" lon="6.749658">
        <ele>1032.914</ele>
        <time>2018-07-16T09:49:14Z</time>
      </trkpt>
      <trkpt lat="45.569252" lon="6.749608">
        <ele>1034.608</ele>
        <time>2018-07-16T09:49:22Z</time>
      </trkpt>
      <trkpt lat="45.569224" lon="6.749555">
        <ele>1037.245</ele>
        <time>2018-07-16T09:49:32Z</time>
      </trkpt>
      <trkpt lat="45.569196" lon="6.749498">
        <ele>1039.219</ele>
        <time>2018-07-16T09:49:42Z</time>
      </trkpt>
      <trkpt lat="45.569155" lon="6.749462">
        <ele>1040.861</ele>
        <time>2018-07-16T09:49:52Z</time>
      </trkpt>
      <trkpt lat="45.569118" lon="6.749511">
        <ele>1043.756</ele>
        <time>2018-07-16T09:50:21Z</time>
      </trkpt>
      <trkpt lat="45.569086" lon="6.749569">
        <ele>1046.360</ele>
        <time>2018-07-16T09:50:37Z</time>
      </trkpt>
      <trkpt lat="45.569032" lon="6.749574">
        <ele>1048.235</ele>
        <time>2018-07-16T09:51:07Z</time>
      </trkpt>
      <trkpt lat="45.568991" lon="6.749614">
        <ele>1049.494</ele>
        <time>2018-07-16T09:51:21Z</time>
      </trkpt>
      <trkpt lat="45.568949" lon="6.749646">
        <ele>1050.986</ele>
        <time>2018-07-16T09:51:31Z</time>
      </trkpt>
      <trkpt lat="45.568917" lon="6.749697">
        <ele>1052.683</ele>
        <time>2018-07-16T09:51:40Z</time>
      </trkpt>
      <trkpt lat="45.568873" lon="6.749727">
        <ele>1055.225</ele>
        <time>2018-07-16T09:52:14Z</time>
      </trkpt>
      <trkpt lat="45.568830" lon="6.749771">
        <ele>1057.217</ele>
        <time>2018-07-16T09:52:35Z</time>
      </trkpt>
      <trkpt lat="45.568785" lon="6.749795">
        <ele>1058.408</ele>
        <time>2018-07-16T09:52:45Z</time>
      </trkpt>
      <trkpt lat="45.568751" lon="6.749837">
        <ele>1059.510</ele>
        <time>2018-07-16T09:52:58Z</time>
      </trkpt>
      <trkpt lat="45.568706" lon="6.749871">
        <ele>1060.634</ele>
        <time>2018-07-16T09:53:05Z</time>
      </trkpt>
      <trkpt lat="45.568668" lon="6.749908">
        <ele>1060.416</ele>
        <time>2018-07-16T09:53:16Z</time>
      </trkpt>
      <trkpt lat="45.568629" lon="6.749953">
        <ele>1061.121</ele>
        <time>2018-07-16T09:53:25Z</time>
      </trkpt>
      <trkpt lat="45.568613" lon="6.750016">
        <ele>1063.565</ele>
        <time>2018-07-16T09:53:34Z</time>
      </trkpt>
      <trkpt lat="45.568591" lon="6.750072">
        <ele>1065.430</ele>
        <time>2018-07-16T09:53:42Z</time>
      </trkpt>
      <trkpt lat="45.568563" lon="6.750130">
        <ele>1067.329</ele>
        <time>2018-07-16T09:53:50Z</time>
      </trkpt>
      <trkpt lat="45.568539" lon="6.750193">
        <ele>1070.021</ele>
        <time>2018-07-16T09:53:58Z</time>
      </trkpt>
      <trkpt lat="45.568520" lon="6.750255">
        <ele>1071.259</ele>
        <time>2018-07-16T09:54:06Z</time>
      </trkpt>
      <trkpt lat="45.568521" lon="6.750321">
        <ele>1072.703</ele>
        <time>2018-07-16T09:54:14Z</time>
      </trkpt>
      <trkpt lat="45.568518" lon="6.750392">
        <ele>1072.823</ele>
        <time>2018-07-16T09:54:22Z</time>
      </trkpt>
      <trkpt lat="45.568536" lon="6.750456">
        <ele>1072.108</ele>
        <time>2018-07-16T09:54:30Z</time>
      </trkpt>
      <trkpt lat="45.568557" lon="6.750514">
        <ele>1072.197</ele>
        <time>2018-07-16T09:54:40Z</time>
      </trkpt>
      <trkpt lat="45.568561" lon="6.750580">
        <ele>1071.321</ele>
        <time>2018-07-16T09:54:46Z</time>
      </trkpt>
      <trkpt lat="45.568588" lon="6.750645">
        <ele>1072.063</ele>
        <time>2018-07-16T09:54:52Z</time>
      </trkpt>
      <trkpt lat="45.568599" lon="6.750715">
        <ele>1072.458</ele>
        <time>2018-07-16T09:54:59Z</time>
      </trkpt>
      <trkpt lat="45.568614" lon="6.750777">
        <ele>1072.342</ele>
        <time>2018-07-16T09:55:07Z</time>
      </trkpt>
      <trkpt lat="45.568613" lon="6.750844">
        <ele>1072.627</ele>
        <time>2018-07-16T09:55:13Z</time>
      </trkpt>
      <trkpt lat="45.568604" lon="6.750908">
        <ele>1072.476</ele>
        <time>2018-07-16T09:55:20Z</time>
      </trkpt>
      <trkpt lat="45.568604" lon="6.750977">
        <ele>1072.738</ele>
        <time>2018-07-16T09:55:26Z</time>
      </trkpt>
      <trkpt lat="45.568587" lon="6.751043">
        <ele>1072.159</ele>
        <time>2018-07-16T09:55:44Z</time>
      </trkpt>
      <trkpt lat="45.568576" lon="6.751117">
        <ele>1071.703</ele>
        <time>2018-07-16T09:55:51Z</time>
      </trkpt>
      <trkpt lat="45.568562" lon="6.751183">
        <ele>1071.523</ele>
        <time>2018-07-16T09:55:57Z</time>
      </trkpt>
      <trkpt lat="45.568569" lon="6.751253">
        <ele>1071.408</ele>
        <time>2018-07-16T09:56:05Z</time>
      </trkpt>
      <trkpt lat="45.568567" lon="6.751322">
        <ele>1071.317</ele>
        <time>2018-07-16T09:56:13Z</time>
      </trkpt>
      <trkpt lat="45.568565" lon="6.751391">
        <ele>1072.561</ele>
        <time>2018-07-16T09:56:20Z</time>
      </trkpt>
      <trkpt lat="45.568569" lon="6.751459">
        <ele>1074.073</ele>
        <time>2018-07-16T09:56:27Z</time>
      </trkpt>
      <trkpt lat="45.568579" lon="6.751531">
        <ele>1075.398</ele>
        <time>2018-07-16T09:56:34Z</time>
      </trkpt>
      <trkpt lat="45.568581" lon="6.751599">
        <ele>1077.712</ele>
        <time>2018-07-16T09:56:41Z</time>
      </trkpt>
      <trkpt lat="45.568601" lon="6.751663">
        <ele>1080.347</ele>
        <time>2018-07-16T09:56:49Z</time>
      </trkpt>
      <trkpt lat="45.568585" lon="6.751731">
        <ele>1081.926</ele>
        <time>2018-07-16T09:56:56Z</time>
      </trkpt>
      <trkpt lat="45.568557" lon="6.751789">
        <ele>1082.888</ele>
        <time>2018-07-16T09:57:02Z</time>
      </trkpt>
      <trkpt lat="45.568548" lon="6.751854">
        <ele>1084.641</ele>
        <time>2018-07-16T09:57:09Z</time>
      </trkpt>
      <trkpt lat="45.568531" lon="6.751922">
        <ele>1086.981</ele>
        <time>2018-07-16T09:57:16Z</time>
      </trkpt>
      <trkpt lat="45.568515" lon="6.751984">
        <ele>1088.709</ele>
        <time>2018-07-16T09:57:24Z</time>
      </trkpt>
      <trkpt lat="45.568492" lon="6.752041">
        <ele>1090.208</ele>
        <time>2018-07-16T09:57:32Z</time>
      </trkpt>
      <trkpt lat="45.568458" lon="6.752084">
        <ele>1090.796</ele>
        <time>2018-07-16T09:57:40Z</time>
      </trkpt>
      <trkpt lat="45.568447" lon="6.752154">
        <ele>1091.060</ele>
        <time>2018-07-16T09:57:49Z</time>
      </trkpt>
      <trkpt lat="45.568441" lon="6.752225">
        <ele>1091.622</ele>
        <time>2018-07-16T09:57:57Z</time>
      </trkpt>
      <trkpt lat="45.568421" lon="6.752287">
        <ele>1093.177</ele>
        <time>2018-07-16T09:58:07Z</time>
      </trkpt>
      <trkpt lat="45.568415" lon="6.752355">
        <ele>1094.071</ele>
        <time>2018-07-16T09:58:19Z</time>
      </trkpt>
      <trkpt lat="45.568375" lon="6.752386">
        <ele>1094.276</ele>
        <time>2018-07-16T09:58:52Z</time>
      </trkpt>
      <trkpt lat="45.568386" lon="6.752449">
        <ele>1095.125</ele>
        <time>2018-07-16T09:59:08Z</time>
      </trkpt>
      <trkpt lat="45.568404" lon="6.752514">
        <ele>1096.867</ele>
        <time>2018-07-16T09:59:21Z</time>
      </trkpt>
      <trkpt lat="45.568412" lon="6.752577">
        <ele>1099.048</ele>
        <time>2018-07-16T10:00:19Z</time>
      </trkpt>
      <trkpt lat="45.568423" lon="6.752645">
        <ele>1101.161</ele>
        <time>2018-07-16T10:00:28Z</time>
      </trkpt>
      <trkpt lat="45.568431" lon="6.752710">
        <ele>1102.817</ele>
        <time>2018-07-16T10:00:36Z</time>
      </trkpt>
      <trkpt lat="45.568438" lon="6.752775">
        <ele>1103.808</ele>
        <time>2018-07-16T10:00:47Z</time>
      </trkpt>
      <trkpt lat="45.568465" lon="6.752830">
        <ele>1105.286</ele>
        <time>2018-07-16T10:00:59Z</time>
      </trkpt>
      <trkpt lat="45.568440" lon="6.752921">
        <ele>1105.230</ele>
        <time>2018-07-16T10:07:24Z</time>
      </trkpt>
      <trkpt lat="45.568465" lon="6.752977">
        <ele>1120.862</ele>
        <time>2018-07-16T10:07:32Z</time>
      </trkpt>
      <trkpt lat="45.568480" lon="6.753038">
        <ele>1136.027</ele>
        <time>2018-07-16T10:07:42Z</time>
      </trkpt>
      <trkpt lat="45.568482" lon="6.753110">
        <ele>1152.971</ele>
        <time>2018-07-16T10:08:02Z</time>
      </trkpt>
      <trkpt lat="45.568483" lon="6.753177">
        <ele>1166.886</ele>
        <time>2018-07-16T10:08:10Z</time>
      </trkpt>
      <trkpt lat="45.568474" lon="6.753255">
        <ele>1168.885</ele>
        <time>2018-07-16T10:08:23Z</time>
      </trkpt>
      <trkpt lat="45.568431" lon="6.753297">
        <ele>1169.637</ele>
        <time>2018-07-16T10:08:36Z</time>
      </trkpt>
      <trkpt lat="45.568398" lon="6.753350">
        <ele>1170.165</ele>
        <time>2018-07-16T10:08:49Z</time>
      </trkpt>
      <trkpt lat="45.568362" lon="6.753395">
        <ele>1170.468</ele>
        <time>2018-07-16T10:08:55Z</time>
      </trkpt>
      <trkpt lat="45.568331" lon="6.753451">
        <ele>1170.214</ele>
        <time>2018-07-16T10:09:01Z</time>
      </trkpt>
      <trkpt lat="45.568326" lon="6.753527">
        <ele>1170.908</ele>
        <time>2018-07-16T10:09:09Z</time>
      </trkpt>
      <trkpt lat="45.568323" lon="6.753594">
        <ele>1172.598</ele>
        <time>2018-07-16T10:09:14Z</time>
      </trkpt>
      <trkpt lat="45.568321" lon="6.753665">
        <ele>1173.132</ele>
        <time>2018-07-16T10:09:23Z</time>
      </trkpt>
      <trkpt lat="45.568290" lon="6.753712">
        <ele>1171.414</ele>
        <time>2018-07-16T10:09:26Z</time>
      </trkpt>
      <trkpt lat="45.568325" lon="6.753758">
        <ele>1172.849</ele>
        <time>2018-07-16T10:09:39Z</time>
      </trkpt>
      <trkpt lat="45.568370" lon="6.753746">
        <ele>1175.673</ele>
        <time>2018-07-16T10:09:58Z</time>
      </trkpt>
      <trkpt lat="45.568417" lon="6.753752">
        <ele>1177.718</ele>
        <time>2018-07-16T10:10:08Z</time>
      </trkpt>
      <trkpt lat="45.568457" lon="6.753781">
        <ele>1179.057</ele>
        <time>2018-07-16T10:10:13Z</time>
      </trkpt>
      <trkpt lat="45.568502" lon="6.753814">
        <ele>1180.269</ele>
        <time>2018-07-16T10:10:21Z</time>
      </trkpt>
      <trkpt lat="45.568529" lon="6.753866">
        <ele>1181.337</ele>
        <time>2018-07-16T10:10:34Z</time>
      </trkpt>
      <trkpt lat="45.568572" lon="6.753888">
        <ele>1183.649</ele>
        <time>2018-07-16T10:10:52Z</time>
      </trkpt>
      <trkpt lat="45.568596" lon="6.753944">
        <ele>1185.813</ele>
        <time>2018-07-16T10:11:05Z</time>
      </trkpt>
      <trkpt lat="45.568620" lon="6.754002">
        <ele>1187.908</ele>
        <time>2018-07-16T10:11:18Z</time>
      </trkpt>
      <trkpt lat="45.568618" lon="6.754067">
        <ele>1190.025</ele>
        <time>2018-07-16T10:11:29Z</time>
      </trkpt>
      <trkpt lat="45.568635" lon="6.754130">
        <ele>1192.029</ele>
        <time>2018-07-16T10:11:39Z</time>
      </trkpt>
      <trkpt lat="45.568665" lon="6.754179">
        <ele>1194.021</ele>
        <time>2018-07-16T10:11:48Z</time>
      </trkpt>
      <trkpt lat="45.568702" lon="6.754218">
        <ele>1195.636</ele>
        <time>2018-07-16T10:11:57Z</time>
      </trkpt>
      <trkpt lat="45.568672" lon="6.754270">
        <ele>1194.690</ele>
        <time>2018-07-16T10:12:10Z</time>
      </trkpt>
      <trkpt lat="45.568634" lon="6.754319">
        <ele>1195.285</ele>
        <time>2018-07-16T10:12:20Z</time>
      </trkpt>
      <trkpt lat="45.568587" lon="6.754355">
        <ele>1195.524</ele>
        <time>2018-07-16T10:12:27Z</time>
      </trkpt>
      <trkpt lat="45.568542" lon="6.754379">
        <ele>1195.756</ele>
        <time>2018-07-16T10:12:34Z</time>
      </trkpt>
      <trkpt lat="45.568496" lon="6.754397">
        <ele>1196.236</ele>
        <time>2018-07-16T10:12:39Z</time>
      </trkpt>
      <trkpt lat="45.568445" lon="6.754432">
        <ele>1196.117</ele>
        <time>2018-07-16T10:12:44Z</time>
      </trkpt>
      <trkpt lat="45.568414" lon="6.754484">
        <ele>1196.018</ele>
        <time>2018-07-16T10:12:49Z</time>
      </trkpt>
      <trkpt lat="45.568395" lon="6.754549">
        <ele>1196.008</ele>
        <time>2018-07-16T10:12:55Z</time>
      </trkpt>
      <trkpt lat="45.568413" lon="6.754611">
        <ele>1196.025</ele>
        <time>2018-07-16T10:13:18Z</time>
      </trkpt>
      <trkpt lat="45.568418" lon="6.754685">
        <ele>1196.099</ele>
        <time>2018-07-16T10:13:25Z</time>
      </trkpt>
      <trkpt lat="45.568404" lon="6.754755">
        <ele>1196.491</ele>
        <time>2018-07-16T10:13:33Z</time>
      </trkpt>
      <trkpt lat="45.568386" lon="6.754819">
        <ele>1197.056</ele>
        <time>2018-07-16T10:13:41Z</time>
      </trkpt>
      <trkpt lat="45.568374" lon="6.754885">
        <ele>1197.450</ele>
        <time>2018-07-16T10:13:49Z</time>
      </trkpt>
      <trkpt lat="45.568377" lon="6.754950">
        <ele>1198.085</ele>
        <time>2018-07-16T10:13:57Z</time>
      </trkpt>
      <trkpt lat="45.568367" lon="6.755013">
        <ele>1197.694</ele>
        <time>2018-07-16T10:14:03Z</time>
      </trkpt>
      <trkpt lat="45.568357" lon="6.755076">
        <ele>1196.916</ele>
        <time>2018-07-16T10:14:08Z</time>
      </trkpt>
      <trkpt lat="45.568346" lon="6.755145">
        <ele>1196.168</ele>
        <time>2018-07-16T10:14:15Z</time>
      </trkpt>
      <trkpt lat="45.568340" lon="6.755217">
        <ele>1196.442</ele>
        <time>2018-07-16T10:14:22Z</time>
      </trkpt>
      <trkpt lat="45.568323" lon="6.755289">
        <ele>1196.626</ele>
        <time>2018-07-16T10:14:28Z</time>
      </trkpt>
      <trkpt lat="45.568300" lon="6.755346">
        <ele>1196.308</ele>
        <time>2018-07-16T10:14:33Z</time>
      </trkpt>
      <trkpt lat="45.568280" lon="6.755414">
        <ele>1196.928</ele>
        <time>2018-07-16T10:14:39Z</time>
      </trkpt>
      <trkpt lat="45.568264" lon="6.755475">
        <ele>1199.312</ele>
        <time>2018-07-16T10:14:45Z</time>
      </trkpt>
      <trkpt lat="45.568253" lon="6.755545">
        <ele>1200.334</ele>
        <time>2018-07-16T10:14:53Z</time>
      </trkpt>
      <trkpt lat="45.568240" lon="6.755607">
        <ele>1200.979</ele>
        <time>2018-07-16T10:15:00Z</time>
      </trkpt>
      <trkpt lat="45.568213" lon="6.755665">
        <ele>1201.383</ele>
        <time>2018-07-16T10:15:07Z</time>
      </trkpt>
      <trkpt lat="45.568183" lon="6.755729">
        <ele>1201.978</ele>
        <time>2018-07-16T10:15:16Z</time>
      </trkpt>
      <trkpt lat="45.568145" lon="6.755766">
        <ele>1203.117</ele>
        <time>2018-07-16T10:15:24Z</time>
      </trkpt>
      <trkpt lat="45.568107" lon="6.755814">
        <ele>1204.289</ele>
        <time>2018-07-16T10:16:26Z</time>
      </trkpt>
      <trkpt lat="45.568052" lon="6.755840">
        <ele>1204.553</ele>
        <time>2018-07-16T10:16:32Z</time>
      </trkpt>
      <trkpt lat="45.568009" lon="6.755867">
        <ele>1204.704</ele>
        <time>2018-07-16T10:16:39Z</time>
      </trkpt>
      <trkpt lat="45.567967" lon="6.755915">
        <ele>1205.614</ele>
        <time>2018-07-16T10:16:44Z</time>
      </trkpt>
      <trkpt lat="45.567921" lon="6.755972">
        <ele>1207.308</ele>
        <time>2018-07-16T10:16:52Z</time>
      </trkpt>
      <trkpt lat="45.567877" lon="6.756007">
        <ele>1208.387</ele>
        <time>2018-07-16T10:16:59Z</time>
      </trkpt>
      <trkpt lat="45.567827" lon="6.756029">
        <ele>1210.981</ele>
        <time>2018-07-16T10:17:11Z</time>
      </trkpt>
      <trkpt lat="45.567785" lon="6.756066">
        <ele>1211.333</ele>
        <time>2018-07-16T10:17:16Z</time>
      </trkpt>
      <trkpt lat="45.567750" lon="6.756124">
        <ele>1211.048</ele>
        <time>2018-07-16T10:17:19Z</time>
      </trkpt>
      <trkpt lat="45.567750" lon="6.756124">
        <ele>1211.092</ele>
        <time>2018-07-16T10:17:19Z</time>
      </trkpt>
      <trkpt lat="45.567667" lon="6.756139">
        <ele>1212.527</ele>
        <time>2018-07-16T10:17:39Z</time>
      </trkpt>
      <trkpt lat="45.567621" lon="6.756175">
        <ele>1213.416</ele>
        <time>2018-07-16T10:17:44Z</time>
      </trkpt>
      <trkpt lat="45.567581" lon="6.756224">
        <ele>1214.888</ele>
        <time>2018-07-16T10:17:49Z</time>
      </trkpt>
      <trkpt lat="45.567568" lon="6.756296">
        <ele>1217.223</ele>
        <time>2018-07-16T10:17:56Z</time>
      </trkpt>
      <trkpt lat="45.567543" lon="6.756366">
        <ele>1219.483</ele>
        <time>2018-07-16T10:18:03Z</time>
      </trkpt>
      <trkpt lat="45.567518" lon="6.756430">
        <ele>1219.511</ele>
        <time>2018-07-16T10:18:10Z</time>
      </trkpt>
      <trkpt lat="45.567563" lon="6.756459">
        <ele>1219.108</ele>
        <time>2018-07-16T10:19:44Z</time>
      </trkpt>
      <trkpt lat="45.567522" lon="6.756488">
        <ele>1220.464</ele>
        <time>2018-07-16T10:19:56Z</time>
      </trkpt>
      <trkpt lat="45.567492" lon="6.756538">
        <ele>1221.438</ele>
        <time>2018-07-16T10:20:03Z</time>
      </trkpt>
      <trkpt lat="45.567471" lon="6.756597">
        <ele>1222.410</ele>
        <time>2018-07-16T10:20:09Z</time>
      </trkpt>
      <trkpt lat="45.567425" lon="6.756664">
        <ele>1221.845</ele>
        <time>2018-07-16T10:20:19Z</time>
      </trkpt>
      <trkpt lat="45.567409" lon="6.756729">
        <ele>1224.239</ele>
        <time>2018-07-16T10:20:26Z</time>
      </trkpt>
      <trkpt lat="45.567415" lon="6.756803">
        <ele>1224.934</ele>
        <time>2018-07-16T10:20:33Z</time>
      </trkpt>
      <trkpt lat="45.567378" lon="6.756841">
        <ele>1226.133</ele>
        <time>2018-07-16T10:20:42Z</time>
      </trkpt>
      <trkpt lat="45.567370" lon="6.756904">
        <ele>1225.245</ele>
        <time>2018-07-16T10:20:59Z</time>
      </trkpt>
      <trkpt lat="45.567281" lon="6.756939">
        <ele>1225.963</ele>
        <time>2018-07-16T10:21:24Z</time>
      </trkpt>
      <trkpt lat="45.567242" lon="6.756974">
        <ele>1227.944</ele>
        <time>2018-07-16T10:21:31Z</time>
      </trkpt>
      <trkpt lat="45.567193" lon="6.756970">
        <ele>1229.918</ele>
        <time>2018-07-16T10:21:35Z</time>
      </trkpt>
      <trkpt lat="45.567118" lon="6.756975">
        <ele>1233.508</ele>
        <time>2018-07-16T10:21:57Z</time>
      </trkpt>
      <trkpt lat="45.567046" lon="6.756978">
        <ele>1235.778</ele>
        <time>2018-07-16T10:22:08Z</time>
      </trkpt>
      <trkpt lat="45.566998" lon="6.756993">
        <ele>1235.032</ele>
        <time>2018-07-16T10:22:13Z</time>
      </trkpt>
      <trkpt lat="45.566916" lon="6.757012">
        <ele>1233.874</ele>
        <time>2018-07-16T10:22:17Z</time>
      </trkpt>
      <trkpt lat="45.566858" lon="6.757021">
        <ele>1233.539</ele>
        <time>2018-07-16T10:22:20Z</time>
      </trkpt>
      <trkpt lat="45.566789" lon="6.757029">
        <ele>1233.713</ele>
        <time>2018-07-16T10:22:27Z</time>
      </trkpt>
      <trkpt lat="45.566741" lon="6.757022">
        <ele>1233.828</ele>
        <time>2018-07-16T10:22:35Z</time>
      </trkpt>
      <trkpt lat="45.566698" lon="6.756999">
        <ele>1235.147</ele>
        <time>2018-07-16T10:22:42Z</time>
      </trkpt>
      <trkpt lat="45.566650" lon="6.756986">
        <ele>1235.599</ele>
        <time>2018-07-16T10:22:50Z</time>
      </trkpt>
      <trkpt lat="45.566601" lon="6.756964">
        <ele>1237.379</ele>
        <time>2018-07-16T10:22:56Z</time>
      </trkpt>
      <trkpt lat="45.566560" lon="6.756932">
        <ele>1239.205</ele>
        <time>2018-07-16T10:23:02Z</time>
      </trkpt>
      <trkpt lat="45.566510" lon="6.756920">
        <ele>1239.525</ele>
        <time>2018-07-16T10:23:06Z</time>
      </trkpt>
      <trkpt lat="45.566460" lon="6.756909">
        <ele>1240.508</ele>
        <time>2018-07-16T10:23:13Z</time>
      </trkpt>
      <trkpt lat="45.566406" lon="6.756899">
        <ele>1241.539</ele>
        <time>2018-07-16T10:23:21Z</time>
      </trkpt>
      <trkpt lat="45.566346" lon="6.756898">
        <ele>1240.913</ele>
        <time>2018-07-16T10:23:29Z</time>
      </trkpt>
      <trkpt lat="45.566298" lon="6.756885">
        <ele>1241.755</ele>
        <time>2018-07-16T10:23:34Z</time>
      </trkpt>
      <trkpt lat="45.566261" lon="6.756847">
        <ele>1245.480</ele>
        <time>2018-07-16T10:23:55Z</time>
      </trkpt>
      <trkpt lat="45.566213" lon="6.756847">
        <ele>1248.034</ele>
        <time>2018-07-16T10:24:06Z</time>
      </trkpt>
      <trkpt lat="45.566166" lon="6.756849">
        <ele>1250.029</ele>
        <time>2018-07-16T10:24:16Z</time>
      </trkpt>
      <trkpt lat="45.566094" lon="6.756855">
        <ele>1253.678</ele>
        <time>2018-07-16T10:24:26Z</time>
      </trkpt>
      <trkpt lat="45.566065" lon="6.756800">
        <ele>1255.070</ele>
        <time>2018-07-16T10:25:37Z</time>
      </trkpt>
      <trkpt lat="45.566017" lon="6.756793">
        <ele>1255.033</ele>
        <time>2018-07-16T10:25:43Z</time>
      </trkpt>
      <trkpt lat="45.565975" lon="6.756825">
        <ele>1254.623</ele>
        <time>2018-07-16T10:25:55Z</time>
      </trkpt>
      <trkpt lat="45.565924" lon="6.756845">
        <ele>1256.015</ele>
        <time>2018-07-16T10:26:07Z</time>
      </trkpt>
      <trkpt lat="45.565874" lon="6.756853">
        <ele>1257.208</ele>
        <time>2018-07-16T10:26:18Z</time>
      </trkpt>
      <trkpt lat="45.565826" lon="6.756859">
        <ele>1258.335</ele>
        <time>2018-07-16T10:26:32Z</time>
      </trkpt>
      <trkpt lat="45.565778" lon="6.756861">
        <ele>1258.679</ele>
        <time>2018-07-16T10:26:42Z</time>
      </trkpt>
      <trkpt lat="45.565699" lon="6.756856">
        <ele>1260.071</ele>
        <time>2018-07-16T10:26:53Z</time>
      </trkpt>
      <trkpt lat="45.565630" lon="6.756863">
        <ele>1262.086</ele>
        <time>2018-07-16T10:27:05Z</time>
      </trkpt>
      <trkpt lat="45.565583" lon="6.756904">
        <ele>1263.630</ele>
        <time>2018-07-16T10:27:21Z</time>
      </trkpt>
      <trkpt lat="45.565523" lon="6.756928">
        <ele>1263.875</ele>
        <time>2018-07-16T10:27:30Z</time>
      </trkpt>
      <trkpt lat="45.565474" lon="6.756930">
        <ele>1265.554</ele>
        <time>2018-07-16T10:27:41Z</time>
      </trkpt>
      <trkpt lat="45.565422" lon="6.756946">
        <ele>1267.356</ele>
        <time>2018-07-16T10:27:50Z</time>
      </trkpt>
      <trkpt lat="45.565375" lon="6.756962">
        <ele>1270.022</ele>
        <time>2018-07-16T10:27:56Z</time>
      </trkpt>
      <trkpt lat="45.565337" lon="6.756997">
        <ele>1272.862</ele>
        <time>2018-07-16T10:28:14Z</time>
      </trkpt>
      <trkpt lat="45.565293" lon="6.757014">
        <ele>1273.708</ele>
        <time>2018-07-16T10:28:18Z</time>
      </trkpt>
      <trkpt lat="45.565242" lon="6.757079">
        <ele>1274.208</ele>
        <time>2018-07-16T10:28:39Z</time>
      </trkpt>
      <trkpt lat="45.565196" lon="6.757111">
        <ele>1276.124</ele>
        <time>2018-07-16T10:29:04Z</time>
      </trkpt>
      <trkpt lat="45.565145" lon="6.757142">
        <ele>1278.198</ele>
        <time>2018-07-16T10:29:12Z</time>
      </trkpt>
      <trkpt lat="45.565098" lon="6.757166">
        <ele>1278.110</ele>
        <time>2018-07-16T10:29:19Z</time>
      </trkpt>
      <trkpt lat="45.565011" lon="6.757231">
        <ele>1277.765</ele>
        <time>2018-07-16T10:29:32Z</time>
      </trkpt>
      <trkpt lat="45.564940" lon="6.757264">
        <ele>1278.679</ele>
        <time>2018-07-16T10:29:38Z</time>
      </trkpt>
      <trkpt lat="45.564902" lon="6.757311">
        <ele>1279.254</ele>
        <time>2018-07-16T10:29:45Z</time>
      </trkpt>
      <trkpt lat="45.564773" lon="6.757354">
        <ele>1279.973</ele>
        <time>2018-07-16T10:30:05Z</time>
      </trkpt>
      <trkpt lat="45.564683" lon="6.757368">
        <ele>1277.565</ele>
        <time>2018-07-16T10:30:11Z</time>
      </trkpt>
      <trkpt lat="45.564586" lon="6.757398">
        <ele>1274.963</ele>
        <time>2018-07-16T10:30:19Z</time>
      </trkpt>
      <trkpt lat="45.564494" lon="6.757416">
        <ele>1271.344</ele>
        <time>2018-07-16T10:30:25Z</time>
      </trkpt>
      <trkpt lat="45.564422" lon="6.757444">
        <ele>1268.418</ele>
        <time>2018-07-16T10:30:31Z</time>
      </trkpt>
      <trkpt lat="45.564365" lon="6.757473">
        <ele>1265.408</ele>
        <time>2018-07-16T10:30:35Z</time>
      </trkpt>
      <trkpt lat="45.564259" lon="6.757537">
        <ele>1266.038</ele>
        <time>2018-07-16T10:30:48Z</time>
      </trkpt>
      <trkpt lat="45.564207" lon="6.757522">
        <ele>1270.052</ele>
        <time>2018-07-16T10:31:02Z</time>
      </trkpt>
      <trkpt lat="45.564118" lon="6.757518">
        <ele>1274.014</ele>
        <time>2018-07-16T10:31:20Z</time>
      </trkpt>
      <trkpt lat="45.564071" lon="6.757518">
        <ele>1278.059</ele>
        <time>2018-07-16T10:31:33Z</time>
      </trkpt>
      <trkpt lat="45.564028" lon="6.757469">
        <ele>1282.033</ele>
        <time>2018-07-16T10:31:39Z</time>
      </trkpt>
      <trkpt lat="45.563957" lon="6.757413">
        <ele>1296.048</ele>
        <time>2018-07-16T10:32:49Z</time>
      </trkpt>
      <trkpt lat="45.563910" lon="6.757391">
        <ele>1300.037</ele>
        <time>2018-07-16T10:33:04Z</time>
      </trkpt>
      <trkpt lat="45.563873" lon="6.757338">
        <ele>1299.669</ele>
        <time>2018-07-16T10:33:33Z</time>
      </trkpt>
      <trkpt lat="45.563820" lon="6.757285">
        <ele>1302.297</ele>
        <time>2018-07-16T10:33:51Z</time>
      </trkpt>
      <trkpt lat="45.563755" lon="6.757262">
        <ele>1305.323</ele>
        <time>2018-07-16T10:34:07Z</time>
      </trkpt>
      <trkpt lat="45.563707" lon="6.757269">
        <ele>1308.025</ele>
        <time>2018-07-16T10:34:19Z</time>
      </trkpt>
      <trkpt lat="45.563677" lon="6.757319">
        <ele>1310.808</ele>
        <time>2018-07-16T10:34:42Z</time>
      </trkpt>
      <trkpt lat="45.563647" lon="6.757371">
        <ele>1311.351</ele>
        <time>2018-07-16T10:34:49Z</time>
      </trkpt>
      <trkpt lat="45.563575" lon="6.757386">
        <ele>1312.845</ele>
        <time>2018-07-16T10:35:11Z</time>
      </trkpt>
      <trkpt lat="45.563525" lon="6.757411">
        <ele>1315.717</ele>
        <time>2018-07-16T10:35:25Z</time>
      </trkpt>
      <trkpt lat="45.563483" lon="6.757456">
        <ele>1317.862</ele>
        <time>2018-07-16T10:35:38Z</time>
      </trkpt>
      <trkpt lat="45.563443" lon="6.757506">
        <ele>1318.766</ele>
        <time>2018-07-16T10:35:48Z</time>
      </trkpt>
      <trkpt lat="45.563411" lon="6.757580">
        <ele>1318.031</ele>
        <time>2018-07-16T10:35:58Z</time>
      </trkpt>
      <trkpt lat="45.563375" lon="6.757633">
        <ele>1318.820</ele>
        <time>2018-07-16T10:36:23Z</time>
      </trkpt>
      <trkpt lat="45.563294" lon="6.757659">
        <ele>1318.192</ele>
        <time>2018-07-16T10:36:30Z</time>
      </trkpt>
      <trkpt lat="45.563236" lon="6.757682">
        <ele>1317.755</ele>
        <time>2018-07-16T10:36:40Z</time>
      </trkpt>
      <trkpt lat="45.563189" lon="6.757697">
        <ele>1317.807</ele>
        <time>2018-07-16T10:36:44Z</time>
      </trkpt>
      <trkpt lat="45.563139" lon="6.757715">
        <ele>1317.117</ele>
        <time>2018-07-16T10:36:48Z</time>
      </trkpt>
      <trkpt lat="45.563092" lon="6.757753">
        <ele>1316.708</ele>
        <time>2018-07-16T10:36:56Z</time>
      </trkpt>
      <trkpt lat="45.563091" lon="6.757819">
        <ele>1318.037</ele>
        <time>2018-07-16T10:37:10Z</time>
      </trkpt>
      <trkpt lat="45.563042" lon="6.757889">
        <ele>1320.421</ele>
        <time>2018-07-16T10:37:24Z</time>
      </trkpt>
      <trkpt lat="45.562996" lon="6.757914">
        <ele>1320.683</ele>
        <time>2018-07-16T10:37:32Z</time>
      </trkpt>
      <trkpt lat="45.562950" lon="6.757913">
        <ele>1320.328</ele>
        <time>2018-07-16T10:37:36Z</time>
      </trkpt>
      <trkpt lat="45.562888" lon="6.757989">
        <ele>1320.132</ele>
        <time>2018-07-16T10:38:08Z</time>
      </trkpt>
      <trkpt lat="45.562825" lon="6.758045">
        <ele>1322.457</ele>
        <time>2018-07-16T10:38:32Z</time>
      </trkpt>
      <trkpt lat="45.562777" lon="6.758070">
        <ele>1321.896</ele>
        <time>2018-07-16T10:38:43Z</time>
      </trkpt>
      <trkpt lat="45.562712" lon="6.758100">
        <ele>1322.678</ele>
        <time>2018-07-16T10:38:49Z</time>
      </trkpt>
      <trkpt lat="45.562675" lon="6.758060">
        <ele>1325.122</ele>
        <time>2018-07-16T10:38:57Z</time>
      </trkpt>
      <trkpt lat="45.562645" lon="6.758012">
        <ele>1327.462</ele>
        <time>2018-07-16T10:39:08Z</time>
      </trkpt>
      <trkpt lat="45.562597" lon="6.757993">
        <ele>1331.408</ele>
        <time>2018-07-16T10:39:21Z</time>
      </trkpt>
      <trkpt lat="45.562552" lon="6.757976">
        <ele>1335.408</ele>
        <time>2018-07-16T10:39:34Z</time>
      </trkpt>
      <trkpt lat="45.562496" lon="6.757964">
        <ele>1337.674</ele>
        <time>2018-07-16T10:39:52Z</time>
      </trkpt>
      <trkpt lat="45.562444" lon="6.757968">
        <ele>1339.318</ele>
        <time>2018-07-16T10:40:05Z</time>
      </trkpt>
      <trkpt lat="45.562368" lon="6.757939">
        <ele>1341.520</ele>
        <time>2018-07-16T10:40:21Z</time>
      </trkpt>
      <trkpt lat="45.562313" lon="6.757925">
        <ele>1345.255</ele>
        <time>2018-07-16T10:40:31Z</time>
      </trkpt>
      <trkpt lat="45.562283" lon="6.757983">
        <ele>1348.239</ele>
        <time>2018-07-16T10:40:53Z</time>
      </trkpt>
      <trkpt lat="45.562236" lon="6.758001">
        <ele>1348.834</ele>
        <time>2018-07-16T10:41:05Z</time>
      </trkpt>
      <trkpt lat="45.562193" lon="6.757978">
        <ele>1348.883</ele>
        <time>2018-07-16T10:41:10Z</time>
      </trkpt>
      <trkpt lat="45.562147" lon="6.757951">
        <ele>1350.865</ele>
        <time>2018-07-16T10:41:15Z</time>
      </trkpt>
      <trkpt lat="45.562105" lon="6.757906">
        <ele>1352.447</ele>
        <time>2018-07-16T10:41:20Z</time>
      </trkpt>
      <trkpt lat="45.562071" lon="6.757861">
        <ele>1353.829</ele>
        <time>2018-07-16T10:41:25Z</time>
      </trkpt>
      <trkpt lat="45.562030" lon="6.757815">
        <ele>1354.621</ele>
        <time>2018-07-16T10:41:30Z</time>
      </trkpt>
      <trkpt lat="45.561989" lon="6.757773">
        <ele>1355.508</ele>
        <time>2018-07-16T10:41:35Z</time>
      </trkpt>
      <trkpt lat="45.561949" lon="6.757739">
        <ele>1355.286</ele>
        <time>2018-07-16T10:41:41Z</time>
      </trkpt>
      <trkpt lat="45.561898" lon="6.757709">
        <ele>1355.840</ele>
        <time>2018-07-16T10:41:47Z</time>
      </trkpt>
      <trkpt lat="45.561848" lon="6.757695">
        <ele>1356.252</ele>
        <time>2018-07-16T10:41:52Z</time>
      </trkpt>
      <trkpt lat="45.561801" lon="6.757696">
        <ele>1354.437</ele>
        <time>2018-07-16T10:42:00Z</time>
      </trkpt>
      <trkpt lat="45.561754" lon="6.757687">
        <ele>1354.161</ele>
        <time>2018-07-16T10:42:05Z</time>
      </trkpt>
      <trkpt lat="45.561702" lon="6.757669">
        <ele>1353.156</ele>
        <time>2018-07-16T10:42:10Z</time>
      </trkpt>
      <trkpt lat="45.561651" lon="6.757632">
        <ele>1352.555</ele>
        <time>2018-07-16T10:42:15Z</time>
      </trkpt>
      <trkpt lat="45.561605" lon="6.757595">
        <ele>1352.237</ele>
        <time>2018-07-16T10:42:18Z</time>
      </trkpt>
      <trkpt lat="45.561582" lon="6.757538">
        <ele>1351.686</ele>
        <time>2018-07-16T10:42:22Z</time>
      </trkpt>
      <trkpt lat="45.561584" lon="6.757464">
        <ele>1351.260</ele>
        <time>2018-07-16T10:42:27Z</time>
      </trkpt>
      <trkpt lat="45.561599" lon="6.757400">
        <ele>1350.626</ele>
        <time>2018-07-16T10:42:32Z</time>
      </trkpt>
      <trkpt lat="45.561602" lon="6.757324">
        <ele>1350.208</ele>
        <time>2018-07-16T10:42:38Z</time>
      </trkpt>
      <trkpt lat="45.561594" lon="6.757259">
        <ele>1349.660</ele>
        <time>2018-07-16T10:42:42Z</time>
      </trkpt>
      <trkpt lat="45.561584" lon="6.757196">
        <ele>1348.034</ele>
        <time>2018-07-16T10:42:46Z</time>
      </trkpt>
      <trkpt lat="45.561562" lon="6.757121">
        <ele>1346.766</ele>
        <time>2018-07-16T10:42:51Z</time>
      </trkpt>
      <trkpt lat="45.561546" lon="6.757060">
        <ele>1345.931</ele>
        <time>2018-07-16T10:42:55Z</time>
      </trkpt>
      <trkpt lat="45.561529" lon="6.756994">
        <ele>1344.665</ele>
        <time>2018-07-16T10:43:00Z</time>
      </trkpt>
      <trkpt lat="45.561540" lon="6.756931">
        <ele>1344.610</ele>
        <time>2018-07-16T10:43:06Z</time>
      </trkpt>
      <trkpt lat="45.561566" lon="6.756874">
        <ele>1345.479</ele>
        <time>2018-07-16T10:43:11Z</time>
      </trkpt>
      <trkpt lat="45.561589" lon="6.756811">
        <ele>1347.181</ele>
        <time>2018-07-16T10:43:17Z</time>
      </trkpt>
      <trkpt lat="45.561626" lon="6.756771">
        <ele>1346.986</ele>
        <time>2018-07-16T10:43:23Z</time>
      </trkpt>
      <trkpt lat="45.561621" lon="6.756698">
        <ele>1347.260</ele>
        <time>2018-07-16T10:43:30Z</time>
      </trkpt>
      <trkpt lat="45.561597" lon="6.756638">
        <ele>1347.826</ele>
        <time>2018-07-16T10:43:35Z</time>
      </trkpt>
      <trkpt lat="45.561565" lon="6.756588">
        <ele>1348.108</ele>
        <time>2018-07-16T10:43:41Z</time>
      </trkpt>
      <trkpt lat="45.561526" lon="6.756541">
        <ele>1347.930</ele>
        <time>2018-07-16T10:43:46Z</time>
      </trkpt>
      <trkpt lat="45.561479" lon="6.756494">
        <ele>1346.674</ele>
        <time>2018-07-16T10:43:51Z</time>
      </trkpt>
      <trkpt lat="45.561442" lon="6.756457">
        <ele>1345.466</ele>
        <time>2018-07-16T10:43:55Z</time>
      </trkpt>
      <trkpt lat="45.561405" lon="6.756408">
        <ele>1344.791</ele>
        <time>2018-07-16T10:44:00Z</time>
      </trkpt>
      <trkpt lat="45.561370" lon="6.756364">
        <ele>1343.965</ele>
        <time>2018-07-16T10:44:04Z</time>
      </trkpt>
      <trkpt lat="45.561329" lon="6.756310">
        <ele>1342.690</ele>
        <time>2018-07-16T10:44:09Z</time>
      </trkpt>
      <trkpt lat="45.561293" lon="6.756264">
        <ele>1342.279</ele>
        <time>2018-07-16T10:44:13Z</time>
      </trkpt>
      <trkpt lat="45.561257" lon="6.756224">
        <ele>1341.631</ele>
        <time>2018-07-16T10:44:17Z</time>
      </trkpt>
      <trkpt lat="45.561223" lon="6.756181">
        <ele>1341.247</ele>
        <time>2018-07-16T10:44:22Z</time>
      </trkpt>
      <trkpt lat="45.561180" lon="6.756140">
        <ele>1341.429</ele>
        <time>2018-07-16T10:44:28Z</time>
      </trkpt>
      <trkpt lat="45.561126" lon="6.756116">
        <ele>1341.121</ele>
        <time>2018-07-16T10:44:32Z</time>
      </trkpt>
      <trkpt lat="45.561067" lon="6.756093">
        <ele>1341.708</ele>
        <time>2018-07-16T10:44:36Z</time>
      </trkpt>
      <trkpt lat="45.561022" lon="6.756066">
        <ele>1342.986</ele>
        <time>2018-07-16T10:44:40Z</time>
      </trkpt>
      <trkpt lat="45.560975" lon="6.756039">
        <ele>1343.640</ele>
        <time>2018-07-16T10:44:45Z</time>
      </trkpt>
      <trkpt lat="45.560923" lon="6.756023">
        <ele>1343.692</ele>
        <time>2018-07-16T10:44:50Z</time>
      </trkpt>
      <trkpt lat="45.560866" lon="6.756017">
        <ele>1343.217</ele>
        <time>2018-07-16T10:44:58Z</time>
      </trkpt>
      <trkpt lat="45.560809" lon="6.756031">
        <ele>1343.471</ele>
        <time>2018-07-16T10:45:04Z</time>
      </trkpt>
      <trkpt lat="45.560755" lon="6.756031">
        <ele>1343.976</ele>
        <time>2018-07-16T10:45:08Z</time>
      </trkpt>
      <trkpt lat="45.560699" lon="6.756045">
        <ele>1345.455</ele>
        <time>2018-07-16T10:45:12Z</time>
      </trkpt>
      <trkpt lat="45.560651" lon="6.756059">
        <ele>1347.517</ele>
        <time>2018-07-16T10:45:15Z</time>
      </trkpt>
      <trkpt lat="45.560597" lon="6.756073">
        <ele>1350.089</ele>
        <time>2018-07-16T10:45:18Z</time>
      </trkpt>
      <trkpt lat="45.560544" lon="6.756068">
        <ele>1352.306</ele>
        <time>2018-07-16T10:45:21Z</time>
      </trkpt>
      <trkpt lat="45.560491" lon="6.756056">
        <ele>1354.526</ele>
        <time>2018-07-16T10:45:24Z</time>
      </trkpt>
      <trkpt lat="45.560440" lon="6.756036">
        <ele>1356.608</ele>
        <time>2018-07-16T10:45:28Z</time>
      </trkpt>
      <trkpt lat="45.560383" lon="6.756024">
        <ele>1358.760</ele>
        <time>2018-07-16T10:45:33Z</time>
      </trkpt>
      <trkpt lat="45.560338" lon="6.756007">
        <ele>1359.954</ele>
        <time>2018-07-16T10:45:38Z</time>
      </trkpt>
      <trkpt lat="45.560288" lon="6.755990">
        <ele>1361.036</ele>
        <time>2018-07-16T10:45:43Z</time>
      </trkpt>
      <trkpt lat="45.560234" lon="6.755986">
        <ele>1363.391</ele>
        <time>2018-07-16T10:45:48Z</time>
      </trkpt>
      <trkpt lat="45.560183" lon="6.755972">
        <ele>1363.945</ele>
        <time>2018-07-16T10:45:53Z</time>
      </trkpt>
      <trkpt lat="45.560131" lon="6.755961">
        <ele>1364.230</ele>
        <time>2018-07-16T10:45:59Z</time>
      </trkpt>
      <trkpt lat="45.560081" lon="6.755944">
        <ele>1363.699</ele>
        <time>2018-07-16T10:46:07Z</time>
      </trkpt>
      <trkpt lat="45.560042" lon="6.755909">
        <ele>1363.611</ele>
        <time>2018-07-16T10:46:12Z</time>
      </trkpt>
      <trkpt lat="45.559997" lon="6.755882">
        <ele>1363.659</ele>
        <time>2018-07-16T10:46:18Z</time>
      </trkpt>
      <trkpt lat="45.559942" lon="6.755862">
        <ele>1364.803</ele>
        <time>2018-07-16T10:46:23Z</time>
      </trkpt>
      <trkpt lat="45.559887" lon="6.755859">
        <ele>1365.123</ele>
        <time>2018-07-16T10:46:28Z</time>
      </trkpt>
      <trkpt lat="45.559837" lon="6.755866">
        <ele>1366.508</ele>
        <time>2018-07-16T10:46:32Z</time>
      </trkpt>
      <trkpt lat="45.559787" lon="6.755877">
        <ele>1367.337</ele>
        <time>2018-07-16T10:46:36Z</time>
      </trkpt>
      <trkpt lat="45.559735" lon="6.755890">
        <ele>1367.421</ele>
        <time>2018-07-16T10:46:40Z</time>
      </trkpt>
      <trkpt lat="45.559685" lon="6.755901">
        <ele>1366.343</ele>
        <time>2018-07-16T10:46:45Z</time>
      </trkpt>
      <trkpt lat="45.559634" lon="6.755895">
        <ele>1366.458</ele>
        <time>2018-07-16T10:46:50Z</time>
      </trkpt>
      <trkpt lat="45.559581" lon="6.755899">
        <ele>1368.542</ele>
        <time>2018-07-16T10:46:54Z</time>
      </trkpt>
      <trkpt lat="45.559536" lon="6.755892">
        <ele>1369.357</ele>
        <time>2018-07-16T10:46:58Z</time>
      </trkpt>
      <trkpt lat="45.559489" lon="6.755882">
        <ele>1369.896</ele>
        <time>2018-07-16T10:47:03Z</time>
      </trkpt>
      <trkpt lat="45.559442" lon="6.755881">
        <ele>1370.968</ele>
        <time>2018-07-16T10:47:07Z</time>
      </trkpt>
      <trkpt lat="45.559387" lon="6.755869">
        <ele>1373.289</ele>
        <time>2018-07-16T10:47:11Z</time>
      </trkpt>
      <trkpt lat="45.559334" lon="6.755858">
        <ele>1376.606</ele>
        <time>2018-07-16T10:47:15Z</time>
      </trkpt>
      <trkpt lat="45.559287" lon="6.755828">
        <ele>1379.026</ele>
        <time>2018-07-16T10:47:20Z</time>
      </trkpt>
      <trkpt lat="45.559248" lon="6.755780">
        <ele>1377.208</ele>
        <time>2018-07-16T10:47:26Z</time>
      </trkpt>
      <trkpt lat="45.559213" lon="6.755729">
        <ele>1373.760</ele>
        <time>2018-07-16T10:47:32Z</time>
      </trkpt>
      <trkpt lat="45.559170" lon="6.755690">
        <ele>1371.664</ele>
        <time>2018-07-16T10:47:37Z</time>
      </trkpt>
      <trkpt lat="45.559141" lon="6.755633">
        <ele>1368.086</ele>
        <time>2018-07-16T10:47:45Z</time>
      </trkpt>
      <trkpt lat="45.559093" lon="6.755632">
        <ele>1365.011</ele>
        <time>2018-07-16T10:47:54Z</time>
      </trkpt>
      <trkpt lat="45.559050" lon="6.755667">
        <ele>1362.075</ele>
        <time>2018-07-16T10:48:04Z</time>
      </trkpt>
      <trkpt lat="45.559021" lon="6.755720">
        <ele>1361.080</ele>
        <time>2018-07-16T10:48:11Z</time>
      </trkpt>
      <trkpt lat="45.558987" lon="6.755763">
        <ele>1361.679</ele>
        <time>2018-07-16T10:48:17Z</time>
      </trkpt>
      <trkpt lat="45.558951" lon="6.755803">
        <ele>1362.821</ele>
        <time>2018-07-16T10:48:26Z</time>
      </trkpt>
      <trkpt lat="45.558913" lon="6.755847">
        <ele>1364.397</ele>
        <time>2018-07-16T10:48:33Z</time>
      </trkpt>
      <trkpt lat="45.558868" lon="6.755874">
        <ele>1366.823</ele>
        <time>2018-07-16T10:48:37Z</time>
      </trkpt>
      <trkpt lat="45.558815" lon="6.755902">
        <ele>1369.525</ele>
        <time>2018-07-16T10:48:41Z</time>
      </trkpt>
      <trkpt lat="45.558768" lon="6.755922">
        <ele>1372.308</ele>
        <time>2018-07-16T10:48:44Z</time>
      </trkpt>
      <trkpt lat="45.558706" lon="6.755943">
        <ele>1374.891</ele>
        <time>2018-07-16T10:48:48Z</time>
      </trkpt>
      <trkpt lat="45.558652" lon="6.755965">
        <ele>1376.315</ele>
        <time>2018-07-16T10:48:52Z</time>
      </trkpt>
      <trkpt lat="45.558599" lon="6.755983">
        <ele>1377.267</ele>
        <time>2018-07-16T10:48:56Z</time>
      </trkpt>
      <trkpt lat="45.558551" lon="6.755995">
        <ele>1378.112</ele>
        <time>2018-07-16T10:49:00Z</time>
      </trkpt>
      <trkpt lat="45.558505" lon="6.756005">
        <ele>1377.976</ele>
        <time>2018-07-16T10:49:05Z</time>
      </trkpt>
      <trkpt lat="45.558455" lon="6.756009">
        <ele>1377.091</ele>
        <time>2018-07-16T10:49:10Z</time>
      </trkpt>
      <trkpt lat="45.558406" lon="6.755982">
        <ele>1374.880</ele>
        <time>2018-07-16T10:49:20Z</time>
      </trkpt>
      <trkpt lat="45.558369" lon="6.755942">
        <ele>1372.742</ele>
        <time>2018-07-16T10:49:25Z</time>
      </trkpt>
      <trkpt lat="45.558333" lon="6.755894">
        <ele>1371.878</ele>
        <time>2018-07-16T10:49:30Z</time>
      </trkpt>
      <trkpt lat="45.558294" lon="6.755842">
        <ele>1371.333</ele>
        <time>2018-07-16T10:49:36Z</time>
      </trkpt>
      <trkpt lat="45.558251" lon="6.755813">
        <ele>1372.226</ele>
        <time>2018-07-16T10:49:41Z</time>
      </trkpt>
      <trkpt lat="45.558192" lon="6.755813">
        <ele>1372.308</ele>
        <time>2018-07-16T10:49:45Z</time>
      </trkpt>
      <trkpt lat="45.558135" lon="6.755813">
        <ele>1372.079</ele>
        <time>2018-07-16T10:49:48Z</time>
      </trkpt>
      <trkpt lat="45.558082" lon="6.755825">
        <ele>1371.463</ele>
        <time>2018-07-16T10:49:53Z</time>
      </trkpt>
      <trkpt lat="45.558031" lon="6.755835">
        <ele>1370.275</ele>
        <time>2018-07-16T10:49:59Z</time>
      </trkpt>
      <trkpt lat="45.557983" lon="6.755844">
        <ele>1370.370</ele>
        <time>2018-07-16T10:50:03Z</time>
      </trkpt>
      <trkpt lat="45.557935" lon="6.755881">
        <ele>1372.424</ele>
        <time>2018-07-16T10:50:08Z</time>
      </trkpt>
      <trkpt lat="45.557871" lon="6.755905">
        <ele>1374.859</ele>
        <time>2018-07-16T10:50:17Z</time>
      </trkpt>
      <trkpt lat="45.557818" lon="6.755901">
        <ele>1376.748</ele>
        <time>2018-07-16T10:50:20Z</time>
      </trkpt>
      <trkpt lat="45.557767" lon="6.755892">
        <ele>1378.210</ele>
        <time>2018-07-16T10:50:24Z</time>
      </trkpt>
      <trkpt lat="45.557733" lon="6.755848">
        <ele>1378.765</ele>
        <time>2018-07-16T10:50:32Z</time>
      </trkpt>
      <trkpt lat="45.557695" lon="6.755809">
        <ele>1380.668</ele>
        <time>2018-07-16T10:50:38Z</time>
      </trkpt>
      <trkpt lat="45.557658" lon="6.755764">
        <ele>1384.114</ele>
        <time>2018-07-16T10:50:46Z</time>
      </trkpt>
      <trkpt lat="45.557628" lon="6.755710">
        <ele>1383.408</ele>
        <time>2018-07-16T10:51:00Z</time>
      </trkpt>
      <trkpt lat="45.557590" lon="6.755670">
        <ele>1385.078</ele>
        <time>2018-07-16T10:51:09Z</time>
      </trkpt>
      <trkpt lat="45.557548" lon="6.755642">
        <ele>1388.032</ele>
        <time>2018-07-16T10:51:15Z</time>
      </trkpt>
      <trkpt lat="45.557500" lon="6.755618">
        <ele>1391.854</ele>
        <time>2018-07-16T10:51:21Z</time>
      </trkpt>
      <trkpt lat="45.557454" lon="6.755609">
        <ele>1395.729</ele>
        <time>2018-07-16T10:51:25Z</time>
      </trkpt>
      <trkpt lat="45.557404" lon="6.755600">
        <ele>1398.453</ele>
        <time>2018-07-16T10:51:28Z</time>
      </trkpt>
      <trkpt lat="45.557355" lon="6.755595">
        <ele>1400.488</ele>
        <time>2018-07-16T10:51:36Z</time>
      </trkpt>
      <trkpt lat="45.557307" lon="6.755610">
        <ele>1398.817</ele>
        <time>2018-07-16T10:51:44Z</time>
      </trkpt>
      <trkpt lat="45.557265" lon="6.755655">
        <ele>1394.889</ele>
        <time>2018-07-16T10:51:52Z</time>
      </trkpt>
      <trkpt lat="45.557215" lon="6.755661">
        <ele>1390.851</ele>
        <time>2018-07-16T10:51:57Z</time>
      </trkpt>
      <trkpt lat="45.557171" lon="6.755682">
        <ele>1390.301</ele>
        <time>2018-07-16T10:52:04Z</time>
      </trkpt>
      <trkpt lat="45.557119" lon="6.755691">
        <ele>1392.411</ele>
        <time>2018-07-16T10:52:08Z</time>
      </trkpt>
      <trkpt lat="45.557062" lon="6.755712">
        <ele>1395.208</ele>
        <time>2018-07-16T10:52:12Z</time>
      </trkpt>
      <trkpt lat="45.557017" lon="6.755726">
        <ele>1394.567</ele>
        <time>2018-07-16T10:52:17Z</time>
      </trkpt>
      <trkpt lat="45.556970" lon="6.755733">
        <ele>1394.561</ele>
        <time>2018-07-16T10:52:23Z</time>
      </trkpt>
      <trkpt lat="45.556922" lon="6.755745">
        <ele>1395.753</ele>
        <time>2018-07-16T10:52:27Z</time>
      </trkpt>
      <trkpt lat="45.556870" lon="6.755720">
        <ele>1395.688</ele>
        <time>2018-07-16T10:52:32Z</time>
      </trkpt>
      <trkpt lat="45.556826" lon="6.755690">
        <ele>1394.782</ele>
        <time>2018-07-16T10:52:37Z</time>
      </trkpt>
      <trkpt lat="45.556780" lon="6.755693">
        <ele>1394.657</ele>
        <time>2018-07-16T10:52:41Z</time>
      </trkpt>
      <trkpt lat="45.556730" lon="6.755703">
        <ele>1395.726</ele>
        <time>2018-07-16T10:52:45Z</time>
      </trkpt>
      <trkpt lat="45.556684" lon="6.755709">
        <ele>1396.478</ele>
        <time>2018-07-16T10:52:49Z</time>
      </trkpt>
      <trkpt lat="45.556636" lon="6.755715">
        <ele>1396.833</ele>
        <time>2018-07-16T10:52:54Z</time>
      </trkpt>
      <trkpt lat="45.556589" lon="6.755715">
        <ele>1397.823</ele>
        <time>2018-07-16T10:52:58Z</time>
      </trkpt>
      <trkpt lat="45.556542" lon="6.755713">
        <ele>1398.415</ele>
        <time>2018-07-16T10:53:02Z</time>
      </trkpt>
      <trkpt lat="45.556491" lon="6.755710">
        <ele>1399.208</ele>
        <time>2018-07-16T10:53:06Z</time>
      </trkpt>
      <trkpt lat="45.556445" lon="6.755705">
        <ele>1399.735</ele>
        <time>2018-07-16T10:53:10Z</time>
      </trkpt>
      <trkpt lat="45.556395" lon="6.755694">
        <ele>1400.429</ele>
        <time>2018-07-16T10:53:14Z</time>
      </trkpt>
      <trkpt lat="45.556345" lon="6.755693">
        <ele>1402.061</ele>
        <time>2018-07-16T10:53:17Z</time>
      </trkpt>
      <trkpt lat="45.556300" lon="6.755693">
        <ele>1403.416</ele>
        <time>2018-07-16T10:53:20Z</time>
      </trkpt>
      <trkpt lat="45.556249" lon="6.755684">
        <ele>1404.210</ele>
        <time>2018-07-16T10:53:24Z</time>
      </trkpt>
      <trkpt lat="45.556204" lon="6.755687">
        <ele>1405.565</ele>
        <time>2018-07-16T10:53:28Z</time>
      </trkpt>
      <trkpt lat="45.556151" lon="6.755677">
        <ele>1403.554</ele>
        <time>2018-07-16T10:53:35Z</time>
      </trkpt>
      <trkpt lat="45.556111" lon="6.755634">
        <ele>1399.526</ele>
        <time>2018-07-16T10:53:43Z</time>
      </trkpt>
      <trkpt lat="45.556057" lon="6.755633">
        <ele>1395.517</ele>
        <time>2018-07-16T10:53:48Z</time>
      </trkpt>
      <trkpt lat="45.556010" lon="6.755625">
        <ele>1391.587</ele>
        <time>2018-07-16T10:53:53Z</time>
      </trkpt>
      <trkpt lat="45.555964" lon="6.755649">
        <ele>1387.515</ele>
        <time>2018-07-16T10:53:56Z</time>
      </trkpt>
      <trkpt lat="45.555916" lon="6.755630">
        <ele>1383.508</ele>
        <time>2018-07-16T10:54:03Z</time>
      </trkpt>
      <trkpt lat="45.555884" lon="6.755580">
        <ele>1379.593</ele>
        <time>2018-07-16T10:54:13Z</time>
      </trkpt>
      <trkpt lat="45.555866" lon="6.755519">
        <ele>1375.557</ele>
        <time>2018-07-16T10:54:18Z</time>
      </trkpt>
      <trkpt lat="45.555836" lon="6.755465">
        <ele>1371.589</ele>
        <time>2018-07-16T10:54:22Z</time>
      </trkpt>
      <trkpt lat="45.555803" lon="6.755407">
        <ele>1368.734</ele>
        <time>2018-07-16T10:54:26Z</time>
      </trkpt>
      <trkpt lat="45.555775" lon="6.755351">
        <ele>1366.618</ele>
        <time>2018-07-16T10:54:29Z</time>
      </trkpt>
      <trkpt lat="45.555762" lon="6.755274">
        <ele>1365.373</ele>
        <time>2018-07-16T10:54:34Z</time>
      </trkpt>
      <trkpt lat="45.555716" lon="6.755262">
        <ele>1362.512</ele>
        <time>2018-07-16T10:54:43Z</time>
      </trkpt>
      <trkpt lat="45.555687" lon="6.755203">
        <ele>1360.884</ele>
        <time>2018-07-16T10:54:47Z</time>
      </trkpt>
      <trkpt lat="45.555650" lon="6.755164">
        <ele>1359.895</ele>
        <time>2018-07-16T10:54:51Z</time>
      </trkpt>
      <trkpt lat="45.555607" lon="6.755133">
        <ele>1361.249</ele>
        <time>2018-07-16T10:54:54Z</time>
      </trkpt>
      <trkpt lat="45.555564" lon="6.755104">
        <ele>1362.423</ele>
        <time>2018-07-16T10:54:56Z</time>
      </trkpt>
      <trkpt lat="45.555513" lon="6.755067">
        <ele>1363.108</ele>
        <time>2018-07-16T10:54:59Z</time>
      </trkpt>
      <trkpt lat="45.555467" lon="6.755032">
        <ele>1363.561</ele>
        <time>2018-07-16T10:55:02Z</time>
      </trkpt>
      <trkpt lat="45.555420" lon="6.755000">
        <ele>1363.855</ele>
        <time>2018-07-16T10:55:06Z</time>
      </trkpt>
      <trkpt lat="45.555377" lon="6.754978">
        <ele>1364.047</ele>
        <time>2018-07-16T10:55:10Z</time>
      </trkpt>
      <trkpt lat="45.555332" lon="6.754957">
        <ele>1364.972</ele>
        <time>2018-07-16T10:55:14Z</time>
      </trkpt>
      <trkpt lat="45.555284" lon="6.754923">
        <ele>1365.016</ele>
        <time>2018-07-16T10:55:19Z</time>
      </trkpt>
      <trkpt lat="45.555237" lon="6.754887">
        <ele>1366.371</ele>
        <time>2018-07-16T10:55:23Z</time>
      </trkpt>
      <trkpt lat="45.555191" lon="6.754852">
        <ele>1367.180</ele>
        <time>2018-07-16T10:55:27Z</time>
      </trkpt>
      <trkpt lat="45.555144" lon="6.754813">
        <ele>1370.052</ele>
        <time>2018-07-16T10:55:32Z</time>
      </trkpt>
      <trkpt lat="45.555094" lon="6.754774">
        <ele>1372.189</ele>
        <time>2018-07-16T10:55:36Z</time>
      </trkpt>
      <trkpt lat="45.555065" lon="6.754718">
        <ele>1370.606</ele>
        <time>2018-07-16T10:55:41Z</time>
      </trkpt>
      <trkpt lat="45.555012" lon="6.754703">
        <ele>1371.326</ele>
        <time>2018-07-16T10:55:47Z</time>
      </trkpt>
      <trkpt lat="45.554960" lon="6.754705">
        <ele>1372.508</ele>
        <time>2018-07-16T10:55:51Z</time>
      </trkpt>
      <trkpt lat="45.554912" lon="6.754703">
        <ele>1374.010</ele>
        <time>2018-07-16T10:55:54Z</time>
      </trkpt>
      <trkpt lat="45.554859" lon="6.754684">
        <ele>1374.964</ele>
        <time>2018-07-16T10:55:58Z</time>
      </trkpt>
      <trkpt lat="45.554804" lon="6.754662">
        <ele>1377.096</ele>
        <time>2018-07-16T10:56:02Z</time>
      </trkpt>
      <trkpt lat="45.554756" lon="6.754637">
        <ele>1377.971</ele>
        <time>2018-07-16T10:56:06Z</time>
      </trkpt>
      <trkpt lat="45.554703" lon="6.754620">
        <ele>1379.285</ele>
        <time>2018-07-16T10:56:10Z</time>
      </trkpt>
      <trkpt lat="45.554645" lon="6.754607">
        <ele>1380.060</ele>
        <time>2018-07-16T10:56:14Z</time>
      </trkpt>
      <trkpt lat="45.554598" lon="6.754596">
        <ele>1381.739</ele>
        <time>2018-07-16T10:56:17Z</time>
      </trkpt>
      <trkpt lat="45.554549" lon="6.754584">
        <ele>1383.551</ele>
        <time>2018-07-16T10:56:20Z</time>
      </trkpt>
      <trkpt lat="45.554504" lon="6.754580">
        <ele>1382.228</ele>
        <time>2018-07-16T10:56:23Z</time>
      </trkpt>
      <trkpt lat="45.554458" lon="6.754580">
        <ele>1381.489</ele>
        <time>2018-07-16T10:56:28Z</time>
      </trkpt>
      <trkpt lat="45.554437" lon="6.754516">
        <ele>1377.417</ele>
        <time>2018-07-16T10:56:34Z</time>
      </trkpt>
      <trkpt lat="45.554452" lon="6.754448">
        <ele>1373.408</ele>
        <time>2018-07-16T10:56:38Z</time>
      </trkpt>
      <trkpt lat="45.554464" lon="6.754379">
        <ele>1369.414</ele>
        <time>2018-07-16T10:56:42Z</time>
      </trkpt>
      <trkpt lat="45.554457" lon="6.754312">
        <ele>1365.458</ele>
        <time>2018-07-16T10:56:46Z</time>
      </trkpt>
      <trkpt lat="45.554449" lon="6.754236">
        <ele>1361.480</ele>
        <time>2018-07-16T10:56:50Z</time>
      </trkpt>
      <trkpt lat="45.554442" lon="6.754168">
        <ele>1357.715</ele>
        <time>2018-07-16T10:56:54Z</time>
      </trkpt>
      <trkpt lat="45.554422" lon="6.754102">
        <ele>1355.979</ele>
        <time>2018-07-16T10:56:58Z</time>
      </trkpt>
      <trkpt lat="45.554419" lon="6.754025">
        <ele>1354.454</ele>
        <time>2018-07-16T10:57:02Z</time>
      </trkpt>
      <trkpt lat="45.554419" lon="6.753950">
        <ele>1353.153</ele>
        <time>2018-07-16T10:57:06Z</time>
      </trkpt>
      <trkpt lat="45.554409" lon="6.753879">
        <ele>1352.765</ele>
        <time>2018-07-16T10:57:10Z</time>
      </trkpt>
      <trkpt lat="45.554391" lon="6.753811">
        <ele>1352.573</ele>
        <time>2018-07-16T10:57:14Z</time>
      </trkpt>
      <trkpt lat="45.554369" lon="6.753746">
        <ele>1353.285</ele>
        <time>2018-07-16T10:57:18Z</time>
      </trkpt>
      <trkpt lat="45.554351" lon="6.753684">
        <ele>1353.613</ele>
        <time>2018-07-16T10:57:22Z</time>
      </trkpt>
      <trkpt lat="45.554326" lon="6.753618">
        <ele>1354.208</ele>
        <time>2018-07-16T10:57:26Z</time>
      </trkpt>
      <trkpt lat="45.554300" lon="6.753558">
        <ele>1354.219</ele>
        <time>2018-07-16T10:57:30Z</time>
      </trkpt>
      <trkpt lat="45.554290" lon="6.753491">
        <ele>1351.023</ele>
        <time>2018-07-16T10:57:36Z</time>
      </trkpt>
      <trkpt lat="45.554256" lon="6.753429">
        <ele>1349.135</ele>
        <time>2018-07-16T10:57:41Z</time>
      </trkpt>
      <trkpt lat="45.554214" lon="6.753381">
        <ele>1348.330</ele>
        <time>2018-07-16T10:57:45Z</time>
      </trkpt>
      <trkpt lat="45.554167" lon="6.753336">
        <ele>1348.264</ele>
        <time>2018-07-16T10:57:49Z</time>
      </trkpt>
      <trkpt lat="45.554122" lon="6.753303">
        <ele>1347.049</ele>
        <time>2018-07-16T10:57:53Z</time>
      </trkpt>
      <trkpt lat="45.554076" lon="6.753278">
        <ele>1345.178</ele>
        <time>2018-07-16T10:57:59Z</time>
      </trkpt>
      <trkpt lat="45.554017" lon="6.753272">
        <ele>1344.340</ele>
        <time>2018-07-16T10:58:04Z</time>
      </trkpt>
      <trkpt lat="45.553959" lon="6.753275">
        <ele>1344.277</ele>
        <time>2018-07-16T10:58:08Z</time>
      </trkpt>
      <trkpt lat="45.553913" lon="6.753276">
        <ele>1344.261</ele>
        <time>2018-07-16T10:58:11Z</time>
      </trkpt>
      <trkpt lat="45.553857" lon="6.753265">
        <ele>1344.227</ele>
        <time>2018-07-16T10:58:15Z</time>
      </trkpt>
      <trkpt lat="45.553810" lon="6.753261">
        <ele>1345.008</ele>
        <time>2018-07-16T10:58:18Z</time>
      </trkpt>
      <trkpt lat="45.553764" lon="6.753253">
        <ele>1345.939</ele>
        <time>2018-07-16T10:58:21Z</time>
      </trkpt>
      <trkpt lat="45.553718" lon="6.753240">
        <ele>1346.813</ele>
        <time>2018-07-16T10:58:24Z</time>
      </trkpt>
      <trkpt lat="45.553660" lon="6.753224">
        <ele>1347.455</ele>
        <time>2018-07-16T10:58:28Z</time>
      </trkpt>
      <trkpt lat="45.553617" lon="6.753200">
        <ele>1348.180</ele>
        <time>2018-07-16T10:58:31Z</time>
      </trkpt>
      <trkpt lat="45.553568" lon="6.753173">
        <ele>1348.164</ele>
        <time>2018-07-16T10:58:35Z</time>
      </trkpt>
      <trkpt lat="45.553521" lon="6.753140">
        <ele>1347.389</ele>
        <time>2018-07-16T10:58:40Z</time>
      </trkpt>
      <trkpt lat="45.553477" lon="6.753099">
        <ele>1347.258</ele>
        <time>2018-07-16T10:58:46Z</time>
      </trkpt>
      <trkpt lat="45.553431" lon="6.753068">
        <ele>1347.620</ele>
        <time>2018-07-16T10:58:51Z</time>
      </trkpt>
      <trkpt lat="45.553384" lon="6.753042">
        <ele>1347.894</ele>
        <time>2018-07-16T10:58:57Z</time>
      </trkpt>
      <trkpt lat="45.553339" lon="6.753023">
        <ele>1349.157</ele>
        <time>2018-07-16T10:59:02Z</time>
      </trkpt>
      <trkpt lat="45.553285" lon="6.753000">
        <ele>1350.722</ele>
        <time>2018-07-16T10:59:08Z</time>
      </trkpt>
      <trkpt lat="45.553239" lon="6.752986">
        <ele>1352.108</ele>
        <time>2018-07-16T10:59:13Z</time>
      </trkpt>
      <trkpt lat="45.553185" lon="6.752972">
        <ele>1354.581</ele>
        <time>2018-07-16T10:59:19Z</time>
      </trkpt>
      <trkpt lat="45.553130" lon="6.752977">
        <ele>1357.185</ele>
        <time>2018-07-16T10:59:24Z</time>
      </trkpt>
      <trkpt lat="45.553083" lon="6.752973">
        <ele>1357.197</ele>
        <time>2018-07-16T10:59:30Z</time>
      </trkpt>
      <trkpt lat="45.553036" lon="6.752966">
        <ele>1355.952</ele>
        <time>2018-07-16T10:59:39Z</time>
      </trkpt>
      <trkpt lat="45.552988" lon="6.752952">
        <ele>1354.456</ele>
        <time>2018-07-16T10:59:47Z</time>
      </trkpt>
      <trkpt lat="45.552939" lon="6.752957">
        <ele>1352.781</ele>
        <time>2018-07-16T10:59:57Z</time>
      </trkpt>
      <trkpt lat="45.552892" lon="6.752971">
        <ele>1352.130</ele>
        <time>2018-07-16T11:00:03Z</time>
      </trkpt>
      <trkpt lat="45.552837" lon="6.752979">
        <ele>1352.532</ele>
        <time>2018-07-16T11:00:08Z</time>
      </trkpt>
      <trkpt lat="45.552785" lon="6.752994">
        <ele>1353.289</ele>
        <time>2018-07-16T11:00:13Z</time>
      </trkpt>
      <trkpt lat="45.552737" lon="6.753003">
        <ele>1353.606</ele>
        <time>2018-07-16T11:00:18Z</time>
      </trkpt>
      <trkpt lat="45.552691" lon="6.753005">
        <ele>1353.426</ele>
        <time>2018-07-16T11:00:23Z</time>
      </trkpt>
      <trkpt lat="45.552642" lon="6.753014">
        <ele>1354.108</ele>
        <time>2018-07-16T11:00:27Z</time>
      </trkpt>
      <trkpt lat="45.552597" lon="6.753021">
        <ele>1354.510</ele>
        <time>2018-07-16T11:00:31Z</time>
      </trkpt>
      <trkpt lat="45.552543" lon="6.753032">
        <ele>1354.884</ele>
        <time>2018-07-16T11:00:36Z</time>
      </trkpt>
      <trkpt lat="45.552499" lon="6.753051">
        <ele>1356.246</ele>
        <time>2018-07-16T11:00:40Z</time>
      </trkpt>
      <trkpt lat="45.552450" lon="6.753075">
        <ele>1356.661</ele>
        <time>2018-07-16T11:00:44Z</time>
      </trkpt>
      <trkpt lat="45.552407" lon="6.753100">
        <ele>1356.085</ele>
        <time>2018-07-16T11:00:49Z</time>
      </trkpt>
      <trkpt lat="45.552359" lon="6.753111">
        <ele>1356.160</ele>
        <time>2018-07-16T11:02:09Z</time>
      </trkpt>
      <trkpt lat="45.552306" lon="6.753143">
        <ele>1356.559</ele>
        <time>2018-07-16T11:02:14Z</time>
      </trkpt>
      <trkpt lat="45.552250" lon="6.753172">
        <ele>1358.471</ele>
        <time>2018-07-16T11:02:18Z</time>
      </trkpt>
      <trkpt lat="45.552202" lon="6.753192">
        <ele>1359.929</ele>
        <time>2018-07-16T11:02:22Z</time>
      </trkpt>
      <trkpt lat="45.552159" lon="6.753226">
        <ele>1358.800</ele>
        <time>2018-07-16T11:02:27Z</time>
      </trkpt>
      <trkpt lat="45.552113" lon="6.753246">
        <ele>1358.120</ele>
        <time>2018-07-16T11:02:31Z</time>
      </trkpt>
      <trkpt lat="45.552065" lon="6.753262">
        <ele>1358.108</ele>
        <time>2018-07-16T11:02:35Z</time>
      </trkpt>
      <trkpt lat="45.552015" lon="6.753281">
        <ele>1358.164</ele>
        <time>2018-07-16T11:02:39Z</time>
      </trkpt>
      <trkpt lat="45.551960" lon="6.753300">
        <ele>1359.378</ele>
        <time>2018-07-16T11:02:43Z</time>
      </trkpt>
      <trkpt lat="45.551906" lon="6.753313">
        <ele>1360.410</ele>
        <time>2018-07-16T11:02:47Z</time>
      </trkpt>
      <trkpt lat="45.551851" lon="6.753325">
        <ele>1361.975</ele>
        <time>2018-07-16T11:02:51Z</time>
      </trkpt>
      <trkpt lat="45.551797" lon="6.753331">
        <ele>1364.029</ele>
        <time>2018-07-16T11:02:55Z</time>
      </trkpt>
      <trkpt lat="45.551737" lon="6.753333">
        <ele>1366.594</ele>
        <time>2018-07-16T11:02:59Z</time>
      </trkpt>
      <trkpt lat="45.551692" lon="6.753331">
        <ele>1368.853</ele>
        <time>2018-07-16T11:03:02Z</time>
      </trkpt>
      <trkpt lat="45.551635" lon="6.753336">
        <ele>1371.475</ele>
        <time>2018-07-16T11:03:06Z</time>
      </trkpt>
      <trkpt lat="45.551588" lon="6.753338">
        <ele>1373.768</ele>
        <time>2018-07-16T11:03:09Z</time>
      </trkpt>
      <trkpt lat="45.551538" lon="6.753338">
        <ele>1373.542</ele>
        <time>2018-07-16T11:03:14Z</time>
      </trkpt>
      <trkpt lat="45.551485" lon="6.753327">
        <ele>1374.226</ele>
        <time>2018-07-16T11:03:19Z</time>
      </trkpt>
      <trkpt lat="45.551437" lon="6.753318">
        <ele>1375.408</ele>
        <time>2018-07-16T11:03:23Z</time>
      </trkpt>
      <trkpt lat="45.551380" lon="6.753308">
        <ele>1377.728</ele>
        <time>2018-07-16T11:03:27Z</time>
      </trkpt>
      <trkpt lat="45.551336" lon="6.753296">
        <ele>1379.122</ele>
        <time>2018-07-16T11:03:31Z</time>
      </trkpt>
      <trkpt lat="45.551284" lon="6.753301">
        <ele>1378.344</ele>
        <time>2018-07-16T11:03:51Z</time>
      </trkpt>
      <trkpt lat="45.551247" lon="6.753341">
        <ele>1374.359</ele>
        <time>2018-07-16T11:03:58Z</time>
      </trkpt>
      <trkpt lat="45.551227" lon="6.753407">
        <ele>1370.323</ele>
        <time>2018-07-16T11:04:04Z</time>
      </trkpt>
      <trkpt lat="45.551202" lon="6.753473">
        <ele>1366.368</ele>
        <time>2018-07-16T11:04:08Z</time>
      </trkpt>
      <trkpt lat="45.551181" lon="6.753543">
        <ele>1362.397</ele>
        <time>2018-07-16T11:04:12Z</time>
      </trkpt>
      <trkpt lat="45.551166" lon="6.753603">
        <ele>1359.049</ele>
        <time>2018-07-16T11:04:16Z</time>
      </trkpt>
      <trkpt lat="45.551143" lon="6.753660">
        <ele>1357.022</ele>
        <time>2018-07-16T11:04:20Z</time>
      </trkpt>
      <trkpt lat="45.551102" lon="6.753719">
        <ele>1355.062</ele>
        <time>2018-07-16T11:04:26Z</time>
      </trkpt>
      <trkpt lat="45.551091" lon="6.753787">
        <ele>1353.408</ele>
        <time>2018-07-16T11:04:30Z</time>
      </trkpt>
      <trkpt lat="45.551081" lon="6.753859">
        <ele>1352.008</ele>
        <time>2018-07-16T11:04:34Z</time>
      </trkpt>
      <trkpt lat="45.551063" lon="6.753933">
        <ele>1352.844</ele>
        <time>2018-07-16T11:04:38Z</time>
      </trkpt>
      <trkpt lat="45.551047" lon="6.754000">
        <ele>1354.578</ele>
        <time>2018-07-16T11:04:42Z</time>
      </trkpt>
      <trkpt lat="45.551023" lon="6.754055">
        <ele>1355.170</ele>
        <time>2018-07-16T11:04:47Z</time>
      </trkpt>
      <trkpt lat="45.551010" lon="6.754123">
        <ele>1355.195</ele>
        <time>2018-07-16T11:05:01Z</time>
      </trkpt>
      <trkpt lat="45.550974" lon="6.754174">
        <ele>1354.729</ele>
        <time>2018-07-16T11:05:08Z</time>
      </trkpt>
      <trkpt lat="45.550926" lon="6.754205">
        <ele>1354.474</ele>
        <time>2018-07-16T11:05:13Z</time>
      </trkpt>
      <trkpt lat="45.550882" lon="6.754231">
        <ele>1354.233</ele>
        <time>2018-07-16T11:05:17Z</time>
      </trkpt>
      <trkpt lat="45.550843" lon="6.754273">
        <ele>1352.515</ele>
        <time>2018-07-16T11:05:30Z</time>
      </trkpt>
      <trkpt lat="45.550791" lon="6.754277">
        <ele>1352.341</ele>
        <time>2018-07-16T11:05:36Z</time>
      </trkpt>
      <trkpt lat="45.550739" lon="6.754277">
        <ele>1352.681</ele>
        <time>2018-07-16T11:05:41Z</time>
      </trkpt>
      <trkpt lat="45.550689" lon="6.754291">
        <ele>1352.409</ele>
        <time>2018-07-16T11:05:51Z</time>
      </trkpt>
      <trkpt lat="45.550637" lon="6.754271">
        <ele>1353.508</ele>
        <time>2018-07-16T11:05:56Z</time>
      </trkpt>
      <trkpt lat="45.550588" lon="6.754234">
        <ele>1354.126</ele>
        <time>2018-07-16T11:06:01Z</time>
      </trkpt>
      <trkpt lat="45.550548" lon="6.754183">
        <ele>1354.930</ele>
        <time>2018-07-16T11:06:06Z</time>
      </trkpt>
      <trkpt lat="45.550511" lon="6.754132">
        <ele>1355.822</ele>
        <time>2018-07-16T11:06:11Z</time>
      </trkpt>
      <trkpt lat="45.550472" lon="6.754086">
        <ele>1357.197</ele>
        <time>2018-07-16T11:06:16Z</time>
      </trkpt>
      <trkpt lat="45.550432" lon="6.754050">
        <ele>1358.711</ele>
        <time>2018-07-16T11:06:21Z</time>
      </trkpt>
      <trkpt lat="45.550384" lon="6.754018">
        <ele>1360.586</ele>
        <time>2018-07-16T11:06:26Z</time>
      </trkpt>
      <trkpt lat="45.550330" lon="6.754000">
        <ele>1361.675</ele>
        <time>2018-07-16T11:06:31Z</time>
      </trkpt>
      <trkpt lat="45.550283" lon="6.754000">
        <ele>1362.257</ele>
        <time>2018-07-16T11:06:35Z</time>
      </trkpt>
      <trkpt lat="45.550229" lon="6.754006">
        <ele>1361.415</ele>
        <time>2018-07-16T11:06:40Z</time>
      </trkpt>
      <trkpt lat="45.550183" lon="6.754015">
        <ele>1361.365</ele>
        <time>2018-07-16T11:06:44Z</time>
      </trkpt>
      <trkpt lat="45.550137" lon="6.754027">
        <ele>1361.611</ele>
        <time>2018-07-16T11:06:48Z</time>
      </trkpt>
      <trkpt lat="45.550086" lon="6.754042">
        <ele>1362.208</ele>
        <time>2018-07-16T11:06:52Z</time>
      </trkpt>
      <trkpt lat="45.550039" lon="6.754063">
        <ele>1363.443</ele>
        <time>2018-07-16T11:06:56Z</time>
      </trkpt>
      <trkpt lat="45.550051" lon="6.754097">
        <ele>1358.957</ele>
        <time>2018-07-16T11:08:35Z</time>
      </trkpt>
      <trkpt lat="45.550097" lon="6.754118">
        <ele>1362.279</ele>
        <time>2018-07-16T11:08:41Z</time>
      </trkpt>
      <trkpt lat="45.550147" lon="6.754121">
        <ele>1361.824</ele>
        <time>2018-07-16T11:08:46Z</time>
      </trkpt>
      <trkpt lat="45.550201" lon="6.754110">
        <ele>1361.958</ele>
        <time>2018-07-16T11:08:51Z</time>
      </trkpt>
      <trkpt lat="45.550249" lon="6.754121">
        <ele>1361.673</ele>
        <time>2018-07-16T11:08:55Z</time>
      </trkpt>
      <trkpt lat="45.550299" lon="6.754112">
        <ele>1361.612</ele>
        <time>2018-07-16T11:09:01Z</time>
      </trkpt>
      <trkpt lat="45.550317" lon="6.754175">
        <ele>1361.274</ele>
        <time>2018-07-16T11:09:08Z</time>
      </trkpt>
      <trkpt lat="45.550314" lon="6.754109">
        <ele>1361.426</ele>
        <time>2018-07-16T11:09:36Z</time>
      </trkpt>
      <trkpt lat="45.550264" lon="6.754114">
        <ele>1361.147</ele>
        <time>2018-07-16T11:09:42Z</time>
      </trkpt>
      <trkpt lat="45.550218" lon="6.754122">
        <ele>1360.511</ele>
        <time>2018-07-16T11:09:48Z</time>
      </trkpt>
      <trkpt lat="45.550168" lon="6.754121">
        <ele>1360.208</ele>
        <time>2018-07-16T11:09:52Z</time>
      </trkpt>
      <trkpt lat="45.550123" lon="6.754140">
        <ele>1360.094</ele>
        <time>2018-07-16T11:09:58Z</time>
      </trkpt>
      <trkpt lat="45.550083" lon="6.754173">
        <ele>1361.188</ele>
        <time>2018-07-16T11:10:04Z</time>
      </trkpt>
      <trkpt lat="45.550046" lon="6.754215">
        <ele>1361.760</ele>
        <time>2018-07-16T11:10:11Z</time>
      </trkpt>
      <trkpt lat="45.550007" lon="6.754262">
        <ele>1362.955</ele>
        <time>2018-07-16T11:10:16Z</time>
      </trkpt>
      <trkpt lat="45.549952" lon="6.754287">
        <ele>1362.019</ele>
        <time>2018-07-16T11:10:22Z</time>
      </trkpt>
      <trkpt lat="45.549904" lon="6.754304">
        <ele>1360.784</ele>
        <time>2018-07-16T11:10:27Z</time>
      </trkpt>
      <trkpt lat="45.549861" lon="6.754329">
        <ele>1360.723</ele>
        <time>2018-07-16T11:10:31Z</time>
      </trkpt>
      <trkpt lat="45.549830" lon="6.754380">
        <ele>1361.975</ele>
        <time>2018-07-16T11:10:37Z</time>
      </trkpt>
      <trkpt lat="45.549813" lon="6.754443">
        <ele>1361.094</ele>
        <time>2018-07-16T11:10:46Z</time>
      </trkpt>
      <trkpt lat="45.549780" lon="6.754488">
        <ele>1360.957</ele>
        <time>2018-07-16T11:10:54Z</time>
      </trkpt>
      <trkpt lat="45.549740" lon="6.754530">
        <ele>1363.622</ele>
        <time>2018-07-16T11:11:04Z</time>
      </trkpt>
      <trkpt lat="45.549732" lon="6.754596">
        <ele>1363.208</ele>
        <time>2018-07-16T11:11:25Z</time>
      </trkpt>
      <trkpt lat="45.549703" lon="6.754655">
        <ele>1364.251</ele>
        <time>2018-07-16T11:11:33Z</time>
      </trkpt>
      <trkpt lat="45.549669" lon="6.754699">
        <ele>1365.695</ele>
        <time>2018-07-16T11:11:39Z</time>
      </trkpt>
      <trkpt lat="45.549628" lon="6.754741">
        <ele>1367.297</ele>
        <time>2018-07-16T11:11:45Z</time>
      </trkpt>
      <trkpt lat="45.549591" lon="6.754783">
        <ele>1369.442</ele>
        <time>2018-07-16T11:11:51Z</time>
      </trkpt>
      <trkpt lat="45.549567" lon="6.754841">
        <ele>1371.576</ele>
        <time>2018-07-16T11:11:59Z</time>
      </trkpt>
      <trkpt lat="45.549523" lon="6.754862">
        <ele>1374.861</ele>
        <time>2018-07-16T11:12:05Z</time>
      </trkpt>
      <trkpt lat="45.549485" lon="6.754914">
        <ele>1378.010</ele>
        <time>2018-07-16T11:12:12Z</time>
      </trkpt>
      <trkpt lat="45.549451" lon="6.754963">
        <ele>1381.912</ele>
        <time>2018-07-16T11:12:18Z</time>
      </trkpt>
      <trkpt lat="45.549412" lon="6.755003">
        <ele>1385.969</ele>
        <time>2018-07-16T11:12:24Z</time>
      </trkpt>
      <trkpt lat="45.549366" lon="6.755037">
        <ele>1389.904</ele>
        <time>2018-07-16T11:12:31Z</time>
      </trkpt>
      <trkpt lat="45.549322" lon="6.755055">
        <ele>1393.024</ele>
        <time>2018-07-16T11:12:38Z</time>
      </trkpt>
      <trkpt lat="45.549279" lon="6.755078">
        <ele>1394.508</ele>
        <time>2018-07-16T11:12:46Z</time>
      </trkpt>
      <trkpt lat="45.549236" lon="6.755102">
        <ele>1396.238</ele>
        <time>2018-07-16T11:12:52Z</time>
      </trkpt>
      <trkpt lat="45.549191" lon="6.755128">
        <ele>1396.482</ele>
        <time>2018-07-16T11:12:58Z</time>
      </trkpt>
      <trkpt lat="45.549148" lon="6.755152">
        <ele>1397.754</ele>
        <time>2018-07-16T11:13:05Z</time>
      </trkpt>
      <trkpt lat="45.549104" lon="6.755180">
        <ele>1399.719</ele>
        <time>2018-07-16T11:13:11Z</time>
      </trkpt>
      <trkpt lat="45.549057" lon="6.755201">
        <ele>1402.173</ele>
        <time>2018-07-16T11:13:16Z</time>
      </trkpt>
      <trkpt lat="45.549014" lon="6.755222">
        <ele>1405.138</ele>
        <time>2018-07-16T11:13:20Z</time>
      </trkpt>
      <trkpt lat="45.548965" lon="6.755251">
        <ele>1407.727</ele>
        <time>2018-07-16T11:13:24Z</time>
      </trkpt>
      <trkpt lat="45.548920" lon="6.755279">
        <ele>1406.519</ele>
        <time>2018-07-16T11:13:30Z</time>
      </trkpt>
      <trkpt lat="45.548874" lon="6.755311">
        <ele>1405.028</ele>
        <time>2018-07-16T11:13:35Z</time>
      </trkpt>
      <trkpt lat="45.548833" lon="6.755340">
        <ele>1404.589</ele>
        <time>2018-07-16T11:13:39Z</time>
      </trkpt>
      <trkpt lat="45.548781" lon="6.755360">
        <ele>1403.817</ele>
        <time>2018-07-16T11:13:44Z</time>
      </trkpt>
      <trkpt lat="45.548735" lon="6.755375">
        <ele>1402.608</ele>
        <time>2018-07-16T11:13:48Z</time>
      </trkpt>
      <trkpt lat="45.548687" lon="6.755393">
        <ele>1401.594</ele>
        <time>2018-07-16T11:13:52Z</time>
      </trkpt>
      <trkpt lat="45.548638" lon="6.755421">
        <ele>1400.818</ele>
        <time>2018-07-16T11:13:57Z</time>
      </trkpt>
      <trkpt lat="45.548595" lon="6.755450">
        <ele>1400.860</ele>
        <time>2018-07-16T11:14:02Z</time>
      </trkpt>
      <trkpt lat="45.548549" lon="6.755482">
        <ele>1402.475</ele>
        <time>2018-07-16T11:14:07Z</time>
      </trkpt>
      <trkpt lat="45.548505" lon="6.755509">
        <ele>1404.619</ele>
        <time>2018-07-16T11:14:11Z</time>
      </trkpt>
      <trkpt lat="45.548460" lon="6.755532">
        <ele>1407.574</ele>
        <time>2018-07-16T11:14:15Z</time>
      </trkpt>
      <trkpt lat="45.548412" lon="6.755549">
        <ele>1409.653</ele>
        <time>2018-07-16T11:14:19Z</time>
      </trkpt>
      <trkpt lat="45.548366" lon="6.755563">
        <ele>1411.315</ele>
        <time>2018-07-16T11:14:23Z</time>
      </trkpt>
      <trkpt lat="45.548323" lon="6.755579">
        <ele>1412.346</ele>
        <time>2018-07-16T11:14:27Z</time>
      </trkpt>
      <trkpt lat="45.548272" lon="6.755590">
        <ele>1414.188</ele>
        <time>2018-07-16T11:14:31Z</time>
      </trkpt>
      <trkpt lat="45.548217" lon="6.755585">
        <ele>1416.016</ele>
        <time>2018-07-16T11:14:35Z</time>
      </trkpt>
      <trkpt lat="45.548166" lon="6.755583">
        <ele>1416.308</ele>
        <time>2018-07-16T11:14:40Z</time>
      </trkpt>
      <trkpt lat="45.548115" lon="6.755562">
        <ele>1413.756</ele>
        <time>2018-07-16T11:14:47Z</time>
      </trkpt>
      <trkpt lat="45.548068" lon="6.755553">
        <ele>1412.570</ele>
        <time>2018-07-16T11:14:51Z</time>
      </trkpt>
      <trkpt lat="45.548019" lon="6.755539">
        <ele>1413.092</ele>
        <time>2018-07-16T11:14:55Z</time>
      </trkpt>
      <trkpt lat="45.547969" lon="6.755535">
        <ele>1414.177</ele>
        <time>2018-07-16T11:14:59Z</time>
      </trkpt>
      <trkpt lat="45.547920" lon="6.755544">
        <ele>1415.251</ele>
        <time>2018-07-16T11:15:03Z</time>
      </trkpt>
      <trkpt lat="45.547868" lon="6.755559">
        <ele>1417.046</ele>
        <time>2018-07-16T11:15:07Z</time>
      </trkpt>
      <trkpt lat="45.547820" lon="6.755588">
        <ele>1416.985</ele>
        <time>2018-07-16T11:15:12Z</time>
      </trkpt>
      <trkpt lat="45.547780" lon="6.755624">
        <ele>1415.247</ele>
        <time>2018-07-16T11:15:16Z</time>
      </trkpt>
      <trkpt lat="45.547747" lon="6.755671">
        <ele>1412.291</ele>
        <time>2018-07-16T11:15:21Z</time>
      </trkpt>
      <trkpt lat="45.547702" lon="6.755708">
        <ele>1410.481</ele>
        <time>2018-07-16T11:15:26Z</time>
      </trkpt>
      <trkpt lat="45.547656" lon="6.755742">
        <ele>1407.719</ele>
        <time>2018-07-16T11:16:08Z</time>
      </trkpt>
      <trkpt lat="45.547615" lon="6.755788">
        <ele>1406.508</ele>
        <time>2018-07-16T11:16:12Z</time>
      </trkpt>
      <trkpt lat="45.547574" lon="6.755846">
        <ele>1406.211</ele>
        <time>2018-07-16T11:16:16Z</time>
      </trkpt>
      <trkpt lat="45.547529" lon="6.755888">
        <ele>1405.655</ele>
        <time>2018-07-16T11:16:20Z</time>
      </trkpt>
      <trkpt lat="45.547476" lon="6.755915">
        <ele>1402.497</ele>
        <time>2018-07-16T11:16:25Z</time>
      </trkpt>
      <trkpt lat="45.547424" lon="6.755928">
        <ele>1400.532</ele>
        <time>2018-07-16T11:16:28Z</time>
      </trkpt>
      <trkpt lat="45.547373" lon="6.755948">
        <ele>1396.526</ele>
        <time>2018-07-16T11:16:33Z</time>
      </trkpt>
      <trkpt lat="45.547320" lon="6.755967">
        <ele>1392.551</ele>
        <time>2018-07-16T11:16:38Z</time>
      </trkpt>
      <trkpt lat="45.547272" lon="6.755971">
        <ele>1390.240</ele>
        <time>2018-07-16T11:16:43Z</time>
      </trkpt>
      <trkpt lat="45.547226" lon="6.755982">
        <ele>1390.422</ele>
        <time>2018-07-16T11:16:53Z</time>
      </trkpt>
      <trkpt lat="45.547198" lon="6.756038">
        <ele>1391.355</ele>
        <time>2018-07-16T11:16:57Z</time>
      </trkpt>
      <trkpt lat="45.547170" lon="6.756093">
        <ele>1393.507</ele>
        <time>2018-07-16T11:17:02Z</time>
      </trkpt>
      <trkpt lat="45.547128" lon="6.756121">
        <ele>1395.617</ele>
        <time>2018-07-16T11:17:07Z</time>
      </trkpt>
      <trkpt lat="45.547080" lon="6.756106">
        <ele>1397.308</ele>
        <time>2018-07-16T11:17:13Z</time>
      </trkpt>
      <trkpt lat="45.547033" lon="6.756138">
        <ele>1397.957</ele>
        <time>2018-07-16T11:17:18Z</time>
      </trkpt>
      <trkpt lat="45.546988" lon="6.756171">
        <ele>1396.781</ele>
        <time>2018-07-16T11:17:23Z</time>
      </trkpt>
      <trkpt lat="45.546940" lon="6.756187">
        <ele>1396.413</ele>
        <time>2018-07-16T11:17:27Z</time>
      </trkpt>
      <trkpt lat="45.546885" lon="6.756230">
        <ele>1396.288</ele>
        <time>2018-07-16T11:17:31Z</time>
      </trkpt>
      <trkpt lat="45.546861" lon="6.756286">
        <ele>1396.942</ele>
        <time>2018-07-16T11:17:33Z</time>
      </trkpt>
      <trkpt lat="45.546814" lon="6.756306">
        <ele>1396.967</ele>
        <time>2018-07-16T11:17:36Z</time>
      </trkpt>
      <trkpt lat="45.546767" lon="6.756291">
        <ele>1398.576</ele>
        <time>2018-07-16T11:17:40Z</time>
      </trkpt>
      <trkpt lat="45.546741" lon="6.756238">
        <ele>1398.368</ele>
        <time>2018-07-16T11:17:50Z</time>
      </trkpt>
      <trkpt lat="45.546709" lon="6.756191">
        <ele>1397.868</ele>
        <time>2018-07-16T11:17:55Z</time>
      </trkpt>
      <trkpt lat="45.546658" lon="6.756186">
        <ele>1395.942</ele>
        <time>2018-07-16T11:18:00Z</time>
      </trkpt>
      <trkpt lat="45.546609" lon="6.756177">
        <ele>1393.926</ele>
        <time>2018-07-16T11:18:04Z</time>
      </trkpt>
      <trkpt lat="45.546550" lon="6.756164">
        <ele>1392.708</ele>
        <time>2018-07-16T11:18:08Z</time>
      </trkpt>
      <trkpt lat="45.546502" lon="6.756125">
        <ele>1391.678</ele>
        <time>2018-07-16T11:18:12Z</time>
      </trkpt>
      <trkpt lat="45.546445" lon="6.756116">
        <ele>1389.782</ele>
        <time>2018-07-16T11:18:16Z</time>
      </trkpt>
      <trkpt lat="45.546437" lon="6.756051">
        <ele>1388.654</ele>
        <time>2018-07-16T11:18:20Z</time>
      </trkpt>
      <trkpt lat="45.546443" lon="6.755987">
        <ele>1387.999</ele>
        <time>2018-07-16T11:18:25Z</time>
      </trkpt>
      <trkpt lat="45.546464" lon="6.755928">
        <ele>1387.153</ele>
        <time>2018-07-16T11:18:44Z</time>
      </trkpt>
      <trkpt lat="45.546432" lon="6.755917">
        <ele>1382.098</ele>
        <time>2018-07-16T11:34:34Z</time>
      </trkpt>
      <trkpt lat="45.546393" lon="6.755954">
        <ele>1384.947</ele>
        <time>2018-07-16T11:34:43Z</time>
      </trkpt>
      <trkpt lat="45.546333" lon="6.755963">
        <ele>1387.419</ele>
        <time>2018-07-16T11:34:47Z</time>
      </trkpt>
      <trkpt lat="45.546285" lon="6.755954">
        <ele>1389.756</ele>
        <time>2018-07-16T11:34:51Z</time>
      </trkpt>
      <trkpt lat="45.546236" lon="6.755966">
        <ele>1391.959</ele>
        <time>2018-07-16T11:34:56Z</time>
      </trkpt>
      <trkpt lat="45.546187" lon="6.755993">
        <ele>1385.814</ele>
        <time>2018-07-16T11:35:01Z</time>
      </trkpt>
      <trkpt lat="45.546136" lon="6.756014">
        <ele>1387.508</ele>
        <time>2018-07-16T11:35:05Z</time>
      </trkpt>
      <trkpt lat="45.546091" lon="6.756033">
        <ele>1390.147</ele>
        <time>2018-07-16T11:35:08Z</time>
      </trkpt>
      <trkpt lat="45.546046" lon="6.756054">
        <ele>1393.351</ele>
        <time>2018-07-16T11:35:11Z</time>
      </trkpt>
      <trkpt lat="45.546001" lon="6.756074">
        <ele>1396.433</ele>
        <time>2018-07-16T11:35:14Z</time>
      </trkpt>
      <trkpt lat="45.545955" lon="6.756109">
        <ele>1399.178</ele>
        <time>2018-07-16T11:35:17Z</time>
      </trkpt>
      <trkpt lat="45.545902" lon="6.756129">
        <ele>1401.522</ele>
        <time>2018-07-16T11:35:21Z</time>
      </trkpt>
      <trkpt lat="45.545852" lon="6.756140">
        <ele>1404.147</ele>
        <time>2018-07-16T11:35:25Z</time>
      </trkpt>
      <trkpt lat="45.545803" lon="6.756132">
        <ele>1404.916</ele>
        <time>2018-07-16T11:35:30Z</time>
      </trkpt>
      <trkpt lat="45.545751" lon="6.756146">
        <ele>1405.428</ele>
        <time>2018-07-16T11:35:35Z</time>
      </trkpt>
      <trkpt lat="45.545704" lon="6.756181">
        <ele>1406.959</ele>
        <time>2018-07-16T11:35:39Z</time>
      </trkpt>
      <trkpt lat="45.545663" lon="6.756216">
        <ele>1409.403</ele>
        <time>2018-07-16T11:35:42Z</time>
      </trkpt>
      <trkpt lat="45.545620" lon="6.756250">
        <ele>1412.123</ele>
        <time>2018-07-16T11:35:45Z</time>
      </trkpt>
      <trkpt lat="45.545568" lon="6.756223">
        <ele>1409.708</ele>
        <time>2018-07-16T11:35:50Z</time>
      </trkpt>
      <trkpt lat="45.545522" lon="6.756222">
        <ele>1409.177</ele>
        <time>2018-07-16T11:35:54Z</time>
      </trkpt>
      <trkpt lat="45.545473" lon="6.756238">
        <ele>1409.591</ele>
        <time>2018-07-16T11:35:58Z</time>
      </trkpt>
      <trkpt lat="45.545418" lon="6.756255">
        <ele>1411.053</ele>
        <time>2018-07-16T11:36:02Z</time>
      </trkpt>
      <trkpt lat="45.545362" lon="6.756277">
        <ele>1412.718</ele>
        <time>2018-07-16T11:36:06Z</time>
      </trkpt>
      <trkpt lat="45.545305" lon="6.756300">
        <ele>1414.572</ele>
        <time>2018-07-16T11:36:10Z</time>
      </trkpt>
      <trkpt lat="45.545253" lon="6.756331">
        <ele>1416.487</ele>
        <time>2018-07-16T11:36:14Z</time>
      </trkpt>
      <trkpt lat="45.545210" lon="6.756301">
        <ele>1414.326</ele>
        <time>2018-07-16T11:36:19Z</time>
      </trkpt>
      <trkpt lat="45.545156" lon="6.756310">
        <ele>1410.378</ele>
        <time>2018-07-16T11:36:26Z</time>
      </trkpt>
      <trkpt lat="45.545125" lon="6.756359">
        <ele>1406.391</ele>
        <time>2018-07-16T11:36:33Z</time>
      </trkpt>
      <trkpt lat="45.545077" lon="6.756393">
        <ele>1402.381</ele>
        <time>2018-07-16T11:36:39Z</time>
      </trkpt>
      <trkpt lat="45.545022" lon="6.756429">
        <ele>1398.319</ele>
        <time>2018-07-16T11:36:44Z</time>
      </trkpt>
      <trkpt lat="45.544974" lon="6.756442">
        <ele>1394.308</ele>
        <time>2018-07-16T11:36:47Z</time>
      </trkpt>
      <trkpt lat="45.544929" lon="6.756448">
        <ele>1390.331</ele>
        <time>2018-07-16T11:36:50Z</time>
      </trkpt>
      <trkpt lat="45.544882" lon="6.756457">
        <ele>1386.365</ele>
        <time>2018-07-16T11:36:53Z</time>
      </trkpt>
      <trkpt lat="45.544836" lon="6.756464">
        <ele>1383.987</ele>
        <time>2018-07-16T11:36:56Z</time>
      </trkpt>
      <trkpt lat="45.544777" lon="6.756475">
        <ele>1383.282</ele>
        <time>2018-07-16T11:37:00Z</time>
      </trkpt>
      <trkpt lat="45.544731" lon="6.756485">
        <ele>1383.636</ele>
        <time>2018-07-16T11:37:03Z</time>
      </trkpt>
      <trkpt lat="45.544686" lon="6.756475">
        <ele>1383.471</ele>
        <time>2018-07-16T11:37:06Z</time>
      </trkpt>
      <trkpt lat="45.544633" lon="6.756501">
        <ele>1379.460</ele>
        <time>2018-07-16T11:37:12Z</time>
      </trkpt>
      <trkpt lat="45.544587" lon="6.756530">
        <ele>1375.452</ele>
        <time>2018-07-16T11:37:17Z</time>
      </trkpt>
      <trkpt lat="45.544542" lon="6.756553">
        <ele>1372.948</ele>
        <time>2018-07-16T11:37:21Z</time>
      </trkpt>
      <trkpt lat="45.544493" lon="6.756574">
        <ele>1369.861</ele>
        <time>2018-07-16T11:37:25Z</time>
      </trkpt>
      <trkpt lat="45.544443" lon="6.756584">
        <ele>1368.317</ele>
        <time>2018-07-16T11:37:29Z</time>
      </trkpt>
      <trkpt lat="45.544392" lon="6.756590">
        <ele>1367.808</ele>
        <time>2018-07-16T11:37:34Z</time>
      </trkpt>
      <trkpt lat="45.544341" lon="6.756599">
        <ele>1366.346</ele>
        <time>2018-07-16T11:37:38Z</time>
      </trkpt>
      <trkpt lat="45.544290" lon="6.756601">
        <ele>1364.670</ele>
        <time>2018-07-16T11:37:42Z</time>
      </trkpt>
      <trkpt lat="45.544245" lon="6.756610">
        <ele>1363.622</ele>
        <time>2018-07-16T11:37:45Z</time>
      </trkpt>
      <trkpt lat="45.544201" lon="6.756631">
        <ele>1361.427</ele>
        <time>2018-07-16T11:37:48Z</time>
      </trkpt>
      <trkpt lat="45.544156" lon="6.756637">
        <ele>1361.751</ele>
        <time>2018-07-16T11:37:51Z</time>
      </trkpt>
      <trkpt lat="45.544109" lon="6.756649">
        <ele>1362.386</ele>
        <time>2018-07-16T11:37:54Z</time>
      </trkpt>
      <trkpt lat="45.544064" lon="6.756668">
        <ele>1363.845</ele>
        <time>2018-07-16T11:37:57Z</time>
      </trkpt>
      <trkpt lat="45.544018" lon="6.756667">
        <ele>1360.797</ele>
        <time>2018-07-16T11:38:04Z</time>
      </trkpt>
      <trkpt lat="45.543987" lon="6.756728">
        <ele>1357.314</ele>
        <time>2018-07-16T11:38:09Z</time>
      </trkpt>
      <trkpt lat="45.543953" lon="6.756779">
        <ele>1355.254</ele>
        <time>2018-07-16T11:38:13Z</time>
      </trkpt>
      <trkpt lat="45.543916" lon="6.756822">
        <ele>1355.609</ele>
        <time>2018-07-16T11:38:16Z</time>
      </trkpt>
      <trkpt lat="45.543877" lon="6.756879">
        <ele>1355.408</ele>
        <time>2018-07-16T11:38:20Z</time>
      </trkpt>
      <trkpt lat="45.543840" lon="6.756926">
        <ele>1356.173</ele>
        <time>2018-07-16T11:38:24Z</time>
      </trkpt>
      <trkpt lat="45.543796" lon="6.756972">
        <ele>1355.717</ele>
        <time>2018-07-16T11:38:32Z</time>
      </trkpt>
      <trkpt lat="45.543751" lon="6.756999">
        <ele>1355.159</ele>
        <time>2018-07-16T11:38:37Z</time>
      </trkpt>
      <trkpt lat="45.543708" lon="6.757022">
        <ele>1355.134</ele>
        <time>2018-07-16T11:38:46Z</time>
      </trkpt>
      <trkpt lat="45.543695" lon="6.757092">
        <ele>1353.928</ele>
        <time>2018-07-16T11:38:55Z</time>
      </trkpt>
      <trkpt lat="45.543653" lon="6.757125">
        <ele>1353.663</ele>
        <time>2018-07-16T11:38:59Z</time>
      </trkpt>
      <trkpt lat="45.543609" lon="6.757164">
        <ele>1353.042</ele>
        <time>2018-07-16T11:39:03Z</time>
      </trkpt>
      <trkpt lat="45.543559" lon="6.757204">
        <ele>1353.484</ele>
        <time>2018-07-16T11:39:07Z</time>
      </trkpt>
      <trkpt lat="45.543517" lon="6.757237">
        <ele>1354.188</ele>
        <time>2018-07-16T11:39:10Z</time>
      </trkpt>
      <trkpt lat="45.543476" lon="6.757266">
        <ele>1354.924</ele>
        <time>2018-07-16T11:39:13Z</time>
      </trkpt>
      <trkpt lat="45.543433" lon="6.757287">
        <ele>1356.226</ele>
        <time>2018-07-16T11:39:16Z</time>
      </trkpt>
      <trkpt lat="45.543381" lon="6.757321">
        <ele>1357.808</ele>
        <time>2018-07-16T11:39:20Z</time>
      </trkpt>
      <trkpt lat="45.543330" lon="6.757354">
        <ele>1359.120</ele>
        <time>2018-07-16T11:39:24Z</time>
      </trkpt>
      <trkpt lat="45.543284" lon="6.757378">
        <ele>1359.544</ele>
        <time>2018-07-16T11:39:28Z</time>
      </trkpt>
      <trkpt lat="45.543238" lon="6.757380">
        <ele>1357.736</ele>
        <time>2018-07-16T11:39:34Z</time>
      </trkpt>
      <trkpt lat="45.543191" lon="6.757360">
        <ele>1357.841</ele>
        <time>2018-07-16T11:39:41Z</time>
      </trkpt>
      <trkpt lat="45.543146" lon="6.757373">
        <ele>1353.895</ele>
        <time>2018-07-16T11:39:50Z</time>
      </trkpt>
      <trkpt lat="45.543109" lon="6.757412">
        <ele>1349.860</ele>
        <time>2018-07-16T11:39:54Z</time>
      </trkpt>
      <trkpt lat="45.543061" lon="6.757436">
        <ele>1347.559</ele>
        <time>2018-07-16T11:39:58Z</time>
      </trkpt>
      <trkpt lat="45.543010" lon="6.757470">
        <ele>1346.171</ele>
        <time>2018-07-16T11:40:02Z</time>
      </trkpt>
      <trkpt lat="45.542968" lon="6.757504">
        <ele>1345.372</ele>
        <time>2018-07-16T11:40:06Z</time>
      </trkpt>
      <trkpt lat="45.542922" lon="6.757539">
        <ele>1343.213</ele>
        <time>2018-07-16T11:40:11Z</time>
      </trkpt>
      <trkpt lat="45.542881" lon="6.757588">
        <ele>1341.914</ele>
        <time>2018-07-16T11:40:15Z</time>
      </trkpt>
      <trkpt lat="45.542830" lon="6.757635">
        <ele>1341.508</ele>
        <time>2018-07-16T11:40:19Z</time>
      </trkpt>
      <trkpt lat="45.542788" lon="6.757664">
        <ele>1341.769</ele>
        <time>2018-07-16T11:40:22Z</time>
      </trkpt>
      <trkpt lat="45.542745" lon="6.757693">
        <ele>1342.643</ele>
        <time>2018-07-16T11:40:25Z</time>
      </trkpt>
      <trkpt lat="45.542698" lon="6.757734">
        <ele>1344.345</ele>
        <time>2018-07-16T11:40:28Z</time>
      </trkpt>
      <trkpt lat="45.542654" lon="6.757775">
        <ele>1346.130</ele>
        <time>2018-07-16T11:40:31Z</time>
      </trkpt>
      <trkpt lat="45.542610" lon="6.757806">
        <ele>1347.694</ele>
        <time>2018-07-16T11:40:34Z</time>
      </trkpt>
      <trkpt lat="45.542566" lon="6.757828">
        <ele>1348.939</ele>
        <time>2018-07-16T11:40:37Z</time>
      </trkpt>
      <trkpt lat="45.542509" lon="6.757845">
        <ele>1350.198</ele>
        <time>2018-07-16T11:40:41Z</time>
      </trkpt>
      <trkpt lat="45.542453" lon="6.757859">
        <ele>1351.280</ele>
        <time>2018-07-16T11:40:45Z</time>
      </trkpt>
      <trkpt lat="45.542399" lon="6.757854">
        <ele>1352.343</ele>
        <time>2018-07-16T11:40:49Z</time>
      </trkpt>
      <trkpt lat="45.542346" lon="6.757860">
        <ele>1353.364</ele>
        <time>2018-07-16T11:40:53Z</time>
      </trkpt>
      <trkpt lat="45.542293" lon="6.757867">
        <ele>1353.110</ele>
        <time>2018-07-16T11:40:57Z</time>
      </trkpt>
      <trkpt lat="45.542242" lon="6.757874">
        <ele>1352.208</ele>
        <time>2018-07-16T11:41:01Z</time>
      </trkpt>
      <trkpt lat="45.542191" lon="6.757881">
        <ele>1350.966</ele>
        <time>2018-07-16T11:41:05Z</time>
      </trkpt>
      <trkpt lat="45.542139" lon="6.757885">
        <ele>1349.720</ele>
        <time>2018-07-16T11:41:09Z</time>
      </trkpt>
      <trkpt lat="45.542087" lon="6.757890">
        <ele>1349.442</ele>
        <time>2018-07-16T11:41:13Z</time>
      </trkpt>
      <trkpt lat="45.542034" lon="6.757898">
        <ele>1350.097</ele>
        <time>2018-07-16T11:41:17Z</time>
      </trkpt>
      <trkpt lat="45.541981" lon="6.757908">
        <ele>1350.831</ele>
        <time>2018-07-16T11:41:21Z</time>
      </trkpt>
      <trkpt lat="45.541929" lon="6.757919">
        <ele>1350.996</ele>
        <time>2018-07-16T11:41:25Z</time>
      </trkpt>
      <trkpt lat="45.541876" lon="6.757934">
        <ele>1351.355</ele>
        <time>2018-07-16T11:41:29Z</time>
      </trkpt>
      <trkpt lat="45.541822" lon="6.757953">
        <ele>1352.477</ele>
        <time>2018-07-16T11:41:33Z</time>
      </trkpt>
      <trkpt lat="45.541767" lon="6.757979">
        <ele>1353.852</ele>
        <time>2018-07-16T11:41:37Z</time>
      </trkpt>
      <trkpt lat="45.541715" lon="6.758004">
        <ele>1354.753</ele>
        <time>2018-07-16T11:41:41Z</time>
      </trkpt>
      <trkpt lat="45.541665" lon="6.758027">
        <ele>1355.608</ele>
        <time>2018-07-16T11:41:45Z</time>
      </trkpt>
      <trkpt lat="45.541614" lon="6.758054">
        <ele>1356.608</ele>
        <time>2018-07-16T11:41:49Z</time>
      </trkpt>
      <trkpt lat="45.541562" lon="6.758084">
        <ele>1357.647</ele>
        <time>2018-07-16T11:41:53Z</time>
      </trkpt>
      <trkpt lat="45.541515" lon="6.758109">
        <ele>1357.431</ele>
        <time>2018-07-16T11:41:57Z</time>
      </trkpt>
      <trkpt lat="45.541520" lon="6.758040">
        <ele>1353.493</ele>
        <time>2018-07-16T11:42:09Z</time>
      </trkpt>
      <trkpt lat="45.541503" lon="6.758054">
        <ele>1346.918</ele>
        <time>2018-07-16T11:43:05Z</time>
      </trkpt>
      <trkpt lat="45.541465" lon="6.758098">
        <ele>1345.832</ele>
        <time>2018-07-16T11:43:10Z</time>
      </trkpt>
      <trkpt lat="45.541434" lon="6.758144">
        <ele>1346.377</ele>
        <time>2018-07-16T11:43:15Z</time>
      </trkpt>
      <trkpt lat="45.541390" lon="6.758178">
        <ele>1348.296</ele>
        <time>2018-07-16T11:43:19Z</time>
      </trkpt>
      <trkpt lat="45.541372" lon="6.758243">
        <ele>1349.768</ele>
        <time>2018-07-16T11:43:22Z</time>
      </trkpt>
      <trkpt lat="45.541357" lon="6.758308">
        <ele>1346.331</ele>
        <time>2018-07-16T11:43:26Z</time>
      </trkpt>
      <trkpt lat="45.541325" lon="6.758366">
        <ele>1343.861</ele>
        <time>2018-07-16T11:43:34Z</time>
      </trkpt>
      <trkpt lat="45.541289" lon="6.758425">
        <ele>1344.707</ele>
        <time>2018-07-16T11:43:39Z</time>
      </trkpt>
      <trkpt lat="45.541254" lon="6.758467">
        <ele>1346.808</ele>
        <time>2018-07-16T11:43:43Z</time>
      </trkpt>
      <trkpt lat="45.541214" lon="6.758510">
        <ele>1347.375</ele>
        <time>2018-07-16T11:43:48Z</time>
      </trkpt>
      <trkpt lat="45.541175" lon="6.758546">
        <ele>1346.819</ele>
        <time>2018-07-16T11:43:53Z</time>
      </trkpt>
      <trkpt lat="45.541136" lon="6.758584">
        <ele>1347.761</ele>
        <time>2018-07-16T11:43:57Z</time>
      </trkpt>
      <trkpt lat="45.541094" lon="6.758632">
        <ele>1347.476</ele>
        <time>2018-07-16T11:44:01Z</time>
      </trkpt>
      <trkpt lat="45.541051" lon="6.758692">
        <ele>1348.430</ele>
        <time>2018-07-16T11:44:05Z</time>
      </trkpt>
      <trkpt lat="45.541016" lon="6.758736">
        <ele>1349.815</ele>
        <time>2018-07-16T11:44:08Z</time>
      </trkpt>
      <trkpt lat="45.540971" lon="6.758794">
        <ele>1351.134</ele>
        <time>2018-07-16T11:44:12Z</time>
      </trkpt>
      <trkpt lat="45.540932" lon="6.758843">
        <ele>1353.556</ele>
        <time>2018-07-16T11:44:15Z</time>
      </trkpt>
      <trkpt lat="45.540892" lon="6.758878">
        <ele>1355.715</ele>
        <time>2018-07-16T11:44:18Z</time>
      </trkpt>
      <trkpt lat="45.540849" lon="6.758902">
        <ele>1357.465</ele>
        <time>2018-07-16T11:44:21Z</time>
      </trkpt>
      <trkpt lat="45.540803" lon="6.758931">
        <ele>1358.411</ele>
        <time>2018-07-16T11:44:25Z</time>
      </trkpt>
      <trkpt lat="45.540752" lon="6.758975">
        <ele>1360.608</ele>
        <time>2018-07-16T11:44:29Z</time>
      </trkpt>
      <trkpt lat="45.540703" lon="6.759015">
        <ele>1361.533</ele>
        <time>2018-07-16T11:44:33Z</time>
      </trkpt>
      <trkpt lat="45.540656" lon="6.759049">
        <ele>1362.567</ele>
        <time>2018-07-16T11:44:37Z</time>
      </trkpt>
      <trkpt lat="45.540608" lon="6.759062">
        <ele>1361.189</ele>
        <time>2018-07-16T11:44:42Z</time>
      </trkpt>
      <trkpt lat="45.540557" lon="6.759101">
        <ele>1360.274</ele>
        <time>2018-07-16T11:44:46Z</time>
      </trkpt>
      <trkpt lat="45.540516" lon="6.759153">
        <ele>1360.138</ele>
        <time>2018-07-16T11:44:50Z</time>
      </trkpt>
      <trkpt lat="45.540472" lon="6.759209">
        <ele>1361.223</ele>
        <time>2018-07-16T11:44:54Z</time>
      </trkpt>
      <trkpt lat="45.540427" lon="6.759261">
        <ele>1362.332</ele>
        <time>2018-07-16T11:44:58Z</time>
      </trkpt>
      <trkpt lat="45.540382" lon="6.759316">
        <ele>1364.164</ele>
        <time>2018-07-16T11:45:02Z</time>
      </trkpt>
      <trkpt lat="45.540345" lon="6.759358">
        <ele>1366.487</ele>
        <time>2018-07-16T11:45:05Z</time>
      </trkpt>
      <trkpt lat="45.540297" lon="6.759406">
        <ele>1369.042</ele>
        <time>2018-07-16T11:45:09Z</time>
      </trkpt>
      <trkpt lat="45.540257" lon="6.759437">
        <ele>1371.426</ele>
        <time>2018-07-16T11:45:12Z</time>
      </trkpt>
      <trkpt lat="45.540209" lon="6.759481">
        <ele>1374.408</ele>
        <time>2018-07-16T11:45:15Z</time>
      </trkpt>
      <trkpt lat="45.540176" lon="6.759530">
        <ele>1376.660</ele>
        <time>2018-07-16T11:45:18Z</time>
      </trkpt>
      <trkpt lat="45.540130" lon="6.759514">
        <ele>1372.624</ele>
        <time>2018-07-16T11:45:23Z</time>
      </trkpt>
      <trkpt lat="45.540098" lon="6.759452">
        <ele>1368.686</ele>
        <time>2018-07-16T11:45:26Z</time>
      </trkpt>
      <trkpt lat="45.540052" lon="6.759453">
        <ele>1365.191</ele>
        <time>2018-07-16T11:45:31Z</time>
      </trkpt>
      <trkpt lat="45.540044" lon="6.759517">
        <ele>1362.225</ele>
        <time>2018-07-16T11:45:38Z</time>
      </trkpt>
      <trkpt lat="45.539995" lon="6.759558">
        <ele>1361.330</ele>
        <time>2018-07-16T11:45:43Z</time>
      </trkpt>
      <trkpt lat="45.539945" lon="6.759558">
        <ele>1359.579</ele>
        <time>2018-07-16T11:45:47Z</time>
      </trkpt>
      <trkpt lat="45.539896" lon="6.759529">
        <ele>1358.421</ele>
        <time>2018-07-16T11:45:51Z</time>
      </trkpt>
      <trkpt lat="45.539846" lon="6.759540">
        <ele>1357.846</ele>
        <time>2018-07-16T11:45:55Z</time>
      </trkpt>
      <trkpt lat="45.539825" lon="6.759621">
        <ele>1356.688</ele>
        <time>2018-07-16T11:45:59Z</time>
      </trkpt>
      <trkpt lat="45.539786" lon="6.759667">
        <ele>1356.716</ele>
        <time>2018-07-16T11:46:03Z</time>
      </trkpt>
      <trkpt lat="45.539737" lon="6.759693">
        <ele>1357.608</ele>
        <time>2018-07-16T11:46:07Z</time>
      </trkpt>
      <trkpt lat="45.539698" lon="6.759726">
        <ele>1357.766</ele>
        <time>2018-07-16T11:46:11Z</time>
      </trkpt>
      <trkpt lat="45.539654" lon="6.759760">
        <ele>1357.410</ele>
        <time>2018-07-16T11:46:15Z</time>
      </trkpt>
      <trkpt lat="45.539606" lon="6.759775">
        <ele>1356.852</ele>
        <time>2018-07-16T11:46:19Z</time>
      </trkpt>
      <trkpt lat="45.539560" lon="6.759781">
        <ele>1356.467</ele>
        <time>2018-07-16T11:46:23Z</time>
      </trkpt>
      <trkpt lat="45.539512" lon="6.759777">
        <ele>1356.691</ele>
        <time>2018-07-16T11:46:27Z</time>
      </trkpt>
      <trkpt lat="45.539468" lon="6.759759">
        <ele>1356.346</ele>
        <time>2018-07-16T11:46:31Z</time>
      </trkpt>
      <trkpt lat="45.539418" lon="6.759729">
        <ele>1355.755</ele>
        <time>2018-07-16T11:46:36Z</time>
      </trkpt>
      <trkpt lat="45.539379" lon="6.759697">
        <ele>1355.477</ele>
        <time>2018-07-16T11:46:40Z</time>
      </trkpt>
      <trkpt lat="45.539335" lon="6.759668">
        <ele>1353.687</ele>
        <time>2018-07-16T11:46:44Z</time>
      </trkpt>
      <trkpt lat="45.539294" lon="6.759621">
        <ele>1350.942</ele>
        <time>2018-07-16T11:46:49Z</time>
      </trkpt>
      <trkpt lat="45.539259" lon="6.759566">
        <ele>1348.926</ele>
        <time>2018-07-16T11:46:54Z</time>
      </trkpt>
      <trkpt lat="45.539227" lon="6.759517">
        <ele>1348.108</ele>
        <time>2018-07-16T11:46:58Z</time>
      </trkpt>
      <trkpt lat="45.539195" lon="6.759468">
        <ele>1346.410</ele>
        <time>2018-07-16T11:47:07Z</time>
      </trkpt>
      <trkpt lat="45.539157" lon="6.759431">
        <ele>1345.424</ele>
        <time>2018-07-16T11:47:11Z</time>
      </trkpt>
      <trkpt lat="45.539117" lon="6.759393">
        <ele>1346.056</ele>
        <time>2018-07-16T11:47:16Z</time>
      </trkpt>
      <trkpt lat="45.539065" lon="6.759409">
        <ele>1344.061</ele>
        <time>2018-07-16T11:47:22Z</time>
      </trkpt>
      <trkpt lat="45.539017" lon="6.759427">
        <ele>1344.095</ele>
        <time>2018-07-16T11:47:28Z</time>
      </trkpt>
      <trkpt lat="45.538966" lon="6.759400">
        <ele>1345.690</ele>
        <time>2018-07-16T11:48:17Z</time>
      </trkpt>
      <trkpt lat="45.538924" lon="6.759378">
        <ele>1346.629</ele>
        <time>2018-07-16T11:48:21Z</time>
      </trkpt>
      <trkpt lat="45.538877" lon="6.759371">
        <ele>1347.621</ele>
        <time>2018-07-16T11:48:32Z</time>
      </trkpt>
      <trkpt lat="45.538822" lon="6.759350">
        <ele>1348.259</ele>
        <time>2018-07-16T11:48:37Z</time>
      </trkpt>
      <trkpt lat="45.538768" lon="6.759320">
        <ele>1349.703</ele>
        <time>2018-07-16T11:48:42Z</time>
      </trkpt>
      <trkpt lat="45.538731" lon="6.759371">
        <ele>1347.823</ele>
        <time>2018-07-16T11:48:53Z</time>
      </trkpt>
      <trkpt lat="45.538670" lon="6.759427">
        <ele>1345.508</ele>
        <time>2018-07-16T11:48:56Z</time>
      </trkpt>
      <trkpt lat="45.538585" lon="6.759431">
        <ele>1344.137</ele>
        <time>2018-07-16T11:49:04Z</time>
      </trkpt>
      <trkpt lat="45.538579" lon="6.759508">
        <ele>1342.191</ele>
        <time>2018-07-16T11:49:11Z</time>
      </trkpt>
      <trkpt lat="45.538568" lon="6.759576">
        <ele>1341.713</ele>
        <time>2018-07-16T11:49:16Z</time>
      </trkpt>
      <trkpt lat="45.538559" lon="6.759641">
        <ele>1342.628</ele>
        <time>2018-07-16T11:49:20Z</time>
      </trkpt>
      <trkpt lat="45.538539" lon="6.759709">
        <ele>1345.292</ele>
        <time>2018-07-16T11:49:24Z</time>
      </trkpt>
      <trkpt lat="45.538535" lon="6.759781">
        <ele>1345.527</ele>
        <time>2018-07-16T11:49:36Z</time>
      </trkpt>
      <trkpt lat="45.538517" lon="6.759842">
        <ele>1345.346</ele>
        <time>2018-07-16T11:49:40Z</time>
      </trkpt>
      <trkpt lat="45.538498" lon="6.759905">
        <ele>1342.878</ele>
        <time>2018-07-16T11:49:46Z</time>
      </trkpt>
      <trkpt lat="45.538471" lon="6.759960">
        <ele>1341.726</ele>
        <time>2018-07-16T11:49:53Z</time>
      </trkpt>
      <trkpt lat="45.538426" lon="6.759990">
        <ele>1339.447</ele>
        <time>2018-07-16T11:50:02Z</time>
      </trkpt>
      <trkpt lat="45.538394" lon="6.760037">
        <ele>1338.011</ele>
        <time>2018-07-16T11:50:07Z</time>
      </trkpt>
      <trkpt lat="45.538354" lon="6.760075">
        <ele>1338.008</ele>
        <time>2018-07-16T11:50:11Z</time>
      </trkpt>
      <trkpt lat="45.538306" lon="6.760078">
        <ele>1338.414</ele>
        <time>2018-07-16T11:50:17Z</time>
      </trkpt>
      <trkpt lat="45.538259" lon="6.760076">
        <ele>1337.438</ele>
        <time>2018-07-16T11:50:30Z</time>
      </trkpt>
      <trkpt lat="45.538212" lon="6.760039">
        <ele>1335.680</ele>
        <time>2018-07-16T11:50:36Z</time>
      </trkpt>
      <trkpt lat="45.538166" lon="6.760038">
        <ele>1335.365</ele>
        <time>2018-07-16T11:50:40Z</time>
      </trkpt>
      <trkpt lat="45.538125" lon="6.760098">
        <ele>1335.959</ele>
        <time>2018-07-16T11:50:54Z</time>
      </trkpt>
      <trkpt lat="45.538077" lon="6.760117">
        <ele>1337.154</ele>
        <time>2018-07-16T11:51:01Z</time>
      </trkpt>
      <trkpt lat="45.538036" lon="6.760152">
        <ele>1339.043</ele>
        <time>2018-07-16T11:51:08Z</time>
      </trkpt>
      <trkpt lat="45.537996" lon="6.760192">
        <ele>1341.345</ele>
        <time>2018-07-16T11:51:20Z</time>
      </trkpt>
      <trkpt lat="45.537952" lon="6.760234">
        <ele>1344.732</ele>
        <time>2018-07-16T11:51:28Z</time>
      </trkpt>
      <trkpt lat="45.537935" lon="6.760295">
        <ele>1343.992</ele>
        <time>2018-07-16T11:51:35Z</time>
      </trkpt>
      <trkpt lat="45.537920" lon="6.760359">
        <ele>1344.611</ele>
        <time>2018-07-16T11:51:41Z</time>
      </trkpt>
      <trkpt lat="45.537887" lon="6.760408">
        <ele>1344.608</ele>
        <time>2018-07-16T11:51:47Z</time>
      </trkpt>
      <trkpt lat="45.537849" lon="6.760447">
        <ele>1345.835</ele>
        <time>2018-07-16T11:51:53Z</time>
      </trkpt>
      <trkpt lat="45.537805" lon="6.760494">
        <ele>1347.799</ele>
        <time>2018-07-16T11:51:59Z</time>
      </trkpt>
      <trkpt lat="45.537791" lon="6.760558">
        <ele>1348.151</ele>
        <time>2018-07-16T11:52:05Z</time>
      </trkpt>
      <trkpt lat="45.537783" lon="6.760625">
        <ele>1348.316</ele>
        <time>2018-07-16T11:52:12Z</time>
      </trkpt>
      <trkpt lat="45.537776" lon="6.760694">
        <ele>1348.880</ele>
        <time>2018-07-16T11:52:20Z</time>
      </trkpt>
      <trkpt lat="45.537775" lon="6.760759">
        <ele>1347.555</ele>
        <time>2018-07-16T11:52:29Z</time>
      </trkpt>
      <trkpt lat="45.537747" lon="6.760812">
        <ele>1347.994</ele>
        <time>2018-07-16T11:52:36Z</time>
      </trkpt>
      <trkpt lat="45.537718" lon="6.760866">
        <ele>1348.696</ele>
        <time>2018-07-16T11:52:45Z</time>
      </trkpt>
      <trkpt lat="45.537673" lon="6.760893">
        <ele>1349.854</ele>
        <time>2018-07-16T11:52:51Z</time>
      </trkpt>
      <trkpt lat="45.537649" lon="6.760835">
        <ele>1349.356</ele>
        <time>2018-07-16T11:52:55Z</time>
      </trkpt>
      <trkpt lat="45.537601" lon="6.760860">
        <ele>1347.811</ele>
        <time>2018-07-16T11:53:04Z</time>
      </trkpt>
      <trkpt lat="45.537561" lon="6.760916">
        <ele>1346.908</ele>
        <time>2018-07-16T11:53:11Z</time>
      </trkpt>
      <trkpt lat="45.537538" lon="6.760975">
        <ele>1348.047</ele>
        <time>2018-07-16T11:53:15Z</time>
      </trkpt>
      <trkpt lat="45.537499" lon="6.761009">
        <ele>1348.651</ele>
        <time>2018-07-16T11:53:19Z</time>
      </trkpt>
      <trkpt lat="45.537460" lon="6.761041">
        <ele>1351.853</ele>
        <time>2018-07-16T11:53:26Z</time>
      </trkpt>
      <trkpt lat="45.537427" lon="6.761088">
        <ele>1353.728</ele>
        <time>2018-07-16T11:53:33Z</time>
      </trkpt>
      <trkpt lat="45.537403" lon="6.761144">
        <ele>1353.622</ele>
        <time>2018-07-16T11:53:45Z</time>
      </trkpt>
      <trkpt lat="45.537360" lon="6.761181">
        <ele>1355.267</ele>
        <time>2018-07-16T11:53:53Z</time>
      </trkpt>
      <trkpt lat="45.537317" lon="6.761214">
        <ele>1355.386</ele>
        <time>2018-07-16T11:54:02Z</time>
      </trkpt>
      <trkpt lat="45.537272" lon="6.761234">
        <ele>1356.698</ele>
        <time>2018-07-16T11:54:09Z</time>
      </trkpt>
      <trkpt lat="45.537238" lon="6.761290">
        <ele>1359.031</ele>
        <time>2018-07-16T11:54:19Z</time>
      </trkpt>
      <trkpt lat="45.537199" lon="6.761363">
        <ele>1360.461</ele>
        <time>2018-07-16T11:54:56Z</time>
      </trkpt>
      <trkpt lat="45.537138" lon="6.761414">
        <ele>1361.307</ele>
        <time>2018-07-16T11:55:05Z</time>
      </trkpt>
      <trkpt lat="45.537097" lon="6.761454">
        <ele>1361.808</ele>
        <time>2018-07-16T11:55:12Z</time>
      </trkpt>
      <trkpt lat="45.537056" lon="6.761507">
        <ele>1361.745</ele>
        <time>2018-07-16T11:55:20Z</time>
      </trkpt>
      <trkpt lat="45.537033" lon="6.761564">
        <ele>1362.899</ele>
        <time>2018-07-16T11:55:34Z</time>
      </trkpt>
      <trkpt lat="45.536987" lon="6.761581">
        <ele>1363.591</ele>
        <time>2018-07-16T11:55:40Z</time>
      </trkpt>
      <trkpt lat="45.536932" lon="6.761604">
        <ele>1365.516</ele>
        <time>2018-07-16T11:55:47Z</time>
      </trkpt>
      <trkpt lat="45.536882" lon="6.761615">
        <ele>1365.960</ele>
        <time>2018-07-16T11:56:02Z</time>
      </trkpt>
      <trkpt lat="45.536833" lon="6.761654">
        <ele>1366.155</ele>
        <time>2018-07-16T11:56:13Z</time>
      </trkpt>
      <trkpt lat="45.536786" lon="6.761672">
        <ele>1368.224</ele>
        <time>2018-07-16T11:56:20Z</time>
      </trkpt>
      <trkpt lat="45.536748" lon="6.761713">
        <ele>1368.336</ele>
        <time>2018-07-16T11:56:25Z</time>
      </trkpt>
      <trkpt lat="45.536705" lon="6.761741">
        <ele>1370.077</ele>
        <time>2018-07-16T11:56:31Z</time>
      </trkpt>
      <trkpt lat="45.536655" lon="6.761764">
        <ele>1373.861</ele>
        <time>2018-07-16T11:56:42Z</time>
      </trkpt>
      <trkpt lat="45.536609" lon="6.761797">
        <ele>1374.527</ele>
        <time>2018-07-16T11:56:52Z</time>
      </trkpt>
      <trkpt lat="45.536575" lon="6.761841">
        <ele>1374.508</ele>
        <time>2018-07-16T11:57:01Z</time>
      </trkpt>
      <trkpt lat="45.536534" lon="6.761879">
        <ele>1374.529</ele>
        <time>2018-07-16T11:57:09Z</time>
      </trkpt>
      <trkpt lat="45.536484" lon="6.761909">
        <ele>1376.133</ele>
        <time>2018-07-16T11:57:16Z</time>
      </trkpt>
      <trkpt lat="45.536442" lon="6.761962">
        <ele>1376.775</ele>
        <time>2018-07-16T11:57:21Z</time>
      </trkpt>
      <trkpt lat="45.536402" lon="6.762007">
        <ele>1375.060</ele>
        <time>2018-07-16T11:57:27Z</time>
      </trkpt>
      <trkpt lat="45.536356" lon="6.762040">
        <ele>1373.614</ele>
        <time>2018-07-16T11:57:33Z</time>
      </trkpt>
      <trkpt lat="45.536312" lon="6.762083">
        <ele>1372.889</ele>
        <time>2018-07-16T11:57:38Z</time>
      </trkpt>
      <trkpt lat="45.536269" lon="6.762117">
        <ele>1371.578</ele>
        <time>2018-07-16T11:57:44Z</time>
      </trkpt>
      <trkpt lat="45.536221" lon="6.762136">
        <ele>1373.530</ele>
        <time>2018-07-16T11:57:49Z</time>
      </trkpt>
      <trkpt lat="45.536185" lon="6.762178">
        <ele>1374.769</ele>
        <time>2018-07-16T11:57:53Z</time>
      </trkpt>
      <trkpt lat="45.536164" lon="6.762248">
        <ele>1375.404</ele>
        <time>2018-07-16T11:57:58Z</time>
      </trkpt>
      <trkpt lat="45.536126" lon="6.762305">
        <ele>1377.024</ele>
        <time>2018-07-16T11:58:03Z</time>
      </trkpt>
      <trkpt lat="45.536094" lon="6.762351">
        <ele>1379.208</ele>
        <time>2018-07-16T11:58:08Z</time>
      </trkpt>
      <trkpt lat="45.536063" lon="6.762404">
        <ele>1380.948</ele>
        <time>2018-07-16T11:58:13Z</time>
      </trkpt>
      <trkpt lat="45.536021" lon="6.762427">
        <ele>1383.532</ele>
        <time>2018-07-16T11:58:17Z</time>
      </trkpt>
      <trkpt lat="45.536003" lon="6.762494">
        <ele>1385.574</ele>
        <time>2018-07-16T11:58:24Z</time>
      </trkpt>
      <trkpt lat="45.535992" lon="6.762562">
        <ele>1387.169</ele>
        <time>2018-07-16T11:58:31Z</time>
      </trkpt>
      <trkpt lat="45.535956" lon="6.762618">
        <ele>1388.123</ele>
        <time>2018-07-16T11:58:38Z</time>
      </trkpt>
      <trkpt lat="45.535915" lon="6.762650">
        <ele>1387.518</ele>
        <time>2018-07-16T11:58:42Z</time>
      </trkpt>
      <trkpt lat="45.535901" lon="6.762712">
        <ele>1387.917</ele>
        <time>2018-07-16T11:58:52Z</time>
      </trkpt>
      <trkpt lat="45.535886" lon="6.762777">
        <ele>1387.489</ele>
        <time>2018-07-16T11:58:57Z</time>
      </trkpt>
      <trkpt lat="45.535866" lon="6.762837">
        <ele>1387.939</ele>
        <time>2018-07-16T11:59:03Z</time>
      </trkpt>
      <trkpt lat="45.535859" lon="6.762908">
        <ele>1387.801</ele>
        <time>2018-07-16T11:59:09Z</time>
      </trkpt>
      <trkpt lat="45.535844" lon="6.762975">
        <ele>1388.521</ele>
        <time>2018-07-16T11:59:17Z</time>
      </trkpt>
      <trkpt lat="45.535821" lon="6.763040">
        <ele>1388.908</ele>
        <time>2018-07-16T11:59:24Z</time>
      </trkpt>
      <trkpt lat="45.535806" lon="6.763101">
        <ele>1387.655</ele>
        <time>2018-07-16T11:59:30Z</time>
      </trkpt>
      <trkpt lat="45.535783" lon="6.763166">
        <ele>1386.099</ele>
        <time>2018-07-16T11:59:39Z</time>
      </trkpt>
      <trkpt lat="45.535754" lon="6.763217">
        <ele>1385.451</ele>
        <time>2018-07-16T11:59:45Z</time>
      </trkpt>
      <trkpt lat="45.535768" lon="6.763287">
        <ele>1385.916</ele>
        <time>2018-07-16T11:59:50Z</time>
      </trkpt>
      <trkpt lat="45.535771" lon="6.763354">
        <ele>1385.460</ele>
        <time>2018-07-16T11:59:56Z</time>
      </trkpt>
      <trkpt lat="45.535737" lon="6.763410">
        <ele>1385.565</ele>
        <time>2018-07-16T12:00:04Z</time>
      </trkpt>
      <trkpt lat="45.535720" lon="6.763470">
        <ele>1385.624</ele>
        <time>2018-07-16T12:00:13Z</time>
      </trkpt>
      <trkpt lat="45.535681" lon="6.763510">
        <ele>1387.286</ele>
        <time>2018-07-16T12:00:22Z</time>
      </trkpt>
      <trkpt lat="45.535654" lon="6.763563">
        <ele>1387.492</ele>
        <time>2018-07-16T12:00:32Z</time>
      </trkpt>
      <trkpt lat="45.535635" lon="6.763622">
        <ele>1389.573</ele>
        <time>2018-07-16T12:00:42Z</time>
      </trkpt>
      <trkpt lat="45.535607" lon="6.763685">
        <ele>1392.420</ele>
        <time>2018-07-16T12:00:49Z</time>
      </trkpt>
      <trkpt lat="45.535591" lon="6.763749">
        <ele>1394.508</ele>
        <time>2018-07-16T12:00:55Z</time>
      </trkpt>
      <trkpt lat="45.535571" lon="6.763819">
        <ele>1396.231</ele>
        <time>2018-07-16T12:01:03Z</time>
      </trkpt>
      <trkpt lat="45.535519" lon="6.763836">
        <ele>1398.415</ele>
        <time>2018-07-16T12:01:11Z</time>
      </trkpt>
      <trkpt lat="45.535496" lon="6.763894">
        <ele>1401.397</ele>
        <time>2018-07-16T12:01:18Z</time>
      </trkpt>
      <trkpt lat="45.535489" lon="6.763968">
        <ele>1403.572</ele>
        <time>2018-07-16T12:01:26Z</time>
      </trkpt>
      <trkpt lat="45.535456" lon="6.764019">
        <ele>1404.486</ele>
        <time>2018-07-16T12:01:32Z</time>
      </trkpt>
      <trkpt lat="45.535419" lon="6.764056">
        <ele>1406.511</ele>
        <time>2018-07-16T12:01:45Z</time>
      </trkpt>
      <trkpt lat="45.535388" lon="6.764107">
        <ele>1409.090</ele>
        <time>2018-07-16T12:01:52Z</time>
      </trkpt>
      <trkpt lat="45.535349" lon="6.764140">
        <ele>1410.172</ele>
        <time>2018-07-16T12:01:56Z</time>
      </trkpt>
      <trkpt lat="45.535301" lon="6.764167">
        <ele>1413.686</ele>
        <time>2018-07-16T12:02:00Z</time>
      </trkpt>
      <trkpt lat="45.535278" lon="6.764227">
        <ele>1414.160</ele>
        <time>2018-07-16T12:02:14Z</time>
      </trkpt>
      <trkpt lat="45.535228" lon="6.764258">
        <ele>1413.626</ele>
        <time>2018-07-16T12:02:22Z</time>
      </trkpt>
      <trkpt lat="45.535183" lon="6.764286">
        <ele>1413.708</ele>
        <time>2018-07-16T12:02:27Z</time>
      </trkpt>
      <trkpt lat="45.535139" lon="6.764323">
        <ele>1412.230</ele>
        <time>2018-07-16T12:02:37Z</time>
      </trkpt>
      <trkpt lat="45.535116" lon="6.764382">
        <ele>1412.144</ele>
        <time>2018-07-16T12:02:44Z</time>
      </trkpt>
      <trkpt lat="45.535099" lon="6.764447">
        <ele>1410.836</ele>
        <time>2018-07-16T12:02:56Z</time>
      </trkpt>
      <trkpt lat="45.535060" lon="6.764487">
        <ele>1408.881</ele>
        <time>2018-07-16T12:03:03Z</time>
      </trkpt>
      <trkpt lat="45.535029" lon="6.764540">
        <ele>1406.065</ele>
        <time>2018-07-16T12:03:10Z</time>
      </trkpt>
      <trkpt lat="45.534988" lon="6.764572">
        <ele>1404.740</ele>
        <time>2018-07-16T12:03:16Z</time>
      </trkpt>
      <trkpt lat="45.534953" lon="6.764625">
        <ele>1405.189</ele>
        <time>2018-07-16T12:03:22Z</time>
      </trkpt>
      <trkpt lat="45.534911" lon="6.764651">
        <ele>1405.071</ele>
        <time>2018-07-16T12:03:29Z</time>
      </trkpt>
      <trkpt lat="45.534878" lon="6.764703">
        <ele>1406.187</ele>
        <time>2018-07-16T12:03:35Z</time>
      </trkpt>
      <trkpt lat="45.534861" lon="6.764771">
        <ele>1405.242</ele>
        <time>2018-07-16T12:03:41Z</time>
      </trkpt>
      <trkpt lat="45.534843" lon="6.764834">
        <ele>1406.226</ele>
        <time>2018-07-16T12:03:45Z</time>
      </trkpt>
      <trkpt lat="45.534818" lon="6.764888">
        <ele>1407.208</ele>
        <time>2018-07-16T12:03:49Z</time>
      </trkpt>
      <trkpt lat="45.534798" lon="6.764946">
        <ele>1407.860</ele>
        <time>2018-07-16T12:03:55Z</time>
      </trkpt>
      <trkpt lat="45.534758" lon="6.764996">
        <ele>1410.654</ele>
        <time>2018-07-16T12:04:01Z</time>
      </trkpt>
      <trkpt lat="45.534748" lon="6.765066">
        <ele>1411.136</ele>
        <time>2018-07-16T12:04:07Z</time>
      </trkpt>
      <trkpt lat="45.534738" lon="6.765134">
        <ele>1409.851</ele>
        <time>2018-07-16T12:04:13Z</time>
      </trkpt>
      <trkpt lat="45.534722" lon="6.765200">
        <ele>1409.495</ele>
        <time>2018-07-16T12:04:19Z</time>
      </trkpt>
      <trkpt lat="45.534715" lon="6.765266">
        <ele>1409.230</ele>
        <time>2018-07-16T12:04:25Z</time>
      </trkpt>
      <trkpt lat="45.534681" lon="6.765316">
        <ele>1409.929</ele>
        <time>2018-07-16T12:04:30Z</time>
      </trkpt>
      <trkpt lat="45.534654" lon="6.765374">
        <ele>1408.711</ele>
        <time>2018-07-16T12:04:36Z</time>
      </trkpt>
      <trkpt lat="45.534637" lon="6.765441">
        <ele>1410.498</ele>
        <time>2018-07-16T12:04:45Z</time>
      </trkpt>
      <trkpt lat="45.534617" lon="6.765511">
        <ele>1413.815</ele>
        <time>2018-07-16T12:06:06Z</time>
      </trkpt>
      <trkpt lat="45.534605" lon="6.765574">
        <ele>1415.826</ele>
        <time>2018-07-16T12:06:12Z</time>
      </trkpt>
      <trkpt lat="45.534581" lon="6.765636">
        <ele>1417.408</ele>
        <time>2018-07-16T12:06:20Z</time>
      </trkpt>
      <trkpt lat="45.534539" lon="6.765685">
        <ele>1419.661</ele>
        <time>2018-07-16T12:06:32Z</time>
      </trkpt>
      <trkpt lat="45.534516" lon="6.765746">
        <ele>1422.595</ele>
        <time>2018-07-16T12:06:43Z</time>
      </trkpt>
      <trkpt lat="45.534499" lon="6.765810">
        <ele>1425.497</ele>
        <time>2018-07-16T12:06:56Z</time>
      </trkpt>
      <trkpt lat="45.534459" lon="6.765874">
        <ele>1428.022</ele>
        <time>2018-07-16T12:07:08Z</time>
      </trkpt>
      <trkpt lat="45.534445" lon="6.765949">
        <ele>1429.936</ele>
        <time>2018-07-16T12:07:15Z</time>
      </trkpt>
      <trkpt lat="45.534410" lon="6.766042">
        <ele>1430.721</ele>
        <time>2018-07-16T12:07:28Z</time>
      </trkpt>
      <trkpt lat="45.534371" lon="6.766108">
        <ele>1432.080</ele>
        <time>2018-07-16T12:07:43Z</time>
      </trkpt>
      <trkpt lat="45.534334" lon="6.766172">
        <ele>1435.692</ele>
        <time>2018-07-16T12:07:58Z</time>
      </trkpt>
      <trkpt lat="45.534284" lon="6.766214">
        <ele>1436.566</ele>
        <time>2018-07-16T12:08:13Z</time>
      </trkpt>
      <trkpt lat="45.534256" lon="6.766279">
        <ele>1437.929</ele>
        <time>2018-07-16T12:08:23Z</time>
      </trkpt>
      <trkpt lat="45.534222" lon="6.766325">
        <ele>1438.321</ele>
        <time>2018-07-16T12:08:27Z</time>
      </trkpt>
      <trkpt lat="45.534185" lon="6.766363">
        <ele>1439.708</ele>
        <time>2018-07-16T12:08:42Z</time>
      </trkpt>
      <trkpt lat="45.534167" lon="6.766427">
        <ele>1440.678</ele>
        <time>2018-07-16T12:08:59Z</time>
      </trkpt>
      <trkpt lat="45.534105" lon="6.766487">
        <ele>1443.182</ele>
        <time>2018-07-16T12:09:25Z</time>
      </trkpt>
      <trkpt lat="45.534073" lon="6.766534">
        <ele>1440.684</ele>
        <time>2018-07-16T12:09:36Z</time>
      </trkpt>
      <trkpt lat="45.534038" lon="6.766580">
        <ele>1438.729</ele>
        <time>2018-07-16T12:09:44Z</time>
      </trkpt>
      <trkpt lat="45.533990" lon="6.766618">
        <ele>1439.263</ele>
        <time>2018-07-16T12:09:55Z</time>
      </trkpt>
      <trkpt lat="45.533943" lon="6.766634">
        <ele>1435.918</ele>
        <time>2018-07-16T12:10:03Z</time>
      </trkpt>
      <trkpt lat="45.533914" lon="6.766689">
        <ele>1435.957</ele>
        <time>2018-07-16T12:10:13Z</time>
      </trkpt>
      <trkpt lat="45.533891" lon="6.766744">
        <ele>1436.749</ele>
        <time>2018-07-16T12:10:20Z</time>
      </trkpt>
      <trkpt lat="45.533884" lon="6.766812">
        <ele>1437.224</ele>
        <time>2018-07-16T12:10:33Z</time>
      </trkpt>
      <trkpt lat="45.533860" lon="6.766867">
        <ele>1437.104</ele>
        <time>2018-07-16T12:10:42Z</time>
      </trkpt>
      <trkpt lat="45.533813" lon="6.766888">
        <ele>1439.014</ele>
        <time>2018-07-16T12:10:50Z</time>
      </trkpt>
      <trkpt lat="45.533769" lon="6.766876">
        <ele>1440.208</ele>
        <time>2018-07-16T12:10:57Z</time>
      </trkpt>
      <trkpt lat="45.533721" lon="6.766891">
        <ele>1441.344</ele>
        <time>2018-07-16T12:11:05Z</time>
      </trkpt>
      <trkpt lat="45.533680" lon="6.766926">
        <ele>1443.248</ele>
        <time>2018-07-16T12:11:17Z</time>
      </trkpt>
      <trkpt lat="45.533651" lon="6.766978">
        <ele>1444.350</ele>
        <time>2018-07-16T12:11:28Z</time>
      </trkpt>
      <trkpt lat="45.533614" lon="6.767022">
        <ele>1443.455</ele>
        <time>2018-07-16T12:11:42Z</time>
      </trkpt>
      <trkpt lat="45.533567" lon="6.767034">
        <ele>1445.289</ele>
        <time>2018-07-16T12:11:50Z</time>
      </trkpt>
      <trkpt lat="45.533536" lon="6.767080">
        <ele>1447.174</ele>
        <time>2018-07-16T12:11:58Z</time>
      </trkpt>
      <trkpt lat="45.533495" lon="6.767123">
        <ele>1449.843</ele>
        <time>2018-07-16T12:12:09Z</time>
      </trkpt>
      <trkpt lat="45.533464" lon="6.767179">
        <ele>1452.615</ele>
        <time>2018-07-16T12:12:14Z</time>
      </trkpt>
      <trkpt lat="45.533439" lon="6.767236">
        <ele>1453.991</ele>
        <time>2018-07-16T12:12:31Z</time>
      </trkpt>
      <trkpt lat="45.533411" lon="6.767288">
        <ele>1457.981</ele>
        <time>2018-07-16T12:13:12Z</time>
      </trkpt>
      <trkpt lat="45.533367" lon="6.767310">
        <ele>1461.919</ele>
        <time>2018-07-16T12:13:22Z</time>
      </trkpt>
      <trkpt lat="45.533319" lon="6.767319">
        <ele>1465.908</ele>
        <time>2018-07-16T12:13:33Z</time>
      </trkpt>
      <trkpt lat="45.533287" lon="6.767365">
        <ele>1469.951</ele>
        <time>2018-07-16T12:13:40Z</time>
      </trkpt>
      <trkpt lat="45.533248" lon="6.767408">
        <ele>1473.925</ele>
        <time>2018-07-16T12:13:59Z</time>
      </trkpt>
      <trkpt lat="45.533208" lon="6.767451">
        <ele>1477.957</ele>
        <time>2018-07-16T12:14:08Z</time>
      </trkpt>
      <trkpt lat="45.533145" lon="6.767558">
        <ele>1481.922</ele>
        <time>2018-07-16T12:14:34Z</time>
      </trkpt>
      <trkpt lat="45.533106" lon="6.767594">
        <ele>1485.946</ele>
        <time>2018-07-16T12:14:36Z</time>
      </trkpt>
      <trkpt lat="45.533061" lon="6.767601">
        <ele>1489.961</ele>
        <time>2018-07-16T12:14:52Z</time>
      </trkpt>
      <trkpt lat="45.533009" lon="6.767614">
        <ele>1493.980</ele>
        <time>2018-07-16T12:15:08Z</time>
      </trkpt>
      <trkpt lat="45.533000" lon="6.767680">
        <ele>1494.792</ele>
        <time>2018-07-16T12:15:42Z</time>
      </trkpt>
      <trkpt lat="45.533010" lon="6.767751">
        <ele>1496.071</ele>
        <time>2018-07-16T12:15:49Z</time>
      </trkpt>
      <trkpt lat="45.533009" lon="6.767820">
        <ele>1497.241</ele>
        <time>2018-07-16T12:15:56Z</time>
      </trkpt>
      <trkpt lat="45.532979" lon="6.767870">
        <ele>1495.515</ele>
        <time>2018-07-16T12:16:00Z</time>
      </trkpt>
      <trkpt lat="45.532939" lon="6.767912">
        <ele>1494.508</ele>
        <time>2018-07-16T12:16:03Z</time>
      </trkpt>
      <trkpt lat="45.532912" lon="6.767974">
        <ele>1493.529</ele>
        <time>2018-07-16T12:16:07Z</time>
      </trkpt>
      <trkpt lat="45.532933" lon="6.768037">
        <ele>1493.783</ele>
        <time>2018-07-16T12:16:11Z</time>
      </trkpt>
      <trkpt lat="45.532970" lon="6.768094">
        <ele>1494.245</ele>
        <time>2018-07-16T12:16:15Z</time>
      </trkpt>
      <trkpt lat="45.532969" lon="6.768163">
        <ele>1494.170</ele>
        <time>2018-07-16T12:16:20Z</time>
      </trkpt>
      <trkpt lat="45.532946" lon="6.768227">
        <ele>1492.844</ele>
        <time>2018-07-16T12:16:25Z</time>
      </trkpt>
      <trkpt lat="45.532945" lon="6.768298">
        <ele>1492.079</ele>
        <time>2018-07-16T12:16:31Z</time>
      </trkpt>
      <trkpt lat="45.532954" lon="6.768365">
        <ele>1492.358</ele>
        <time>2018-07-16T12:16:38Z</time>
      </trkpt>
      <trkpt lat="45.532956" lon="6.768437">
        <ele>1492.940</ele>
        <time>2018-07-16T12:16:46Z</time>
      </trkpt>
      <trkpt lat="45.532993" lon="6.768493">
        <ele>1493.766</ele>
        <time>2018-07-16T12:16:54Z</time>
      </trkpt>
      <trkpt lat="45.532963" lon="6.768555">
        <ele>1492.629</ele>
        <time>2018-07-16T12:17:01Z</time>
      </trkpt>
      <trkpt lat="45.532949" lon="6.768626">
        <ele>1491.921</ele>
        <time>2018-07-16T12:17:06Z</time>
      </trkpt>
      <trkpt lat="45.532924" lon="6.768702">
        <ele>1493.108</ele>
        <time>2018-07-16T12:17:11Z</time>
      </trkpt>
      <trkpt lat="45.532890" lon="6.768753">
        <ele>1492.638</ele>
        <time>2018-07-16T12:17:14Z</time>
      </trkpt>
      <trkpt lat="45.532868" lon="6.768825">
        <ele>1491.542</ele>
        <time>2018-07-16T12:17:20Z</time>
      </trkpt>
      <trkpt lat="45.532838" lon="6.768881">
        <ele>1491.624</ele>
        <time>2018-07-16T12:17:25Z</time>
      </trkpt>
      <trkpt lat="45.532794" lon="6.768919">
        <ele>1491.749</ele>
        <time>2018-07-16T12:17:28Z</time>
      </trkpt>
      <trkpt lat="45.532791" lon="6.768983">
        <ele>1492.683</ele>
        <time>2018-07-16T12:17:36Z</time>
      </trkpt>
      <trkpt lat="45.532812" lon="6.769044">
        <ele>1493.588</ele>
        <time>2018-07-16T12:17:42Z</time>
      </trkpt>
      <trkpt lat="45.532828" lon="6.769111">
        <ele>1495.297</ele>
        <time>2018-07-16T12:17:47Z</time>
      </trkpt>
      <trkpt lat="45.532855" lon="6.769186">
        <ele>1497.479</ele>
        <time>2018-07-16T12:17:51Z</time>
      </trkpt>
      <trkpt lat="45.532906" lon="6.769219">
        <ele>1499.589</ele>
        <time>2018-07-16T12:17:53Z</time>
      </trkpt>
      <trkpt lat="45.532907" lon="6.769288">
        <ele>1501.206</ele>
        <time>2018-07-16T12:17:58Z</time>
      </trkpt>
      <trkpt lat="45.532865" lon="6.769339">
        <ele>1501.826</ele>
        <time>2018-07-16T12:18:02Z</time>
      </trkpt>
      <trkpt lat="45.532840" lon="6.769397">
        <ele>1502.208</ele>
        <time>2018-07-16T12:18:07Z</time>
      </trkpt>
      <trkpt lat="45.532804" lon="6.769446">
        <ele>1502.020</ele>
        <time>2018-07-16T12:18:12Z</time>
      </trkpt>
      <trkpt lat="45.532766" lon="6.769485">
        <ele>1501.534</ele>
        <time>2018-07-16T12:18:15Z</time>
      </trkpt>
      <trkpt lat="45.532731" lon="6.769531">
        <ele>1501.686</ele>
        <time>2018-07-16T12:18:18Z</time>
      </trkpt>
      <trkpt lat="45.532725" lon="6.769599">
        <ele>1501.781</ele>
        <time>2018-07-16T12:18:22Z</time>
      </trkpt>
      <trkpt lat="45.532746" lon="6.769663">
        <ele>1502.175</ele>
        <time>2018-07-16T12:18:26Z</time>
      </trkpt>
      <trkpt lat="45.532747" lon="6.769727">
        <ele>1502.840</ele>
        <time>2018-07-16T12:18:31Z</time>
      </trkpt>
      <trkpt lat="45.532699" lon="6.769770">
        <ele>1501.669</ele>
        <time>2018-07-16T12:18:34Z</time>
      </trkpt>
      <trkpt lat="45.532661" lon="6.769809">
        <ele>1502.181</ele>
        <time>2018-07-16T12:18:37Z</time>
      </trkpt>
      <trkpt lat="45.532615" lon="6.769852">
        <ele>1502.898</ele>
        <time>2018-07-16T12:18:41Z</time>
      </trkpt>
      <trkpt lat="45.532575" lon="6.769882">
        <ele>1502.415</ele>
        <time>2018-07-16T12:18:44Z</time>
      </trkpt>
      <trkpt lat="45.532528" lon="6.769930">
        <ele>1501.826</ele>
        <time>2018-07-16T12:18:48Z</time>
      </trkpt>
      <trkpt lat="45.532477" lon="6.769980">
        <ele>1502.208</ele>
        <time>2018-07-16T12:18:52Z</time>
      </trkpt>
      <trkpt lat="45.532454" lon="6.770043">
        <ele>1504.181</ele>
        <time>2018-07-16T12:18:56Z</time>
      </trkpt>
      <trkpt lat="45.532440" lon="6.770109">
        <ele>1506.045</ele>
        <time>2018-07-16T12:19:00Z</time>
      </trkpt>
      <trkpt lat="45.532405" lon="6.770173">
        <ele>1508.737</ele>
        <time>2018-07-16T12:19:04Z</time>
      </trkpt>
      <trkpt lat="45.532385" lon="6.770235">
        <ele>1510.382</ele>
        <time>2018-07-16T12:19:08Z</time>
      </trkpt>
      <trkpt lat="45.532367" lon="6.770294">
        <ele>1512.596</ele>
        <time>2018-07-16T12:19:12Z</time>
      </trkpt>
      <trkpt lat="45.532385" lon="6.770358">
        <ele>1509.071</ele>
        <time>2018-07-16T12:19:24Z</time>
      </trkpt>
      <trkpt lat="45.532425" lon="6.770414">
        <ele>1505.720</ele>
        <time>2018-07-16T12:19:31Z</time>
      </trkpt>
      <trkpt lat="45.532472" lon="6.770440">
        <ele>1502.122</ele>
        <time>2018-07-16T12:19:35Z</time>
      </trkpt>
      <trkpt lat="45.532425" lon="6.770498">
        <ele>1502.031</ele>
        <time>2018-07-16T12:19:42Z</time>
      </trkpt>
      <trkpt lat="45.532394" lon="6.770549">
        <ele>1503.561</ele>
        <time>2018-07-16T12:19:48Z</time>
      </trkpt>
      <trkpt lat="45.532365" lon="6.770603">
        <ele>1501.607</ele>
        <time>2018-07-16T12:20:03Z</time>
      </trkpt>
      <trkpt lat="45.532321" lon="6.770625">
        <ele>1499.708</ele>
        <time>2018-07-16T12:20:29Z</time>
      </trkpt>
      <trkpt lat="45.532319" lon="6.770699">
        <ele>1500.155</ele>
        <time>2018-07-16T12:20:34Z</time>
      </trkpt>
      <trkpt lat="45.532329" lon="6.770762">
        <ele>1500.489</ele>
        <time>2018-07-16T12:20:38Z</time>
      </trkpt>
      <trkpt lat="45.532329" lon="6.770838">
        <ele>1500.671</ele>
        <time>2018-07-16T12:20:43Z</time>
      </trkpt>
      <trkpt lat="45.532330" lon="6.770903">
        <ele>1501.196</ele>
        <time>2018-07-16T12:20:47Z</time>
      </trkpt>
      <trkpt lat="45.532318" lon="6.770967">
        <ele>1500.670</ele>
        <time>2018-07-16T12:20:51Z</time>
      </trkpt>
      <trkpt lat="45.532278" lon="6.771008">
        <ele>1497.175</ele>
        <time>2018-07-16T12:20:54Z</time>
      </trkpt>
      <trkpt lat="45.532236" lon="6.771053">
        <ele>1495.474</ele>
        <time>2018-07-16T12:20:58Z</time>
      </trkpt>
      <trkpt lat="45.532262" lon="6.771131">
        <ele>1496.886</ele>
        <time>2018-07-16T12:21:04Z</time>
      </trkpt>
      <trkpt lat="45.532292" lon="6.771192">
        <ele>1498.043</ele>
        <time>2018-07-16T12:21:08Z</time>
      </trkpt>
      <trkpt lat="45.532281" lon="6.771269">
        <ele>1497.964</ele>
        <time>2018-07-16T12:21:12Z</time>
      </trkpt>
      <trkpt lat="45.532242" lon="6.771326">
        <ele>1495.910</ele>
        <time>2018-07-16T12:21:16Z</time>
      </trkpt>
      <trkpt lat="45.532201" lon="6.771358">
        <ele>1493.508</ele>
        <time>2018-07-16T12:21:18Z</time>
      </trkpt>
      <trkpt lat="45.532169" lon="6.771407">
        <ele>1492.016</ele>
        <time>2018-07-16T12:21:21Z</time>
      </trkpt>
      <trkpt lat="45.532148" lon="6.771472">
        <ele>1492.340</ele>
        <time>2018-07-16T12:21:25Z</time>
      </trkpt>
      <trkpt lat="45.532152" lon="6.771554">
        <ele>1492.972</ele>
        <time>2018-07-16T12:21:29Z</time>
      </trkpt>
      <trkpt lat="45.532132" lon="6.771624">
        <ele>1492.977</ele>
        <time>2018-07-16T12:21:33Z</time>
      </trkpt>
      <trkpt lat="45.532109" lon="6.771680">
        <ele>1493.331</ele>
        <time>2018-07-16T12:21:36Z</time>
      </trkpt>
      <trkpt lat="45.532075" lon="6.771750">
        <ele>1494.336</ele>
        <time>2018-07-16T12:21:40Z</time>
      </trkpt>
      <trkpt lat="45.532054" lon="6.771814">
        <ele>1493.325</ele>
        <time>2018-07-16T12:21:44Z</time>
      </trkpt>
      <trkpt lat="45.532035" lon="6.771883">
        <ele>1490.767</ele>
        <time>2018-07-16T12:21:50Z</time>
      </trkpt>
      <trkpt lat="45.532002" lon="6.771983">
        <ele>1492.356</ele>
        <time>2018-07-16T12:22:07Z</time>
      </trkpt>
      <trkpt lat="45.531990" lon="6.772046">
        <ele>1495.759</ele>
        <time>2018-07-16T12:22:30Z</time>
      </trkpt>
      <trkpt lat="45.532041" lon="6.772051">
        <ele>1499.714</ele>
        <time>2018-07-16T12:23:37Z</time>
      </trkpt>
      <trkpt lat="45.531988" lon="6.772063">
        <ele>1498.508</ele>
        <time>2018-07-16T12:24:21Z</time>
      </trkpt>
      <trkpt lat="45.531940" lon="6.772092">
        <ele>1497.067</ele>
        <time>2018-07-16T12:24:26Z</time>
      </trkpt>
      <trkpt lat="45.531900" lon="6.772124">
        <ele>1493.781</ele>
        <time>2018-07-16T12:24:38Z</time>
      </trkpt>
      <trkpt lat="45.531860" lon="6.772174">
        <ele>1491.753</ele>
        <time>2018-07-16T12:24:47Z</time>
      </trkpt>
      <trkpt lat="45.531831" lon="6.772233">
        <ele>1490.588</ele>
        <time>2018-07-16T12:24:53Z</time>
      </trkpt>
      <trkpt lat="45.531814" lon="6.772307">
        <ele>1490.262</ele>
        <time>2018-07-16T12:24:58Z</time>
      </trkpt>
      <trkpt lat="45.531793" lon="6.772371">
        <ele>1490.077</ele>
        <time>2018-07-16T12:25:03Z</time>
      </trkpt>
      <trkpt lat="45.531783" lon="6.772444">
        <ele>1489.186</ele>
        <time>2018-07-16T12:25:09Z</time>
      </trkpt>
      <trkpt lat="45.531770" lon="6.772508">
        <ele>1487.818</ele>
        <time>2018-07-16T12:25:15Z</time>
      </trkpt>
      <trkpt lat="45.531739" lon="6.772567">
        <ele>1485.839</ele>
        <time>2018-07-16T12:25:25Z</time>
      </trkpt>
      <trkpt lat="45.531705" lon="6.772623">
        <ele>1485.001</ele>
        <time>2018-07-16T12:25:31Z</time>
      </trkpt>
      <trkpt lat="45.531676" lon="6.772683">
        <ele>1484.921</ele>
        <time>2018-07-16T12:25:38Z</time>
      </trkpt>
      <trkpt lat="45.531638" lon="6.772732">
        <ele>1483.708</ele>
        <time>2018-07-16T12:25:45Z</time>
      </trkpt>
      <trkpt lat="45.531601" lon="6.772776">
        <ele>1484.655</ele>
        <time>2018-07-16T12:25:50Z</time>
      </trkpt>
      <trkpt lat="45.531560" lon="6.772809">
        <ele>1485.949</ele>
        <time>2018-07-16T12:25:57Z</time>
      </trkpt>
      <trkpt lat="45.531512" lon="6.772844">
        <ele>1486.371</ele>
        <time>2018-07-16T12:26:02Z</time>
      </trkpt>
      <trkpt lat="45.531476" lon="6.772886">
        <ele>1488.576</ele>
        <time>2018-07-16T12:26:06Z</time>
      </trkpt>
      <trkpt lat="45.531459" lon="6.772960">
        <ele>1491.490</ele>
        <time>2018-07-16T12:26:11Z</time>
      </trkpt>
      <trkpt lat="45.531444" lon="6.773026">
        <ele>1492.885</ele>
        <time>2018-07-16T12:26:16Z</time>
      </trkpt>
      <trkpt lat="45.531422" lon="6.773091">
        <ele>1494.044</ele>
        <time>2018-07-16T12:26:23Z</time>
      </trkpt>
      <trkpt lat="45.531431" lon="6.773164">
        <ele>1495.966</ele>
        <time>2018-07-16T12:26:29Z</time>
      </trkpt>
      <trkpt lat="45.531447" lon="6.773233">
        <ele>1496.341</ele>
        <time>2018-07-16T12:26:36Z</time>
      </trkpt>
      <trkpt lat="45.531448" lon="6.773300">
        <ele>1497.781</ele>
        <time>2018-07-16T12:26:42Z</time>
      </trkpt>
      <trkpt lat="45.531435" lon="6.773362">
        <ele>1498.909</ele>
        <time>2018-07-16T12:26:49Z</time>
      </trkpt>
      <trkpt lat="45.531407" lon="6.773413">
        <ele>1498.408</ele>
        <time>2018-07-16T12:26:55Z</time>
      </trkpt>
      <trkpt lat="45.531383" lon="6.773469">
        <ele>1497.336</ele>
        <time>2018-07-16T12:27:00Z</time>
      </trkpt>
      <trkpt lat="45.531385" lon="6.773537">
        <ele>1497.130</ele>
        <time>2018-07-16T12:27:05Z</time>
      </trkpt>
      <trkpt lat="45.531393" lon="6.773614">
        <ele>1497.862</ele>
        <time>2018-07-16T12:27:11Z</time>
      </trkpt>
      <trkpt lat="45.531414" lon="6.773680">
        <ele>1499.097</ele>
        <time>2018-07-16T12:27:16Z</time>
      </trkpt>
      <trkpt lat="45.531432" lon="6.773741">
        <ele>1499.741</ele>
        <time>2018-07-16T12:27:21Z</time>
      </trkpt>
      <trkpt lat="45.531412" lon="6.773800">
        <ele>1498.586</ele>
        <time>2018-07-16T12:27:26Z</time>
      </trkpt>
      <trkpt lat="45.531383" lon="6.773861">
        <ele>1497.025</ele>
        <time>2018-07-16T12:27:31Z</time>
      </trkpt>
      <trkpt lat="45.531372" lon="6.773924">
        <ele>1494.587</ele>
        <time>2018-07-16T12:27:37Z</time>
      </trkpt>
      <trkpt lat="45.531370" lon="6.773993">
        <ele>1493.497</ele>
        <time>2018-07-16T12:27:42Z</time>
      </trkpt>
      <trkpt lat="45.531346" lon="6.774051">
        <ele>1493.123</ele>
        <time>2018-07-16T12:27:47Z</time>
      </trkpt>
      <trkpt lat="45.531317" lon="6.774105">
        <ele>1492.925</ele>
        <time>2018-07-16T12:27:52Z</time>
      </trkpt>
      <trkpt lat="45.531272" lon="6.774145">
        <ele>1493.608</ele>
        <time>2018-07-16T12:27:57Z</time>
      </trkpt>
      <trkpt lat="45.531226" lon="6.774159">
        <ele>1493.631</ele>
        <time>2018-07-16T12:28:02Z</time>
      </trkpt>
      <trkpt lat="45.531179" lon="6.774172">
        <ele>1494.055</ele>
        <time>2018-07-16T12:28:07Z</time>
      </trkpt>
      <trkpt lat="45.531121" lon="6.774177">
        <ele>1494.287</ele>
        <time>2018-07-16T12:28:12Z</time>
      </trkpt>
      <trkpt lat="45.531074" lon="6.774164">
        <ele>1494.752</ele>
        <time>2018-07-16T12:28:16Z</time>
      </trkpt>
      <trkpt lat="45.531022" lon="6.774154">
        <ele>1495.426</ele>
        <time>2018-07-16T12:28:21Z</time>
      </trkpt>
      <trkpt lat="45.530973" lon="6.774123">
        <ele>1495.491</ele>
        <time>2018-07-16T12:28:26Z</time>
      </trkpt>
      <trkpt lat="45.530927" lon="6.774105">
        <ele>1495.480</ele>
        <time>2018-07-16T12:28:31Z</time>
      </trkpt>
      <trkpt lat="45.530869" lon="6.774114">
        <ele>1496.212</ele>
        <time>2018-07-16T12:28:35Z</time>
      </trkpt>
      <trkpt lat="45.530819" lon="6.774133">
        <ele>1496.738</ele>
        <time>2018-07-16T12:28:39Z</time>
      </trkpt>
      <trkpt lat="45.530767" lon="6.774148">
        <ele>1497.070</ele>
        <time>2018-07-16T12:28:44Z</time>
      </trkpt>
      <trkpt lat="45.530715" lon="6.774148">
        <ele>1496.417</ele>
        <time>2018-07-16T12:28:49Z</time>
      </trkpt>
      <trkpt lat="45.530663" lon="6.774162">
        <ele>1496.808</ele>
        <time>2018-07-16T12:28:53Z</time>
      </trkpt>
      <trkpt lat="45.530614" lon="6.774181">
        <ele>1497.195</ele>
        <time>2018-07-16T12:28:58Z</time>
      </trkpt>
      <trkpt lat="45.530572" lon="6.774222">
        <ele>1497.739</ele>
        <time>2018-07-16T12:29:04Z</time>
      </trkpt>
      <trkpt lat="45.530535" lon="6.774266">
        <ele>1496.811</ele>
        <time>2018-07-16T12:29:09Z</time>
      </trkpt>
      <trkpt lat="45.530500" lon="6.774313">
        <ele>1497.526</ele>
        <time>2018-07-16T12:29:13Z</time>
      </trkpt>
      <trkpt lat="45.530473" lon="6.774368">
        <ele>1498.320</ele>
        <time>2018-07-16T12:29:17Z</time>
      </trkpt>
      <trkpt lat="45.530427" lon="6.774403">
        <ele>1497.225</ele>
        <time>2018-07-16T12:29:22Z</time>
      </trkpt>
      <trkpt lat="45.530389" lon="6.774451">
        <ele>1496.944</ele>
        <time>2018-07-16T12:29:27Z</time>
      </trkpt>
      <trkpt lat="45.530354" lon="6.774509">
        <ele>1496.736</ele>
        <time>2018-07-16T12:29:32Z</time>
      </trkpt>
      <trkpt lat="45.530322" lon="6.774555">
        <ele>1497.431</ele>
        <time>2018-07-16T12:29:36Z</time>
      </trkpt>
      <trkpt lat="45.530281" lon="6.774599">
        <ele>1498.261</ele>
        <time>2018-07-16T12:29:41Z</time>
      </trkpt>
      <trkpt lat="45.530237" lon="6.774641">
        <ele>1498.707</ele>
        <time>2018-07-16T12:29:46Z</time>
      </trkpt>
      <trkpt lat="45.530194" lon="6.774675">
        <ele>1498.208</ele>
        <time>2018-07-16T12:29:50Z</time>
      </trkpt>
      <trkpt lat="45.530155" lon="6.774736">
        <ele>1498.745</ele>
        <time>2018-07-16T12:29:55Z</time>
      </trkpt>
      <trkpt lat="45.530121" lon="6.774804">
        <ele>1499.069</ele>
        <time>2018-07-16T12:29:59Z</time>
      </trkpt>
      <trkpt lat="45.530093" lon="6.774856">
        <ele>1499.241</ele>
        <time>2018-07-16T12:30:02Z</time>
      </trkpt>
      <trkpt lat="45.530059" lon="6.774916">
        <ele>1498.996</ele>
        <time>2018-07-16T12:30:06Z</time>
      </trkpt>
      <trkpt lat="45.530027" lon="6.774976">
        <ele>1499.120</ele>
        <time>2018-07-16T12:30:10Z</time>
      </trkpt>
      <trkpt lat="45.529988" lon="6.775037">
        <ele>1498.865</ele>
        <time>2018-07-16T12:30:14Z</time>
      </trkpt>
      <trkpt lat="45.529949" lon="6.775096">
        <ele>1498.244</ele>
        <time>2018-07-16T12:30:18Z</time>
      </trkpt>
      <trkpt lat="45.529911" lon="6.775152">
        <ele>1497.946</ele>
        <time>2018-07-16T12:30:22Z</time>
      </trkpt>
      <trkpt lat="45.529872" lon="6.775203">
        <ele>1497.798</ele>
        <time>2018-07-16T12:30:26Z</time>
      </trkpt>
      <trkpt lat="45.529832" lon="6.775254">
        <ele>1497.615</ele>
        <time>2018-07-16T12:30:30Z</time>
      </trkpt>
      <trkpt lat="45.529798" lon="6.775312">
        <ele>1498.326</ele>
        <time>2018-07-16T12:30:34Z</time>
      </trkpt>
      <trkpt lat="45.529768" lon="6.775362">
        <ele>1497.508</ele>
        <time>2018-07-16T12:30:38Z</time>
      </trkpt>
      <trkpt lat="45.529731" lon="6.775403">
        <ele>1497.051</ele>
        <time>2018-07-16T12:30:43Z</time>
      </trkpt>
      <trkpt lat="45.529697" lon="6.775455">
        <ele>1495.935</ele>
        <time>2018-07-16T12:30:48Z</time>
      </trkpt>
      <trkpt lat="45.529670" lon="6.775514">
        <ele>1495.367</ele>
        <time>2018-07-16T12:30:52Z</time>
      </trkpt>
      <trkpt lat="45.529634" lon="6.775563">
        <ele>1495.332</ele>
        <time>2018-07-16T12:30:56Z</time>
      </trkpt>
      <trkpt lat="45.529607" lon="6.775627">
        <ele>1495.776</ele>
        <time>2018-07-16T12:31:01Z</time>
      </trkpt>
      <trkpt lat="45.529576" lon="6.775682">
        <ele>1496.771</ele>
        <time>2018-07-16T12:31:06Z</time>
      </trkpt>
      <trkpt lat="45.529571" lon="6.775760">
        <ele>1497.780</ele>
        <time>2018-07-16T12:31:11Z</time>
      </trkpt>
      <trkpt lat="45.529562" lon="6.775828">
        <ele>1496.742</ele>
        <time>2018-07-16T12:31:16Z</time>
      </trkpt>
      <trkpt lat="45.529539" lon="6.775884">
        <ele>1496.172</ele>
        <time>2018-07-16T12:31:20Z</time>
      </trkpt>
      <trkpt lat="45.529524" lon="6.775947">
        <ele>1496.113</ele>
        <time>2018-07-16T12:31:24Z</time>
      </trkpt>
      <trkpt lat="45.529510" lon="6.776010">
        <ele>1495.714</ele>
        <time>2018-07-16T12:31:28Z</time>
      </trkpt>
      <trkpt lat="45.529491" lon="6.776087">
        <ele>1495.508</ele>
        <time>2018-07-16T12:31:32Z</time>
      </trkpt>
      <trkpt lat="45.529463" lon="6.776157">
        <ele>1495.099</ele>
        <time>2018-07-16T12:31:36Z</time>
      </trkpt>
      <trkpt lat="45.529442" lon="6.776217">
        <ele>1494.793</ele>
        <time>2018-07-16T12:31:40Z</time>
      </trkpt>
      <trkpt lat="45.529414" lon="6.776282">
        <ele>1495.325</ele>
        <time>2018-07-16T12:31:44Z</time>
      </trkpt>
      <trkpt lat="45.529393" lon="6.776346">
        <ele>1496.130</ele>
        <time>2018-07-16T12:31:48Z</time>
      </trkpt>
      <trkpt lat="45.529360" lon="6.776411">
        <ele>1496.274</ele>
        <time>2018-07-16T12:31:52Z</time>
      </trkpt>
      <trkpt lat="45.529351" lon="6.776478">
        <ele>1496.659</ele>
        <time>2018-07-16T12:31:56Z</time>
      </trkpt>
      <trkpt lat="45.529344" lon="6.776543">
        <ele>1496.938</ele>
        <time>2018-07-16T12:32:00Z</time>
      </trkpt>
      <trkpt lat="45.529336" lon="6.776616">
        <ele>1497.120</ele>
        <time>2018-07-16T12:32:04Z</time>
      </trkpt>
      <trkpt lat="45.529327" lon="6.776686">
        <ele>1496.821</ele>
        <time>2018-07-16T12:32:08Z</time>
      </trkpt>
      <trkpt lat="45.529324" lon="6.776753">
        <ele>1497.041</ele>
        <time>2018-07-16T12:32:12Z</time>
      </trkpt>
      <trkpt lat="45.529331" lon="6.776819">
        <ele>1497.905</ele>
        <time>2018-07-16T12:32:16Z</time>
      </trkpt>
      <trkpt lat="45.529336" lon="6.776895">
        <ele>1498.508</ele>
        <time>2018-07-16T12:32:21Z</time>
      </trkpt>
      <trkpt lat="45.529309" lon="6.776961">
        <ele>1498.044</ele>
        <time>2018-07-16T12:32:25Z</time>
      </trkpt>
      <trkpt lat="45.529311" lon="6.777030">
        <ele>1497.788</ele>
        <time>2018-07-16T12:32:30Z</time>
      </trkpt>
      <trkpt lat="45.529292" lon="6.777098">
        <ele>1498.360</ele>
        <time>2018-07-16T12:32:35Z</time>
      </trkpt>
      <trkpt lat="45.529271" lon="6.777164">
        <ele>1499.125</ele>
        <time>2018-07-16T12:32:40Z</time>
      </trkpt>
      <trkpt lat="45.529272" lon="6.777230">
        <ele>1500.419</ele>
        <time>2018-07-16T12:32:47Z</time>
      </trkpt>
      <trkpt lat="45.529262" lon="6.777295">
        <ele>1503.224</ele>
        <time>2018-07-16T12:32:53Z</time>
      </trkpt>
      <trkpt lat="45.529251" lon="6.777367">
        <ele>1504.193</ele>
        <time>2018-07-16T12:32:59Z</time>
      </trkpt>
      <trkpt lat="45.529252" lon="6.777437">
        <ele>1504.275</ele>
        <time>2018-07-16T12:33:04Z</time>
      </trkpt>
      <trkpt lat="45.529232" lon="6.777506">
        <ele>1501.919</ele>
        <time>2018-07-16T12:33:11Z</time>
      </trkpt>
      <trkpt lat="45.529213" lon="6.777569">
        <ele>1500.909</ele>
        <time>2018-07-16T12:33:17Z</time>
      </trkpt>
      <trkpt lat="45.529185" lon="6.777640">
        <ele>1500.719</ele>
        <time>2018-07-16T12:33:22Z</time>
      </trkpt>
      <trkpt lat="45.529173" lon="6.777703">
        <ele>1501.408</ele>
        <time>2018-07-16T12:33:26Z</time>
      </trkpt>
      <trkpt lat="45.529158" lon="6.777768">
        <ele>1502.243</ele>
        <time>2018-07-16T12:33:30Z</time>
      </trkpt>
      <trkpt lat="45.529142" lon="6.777838">
        <ele>1501.197</ele>
        <time>2018-07-16T12:33:37Z</time>
      </trkpt>
      <trkpt lat="45.529141" lon="6.777915">
        <ele>1499.619</ele>
        <time>2018-07-16T12:33:44Z</time>
      </trkpt>
      <trkpt lat="45.529148" lon="6.777982">
        <ele>1499.174</ele>
        <time>2018-07-16T12:33:49Z</time>
      </trkpt>
      <trkpt lat="45.529150" lon="6.778048">
        <ele>1499.638</ele>
        <time>2018-07-16T12:33:53Z</time>
      </trkpt>
      <trkpt lat="45.529137" lon="6.778123">
        <ele>1501.583</ele>
        <time>2018-07-16T12:33:58Z</time>
      </trkpt>
      <trkpt lat="45.529118" lon="6.778189">
        <ele>1503.062</ele>
        <time>2018-07-16T12:34:03Z</time>
      </trkpt>
      <trkpt lat="45.529070" lon="6.778218">
        <ele>1503.594</ele>
        <time>2018-07-16T12:34:07Z</time>
      </trkpt>
      <trkpt lat="45.529015" lon="6.778217">
        <ele>1503.824</ele>
        <time>2018-07-16T12:34:12Z</time>
      </trkpt>
      <trkpt lat="45.528967" lon="6.778208">
        <ele>1504.404</ele>
        <time>2018-07-16T12:34:19Z</time>
      </trkpt>
      <trkpt lat="45.528925" lon="6.778243">
        <ele>1505.214</ele>
        <time>2018-07-16T12:34:27Z</time>
      </trkpt>
      <trkpt lat="45.528906" lon="6.778306">
        <ele>1506.908</ele>
        <time>2018-07-16T12:34:33Z</time>
      </trkpt>
      <trkpt lat="45.528883" lon="6.778366">
        <ele>1507.574</ele>
        <time>2018-07-16T12:34:41Z</time>
      </trkpt>
      <trkpt lat="45.528841" lon="6.778410">
        <ele>1508.318</ele>
        <time>2018-07-16T12:34:49Z</time>
      </trkpt>
      <trkpt lat="45.528819" lon="6.778467">
        <ele>1508.860</ele>
        <time>2018-07-16T12:34:55Z</time>
      </trkpt>
      <trkpt lat="45.528798" lon="6.778530">
        <ele>1509.585</ele>
        <time>2018-07-16T12:35:02Z</time>
      </trkpt>
      <trkpt lat="45.528782" lon="6.778595">
        <ele>1512.759</ele>
        <time>2018-07-16T12:35:09Z</time>
      </trkpt>
      <trkpt lat="45.528758" lon="6.778656">
        <ele>1515.044</ele>
        <time>2018-07-16T12:35:15Z</time>
      </trkpt>
      <trkpt lat="45.528732" lon="6.778714">
        <ele>1516.053</ele>
        <time>2018-07-16T12:35:30Z</time>
      </trkpt>
      <trkpt lat="45.528723" lon="6.778789">
        <ele>1515.815</ele>
        <time>2018-07-16T12:35:36Z</time>
      </trkpt>
      <trkpt lat="45.528695" lon="6.778857">
        <ele>1514.976</ele>
        <time>2018-07-16T12:35:42Z</time>
      </trkpt>
      <trkpt lat="45.528663" lon="6.778916">
        <ele>1513.590</ele>
        <time>2018-07-16T12:35:48Z</time>
      </trkpt>
      <trkpt lat="45.528630" lon="6.778974">
        <ele>1511.519</ele>
        <time>2018-07-16T12:35:54Z</time>
      </trkpt>
      <trkpt lat="45.528593" lon="6.779029">
        <ele>1510.308</ele>
        <time>2018-07-16T12:36:00Z</time>
      </trkpt>
      <trkpt lat="45.528552" lon="6.779081">
        <ele>1510.039</ele>
        <time>2018-07-16T12:36:05Z</time>
      </trkpt>
      <trkpt lat="45.528514" lon="6.779132">
        <ele>1510.633</ele>
        <time>2018-07-16T12:36:10Z</time>
      </trkpt>
      <trkpt lat="45.528473" lon="6.779177">
        <ele>1512.215</ele>
        <time>2018-07-16T12:36:15Z</time>
      </trkpt>
      <trkpt lat="45.528441" lon="6.779231">
        <ele>1513.550</ele>
        <time>2018-07-16T12:36:19Z</time>
      </trkpt>
      <trkpt lat="45.528417" lon="6.779292">
        <ele>1514.784</ele>
        <time>2018-07-16T12:36:24Z</time>
      </trkpt>
      <trkpt lat="45.528389" lon="6.779351">
        <ele>1515.859</ele>
        <time>2018-07-16T12:36:29Z</time>
      </trkpt>
      <trkpt lat="45.528348" lon="6.779405">
        <ele>1515.338</ele>
        <time>2018-07-16T12:36:36Z</time>
      </trkpt>
      <trkpt lat="45.528314" lon="6.779452">
        <ele>1515.410</ele>
        <time>2018-07-16T12:36:41Z</time>
      </trkpt>
      <trkpt lat="45.528288" lon="6.779518">
        <ele>1517.111</ele>
        <time>2018-07-16T12:36:48Z</time>
      </trkpt>
      <trkpt lat="45.528282" lon="6.779588">
        <ele>1520.121</ele>
        <time>2018-07-16T12:36:54Z</time>
      </trkpt>
      <trkpt lat="45.528260" lon="6.779647">
        <ele>1521.503</ele>
        <time>2018-07-16T12:37:00Z</time>
      </trkpt>
      <trkpt lat="45.528250" lon="6.779714">
        <ele>1523.908</ele>
        <time>2018-07-16T12:37:08Z</time>
      </trkpt>
      <trkpt lat="45.528219" lon="6.779772">
        <ele>1525.073</ele>
        <time>2018-07-16T12:37:16Z</time>
      </trkpt>
      <trkpt lat="45.528175" lon="6.779798">
        <ele>1524.877</ele>
        <time>2018-07-16T12:37:20Z</time>
      </trkpt>
      <trkpt lat="45.528132" lon="6.779833">
        <ele>1525.999</ele>
        <time>2018-07-16T12:37:26Z</time>
      </trkpt>
      <trkpt lat="45.528126" lon="6.779905">
        <ele>1528.284</ele>
        <time>2018-07-16T12:37:34Z</time>
      </trkpt>
      <trkpt lat="45.528119" lon="6.779972">
        <ele>1528.068</ele>
        <time>2018-07-16T12:37:40Z</time>
      </trkpt>
      <trkpt lat="45.528104" lon="6.780038">
        <ele>1527.993</ele>
        <time>2018-07-16T12:37:48Z</time>
      </trkpt>
      <trkpt lat="45.528063" lon="6.780065">
        <ele>1526.632</ele>
        <time>2018-07-16T12:37:53Z</time>
      </trkpt>
      <trkpt lat="45.528022" lon="6.780092">
        <ele>1523.874</ele>
        <time>2018-07-16T12:37:57Z</time>
      </trkpt>
      <trkpt lat="45.527977" lon="6.780126">
        <ele>1521.742</ele>
        <time>2018-07-16T12:38:01Z</time>
      </trkpt>
      <trkpt lat="45.527941" lon="6.780178">
        <ele>1519.722</ele>
        <time>2018-07-16T12:38:07Z</time>
      </trkpt>
      <trkpt lat="45.527886" lon="6.780222">
        <ele>1518.514</ele>
        <time>2018-07-16T12:38:24Z</time>
      </trkpt>
      <trkpt lat="45.527847" lon="6.780257">
        <ele>1519.808</ele>
        <time>2018-07-16T12:38:45Z</time>
      </trkpt>
      <trkpt lat="45.527807" lon="6.780298">
        <ele>1520.276</ele>
        <time>2018-07-16T12:38:48Z</time>
      </trkpt>
      <trkpt lat="45.527809" lon="6.780366">
        <ele>1522.020</ele>
        <time>2018-07-16T12:38:51Z</time>
      </trkpt>
      <trkpt lat="45.527811" lon="6.780433">
        <ele>1523.532</ele>
        <time>2018-07-16T12:38:59Z</time>
      </trkpt>
      <trkpt lat="45.527833" lon="6.780491">
        <ele>1527.287</ele>
        <time>2018-07-16T12:39:05Z</time>
      </trkpt>
      <trkpt lat="45.527819" lon="6.780556">
        <ele>1529.481</ele>
        <time>2018-07-16T12:39:13Z</time>
      </trkpt>
      <trkpt lat="45.527800" lon="6.780615">
        <ele>1530.776</ele>
        <time>2018-07-16T12:39:21Z</time>
      </trkpt>
      <trkpt lat="45.527765" lon="6.780661">
        <ele>1531.575</ele>
        <time>2018-07-16T12:39:26Z</time>
      </trkpt>
      <trkpt lat="45.527739" lon="6.780715">
        <ele>1531.287</ele>
        <time>2018-07-16T12:39:32Z</time>
      </trkpt>
      <trkpt lat="45.527725" lon="6.780779">
        <ele>1533.492</ele>
        <time>2018-07-16T12:39:39Z</time>
      </trkpt>
      <trkpt lat="45.527733" lon="6.780850">
        <ele>1534.773</ele>
        <time>2018-07-16T12:39:45Z</time>
      </trkpt>
      <trkpt lat="45.527709" lon="6.780910">
        <ele>1535.920</ele>
        <time>2018-07-16T12:39:50Z</time>
      </trkpt>
      <trkpt lat="45.527670" lon="6.780961">
        <ele>1535.808</ele>
        <time>2018-07-16T12:39:55Z</time>
      </trkpt>
      <trkpt lat="45.527634" lon="6.781008">
        <ele>1535.451</ele>
        <time>2018-07-16T12:40:00Z</time>
      </trkpt>
      <trkpt lat="45.527600" lon="6.781060">
        <ele>1534.315</ele>
        <time>2018-07-16T12:40:07Z</time>
      </trkpt>
      <trkpt lat="45.527560" lon="6.781111">
        <ele>1533.747</ele>
        <time>2018-07-16T12:40:13Z</time>
      </trkpt>
      <trkpt lat="45.527517" lon="6.781147">
        <ele>1532.962</ele>
        <time>2018-07-16T12:40:18Z</time>
      </trkpt>
      <trkpt lat="45.527468" lon="6.781182">
        <ele>1531.686</ele>
        <time>2018-07-16T12:40:23Z</time>
      </trkpt>
      <trkpt lat="45.527425" lon="6.781207">
        <ele>1530.821</ele>
        <time>2018-07-16T12:40:28Z</time>
      </trkpt>
      <trkpt lat="45.527396" lon="6.781265">
        <ele>1532.760</ele>
        <time>2018-07-16T12:40:34Z</time>
      </trkpt>
      <trkpt lat="45.527370" lon="6.781327">
        <ele>1533.582</ele>
        <time>2018-07-16T12:40:42Z</time>
      </trkpt>
      <trkpt lat="45.527365" lon="6.781395">
        <ele>1537.567</ele>
        <time>2018-07-16T12:40:50Z</time>
      </trkpt>
      <trkpt lat="45.527316" lon="6.781445">
        <ele>1541.581</ele>
        <time>2018-07-16T12:41:01Z</time>
      </trkpt>
      <trkpt lat="45.527276" lon="6.781483">
        <ele>1545.219</ele>
        <time>2018-07-16T12:41:10Z</time>
      </trkpt>
      <trkpt lat="45.527224" lon="6.781514">
        <ele>1546.608</ele>
        <time>2018-07-16T12:41:14Z</time>
      </trkpt>
      <trkpt lat="45.527184" lon="6.781546">
        <ele>1545.418</ele>
        <time>2018-07-16T12:41:18Z</time>
      </trkpt>
      <trkpt lat="45.527142" lon="6.781576">
        <ele>1543.982</ele>
        <time>2018-07-16T12:41:22Z</time>
      </trkpt>
      <trkpt lat="45.527099" lon="6.781597">
        <ele>1542.624</ele>
        <time>2018-07-16T12:41:25Z</time>
      </trkpt>
      <trkpt lat="45.527059" lon="6.781644">
        <ele>1543.469</ele>
        <time>2018-07-16T12:41:32Z</time>
      </trkpt>
      <trkpt lat="45.527022" lon="6.781686">
        <ele>1545.143</ele>
        <time>2018-07-16T12:41:38Z</time>
      </trkpt>
      <trkpt lat="45.526994" lon="6.781778">
        <ele>1549.128</ele>
        <time>2018-07-16T12:41:52Z</time>
      </trkpt>
      <trkpt lat="45.526957" lon="6.781815">
        <ele>1552.597</ele>
        <time>2018-07-16T12:41:59Z</time>
      </trkpt>
      <trkpt lat="45.526915" lon="6.781843">
        <ele>1555.359</ele>
        <time>2018-07-16T12:42:04Z</time>
      </trkpt>
      <trkpt lat="45.526865" lon="6.781863">
        <ele>1556.264</ele>
        <time>2018-07-16T12:42:11Z</time>
      </trkpt>
      <trkpt lat="45.526851" lon="6.781926">
        <ele>1556.306</ele>
        <time>2018-07-16T12:42:15Z</time>
      </trkpt>
      <trkpt lat="45.526797" lon="6.781954">
        <ele>1557.216</ele>
        <time>2018-07-16T12:42:19Z</time>
      </trkpt>
      <trkpt lat="45.526739" lon="6.781942">
        <ele>1555.708</ele>
        <time>2018-07-16T12:42:22Z</time>
      </trkpt>
      <trkpt lat="45.526684" lon="6.781937">
        <ele>1556.048</ele>
        <time>2018-07-16T12:42:26Z</time>
      </trkpt>
      <trkpt lat="45.526646" lon="6.781988">
        <ele>1559.072</ele>
        <time>2018-07-16T12:42:32Z</time>
      </trkpt>
      <trkpt lat="45.526603" lon="6.782016">
        <ele>1560.484</ele>
        <time>2018-07-16T12:42:39Z</time>
      </trkpt>
      <trkpt lat="45.526555" lon="6.782035">
        <ele>1561.689</ele>
        <time>2018-07-16T12:42:44Z</time>
      </trkpt>
      <trkpt lat="45.526515" lon="6.782080">
        <ele>1565.693</ele>
        <time>2018-07-16T12:42:50Z</time>
      </trkpt>
      <trkpt lat="45.526471" lon="6.782124">
        <ele>1567.538</ele>
        <time>2018-07-16T12:42:56Z</time>
      </trkpt>
      <trkpt lat="45.526425" lon="6.782107">
        <ele>1567.147</ele>
        <time>2018-07-16T12:43:00Z</time>
      </trkpt>
      <trkpt lat="45.526365" lon="6.782124">
        <ele>1568.079</ele>
        <time>2018-07-16T12:43:08Z</time>
      </trkpt>
      <trkpt lat="45.526317" lon="6.782128">
        <ele>1568.222</ele>
        <time>2018-07-16T12:43:12Z</time>
      </trkpt>
      <trkpt lat="45.526275" lon="6.782166">
        <ele>1569.562</ele>
        <time>2018-07-16T12:43:20Z</time>
      </trkpt>
      <trkpt lat="45.526226" lon="6.782172">
        <ele>1570.708</ele>
        <time>2018-07-16T12:43:26Z</time>
      </trkpt>
      <trkpt lat="45.526182" lon="6.782201">
        <ele>1571.808</ele>
        <time>2018-07-16T12:43:30Z</time>
      </trkpt>
      <trkpt lat="45.526135" lon="6.782204">
        <ele>1571.394</ele>
        <time>2018-07-16T12:43:34Z</time>
      </trkpt>
      <trkpt lat="45.526085" lon="6.782170">
        <ele>1569.098</ele>
        <time>2018-07-16T12:43:38Z</time>
      </trkpt>
      <trkpt lat="45.526033" lon="6.782139">
        <ele>1565.620</ele>
        <time>2018-07-16T12:43:42Z</time>
      </trkpt>
      <trkpt lat="45.525980" lon="6.782133">
        <ele>1564.035</ele>
        <time>2018-07-16T12:43:48Z</time>
      </trkpt>
      <trkpt lat="45.525940" lon="6.782168">
        <ele>1564.239</ele>
        <time>2018-07-16T12:43:55Z</time>
      </trkpt>
      <trkpt lat="45.525912" lon="6.782218">
        <ele>1564.744</ele>
        <time>2018-07-16T12:44:01Z</time>
      </trkpt>
      <trkpt lat="45.525869" lon="6.782259">
        <ele>1563.873</ele>
        <time>2018-07-16T12:44:07Z</time>
      </trkpt>
      <trkpt lat="45.525852" lon="6.782325">
        <ele>1564.555</ele>
        <time>2018-07-16T12:44:11Z</time>
      </trkpt>
      <trkpt lat="45.525845" lon="6.782394">
        <ele>1564.982</ele>
        <time>2018-07-16T12:44:15Z</time>
      </trkpt>
      <trkpt lat="45.525825" lon="6.782462">
        <ele>1564.743</ele>
        <time>2018-07-16T12:44:19Z</time>
      </trkpt>
      <trkpt lat="45.525809" lon="6.782532">
        <ele>1565.817</ele>
        <time>2018-07-16T12:44:23Z</time>
      </trkpt>
      <trkpt lat="45.525786" lon="6.782597">
        <ele>1565.708</ele>
        <time>2018-07-16T12:44:27Z</time>
      </trkpt>
      <trkpt lat="45.525748" lon="6.782650">
        <ele>1564.050</ele>
        <time>2018-07-16T12:44:31Z</time>
      </trkpt>
      <trkpt lat="45.525722" lon="6.782703">
        <ele>1561.864</ele>
        <time>2018-07-16T12:44:35Z</time>
      </trkpt>
      <trkpt lat="45.525705" lon="6.782763">
        <ele>1561.376</ele>
        <time>2018-07-16T12:44:40Z</time>
      </trkpt>
      <trkpt lat="45.525689" lon="6.782838">
        <ele>1562.621</ele>
        <time>2018-07-16T12:44:45Z</time>
      </trkpt>
      <trkpt lat="45.525648" lon="6.782886">
        <ele>1563.455</ele>
        <time>2018-07-16T12:44:50Z</time>
      </trkpt>
      <trkpt lat="45.525598" lon="6.782917">
        <ele>1562.790</ele>
        <time>2018-07-16T12:44:57Z</time>
      </trkpt>
      <trkpt lat="45.525551" lon="6.782910">
        <ele>1563.559</ele>
        <time>2018-07-16T12:45:01Z</time>
      </trkpt>
      <trkpt lat="45.525520" lon="6.782971">
        <ele>1563.611</ele>
        <time>2018-07-16T12:45:16Z</time>
      </trkpt>
      <trkpt lat="45.525494" lon="6.783023">
        <ele>1564.095</ele>
        <time>2018-07-16T12:45:23Z</time>
      </trkpt>
      <trkpt lat="45.525461" lon="6.783080">
        <ele>1563.549</ele>
        <time>2018-07-16T12:45:30Z</time>
      </trkpt>
      <trkpt lat="45.525427" lon="6.783135">
        <ele>1561.223</ele>
        <time>2018-07-16T12:45:37Z</time>
      </trkpt>
      <trkpt lat="45.525382" lon="6.783174">
        <ele>1559.408</ele>
        <time>2018-07-16T12:45:44Z</time>
      </trkpt>
      <trkpt lat="45.525366" lon="6.783238">
        <ele>1560.361</ele>
        <time>2018-07-16T12:45:51Z</time>
      </trkpt>
      <trkpt lat="45.525332" lon="6.783281">
        <ele>1560.535</ele>
        <time>2018-07-16T12:45:56Z</time>
      </trkpt>
      <trkpt lat="45.525332" lon="6.783359">
        <ele>1561.047</ele>
        <time>2018-07-16T12:46:08Z</time>
      </trkpt>
      <trkpt lat="45.525285" lon="6.783395">
        <ele>1561.352</ele>
        <time>2018-07-16T12:46:14Z</time>
      </trkpt>
      <trkpt lat="45.525237" lon="6.783407">
        <ele>1558.796</ele>
        <time>2018-07-16T12:46:19Z</time>
      </trkpt>
      <trkpt lat="45.525185" lon="6.783487">
        <ele>1556.791</ele>
        <time>2018-07-16T12:46:39Z</time>
      </trkpt>
      <trkpt lat="45.525140" lon="6.783528">
        <ele>1555.520</ele>
        <time>2018-07-16T12:46:42Z</time>
      </trkpt>
      <trkpt lat="45.525080" lon="6.783663">
        <ele>1558.452</ele>
        <time>2018-07-16T12:47:42Z</time>
      </trkpt>
      <trkpt lat="45.525067" lon="6.783741">
        <ele>1558.183</ele>
        <time>2018-07-16T12:47:57Z</time>
      </trkpt>
      <trkpt lat="45.525045" lon="6.783814">
        <ele>1556.725</ele>
        <time>2018-07-16T12:48:04Z</time>
      </trkpt>
      <trkpt lat="45.525045" lon="6.783883">
        <ele>1555.917</ele>
        <time>2018-07-16T12:48:08Z</time>
      </trkpt>
      <trkpt lat="45.525050" lon="6.783947">
        <ele>1557.008</ele>
        <time>2018-07-16T12:48:13Z</time>
      </trkpt>
      <trkpt lat="45.525078" lon="6.783999">
        <ele>1557.760</ele>
        <time>2018-07-16T12:48:17Z</time>
      </trkpt>
      <trkpt lat="45.525094" lon="6.784067">
        <ele>1561.744</ele>
        <time>2018-07-16T12:48:32Z</time>
      </trkpt>
      <trkpt lat="45.525118" lon="6.784136">
        <ele>1564.996</ele>
        <time>2018-07-16T12:48:39Z</time>
      </trkpt>
      <trkpt lat="45.525123" lon="6.784203">
        <ele>1566.071</ele>
        <time>2018-07-16T12:48:53Z</time>
      </trkpt>
      <trkpt lat="45.525146" lon="6.784271">
        <ele>1566.395</ele>
        <time>2018-07-16T12:48:58Z</time>
      </trkpt>
      <trkpt lat="45.525163" lon="6.784333">
        <ele>1566.980</ele>
        <time>2018-07-16T12:49:02Z</time>
      </trkpt>
      <trkpt lat="45.525173" lon="6.784402">
        <ele>1566.889</ele>
        <time>2018-07-16T12:49:07Z</time>
      </trkpt>
      <trkpt lat="45.525164" lon="6.784472">
        <ele>1567.691</ele>
        <time>2018-07-16T12:49:13Z</time>
      </trkpt>
      <trkpt lat="45.525187" lon="6.784539">
        <ele>1566.539</ele>
        <time>2018-07-16T12:49:32Z</time>
      </trkpt>
      <trkpt lat="45.525204" lon="6.784612">
        <ele>1565.001</ele>
        <time>2018-07-16T12:49:37Z</time>
      </trkpt>
      <trkpt lat="45.525222" lon="6.784679">
        <ele>1563.721</ele>
        <time>2018-07-16T12:49:43Z</time>
      </trkpt>
      <trkpt lat="45.525260" lon="6.784725">
        <ele>1563.308</ele>
        <time>2018-07-16T12:49:48Z</time>
      </trkpt>
      <trkpt lat="45.525303" lon="6.784757">
        <ele>1563.985</ele>
        <time>2018-07-16T12:50:09Z</time>
      </trkpt>
      <trkpt lat="45.525349" lon="6.784796">
        <ele>1563.479</ele>
        <time>2018-07-16T12:50:18Z</time>
      </trkpt>
      <trkpt lat="45.525382" lon="6.784861">
        <ele>1561.581</ele>
        <time>2018-07-16T12:50:23Z</time>
      </trkpt>
      <trkpt lat="45.525417" lon="6.784901">
        <ele>1561.686</ele>
        <time>2018-07-16T12:50:26Z</time>
      </trkpt>
      <trkpt lat="45.525439" lon="6.784959">
        <ele>1560.840</ele>
        <time>2018-07-16T12:50:29Z</time>
      </trkpt>
      <trkpt lat="45.525418" lon="6.785026">
        <ele>1560.385</ele>
        <time>2018-07-16T12:50:33Z</time>
      </trkpt>
      <trkpt lat="45.525427" lon="6.785091">
        <ele>1562.434</ele>
        <time>2018-07-16T12:50:40Z</time>
      </trkpt>
      <trkpt lat="45.525387" lon="6.785138">
        <ele>1565.356</ele>
        <time>2018-07-16T12:50:45Z</time>
      </trkpt>
      <trkpt lat="45.525296" lon="6.785167">
        <ele>1567.489</ele>
        <time>2018-07-16T12:51:15Z</time>
      </trkpt>
      <trkpt lat="45.525240" lon="6.785158">
        <ele>1567.906</ele>
        <time>2018-07-16T12:51:19Z</time>
      </trkpt>
      <trkpt lat="45.525117" lon="6.785128">
        <ele>1565.426</ele>
        <time>2018-07-16T12:51:37Z</time>
      </trkpt>
      <trkpt lat="45.525020" lon="6.785142">
        <ele>1564.308</ele>
        <time>2018-07-16T12:52:11Z</time>
      </trkpt>
      <trkpt lat="45.524858" lon="6.785151">
        <ele>1565.640</ele>
        <time>2018-07-16T12:52:39Z</time>
      </trkpt>
      <trkpt lat="45.524804" lon="6.785160">
        <ele>1565.644</ele>
        <time>2018-07-16T12:52:43Z</time>
      </trkpt>
      <trkpt lat="45.524645" lon="6.785210">
        <ele>1568.856</ele>
        <time>2018-07-16T12:53:02Z</time>
      </trkpt>
      <trkpt lat="45.524597" lon="6.785237">
        <ele>1571.191</ele>
        <time>2018-07-16T12:53:07Z</time>
      </trkpt>
      <trkpt lat="45.524550" lon="6.785254">
        <ele>1572.975</ele>
        <time>2018-07-16T12:53:11Z</time>
      </trkpt>
      <trkpt lat="45.524526" lon="6.785309">
        <ele>1576.950</ele>
        <time>2018-07-16T12:53:18Z</time>
      </trkpt>
      <trkpt lat="45.524502" lon="6.785365">
        <ele>1580.099</ele>
        <time>2018-07-16T12:53:21Z</time>
      </trkpt>
      <trkpt lat="45.524470" lon="6.785416">
        <ele>1582.621</ele>
        <time>2018-07-16T12:53:26Z</time>
      </trkpt>
      <trkpt lat="45.524453" lon="6.785481">
        <ele>1583.884</ele>
        <time>2018-07-16T12:53:41Z</time>
      </trkpt>
      <trkpt lat="45.524438" lon="6.785544">
        <ele>1584.107</ele>
        <time>2018-07-16T12:53:47Z</time>
      </trkpt>
      <trkpt lat="45.524415" lon="6.785613">
        <ele>1586.317</ele>
        <time>2018-07-16T12:53:52Z</time>
      </trkpt>
      <trkpt lat="45.524395" lon="6.785681">
        <ele>1588.008</ele>
        <time>2018-07-16T12:53:57Z</time>
      </trkpt>
      <trkpt lat="45.524378" lon="6.785742">
        <ele>1589.450</ele>
        <time>2018-07-16T12:54:04Z</time>
      </trkpt>
      <trkpt lat="45.524359" lon="6.785809">
        <ele>1590.774</ele>
        <time>2018-07-16T12:54:09Z</time>
      </trkpt>
      <trkpt lat="45.524329" lon="6.785860">
        <ele>1590.786</ele>
        <time>2018-07-16T12:54:14Z</time>
      </trkpt>
      <trkpt lat="45.524285" lon="6.785887">
        <ele>1589.191</ele>
        <time>2018-07-16T12:54:18Z</time>
      </trkpt>
      <trkpt lat="45.524247" lon="6.785936">
        <ele>1589.325</ele>
        <time>2018-07-16T12:54:23Z</time>
      </trkpt>
      <trkpt lat="45.524193" lon="6.785944">
        <ele>1587.850</ele>
        <time>2018-07-16T12:54:28Z</time>
      </trkpt>
      <trkpt lat="45.524149" lon="6.785960">
        <ele>1586.989</ele>
        <time>2018-07-16T12:54:34Z</time>
      </trkpt>
      <trkpt lat="45.524103" lon="6.785971">
        <ele>1585.611</ele>
        <time>2018-07-16T12:54:39Z</time>
      </trkpt>
      <trkpt lat="45.524061" lon="6.786021">
        <ele>1584.817</ele>
        <time>2018-07-16T12:54:44Z</time>
      </trkpt>
      <trkpt lat="45.524038" lon="6.786095">
        <ele>1585.987</ele>
        <time>2018-07-16T12:54:48Z</time>
      </trkpt>
      <trkpt lat="45.524027" lon="6.786160">
        <ele>1586.615</ele>
        <time>2018-07-16T12:54:52Z</time>
      </trkpt>
      <trkpt lat="45.524015" lon="6.786229">
        <ele>1585.008</ele>
        <time>2018-07-16T12:54:57Z</time>
      </trkpt>
      <trkpt lat="45.524018" lon="6.786296">
        <ele>1584.023</ele>
        <time>2018-07-16T12:55:02Z</time>
      </trkpt>
      <trkpt lat="45.524031" lon="6.786370">
        <ele>1583.427</ele>
        <time>2018-07-16T12:55:07Z</time>
      </trkpt>
      <trkpt lat="45.524048" lon="6.786435">
        <ele>1582.339</ele>
        <time>2018-07-16T12:55:11Z</time>
      </trkpt>
      <trkpt lat="45.524060" lon="6.786506">
        <ele>1581.694</ele>
        <time>2018-07-16T12:55:16Z</time>
      </trkpt>
      <trkpt lat="45.524074" lon="6.786580">
        <ele>1579.618</ele>
        <time>2018-07-16T12:55:21Z</time>
      </trkpt>
      <trkpt lat="45.524109" lon="6.786646">
        <ele>1579.243</ele>
        <time>2018-07-16T12:55:25Z</time>
      </trkpt>
      <trkpt lat="45.524138" lon="6.786697">
        <ele>1579.442</ele>
        <time>2018-07-16T12:55:28Z</time>
      </trkpt>
      <trkpt lat="45.524162" lon="6.786752">
        <ele>1579.974</ele>
        <time>2018-07-16T12:55:31Z</time>
      </trkpt>
      <trkpt lat="45.524176" lon="6.786824">
        <ele>1579.476</ele>
        <time>2018-07-16T12:55:35Z</time>
      </trkpt>
      <trkpt lat="45.524183" lon="6.786899">
        <ele>1578.390</ele>
        <time>2018-07-16T12:55:40Z</time>
      </trkpt>
      <trkpt lat="45.524197" lon="6.786961">
        <ele>1577.619</ele>
        <time>2018-07-16T12:55:44Z</time>
      </trkpt>
      <trkpt lat="45.524216" lon="6.787026">
        <ele>1576.408</ele>
        <time>2018-07-16T12:55:48Z</time>
      </trkpt>
      <trkpt lat="45.524234" lon="6.787085">
        <ele>1576.139</ele>
        <time>2018-07-16T12:55:52Z</time>
      </trkpt>
      <trkpt lat="45.524242" lon="6.787158">
        <ele>1575.143</ele>
        <time>2018-07-16T12:55:56Z</time>
      </trkpt>
      <trkpt lat="45.524239" lon="6.787228">
        <ele>1574.115</ele>
        <time>2018-07-16T12:56:00Z</time>
      </trkpt>
      <trkpt lat="45.524260" lon="6.787287">
        <ele>1574.720</ele>
        <time>2018-07-16T12:56:03Z</time>
      </trkpt>
      <trkpt lat="45.524270" lon="6.787352">
        <ele>1575.134</ele>
        <time>2018-07-16T12:56:07Z</time>
      </trkpt>
      <trkpt lat="45.524266" lon="6.787418">
        <ele>1574.119</ele>
        <time>2018-07-16T12:56:11Z</time>
      </trkpt>
      <trkpt lat="45.524295" lon="6.787496">
        <ele>1575.178</ele>
        <time>2018-07-16T12:56:15Z</time>
      </trkpt>
      <trkpt lat="45.524318" lon="6.787555">
        <ele>1575.320</ele>
        <time>2018-07-16T12:56:19Z</time>
      </trkpt>
      <trkpt lat="45.524331" lon="6.787622">
        <ele>1576.286</ele>
        <time>2018-07-16T12:56:23Z</time>
      </trkpt>
      <trkpt lat="45.524337" lon="6.787694">
        <ele>1577.260</ele>
        <time>2018-07-16T12:56:27Z</time>
      </trkpt>
      <trkpt lat="45.524364" lon="6.787769">
        <ele>1578.626</ele>
        <time>2018-07-16T12:56:31Z</time>
      </trkpt>
      <trkpt lat="45.524385" lon="6.787836">
        <ele>1579.408</ele>
        <time>2018-07-16T12:56:35Z</time>
      </trkpt>
      <trkpt lat="45.524393" lon="6.787913">
        <ele>1580.310</ele>
        <time>2018-07-16T12:56:39Z</time>
      </trkpt>
      <trkpt lat="45.524403" lon="6.787986">
        <ele>1580.444</ele>
        <time>2018-07-16T12:56:43Z</time>
      </trkpt>
      <trkpt lat="45.524405" lon="6.788062">
        <ele>1580.986</ele>
        <time>2018-07-16T12:56:47Z</time>
      </trkpt>
      <trkpt lat="45.524413" lon="6.788139">
        <ele>1582.031</ele>
        <time>2018-07-16T12:56:51Z</time>
      </trkpt>
      <trkpt lat="45.524417" lon="6.788215">
        <ele>1582.375</ele>
        <time>2018-07-16T12:56:55Z</time>
      </trkpt>
      <trkpt lat="45.524420" lon="6.788295">
        <ele>1582.920</ele>
        <time>2018-07-16T12:56:59Z</time>
      </trkpt>
      <trkpt lat="45.524407" lon="6.788369">
        <ele>1582.499</ele>
        <time>2018-07-16T12:57:03Z</time>
      </trkpt>
      <trkpt lat="45.524411" lon="6.788440">
        <ele>1582.131</ele>
        <time>2018-07-16T12:57:07Z</time>
      </trkpt>
      <trkpt lat="45.524410" lon="6.788507">
        <ele>1580.387</ele>
        <time>2018-07-16T12:57:11Z</time>
      </trkpt>
      <trkpt lat="45.524418" lon="6.788580">
        <ele>1578.442</ele>
        <time>2018-07-16T12:57:16Z</time>
      </trkpt>
      <trkpt lat="45.524434" lon="6.788649">
        <ele>1577.326</ele>
        <time>2018-07-16T12:57:20Z</time>
      </trkpt>
      <trkpt lat="45.524457" lon="6.788704">
        <ele>1576.608</ele>
        <time>2018-07-16T12:57:23Z</time>
      </trkpt>
      <trkpt lat="45.524478" lon="6.788775">
        <ele>1575.880</ele>
        <time>2018-07-16T12:57:27Z</time>
      </trkpt>
      <trkpt lat="45.524502" lon="6.788834">
        <ele>1576.584</ele>
        <time>2018-07-16T12:57:30Z</time>
      </trkpt>
      <trkpt lat="45.524525" lon="6.788895">
        <ele>1576.976</ele>
        <time>2018-07-16T12:57:33Z</time>
      </trkpt>
      <trkpt lat="45.524543" lon="6.788973">
        <ele>1576.411</ele>
        <time>2018-07-16T12:57:37Z</time>
      </trkpt>
      <trkpt lat="45.524558" lon="6.789050">
        <ele>1575.745</ele>
        <time>2018-07-16T12:57:41Z</time>
      </trkpt>
      <trkpt lat="45.524568" lon="6.789124">
        <ele>1574.980</ele>
        <time>2018-07-16T12:57:45Z</time>
      </trkpt>
      <trkpt lat="45.524583" lon="6.789196">
        <ele>1574.899</ele>
        <time>2018-07-16T12:57:49Z</time>
      </trkpt>
      <trkpt lat="45.524604" lon="6.789279">
        <ele>1575.911</ele>
        <time>2018-07-16T12:57:53Z</time>
      </trkpt>
      <trkpt lat="45.524621" lon="6.789344">
        <ele>1576.644</ele>
        <time>2018-07-16T12:57:56Z</time>
      </trkpt>
      <trkpt lat="45.524638" lon="6.789404">
        <ele>1577.005</ele>
        <time>2018-07-16T12:57:59Z</time>
      </trkpt>
      <trkpt lat="45.524647" lon="6.789481">
        <ele>1576.415</ele>
        <time>2018-07-16T12:58:03Z</time>
      </trkpt>
      <trkpt lat="45.524665" lon="6.789560">
        <ele>1576.508</ele>
        <time>2018-07-16T12:58:07Z</time>
      </trkpt>
      <trkpt lat="45.524670" lon="6.789628">
        <ele>1576.126</ele>
        <time>2018-07-16T12:58:11Z</time>
      </trkpt>
      <trkpt lat="45.524686" lon="6.789694">
        <ele>1575.160</ele>
        <time>2018-07-16T12:58:15Z</time>
      </trkpt>
      <trkpt lat="45.524671" lon="6.789759">
        <ele>1574.182</ele>
        <time>2018-07-16T12:58:18Z</time>
      </trkpt>
      <trkpt lat="45.524682" lon="6.789826">
        <ele>1573.197</ele>
        <time>2018-07-16T12:58:22Z</time>
      </trkpt>
      <trkpt lat="45.524689" lon="6.789898">
        <ele>1572.181</ele>
        <time>2018-07-16T12:58:26Z</time>
      </trkpt>
      <trkpt lat="45.524702" lon="6.789982">
        <ele>1572.336</ele>
        <time>2018-07-16T12:58:30Z</time>
      </trkpt>
      <trkpt lat="45.524713" lon="6.790055">
        <ele>1572.465</ele>
        <time>2018-07-16T12:58:34Z</time>
      </trkpt>
      <trkpt lat="45.524719" lon="6.790122">
        <ele>1572.537</ele>
        <time>2018-07-16T12:58:38Z</time>
      </trkpt>
      <trkpt lat="45.524715" lon="6.790196">
        <ele>1572.148</ele>
        <time>2018-07-16T12:58:42Z</time>
      </trkpt>
      <trkpt lat="45.524729" lon="6.790258">
        <ele>1572.761</ele>
        <time>2018-07-16T12:58:45Z</time>
      </trkpt>
      <trkpt lat="45.524750" lon="6.790322">
        <ele>1573.517</ele>
        <time>2018-07-16T12:58:48Z</time>
      </trkpt>
      <trkpt lat="45.524743" lon="6.790391">
        <ele>1573.208</ele>
        <time>2018-07-16T12:58:52Z</time>
      </trkpt>
      <trkpt lat="45.524724" lon="6.790455">
        <ele>1572.256</ele>
        <time>2018-07-16T13:00:02Z</time>
      </trkpt>
      <trkpt lat="45.524715" lon="6.790521">
        <ele>1572.010</ele>
        <time>2018-07-16T13:00:07Z</time>
      </trkpt>
      <trkpt lat="45.524695" lon="6.790581">
        <ele>1572.742</ele>
        <time>2018-07-16T13:00:16Z</time>
      </trkpt>
      <trkpt lat="45.524648" lon="6.790612">
        <ele>1572.387</ele>
        <time>2018-07-16T13:00:21Z</time>
      </trkpt>
      <trkpt lat="45.524597" lon="6.790631">
        <ele>1572.131</ele>
        <time>2018-07-16T13:00:26Z</time>
      </trkpt>
      <trkpt lat="45.524554" lon="6.790665">
        <ele>1573.266</ele>
        <time>2018-07-16T13:00:36Z</time>
      </trkpt>
      <trkpt lat="45.524528" lon="6.790735">
        <ele>1574.685</ele>
        <time>2018-07-16T13:00:41Z</time>
      </trkpt>
      <trkpt lat="45.524520" lon="6.790806">
        <ele>1575.177</ele>
        <time>2018-07-16T13:00:47Z</time>
      </trkpt>
      <trkpt lat="45.524491" lon="6.790866">
        <ele>1575.842</ele>
        <time>2018-07-16T13:01:02Z</time>
      </trkpt>
      <trkpt lat="45.524471" lon="6.790927">
        <ele>1576.222</ele>
        <time>2018-07-16T13:01:12Z</time>
      </trkpt>
      <trkpt lat="45.524437" lon="6.790976">
        <ele>1576.014</ele>
        <time>2018-07-16T13:01:18Z</time>
      </trkpt>
      <trkpt lat="45.524411" lon="6.791030">
        <ele>1576.708</ele>
        <time>2018-07-16T13:01:22Z</time>
      </trkpt>
      <trkpt lat="45.524389" lon="6.791096">
        <ele>1576.366</ele>
        <time>2018-07-16T13:01:28Z</time>
      </trkpt>
      <trkpt lat="45.524368" lon="6.791037">
        <ele>1576.550</ele>
        <time>2018-07-16T13:01:49Z</time>
      </trkpt>
      <trkpt lat="45.524399" lon="6.790976">
        <ele>1576.622</ele>
        <time>2018-07-16T13:01:54Z</time>
      </trkpt>
      <trkpt lat="45.524431" lon="6.790925">
        <ele>1576.377</ele>
        <time>2018-07-16T13:01:58Z</time>
      </trkpt>
      <trkpt lat="45.524556" lon="6.790802">
        <ele>1572.881</ele>
        <time>2018-07-16T13:02:23Z</time>
      </trkpt>
      <trkpt lat="45.524601" lon="6.790809">
        <ele>1577.546</ele>
        <time>2018-07-16T13:02:31Z</time>
      </trkpt>
      <trkpt lat="45.524650" lon="6.790839">
        <ele>1578.025</ele>
        <time>2018-07-16T13:02:37Z</time>
      </trkpt>
      <trkpt lat="45.524699" lon="6.790815">
        <ele>1577.937</ele>
        <time>2018-07-16T13:02:43Z</time>
      </trkpt>
      <trkpt lat="45.524740" lon="6.790870">
        <ele>1575.941</ele>
        <time>2018-07-16T13:02:51Z</time>
      </trkpt>
      <trkpt lat="45.524772" lon="6.790931">
        <ele>1574.181</ele>
        <time>2018-07-16T13:03:01Z</time>
      </trkpt>
      <trkpt lat="45.524800" lon="6.790982">
        <ele>1573.009</ele>
        <time>2018-07-16T13:03:05Z</time>
      </trkpt>
      <trkpt lat="45.524827" lon="6.791037">
        <ele>1572.808</ele>
        <time>2018-07-16T13:03:17Z</time>
      </trkpt>
      <trkpt lat="45.524834" lon="6.791112">
        <ele>1572.746</ele>
        <time>2018-07-16T13:03:22Z</time>
      </trkpt>
      <trkpt lat="45.524826" lon="6.791175">
        <ele>1572.680</ele>
        <time>2018-07-16T13:03:26Z</time>
      </trkpt>
      <trkpt lat="45.524833" lon="6.791250">
        <ele>1572.962</ele>
        <time>2018-07-16T13:03:30Z</time>
      </trkpt>
      <trkpt lat="45.524839" lon="6.791317">
        <ele>1573.187</ele>
        <time>2018-07-16T13:03:34Z</time>
      </trkpt>
      <trkpt lat="45.524842" lon="6.791397">
        <ele>1573.251</ele>
        <time>2018-07-16T13:03:38Z</time>
      </trkpt>
      <trkpt lat="45.524837" lon="6.791464">
        <ele>1572.996</ele>
        <time>2018-07-16T13:03:42Z</time>
      </trkpt>
      <trkpt lat="45.524835" lon="6.791535">
        <ele>1573.565</ele>
        <time>2018-07-16T13:03:46Z</time>
      </trkpt>
      <trkpt lat="45.524815" lon="6.791599">
        <ele>1572.327</ele>
        <time>2018-07-16T13:03:50Z</time>
      </trkpt>
      <trkpt lat="45.524786" lon="6.791657">
        <ele>1571.624</ele>
        <time>2018-07-16T13:03:54Z</time>
      </trkpt>
      <trkpt lat="45.524780" lon="6.791727">
        <ele>1572.004</ele>
        <time>2018-07-16T13:03:58Z</time>
      </trkpt>
      <trkpt lat="45.524764" lon="6.791794">
        <ele>1572.614</ele>
        <time>2018-07-16T13:04:02Z</time>
      </trkpt>
      <trkpt lat="45.524740" lon="6.791864">
        <ele>1573.408</ele>
        <time>2018-07-16T13:04:06Z</time>
      </trkpt>
      <trkpt lat="45.524733" lon="6.791930">
        <ele>1574.364</ele>
        <time>2018-07-16T13:04:10Z</time>
      </trkpt>
      <trkpt lat="45.524711" lon="6.791999">
        <ele>1574.068</ele>
        <time>2018-07-16T13:04:15Z</time>
      </trkpt>
      <trkpt lat="45.524697" lon="6.792066">
        <ele>1575.090</ele>
        <time>2018-07-16T13:04:19Z</time>
      </trkpt>
      <trkpt lat="45.524674" lon="6.792132">
        <ele>1575.665</ele>
        <time>2018-07-16T13:04:23Z</time>
      </trkpt>
      <trkpt lat="45.524640" lon="6.792198">
        <ele>1577.279</ele>
        <time>2018-07-16T13:04:27Z</time>
      </trkpt>
      <trkpt lat="45.524606" lon="6.792262">
        <ele>1577.354</ele>
        <time>2018-07-16T13:04:31Z</time>
      </trkpt>
      <trkpt lat="45.524585" lon="6.792334">
        <ele>1577.483</ele>
        <time>2018-07-16T13:04:35Z</time>
      </trkpt>
      <trkpt lat="45.524565" lon="6.792402">
        <ele>1577.525</ele>
        <time>2018-07-16T13:04:39Z</time>
      </trkpt>
      <trkpt lat="45.524543" lon="6.792464">
        <ele>1576.742</ele>
        <time>2018-07-16T13:04:43Z</time>
      </trkpt>
      <trkpt lat="45.524527" lon="6.792528">
        <ele>1576.622</ele>
        <time>2018-07-16T13:04:47Z</time>
      </trkpt>
      <trkpt lat="45.524502" lon="6.792585">
        <ele>1575.814</ele>
        <time>2018-07-16T13:04:51Z</time>
      </trkpt>
      <trkpt lat="45.524463" lon="6.792639">
        <ele>1574.908</ele>
        <time>2018-07-16T13:04:55Z</time>
      </trkpt>
      <trkpt lat="45.524425" lon="6.792696">
        <ele>1574.446</ele>
        <time>2018-07-16T13:04:59Z</time>
      </trkpt>
      <trkpt lat="45.524381" lon="6.792751">
        <ele>1574.540</ele>
        <time>2018-07-16T13:05:03Z</time>
      </trkpt>
      <trkpt lat="45.524345" lon="6.792806">
        <ele>1575.332</ele>
        <time>2018-07-16T13:05:07Z</time>
      </trkpt>
      <trkpt lat="45.524308" lon="6.792863">
        <ele>1575.487</ele>
        <time>2018-07-16T13:05:11Z</time>
      </trkpt>
      <trkpt lat="45.524276" lon="6.792917">
        <ele>1575.551</ele>
        <time>2018-07-16T13:05:15Z</time>
      </trkpt>
      <trkpt lat="45.524239" lon="6.792975">
        <ele>1575.146</ele>
        <time>2018-07-16T13:05:19Z</time>
      </trkpt>
      <trkpt lat="45.524206" lon="6.793038">
        <ele>1575.385</ele>
        <time>2018-07-16T13:05:23Z</time>
      </trkpt>
      <trkpt lat="45.524178" lon="6.793110">
        <ele>1575.827</ele>
        <time>2018-07-16T13:05:27Z</time>
      </trkpt>
      <trkpt lat="45.524156" lon="6.793166">
        <ele>1575.728</ele>
        <time>2018-07-16T13:05:31Z</time>
      </trkpt>
      <trkpt lat="45.524133" lon="6.793230">
        <ele>1575.289</ele>
        <time>2018-07-16T13:05:36Z</time>
      </trkpt>
      <trkpt lat="45.524109" lon="6.793285">
        <ele>1575.317</ele>
        <time>2018-07-16T13:05:40Z</time>
      </trkpt>
      <trkpt lat="45.524087" lon="6.793350">
        <ele>1575.408</ele>
        <time>2018-07-16T13:05:45Z</time>
      </trkpt>
      <trkpt lat="45.524072" lon="6.793419">
        <ele>1575.424</ele>
        <time>2018-07-16T13:05:50Z</time>
      </trkpt>
      <trkpt lat="45.524099" lon="6.793474">
        <ele>1575.468</ele>
        <time>2018-07-16T13:06:01Z</time>
      </trkpt>
      <trkpt lat="45.524340" lon="6.793977">
        <ele>1572.650</ele>
        <time>2018-07-16T13:06:37Z</time>
      </trkpt>
      <trkpt lat="45.524335" lon="6.794044">
        <ele>1570.535</ele>
        <time>2018-07-16T13:06:43Z</time>
      </trkpt>
      <trkpt lat="45.524320" lon="6.794114">
        <ele>1569.729</ele>
        <time>2018-07-16T13:06:48Z</time>
      </trkpt>
      <trkpt lat="45.524317" lon="6.794182">
        <ele>1570.074</ele>
        <time>2018-07-16T13:06:52Z</time>
      </trkpt>
      <trkpt lat="45.524302" lon="6.794246">
        <ele>1570.663</ele>
        <time>2018-07-16T13:06:56Z</time>
      </trkpt>
      <trkpt lat="45.524284" lon="6.794308">
        <ele>1571.355</ele>
        <time>2018-07-16T13:07:00Z</time>
      </trkpt>
      <trkpt lat="45.524246" lon="6.794362">
        <ele>1572.972</ele>
        <time>2018-07-16T13:07:05Z</time>
      </trkpt>
      <trkpt lat="45.524219" lon="6.794417">
        <ele>1573.913</ele>
        <time>2018-07-16T13:07:09Z</time>
      </trkpt>
      <trkpt lat="45.524200" lon="6.794475">
        <ele>1575.314</ele>
        <time>2018-07-16T13:07:13Z</time>
      </trkpt>
      <trkpt lat="45.524153" lon="6.794517">
        <ele>1576.108</ele>
        <time>2018-07-16T13:07:18Z</time>
      </trkpt>
      <trkpt lat="45.524116" lon="6.794557">
        <ele>1576.619</ele>
        <time>2018-07-16T13:07:22Z</time>
      </trkpt>
      <trkpt lat="45.524083" lon="6.794610">
        <ele>1576.553</ele>
        <time>2018-07-16T13:07:26Z</time>
      </trkpt>
      <trkpt lat="45.524047" lon="6.794674">
        <ele>1576.495</ele>
        <time>2018-07-16T13:07:31Z</time>
      </trkpt>
      <trkpt lat="45.524002" lon="6.794730">
        <ele>1578.010</ele>
        <time>2018-07-16T13:07:35Z</time>
      </trkpt>
      <trkpt lat="45.523961" lon="6.794778">
        <ele>1579.394</ele>
        <time>2018-07-16T13:07:39Z</time>
      </trkpt>
      <trkpt lat="45.523926" lon="6.794835">
        <ele>1579.799</ele>
        <time>2018-07-16T13:07:44Z</time>
      </trkpt>
      <trkpt lat="45.523884" lon="6.794889">
        <ele>1580.328</ele>
        <time>2018-07-16T13:07:48Z</time>
      </trkpt>
      <trkpt lat="45.523834" lon="6.794922">
        <ele>1580.780</ele>
        <time>2018-07-16T13:07:52Z</time>
      </trkpt>
      <trkpt lat="45.523784" lon="6.794952">
        <ele>1581.351</ele>
        <time>2018-07-16T13:07:56Z</time>
      </trkpt>
      <trkpt lat="45.523750" lon="6.795017">
        <ele>1581.301</ele>
        <time>2018-07-16T13:08:00Z</time>
      </trkpt>
      <trkpt lat="45.523724" lon="6.795070">
        <ele>1581.711</ele>
        <time>2018-07-16T13:08:03Z</time>
      </trkpt>
      <trkpt lat="45.523690" lon="6.795116">
        <ele>1580.708</ele>
        <time>2018-07-16T13:08:07Z</time>
      </trkpt>
      <trkpt lat="45.523653" lon="6.795181">
        <ele>1580.587</ele>
        <time>2018-07-16T13:08:12Z</time>
      </trkpt>
      <trkpt lat="45.523621" lon="6.795240">
        <ele>1579.671</ele>
        <time>2018-07-16T13:08:16Z</time>
      </trkpt>
      <trkpt lat="45.523591" lon="6.795311">
        <ele>1579.973</ele>
        <time>2018-07-16T13:08:20Z</time>
      </trkpt>
      <trkpt lat="45.523579" lon="6.795378">
        <ele>1579.738</ele>
        <time>2018-07-16T13:08:24Z</time>
      </trkpt>
      <trkpt lat="45.523572" lon="6.795449">
        <ele>1579.252</ele>
        <time>2018-07-16T13:08:28Z</time>
      </trkpt>
      <trkpt lat="45.523573" lon="6.795529">
        <ele>1578.117</ele>
        <time>2018-07-16T13:08:33Z</time>
      </trkpt>
      <trkpt lat="45.523577" lon="6.795599">
        <ele>1577.086</ele>
        <time>2018-07-16T13:08:37Z</time>
      </trkpt>
      <trkpt lat="45.523586" lon="6.795673">
        <ele>1576.498</ele>
        <time>2018-07-16T13:08:41Z</time>
      </trkpt>
      <trkpt lat="45.523590" lon="6.795743">
        <ele>1576.472</ele>
        <time>2018-07-16T13:08:45Z</time>
      </trkpt>
      <trkpt lat="45.523594" lon="6.795812">
        <ele>1576.413</ele>
        <time>2018-07-16T13:08:49Z</time>
      </trkpt>
      <trkpt lat="45.523593" lon="6.795888">
        <ele>1577.214</ele>
        <time>2018-07-16T13:08:53Z</time>
      </trkpt>
      <trkpt lat="45.523591" lon="6.795960">
        <ele>1577.708</ele>
        <time>2018-07-16T13:08:57Z</time>
      </trkpt>
      <trkpt lat="45.523589" lon="6.796025">
        <ele>1578.439</ele>
        <time>2018-07-16T13:09:01Z</time>
      </trkpt>
      <trkpt lat="45.523587" lon="6.796097">
        <ele>1578.833</ele>
        <time>2018-07-16T13:09:05Z</time>
      </trkpt>
      <trkpt lat="45.523572" lon="6.796166">
        <ele>1578.285</ele>
        <time>2018-07-16T13:09:09Z</time>
      </trkpt>
      <trkpt lat="45.523553" lon="6.796238">
        <ele>1577.950</ele>
        <time>2018-07-16T13:09:13Z</time>
      </trkpt>
      <trkpt lat="45.523550" lon="6.796313">
        <ele>1577.394</ele>
        <time>2018-07-16T13:09:17Z</time>
      </trkpt>
      <trkpt lat="45.523547" lon="6.796393">
        <ele>1578.149</ele>
        <time>2018-07-16T13:09:21Z</time>
      </trkpt>
      <trkpt lat="45.523530" lon="6.796456">
        <ele>1578.228</ele>
        <time>2018-07-16T13:09:25Z</time>
      </trkpt>
      <trkpt lat="45.523514" lon="6.796528">
        <ele>1578.720</ele>
        <time>2018-07-16T13:09:29Z</time>
      </trkpt>
      <trkpt lat="45.523503" lon="6.796597">
        <ele>1578.648</ele>
        <time>2018-07-16T13:09:33Z</time>
      </trkpt>
      <trkpt lat="45.523487" lon="6.796664">
        <ele>1578.161</ele>
        <time>2018-07-16T13:09:37Z</time>
      </trkpt>
      <trkpt lat="45.523478" lon="6.796734">
        <ele>1577.817</ele>
        <time>2018-07-16T13:09:41Z</time>
      </trkpt>
      <trkpt lat="45.523467" lon="6.796800">
        <ele>1577.608</ele>
        <time>2018-07-16T13:09:45Z</time>
      </trkpt>
      <trkpt lat="45.523447" lon="6.796869">
        <ele>1577.156</ele>
        <time>2018-07-16T13:09:49Z</time>
      </trkpt>
      <trkpt lat="45.523432" lon="6.796939">
        <ele>1577.230</ele>
        <time>2018-07-16T13:09:53Z</time>
      </trkpt>
      <trkpt lat="45.523420" lon="6.797007">
        <ele>1577.732</ele>
        <time>2018-07-16T13:09:57Z</time>
      </trkpt>
      <trkpt lat="45.523410" lon="6.797081">
        <ele>1578.427</ele>
        <time>2018-07-16T13:10:01Z</time>
      </trkpt>
      <trkpt lat="45.523393" lon="6.797147">
        <ele>1578.811</ele>
        <time>2018-07-16T13:10:05Z</time>
      </trkpt>
      <trkpt lat="45.523377" lon="6.797213">
        <ele>1579.036</ele>
        <time>2018-07-16T13:10:09Z</time>
      </trkpt>
      <trkpt lat="45.523364" lon="6.797280">
        <ele>1579.145</ele>
        <time>2018-07-16T13:10:13Z</time>
      </trkpt>
      <trkpt lat="45.523354" lon="6.797348">
        <ele>1579.667</ele>
        <time>2018-07-16T13:10:17Z</time>
      </trkpt>
      <trkpt lat="45.523350" lon="6.797422">
        <ele>1580.395</ele>
        <time>2018-07-16T13:10:22Z</time>
      </trkpt>
      <trkpt lat="45.523361" lon="6.797496">
        <ele>1580.749</ele>
        <time>2018-07-16T13:10:27Z</time>
      </trkpt>
      <trkpt lat="45.523381" lon="6.797571">
        <ele>1581.323</ele>
        <time>2018-07-16T13:10:32Z</time>
      </trkpt>
      <trkpt lat="45.523391" lon="6.797634">
        <ele>1582.108</ele>
        <time>2018-07-16T13:10:36Z</time>
      </trkpt>
      <trkpt lat="45.523388" lon="6.797710">
        <ele>1582.681</ele>
        <time>2018-07-16T13:10:41Z</time>
      </trkpt>
      <trkpt lat="45.523374" lon="6.797788">
        <ele>1582.995</ele>
        <time>2018-07-16T13:10:46Z</time>
      </trkpt>
      <trkpt lat="45.523359" lon="6.797852">
        <ele>1583.177</ele>
        <time>2018-07-16T13:10:50Z</time>
      </trkpt>
      <trkpt lat="45.523341" lon="6.797916">
        <ele>1582.062</ele>
        <time>2018-07-16T13:10:54Z</time>
      </trkpt>
      <trkpt lat="45.523317" lon="6.797972">
        <ele>1581.776</ele>
        <time>2018-07-16T13:10:58Z</time>
      </trkpt>
      <trkpt lat="45.523288" lon="6.798032">
        <ele>1581.931</ele>
        <time>2018-07-16T13:11:03Z</time>
      </trkpt>
      <trkpt lat="45.523266" lon="6.798106">
        <ele>1582.480</ele>
        <time>2018-07-16T13:11:08Z</time>
      </trkpt>
      <trkpt lat="45.523250" lon="6.798169">
        <ele>1582.712</ele>
        <time>2018-07-16T13:11:12Z</time>
      </trkpt>
      <trkpt lat="45.523230" lon="6.798240">
        <ele>1582.548</ele>
        <time>2018-07-16T13:11:16Z</time>
      </trkpt>
      <trkpt lat="45.523206" lon="6.798304">
        <ele>1583.261</ele>
        <time>2018-07-16T13:11:20Z</time>
      </trkpt>
      <trkpt lat="45.523176" lon="6.798376">
        <ele>1584.017</ele>
        <time>2018-07-16T13:11:28Z</time>
      </trkpt>
      <trkpt lat="45.523111" lon="6.798341">
        <ele>1587.308</ele>
        <time>2018-07-16T13:11:59Z</time>
      </trkpt>
      <trkpt lat="45.523111" lon="6.798408">
        <ele>1588.596</ele>
        <time>2018-07-16T13:12:04Z</time>
      </trkpt>
      <trkpt lat="45.523067" lon="6.798464">
        <ele>1588.840</ele>
        <time>2018-07-16T13:12:08Z</time>
      </trkpt>
      <trkpt lat="45.523025" lon="6.798507">
        <ele>1589.022</ele>
        <time>2018-07-16T13:12:12Z</time>
      </trkpt>
      <trkpt lat="45.522978" lon="6.798532">
        <ele>1588.717</ele>
        <time>2018-07-16T13:12:17Z</time>
      </trkpt>
      <trkpt lat="45.522928" lon="6.798518">
        <ele>1588.591</ele>
        <time>2018-07-16T13:12:21Z</time>
      </trkpt>
      <trkpt lat="45.522884" lon="6.798538">
        <ele>1588.846</ele>
        <time>2018-07-16T13:12:30Z</time>
      </trkpt>
      <trkpt lat="45.522836" lon="6.798524">
        <ele>1588.645</ele>
        <time>2018-07-16T13:12:35Z</time>
      </trkpt>
      <trkpt lat="45.522788" lon="6.798548">
        <ele>1588.187</ele>
        <time>2018-07-16T13:12:39Z</time>
      </trkpt>
      <trkpt lat="45.522739" lon="6.798582">
        <ele>1588.662</ele>
        <time>2018-07-16T13:12:44Z</time>
      </trkpt>
      <trkpt lat="45.522690" lon="6.798615">
        <ele>1588.583</ele>
        <time>2018-07-16T13:12:49Z</time>
      </trkpt>
      <trkpt lat="45.522646" lon="6.798639">
        <ele>1588.011</ele>
        <time>2018-07-16T13:12:54Z</time>
      </trkpt>
      <trkpt lat="45.522600" lon="6.798652">
        <ele>1587.308</ele>
        <time>2018-07-16T13:12:58Z</time>
      </trkpt>
      <trkpt lat="45.522551" lon="6.798666">
        <ele>1586.928</ele>
        <time>2018-07-16T13:13:02Z</time>
      </trkpt>
      <trkpt lat="45.522505" lon="6.798684">
        <ele>1586.742</ele>
        <time>2018-07-16T13:13:06Z</time>
      </trkpt>
      <trkpt lat="45.522459" lon="6.798718">
        <ele>1586.614</ele>
        <time>2018-07-16T13:13:10Z</time>
      </trkpt>
      <trkpt lat="45.522409" lon="6.798748">
        <ele>1585.779</ele>
        <time>2018-07-16T13:13:14Z</time>
      </trkpt>
      <trkpt lat="45.522372" lon="6.798795">
        <ele>1585.273</ele>
        <time>2018-07-16T13:13:19Z</time>
      </trkpt>
      <trkpt lat="45.522340" lon="6.798852">
        <ele>1584.928</ele>
        <time>2018-07-16T13:13:25Z</time>
      </trkpt>
      <trkpt lat="45.522292" lon="6.798889">
        <ele>1585.137</ele>
        <time>2018-07-16T13:13:30Z</time>
      </trkpt>
      <trkpt lat="45.522251" lon="6.798919">
        <ele>1586.029</ele>
        <time>2018-07-16T13:13:34Z</time>
      </trkpt>
      <trkpt lat="45.522203" lon="6.798933">
        <ele>1586.218</ele>
        <time>2018-07-16T13:13:39Z</time>
      </trkpt>
      <trkpt lat="45.522153" lon="6.798953">
        <ele>1585.998</ele>
        <time>2018-07-16T13:13:43Z</time>
      </trkpt>
      <trkpt lat="45.522100" lon="6.798967">
        <ele>1585.317</ele>
        <time>2018-07-16T13:13:48Z</time>
      </trkpt>
      <trkpt lat="45.522052" lon="6.798976">
        <ele>1584.508</ele>
        <time>2018-07-16T13:13:53Z</time>
      </trkpt>
      <trkpt lat="45.522008" lon="6.798993">
        <ele>1583.663</ele>
        <time>2018-07-16T13:13:57Z</time>
      </trkpt>
      <trkpt lat="45.521955" lon="6.799010">
        <ele>1582.737</ele>
        <time>2018-07-16T13:14:02Z</time>
      </trkpt>
      <trkpt lat="45.521907" lon="6.799025">
        <ele>1581.869</ele>
        <time>2018-07-16T13:14:06Z</time>
      </trkpt>
      <trkpt lat="45.521856" lon="6.799047">
        <ele>1581.244</ele>
        <time>2018-07-16T13:14:10Z</time>
      </trkpt>
      <trkpt lat="45.521804" lon="6.799074">
        <ele>1580.998</ele>
        <time>2018-07-16T13:14:14Z</time>
      </trkpt>
      <trkpt lat="45.521759" lon="6.799108">
        <ele>1581.113</ele>
        <time>2018-07-16T13:14:18Z</time>
      </trkpt>
      <trkpt lat="45.521709" lon="6.799135">
        <ele>1580.492</ele>
        <time>2018-07-16T13:14:23Z</time>
      </trkpt>
      <trkpt lat="45.521667" lon="6.799176">
        <ele>1580.024</ele>
        <time>2018-07-16T13:14:27Z</time>
      </trkpt>
      <trkpt lat="45.521631" lon="6.799230">
        <ele>1581.034</ele>
        <time>2018-07-16T13:14:31Z</time>
      </trkpt>
      <trkpt lat="45.521604" lon="6.799282">
        <ele>1582.855</ele>
        <time>2018-07-16T13:14:34Z</time>
      </trkpt>
      <trkpt lat="45.521578" lon="6.799346">
        <ele>1584.310</ele>
        <time>2018-07-16T13:14:38Z</time>
      </trkpt>
      <trkpt lat="45.521547" lon="6.799410">
        <ele>1585.208</ele>
        <time>2018-07-16T13:14:42Z</time>
      </trkpt>
      <trkpt lat="45.521515" lon="6.799463">
        <ele>1586.135</ele>
        <time>2018-07-16T13:14:46Z</time>
      </trkpt>
      <trkpt lat="45.521483" lon="6.799530">
        <ele>1587.149</ele>
        <time>2018-07-16T13:14:50Z</time>
      </trkpt>
      <trkpt lat="45.521454" lon="6.799587">
        <ele>1587.311</ele>
        <time>2018-07-16T13:14:54Z</time>
      </trkpt>
      <trkpt lat="45.521430" lon="6.799652">
        <ele>1587.846</ele>
        <time>2018-07-16T13:14:58Z</time>
      </trkpt>
      <trkpt lat="45.521407" lon="6.799709">
        <ele>1588.180</ele>
        <time>2018-07-16T13:15:02Z</time>
      </trkpt>
      <trkpt lat="45.521378" lon="6.799763">
        <ele>1588.755</ele>
        <time>2018-07-16T13:15:06Z</time>
      </trkpt>
      <trkpt lat="45.521349" lon="6.799824">
        <ele>1589.074</ele>
        <time>2018-07-16T13:15:10Z</time>
      </trkpt>
      <trkpt lat="45.521321" lon="6.799880">
        <ele>1589.656</ele>
        <time>2018-07-16T13:15:14Z</time>
      </trkpt>
      <trkpt lat="45.521288" lon="6.799927">
        <ele>1589.654</ele>
        <time>2018-07-16T13:15:18Z</time>
      </trkpt>
      <trkpt lat="45.521239" lon="6.799958">
        <ele>1590.056</ele>
        <time>2018-07-16T13:15:22Z</time>
      </trkpt>
      <trkpt lat="45.521195" lon="6.799986">
        <ele>1589.811</ele>
        <time>2018-07-16T13:15:26Z</time>
      </trkpt>
      <trkpt lat="45.521148" lon="6.800034">
        <ele>1590.508</ele>
        <time>2018-07-16T13:15:31Z</time>
      </trkpt>
      <trkpt lat="45.521100" lon="6.800069">
        <ele>1591.397</ele>
        <time>2018-07-16T13:15:35Z</time>
      </trkpt>
      <trkpt lat="45.521061" lon="6.800110">
        <ele>1591.881</ele>
        <time>2018-07-16T13:15:39Z</time>
      </trkpt>
      <trkpt lat="45.521027" lon="6.800161">
        <ele>1592.143</ele>
        <time>2018-07-16T13:15:44Z</time>
      </trkpt>
      <trkpt lat="45.520992" lon="6.800217">
        <ele>1593.188</ele>
        <time>2018-07-16T13:15:48Z</time>
      </trkpt>
      <trkpt lat="45.520976" lon="6.800285">
        <ele>1593.322</ele>
        <time>2018-07-16T13:15:52Z</time>
      </trkpt>
      <trkpt lat="45.520960" lon="6.800348">
        <ele>1592.287</ele>
        <time>2018-07-16T13:15:57Z</time>
      </trkpt>
      <trkpt lat="45.520945" lon="6.800412">
        <ele>1591.926</ele>
        <time>2018-07-16T13:16:01Z</time>
      </trkpt>
      <trkpt lat="45.520933" lon="6.800479">
        <ele>1591.328</ele>
        <time>2018-07-16T13:16:05Z</time>
      </trkpt>
      <trkpt lat="45.520919" lon="6.800541">
        <ele>1591.435</ele>
        <time>2018-07-16T13:16:09Z</time>
      </trkpt>
      <trkpt lat="45.520906" lon="6.800609">
        <ele>1591.886</ele>
        <time>2018-07-16T13:16:13Z</time>
      </trkpt>
      <trkpt lat="45.520880" lon="6.800673">
        <ele>1592.514</ele>
        <time>2018-07-16T13:16:17Z</time>
      </trkpt>
      <trkpt lat="45.520857" lon="6.800728">
        <ele>1592.908</ele>
        <time>2018-07-16T13:16:21Z</time>
      </trkpt>
      <trkpt lat="45.520847" lon="6.800795">
        <ele>1592.785</ele>
        <time>2018-07-16T13:16:25Z</time>
      </trkpt>
      <trkpt lat="45.520826" lon="6.800862">
        <ele>1592.299</ele>
        <time>2018-07-16T13:16:30Z</time>
      </trkpt>
      <trkpt lat="45.520805" lon="6.800922">
        <ele>1592.391</ele>
        <time>2018-07-16T13:16:34Z</time>
      </trkpt>
      <trkpt lat="45.520776" lon="6.800976">
        <ele>1592.446</ele>
        <time>2018-07-16T13:16:38Z</time>
      </trkpt>
      <trkpt lat="45.520744" lon="6.801035">
        <ele>1592.880</ele>
        <time>2018-07-16T13:16:42Z</time>
      </trkpt>
      <trkpt lat="45.520703" lon="6.801088">
        <ele>1593.125</ele>
        <time>2018-07-16T13:16:47Z</time>
      </trkpt>
      <trkpt lat="45.520671" lon="6.801142">
        <ele>1593.744</ele>
        <time>2018-07-16T13:16:51Z</time>
      </trkpt>
      <trkpt lat="45.520647" lon="6.801198">
        <ele>1593.666</ele>
        <time>2018-07-16T13:16:55Z</time>
      </trkpt>
      <trkpt lat="45.520633" lon="6.801269">
        <ele>1594.086</ele>
        <time>2018-07-16T13:16:59Z</time>
      </trkpt>
      <trkpt lat="45.520618" lon="6.801347">
        <ele>1594.660</ele>
        <time>2018-07-16T13:17:03Z</time>
      </trkpt>
      <trkpt lat="45.520598" lon="6.801416">
        <ele>1595.826</ele>
        <time>2018-07-16T13:17:07Z</time>
      </trkpt>
      <trkpt lat="45.520580" lon="6.801481">
        <ele>1596.908</ele>
        <time>2018-07-16T13:17:11Z</time>
      </trkpt>
      <trkpt lat="45.520550" lon="6.801540">
        <ele>1598.010</ele>
        <time>2018-07-16T13:17:16Z</time>
      </trkpt>
      <trkpt lat="45.520530" lon="6.801610">
        <ele>1598.674</ele>
        <time>2018-07-16T13:17:21Z</time>
      </trkpt>
      <trkpt lat="45.520517" lon="6.801674">
        <ele>1598.676</ele>
        <time>2018-07-16T13:17:26Z</time>
      </trkpt>
      <trkpt lat="45.520505" lon="6.801746">
        <ele>1598.611</ele>
        <time>2018-07-16T13:17:30Z</time>
      </trkpt>
      <trkpt lat="45.520495" lon="6.801818">
        <ele>1598.675</ele>
        <time>2018-07-16T13:17:34Z</time>
      </trkpt>
      <trkpt lat="45.520492" lon="6.801886">
        <ele>1598.250</ele>
        <time>2018-07-16T13:17:38Z</time>
      </trkpt>
      <trkpt lat="45.520477" lon="6.801953">
        <ele>1598.479</ele>
        <time>2018-07-16T13:17:43Z</time>
      </trkpt>
      <trkpt lat="45.520468" lon="6.802030">
        <ele>1598.191</ele>
        <time>2018-07-16T13:17:48Z</time>
      </trkpt>
      <trkpt lat="45.520459" lon="6.802097">
        <ele>1597.527</ele>
        <time>2018-07-16T13:17:52Z</time>
      </trkpt>
      <trkpt lat="45.520450" lon="6.802160">
        <ele>1596.868</ele>
        <time>2018-07-16T13:17:56Z</time>
      </trkpt>
      <trkpt lat="45.520441" lon="6.802224">
        <ele>1596.414</ele>
        <time>2018-07-16T13:18:00Z</time>
      </trkpt>
      <trkpt lat="45.520434" lon="6.802299">
        <ele>1597.308</ele>
        <time>2018-07-16T13:18:04Z</time>
      </trkpt>
      <trkpt lat="45.520421" lon="6.802363">
        <ele>1598.354</ele>
        <time>2018-07-16T13:18:08Z</time>
      </trkpt>
      <trkpt lat="45.520399" lon="6.802424">
        <ele>1598.938</ele>
        <time>2018-07-16T13:18:13Z</time>
      </trkpt>
      <trkpt lat="45.520378" lon="6.802490">
        <ele>1599.630</ele>
        <time>2018-07-16T13:18:18Z</time>
      </trkpt>
      <trkpt lat="45.520372" lon="6.802556">
        <ele>1599.295</ele>
        <time>2018-07-16T13:18:22Z</time>
      </trkpt>
      <trkpt lat="45.520370" lon="6.802633">
        <ele>1598.279</ele>
        <time>2018-07-16T13:18:27Z</time>
      </trkpt>
      <trkpt lat="45.520362" lon="6.802700">
        <ele>1598.494</ele>
        <time>2018-07-16T13:18:31Z</time>
      </trkpt>
      <trkpt lat="45.520344" lon="6.802765">
        <ele>1598.993</ele>
        <time>2018-07-16T13:18:36Z</time>
      </trkpt>
      <trkpt lat="45.520337" lon="6.802830">
        <ele>1598.825</ele>
        <time>2018-07-16T13:18:41Z</time>
      </trkpt>
      <trkpt lat="45.520295" lon="6.802871">
        <ele>1599.599</ele>
        <time>2018-07-16T13:18:47Z</time>
      </trkpt>
      <trkpt lat="45.520247" lon="6.802849">
        <ele>1598.707</ele>
        <time>2018-07-16T13:18:53Z</time>
      </trkpt>
      <trkpt lat="45.520203" lon="6.802830">
        <ele>1599.027</ele>
        <time>2018-07-16T13:18:57Z</time>
      </trkpt>
      <trkpt lat="45.520155" lon="6.802837">
        <ele>1599.208</ele>
        <time>2018-07-16T13:19:00Z</time>
      </trkpt>
      <trkpt lat="45.520106" lon="6.802831">
        <ele>1599.751</ele>
        <time>2018-07-16T13:20:09Z</time>
      </trkpt>
      <trkpt lat="45.520061" lon="6.802807">
        <ele>1599.225</ele>
        <time>2018-07-16T13:20:14Z</time>
      </trkpt>
      <trkpt lat="45.520008" lon="6.802785">
        <ele>1599.397</ele>
        <time>2018-07-16T13:20:18Z</time>
      </trkpt>
      <trkpt lat="45.519963" lon="6.802765">
        <ele>1599.462</ele>
        <time>2018-07-16T13:20:22Z</time>
      </trkpt>
      <trkpt lat="45.519913" lon="6.802756">
        <ele>1599.426</ele>
        <time>2018-07-16T13:20:26Z</time>
      </trkpt>
      <trkpt lat="45.519863" lon="6.802764">
        <ele>1599.491</ele>
        <time>2018-07-16T13:20:31Z</time>
      </trkpt>
      <trkpt lat="45.519815" lon="6.802782">
        <ele>1599.080</ele>
        <time>2018-07-16T13:20:36Z</time>
      </trkpt>
      <trkpt lat="45.519753" lon="6.802749">
        <ele>1600.842</ele>
        <time>2018-07-16T13:20:47Z</time>
      </trkpt>
      <trkpt lat="45.519710" lon="6.802706">
        <ele>1601.998</ele>
        <time>2018-07-16T13:20:56Z</time>
      </trkpt>
      <trkpt lat="45.519662" lon="6.802696">
        <ele>1602.115</ele>
        <time>2018-07-16T13:21:00Z</time>
      </trkpt>
      <trkpt lat="45.519617" lon="6.802686">
        <ele>1601.826</ele>
        <time>2018-07-16T13:21:04Z</time>
      </trkpt>
      <trkpt lat="45.519564" lon="6.802677">
        <ele>1600.808</ele>
        <time>2018-07-16T13:21:10Z</time>
      </trkpt>
      <trkpt lat="45.519514" lon="6.802669">
        <ele>1600.671</ele>
        <time>2018-07-16T13:21:17Z</time>
      </trkpt>
      <trkpt lat="45.519464" lon="6.802645">
        <ele>1600.525</ele>
        <time>2018-07-16T13:21:21Z</time>
      </trkpt>
      <trkpt lat="45.519409" lon="6.802619">
        <ele>1600.027</ele>
        <time>2018-07-16T13:21:25Z</time>
      </trkpt>
      <trkpt lat="45.519356" lon="6.802594">
        <ele>1600.962</ele>
        <time>2018-07-16T13:21:30Z</time>
      </trkpt>
      <trkpt lat="45.519314" lon="6.802568">
        <ele>1601.576</ele>
        <time>2018-07-16T13:21:34Z</time>
      </trkpt>
      <trkpt lat="45.519274" lon="6.802531">
        <ele>1600.671</ele>
        <time>2018-07-16T13:21:38Z</time>
      </trkpt>
      <trkpt lat="45.519234" lon="6.802487">
        <ele>1600.170</ele>
        <time>2018-07-16T13:21:42Z</time>
      </trkpt>
      <trkpt lat="45.519196" lon="6.802452">
        <ele>1599.012</ele>
        <time>2018-07-16T13:21:46Z</time>
      </trkpt>
      <trkpt lat="45.519140" lon="6.802448">
        <ele>1598.342</ele>
        <time>2018-07-16T13:21:51Z</time>
      </trkpt>
      <trkpt lat="45.519090" lon="6.802465">
        <ele>1597.122</ele>
        <time>2018-07-16T13:21:56Z</time>
      </trkpt>
      <trkpt lat="45.519037" lon="6.802484">
        <ele>1596.814</ele>
        <time>2018-07-16T13:22:01Z</time>
      </trkpt>
      <trkpt lat="45.518991" lon="6.802503">
        <ele>1596.208</ele>
        <time>2018-07-16T13:22:05Z</time>
      </trkpt>
      <trkpt lat="45.518945" lon="6.802514">
        <ele>1596.216</ele>
        <time>2018-07-16T13:22:09Z</time>
      </trkpt>
      <trkpt lat="45.518926" lon="6.802591">
        <ele>1596.690</ele>
        <time>2018-07-16T13:22:20Z</time>
      </trkpt>
      <trkpt lat="45.518880" lon="6.802570">
        <ele>1596.942</ele>
        <time>2018-07-16T13:22:25Z</time>
      </trkpt>
      <trkpt lat="45.518835" lon="6.802569">
        <ele>1596.317</ele>
        <time>2018-07-16T13:22:29Z</time>
      </trkpt>
      <trkpt lat="45.518788" lon="6.802580">
        <ele>1596.371</ele>
        <time>2018-07-16T13:22:33Z</time>
      </trkpt>
      <trkpt lat="45.518734" lon="6.802549">
        <ele>1595.976</ele>
        <time>2018-07-16T13:22:37Z</time>
      </trkpt>
      <trkpt lat="45.518692" lon="6.802523">
        <ele>1596.195</ele>
        <time>2018-07-16T13:22:40Z</time>
      </trkpt>
      <trkpt lat="45.518652" lon="6.802494">
        <ele>1596.647</ele>
        <time>2018-07-16T13:22:43Z</time>
      </trkpt>
      <trkpt lat="45.518610" lon="6.802536">
        <ele>1597.723</ele>
        <time>2018-07-16T13:22:50Z</time>
      </trkpt>
      <trkpt lat="45.518584" lon="6.802595">
        <ele>1598.883</ele>
        <time>2018-07-16T13:22:55Z</time>
      </trkpt>
      <trkpt lat="45.518570" lon="6.802666">
        <ele>1599.811</ele>
        <time>2018-07-16T13:23:01Z</time>
      </trkpt>
      <trkpt lat="45.518578" lon="6.802747">
        <ele>1600.408</ele>
        <time>2018-07-16T13:23:06Z</time>
      </trkpt>
      <trkpt lat="45.518588" lon="6.802816">
        <ele>1600.454</ele>
        <time>2018-07-16T13:23:10Z</time>
      </trkpt>
      <trkpt lat="45.518593" lon="6.802888">
        <ele>1600.418</ele>
        <time>2018-07-16T13:23:14Z</time>
      </trkpt>
      <trkpt lat="45.518598" lon="6.802960">
        <ele>1600.450</ele>
        <time>2018-07-16T13:23:18Z</time>
      </trkpt>
      <trkpt lat="45.518599" lon="6.803033">
        <ele>1600.825</ele>
        <time>2018-07-16T13:23:22Z</time>
      </trkpt>
      <trkpt lat="45.518600" lon="6.803103">
        <ele>1600.639</ele>
        <time>2018-07-16T13:23:26Z</time>
      </trkpt>
      <trkpt lat="45.518588" lon="6.803169">
        <ele>1600.964</ele>
        <time>2018-07-16T13:23:30Z</time>
      </trkpt>
      <trkpt lat="45.518570" lon="6.803234">
        <ele>1600.783</ele>
        <time>2018-07-16T13:23:34Z</time>
      </trkpt>
      <trkpt lat="45.518567" lon="6.803309">
        <ele>1600.665</ele>
        <time>2018-07-16T13:23:41Z</time>
      </trkpt>
      <trkpt lat="45.518570" lon="6.803386">
        <ele>1600.572</ele>
        <time>2018-07-16T13:23:47Z</time>
      </trkpt>
      <trkpt lat="45.518564" lon="6.803452">
        <ele>1600.513</ele>
        <time>2018-07-16T13:23:51Z</time>
      </trkpt>
      <trkpt lat="45.518562" lon="6.803522">
        <ele>1600.114</ele>
        <time>2018-07-16T13:23:55Z</time>
      </trkpt>
      <trkpt lat="45.518561" lon="6.803588">
        <ele>1600.208</ele>
        <time>2018-07-16T13:23:59Z</time>
      </trkpt>
      <trkpt lat="45.518560" lon="6.803655">
        <ele>1600.399</ele>
        <time>2018-07-16T13:24:03Z</time>
      </trkpt>
      <trkpt lat="45.518558" lon="6.803727">
        <ele>1600.433</ele>
        <time>2018-07-16T13:24:07Z</time>
      </trkpt>
      <trkpt lat="45.518553" lon="6.803796">
        <ele>1600.425</ele>
        <time>2018-07-16T13:24:11Z</time>
      </trkpt>
      <trkpt lat="45.518546" lon="6.803876">
        <ele>1600.430</ele>
        <time>2018-07-16T13:24:16Z</time>
      </trkpt>
      <trkpt lat="45.518547" lon="6.803947">
        <ele>1600.474</ele>
        <time>2018-07-16T13:24:20Z</time>
      </trkpt>
      <trkpt lat="45.518553" lon="6.804019">
        <ele>1600.859</ele>
        <time>2018-07-16T13:24:24Z</time>
      </trkpt>
      <trkpt lat="45.518558" lon="6.804097">
        <ele>1600.628</ele>
        <time>2018-07-16T13:24:29Z</time>
      </trkpt>
      <trkpt lat="45.518564" lon="6.804172">
        <ele>1600.940</ele>
        <time>2018-07-16T13:24:34Z</time>
      </trkpt>
      <trkpt lat="45.518570" lon="6.804250">
        <ele>1601.974</ele>
        <time>2018-07-16T13:24:40Z</time>
      </trkpt>
      <trkpt lat="45.518575" lon="6.804318">
        <ele>1602.956</ele>
        <time>2018-07-16T13:24:45Z</time>
      </trkpt>
      <trkpt lat="45.518569" lon="6.804393">
        <ele>1604.321</ele>
        <time>2018-07-16T13:24:50Z</time>
      </trkpt>
      <trkpt lat="45.518566" lon="6.804459">
        <ele>1604.708</ele>
        <time>2018-07-16T13:24:54Z</time>
      </trkpt>
      <trkpt lat="45.518563" lon="6.804537">
        <ele>1605.429</ele>
        <time>2018-07-16T13:24:59Z</time>
      </trkpt>
      <trkpt lat="45.518553" lon="6.804606">
        <ele>1605.843</ele>
        <time>2018-07-16T13:25:09Z</time>
      </trkpt>
      <trkpt lat="45.518560" lon="6.804675">
        <ele>1606.045</ele>
        <time>2018-07-16T13:25:14Z</time>
      </trkpt>
      <trkpt lat="45.518562" lon="6.804747">
        <ele>1606.140</ele>
        <time>2018-07-16T13:25:19Z</time>
      </trkpt>
      <trkpt lat="45.518552" lon="6.804817">
        <ele>1606.294</ele>
        <time>2018-07-16T13:25:24Z</time>
      </trkpt>
      <trkpt lat="45.518555" lon="6.804888">
        <ele>1606.259</ele>
        <time>2018-07-16T13:44:51Z</time>
      </trkpt>
      <trkpt lat="45.518526" lon="6.804959">
        <ele>1607.088</ele>
        <time>2018-07-16T13:44:57Z</time>
      </trkpt>
      <trkpt lat="45.518512" lon="6.805043">
        <ele>1607.370</ele>
        <time>2018-07-16T13:45:02Z</time>
      </trkpt>
      <trkpt lat="45.518506" lon="6.805109">
        <ele>1609.183</ele>
        <time>2018-07-16T13:45:06Z</time>
      </trkpt>
      <trkpt lat="45.518501" lon="6.805186">
        <ele>1609.825</ele>
        <time>2018-07-16T13:45:12Z</time>
      </trkpt>
      <trkpt lat="45.518476" lon="6.805242">
        <ele>1606.717</ele>
        <time>2018-07-16T13:45:17Z</time>
      </trkpt>
      <trkpt lat="45.518440" lon="6.805297">
        <ele>1606.508</ele>
        <time>2018-07-16T13:45:25Z</time>
      </trkpt>
      <trkpt lat="45.518406" lon="6.805345">
        <ele>1606.440</ele>
        <time>2018-07-16T13:45:30Z</time>
      </trkpt>
      <trkpt lat="45.518372" lon="6.805408">
        <ele>1605.944</ele>
        <time>2018-07-16T13:45:35Z</time>
      </trkpt>
      <trkpt lat="45.518344" lon="6.805464">
        <ele>1606.466</ele>
        <time>2018-07-16T13:45:39Z</time>
      </trkpt>
      <trkpt lat="45.518304" lon="6.805518">
        <ele>1607.111</ele>
        <time>2018-07-16T13:45:44Z</time>
      </trkpt>
      <trkpt lat="45.518266" lon="6.805565">
        <ele>1607.555</ele>
        <time>2018-07-16T13:45:49Z</time>
      </trkpt>
      <trkpt lat="45.518229" lon="6.805615">
        <ele>1607.490</ele>
        <time>2018-07-16T13:45:55Z</time>
      </trkpt>
      <trkpt lat="45.518196" lon="6.805662">
        <ele>1607.769</ele>
        <time>2018-07-16T13:46:01Z</time>
      </trkpt>
      <trkpt lat="45.518167" lon="6.805715">
        <ele>1607.931</ele>
        <time>2018-07-16T13:46:06Z</time>
      </trkpt>
      <trkpt lat="45.518126" lon="6.805761">
        <ele>1607.613</ele>
        <time>2018-07-16T13:46:11Z</time>
      </trkpt>
      <trkpt lat="45.518103" lon="6.805819">
        <ele>1607.443</ele>
        <time>2018-07-16T13:46:16Z</time>
      </trkpt>
      <trkpt lat="45.518083" lon="6.805877">
        <ele>1608.107</ele>
        <time>2018-07-16T13:46:20Z</time>
      </trkpt>
      <trkpt lat="45.518063" lon="6.805940">
        <ele>1608.508</ele>
        <time>2018-07-16T13:46:25Z</time>
      </trkpt>
      <trkpt lat="45.518035" lon="6.805999">
        <ele>1608.843</ele>
        <time>2018-07-16T13:46:30Z</time>
      </trkpt>
      <trkpt lat="45.518013" lon="6.806062">
        <ele>1609.097</ele>
        <time>2018-07-16T13:46:36Z</time>
      </trkpt>
      <trkpt lat="45.517981" lon="6.806116">
        <ele>1609.949</ele>
        <time>2018-07-16T13:46:43Z</time>
      </trkpt>
      <trkpt lat="45.517952" lon="6.806167">
        <ele>1610.864</ele>
        <time>2018-07-16T13:46:48Z</time>
      </trkpt>
      <trkpt lat="45.517922" lon="6.806219">
        <ele>1611.418</ele>
        <time>2018-07-16T13:46:54Z</time>
      </trkpt>
      <trkpt lat="45.517884" lon="6.806270">
        <ele>1612.593</ele>
        <time>2018-07-16T13:47:00Z</time>
      </trkpt>
      <trkpt lat="45.517858" lon="6.806331">
        <ele>1613.222</ele>
        <time>2018-07-16T13:47:07Z</time>
      </trkpt>
      <trkpt lat="45.517845" lon="6.806399">
        <ele>1613.674</ele>
        <time>2018-07-16T13:47:14Z</time>
      </trkpt>
      <trkpt lat="45.517820" lon="6.806456">
        <ele>1614.234</ele>
        <time>2018-07-16T13:47:20Z</time>
      </trkpt>
      <trkpt lat="45.517810" lon="6.806525">
        <ele>1615.055</ele>
        <time>2018-07-16T13:47:26Z</time>
      </trkpt>
      <trkpt lat="45.517789" lon="6.806590">
        <ele>1615.910</ele>
        <time>2018-07-16T13:47:33Z</time>
      </trkpt>
      <trkpt lat="45.517785" lon="6.806658">
        <ele>1617.208</ele>
        <time>2018-07-16T13:47:40Z</time>
      </trkpt>
      <trkpt lat="45.517780" lon="6.806724">
        <ele>1618.025</ele>
        <time>2018-07-16T13:47:46Z</time>
      </trkpt>
      <trkpt lat="45.517767" lon="6.806795">
        <ele>1619.379</ele>
        <time>2018-07-16T13:47:52Z</time>
      </trkpt>
      <trkpt lat="45.517750" lon="6.806856">
        <ele>1619.721</ele>
        <time>2018-07-16T13:47:57Z</time>
      </trkpt>
      <trkpt lat="45.517733" lon="6.806927">
        <ele>1619.976</ele>
        <time>2018-07-16T13:48:03Z</time>
      </trkpt>
      <trkpt lat="45.517712" lon="6.806988">
        <ele>1619.220</ele>
        <time>2018-07-16T13:48:08Z</time>
      </trkpt>
      <trkpt lat="45.517685" lon="6.807042">
        <ele>1618.885</ele>
        <time>2018-07-16T13:48:13Z</time>
      </trkpt>
      <trkpt lat="45.517656" lon="6.807107">
        <ele>1618.224</ele>
        <time>2018-07-16T13:48:19Z</time>
      </trkpt>
      <trkpt lat="45.517637" lon="6.807178">
        <ele>1618.216</ele>
        <time>2018-07-16T13:48:25Z</time>
      </trkpt>
      <trkpt lat="45.517623" lon="6.807247">
        <ele>1618.235</ele>
        <time>2018-07-16T13:48:31Z</time>
      </trkpt>
      <trkpt lat="45.517615" lon="6.807312">
        <ele>1618.686</ele>
        <time>2018-07-16T13:48:37Z</time>
      </trkpt>
      <trkpt lat="45.517620" lon="6.807381">
        <ele>1618.814</ele>
        <time>2018-07-16T13:48:43Z</time>
      </trkpt>
      <trkpt lat="45.517622" lon="6.807450">
        <ele>1619.708</ele>
        <time>2018-07-16T13:48:51Z</time>
      </trkpt>
      <trkpt lat="45.517625" lon="6.807519">
        <ele>1620.745</ele>
        <time>2018-07-16T13:48:58Z</time>
      </trkpt>
      <trkpt lat="45.517605" lon="6.807586">
        <ele>1622.149</ele>
        <time>2018-07-16T13:49:08Z</time>
      </trkpt>
      <trkpt lat="45.517566" lon="6.807646">
        <ele>1623.361</ele>
        <time>2018-07-16T13:49:16Z</time>
      </trkpt>
      <trkpt lat="45.517533" lon="6.807691">
        <ele>1624.016</ele>
        <time>2018-07-16T13:49:23Z</time>
      </trkpt>
      <trkpt lat="45.517515" lon="6.807760">
        <ele>1624.880</ele>
        <time>2018-07-16T13:49:30Z</time>
      </trkpt>
      <trkpt lat="45.517494" lon="6.807819">
        <ele>1625.345</ele>
        <time>2018-07-16T13:49:35Z</time>
      </trkpt>
      <trkpt lat="45.517478" lon="6.807883">
        <ele>1626.064</ele>
        <time>2018-07-16T13:49:40Z</time>
      </trkpt>
      <trkpt lat="45.517459" lon="6.807947">
        <ele>1627.256</ele>
        <time>2018-07-16T13:49:47Z</time>
      </trkpt>
      <trkpt lat="45.517426" lon="6.807997">
        <ele>1627.575</ele>
        <time>2018-07-16T13:49:55Z</time>
      </trkpt>
      <trkpt lat="45.517403" lon="6.808063">
        <ele>1628.928</ele>
        <time>2018-07-16T13:50:03Z</time>
      </trkpt>
      <trkpt lat="45.517375" lon="6.808117">
        <ele>1628.520</ele>
        <time>2018-07-16T13:50:10Z</time>
      </trkpt>
      <trkpt lat="45.517337" lon="6.808156">
        <ele>1628.308</ele>
        <time>2018-07-16T13:50:18Z</time>
      </trkpt>
      <trkpt lat="45.517295" lon="6.808192">
        <ele>1627.819</ele>
        <time>2018-07-16T13:50:27Z</time>
      </trkpt>
      <trkpt lat="45.517279" lon="6.808266">
        <ele>1628.793</ele>
        <time>2018-07-16T13:50:33Z</time>
      </trkpt>
      <trkpt lat="45.517252" lon="6.808323">
        <ele>1629.235</ele>
        <time>2018-07-16T13:50:39Z</time>
      </trkpt>
      <trkpt lat="45.517217" lon="6.808383">
        <ele>1630.330</ele>
        <time>2018-07-16T13:50:45Z</time>
      </trkpt>
      <trkpt lat="45.517188" lon="6.808438">
        <ele>1631.064</ele>
        <time>2018-07-16T13:50:50Z</time>
      </trkpt>
      <trkpt lat="45.517161" lon="6.808499">
        <ele>1631.859</ele>
        <time>2018-07-16T13:50:57Z</time>
      </trkpt>
      <trkpt lat="45.517159" lon="6.808565">
        <ele>1631.568</ele>
        <time>2018-07-16T13:51:02Z</time>
      </trkpt>
      <trkpt lat="45.517138" lon="6.808629">
        <ele>1631.770</ele>
        <time>2018-07-16T13:51:09Z</time>
      </trkpt>
      <trkpt lat="45.517101" lon="6.808670">
        <ele>1631.499</ele>
        <time>2018-07-16T13:51:17Z</time>
      </trkpt>
      <trkpt lat="45.517065" lon="6.808710">
        <ele>1632.007</ele>
        <time>2018-07-16T13:51:24Z</time>
      </trkpt>
      <trkpt lat="45.517043" lon="6.808768">
        <ele>1632.827</ele>
        <time>2018-07-16T13:51:31Z</time>
      </trkpt>
      <trkpt lat="45.517023" lon="6.808827">
        <ele>1633.708</ele>
        <time>2018-07-16T13:51:41Z</time>
      </trkpt>
      <trkpt lat="45.516986" lon="6.808874">
        <ele>1633.891</ele>
        <time>2018-07-16T13:51:47Z</time>
      </trkpt>
      <trkpt lat="45.516959" lon="6.808926">
        <ele>1633.575</ele>
        <time>2018-07-16T13:51:52Z</time>
      </trkpt>
      <trkpt lat="45.516942" lon="6.808993">
        <ele>1634.547</ele>
        <time>2018-07-16T13:51:57Z</time>
      </trkpt>
      <trkpt lat="45.516922" lon="6.809061">
        <ele>1635.162</ele>
        <time>2018-07-16T13:52:03Z</time>
      </trkpt>
      <trkpt lat="45.516899" lon="6.809126">
        <ele>1635.596</ele>
        <time>2018-07-16T13:52:09Z</time>
      </trkpt>
      <trkpt lat="45.516880" lon="6.809193">
        <ele>1636.591</ele>
        <time>2018-07-16T13:52:16Z</time>
      </trkpt>
      <trkpt lat="45.516834" lon="6.809228">
        <ele>1638.340</ele>
        <time>2018-07-16T13:52:24Z</time>
      </trkpt>
      <trkpt lat="45.516809" lon="6.809284">
        <ele>1638.642</ele>
        <time>2018-07-16T13:52:32Z</time>
      </trkpt>
      <trkpt lat="45.516783" lon="6.809346">
        <ele>1639.675</ele>
        <time>2018-07-16T13:52:39Z</time>
      </trkpt>
      <trkpt lat="45.516773" lon="6.809416">
        <ele>1640.628</ele>
        <time>2018-07-16T13:52:47Z</time>
      </trkpt>
      <trkpt lat="45.516738" lon="6.809466">
        <ele>1642.020</ele>
        <time>2018-07-16T13:52:54Z</time>
      </trkpt>
      <trkpt lat="45.516718" lon="6.809528">
        <ele>1643.208</ele>
        <time>2018-07-16T13:53:01Z</time>
      </trkpt>
      <trkpt lat="45.516694" lon="6.809583">
        <ele>1643.569</ele>
        <time>2018-07-16T13:53:09Z</time>
      </trkpt>
      <trkpt lat="45.516672" lon="6.809640">
        <ele>1644.163</ele>
        <time>2018-07-16T13:53:19Z</time>
      </trkpt>
      <trkpt lat="45.516644" lon="6.809691">
        <ele>1645.365</ele>
        <time>2018-07-16T13:53:27Z</time>
      </trkpt>
      <trkpt lat="45.516615" lon="6.809743">
        <ele>1647.210</ele>
        <time>2018-07-16T13:53:37Z</time>
      </trkpt>
      <trkpt lat="45.516587" lon="6.809795">
        <ele>1647.924</ele>
        <time>2018-07-16T13:53:45Z</time>
      </trkpt>
      <trkpt lat="45.516564" lon="6.809854">
        <ele>1649.949</ele>
        <time>2018-07-16T13:53:53Z</time>
      </trkpt>
      <trkpt lat="45.516543" lon="6.809914">
        <ele>1652.358</ele>
        <time>2018-07-16T13:54:01Z</time>
      </trkpt>
      <trkpt lat="45.516510" lon="6.809965">
        <ele>1655.040</ele>
        <time>2018-07-16T13:54:08Z</time>
      </trkpt>
      <trkpt lat="45.516508" lon="6.810032">
        <ele>1655.845</ele>
        <time>2018-07-16T13:54:19Z</time>
      </trkpt>
      <trkpt lat="45.516517" lon="6.810102">
        <ele>1656.747</ele>
        <time>2018-07-16T13:54:26Z</time>
      </trkpt>
      <trkpt lat="45.516531" lon="6.810166">
        <ele>1657.611</ele>
        <time>2018-07-16T13:54:33Z</time>
      </trkpt>
      <trkpt lat="45.516522" lon="6.810231">
        <ele>1658.208</ele>
        <time>2018-07-16T13:54:41Z</time>
      </trkpt>
      <trkpt lat="45.516479" lon="6.810265">
        <ele>1657.336</ele>
        <time>2018-07-16T13:54:52Z</time>
      </trkpt>
      <trkpt lat="45.516445" lon="6.810315">
        <ele>1657.290</ele>
        <time>2018-07-16T13:55:01Z</time>
      </trkpt>
      <trkpt lat="45.516403" lon="6.810346">
        <ele>1657.962</ele>
        <time>2018-07-16T13:55:11Z</time>
      </trkpt>
      <trkpt lat="45.516365" lon="6.810387">
        <ele>1659.937</ele>
        <time>2018-07-16T13:55:21Z</time>
      </trkpt>
      <trkpt lat="45.516362" lon="6.810453">
        <ele>1660.391</ele>
        <time>2018-07-16T13:55:29Z</time>
      </trkpt>
      <trkpt lat="45.516359" lon="6.810523">
        <ele>1661.066</ele>
        <time>2018-07-16T13:55:38Z</time>
      </trkpt>
      <trkpt lat="45.516377" lon="6.810585">
        <ele>1662.285</ele>
        <time>2018-07-16T13:55:47Z</time>
      </trkpt>
      <trkpt lat="45.516381" lon="6.810657">
        <ele>1662.967</ele>
        <time>2018-07-16T13:55:55Z</time>
      </trkpt>
      <trkpt lat="45.516363" lon="6.810722">
        <ele>1664.121</ele>
        <time>2018-07-16T13:56:05Z</time>
      </trkpt>
      <trkpt lat="45.516324" lon="6.810760">
        <ele>1665.241</ele>
        <time>2018-07-16T13:56:14Z</time>
      </trkpt>
      <trkpt lat="45.516313" lon="6.810829">
        <ele>1666.305</ele>
        <time>2018-07-16T13:56:22Z</time>
      </trkpt>
      <trkpt lat="45.516277" lon="6.810879">
        <ele>1668.108</ele>
        <time>2018-07-16T13:56:30Z</time>
      </trkpt>
      <trkpt lat="45.516268" lon="6.810949">
        <ele>1667.624</ele>
        <time>2018-07-16T13:56:38Z</time>
      </trkpt>
      <trkpt lat="45.516249" lon="6.811008">
        <ele>1668.588</ele>
        <time>2018-07-16T13:56:46Z</time>
      </trkpt>
      <trkpt lat="45.516232" lon="6.811073">
        <ele>1670.270</ele>
        <time>2018-07-16T13:56:57Z</time>
      </trkpt>
      <trkpt lat="45.516208" lon="6.811130">
        <ele>1671.265</ele>
        <time>2018-07-16T13:57:05Z</time>
      </trkpt>
      <trkpt lat="45.516207" lon="6.811195">
        <ele>1672.699</ele>
        <time>2018-07-16T13:57:13Z</time>
      </trkpt>
      <trkpt lat="45.516186" lon="6.811254">
        <ele>1673.574</ele>
        <time>2018-07-16T13:57:24Z</time>
      </trkpt>
      <trkpt lat="45.516161" lon="6.811310">
        <ele>1674.843</ele>
        <time>2018-07-16T13:57:32Z</time>
      </trkpt>
      <trkpt lat="45.516149" lon="6.811373">
        <ele>1676.485</ele>
        <time>2018-07-16T13:57:40Z</time>
      </trkpt>
      <trkpt lat="45.516129" lon="6.811435">
        <ele>1677.868</ele>
        <time>2018-07-16T13:57:48Z</time>
      </trkpt>
      <trkpt lat="45.516120" lon="6.811505">
        <ele>1678.642</ele>
        <time>2018-07-16T13:57:57Z</time>
      </trkpt>
      <trkpt lat="45.516088" lon="6.811558">
        <ele>1679.926</ele>
        <time>2018-07-16T13:58:06Z</time>
      </trkpt>
      <trkpt lat="45.516054" lon="6.811610">
        <ele>1679.908</ele>
        <time>2018-07-16T13:58:20Z</time>
      </trkpt>
      <trkpt lat="45.516020" lon="6.811664">
        <ele>1681.198</ele>
        <time>2018-07-16T13:58:28Z</time>
      </trkpt>
      <trkpt lat="45.515992" lon="6.811715">
        <ele>1681.482</ele>
        <time>2018-07-16T13:58:37Z</time>
      </trkpt>
      <trkpt lat="45.515959" lon="6.811759">
        <ele>1682.824</ele>
        <time>2018-07-16T13:58:44Z</time>
      </trkpt>
      <trkpt lat="45.515970" lon="6.811825">
        <ele>1683.259</ele>
        <time>2018-07-16T13:58:56Z</time>
      </trkpt>
      <trkpt lat="45.516006" lon="6.811874">
        <ele>1682.763</ele>
        <time>2018-07-16T14:00:27Z</time>
      </trkpt>
      <trkpt lat="45.516014" lon="6.811948">
        <ele>1683.218</ele>
        <time>2018-07-16T14:00:36Z</time>
      </trkpt>
      <trkpt lat="45.515992" lon="6.812006">
        <ele>1683.937</ele>
        <time>2018-07-16T14:00:46Z</time>
      </trkpt>
      <trkpt lat="45.515967" lon="6.812063">
        <ele>1684.349</ele>
        <time>2018-07-16T14:00:55Z</time>
      </trkpt>
      <trkpt lat="45.515937" lon="6.812117">
        <ele>1684.562</ele>
        <time>2018-07-16T14:01:01Z</time>
      </trkpt>
      <trkpt lat="45.515916" lon="6.812180">
        <ele>1685.883</ele>
        <time>2018-07-16T14:01:08Z</time>
      </trkpt>
      <trkpt lat="45.515942" lon="6.812239">
        <ele>1685.811</ele>
        <time>2018-07-16T14:01:15Z</time>
      </trkpt>
      <trkpt lat="45.515946" lon="6.812305">
        <ele>1685.408</ele>
        <time>2018-07-16T14:01:29Z</time>
      </trkpt>
      <trkpt lat="45.515953" lon="6.812373">
        <ele>1687.228</ele>
        <time>2018-07-16T14:01:40Z</time>
      </trkpt>
      <trkpt lat="45.515956" lon="6.812444">
        <ele>1689.142</ele>
        <time>2018-07-16T14:01:49Z</time>
      </trkpt>
      <trkpt lat="45.515946" lon="6.812509">
        <ele>1690.644</ele>
        <time>2018-07-16T14:01:56Z</time>
      </trkpt>
      <trkpt lat="45.515921" lon="6.812562">
        <ele>1691.119</ele>
        <time>2018-07-16T14:02:05Z</time>
      </trkpt>
      <trkpt lat="45.515895" lon="6.812615">
        <ele>1692.693</ele>
        <time>2018-07-16T14:02:18Z</time>
      </trkpt>
      <trkpt lat="45.515863" lon="6.812663">
        <ele>1693.528</ele>
        <time>2018-07-16T14:02:27Z</time>
      </trkpt>
      <trkpt lat="45.515816" lon="6.812679">
        <ele>1693.677</ele>
        <time>2018-07-16T14:02:38Z</time>
      </trkpt>
      <trkpt lat="45.515797" lon="6.812738">
        <ele>1695.389</ele>
        <time>2018-07-16T14:02:50Z</time>
      </trkpt>
      <trkpt lat="45.515790" lon="6.812802">
        <ele>1696.337</ele>
        <time>2018-07-16T14:03:00Z</time>
      </trkpt>
      <trkpt lat="45.515760" lon="6.812852">
        <ele>1698.149</ele>
        <time>2018-07-16T14:03:08Z</time>
      </trkpt>
      <trkpt lat="45.515740" lon="6.812915">
        <ele>1701.213</ele>
        <time>2018-07-16T14:03:18Z</time>
      </trkpt>
      <trkpt lat="45.515702" lon="6.812949">
        <ele>1703.908</ele>
        <time>2018-07-16T14:03:32Z</time>
      </trkpt>
      <trkpt lat="45.515690" lon="6.813015">
        <ele>1705.575</ele>
        <time>2018-07-16T14:03:40Z</time>
      </trkpt>
      <trkpt lat="45.515676" lon="6.813078">
        <ele>1706.519</ele>
        <time>2018-07-16T14:03:52Z</time>
      </trkpt>
      <trkpt lat="45.515691" lon="6.813143">
        <ele>1707.541</ele>
        <time>2018-07-16T14:04:02Z</time>
      </trkpt>
      <trkpt lat="45.515657" lon="6.813190">
        <ele>1707.726</ele>
        <time>2018-07-16T14:04:12Z</time>
      </trkpt>
      <trkpt lat="45.515630" lon="6.813245">
        <ele>1709.810</ele>
        <time>2018-07-16T14:04:18Z</time>
      </trkpt>
      <trkpt lat="45.515621" lon="6.813316">
        <ele>1711.175</ele>
        <time>2018-07-16T14:04:33Z</time>
      </trkpt>
      <trkpt lat="45.515602" lon="6.813375">
        <ele>1712.794</ele>
        <time>2018-07-16T14:04:44Z</time>
      </trkpt>
      <trkpt lat="45.515567" lon="6.813420">
        <ele>1714.476</ele>
        <time>2018-07-16T14:04:52Z</time>
      </trkpt>
      <trkpt lat="45.515550" lon="6.813484">
        <ele>1714.211</ele>
        <time>2018-07-16T14:05:01Z</time>
      </trkpt>
      <trkpt lat="45.515573" lon="6.813542">
        <ele>1714.921</ele>
        <time>2018-07-16T14:05:14Z</time>
      </trkpt>
      <trkpt lat="45.515588" lon="6.813606">
        <ele>1715.703</ele>
        <time>2018-07-16T14:05:23Z</time>
      </trkpt>
      <trkpt lat="45.515575" lon="6.813678">
        <ele>1716.208</ele>
        <time>2018-07-16T14:05:40Z</time>
      </trkpt>
      <trkpt lat="45.515531" lon="6.813710">
        <ele>1716.193</ele>
        <time>2018-07-16T14:05:49Z</time>
      </trkpt>
      <trkpt lat="45.515502" lon="6.813761">
        <ele>1715.287</ele>
        <time>2018-07-16T14:05:56Z</time>
      </trkpt>
      <trkpt lat="45.515481" lon="6.813829">
        <ele>1715.929</ele>
        <time>2018-07-16T14:06:06Z</time>
      </trkpt>
      <trkpt lat="45.515507" lon="6.813884">
        <ele>1717.584</ele>
        <time>2018-07-16T14:06:13Z</time>
      </trkpt>
      <trkpt lat="45.515541" lon="6.813933">
        <ele>1719.788</ele>
        <time>2018-07-16T14:06:21Z</time>
      </trkpt>
      <trkpt lat="45.515530" lon="6.814002">
        <ele>1721.063</ele>
        <time>2018-07-16T14:06:30Z</time>
      </trkpt>
      <trkpt lat="45.515509" lon="6.814059">
        <ele>1722.282</ele>
        <time>2018-07-16T14:06:39Z</time>
      </trkpt>
      <trkpt lat="45.515500" lon="6.814124">
        <ele>1722.954</ele>
        <time>2018-07-16T14:06:51Z</time>
      </trkpt>
      <trkpt lat="45.515500" lon="6.814189">
        <ele>1723.754</ele>
        <time>2018-07-16T14:06:59Z</time>
      </trkpt>
      <trkpt lat="45.515484" lon="6.814251">
        <ele>1724.256</ele>
        <time>2018-07-16T14:07:15Z</time>
      </trkpt>
      <trkpt lat="45.515488" lon="6.814316">
        <ele>1724.911</ele>
        <time>2018-07-16T14:07:22Z</time>
      </trkpt>
      <trkpt lat="45.515504" lon="6.814385">
        <ele>1725.708</ele>
        <time>2018-07-16T14:07:30Z</time>
      </trkpt>
      <trkpt lat="45.515517" lon="6.814448">
        <ele>1726.687</ele>
        <time>2018-07-16T14:07:36Z</time>
      </trkpt>
      <trkpt lat="45.515525" lon="6.814516">
        <ele>1728.351</ele>
        <time>2018-07-16T14:07:44Z</time>
      </trkpt>
      <trkpt lat="45.515528" lon="6.814586">
        <ele>1730.563</ele>
        <time>2018-07-16T14:07:52Z</time>
      </trkpt>
      <trkpt lat="45.515531" lon="6.814657">
        <ele>1731.098</ele>
        <time>2018-07-16T14:08:00Z</time>
      </trkpt>
      <trkpt lat="45.515515" lon="6.814721">
        <ele>1731.772</ele>
        <time>2018-07-16T14:08:11Z</time>
      </trkpt>
      <trkpt lat="45.515473" lon="6.814755">
        <ele>1732.137</ele>
        <time>2018-07-16T14:08:23Z</time>
      </trkpt>
      <trkpt lat="45.515429" lon="6.814791">
        <ele>1732.836</ele>
        <time>2018-07-16T14:08:34Z</time>
      </trkpt>
      <trkpt lat="45.515398" lon="6.814841">
        <ele>1734.458</ele>
        <time>2018-07-16T14:08:47Z</time>
      </trkpt>
      <trkpt lat="45.515361" lon="6.814880">
        <ele>1733.872</ele>
        <time>2018-07-16T14:09:04Z</time>
      </trkpt>
      <trkpt lat="45.515314" lon="6.814891">
        <ele>1734.213</ele>
        <time>2018-07-16T14:09:15Z</time>
      </trkpt>
      <trkpt lat="45.515274" lon="6.814923">
        <ele>1734.414</ele>
        <time>2018-07-16T14:09:28Z</time>
      </trkpt>
      <trkpt lat="45.515240" lon="6.814966">
        <ele>1734.908</ele>
        <time>2018-07-16T14:09:40Z</time>
      </trkpt>
      <trkpt lat="45.515219" lon="6.815030">
        <ele>1735.649</ele>
        <time>2018-07-16T14:09:49Z</time>
      </trkpt>
      <trkpt lat="45.515191" lon="6.815085">
        <ele>1735.693</ele>
        <time>2018-07-16T14:10:13Z</time>
      </trkpt>
      <trkpt lat="45.515150" lon="6.815131">
        <ele>1743.645</ele>
        <time>2018-07-16T14:17:41Z</time>
      </trkpt>
      <trkpt lat="45.515146" lon="6.815141">
        <ele>1747.030</ele>
        <time>2018-07-16T14:17:47Z</time>
      </trkpt>
      <trkpt lat="45.515129" lon="6.815210">
        <ele>1747.174</ele>
        <time>2018-07-16T14:17:57Z</time>
      </trkpt>
      <trkpt lat="45.515109" lon="6.815271">
        <ele>1745.819</ele>
        <time>2018-07-16T14:18:13Z</time>
      </trkpt>
      <trkpt lat="45.515095" lon="6.815339">
        <ele>1745.538</ele>
        <time>2018-07-16T14:18:21Z</time>
      </trkpt>
      <trkpt lat="45.515102" lon="6.815406">
        <ele>1746.190</ele>
        <time>2018-07-16T14:18:33Z</time>
      </trkpt>
      <trkpt lat="45.515069" lon="6.815449">
        <ele>1746.145</ele>
        <time>2018-07-16T14:18:43Z</time>
      </trkpt>
      <trkpt lat="45.515056" lon="6.815514">
        <ele>1747.347</ele>
        <time>2018-07-16T14:18:50Z</time>
      </trkpt>
      <trkpt lat="45.515067" lon="6.815579">
        <ele>1748.811</ele>
        <time>2018-07-16T14:18:58Z</time>
      </trkpt>
      <trkpt lat="45.515035" lon="6.815630">
        <ele>1748.508</ele>
        <time>2018-07-16T14:19:03Z</time>
      </trkpt>
      <trkpt lat="45.515014" lon="6.815691">
        <ele>1749.166</ele>
        <time>2018-07-16T14:19:10Z</time>
      </trkpt>
      <trkpt lat="45.514989" lon="6.815745">
        <ele>1752.380</ele>
        <time>2018-07-16T14:19:18Z</time>
      </trkpt>
      <trkpt lat="45.514973" lon="6.815811">
        <ele>1755.022</ele>
        <time>2018-07-16T14:19:28Z</time>
      </trkpt>
      <trkpt lat="45.514962" lon="6.815880">
        <ele>1755.847</ele>
        <time>2018-07-16T14:19:38Z</time>
      </trkpt>
      <trkpt lat="45.514952" lon="6.815947">
        <ele>1756.341</ele>
        <time>2018-07-16T14:19:49Z</time>
      </trkpt>
      <trkpt lat="45.514925" lon="6.816003">
        <ele>1755.836</ele>
        <time>2018-07-16T14:20:02Z</time>
      </trkpt>
      <trkpt lat="45.514910" lon="6.816069">
        <ele>1755.525</ele>
        <time>2018-07-16T14:20:12Z</time>
      </trkpt>
      <trkpt lat="45.514886" lon="6.816132">
        <ele>1756.987</ele>
        <time>2018-07-16T14:20:23Z</time>
      </trkpt>
      <trkpt lat="45.514846" lon="6.816169">
        <ele>1758.663</ele>
        <time>2018-07-16T14:20:31Z</time>
      </trkpt>
      <trkpt lat="45.514816" lon="6.816221">
        <ele>1760.044</ele>
        <time>2018-07-16T14:20:40Z</time>
      </trkpt>
      <trkpt lat="45.514783" lon="6.816269">
        <ele>1761.218</ele>
        <time>2018-07-16T14:20:51Z</time>
      </trkpt>
      <trkpt lat="45.514737" lon="6.816297">
        <ele>1762.708</ele>
        <time>2018-07-16T14:21:04Z</time>
      </trkpt>
      <trkpt lat="45.514692" lon="6.816308">
        <ele>1763.238</ele>
        <time>2018-07-16T14:21:16Z</time>
      </trkpt>
      <trkpt lat="45.514651" lon="6.816337">
        <ele>1763.912</ele>
        <time>2018-07-16T14:21:34Z</time>
      </trkpt>
      <trkpt lat="45.514608" lon="6.816358">
        <ele>1764.364</ele>
        <time>2018-07-16T14:21:47Z</time>
      </trkpt>
      <trkpt lat="45.514567" lon="6.816387">
        <ele>1765.829</ele>
        <time>2018-07-16T14:22:02Z</time>
      </trkpt>
      <trkpt lat="45.514524" lon="6.816413">
        <ele>1767.953</ele>
        <time>2018-07-16T14:22:13Z</time>
      </trkpt>
      <trkpt lat="45.514476" lon="6.816427">
        <ele>1767.998</ele>
        <time>2018-07-16T14:22:27Z</time>
      </trkpt>
      <trkpt lat="45.514429" lon="6.816443">
        <ele>1768.387</ele>
        <time>2018-07-16T14:22:45Z</time>
      </trkpt>
      <trkpt lat="45.514383" lon="6.816460">
        <ele>1768.649</ele>
        <time>2018-07-16T14:23:00Z</time>
      </trkpt>
      <trkpt lat="45.514339" lon="6.816499">
        <ele>1768.816</ele>
        <time>2018-07-16T14:23:12Z</time>
      </trkpt>
      <trkpt lat="45.514336" lon="6.816570">
        <ele>1769.376</ele>
        <time>2018-07-16T14:23:22Z</time>
      </trkpt>
      <trkpt lat="45.514327" lon="6.816639">
        <ele>1771.213</ele>
        <time>2018-07-16T14:23:32Z</time>
      </trkpt>
      <trkpt lat="45.514308" lon="6.816700">
        <ele>1772.708</ele>
        <time>2018-07-16T14:23:38Z</time>
      </trkpt>
      <trkpt lat="45.514282" lon="6.816757">
        <ele>1774.483</ele>
        <time>2018-07-16T14:23:44Z</time>
      </trkpt>
      <trkpt lat="45.514256" lon="6.816814">
        <ele>1775.877</ele>
        <time>2018-07-16T14:23:50Z</time>
      </trkpt>
      <trkpt lat="45.514236" lon="6.816873">
        <ele>1777.199</ele>
        <time>2018-07-16T14:23:57Z</time>
      </trkpt>
      <trkpt lat="45.514199" lon="6.816912">
        <ele>1777.524</ele>
        <time>2018-07-16T14:24:05Z</time>
      </trkpt>
      <trkpt lat="45.514185" lon="6.816979">
        <ele>1778.588</ele>
        <time>2018-07-16T14:24:14Z</time>
      </trkpt>
      <trkpt lat="45.514159" lon="6.817034">
        <ele>1780.393</ele>
        <time>2018-07-16T14:24:25Z</time>
      </trkpt>
      <trkpt lat="45.514161" lon="6.817102">
        <ele>1781.892</ele>
        <time>2018-07-16T14:24:33Z</time>
      </trkpt>
      <trkpt lat="45.514161" lon="6.817170">
        <ele>1783.114</ele>
        <time>2018-07-16T14:24:41Z</time>
      </trkpt>
      <trkpt lat="45.514167" lon="6.817239">
        <ele>1784.775</ele>
        <time>2018-07-16T14:24:51Z</time>
      </trkpt>
      <trkpt lat="45.514153" lon="6.817305">
        <ele>1786.428</ele>
        <time>2018-07-16T14:25:02Z</time>
      </trkpt>
      <trkpt lat="45.514104" lon="6.817301">
        <ele>1787.020</ele>
        <time>2018-07-16T14:25:14Z</time>
      </trkpt>
      <trkpt lat="45.514073" lon="6.817247">
        <ele>1787.408</ele>
        <time>2018-07-16T14:25:22Z</time>
      </trkpt>
      <trkpt lat="45.514027" lon="6.817223">
        <ele>1787.249</ele>
        <time>2018-07-16T14:25:36Z</time>
      </trkpt>
      <trkpt lat="45.513979" lon="6.817235">
        <ele>1787.983</ele>
        <time>2018-07-16T14:25:48Z</time>
      </trkpt>
      <trkpt lat="45.513954" lon="6.817293">
        <ele>1788.335</ele>
        <time>2018-07-16T14:26:02Z</time>
      </trkpt>
      <trkpt lat="45.513940" lon="6.817356">
        <ele>1789.030</ele>
        <time>2018-07-16T14:26:13Z</time>
      </trkpt>
      <trkpt lat="45.513903" lon="6.817397">
        <ele>1789.854</ele>
        <time>2018-07-16T14:26:21Z</time>
      </trkpt>
      <trkpt lat="45.513889" lon="6.817460">
        <ele>1791.599</ele>
        <time>2018-07-16T14:26:31Z</time>
      </trkpt>
      <trkpt lat="45.513863" lon="6.817519">
        <ele>1793.338</ele>
        <time>2018-07-16T14:26:39Z</time>
      </trkpt>
      <trkpt lat="45.513824" lon="6.817560">
        <ele>1794.470</ele>
        <time>2018-07-16T14:26:46Z</time>
      </trkpt>
      <trkpt lat="45.513803" lon="6.817625">
        <ele>1795.415</ele>
        <time>2018-07-16T14:26:54Z</time>
      </trkpt>
      <trkpt lat="45.513780" lon="6.817689">
        <ele>1796.465</ele>
        <time>2018-07-16T14:27:00Z</time>
      </trkpt>
      <trkpt lat="45.513762" lon="6.817751">
        <ele>1797.411</ele>
        <time>2018-07-16T14:27:05Z</time>
      </trkpt>
      <trkpt lat="45.513732" lon="6.817817">
        <ele>1798.008</ele>
        <time>2018-07-16T14:27:11Z</time>
      </trkpt>
      <trkpt lat="45.513717" lon="6.817882">
        <ele>1798.873</ele>
        <time>2018-07-16T14:27:16Z</time>
      </trkpt>
      <trkpt lat="45.513706" lon="6.817945">
        <ele>1800.587</ele>
        <time>2018-07-16T14:27:22Z</time>
      </trkpt>
      <trkpt lat="45.513713" lon="6.818011">
        <ele>1801.529</ele>
        <time>2018-07-16T14:27:28Z</time>
      </trkpt>
      <trkpt lat="45.513736" lon="6.818076">
        <ele>1802.584</ele>
        <time>2018-07-16T14:27:35Z</time>
      </trkpt>
      <trkpt lat="45.513749" lon="6.818140">
        <ele>1803.118</ele>
        <time>2018-07-16T14:27:41Z</time>
      </trkpt>
      <trkpt lat="45.513755" lon="6.818205">
        <ele>1803.543</ele>
        <time>2018-07-16T14:27:47Z</time>
      </trkpt>
      <trkpt lat="45.513762" lon="6.818269">
        <ele>1803.762</ele>
        <time>2018-07-16T14:27:54Z</time>
      </trkpt>
      <trkpt lat="45.513759" lon="6.818337">
        <ele>1803.814</ele>
        <time>2018-07-16T14:28:02Z</time>
      </trkpt>
      <trkpt lat="45.513735" lon="6.818394">
        <ele>1804.781</ele>
        <time>2018-07-16T14:28:16Z</time>
      </trkpt>
      <trkpt lat="45.513731" lon="6.818462">
        <ele>1805.261</ele>
        <time>2018-07-16T14:28:26Z</time>
      </trkpt>
      <trkpt lat="45.513735" lon="6.818527">
        <ele>1805.917</ele>
        <time>2018-07-16T14:28:33Z</time>
      </trkpt>
      <trkpt lat="45.513712" lon="6.818586">
        <ele>1806.708</ele>
        <time>2018-07-16T14:28:41Z</time>
      </trkpt>
      <trkpt lat="45.513685" lon="6.818637">
        <ele>1807.610</ele>
        <time>2018-07-16T14:28:50Z</time>
      </trkpt>
      <trkpt lat="45.513673" lon="6.818700">
        <ele>1807.384</ele>
        <time>2018-07-16T14:28:59Z</time>
      </trkpt>
      <trkpt lat="45.513679" lon="6.818770">
        <ele>1808.316</ele>
        <time>2018-07-16T14:29:06Z</time>
      </trkpt>
      <trkpt lat="45.513672" lon="6.818843">
        <ele>1808.911</ele>
        <time>2018-07-16T14:29:12Z</time>
      </trkpt>
      <trkpt lat="45.513661" lon="6.818906">
        <ele>1810.145</ele>
        <time>2018-07-16T14:29:18Z</time>
      </trkpt>
      <trkpt lat="45.513650" lon="6.818974">
        <ele>1811.650</ele>
        <time>2018-07-16T14:29:24Z</time>
      </trkpt>
      <trkpt lat="45.513631" lon="6.819035">
        <ele>1812.119</ele>
        <time>2018-07-16T14:29:30Z</time>
      </trkpt>
      <trkpt lat="45.513612" lon="6.819096">
        <ele>1812.861</ele>
        <time>2018-07-16T14:29:36Z</time>
      </trkpt>
      <trkpt lat="45.513604" lon="6.819159">
        <ele>1813.271</ele>
        <time>2018-07-16T14:29:42Z</time>
      </trkpt>
      <trkpt lat="45.513606" lon="6.819224">
        <ele>1813.941</ele>
        <time>2018-07-16T14:29:49Z</time>
      </trkpt>
      <trkpt lat="45.513589" lon="6.819287">
        <ele>1814.715</ele>
        <time>2018-07-16T14:29:57Z</time>
      </trkpt>
      <trkpt lat="45.513585" lon="6.819353">
        <ele>1814.808</ele>
        <time>2018-07-16T14:31:08Z</time>
      </trkpt>
      <trkpt lat="45.513596" lon="6.819416">
        <ele>1814.459</ele>
        <time>2018-07-16T14:31:20Z</time>
      </trkpt>
      <trkpt lat="45.513609" lon="6.819480">
        <ele>1814.213</ele>
        <time>2018-07-16T14:31:26Z</time>
      </trkpt>
      <trkpt lat="45.513611" lon="6.819549">
        <ele>1814.115</ele>
        <time>2018-07-16T14:31:31Z</time>
      </trkpt>
      <trkpt lat="45.513622" lon="6.819618">
        <ele>1814.490</ele>
        <time>2018-07-16T14:31:37Z</time>
      </trkpt>
      <trkpt lat="45.513609" lon="6.819680">
        <ele>1814.244</ele>
        <time>2018-07-16T14:31:43Z</time>
      </trkpt>
      <trkpt lat="45.513604" lon="6.819750">
        <ele>1814.939</ele>
        <time>2018-07-16T14:31:56Z</time>
      </trkpt>
      <trkpt lat="45.513591" lon="6.819815">
        <ele>1815.788</ele>
        <time>2018-07-16T14:32:04Z</time>
      </trkpt>
      <trkpt lat="45.513578" lon="6.819879">
        <ele>1816.270</ele>
        <time>2018-07-16T14:32:10Z</time>
      </trkpt>
      <trkpt lat="45.513571" lon="6.819945">
        <ele>1816.198</ele>
        <time>2018-07-16T14:32:17Z</time>
      </trkpt>
      <trkpt lat="45.513575" lon="6.820011">
        <ele>1816.415</ele>
        <time>2018-07-16T14:32:24Z</time>
      </trkpt>
      <trkpt lat="45.513590" lon="6.820077">
        <ele>1817.426</ele>
        <time>2018-07-16T14:32:34Z</time>
      </trkpt>
      <trkpt lat="45.513585" lon="6.820142">
        <ele>1818.008</ele>
        <time>2018-07-16T14:32:46Z</time>
      </trkpt>
      <trkpt lat="45.513570" lon="6.820208">
        <ele>1819.281</ele>
        <time>2018-07-16T14:33:15Z</time>
      </trkpt>
      <trkpt lat="45.513553" lon="6.820271">
        <ele>1821.535</ele>
        <time>2018-07-16T14:33:22Z</time>
      </trkpt>
      <trkpt lat="45.513537" lon="6.820336">
        <ele>1822.997</ele>
        <time>2018-07-16T14:33:29Z</time>
      </trkpt>
      <trkpt lat="45.513507" lon="6.820386">
        <ele>1823.322</ele>
        <time>2018-07-16T14:33:35Z</time>
      </trkpt>
      <trkpt lat="45.513480" lon="6.820438">
        <ele>1824.426</ele>
        <time>2018-07-16T14:33:44Z</time>
      </trkpt>
      <trkpt lat="45.513446" lon="6.820483">
        <ele>1825.031</ele>
        <time>2018-07-16T14:33:58Z</time>
      </trkpt>
      <trkpt lat="45.513460" lon="6.820546">
        <ele>1825.870</ele>
        <time>2018-07-16T14:34:06Z</time>
      </trkpt>
      <trkpt lat="45.513502" lon="6.820583">
        <ele>1825.932</ele>
        <time>2018-07-16T14:34:12Z</time>
      </trkpt>
      <trkpt lat="45.513529" lon="6.820641">
        <ele>1826.366</ele>
        <time>2018-07-16T14:34:20Z</time>
      </trkpt>
      <trkpt lat="45.513537" lon="6.820704">
        <ele>1827.829</ele>
        <time>2018-07-16T14:34:29Z</time>
      </trkpt>
      <trkpt lat="45.513538" lon="6.820773">
        <ele>1828.321</ele>
        <time>2018-07-16T14:34:42Z</time>
      </trkpt>
      <trkpt lat="45.513534" lon="6.820839">
        <ele>1830.208</ele>
        <time>2018-07-16T14:34:58Z</time>
      </trkpt>
      <trkpt lat="45.513513" lon="6.820902">
        <ele>1832.198</ele>
        <time>2018-07-16T14:35:20Z</time>
      </trkpt>
      <trkpt lat="45.513474" lon="6.820950">
        <ele>1833.762</ele>
        <time>2018-07-16T14:35:32Z</time>
      </trkpt>
      <trkpt lat="45.513485" lon="6.821014">
        <ele>1835.814</ele>
        <time>2018-07-16T14:35:50Z</time>
      </trkpt>
      <trkpt lat="45.513496" lon="6.821080">
        <ele>1837.529</ele>
        <time>2018-07-16T14:35:59Z</time>
      </trkpt>
      <trkpt lat="45.513513" lon="6.821146">
        <ele>1838.523</ele>
        <time>2018-07-16T14:36:07Z</time>
      </trkpt>
      <trkpt lat="45.513530" lon="6.821211">
        <ele>1839.518</ele>
        <time>2018-07-16T14:36:16Z</time>
      </trkpt>
      <trkpt lat="45.513525" lon="6.821276">
        <ele>1840.517</ele>
        <time>2018-07-16T14:36:26Z</time>
      </trkpt>
      <trkpt lat="45.513517" lon="6.821342">
        <ele>1840.399</ele>
        <time>2018-07-16T14:36:39Z</time>
      </trkpt>
      <trkpt lat="45.513503" lon="6.821409">
        <ele>1841.826</ele>
        <time>2018-07-16T14:36:53Z</time>
      </trkpt>
      <trkpt lat="45.513506" lon="6.821478">
        <ele>1843.147</ele>
        <time>2018-07-16T14:37:31Z</time>
      </trkpt>
      <trkpt lat="45.513479" lon="6.821533">
        <ele>1844.311</ele>
        <time>2018-07-16T14:37:49Z</time>
      </trkpt>
      <trkpt lat="45.513484" lon="6.821601">
        <ele>1845.808</ele>
        <time>2018-07-16T14:38:02Z</time>
      </trkpt>
      <trkpt lat="45.513492" lon="6.821666">
        <ele>1847.924</ele>
        <time>2018-07-16T14:38:17Z</time>
      </trkpt>
      <trkpt lat="45.513513" lon="6.821723">
        <ele>1849.688</ele>
        <time>2018-07-16T14:38:26Z</time>
      </trkpt>
      <trkpt lat="45.513516" lon="6.821789">
        <ele>1851.020</ele>
        <time>2018-07-16T14:38:38Z</time>
      </trkpt>
      <trkpt lat="45.513516" lon="6.821860">
        <ele>1852.695</ele>
        <time>2018-07-16T14:38:48Z</time>
      </trkpt>
      <trkpt lat="45.513506" lon="6.821923">
        <ele>1854.039</ele>
        <time>2018-07-16T14:38:58Z</time>
      </trkpt>
      <trkpt lat="45.513513" lon="6.821993">
        <ele>1855.254</ele>
        <time>2018-07-16T14:39:10Z</time>
      </trkpt>
      <trkpt lat="45.513506" lon="6.822056">
        <ele>1856.733</ele>
        <time>2018-07-16T14:39:24Z</time>
      </trkpt>
      <trkpt lat="45.513501" lon="6.822123">
        <ele>1857.645</ele>
        <time>2018-07-16T14:39:39Z</time>
      </trkpt>
      <trkpt lat="45.513501" lon="6.822187">
        <ele>1859.021</ele>
        <time>2018-07-16T14:39:47Z</time>
      </trkpt>
      <trkpt lat="45.513513" lon="6.822249">
        <ele>1859.841</ele>
        <time>2018-07-16T14:39:53Z</time>
      </trkpt>
      <trkpt lat="45.513523" lon="6.822318">
        <ele>1860.705</ele>
        <time>2018-07-16T14:40:01Z</time>
      </trkpt>
      <trkpt lat="45.513530" lon="6.822383">
        <ele>1861.608</ele>
        <time>2018-07-16T14:40:10Z</time>
      </trkpt>
      <trkpt lat="45.513530" lon="6.822448">
        <ele>1861.824</ele>
        <time>2018-07-16T14:40:21Z</time>
      </trkpt>
      <trkpt lat="45.513532" lon="6.822514">
        <ele>1862.368</ele>
        <time>2018-07-16T14:40:32Z</time>
      </trkpt>
      <trkpt lat="45.513534" lon="6.822582">
        <ele>1863.860</ele>
        <time>2018-07-16T14:40:42Z</time>
      </trkpt>
      <trkpt lat="45.513550" lon="6.822645">
        <ele>1866.345</ele>
        <time>2018-07-16T14:40:54Z</time>
      </trkpt>
      <trkpt lat="45.513559" lon="6.822713">
        <ele>1868.279</ele>
        <time>2018-07-16T14:41:07Z</time>
      </trkpt>
      <trkpt lat="45.513558" lon="6.822779">
        <ele>1869.714</ele>
        <time>2018-07-16T14:41:28Z</time>
      </trkpt>
      <trkpt lat="45.513556" lon="6.822844">
        <ele>1871.433</ele>
        <time>2018-07-16T14:41:38Z</time>
      </trkpt>
      <trkpt lat="45.513576" lon="6.822908">
        <ele>1872.435</ele>
        <time>2018-07-16T14:41:48Z</time>
      </trkpt>
      <trkpt lat="45.513582" lon="6.822973">
        <ele>1873.491</ele>
        <time>2018-07-16T14:41:56Z</time>
      </trkpt>
      <trkpt lat="45.513598" lon="6.823038">
        <ele>1874.481</ele>
        <time>2018-07-16T14:42:06Z</time>
      </trkpt>
      <trkpt lat="45.513602" lon="6.823109">
        <ele>1875.819</ele>
        <time>2018-07-16T14:42:16Z</time>
      </trkpt>
      <trkpt lat="45.513619" lon="6.823169">
        <ele>1876.608</ele>
        <time>2018-07-16T14:42:23Z</time>
      </trkpt>
      <trkpt lat="45.513638" lon="6.823233">
        <ele>1877.591</ele>
        <time>2018-07-16T14:42:32Z</time>
      </trkpt>
      <trkpt lat="45.513647" lon="6.823298">
        <ele>1878.895</ele>
        <time>2018-07-16T14:42:42Z</time>
      </trkpt>
      <trkpt lat="45.513641" lon="6.823368">
        <ele>1880.487</ele>
        <time>2018-07-16T14:42:53Z</time>
      </trkpt>
      <trkpt lat="45.513627" lon="6.823434">
        <ele>1881.062</ele>
        <time>2018-07-16T14:43:05Z</time>
      </trkpt>
      <trkpt lat="45.513623" lon="6.823500">
        <ele>1881.386</ele>
        <time>2018-07-16T14:43:16Z</time>
      </trkpt>
      <trkpt lat="45.513630" lon="6.823565">
        <ele>1882.351</ele>
        <time>2018-07-16T14:43:49Z</time>
      </trkpt>
      <trkpt lat="45.513638" lon="6.823629">
        <ele>1882.510</ele>
        <time>2018-07-16T14:46:00Z</time>
      </trkpt>
      <trkpt lat="45.513607" lon="6.823680">
        <ele>1883.412</ele>
        <time>2018-07-16T14:46:10Z</time>
      </trkpt>
      <trkpt lat="45.513588" lon="6.823738">
        <ele>1884.841</ele>
        <time>2018-07-16T14:46:26Z</time>
      </trkpt>
      <trkpt lat="45.513560" lon="6.823792">
        <ele>1885.681</ele>
        <time>2018-07-16T14:46:40Z</time>
      </trkpt>
      <trkpt lat="45.513569" lon="6.823861">
        <ele>1886.509</ele>
        <time>2018-07-16T14:46:51Z</time>
      </trkpt>
      <trkpt lat="45.513588" lon="6.823924">
        <ele>1888.208</ele>
        <time>2018-07-16T14:47:01Z</time>
      </trkpt>
      <trkpt lat="45.513588" lon="6.823993">
        <ele>1889.276</ele>
        <time>2018-07-16T14:47:10Z</time>
      </trkpt>
      <trkpt lat="45.513554" lon="6.824037">
        <ele>1890.620</ele>
        <time>2018-07-16T14:47:22Z</time>
      </trkpt>
      <trkpt lat="45.513545" lon="6.824106">
        <ele>1892.722</ele>
        <time>2018-07-16T14:47:45Z</time>
      </trkpt>
      <trkpt lat="45.513555" lon="6.824169">
        <ele>1893.977</ele>
        <time>2018-07-16T14:47:52Z</time>
      </trkpt>
      <trkpt lat="45.513565" lon="6.824236">
        <ele>1894.641</ele>
        <time>2018-07-16T14:47:58Z</time>
      </trkpt>
      <trkpt lat="45.513565" lon="6.824301">
        <ele>1894.626</ele>
        <time>2018-07-16T14:48:04Z</time>
      </trkpt>
      <trkpt lat="45.513573" lon="6.824366">
        <ele>1896.245</ele>
        <time>2018-07-16T14:48:24Z</time>
      </trkpt>
      <trkpt lat="45.513564" lon="6.824437">
        <ele>1897.297</ele>
        <time>2018-07-16T14:48:33Z</time>
      </trkpt>
      <trkpt lat="45.513575" lon="6.824502">
        <ele>1898.285</ele>
        <time>2018-07-16T14:48:40Z</time>
      </trkpt>
      <trkpt lat="45.513583" lon="6.824570">
        <ele>1898.889</ele>
        <time>2018-07-16T14:48:47Z</time>
      </trkpt>
      <trkpt lat="45.513603" lon="6.824637">
        <ele>1899.617</ele>
        <time>2018-07-16T14:48:53Z</time>
      </trkpt>
      <trkpt lat="45.513602" lon="6.824705">
        <ele>1900.108</ele>
        <time>2018-07-16T14:49:01Z</time>
      </trkpt>
      <trkpt lat="45.513588" lon="6.824773">
        <ele>1901.260</ele>
        <time>2018-07-16T14:49:10Z</time>
      </trkpt>
      <trkpt lat="45.513555" lon="6.824828">
        <ele>1902.694</ele>
        <time>2018-07-16T14:49:25Z</time>
      </trkpt>
      <trkpt lat="45.513546" lon="6.824893">
        <ele>1904.776</ele>
        <time>2018-07-16T14:49:42Z</time>
      </trkpt>
      <trkpt lat="45.513552" lon="6.824957">
        <ele>1906.351</ele>
        <time>2018-07-16T14:49:57Z</time>
      </trkpt>
      <trkpt lat="45.513570" lon="6.825017">
        <ele>1907.725</ele>
        <time>2018-07-16T14:50:18Z</time>
      </trkpt>
      <trkpt lat="45.513610" lon="6.825056">
        <ele>1908.540</ele>
        <time>2018-07-16T14:50:28Z</time>
      </trkpt>
      <trkpt lat="45.513589" lon="6.825120">
        <ele>1908.249</ele>
        <time>2018-07-16T14:50:33Z</time>
      </trkpt>
      <trkpt lat="45.513599" lon="6.825193">
        <ele>1909.271</ele>
        <time>2018-07-16T14:50:39Z</time>
      </trkpt>
      <trkpt lat="45.513624" lon="6.825253">
        <ele>1911.071</ele>
        <time>2018-07-16T14:50:46Z</time>
      </trkpt>
      <trkpt lat="45.513616" lon="6.825318">
        <ele>1912.141</ele>
        <time>2018-07-16T14:50:59Z</time>
      </trkpt>
      <trkpt lat="45.513658" lon="6.825361">
        <ele>1913.615</ele>
        <time>2018-07-16T14:51:05Z</time>
      </trkpt>
      <trkpt lat="45.513685" lon="6.825419">
        <ele>1914.908</ele>
        <time>2018-07-16T14:51:10Z</time>
      </trkpt>
      <trkpt lat="45.513682" lon="6.825487">
        <ele>1915.789</ele>
        <time>2018-07-16T14:51:18Z</time>
      </trkpt>
      <trkpt lat="45.513694" lon="6.825556">
        <ele>1915.433</ele>
        <time>2018-07-16T14:51:28Z</time>
      </trkpt>
      <trkpt lat="45.513717" lon="6.825621">
        <ele>1914.825</ele>
        <time>2018-07-16T14:51:35Z</time>
      </trkpt>
      <trkpt lat="45.513708" lon="6.825685">
        <ele>1915.290</ele>
        <time>2018-07-16T14:51:42Z</time>
      </trkpt>
      <trkpt lat="45.513677" lon="6.825736">
        <ele>1915.154</ele>
        <time>2018-07-16T14:51:51Z</time>
      </trkpt>
      <trkpt lat="45.513675" lon="6.825802">
        <ele>1915.049</ele>
        <time>2018-07-16T14:52:01Z</time>
      </trkpt>
      <trkpt lat="45.513669" lon="6.825870">
        <ele>1915.458</ele>
        <time>2018-07-16T14:52:09Z</time>
      </trkpt>
      <trkpt lat="45.513647" lon="6.825927">
        <ele>1915.630</ele>
        <time>2018-07-16T14:52:24Z</time>
      </trkpt>
      <trkpt lat="45.513642" lon="6.825996">
        <ele>1917.337</ele>
        <time>2018-07-16T14:52:47Z</time>
      </trkpt>
      <trkpt lat="45.513613" lon="6.826048">
        <ele>1918.349</ele>
        <time>2018-07-16T14:53:00Z</time>
      </trkpt>
      <trkpt lat="45.513611" lon="6.826116">
        <ele>1919.313</ele>
        <time>2018-07-16T14:53:11Z</time>
      </trkpt>
      <trkpt lat="45.513600" lon="6.826179">
        <ele>1919.508</ele>
        <time>2018-07-16T14:53:20Z</time>
      </trkpt>
      <trkpt lat="45.513568" lon="6.826237">
        <ele>1920.885</ele>
        <time>2018-07-16T14:53:32Z</time>
      </trkpt>
      <trkpt lat="45.513553" lon="6.826307">
        <ele>1922.429</ele>
        <time>2018-07-16T14:53:49Z</time>
      </trkpt>
      <trkpt lat="45.513533" lon="6.826367">
        <ele>1923.461</ele>
        <time>2018-07-16T14:53:59Z</time>
      </trkpt>
      <trkpt lat="45.513532" lon="6.826432">
        <ele>1924.056</ele>
        <time>2018-07-16T14:54:09Z</time>
      </trkpt>
      <trkpt lat="45.513538" lon="6.826497">
        <ele>1924.370</ele>
        <time>2018-07-16T14:54:16Z</time>
      </trkpt>
      <trkpt lat="45.513577" lon="6.826531">
        <ele>1923.345</ele>
        <time>2018-07-16T14:54:43Z</time>
      </trkpt>
      <trkpt lat="45.513654" lon="6.826517">
        <ele>1925.584</ele>
        <time>2018-07-16T14:54:52Z</time>
      </trkpt>
      <trkpt lat="45.513685" lon="6.826564">
        <ele>1926.446</ele>
        <time>2018-07-16T14:55:02Z</time>
      </trkpt>
      <trkpt lat="45.513710" lon="6.826621">
        <ele>1927.065</ele>
        <time>2018-07-16T14:55:07Z</time>
      </trkpt>
      <trkpt lat="45.513744" lon="6.826681">
        <ele>1926.168</ele>
        <time>2018-07-16T14:55:14Z</time>
      </trkpt>
      <trkpt lat="45.513773" lon="6.826753">
        <ele>1926.014</ele>
        <time>2018-07-16T14:55:25Z</time>
      </trkpt>
      <trkpt lat="45.513824" lon="6.826786">
        <ele>1926.708</ele>
        <time>2018-07-16T14:55:40Z</time>
      </trkpt>
      <trkpt lat="45.513883" lon="6.826838">
        <ele>1929.188</ele>
        <time>2018-07-16T14:56:28Z</time>
      </trkpt>
      <trkpt lat="45.513931" lon="6.826830">
        <ele>1932.232</ele>
        <time>2018-07-16T14:56:36Z</time>
      </trkpt>
      <trkpt lat="45.513976" lon="6.826897">
        <ele>1934.434</ele>
        <time>2018-07-16T14:56:47Z</time>
      </trkpt>
      <trkpt lat="45.514023" lon="6.826962">
        <ele>1934.939</ele>
        <time>2018-07-16T14:56:59Z</time>
      </trkpt>
      <trkpt lat="45.514046" lon="6.827021">
        <ele>1934.813</ele>
        <time>2018-07-16T14:57:10Z</time>
      </trkpt>
      <trkpt lat="45.514130" lon="6.827041">
        <ele>1936.898</ele>
        <time>2018-07-16T14:57:29Z</time>
      </trkpt>
      <trkpt lat="45.514158" lon="6.827092">
        <ele>1939.227</ele>
        <time>2018-07-16T14:57:39Z</time>
      </trkpt>
      <trkpt lat="45.514201" lon="6.827118">
        <ele>1939.899</ele>
        <time>2018-07-16T14:57:54Z</time>
      </trkpt>
      <trkpt lat="45.514228" lon="6.827175">
        <ele>1941.015</ele>
        <time>2018-07-16T14:58:03Z</time>
      </trkpt>
      <trkpt lat="45.514269" lon="6.827203">
        <ele>1943.365</ele>
        <time>2018-07-16T14:58:18Z</time>
      </trkpt>
      <trkpt lat="45.514252" lon="6.827186">
        <ele>1950.311</ele>
        <time>2018-07-16T15:09:37Z</time>
      </trkpt>
      <trkpt lat="45.514266" lon="6.827266">
        <ele>1952.908</ele>
        <time>2018-07-16T15:09:55Z</time>
      </trkpt>
      <trkpt lat="45.514279" lon="6.827332">
        <ele>1951.753</ele>
        <time>2018-07-16T15:10:05Z</time>
      </trkpt>
      <trkpt lat="45.514293" lon="6.827397">
        <ele>1953.497</ele>
        <time>2018-07-16T15:10:21Z</time>
      </trkpt>
      <trkpt lat="45.514314" lon="6.827462">
        <ele>1954.979</ele>
        <time>2018-07-16T15:10:36Z</time>
      </trkpt>
      <trkpt lat="45.514303" lon="6.827530">
        <ele>1954.654</ele>
        <time>2018-07-16T15:10:48Z</time>
      </trkpt>
      <trkpt lat="45.514300" lon="6.827597">
        <ele>1954.868</ele>
        <time>2018-07-16T15:11:00Z</time>
      </trkpt>
      <trkpt lat="45.514296" lon="6.827667">
        <ele>1956.563</ele>
        <time>2018-07-16T15:11:11Z</time>
      </trkpt>
      <trkpt lat="45.514272" lon="6.827722">
        <ele>1957.922</ele>
        <time>2018-07-16T15:11:28Z</time>
      </trkpt>
      <trkpt lat="45.514286" lon="6.827784">
        <ele>1960.014</ele>
        <time>2018-07-16T15:11:39Z</time>
      </trkpt>
      <trkpt lat="45.514287" lon="6.827850">
        <ele>1960.488</ele>
        <time>2018-07-16T15:11:49Z</time>
      </trkpt>
      <trkpt lat="45.514259" lon="6.827907">
        <ele>1961.124</ele>
        <time>2018-07-16T15:11:55Z</time>
      </trkpt>
      <trkpt lat="45.514237" lon="6.827965">
        <ele>1962.326</ele>
        <time>2018-07-16T15:12:05Z</time>
      </trkpt>
      <trkpt lat="45.514221" lon="6.828031">
        <ele>1963.008</ele>
        <time>2018-07-16T15:12:23Z</time>
      </trkpt>
      <trkpt lat="45.514227" lon="6.828095">
        <ele>1965.480</ele>
        <time>2018-07-16T15:12:35Z</time>
      </trkpt>
      <trkpt lat="45.514243" lon="6.828159">
        <ele>1965.724</ele>
        <time>2018-07-16T15:12:45Z</time>
      </trkpt>
      <trkpt lat="45.514252" lon="6.828224">
        <ele>1965.556</ele>
        <time>2018-07-16T15:12:57Z</time>
      </trkpt>
      <trkpt lat="45.514281" lon="6.828281">
        <ele>1965.811</ele>
        <time>2018-07-16T15:13:08Z</time>
      </trkpt>
      <trkpt lat="45.514282" lon="6.828354">
        <ele>1965.685</ele>
        <time>2018-07-16T15:13:18Z</time>
      </trkpt>
      <trkpt lat="45.514269" lon="6.828418">
        <ele>1965.580</ele>
        <time>2018-07-16T15:13:28Z</time>
      </trkpt>
      <trkpt lat="45.514252" lon="6.828483">
        <ele>1965.859</ele>
        <time>2018-07-16T15:13:35Z</time>
      </trkpt>
      <trkpt lat="45.514230" lon="6.828540">
        <ele>1966.041</ele>
        <time>2018-07-16T15:13:41Z</time>
      </trkpt>
      <trkpt lat="45.514195" lon="6.828597">
        <ele>1967.319</ele>
        <time>2018-07-16T15:13:49Z</time>
      </trkpt>
      <trkpt lat="45.514157" lon="6.828633">
        <ele>1968.109</ele>
        <time>2018-07-16T15:13:54Z</time>
      </trkpt>
      <trkpt lat="45.514116" lon="6.828681">
        <ele>1969.019</ele>
        <time>2018-07-16T15:14:00Z</time>
      </trkpt>
      <trkpt lat="45.514084" lon="6.828740">
        <ele>1970.708</ele>
        <time>2018-07-16T15:14:05Z</time>
      </trkpt>
      <trkpt lat="45.514042" lon="6.828784">
        <ele>1971.763</ele>
        <time>2018-07-16T15:14:11Z</time>
      </trkpt>
      <trkpt lat="45.514012" lon="6.828842">
        <ele>1971.947</ele>
        <time>2018-07-16T15:14:16Z</time>
      </trkpt>
      <trkpt lat="45.513976" lon="6.828895">
        <ele>1971.699</ele>
        <time>2018-07-16T15:14:21Z</time>
      </trkpt>
      <trkpt lat="45.513934" lon="6.828940">
        <ele>1971.494</ele>
        <time>2018-07-16T15:14:26Z</time>
      </trkpt>
      <trkpt lat="45.513894" lon="6.828991">
        <ele>1971.788</ele>
        <time>2018-07-16T15:14:31Z</time>
      </trkpt>
      <trkpt lat="45.513867" lon="6.829054">
        <ele>1971.953</ele>
        <time>2018-07-16T15:14:36Z</time>
      </trkpt>
      <trkpt lat="45.513824" lon="6.829096">
        <ele>1971.622</ele>
        <time>2018-07-16T15:14:42Z</time>
      </trkpt>
      <trkpt lat="45.513800" lon="6.829153">
        <ele>1971.014</ele>
        <time>2018-07-16T15:14:47Z</time>
      </trkpt>
      <trkpt lat="45.513776" lon="6.829218">
        <ele>1971.153</ele>
        <time>2018-07-16T15:14:52Z</time>
      </trkpt>
      <trkpt lat="45.513752" lon="6.829274">
        <ele>1971.504</ele>
        <time>2018-07-16T15:14:56Z</time>
      </trkpt>
      <trkpt lat="45.513722" lon="6.829323">
        <ele>1972.214</ele>
        <time>2018-07-16T15:15:02Z</time>
      </trkpt>
      <trkpt lat="45.513686" lon="6.829371">
        <ele>1972.208</ele>
        <time>2018-07-16T15:15:09Z</time>
      </trkpt>
      <trkpt lat="45.513645" lon="6.829414">
        <ele>1973.017</ele>
        <time>2018-07-16T15:15:18Z</time>
      </trkpt>
      <trkpt lat="45.513608" lon="6.829458">
        <ele>1973.171</ele>
        <time>2018-07-16T15:15:24Z</time>
      </trkpt>
      <trkpt lat="45.513585" lon="6.829521">
        <ele>1973.593</ele>
        <time>2018-07-16T15:15:32Z</time>
      </trkpt>
      <trkpt lat="45.513574" lon="6.829587">
        <ele>1972.628</ele>
        <time>2018-07-16T15:15:39Z</time>
      </trkpt>
      <trkpt lat="45.513563" lon="6.829659">
        <ele>1973.222</ele>
        <time>2018-07-16T15:15:46Z</time>
      </trkpt>
      <trkpt lat="45.513539" lon="6.829714">
        <ele>1976.087</ele>
        <time>2018-07-16T15:16:04Z</time>
      </trkpt>
      <trkpt lat="45.513520" lon="6.829773">
        <ele>1977.386</ele>
        <time>2018-07-16T15:16:14Z</time>
      </trkpt>
      <trkpt lat="45.513499" lon="6.829831">
        <ele>1978.978</ele>
        <time>2018-07-16T15:16:25Z</time>
      </trkpt>
      <trkpt lat="45.513522" lon="6.829889">
        <ele>1981.897</ele>
        <time>2018-07-16T15:16:42Z</time>
      </trkpt>
      <trkpt lat="45.513555" lon="6.829937">
        <ele>1983.623</ele>
        <time>2018-07-16T15:16:52Z</time>
      </trkpt>
      <trkpt lat="45.513545" lon="6.830004">
        <ele>1984.325</ele>
        <time>2018-07-16T15:17:01Z</time>
      </trkpt>
      <trkpt lat="45.513545" lon="6.830078">
        <ele>1984.308</ele>
        <time>2018-07-16T15:17:08Z</time>
      </trkpt>
      <trkpt lat="45.513529" lon="6.830147">
        <ele>1983.971</ele>
        <time>2018-07-16T15:17:14Z</time>
      </trkpt>
      <trkpt lat="45.513503" lon="6.830209">
        <ele>1984.165</ele>
        <time>2018-07-16T15:17:21Z</time>
      </trkpt>
      <trkpt lat="45.513489" lon="6.830277">
        <ele>1983.087</ele>
        <time>2018-07-16T15:17:33Z</time>
      </trkpt>
      <trkpt lat="45.513447" lon="6.830318">
        <ele>1982.722</ele>
        <time>2018-07-16T15:17:41Z</time>
      </trkpt>
      <trkpt lat="45.513403" lon="6.830358">
        <ele>1982.976</ele>
        <time>2018-07-16T15:17:48Z</time>
      </trkpt>
      <trkpt lat="45.513352" lon="6.830382">
        <ele>1984.231</ele>
        <time>2018-07-16T15:17:53Z</time>
      </trkpt>
      <trkpt lat="45.513302" lon="6.830411">
        <ele>1985.860</ele>
        <time>2018-07-16T15:17:58Z</time>
      </trkpt>
      <trkpt lat="45.513262" lon="6.830445">
        <ele>1987.612</ele>
        <time>2018-07-16T15:18:04Z</time>
      </trkpt>
      <trkpt lat="45.513216" lon="6.830448">
        <ele>1989.182</ele>
        <time>2018-07-16T15:18:15Z</time>
      </trkpt>
      <trkpt lat="45.513173" lon="6.830478">
        <ele>1990.043</ele>
        <time>2018-07-16T15:18:23Z</time>
      </trkpt>
      <trkpt lat="45.513130" lon="6.830498">
        <ele>1990.117</ele>
        <time>2018-07-16T15:18:30Z</time>
      </trkpt>
      <trkpt lat="45.513087" lon="6.830533">
        <ele>1991.808</ele>
        <time>2018-07-16T15:18:37Z</time>
      </trkpt>
      <trkpt lat="45.513040" lon="6.830532">
        <ele>1993.290</ele>
        <time>2018-07-16T15:18:43Z</time>
      </trkpt>
      <trkpt lat="45.512994" lon="6.830547">
        <ele>1993.664</ele>
        <time>2018-07-16T15:18:51Z</time>
      </trkpt>
      <trkpt lat="45.512955" lon="6.830594">
        <ele>1994.736</ele>
        <time>2018-07-16T15:18:57Z</time>
      </trkpt>
      <trkpt lat="45.512911" lon="6.830624">
        <ele>1994.941</ele>
        <time>2018-07-16T15:19:05Z</time>
      </trkpt>
      <trkpt lat="45.512880" lon="6.830675">
        <ele>1995.445</ele>
        <time>2018-07-16T15:19:11Z</time>
      </trkpt>
      <trkpt lat="45.512837" lon="6.830704">
        <ele>1996.560</ele>
        <time>2018-07-16T15:19:17Z</time>
      </trkpt>
      <trkpt lat="45.512793" lon="6.830739">
        <ele>1996.819</ele>
        <time>2018-07-16T15:19:23Z</time>
      </trkpt>
      <trkpt lat="45.512750" lon="6.830774">
        <ele>1997.891</ele>
        <time>2018-07-16T15:19:32Z</time>
      </trkpt>
      <trkpt lat="45.512718" lon="6.830825">
        <ele>1998.081</ele>
        <time>2018-07-16T15:19:44Z</time>
      </trkpt>
      <trkpt lat="45.512687" lon="6.830873">
        <ele>1997.761</ele>
        <time>2018-07-16T15:19:54Z</time>
      </trkpt>
      <trkpt lat="45.512654" lon="6.830923">
        <ele>1997.517</ele>
        <time>2018-07-16T15:20:01Z</time>
      </trkpt>
      <trkpt lat="45.512606" lon="6.830916">
        <ele>1999.008</ele>
        <time>2018-07-16T15:20:12Z</time>
      </trkpt>
      <trkpt lat="45.512566" lon="6.830948">
        <ele>1999.980</ele>
        <time>2018-07-16T15:20:25Z</time>
      </trkpt>
      <trkpt lat="45.512543" lon="6.831005">
        <ele>2000.834</ele>
        <time>2018-07-16T15:20:33Z</time>
      </trkpt>
      <trkpt lat="45.512500" lon="6.831051">
        <ele>2002.236</ele>
        <time>2018-07-16T15:20:47Z</time>
      </trkpt>
      <trkpt lat="45.512470" lon="6.831107">
        <ele>2002.671</ele>
        <time>2018-07-16T15:20:59Z</time>
      </trkpt>
      <trkpt lat="45.512470" lon="6.831179">
        <ele>2002.175</ele>
        <time>2018-07-16T15:21:30Z</time>
      </trkpt>
      <trkpt lat="45.512475" lon="6.831248">
        <ele>2001.080</ele>
        <time>2018-07-16T15:21:36Z</time>
      </trkpt>
      <trkpt lat="45.512466" lon="6.831318">
        <ele>2000.359</ele>
        <time>2018-07-16T15:21:44Z</time>
      </trkpt>
      <trkpt lat="45.512444" lon="6.831385">
        <ele>2000.751</ele>
        <time>2018-07-16T15:21:52Z</time>
      </trkpt>
      <trkpt lat="45.512413" lon="6.831432">
        <ele>2001.318</ele>
        <time>2018-07-16T15:21:58Z</time>
      </trkpt>
      <trkpt lat="45.512409" lon="6.831503">
        <ele>2001.798</ele>
        <time>2018-07-16T15:22:06Z</time>
      </trkpt>
      <trkpt lat="45.512387" lon="6.831565">
        <ele>2001.517</ele>
        <time>2018-07-16T15:22:13Z</time>
      </trkpt>
      <trkpt lat="45.512354" lon="6.831611">
        <ele>2001.408</ele>
        <time>2018-07-16T15:22:19Z</time>
      </trkpt>
      <trkpt lat="45.512308" lon="6.831639">
        <ele>2001.363</ele>
        <time>2018-07-16T15:22:26Z</time>
      </trkpt>
      <trkpt lat="45.512257" lon="6.831639">
        <ele>2001.367</ele>
        <time>2018-07-16T15:22:35Z</time>
      </trkpt>
      <trkpt lat="45.512209" lon="6.831658">
        <ele>2001.749</ele>
        <time>2018-07-16T15:22:42Z</time>
      </trkpt>
      <trkpt lat="45.512175" lon="6.831717">
        <ele>1999.934</ele>
        <time>2018-07-16T15:23:02Z</time>
      </trkpt>
      <trkpt lat="45.512167" lon="6.831792">
        <ele>1998.858</ele>
        <time>2018-07-16T15:23:10Z</time>
      </trkpt>
      <trkpt lat="45.512124" lon="6.831813">
        <ele>1998.243</ele>
        <time>2018-07-16T15:23:19Z</time>
      </trkpt>
      <trkpt lat="45.512079" lon="6.831805">
        <ele>1999.892</ele>
        <time>2018-07-16T15:23:31Z</time>
      </trkpt>
      <trkpt lat="45.512033" lon="6.831796">
        <ele>2000.494</ele>
        <time>2018-07-16T15:23:42Z</time>
      </trkpt>
      <trkpt lat="45.511979" lon="6.831813">
        <ele>2001.581</ele>
        <time>2018-07-16T15:23:55Z</time>
      </trkpt>
      <trkpt lat="45.511931" lon="6.831813">
        <ele>2003.461</ele>
        <time>2018-07-16T15:24:06Z</time>
      </trkpt>
      <trkpt lat="45.511889" lon="6.831846">
        <ele>2004.917</ele>
        <time>2018-07-16T15:24:21Z</time>
      </trkpt>
      <trkpt lat="45.511869" lon="6.831908">
        <ele>2006.608</ele>
        <time>2018-07-16T15:24:32Z</time>
      </trkpt>
      <trkpt lat="45.511847" lon="6.831967">
        <ele>2007.260</ele>
        <time>2018-07-16T15:24:46Z</time>
      </trkpt>
      <trkpt lat="45.511819" lon="6.832027">
        <ele>2007.634</ele>
        <time>2018-07-16T15:24:53Z</time>
      </trkpt>
      <trkpt lat="45.511796" lon="6.832092">
        <ele>2007.456</ele>
        <time>2018-07-16T15:25:00Z</time>
      </trkpt>
      <trkpt lat="45.511779" lon="6.832154">
        <ele>2007.311</ele>
        <time>2018-07-16T15:25:08Z</time>
      </trkpt>
      <trkpt lat="45.511749" lon="6.832206">
        <ele>2007.635</ele>
        <time>2018-07-16T15:25:21Z</time>
      </trkpt>
      <trkpt lat="45.511710" lon="6.832242">
        <ele>2008.620</ele>
        <time>2018-07-16T15:25:28Z</time>
      </trkpt>
      <trkpt lat="45.511671" lon="6.832285">
        <ele>2010.419</ele>
        <time>2018-07-16T15:25:37Z</time>
      </trkpt>
      <trkpt lat="45.511628" lon="6.832326">
        <ele>2013.121</ele>
        <time>2018-07-16T15:25:43Z</time>
      </trkpt>
      <trkpt lat="45.511584" lon="6.832359">
        <ele>2015.199</ele>
        <time>2018-07-16T15:25:53Z</time>
      </trkpt>
      <trkpt lat="45.511543" lon="6.832392">
        <ele>2016.707</ele>
        <time>2018-07-16T15:26:00Z</time>
      </trkpt>
      <trkpt lat="45.511499" lon="6.832421">
        <ele>2017.327</ele>
        <time>2018-07-16T15:26:10Z</time>
      </trkpt>
      <trkpt lat="45.511451" lon="6.832451">
        <ele>2018.408</ele>
        <time>2018-07-16T15:26:16Z</time>
      </trkpt>
      <trkpt lat="45.511409" lon="6.832484">
        <ele>2019.531</ele>
        <time>2018-07-16T15:26:23Z</time>
      </trkpt>
      <trkpt lat="45.511348" lon="6.832465">
        <ele>2021.775</ele>
        <time>2018-07-16T15:26:35Z</time>
      </trkpt>
      <trkpt lat="45.511325" lon="6.832530">
        <ele>2022.697</ele>
        <time>2018-07-16T15:26:43Z</time>
      </trkpt>
      <trkpt lat="45.511278" lon="6.832563">
        <ele>2023.262</ele>
        <time>2018-07-16T15:26:50Z</time>
      </trkpt>
      <trkpt lat="45.511228" lon="6.832584">
        <ele>2023.946</ele>
        <time>2018-07-16T15:26:56Z</time>
      </trkpt>
      <trkpt lat="45.511191" lon="6.832625">
        <ele>2023.151</ele>
        <time>2018-07-16T15:27:01Z</time>
      </trkpt>
      <trkpt lat="45.511149" lon="6.832648">
        <ele>2022.220</ele>
        <time>2018-07-16T15:27:07Z</time>
      </trkpt>
      <trkpt lat="45.511100" lon="6.832717">
        <ele>2021.762</ele>
        <time>2018-07-16T15:27:25Z</time>
      </trkpt>
      <trkpt lat="45.511071" lon="6.832770">
        <ele>2021.466</ele>
        <time>2018-07-16T15:27:31Z</time>
      </trkpt>
      <trkpt lat="45.511033" lon="6.832812">
        <ele>2021.229</ele>
        <time>2018-07-16T15:27:41Z</time>
      </trkpt>
      <trkpt lat="45.510995" lon="6.832851">
        <ele>2020.721</ele>
        <time>2018-07-16T15:27:53Z</time>
      </trkpt>
      <trkpt lat="45.510952" lon="6.832886">
        <ele>2020.408</ele>
        <time>2018-07-16T15:28:00Z</time>
      </trkpt>
      <trkpt lat="45.510903" lon="6.832905">
        <ele>2020.238</ele>
        <time>2018-07-16T15:28:08Z</time>
      </trkpt>
      <trkpt lat="45.510858" lon="6.832887">
        <ele>2020.912</ele>
        <time>2018-07-16T15:28:18Z</time>
      </trkpt>
      <trkpt lat="45.510813" lon="6.832896">
        <ele>2022.914</ele>
        <time>2018-07-16T15:28:39Z</time>
      </trkpt>
      <trkpt lat="45.510782" lon="6.832947">
        <ele>2023.779</ele>
        <time>2018-07-16T15:28:57Z</time>
      </trkpt>
      <trkpt lat="45.510761" lon="6.833005">
        <ele>2024.623</ele>
        <time>2018-07-16T15:29:29Z</time>
      </trkpt>
      <trkpt lat="45.510712" lon="6.833009">
        <ele>2025.988</ele>
        <time>2018-07-16T15:29:59Z</time>
      </trkpt>
      <trkpt lat="45.510668" lon="6.832992">
        <ele>2027.187</ele>
        <time>2018-07-16T15:30:57Z</time>
      </trkpt>
      <trkpt lat="45.510616" lon="6.832981">
        <ele>2029.069</ele>
        <time>2018-07-16T15:31:40Z</time>
      </trkpt>
      <trkpt lat="45.510574" lon="6.833009">
        <ele>2031.481</ele>
        <time>2018-07-16T15:32:08Z</time>
      </trkpt>
      <trkpt lat="45.510530" lon="6.833045">
        <ele>2033.261</ele>
        <time>2018-07-16T15:32:25Z</time>
      </trkpt>
      <trkpt lat="45.510486" lon="6.833063">
        <ele>2035.517</ele>
        <time>2018-07-16T15:32:37Z</time>
      </trkpt>
      <trkpt lat="45.510438" lon="6.833077">
        <ele>2038.508</ele>
        <time>2018-07-16T15:32:53Z</time>
      </trkpt>
      <trkpt lat="45.510391" lon="6.833085">
        <ele>2039.940</ele>
        <time>2018-07-16T15:33:07Z</time>
      </trkpt>
      <trkpt lat="45.510347" lon="6.833112">
        <ele>2041.164</ele>
        <time>2018-07-16T15:33:19Z</time>
      </trkpt>
      <trkpt lat="45.510307" lon="6.833148">
        <ele>2042.656</ele>
        <time>2018-07-16T15:33:59Z</time>
      </trkpt>
      <trkpt lat="45.510260" lon="6.833168">
        <ele>2044.331</ele>
        <time>2018-07-16T15:34:17Z</time>
      </trkpt>
      <trkpt lat="45.510222" lon="6.833206">
        <ele>2046.565</ele>
        <time>2018-07-16T15:34:31Z</time>
      </trkpt>
      <trkpt lat="45.510183" lon="6.833250">
        <ele>2047.880</ele>
        <time>2018-07-16T15:34:43Z</time>
      </trkpt>
      <trkpt lat="45.510138" lon="6.833271">
        <ele>2049.429</ele>
        <time>2018-07-16T15:34:56Z</time>
      </trkpt>
      <trkpt lat="45.510102" lon="6.833317">
        <ele>2050.841</ele>
        <time>2018-07-16T15:35:11Z</time>
      </trkpt>
      <trkpt lat="45.510076" lon="6.833376">
        <ele>2051.668</ele>
        <time>2018-07-16T15:35:27Z</time>
      </trkpt>
      <trkpt lat="45.510009" lon="6.833399">
        <ele>2052.942</ele>
        <time>2018-07-16T15:37:11Z</time>
      </trkpt>
      <trkpt lat="45.510015" lon="6.833469">
        <ele>2054.926</ele>
        <time>2018-07-16T15:37:28Z</time>
      </trkpt>
      <trkpt lat="45.510029" lon="6.833532">
        <ele>2056.508</ele>
        <time>2018-07-16T15:37:46Z</time>
      </trkpt>
      <trkpt lat="45.509984" lon="6.833533">
        <ele>2056.388</ele>
        <time>2018-07-16T15:37:56Z</time>
      </trkpt>
      <trkpt lat="45.509936" lon="6.833559">
        <ele>2056.272</ele>
        <time>2018-07-16T15:38:03Z</time>
      </trkpt>
      <trkpt lat="45.509893" lon="6.833599">
        <ele>2055.774</ele>
        <time>2018-07-16T15:38:09Z</time>
      </trkpt>
      <trkpt lat="45.509892" lon="6.833667">
        <ele>2055.089</ele>
        <time>2018-07-16T15:38:17Z</time>
      </trkpt>
      <trkpt lat="45.509856" lon="6.833720">
        <ele>2055.083</ele>
        <time>2018-07-16T15:38:24Z</time>
      </trkpt>
      <trkpt lat="45.509811" lon="6.833755">
        <ele>2055.478</ele>
        <time>2018-07-16T15:38:33Z</time>
      </trkpt>
      <trkpt lat="45.509776" lon="6.833800">
        <ele>2055.677</ele>
        <time>2018-07-16T15:38:49Z</time>
      </trkpt>
      <trkpt lat="45.509728" lon="6.833807">
        <ele>2055.749</ele>
        <time>2018-07-16T15:38:58Z</time>
      </trkpt>
      <trkpt lat="45.509683" lon="6.833809">
        <ele>2056.252</ele>
        <time>2018-07-16T15:39:09Z</time>
      </trkpt>
      <trkpt lat="45.509639" lon="6.833826">
        <ele>2056.953</ele>
        <time>2018-07-16T15:39:22Z</time>
      </trkpt>
      <trkpt lat="45.509590" lon="6.833839">
        <ele>2057.308</ele>
        <time>2018-07-16T15:39:36Z</time>
      </trkpt>
      <trkpt lat="45.509544" lon="6.833857">
        <ele>2058.708</ele>
        <time>2018-07-16T15:39:47Z</time>
      </trkpt>
      <trkpt lat="45.509499" lon="6.833858">
        <ele>2060.087</ele>
        <time>2018-07-16T15:39:56Z</time>
      </trkpt>
      <trkpt lat="45.509455" lon="6.833898">
        <ele>2062.021</ele>
        <time>2018-07-16T15:40:15Z</time>
      </trkpt>
      <trkpt lat="45.509413" lon="6.833934">
        <ele>2062.873</ele>
        <time>2018-07-16T15:40:27Z</time>
      </trkpt>
      <trkpt lat="45.509396" lon="6.833997">
        <ele>2064.198</ele>
        <time>2018-07-16T15:40:37Z</time>
      </trkpt>
      <trkpt lat="45.509365" lon="6.834047">
        <ele>2064.952</ele>
        <time>2018-07-16T15:40:44Z</time>
      </trkpt>
      <trkpt lat="45.509324" lon="6.834085">
        <ele>2065.897</ele>
        <time>2018-07-16T15:40:51Z</time>
      </trkpt>
      <trkpt lat="45.509283" lon="6.834113">
        <ele>2066.336</ele>
        <time>2018-07-16T15:40:58Z</time>
      </trkpt>
      <trkpt lat="45.509253" lon="6.834053">
        <ele>2066.258</ele>
        <time>2018-07-16T15:41:09Z</time>
      </trkpt>
      <trkpt lat="45.509227" lon="6.833992">
        <ele>2066.589</ele>
        <time>2018-07-16T15:41:15Z</time>
      </trkpt>
      <trkpt lat="45.509204" lon="6.833933">
        <ele>2067.106</ele>
        <time>2018-07-16T15:41:21Z</time>
      </trkpt>
      <trkpt lat="45.509247" lon="6.833954">
        <ele>2066.726</ele>
        <time>2018-07-16T15:41:43Z</time>
      </trkpt>
      <trkpt lat="45.509236" lon="6.834020">
        <ele>2065.608</ele>
        <time>2018-07-16T15:41:53Z</time>
      </trkpt>
      <trkpt lat="45.509213" lon="6.834082">
        <ele>2065.820</ele>
        <time>2018-07-16T15:42:02Z</time>
      </trkpt>
      <trkpt lat="45.509184" lon="6.834143">
        <ele>2065.974</ele>
        <time>2018-07-16T15:42:08Z</time>
      </trkpt>
      <trkpt lat="45.509141" lon="6.834186">
        <ele>2066.416</ele>
        <time>2018-07-16T15:42:14Z</time>
      </trkpt>
      <trkpt lat="45.509098" lon="6.834221">
        <ele>2066.791</ele>
        <time>2018-07-16T15:42:22Z</time>
      </trkpt>
      <trkpt lat="45.509053" lon="6.834218">
        <ele>2067.345</ele>
        <time>2018-07-16T15:42:28Z</time>
      </trkpt>
      <trkpt lat="45.509013" lon="6.834179">
        <ele>2068.030</ele>
        <time>2018-07-16T15:42:34Z</time>
      </trkpt>
      <trkpt lat="45.508972" lon="6.834141">
        <ele>2068.819</ele>
        <time>2018-07-16T15:42:43Z</time>
      </trkpt>
      <trkpt lat="45.508926" lon="6.834123">
        <ele>2069.761</ele>
        <time>2018-07-16T15:42:52Z</time>
      </trkpt>
      <trkpt lat="45.508883" lon="6.834145">
        <ele>2070.651</ele>
        <time>2018-07-16T15:42:59Z</time>
      </trkpt>
      <trkpt lat="45.508837" lon="6.834150">
        <ele>2071.201</ele>
        <time>2018-07-16T15:43:08Z</time>
      </trkpt>
      <trkpt lat="45.508790" lon="6.834191">
        <ele>2071.111</ele>
        <time>2018-07-16T15:43:17Z</time>
      </trkpt>
      <trkpt lat="45.508739" lon="6.834203">
        <ele>2071.508</ele>
        <time>2018-07-16T15:43:23Z</time>
      </trkpt>
      <trkpt lat="45.508699" lon="6.834233">
        <ele>2071.777</ele>
        <time>2018-07-16T15:43:28Z</time>
      </trkpt>
      <trkpt lat="45.508651" lon="6.834248">
        <ele>2072.231</ele>
        <time>2018-07-16T15:43:35Z</time>
      </trkpt>
      <trkpt lat="45.508615" lon="6.834295">
        <ele>2072.183</ele>
        <time>2018-07-16T15:43:47Z</time>
      </trkpt>
      <trkpt lat="45.508584" lon="6.834343">
        <ele>2072.138</ele>
        <time>2018-07-16T15:43:55Z</time>
      </trkpt>
      <trkpt lat="45.508554" lon="6.834394">
        <ele>2072.122</ele>
        <time>2018-07-16T15:44:03Z</time>
      </trkpt>
      <trkpt lat="45.508512" lon="6.834422">
        <ele>2072.147</ele>
        <time>2018-07-16T15:44:13Z</time>
      </trkpt>
      <trkpt lat="45.508467" lon="6.834422">
        <ele>2072.966</ele>
        <time>2018-07-16T15:44:22Z</time>
      </trkpt>
      <trkpt lat="45.508422" lon="6.834447">
        <ele>2073.458</ele>
        <time>2018-07-16T15:44:32Z</time>
      </trkpt>
      <trkpt lat="45.508382" lon="6.834477">
        <ele>2074.119</ele>
        <time>2018-07-16T15:44:40Z</time>
      </trkpt>
      <trkpt lat="45.508333" lon="6.834495">
        <ele>2074.909</ele>
        <time>2018-07-16T15:44:48Z</time>
      </trkpt>
      <trkpt lat="45.508288" lon="6.834511">
        <ele>2075.419</ele>
        <time>2018-07-16T15:44:55Z</time>
      </trkpt>
      <trkpt lat="45.508238" lon="6.834518">
        <ele>2076.108</ele>
        <time>2018-07-16T15:45:02Z</time>
      </trkpt>
      <trkpt lat="45.508192" lon="6.834517">
        <ele>2076.183</ele>
        <time>2018-07-16T15:45:10Z</time>
      </trkpt>
      <trkpt lat="45.508143" lon="6.834519">
        <ele>2076.167</ele>
        <time>2018-07-16T15:45:18Z</time>
      </trkpt>
      <trkpt lat="45.508098" lon="6.834542">
        <ele>2076.199</ele>
        <time>2018-07-16T15:45:26Z</time>
      </trkpt>
      <trkpt lat="45.508054" lon="6.834561">
        <ele>2076.524</ele>
        <time>2018-07-16T15:45:33Z</time>
      </trkpt>
      <trkpt lat="45.508004" lon="6.834580">
        <ele>2077.178</ele>
        <time>2018-07-16T15:45:40Z</time>
      </trkpt>
      <trkpt lat="45.507960" lon="6.834616">
        <ele>2078.373</ele>
        <time>2018-07-16T15:45:48Z</time>
      </trkpt>
      <trkpt lat="45.507917" lon="6.834645">
        <ele>2079.442</ele>
        <time>2018-07-16T15:45:55Z</time>
      </trkpt>
      <trkpt lat="45.507866" lon="6.834634">
        <ele>2079.724</ele>
        <time>2018-07-16T15:46:02Z</time>
      </trkpt>
      <trkpt lat="45.507819" lon="6.834636">
        <ele>2080.379</ele>
        <time>2018-07-16T15:46:08Z</time>
      </trkpt>
      <trkpt lat="45.507774" lon="6.834625">
        <ele>2080.605</ele>
        <time>2018-07-16T15:46:14Z</time>
      </trkpt>
      <trkpt lat="45.507732" lon="6.834601">
        <ele>2080.825</ele>
        <time>2018-07-16T15:46:19Z</time>
      </trkpt>
      <trkpt lat="45.507687" lon="6.834572">
        <ele>2080.908</ele>
        <time>2018-07-16T15:46:24Z</time>
      </trkpt>
      <trkpt lat="45.507640" lon="6.834559">
        <ele>2081.029</ele>
        <time>2018-07-16T15:46:30Z</time>
      </trkpt>
      <trkpt lat="45.507591" lon="6.834572">
        <ele>2081.053</ele>
        <time>2018-07-16T15:46:38Z</time>
      </trkpt>
      <trkpt lat="45.507540" lon="6.834587">
        <ele>2081.065</ele>
        <time>2018-07-16T15:46:46Z</time>
      </trkpt>
      <trkpt lat="45.507495" lon="6.834611">
        <ele>2081.080</ele>
        <time>2018-07-16T15:46:53Z</time>
      </trkpt>
      <trkpt lat="45.507448" lon="6.834625">
        <ele>2081.454</ele>
        <time>2018-07-16T15:47:05Z</time>
      </trkpt>
      <trkpt lat="45.507397" lon="6.834621">
        <ele>2082.419</ele>
        <time>2018-07-16T15:47:17Z</time>
      </trkpt>
      <trkpt lat="45.507348" lon="6.834610">
        <ele>2083.448</ele>
        <time>2018-07-16T15:47:31Z</time>
      </trkpt>
      <trkpt lat="45.507302" lon="6.834608">
        <ele>2084.080</ele>
        <time>2018-07-16T15:47:39Z</time>
      </trkpt>
      <trkpt lat="45.507256" lon="6.834611">
        <ele>2084.814</ele>
        <time>2018-07-16T15:47:47Z</time>
      </trkpt>
      <trkpt lat="45.507207" lon="6.834624">
        <ele>2086.154</ele>
        <time>2018-07-16T15:47:57Z</time>
      </trkpt>
      <trkpt lat="45.507161" lon="6.834626">
        <ele>2087.709</ele>
        <time>2018-07-16T15:48:10Z</time>
      </trkpt>
      <trkpt lat="45.507115" lon="6.834628">
        <ele>2089.008</ele>
        <time>2018-07-16T15:48:22Z</time>
      </trkpt>
      <trkpt lat="45.507070" lon="6.834639">
        <ele>2090.633</ele>
        <time>2018-07-16T15:48:29Z</time>
      </trkpt>
      <trkpt lat="45.507025" lon="6.834650">
        <ele>2092.477</ele>
        <time>2018-07-16T15:48:37Z</time>
      </trkpt>
      <trkpt lat="45.506977" lon="6.834650">
        <ele>2094.339</ele>
        <time>2018-07-16T15:48:46Z</time>
      </trkpt>
      <trkpt lat="45.506930" lon="6.834641">
        <ele>2095.494</ele>
        <time>2018-07-16T15:48:56Z</time>
      </trkpt>
      <trkpt lat="45.506881" lon="6.834638">
        <ele>2096.158</ele>
        <time>2018-07-16T15:49:05Z</time>
      </trkpt>
      <trkpt lat="45.506836" lon="6.834612">
        <ele>2097.343</ele>
        <time>2018-07-16T15:49:13Z</time>
      </trkpt>
      <trkpt lat="45.506787" lon="6.834645">
        <ele>2096.812</ele>
        <time>2018-07-16T15:49:37Z</time>
      </trkpt>
      <trkpt lat="45.506743" lon="6.834618">
        <ele>2096.554</ele>
        <time>2018-07-16T15:49:57Z</time>
      </trkpt>
      <trkpt lat="45.506696" lon="6.834613">
        <ele>2097.569</ele>
        <time>2018-07-16T15:50:06Z</time>
      </trkpt>
      <trkpt lat="45.506650" lon="6.834614">
        <ele>2098.504</ele>
        <time>2018-07-16T15:50:12Z</time>
      </trkpt>
      <trkpt lat="45.506604" lon="6.834619">
        <ele>2099.524</ele>
        <time>2018-07-16T15:50:17Z</time>
      </trkpt>
      <trkpt lat="45.506556" lon="6.834616">
        <ele>2100.108</ele>
        <time>2018-07-16T15:50:26Z</time>
      </trkpt>
      <trkpt lat="45.506510" lon="6.834636">
        <ele>2100.598</ele>
        <time>2018-07-16T15:50:32Z</time>
      </trkpt>
      <trkpt lat="45.506471" lon="6.834673">
        <ele>2101.152</ele>
        <time>2018-07-16T15:50:41Z</time>
      </trkpt>
      <trkpt lat="45.506447" lon="6.834728">
        <ele>2101.984</ele>
        <time>2018-07-16T15:51:02Z</time>
      </trkpt>
      <trkpt lat="45.506407" lon="6.834758">
        <ele>2102.439</ele>
        <time>2018-07-16T15:51:11Z</time>
      </trkpt>
      <trkpt lat="45.506378" lon="6.834813">
        <ele>2103.183</ele>
        <time>2018-07-16T15:51:28Z</time>
      </trkpt>
      <trkpt lat="45.506349" lon="6.834868">
        <ele>2103.918</ele>
        <time>2018-07-16T15:51:43Z</time>
      </trkpt>
      <trkpt lat="45.506309" lon="6.834904">
        <ele>2104.857</ele>
        <time>2018-07-16T15:51:52Z</time>
      </trkpt>
      <trkpt lat="45.506266" lon="6.834947">
        <ele>2105.779</ele>
        <time>2018-07-16T15:52:03Z</time>
      </trkpt>
      <trkpt lat="45.506223" lon="6.834966">
        <ele>2106.373</ele>
        <time>2018-07-16T15:52:11Z</time>
      </trkpt>
      <trkpt lat="45.506178" lon="6.834989">
        <ele>2107.085</ele>
        <time>2018-07-16T15:52:19Z</time>
      </trkpt>
      <trkpt lat="45.506129" lon="6.835011">
        <ele>2107.413</ele>
        <time>2018-07-16T15:52:28Z</time>
      </trkpt>
      <trkpt lat="45.506086" lon="6.835031">
        <ele>2107.708</ele>
        <time>2018-07-16T15:52:40Z</time>
      </trkpt>
      <trkpt lat="45.506042" lon="6.835047">
        <ele>2107.529</ele>
        <time>2018-07-16T15:52:49Z</time>
      </trkpt>
      <trkpt lat="45.506042" lon="6.835111">
        <ele>2108.293</ele>
        <time>2018-07-16T15:53:23Z</time>
      </trkpt>
      <trkpt lat="45.506011" lon="6.835164">
        <ele>2108.295</ele>
        <time>2018-07-16T15:53:36Z</time>
      </trkpt>
      <trkpt lat="45.505979" lon="6.835218">
        <ele>2109.070</ele>
        <time>2018-07-16T15:56:14Z</time>
      </trkpt>
      <trkpt lat="45.505995" lon="6.835290">
        <ele>2109.914</ele>
        <time>2018-07-16T15:56:26Z</time>
      </trkpt>
      <trkpt lat="45.505992" lon="6.835357">
        <ele>2110.429</ele>
        <time>2018-07-16T15:56:32Z</time>
      </trkpt>
      <trkpt lat="45.505994" lon="6.835428">
        <ele>2110.778</ele>
        <time>2018-07-16T15:56:39Z</time>
      </trkpt>
      <trkpt lat="45.505994" lon="6.835498">
        <ele>2110.970</ele>
        <time>2018-07-16T15:56:47Z</time>
      </trkpt>
      <trkpt lat="45.505995" lon="6.835562">
        <ele>2111.893</ele>
        <time>2018-07-16T15:56:55Z</time>
      </trkpt>
      <trkpt lat="45.505968" lon="6.835622">
        <ele>2112.765</ele>
        <time>2018-07-16T15:57:06Z</time>
      </trkpt>
      <trkpt lat="45.505926" lon="6.835660">
        <ele>2113.321</ele>
        <time>2018-07-16T15:57:16Z</time>
      </trkpt>
      <trkpt lat="45.505890" lon="6.835700">
        <ele>2114.008</ele>
        <time>2018-07-16T15:57:26Z</time>
      </trkpt>
      <trkpt lat="45.505859" lon="6.835750">
        <ele>2114.431</ele>
        <time>2018-07-16T15:57:36Z</time>
      </trkpt>
      <trkpt lat="45.505818" lon="6.835783">
        <ele>2115.535</ele>
        <time>2018-07-16T15:57:46Z</time>
      </trkpt>
      <trkpt lat="45.505774" lon="6.835801">
        <ele>2116.597</ele>
        <time>2018-07-16T15:58:00Z</time>
      </trkpt>
      <trkpt lat="45.505743" lon="6.835854">
        <ele>2117.182</ele>
        <time>2018-07-16T15:58:08Z</time>
      </trkpt>
      <trkpt lat="45.505738" lon="6.835924">
        <ele>2118.396</ele>
        <time>2018-07-16T15:58:18Z</time>
      </trkpt>
      <trkpt lat="45.505746" lon="6.835990">
        <ele>2119.081</ele>
        <time>2018-07-16T15:58:24Z</time>
      </trkpt>
      <trkpt lat="45.505773" lon="6.836043">
        <ele>2120.210</ele>
        <time>2018-07-16T15:58:46Z</time>
      </trkpt>
      <trkpt lat="45.505808" lon="6.836087">
        <ele>2121.312</ele>
        <time>2018-07-16T15:58:58Z</time>
      </trkpt>
      <trkpt lat="45.505810" lon="6.836155">
        <ele>2122.412</ele>
        <time>2018-07-16T15:59:11Z</time>
      </trkpt>
      <trkpt lat="45.505828" lon="6.836214">
        <ele>2123.432</ele>
        <time>2018-07-16T15:59:40Z</time>
      </trkpt>
      <trkpt lat="45.505835" lon="6.836279">
        <ele>2124.005</ele>
        <time>2018-07-16T15:59:56Z</time>
      </trkpt>
      <trkpt lat="45.505860" lon="6.836342">
        <ele>2124.008</ele>
        <time>2018-07-16T16:00:05Z</time>
      </trkpt>
      <trkpt lat="45.505885" lon="6.836400">
        <ele>2124.063</ele>
        <time>2018-07-16T16:00:11Z</time>
      </trkpt>
      <trkpt lat="45.505914" lon="6.836455">
        <ele>2124.037</ele>
        <time>2018-07-16T16:00:17Z</time>
      </trkpt>
      <trkpt lat="45.505917" lon="6.836523">
        <ele>2124.029</ele>
        <time>2018-07-16T16:00:24Z</time>
      </trkpt>
      <trkpt lat="45.505921" lon="6.836594">
        <ele>2123.664</ele>
        <time>2018-07-16T16:00:32Z</time>
      </trkpt>
      <trkpt lat="45.505930" lon="6.836657">
        <ele>2123.828</ele>
        <time>2018-07-16T16:00:40Z</time>
      </trkpt>
      <trkpt lat="45.505933" lon="6.836728">
        <ele>2123.913</ele>
        <time>2018-07-16T16:00:48Z</time>
      </trkpt>
      <trkpt lat="45.505935" lon="6.836800">
        <ele>2123.652</ele>
        <time>2018-07-16T16:00:54Z</time>
      </trkpt>
      <trkpt lat="45.505936" lon="6.836865">
        <ele>2123.434</ele>
        <time>2018-07-16T16:01:01Z</time>
      </trkpt>
      <trkpt lat="45.505927" lon="6.836929">
        <ele>2123.774</ele>
        <time>2018-07-16T16:01:17Z</time>
      </trkpt>
      <trkpt lat="45.505882" lon="6.836918">
        <ele>2124.756</ele>
        <time>2018-07-16T16:01:27Z</time>
      </trkpt>
      <trkpt lat="45.505838" lon="6.836892">
        <ele>2126.121</ele>
        <time>2018-07-16T16:01:38Z</time>
      </trkpt>
      <trkpt lat="45.505792" lon="6.836890">
        <ele>2127.708</ele>
        <time>2018-07-16T16:01:48Z</time>
      </trkpt>
      <trkpt lat="45.505761" lon="6.836943">
        <ele>2129.519</ele>
        <time>2018-07-16T16:02:01Z</time>
      </trkpt>
      <trkpt lat="45.505725" lon="6.836987">
        <ele>2131.053</ele>
        <time>2018-07-16T16:02:12Z</time>
      </trkpt>
      <trkpt lat="45.505689" lon="6.837027">
        <ele>2131.955</ele>
        <time>2018-07-16T16:02:26Z</time>
      </trkpt>
      <trkpt lat="45.505642" lon="6.837039">
        <ele>2132.410</ele>
        <time>2018-07-16T16:02:35Z</time>
      </trkpt>
      <trkpt lat="45.505600" lon="6.837063">
        <ele>2132.794</ele>
        <time>2018-07-16T16:02:42Z</time>
      </trkpt>
      <trkpt lat="45.505581" lon="6.837124">
        <ele>2132.989</ele>
        <time>2018-07-16T16:02:54Z</time>
      </trkpt>
      <trkpt lat="45.505534" lon="6.837124">
        <ele>2133.058</ele>
        <time>2018-07-16T16:03:01Z</time>
      </trkpt>
      <trkpt lat="45.505486" lon="6.837123">
        <ele>2132.730</ele>
        <time>2018-07-16T16:03:06Z</time>
      </trkpt>
      <trkpt lat="45.505434" lon="6.837122">
        <ele>2132.593</ele>
        <time>2018-07-16T16:03:12Z</time>
      </trkpt>
      <trkpt lat="45.505401" lon="6.837168">
        <ele>2133.265</ele>
        <time>2018-07-16T16:03:18Z</time>
      </trkpt>
      <trkpt lat="45.505353" lon="6.837192">
        <ele>2133.621</ele>
        <time>2018-07-16T16:03:24Z</time>
      </trkpt>
      <trkpt lat="45.505303" lon="6.837205">
        <ele>2134.208</ele>
        <time>2018-07-16T16:03:31Z</time>
      </trkpt>
      <trkpt lat="45.505277" lon="6.837148">
        <ele>2135.431</ele>
        <time>2018-07-16T16:03:40Z</time>
      </trkpt>
      <trkpt lat="45.505240" lon="6.837112">
        <ele>2136.175</ele>
        <time>2018-07-16T16:03:50Z</time>
      </trkpt>
      <trkpt lat="45.505191" lon="6.837113">
        <ele>2136.527</ele>
        <time>2018-07-16T16:03:58Z</time>
      </trkpt>
      <trkpt lat="45.505143" lon="6.837122">
        <ele>2136.872</ele>
        <time>2018-07-16T16:04:09Z</time>
      </trkpt>
      <trkpt lat="45.505100" lon="6.837100">
        <ele>2137.816</ele>
        <time>2018-07-16T16:04:18Z</time>
      </trkpt>
      <trkpt lat="45.505061" lon="6.837064">
        <ele>2138.431</ele>
        <time>2018-07-16T16:04:28Z</time>
      </trkpt>
      <trkpt lat="45.505014" lon="6.837066">
        <ele>2139.510</ele>
        <time>2018-07-16T16:04:38Z</time>
      </trkpt>
      <trkpt lat="45.504968" lon="6.837057">
        <ele>2140.652</ele>
        <time>2018-07-16T16:04:45Z</time>
      </trkpt>
      <trkpt lat="45.504921" lon="6.837055">
        <ele>2141.399</ele>
        <time>2018-07-16T16:04:56Z</time>
      </trkpt>
      <trkpt lat="45.504870" lon="6.837053">
        <ele>2142.507</ele>
        <time>2018-07-16T16:05:05Z</time>
      </trkpt>
      <trkpt lat="45.504822" lon="6.837031">
        <ele>2143.227</ele>
        <time>2018-07-16T16:05:11Z</time>
      </trkpt>
      <trkpt lat="45.504777" lon="6.836997">
        <ele>2143.608</ele>
        <time>2018-07-16T16:05:17Z</time>
      </trkpt>
      <trkpt lat="45.504727" lon="6.836988">
        <ele>2143.991</ele>
        <time>2018-07-16T16:05:23Z</time>
      </trkpt>
      <trkpt lat="45.504679" lon="6.836985">
        <ele>2143.345</ele>
        <time>2018-07-16T16:05:29Z</time>
      </trkpt>
      <trkpt lat="45.504632" lon="6.836999">
        <ele>2142.937</ele>
        <time>2018-07-16T16:05:34Z</time>
      </trkpt>
      <trkpt lat="45.504586" lon="6.837008">
        <ele>2142.752</ele>
        <time>2018-07-16T16:05:39Z</time>
      </trkpt>
      <trkpt lat="45.504534" lon="6.836997">
        <ele>2142.676</ele>
        <time>2018-07-16T16:05:46Z</time>
      </trkpt>
      <trkpt lat="45.504487" lon="6.837001">
        <ele>2142.561</ele>
        <time>2018-07-16T16:05:52Z</time>
      </trkpt>
      <trkpt lat="45.504438" lon="6.836989">
        <ele>2142.860</ele>
        <time>2018-07-16T16:05:59Z</time>
      </trkpt>
      <trkpt lat="45.504386" lon="6.836974">
        <ele>2142.672</ele>
        <time>2018-07-16T16:06:06Z</time>
      </trkpt>
      <trkpt lat="45.504332" lon="6.836964">
        <ele>2142.997</ele>
        <time>2018-07-16T16:06:12Z</time>
      </trkpt>
      <trkpt lat="45.504285" lon="6.836980">
        <ele>2143.123</ele>
        <time>2018-07-16T16:06:17Z</time>
      </trkpt>
      <trkpt lat="45.504238" lon="6.837002">
        <ele>2142.825</ele>
        <time>2018-07-16T16:06:23Z</time>
      </trkpt>
      <trkpt lat="45.504192" lon="6.837023">
        <ele>2143.008</ele>
        <time>2018-07-16T16:06:28Z</time>
      </trkpt>
      <trkpt lat="45.504152" lon="6.837059">
        <ele>2143.121</ele>
        <time>2018-07-16T16:06:33Z</time>
      </trkpt>
      <trkpt lat="45.504107" lon="6.837067">
        <ele>2143.695</ele>
        <time>2018-07-16T16:06:38Z</time>
      </trkpt>
      <trkpt lat="45.504062" lon="6.837080">
        <ele>2143.967</ele>
        <time>2018-07-16T16:06:43Z</time>
      </trkpt>
      <trkpt lat="45.504009" lon="6.837073">
        <ele>2144.142</ele>
        <time>2018-07-16T16:06:49Z</time>
      </trkpt>
      <trkpt lat="45.503958" lon="6.837075">
        <ele>2144.256</ele>
        <time>2018-07-16T16:06:55Z</time>
      </trkpt>
      <trkpt lat="45.503911" lon="6.837080">
        <ele>2143.921</ele>
        <time>2018-07-16T16:07:01Z</time>
      </trkpt>
      <trkpt lat="45.503863" lon="6.837085">
        <ele>2143.790</ele>
        <time>2018-07-16T16:07:07Z</time>
      </trkpt>
      <trkpt lat="45.503815" lon="6.837097">
        <ele>2143.692</ele>
        <time>2018-07-16T16:07:14Z</time>
      </trkpt>
      <trkpt lat="45.503770" lon="6.837104">
        <ele>2143.167</ele>
        <time>2018-07-16T16:07:20Z</time>
      </trkpt>
      <trkpt lat="45.503719" lon="6.837088">
        <ele>2142.881</ele>
        <time>2018-07-16T16:07:26Z</time>
      </trkpt>
      <trkpt lat="45.503672" lon="6.837119">
        <ele>2143.019</ele>
        <time>2018-07-16T16:07:33Z</time>
      </trkpt>
      <trkpt lat="45.503626" lon="6.837140">
        <ele>2143.508</ele>
        <time>2018-07-16T16:07:41Z</time>
      </trkpt>
      <trkpt lat="45.503578" lon="6.837136">
        <ele>2143.418</ele>
        <time>2018-07-16T16:07:51Z</time>
      </trkpt>
      <trkpt lat="45.503530" lon="6.837154">
        <ele>2143.482</ele>
        <time>2018-07-16T16:08:55Z</time>
      </trkpt>
      <trkpt lat="45.503484" lon="6.837160">
        <ele>2143.484</ele>
        <time>2018-07-16T16:09:07Z</time>
      </trkpt>
      <trkpt lat="45.503432" lon="6.837146">
        <ele>2143.469</ele>
        <time>2018-07-16T16:09:15Z</time>
      </trkpt>
      <trkpt lat="45.503381" lon="6.837144">
        <ele>2143.433</ele>
        <time>2018-07-16T16:09:21Z</time>
      </trkpt>
      <trkpt lat="45.503336" lon="6.837141">
        <ele>2143.018</ele>
        <time>2018-07-16T16:09:27Z</time>
      </trkpt>
      <trkpt lat="45.503288" lon="6.837145">
        <ele>2143.287</ele>
        <time>2018-07-16T16:09:33Z</time>
      </trkpt>
      <trkpt lat="45.503237" lon="6.837152">
        <ele>2143.359</ele>
        <time>2018-07-16T16:09:40Z</time>
      </trkpt>
      <trkpt lat="45.503191" lon="6.837151">
        <ele>2144.235</ele>
        <time>2018-07-16T16:09:46Z</time>
      </trkpt>
      <trkpt lat="45.503155" lon="6.837106">
        <ele>2144.386</ele>
        <time>2018-07-16T16:09:52Z</time>
      </trkpt>
      <trkpt lat="45.503104" lon="6.837123">
        <ele>2144.414</ele>
        <time>2018-07-16T16:10:01Z</time>
      </trkpt>
      <trkpt lat="45.503056" lon="6.837118">
        <ele>2144.008</ele>
        <time>2018-07-16T16:10:07Z</time>
      </trkpt>
      <trkpt lat="45.503011" lon="6.837121">
        <ele>2144.235</ele>
        <time>2018-07-16T16:10:14Z</time>
      </trkpt>
      <trkpt lat="45.502964" lon="6.837099">
        <ele>2144.359</ele>
        <time>2018-07-16T16:10:22Z</time>
      </trkpt>
      <trkpt lat="45.502915" lon="6.837116">
        <ele>2143.631</ele>
        <time>2018-07-16T16:10:36Z</time>
      </trkpt>
      <trkpt lat="45.502875" lon="6.837147">
        <ele>2143.286</ele>
        <time>2018-07-16T16:10:44Z</time>
      </trkpt>
      <trkpt lat="45.502826" lon="6.837163">
        <ele>2142.530</ele>
        <time>2018-07-16T16:10:52Z</time>
      </trkpt>
      <trkpt lat="45.502777" lon="6.837197">
        <ele>2143.745</ele>
        <time>2018-07-16T16:12:09Z</time>
      </trkpt>
      <trkpt lat="45.502734" lon="6.837232">
        <ele>2144.024</ele>
        <time>2018-07-16T16:12:28Z</time>
      </trkpt>
      <trkpt lat="45.502702" lon="6.837281">
        <ele>2143.056</ele>
        <time>2018-07-16T16:12:37Z</time>
      </trkpt>
      <trkpt lat="45.502658" lon="6.837309">
        <ele>2142.453</ele>
        <time>2018-07-16T16:12:45Z</time>
      </trkpt>
      <trkpt lat="45.502615" lon="6.837342">
        <ele>2141.604</ele>
        <time>2018-07-16T16:12:52Z</time>
      </trkpt>
      <trkpt lat="45.502580" lon="6.837391">
        <ele>2140.314</ele>
        <time>2018-07-16T16:13:03Z</time>
      </trkpt>
      <trkpt lat="45.502556" lon="6.837447">
        <ele>2139.908</ele>
        <time>2018-07-16T16:13:12Z</time>
      </trkpt>
      <trkpt lat="45.502514" lon="6.837474">
        <ele>2140.177</ele>
        <time>2018-07-16T16:13:20Z</time>
      </trkpt>
      <trkpt lat="45.502468" lon="6.837495">
        <ele>2140.281</ele>
        <time>2018-07-16T16:13:28Z</time>
      </trkpt>
      <trkpt lat="45.502418" lon="6.837535">
        <ele>2140.733</ele>
        <time>2018-07-16T16:13:39Z</time>
      </trkpt>
      <trkpt lat="45.502379" lon="6.837580">
        <ele>2141.018</ele>
        <time>2018-07-16T16:13:59Z</time>
      </trkpt>
      <trkpt lat="45.502349" lon="6.837633">
        <ele>2140.882</ele>
        <time>2018-07-16T16:14:08Z</time>
      </trkpt>
      <trkpt lat="45.502320" lon="6.837689">
        <ele>2140.757</ele>
        <time>2018-07-16T16:14:17Z</time>
      </trkpt>
      <trkpt lat="45.502285" lon="6.837739">
        <ele>2140.656</ele>
        <time>2018-07-16T16:14:25Z</time>
      </trkpt>
      <trkpt lat="45.502255" lon="6.837792">
        <ele>2140.588</ele>
        <time>2018-07-16T16:14:31Z</time>
      </trkpt>
      <trkpt lat="45.502228" lon="6.837851">
        <ele>2140.585</ele>
        <time>2018-07-16T16:14:38Z</time>
      </trkpt>
      <trkpt lat="45.502200" lon="6.837908">
        <ele>2141.389</ele>
        <time>2018-07-16T16:14:47Z</time>
      </trkpt>
      <trkpt lat="45.502154" lon="6.837944">
        <ele>2141.417</ele>
        <time>2018-07-16T16:14:54Z</time>
      </trkpt>
      <trkpt lat="45.502111" lon="6.837980">
        <ele>2141.008</ele>
        <time>2018-07-16T16:15:00Z</time>
      </trkpt>
      <trkpt lat="45.502073" lon="6.838026">
        <ele>2140.850</ele>
        <time>2018-07-16T16:15:08Z</time>
      </trkpt>
      <trkpt lat="45.502035" lon="6.838062">
        <ele>2140.724</ele>
        <time>2018-07-16T16:15:15Z</time>
      </trkpt>
      <trkpt lat="45.501994" lon="6.838096">
        <ele>2140.216</ele>
        <time>2018-07-16T16:15:20Z</time>
      </trkpt>
      <trkpt lat="45.501950" lon="6.838137">
        <ele>2139.921</ele>
        <time>2018-07-16T16:15:25Z</time>
      </trkpt>
      <trkpt lat="45.501905" lon="6.838184">
        <ele>2140.155</ele>
        <time>2018-07-16T16:15:30Z</time>
      </trkpt>
      <trkpt lat="45.501864" lon="6.838224">
        <ele>2140.240</ele>
        <time>2018-07-16T16:15:34Z</time>
      </trkpt>
      <trkpt lat="45.501829" lon="6.838282">
        <ele>2140.779</ele>
        <time>2018-07-16T16:15:39Z</time>
      </trkpt>
      <trkpt lat="45.501792" lon="6.838335">
        <ele>2141.051</ele>
        <time>2018-07-16T16:15:45Z</time>
      </trkpt>
      <trkpt lat="45.501746" lon="6.838375">
        <ele>2140.888</ele>
        <time>2018-07-16T16:15:51Z</time>
      </trkpt>
      <trkpt lat="45.501701" lon="6.838399">
        <ele>2140.724</ele>
        <time>2018-07-16T16:15:56Z</time>
      </trkpt>
      <trkpt lat="45.501651" lon="6.838413">
        <ele>2141.026</ele>
        <time>2018-07-16T16:16:01Z</time>
      </trkpt>
      <trkpt lat="45.501604" lon="6.838412">
        <ele>2140.808</ele>
        <time>2018-07-16T16:16:08Z</time>
      </trkpt>
      <trkpt lat="45.501561" lon="6.838433">
        <ele>2140.720</ele>
        <time>2018-07-16T16:16:14Z</time>
      </trkpt>
      <trkpt lat="45.501510" lon="6.838462">
        <ele>2140.224</ele>
        <time>2018-07-16T16:16:19Z</time>
      </trkpt>
      <trkpt lat="45.501462" lon="6.838498">
        <ele>2139.986</ele>
        <time>2018-07-16T16:16:24Z</time>
      </trkpt>
      <trkpt lat="45.501425" lon="6.838536">
        <ele>2139.721</ele>
        <time>2018-07-16T16:16:28Z</time>
      </trkpt>
      <trkpt lat="45.501383" lon="6.838565">
        <ele>2139.695</ele>
        <time>2018-07-16T16:16:33Z</time>
      </trkpt>
      <trkpt lat="45.501334" lon="6.838592">
        <ele>2139.910</ele>
        <time>2018-07-16T16:16:38Z</time>
      </trkpt>
      <trkpt lat="45.501285" lon="6.838611">
        <ele>2140.129</ele>
        <time>2018-07-16T16:16:43Z</time>
      </trkpt>
      <trkpt lat="45.501237" lon="6.838615">
        <ele>2140.221</ele>
        <time>2018-07-16T16:16:52Z</time>
      </trkpt>
      <trkpt lat="45.501192" lon="6.838601">
        <ele>2140.396</ele>
        <time>2018-07-16T16:16:57Z</time>
      </trkpt>
      <trkpt lat="45.501142" lon="6.838583">
        <ele>2140.331</ele>
        <time>2018-07-16T16:17:02Z</time>
      </trkpt>
      <trkpt lat="45.501090" lon="6.838569">
        <ele>2140.324</ele>
        <time>2018-07-16T16:17:07Z</time>
      </trkpt>
      <trkpt lat="45.501044" lon="6.838568">
        <ele>2141.108</ele>
        <time>2018-07-16T16:17:11Z</time>
      </trkpt>
      <trkpt lat="45.500992" lon="6.838559">
        <ele>2141.651</ele>
        <time>2018-07-16T16:17:16Z</time>
      </trkpt>
      <trkpt lat="45.500941" lon="6.838554">
        <ele>2141.965</ele>
        <time>2018-07-16T16:17:21Z</time>
      </trkpt>
      <trkpt lat="45.500892" lon="6.838554">
        <ele>2142.557</ele>
        <time>2018-07-16T16:17:26Z</time>
      </trkpt>
      <trkpt lat="45.500843" lon="6.838551">
        <ele>2142.842</ele>
        <time>2018-07-16T16:17:31Z</time>
      </trkpt>
      <trkpt lat="45.500795" lon="6.838536">
        <ele>2143.056</ele>
        <time>2018-07-16T16:17:36Z</time>
      </trkpt>
      <trkpt lat="45.500745" lon="6.838524">
        <ele>2143.131</ele>
        <time>2018-07-16T16:17:41Z</time>
      </trkpt>
      <trkpt lat="45.500696" lon="6.838507">
        <ele>2143.230</ele>
        <time>2018-07-16T16:17:46Z</time>
      </trkpt>
      <trkpt lat="45.500647" lon="6.838492">
        <ele>2143.652</ele>
        <time>2018-07-16T16:17:51Z</time>
      </trkpt>
      <trkpt lat="45.500593" lon="6.838490">
        <ele>2143.966</ele>
        <time>2018-07-16T16:17:57Z</time>
      </trkpt>
      <trkpt lat="45.500546" lon="6.838487">
        <ele>2144.129</ele>
        <time>2018-07-16T16:18:02Z</time>
      </trkpt>
      <trkpt lat="45.500494" lon="6.838467">
        <ele>2144.621</ele>
        <time>2018-07-16T16:18:08Z</time>
      </trkpt>
      <trkpt lat="45.500447" lon="6.838454">
        <ele>2144.908</ele>
        <time>2018-07-16T16:18:13Z</time>
      </trkpt>
      <trkpt lat="45.500398" lon="6.838443">
        <ele>2145.198</ele>
        <time>2018-07-16T16:18:18Z</time>
      </trkpt>
      <trkpt lat="45.500350" lon="6.838432">
        <ele>2145.262</ele>
        <time>2018-07-16T16:18:23Z</time>
      </trkpt>
      <trkpt lat="45.500298" lon="6.838409">
        <ele>2145.714</ele>
        <time>2018-07-16T16:18:28Z</time>
      </trkpt>
      <trkpt lat="45.500245" lon="6.838384">
        <ele>2146.429</ele>
        <time>2018-07-16T16:18:33Z</time>
      </trkpt>
      <trkpt lat="45.500196" lon="6.838365">
        <ele>2146.443</ele>
        <time>2018-07-16T16:18:38Z</time>
      </trkpt>
      <trkpt lat="45.500146" lon="6.838352">
        <ele>2146.468</ele>
        <time>2018-07-16T16:18:43Z</time>
      </trkpt>
      <trkpt lat="45.500090" lon="6.838341">
        <ele>2146.487</ele>
        <time>2018-07-16T16:18:48Z</time>
      </trkpt>
      <trkpt lat="45.500038" lon="6.838328">
        <ele>2146.469</ele>
        <time>2018-07-16T16:18:53Z</time>
      </trkpt>
      <trkpt lat="45.499988" lon="6.838317">
        <ele>2146.421</ele>
        <time>2018-07-16T16:18:58Z</time>
      </trkpt>
      <trkpt lat="45.499936" lon="6.838306">
        <ele>2146.841</ele>
        <time>2018-07-16T16:19:03Z</time>
      </trkpt>
      <trkpt lat="45.499885" lon="6.838290">
        <ele>2147.005</ele>
        <time>2018-07-16T16:19:08Z</time>
      </trkpt>
      <trkpt lat="45.499834" lon="6.838279">
        <ele>2147.508</ele>
        <time>2018-07-16T16:19:13Z</time>
      </trkpt>
      <trkpt lat="45.499789" lon="6.838271">
        <ele>2147.894</ele>
        <time>2018-07-16T16:19:17Z</time>
      </trkpt>
      <trkpt lat="45.499744" lon="6.838266">
        <ele>2147.688</ele>
        <time>2018-07-16T16:19:21Z</time>
      </trkpt>
      <trkpt lat="45.499691" lon="6.838265">
        <ele>2147.520</ele>
        <time>2018-07-16T16:19:26Z</time>
      </trkpt>
      <trkpt lat="45.499637" lon="6.838271">
        <ele>2147.455</ele>
        <time>2018-07-16T16:19:31Z</time>
      </trkpt>
      <trkpt lat="45.499585" lon="6.838269">
        <ele>2147.459</ele>
        <time>2018-07-16T16:19:36Z</time>
      </trkpt>
      <trkpt lat="45.499537" lon="6.838277">
        <ele>2147.484</ele>
        <time>2018-07-16T16:19:41Z</time>
      </trkpt>
      <trkpt lat="45.499487" lon="6.838282">
        <ele>2147.473</ele>
        <time>2018-07-16T16:19:46Z</time>
      </trkpt>
      <trkpt lat="45.499437" lon="6.838281">
        <ele>2147.415</ele>
        <time>2018-07-16T16:19:51Z</time>
      </trkpt>
      <trkpt lat="45.499384" lon="6.838276">
        <ele>2147.071</ele>
        <time>2018-07-16T16:19:56Z</time>
      </trkpt>
      <trkpt lat="45.499328" lon="6.838273">
        <ele>2147.241</ele>
        <time>2018-07-16T16:20:01Z</time>
      </trkpt>
      <trkpt lat="45.499274" lon="6.838276">
        <ele>2147.315</ele>
        <time>2018-07-16T16:20:06Z</time>
      </trkpt>
      <trkpt lat="45.499229" lon="6.838287">
        <ele>2147.408</ele>
        <time>2018-07-16T16:20:11Z</time>
      </trkpt>
      <trkpt lat="45.499179" lon="6.838305">
        <ele>2147.499</ele>
        <time>2018-07-16T16:20:16Z</time>
      </trkpt>
      <trkpt lat="45.499127" lon="6.838319">
        <ele>2147.833</ele>
        <time>2018-07-16T16:20:21Z</time>
      </trkpt>
      <trkpt lat="45.499080" lon="6.838341">
        <ele>2147.725</ele>
        <time>2018-07-16T16:20:26Z</time>
      </trkpt>
      <trkpt lat="45.499034" lon="6.838368">
        <ele>2147.620</ele>
        <time>2018-07-16T16:20:31Z</time>
      </trkpt>
      <trkpt lat="45.498985" lon="6.838391">
        <ele>2147.554</ele>
        <time>2018-07-16T16:20:36Z</time>
      </trkpt>
      <trkpt lat="45.498936" lon="6.838420">
        <ele>2147.959</ele>
        <time>2018-07-16T16:20:41Z</time>
      </trkpt>
      <trkpt lat="45.498887" lon="6.838443">
        <ele>2148.138</ele>
        <time>2018-07-16T16:20:46Z</time>
      </trkpt>
      <trkpt lat="45.498840" lon="6.838472">
        <ele>2147.860</ele>
        <time>2018-07-16T16:20:51Z</time>
      </trkpt>
      <trkpt lat="45.498796" lon="6.838497">
        <ele>2147.274</ele>
        <time>2018-07-16T16:20:55Z</time>
      </trkpt>
      <trkpt lat="45.498751" lon="6.838515">
        <ele>2147.356</ele>
        <time>2018-07-16T16:20:59Z</time>
      </trkpt>
      <trkpt lat="45.498702" lon="6.838528">
        <ele>2147.321</ele>
        <time>2018-07-16T16:21:04Z</time>
      </trkpt>
      <trkpt lat="45.498652" lon="6.838541">
        <ele>2147.308</ele>
        <time>2018-07-16T16:21:09Z</time>
      </trkpt>
      <trkpt lat="45.498605" lon="6.838569">
        <ele>2147.399</ele>
        <time>2018-07-16T16:21:14Z</time>
      </trkpt>
      <trkpt lat="45.498559" lon="6.838611">
        <ele>2147.373</ele>
        <time>2018-07-16T16:21:19Z</time>
      </trkpt>
      <trkpt lat="45.498520" lon="6.838654">
        <ele>2146.935</ele>
        <time>2018-07-16T16:21:24Z</time>
      </trkpt>
      <trkpt lat="45.498476" lon="6.838682">
        <ele>2146.770</ele>
        <time>2018-07-16T16:21:29Z</time>
      </trkpt>
      <trkpt lat="45.498432" lon="6.838699">
        <ele>2146.274</ele>
        <time>2018-07-16T16:21:33Z</time>
      </trkpt>
      <trkpt lat="45.498386" lon="6.838719">
        <ele>2145.919</ele>
        <time>2018-07-16T16:21:37Z</time>
      </trkpt>
      <trkpt lat="45.498343" lon="6.838752">
        <ele>2145.788</ele>
        <time>2018-07-16T16:21:41Z</time>
      </trkpt>
      <trkpt lat="45.498308" lon="6.838793">
        <ele>2146.060</ele>
        <time>2018-07-16T16:21:45Z</time>
      </trkpt>
      <trkpt lat="45.498270" lon="6.838840">
        <ele>2145.848</ele>
        <time>2018-07-16T16:21:50Z</time>
      </trkpt>
      <trkpt lat="45.498232" lon="6.838881">
        <ele>2145.761</ele>
        <time>2018-07-16T16:21:55Z</time>
      </trkpt>
      <trkpt lat="45.498190" lon="6.838922">
        <ele>2145.217</ele>
        <time>2018-07-16T16:22:00Z</time>
      </trkpt>
      <trkpt lat="45.498140" lon="6.838950">
        <ele>2146.108</ele>
        <time>2018-07-16T16:22:05Z</time>
      </trkpt>
      <trkpt lat="45.498099" lon="6.838989">
        <ele>2146.296</ele>
        <time>2018-07-16T16:22:11Z</time>
      </trkpt>
      <trkpt lat="45.498066" lon="6.839047">
        <ele>2145.920</ele>
        <time>2018-07-16T16:22:17Z</time>
      </trkpt>
      <trkpt lat="45.498026" lon="6.839082">
        <ele>2145.782</ele>
        <time>2018-07-16T16:22:22Z</time>
      </trkpt>
      <trkpt lat="45.497984" lon="6.839116">
        <ele>2145.217</ele>
        <time>2018-07-16T16:22:28Z</time>
      </trkpt>
      <trkpt lat="45.497937" lon="6.839141">
        <ele>2144.911</ele>
        <time>2018-07-16T16:22:33Z</time>
      </trkpt>
      <trkpt lat="45.497890" lon="6.839147">
        <ele>2144.776</ele>
        <time>2018-07-16T16:22:38Z</time>
      </trkpt>
      <trkpt lat="45.497839" lon="6.839170">
        <ele>2144.655</ele>
        <time>2018-07-16T16:22:43Z</time>
      </trkpt>
      <trkpt lat="45.497796" lon="6.839189">
        <ele>2144.567</ele>
        <time>2018-07-16T16:22:47Z</time>
      </trkpt>
      <trkpt lat="45.497746" lon="6.839208">
        <ele>2144.526</ele>
        <time>2018-07-16T16:22:53Z</time>
      </trkpt>
      <trkpt lat="45.497708" lon="6.839246">
        <ele>2144.547</ele>
        <time>2018-07-16T16:22:58Z</time>
      </trkpt>
      <trkpt lat="45.497667" lon="6.839295">
        <ele>2144.511</ele>
        <time>2018-07-16T16:23:03Z</time>
      </trkpt>
      <trkpt lat="45.497626" lon="6.839340">
        <ele>2144.908</ele>
        <time>2018-07-16T16:23:08Z</time>
      </trkpt>
      <trkpt lat="45.497593" lon="6.839385">
        <ele>2145.184</ele>
        <time>2018-07-16T16:23:12Z</time>
      </trkpt>
      <trkpt lat="45.497552" lon="6.839433">
        <ele>2144.818</ele>
        <time>2018-07-16T16:23:17Z</time>
      </trkpt>
      <trkpt lat="45.497512" lon="6.839478">
        <ele>2144.680</ele>
        <time>2018-07-16T16:23:22Z</time>
      </trkpt>
      <trkpt lat="45.497476" lon="6.839534">
        <ele>2144.115</ele>
        <time>2018-07-16T16:23:27Z</time>
      </trkpt>
      <trkpt lat="45.497435" lon="6.839588">
        <ele>2143.859</ele>
        <time>2018-07-16T16:23:32Z</time>
      </trkpt>
      <trkpt lat="45.497389" lon="6.839625">
        <ele>2143.274</ele>
        <time>2018-07-16T16:23:37Z</time>
      </trkpt>
      <trkpt lat="45.497344" lon="6.839667">
        <ele>2143.353</ele>
        <time>2018-07-16T16:23:42Z</time>
      </trkpt>
      <trkpt lat="45.497299" lon="6.839700">
        <ele>2143.725</ele>
        <time>2018-07-16T16:23:47Z</time>
      </trkpt>
      <trkpt lat="45.497249" lon="6.839717">
        <ele>2144.489</ele>
        <time>2018-07-16T16:23:54Z</time>
      </trkpt>
      <trkpt lat="45.497202" lon="6.839739">
        <ele>2144.806</ele>
        <time>2018-07-16T16:24:01Z</time>
      </trkpt>
      <trkpt lat="45.497163" lon="6.839776">
        <ele>2145.026</ele>
        <time>2018-07-16T16:24:08Z</time>
      </trkpt>
      <trkpt lat="45.497122" lon="6.839803">
        <ele>2145.508</ele>
        <time>2018-07-16T16:24:14Z</time>
      </trkpt>
      <trkpt lat="45.497078" lon="6.839837">
        <ele>2145.810</ele>
        <time>2018-07-16T16:24:21Z</time>
      </trkpt>
      <trkpt lat="45.497034" lon="6.839875">
        <ele>2146.074</ele>
        <time>2018-07-16T16:24:29Z</time>
      </trkpt>
      <trkpt lat="45.496988" lon="6.839905">
        <ele>2146.136</ele>
        <time>2018-07-16T16:24:37Z</time>
      </trkpt>
      <trkpt lat="45.496942" lon="6.839928">
        <ele>2146.631</ele>
        <time>2018-07-16T16:24:44Z</time>
      </trkpt>
      <trkpt lat="45.496896" lon="6.839936">
        <ele>2146.945</ele>
        <time>2018-07-16T16:24:54Z</time>
      </trkpt>
      <trkpt lat="45.496866" lon="6.839986">
        <ele>2147.960</ele>
        <time>2018-07-16T16:25:02Z</time>
      </trkpt>
      <trkpt lat="45.496825" lon="6.840017">
        <ele>2148.959</ele>
        <time>2018-07-16T16:25:09Z</time>
      </trkpt>
      <trkpt lat="45.496783" lon="6.840044">
        <ele>2149.991</ele>
        <time>2018-07-16T16:25:17Z</time>
      </trkpt>
      <trkpt lat="45.496736" lon="6.840061">
        <ele>2150.562</ele>
        <time>2018-07-16T16:25:24Z</time>
      </trkpt>
      <trkpt lat="45.496685" lon="6.840083">
        <ele>2151.383</ele>
        <time>2018-07-16T16:25:30Z</time>
      </trkpt>
      <trkpt lat="45.496638" lon="6.840102">
        <ele>2151.811</ele>
        <time>2018-07-16T16:25:37Z</time>
      </trkpt>
      <trkpt lat="45.496589" lon="6.840120">
        <ele>2152.508</ele>
        <time>2018-07-16T16:25:44Z</time>
      </trkpt>
      <trkpt lat="45.496539" lon="6.840128">
        <ele>2153.398</ele>
        <time>2018-07-16T16:25:51Z</time>
      </trkpt>
      <trkpt lat="45.496486" lon="6.840140">
        <ele>2154.242</ele>
        <time>2018-07-16T16:25:58Z</time>
      </trkpt>
      <trkpt lat="45.496440" lon="6.840155">
        <ele>2154.794</ele>
        <time>2018-07-16T16:26:04Z</time>
      </trkpt>
      <trkpt lat="45.496399" lon="6.840198">
        <ele>2155.869</ele>
        <time>2018-07-16T16:26:29Z</time>
      </trkpt>
      <trkpt lat="45.496361" lon="6.840243">
        <ele>2155.763</ele>
        <time>2018-07-16T16:26:36Z</time>
      </trkpt>
      <trkpt lat="45.496306" lon="6.840247">
        <ele>2155.268</ele>
        <time>2018-07-16T16:26:42Z</time>
      </trkpt>
      <trkpt lat="45.496251" lon="6.840243">
        <ele>2155.367</ele>
        <time>2018-07-16T16:26:47Z</time>
      </trkpt>
      <trkpt lat="45.496201" lon="6.840254">
        <ele>2155.829</ele>
        <time>2018-07-16T16:26:52Z</time>
      </trkpt>
      <trkpt lat="45.496154" lon="6.840283">
        <ele>2155.768</ele>
        <time>2018-07-16T16:26:57Z</time>
      </trkpt>
      <trkpt lat="45.496116" lon="6.840321">
        <ele>2155.242</ele>
        <time>2018-07-16T16:27:02Z</time>
      </trkpt>
      <trkpt lat="45.496074" lon="6.840361">
        <ele>2154.926</ele>
        <time>2018-07-16T16:27:07Z</time>
      </trkpt>
      <trkpt lat="45.496024" lon="6.840393">
        <ele>2155.108</ele>
        <time>2018-07-16T16:27:12Z</time>
      </trkpt>
      <trkpt lat="45.495985" lon="6.840428">
        <ele>2155.258</ele>
        <time>2018-07-16T16:27:16Z</time>
      </trkpt>
      <trkpt lat="45.495938" lon="6.840470">
        <ele>2155.772</ele>
        <time>2018-07-16T16:27:21Z</time>
      </trkpt>
      <trkpt lat="45.495890" lon="6.840494">
        <ele>2156.014</ele>
        <time>2018-07-16T16:27:26Z</time>
      </trkpt>
      <trkpt lat="45.495847" lon="6.840515">
        <ele>2156.239</ele>
        <time>2018-07-16T16:27:31Z</time>
      </trkpt>
      <trkpt lat="45.495800" lon="6.840529">
        <ele>2155.933</ele>
        <time>2018-07-16T16:27:36Z</time>
      </trkpt>
      <trkpt lat="45.495747" lon="6.840530">
        <ele>2155.388</ele>
        <time>2018-07-16T16:27:41Z</time>
      </trkpt>
      <trkpt lat="45.495698" lon="6.840543">
        <ele>2155.087</ele>
        <time>2018-07-16T16:27:46Z</time>
      </trkpt>
      <trkpt lat="45.495644" lon="6.840567">
        <ele>2154.839</ele>
        <time>2018-07-16T16:27:51Z</time>
      </trkpt>
      <trkpt lat="45.495602" lon="6.840590">
        <ele>2155.142</ele>
        <time>2018-07-16T16:27:55Z</time>
      </trkpt>
      <trkpt lat="45.495560" lon="6.840615">
        <ele>2155.722</ele>
        <time>2018-07-16T16:27:59Z</time>
      </trkpt>
      <trkpt lat="45.495516" lon="6.840661">
        <ele>2156.014</ele>
        <time>2018-07-16T16:28:04Z</time>
      </trkpt>
      <trkpt lat="45.495473" lon="6.840704">
        <ele>2157.008</ele>
        <time>2018-07-16T16:28:09Z</time>
      </trkpt>
      <trkpt lat="45.495424" lon="6.840729">
        <ele>2157.646</ele>
        <time>2018-07-16T16:28:14Z</time>
      </trkpt>
      <trkpt lat="45.495382" lon="6.840758">
        <ele>2157.660</ele>
        <time>2018-07-16T16:28:19Z</time>
      </trkpt>
      <trkpt lat="45.495333" lon="6.840779">
        <ele>2157.672</ele>
        <time>2018-07-16T16:28:24Z</time>
      </trkpt>
      <trkpt lat="45.495284" lon="6.840807">
        <ele>2157.617</ele>
        <time>2018-07-16T16:28:29Z</time>
      </trkpt>
      <trkpt lat="45.495239" lon="6.840827">
        <ele>2157.661</ele>
        <time>2018-07-16T16:28:34Z</time>
      </trkpt>
      <trkpt lat="45.495191" lon="6.840857">
        <ele>2157.696</ele>
        <time>2018-07-16T16:28:39Z</time>
      </trkpt>
      <trkpt lat="45.495143" lon="6.840891">
        <ele>2157.665</ele>
        <time>2018-07-16T16:28:44Z</time>
      </trkpt>
      <trkpt lat="45.495098" lon="6.840925">
        <ele>2158.057</ele>
        <time>2018-07-16T16:28:49Z</time>
      </trkpt>
      <trkpt lat="45.495052" lon="6.840952">
        <ele>2157.827</ele>
        <time>2018-07-16T16:28:54Z</time>
      </trkpt>
      <trkpt lat="45.495008" lon="6.840969">
        <ele>2158.168</ele>
        <time>2018-07-16T16:28:59Z</time>
      </trkpt>
      <trkpt lat="45.494968" lon="6.841001">
        <ele>2158.314</ele>
        <time>2018-07-16T16:29:04Z</time>
      </trkpt>
      <trkpt lat="45.494924" lon="6.841042">
        <ele>2158.808</ele>
        <time>2018-07-16T16:29:09Z</time>
      </trkpt>
      <trkpt lat="45.494872" lon="6.841076">
        <ele>2160.394</ele>
        <time>2018-07-16T16:29:19Z</time>
      </trkpt>
      <trkpt lat="45.494821" lon="6.841096">
        <ele>2160.058</ele>
        <time>2018-07-16T16:29:40Z</time>
      </trkpt>
      <trkpt lat="45.494776" lon="6.841135">
        <ele>2160.270</ele>
        <time>2018-07-16T16:29:46Z</time>
      </trkpt>
      <trkpt lat="45.494725" lon="6.841164">
        <ele>2160.795</ele>
        <time>2018-07-16T16:29:52Z</time>
      </trkpt>
      <trkpt lat="45.494678" lon="6.841182">
        <ele>2161.089</ele>
        <time>2018-07-16T16:29:58Z</time>
      </trkpt>
      <trkpt lat="45.494629" lon="6.841185">
        <ele>2161.294</ele>
        <time>2018-07-16T16:30:04Z</time>
      </trkpt>
      <trkpt lat="45.494583" lon="6.841173">
        <ele>2161.363</ele>
        <time>2018-07-16T16:30:09Z</time>
      </trkpt>
      <trkpt lat="45.494532" lon="6.841160">
        <ele>2161.465</ele>
        <time>2018-07-16T16:30:15Z</time>
      </trkpt>
      <trkpt lat="45.494486" lon="6.841158">
        <ele>2161.418</ele>
        <time>2018-07-16T16:30:21Z</time>
      </trkpt>
      <trkpt lat="45.494441" lon="6.841185">
        <ele>2161.498</ele>
        <time>2018-07-16T16:30:28Z</time>
      </trkpt>
      <trkpt lat="45.494396" lon="6.841204">
        <ele>2162.617</ele>
        <time>2018-07-16T16:30:39Z</time>
      </trkpt>
      <trkpt lat="45.494353" lon="6.841240">
        <ele>2163.308</ele>
        <time>2018-07-16T16:31:24Z</time>
      </trkpt>
      <trkpt lat="45.494301" lon="6.841255">
        <ele>2163.713</ele>
        <time>2018-07-16T16:31:32Z</time>
      </trkpt>
      <trkpt lat="45.494256" lon="6.841260">
        <ele>2163.277</ele>
        <time>2018-07-16T16:31:41Z</time>
      </trkpt>
      <trkpt lat="45.494210" lon="6.841261">
        <ele>2162.939</ele>
        <time>2018-07-16T16:31:46Z</time>
      </trkpt>
      <trkpt lat="45.494159" lon="6.841266">
        <ele>2162.754</ele>
        <time>2018-07-16T16:31:52Z</time>
      </trkpt>
      <trkpt lat="45.494110" lon="6.841254">
        <ele>2163.418</ele>
        <time>2018-07-16T16:31:58Z</time>
      </trkpt>
      <trkpt lat="45.494064" lon="6.841254">
        <ele>2163.453</ele>
        <time>2018-07-16T16:32:04Z</time>
      </trkpt>
      <trkpt lat="45.494017" lon="6.841254">
        <ele>2163.482</ele>
        <time>2018-07-16T16:32:09Z</time>
      </trkpt>
      <trkpt lat="45.493969" lon="6.841270">
        <ele>2163.884</ele>
        <time>2018-07-16T16:32:15Z</time>
      </trkpt>
      <trkpt lat="45.493917" lon="6.841283">
        <ele>2164.888</ele>
        <time>2018-07-16T16:32:22Z</time>
      </trkpt>
      <trkpt lat="45.493873" lon="6.841318">
        <ele>2165.424</ele>
        <time>2018-07-16T16:32:28Z</time>
      </trkpt>
      <trkpt lat="45.493826" lon="6.841341">
        <ele>2165.426</ele>
        <time>2018-07-16T16:32:34Z</time>
      </trkpt>
      <trkpt lat="45.493775" lon="6.841346">
        <ele>2165.008</ele>
        <time>2018-07-16T16:32:40Z</time>
      </trkpt>
      <trkpt lat="45.493723" lon="6.841346">
        <ele>2164.830</ele>
        <time>2018-07-16T16:32:45Z</time>
      </trkpt>
      <trkpt lat="45.493675" lon="6.841360">
        <ele>2164.724</ele>
        <time>2018-07-16T16:32:50Z</time>
      </trkpt>
      <trkpt lat="45.493632" lon="6.841391">
        <ele>2165.066</ele>
        <time>2018-07-16T16:32:55Z</time>
      </trkpt>
      <trkpt lat="45.493583" lon="6.841396">
        <ele>2165.291</ele>
        <time>2018-07-16T16:33:01Z</time>
      </trkpt>
      <trkpt lat="45.493535" lon="6.841395">
        <ele>2165.315</ele>
        <time>2018-07-16T16:33:06Z</time>
      </trkpt>
      <trkpt lat="45.493484" lon="6.841406">
        <ele>2165.040</ele>
        <time>2018-07-16T16:33:11Z</time>
      </trkpt>
      <trkpt lat="45.493439" lon="6.841425">
        <ele>2164.869</ele>
        <time>2018-07-16T16:33:16Z</time>
      </trkpt>
      <trkpt lat="45.493395" lon="6.841441">
        <ele>2164.381</ele>
        <time>2018-07-16T16:33:21Z</time>
      </trkpt>
      <trkpt lat="45.493344" lon="6.841453">
        <ele>2164.064</ele>
        <time>2018-07-16T16:33:26Z</time>
      </trkpt>
      <trkpt lat="45.493299" lon="6.841460">
        <ele>2164.606</ele>
        <time>2018-07-16T16:33:30Z</time>
      </trkpt>
      <trkpt lat="45.493248" lon="6.841466">
        <ele>2165.416</ele>
        <time>2018-07-16T16:33:35Z</time>
      </trkpt>
      <trkpt lat="45.493194" lon="6.841483">
        <ele>2166.308</ele>
        <time>2018-07-16T16:33:41Z</time>
      </trkpt>
      <trkpt lat="45.493145" lon="6.841498">
        <ele>2166.838</ele>
        <time>2018-07-16T16:33:47Z</time>
      </trkpt>
      <trkpt lat="45.493097" lon="6.841510">
        <ele>2167.582</ele>
        <time>2018-07-16T16:33:54Z</time>
      </trkpt>
      <trkpt lat="45.493051" lon="6.841537">
        <ele>2167.974</ele>
        <time>2018-07-16T16:34:04Z</time>
      </trkpt>
      <trkpt lat="45.493006" lon="6.841509">
        <ele>2168.219</ele>
        <time>2018-07-16T16:34:15Z</time>
      </trkpt>
      <trkpt lat="45.492981" lon="6.841444">
        <ele>2169.233</ele>
        <time>2018-07-16T16:34:23Z</time>
      </trkpt>
      <trkpt lat="45.492954" lon="6.841389">
        <ele>2170.638</ele>
        <time>2018-07-16T16:34:32Z</time>
      </trkpt>
      <trkpt lat="45.492925" lon="6.841340">
        <ele>2172.217</ele>
        <time>2018-07-16T16:34:43Z</time>
      </trkpt>
      <trkpt lat="45.492914" lon="6.841276">
        <ele>2172.869</ele>
        <time>2018-07-16T16:34:54Z</time>
      </trkpt>
      <trkpt lat="45.492890" lon="6.841220">
        <ele>2173.929</ele>
        <time>2018-07-16T16:35:12Z</time>
      </trkpt>
      <trkpt lat="45.492848" lon="6.841250">
        <ele>2174.600</ele>
        <time>2018-07-16T16:35:30Z</time>
      </trkpt>
      <trkpt lat="45.492819" lon="6.841301">
        <ele>2176.220</ele>
        <time>2018-07-16T16:35:44Z</time>
      </trkpt>
      <trkpt lat="45.492784" lon="6.841349">
        <ele>2177.608</ele>
        <time>2018-07-16T16:35:56Z</time>
      </trkpt>
      <trkpt lat="45.492775" lon="6.841418">
        <ele>2178.494</ele>
        <time>2018-07-16T16:36:08Z</time>
      </trkpt>
      <trkpt lat="45.492761" lon="6.841480">
        <ele>2178.978</ele>
        <time>2018-07-16T16:36:16Z</time>
      </trkpt>
      <trkpt lat="45.492761" lon="6.841547">
        <ele>2179.640</ele>
        <time>2018-07-16T16:36:25Z</time>
      </trkpt>
      <trkpt lat="45.492763" lon="6.841612">
        <ele>2180.475</ele>
        <time>2018-07-16T16:36:37Z</time>
      </trkpt>
      <trkpt lat="45.492741" lon="6.841669">
        <ele>2181.759</ele>
        <time>2018-07-16T16:36:50Z</time>
      </trkpt>
      <trkpt lat="45.492742" lon="6.841734">
        <ele>2183.334</ele>
        <time>2018-07-16T16:37:02Z</time>
      </trkpt>
      <trkpt lat="45.492751" lon="6.841801">
        <ele>2184.233</ele>
        <time>2018-07-16T16:37:16Z</time>
      </trkpt>
      <trkpt lat="45.492777" lon="6.841859">
        <ele>2184.815</ele>
        <time>2018-07-16T16:37:23Z</time>
      </trkpt>
      <trkpt lat="45.492777" lon="6.841925">
        <ele>2185.162</ele>
        <time>2018-07-16T16:37:29Z</time>
      </trkpt>
      <trkpt lat="45.492762" lon="6.841987">
        <ele>2185.783</ele>
        <time>2018-07-16T16:37:36Z</time>
      </trkpt>
      <trkpt lat="45.492749" lon="6.842049">
        <ele>2186.111</ele>
        <time>2018-07-16T16:37:42Z</time>
      </trkpt>
      <trkpt lat="45.492727" lon="6.842118">
        <ele>2185.908</ele>
        <time>2018-07-16T16:37:48Z</time>
      </trkpt>
      <trkpt lat="45.492705" lon="6.842174">
        <ele>2185.858</ele>
        <time>2018-07-16T16:37:53Z</time>
      </trkpt>
      <trkpt lat="45.492684" lon="6.842238">
        <ele>2185.772</ele>
        <time>2018-07-16T16:37:59Z</time>
      </trkpt>
      <trkpt lat="45.492650" lon="6.842287">
        <ele>2185.714</ele>
        <time>2018-07-16T16:38:05Z</time>
      </trkpt>
      <trkpt lat="45.492612" lon="6.842336">
        <ele>2186.129</ele>
        <time>2018-07-16T16:38:11Z</time>
      </trkpt>
      <trkpt lat="45.492583" lon="6.842393">
        <ele>2186.723</ele>
        <time>2018-07-16T16:38:19Z</time>
      </trkpt>
      <trkpt lat="45.492548" lon="6.842438">
        <ele>2187.518</ele>
        <time>2018-07-16T16:38:30Z</time>
      </trkpt>
      <trkpt lat="45.492506" lon="6.842461">
        <ele>2189.637</ele>
        <time>2018-07-16T16:38:45Z</time>
      </trkpt>
      <trkpt lat="45.492458" lon="6.842460">
        <ele>2190.889</ele>
        <time>2018-07-16T16:38:53Z</time>
      </trkpt>
      <trkpt lat="45.492413" lon="6.842486">
        <ele>2191.516</ele>
        <time>2018-07-16T16:39:02Z</time>
      </trkpt>
      <trkpt lat="45.492385" lon="6.842548">
        <ele>2191.976</ele>
        <time>2018-07-16T16:39:09Z</time>
      </trkpt>
      <trkpt lat="45.492358" lon="6.842609">
        <ele>2192.213</ele>
        <time>2018-07-16T16:39:15Z</time>
      </trkpt>
      <trkpt lat="45.492341" lon="6.842669">
        <ele>2192.008</ele>
        <time>2018-07-16T16:39:21Z</time>
      </trkpt>
      <trkpt lat="45.492310" lon="6.842721">
        <ele>2192.363</ele>
        <time>2018-07-16T16:39:27Z</time>
      </trkpt>
      <trkpt lat="45.492285" lon="6.842778">
        <ele>2192.527</ele>
        <time>2018-07-16T16:39:32Z</time>
      </trkpt>
      <trkpt lat="45.492256" lon="6.842834">
        <ele>2192.219</ele>
        <time>2018-07-16T16:39:37Z</time>
      </trkpt>
      <trkpt lat="45.492231" lon="6.842891">
        <ele>2192.454</ele>
        <time>2018-07-16T16:39:42Z</time>
      </trkpt>
      <trkpt lat="45.492204" lon="6.842944">
        <ele>2192.568</ele>
        <time>2018-07-16T16:39:47Z</time>
      </trkpt>
      <trkpt lat="45.492176" lon="6.842999">
        <ele>2192.623</ele>
        <time>2018-07-16T16:39:52Z</time>
      </trkpt>
      <trkpt lat="45.492139" lon="6.843039">
        <ele>2192.222</ele>
        <time>2018-07-16T16:40:04Z</time>
      </trkpt>
      <trkpt lat="45.492109" lon="6.843087">
        <ele>2193.264</ele>
        <time>2018-07-16T16:40:11Z</time>
      </trkpt>
      <trkpt lat="45.492083" lon="6.843143">
        <ele>2193.843</ele>
        <time>2018-07-16T16:40:20Z</time>
      </trkpt>
      <trkpt lat="45.492048" lon="6.843188">
        <ele>2195.064</ele>
        <time>2018-07-16T16:40:31Z</time>
      </trkpt>
      <trkpt lat="45.492004" lon="6.843214">
        <ele>2196.510</ele>
        <time>2018-07-16T16:40:39Z</time>
      </trkpt>
      <trkpt lat="45.491954" lon="6.843215">
        <ele>2197.008</ele>
        <time>2018-07-16T16:40:45Z</time>
      </trkpt>
      <trkpt lat="45.491902" lon="6.843236">
        <ele>2197.376</ele>
        <time>2018-07-16T16:40:53Z</time>
      </trkpt>
      <trkpt lat="45.491867" lon="6.843290">
        <ele>2198.370</ele>
        <time>2018-07-16T16:41:02Z</time>
      </trkpt>
      <trkpt lat="45.491821" lon="6.843314">
        <ele>2199.312</ele>
        <time>2018-07-16T16:41:11Z</time>
      </trkpt>
      <trkpt lat="45.491773" lon="6.843339">
        <ele>2200.377</ele>
        <time>2018-07-16T16:41:19Z</time>
      </trkpt>
      <trkpt lat="45.491729" lon="6.843370">
        <ele>2200.971</ele>
        <time>2018-07-16T16:41:27Z</time>
      </trkpt>
      <trkpt lat="45.491688" lon="6.843403">
        <ele>2201.746</ele>
        <time>2018-07-16T16:41:34Z</time>
      </trkpt>
      <trkpt lat="45.491642" lon="6.843400">
        <ele>2201.865</ele>
        <time>2018-07-16T16:41:42Z</time>
      </trkpt>
      <trkpt lat="45.491600" lon="6.843433">
        <ele>2201.447</ele>
        <time>2018-07-16T16:41:49Z</time>
      </trkpt>
      <trkpt lat="45.491553" lon="6.843454">
        <ele>2201.283</ele>
        <time>2018-07-16T16:41:57Z</time>
      </trkpt>
      <trkpt lat="45.491507" lon="6.843471">
        <ele>2201.125</ele>
        <time>2018-07-16T16:42:04Z</time>
      </trkpt>
      <trkpt lat="45.491460" lon="6.843502">
        <ele>2201.817</ele>
        <time>2018-07-16T16:42:11Z</time>
      </trkpt>
      <trkpt lat="45.491411" lon="6.843526">
        <ele>2202.608</ele>
        <time>2018-07-16T16:42:19Z</time>
      </trkpt>
      <trkpt lat="45.491363" lon="6.843549">
        <ele>2203.590</ele>
        <time>2018-07-16T16:42:26Z</time>
      </trkpt>
      <trkpt lat="45.491328" lon="6.843593">
        <ele>2204.074</ele>
        <time>2018-07-16T16:42:36Z</time>
      </trkpt>
      <trkpt lat="45.491316" lon="6.843656">
        <ele>2204.796</ele>
        <time>2018-07-16T16:42:50Z</time>
      </trkpt>
      <trkpt lat="45.491285" lon="6.843709">
        <ele>2205.521</ele>
        <time>2018-07-16T16:43:22Z</time>
      </trkpt>
      <trkpt lat="45.491240" lon="6.843695">
        <ele>2205.685</ele>
        <time>2018-07-16T16:43:40Z</time>
      </trkpt>
      <trkpt lat="45.491199" lon="6.843667">
        <ele>2205.770</ele>
        <time>2018-07-16T16:43:47Z</time>
      </trkpt>
      <trkpt lat="45.491152" lon="6.843644">
        <ele>2205.719</ele>
        <time>2018-07-16T16:43:55Z</time>
      </trkpt>
      <trkpt lat="45.491107" lon="6.843658">
        <ele>2205.791</ele>
        <time>2018-07-16T16:44:00Z</time>
      </trkpt>
      <trkpt lat="45.491057" lon="6.843663">
        <ele>2206.111</ele>
        <time>2018-07-16T16:44:06Z</time>
      </trkpt>
      <trkpt lat="45.491007" lon="6.843681">
        <ele>2205.921</ele>
        <time>2018-07-16T16:44:13Z</time>
      </trkpt>
      <trkpt lat="45.490964" lon="6.843706">
        <ele>2205.803</ele>
        <time>2018-07-16T16:44:29Z</time>
      </trkpt>
      <trkpt lat="45.490915" lon="6.843700">
        <ele>2206.108</ele>
        <time>2018-07-16T16:44:42Z</time>
      </trkpt>
      <trkpt lat="45.490871" lon="6.843675">
        <ele>2206.383</ele>
        <time>2018-07-16T16:44:51Z</time>
      </trkpt>
      <trkpt lat="45.490826" lon="6.843671">
        <ele>2206.897</ele>
        <time>2018-07-16T16:44:59Z</time>
      </trkpt>
      <trkpt lat="45.490777" lon="6.843670">
        <ele>2207.169</ele>
        <time>2018-07-16T16:45:08Z</time>
      </trkpt>
      <trkpt lat="45.490730" lon="6.843647">
        <ele>2206.934</ele>
        <time>2018-07-16T16:45:14Z</time>
      </trkpt>
      <trkpt lat="45.490683" lon="6.843637">
        <ele>2207.248</ele>
        <time>2018-07-16T16:45:21Z</time>
      </trkpt>
      <trkpt lat="45.490633" lon="6.843633">
        <ele>2208.283</ele>
        <time>2018-07-16T16:45:29Z</time>
      </trkpt>
      <trkpt lat="45.490587" lon="6.843612">
        <ele>2209.282</ele>
        <time>2018-07-16T16:45:35Z</time>
      </trkpt>
      <trkpt lat="45.490543" lon="6.843600">
        <ele>2210.274</ele>
        <time>2018-07-16T16:45:40Z</time>
      </trkpt>
      <trkpt lat="45.490493" lon="6.843604">
        <ele>2210.838</ele>
        <time>2018-07-16T16:45:46Z</time>
      </trkpt>
      <trkpt lat="45.490445" lon="6.843587">
        <ele>2211.670</ele>
        <time>2018-07-16T16:45:52Z</time>
      </trkpt>
      <trkpt lat="45.490405" lon="6.843549">
        <ele>2212.117</ele>
        <time>2018-07-16T16:45:58Z</time>
      </trkpt>
      <trkpt lat="45.490367" lon="6.843512">
        <ele>2212.408</ele>
        <time>2018-07-16T16:46:03Z</time>
      </trkpt>
      <trkpt lat="45.490357" lon="6.843448">
        <ele>2213.475</ele>
        <time>2018-07-16T16:46:27Z</time>
      </trkpt>
      <trkpt lat="45.490320" lon="6.843402">
        <ele>2214.079</ele>
        <time>2018-07-16T16:46:36Z</time>
      </trkpt>
      <trkpt lat="45.490283" lon="6.843359">
        <ele>2214.351</ele>
        <time>2018-07-16T16:46:41Z</time>
      </trkpt>
      <trkpt lat="45.490250" lon="6.843304">
        <ele>2214.596</ele>
        <time>2018-07-16T16:46:49Z</time>
      </trkpt>
      <trkpt lat="45.490231" lon="6.843239">
        <ele>2214.630</ele>
        <time>2018-07-16T16:46:54Z</time>
      </trkpt>
      <trkpt lat="45.490208" lon="6.843180">
        <ele>2214.715</ele>
        <time>2018-07-16T16:46:59Z</time>
      </trkpt>
      <trkpt lat="45.490174" lon="6.843129">
        <ele>2215.514</ele>
        <time>2018-07-16T16:47:07Z</time>
      </trkpt>
      <trkpt lat="45.490146" lon="6.843079">
        <ele>2216.096</ele>
        <time>2018-07-16T16:47:15Z</time>
      </trkpt>
      <trkpt lat="45.490108" lon="6.843036">
        <ele>2216.758</ele>
        <time>2018-07-16T16:47:23Z</time>
      </trkpt>
      <trkpt lat="45.490066" lon="6.842996">
        <ele>2217.152</ele>
        <time>2018-07-16T16:47:31Z</time>
      </trkpt>
      <trkpt lat="45.490031" lon="6.842949">
        <ele>2218.217</ele>
        <time>2018-07-16T16:47:39Z</time>
      </trkpt>
      <trkpt lat="45.490007" lon="6.842890">
        <ele>2219.208</ele>
        <time>2018-07-16T16:47:49Z</time>
      </trkpt>
      <trkpt lat="45.489973" lon="6.842846">
        <ele>2219.817</ele>
        <time>2018-07-16T16:47:56Z</time>
      </trkpt>
      <trkpt lat="45.489943" lon="6.842794">
        <ele>2221.041</ele>
        <time>2018-07-16T16:48:26Z</time>
      </trkpt>
      <trkpt lat="45.489934" lon="6.842725">
        <ele>2222.583</ele>
        <time>2018-07-16T16:48:35Z</time>
      </trkpt>
      <trkpt lat="45.489901" lon="6.842679">
        <ele>2223.448</ele>
        <time>2018-07-16T16:48:44Z</time>
      </trkpt>
      <trkpt lat="45.489853" lon="6.842666">
        <ele>2223.952</ele>
        <time>2018-07-16T16:48:51Z</time>
      </trkpt>
      <trkpt lat="45.489805" lon="6.842675">
        <ele>2224.287</ele>
        <time>2018-07-16T16:48:58Z</time>
      </trkpt>
      <trkpt lat="45.489759" lon="6.842693">
        <ele>2224.816</ele>
        <time>2018-07-16T16:49:06Z</time>
      </trkpt>
      <trkpt lat="45.489781" lon="6.842629">
        <ele>2224.828</ele>
        <time>2018-07-16T16:50:28Z</time>
      </trkpt>
      <trkpt lat="45.489746" lon="6.842579">
        <ele>2224.078</ele>
        <time>2018-07-16T16:51:14Z</time>
      </trkpt>
      <trkpt lat="45.489704" lon="6.842541">
        <ele>2223.933</ele>
        <time>2018-07-16T16:51:26Z</time>
      </trkpt>
      <trkpt lat="45.489663" lon="6.842514">
        <ele>2223.426</ele>
        <time>2018-07-16T16:51:33Z</time>
      </trkpt>
      <trkpt lat="45.489623" lon="6.842481">
        <ele>2223.508</ele>
        <time>2018-07-16T16:51:47Z</time>
      </trkpt>
      <trkpt lat="45.489569" lon="6.842461">
        <ele>2223.269</ele>
        <time>2018-07-16T16:51:55Z</time>
      </trkpt>
      <trkpt lat="45.489529" lon="6.842428">
        <ele>2223.463</ele>
        <time>2018-07-16T16:52:01Z</time>
      </trkpt>
      <trkpt lat="45.489489" lon="6.842391">
        <ele>2223.555</ele>
        <time>2018-07-16T16:52:09Z</time>
      </trkpt>
      <trkpt lat="45.489450" lon="6.842358">
        <ele>2224.410</ele>
        <time>2018-07-16T16:52:19Z</time>
      </trkpt>
      <trkpt lat="45.489401" lon="6.842352">
        <ele>2225.334</ele>
        <time>2018-07-16T16:52:33Z</time>
      </trkpt>
      <trkpt lat="45.489356" lon="6.842344">
        <ele>2226.359</ele>
        <time>2018-07-16T16:52:44Z</time>
      </trkpt>
      <trkpt lat="45.489306" lon="6.842330">
        <ele>2227.368</ele>
        <time>2018-07-16T16:52:52Z</time>
      </trkpt>
      <trkpt lat="45.489261" lon="6.842362">
        <ele>2228.330</ele>
        <time>2018-07-16T16:53:01Z</time>
      </trkpt>
      <trkpt lat="45.489254" lon="6.842430">
        <ele>2229.337</ele>
        <time>2018-07-16T16:53:18Z</time>
      </trkpt>
      <trkpt lat="45.489215" lon="6.842471">
        <ele>2230.349</ele>
        <time>2018-07-16T16:53:31Z</time>
      </trkpt>
      <trkpt lat="45.489170" lon="6.842497">
        <ele>2231.313</ele>
        <time>2018-07-16T16:53:38Z</time>
      </trkpt>
      <trkpt lat="45.489122" lon="6.842502">
        <ele>2231.508</ele>
        <time>2018-07-16T16:53:44Z</time>
      </trkpt>
      <trkpt lat="45.489081" lon="6.842541">
        <ele>2231.655</ele>
        <time>2018-07-16T16:53:49Z</time>
      </trkpt>
      <trkpt lat="45.489033" lon="6.842544">
        <ele>2231.779</ele>
        <time>2018-07-16T16:53:55Z</time>
      </trkpt>
      <trkpt lat="45.488983" lon="6.842555">
        <ele>2231.311</ele>
        <time>2018-07-16T16:54:02Z</time>
      </trkpt>
      <trkpt lat="45.488938" lon="6.842581">
        <ele>2230.336</ele>
        <time>2018-07-16T16:54:09Z</time>
      </trkpt>
      <trkpt lat="45.488893" lon="6.842606">
        <ele>2229.720</ele>
        <time>2018-07-16T16:54:15Z</time>
      </trkpt>
      <trkpt lat="45.488849" lon="6.842633">
        <ele>2229.395</ele>
        <time>2018-07-16T16:54:21Z</time>
      </trkpt>
      <trkpt lat="45.488803" lon="6.842662">
        <ele>2228.744</ele>
        <time>2018-07-16T16:54:27Z</time>
      </trkpt>
      <trkpt lat="45.488758" lon="6.842680">
        <ele>2228.326</ele>
        <time>2018-07-16T16:54:33Z</time>
      </trkpt>
      <trkpt lat="45.488706" lon="6.842678">
        <ele>2227.712</ele>
        <time>2018-07-16T16:54:39Z</time>
      </trkpt>
      <trkpt lat="45.488653" lon="6.842684">
        <ele>2227.332</ele>
        <time>2018-07-16T16:54:44Z</time>
      </trkpt>
      <trkpt lat="45.488602" lon="6.842664">
        <ele>2227.105</ele>
        <time>2018-07-16T16:54:49Z</time>
      </trkpt>
      <trkpt lat="45.488553" lon="6.842635">
        <ele>2227.408</ele>
        <time>2018-07-16T16:54:54Z</time>
      </trkpt>
      <trkpt lat="45.488507" lon="6.842597">
        <ele>2227.273</ele>
        <time>2018-07-16T16:55:00Z</time>
      </trkpt>
      <trkpt lat="45.488461" lon="6.842601">
        <ele>2227.137</ele>
        <time>2018-07-16T16:55:05Z</time>
      </trkpt>
      <trkpt lat="45.488408" lon="6.842590">
        <ele>2226.659</ele>
        <time>2018-07-16T16:55:10Z</time>
      </trkpt>
      <trkpt lat="45.488364" lon="6.842572">
        <ele>2226.394</ele>
        <time>2018-07-16T16:55:14Z</time>
      </trkpt>
      <trkpt lat="45.488320" lon="6.842555">
        <ele>2226.198</ele>
        <time>2018-07-16T16:55:18Z</time>
      </trkpt>
      <trkpt lat="45.488276" lon="6.842544">
        <ele>2225.623</ele>
        <time>2018-07-16T16:55:22Z</time>
      </trkpt>
      <trkpt lat="45.488231" lon="6.842531">
        <ele>2225.332</ele>
        <time>2018-07-16T16:55:26Z</time>
      </trkpt>
      <trkpt lat="45.488187" lon="6.842504">
        <ele>2225.154</ele>
        <time>2018-07-16T16:55:30Z</time>
      </trkpt>
      <trkpt lat="45.488140" lon="6.842464">
        <ele>2225.086</ele>
        <time>2018-07-16T16:55:35Z</time>
      </trkpt>
      <trkpt lat="45.488102" lon="6.842422">
        <ele>2225.360</ele>
        <time>2018-07-16T16:55:40Z</time>
      </trkpt>
      <trkpt lat="45.488060" lon="6.842384">
        <ele>2225.526</ele>
        <time>2018-07-16T16:55:45Z</time>
      </trkpt>
      <trkpt lat="45.488013" lon="6.842364">
        <ele>2225.608</ele>
        <time>2018-07-16T16:55:50Z</time>
      </trkpt>
      <trkpt lat="45.487962" lon="6.842376">
        <ele>2226.130</ele>
        <time>2018-07-16T16:55:55Z</time>
      </trkpt>
      <trkpt lat="45.487911" lon="6.842401">
        <ele>2226.414</ele>
        <time>2018-07-16T16:56:00Z</time>
      </trkpt>
      <trkpt lat="45.487864" lon="6.842413">
        <ele>2226.656</ele>
        <time>2018-07-16T16:56:05Z</time>
      </trkpt>
      <trkpt lat="45.487814" lon="6.842420">
        <ele>2226.311</ele>
        <time>2018-07-16T16:56:11Z</time>
      </trkpt>
      <trkpt lat="45.487761" lon="6.842424">
        <ele>2225.775</ele>
        <time>2018-07-16T16:56:18Z</time>
      </trkpt>
      <trkpt lat="45.487709" lon="6.842412">
        <ele>2225.460</ele>
        <time>2018-07-16T16:56:23Z</time>
      </trkpt>
      <trkpt lat="45.487657" lon="6.842401">
        <ele>2225.299</ele>
        <time>2018-07-16T16:56:28Z</time>
      </trkpt>
      <trkpt lat="45.487603" lon="6.842388">
        <ele>2225.111</ele>
        <time>2018-07-16T16:56:33Z</time>
      </trkpt>
      <trkpt lat="45.487556" lon="6.842384">
        <ele>2224.654</ele>
        <time>2018-07-16T16:56:37Z</time>
      </trkpt>
      <trkpt lat="45.487503" lon="6.842382">
        <ele>2224.356</ele>
        <time>2018-07-16T16:56:42Z</time>
      </trkpt>
      <trkpt lat="45.487450" lon="6.842382">
        <ele>2223.711</ele>
        <time>2018-07-16T16:56:47Z</time>
      </trkpt>
      <trkpt lat="45.487404" lon="6.842372">
        <ele>2223.008</ele>
        <time>2018-07-16T16:56:52Z</time>
      </trkpt>
      <trkpt lat="45.487356" lon="6.842363">
        <ele>2222.647</ele>
        <time>2018-07-16T16:56:57Z</time>
      </trkpt>
      <trkpt lat="45.487307" lon="6.842367">
        <ele>2221.931</ele>
        <time>2018-07-16T16:57:02Z</time>
      </trkpt>
      <trkpt lat="45.487259" lon="6.842393">
        <ele>2221.113</ele>
        <time>2018-07-16T16:57:07Z</time>
      </trkpt>
      <trkpt lat="45.487209" lon="6.842399">
        <ele>2220.698</ele>
        <time>2018-07-16T16:57:12Z</time>
      </trkpt>
      <trkpt lat="45.487156" lon="6.842402">
        <ele>2220.372</ele>
        <time>2018-07-16T16:57:17Z</time>
      </trkpt>
      <trkpt lat="45.487101" lon="6.842408">
        <ele>2220.187</ele>
        <time>2018-07-16T16:57:22Z</time>
      </trkpt>
      <trkpt lat="45.487055" lon="6.842432">
        <ele>2220.036</ele>
        <time>2018-07-16T16:57:26Z</time>
      </trkpt>
      <trkpt lat="45.487017" lon="6.842471">
        <ele>2219.918</ele>
        <time>2018-07-16T16:57:30Z</time>
      </trkpt>
      <trkpt lat="45.486983" lon="6.842516">
        <ele>2220.312</ele>
        <time>2018-07-16T16:57:34Z</time>
      </trkpt>
      <trkpt lat="45.486937" lon="6.842560">
        <ele>2220.532</ele>
        <time>2018-07-16T16:57:39Z</time>
      </trkpt>
      <trkpt lat="45.486898" lon="6.842591">
        <ele>2221.005</ele>
        <time>2018-07-16T16:57:43Z</time>
      </trkpt>
      <trkpt lat="45.486849" lon="6.842609">
        <ele>2221.308</ele>
        <time>2018-07-16T16:57:48Z</time>
      </trkpt>
      <trkpt lat="45.486805" lon="6.842640">
        <ele>2221.183</ele>
        <time>2018-07-16T16:57:53Z</time>
      </trkpt>
      <trkpt lat="45.486760" lon="6.842674">
        <ele>2221.097</ele>
        <time>2018-07-16T16:57:58Z</time>
      </trkpt>
      <trkpt lat="45.486712" lon="6.842679">
        <ele>2220.529</ele>
        <time>2018-07-16T16:58:03Z</time>
      </trkpt>
      <trkpt lat="45.486666" lon="6.842688">
        <ele>2219.444</ele>
        <time>2018-07-16T16:58:08Z</time>
      </trkpt>
      <trkpt lat="45.486617" lon="6.842693">
        <ele>2218.788</ele>
        <time>2018-07-16T16:58:13Z</time>
      </trkpt>
      <trkpt lat="45.486574" lon="6.842718">
        <ele>2218.333</ele>
        <time>2018-07-16T16:58:18Z</time>
      </trkpt>
      <trkpt lat="45.486537" lon="6.842757">
        <ele>2218.532</ele>
        <time>2018-07-16T16:58:24Z</time>
      </trkpt>
      <trkpt lat="45.486491" lon="6.842785">
        <ele>2218.624</ele>
        <time>2018-07-16T16:58:35Z</time>
      </trkpt>
      <trkpt lat="45.486505" lon="6.842718">
        <ele>2218.355</ele>
        <time>2018-07-16T16:58:53Z</time>
      </trkpt>
      <trkpt lat="45.486500" lon="6.842649">
        <ele>2217.307</ele>
        <time>2018-07-16T16:59:00Z</time>
      </trkpt>
      <trkpt lat="45.486493" lon="6.842585">
        <ele>2216.317</ele>
        <time>2018-07-16T16:59:06Z</time>
      </trkpt>
      <trkpt lat="45.486459" lon="6.842542">
        <ele>2214.908</ele>
        <time>2018-07-16T16:59:13Z</time>
      </trkpt>
      <trkpt lat="45.486410" lon="6.842543">
        <ele>2214.127</ele>
        <time>2018-07-16T16:59:19Z</time>
      </trkpt>
      <trkpt lat="45.486365" lon="6.842528">
        <ele>2213.241</ele>
        <time>2018-07-16T16:59:25Z</time>
      </trkpt>
      <trkpt lat="45.486325" lon="6.842496">
        <ele>2212.753</ele>
        <time>2018-07-16T16:59:31Z</time>
      </trkpt>
      <trkpt lat="45.486282" lon="6.842469">
        <ele>2211.668</ele>
        <time>2018-07-16T16:59:38Z</time>
      </trkpt>
      <trkpt lat="45.486240" lon="6.842441">
        <ele>2210.582</ele>
        <time>2018-07-16T16:59:45Z</time>
      </trkpt>
      <trkpt lat="45.486200" lon="6.842405">
        <ele>2209.137</ele>
        <time>2018-07-16T16:59:53Z</time>
      </trkpt>
      <trkpt lat="45.486174" lon="6.842346">
        <ele>2207.876</ele>
        <time>2018-07-16T17:00:00Z</time>
      </trkpt>
      <trkpt lat="45.486137" lon="6.842309">
        <ele>2206.688</ele>
        <time>2018-07-16T17:00:07Z</time>
      </trkpt>
      <trkpt lat="45.486088" lon="6.842330">
        <ele>2205.515</ele>
        <time>2018-07-16T17:00:15Z</time>
      </trkpt>
      <trkpt lat="45.486056" lon="6.842383">
        <ele>2204.865</ele>
        <time>2018-07-16T17:00:20Z</time>
      </trkpt>
      <trkpt lat="45.486021" lon="6.842441">
        <ele>2204.411</ele>
        <time>2018-07-16T17:00:25Z</time>
      </trkpt>
      <trkpt lat="45.485984" lon="6.842492">
        <ele>2203.808</ele>
        <time>2018-07-16T17:00:30Z</time>
      </trkpt>
      <trkpt lat="45.485944" lon="6.842540">
        <ele>2203.443</ele>
        <time>2018-07-16T17:00:35Z</time>
      </trkpt>
      <trkpt lat="45.485907" lon="6.842581">
        <ele>2202.847</ele>
        <time>2018-07-16T17:00:40Z</time>
      </trkpt>
      <trkpt lat="45.485868" lon="6.842626">
        <ele>2202.089</ele>
        <time>2018-07-16T17:00:46Z</time>
      </trkpt>
      <trkpt lat="45.485831" lon="6.842683">
        <ele>2201.114</ele>
        <time>2018-07-16T17:00:52Z</time>
      </trkpt>
      <trkpt lat="45.485791" lon="6.842731">
        <ele>2200.648</ele>
        <time>2018-07-16T17:00:57Z</time>
      </trkpt>
      <trkpt lat="45.485755" lon="6.842773">
        <ele>2200.373</ele>
        <time>2018-07-16T17:01:02Z</time>
      </trkpt>
      <trkpt lat="45.485727" lon="6.842837">
        <ele>2200.542</ele>
        <time>2018-07-16T17:01:08Z</time>
      </trkpt>
      <trkpt lat="45.485696" lon="6.842886">
        <ele>2201.054</ele>
        <time>2018-07-16T17:01:14Z</time>
      </trkpt>
      <trkpt lat="45.485653" lon="6.842930">
        <ele>2201.793</ele>
        <time>2018-07-16T17:01:20Z</time>
      </trkpt>
      <trkpt lat="45.485610" lon="6.842965">
        <ele>2202.165</ele>
        <time>2018-07-16T17:01:26Z</time>
      </trkpt>
      <trkpt lat="45.485559" lon="6.842972">
        <ele>2202.821</ele>
        <time>2018-07-16T17:01:32Z</time>
      </trkpt>
      <trkpt lat="45.485517" lon="6.842999">
        <ele>2202.808</ele>
        <time>2018-07-16T17:01:39Z</time>
      </trkpt>
      <trkpt lat="45.485474" lon="6.843024">
        <ele>2202.831</ele>
        <time>2018-07-16T17:01:45Z</time>
      </trkpt>
      <trkpt lat="45.485426" lon="6.843042">
        <ele>2202.825</ele>
        <time>2018-07-16T17:01:51Z</time>
      </trkpt>
      <trkpt lat="45.485380" lon="6.843072">
        <ele>2203.287</ele>
        <time>2018-07-16T17:01:58Z</time>
      </trkpt>
      <trkpt lat="45.485340" lon="6.843106">
        <ele>2203.482</ele>
        <time>2018-07-16T17:02:05Z</time>
      </trkpt>
      <trkpt lat="45.485290" lon="6.843113">
        <ele>2203.936</ele>
        <time>2018-07-16T17:02:11Z</time>
      </trkpt>
      <trkpt lat="45.485249" lon="6.843144">
        <ele>2204.281</ele>
        <time>2018-07-16T17:02:17Z</time>
      </trkpt>
      <trkpt lat="45.485212" lon="6.843186">
        <ele>2204.840</ele>
        <time>2018-07-16T17:02:24Z</time>
      </trkpt>
      <trkpt lat="45.485165" lon="6.843223">
        <ele>2205.212</ele>
        <time>2018-07-16T17:02:31Z</time>
      </trkpt>
      <trkpt lat="45.485115" lon="6.843222">
        <ele>2205.089</ele>
        <time>2018-07-16T17:02:37Z</time>
      </trkpt>
      <trkpt lat="45.485065" lon="6.843225">
        <ele>2204.906</ele>
        <time>2018-07-16T17:02:43Z</time>
      </trkpt>
      <trkpt lat="45.485019" lon="6.843228">
        <ele>2204.826</ele>
        <time>2018-07-16T17:02:49Z</time>
      </trkpt>
      <trkpt lat="45.484972" lon="6.843249">
        <ele>2204.808</ele>
        <time>2018-07-16T17:02:55Z</time>
      </trkpt>
      <trkpt lat="45.484931" lon="6.843288">
        <ele>2205.220</ele>
        <time>2018-07-16T17:03:01Z</time>
      </trkpt>
      <trkpt lat="45.484892" lon="6.843323">
        <ele>2205.444</ele>
        <time>2018-07-16T17:03:08Z</time>
      </trkpt>
      <trkpt lat="45.484846" lon="6.843344">
        <ele>2205.986</ele>
        <time>2018-07-16T17:03:14Z</time>
      </trkpt>
      <trkpt lat="45.484799" lon="6.843373">
        <ele>2206.261</ele>
        <time>2018-07-16T17:03:20Z</time>
      </trkpt>
      <trkpt lat="45.484754" lon="6.843373">
        <ele>2206.475</ele>
        <time>2018-07-16T17:03:26Z</time>
      </trkpt>
      <trkpt lat="45.484708" lon="6.843383">
        <ele>2206.530</ele>
        <time>2018-07-16T17:03:32Z</time>
      </trkpt>
      <trkpt lat="45.484660" lon="6.843393">
        <ele>2206.249</ele>
        <time>2018-07-16T17:03:38Z</time>
      </trkpt>
      <trkpt lat="45.484616" lon="6.843374">
        <ele>2206.061</ele>
        <time>2018-07-16T17:03:44Z</time>
      </trkpt>
      <trkpt lat="45.484573" lon="6.843347">
        <ele>2205.915</ele>
        <time>2018-07-16T17:03:50Z</time>
      </trkpt>
      <trkpt lat="45.484524" lon="6.843346">
        <ele>2205.865</ele>
        <time>2018-07-16T17:03:58Z</time>
      </trkpt>
      <trkpt lat="45.484482" lon="6.843375">
        <ele>2205.811</ele>
        <time>2018-07-16T17:04:04Z</time>
      </trkpt>
      <trkpt lat="45.484431" lon="6.843381">
        <ele>2205.408</ele>
        <time>2018-07-16T17:04:13Z</time>
      </trkpt>
      <trkpt lat="45.484383" lon="6.843381">
        <ele>2205.183</ele>
        <time>2018-07-16T17:04:20Z</time>
      </trkpt>
      <trkpt lat="45.484342" lon="6.843409">
        <ele>2204.987</ele>
        <time>2018-07-16T17:04:28Z</time>
      </trkpt>
      <trkpt lat="45.484292" lon="6.843390">
        <ele>2204.459</ele>
        <time>2018-07-16T17:04:35Z</time>
      </trkpt>
      <trkpt lat="45.484246" lon="6.843383">
        <ele>2204.164</ele>
        <time>2018-07-16T17:04:41Z</time>
      </trkpt>
      <trkpt lat="45.484208" lon="6.843418">
        <ele>2203.948</ele>
        <time>2018-07-16T17:04:47Z</time>
      </trkpt>
      <trkpt lat="45.484163" lon="6.843429">
        <ele>2203.413</ele>
        <time>2018-07-16T17:04:54Z</time>
      </trkpt>
      <trkpt lat="45.484112" lon="6.843426">
        <ele>2203.172</ele>
        <time>2018-07-16T17:05:01Z</time>
      </trkpt>
      <trkpt lat="45.484071" lon="6.843397">
        <ele>2202.984</ele>
        <time>2018-07-16T17:05:07Z</time>
      </trkpt>
      <trkpt lat="45.484037" lon="6.843347">
        <ele>2202.495</ele>
        <time>2018-07-16T17:05:13Z</time>
      </trkpt>
      <trkpt lat="45.483994" lon="6.843316">
        <ele>2202.149</ele>
        <time>2018-07-16T17:05:20Z</time>
      </trkpt>
      <trkpt lat="45.483943" lon="6.843322">
        <ele>2201.923</ele>
        <time>2018-07-16T17:05:26Z</time>
      </trkpt>
      <trkpt lat="45.483892" lon="6.843340">
        <ele>2201.808</ele>
        <time>2018-07-16T17:05:32Z</time>
      </trkpt>
      <trkpt lat="45.483844" lon="6.843333">
        <ele>2201.771</ele>
        <time>2018-07-16T17:05:39Z</time>
      </trkpt>
      <trkpt lat="45.483799" lon="6.843344">
        <ele>2201.775</ele>
        <time>2018-07-16T17:05:52Z</time>
      </trkpt>
      <trkpt lat="45.483753" lon="6.843344">
        <ele>2201.337</ele>
        <time>2018-07-16T17:05:59Z</time>
      </trkpt>
      <trkpt lat="45.483702" lon="6.843352">
        <ele>2201.042</ele>
        <time>2018-07-16T17:06:05Z</time>
      </trkpt>
      <trkpt lat="45.483653" lon="6.843336">
        <ele>2200.846</ele>
        <time>2018-07-16T17:06:12Z</time>
      </trkpt>
      <trkpt lat="45.483606" lon="6.843345">
        <ele>2200.741</ele>
        <time>2018-07-16T17:06:20Z</time>
      </trkpt>
      <trkpt lat="45.483557" lon="6.843354">
        <ele>2201.020</ele>
        <time>2018-07-16T17:06:26Z</time>
      </trkpt>
      <trkpt lat="45.483509" lon="6.843343">
        <ele>2201.272</ele>
        <time>2018-07-16T17:06:32Z</time>
      </trkpt>
      <trkpt lat="45.483459" lon="6.843347">
        <ele>2200.923</ele>
        <time>2018-07-16T17:06:38Z</time>
      </trkpt>
      <trkpt lat="45.483414" lon="6.843346">
        <ele>2200.783</ele>
        <time>2018-07-16T17:06:43Z</time>
      </trkpt>
      <trkpt lat="45.483366" lon="6.843323">
        <ele>2200.211</ele>
        <time>2018-07-16T17:06:49Z</time>
      </trkpt>
      <trkpt lat="45.483321" lon="6.843299">
        <ele>2199.908</ele>
        <time>2018-07-16T17:06:55Z</time>
      </trkpt>
      <trkpt lat="45.483271" lon="6.843280">
        <ele>2199.384</ele>
        <time>2018-07-16T17:07:01Z</time>
      </trkpt>
      <trkpt lat="45.483223" lon="6.843274">
        <ele>2199.428</ele>
        <time>2018-07-16T17:07:06Z</time>
      </trkpt>
      <trkpt lat="45.483176" lon="6.843266">
        <ele>2199.850</ele>
        <time>2018-07-16T17:07:11Z</time>
      </trkpt>
      <trkpt lat="45.483130" lon="6.843275">
        <ele>2200.125</ele>
        <time>2018-07-16T17:07:16Z</time>
      </trkpt>
      <trkpt lat="45.483080" lon="6.843264">
        <ele>2200.349</ele>
        <time>2018-07-16T17:07:22Z</time>
      </trkpt>
      <trkpt lat="45.483028" lon="6.843251">
        <ele>2200.454</ele>
        <time>2018-07-16T17:07:28Z</time>
      </trkpt>
      <trkpt lat="45.482982" lon="6.843233">
        <ele>2200.593</ele>
        <time>2018-07-16T17:07:33Z</time>
      </trkpt>
      <trkpt lat="45.482939" lon="6.843195">
        <ele>2200.185</ele>
        <time>2018-07-16T17:11:59Z</time>
      </trkpt>
      <trkpt lat="45.482892" lon="6.843193">
        <ele>2199.593</ele>
        <time>2018-07-16T17:12:06Z</time>
      </trkpt>
      <trkpt lat="45.482845" lon="6.843217">
        <ele>2199.165</ele>
        <time>2018-07-16T17:12:12Z</time>
      </trkpt>
      <trkpt lat="45.482799" lon="6.843242">
        <ele>2198.921</ele>
        <time>2018-07-16T17:12:17Z</time>
      </trkpt>
      <trkpt lat="45.482748" lon="6.843269">
        <ele>2198.808</ele>
        <time>2018-07-16T17:12:23Z</time>
      </trkpt>
      <trkpt lat="45.482705" lon="6.843289">
        <ele>2199.161</ele>
        <time>2018-07-16T17:12:28Z</time>
      </trkpt>
      <trkpt lat="45.482658" lon="6.843287">
        <ele>2199.355</ele>
        <time>2018-07-16T17:12:33Z</time>
      </trkpt>
      <trkpt lat="45.482612" lon="6.843277">
        <ele>2199.477</ele>
        <time>2018-07-16T17:12:39Z</time>
      </trkpt>
      <trkpt lat="45.482566" lon="6.843272">
        <ele>2199.532</ele>
        <time>2018-07-16T17:12:46Z</time>
      </trkpt>
      <trkpt lat="45.482516" lon="6.843274">
        <ele>2199.576</ele>
        <time>2018-07-16T17:12:52Z</time>
      </trkpt>
      <trkpt lat="45.482475" lon="6.843303">
        <ele>2199.581</ele>
        <time>2018-07-16T17:12:58Z</time>
      </trkpt>
      <trkpt lat="45.482425" lon="6.843312">
        <ele>2199.590</ele>
        <time>2018-07-16T17:13:05Z</time>
      </trkpt>
      <trkpt lat="45.482380" lon="6.843318">
        <ele>2199.552</ele>
        <time>2018-07-16T17:13:24Z</time>
      </trkpt>
      <trkpt lat="45.482331" lon="6.843312">
        <ele>2199.556</ele>
        <time>2018-07-16T17:13:31Z</time>
      </trkpt>
      <trkpt lat="45.482284" lon="6.843310">
        <ele>2199.159</ele>
        <time>2018-07-16T17:13:37Z</time>
      </trkpt>
      <trkpt lat="45.482239" lon="6.843293">
        <ele>2198.514</ele>
        <time>2018-07-16T17:13:42Z</time>
      </trkpt>
      <trkpt lat="45.482196" lon="6.843271">
        <ele>2198.108</ele>
        <time>2018-07-16T17:13:48Z</time>
      </trkpt>
      <trkpt lat="45.482149" lon="6.843263">
        <ele>2197.937</ele>
        <time>2018-07-16T17:13:54Z</time>
      </trkpt>
      <trkpt lat="45.482109" lon="6.843233">
        <ele>2197.881</ele>
        <time>2018-07-16T17:14:00Z</time>
      </trkpt>
      <trkpt lat="45.482060" lon="6.843237">
        <ele>2198.173</ele>
        <time>2018-07-16T17:14:07Z</time>
      </trkpt>
      <trkpt lat="45.482008" lon="6.843220">
        <ele>2198.318</ele>
        <time>2018-07-16T17:14:13Z</time>
      </trkpt>
      <trkpt lat="45.481965" lon="6.843194">
        <ele>2198.482</ele>
        <time>2018-07-16T17:14:18Z</time>
      </trkpt>
      <trkpt lat="45.481918" lon="6.843158">
        <ele>2198.567</ele>
        <time>2018-07-16T17:14:24Z</time>
      </trkpt>
      <trkpt lat="45.481870" lon="6.843132">
        <ele>2198.566</ele>
        <time>2018-07-16T17:14:29Z</time>
      </trkpt>
      <trkpt lat="45.481825" lon="6.843127">
        <ele>2198.588</ele>
        <time>2018-07-16T17:14:34Z</time>
      </trkpt>
      <trkpt lat="45.481778" lon="6.843129">
        <ele>2198.585</ele>
        <time>2018-07-16T17:14:39Z</time>
      </trkpt>
      <trkpt lat="45.481729" lon="6.843134">
        <ele>2198.589</ele>
        <time>2018-07-16T17:14:44Z</time>
      </trkpt>
      <trkpt lat="45.481682" lon="6.843133">
        <ele>2198.517</ele>
        <time>2018-07-16T17:14:49Z</time>
      </trkpt>
      <trkpt lat="45.481634" lon="6.843116">
        <ele>2198.508</ele>
        <time>2018-07-16T17:14:54Z</time>
      </trkpt>
      <trkpt lat="45.481598" lon="6.843076">
        <ele>2198.550</ele>
        <time>2018-07-16T17:15:01Z</time>
      </trkpt>
      <trkpt lat="45.481568" lon="6.843015">
        <ele>2198.954</ele>
        <time>2018-07-16T17:15:07Z</time>
      </trkpt>
      <trkpt lat="45.481534" lon="6.842967">
        <ele>2199.146</ele>
        <time>2018-07-16T17:15:12Z</time>
      </trkpt>
      <trkpt lat="45.481483" lon="6.842942">
        <ele>2199.291</ele>
        <time>2018-07-16T17:15:17Z</time>
      </trkpt>
      <trkpt lat="45.481432" lon="6.842918">
        <ele>2199.365</ele>
        <time>2018-07-16T17:15:22Z</time>
      </trkpt>
      <trkpt lat="45.481390" lon="6.842893">
        <ele>2199.430</ele>
        <time>2018-07-16T17:15:26Z</time>
      </trkpt>
      <trkpt lat="45.481343" lon="6.842861">
        <ele>2199.499</ele>
        <time>2018-07-16T17:15:31Z</time>
      </trkpt>
      <trkpt lat="45.481297" lon="6.842825">
        <ele>2199.431</ele>
        <time>2018-07-16T17:15:36Z</time>
      </trkpt>
      <trkpt lat="45.481257" lon="6.842792">
        <ele>2199.865</ele>
        <time>2018-07-16T17:15:40Z</time>
      </trkpt>
      <trkpt lat="45.481214" lon="6.842746">
        <ele>2200.068</ele>
        <time>2018-07-16T17:15:45Z</time>
      </trkpt>
      <trkpt lat="45.481175" lon="6.842704">
        <ele>2200.114</ele>
        <time>2018-07-16T17:15:50Z</time>
      </trkpt>
      <trkpt lat="45.481129" lon="6.842680">
        <ele>2199.808</ele>
        <time>2018-07-16T17:15:55Z</time>
      </trkpt>
      <trkpt lat="45.481084" lon="6.842659">
        <ele>2199.628</ele>
        <time>2018-07-16T17:16:00Z</time>
      </trkpt>
      <trkpt lat="45.481042" lon="6.842629">
        <ele>2199.562</ele>
        <time>2018-07-16T17:16:05Z</time>
      </trkpt>
      <trkpt lat="45.480992" lon="6.842629">
        <ele>2199.494</ele>
        <time>2018-07-16T17:16:10Z</time>
      </trkpt>
      <trkpt lat="45.480945" lon="6.842625">
        <ele>2199.469</ele>
        <time>2018-07-16T17:16:15Z</time>
      </trkpt>
      <trkpt lat="45.480893" lon="6.842610">
        <ele>2199.823</ele>
        <time>2018-07-16T17:16:20Z</time>
      </trkpt>
      <trkpt lat="45.480842" lon="6.842595">
        <ele>2200.038</ele>
        <time>2018-07-16T17:16:26Z</time>
      </trkpt>
      <trkpt lat="45.480797" lon="6.842570">
        <ele>2200.187</ele>
        <time>2018-07-16T17:16:31Z</time>
      </trkpt>
      <trkpt lat="45.480756" lon="6.842527">
        <ele>2199.889</ele>
        <time>2018-07-16T17:16:36Z</time>
      </trkpt>
      <trkpt lat="45.480712" lon="6.842485">
        <ele>2199.224</ele>
        <time>2018-07-16T17:16:41Z</time>
      </trkpt>
      <trkpt lat="45.480671" lon="6.842440">
        <ele>2199.604</ele>
        <time>2018-07-16T17:16:47Z</time>
      </trkpt>
      <trkpt lat="45.480634" lon="6.842397">
        <ele>2199.914</ele>
        <time>2018-07-16T17:17:27Z</time>
      </trkpt>
      <trkpt lat="45.480584" lon="6.842396">
        <ele>2200.108</ele>
        <time>2018-07-16T17:17:33Z</time>
      </trkpt>
      <trkpt lat="45.480538" lon="6.842397">
        <ele>2200.294</ele>
        <time>2018-07-16T17:17:38Z</time>
      </trkpt>
      <trkpt lat="45.480491" lon="6.842373">
        <ele>2200.798</ele>
        <time>2018-07-16T17:17:43Z</time>
      </trkpt>
      <trkpt lat="45.480448" lon="6.842337">
        <ele>2200.630</ele>
        <time>2018-07-16T17:17:48Z</time>
      </trkpt>
      <trkpt lat="45.480417" lon="6.842275">
        <ele>2200.995</ele>
        <time>2018-07-16T17:17:54Z</time>
      </trkpt>
      <trkpt lat="45.480392" lon="6.842214">
        <ele>2201.159</ele>
        <time>2018-07-16T17:17:59Z</time>
      </trkpt>
      <trkpt lat="45.480358" lon="6.842163">
        <ele>2201.264</ele>
        <time>2018-07-16T17:18:04Z</time>
      </trkpt>
      <trkpt lat="45.480316" lon="6.842120">
        <ele>2200.963</ele>
        <time>2018-07-16T17:18:09Z</time>
      </trkpt>
      <trkpt lat="45.480285" lon="6.842070">
        <ele>2200.775</ele>
        <time>2018-07-16T17:18:14Z</time>
      </trkpt>
      <trkpt lat="45.480246" lon="6.842017">
        <ele>2200.289</ele>
        <time>2018-07-16T17:18:20Z</time>
      </trkpt>
      <trkpt lat="45.480220" lon="6.841959">
        <ele>2200.306</ele>
        <time>2018-07-16T17:18:25Z</time>
      </trkpt>
      <trkpt lat="45.480181" lon="6.841906">
        <ele>2200.426</ele>
        <time>2018-07-16T17:18:30Z</time>
      </trkpt>
      <trkpt lat="45.480145" lon="6.841864">
        <ele>2200.008</ele>
        <time>2018-07-16T17:18:35Z</time>
      </trkpt>
      <trkpt lat="45.480107" lon="6.841821">
        <ele>2199.860</ele>
        <time>2018-07-16T17:18:41Z</time>
      </trkpt>
      <trkpt lat="45.480072" lon="6.841778">
        <ele>2200.184</ele>
        <time>2018-07-16T17:18:46Z</time>
      </trkpt>
      <trkpt lat="45.480047" lon="6.841724">
        <ele>2200.726</ele>
        <time>2018-07-16T17:18:51Z</time>
      </trkpt>
      <trkpt lat="45.480039" lon="6.841659">
        <ele>2200.671</ele>
        <time>2018-07-16T17:18:58Z</time>
      </trkpt>
      <trkpt lat="45.480039" lon="6.841592">
        <ele>2200.665</ele>
        <time>2018-07-16T17:19:04Z</time>
      </trkpt>
      <trkpt lat="45.480027" lon="6.841524">
        <ele>2200.210</ele>
        <time>2018-07-16T17:19:09Z</time>
      </trkpt>
      <trkpt lat="45.479998" lon="6.841455">
        <ele>2200.379</ele>
        <time>2018-07-16T17:19:14Z</time>
      </trkpt>
      <trkpt lat="45.479970" lon="6.841395">
        <ele>2200.481</ele>
        <time>2018-07-16T17:19:18Z</time>
      </trkpt>
      <trkpt lat="45.479944" lon="6.841333">
        <ele>2200.165</ele>
        <time>2018-07-16T17:19:22Z</time>
      </trkpt>
      <trkpt lat="45.479921" lon="6.841271">
        <ele>2199.968</ele>
        <time>2018-07-16T17:19:26Z</time>
      </trkpt>
      <trkpt lat="45.479905" lon="6.841210">
        <ele>2199.814</ele>
        <time>2018-07-16T17:19:30Z</time>
      </trkpt>
      <trkpt lat="45.479895" lon="6.841139">
        <ele>2199.708</ele>
        <time>2018-07-16T17:19:34Z</time>
      </trkpt>
      <trkpt lat="45.479894" lon="6.841071">
        <ele>2199.778</ele>
        <time>2018-07-16T17:19:38Z</time>
      </trkpt>
      <trkpt lat="45.479901" lon="6.841003">
        <ele>2199.752</ele>
        <time>2018-07-16T17:19:42Z</time>
      </trkpt>
      <trkpt lat="45.479905" lon="6.840927">
        <ele>2200.194</ele>
        <time>2018-07-16T17:19:58Z</time>
      </trkpt>
      <trkpt lat="45.479906" lon="6.840853">
        <ele>2200.759</ele>
        <time>2018-07-16T17:20:03Z</time>
      </trkpt>
      <trkpt lat="45.479901" lon="6.840787">
        <ele>2201.143</ele>
        <time>2018-07-16T17:20:07Z</time>
      </trkpt>
      <trkpt lat="45.479887" lon="6.840712">
        <ele>2200.988</ele>
        <time>2018-07-16T17:20:12Z</time>
      </trkpt>
      <trkpt lat="45.479879" lon="6.840648">
        <ele>2200.817</ele>
        <time>2018-07-16T17:20:16Z</time>
      </trkpt>
      <trkpt lat="45.479877" lon="6.840580">
        <ele>2201.169</ele>
        <time>2018-07-16T17:20:20Z</time>
      </trkpt>
      <trkpt lat="45.479871" lon="6.840505">
        <ele>2200.922</ele>
        <time>2018-07-16T17:20:25Z</time>
      </trkpt>
      <trkpt lat="45.479863" lon="6.840430">
        <ele>2201.262</ele>
        <time>2018-07-16T17:20:30Z</time>
      </trkpt>
      <trkpt lat="45.479862" lon="6.840357">
        <ele>2201.408</ele>
        <time>2018-07-16T17:20:36Z</time>
      </trkpt>
      <trkpt lat="45.479864" lon="6.840286">
        <ele>2201.908</ele>
        <time>2018-07-16T17:20:42Z</time>
      </trkpt>
      <trkpt lat="45.479864" lon="6.840220">
        <ele>2203.064</ele>
        <time>2018-07-16T17:20:48Z</time>
      </trkpt>
      <trkpt lat="45.479874" lon="6.840145">
        <ele>2204.158</ele>
        <time>2018-07-16T17:20:54Z</time>
      </trkpt>
      <trkpt lat="45.479885" lon="6.840074">
        <ele>2205.140</ele>
        <time>2018-07-16T17:20:59Z</time>
      </trkpt>
      <trkpt lat="45.479893" lon="6.839997">
        <ele>2205.725</ele>
        <time>2018-07-16T17:21:05Z</time>
      </trkpt>
      <trkpt lat="45.479896" lon="6.839931">
        <ele>2206.179</ele>
        <time>2018-07-16T17:21:10Z</time>
      </trkpt>
      <trkpt lat="45.479893" lon="6.839856">
        <ele>2206.374</ele>
        <time>2018-07-16T17:21:16Z</time>
      </trkpt>
      <trkpt lat="45.479909" lon="6.839793">
        <ele>2206.863</ele>
        <time>2018-07-16T17:21:21Z</time>
      </trkpt>
      <trkpt lat="45.479914" lon="6.839719">
        <ele>2207.195</ele>
        <time>2018-07-16T17:21:26Z</time>
      </trkpt>
      <trkpt lat="45.479928" lon="6.839654">
        <ele>2206.932</ele>
        <time>2018-07-16T17:21:31Z</time>
      </trkpt>
      <trkpt lat="45.479942" lon="6.839584">
        <ele>2206.892</ele>
        <time>2018-07-16T17:21:37Z</time>
      </trkpt>
      <trkpt lat="45.479944" lon="6.839515">
        <ele>2206.711</ele>
        <time>2018-07-16T17:21:42Z</time>
      </trkpt>
      <trkpt lat="45.479949" lon="6.839440">
        <ele>2206.708</ele>
        <time>2018-07-16T17:21:48Z</time>
      </trkpt>
      <trkpt lat="45.479963" lon="6.839366">
        <ele>2207.125</ele>
        <time>2018-07-16T17:21:54Z</time>
      </trkpt>
      <trkpt lat="45.479980" lon="6.839298">
        <ele>2206.999</ele>
        <time>2018-07-16T17:22:00Z</time>
      </trkpt>
      <trkpt lat="45.479983" lon="6.839232">
        <ele>2206.421</ele>
        <time>2018-07-16T17:22:05Z</time>
      </trkpt>
      <trkpt lat="45.479993" lon="6.839162">
        <ele>2206.556</ele>
        <time>2018-07-16T17:22:10Z</time>
      </trkpt>
      <trkpt lat="45.480020" lon="6.839095">
        <ele>2206.680</ele>
        <time>2018-07-16T17:22:15Z</time>
      </trkpt>
      <trkpt lat="45.480060" lon="6.839048">
        <ele>2207.035</ele>
        <time>2018-07-16T17:22:21Z</time>
      </trkpt>
      <trkpt lat="45.480101" lon="6.839007">
        <ele>2207.794</ele>
        <time>2018-07-16T17:22:26Z</time>
      </trkpt>
      <trkpt lat="45.480140" lon="6.838968">
        <ele>2208.516</ele>
        <time>2018-07-16T17:22:32Z</time>
      </trkpt>
      <trkpt lat="45.480181" lon="6.838931">
        <ele>2209.023</ele>
        <time>2018-07-16T17:22:40Z</time>
      </trkpt>
      <trkpt lat="45.480228" lon="6.838907">
        <ele>2209.383</ele>
        <time>2018-07-16T17:22:46Z</time>
      </trkpt>
      <trkpt lat="45.480271" lon="6.838881">
        <ele>2209.111</ele>
        <time>2018-07-16T17:22:54Z</time>
      </trkpt>
      <trkpt lat="45.480323" lon="6.838860">
        <ele>2209.008</ele>
        <time>2018-07-16T17:23:00Z</time>
      </trkpt>
      <trkpt lat="45.480368" lon="6.838844">
        <ele>2208.974</ele>
        <time>2018-07-16T17:23:05Z</time>
      </trkpt>
      <trkpt lat="45.480410" lon="6.838873">
        <ele>2208.558</ele>
        <time>2018-07-16T17:23:11Z</time>
      </trkpt>
      <trkpt lat="45.480459" lon="6.838857">
        <ele>2208.280</ele>
        <time>2018-07-16T17:23:18Z</time>
      </trkpt>
      <trkpt lat="45.480612" lon="6.838802">
        <ele>2138.098</ele>
        <time>2018-07-17T06:11:02Z</time>
      </trkpt>
      <trkpt lat="45.480567" lon="6.838816">
        <ele>2138.015</ele>
        <time>2018-07-17T06:11:15Z</time>
      </trkpt>
      <trkpt lat="45.480512" lon="6.838866">
        <ele>2138.026</ele>
        <time>2018-07-17T06:11:24Z</time>
      </trkpt>
      <trkpt lat="45.480465" lon="6.838866">
        <ele>2138.008</ele>
        <time>2018-07-17T06:11:36Z</time>
      </trkpt>
      <trkpt lat="45.480429" lon="6.838826">
        <ele>2138.071</ele>
        <time>2018-07-17T06:11:43Z</time>
      </trkpt>
      <trkpt lat="45.480384" lon="6.838844">
        <ele>2138.055</ele>
        <time>2018-07-17T06:11:48Z</time>
      </trkpt>
      <trkpt lat="45.480332" lon="6.838854">
        <ele>2138.067</ele>
        <time>2018-07-17T06:11:53Z</time>
      </trkpt>
      <trkpt lat="45.480289" lon="6.838894">
        <ele>2138.063</ele>
        <time>2018-07-17T06:12:00Z</time>
      </trkpt>
      <trkpt lat="45.480248" lon="6.838922">
        <ele>2138.090</ele>
        <time>2018-07-17T06:12:16Z</time>
      </trkpt>
      <trkpt lat="45.480205" lon="6.838960">
        <ele>2138.042</ele>
        <time>2018-07-17T06:12:22Z</time>
      </trkpt>
      <trkpt lat="45.480167" lon="6.838996">
        <ele>2138.062</ele>
        <time>2018-07-17T06:12:27Z</time>
      </trkpt>
      <trkpt lat="45.480117" lon="6.839021">
        <ele>2138.063</ele>
        <time>2018-07-17T06:12:32Z</time>
      </trkpt>
      <trkpt lat="45.480072" lon="6.839051">
        <ele>2138.099</ele>
        <time>2018-07-17T06:12:38Z</time>
      </trkpt>
      <trkpt lat="45.479879" lon="6.839506">
        <ele>2138.007</ele>
        <time>2018-07-17T06:13:14Z</time>
      </trkpt>
      <trkpt lat="45.479937" lon="6.839430">
        <ele>2138.027</ele>
        <time>2018-07-17T06:13:16Z</time>
      </trkpt>
      <trkpt lat="45.479985" lon="6.839385">
        <ele>2138.708</ele>
        <time>2018-07-17T06:13:18Z</time>
      </trkpt>
      <trkpt lat="45.479990" lon="6.839450">
        <ele>2137.981</ele>
        <time>2018-07-17T06:13:22Z</time>
      </trkpt>
      <trkpt lat="45.479985" lon="6.839519">
        <ele>2137.975</ele>
        <time>2018-07-17T06:13:25Z</time>
      </trkpt>
      <trkpt lat="45.479972" lon="6.839593">
        <ele>2137.157</ele>
        <time>2018-07-17T06:13:29Z</time>
      </trkpt>
      <trkpt lat="45.479964" lon="6.839662">
        <ele>2137.323</ele>
        <time>2018-07-17T06:13:33Z</time>
      </trkpt>
      <trkpt lat="45.479959" lon="6.839732">
        <ele>2137.250</ele>
        <time>2018-07-17T06:13:38Z</time>
      </trkpt>
      <trkpt lat="45.479948" lon="6.839803">
        <ele>2139.752</ele>
        <time>2018-07-17T06:13:43Z</time>
      </trkpt>
      <trkpt lat="45.479935" lon="6.839865">
        <ele>2137.042</ele>
        <time>2018-07-17T06:13:48Z</time>
      </trkpt>
      <trkpt lat="45.479928" lon="6.839942">
        <ele>2136.833</ele>
        <time>2018-07-17T06:13:53Z</time>
      </trkpt>
      <trkpt lat="45.479916" lon="6.840007">
        <ele>2135.929</ele>
        <time>2018-07-17T06:13:58Z</time>
      </trkpt>
      <trkpt lat="45.479910" lon="6.840072">
        <ele>2135.900</ele>
        <time>2018-07-17T06:14:03Z</time>
      </trkpt>
      <trkpt lat="45.479897" lon="6.840145">
        <ele>2135.220</ele>
        <time>2018-07-17T06:14:08Z</time>
      </trkpt>
      <trkpt lat="45.479884" lon="6.840210">
        <ele>2135.208</ele>
        <time>2018-07-17T06:14:12Z</time>
      </trkpt>
      <trkpt lat="45.479873" lon="6.840284">
        <ele>2134.134</ele>
        <time>2018-07-17T06:14:17Z</time>
      </trkpt>
      <trkpt lat="45.479874" lon="6.840353">
        <ele>2133.858</ele>
        <time>2018-07-17T06:14:22Z</time>
      </trkpt>
      <trkpt lat="45.479871" lon="6.840425">
        <ele>2132.660</ele>
        <time>2018-07-17T06:14:27Z</time>
      </trkpt>
      <trkpt lat="45.479879" lon="6.840499">
        <ele>2132.156</ele>
        <time>2018-07-17T06:14:33Z</time>
      </trkpt>
      <trkpt lat="45.479885" lon="6.840570">
        <ele>2131.683</ele>
        <time>2018-07-17T06:14:38Z</time>
      </trkpt>
      <trkpt lat="45.479896" lon="6.840633">
        <ele>2131.295</ele>
        <time>2018-07-17T06:14:43Z</time>
      </trkpt>
      <trkpt lat="45.479902" lon="6.840704">
        <ele>2130.995</ele>
        <time>2018-07-17T06:14:50Z</time>
      </trkpt>
      <trkpt lat="45.479909" lon="6.840779">
        <ele>2130.466</ele>
        <time>2018-07-17T06:14:55Z</time>
      </trkpt>
      <trkpt lat="45.479915" lon="6.840849">
        <ele>2131.031</ele>
        <time>2018-07-17T06:14:59Z</time>
      </trkpt>
      <trkpt lat="45.479922" lon="6.840922">
        <ele>2130.961</ele>
        <time>2018-07-17T06:15:04Z</time>
      </trkpt>
      <trkpt lat="45.479918" lon="6.840988">
        <ele>2130.207</ele>
        <time>2018-07-17T06:15:08Z</time>
      </trkpt>
      <trkpt lat="45.479916" lon="6.841060">
        <ele>2131.108</ele>
        <time>2018-07-17T06:15:13Z</time>
      </trkpt>
      <trkpt lat="45.479923" lon="6.841139">
        <ele>2130.335</ele>
        <time>2018-07-17T06:15:18Z</time>
      </trkpt>
      <trkpt lat="45.479939" lon="6.841206">
        <ele>2130.319</ele>
        <time>2018-07-17T06:15:22Z</time>
      </trkpt>
      <trkpt lat="45.479953" lon="6.841269">
        <ele>2130.781</ele>
        <time>2018-07-17T06:15:26Z</time>
      </trkpt>
      <trkpt lat="45.479972" lon="6.841340">
        <ele>2130.567</ele>
        <time>2018-07-17T06:15:31Z</time>
      </trkpt>
      <trkpt lat="45.479996" lon="6.841408">
        <ele>2130.854</ele>
        <time>2018-07-17T06:15:36Z</time>
      </trkpt>
      <trkpt lat="45.480028" lon="6.841459">
        <ele>2130.586</ele>
        <time>2018-07-17T06:15:40Z</time>
      </trkpt>
      <trkpt lat="45.480046" lon="6.841518">
        <ele>2130.926</ele>
        <time>2018-07-17T06:15:44Z</time>
      </trkpt>
      <trkpt lat="45.480066" lon="6.841584">
        <ele>2130.977</ele>
        <time>2018-07-17T06:15:49Z</time>
      </trkpt>
      <trkpt lat="45.480067" lon="6.841659">
        <ele>2131.189</ele>
        <time>2018-07-17T06:15:55Z</time>
      </trkpt>
      <trkpt lat="45.480077" lon="6.841722">
        <ele>2131.206</ele>
        <time>2018-07-17T06:15:59Z</time>
      </trkpt>
      <trkpt lat="45.480101" lon="6.841777">
        <ele>2131.126</ele>
        <time>2018-07-17T06:16:03Z</time>
      </trkpt>
      <trkpt lat="45.480137" lon="6.841834">
        <ele>2130.908</ele>
        <time>2018-07-17T06:16:08Z</time>
      </trkpt>
      <trkpt lat="45.480178" lon="6.841883">
        <ele>2130.560</ele>
        <time>2018-07-17T06:16:14Z</time>
      </trkpt>
      <trkpt lat="45.480216" lon="6.841926">
        <ele>2131.054</ele>
        <time>2018-07-17T06:16:19Z</time>
      </trkpt>
      <trkpt lat="45.480247" lon="6.841980">
        <ele>2130.946</ele>
        <time>2018-07-17T06:16:24Z</time>
      </trkpt>
      <trkpt lat="45.480268" lon="6.842038">
        <ele>2130.812</ele>
        <time>2018-07-17T06:16:29Z</time>
      </trkpt>
      <trkpt lat="45.480301" lon="6.842092">
        <ele>2130.839</ele>
        <time>2018-07-17T06:16:35Z</time>
      </trkpt>
      <trkpt lat="45.480336" lon="6.842147">
        <ele>2131.041</ele>
        <time>2018-07-17T06:16:41Z</time>
      </trkpt>
      <trkpt lat="45.480381" lon="6.842186">
        <ele>2131.281</ele>
        <time>2018-07-17T06:16:46Z</time>
      </trkpt>
      <trkpt lat="45.480415" lon="6.842245">
        <ele>2130.972</ele>
        <time>2018-07-17T06:16:52Z</time>
      </trkpt>
      <trkpt lat="45.480441" lon="6.842307">
        <ele>2130.822</ele>
        <time>2018-07-17T06:16:57Z</time>
      </trkpt>
      <trkpt lat="45.480477" lon="6.842350">
        <ele>2131.162</ele>
        <time>2018-07-17T06:17:02Z</time>
      </trkpt>
      <trkpt lat="45.480518" lon="6.842379">
        <ele>2130.808</ele>
        <time>2018-07-17T06:17:07Z</time>
      </trkpt>
      <trkpt lat="45.480567" lon="6.842393">
        <ele>2130.408</ele>
        <time>2018-07-17T06:17:12Z</time>
      </trkpt>
      <trkpt lat="45.480615" lon="6.842387">
        <ele>2130.944</ele>
        <time>2018-07-17T06:17:17Z</time>
      </trkpt>
      <trkpt lat="45.480657" lon="6.842409">
        <ele>2130.938</ele>
        <time>2018-07-17T06:17:22Z</time>
      </trkpt>
      <trkpt lat="45.480697" lon="6.842446">
        <ele>2129.950</ele>
        <time>2018-07-17T06:17:28Z</time>
      </trkpt>
      <trkpt lat="45.480741" lon="6.842486">
        <ele>2130.366</ele>
        <time>2018-07-17T06:17:33Z</time>
      </trkpt>
      <trkpt lat="45.480788" lon="6.842523">
        <ele>2130.843</ele>
        <time>2018-07-17T06:17:38Z</time>
      </trkpt>
      <trkpt lat="45.480835" lon="6.842560">
        <ele>2130.975</ele>
        <time>2018-07-17T06:17:43Z</time>
      </trkpt>
      <trkpt lat="45.480884" lon="6.842589">
        <ele>2130.195</ele>
        <time>2018-07-17T06:17:48Z</time>
      </trkpt>
      <trkpt lat="45.480938" lon="6.842608">
        <ele>2129.966</ele>
        <time>2018-07-17T06:17:53Z</time>
      </trkpt>
      <trkpt lat="45.480992" lon="6.842617">
        <ele>2129.866</ele>
        <time>2018-07-17T06:17:58Z</time>
      </trkpt>
      <trkpt lat="45.481041" lon="6.842624">
        <ele>2129.229</ele>
        <time>2018-07-17T06:18:03Z</time>
      </trkpt>
      <trkpt lat="45.481086" lon="6.842636">
        <ele>2128.821</ele>
        <time>2018-07-17T06:18:07Z</time>
      </trkpt>
      <trkpt lat="45.481137" lon="6.842656">
        <ele>2128.508</ele>
        <time>2018-07-17T06:18:12Z</time>
      </trkpt>
      <trkpt lat="45.481187" lon="6.842686">
        <ele>2129.538</ele>
        <time>2018-07-17T06:18:17Z</time>
      </trkpt>
      <trkpt lat="45.481234" lon="6.842726">
        <ele>2129.132</ele>
        <time>2018-07-17T06:18:22Z</time>
      </trkpt>
      <trkpt lat="45.481273" lon="6.842780">
        <ele>2128.644</ele>
        <time>2018-07-17T06:18:27Z</time>
      </trkpt>
      <trkpt lat="45.481310" lon="6.842821">
        <ele>2129.040</ele>
        <time>2018-07-17T06:18:31Z</time>
      </trkpt>
      <trkpt lat="45.481360" lon="6.842857">
        <ele>2129.337</ele>
        <time>2018-07-17T06:18:36Z</time>
      </trkpt>
      <trkpt lat="45.481412" lon="6.842888">
        <ele>2131.249</ele>
        <time>2018-07-17T06:18:41Z</time>
      </trkpt>
      <trkpt lat="45.481466" lon="6.842911">
        <ele>2128.739</ele>
        <time>2018-07-17T06:18:46Z</time>
      </trkpt>
      <trkpt lat="45.481520" lon="6.842933">
        <ele>2128.990</ele>
        <time>2018-07-17T06:18:51Z</time>
      </trkpt>
      <trkpt lat="45.481565" lon="6.842956">
        <ele>2128.677</ele>
        <time>2018-07-17T06:18:55Z</time>
      </trkpt>
      <trkpt lat="45.481599" lon="6.843000">
        <ele>2129.861</ele>
        <time>2018-07-17T06:18:59Z</time>
      </trkpt>
      <trkpt lat="45.481630" lon="6.843048">
        <ele>2128.527</ele>
        <time>2018-07-17T06:19:03Z</time>
      </trkpt>
      <trkpt lat="45.481668" lon="6.843095">
        <ele>2131.008</ele>
        <time>2018-07-17T06:19:08Z</time>
      </trkpt>
      <trkpt lat="45.481708" lon="6.843129">
        <ele>2131.029</ele>
        <time>2018-07-17T06:19:13Z</time>
      </trkpt>
      <trkpt lat="45.481756" lon="6.843133">
        <ele>2130.953</ele>
        <time>2018-07-17T06:19:18Z</time>
      </trkpt>
      <trkpt lat="45.481811" lon="6.843121">
        <ele>2130.885</ele>
        <time>2018-07-17T06:19:23Z</time>
      </trkpt>
      <trkpt lat="45.481859" lon="6.843119">
        <ele>2130.781</ele>
        <time>2018-07-17T06:19:28Z</time>
      </trkpt>
      <trkpt lat="45.481907" lon="6.843136">
        <ele>2128.598</ele>
        <time>2018-07-17T06:19:33Z</time>
      </trkpt>
      <trkpt lat="45.481951" lon="6.843171">
        <ele>2128.830</ele>
        <time>2018-07-17T06:19:38Z</time>
      </trkpt>
      <trkpt lat="45.481993" lon="6.843199">
        <ele>2129.630</ele>
        <time>2018-07-17T06:19:43Z</time>
      </trkpt>
      <trkpt lat="45.482041" lon="6.843224">
        <ele>2128.951</ele>
        <time>2018-07-17T06:19:48Z</time>
      </trkpt>
      <trkpt lat="45.482089" lon="6.843229">
        <ele>2128.362</ele>
        <time>2018-07-17T06:19:54Z</time>
      </trkpt>
      <trkpt lat="45.482137" lon="6.843243">
        <ele>2128.583</ele>
        <time>2018-07-17T06:20:00Z</time>
      </trkpt>
      <trkpt lat="45.482183" lon="6.843233">
        <ele>2128.511</ele>
        <time>2018-07-17T06:20:30Z</time>
      </trkpt>
      <trkpt lat="45.482231" lon="6.843238">
        <ele>2127.908</ele>
        <time>2018-07-17T06:20:36Z</time>
      </trkpt>
      <trkpt lat="45.482278" lon="6.843260">
        <ele>2128.378</ele>
        <time>2018-07-17T06:20:41Z</time>
      </trkpt>
      <trkpt lat="45.482330" lon="6.843278">
        <ele>2128.382</ele>
        <time>2018-07-17T06:20:47Z</time>
      </trkpt>
      <trkpt lat="45.482381" lon="6.843289">
        <ele>2129.054</ele>
        <time>2018-07-17T06:20:54Z</time>
      </trkpt>
      <trkpt lat="45.482434" lon="6.843290">
        <ele>2128.180</ele>
        <time>2018-07-17T06:21:00Z</time>
      </trkpt>
      <trkpt lat="45.482486" lon="6.843277">
        <ele>2128.447</ele>
        <time>2018-07-17T06:21:06Z</time>
      </trkpt>
      <trkpt lat="45.482535" lon="6.843265">
        <ele>2128.439</ele>
        <time>2018-07-17T06:21:12Z</time>
      </trkpt>
      <trkpt lat="45.482581" lon="6.843255">
        <ele>2128.679</ele>
        <time>2018-07-17T06:21:17Z</time>
      </trkpt>
      <trkpt lat="45.482633" lon="6.843254">
        <ele>2129.210</ele>
        <time>2018-07-17T06:21:23Z</time>
      </trkpt>
      <trkpt lat="45.482682" lon="6.843259">
        <ele>2129.393</ele>
        <time>2018-07-17T06:21:45Z</time>
      </trkpt>
      <trkpt lat="45.482732" lon="6.843265">
        <ele>2129.365</ele>
        <time>2018-07-17T06:21:51Z</time>
      </trkpt>
      <trkpt lat="45.482777" lon="6.843244">
        <ele>2129.221</ele>
        <time>2018-07-17T06:21:57Z</time>
      </trkpt>
      <trkpt lat="45.482825" lon="6.843229">
        <ele>2129.908</ele>
        <time>2018-07-17T06:22:03Z</time>
      </trkpt>
      <trkpt lat="45.482874" lon="6.843205">
        <ele>2130.751</ele>
        <time>2018-07-17T06:22:09Z</time>
      </trkpt>
      <trkpt lat="45.482918" lon="6.843175">
        <ele>2130.255</ele>
        <time>2018-07-17T06:22:24Z</time>
      </trkpt>
      <trkpt lat="45.482963" lon="6.843161">
        <ele>2130.377</ele>
        <time>2018-07-17T06:22:31Z</time>
      </trkpt>
      <trkpt lat="45.483011" lon="6.843178">
        <ele>2130.483</ele>
        <time>2018-07-17T06:22:37Z</time>
      </trkpt>
      <trkpt lat="45.483054" lon="6.843206">
        <ele>2130.190</ele>
        <time>2018-07-17T06:22:42Z</time>
      </trkpt>
      <trkpt lat="45.483099" lon="6.843227">
        <ele>2130.422</ele>
        <time>2018-07-17T06:22:47Z</time>
      </trkpt>
      <trkpt lat="45.483147" lon="6.843233">
        <ele>2130.412</ele>
        <time>2018-07-17T06:22:52Z</time>
      </trkpt>
      <trkpt lat="45.483201" lon="6.843227">
        <ele>2130.753</ele>
        <time>2018-07-17T06:22:57Z</time>
      </trkpt>
      <trkpt lat="45.483251" lon="6.843234">
        <ele>2131.474</ele>
        <time>2018-07-17T06:23:02Z</time>
      </trkpt>
      <trkpt lat="45.483302" lon="6.843247">
        <ele>2131.256</ele>
        <time>2018-07-17T06:23:08Z</time>
      </trkpt>
      <trkpt lat="45.483350" lon="6.843276">
        <ele>2131.421</ele>
        <time>2018-07-17T06:23:14Z</time>
      </trkpt>
      <trkpt lat="45.483395" lon="6.843300">
        <ele>2131.708</ele>
        <time>2018-07-17T06:23:20Z</time>
      </trkpt>
      <trkpt lat="45.483442" lon="6.843319">
        <ele>2132.369</ele>
        <time>2018-07-17T06:23:26Z</time>
      </trkpt>
      <trkpt lat="45.483488" lon="6.843318">
        <ele>2133.643</ele>
        <time>2018-07-17T06:23:32Z</time>
      </trkpt>
      <trkpt lat="45.483536" lon="6.843317">
        <ele>2132.335</ele>
        <time>2018-07-17T06:23:38Z</time>
      </trkpt>
      <trkpt lat="45.483579" lon="6.843342">
        <ele>2133.811</ele>
        <time>2018-07-17T06:23:46Z</time>
      </trkpt>
      <trkpt lat="45.483624" lon="6.843347">
        <ele>2133.358</ele>
        <time>2018-07-17T06:23:52Z</time>
      </trkpt>
      <trkpt lat="45.483670" lon="6.843346">
        <ele>2133.020</ele>
        <time>2018-07-17T06:23:59Z</time>
      </trkpt>
      <trkpt lat="45.483715" lon="6.843359">
        <ele>2133.180</ele>
        <time>2018-07-17T06:24:18Z</time>
      </trkpt>
      <trkpt lat="45.483743" lon="6.843410">
        <ele>2135.951</ele>
        <time>2018-07-17T06:24:27Z</time>
      </trkpt>
      <trkpt lat="45.483791" lon="6.843417">
        <ele>2135.264</ele>
        <time>2018-07-17T06:24:37Z</time>
      </trkpt>
      <trkpt lat="45.483828" lon="6.843379">
        <ele>2134.206</ele>
        <time>2018-07-17T06:24:42Z</time>
      </trkpt>
      <trkpt lat="45.483862" lon="6.843334">
        <ele>2133.516</ele>
        <time>2018-07-17T06:24:48Z</time>
      </trkpt>
      <trkpt lat="45.483909" lon="6.843329">
        <ele>2134.208</ele>
        <time>2018-07-17T06:24:56Z</time>
      </trkpt>
      <trkpt lat="45.483959" lon="6.843307">
        <ele>2134.068</ele>
        <time>2018-07-17T06:25:03Z</time>
      </trkpt>
      <trkpt lat="45.484019" lon="6.843286">
        <ele>2135.062</ele>
        <time>2018-07-17T06:25:46Z</time>
      </trkpt>
      <trkpt lat="45.484066" lon="6.843323">
        <ele>2135.214</ele>
        <time>2018-07-17T06:25:56Z</time>
      </trkpt>
      <trkpt lat="45.484095" lon="6.843372">
        <ele>2134.680</ele>
        <time>2018-07-17T06:26:00Z</time>
      </trkpt>
      <trkpt lat="45.484137" lon="6.843409">
        <ele>2134.197</ele>
        <time>2018-07-17T06:26:05Z</time>
      </trkpt>
      <trkpt lat="45.484182" lon="6.843423">
        <ele>2134.449</ele>
        <time>2018-07-17T06:26:10Z</time>
      </trkpt>
      <trkpt lat="45.484231" lon="6.843410">
        <ele>2135.479</ele>
        <time>2018-07-17T06:26:16Z</time>
      </trkpt>
      <trkpt lat="45.484278" lon="6.843376">
        <ele>2136.010</ele>
        <time>2018-07-17T06:26:21Z</time>
      </trkpt>
      <trkpt lat="45.484333" lon="6.843384">
        <ele>2136.299</ele>
        <time>2018-07-17T06:26:27Z</time>
      </trkpt>
      <trkpt lat="45.484381" lon="6.843381">
        <ele>2135.707</ele>
        <time>2018-07-17T06:26:33Z</time>
      </trkpt>
      <trkpt lat="45.484425" lon="6.843360">
        <ele>2135.427</ele>
        <time>2018-07-17T06:26:39Z</time>
      </trkpt>
      <trkpt lat="45.484473" lon="6.843371">
        <ele>2135.108</ele>
        <time>2018-07-17T06:26:44Z</time>
      </trkpt>
      <trkpt lat="45.484519" lon="6.843369">
        <ele>2135.631</ele>
        <time>2018-07-17T06:26:50Z</time>
      </trkpt>
      <trkpt lat="45.484566" lon="6.843339">
        <ele>2136.475</ele>
        <time>2018-07-17T06:26:56Z</time>
      </trkpt>
      <trkpt lat="45.484611" lon="6.843351">
        <ele>2136.667</ele>
        <time>2018-07-17T06:27:02Z</time>
      </trkpt>
      <trkpt lat="45.484655" lon="6.843390">
        <ele>2137.043</ele>
        <time>2018-07-17T06:27:08Z</time>
      </trkpt>
      <trkpt lat="45.484702" lon="6.843392">
        <ele>2136.620</ele>
        <time>2018-07-17T06:27:13Z</time>
      </trkpt>
      <trkpt lat="45.484752" lon="6.843363">
        <ele>2136.242</ele>
        <time>2018-07-17T06:27:18Z</time>
      </trkpt>
      <trkpt lat="45.484806" lon="6.843362">
        <ele>2136.182</ele>
        <time>2018-07-17T06:27:23Z</time>
      </trkpt>
      <trkpt lat="45.484857" lon="6.843333">
        <ele>2135.653</ele>
        <time>2018-07-17T06:27:29Z</time>
      </trkpt>
      <trkpt lat="45.484907" lon="6.843310">
        <ele>2135.222</ele>
        <time>2018-07-17T06:27:34Z</time>
      </trkpt>
      <trkpt lat="45.484951" lon="6.843280">
        <ele>2135.262</ele>
        <time>2018-07-17T06:27:40Z</time>
      </trkpt>
      <trkpt lat="45.484984" lon="6.843223">
        <ele>2135.708</ele>
        <time>2018-07-17T06:27:45Z</time>
      </trkpt>
      <trkpt lat="45.485023" lon="6.843190">
        <ele>2135.108</ele>
        <time>2018-07-17T06:27:50Z</time>
      </trkpt>
      <trkpt lat="45.485073" lon="6.843176">
        <ele>2134.864</ele>
        <time>2018-07-17T06:27:56Z</time>
      </trkpt>
      <trkpt lat="45.485125" lon="6.843173">
        <ele>2135.048</ele>
        <time>2018-07-17T06:28:02Z</time>
      </trkpt>
      <trkpt lat="45.485174" lon="6.843181">
        <ele>2135.170</ele>
        <time>2018-07-17T06:28:08Z</time>
      </trkpt>
      <trkpt lat="45.485222" lon="6.843177">
        <ele>2135.016</ele>
        <time>2018-07-17T06:28:13Z</time>
      </trkpt>
      <trkpt lat="45.485265" lon="6.843136">
        <ele>2134.223</ele>
        <time>2018-07-17T06:28:19Z</time>
      </trkpt>
      <trkpt lat="45.485308" lon="6.843099">
        <ele>2134.485</ele>
        <time>2018-07-17T06:28:24Z</time>
      </trkpt>
      <trkpt lat="45.485355" lon="6.843083">
        <ele>2134.125</ele>
        <time>2018-07-17T06:28:30Z</time>
      </trkpt>
      <trkpt lat="45.485392" lon="6.843039">
        <ele>2134.436</ele>
        <time>2018-07-17T06:28:38Z</time>
      </trkpt>
      <trkpt lat="45.485426" lon="6.842995">
        <ele>2135.089</ele>
        <time>2018-07-17T06:28:43Z</time>
      </trkpt>
      <trkpt lat="45.485472" lon="6.842973">
        <ele>2133.506</ele>
        <time>2018-07-17T06:28:48Z</time>
      </trkpt>
      <trkpt lat="45.485518" lon="6.842966">
        <ele>2133.626</ele>
        <time>2018-07-17T06:28:54Z</time>
      </trkpt>
      <trkpt lat="45.485556" lon="6.842931">
        <ele>2134.308</ele>
        <time>2018-07-17T06:28:59Z</time>
      </trkpt>
      <trkpt lat="45.485605" lon="6.842911">
        <ele>2133.610</ele>
        <time>2018-07-17T06:29:05Z</time>
      </trkpt>
      <trkpt lat="45.485646" lon="6.842877">
        <ele>2133.934</ele>
        <time>2018-07-17T06:29:10Z</time>
      </trkpt>
      <trkpt lat="45.485688" lon="6.842824">
        <ele>2133.256</ele>
        <time>2018-07-17T06:29:15Z</time>
      </trkpt>
      <trkpt lat="45.485719" lon="6.842771">
        <ele>2132.112</ele>
        <time>2018-07-17T06:29:20Z</time>
      </trkpt>
      <trkpt lat="45.485747" lon="6.842719">
        <ele>2131.289</ele>
        <time>2018-07-17T06:29:25Z</time>
      </trkpt>
      <trkpt lat="45.485784" lon="6.842669">
        <ele>2130.621</ele>
        <time>2018-07-17T06:29:30Z</time>
      </trkpt>
      <trkpt lat="45.485814" lon="6.842620">
        <ele>2130.771</ele>
        <time>2018-07-17T06:29:34Z</time>
      </trkpt>
      <trkpt lat="45.485841" lon="6.842557">
        <ele>2132.272</ele>
        <time>2018-07-17T06:29:40Z</time>
      </trkpt>
      <trkpt lat="45.485885" lon="6.842533">
        <ele>2134.823</ele>
        <time>2018-07-17T06:30:00Z</time>
      </trkpt>
      <trkpt lat="45.485929" lon="6.842493">
        <ele>2134.983</ele>
        <time>2018-07-17T06:30:06Z</time>
      </trkpt>
      <trkpt lat="45.485973" lon="6.842480">
        <ele>2135.611</ele>
        <time>2018-07-17T06:30:15Z</time>
      </trkpt>
      <trkpt lat="45.486007" lon="6.842525">
        <ele>2137.108</ele>
        <time>2018-07-17T06:30:23Z</time>
      </trkpt>
      <trkpt lat="45.486055" lon="6.842544">
        <ele>2135.614</ele>
        <time>2018-07-17T06:30:32Z</time>
      </trkpt>
      <trkpt lat="45.486098" lon="6.842565">
        <ele>2137.018</ele>
        <time>2018-07-17T06:30:41Z</time>
      </trkpt>
      <trkpt lat="45.486137" lon="6.842604">
        <ele>2139.080</ele>
        <time>2018-07-17T06:30:52Z</time>
      </trkpt>
      <trkpt lat="45.486184" lon="6.842592">
        <ele>2139.856</ele>
        <time>2018-07-17T06:31:00Z</time>
      </trkpt>
      <trkpt lat="45.486235" lon="6.842602">
        <ele>2139.933</ele>
        <time>2018-07-17T06:31:07Z</time>
      </trkpt>
      <trkpt lat="45.486282" lon="6.842594">
        <ele>2139.915</ele>
        <time>2018-07-17T06:31:14Z</time>
      </trkpt>
      <trkpt lat="45.486317" lon="6.842638">
        <ele>2140.765</ele>
        <time>2018-07-17T06:31:23Z</time>
      </trkpt>
      <trkpt lat="45.486359" lon="6.842665">
        <ele>2143.166</ele>
        <time>2018-07-17T06:31:36Z</time>
      </trkpt>
      <trkpt lat="45.486408" lon="6.842657">
        <ele>2144.868</ele>
        <time>2018-07-17T06:31:51Z</time>
      </trkpt>
      <trkpt lat="45.486451" lon="6.842621">
        <ele>2145.442</ele>
        <time>2018-07-17T06:31:58Z</time>
      </trkpt>
      <trkpt lat="45.486480" lon="6.842569">
        <ele>2145.926</ele>
        <time>2018-07-17T06:32:05Z</time>
      </trkpt>
      <trkpt lat="45.486529" lon="6.842582">
        <ele>2146.308</ele>
        <time>2018-07-17T06:32:13Z</time>
      </trkpt>
      <trkpt lat="45.486561" lon="6.842631">
        <ele>2146.338</ele>
        <time>2018-07-17T06:32:19Z</time>
      </trkpt>
      <trkpt lat="45.486607" lon="6.842641">
        <ele>2146.272</ele>
        <time>2018-07-17T06:32:24Z</time>
      </trkpt>
      <trkpt lat="45.486652" lon="6.842651">
        <ele>2147.044</ele>
        <time>2018-07-17T06:32:29Z</time>
      </trkpt>
      <trkpt lat="45.486699" lon="6.842647">
        <ele>2147.730</ele>
        <time>2018-07-17T06:32:36Z</time>
      </trkpt>
      <trkpt lat="45.486745" lon="6.842637">
        <ele>2148.427</ele>
        <time>2018-07-17T06:32:43Z</time>
      </trkpt>
      <trkpt lat="45.486790" lon="6.842625">
        <ele>2149.219</ele>
        <time>2018-07-17T06:32:50Z</time>
      </trkpt>
      <trkpt lat="45.486834" lon="6.842597">
        <ele>2150.169</ele>
        <time>2018-07-17T06:32:59Z</time>
      </trkpt>
      <trkpt lat="45.486877" lon="6.842556">
        <ele>2151.170</ele>
        <time>2018-07-17T06:33:05Z</time>
      </trkpt>
      <trkpt lat="45.486925" lon="6.842529">
        <ele>2150.756</ele>
        <time>2018-07-17T06:33:11Z</time>
      </trkpt>
      <trkpt lat="45.486965" lon="6.842497">
        <ele>2150.359</ele>
        <time>2018-07-17T06:33:16Z</time>
      </trkpt>
      <trkpt lat="45.487006" lon="6.842453">
        <ele>2150.314</ele>
        <time>2018-07-17T06:33:21Z</time>
      </trkpt>
      <trkpt lat="45.487048" lon="6.842413">
        <ele>2150.008</ele>
        <time>2018-07-17T06:33:26Z</time>
      </trkpt>
      <trkpt lat="45.487098" lon="6.842396">
        <ele>2150.437</ele>
        <time>2018-07-17T06:33:32Z</time>
      </trkpt>
      <trkpt lat="45.487150" lon="6.842379">
        <ele>2150.671</ele>
        <time>2018-07-17T06:33:38Z</time>
      </trkpt>
      <trkpt lat="45.487201" lon="6.842363">
        <ele>2153.113</ele>
        <time>2018-07-17T06:33:43Z</time>
      </trkpt>
      <trkpt lat="45.487251" lon="6.842346">
        <ele>2151.129</ele>
        <time>2018-07-17T06:33:49Z</time>
      </trkpt>
      <trkpt lat="45.487303" lon="6.842328">
        <ele>2151.776</ele>
        <time>2018-07-17T06:33:55Z</time>
      </trkpt>
      <trkpt lat="45.487351" lon="6.842334">
        <ele>2152.028</ele>
        <time>2018-07-17T06:34:01Z</time>
      </trkpt>
      <trkpt lat="45.487399" lon="6.842339">
        <ele>2153.188</ele>
        <time>2018-07-17T06:34:08Z</time>
      </trkpt>
      <trkpt lat="45.487444" lon="6.842329">
        <ele>2153.019</ele>
        <time>2018-07-17T06:34:13Z</time>
      </trkpt>
      <trkpt lat="45.487491" lon="6.842323">
        <ele>2153.274</ele>
        <time>2018-07-17T06:34:18Z</time>
      </trkpt>
      <trkpt lat="45.487537" lon="6.842313">
        <ele>2153.756</ele>
        <time>2018-07-17T06:34:24Z</time>
      </trkpt>
      <trkpt lat="45.487585" lon="6.842335">
        <ele>2154.521</ele>
        <time>2018-07-17T06:34:30Z</time>
      </trkpt>
      <trkpt lat="45.487632" lon="6.842338">
        <ele>2154.408</ele>
        <time>2018-07-17T06:34:36Z</time>
      </trkpt>
      <trkpt lat="45.487678" lon="6.842355">
        <ele>2154.699</ele>
        <time>2018-07-17T06:34:42Z</time>
      </trkpt>
      <trkpt lat="45.487725" lon="6.842342">
        <ele>2155.753</ele>
        <time>2018-07-17T06:34:59Z</time>
      </trkpt>
      <trkpt lat="45.487771" lon="6.842363">
        <ele>2155.235</ele>
        <time>2018-07-17T06:35:07Z</time>
      </trkpt>
      <trkpt lat="45.487817" lon="6.842360">
        <ele>2155.831</ele>
        <time>2018-07-17T06:35:12Z</time>
      </trkpt>
      <trkpt lat="45.487864" lon="6.842362">
        <ele>2157.188</ele>
        <time>2018-07-17T06:35:19Z</time>
      </trkpt>
      <trkpt lat="45.487913" lon="6.842345">
        <ele>2157.280</ele>
        <time>2018-07-17T06:35:27Z</time>
      </trkpt>
      <trkpt lat="45.487964" lon="6.842333">
        <ele>2157.750</ele>
        <time>2018-07-17T06:35:34Z</time>
      </trkpt>
      <trkpt lat="45.488017" lon="6.842303">
        <ele>2157.571</ele>
        <time>2018-07-17T06:35:39Z</time>
      </trkpt>
      <trkpt lat="45.488070" lon="6.842286">
        <ele>2157.649</ele>
        <time>2018-07-17T06:35:44Z</time>
      </trkpt>
      <trkpt lat="45.488119" lon="6.842289">
        <ele>2157.402</ele>
        <time>2018-07-17T06:35:49Z</time>
      </trkpt>
      <trkpt lat="45.488160" lon="6.842332">
        <ele>2156.622</ele>
        <time>2018-07-17T06:35:55Z</time>
      </trkpt>
      <trkpt lat="45.488181" lon="6.842400">
        <ele>2156.808</ele>
        <time>2018-07-17T06:36:00Z</time>
      </trkpt>
      <trkpt lat="45.488223" lon="6.842446">
        <ele>2156.816</ele>
        <time>2018-07-17T06:36:05Z</time>
      </trkpt>
      <trkpt lat="45.488264" lon="6.842476">
        <ele>2156.510</ele>
        <time>2018-07-17T06:36:10Z</time>
      </trkpt>
      <trkpt lat="45.488319" lon="6.842476">
        <ele>2156.932</ele>
        <time>2018-07-17T06:36:15Z</time>
      </trkpt>
      <trkpt lat="45.488372" lon="6.842483">
        <ele>2157.568</ele>
        <time>2018-07-17T06:36:21Z</time>
      </trkpt>
      <trkpt lat="45.488422" lon="6.842492">
        <ele>2157.555</ele>
        <time>2018-07-17T06:36:26Z</time>
      </trkpt>
      <trkpt lat="45.488471" lon="6.842518">
        <ele>2157.787</ele>
        <time>2018-07-17T06:36:32Z</time>
      </trkpt>
      <trkpt lat="45.488520" lon="6.842534">
        <ele>2158.527</ele>
        <time>2018-07-17T06:36:38Z</time>
      </trkpt>
      <trkpt lat="45.488566" lon="6.842549">
        <ele>2159.218</ele>
        <time>2018-07-17T06:36:46Z</time>
      </trkpt>
      <trkpt lat="45.488604" lon="6.842587">
        <ele>2158.481</ele>
        <time>2018-07-17T06:36:52Z</time>
      </trkpt>
      <trkpt lat="45.488654" lon="6.842613">
        <ele>2159.061</ele>
        <time>2018-07-17T06:36:58Z</time>
      </trkpt>
      <trkpt lat="45.488703" lon="6.842635">
        <ele>2159.017</ele>
        <time>2018-07-17T06:37:04Z</time>
      </trkpt>
      <trkpt lat="45.488757" lon="6.842645">
        <ele>2158.908</ele>
        <time>2018-07-17T06:37:10Z</time>
      </trkpt>
      <trkpt lat="45.488806" lon="6.842660">
        <ele>2159.830</ele>
        <time>2018-07-17T06:37:16Z</time>
      </trkpt>
      <trkpt lat="45.488846" lon="6.842628">
        <ele>2159.664</ele>
        <time>2018-07-17T06:37:22Z</time>
      </trkpt>
      <trkpt lat="45.488877" lon="6.842574">
        <ele>2159.646</ele>
        <time>2018-07-17T06:37:26Z</time>
      </trkpt>
      <trkpt lat="45.488914" lon="6.842528">
        <ele>2159.972</ele>
        <time>2018-07-17T06:37:33Z</time>
      </trkpt>
      <trkpt lat="45.488959" lon="6.842501">
        <ele>2160.049</ele>
        <time>2018-07-17T06:37:39Z</time>
      </trkpt>
      <trkpt lat="45.489007" lon="6.842475">
        <ele>2160.961</ele>
        <time>2018-07-17T06:37:47Z</time>
      </trkpt>
      <trkpt lat="45.489057" lon="6.842471">
        <ele>2161.771</ele>
        <time>2018-07-17T06:37:54Z</time>
      </trkpt>
      <trkpt lat="45.489108" lon="6.842494">
        <ele>2162.132</ele>
        <time>2018-07-17T06:38:00Z</time>
      </trkpt>
      <trkpt lat="45.489156" lon="6.842472">
        <ele>2162.319</ele>
        <time>2018-07-17T06:38:06Z</time>
      </trkpt>
      <trkpt lat="45.489206" lon="6.842451">
        <ele>2162.009</ele>
        <time>2018-07-17T06:38:11Z</time>
      </trkpt>
      <trkpt lat="45.489255" lon="6.842453">
        <ele>2162.519</ele>
        <time>2018-07-17T06:38:18Z</time>
      </trkpt>
      <trkpt lat="45.489303" lon="6.842443">
        <ele>2162.508</ele>
        <time>2018-07-17T06:38:25Z</time>
      </trkpt>
      <trkpt lat="45.489307" lon="6.842373">
        <ele>2163.183</ele>
        <time>2018-07-17T06:38:42Z</time>
      </trkpt>
      <trkpt lat="45.489306" lon="6.842306">
        <ele>2159.257</ele>
        <time>2018-07-17T06:38:49Z</time>
      </trkpt>
      <trkpt lat="45.489348" lon="6.842275">
        <ele>2157.549</ele>
        <time>2018-07-17T06:38:57Z</time>
      </trkpt>
      <trkpt lat="45.489399" lon="6.842294">
        <ele>2157.625</ele>
        <time>2018-07-17T06:39:02Z</time>
      </trkpt>
      <trkpt lat="45.489451" lon="6.842288">
        <ele>2157.832</ele>
        <time>2018-07-17T06:39:07Z</time>
      </trkpt>
      <trkpt lat="45.489503" lon="6.842302">
        <ele>2157.034</ele>
        <time>2018-07-17T06:39:13Z</time>
      </trkpt>
      <trkpt lat="45.489553" lon="6.842305">
        <ele>2155.954</ele>
        <time>2018-07-17T06:39:22Z</time>
      </trkpt>
      <trkpt lat="45.489592" lon="6.842346">
        <ele>2155.545</ele>
        <time>2018-07-17T06:39:28Z</time>
      </trkpt>
      <trkpt lat="45.489636" lon="6.842372">
        <ele>2155.548</ele>
        <time>2018-07-17T06:39:33Z</time>
      </trkpt>
      <trkpt lat="45.489679" lon="6.842409">
        <ele>2156.061</ele>
        <time>2018-07-17T06:39:39Z</time>
      </trkpt>
      <trkpt lat="45.489719" lon="6.842452">
        <ele>2157.517</ele>
        <time>2018-07-17T06:39:47Z</time>
      </trkpt>
      <trkpt lat="45.489753" lon="6.842505">
        <ele>2158.508</ele>
        <time>2018-07-17T06:39:53Z</time>
      </trkpt>
      <trkpt lat="45.489797" lon="6.842560">
        <ele>2159.626</ele>
        <time>2018-07-17T06:40:05Z</time>
      </trkpt>
      <trkpt lat="45.489803" lon="6.842572">
        <ele>2159.230</ele>
        <time>2018-07-17T06:41:03Z</time>
      </trkpt>
      <trkpt lat="45.489834" lon="6.842626">
        <ele>2175.592</ele>
        <time>2018-07-17T06:41:26Z</time>
      </trkpt>
      <trkpt lat="45.489788" lon="6.842650">
        <ele>2191.988</ele>
        <time>2018-07-17T06:41:36Z</time>
      </trkpt>
      <trkpt lat="45.489745" lon="6.842680">
        <ele>2207.915</ele>
        <time>2018-07-17T06:41:47Z</time>
      </trkpt>
      <trkpt lat="45.489702" lon="6.842707">
        <ele>2223.517</ele>
        <time>2018-07-17T06:41:58Z</time>
      </trkpt>
      <trkpt lat="45.489654" lon="6.842734">
        <ele>2225.367</ele>
        <time>2018-07-17T06:42:09Z</time>
      </trkpt>
      <trkpt lat="45.489607" lon="6.842759">
        <ele>2225.378</ele>
        <time>2018-07-17T06:42:18Z</time>
      </trkpt>
      <trkpt lat="45.489566" lon="6.842787">
        <ele>2225.781</ele>
        <time>2018-07-17T06:42:29Z</time>
      </trkpt>
      <trkpt lat="45.489518" lon="6.842815">
        <ele>2227.161</ele>
        <time>2018-07-17T06:42:37Z</time>
      </trkpt>
      <trkpt lat="45.489479" lon="6.842857">
        <ele>2228.417</ele>
        <time>2018-07-17T06:42:48Z</time>
      </trkpt>
      <trkpt lat="45.489434" lon="6.842870">
        <ele>2229.208</ele>
        <time>2018-07-17T06:43:02Z</time>
      </trkpt>
      <trkpt lat="45.489390" lon="6.842895">
        <ele>2230.180</ele>
        <time>2018-07-17T06:43:15Z</time>
      </trkpt>
      <trkpt lat="45.489341" lon="6.842904">
        <ele>2230.664</ele>
        <time>2018-07-17T06:43:26Z</time>
      </trkpt>
      <trkpt lat="45.489294" lon="6.842911">
        <ele>2231.356</ele>
        <time>2018-07-17T06:43:34Z</time>
      </trkpt>
      <trkpt lat="45.489249" lon="6.842915">
        <ele>2232.112</ele>
        <time>2018-07-17T06:43:40Z</time>
      </trkpt>
      <trkpt lat="45.489198" lon="6.842914">
        <ele>2232.629</ele>
        <time>2018-07-17T06:43:46Z</time>
      </trkpt>
      <trkpt lat="45.489153" lon="6.842920">
        <ele>2232.531</ele>
        <time>2018-07-17T06:43:54Z</time>
      </trkpt>
      <trkpt lat="45.489104" lon="6.842937">
        <ele>2232.481</ele>
        <time>2018-07-17T06:44:05Z</time>
      </trkpt>
      <trkpt lat="45.489063" lon="6.842974">
        <ele>2233.262</ele>
        <time>2018-07-17T06:44:14Z</time>
      </trkpt>
      <trkpt lat="45.489017" lon="6.842985">
        <ele>2234.537</ele>
        <time>2018-07-17T06:44:20Z</time>
      </trkpt>
      <trkpt lat="45.488965" lon="6.842991">
        <ele>2235.749</ele>
        <time>2018-07-17T06:44:26Z</time>
      </trkpt>
      <trkpt lat="45.488918" lon="6.843017">
        <ele>2236.413</ele>
        <time>2018-07-17T06:44:33Z</time>
      </trkpt>
      <trkpt lat="45.488875" lon="6.843049">
        <ele>2237.208</ele>
        <time>2018-07-17T06:44:41Z</time>
      </trkpt>
      <trkpt lat="45.488831" lon="6.843069">
        <ele>2238.535</ele>
        <time>2018-07-17T06:44:48Z</time>
      </trkpt>
      <trkpt lat="45.488794" lon="6.843108">
        <ele>2239.359</ele>
        <time>2018-07-17T06:44:56Z</time>
      </trkpt>
      <trkpt lat="45.488761" lon="6.843161">
        <ele>2240.251</ele>
        <time>2018-07-17T06:45:06Z</time>
      </trkpt>
      <trkpt lat="45.488727" lon="6.843207">
        <ele>2241.177</ele>
        <time>2018-07-17T06:45:15Z</time>
      </trkpt>
      <trkpt lat="45.488692" lon="6.843251">
        <ele>2242.124</ele>
        <time>2018-07-17T06:45:26Z</time>
      </trkpt>
      <trkpt lat="45.488654" lon="6.843290">
        <ele>2242.356</ele>
        <time>2018-07-17T06:45:39Z</time>
      </trkpt>
      <trkpt lat="45.488619" lon="6.843342">
        <ele>2243.646</ele>
        <time>2018-07-17T06:45:46Z</time>
      </trkpt>
      <trkpt lat="45.488587" lon="6.843398">
        <ele>2245.267</ele>
        <time>2018-07-17T06:45:55Z</time>
      </trkpt>
      <trkpt lat="45.488537" lon="6.843414">
        <ele>2246.124</ele>
        <time>2018-07-17T06:46:03Z</time>
      </trkpt>
      <trkpt lat="45.488492" lon="6.843411">
        <ele>2246.704</ele>
        <time>2018-07-17T06:46:10Z</time>
      </trkpt>
      <trkpt lat="45.488447" lon="6.843436">
        <ele>2247.414</ele>
        <time>2018-07-17T06:46:48Z</time>
      </trkpt>
      <trkpt lat="45.488404" lon="6.843467">
        <ele>2248.608</ele>
        <time>2018-07-17T06:46:59Z</time>
      </trkpt>
      <trkpt lat="45.488358" lon="6.843474">
        <ele>2248.934</ele>
        <time>2018-07-17T06:47:09Z</time>
      </trkpt>
      <trkpt lat="45.488306" lon="6.843465">
        <ele>2249.598</ele>
        <time>2018-07-17T06:47:19Z</time>
      </trkpt>
      <trkpt lat="45.488266" lon="6.843497">
        <ele>2251.120</ele>
        <time>2018-07-17T06:47:25Z</time>
      </trkpt>
      <trkpt lat="45.488225" lon="6.843532">
        <ele>2252.046</ele>
        <time>2018-07-17T06:47:31Z</time>
      </trkpt>
      <trkpt lat="45.488176" lon="6.843530">
        <ele>2252.613</ele>
        <time>2018-07-17T06:47:40Z</time>
      </trkpt>
      <trkpt lat="45.488125" lon="6.843550">
        <ele>2254.155</ele>
        <time>2018-07-17T06:47:48Z</time>
      </trkpt>
      <trkpt lat="45.488080" lon="6.843580">
        <ele>2255.455</ele>
        <time>2018-07-17T06:47:53Z</time>
      </trkpt>
      <trkpt lat="45.488035" lon="6.843596">
        <ele>2256.646</ele>
        <time>2018-07-17T06:47:59Z</time>
      </trkpt>
      <trkpt lat="45.487987" lon="6.843620">
        <ele>2257.741</ele>
        <time>2018-07-17T06:48:05Z</time>
      </trkpt>
      <trkpt lat="45.487945" lon="6.843646">
        <ele>2258.481</ele>
        <time>2018-07-17T06:48:10Z</time>
      </trkpt>
      <trkpt lat="45.487905" lon="6.843679">
        <ele>2259.209</ele>
        <time>2018-07-17T06:48:15Z</time>
      </trkpt>
      <trkpt lat="45.487861" lon="6.843709">
        <ele>2259.708</ele>
        <time>2018-07-17T06:48:21Z</time>
      </trkpt>
      <trkpt lat="45.487816" lon="6.843725">
        <ele>2259.256</ele>
        <time>2018-07-17T06:48:28Z</time>
      </trkpt>
      <trkpt lat="45.487767" lon="6.843742">
        <ele>2258.940</ele>
        <time>2018-07-17T06:48:33Z</time>
      </trkpt>
      <trkpt lat="45.487714" lon="6.843739">
        <ele>2258.382</ele>
        <time>2018-07-17T06:48:39Z</time>
      </trkpt>
      <trkpt lat="45.487662" lon="6.843738">
        <ele>2257.518</ele>
        <time>2018-07-17T06:48:45Z</time>
      </trkpt>
      <trkpt lat="45.487607" lon="6.843751">
        <ele>2258.615</ele>
        <time>2018-07-17T06:48:51Z</time>
      </trkpt>
      <trkpt lat="45.487557" lon="6.843759">
        <ele>2259.397</ele>
        <time>2018-07-17T06:48:56Z</time>
      </trkpt>
      <trkpt lat="45.487513" lon="6.843782">
        <ele>2260.167</ele>
        <time>2018-07-17T06:49:01Z</time>
      </trkpt>
      <trkpt lat="45.487464" lon="6.843799">
        <ele>2261.488</ele>
        <time>2018-07-17T06:49:09Z</time>
      </trkpt>
      <trkpt lat="45.487417" lon="6.843814">
        <ele>2263.012</ele>
        <time>2018-07-17T06:49:15Z</time>
      </trkpt>
      <trkpt lat="45.487369" lon="6.843825">
        <ele>2264.332</ele>
        <time>2018-07-17T06:49:20Z</time>
      </trkpt>
      <trkpt lat="45.487315" lon="6.843834">
        <ele>2265.505</ele>
        <time>2018-07-17T06:49:25Z</time>
      </trkpt>
      <trkpt lat="45.487270" lon="6.843846">
        <ele>2266.608</ele>
        <time>2018-07-17T06:49:30Z</time>
      </trkpt>
      <trkpt lat="45.487225" lon="6.843866">
        <ele>2266.933</ele>
        <time>2018-07-17T06:49:36Z</time>
      </trkpt>
      <trkpt lat="45.487173" lon="6.843885">
        <ele>2267.567</ele>
        <time>2018-07-17T06:49:42Z</time>
      </trkpt>
      <trkpt lat="45.487128" lon="6.843899">
        <ele>2266.299</ele>
        <time>2018-07-17T06:49:50Z</time>
      </trkpt>
      <trkpt lat="45.487077" lon="6.843920">
        <ele>2265.425</ele>
        <time>2018-07-17T06:49:57Z</time>
      </trkpt>
      <trkpt lat="45.487035" lon="6.843956">
        <ele>2264.122</ele>
        <time>2018-07-17T06:50:04Z</time>
      </trkpt>
      <trkpt lat="45.486990" lon="6.843976">
        <ele>2262.524</ele>
        <time>2018-07-17T06:50:12Z</time>
      </trkpt>
      <trkpt lat="45.486942" lon="6.843991">
        <ele>2260.894</ele>
        <time>2018-07-17T06:50:18Z</time>
      </trkpt>
      <trkpt lat="45.486892" lon="6.844002">
        <ele>2261.875</ele>
        <time>2018-07-17T06:50:24Z</time>
      </trkpt>
      <trkpt lat="45.486845" lon="6.843970">
        <ele>2262.076</ele>
        <time>2018-07-17T06:50:31Z</time>
      </trkpt>
      <trkpt lat="45.486800" lon="6.843949">
        <ele>2263.390</ele>
        <time>2018-07-17T06:50:36Z</time>
      </trkpt>
      <trkpt lat="45.486756" lon="6.843931">
        <ele>2264.519</ele>
        <time>2018-07-17T06:50:43Z</time>
      </trkpt>
      <trkpt lat="45.486709" lon="6.843918">
        <ele>2264.408</ele>
        <time>2018-07-17T06:50:51Z</time>
      </trkpt>
      <trkpt lat="45.486659" lon="6.843933">
        <ele>2264.329</ele>
        <time>2018-07-17T06:50:59Z</time>
      </trkpt>
      <trkpt lat="45.486620" lon="6.843972">
        <ele>2263.533</ele>
        <time>2018-07-17T06:51:26Z</time>
      </trkpt>
      <trkpt lat="45.486611" lon="6.844044">
        <ele>2264.285</ele>
        <time>2018-07-17T06:51:34Z</time>
      </trkpt>
      <trkpt lat="45.486585" lon="6.844105">
        <ele>2265.451</ele>
        <time>2018-07-17T06:51:47Z</time>
      </trkpt>
      <trkpt lat="45.486547" lon="6.844141">
        <ele>2266.588</ele>
        <time>2018-07-17T06:52:00Z</time>
      </trkpt>
      <trkpt lat="45.486497" lon="6.844136">
        <ele>2268.050</ele>
        <time>2018-07-17T06:52:06Z</time>
      </trkpt>
      <trkpt lat="45.486452" lon="6.844164">
        <ele>2268.960</ele>
        <time>2018-07-17T06:52:12Z</time>
      </trkpt>
      <trkpt lat="45.486414" lon="6.844204">
        <ele>2269.871</ele>
        <time>2018-07-17T06:52:19Z</time>
      </trkpt>
      <trkpt lat="45.486379" lon="6.844246">
        <ele>2270.852</ele>
        <time>2018-07-17T06:52:26Z</time>
      </trkpt>
      <trkpt lat="45.486336" lon="6.844293">
        <ele>2272.253</ele>
        <time>2018-07-17T06:52:32Z</time>
      </trkpt>
      <trkpt lat="45.486290" lon="6.844297">
        <ele>2273.408</ele>
        <time>2018-07-17T06:52:37Z</time>
      </trkpt>
      <trkpt lat="45.486250" lon="6.844255">
        <ele>2273.708</ele>
        <time>2018-07-17T06:52:45Z</time>
      </trkpt>
      <trkpt lat="45.486215" lon="6.844212">
        <ele>2273.537</ele>
        <time>2018-07-17T06:52:53Z</time>
      </trkpt>
      <trkpt lat="45.486167" lon="6.844228">
        <ele>2273.881</ele>
        <time>2018-07-17T06:53:00Z</time>
      </trkpt>
      <trkpt lat="45.486124" lon="6.844268">
        <ele>2274.053</ele>
        <time>2018-07-17T06:53:06Z</time>
      </trkpt>
      <trkpt lat="45.486092" lon="6.844317">
        <ele>2275.319</ele>
        <time>2018-07-17T06:53:22Z</time>
      </trkpt>
      <trkpt lat="45.486079" lon="6.844382">
        <ele>2276.556</ele>
        <time>2018-07-17T06:53:36Z</time>
      </trkpt>
      <trkpt lat="45.486116" lon="6.844427">
        <ele>2277.678</ele>
        <time>2018-07-17T06:53:49Z</time>
      </trkpt>
      <trkpt lat="45.486163" lon="6.844444">
        <ele>2279.148</ele>
        <time>2018-07-17T06:54:00Z</time>
      </trkpt>
      <trkpt lat="45.486207" lon="6.844468">
        <ele>2280.869</ele>
        <time>2018-07-17T06:54:09Z</time>
      </trkpt>
      <trkpt lat="45.486252" lon="6.844490">
        <ele>2283.486</ele>
        <time>2018-07-17T06:54:16Z</time>
      </trkpt>
      <trkpt lat="45.486295" lon="6.844522">
        <ele>2285.460</ele>
        <time>2018-07-17T06:54:21Z</time>
      </trkpt>
      <trkpt lat="45.486333" lon="6.844571">
        <ele>2286.226</ele>
        <time>2018-07-17T06:54:27Z</time>
      </trkpt>
      <trkpt lat="45.486361" lon="6.844637">
        <ele>2286.708</ele>
        <time>2018-07-17T06:54:33Z</time>
      </trkpt>
      <trkpt lat="45.486341" lon="6.844703">
        <ele>2285.090</ele>
        <time>2018-07-17T06:54:42Z</time>
      </trkpt>
      <trkpt lat="45.486355" lon="6.844768">
        <ele>2282.844</ele>
        <time>2018-07-17T06:54:50Z</time>
      </trkpt>
      <trkpt lat="45.486356" lon="6.844839">
        <ele>2280.786</ele>
        <time>2018-07-17T06:54:55Z</time>
      </trkpt>
      <trkpt lat="45.486357" lon="6.844913">
        <ele>2279.462</ele>
        <time>2018-07-17T06:55:00Z</time>
      </trkpt>
      <trkpt lat="45.486347" lon="6.844983">
        <ele>2278.289</ele>
        <time>2018-07-17T06:55:05Z</time>
      </trkpt>
      <trkpt lat="45.486327" lon="6.845051">
        <ele>2277.541</ele>
        <time>2018-07-17T06:55:10Z</time>
      </trkpt>
      <trkpt lat="45.486299" lon="6.845110">
        <ele>2277.171</ele>
        <time>2018-07-17T06:55:15Z</time>
      </trkpt>
      <trkpt lat="45.486270" lon="6.845164">
        <ele>2276.812</ele>
        <time>2018-07-17T06:55:20Z</time>
      </trkpt>
      <trkpt lat="45.486231" lon="6.845211">
        <ele>2276.678</ele>
        <time>2018-07-17T06:55:25Z</time>
      </trkpt>
      <trkpt lat="45.486189" lon="6.845262">
        <ele>2276.133</ele>
        <time>2018-07-17T06:55:30Z</time>
      </trkpt>
      <trkpt lat="45.486153" lon="6.845301">
        <ele>2275.826</ele>
        <time>2018-07-17T06:55:34Z</time>
      </trkpt>
      <trkpt lat="45.486119" lon="6.845345">
        <ele>2275.608</ele>
        <time>2018-07-17T06:55:38Z</time>
      </trkpt>
      <trkpt lat="45.486083" lon="6.845389">
        <ele>2275.549</ele>
        <time>2018-07-17T06:55:42Z</time>
      </trkpt>
      <trkpt lat="45.486041" lon="6.845435">
        <ele>2275.493</ele>
        <time>2018-07-17T06:55:47Z</time>
      </trkpt>
      <trkpt lat="45.486007" lon="6.845481">
        <ele>2276.215</ele>
        <time>2018-07-17T06:55:51Z</time>
      </trkpt>
      <trkpt lat="45.485974" lon="6.845533">
        <ele>2276.791</ele>
        <time>2018-07-17T06:55:56Z</time>
      </trkpt>
      <trkpt lat="45.485926" lon="6.845571">
        <ele>2276.628</ele>
        <time>2018-07-17T06:56:01Z</time>
      </trkpt>
      <trkpt lat="45.485878" lon="6.845603">
        <ele>2276.530</ele>
        <time>2018-07-17T06:56:06Z</time>
      </trkpt>
      <trkpt lat="45.485833" lon="6.845642">
        <ele>2276.150</ele>
        <time>2018-07-17T06:56:11Z</time>
      </trkpt>
      <trkpt lat="45.485795" lon="6.845685">
        <ele>2276.241</ele>
        <time>2018-07-17T06:56:16Z</time>
      </trkpt>
      <trkpt lat="45.485760" lon="6.845728">
        <ele>2276.791</ele>
        <time>2018-07-17T06:56:21Z</time>
      </trkpt>
      <trkpt lat="45.485724" lon="6.845776">
        <ele>2277.081</ele>
        <time>2018-07-17T06:56:26Z</time>
      </trkpt>
      <trkpt lat="45.485678" lon="6.845817">
        <ele>2278.019</ele>
        <time>2018-07-17T06:56:31Z</time>
      </trkpt>
      <trkpt lat="45.485633" lon="6.845824">
        <ele>2277.808</ele>
        <time>2018-07-17T06:56:37Z</time>
      </trkpt>
      <trkpt lat="45.485584" lon="6.845830">
        <ele>2277.721</ele>
        <time>2018-07-17T06:56:44Z</time>
      </trkpt>
      <trkpt lat="45.485551" lon="6.845889">
        <ele>2277.625</ele>
        <time>2018-07-17T06:56:50Z</time>
      </trkpt>
      <trkpt lat="45.485501" lon="6.845927">
        <ele>2278.037</ele>
        <time>2018-07-17T06:56:55Z</time>
      </trkpt>
      <trkpt lat="45.485453" lon="6.845963">
        <ele>2278.643</ele>
        <time>2018-07-17T06:57:00Z</time>
      </trkpt>
      <trkpt lat="45.485409" lon="6.845989">
        <ele>2278.660</ele>
        <time>2018-07-17T06:57:05Z</time>
      </trkpt>
      <trkpt lat="45.485366" lon="6.846014">
        <ele>2279.822</ele>
        <time>2018-07-17T06:57:09Z</time>
      </trkpt>
      <trkpt lat="45.485322" lon="6.846054">
        <ele>2280.172</ele>
        <time>2018-07-17T06:57:14Z</time>
      </trkpt>
      <trkpt lat="45.485278" lon="6.846104">
        <ele>2279.913</ele>
        <time>2018-07-17T06:57:20Z</time>
      </trkpt>
      <trkpt lat="45.485241" lon="6.846149">
        <ele>2279.885</ele>
        <time>2018-07-17T06:57:25Z</time>
      </trkpt>
      <trkpt lat="45.485198" lon="6.846190">
        <ele>2279.789</ele>
        <time>2018-07-17T06:57:30Z</time>
      </trkpt>
      <trkpt lat="45.485155" lon="6.846225">
        <ele>2280.117</ele>
        <time>2018-07-17T06:57:37Z</time>
      </trkpt>
      <trkpt lat="45.485110" lon="6.846211">
        <ele>2279.908</ele>
        <time>2018-07-17T06:57:46Z</time>
      </trkpt>
      <trkpt lat="45.485065" lon="6.846186">
        <ele>2280.260</ele>
        <time>2018-07-17T06:57:54Z</time>
      </trkpt>
      <trkpt lat="45.485016" lon="6.846176">
        <ele>2281.244</ele>
        <time>2018-07-17T06:58:02Z</time>
      </trkpt>
      <trkpt lat="45.484968" lon="6.846163">
        <ele>2282.666</ele>
        <time>2018-07-17T06:58:11Z</time>
      </trkpt>
      <trkpt lat="45.484919" lon="6.846170">
        <ele>2283.462</ele>
        <time>2018-07-17T06:58:25Z</time>
      </trkpt>
      <trkpt lat="45.484891" lon="6.846228">
        <ele>2283.529</ele>
        <time>2018-07-17T06:58:32Z</time>
      </trkpt>
      <trkpt lat="45.484859" lon="6.846274">
        <ele>2283.261</ele>
        <time>2018-07-17T06:58:40Z</time>
      </trkpt>
      <trkpt lat="45.484810" lon="6.846263">
        <ele>2283.841</ele>
        <time>2018-07-17T06:58:47Z</time>
      </trkpt>
      <trkpt lat="45.484760" lon="6.846260">
        <ele>2285.082</ele>
        <time>2018-07-17T06:58:54Z</time>
      </trkpt>
      <trkpt lat="45.484712" lon="6.846279">
        <ele>2286.925</ele>
        <time>2018-07-17T06:59:01Z</time>
      </trkpt>
      <trkpt lat="45.484669" lon="6.846298">
        <ele>2288.026</ele>
        <time>2018-07-17T06:59:10Z</time>
      </trkpt>
      <trkpt lat="45.484628" lon="6.846330">
        <ele>2289.508</ele>
        <time>2018-07-17T06:59:18Z</time>
      </trkpt>
      <trkpt lat="45.484573" lon="6.846363">
        <ele>2291.208</ele>
        <time>2018-07-17T07:00:28Z</time>
      </trkpt>
      <trkpt lat="45.484536" lon="6.846416">
        <ele>2292.624</ele>
        <time>2018-07-17T07:01:04Z</time>
      </trkpt>
      <trkpt lat="45.484497" lon="6.846452">
        <ele>2293.458</ele>
        <time>2018-07-17T07:01:10Z</time>
      </trkpt>
      <trkpt lat="45.484453" lon="6.846469">
        <ele>2293.920</ele>
        <time>2018-07-17T07:01:16Z</time>
      </trkpt>
      <trkpt lat="45.484403" lon="6.846479">
        <ele>2294.246</ele>
        <time>2018-07-17T07:01:23Z</time>
      </trkpt>
      <trkpt lat="45.484358" lon="6.846503">
        <ele>2294.473</ele>
        <time>2018-07-17T07:01:29Z</time>
      </trkpt>
      <trkpt lat="45.484306" lon="6.846518">
        <ele>2294.965</ele>
        <time>2018-07-17T07:01:37Z</time>
      </trkpt>
      <trkpt lat="45.484261" lon="6.846554">
        <ele>2296.035</ele>
        <time>2018-07-17T07:01:43Z</time>
      </trkpt>
      <trkpt lat="45.484216" lon="6.846530">
        <ele>2295.916</ele>
        <time>2018-07-17T07:02:03Z</time>
      </trkpt>
      <trkpt lat="45.484170" lon="6.846563">
        <ele>2297.084</ele>
        <time>2018-07-17T07:02:10Z</time>
      </trkpt>
      <trkpt lat="45.484124" lon="6.846579">
        <ele>2297.707</ele>
        <time>2018-07-17T07:02:17Z</time>
      </trkpt>
      <trkpt lat="45.484075" lon="6.846596">
        <ele>2298.517</ele>
        <time>2018-07-17T07:02:25Z</time>
      </trkpt>
      <trkpt lat="45.484026" lon="6.846574">
        <ele>2297.808</ele>
        <time>2018-07-17T07:02:33Z</time>
      </trkpt>
      <trkpt lat="45.483974" lon="6.846588">
        <ele>2297.850</ele>
        <time>2018-07-17T07:02:40Z</time>
      </trkpt>
      <trkpt lat="45.483930" lon="6.846599">
        <ele>2297.854</ele>
        <time>2018-07-17T07:02:46Z</time>
      </trkpt>
      <trkpt lat="45.483878" lon="6.846599">
        <ele>2298.236</ele>
        <time>2018-07-17T07:02:53Z</time>
      </trkpt>
      <trkpt lat="45.483833" lon="6.846611">
        <ele>2298.832</ele>
        <time>2018-07-17T07:02:59Z</time>
      </trkpt>
      <trkpt lat="45.483783" lon="6.846622">
        <ele>2299.699</ele>
        <time>2018-07-17T07:03:05Z</time>
      </trkpt>
      <trkpt lat="45.483740" lon="6.846643">
        <ele>2300.511</ele>
        <time>2018-07-17T07:03:11Z</time>
      </trkpt>
      <trkpt lat="45.483702" lon="6.846684">
        <ele>2302.241</ele>
        <time>2018-07-17T07:03:17Z</time>
      </trkpt>
      <trkpt lat="45.483668" lon="6.846731">
        <ele>2304.052</ele>
        <time>2018-07-17T07:03:23Z</time>
      </trkpt>
      <trkpt lat="45.483624" lon="6.846762">
        <ele>2305.159</ele>
        <time>2018-07-17T07:03:30Z</time>
      </trkpt>
      <trkpt lat="45.483578" lon="6.846793">
        <ele>2306.603</ele>
        <time>2018-07-17T07:03:38Z</time>
      </trkpt>
      <trkpt lat="45.483543" lon="6.846834">
        <ele>2308.323</ele>
        <time>2018-07-17T07:03:44Z</time>
      </trkpt>
      <trkpt lat="45.483494" lon="6.846861">
        <ele>2310.108</ele>
        <time>2018-07-17T07:03:51Z</time>
      </trkpt>
      <trkpt lat="45.483452" lon="6.846898">
        <ele>2312.077</ele>
        <time>2018-07-17T07:03:57Z</time>
      </trkpt>
      <trkpt lat="45.483406" lon="6.846919">
        <ele>2313.161</ele>
        <time>2018-07-17T07:04:03Z</time>
      </trkpt>
      <trkpt lat="45.483361" lon="6.846936">
        <ele>2313.813</ele>
        <time>2018-07-17T07:04:10Z</time>
      </trkpt>
      <trkpt lat="45.483317" lon="6.846958">
        <ele>2314.689</ele>
        <time>2018-07-17T07:04:17Z</time>
      </trkpt>
      <trkpt lat="45.483274" lon="6.846992">
        <ele>2314.746</ele>
        <time>2018-07-17T07:04:27Z</time>
      </trkpt>
      <trkpt lat="45.483231" lon="6.847025">
        <ele>2315.658</ele>
        <time>2018-07-17T07:04:35Z</time>
      </trkpt>
      <trkpt lat="45.483185" lon="6.847040">
        <ele>2316.588</ele>
        <time>2018-07-17T07:04:43Z</time>
      </trkpt>
      <trkpt lat="45.483135" lon="6.847046">
        <ele>2315.899</ele>
        <time>2018-07-17T07:04:59Z</time>
      </trkpt>
      <trkpt lat="45.483092" lon="6.847069">
        <ele>2315.495</ele>
        <time>2018-07-17T07:05:06Z</time>
      </trkpt>
      <trkpt lat="45.483048" lon="6.847084">
        <ele>2316.049</ele>
        <time>2018-07-17T07:05:12Z</time>
      </trkpt>
      <trkpt lat="45.482997" lon="6.847107">
        <ele>2316.323</ele>
        <time>2018-07-17T07:05:19Z</time>
      </trkpt>
      <trkpt lat="45.482954" lon="6.847135">
        <ele>2317.308</ele>
        <time>2018-07-17T07:05:24Z</time>
      </trkpt>
      <trkpt lat="45.482911" lon="6.847172">
        <ele>2317.971</ele>
        <time>2018-07-17T07:05:30Z</time>
      </trkpt>
      <trkpt lat="45.482864" lon="6.847186">
        <ele>2318.745</ele>
        <time>2018-07-17T07:05:37Z</time>
      </trkpt>
      <trkpt lat="45.482816" lon="6.847206">
        <ele>2320.017</ele>
        <time>2018-07-17T07:05:45Z</time>
      </trkpt>
      <trkpt lat="45.482774" lon="6.847238">
        <ele>2321.263</ele>
        <time>2018-07-17T07:05:52Z</time>
      </trkpt>
      <trkpt lat="45.482732" lon="6.847263">
        <ele>2322.390</ele>
        <time>2018-07-17T07:05:58Z</time>
      </trkpt>
      <trkpt lat="45.482688" lon="6.847291">
        <ele>2323.492</ele>
        <time>2018-07-17T07:06:05Z</time>
      </trkpt>
      <trkpt lat="45.482638" lon="6.847315">
        <ele>2324.492</ele>
        <time>2018-07-17T07:06:12Z</time>
      </trkpt>
      <trkpt lat="45.482590" lon="6.847344">
        <ele>2325.463</ele>
        <time>2018-07-17T07:06:18Z</time>
      </trkpt>
      <trkpt lat="45.482543" lon="6.847361">
        <ele>2326.452</ele>
        <time>2018-07-17T07:06:25Z</time>
      </trkpt>
      <trkpt lat="45.482492" lon="6.847381">
        <ele>2327.853</ele>
        <time>2018-07-17T07:06:32Z</time>
      </trkpt>
      <trkpt lat="45.482452" lon="6.847415">
        <ele>2329.008</ele>
        <time>2018-07-17T07:06:38Z</time>
      </trkpt>
      <trkpt lat="45.482413" lon="6.847450">
        <ele>2330.108</ele>
        <time>2018-07-17T07:06:45Z</time>
      </trkpt>
      <trkpt lat="45.482369" lon="6.847491">
        <ele>2331.237</ele>
        <time>2018-07-17T07:06:52Z</time>
      </trkpt>
      <trkpt lat="45.482332" lon="6.847537">
        <ele>2331.111</ele>
        <time>2018-07-17T07:07:02Z</time>
      </trkpt>
      <trkpt lat="45.482294" lon="6.847579">
        <ele>2331.493</ele>
        <time>2018-07-17T07:07:10Z</time>
      </trkpt>
      <trkpt lat="45.482247" lon="6.847597">
        <ele>2332.059</ele>
        <time>2018-07-17T07:07:18Z</time>
      </trkpt>
      <trkpt lat="45.482203" lon="6.847612">
        <ele>2332.856</ele>
        <time>2018-07-17T07:07:24Z</time>
      </trkpt>
      <trkpt lat="45.482157" lon="6.847622">
        <ele>2333.338</ele>
        <time>2018-07-17T07:07:30Z</time>
      </trkpt>
      <trkpt lat="45.482112" lon="6.847634">
        <ele>2333.668</ele>
        <time>2018-07-17T07:07:36Z</time>
      </trkpt>
      <trkpt lat="45.482062" lon="6.847651">
        <ele>2334.259</ele>
        <time>2018-07-17T07:07:43Z</time>
      </trkpt>
      <trkpt lat="45.482020" lon="6.847678">
        <ele>2334.987</ele>
        <time>2018-07-17T07:07:50Z</time>
      </trkpt>
      <trkpt lat="45.481974" lon="6.847682">
        <ele>2334.942</ele>
        <time>2018-07-17T07:07:59Z</time>
      </trkpt>
      <trkpt lat="45.481928" lon="6.847696">
        <ele>2334.526</ele>
        <time>2018-07-17T07:08:08Z</time>
      </trkpt>
      <trkpt lat="45.481885" lon="6.847660">
        <ele>2331.508</ele>
        <time>2018-07-17T07:08:32Z</time>
      </trkpt>
      <trkpt lat="45.481835" lon="6.847644">
        <ele>2330.960</ele>
        <time>2018-07-17T07:08:39Z</time>
      </trkpt>
      <trkpt lat="45.481786" lon="6.847647">
        <ele>2331.324</ele>
        <time>2018-07-17T07:08:47Z</time>
      </trkpt>
      <trkpt lat="45.481737" lon="6.847629">
        <ele>2332.036</ele>
        <time>2018-07-17T07:08:56Z</time>
      </trkpt>
      <trkpt lat="45.481690" lon="6.847617">
        <ele>2332.842</ele>
        <time>2018-07-17T07:09:03Z</time>
      </trkpt>
      <trkpt lat="45.481646" lon="6.847641">
        <ele>2333.339</ele>
        <time>2018-07-17T07:09:10Z</time>
      </trkpt>
      <trkpt lat="45.481600" lon="6.847658">
        <ele>2333.621</ele>
        <time>2018-07-17T07:09:18Z</time>
      </trkpt>
      <trkpt lat="45.481557" lon="6.847679">
        <ele>2334.291</ele>
        <time>2018-07-17T07:09:26Z</time>
      </trkpt>
      <trkpt lat="45.481513" lon="6.847711">
        <ele>2335.392</ele>
        <time>2018-07-17T07:09:32Z</time>
      </trkpt>
      <trkpt lat="45.481472" lon="6.847739">
        <ele>2336.041</ele>
        <time>2018-07-17T07:09:39Z</time>
      </trkpt>
      <trkpt lat="45.481428" lon="6.847771">
        <ele>2336.881</ele>
        <time>2018-07-17T07:09:47Z</time>
      </trkpt>
      <trkpt lat="45.481383" lon="6.847762">
        <ele>2336.509</ele>
        <time>2018-07-17T07:10:06Z</time>
      </trkpt>
      <trkpt lat="45.481342" lon="6.847795">
        <ele>2336.308</ele>
        <time>2018-07-17T07:10:15Z</time>
      </trkpt>
      <trkpt lat="45.481308" lon="6.847839">
        <ele>2337.056</ele>
        <time>2018-07-17T07:10:23Z</time>
      </trkpt>
      <trkpt lat="45.481260" lon="6.847853">
        <ele>2337.420</ele>
        <time>2018-07-17T07:10:32Z</time>
      </trkpt>
      <trkpt lat="45.481211" lon="6.847869">
        <ele>2338.422</ele>
        <time>2018-07-17T07:10:42Z</time>
      </trkpt>
      <trkpt lat="45.481166" lon="6.847886">
        <ele>2339.418</ele>
        <time>2018-07-17T07:10:49Z</time>
      </trkpt>
      <trkpt lat="45.481116" lon="6.847903">
        <ele>2340.825</ele>
        <time>2018-07-17T07:10:59Z</time>
      </trkpt>
      <trkpt lat="45.481071" lon="6.847923">
        <ele>2342.117</ele>
        <time>2018-07-17T07:11:05Z</time>
      </trkpt>
      <trkpt lat="45.481030" lon="6.847951">
        <ele>2343.727</ele>
        <time>2018-07-17T07:11:11Z</time>
      </trkpt>
      <trkpt lat="45.480991" lon="6.847987">
        <ele>2345.098</ele>
        <time>2018-07-17T07:11:17Z</time>
      </trkpt>
      <trkpt lat="45.480948" lon="6.848019">
        <ele>2346.652</ele>
        <time>2018-07-17T07:11:24Z</time>
      </trkpt>
      <trkpt lat="45.480904" lon="6.848056">
        <ele>2348.053</ele>
        <time>2018-07-17T07:11:34Z</time>
      </trkpt>
      <trkpt lat="45.480863" lon="6.848096">
        <ele>2350.408</ele>
        <time>2018-07-17T07:11:40Z</time>
      </trkpt>
      <trkpt lat="45.480823" lon="6.848142">
        <ele>2353.408</ele>
        <time>2018-07-17T07:11:47Z</time>
      </trkpt>
      <trkpt lat="45.480784" lon="6.848184">
        <ele>2356.467</ele>
        <time>2018-07-17T07:11:58Z</time>
      </trkpt>
      <trkpt lat="45.480740" lon="6.848212">
        <ele>2358.281</ele>
        <time>2018-07-17T07:12:33Z</time>
      </trkpt>
      <trkpt lat="45.480707" lon="6.848259">
        <ele>2360.163</ele>
        <time>2018-07-17T07:12:39Z</time>
      </trkpt>
      <trkpt lat="45.480678" lon="6.848311">
        <ele>2361.619</ele>
        <time>2018-07-17T07:12:46Z</time>
      </trkpt>
      <trkpt lat="45.480649" lon="6.848368">
        <ele>2362.966</ele>
        <time>2018-07-17T07:12:57Z</time>
      </trkpt>
      <trkpt lat="45.480617" lon="6.848418">
        <ele>2364.128</ele>
        <time>2018-07-17T07:13:04Z</time>
      </trkpt>
      <trkpt lat="45.480585" lon="6.848472">
        <ele>2365.698</ele>
        <time>2018-07-17T07:13:11Z</time>
      </trkpt>
      <trkpt lat="45.480557" lon="6.848534">
        <ele>2366.189</ele>
        <time>2018-07-17T07:13:18Z</time>
      </trkpt>
      <trkpt lat="45.480542" lon="6.848600">
        <ele>2366.498</ele>
        <time>2018-07-17T07:13:25Z</time>
      </trkpt>
      <trkpt lat="45.480531" lon="6.848663">
        <ele>2367.415</ele>
        <time>2018-07-17T07:13:32Z</time>
      </trkpt>
      <trkpt lat="45.480509" lon="6.848726">
        <ele>2368.026</ele>
        <time>2018-07-17T07:13:39Z</time>
      </trkpt>
      <trkpt lat="45.480471" lon="6.848771">
        <ele>2368.008</ele>
        <time>2018-07-17T07:13:46Z</time>
      </trkpt>
      <trkpt lat="45.480437" lon="6.848821">
        <ele>2368.031</ele>
        <time>2018-07-17T07:13:51Z</time>
      </trkpt>
      <trkpt lat="45.480395" lon="6.848867">
        <ele>2368.065</ele>
        <time>2018-07-17T07:13:56Z</time>
      </trkpt>
      <trkpt lat="45.480355" lon="6.848909">
        <ele>2368.497</ele>
        <time>2018-07-17T07:14:00Z</time>
      </trkpt>
      <trkpt lat="45.480321" lon="6.848967">
        <ele>2368.633</ele>
        <time>2018-07-17T07:14:05Z</time>
      </trkpt>
      <trkpt lat="45.480296" lon="6.849026">
        <ele>2369.130</ele>
        <time>2018-07-17T07:14:10Z</time>
      </trkpt>
      <trkpt lat="45.480262" lon="6.849076">
        <ele>2369.412</ele>
        <time>2018-07-17T07:14:15Z</time>
      </trkpt>
      <trkpt lat="45.480216" lon="6.849121">
        <ele>2369.242</ele>
        <time>2018-07-17T07:14:20Z</time>
      </trkpt>
      <trkpt lat="45.480181" lon="6.849174">
        <ele>2369.193</ele>
        <time>2018-07-17T07:14:25Z</time>
      </trkpt>
      <trkpt lat="45.480141" lon="6.849223">
        <ele>2369.012</ele>
        <time>2018-07-17T07:14:32Z</time>
      </trkpt>
      <trkpt lat="45.480097" lon="6.849246">
        <ele>2367.432</ele>
        <time>2018-07-17T07:15:23Z</time>
      </trkpt>
      <trkpt lat="45.480053" lon="6.849274">
        <ele>2366.805</ele>
        <time>2018-07-17T07:15:28Z</time>
      </trkpt>
      <trkpt lat="45.480008" lon="6.849301">
        <ele>2366.808</ele>
        <time>2018-07-17T07:15:34Z</time>
      </trkpt>
      <trkpt lat="45.479963" lon="6.849324">
        <ele>2367.253</ele>
        <time>2018-07-17T07:15:39Z</time>
      </trkpt>
      <trkpt lat="45.479925" lon="6.849371">
        <ele>2367.517</ele>
        <time>2018-07-17T07:15:48Z</time>
      </trkpt>
      <trkpt lat="45.479886" lon="6.849407">
        <ele>2368.119</ele>
        <time>2018-07-17T07:15:52Z</time>
      </trkpt>
      <trkpt lat="45.479843" lon="6.849440">
        <ele>2368.485</ele>
        <time>2018-07-17T07:16:01Z</time>
      </trkpt>
      <trkpt lat="45.479801" lon="6.849471">
        <ele>2369.022</ele>
        <time>2018-07-17T07:16:09Z</time>
      </trkpt>
      <trkpt lat="45.479760" lon="6.849517">
        <ele>2369.444</ele>
        <time>2018-07-17T07:16:16Z</time>
      </trkpt>
      <trkpt lat="45.479723" lon="6.849559">
        <ele>2370.454</ele>
        <time>2018-07-17T07:16:24Z</time>
      </trkpt>
      <trkpt lat="45.479687" lon="6.849609">
        <ele>2371.485</ele>
        <time>2018-07-17T07:16:36Z</time>
      </trkpt>
      <trkpt lat="45.479640" lon="6.849642">
        <ele>2372.048</ele>
        <time>2018-07-17T07:16:42Z</time>
      </trkpt>
      <trkpt lat="45.479604" lon="6.849687">
        <ele>2372.861</ele>
        <time>2018-07-17T07:16:48Z</time>
      </trkpt>
      <trkpt lat="45.479562" lon="6.849714">
        <ele>2373.317</ele>
        <time>2018-07-17T07:16:54Z</time>
      </trkpt>
      <trkpt lat="45.479515" lon="6.849736">
        <ele>2374.008</ele>
        <time>2018-07-17T07:17:00Z</time>
      </trkpt>
      <trkpt lat="45.479470" lon="6.849754">
        <ele>2374.056</ele>
        <time>2018-07-17T07:17:07Z</time>
      </trkpt>
      <trkpt lat="45.479428" lon="6.849797">
        <ele>2374.050</ele>
        <time>2018-07-17T07:17:14Z</time>
      </trkpt>
      <trkpt lat="45.479380" lon="6.849817">
        <ele>2374.452</ele>
        <time>2018-07-17T07:17:20Z</time>
      </trkpt>
      <trkpt lat="45.479329" lon="6.849832">
        <ele>2374.688</ele>
        <time>2018-07-17T07:17:25Z</time>
      </trkpt>
      <trkpt lat="45.479283" lon="6.849849">
        <ele>2374.795</ele>
        <time>2018-07-17T07:17:30Z</time>
      </trkpt>
      <trkpt lat="45.479237" lon="6.849863">
        <ele>2375.697</ele>
        <time>2018-07-17T07:17:35Z</time>
      </trkpt>
      <trkpt lat="45.479191" lon="6.849887">
        <ele>2376.117</ele>
        <time>2018-07-17T07:17:40Z</time>
      </trkpt>
      <trkpt lat="45.479143" lon="6.849901">
        <ele>2376.828</ele>
        <time>2018-07-17T07:17:45Z</time>
      </trkpt>
      <trkpt lat="45.479098" lon="6.849919">
        <ele>2376.882</ele>
        <time>2018-07-17T07:17:50Z</time>
      </trkpt>
      <trkpt lat="45.479050" lon="6.849939">
        <ele>2377.243</ele>
        <time>2018-07-17T07:17:55Z</time>
      </trkpt>
      <trkpt lat="45.479006" lon="6.849954">
        <ele>2377.517</ele>
        <time>2018-07-17T07:17:59Z</time>
      </trkpt>
      <trkpt lat="45.478954" lon="6.849965">
        <ele>2377.708</ele>
        <time>2018-07-17T07:18:05Z</time>
      </trkpt>
      <trkpt lat="45.478900" lon="6.849974">
        <ele>2377.850</ele>
        <time>2018-07-17T07:18:10Z</time>
      </trkpt>
      <trkpt lat="45.478853" lon="6.849980">
        <ele>2377.944</ele>
        <time>2018-07-17T07:18:14Z</time>
      </trkpt>
      <trkpt lat="45.478799" lon="6.849983">
        <ele>2378.396</ele>
        <time>2018-07-17T07:18:19Z</time>
      </trkpt>
      <trkpt lat="45.478748" lon="6.849992">
        <ele>2378.212</ele>
        <time>2018-07-17T07:18:24Z</time>
      </trkpt>
      <trkpt lat="45.478694" lon="6.850004">
        <ele>2378.199</ele>
        <time>2018-07-17T07:18:29Z</time>
      </trkpt>
      <trkpt lat="45.478646" lon="6.850013">
        <ele>2377.641</ele>
        <time>2018-07-17T07:18:34Z</time>
      </trkpt>
      <trkpt lat="45.478595" lon="6.850019">
        <ele>2376.941</ele>
        <time>2018-07-17T07:18:39Z</time>
      </trkpt>
      <trkpt lat="45.478544" lon="6.850022">
        <ele>2376.932</ele>
        <time>2018-07-17T07:18:44Z</time>
      </trkpt>
      <trkpt lat="45.478489" lon="6.850027">
        <ele>2376.513</ele>
        <time>2018-07-17T07:18:49Z</time>
      </trkpt>
      <trkpt lat="45.478440" lon="6.850038">
        <ele>2376.343</ele>
        <time>2018-07-17T07:18:54Z</time>
      </trkpt>
      <trkpt lat="45.478385" lon="6.850050">
        <ele>2376.207</ele>
        <time>2018-07-17T07:18:59Z</time>
      </trkpt>
      <trkpt lat="45.478332" lon="6.850067">
        <ele>2376.508</ele>
        <time>2018-07-17T07:19:04Z</time>
      </trkpt>
      <trkpt lat="45.478283" lon="6.850079">
        <ele>2376.313</ele>
        <time>2018-07-17T07:19:10Z</time>
      </trkpt>
      <trkpt lat="45.478234" lon="6.850078">
        <ele>2375.827</ele>
        <time>2018-07-17T07:19:15Z</time>
      </trkpt>
      <trkpt lat="45.478189" lon="6.850098">
        <ele>2375.519</ele>
        <time>2018-07-17T07:19:20Z</time>
      </trkpt>
      <trkpt lat="45.478143" lon="6.850113">
        <ele>2376.535</ele>
        <time>2018-07-17T07:19:24Z</time>
      </trkpt>
      <trkpt lat="45.478098" lon="6.850131">
        <ele>2377.522</ele>
        <time>2018-07-17T07:19:28Z</time>
      </trkpt>
      <trkpt lat="45.478057" lon="6.850159">
        <ele>2378.134</ele>
        <time>2018-07-17T07:19:32Z</time>
      </trkpt>
      <trkpt lat="45.478012" lon="6.850189">
        <ele>2378.124</ele>
        <time>2018-07-17T07:19:37Z</time>
      </trkpt>
      <trkpt lat="45.477967" lon="6.850215">
        <ele>2378.155</ele>
        <time>2018-07-17T07:19:42Z</time>
      </trkpt>
      <trkpt lat="45.477924" lon="6.850239">
        <ele>2377.755</ele>
        <time>2018-07-17T07:19:47Z</time>
      </trkpt>
      <trkpt lat="45.477879" lon="6.850260">
        <ele>2377.907</ele>
        <time>2018-07-17T07:19:53Z</time>
      </trkpt>
      <trkpt lat="45.477840" lon="6.850296">
        <ele>2378.417</ele>
        <time>2018-07-17T07:19:57Z</time>
      </trkpt>
      <trkpt lat="45.477799" lon="6.850330">
        <ele>2378.708</ele>
        <time>2018-07-17T07:20:02Z</time>
      </trkpt>
      <trkpt lat="45.477753" lon="6.850363">
        <ele>2379.737</ele>
        <time>2018-07-17T07:20:06Z</time>
      </trkpt>
      <trkpt lat="45.477705" lon="6.850405">
        <ele>2381.171</ele>
        <time>2018-07-17T07:20:11Z</time>
      </trkpt>
      <trkpt lat="45.477663" lon="6.850438">
        <ele>2382.383</ele>
        <time>2018-07-17T07:20:15Z</time>
      </trkpt>
      <trkpt lat="45.477613" lon="6.850445">
        <ele>2382.629</ele>
        <time>2018-07-17T07:20:20Z</time>
      </trkpt>
      <trkpt lat="45.477560" lon="6.850454">
        <ele>2382.836</ele>
        <time>2018-07-17T07:20:25Z</time>
      </trkpt>
      <trkpt lat="45.477504" lon="6.850450">
        <ele>2382.548</ele>
        <time>2018-07-17T07:20:30Z</time>
      </trkpt>
      <trkpt lat="45.477448" lon="6.850447">
        <ele>2381.598</ele>
        <time>2018-07-17T07:20:35Z</time>
      </trkpt>
      <trkpt lat="45.477394" lon="6.850439">
        <ele>2380.599</ele>
        <time>2018-07-17T07:20:40Z</time>
      </trkpt>
      <trkpt lat="45.477342" lon="6.850446">
        <ele>2380.332</ele>
        <time>2018-07-17T07:20:45Z</time>
      </trkpt>
      <trkpt lat="45.477302" lon="6.850409">
        <ele>2379.892</ele>
        <time>2018-07-17T07:20:53Z</time>
      </trkpt>
      <trkpt lat="45.477256" lon="6.850388">
        <ele>2379.911</ele>
        <time>2018-07-17T07:21:00Z</time>
      </trkpt>
      <trkpt lat="45.477204" lon="6.850373">
        <ele>2380.008</ele>
        <time>2018-07-17T07:21:04Z</time>
      </trkpt>
      <trkpt lat="45.477152" lon="6.850384">
        <ele>2380.095</ele>
        <time>2018-07-17T07:21:08Z</time>
      </trkpt>
      <trkpt lat="45.477096" lon="6.850382">
        <ele>2380.419</ele>
        <time>2018-07-17T07:21:14Z</time>
      </trkpt>
      <trkpt lat="45.477047" lon="6.850399">
        <ele>2380.721</ele>
        <time>2018-07-17T07:21:19Z</time>
      </trkpt>
      <trkpt lat="45.477002" lon="6.850409">
        <ele>2380.587</ele>
        <time>2018-07-17T07:21:24Z</time>
      </trkpt>
      <trkpt lat="45.476956" lon="6.850417">
        <ele>2380.424</ele>
        <time>2018-07-17T07:21:29Z</time>
      </trkpt>
      <trkpt lat="45.476914" lon="6.850442">
        <ele>2380.326</ele>
        <time>2018-07-17T07:21:33Z</time>
      </trkpt>
      <trkpt lat="45.476867" lon="6.850434">
        <ele>2380.256</ele>
        <time>2018-07-17T07:21:38Z</time>
      </trkpt>
      <trkpt lat="45.476817" lon="6.850441">
        <ele>2379.817</ele>
        <time>2018-07-17T07:21:43Z</time>
      </trkpt>
      <trkpt lat="45.476775" lon="6.850466">
        <ele>2379.979</ele>
        <time>2018-07-17T07:21:50Z</time>
      </trkpt>
      <trkpt lat="45.476718" lon="6.850456">
        <ele>2379.605</ele>
        <time>2018-07-17T07:21:55Z</time>
      </trkpt>
      <trkpt lat="45.476673" lon="6.850477">
        <ele>2379.825</ele>
        <time>2018-07-17T07:21:59Z</time>
      </trkpt>
      <trkpt lat="45.476629" lon="6.850496">
        <ele>2379.508</ele>
        <time>2018-07-17T07:22:06Z</time>
      </trkpt>
      <trkpt lat="45.476581" lon="6.850518">
        <ele>2378.529</ele>
        <time>2018-07-17T07:22:11Z</time>
      </trkpt>
      <trkpt lat="45.476535" lon="6.850515">
        <ele>2377.553</ele>
        <time>2018-07-17T07:22:16Z</time>
      </trkpt>
      <trkpt lat="45.476485" lon="6.850522">
        <ele>2377.345</ele>
        <time>2018-07-17T07:22:21Z</time>
      </trkpt>
      <trkpt lat="45.476433" lon="6.850534">
        <ele>2376.891</ele>
        <time>2018-07-17T07:22:26Z</time>
      </trkpt>
      <trkpt lat="45.476384" lon="6.850532">
        <ele>2376.978</ele>
        <time>2018-07-17T07:22:31Z</time>
      </trkpt>
      <trkpt lat="45.476333" lon="6.850537">
        <ele>2377.440</ele>
        <time>2018-07-17T07:22:36Z</time>
      </trkpt>
      <trkpt lat="45.476287" lon="6.850530">
        <ele>2377.760</ele>
        <time>2018-07-17T07:22:41Z</time>
      </trkpt>
      <trkpt lat="45.476237" lon="6.850530">
        <ele>2377.931</ele>
        <time>2018-07-17T07:22:47Z</time>
      </trkpt>
      <trkpt lat="45.476187" lon="6.850519">
        <ele>2377.667</ele>
        <time>2018-07-17T07:22:52Z</time>
      </trkpt>
      <trkpt lat="45.476142" lon="6.850494">
        <ele>2377.881</ele>
        <time>2018-07-17T07:22:57Z</time>
      </trkpt>
      <trkpt lat="45.476094" lon="6.850481">
        <ele>2377.519</ele>
        <time>2018-07-17T07:23:02Z</time>
      </trkpt>
      <trkpt lat="45.476040" lon="6.850469">
        <ele>2376.908</ele>
        <time>2018-07-17T07:23:07Z</time>
      </trkpt>
      <trkpt lat="45.475984" lon="6.850475">
        <ele>2376.688</ele>
        <time>2018-07-17T07:23:12Z</time>
      </trkpt>
      <trkpt lat="45.475939" lon="6.850482">
        <ele>2376.072</ele>
        <time>2018-07-17T07:23:16Z</time>
      </trkpt>
      <trkpt lat="45.475884" lon="6.850491">
        <ele>2375.644</ele>
        <time>2018-07-17T07:23:21Z</time>
      </trkpt>
      <trkpt lat="45.475830" lon="6.850493">
        <ele>2375.460</ele>
        <time>2018-07-17T07:23:26Z</time>
      </trkpt>
      <trkpt lat="45.475778" lon="6.850502">
        <ele>2375.797</ele>
        <time>2018-07-17T07:23:31Z</time>
      </trkpt>
      <trkpt lat="45.475729" lon="6.850519">
        <ele>2375.959</ele>
        <time>2018-07-17T07:23:36Z</time>
      </trkpt>
      <trkpt lat="45.475684" lon="6.850529">
        <ele>2376.089</ele>
        <time>2018-07-17T07:23:40Z</time>
      </trkpt>
      <trkpt lat="45.475225" lon="6.850503">
        <ele>2380.060</ele>
        <time>2018-07-17T07:24:13Z</time>
      </trkpt>
      <trkpt lat="45.475273" lon="6.850598">
        <ele>2380.535</ele>
        <time>2018-07-17T07:24:15Z</time>
      </trkpt>
      <trkpt lat="45.475240" lon="6.850644">
        <ele>2380.086</ele>
        <time>2018-07-17T07:24:24Z</time>
      </trkpt>
      <trkpt lat="45.475186" lon="6.850645">
        <ele>2380.514</ele>
        <time>2018-07-17T07:24:29Z</time>
      </trkpt>
      <trkpt lat="45.475135" lon="6.850633">
        <ele>2380.408</ele>
        <time>2018-07-17T07:24:34Z</time>
      </trkpt>
      <trkpt lat="45.475082" lon="6.850625">
        <ele>2380.335</ele>
        <time>2018-07-17T07:24:39Z</time>
      </trkpt>
      <trkpt lat="45.475029" lon="6.850636">
        <ele>2380.339</ele>
        <time>2018-07-17T07:24:44Z</time>
      </trkpt>
      <trkpt lat="45.474978" lon="6.850644">
        <ele>2380.331</ele>
        <time>2018-07-17T07:24:50Z</time>
      </trkpt>
      <trkpt lat="45.474931" lon="6.850653">
        <ele>2380.317</ele>
        <time>2018-07-17T07:24:55Z</time>
      </trkpt>
      <trkpt lat="45.474887" lon="6.850682">
        <ele>2380.374</ele>
        <time>2018-07-17T07:25:01Z</time>
      </trkpt>
      <trkpt lat="45.474831" lon="6.850693">
        <ele>2381.526</ele>
        <time>2018-07-17T07:25:13Z</time>
      </trkpt>
      <trkpt lat="45.474784" lon="6.850699">
        <ele>2381.826</ele>
        <time>2018-07-17T07:25:20Z</time>
      </trkpt>
      <trkpt lat="45.474730" lon="6.850707">
        <ele>2382.097</ele>
        <time>2018-07-17T07:25:25Z</time>
      </trkpt>
      <trkpt lat="45.474685" lon="6.850721">
        <ele>2382.166</ele>
        <time>2018-07-17T07:25:30Z</time>
      </trkpt>
      <trkpt lat="45.474642" lon="6.850740">
        <ele>2382.629</ele>
        <time>2018-07-17T07:25:35Z</time>
      </trkpt>
      <trkpt lat="45.474595" lon="6.850753">
        <ele>2382.521</ele>
        <time>2018-07-17T07:25:40Z</time>
      </trkpt>
      <trkpt lat="45.474549" lon="6.850767">
        <ele>2382.808</ele>
        <time>2018-07-17T07:25:46Z</time>
      </trkpt>
      <trkpt lat="45.474501" lon="6.850775">
        <ele>2382.658</ele>
        <time>2018-07-17T07:25:52Z</time>
      </trkpt>
      <trkpt lat="45.474452" lon="6.850779">
        <ele>2382.562</ele>
        <time>2018-07-17T07:25:57Z</time>
      </trkpt>
      <trkpt lat="45.474403" lon="6.850774">
        <ele>2382.094</ele>
        <time>2018-07-17T07:26:03Z</time>
      </trkpt>
      <trkpt lat="45.474353" lon="6.850781">
        <ele>2382.180</ele>
        <time>2018-07-17T07:26:08Z</time>
      </trkpt>
      <trkpt lat="45.474303" lon="6.850784">
        <ele>2382.287</ele>
        <time>2018-07-17T07:26:13Z</time>
      </trkpt>
      <trkpt lat="45.474256" lon="6.850796">
        <ele>2381.869</ele>
        <time>2018-07-17T07:26:18Z</time>
      </trkpt>
      <trkpt lat="45.474207" lon="6.850821">
        <ele>2382.049</ele>
        <time>2018-07-17T07:26:24Z</time>
      </trkpt>
      <trkpt lat="45.474161" lon="6.850840">
        <ele>2382.110</ele>
        <time>2018-07-17T07:26:29Z</time>
      </trkpt>
      <trkpt lat="45.474112" lon="6.850869">
        <ele>2382.679</ele>
        <time>2018-07-17T07:26:34Z</time>
      </trkpt>
      <trkpt lat="45.474072" lon="6.850911">
        <ele>2382.905</ele>
        <time>2018-07-17T07:26:39Z</time>
      </trkpt>
      <trkpt lat="45.474028" lon="6.850938">
        <ele>2382.725</ele>
        <time>2018-07-17T07:26:44Z</time>
      </trkpt>
      <trkpt lat="45.473985" lon="6.850973">
        <ele>2383.408</ele>
        <time>2018-07-17T07:26:48Z</time>
      </trkpt>
      <trkpt lat="45.473943" lon="6.851014">
        <ele>2383.839</ele>
        <time>2018-07-17T07:26:52Z</time>
      </trkpt>
      <trkpt lat="45.473895" lon="6.851046">
        <ele>2384.013</ele>
        <time>2018-07-17T07:26:57Z</time>
      </trkpt>
      <trkpt lat="45.473851" lon="6.851056">
        <ele>2384.165</ele>
        <time>2018-07-17T07:27:02Z</time>
      </trkpt>
      <trkpt lat="45.473806" lon="6.851071">
        <ele>2384.231</ele>
        <time>2018-07-17T07:27:07Z</time>
      </trkpt>
      <trkpt lat="45.473758" lon="6.851090">
        <ele>2384.788</ele>
        <time>2018-07-17T07:27:12Z</time>
      </trkpt>
      <trkpt lat="45.473707" lon="6.851107">
        <ele>2384.280</ele>
        <time>2018-07-17T07:27:18Z</time>
      </trkpt>
      <trkpt lat="45.473653" lon="6.851118">
        <ele>2383.910</ele>
        <time>2018-07-17T07:27:24Z</time>
      </trkpt>
      <trkpt lat="45.473604" lon="6.851128">
        <ele>2382.941</ele>
        <time>2018-07-17T07:27:30Z</time>
      </trkpt>
      <trkpt lat="45.473556" lon="6.851150">
        <ele>2382.365</ele>
        <time>2018-07-17T07:27:36Z</time>
      </trkpt>
      <trkpt lat="45.473514" lon="6.851180">
        <ele>2382.368</ele>
        <time>2018-07-17T07:27:41Z</time>
      </trkpt>
      <trkpt lat="45.473465" lon="6.851202">
        <ele>2382.314</ele>
        <time>2018-07-17T07:27:47Z</time>
      </trkpt>
      <trkpt lat="45.473422" lon="6.851223">
        <ele>2381.908</ele>
        <time>2018-07-17T07:27:52Z</time>
      </trkpt>
      <trkpt lat="45.473371" lon="6.851246">
        <ele>2382.138</ele>
        <time>2018-07-17T07:27:58Z</time>
      </trkpt>
      <trkpt lat="45.473326" lon="6.851271">
        <ele>2383.092</ele>
        <time>2018-07-17T07:28:03Z</time>
      </trkpt>
      <trkpt lat="45.473279" lon="6.851292">
        <ele>2383.554</ele>
        <time>2018-07-17T07:28:09Z</time>
      </trkpt>
      <trkpt lat="45.473229" lon="6.851325">
        <ele>2383.850</ele>
        <time>2018-07-17T07:28:15Z</time>
      </trkpt>
      <trkpt lat="45.473186" lon="6.851352">
        <ele>2383.617</ele>
        <time>2018-07-17T07:28:20Z</time>
      </trkpt>
      <trkpt lat="45.473151" lon="6.851393">
        <ele>2383.579</ele>
        <time>2018-07-17T07:28:28Z</time>
      </trkpt>
      <trkpt lat="45.473114" lon="6.851435">
        <ele>2386.249</ele>
        <time>2018-07-17T07:28:37Z</time>
      </trkpt>
      <trkpt lat="45.473076" lon="6.851482">
        <ele>2387.450</ele>
        <time>2018-07-17T07:28:44Z</time>
      </trkpt>
      <trkpt lat="45.473028" lon="6.851506">
        <ele>2388.134</ele>
        <time>2018-07-17T07:28:50Z</time>
      </trkpt>
      <trkpt lat="45.472990" lon="6.851555">
        <ele>2389.355</ele>
        <time>2018-07-17T07:28:56Z</time>
      </trkpt>
      <trkpt lat="45.472953" lon="6.851603">
        <ele>2389.610</ele>
        <time>2018-07-17T07:29:02Z</time>
      </trkpt>
      <trkpt lat="45.472907" lon="6.851625">
        <ele>2389.408</ele>
        <time>2018-07-17T07:29:07Z</time>
      </trkpt>
      <trkpt lat="45.472865" lon="6.851661">
        <ele>2388.915</ele>
        <time>2018-07-17T07:29:13Z</time>
      </trkpt>
      <trkpt lat="45.472836" lon="6.851711">
        <ele>2388.249</ele>
        <time>2018-07-17T07:29:19Z</time>
      </trkpt>
      <trkpt lat="45.472795" lon="6.851745">
        <ele>2387.421</ele>
        <time>2018-07-17T07:29:24Z</time>
      </trkpt>
      <trkpt lat="45.472753" lon="6.851778">
        <ele>2387.727</ele>
        <time>2018-07-17T07:29:29Z</time>
      </trkpt>
      <trkpt lat="45.472716" lon="6.851818">
        <ele>2387.944</ele>
        <time>2018-07-17T07:29:34Z</time>
      </trkpt>
      <trkpt lat="45.472677" lon="6.851862">
        <ele>2389.286</ele>
        <time>2018-07-17T07:29:50Z</time>
      </trkpt>
      <trkpt lat="45.472639" lon="6.851899">
        <ele>2389.616</ele>
        <time>2018-07-17T07:29:55Z</time>
      </trkpt>
      <trkpt lat="45.472601" lon="6.851955">
        <ele>2389.497</ele>
        <time>2018-07-17T07:30:00Z</time>
      </trkpt>
      <trkpt lat="45.472570" lon="6.852020">
        <ele>2388.975</ele>
        <time>2018-07-17T07:30:05Z</time>
      </trkpt>
      <trkpt lat="45.472533" lon="6.852079">
        <ele>2389.028</ele>
        <time>2018-07-17T07:30:10Z</time>
      </trkpt>
      <trkpt lat="45.472492" lon="6.852129">
        <ele>2388.320</ele>
        <time>2018-07-17T07:30:15Z</time>
      </trkpt>
      <trkpt lat="45.472450" lon="6.852163">
        <ele>2387.908</ele>
        <time>2018-07-17T07:30:20Z</time>
      </trkpt>
      <trkpt lat="45.472413" lon="6.852201">
        <ele>2387.249</ele>
        <time>2018-07-17T07:30:25Z</time>
      </trkpt>
      <trkpt lat="45.472367" lon="6.852219">
        <ele>2386.413</ele>
        <time>2018-07-17T07:30:30Z</time>
      </trkpt>
      <trkpt lat="45.472322" lon="6.852253">
        <ele>2386.725</ele>
        <time>2018-07-17T07:30:37Z</time>
      </trkpt>
      <trkpt lat="45.472277" lon="6.852278">
        <ele>2386.961</ele>
        <time>2018-07-17T07:30:43Z</time>
      </trkpt>
      <trkpt lat="45.472231" lon="6.852309">
        <ele>2387.038</ele>
        <time>2018-07-17T07:30:49Z</time>
      </trkpt>
      <trkpt lat="45.472189" lon="6.852335">
        <ele>2386.790</ele>
        <time>2018-07-17T07:30:55Z</time>
      </trkpt>
      <trkpt lat="45.472148" lon="6.852372">
        <ele>2386.950</ele>
        <time>2018-07-17T07:31:01Z</time>
      </trkpt>
      <trkpt lat="45.472102" lon="6.852375">
        <ele>2387.021</ele>
        <time>2018-07-17T07:31:10Z</time>
      </trkpt>
      <trkpt lat="45.472069" lon="6.852425">
        <ele>2387.529</ele>
        <time>2018-07-17T07:31:25Z</time>
      </trkpt>
      <trkpt lat="45.472039" lon="6.852474">
        <ele>2387.400</ele>
        <time>2018-07-17T07:31:37Z</time>
      </trkpt>
      <trkpt lat="45.471999" lon="6.852515">
        <ele>2387.320</ele>
        <time>2018-07-17T07:31:47Z</time>
      </trkpt>
      <trkpt lat="45.471960" lon="6.852558">
        <ele>2387.708</ele>
        <time>2018-07-17T07:31:54Z</time>
      </trkpt>
      <trkpt lat="45.471926" lon="6.852605">
        <ele>2388.324</ele>
        <time>2018-07-17T07:32:00Z</time>
      </trkpt>
      <trkpt lat="45.471898" lon="6.852672">
        <ele>2388.788</ele>
        <time>2018-07-17T07:32:05Z</time>
      </trkpt>
      <trkpt lat="45.471853" lon="6.852698">
        <ele>2388.960</ele>
        <time>2018-07-17T07:32:17Z</time>
      </trkpt>
      <trkpt lat="45.471830" lon="6.852756">
        <ele>2389.456</ele>
        <time>2018-07-17T07:32:28Z</time>
      </trkpt>
      <trkpt lat="45.471803" lon="6.852817">
        <ele>2391.733</ele>
        <time>2018-07-17T07:32:35Z</time>
      </trkpt>
      <trkpt lat="45.471765" lon="6.852858">
        <ele>2394.735</ele>
        <time>2018-07-17T07:33:01Z</time>
      </trkpt>
      <trkpt lat="45.471725" lon="6.852902">
        <ele>2396.165</ele>
        <time>2018-07-17T07:33:14Z</time>
      </trkpt>
      <trkpt lat="45.471686" lon="6.852937">
        <ele>2396.936</ele>
        <time>2018-07-17T07:33:20Z</time>
      </trkpt>
      <trkpt lat="45.471640" lon="6.852975">
        <ele>2397.848</ele>
        <time>2018-07-17T07:33:25Z</time>
      </trkpt>
      <trkpt lat="45.471595" lon="6.853020">
        <ele>2399.161</ele>
        <time>2018-07-17T07:33:30Z</time>
      </trkpt>
      <trkpt lat="45.471551" lon="6.853059">
        <ele>2400.317</ele>
        <time>2018-07-17T07:33:35Z</time>
      </trkpt>
      <trkpt lat="45.471507" lon="6.853095">
        <ele>2400.208</ele>
        <time>2018-07-17T07:33:40Z</time>
      </trkpt>
      <trkpt lat="45.471468" lon="6.853139">
        <ele>2400.276</ele>
        <time>2018-07-17T07:33:46Z</time>
      </trkpt>
      <trkpt lat="45.471431" lon="6.853182">
        <ele>2400.280</ele>
        <time>2018-07-17T07:33:52Z</time>
      </trkpt>
      <trkpt lat="45.471384" lon="6.853184">
        <ele>2399.862</ele>
        <time>2018-07-17T07:34:01Z</time>
      </trkpt>
      <trkpt lat="45.471340" lon="6.853219">
        <ele>2399.698</ele>
        <time>2018-07-17T07:34:09Z</time>
      </trkpt>
      <trkpt lat="45.471301" lon="6.853266">
        <ele>2399.155</ele>
        <time>2018-07-17T07:34:15Z</time>
      </trkpt>
      <trkpt lat="45.471262" lon="6.853309">
        <ele>2398.887</ele>
        <time>2018-07-17T07:34:21Z</time>
      </trkpt>
      <trkpt lat="45.471218" lon="6.853332">
        <ele>2399.067</ele>
        <time>2018-07-17T07:34:27Z</time>
      </trkpt>
      <trkpt lat="45.471180" lon="6.853373">
        <ele>2398.788</ele>
        <time>2018-07-17T07:34:34Z</time>
      </trkpt>
      <trkpt lat="45.471142" lon="6.853414">
        <ele>2398.588</ele>
        <time>2018-07-17T07:34:39Z</time>
      </trkpt>
      <trkpt lat="45.471101" lon="6.853447">
        <ele>2398.824</ele>
        <time>2018-07-17T07:34:43Z</time>
      </trkpt>
      <trkpt lat="45.471055" lon="6.853483">
        <ele>2399.026</ele>
        <time>2018-07-17T07:34:48Z</time>
      </trkpt>
      <trkpt lat="45.471014" lon="6.853511">
        <ele>2399.108</ele>
        <time>2018-07-17T07:34:53Z</time>
      </trkpt>
      <trkpt lat="45.470975" lon="6.853554">
        <ele>2398.830</ele>
        <time>2018-07-17T07:35:00Z</time>
      </trkpt>
      <trkpt lat="45.470930" lon="6.853588">
        <ele>2398.284</ele>
        <time>2018-07-17T07:35:09Z</time>
      </trkpt>
      <trkpt lat="45.470884" lon="6.853608">
        <ele>2396.666</ele>
        <time>2018-07-17T07:35:16Z</time>
      </trkpt>
      <trkpt lat="45.470844" lon="6.853656">
        <ele>2395.712</ele>
        <time>2018-07-17T07:35:25Z</time>
      </trkpt>
      <trkpt lat="45.470799" lon="6.853681">
        <ele>2395.119</ele>
        <time>2018-07-17T07:35:33Z</time>
      </trkpt>
      <trkpt lat="45.470761" lon="6.853721">
        <ele>2394.421</ele>
        <time>2018-07-17T07:35:40Z</time>
      </trkpt>
      <trkpt lat="45.470720" lon="6.853764">
        <ele>2394.421</ele>
        <time>2018-07-17T07:35:47Z</time>
      </trkpt>
      <trkpt lat="45.470685" lon="6.853804">
        <ele>2394.492</ele>
        <time>2018-07-17T07:35:52Z</time>
      </trkpt>
      <trkpt lat="45.470649" lon="6.853868">
        <ele>2395.652</ele>
        <time>2018-07-17T07:35:57Z</time>
      </trkpt>
      <trkpt lat="45.470622" lon="6.853924">
        <ele>2396.753</ele>
        <time>2018-07-17T07:36:01Z</time>
      </trkpt>
      <trkpt lat="45.470588" lon="6.853974">
        <ele>2397.408</ele>
        <time>2018-07-17T07:36:06Z</time>
      </trkpt>
      <trkpt lat="45.470550" lon="6.854015">
        <ele>2399.008</ele>
        <time>2018-07-17T07:36:12Z</time>
      </trkpt>
      <trkpt lat="45.470513" lon="6.854053">
        <ele>2400.017</ele>
        <time>2018-07-17T07:36:17Z</time>
      </trkpt>
      <trkpt lat="45.470470" lon="6.854080">
        <ele>2401.031</ele>
        <time>2018-07-17T07:36:23Z</time>
      </trkpt>
      <trkpt lat="45.470427" lon="6.854119">
        <ele>2402.483</ele>
        <time>2018-07-17T07:36:32Z</time>
      </trkpt>
      <trkpt lat="45.470386" lon="6.854161">
        <ele>2404.089</ele>
        <time>2018-07-17T07:36:40Z</time>
      </trkpt>
      <trkpt lat="45.470348" lon="6.854220">
        <ele>2405.026</ele>
        <time>2018-07-17T07:36:46Z</time>
      </trkpt>
      <trkpt lat="45.470324" lon="6.854275">
        <ele>2405.238</ele>
        <time>2018-07-17T07:36:50Z</time>
      </trkpt>
      <trkpt lat="45.470300" lon="6.854343">
        <ele>2405.328</ele>
        <time>2018-07-17T07:36:56Z</time>
      </trkpt>
      <trkpt lat="45.470272" lon="6.854394">
        <ele>2405.419</ele>
        <time>2018-07-17T07:37:01Z</time>
      </trkpt>
      <trkpt lat="45.470234" lon="6.854431">
        <ele>2405.429</ele>
        <time>2018-07-17T07:37:09Z</time>
      </trkpt>
      <trkpt lat="45.470189" lon="6.854468">
        <ele>2406.600</ele>
        <time>2018-07-17T07:37:16Z</time>
      </trkpt>
      <trkpt lat="45.470152" lon="6.854529">
        <ele>2410.620</ele>
        <time>2018-07-17T07:37:35Z</time>
      </trkpt>
      <trkpt lat="45.470111" lon="6.854558">
        <ele>2412.508</ele>
        <time>2018-07-17T07:37:44Z</time>
      </trkpt>
      <trkpt lat="45.470070" lon="6.854589">
        <ele>2413.374</ele>
        <time>2018-07-17T07:37:49Z</time>
      </trkpt>
      <trkpt lat="45.470023" lon="6.854606">
        <ele>2414.298</ele>
        <time>2018-07-17T07:37:55Z</time>
      </trkpt>
      <trkpt lat="45.469973" lon="6.854622">
        <ele>2414.320</ele>
        <time>2018-07-17T07:38:01Z</time>
      </trkpt>
      <trkpt lat="45.469926" lon="6.854637">
        <ele>2414.056</ele>
        <time>2018-07-17T07:38:06Z</time>
      </trkpt>
      <trkpt lat="45.469876" lon="6.854655">
        <ele>2414.283</ele>
        <time>2018-07-17T07:38:11Z</time>
      </trkpt>
      <trkpt lat="45.469830" lon="6.854660">
        <ele>2414.315</ele>
        <time>2018-07-17T07:38:16Z</time>
      </trkpt>
      <trkpt lat="45.469791" lon="6.854693">
        <ele>2414.845</ele>
        <time>2018-07-17T07:38:23Z</time>
      </trkpt>
      <trkpt lat="45.469750" lon="6.854728">
        <ele>2415.146</ele>
        <time>2018-07-17T07:38:34Z</time>
      </trkpt>
      <trkpt lat="45.469706" lon="6.854757">
        <ele>2415.335</ele>
        <time>2018-07-17T07:38:41Z</time>
      </trkpt>
      <trkpt lat="45.469662" lon="6.854777">
        <ele>2415.486</ele>
        <time>2018-07-17T07:38:47Z</time>
      </trkpt>
      <trkpt lat="45.469617" lon="6.854793">
        <ele>2414.714</ele>
        <time>2018-07-17T07:38:54Z</time>
      </trkpt>
      <trkpt lat="45.469573" lon="6.854824">
        <ele>2415.108</ele>
        <time>2018-07-17T07:39:02Z</time>
      </trkpt>
      <trkpt lat="45.469530" lon="6.854853">
        <ele>2416.165</ele>
        <time>2018-07-17T07:39:10Z</time>
      </trkpt>
      <trkpt lat="45.469486" lon="6.854876">
        <ele>2418.319</ele>
        <time>2018-07-17T07:39:20Z</time>
      </trkpt>
      <trkpt lat="45.469412" lon="6.854883">
        <ele>2420.041</ele>
        <time>2018-07-17T07:39:39Z</time>
      </trkpt>
      <trkpt lat="45.469368" lon="6.854865">
        <ele>2421.017</ele>
        <time>2018-07-17T07:39:48Z</time>
      </trkpt>
      <trkpt lat="45.469321" lon="6.854839">
        <ele>2422.074</ele>
        <time>2018-07-17T07:39:58Z</time>
      </trkpt>
      <trkpt lat="45.469274" lon="6.854830">
        <ele>2424.276</ele>
        <time>2018-07-17T07:40:10Z</time>
      </trkpt>
      <trkpt lat="45.469226" lon="6.854848">
        <ele>2427.556</ele>
        <time>2018-07-17T07:40:26Z</time>
      </trkpt>
      <trkpt lat="45.469184" lon="6.854877">
        <ele>2430.347</ele>
        <time>2018-07-17T07:40:40Z</time>
      </trkpt>
      <trkpt lat="45.469142" lon="6.854908">
        <ele>2433.257</ele>
        <time>2018-07-17T07:41:17Z</time>
      </trkpt>
      <trkpt lat="45.469107" lon="6.854963">
        <ele>2435.300</ele>
        <time>2018-07-17T07:41:32Z</time>
      </trkpt>
      <trkpt lat="45.469091" lon="6.855029">
        <ele>2437.020</ele>
        <time>2018-07-17T07:41:40Z</time>
      </trkpt>
      <trkpt lat="45.469065" lon="6.855091">
        <ele>2438.808</ele>
        <time>2018-07-17T07:41:49Z</time>
      </trkpt>
      <trkpt lat="45.469033" lon="6.855154">
        <ele>2440.797</ele>
        <time>2018-07-17T07:41:58Z</time>
      </trkpt>
      <trkpt lat="45.469015" lon="6.855214">
        <ele>2442.221</ele>
        <time>2018-07-17T07:42:07Z</time>
      </trkpt>
      <trkpt lat="45.468990" lon="6.855273">
        <ele>2443.923</ele>
        <time>2018-07-17T07:42:15Z</time>
      </trkpt>
      <trkpt lat="45.468960" lon="6.855323">
        <ele>2445.389</ele>
        <time>2018-07-17T07:42:23Z</time>
      </trkpt>
      <trkpt lat="45.468930" lon="6.855375">
        <ele>2446.656</ele>
        <time>2018-07-17T07:42:31Z</time>
      </trkpt>
      <trkpt lat="45.468883" lon="6.855374">
        <ele>2445.448</ele>
        <time>2018-07-17T07:42:41Z</time>
      </trkpt>
      <trkpt lat="45.468839" lon="6.855360">
        <ele>2445.938</ele>
        <time>2018-07-17T07:42:56Z</time>
      </trkpt>
      <trkpt lat="45.468793" lon="6.855344">
        <ele>2446.689</ele>
        <time>2018-07-17T07:43:13Z</time>
      </trkpt>
      <trkpt lat="45.468750" lon="6.855317">
        <ele>2447.434</ele>
        <time>2018-07-17T07:43:22Z</time>
      </trkpt>
      <trkpt lat="45.468713" lon="6.855265">
        <ele>2449.555</ele>
        <time>2018-07-17T07:44:50Z</time>
      </trkpt>
      <trkpt lat="45.468683" lon="6.855213">
        <ele>2449.910</ele>
        <time>2018-07-17T07:45:03Z</time>
      </trkpt>
      <trkpt lat="45.468646" lon="6.855175">
        <ele>2450.208</ele>
        <time>2018-07-17T07:45:10Z</time>
      </trkpt>
      <trkpt lat="45.468612" lon="6.855120">
        <ele>2449.625</ele>
        <time>2018-07-17T07:45:20Z</time>
      </trkpt>
      <trkpt lat="45.468598" lon="6.855054">
        <ele>2451.629</ele>
        <time>2018-07-17T07:45:47Z</time>
      </trkpt>
      <trkpt lat="45.468563" lon="6.855007">
        <ele>2453.251</ele>
        <time>2018-07-17T07:45:53Z</time>
      </trkpt>
      <trkpt lat="45.468519" lon="6.854977">
        <ele>2454.277</ele>
        <time>2018-07-17T07:45:59Z</time>
      </trkpt>
      <trkpt lat="45.468480" lon="6.854941">
        <ele>2454.844</ele>
        <time>2018-07-17T07:46:06Z</time>
      </trkpt>
      <trkpt lat="45.468433" lon="6.854940">
        <ele>2455.166</ele>
        <time>2018-07-17T07:46:26Z</time>
      </trkpt>
      <trkpt lat="45.468384" lon="6.854920">
        <ele>2456.116</ele>
        <time>2018-07-17T07:46:39Z</time>
      </trkpt>
      <trkpt lat="45.468339" lon="6.854908">
        <ele>2456.797</ele>
        <time>2018-07-17T07:46:45Z</time>
      </trkpt>
      <trkpt lat="45.468296" lon="6.854887">
        <ele>2457.594</ele>
        <time>2018-07-17T07:47:22Z</time>
      </trkpt>
      <trkpt lat="45.468245" lon="6.854868">
        <ele>2458.857</ele>
        <time>2018-07-17T07:47:28Z</time>
      </trkpt>
      <trkpt lat="45.468193" lon="6.854853">
        <ele>2459.222</ele>
        <time>2018-07-17T07:47:34Z</time>
      </trkpt>
      <trkpt lat="45.468145" lon="6.854851">
        <ele>2459.408</ele>
        <time>2018-07-17T07:47:39Z</time>
      </trkpt>
      <trkpt lat="45.468093" lon="6.854852">
        <ele>2459.961</ele>
        <time>2018-07-17T07:47:44Z</time>
      </trkpt>
      <trkpt lat="45.468047" lon="6.854871">
        <ele>2459.855</ele>
        <time>2018-07-17T07:47:49Z</time>
      </trkpt>
      <trkpt lat="45.468000" lon="6.854901">
        <ele>2459.797</ele>
        <time>2018-07-17T07:47:55Z</time>
      </trkpt>
      <trkpt lat="45.467955" lon="6.854922">
        <ele>2458.943</ele>
        <time>2018-07-17T07:48:01Z</time>
      </trkpt>
      <trkpt lat="45.467918" lon="6.854960">
        <ele>2459.270</ele>
        <time>2018-07-17T07:48:06Z</time>
      </trkpt>
      <trkpt lat="45.467876" lon="6.855006">
        <ele>2459.882</ele>
        <time>2018-07-17T07:48:11Z</time>
      </trkpt>
      <trkpt lat="45.467833" lon="6.855032">
        <ele>2460.562</ele>
        <time>2018-07-17T07:48:20Z</time>
      </trkpt>
      <trkpt lat="45.467784" lon="6.855055">
        <ele>2461.323</ele>
        <time>2018-07-17T07:48:27Z</time>
      </trkpt>
      <trkpt lat="45.467746" lon="6.855089">
        <ele>2461.872</ele>
        <time>2018-07-17T07:48:32Z</time>
      </trkpt>
      <trkpt lat="45.467704" lon="6.855134">
        <ele>2462.113</ele>
        <time>2018-07-17T07:48:38Z</time>
      </trkpt>
      <trkpt lat="45.467664" lon="6.855169">
        <ele>2462.714</ele>
        <time>2018-07-17T07:48:47Z</time>
      </trkpt>
      <trkpt lat="45.467623" lon="6.855200">
        <ele>2463.108</ele>
        <time>2018-07-17T07:48:52Z</time>
      </trkpt>
      <trkpt lat="45.467575" lon="6.855233">
        <ele>2462.989</ele>
        <time>2018-07-17T07:48:58Z</time>
      </trkpt>
      <trkpt lat="45.467535" lon="6.855267">
        <ele>2462.833</ele>
        <time>2018-07-17T07:49:02Z</time>
      </trkpt>
      <trkpt lat="45.467494" lon="6.855297">
        <ele>2462.725</ele>
        <time>2018-07-17T07:49:06Z</time>
      </trkpt>
      <trkpt lat="45.467453" lon="6.855328">
        <ele>2462.731</ele>
        <time>2018-07-17T07:49:10Z</time>
      </trkpt>
      <trkpt lat="45.467408" lon="6.855372">
        <ele>2462.748</ele>
        <time>2018-07-17T07:49:15Z</time>
      </trkpt>
      <trkpt lat="45.467371" lon="6.855411">
        <ele>2462.760</ele>
        <time>2018-07-17T07:49:20Z</time>
      </trkpt>
      <trkpt lat="45.467333" lon="6.855454">
        <ele>2462.360</ele>
        <time>2018-07-17T07:49:26Z</time>
      </trkpt>
      <trkpt lat="45.467292" lon="6.855480">
        <ele>2461.741</ele>
        <time>2018-07-17T07:49:31Z</time>
      </trkpt>
      <trkpt lat="45.467250" lon="6.855513">
        <ele>2461.727</ele>
        <time>2018-07-17T07:49:36Z</time>
      </trkpt>
      <trkpt lat="45.467206" lon="6.855555">
        <ele>2462.168</ele>
        <time>2018-07-17T07:49:41Z</time>
      </trkpt>
      <trkpt lat="45.467162" lon="6.855581">
        <ele>2462.314</ele>
        <time>2018-07-17T07:49:46Z</time>
      </trkpt>
      <trkpt lat="45.467113" lon="6.855610">
        <ele>2462.408</ele>
        <time>2018-07-17T07:49:51Z</time>
      </trkpt>
      <trkpt lat="45.467075" lon="6.855653">
        <ele>2462.184</ele>
        <time>2018-07-17T07:49:56Z</time>
      </trkpt>
      <trkpt lat="45.467031" lon="6.855697">
        <ele>2461.998</ele>
        <time>2018-07-17T07:50:01Z</time>
      </trkpt>
      <trkpt lat="45.466994" lon="6.855735">
        <ele>2461.890</ele>
        <time>2018-07-17T07:50:05Z</time>
      </trkpt>
      <trkpt lat="45.466949" lon="6.855766">
        <ele>2462.136</ele>
        <time>2018-07-17T07:50:10Z</time>
      </trkpt>
      <trkpt lat="45.466904" lon="6.855795">
        <ele>2462.333</ele>
        <time>2018-07-17T07:50:15Z</time>
      </trkpt>
      <trkpt lat="45.466855" lon="6.855824">
        <ele>2462.835</ele>
        <time>2018-07-17T07:50:20Z</time>
      </trkpt>
      <trkpt lat="45.466808" lon="6.855843">
        <ele>2463.565</ele>
        <time>2018-07-17T07:50:26Z</time>
      </trkpt>
      <trkpt lat="45.466759" lon="6.855852">
        <ele>2464.376</ele>
        <time>2018-07-17T07:50:34Z</time>
      </trkpt>
      <trkpt lat="45.466709" lon="6.855858">
        <ele>2465.686</ele>
        <time>2018-07-17T07:50:41Z</time>
      </trkpt>
      <trkpt lat="45.466664" lon="6.855871">
        <ele>2467.260</ele>
        <time>2018-07-17T07:50:48Z</time>
      </trkpt>
      <trkpt lat="45.466617" lon="6.855889">
        <ele>2468.926</ele>
        <time>2018-07-17T07:50:55Z</time>
      </trkpt>
      <trkpt lat="45.466572" lon="6.855901">
        <ele>2469.908</ele>
        <time>2018-07-17T07:51:02Z</time>
      </trkpt>
      <trkpt lat="45.466526" lon="6.855908">
        <ele>2471.310</ele>
        <time>2018-07-17T07:51:11Z</time>
      </trkpt>
      <trkpt lat="45.466480" lon="6.855890">
        <ele>2473.074</ele>
        <time>2018-07-17T07:51:19Z</time>
      </trkpt>
      <trkpt lat="45.466431" lon="6.855873">
        <ele>2474.896</ele>
        <time>2018-07-17T07:51:27Z</time>
      </trkpt>
      <trkpt lat="45.466385" lon="6.855877">
        <ele>2476.742</ele>
        <time>2018-07-17T07:51:36Z</time>
      </trkpt>
      <trkpt lat="45.466336" lon="6.855862">
        <ele>2477.449</ele>
        <time>2018-07-17T07:51:51Z</time>
      </trkpt>
      <trkpt lat="45.466285" lon="6.855858">
        <ele>2478.251</ele>
        <time>2018-07-17T07:51:59Z</time>
      </trkpt>
      <trkpt lat="45.466240" lon="6.855842">
        <ele>2478.791</ele>
        <time>2018-07-17T07:52:06Z</time>
      </trkpt>
      <trkpt lat="45.466196" lon="6.855824">
        <ele>2479.092</ele>
        <time>2018-07-17T07:52:15Z</time>
      </trkpt>
      <trkpt lat="45.466151" lon="6.855837">
        <ele>2480.061</ele>
        <time>2018-07-17T07:52:25Z</time>
      </trkpt>
      <trkpt lat="45.466103" lon="6.855829">
        <ele>2481.021</ele>
        <time>2018-07-17T07:52:35Z</time>
      </trkpt>
      <trkpt lat="45.466057" lon="6.855839">
        <ele>2483.213</ele>
        <time>2018-07-17T07:52:46Z</time>
      </trkpt>
      <trkpt lat="45.466012" lon="6.855839">
        <ele>2484.908</ele>
        <time>2018-07-17T07:52:57Z</time>
      </trkpt>
      <trkpt lat="45.465964" lon="6.855828">
        <ele>2485.578</ele>
        <time>2018-07-17T07:53:06Z</time>
      </trkpt>
      <trkpt lat="45.465917" lon="6.855831">
        <ele>2485.512</ele>
        <time>2018-07-17T07:53:16Z</time>
      </trkpt>
      <trkpt lat="45.465872" lon="6.855808">
        <ele>2485.564</ele>
        <time>2018-07-17T07:53:42Z</time>
      </trkpt>
      <trkpt lat="45.465825" lon="6.855785">
        <ele>2484.380</ele>
        <time>2018-07-17T07:53:51Z</time>
      </trkpt>
      <trkpt lat="45.465777" lon="6.855777">
        <ele>2484.487</ele>
        <time>2018-07-17T07:54:04Z</time>
      </trkpt>
      <trkpt lat="45.465734" lon="6.855756">
        <ele>2484.439</ele>
        <time>2018-07-17T07:54:15Z</time>
      </trkpt>
      <trkpt lat="45.465685" lon="6.855754">
        <ele>2485.679</ele>
        <time>2018-07-17T07:54:28Z</time>
      </trkpt>
      <trkpt lat="45.465637" lon="6.855737">
        <ele>2486.330</ele>
        <time>2018-07-17T07:54:37Z</time>
      </trkpt>
      <trkpt lat="45.465596" lon="6.855762">
        <ele>2487.932</ele>
        <time>2018-07-17T07:54:48Z</time>
      </trkpt>
      <trkpt lat="45.465551" lon="6.855763">
        <ele>2489.792</ele>
        <time>2018-07-17T07:55:00Z</time>
      </trkpt>
      <trkpt lat="45.465506" lon="6.855777">
        <ele>2491.211</ele>
        <time>2018-07-17T07:55:11Z</time>
      </trkpt>
      <trkpt lat="45.465458" lon="6.855789">
        <ele>2494.508</ele>
        <time>2018-07-17T07:55:57Z</time>
      </trkpt>
      <trkpt lat="45.465412" lon="6.855787">
        <ele>2496.595</ele>
        <time>2018-07-17T07:56:06Z</time>
      </trkpt>
      <trkpt lat="45.465366" lon="6.855785">
        <ele>2500.199</ele>
        <time>2018-07-17T07:56:17Z</time>
      </trkpt>
      <trkpt lat="45.465321" lon="6.855796">
        <ele>2502.641</ele>
        <time>2018-07-17T07:56:27Z</time>
      </trkpt>
      <trkpt lat="45.465277" lon="6.855828">
        <ele>2505.727</ele>
        <time>2018-07-17T07:56:39Z</time>
      </trkpt>
      <trkpt lat="45.465230" lon="6.855836">
        <ele>2507.234</ele>
        <time>2018-07-17T07:56:49Z</time>
      </trkpt>
      <trkpt lat="45.465186" lon="6.855855">
        <ele>2508.986</ele>
        <time>2018-07-17T07:57:03Z</time>
      </trkpt>
      <trkpt lat="45.465150" lon="6.855897">
        <ele>2512.316</ele>
        <time>2018-07-17T07:57:14Z</time>
      </trkpt>
      <trkpt lat="45.465100" lon="6.855882">
        <ele>2513.527</ele>
        <time>2018-07-17T07:57:22Z</time>
      </trkpt>
      <trkpt lat="45.465051" lon="6.855890">
        <ele>2515.074</ele>
        <time>2018-07-17T07:57:32Z</time>
      </trkpt>
      <trkpt lat="45.465003" lon="6.855904">
        <ele>2515.556</ele>
        <time>2018-07-17T07:57:42Z</time>
      </trkpt>
      <trkpt lat="45.464956" lon="6.855910">
        <ele>2516.221</ele>
        <time>2018-07-17T07:58:33Z</time>
      </trkpt>
      <trkpt lat="45.464906" lon="6.855903">
        <ele>2516.208</ele>
        <time>2018-07-17T07:58:42Z</time>
      </trkpt>
      <trkpt lat="45.464860" lon="6.855927">
        <ele>2516.289</ele>
        <time>2018-07-17T07:58:52Z</time>
      </trkpt>
      <trkpt lat="45.464809" lon="6.855927">
        <ele>2516.273</ele>
        <time>2018-07-17T07:59:02Z</time>
      </trkpt>
      <trkpt lat="45.464765" lon="6.855906">
        <ele>2516.695</ele>
        <time>2018-07-17T07:59:12Z</time>
      </trkpt>
      <trkpt lat="45.464719" lon="6.855912">
        <ele>2517.291</ele>
        <time>2018-07-17T07:59:22Z</time>
      </trkpt>
      <trkpt lat="45.464667" lon="6.855913">
        <ele>2518.048</ele>
        <time>2018-07-17T07:59:33Z</time>
      </trkpt>
      <trkpt lat="45.464616" lon="6.855911">
        <ele>2517.730</ele>
        <time>2018-07-17T07:59:40Z</time>
      </trkpt>
      <trkpt lat="45.464568" lon="6.855917">
        <ele>2517.560</ele>
        <time>2018-07-17T07:59:49Z</time>
      </trkpt>
      <trkpt lat="45.464521" lon="6.855908">
        <ele>2517.891</ele>
        <time>2018-07-17T07:59:59Z</time>
      </trkpt>
      <trkpt lat="45.464481" lon="6.855939">
        <ele>2518.833</ele>
        <time>2018-07-17T08:00:14Z</time>
      </trkpt>
      <trkpt lat="45.464433" lon="6.855942">
        <ele>2519.823</ele>
        <time>2018-07-17T08:00:29Z</time>
      </trkpt>
      <trkpt lat="45.464388" lon="6.855951">
        <ele>2521.615</ele>
        <time>2018-07-17T08:00:41Z</time>
      </trkpt>
      <trkpt lat="45.464343" lon="6.855938">
        <ele>2522.708</ele>
        <time>2018-07-17T08:00:51Z</time>
      </trkpt>
      <trkpt lat="45.464298" lon="6.855945">
        <ele>2522.595</ele>
        <time>2018-07-17T08:01:03Z</time>
      </trkpt>
      <trkpt lat="45.464254" lon="6.855916">
        <ele>2522.449</ele>
        <time>2018-07-17T08:01:24Z</time>
      </trkpt>
      <trkpt lat="45.464208" lon="6.855922">
        <ele>2522.321</ele>
        <time>2018-07-17T08:01:37Z</time>
      </trkpt>
      <trkpt lat="45.464160" lon="6.855921">
        <ele>2522.317</ele>
        <time>2018-07-17T08:01:50Z</time>
      </trkpt>
      <trkpt lat="45.464115" lon="6.855901">
        <ele>2521.914</ele>
        <time>2018-07-17T08:01:59Z</time>
      </trkpt>
      <trkpt lat="45.464068" lon="6.855878">
        <ele>2522.056</ele>
        <time>2018-07-17T08:02:14Z</time>
      </trkpt>
      <trkpt lat="45.464025" lon="6.855857">
        <ele>2521.756</ele>
        <time>2018-07-17T08:02:25Z</time>
      </trkpt>
      <trkpt lat="45.463979" lon="6.855824">
        <ele>2521.957</ele>
        <time>2018-07-17T08:02:33Z</time>
      </trkpt>
      <trkpt lat="45.463940" lon="6.855783">
        <ele>2522.471</ele>
        <time>2018-07-17T08:02:41Z</time>
      </trkpt>
      <trkpt lat="45.463902" lon="6.855739">
        <ele>2523.541</ele>
        <time>2018-07-17T08:02:50Z</time>
      </trkpt>
      <trkpt lat="45.463865" lon="6.855699">
        <ele>2524.215</ele>
        <time>2018-07-17T08:02:58Z</time>
      </trkpt>
      <trkpt lat="45.463829" lon="6.855658">
        <ele>2524.608</ele>
        <time>2018-07-17T08:03:05Z</time>
      </trkpt>
      <trkpt lat="45.463787" lon="6.855623">
        <ele>2525.299</ele>
        <time>2018-07-17T08:03:12Z</time>
      </trkpt>
      <trkpt lat="45.463742" lon="6.855586">
        <ele>2526.423</ele>
        <time>2018-07-17T08:03:19Z</time>
      </trkpt>
      <trkpt lat="45.463698" lon="6.855568">
        <ele>2527.195</ele>
        <time>2018-07-17T08:03:27Z</time>
      </trkpt>
      <trkpt lat="45.463657" lon="6.855533">
        <ele>2527.981</ele>
        <time>2018-07-17T08:03:34Z</time>
      </trkpt>
      <trkpt lat="45.463617" lon="6.855498">
        <ele>2528.828</ele>
        <time>2018-07-17T08:03:42Z</time>
      </trkpt>
      <trkpt lat="45.463569" lon="6.855475">
        <ele>2528.910</ele>
        <time>2018-07-17T08:03:51Z</time>
      </trkpt>
      <trkpt lat="45.463523" lon="6.855424">
        <ele>2529.890</ele>
        <time>2018-07-17T08:04:48Z</time>
      </trkpt>
      <trkpt lat="45.463477" lon="6.855424">
        <ele>2530.361</ele>
        <time>2018-07-17T08:04:58Z</time>
      </trkpt>
      <trkpt lat="45.463431" lon="6.855412">
        <ele>2531.036</ele>
        <time>2018-07-17T08:05:06Z</time>
      </trkpt>
      <trkpt lat="45.463380" lon="6.855408">
        <ele>2532.217</ele>
        <time>2018-07-17T08:05:13Z</time>
      </trkpt>
      <trkpt lat="45.463334" lon="6.855408">
        <ele>2533.318</ele>
        <time>2018-07-17T08:05:20Z</time>
      </trkpt>
      <trkpt lat="45.463288" lon="6.855401">
        <ele>2534.808</ele>
        <time>2018-07-17T08:05:26Z</time>
      </trkpt>
      <trkpt lat="45.463243" lon="6.855385">
        <ele>2536.595</ele>
        <time>2018-07-17T08:05:34Z</time>
      </trkpt>
      <trkpt lat="45.463197" lon="6.855406">
        <ele>2538.359</ele>
        <time>2018-07-17T08:05:43Z</time>
      </trkpt>
      <trkpt lat="45.463149" lon="6.855415">
        <ele>2540.241</ele>
        <time>2018-07-17T08:05:50Z</time>
      </trkpt>
      <trkpt lat="45.463099" lon="6.855408">
        <ele>2542.527</ele>
        <time>2018-07-17T08:05:59Z</time>
      </trkpt>
      <trkpt lat="45.463050" lon="6.855409">
        <ele>2544.374</ele>
        <time>2018-07-17T08:06:07Z</time>
      </trkpt>
      <trkpt lat="45.463001" lon="6.855419">
        <ele>2545.846</ele>
        <time>2018-07-17T08:06:17Z</time>
      </trkpt>
      <trkpt lat="45.462954" lon="6.855430">
        <ele>2547.916</ele>
        <time>2018-07-17T08:06:26Z</time>
      </trkpt>
      <trkpt lat="45.462903" lon="6.855431">
        <ele>2549.227</ele>
        <time>2018-07-17T08:06:34Z</time>
      </trkpt>
      <trkpt lat="45.462858" lon="6.855420">
        <ele>2550.451</ele>
        <time>2018-07-17T08:06:40Z</time>
      </trkpt>
      <trkpt lat="45.462811" lon="6.855419">
        <ele>2551.901</ele>
        <time>2018-07-17T08:06:48Z</time>
      </trkpt>
      <trkpt lat="45.462762" lon="6.855419">
        <ele>2553.611</ele>
        <time>2018-07-17T08:06:56Z</time>
      </trkpt>
      <trkpt lat="45.462716" lon="6.855424">
        <ele>2554.608</ele>
        <time>2018-07-17T08:07:03Z</time>
      </trkpt>
      <trkpt lat="45.462669" lon="6.855432">
        <ele>2555.667</ele>
        <time>2018-07-17T08:07:09Z</time>
      </trkpt>
      <trkpt lat="45.462620" lon="6.855440">
        <ele>2557.011</ele>
        <time>2018-07-17T08:07:16Z</time>
      </trkpt>
      <trkpt lat="45.462574" lon="6.855452">
        <ele>2557.883</ele>
        <time>2018-07-17T08:07:22Z</time>
      </trkpt>
      <trkpt lat="45.462528" lon="6.855464">
        <ele>2558.799</ele>
        <time>2018-07-17T08:07:28Z</time>
      </trkpt>
      <trkpt lat="45.462479" lon="6.855458">
        <ele>2559.296</ele>
        <time>2018-07-17T08:07:35Z</time>
      </trkpt>
      <trkpt lat="45.462428" lon="6.855449">
        <ele>2559.918</ele>
        <time>2018-07-17T08:07:42Z</time>
      </trkpt>
      <trkpt lat="45.462384" lon="6.855428">
        <ele>2560.798</ele>
        <time>2018-07-17T08:07:50Z</time>
      </trkpt>
      <trkpt lat="45.462339" lon="6.855420">
        <ele>2561.639</ele>
        <time>2018-07-17T08:07:57Z</time>
      </trkpt>
      <trkpt lat="45.462289" lon="6.855420">
        <ele>2562.173</ele>
        <time>2018-07-17T08:08:04Z</time>
      </trkpt>
      <trkpt lat="45.462239" lon="6.855427">
        <ele>2562.885</ele>
        <time>2018-07-17T08:08:10Z</time>
      </trkpt>
      <trkpt lat="45.462194" lon="6.855434">
        <ele>2562.813</ele>
        <time>2018-07-17T08:08:16Z</time>
      </trkpt>
      <trkpt lat="45.462152" lon="6.855458">
        <ele>2562.808</ele>
        <time>2018-07-17T08:08:21Z</time>
      </trkpt>
      <trkpt lat="45.462107" lon="6.855485">
        <ele>2563.249</ele>
        <time>2018-07-17T08:08:26Z</time>
      </trkpt>
      <trkpt lat="45.462063" lon="6.855508">
        <ele>2563.893</ele>
        <time>2018-07-17T08:08:31Z</time>
      </trkpt>
      <trkpt lat="45.462016" lon="6.855537">
        <ele>2564.255</ele>
        <time>2018-07-17T08:08:38Z</time>
      </trkpt>
      <trkpt lat="45.461972" lon="6.855570">
        <ele>2564.821</ele>
        <time>2018-07-17T08:08:45Z</time>
      </trkpt>
      <trkpt lat="45.461925" lon="6.855602">
        <ele>2565.658</ele>
        <time>2018-07-17T08:08:51Z</time>
      </trkpt>
      <trkpt lat="45.461878" lon="6.855633">
        <ele>2566.190</ele>
        <time>2018-07-17T08:08:57Z</time>
      </trkpt>
      <trkpt lat="45.461836" lon="6.855667">
        <ele>2566.830</ele>
        <time>2018-07-17T08:09:03Z</time>
      </trkpt>
      <trkpt lat="45.461797" lon="6.855705">
        <ele>2567.231</ele>
        <time>2018-07-17T08:09:09Z</time>
      </trkpt>
      <trkpt lat="45.461756" lon="6.855749">
        <ele>2567.427</ele>
        <time>2018-07-17T08:09:15Z</time>
      </trkpt>
      <trkpt lat="45.461721" lon="6.855791">
        <ele>2567.568</ele>
        <time>2018-07-17T08:09:21Z</time>
      </trkpt>
      <trkpt lat="45.461683" lon="6.855832">
        <ele>2568.014</ele>
        <time>2018-07-17T08:09:27Z</time>
      </trkpt>
      <trkpt lat="45.461642" lon="6.855878">
        <ele>2568.708</ele>
        <time>2018-07-17T08:09:33Z</time>
      </trkpt>
      <trkpt lat="45.461606" lon="6.855932">
        <ele>2569.584</ele>
        <time>2018-07-17T08:09:39Z</time>
      </trkpt>
      <trkpt lat="45.461580" lon="6.855991">
        <ele>2570.068</ele>
        <time>2018-07-17T08:09:45Z</time>
      </trkpt>
      <trkpt lat="45.461561" lon="6.856050">
        <ele>2570.750</ele>
        <time>2018-07-17T08:09:51Z</time>
      </trkpt>
      <trkpt lat="45.461546" lon="6.856118">
        <ele>2571.586</ele>
        <time>2018-07-17T08:09:58Z</time>
      </trkpt>
      <trkpt lat="45.461516" lon="6.856173">
        <ele>2571.263</ele>
        <time>2018-07-17T08:10:04Z</time>
      </trkpt>
      <trkpt lat="45.461492" lon="6.856231">
        <ele>2571.065</ele>
        <time>2018-07-17T08:10:09Z</time>
      </trkpt>
      <trkpt lat="45.461464" lon="6.856286">
        <ele>2570.955</ele>
        <time>2018-07-17T08:10:14Z</time>
      </trkpt>
      <trkpt lat="45.461430" lon="6.856330">
        <ele>2571.226</ele>
        <time>2018-07-17T08:10:33Z</time>
      </trkpt>
      <trkpt lat="45.461407" lon="6.856387">
        <ele>2571.874</ele>
        <time>2018-07-17T08:10:39Z</time>
      </trkpt>
      <trkpt lat="45.461386" lon="6.856455">
        <ele>2573.056</ele>
        <time>2018-07-17T08:10:45Z</time>
      </trkpt>
      <trkpt lat="45.461363" lon="6.856511">
        <ele>2573.721</ele>
        <time>2018-07-17T08:10:50Z</time>
      </trkpt>
      <trkpt lat="45.461342" lon="6.856577">
        <ele>2574.508</ele>
        <time>2018-07-17T08:11:04Z</time>
      </trkpt>
      <trkpt lat="45.461325" lon="6.856637">
        <ele>2574.699</ele>
        <time>2018-07-17T08:11:10Z</time>
      </trkpt>
      <trkpt lat="45.461299" lon="6.856692">
        <ele>2574.373</ele>
        <time>2018-07-17T08:11:17Z</time>
      </trkpt>
      <trkpt lat="45.461259" lon="6.856736">
        <ele>2573.725</ele>
        <time>2018-07-17T08:11:25Z</time>
      </trkpt>
      <trkpt lat="45.461230" lon="6.856795">
        <ele>2572.981</ele>
        <time>2018-07-17T08:11:33Z</time>
      </trkpt>
      <trkpt lat="45.461187" lon="6.856852">
        <ele>2573.698</ele>
        <time>2018-07-17T08:13:23Z</time>
      </trkpt>
      <trkpt lat="45.461144" lon="6.856878">
        <ele>2572.860</ele>
        <time>2018-07-17T08:13:49Z</time>
      </trkpt>
      <trkpt lat="45.461112" lon="6.856830">
        <ele>2571.190</ele>
        <time>2018-07-17T08:14:09Z</time>
      </trkpt>
      <trkpt lat="45.461064" lon="6.856814">
        <ele>2569.711</ele>
        <time>2018-07-17T08:14:31Z</time>
      </trkpt>
      <trkpt lat="45.461022" lon="6.856841">
        <ele>2568.948</ele>
        <time>2018-07-17T08:14:38Z</time>
      </trkpt>
      <trkpt lat="45.460968" lon="6.856851">
        <ele>2568.061</ele>
        <time>2018-07-17T08:14:44Z</time>
      </trkpt>
      <trkpt lat="45.460920" lon="6.856841">
        <ele>2567.117</ele>
        <time>2018-07-17T08:14:49Z</time>
      </trkpt>
      <trkpt lat="45.460869" lon="6.856829">
        <ele>2566.908</ele>
        <time>2018-07-17T08:14:54Z</time>
      </trkpt>
      <trkpt lat="45.460819" lon="6.856814">
        <ele>2566.036</ele>
        <time>2018-07-17T08:14:59Z</time>
      </trkpt>
      <trkpt lat="45.460771" lon="6.856790">
        <ele>2565.510</ele>
        <time>2018-07-17T08:15:04Z</time>
      </trkpt>
      <trkpt lat="45.460728" lon="6.856754">
        <ele>2564.812</ele>
        <time>2018-07-17T08:15:12Z</time>
      </trkpt>
      <trkpt lat="45.460683" lon="6.856755">
        <ele>2564.468</ele>
        <time>2018-07-17T08:15:17Z</time>
      </trkpt>
      <trkpt lat="45.460636" lon="6.856762">
        <ele>2563.775</ele>
        <time>2018-07-17T08:15:22Z</time>
      </trkpt>
      <trkpt lat="45.460591" lon="6.856781">
        <ele>2563.737</ele>
        <time>2018-07-17T08:15:28Z</time>
      </trkpt>
      <trkpt lat="45.460546" lon="6.856798">
        <ele>2564.157</ele>
        <time>2018-07-17T08:15:34Z</time>
      </trkpt>
      <trkpt lat="45.460497" lon="6.856818">
        <ele>2564.358</ele>
        <time>2018-07-17T08:15:42Z</time>
      </trkpt>
      <trkpt lat="45.460451" lon="6.856819">
        <ele>2565.238</ele>
        <time>2018-07-17T08:15:55Z</time>
      </trkpt>
      <trkpt lat="45.460400" lon="6.856820">
        <ele>2566.670</ele>
        <time>2018-07-17T08:16:16Z</time>
      </trkpt>
      <trkpt lat="45.460352" lon="6.856836">
        <ele>2567.817</ele>
        <time>2018-07-17T08:16:26Z</time>
      </trkpt>
      <trkpt lat="45.460302" lon="6.856843">
        <ele>2568.908</ele>
        <time>2018-07-17T08:16:36Z</time>
      </trkpt>
      <trkpt lat="45.460256" lon="6.856830">
        <ele>2569.285</ele>
        <time>2018-07-17T08:16:45Z</time>
      </trkpt>
      <trkpt lat="45.460209" lon="6.856822">
        <ele>2570.299</ele>
        <time>2018-07-17T08:16:57Z</time>
      </trkpt>
      <trkpt lat="45.460164" lon="6.856811">
        <ele>2570.881</ele>
        <time>2018-07-17T08:17:07Z</time>
      </trkpt>
      <trkpt lat="45.460113" lon="6.856811">
        <ele>2570.717</ele>
        <time>2018-07-17T08:17:16Z</time>
      </trkpt>
      <trkpt lat="45.460068" lon="6.856819">
        <ele>2571.154</ele>
        <time>2018-07-17T08:17:25Z</time>
      </trkpt>
      <trkpt lat="45.460023" lon="6.856847">
        <ele>2571.346</ele>
        <time>2018-07-17T08:17:34Z</time>
      </trkpt>
      <trkpt lat="45.459974" lon="6.856841">
        <ele>2571.826</ele>
        <time>2018-07-17T08:17:43Z</time>
      </trkpt>
      <trkpt lat="45.459944" lon="6.856895">
        <ele>2570.937</ele>
        <time>2018-07-17T08:17:56Z</time>
      </trkpt>
      <trkpt lat="45.459911" lon="6.856953">
        <ele>2570.892</ele>
        <time>2018-07-17T08:18:02Z</time>
      </trkpt>
      <trkpt lat="45.459871" lon="6.856990">
        <ele>2570.773</ele>
        <time>2018-07-17T08:18:18Z</time>
      </trkpt>
      <trkpt lat="45.459824" lon="6.856993">
        <ele>2570.720</ele>
        <time>2018-07-17T08:18:29Z</time>
      </trkpt>
      <trkpt lat="45.459777" lon="6.857004">
        <ele>2571.108</ele>
        <time>2018-07-17T08:18:34Z</time>
      </trkpt>
      <trkpt lat="45.459732" lon="6.857011">
        <ele>2570.961</ele>
        <time>2018-07-17T08:18:39Z</time>
      </trkpt>
      <trkpt lat="45.459683" lon="6.857012">
        <ele>2571.295</ele>
        <time>2018-07-17T08:18:45Z</time>
      </trkpt>
      <trkpt lat="45.459641" lon="6.857040">
        <ele>2571.457</ele>
        <time>2018-07-17T08:18:55Z</time>
      </trkpt>
      <trkpt lat="45.459618" lon="6.857100">
        <ele>2571.973</ele>
        <time>2018-07-17T08:19:02Z</time>
      </trkpt>
      <trkpt lat="45.459598" lon="6.857166">
        <ele>2571.860</ele>
        <time>2018-07-17T08:19:08Z</time>
      </trkpt>
      <trkpt lat="45.459579" lon="6.857229">
        <ele>2572.512</ele>
        <time>2018-07-17T08:19:15Z</time>
      </trkpt>
      <trkpt lat="45.459562" lon="6.857290">
        <ele>2573.372</ele>
        <time>2018-07-17T08:19:26Z</time>
      </trkpt>
      <trkpt lat="45.459529" lon="6.857334">
        <ele>2573.473</ele>
        <time>2018-07-17T08:19:54Z</time>
      </trkpt>
      <trkpt lat="45.459511" lon="6.857395">
        <ele>2574.756</ele>
        <time>2018-07-17T08:20:02Z</time>
      </trkpt>
      <trkpt lat="45.459495" lon="6.857460">
        <ele>2575.959</ele>
        <time>2018-07-17T08:20:09Z</time>
      </trkpt>
      <trkpt lat="45.459475" lon="6.857523">
        <ele>2577.414</ele>
        <time>2018-07-17T08:20:17Z</time>
      </trkpt>
      <trkpt lat="45.459455" lon="6.857583">
        <ele>2578.308</ele>
        <time>2018-07-17T08:20:26Z</time>
      </trkpt>
      <trkpt lat="45.459445" lon="6.857649">
        <ele>2578.887</ele>
        <time>2018-07-17T08:20:33Z</time>
      </trkpt>
      <trkpt lat="45.459433" lon="6.857719">
        <ele>2579.581</ele>
        <time>2018-07-17T08:20:40Z</time>
      </trkpt>
      <trkpt lat="45.459418" lon="6.857783">
        <ele>2579.923</ele>
        <time>2018-07-17T08:20:46Z</time>
      </trkpt>
      <trkpt lat="45.459394" lon="6.857847">
        <ele>2580.689</ele>
        <time>2018-07-17T08:20:53Z</time>
      </trkpt>
      <trkpt lat="45.459377" lon="6.857910">
        <ele>2581.886</ele>
        <time>2018-07-17T08:21:01Z</time>
      </trkpt>
      <trkpt lat="45.459353" lon="6.857968">
        <ele>2582.988</ele>
        <time>2018-07-17T08:21:11Z</time>
      </trkpt>
      <trkpt lat="45.459318" lon="6.858009">
        <ele>2584.488</ele>
        <time>2018-07-17T08:21:31Z</time>
      </trkpt>
      <trkpt lat="45.459307" lon="6.858075">
        <ele>2585.799</ele>
        <time>2018-07-17T08:21:43Z</time>
      </trkpt>
      <trkpt lat="45.459285" lon="6.858134">
        <ele>2586.923</ele>
        <time>2018-07-17T08:21:50Z</time>
      </trkpt>
      <trkpt lat="45.459259" lon="6.858194">
        <ele>2588.083</ele>
        <time>2018-07-17T08:21:58Z</time>
      </trkpt>
      <trkpt lat="45.459240" lon="6.858254">
        <ele>2589.111</ele>
        <time>2018-07-17T08:22:10Z</time>
      </trkpt>
      <trkpt lat="45.459218" lon="6.858310">
        <ele>2590.908</ele>
        <time>2018-07-17T08:22:29Z</time>
      </trkpt>
      <trkpt lat="45.459204" lon="6.858377">
        <ele>2592.074</ele>
        <time>2018-07-17T08:22:40Z</time>
      </trkpt>
      <trkpt lat="45.459184" lon="6.858446">
        <ele>2592.788</ele>
        <time>2018-07-17T08:22:48Z</time>
      </trkpt>
      <trkpt lat="45.459154" lon="6.858499">
        <ele>2593.180</ele>
        <time>2018-07-17T08:22:54Z</time>
      </trkpt>
      <trkpt lat="45.459122" lon="6.858548">
        <ele>2593.726</ele>
        <time>2018-07-17T08:23:00Z</time>
      </trkpt>
      <trkpt lat="45.459080" lon="6.858574">
        <ele>2594.153</ele>
        <time>2018-07-17T08:23:08Z</time>
      </trkpt>
      <trkpt lat="45.459049" lon="6.858626">
        <ele>2594.395</ele>
        <time>2018-07-17T08:23:16Z</time>
      </trkpt>
      <trkpt lat="45.459034" lon="6.858691">
        <ele>2594.465</ele>
        <time>2018-07-17T08:23:24Z</time>
      </trkpt>
      <trkpt lat="45.459004" lon="6.858744">
        <ele>2594.586</ele>
        <time>2018-07-17T08:23:31Z</time>
      </trkpt>
      <trkpt lat="45.459011" lon="6.858811">
        <ele>2595.316</ele>
        <time>2018-07-17T08:23:49Z</time>
      </trkpt>
      <trkpt lat="45.458997" lon="6.858874">
        <ele>2596.676</ele>
        <time>2018-07-17T08:24:11Z</time>
      </trkpt>
      <trkpt lat="45.458954" lon="6.858894">
        <ele>2597.813</ele>
        <time>2018-07-17T08:24:37Z</time>
      </trkpt>
      <trkpt lat="45.458915" lon="6.858928">
        <ele>2598.908</ele>
        <time>2018-07-17T08:24:49Z</time>
      </trkpt>
      <trkpt lat="45.458877" lon="6.858966">
        <ele>2599.613</ele>
        <time>2018-07-17T08:25:01Z</time>
      </trkpt>
      <trkpt lat="45.458830" lon="6.858983">
        <ele>2600.497</ele>
        <time>2018-07-17T08:25:14Z</time>
      </trkpt>
      <trkpt lat="45.458791" lon="6.859019">
        <ele>2601.769</ele>
        <time>2018-07-17T08:25:23Z</time>
      </trkpt>
      <trkpt lat="45.458771" lon="6.859078">
        <ele>2603.365</ele>
        <time>2018-07-17T08:25:33Z</time>
      </trkpt>
      <trkpt lat="45.458748" lon="6.859138">
        <ele>2605.082</ele>
        <time>2018-07-17T08:25:45Z</time>
      </trkpt>
      <trkpt lat="45.458737" lon="6.859206">
        <ele>2607.214</ele>
        <time>2018-07-17T08:26:10Z</time>
      </trkpt>
      <trkpt lat="45.458709" lon="6.859257">
        <ele>2608.974</ele>
        <time>2018-07-17T08:26:19Z</time>
      </trkpt>
      <trkpt lat="45.458672" lon="6.859304">
        <ele>2610.755</ele>
        <time>2018-07-17T08:26:29Z</time>
      </trkpt>
      <trkpt lat="45.458632" lon="6.859345">
        <ele>2612.671</ele>
        <time>2018-07-17T08:26:38Z</time>
      </trkpt>
      <trkpt lat="45.458595" lon="6.859392">
        <ele>2614.541</ele>
        <time>2018-07-17T08:26:58Z</time>
      </trkpt>
      <trkpt lat="45.458568" lon="6.859445">
        <ele>2615.715</ele>
        <time>2018-07-17T08:27:10Z</time>
      </trkpt>
      <trkpt lat="45.458539" lon="6.859500">
        <ele>2616.408</ele>
        <time>2018-07-17T08:27:51Z</time>
      </trkpt>
      <trkpt lat="45.458508" lon="6.859555">
        <ele>2617.669</ele>
        <time>2018-07-17T08:28:00Z</time>
      </trkpt>
      <trkpt lat="45.458485" lon="6.859617">
        <ele>2618.313</ele>
        <time>2018-07-17T08:28:08Z</time>
      </trkpt>
      <trkpt lat="45.458479" lon="6.859687">
        <ele>2619.195</ele>
        <time>2018-07-17T08:28:18Z</time>
      </trkpt>
      <trkpt lat="45.458468" lon="6.859751">
        <ele>2620.061</ele>
        <time>2018-07-17T08:28:26Z</time>
      </trkpt>
      <trkpt lat="45.458443" lon="6.859806">
        <ele>2620.998</ele>
        <time>2018-07-17T08:28:33Z</time>
      </trkpt>
      <trkpt lat="45.458415" lon="6.859857">
        <ele>2621.570</ele>
        <time>2018-07-17T08:28:40Z</time>
      </trkpt>
      <trkpt lat="45.458398" lon="6.859917">
        <ele>2622.690</ele>
        <time>2018-07-17T08:28:49Z</time>
      </trkpt>
      <trkpt lat="45.458366" lon="6.859973">
        <ele>2624.141</ele>
        <time>2018-07-17T08:29:13Z</time>
      </trkpt>
      <trkpt lat="45.458335" lon="6.860025">
        <ele>2625.496</ele>
        <time>2018-07-17T08:29:22Z</time>
      </trkpt>
      <trkpt lat="45.458298" lon="6.860071">
        <ele>2626.631</ele>
        <time>2018-07-17T08:29:35Z</time>
      </trkpt>
      <trkpt lat="45.458258" lon="6.860111">
        <ele>2627.724</ele>
        <time>2018-07-17T08:29:44Z</time>
      </trkpt>
      <trkpt lat="45.458220" lon="6.860157">
        <ele>2628.408</ele>
        <time>2018-07-17T08:30:40Z</time>
      </trkpt>
      <trkpt lat="45.458185" lon="6.860198">
        <ele>2628.451</ele>
        <time>2018-07-17T08:31:01Z</time>
      </trkpt>
      <trkpt lat="45.458173" lon="6.860266">
        <ele>2628.885</ele>
        <time>2018-07-17T08:31:09Z</time>
      </trkpt>
      <trkpt lat="45.458177" lon="6.860333">
        <ele>2629.817</ele>
        <time>2018-07-17T08:31:18Z</time>
      </trkpt>
      <trkpt lat="45.458185" lon="6.860398">
        <ele>2630.463</ele>
        <time>2018-07-17T08:31:27Z</time>
      </trkpt>
      <trkpt lat="45.458193" lon="6.860467">
        <ele>2630.830</ele>
        <time>2018-07-17T08:31:36Z</time>
      </trkpt>
      <trkpt lat="45.458205" lon="6.860530">
        <ele>2631.442</ele>
        <time>2018-07-17T08:31:45Z</time>
      </trkpt>
      <trkpt lat="45.458211" lon="6.860601">
        <ele>2631.032</ele>
        <time>2018-07-17T08:31:57Z</time>
      </trkpt>
      <trkpt lat="45.458230" lon="6.860661">
        <ele>2631.153</ele>
        <time>2018-07-17T08:32:02Z</time>
      </trkpt>
      <trkpt lat="45.458266" lon="6.860705">
        <ele>2631.682</ele>
        <time>2018-07-17T08:32:09Z</time>
      </trkpt>
      <trkpt lat="45.458311" lon="6.860729">
        <ele>2632.343</ele>
        <time>2018-07-17T08:32:17Z</time>
      </trkpt>
      <trkpt lat="45.458362" lon="6.860726">
        <ele>2633.917</ele>
        <time>2018-07-17T08:33:08Z</time>
      </trkpt>
      <trkpt lat="45.458325" lon="6.860777">
        <ele>2635.308</ele>
        <time>2018-07-17T08:33:21Z</time>
      </trkpt>
      <trkpt lat="45.458300" lon="6.860832">
        <ele>2636.540</ele>
        <time>2018-07-17T08:33:26Z</time>
      </trkpt>
      <trkpt lat="45.458290" lon="6.860897">
        <ele>2637.664</ele>
        <time>2018-07-17T08:33:31Z</time>
      </trkpt>
      <trkpt lat="45.458306" lon="6.860960">
        <ele>2638.786</ele>
        <time>2018-07-17T08:33:39Z</time>
      </trkpt>
      <trkpt lat="45.458298" lon="6.861038">
        <ele>2638.942</ele>
        <time>2018-07-17T08:34:03Z</time>
      </trkpt>
      <trkpt lat="45.458290" lon="6.861104">
        <ele>2638.629</ele>
        <time>2018-07-17T08:34:08Z</time>
      </trkpt>
      <trkpt lat="45.458269" lon="6.861230">
        <ele>2634.291</ele>
        <time>2018-07-17T08:37:43Z</time>
      </trkpt>
      <trkpt lat="45.458244" lon="6.861290">
        <ele>2633.691</ele>
        <time>2018-07-17T08:37:51Z</time>
      </trkpt>
      <trkpt lat="45.458207" lon="6.861343">
        <ele>2633.422</ele>
        <time>2018-07-17T08:37:56Z</time>
      </trkpt>
      <trkpt lat="45.458168" lon="6.861388">
        <ele>2633.372</ele>
        <time>2018-07-17T08:38:00Z</time>
      </trkpt>
      <trkpt lat="45.458148" lon="6.861448">
        <ele>2633.213</ele>
        <time>2018-07-17T08:38:05Z</time>
      </trkpt>
      <trkpt lat="45.458117" lon="6.861501">
        <ele>2633.614</ele>
        <time>2018-07-17T08:38:12Z</time>
      </trkpt>
      <trkpt lat="45.458095" lon="6.861559">
        <ele>2633.608</ele>
        <time>2018-07-17T08:38:18Z</time>
      </trkpt>
      <trkpt lat="45.458070" lon="6.861618">
        <ele>2634.499</ele>
        <time>2018-07-17T08:38:26Z</time>
      </trkpt>
      <trkpt lat="45.458032" lon="6.861666">
        <ele>2634.573</ele>
        <time>2018-07-17T08:38:36Z</time>
      </trkpt>
      <trkpt lat="45.457990" lon="6.861699">
        <ele>2634.125</ele>
        <time>2018-07-17T08:38:44Z</time>
      </trkpt>
      <trkpt lat="45.457952" lon="6.861734">
        <ele>2633.991</ele>
        <time>2018-07-17T08:38:52Z</time>
      </trkpt>
      <trkpt lat="45.457910" lon="6.861774">
        <ele>2634.268</ele>
        <time>2018-07-17T08:39:00Z</time>
      </trkpt>
      <trkpt lat="45.457870" lon="6.861812">
        <ele>2634.890</ele>
        <time>2018-07-17T08:39:10Z</time>
      </trkpt>
      <trkpt lat="45.457829" lon="6.861842">
        <ele>2635.990</ele>
        <time>2018-07-17T08:39:22Z</time>
      </trkpt>
      <trkpt lat="45.457775" lon="6.861844">
        <ele>2635.451</ele>
        <time>2018-07-17T08:39:41Z</time>
      </trkpt>
      <trkpt lat="45.457730" lon="6.861850">
        <ele>2635.597</ele>
        <time>2018-07-17T08:39:52Z</time>
      </trkpt>
      <trkpt lat="45.457680" lon="6.861854">
        <ele>2636.023</ele>
        <time>2018-07-17T08:40:00Z</time>
      </trkpt>
      <trkpt lat="45.457631" lon="6.861857">
        <ele>2635.925</ele>
        <time>2018-07-17T08:40:10Z</time>
      </trkpt>
      <trkpt lat="45.457585" lon="6.861867">
        <ele>2635.408</ele>
        <time>2018-07-17T08:40:23Z</time>
      </trkpt>
      <trkpt lat="45.457536" lon="6.861866">
        <ele>2635.541</ele>
        <time>2018-07-17T08:40:39Z</time>
      </trkpt>
      <trkpt lat="45.457490" lon="6.861872">
        <ele>2635.655</ele>
        <time>2018-07-17T08:40:52Z</time>
      </trkpt>
      <trkpt lat="45.457448" lon="6.861896">
        <ele>2637.657</ele>
        <time>2018-07-17T08:41:03Z</time>
      </trkpt>
      <trkpt lat="45.457403" lon="6.861899">
        <ele>2638.433</ele>
        <time>2018-07-17T08:41:19Z</time>
      </trkpt>
      <trkpt lat="45.457356" lon="6.861911">
        <ele>2640.170</ele>
        <time>2018-07-17T08:41:31Z</time>
      </trkpt>
      <trkpt lat="45.457310" lon="6.861920">
        <ele>2642.382</ele>
        <time>2018-07-17T08:42:03Z</time>
      </trkpt>
      <trkpt lat="45.457262" lon="6.861932">
        <ele>2644.822</ele>
        <time>2018-07-17T08:42:21Z</time>
      </trkpt>
      <trkpt lat="45.457214" lon="6.861936">
        <ele>2645.983</ele>
        <time>2018-07-17T08:42:37Z</time>
      </trkpt>
      <trkpt lat="45.457169" lon="6.861921">
        <ele>2648.227</ele>
        <time>2018-07-17T08:42:49Z</time>
      </trkpt>
      <trkpt lat="45.457121" lon="6.861915">
        <ele>2651.268</ele>
        <time>2018-07-17T08:43:04Z</time>
      </trkpt>
      <trkpt lat="45.457082" lon="6.861951">
        <ele>2654.614</ele>
        <time>2018-07-17T08:43:27Z</time>
      </trkpt>
      <trkpt lat="45.457096" lon="6.862014">
        <ele>2658.208</ele>
        <time>2018-07-17T08:43:37Z</time>
      </trkpt>
      <trkpt lat="45.457105" lon="6.862080">
        <ele>2661.664</ele>
        <time>2018-07-17T08:43:48Z</time>
      </trkpt>
      <trkpt lat="45.457075" lon="6.862129">
        <ele>2664.418</ele>
        <time>2018-07-17T08:44:04Z</time>
      </trkpt>
      <trkpt lat="45.457028" lon="6.862137">
        <ele>2666.180</ele>
        <time>2018-07-17T08:44:17Z</time>
      </trkpt>
      <trkpt lat="45.456984" lon="6.862153">
        <ele>2667.536</ele>
        <time>2018-07-17T08:44:33Z</time>
      </trkpt>
      <trkpt lat="45.456937" lon="6.862142">
        <ele>2669.253</ele>
        <time>2018-07-17T08:44:46Z</time>
      </trkpt>
      <trkpt lat="45.456890" lon="6.862147">
        <ele>2671.075</ele>
        <time>2018-07-17T08:45:04Z</time>
      </trkpt>
      <trkpt lat="45.456855" lon="6.862190">
        <ele>2672.995</ele>
        <time>2018-07-17T08:45:17Z</time>
      </trkpt>
      <trkpt lat="45.456806" lon="6.862186">
        <ele>2674.816</ele>
        <time>2018-07-17T08:45:30Z</time>
      </trkpt>
      <trkpt lat="45.456760" lon="6.862191">
        <ele>2676.846</ele>
        <time>2018-07-17T08:45:50Z</time>
      </trkpt>
      <trkpt lat="45.456714" lon="6.862205">
        <ele>2678.088</ele>
        <time>2018-07-17T08:45:58Z</time>
      </trkpt>
      <trkpt lat="45.456669" lon="6.862239">
        <ele>2679.916</ele>
        <time>2018-07-17T08:46:06Z</time>
      </trkpt>
      <trkpt lat="45.456629" lon="6.862275">
        <ele>2681.008</ele>
        <time>2018-07-17T08:46:13Z</time>
      </trkpt>
      <trkpt lat="45.456580" lon="6.862302">
        <ele>2682.526</ele>
        <time>2018-07-17T08:46:20Z</time>
      </trkpt>
      <trkpt lat="45.456536" lon="6.862326">
        <ele>2683.490</ele>
        <time>2018-07-17T08:46:27Z</time>
      </trkpt>
      <trkpt lat="45.456490" lon="6.862351">
        <ele>2684.312</ele>
        <time>2018-07-17T08:46:35Z</time>
      </trkpt>
      <trkpt lat="45.456467" lon="6.862406">
        <ele>2684.988</ele>
        <time>2018-07-17T08:46:44Z</time>
      </trkpt>
      <trkpt lat="45.456451" lon="6.862468">
        <ele>2685.635</ele>
        <time>2018-07-17T08:46:55Z</time>
      </trkpt>
      <trkpt lat="45.456453" lon="6.862536">
        <ele>2686.847</ele>
        <time>2018-07-17T08:47:05Z</time>
      </trkpt>
      <trkpt lat="45.456463" lon="6.862604">
        <ele>2688.317</ele>
        <time>2018-07-17T08:47:15Z</time>
      </trkpt>
      <trkpt lat="45.456461" lon="6.862669">
        <ele>2690.488</ele>
        <time>2018-07-17T08:47:24Z</time>
      </trkpt>
      <trkpt lat="45.456462" lon="6.862735">
        <ele>2691.755</ele>
        <time>2018-07-17T08:47:33Z</time>
      </trkpt>
      <trkpt lat="45.456449" lon="6.862803">
        <ele>2692.907</ele>
        <time>2018-07-17T08:47:42Z</time>
      </trkpt>
      <trkpt lat="45.456445" lon="6.862870">
        <ele>2693.617</ele>
        <time>2018-07-17T08:47:53Z</time>
      </trkpt>
      <trkpt lat="45.456442" lon="6.862936">
        <ele>2694.808</ele>
        <time>2018-07-17T08:48:04Z</time>
      </trkpt>
      <trkpt lat="45.456433" lon="6.863002">
        <ele>2695.517</ele>
        <time>2018-07-17T08:48:14Z</time>
      </trkpt>
      <trkpt lat="45.456426" lon="6.863067">
        <ele>2696.761</ele>
        <time>2018-07-17T08:48:25Z</time>
      </trkpt>
      <trkpt lat="45.456413" lon="6.863129">
        <ele>2697.423</ele>
        <time>2018-07-17T08:48:35Z</time>
      </trkpt>
      <trkpt lat="45.456387" lon="6.863186">
        <ele>2698.269</ele>
        <time>2018-07-17T08:48:48Z</time>
      </trkpt>
      <trkpt lat="45.456362" lon="6.863246">
        <ele>2699.566</ele>
        <time>2018-07-17T08:49:00Z</time>
      </trkpt>
      <trkpt lat="45.456344" lon="6.863307">
        <ele>2701.188</ele>
        <time>2018-07-17T08:49:08Z</time>
      </trkpt>
      <trkpt lat="45.456316" lon="6.863359">
        <ele>2702.588</ele>
        <time>2018-07-17T08:49:17Z</time>
      </trkpt>
      <trkpt lat="45.456306" lon="6.863429">
        <ele>2703.719</ele>
        <time>2018-07-17T08:49:27Z</time>
      </trkpt>
      <trkpt lat="45.456285" lon="6.863494">
        <ele>2704.497</ele>
        <time>2018-07-17T08:49:33Z</time>
      </trkpt>
      <trkpt lat="45.456271" lon="6.863556">
        <ele>2705.623</ele>
        <time>2018-07-17T08:49:39Z</time>
      </trkpt>
      <trkpt lat="45.456242" lon="6.863620">
        <ele>2705.925</ele>
        <time>2018-07-17T08:50:02Z</time>
      </trkpt>
      <trkpt lat="45.456249" lon="6.863626">
        <ele>2706.408</ele>
        <time>2018-07-17T08:52:55Z</time>
      </trkpt>
      <trkpt lat="45.456241" lon="6.863704">
        <ele>2705.961</ele>
        <time>2018-07-17T08:53:00Z</time>
      </trkpt>
      <trkpt lat="45.456234" lon="6.863784">
        <ele>2705.535</ele>
        <time>2018-07-17T08:53:04Z</time>
      </trkpt>
      <trkpt lat="45.456234" lon="6.863851">
        <ele>2705.387</ele>
        <time>2018-07-17T08:53:08Z</time>
      </trkpt>
      <trkpt lat="45.456239" lon="6.863926">
        <ele>2705.243</ele>
        <time>2018-07-17T08:53:13Z</time>
      </trkpt>
      <trkpt lat="45.456257" lon="6.863995">
        <ele>2705.560</ele>
        <time>2018-07-17T08:53:20Z</time>
      </trkpt>
      <trkpt lat="45.456271" lon="6.864062">
        <ele>2704.832</ele>
        <time>2018-07-17T08:53:25Z</time>
      </trkpt>
      <trkpt lat="45.456276" lon="6.864135">
        <ele>2704.472</ele>
        <time>2018-07-17T08:53:30Z</time>
      </trkpt>
      <trkpt lat="45.456276" lon="6.864209">
        <ele>2704.233</ele>
        <time>2018-07-17T08:53:35Z</time>
      </trkpt>
      <trkpt lat="45.456277" lon="6.864274">
        <ele>2703.719</ele>
        <time>2018-07-17T08:53:44Z</time>
      </trkpt>
      <trkpt lat="45.456261" lon="6.864335">
        <ele>2703.409</ele>
        <time>2018-07-17T08:53:48Z</time>
      </trkpt>
      <trkpt lat="45.456233" lon="6.864403">
        <ele>2702.819</ele>
        <time>2018-07-17T08:53:53Z</time>
      </trkpt>
      <trkpt lat="45.456207" lon="6.864458">
        <ele>2702.008</ele>
        <time>2018-07-17T08:53:58Z</time>
      </trkpt>
      <trkpt lat="45.456185" lon="6.864523">
        <ele>2701.593</ele>
        <time>2018-07-17T08:54:36Z</time>
      </trkpt>
      <trkpt lat="45.456161" lon="6.864587">
        <ele>2700.827</ele>
        <time>2018-07-17T08:55:00Z</time>
      </trkpt>
      <trkpt lat="45.456137" lon="6.864649">
        <ele>2700.089</ele>
        <time>2018-07-17T08:55:06Z</time>
      </trkpt>
      <trkpt lat="45.456111" lon="6.864712">
        <ele>2699.985</ele>
        <time>2018-07-17T08:55:12Z</time>
      </trkpt>
      <trkpt lat="45.456095" lon="6.864775">
        <ele>2700.322</ele>
        <time>2018-07-17T08:55:16Z</time>
      </trkpt>
      <trkpt lat="45.456077" lon="6.864835">
        <ele>2700.514</ele>
        <time>2018-07-17T08:55:21Z</time>
      </trkpt>
      <trkpt lat="45.456052" lon="6.864895">
        <ele>2700.654</ele>
        <time>2018-07-17T08:55:26Z</time>
      </trkpt>
      <trkpt lat="45.456036" lon="6.864959">
        <ele>2701.115</ele>
        <time>2018-07-17T08:55:31Z</time>
      </trkpt>
      <trkpt lat="45.456019" lon="6.865026">
        <ele>2701.474</ele>
        <time>2018-07-17T08:55:38Z</time>
      </trkpt>
      <trkpt lat="45.455990" lon="6.865082">
        <ele>2702.056</ele>
        <time>2018-07-17T08:55:47Z</time>
      </trkpt>
      <trkpt lat="45.455972" lon="6.865151">
        <ele>2702.321</ele>
        <time>2018-07-17T08:55:52Z</time>
      </trkpt>
      <trkpt lat="45.455966" lon="6.865223">
        <ele>2703.308</ele>
        <time>2018-07-17T08:55:57Z</time>
      </trkpt>
      <trkpt lat="45.455957" lon="6.865297">
        <ele>2703.569</ele>
        <time>2018-07-17T08:56:03Z</time>
      </trkpt>
      <trkpt lat="45.455949" lon="6.865363">
        <ele>2702.873</ele>
        <time>2018-07-17T08:56:08Z</time>
      </trkpt>
      <trkpt lat="45.455947" lon="6.865441">
        <ele>2702.095</ele>
        <time>2018-07-17T08:56:13Z</time>
      </trkpt>
      <trkpt lat="45.455950" lon="6.865510">
        <ele>2700.311</ele>
        <time>2018-07-17T08:56:19Z</time>
      </trkpt>
      <trkpt lat="45.455936" lon="6.865578">
        <ele>2699.318</ele>
        <time>2018-07-17T08:56:24Z</time>
      </trkpt>
      <trkpt lat="45.455930" lon="6.865649">
        <ele>2699.960</ele>
        <time>2018-07-17T08:56:28Z</time>
      </trkpt>
      <trkpt lat="45.455934" lon="6.865727">
        <ele>2699.950</ele>
        <time>2018-07-17T08:56:32Z</time>
      </trkpt>
      <trkpt lat="45.455929" lon="6.865791">
        <ele>2699.531</ele>
        <time>2018-07-17T08:56:36Z</time>
      </trkpt>
      <trkpt lat="45.455931" lon="6.865863">
        <ele>2698.082</ele>
        <time>2018-07-17T08:56:41Z</time>
      </trkpt>
      <trkpt lat="45.455935" lon="6.865936">
        <ele>2696.743</ele>
        <time>2018-07-17T08:56:46Z</time>
      </trkpt>
      <trkpt lat="45.455949" lon="6.866014">
        <ele>2695.917</ele>
        <time>2018-07-17T08:56:51Z</time>
      </trkpt>
      <trkpt lat="45.455963" lon="6.866076">
        <ele>2695.008</ele>
        <time>2018-07-17T08:56:55Z</time>
      </trkpt>
      <trkpt lat="45.455979" lon="6.866147">
        <ele>2693.730</ele>
        <time>2018-07-17T08:57:00Z</time>
      </trkpt>
      <trkpt lat="45.455990" lon="6.866220">
        <ele>2693.334</ele>
        <time>2018-07-17T08:57:05Z</time>
      </trkpt>
      <trkpt lat="45.455981" lon="6.866284">
        <ele>2692.336</ele>
        <time>2018-07-17T08:57:09Z</time>
      </trkpt>
      <trkpt lat="45.455974" lon="6.866363">
        <ele>2692.542</ele>
        <time>2018-07-17T08:57:14Z</time>
      </trkpt>
      <trkpt lat="45.455963" lon="6.866432">
        <ele>2691.859</ele>
        <time>2018-07-17T08:57:18Z</time>
      </trkpt>
      <trkpt lat="45.455946" lon="6.866506">
        <ele>2691.421</ele>
        <time>2018-07-17T08:57:23Z</time>
      </trkpt>
      <trkpt lat="45.455924" lon="6.866566">
        <ele>2691.241</ele>
        <time>2018-07-17T08:57:28Z</time>
      </trkpt>
      <trkpt lat="45.455904" lon="6.866626">
        <ele>2690.762</ele>
        <time>2018-07-17T08:57:33Z</time>
      </trkpt>
      <trkpt lat="45.455894" lon="6.866699">
        <ele>2690.463</ele>
        <time>2018-07-17T08:57:39Z</time>
      </trkpt>
      <trkpt lat="45.455869" lon="6.866761">
        <ele>2689.844</ele>
        <time>2018-07-17T08:57:46Z</time>
      </trkpt>
      <trkpt lat="45.455839" lon="6.866810">
        <ele>2688.618</ele>
        <time>2018-07-17T08:57:55Z</time>
      </trkpt>
      <trkpt lat="45.455824" lon="6.866872">
        <ele>2687.508</ele>
        <time>2018-07-17T08:58:04Z</time>
      </trkpt>
      <trkpt lat="45.455799" lon="6.866933">
        <ele>2685.688</ele>
        <time>2018-07-17T08:58:09Z</time>
      </trkpt>
      <trkpt lat="45.455782" lon="6.867000">
        <ele>2684.192</ele>
        <time>2018-07-17T08:58:14Z</time>
      </trkpt>
      <trkpt lat="45.455751" lon="6.867055">
        <ele>2683.234</ele>
        <time>2018-07-17T08:58:19Z</time>
      </trkpt>
      <trkpt lat="45.455730" lon="6.867120">
        <ele>2682.390</ele>
        <time>2018-07-17T08:58:25Z</time>
      </trkpt>
      <trkpt lat="45.455723" lon="6.867188">
        <ele>2681.317</ele>
        <time>2018-07-17T08:58:31Z</time>
      </trkpt>
      <trkpt lat="45.455701" lon="6.867249">
        <ele>2680.759</ele>
        <time>2018-07-17T08:58:36Z</time>
      </trkpt>
      <trkpt lat="45.455684" lon="6.867318">
        <ele>2680.079</ele>
        <time>2018-07-17T08:58:41Z</time>
      </trkpt>
      <trkpt lat="45.455669" lon="6.867385">
        <ele>2679.220</ele>
        <time>2018-07-17T08:58:46Z</time>
      </trkpt>
      <trkpt lat="45.455663" lon="6.867464">
        <ele>2678.376</ele>
        <time>2018-07-17T08:58:51Z</time>
      </trkpt>
      <trkpt lat="45.455659" lon="6.867539">
        <ele>2676.690</ele>
        <time>2018-07-17T08:58:56Z</time>
      </trkpt>
      <trkpt lat="45.455651" lon="6.867614">
        <ele>2675.219</ele>
        <time>2018-07-17T08:59:01Z</time>
      </trkpt>
      <trkpt lat="45.455632" lon="6.867673">
        <ele>2673.908</ele>
        <time>2018-07-17T08:59:06Z</time>
      </trkpt>
      <trkpt lat="45.455646" lon="6.867736">
        <ele>2672.759</ele>
        <time>2018-07-17T08:59:12Z</time>
      </trkpt>
      <trkpt lat="45.455643" lon="6.867814">
        <ele>2671.223</ele>
        <time>2018-07-17T08:59:18Z</time>
      </trkpt>
      <trkpt lat="45.455637" lon="6.867879">
        <ele>2670.385</ele>
        <time>2018-07-17T08:59:22Z</time>
      </trkpt>
      <trkpt lat="45.455620" lon="6.867943">
        <ele>2669.071</ele>
        <time>2018-07-17T08:59:26Z</time>
      </trkpt>
      <trkpt lat="45.455610" lon="6.868012">
        <ele>2668.618</ele>
        <time>2018-07-17T08:59:30Z</time>
      </trkpt>
      <trkpt lat="45.455624" lon="6.868088">
        <ele>2668.020</ele>
        <time>2018-07-17T08:59:35Z</time>
      </trkpt>
      <trkpt lat="45.455654" lon="6.868143">
        <ele>2667.620</ele>
        <time>2018-07-17T08:59:39Z</time>
      </trkpt>
      <trkpt lat="45.455692" lon="6.868197">
        <ele>2667.891</ele>
        <time>2018-07-17T08:59:44Z</time>
      </trkpt>
      <trkpt lat="45.455728" lon="6.868246">
        <ele>2667.928</ele>
        <time>2018-07-17T08:59:49Z</time>
      </trkpt>
      <trkpt lat="45.455772" lon="6.868303">
        <ele>2668.889</ele>
        <time>2018-07-17T08:59:54Z</time>
      </trkpt>
      <trkpt lat="45.455797" lon="6.868358">
        <ele>2668.517</ele>
        <time>2018-07-17T08:59:58Z</time>
      </trkpt>
      <trkpt lat="45.455820" lon="6.868414">
        <ele>2668.308</ele>
        <time>2018-07-17T09:00:02Z</time>
      </trkpt>
      <trkpt lat="45.455857" lon="6.868474">
        <ele>2670.234</ele>
        <time>2018-07-17T09:00:07Z</time>
      </trkpt>
      <trkpt lat="45.455901" lon="6.868505">
        <ele>2671.778</ele>
        <time>2018-07-17T09:00:11Z</time>
      </trkpt>
      <trkpt lat="45.455925" lon="6.868562">
        <ele>2672.220</ele>
        <time>2018-07-17T09:00:18Z</time>
      </trkpt>
      <trkpt lat="45.455927" lon="6.868634">
        <ele>2670.976</ele>
        <time>2018-07-17T09:00:26Z</time>
      </trkpt>
      <trkpt lat="45.455947" lon="6.868696">
        <ele>2669.393</ele>
        <time>2018-07-17T09:00:32Z</time>
      </trkpt>
      <trkpt lat="45.455941" lon="6.868765">
        <ele>2666.495</ele>
        <time>2018-07-17T09:00:38Z</time>
      </trkpt>
      <trkpt lat="45.455928" lon="6.868827">
        <ele>2664.225</ele>
        <time>2018-07-17T09:00:44Z</time>
      </trkpt>
      <trkpt lat="45.455906" lon="6.868890">
        <ele>2661.316</ele>
        <time>2018-07-17T09:00:49Z</time>
      </trkpt>
      <trkpt lat="45.455912" lon="6.868964">
        <ele>2659.615</ele>
        <time>2018-07-17T09:00:55Z</time>
      </trkpt>
      <trkpt lat="45.455927" lon="6.869030">
        <ele>2657.865</ele>
        <time>2018-07-17T09:01:01Z</time>
      </trkpt>
      <trkpt lat="45.455924" lon="6.869094">
        <ele>2657.111</ele>
        <time>2018-07-17T09:01:08Z</time>
      </trkpt>
      <trkpt lat="45.455914" lon="6.869164">
        <ele>2657.108</ele>
        <time>2018-07-17T09:01:16Z</time>
      </trkpt>
      <trkpt lat="45.455895" lon="6.869227">
        <ele>2656.783</ele>
        <time>2018-07-17T09:01:24Z</time>
      </trkpt>
      <trkpt lat="45.455868" lon="6.869283">
        <ele>2656.527</ele>
        <time>2018-07-17T09:01:31Z</time>
      </trkpt>
      <trkpt lat="45.455854" lon="6.869351">
        <ele>2656.089</ele>
        <time>2018-07-17T09:01:39Z</time>
      </trkpt>
      <trkpt lat="45.455846" lon="6.869416">
        <ele>2654.165</ele>
        <time>2018-07-17T09:01:46Z</time>
      </trkpt>
      <trkpt lat="45.455860" lon="6.869480">
        <ele>2652.572</ele>
        <time>2018-07-17T09:01:53Z</time>
      </trkpt>
      <trkpt lat="45.455845" lon="6.869542">
        <ele>2651.294</ele>
        <time>2018-07-17T09:02:00Z</time>
      </trkpt>
      <trkpt lat="45.455861" lon="6.869605">
        <ele>2649.284</ele>
        <time>2018-07-17T09:02:09Z</time>
      </trkpt>
      <trkpt lat="45.455890" lon="6.869659">
        <ele>2647.665</ele>
        <time>2018-07-17T09:02:18Z</time>
      </trkpt>
      <trkpt lat="45.455922" lon="6.869705">
        <ele>2646.267</ele>
        <time>2018-07-17T09:02:24Z</time>
      </trkpt>
      <trkpt lat="45.455949" lon="6.869758">
        <ele>2645.081</ele>
        <time>2018-07-17T09:02:37Z</time>
      </trkpt>
      <trkpt lat="45.455985" lon="6.869800">
        <ele>2644.319</ele>
        <time>2018-07-17T09:02:51Z</time>
      </trkpt>
      <trkpt lat="45.456024" lon="6.869841">
        <ele>2644.308</ele>
        <time>2018-07-17T09:02:57Z</time>
      </trkpt>
      <trkpt lat="45.456029" lon="6.869912">
        <ele>2643.938</ele>
        <time>2018-07-17T09:03:09Z</time>
      </trkpt>
      <trkpt lat="45.456051" lon="6.869975">
        <ele>2642.022</ele>
        <time>2018-07-17T09:03:29Z</time>
      </trkpt>
      <trkpt lat="45.456063" lon="6.870041">
        <ele>2640.564</ele>
        <time>2018-07-17T09:03:37Z</time>
      </trkpt>
      <trkpt lat="45.456046" lon="6.870110">
        <ele>2638.840</ele>
        <time>2018-07-17T09:03:44Z</time>
      </trkpt>
      <trkpt lat="45.456046" lon="6.870176">
        <ele>2637.847</ele>
        <time>2018-07-17T09:03:51Z</time>
      </trkpt>
      <trkpt lat="45.456037" lon="6.870243">
        <ele>2636.419</ele>
        <time>2018-07-17T09:03:58Z</time>
      </trkpt>
      <trkpt lat="45.456034" lon="6.870310">
        <ele>2635.689</ele>
        <time>2018-07-17T09:04:06Z</time>
      </trkpt>
      <trkpt lat="45.456018" lon="6.870371">
        <ele>2635.920</ele>
        <time>2018-07-17T09:04:16Z</time>
      </trkpt>
      <trkpt lat="45.456016" lon="6.870435">
        <ele>2633.733</ele>
        <time>2018-07-17T09:04:32Z</time>
      </trkpt>
      <trkpt lat="45.456016" lon="6.870507">
        <ele>2630.823</ele>
        <time>2018-07-17T09:04:46Z</time>
      </trkpt>
      <trkpt lat="45.456016" lon="6.870576">
        <ele>2629.015</ele>
        <time>2018-07-17T09:04:51Z</time>
      </trkpt>
      <trkpt lat="45.456013" lon="6.870642">
        <ele>2627.908</ele>
        <time>2018-07-17T09:04:55Z</time>
      </trkpt>
      <trkpt lat="45.456024" lon="6.870714">
        <ele>2627.375</ele>
        <time>2018-07-17T09:05:01Z</time>
      </trkpt>
      <trkpt lat="45.456027" lon="6.870779">
        <ele>2626.969</ele>
        <time>2018-07-17T09:05:06Z</time>
      </trkpt>
      <trkpt lat="45.456036" lon="6.870843">
        <ele>2626.321</ele>
        <time>2018-07-17T09:05:10Z</time>
      </trkpt>
      <trkpt lat="45.456029" lon="6.870909">
        <ele>2625.997</ele>
        <time>2018-07-17T09:05:14Z</time>
      </trkpt>
      <trkpt lat="45.456004" lon="6.870980">
        <ele>2624.924</ele>
        <time>2018-07-17T09:05:19Z</time>
      </trkpt>
      <trkpt lat="45.455989" lon="6.871055">
        <ele>2624.316</ele>
        <time>2018-07-17T09:05:24Z</time>
      </trkpt>
      <trkpt lat="45.455984" lon="6.871120">
        <ele>2623.176</ele>
        <time>2018-07-17T09:05:28Z</time>
      </trkpt>
      <trkpt lat="45.455984" lon="6.871194">
        <ele>2622.067</ele>
        <time>2018-07-17T09:05:33Z</time>
      </trkpt>
      <trkpt lat="45.455978" lon="6.871275">
        <ele>2621.358</ele>
        <time>2018-07-17T09:05:38Z</time>
      </trkpt>
      <trkpt lat="45.455968" lon="6.871342">
        <ele>2620.952</ele>
        <time>2018-07-17T09:05:42Z</time>
      </trkpt>
      <trkpt lat="45.455945" lon="6.871412">
        <ele>2621.117</ele>
        <time>2018-07-17T09:05:46Z</time>
      </trkpt>
      <trkpt lat="45.455904" lon="6.871459">
        <ele>2621.208</ele>
        <time>2018-07-17T09:05:50Z</time>
      </trkpt>
      <trkpt lat="45.455874" lon="6.871510">
        <ele>2621.337</ele>
        <time>2018-07-17T09:05:54Z</time>
      </trkpt>
      <trkpt lat="45.455850" lon="6.871580">
        <ele>2621.341</ele>
        <time>2018-07-17T09:05:59Z</time>
      </trkpt>
      <trkpt lat="45.455832" lon="6.871653">
        <ele>2621.323</ele>
        <time>2018-07-17T09:06:04Z</time>
      </trkpt>
      <trkpt lat="45.455807" lon="6.871715">
        <ele>2621.359</ele>
        <time>2018-07-17T09:06:09Z</time>
      </trkpt>
      <trkpt lat="45.455777" lon="6.871764">
        <ele>2620.946</ele>
        <time>2018-07-17T09:06:13Z</time>
      </trkpt>
      <trkpt lat="45.455737" lon="6.871807">
        <ele>2620.778</ele>
        <time>2018-07-17T09:06:17Z</time>
      </trkpt>
      <trkpt lat="45.455701" lon="6.871853">
        <ele>2620.628</ele>
        <time>2018-07-17T09:06:21Z</time>
      </trkpt>
      <trkpt lat="45.455662" lon="6.871905">
        <ele>2620.959</ele>
        <time>2018-07-17T09:06:26Z</time>
      </trkpt>
      <trkpt lat="45.455628" lon="6.871962">
        <ele>2621.129</ele>
        <time>2018-07-17T09:06:31Z</time>
      </trkpt>
      <trkpt lat="45.455586" lon="6.872008">
        <ele>2621.200</ele>
        <time>2018-07-17T09:06:36Z</time>
      </trkpt>
      <trkpt lat="45.455543" lon="6.872046">
        <ele>2620.920</ele>
        <time>2018-07-17T09:06:41Z</time>
      </trkpt>
      <trkpt lat="45.455507" lon="6.872104">
        <ele>2620.708</ele>
        <time>2018-07-17T09:06:46Z</time>
      </trkpt>
      <trkpt lat="45.455473" lon="6.872148">
        <ele>2621.484</ele>
        <time>2018-07-17T09:06:50Z</time>
      </trkpt>
      <trkpt lat="45.455427" lon="6.872154">
        <ele>2621.458</ele>
        <time>2018-07-17T09:07:12Z</time>
      </trkpt>
      <trkpt lat="45.455431" lon="6.872221">
        <ele>2620.270</ele>
        <time>2018-07-17T09:08:12Z</time>
      </trkpt>
      <trkpt lat="45.455399" lon="6.872279">
        <ele>2618.746</ele>
        <time>2018-07-17T09:08:17Z</time>
      </trkpt>
      <trkpt lat="45.455376" lon="6.872334">
        <ele>2617.413</ele>
        <time>2018-07-17T09:08:22Z</time>
      </trkpt>
      <trkpt lat="45.455342" lon="6.872391">
        <ele>2615.445</ele>
        <time>2018-07-17T09:08:27Z</time>
      </trkpt>
      <trkpt lat="45.455306" lon="6.872447">
        <ele>2614.615</ele>
        <time>2018-07-17T09:08:32Z</time>
      </trkpt>
      <trkpt lat="45.455283" lon="6.872513">
        <ele>2613.316</ele>
        <time>2018-07-17T09:08:37Z</time>
      </trkpt>
      <trkpt lat="45.455266" lon="6.872584">
        <ele>2612.523</ele>
        <time>2018-07-17T09:08:41Z</time>
      </trkpt>
      <trkpt lat="45.455237" lon="6.872640">
        <ele>2611.283</ele>
        <time>2018-07-17T09:08:45Z</time>
      </trkpt>
      <trkpt lat="45.455212" lon="6.872698">
        <ele>2610.411</ele>
        <time>2018-07-17T09:08:49Z</time>
      </trkpt>
      <trkpt lat="45.455194" lon="6.872760">
        <ele>2610.308</ele>
        <time>2018-07-17T09:08:53Z</time>
      </trkpt>
      <trkpt lat="45.455184" lon="6.872823">
        <ele>2610.754</ele>
        <time>2018-07-17T09:08:57Z</time>
      </trkpt>
      <trkpt lat="45.455168" lon="6.872898">
        <ele>2611.778</ele>
        <time>2018-07-17T09:09:02Z</time>
      </trkpt>
      <trkpt lat="45.455156" lon="6.872967">
        <ele>2611.540</ele>
        <time>2018-07-17T09:09:08Z</time>
      </trkpt>
      <trkpt lat="45.455146" lon="6.873033">
        <ele>2609.856</ele>
        <time>2018-07-17T09:09:13Z</time>
      </trkpt>
      <trkpt lat="45.455132" lon="6.873097">
        <ele>2608.493</ele>
        <time>2018-07-17T09:09:19Z</time>
      </trkpt>
      <trkpt lat="45.455132" lon="6.873173">
        <ele>2607.595</ele>
        <time>2018-07-17T09:09:25Z</time>
      </trkpt>
      <trkpt lat="45.455144" lon="6.873248">
        <ele>2606.235</ele>
        <time>2018-07-17T09:09:31Z</time>
      </trkpt>
      <trkpt lat="45.455146" lon="6.873324">
        <ele>2604.686</ele>
        <time>2018-07-17T09:09:36Z</time>
      </trkpt>
      <trkpt lat="45.455119" lon="6.873387">
        <ele>2602.456</ele>
        <time>2018-07-17T09:09:41Z</time>
      </trkpt>
      <trkpt lat="45.455094" lon="6.873450">
        <ele>2600.759</ele>
        <time>2018-07-17T09:09:46Z</time>
      </trkpt>
      <trkpt lat="45.455070" lon="6.873512">
        <ele>2599.714</ele>
        <time>2018-07-17T09:09:51Z</time>
      </trkpt>
      <trkpt lat="45.455058" lon="6.873576">
        <ele>2599.108</ele>
        <time>2018-07-17T09:09:56Z</time>
      </trkpt>
      <trkpt lat="45.455045" lon="6.873647">
        <ele>2599.117</ele>
        <time>2018-07-17T09:10:01Z</time>
      </trkpt>
      <trkpt lat="45.455027" lon="6.873719">
        <ele>2599.131</ele>
        <time>2018-07-17T09:10:06Z</time>
      </trkpt>
      <trkpt lat="45.455007" lon="6.873790">
        <ele>2598.713</ele>
        <time>2018-07-17T09:10:11Z</time>
      </trkpt>
      <trkpt lat="45.454984" lon="6.873846">
        <ele>2597.779</ele>
        <time>2018-07-17T09:10:15Z</time>
      </trkpt>
      <trkpt lat="45.454959" lon="6.873917">
        <ele>2597.166</ele>
        <time>2018-07-17T09:10:20Z</time>
      </trkpt>
      <trkpt lat="45.454936" lon="6.873976">
        <ele>2595.998</ele>
        <time>2018-07-17T09:10:25Z</time>
      </trkpt>
      <trkpt lat="45.454916" lon="6.874035">
        <ele>2595.288</ele>
        <time>2018-07-17T09:10:30Z</time>
      </trkpt>
      <trkpt lat="45.454890" lon="6.874090">
        <ele>2594.819</ele>
        <time>2018-07-17T09:10:35Z</time>
      </trkpt>
      <trkpt lat="45.454858" lon="6.874141">
        <ele>2594.125</ele>
        <time>2018-07-17T09:10:41Z</time>
      </trkpt>
      <trkpt lat="45.454813" lon="6.874184">
        <ele>2593.726</ele>
        <time>2018-07-17T09:10:46Z</time>
      </trkpt>
      <trkpt lat="45.454787" lon="6.874237">
        <ele>2593.508</ele>
        <time>2018-07-17T09:10:50Z</time>
      </trkpt>
      <trkpt lat="45.454774" lon="6.874302">
        <ele>2592.208</ele>
        <time>2018-07-17T09:10:55Z</time>
      </trkpt>
      <trkpt lat="45.454747" lon="6.874367">
        <ele>2591.064</ele>
        <time>2018-07-17T09:10:59Z</time>
      </trkpt>
      <trkpt lat="45.454722" lon="6.874437">
        <ele>2590.398</ele>
        <time>2018-07-17T09:11:03Z</time>
      </trkpt>
      <trkpt lat="45.454706" lon="6.874500">
        <ele>2590.770</ele>
        <time>2018-07-17T09:11:07Z</time>
      </trkpt>
      <trkpt lat="45.454692" lon="6.874570">
        <ele>2590.946</ele>
        <time>2018-07-17T09:11:11Z</time>
      </trkpt>
      <trkpt lat="45.454669" lon="6.874635">
        <ele>2590.633</ele>
        <time>2018-07-17T09:11:15Z</time>
      </trkpt>
      <trkpt lat="45.454638" lon="6.874697">
        <ele>2589.665</ele>
        <time>2018-07-17T09:11:23Z</time>
      </trkpt>
      <trkpt lat="45.454606" lon="6.874744">
        <ele>2586.615</ele>
        <time>2018-07-17T09:11:28Z</time>
      </trkpt>
      <trkpt lat="45.454587" lon="6.874816">
        <ele>2585.266</ele>
        <time>2018-07-17T09:11:33Z</time>
      </trkpt>
      <trkpt lat="45.454588" lon="6.874881">
        <ele>2583.611</ele>
        <time>2018-07-17T09:11:37Z</time>
      </trkpt>
      <trkpt lat="45.454588" lon="6.874946">
        <ele>2583.021</ele>
        <time>2018-07-17T09:11:41Z</time>
      </trkpt>
      <trkpt lat="45.454592" lon="6.875012">
        <ele>2581.903</ele>
        <time>2018-07-17T09:11:45Z</time>
      </trkpt>
      <trkpt lat="45.454591" lon="6.875084">
        <ele>2580.408</ele>
        <time>2018-07-17T09:11:50Z</time>
      </trkpt>
      <trkpt lat="45.454624" lon="6.875166">
        <ele>2579.993</ele>
        <time>2018-07-17T09:11:59Z</time>
      </trkpt>
      <trkpt lat="45.454615" lon="6.875236">
        <ele>2577.687</ele>
        <time>2018-07-17T09:12:05Z</time>
      </trkpt>
      <trkpt lat="45.454617" lon="6.875312">
        <ele>2576.269</ele>
        <time>2018-07-17T09:12:10Z</time>
      </trkpt>
      <trkpt lat="45.454620" lon="6.875387">
        <ele>2575.885</ele>
        <time>2018-07-17T09:12:15Z</time>
      </trkpt>
      <trkpt lat="45.454625" lon="6.875462">
        <ele>2575.972</ele>
        <time>2018-07-17T09:12:20Z</time>
      </trkpt>
      <trkpt lat="45.454645" lon="6.875520">
        <ele>2576.414</ele>
        <time>2018-07-17T09:12:26Z</time>
      </trkpt>
      <trkpt lat="45.454658" lon="6.875585">
        <ele>2575.934</ele>
        <time>2018-07-17T09:12:31Z</time>
      </trkpt>
      <trkpt lat="45.454655" lon="6.875657">
        <ele>2574.895</ele>
        <time>2018-07-17T09:12:36Z</time>
      </trkpt>
      <trkpt lat="45.454650" lon="6.875732">
        <ele>2573.369</ele>
        <time>2018-07-17T09:12:41Z</time>
      </trkpt>
      <trkpt lat="45.454645" lon="6.875797">
        <ele>2572.404</ele>
        <time>2018-07-17T09:12:45Z</time>
      </trkpt>
      <trkpt lat="45.454655" lon="6.875875">
        <ele>2571.124</ele>
        <time>2018-07-17T09:12:50Z</time>
      </trkpt>
      <trkpt lat="45.454655" lon="6.875941">
        <ele>2569.908</ele>
        <time>2018-07-17T09:12:54Z</time>
      </trkpt>
      <trkpt lat="45.454658" lon="6.876005">
        <ele>2568.898</ele>
        <time>2018-07-17T09:12:58Z</time>
      </trkpt>
      <trkpt lat="45.454669" lon="6.876085">
        <ele>2568.532</ele>
        <time>2018-07-17T09:13:03Z</time>
      </trkpt>
      <trkpt lat="45.454691" lon="6.876151">
        <ele>2567.994</ele>
        <time>2018-07-17T09:13:07Z</time>
      </trkpt>
      <trkpt lat="45.454712" lon="6.876208">
        <ele>2566.880</ele>
        <time>2018-07-17T09:13:11Z</time>
      </trkpt>
      <trkpt lat="45.454736" lon="6.876277">
        <ele>2566.547</ele>
        <time>2018-07-17T09:13:16Z</time>
      </trkpt>
      <trkpt lat="45.454758" lon="6.876348">
        <ele>2566.369</ele>
        <time>2018-07-17T09:13:21Z</time>
      </trkpt>
      <trkpt lat="45.454780" lon="6.876417">
        <ele>2566.649</ele>
        <time>2018-07-17T09:13:25Z</time>
      </trkpt>
      <trkpt lat="45.454789" lon="6.876484">
        <ele>2566.860</ele>
        <time>2018-07-17T09:13:29Z</time>
      </trkpt>
      <trkpt lat="45.454804" lon="6.876549">
        <ele>2567.724</ele>
        <time>2018-07-17T09:13:33Z</time>
      </trkpt>
      <trkpt lat="45.454813" lon="6.876624">
        <ele>2568.604</ele>
        <time>2018-07-17T09:13:38Z</time>
      </trkpt>
      <trkpt lat="45.454821" lon="6.876692">
        <ele>2569.614</ele>
        <time>2018-07-17T09:13:43Z</time>
      </trkpt>
      <trkpt lat="45.454832" lon="6.876756">
        <ele>2570.208</ele>
        <time>2018-07-17T09:13:50Z</time>
      </trkpt>
      <trkpt lat="45.454862" lon="6.876812">
        <ele>2570.954</ele>
        <time>2018-07-17T09:13:56Z</time>
      </trkpt>
      <trkpt lat="45.454891" lon="6.876875">
        <ele>2571.328</ele>
        <time>2018-07-17T09:14:01Z</time>
      </trkpt>
      <trkpt lat="45.454907" lon="6.876940">
        <ele>2571.290</ele>
        <time>2018-07-17T09:14:08Z</time>
      </trkpt>
      <trkpt lat="45.454910" lon="6.877013">
        <ele>2571.116</ele>
        <time>2018-07-17T09:14:17Z</time>
      </trkpt>
      <trkpt lat="45.454937" lon="6.877081">
        <ele>2570.783</ele>
        <time>2018-07-17T09:14:22Z</time>
      </trkpt>
      <trkpt lat="45.454960" lon="6.877137">
        <ele>2570.075</ele>
        <time>2018-07-17T09:14:26Z</time>
      </trkpt>
      <trkpt lat="45.454986" lon="6.877197">
        <ele>2569.655</ele>
        <time>2018-07-17T09:14:31Z</time>
      </trkpt>
      <trkpt lat="45.455009" lon="6.877265">
        <ele>2569.036</ele>
        <time>2018-07-17T09:14:37Z</time>
      </trkpt>
      <trkpt lat="45.455034" lon="6.877329">
        <ele>2567.868</ele>
        <time>2018-07-17T09:14:43Z</time>
      </trkpt>
      <trkpt lat="45.455066" lon="6.877389">
        <ele>2567.942</ele>
        <time>2018-07-17T09:14:48Z</time>
      </trkpt>
      <trkpt lat="45.455081" lon="6.877478">
        <ele>2568.826</ele>
        <time>2018-07-17T09:15:00Z</time>
      </trkpt>
      <trkpt lat="45.455082" lon="6.877570">
        <ele>2572.108</ele>
        <time>2018-07-17T09:15:37Z</time>
      </trkpt>
      <trkpt lat="45.455111" lon="6.877624">
        <ele>2572.578</ele>
        <time>2018-07-17T09:16:04Z</time>
      </trkpt>
      <trkpt lat="45.455139" lon="6.877677">
        <ele>2572.722</ele>
        <time>2018-07-17T09:16:10Z</time>
      </trkpt>
      <trkpt lat="45.455167" lon="6.877740">
        <ele>2572.864</ele>
        <time>2018-07-17T09:16:15Z</time>
      </trkpt>
      <trkpt lat="45.455198" lon="6.877792">
        <ele>2572.540</ele>
        <time>2018-07-17T09:16:20Z</time>
      </trkpt>
      <trkpt lat="45.455227" lon="6.877855">
        <ele>2572.767</ele>
        <time>2018-07-17T09:16:25Z</time>
      </trkpt>
      <trkpt lat="45.455244" lon="6.877927">
        <ele>2572.419</ele>
        <time>2018-07-17T09:16:30Z</time>
      </trkpt>
      <trkpt lat="45.455275" lon="6.877990">
        <ele>2572.299</ele>
        <time>2018-07-17T09:16:36Z</time>
      </trkpt>
      <trkpt lat="45.455303" lon="6.878042">
        <ele>2571.740</ele>
        <time>2018-07-17T09:16:40Z</time>
      </trkpt>
      <trkpt lat="45.455314" lon="6.878107">
        <ele>2570.671</ele>
        <time>2018-07-17T09:16:45Z</time>
      </trkpt>
      <trkpt lat="45.455338" lon="6.878176">
        <ele>2569.941</ele>
        <time>2018-07-17T09:16:50Z</time>
      </trkpt>
      <trkpt lat="45.455352" lon="6.878245">
        <ele>2569.515</ele>
        <time>2018-07-17T09:16:55Z</time>
      </trkpt>
      <trkpt lat="45.455362" lon="6.878318">
        <ele>2567.708</ele>
        <time>2018-07-17T09:17:01Z</time>
      </trkpt>
      <trkpt lat="45.455369" lon="6.878382">
        <ele>2566.299</ele>
        <time>2018-07-17T09:17:06Z</time>
      </trkpt>
      <trkpt lat="45.455368" lon="6.878447">
        <ele>2564.563</ele>
        <time>2018-07-17T09:17:12Z</time>
      </trkpt>
      <trkpt lat="45.455347" lon="6.878510">
        <ele>2563.175</ele>
        <time>2018-07-17T09:17:18Z</time>
      </trkpt>
      <trkpt lat="45.455353" lon="6.878584">
        <ele>2561.851</ele>
        <time>2018-07-17T09:17:24Z</time>
      </trkpt>
      <trkpt lat="45.455356" lon="6.878653">
        <ele>2560.618</ele>
        <time>2018-07-17T09:17:29Z</time>
      </trkpt>
      <trkpt lat="45.455372" lon="6.878719">
        <ele>2559.160</ele>
        <time>2018-07-17T09:17:35Z</time>
      </trkpt>
      <trkpt lat="45.455396" lon="6.878780">
        <ele>2558.270</ele>
        <time>2018-07-17T09:17:44Z</time>
      </trkpt>
      <trkpt lat="45.455412" lon="6.878847">
        <ele>2556.951</ele>
        <time>2018-07-17T09:17:50Z</time>
      </trkpt>
      <trkpt lat="45.455433" lon="6.878909">
        <ele>2555.737</ele>
        <time>2018-07-17T09:17:56Z</time>
      </trkpt>
      <trkpt lat="45.455459" lon="6.878978">
        <ele>2555.449</ele>
        <time>2018-07-17T09:18:03Z</time>
      </trkpt>
      <trkpt lat="45.455477" lon="6.879050">
        <ele>2556.413</ele>
        <time>2018-07-17T09:18:08Z</time>
      </trkpt>
      <trkpt lat="45.455462" lon="6.879119">
        <ele>2557.008</ele>
        <time>2018-07-17T09:18:13Z</time>
      </trkpt>
      <trkpt lat="45.455441" lon="6.879182">
        <ele>2556.645</ele>
        <time>2018-07-17T09:18:19Z</time>
      </trkpt>
      <trkpt lat="45.455429" lon="6.879250">
        <ele>2555.989</ele>
        <time>2018-07-17T09:18:25Z</time>
      </trkpt>
      <trkpt lat="45.455420" lon="6.879313">
        <ele>2555.121</ele>
        <time>2018-07-17T09:18:30Z</time>
      </trkpt>
      <trkpt lat="45.455414" lon="6.879377">
        <ele>2554.657</ele>
        <time>2018-07-17T09:18:35Z</time>
      </trkpt>
      <trkpt lat="45.455396" lon="6.879444">
        <ele>2553.134</ele>
        <time>2018-07-17T09:18:41Z</time>
      </trkpt>
      <trkpt lat="45.455398" lon="6.879513">
        <ele>2551.826</ele>
        <time>2018-07-17T09:18:46Z</time>
      </trkpt>
      <trkpt lat="45.455381" lon="6.879580">
        <ele>2550.636</ele>
        <time>2018-07-17T09:18:51Z</time>
      </trkpt>
      <trkpt lat="45.455367" lon="6.879653">
        <ele>2549.557</ele>
        <time>2018-07-17T09:18:56Z</time>
      </trkpt>
      <trkpt lat="45.455362" lon="6.879724">
        <ele>2548.464</ele>
        <time>2018-07-17T09:19:01Z</time>
      </trkpt>
      <trkpt lat="45.455356" lon="6.879795">
        <ele>2548.206</ele>
        <time>2018-07-17T09:19:06Z</time>
      </trkpt>
      <trkpt lat="45.455341" lon="6.879866">
        <ele>2547.716</ele>
        <time>2018-07-17T09:19:11Z</time>
      </trkpt>
      <trkpt lat="45.455326" lon="6.879933">
        <ele>2547.008</ele>
        <time>2018-07-17T09:19:16Z</time>
      </trkpt>
      <trkpt lat="45.455311" lon="6.880000">
        <ele>2547.048</ele>
        <time>2018-07-17T09:19:21Z</time>
      </trkpt>
      <trkpt lat="45.455299" lon="6.880064">
        <ele>2547.442</ele>
        <time>2018-07-17T09:19:26Z</time>
      </trkpt>
      <trkpt lat="45.455274" lon="6.880122">
        <ele>2548.014</ele>
        <time>2018-07-17T09:19:31Z</time>
      </trkpt>
      <trkpt lat="45.455243" lon="6.880178">
        <ele>2548.060</ele>
        <time>2018-07-17T09:19:36Z</time>
      </trkpt>
      <trkpt lat="45.455225" lon="6.880244">
        <ele>2548.057</ele>
        <time>2018-07-17T09:19:41Z</time>
      </trkpt>
      <trkpt lat="45.455198" lon="6.880300">
        <ele>2547.289</ele>
        <time>2018-07-17T09:19:47Z</time>
      </trkpt>
      <trkpt lat="45.455178" lon="6.880363">
        <ele>2546.739</ele>
        <time>2018-07-17T09:19:53Z</time>
      </trkpt>
      <trkpt lat="45.455163" lon="6.880425">
        <ele>2545.620</ele>
        <time>2018-07-17T09:19:58Z</time>
      </trkpt>
      <trkpt lat="45.455134" lon="6.880484">
        <ele>2544.159</ele>
        <time>2018-07-17T09:20:07Z</time>
      </trkpt>
      <trkpt lat="45.455114" lon="6.880548">
        <ele>2542.803</ele>
        <time>2018-07-17T09:20:14Z</time>
      </trkpt>
      <trkpt lat="45.455099" lon="6.880612">
        <ele>2541.623</ele>
        <time>2018-07-17T09:20:19Z</time>
      </trkpt>
      <trkpt lat="45.455078" lon="6.880675">
        <ele>2539.708</ele>
        <time>2018-07-17T09:20:24Z</time>
      </trkpt>
      <trkpt lat="45.455074" lon="6.880745">
        <ele>2538.277</ele>
        <time>2018-07-17T09:20:30Z</time>
      </trkpt>
      <trkpt lat="45.455051" lon="6.880803">
        <ele>2536.531</ele>
        <time>2018-07-17T09:20:35Z</time>
      </trkpt>
      <trkpt lat="45.455036" lon="6.880876">
        <ele>2534.733</ele>
        <time>2018-07-17T09:20:40Z</time>
      </trkpt>
      <trkpt lat="45.455025" lon="6.880948">
        <ele>2533.649</ele>
        <time>2018-07-17T09:20:45Z</time>
      </trkpt>
      <trkpt lat="45.455027" lon="6.881018">
        <ele>2532.556</ele>
        <time>2018-07-17T09:20:50Z</time>
      </trkpt>
      <trkpt lat="45.455026" lon="6.881092">
        <ele>2531.548</ele>
        <time>2018-07-17T09:20:56Z</time>
      </trkpt>
      <trkpt lat="45.455044" lon="6.881152">
        <ele>2530.118</ele>
        <time>2018-07-17T09:21:02Z</time>
      </trkpt>
      <trkpt lat="45.455029" lon="6.881217">
        <ele>2529.279</ele>
        <time>2018-07-17T09:21:08Z</time>
      </trkpt>
      <trkpt lat="45.455035" lon="6.881285">
        <ele>2527.995</ele>
        <time>2018-07-17T09:21:14Z</time>
      </trkpt>
      <trkpt lat="45.455039" lon="6.881350">
        <ele>2526.349</ele>
        <time>2018-07-17T09:21:20Z</time>
      </trkpt>
      <trkpt lat="45.455050" lon="6.881417">
        <ele>2524.523</ele>
        <time>2018-07-17T09:21:25Z</time>
      </trkpt>
      <trkpt lat="45.455070" lon="6.881487">
        <ele>2523.008</ele>
        <time>2018-07-17T09:21:31Z</time>
      </trkpt>
      <trkpt lat="45.455086" lon="6.881551">
        <ele>2521.741</ele>
        <time>2018-07-17T09:21:36Z</time>
      </trkpt>
      <trkpt lat="45.455101" lon="6.881636">
        <ele>2521.375</ele>
        <time>2018-07-17T09:21:48Z</time>
      </trkpt>
      <trkpt lat="45.455111" lon="6.881699">
        <ele>2520.747</ele>
        <time>2018-07-17T09:21:54Z</time>
      </trkpt>
      <trkpt lat="45.455130" lon="6.881770">
        <ele>2519.513</ele>
        <time>2018-07-17T09:22:00Z</time>
      </trkpt>
      <trkpt lat="45.455152" lon="6.881828">
        <ele>2518.490</ele>
        <time>2018-07-17T09:22:05Z</time>
      </trkpt>
      <trkpt lat="45.455173" lon="6.881891">
        <ele>2517.322</ele>
        <time>2018-07-17T09:22:10Z</time>
      </trkpt>
      <trkpt lat="45.455199" lon="6.881963">
        <ele>2517.932</ele>
        <time>2018-07-17T09:22:14Z</time>
      </trkpt>
      <trkpt lat="45.455213" lon="6.882055">
        <ele>2518.633</ele>
        <time>2018-07-17T09:22:21Z</time>
      </trkpt>
      <trkpt lat="45.455203" lon="6.882118">
        <ele>2519.825</ele>
        <time>2018-07-17T09:22:37Z</time>
      </trkpt>
      <trkpt lat="45.455223" lon="6.882179">
        <ele>2520.126</ele>
        <time>2018-07-17T09:22:45Z</time>
      </trkpt>
      <trkpt lat="45.455245" lon="6.882242">
        <ele>2519.508</ele>
        <time>2018-07-17T09:22:50Z</time>
      </trkpt>
      <trkpt lat="45.455275" lon="6.882304">
        <ele>2519.108</ele>
        <time>2018-07-17T09:22:55Z</time>
      </trkpt>
      <trkpt lat="45.455307" lon="6.882364">
        <ele>2518.164</ele>
        <time>2018-07-17T09:23:01Z</time>
      </trkpt>
      <trkpt lat="45.455336" lon="6.882417">
        <ele>2517.998</ele>
        <time>2018-07-17T09:23:06Z</time>
      </trkpt>
      <trkpt lat="45.455366" lon="6.882475">
        <ele>2518.230</ele>
        <time>2018-07-17T09:23:12Z</time>
      </trkpt>
      <trkpt lat="45.455374" lon="6.882550">
        <ele>2518.076</ele>
        <time>2018-07-17T09:23:19Z</time>
      </trkpt>
      <trkpt lat="45.455347" lon="6.882613">
        <ele>2517.993</ele>
        <time>2018-07-17T09:23:23Z</time>
      </trkpt>
      <trkpt lat="45.455325" lon="6.882683">
        <ele>2519.465</ele>
        <time>2018-07-17T09:23:27Z</time>
      </trkpt>
      <trkpt lat="45.455300" lon="6.882747">
        <ele>2521.165</ele>
        <time>2018-07-17T09:23:31Z</time>
      </trkpt>
      <trkpt lat="45.455280" lon="6.882805">
        <ele>2522.186</ele>
        <time>2018-07-17T09:23:35Z</time>
      </trkpt>
      <trkpt lat="45.455269" lon="6.882873">
        <ele>2520.328</ele>
        <time>2018-07-17T09:23:42Z</time>
      </trkpt>
      <trkpt lat="45.455279" lon="6.882941">
        <ele>2518.489</ele>
        <time>2018-07-17T09:23:47Z</time>
      </trkpt>
      <trkpt lat="45.455291" lon="6.883013">
        <ele>2516.517</ele>
        <time>2018-07-17T09:23:53Z</time>
      </trkpt>
      <trkpt lat="45.455309" lon="6.883079">
        <ele>2514.508</ele>
        <time>2018-07-17T09:23:59Z</time>
      </trkpt>
      <trkpt lat="45.455299" lon="6.883146">
        <ele>2512.184</ele>
        <time>2018-07-17T09:24:04Z</time>
      </trkpt>
      <trkpt lat="45.455309" lon="6.883216">
        <ele>2510.748</ele>
        <time>2018-07-17T09:24:09Z</time>
      </trkpt>
      <trkpt lat="45.455325" lon="6.883283">
        <ele>2509.050</ele>
        <time>2018-07-17T09:24:16Z</time>
      </trkpt>
      <trkpt lat="45.455345" lon="6.883345">
        <ele>2507.246</ele>
        <time>2018-07-17T09:24:22Z</time>
      </trkpt>
      <trkpt lat="45.455366" lon="6.883407">
        <ele>2506.593</ele>
        <time>2018-07-17T09:24:27Z</time>
      </trkpt>
      <trkpt lat="45.455390" lon="6.883466">
        <ele>2505.785</ele>
        <time>2018-07-17T09:24:31Z</time>
      </trkpt>
      <trkpt lat="45.455408" lon="6.883525">
        <ele>2504.435</ele>
        <time>2018-07-17T09:24:35Z</time>
      </trkpt>
      <trkpt lat="45.455411" lon="6.883601">
        <ele>2502.846</ele>
        <time>2018-07-17T09:24:40Z</time>
      </trkpt>
      <trkpt lat="45.455408" lon="6.883671">
        <ele>2501.118</ele>
        <time>2018-07-17T09:24:45Z</time>
      </trkpt>
      <trkpt lat="45.455422" lon="6.883736">
        <ele>2500.198</ele>
        <time>2018-07-17T09:24:49Z</time>
      </trkpt>
      <trkpt lat="45.455450" lon="6.883795">
        <ele>2501.117</ele>
        <time>2018-07-17T09:24:52Z</time>
      </trkpt>
      <trkpt lat="45.455474" lon="6.883863">
        <ele>2501.708</ele>
        <time>2018-07-17T09:24:56Z</time>
      </trkpt>
      <trkpt lat="45.455482" lon="6.883935">
        <ele>2504.573</ele>
        <time>2018-07-17T09:25:00Z</time>
      </trkpt>
      <trkpt lat="45.455494" lon="6.884005">
        <ele>2505.487</ele>
        <time>2018-07-17T09:25:05Z</time>
      </trkpt>
      <trkpt lat="45.455507" lon="6.884067">
        <ele>2505.939</ele>
        <time>2018-07-17T09:25:09Z</time>
      </trkpt>
      <trkpt lat="45.455522" lon="6.884141">
        <ele>2505.825</ele>
        <time>2018-07-17T09:25:14Z</time>
      </trkpt>
      <trkpt lat="45.455530" lon="6.884214">
        <ele>2504.542</ele>
        <time>2018-07-17T09:25:19Z</time>
      </trkpt>
      <trkpt lat="45.455486" lon="6.884263">
        <ele>2503.344</ele>
        <time>2018-07-17T09:25:24Z</time>
      </trkpt>
      <trkpt lat="45.455436" lon="6.884284">
        <ele>2503.054</ele>
        <time>2018-07-17T09:25:28Z</time>
      </trkpt>
      <trkpt lat="45.455432" lon="6.884353">
        <ele>2501.215</ele>
        <time>2018-07-17T09:25:37Z</time>
      </trkpt>
      <trkpt lat="45.455444" lon="6.884420">
        <ele>2498.521</ele>
        <time>2018-07-17T09:26:06Z</time>
      </trkpt>
      <trkpt lat="45.455418" lon="6.884480">
        <ele>2498.941</ele>
        <time>2018-07-17T09:26:14Z</time>
      </trkpt>
      <trkpt lat="45.455430" lon="6.884547">
        <ele>2496.305</ele>
        <time>2018-07-17T09:26:22Z</time>
      </trkpt>
      <trkpt lat="45.455422" lon="6.884611">
        <ele>2492.808</ele>
        <time>2018-07-17T09:26:29Z</time>
      </trkpt>
      <trkpt lat="45.455439" lon="6.884676">
        <ele>2489.914</ele>
        <time>2018-07-17T09:26:35Z</time>
      </trkpt>
      <trkpt lat="45.455455" lon="6.884742">
        <ele>2485.988</ele>
        <time>2018-07-17T09:26:43Z</time>
      </trkpt>
      <trkpt lat="45.455477" lon="6.884801">
        <ele>2484.960</ele>
        <time>2018-07-17T09:26:47Z</time>
      </trkpt>
      <trkpt lat="45.455499" lon="6.884874">
        <ele>2483.566</ele>
        <time>2018-07-17T09:26:51Z</time>
      </trkpt>
      <trkpt lat="45.455505" lon="6.884940">
        <ele>2481.953</ele>
        <time>2018-07-17T09:26:56Z</time>
      </trkpt>
      <trkpt lat="45.455514" lon="6.885019">
        <ele>2480.565</ele>
        <time>2018-07-17T09:27:01Z</time>
      </trkpt>
      <trkpt lat="45.455512" lon="6.885093">
        <ele>2478.515</ele>
        <time>2018-07-17T09:27:07Z</time>
      </trkpt>
      <trkpt lat="45.455498" lon="6.885165">
        <ele>2476.156</ele>
        <time>2018-07-17T09:27:13Z</time>
      </trkpt>
      <trkpt lat="45.455499" lon="6.885238">
        <ele>2473.594</ele>
        <time>2018-07-17T09:27:18Z</time>
      </trkpt>
      <trkpt lat="45.455490" lon="6.885321">
        <ele>2472.357</ele>
        <time>2018-07-17T09:27:23Z</time>
      </trkpt>
      <trkpt lat="45.455487" lon="6.885387">
        <ele>2473.222</ele>
        <time>2018-07-17T09:27:26Z</time>
      </trkpt>
      <trkpt lat="45.455486" lon="6.885455">
        <ele>2474.108</ele>
        <time>2018-07-17T09:27:30Z</time>
      </trkpt>
      <trkpt lat="45.455492" lon="6.885530">
        <ele>2475.521</ele>
        <time>2018-07-17T09:27:34Z</time>
      </trkpt>
      <trkpt lat="45.455477" lon="6.885594">
        <ele>2475.115</ele>
        <time>2018-07-17T09:27:39Z</time>
      </trkpt>
      <trkpt lat="45.455464" lon="6.885658">
        <ele>2474.947</ele>
        <time>2018-07-17T09:27:44Z</time>
      </trkpt>
      <trkpt lat="45.455470" lon="6.885725">
        <ele>2477.293</ele>
        <time>2018-07-17T09:27:48Z</time>
      </trkpt>
      <trkpt lat="45.455460" lon="6.885802">
        <ele>2478.270</ele>
        <time>2018-07-17T09:27:53Z</time>
      </trkpt>
      <trkpt lat="45.455456" lon="6.885872">
        <ele>2478.842</ele>
        <time>2018-07-17T09:27:58Z</time>
      </trkpt>
      <trkpt lat="45.455459" lon="6.885945">
        <ele>2478.782</ele>
        <time>2018-07-17T09:28:05Z</time>
      </trkpt>
      <trkpt lat="45.455466" lon="6.886016">
        <ele>2478.343</ele>
        <time>2018-07-17T09:28:12Z</time>
      </trkpt>
      <trkpt lat="45.455477" lon="6.886092">
        <ele>2478.456</ele>
        <time>2018-07-17T09:28:19Z</time>
      </trkpt>
      <trkpt lat="45.455491" lon="6.886160">
        <ele>2477.759</ele>
        <time>2018-07-17T09:28:26Z</time>
      </trkpt>
      <trkpt lat="45.455492" lon="6.886228">
        <ele>2477.314</ele>
        <time>2018-07-17T09:28:33Z</time>
      </trkpt>
      <trkpt lat="45.455511" lon="6.886297">
        <ele>2476.608</ele>
        <time>2018-07-17T09:28:41Z</time>
      </trkpt>
      <trkpt lat="45.455533" lon="6.886354">
        <ele>2475.457</ele>
        <time>2018-07-17T09:28:47Z</time>
      </trkpt>
      <trkpt lat="45.455531" lon="6.886421">
        <ele>2473.551</ele>
        <time>2018-07-17T09:28:55Z</time>
      </trkpt>
      <trkpt lat="45.455525" lon="6.886485">
        <ele>2471.933</ele>
        <time>2018-07-17T09:29:01Z</time>
      </trkpt>
      <trkpt lat="45.455529" lon="6.886551">
        <ele>2470.639</ele>
        <time>2018-07-17T09:29:07Z</time>
      </trkpt>
      <trkpt lat="45.455550" lon="6.886610">
        <ele>2469.446</ele>
        <time>2018-07-17T09:29:12Z</time>
      </trkpt>
      <trkpt lat="45.455573" lon="6.886683">
        <ele>2468.778</ele>
        <time>2018-07-17T09:29:17Z</time>
      </trkpt>
      <trkpt lat="45.455582" lon="6.886748">
        <ele>2468.328</ele>
        <time>2018-07-17T09:29:21Z</time>
      </trkpt>
      <trkpt lat="45.455573" lon="6.886825">
        <ele>2467.239</ele>
        <time>2018-07-17T09:29:26Z</time>
      </trkpt>
      <trkpt lat="45.455580" lon="6.886892">
        <ele>2466.216</ele>
        <time>2018-07-17T09:29:31Z</time>
      </trkpt>
      <trkpt lat="45.455590" lon="6.886955">
        <ele>2465.276</ele>
        <time>2018-07-17T09:29:36Z</time>
      </trkpt>
      <trkpt lat="45.455593" lon="6.887024">
        <ele>2463.813</ele>
        <time>2018-07-17T09:29:43Z</time>
      </trkpt>
      <trkpt lat="45.455601" lon="6.887088">
        <ele>2461.808</ele>
        <time>2018-07-17T09:29:50Z</time>
      </trkpt>
      <trkpt lat="45.455631" lon="6.887146">
        <ele>2461.493</ele>
        <time>2018-07-17T09:29:55Z</time>
      </trkpt>
      <trkpt lat="45.455644" lon="6.887209">
        <ele>2460.377</ele>
        <time>2018-07-17T09:30:01Z</time>
      </trkpt>
      <trkpt lat="45.455663" lon="6.887273">
        <ele>2458.919</ele>
        <time>2018-07-17T09:30:08Z</time>
      </trkpt>
      <trkpt lat="45.455691" lon="6.887325">
        <ele>2458.445</ele>
        <time>2018-07-17T09:30:13Z</time>
      </trkpt>
      <trkpt lat="45.455726" lon="6.887380">
        <ele>2458.142</ele>
        <time>2018-07-17T09:30:18Z</time>
      </trkpt>
      <trkpt lat="45.455770" lon="6.887426">
        <ele>2459.144</ele>
        <time>2018-07-17T09:30:22Z</time>
      </trkpt>
      <trkpt lat="45.455808" lon="6.887470">
        <ele>2459.784</ele>
        <time>2018-07-17T09:30:27Z</time>
      </trkpt>
      <trkpt lat="45.455854" lon="6.887497">
        <ele>2461.395</ele>
        <time>2018-07-17T09:30:31Z</time>
      </trkpt>
      <trkpt lat="45.455899" lon="6.887519">
        <ele>2463.071</ele>
        <time>2018-07-17T09:30:35Z</time>
      </trkpt>
      <trkpt lat="45.455943" lon="6.887545">
        <ele>2464.041</ele>
        <time>2018-07-17T09:30:39Z</time>
      </trkpt>
      <trkpt lat="45.455988" lon="6.887580">
        <ele>2464.615</ele>
        <time>2018-07-17T09:30:44Z</time>
      </trkpt>
      <trkpt lat="45.455971" lon="6.887646">
        <ele>2465.008</ele>
        <time>2018-07-17T09:30:50Z</time>
      </trkpt>
      <trkpt lat="45.455949" lon="6.887713">
        <ele>2464.039</ele>
        <time>2018-07-17T09:30:56Z</time>
      </trkpt>
      <trkpt lat="45.455986" lon="6.887755">
        <ele>2463.073</ele>
        <time>2018-07-17T09:31:04Z</time>
      </trkpt>
      <trkpt lat="45.456034" lon="6.887780">
        <ele>2462.055</ele>
        <time>2018-07-17T09:31:10Z</time>
      </trkpt>
      <trkpt lat="45.456069" lon="6.887822">
        <ele>2461.411</ele>
        <time>2018-07-17T09:31:16Z</time>
      </trkpt>
      <trkpt lat="45.456082" lon="6.887887">
        <ele>2460.278</ele>
        <time>2018-07-17T09:31:24Z</time>
      </trkpt>
      <trkpt lat="45.456098" lon="6.887950">
        <ele>2458.750</ele>
        <time>2018-07-17T09:31:41Z</time>
      </trkpt>
      <trkpt lat="45.456128" lon="6.888008">
        <ele>2456.690</ele>
        <time>2018-07-17T09:31:52Z</time>
      </trkpt>
      <trkpt lat="45.456161" lon="6.888053">
        <ele>2454.911</ele>
        <time>2018-07-17T09:32:01Z</time>
      </trkpt>
      <trkpt lat="45.456195" lon="6.888107">
        <ele>2454.359</ele>
        <time>2018-07-17T09:32:08Z</time>
      </trkpt>
      <trkpt lat="45.456233" lon="6.888149">
        <ele>2453.503</ele>
        <time>2018-07-17T09:32:14Z</time>
      </trkpt>
      <trkpt lat="45.456269" lon="6.888208">
        <ele>2452.623</ele>
        <time>2018-07-17T09:32:20Z</time>
      </trkpt>
      <trkpt lat="45.456302" lon="6.888266">
        <ele>2452.108</ele>
        <time>2018-07-17T09:32:26Z</time>
      </trkpt>
      <trkpt lat="45.456343" lon="6.888311">
        <ele>2451.417</ele>
        <time>2018-07-17T09:32:32Z</time>
      </trkpt>
      <trkpt lat="45.456388" lon="6.888348">
        <ele>2450.621</ele>
        <time>2018-07-17T09:32:38Z</time>
      </trkpt>
      <trkpt lat="45.456428" lon="6.888382">
        <ele>2450.113</ele>
        <time>2018-07-17T09:32:43Z</time>
      </trkpt>
      <trkpt lat="45.456446" lon="6.888446">
        <ele>2449.049</ele>
        <time>2018-07-17T09:32:49Z</time>
      </trkpt>
      <trkpt lat="45.456464" lon="6.888507">
        <ele>2448.396</ele>
        <time>2018-07-17T09:32:56Z</time>
      </trkpt>
      <trkpt lat="45.456499" lon="6.888552">
        <ele>2447.138</ele>
        <time>2018-07-17T09:33:03Z</time>
      </trkpt>
      <trkpt lat="45.456534" lon="6.888598">
        <ele>2446.048</ele>
        <time>2018-07-17T09:33:09Z</time>
      </trkpt>
      <trkpt lat="45.456571" lon="6.888654">
        <ele>2444.999</ele>
        <time>2018-07-17T09:33:15Z</time>
      </trkpt>
      <trkpt lat="45.456601" lon="6.888702">
        <ele>2443.928</ele>
        <time>2018-07-17T09:33:21Z</time>
      </trkpt>
      <trkpt lat="45.456643" lon="6.888744">
        <ele>2442.989</ele>
        <time>2018-07-17T09:33:28Z</time>
      </trkpt>
      <trkpt lat="45.456671" lon="6.888797">
        <ele>2441.917</ele>
        <time>2018-07-17T09:33:35Z</time>
      </trkpt>
      <trkpt lat="45.456697" lon="6.888862">
        <ele>2440.508</ele>
        <time>2018-07-17T09:33:42Z</time>
      </trkpt>
      <trkpt lat="45.456725" lon="6.888919">
        <ele>2439.384</ele>
        <time>2018-07-17T09:33:47Z</time>
      </trkpt>
      <trkpt lat="45.456765" lon="6.888957">
        <ele>2438.678</ele>
        <time>2018-07-17T09:33:51Z</time>
      </trkpt>
      <trkpt lat="45.456803" lon="6.888993">
        <ele>2438.230</ele>
        <time>2018-07-17T09:33:55Z</time>
      </trkpt>
      <trkpt lat="45.456838" lon="6.889047">
        <ele>2437.576</ele>
        <time>2018-07-17T09:34:01Z</time>
      </trkpt>
      <trkpt lat="45.456866" lon="6.889099">
        <ele>2437.193</ele>
        <time>2018-07-17T09:34:06Z</time>
      </trkpt>
      <trkpt lat="45.456888" lon="6.889165">
        <ele>2436.175</ele>
        <time>2018-07-17T09:34:12Z</time>
      </trkpt>
      <trkpt lat="45.456913" lon="6.889229">
        <ele>2435.125</ele>
        <time>2018-07-17T09:34:18Z</time>
      </trkpt>
      <trkpt lat="45.456940" lon="6.889291">
        <ele>2434.176</ele>
        <time>2018-07-17T09:34:25Z</time>
      </trkpt>
      <trkpt lat="45.456959" lon="6.889353">
        <ele>2433.133</ele>
        <time>2018-07-17T09:34:32Z</time>
      </trkpt>
      <trkpt lat="45.456987" lon="6.889404">
        <ele>2432.123</ele>
        <time>2018-07-17T09:34:37Z</time>
      </trkpt>
      <trkpt lat="45.457030" lon="6.889446">
        <ele>2431.515</ele>
        <time>2018-07-17T09:34:44Z</time>
      </trkpt>
      <trkpt lat="45.457067" lon="6.889484">
        <ele>2430.308</ele>
        <time>2018-07-17T09:35:06Z</time>
      </trkpt>
      <trkpt lat="45.457108" lon="6.889529">
        <ele>2429.695</ele>
        <time>2018-07-17T09:35:19Z</time>
      </trkpt>
      <trkpt lat="45.457150" lon="6.889569">
        <ele>2429.269</ele>
        <time>2018-07-17T09:35:24Z</time>
      </trkpt>
      <trkpt lat="45.457198" lon="6.889597">
        <ele>2428.551</ele>
        <time>2018-07-17T09:35:29Z</time>
      </trkpt>
      <trkpt lat="45.457243" lon="6.889628">
        <ele>2427.397</ele>
        <time>2018-07-17T09:35:34Z</time>
      </trkpt>
      <trkpt lat="45.457287" lon="6.889658">
        <ele>2426.684</ele>
        <time>2018-07-17T09:35:39Z</time>
      </trkpt>
      <trkpt lat="45.457329" lon="6.889689">
        <ele>2425.496</ele>
        <time>2018-07-17T09:35:45Z</time>
      </trkpt>
      <trkpt lat="45.457361" lon="6.889743">
        <ele>2423.996</ele>
        <time>2018-07-17T09:35:52Z</time>
      </trkpt>
      <trkpt lat="45.457399" lon="6.889780">
        <ele>2422.287</ele>
        <time>2018-07-17T09:36:00Z</time>
      </trkpt>
      <trkpt lat="45.457416" lon="6.889846">
        <ele>2420.458</ele>
        <time>2018-07-17T09:36:08Z</time>
      </trkpt>
      <trkpt lat="45.457432" lon="6.889914">
        <ele>2418.952</ele>
        <time>2018-07-17T09:36:16Z</time>
      </trkpt>
      <trkpt lat="45.457474" lon="6.889945">
        <ele>2418.017</ele>
        <time>2018-07-17T09:36:22Z</time>
      </trkpt>
      <trkpt lat="45.457515" lon="6.889973">
        <ele>2417.508</ele>
        <time>2018-07-17T09:36:28Z</time>
      </trkpt>
      <trkpt lat="45.457554" lon="6.890014">
        <ele>2416.897</ele>
        <time>2018-07-17T09:36:34Z</time>
      </trkpt>
      <trkpt lat="45.457590" lon="6.890055">
        <ele>2416.481</ele>
        <time>2018-07-17T09:36:40Z</time>
      </trkpt>
      <trkpt lat="45.457629" lon="6.890091">
        <ele>2415.763</ele>
        <time>2018-07-17T09:36:46Z</time>
      </trkpt>
      <trkpt lat="45.457666" lon="6.890139">
        <ele>2414.939</ele>
        <time>2018-07-17T09:36:54Z</time>
      </trkpt>
      <trkpt lat="45.457693" lon="6.890197">
        <ele>2413.666</ele>
        <time>2018-07-17T09:37:01Z</time>
      </trkpt>
      <trkpt lat="45.457723" lon="6.890251">
        <ele>2412.468</ele>
        <time>2018-07-17T09:37:07Z</time>
      </trkpt>
      <trkpt lat="45.457759" lon="6.890290">
        <ele>2411.768</ele>
        <time>2018-07-17T09:37:14Z</time>
      </trkpt>
      <trkpt lat="45.457789" lon="6.890348">
        <ele>2410.939</ele>
        <time>2018-07-17T09:37:22Z</time>
      </trkpt>
      <trkpt lat="45.457830" lon="6.890384">
        <ele>2410.063</ele>
        <time>2018-07-17T09:37:29Z</time>
      </trkpt>
      <trkpt lat="45.457866" lon="6.890423">
        <ele>2408.344</ele>
        <time>2018-07-17T09:37:38Z</time>
      </trkpt>
      <trkpt lat="45.457880" lon="6.890487">
        <ele>2405.718</ele>
        <time>2018-07-17T09:37:49Z</time>
      </trkpt>
      <trkpt lat="45.457874" lon="6.890554">
        <ele>2403.708</ele>
        <time>2018-07-17T09:37:56Z</time>
      </trkpt>
      <trkpt lat="45.457866" lon="6.890625">
        <ele>2402.168</ele>
        <time>2018-07-17T09:38:04Z</time>
      </trkpt>
      <trkpt lat="45.457843" lon="6.890692">
        <ele>2401.132</ele>
        <time>2018-07-17T09:38:10Z</time>
      </trkpt>
      <trkpt lat="45.457820" lon="6.890751">
        <ele>2400.144</ele>
        <time>2018-07-17T09:38:16Z</time>
      </trkpt>
      <trkpt lat="45.457833" lon="6.890813">
        <ele>2399.150</ele>
        <time>2018-07-17T09:38:35Z</time>
      </trkpt>
      <trkpt lat="45.457868" lon="6.890861">
        <ele>2397.727</ele>
        <time>2018-07-17T09:38:46Z</time>
      </trkpt>
      <trkpt lat="45.457912" lon="6.890891">
        <ele>2396.529</ele>
        <time>2018-07-17T09:38:54Z</time>
      </trkpt>
      <trkpt lat="45.457946" lon="6.890941">
        <ele>2395.059</ele>
        <time>2018-07-17T09:39:01Z</time>
      </trkpt>
      <trkpt lat="45.457985" lon="6.890990">
        <ele>2393.790</ele>
        <time>2018-07-17T09:39:08Z</time>
      </trkpt>
      <trkpt lat="45.458003" lon="6.891051">
        <ele>2392.517</ele>
        <time>2018-07-17T09:39:15Z</time>
      </trkpt>
      <trkpt lat="45.458019" lon="6.891119">
        <ele>2391.487</ele>
        <time>2018-07-17T09:39:21Z</time>
      </trkpt>
      <trkpt lat="45.458047" lon="6.891173">
        <ele>2390.715</ele>
        <time>2018-07-17T09:39:26Z</time>
      </trkpt>
      <trkpt lat="45.458071" lon="6.891228">
        <ele>2389.908</ele>
        <time>2018-07-17T09:39:31Z</time>
      </trkpt>
      <trkpt lat="45.458113" lon="6.891269">
        <ele>2389.893</ele>
        <time>2018-07-17T09:39:36Z</time>
      </trkpt>
      <trkpt lat="45.458135" lon="6.891328">
        <ele>2389.897</ele>
        <time>2018-07-17T09:40:37Z</time>
      </trkpt>
      <trkpt lat="45.458163" lon="6.891390">
        <ele>2390.249</ele>
        <time>2018-07-17T09:40:43Z</time>
      </trkpt>
      <trkpt lat="45.458197" lon="6.891450">
        <ele>2390.465</ele>
        <time>2018-07-17T09:40:49Z</time>
      </trkpt>
      <trkpt lat="45.458227" lon="6.891510">
        <ele>2390.562</ele>
        <time>2018-07-17T09:40:55Z</time>
      </trkpt>
      <trkpt lat="45.458247" lon="6.891572">
        <ele>2389.854</ele>
        <time>2018-07-17T09:41:02Z</time>
      </trkpt>
      <trkpt lat="45.458287" lon="6.891604">
        <ele>2389.854</ele>
        <time>2018-07-17T09:41:15Z</time>
      </trkpt>
      <trkpt lat="45.458332" lon="6.891638">
        <ele>2389.445</ele>
        <time>2018-07-17T09:41:48Z</time>
      </trkpt>
      <trkpt lat="45.458366" lon="6.891681">
        <ele>2387.916</ele>
        <time>2018-07-17T09:41:55Z</time>
      </trkpt>
      <trkpt lat="45.458409" lon="6.891702">
        <ele>2386.676</ele>
        <time>2018-07-17T09:42:04Z</time>
      </trkpt>
      <trkpt lat="45.458448" lon="6.891736">
        <ele>2385.413</ele>
        <time>2018-07-17T09:42:14Z</time>
      </trkpt>
      <trkpt lat="45.458498" lon="6.891757">
        <ele>2383.908</ele>
        <time>2018-07-17T09:42:28Z</time>
      </trkpt>
      <trkpt lat="45.458545" lon="6.891751">
        <ele>2383.863</ele>
        <time>2018-07-17T09:42:33Z</time>
      </trkpt>
      <trkpt lat="45.458590" lon="6.891782">
        <ele>2382.577</ele>
        <time>2018-07-17T09:42:40Z</time>
      </trkpt>
      <trkpt lat="45.458636" lon="6.891793">
        <ele>2380.919</ele>
        <time>2018-07-17T09:42:46Z</time>
      </trkpt>
      <trkpt lat="45.458674" lon="6.891831">
        <ele>2378.855</ele>
        <time>2018-07-17T09:42:54Z</time>
      </trkpt>
      <trkpt lat="45.458721" lon="6.891865">
        <ele>2377.952</ele>
        <time>2018-07-17T09:43:19Z</time>
      </trkpt>
      <trkpt lat="45.458768" lon="6.891880">
        <ele>2376.664</ele>
        <time>2018-07-17T09:43:25Z</time>
      </trkpt>
      <trkpt lat="45.458818" lon="6.891897">
        <ele>2375.424</ele>
        <time>2018-07-17T09:43:31Z</time>
      </trkpt>
      <trkpt lat="45.458866" lon="6.891925">
        <ele>2373.915</ele>
        <time>2018-07-17T09:43:38Z</time>
      </trkpt>
      <trkpt lat="45.458916" lon="6.891940">
        <ele>2372.638</ele>
        <time>2018-07-17T09:43:44Z</time>
      </trkpt>
      <trkpt lat="45.458968" lon="6.891961">
        <ele>2371.470</ele>
        <time>2018-07-17T09:43:50Z</time>
      </trkpt>
      <trkpt lat="45.459012" lon="6.891983">
        <ele>2370.717</ele>
        <time>2018-07-17T09:43:55Z</time>
      </trkpt>
      <trkpt lat="45.459061" lon="6.892008">
        <ele>2369.508</ele>
        <time>2018-07-17T09:44:01Z</time>
      </trkpt>
      <trkpt lat="45.459102" lon="6.892053">
        <ele>2368.435</ele>
        <time>2018-07-17T09:44:07Z</time>
      </trkpt>
      <trkpt lat="45.459145" lon="6.892081">
        <ele>2368.169</ele>
        <time>2018-07-17T09:44:12Z</time>
      </trkpt>
      <trkpt lat="45.459187" lon="6.892107">
        <ele>2367.551</ele>
        <time>2018-07-17T09:44:19Z</time>
      </trkpt>
      <trkpt lat="45.459233" lon="6.892123">
        <ele>2366.477</ele>
        <time>2018-07-17T09:44:26Z</time>
      </trkpt>
      <trkpt lat="45.459271" lon="6.892160">
        <ele>2364.914</ele>
        <time>2018-07-17T09:44:33Z</time>
      </trkpt>
      <trkpt lat="45.459309" lon="6.892208">
        <ele>2364.096</ele>
        <time>2018-07-17T09:44:39Z</time>
      </trkpt>
      <trkpt lat="45.459353" lon="6.892234">
        <ele>2363.166</ele>
        <time>2018-07-17T09:44:44Z</time>
      </trkpt>
      <trkpt lat="45.459394" lon="6.892261">
        <ele>2362.157</ele>
        <time>2018-07-17T09:44:52Z</time>
      </trkpt>
      <trkpt lat="45.459444" lon="6.892295">
        <ele>2361.951</ele>
        <time>2018-07-17T09:44:58Z</time>
      </trkpt>
      <trkpt lat="45.459485" lon="6.892351">
        <ele>2359.401</ele>
        <time>2018-07-17T09:45:06Z</time>
      </trkpt>
      <trkpt lat="45.459531" lon="6.892372">
        <ele>2358.311</ele>
        <time>2018-07-17T09:45:10Z</time>
      </trkpt>
      <trkpt lat="45.459585" lon="6.892385">
        <ele>2357.608</ele>
        <time>2018-07-17T09:45:15Z</time>
      </trkpt>
      <trkpt lat="45.459632" lon="6.892396">
        <ele>2357.297</ele>
        <time>2018-07-17T09:45:19Z</time>
      </trkpt>
      <trkpt lat="45.459677" lon="6.892425">
        <ele>2356.651</ele>
        <time>2018-07-17T09:45:24Z</time>
      </trkpt>
      <trkpt lat="45.459724" lon="6.892463">
        <ele>2355.833</ele>
        <time>2018-07-17T09:45:29Z</time>
      </trkpt>
      <trkpt lat="45.459773" lon="6.892471">
        <ele>2354.929</ele>
        <time>2018-07-17T09:45:33Z</time>
      </trkpt>
      <trkpt lat="45.459824" lon="6.892464">
        <ele>2353.646</ele>
        <time>2018-07-17T09:45:38Z</time>
      </trkpt>
      <trkpt lat="45.459869" lon="6.892470">
        <ele>2352.098</ele>
        <time>2018-07-17T09:45:43Z</time>
      </trkpt>
      <trkpt lat="45.459912" lon="6.892500">
        <ele>2350.688</ele>
        <time>2018-07-17T09:45:49Z</time>
      </trkpt>
      <trkpt lat="45.459953" lon="6.892537">
        <ele>2350.289</ele>
        <time>2018-07-17T09:45:54Z</time>
      </trkpt>
      <trkpt lat="45.459998" lon="6.892570">
        <ele>2349.261</ele>
        <time>2018-07-17T09:46:01Z</time>
      </trkpt>
      <trkpt lat="45.460046" lon="6.892589">
        <ele>2348.621</ele>
        <time>2018-07-17T09:46:07Z</time>
      </trkpt>
      <trkpt lat="45.460090" lon="6.892608">
        <ele>2347.813</ele>
        <time>2018-07-17T09:46:13Z</time>
      </trkpt>
      <trkpt lat="45.460136" lon="6.892617">
        <ele>2346.108</ele>
        <time>2018-07-17T09:46:21Z</time>
      </trkpt>
      <trkpt lat="45.460183" lon="6.892633">
        <ele>2345.158</ele>
        <time>2018-07-17T09:46:27Z</time>
      </trkpt>
      <trkpt lat="45.460230" lon="6.892643">
        <ele>2344.112</ele>
        <time>2018-07-17T09:46:32Z</time>
      </trkpt>
      <trkpt lat="45.460276" lon="6.892649">
        <ele>2343.194</ele>
        <time>2018-07-17T09:46:38Z</time>
      </trkpt>
      <trkpt lat="45.460323" lon="6.892650">
        <ele>2342.940</ele>
        <time>2018-07-17T09:46:43Z</time>
      </trkpt>
      <trkpt lat="45.460371" lon="6.892654">
        <ele>2343.247</ele>
        <time>2018-07-17T09:46:51Z</time>
      </trkpt>
      <trkpt lat="45.460419" lon="6.892668">
        <ele>2342.649</ele>
        <time>2018-07-17T09:46:57Z</time>
      </trkpt>
      <trkpt lat="45.460470" lon="6.892684">
        <ele>2341.819</ele>
        <time>2018-07-17T09:47:03Z</time>
      </trkpt>
      <trkpt lat="45.460512" lon="6.892709">
        <ele>2340.540</ele>
        <time>2018-07-17T09:47:09Z</time>
      </trkpt>
      <trkpt lat="45.460557" lon="6.892719">
        <ele>2338.975</ele>
        <time>2018-07-17T09:47:14Z</time>
      </trkpt>
      <trkpt lat="45.460602" lon="6.892712">
        <ele>2338.028</ele>
        <time>2018-07-17T09:47:19Z</time>
      </trkpt>
      <trkpt lat="45.460648" lon="6.892701">
        <ele>2337.020</ele>
        <time>2018-07-17T09:47:25Z</time>
      </trkpt>
      <trkpt lat="45.460690" lon="6.892736">
        <ele>2336.008</ele>
        <time>2018-07-17T09:47:33Z</time>
      </trkpt>
      <trkpt lat="45.460732" lon="6.892773">
        <ele>2335.479</ele>
        <time>2018-07-17T09:47:41Z</time>
      </trkpt>
      <trkpt lat="45.460777" lon="6.892768">
        <ele>2335.023</ele>
        <time>2018-07-17T09:47:48Z</time>
      </trkpt>
      <trkpt lat="45.460827" lon="6.892772">
        <ele>2334.455</ele>
        <time>2018-07-17T09:47:55Z</time>
      </trkpt>
      <trkpt lat="45.460859" lon="6.892824">
        <ele>2332.431</ele>
        <time>2018-07-17T09:48:04Z</time>
      </trkpt>
      <trkpt lat="45.460900" lon="6.892865">
        <ele>2330.838</ele>
        <time>2018-07-17T09:48:11Z</time>
      </trkpt>
      <trkpt lat="45.460942" lon="6.892906">
        <ele>2329.960</ele>
        <time>2018-07-17T09:48:17Z</time>
      </trkpt>
      <trkpt lat="45.460977" lon="6.892958">
        <ele>2328.170</ele>
        <time>2018-07-17T09:48:24Z</time>
      </trkpt>
      <trkpt lat="45.461015" lon="6.892995">
        <ele>2327.021</ele>
        <time>2018-07-17T09:48:29Z</time>
      </trkpt>
      <trkpt lat="45.461057" lon="6.893028">
        <ele>2326.437</ele>
        <time>2018-07-17T09:48:34Z</time>
      </trkpt>
      <trkpt lat="45.461100" lon="6.893058">
        <ele>2326.049</ele>
        <time>2018-07-17T09:48:38Z</time>
      </trkpt>
      <trkpt lat="45.461133" lon="6.893105">
        <ele>2325.013</ele>
        <time>2018-07-17T09:48:43Z</time>
      </trkpt>
      <trkpt lat="45.461151" lon="6.893174">
        <ele>2324.408</ele>
        <time>2018-07-17T09:48:53Z</time>
      </trkpt>
      <trkpt lat="45.461192" lon="6.893204">
        <ele>2322.835</ele>
        <time>2018-07-17T09:49:04Z</time>
      </trkpt>
      <trkpt lat="45.461237" lon="6.893236">
        <ele>2321.599</ele>
        <time>2018-07-17T09:49:11Z</time>
      </trkpt>
      <trkpt lat="45.461283" lon="6.893239">
        <ele>2320.311</ele>
        <time>2018-07-17T09:49:17Z</time>
      </trkpt>
      <trkpt lat="45.461332" lon="6.893247">
        <ele>2319.667</ele>
        <time>2018-07-17T09:49:22Z</time>
      </trkpt>
      <trkpt lat="45.461380" lon="6.893247">
        <ele>2318.864</ele>
        <time>2018-07-17T09:49:26Z</time>
      </trkpt>
      <trkpt lat="45.461435" lon="6.893242">
        <ele>2318.396</ele>
        <time>2018-07-17T09:49:30Z</time>
      </trkpt>
      <trkpt lat="45.461488" lon="6.893254">
        <ele>2318.036</ele>
        <time>2018-07-17T09:49:34Z</time>
      </trkpt>
      <trkpt lat="45.461535" lon="6.893285">
        <ele>2316.647</ele>
        <time>2018-07-17T09:49:40Z</time>
      </trkpt>
      <trkpt lat="45.461587" lon="6.893310">
        <ele>2315.426</ele>
        <time>2018-07-17T09:49:45Z</time>
      </trkpt>
      <trkpt lat="45.461643" lon="6.893307">
        <ele>2314.747</ele>
        <time>2018-07-17T09:49:50Z</time>
      </trkpt>
      <trkpt lat="45.461687" lon="6.893294">
        <ele>2313.511</ele>
        <time>2018-07-17T09:49:55Z</time>
      </trkpt>
      <trkpt lat="45.461740" lon="6.893298">
        <ele>2312.808</ele>
        <time>2018-07-17T09:50:01Z</time>
      </trkpt>
      <trkpt lat="45.461790" lon="6.893306">
        <ele>2312.094</ele>
        <time>2018-07-17T09:50:07Z</time>
      </trkpt>
      <trkpt lat="45.461837" lon="6.893296">
        <ele>2310.748</ele>
        <time>2018-07-17T09:50:14Z</time>
      </trkpt>
      <trkpt lat="45.461883" lon="6.893291">
        <ele>2308.780</ele>
        <time>2018-07-17T09:50:23Z</time>
      </trkpt>
      <trkpt lat="45.461930" lon="6.893271">
        <ele>2307.926</ele>
        <time>2018-07-17T09:50:29Z</time>
      </trkpt>
      <trkpt lat="45.461979" lon="6.893247">
        <ele>2307.063</ele>
        <time>2018-07-17T09:50:35Z</time>
      </trkpt>
      <trkpt lat="45.462027" lon="6.893231">
        <ele>2306.165</ele>
        <time>2018-07-17T09:50:41Z</time>
      </trkpt>
      <trkpt lat="45.462074" lon="6.893231">
        <ele>2304.715</ele>
        <time>2018-07-17T09:50:46Z</time>
      </trkpt>
      <trkpt lat="45.462123" lon="6.893236">
        <ele>2304.776</ele>
        <time>2018-07-17T09:50:52Z</time>
      </trkpt>
      <trkpt lat="45.462172" lon="6.893234">
        <ele>2305.529</ele>
        <time>2018-07-17T09:50:57Z</time>
      </trkpt>
      <trkpt lat="45.462217" lon="6.893224">
        <ele>2305.200</ele>
        <time>2018-07-17T09:51:01Z</time>
      </trkpt>
      <trkpt lat="45.462267" lon="6.893226">
        <ele>2305.820</ele>
        <time>2018-07-17T09:51:05Z</time>
      </trkpt>
      <trkpt lat="45.462320" lon="6.893232">
        <ele>2305.808</ele>
        <time>2018-07-17T09:51:10Z</time>
      </trkpt>
      <trkpt lat="45.462369" lon="6.893251">
        <ele>2305.414</ele>
        <time>2018-07-17T09:51:15Z</time>
      </trkpt>
      <trkpt lat="45.462414" lon="6.893279">
        <ele>2304.798</ele>
        <time>2018-07-17T09:51:20Z</time>
      </trkpt>
      <trkpt lat="45.462462" lon="6.893299">
        <ele>2303.970</ele>
        <time>2018-07-17T09:51:25Z</time>
      </trkpt>
      <trkpt lat="45.462509" lon="6.893323">
        <ele>2303.866</ele>
        <time>2018-07-17T09:51:30Z</time>
      </trkpt>
      <trkpt lat="45.462551" lon="6.893357">
        <ele>2302.223</ele>
        <time>2018-07-17T09:51:35Z</time>
      </trkpt>
      <trkpt lat="45.462588" lon="6.893401">
        <ele>2301.275</ele>
        <time>2018-07-17T09:51:40Z</time>
      </trkpt>
      <trkpt lat="45.462637" lon="6.893426">
        <ele>2299.815</ele>
        <time>2018-07-17T09:51:46Z</time>
      </trkpt>
      <trkpt lat="45.462689" lon="6.893431">
        <ele>2299.076</ele>
        <time>2018-07-17T09:51:51Z</time>
      </trkpt>
      <trkpt lat="45.462738" lon="6.893438">
        <ele>2299.343</ele>
        <time>2018-07-17T09:51:58Z</time>
      </trkpt>
      <trkpt lat="45.462783" lon="6.893466">
        <ele>2298.764</ele>
        <time>2018-07-17T09:52:05Z</time>
      </trkpt>
      <trkpt lat="45.462822" lon="6.893503">
        <ele>2297.510</ele>
        <time>2018-07-17T09:52:12Z</time>
      </trkpt>
      <trkpt lat="45.462863" lon="6.893529">
        <ele>2295.608</ele>
        <time>2018-07-17T09:52:19Z</time>
      </trkpt>
      <trkpt lat="45.462912" lon="6.893512">
        <ele>2294.946</ele>
        <time>2018-07-17T09:52:26Z</time>
      </trkpt>
      <trkpt lat="45.462957" lon="6.893494">
        <ele>2293.320</ele>
        <time>2018-07-17T09:52:35Z</time>
      </trkpt>
      <trkpt lat="45.463002" lon="6.893479">
        <ele>2291.582</ele>
        <time>2018-07-17T09:52:45Z</time>
      </trkpt>
      <trkpt lat="45.463051" lon="6.893487">
        <ele>2290.468</ele>
        <time>2018-07-17T09:52:56Z</time>
      </trkpt>
      <trkpt lat="45.463097" lon="6.893467">
        <ele>2293.095</ele>
        <time>2018-07-17T09:53:05Z</time>
      </trkpt>
      <trkpt lat="45.463136" lon="6.893425">
        <ele>2291.777</ele>
        <time>2018-07-17T09:53:13Z</time>
      </trkpt>
      <trkpt lat="45.463177" lon="6.893392">
        <ele>2289.337</ele>
        <time>2018-07-17T09:53:23Z</time>
      </trkpt>
      <trkpt lat="45.463222" lon="6.893373">
        <ele>2287.968</ele>
        <time>2018-07-17T09:53:35Z</time>
      </trkpt>
      <trkpt lat="45.463266" lon="6.893352">
        <ele>2287.981</ele>
        <time>2018-07-17T09:53:43Z</time>
      </trkpt>
      <trkpt lat="45.463310" lon="6.893376">
        <ele>2285.961</ele>
        <time>2018-07-17T09:53:52Z</time>
      </trkpt>
      <trkpt lat="45.463313" lon="6.893440">
        <ele>2284.717</ele>
        <time>2018-07-17T09:53:58Z</time>
      </trkpt>
      <trkpt lat="45.463299" lon="6.893506">
        <ele>2283.608</ele>
        <time>2018-07-17T09:54:05Z</time>
      </trkpt>
      <trkpt lat="45.463280" lon="6.893566">
        <ele>2283.340</ele>
        <time>2018-07-17T09:54:12Z</time>
      </trkpt>
      <trkpt lat="45.463252" lon="6.893617">
        <ele>2281.984</ele>
        <time>2018-07-17T09:54:19Z</time>
      </trkpt>
      <trkpt lat="45.463232" lon="6.893681">
        <ele>2281.116</ele>
        <time>2018-07-17T09:54:25Z</time>
      </trkpt>
      <trkpt lat="45.463239" lon="6.893745">
        <ele>2280.232</ele>
        <time>2018-07-17T09:54:38Z</time>
      </trkpt>
      <trkpt lat="45.463239" lon="6.893810">
        <ele>2279.779</ele>
        <time>2018-07-17T09:54:44Z</time>
      </trkpt>
      <trkpt lat="45.463219" lon="6.893873">
        <ele>2279.031</ele>
        <time>2018-07-17T09:54:50Z</time>
      </trkpt>
      <trkpt lat="45.463223" lon="6.893938">
        <ele>2278.681</ele>
        <time>2018-07-17T09:54:56Z</time>
      </trkpt>
      <trkpt lat="45.463246" lon="6.894001">
        <ele>2278.332</ele>
        <time>2018-07-17T09:55:04Z</time>
      </trkpt>
      <trkpt lat="45.463262" lon="6.894067">
        <ele>2278.197</ele>
        <time>2018-07-17T09:55:19Z</time>
      </trkpt>
      <trkpt lat="45.463234" lon="6.894129">
        <ele>2277.223</ele>
        <time>2018-07-17T09:55:30Z</time>
      </trkpt>
      <trkpt lat="45.463196" lon="6.894172">
        <ele>2275.525</ele>
        <time>2018-07-17T09:55:41Z</time>
      </trkpt>
      <trkpt lat="45.463163" lon="6.894218">
        <ele>2274.108</ele>
        <time>2018-07-17T09:55:50Z</time>
      </trkpt>
      <trkpt lat="45.463121" lon="6.894256">
        <ele>2272.421</ele>
        <time>2018-07-17T09:55:57Z</time>
      </trkpt>
      <trkpt lat="45.463085" lon="6.894296">
        <ele>2271.015</ele>
        <time>2018-07-17T09:56:04Z</time>
      </trkpt>
      <trkpt lat="45.463039" lon="6.894322">
        <ele>2270.617</ele>
        <time>2018-07-17T09:56:11Z</time>
      </trkpt>
      <trkpt lat="45.462994" lon="6.894348">
        <ele>2270.343</ele>
        <time>2018-07-17T09:56:20Z</time>
      </trkpt>
      <trkpt lat="45.462966" lon="6.894408">
        <ele>2268.570</ele>
        <time>2018-07-17T09:56:51Z</time>
      </trkpt>
      <trkpt lat="45.462951" lon="6.894469">
        <ele>2267.072</ele>
        <time>2018-07-17T09:56:57Z</time>
      </trkpt>
      <trkpt lat="45.462921" lon="6.894518">
        <ele>2266.532</ele>
        <time>2018-07-17T09:57:07Z</time>
      </trkpt>
      <trkpt lat="45.462889" lon="6.894571">
        <ele>2266.213</ele>
        <time>2018-07-17T09:57:18Z</time>
      </trkpt>
      <trkpt lat="45.462870" lon="6.894637">
        <ele>2265.219</ele>
        <time>2018-07-17T09:57:29Z</time>
      </trkpt>
      <trkpt lat="45.462829" lon="6.894674">
        <ele>2263.809</ele>
        <time>2018-07-17T09:57:36Z</time>
      </trkpt>
      <trkpt lat="45.462781" lon="6.894689">
        <ele>2263.019</ele>
        <time>2018-07-17T09:57:47Z</time>
      </trkpt>
      <trkpt lat="45.462732" lon="6.894719">
        <ele>2262.108</ele>
        <time>2018-07-17T09:57:53Z</time>
      </trkpt>
      <trkpt lat="45.462693" lon="6.894769">
        <ele>2261.623</ele>
        <time>2018-07-17T09:57:59Z</time>
      </trkpt>
      <trkpt lat="45.462652" lon="6.894809">
        <ele>2260.997</ele>
        <time>2018-07-17T09:58:04Z</time>
      </trkpt>
      <trkpt lat="45.462605" lon="6.894838">
        <ele>2260.929</ele>
        <time>2018-07-17T09:58:09Z</time>
      </trkpt>
      <trkpt lat="45.462564" lon="6.894889">
        <ele>2260.985</ele>
        <time>2018-07-17T09:58:14Z</time>
      </trkpt>
      <trkpt lat="45.462520" lon="6.894922">
        <ele>2260.582</ele>
        <time>2018-07-17T09:58:19Z</time>
      </trkpt>
      <trkpt lat="45.462474" lon="6.894961">
        <ele>2259.944</ele>
        <time>2018-07-17T09:58:25Z</time>
      </trkpt>
      <trkpt lat="45.462441" lon="6.895008">
        <ele>2259.954</ele>
        <time>2018-07-17T09:58:30Z</time>
      </trkpt>
      <trkpt lat="45.462404" lon="6.895054">
        <ele>2259.595</ele>
        <time>2018-07-17T09:58:38Z</time>
      </trkpt>
      <trkpt lat="45.462379" lon="6.895110">
        <ele>2259.715</ele>
        <time>2018-07-17T09:58:46Z</time>
      </trkpt>
      <trkpt lat="45.462339" lon="6.895150">
        <ele>2260.265</ele>
        <time>2018-07-17T09:58:53Z</time>
      </trkpt>
      <trkpt lat="45.462307" lon="6.895202">
        <ele>2260.511</ele>
        <time>2018-07-17T09:59:01Z</time>
      </trkpt>
      <trkpt lat="45.462295" lon="6.895270">
        <ele>2256.508</ele>
        <time>2018-07-17T09:59:33Z</time>
      </trkpt>
      <trkpt lat="45.462334" lon="6.895317">
        <ele>2252.763</ele>
        <time>2018-07-17T09:59:41Z</time>
      </trkpt>
      <trkpt lat="45.462384" lon="6.895317">
        <ele>2250.447</ele>
        <time>2018-07-17T09:59:46Z</time>
      </trkpt>
      <trkpt lat="45.462432" lon="6.895310">
        <ele>2247.879</ele>
        <time>2018-07-17T09:59:51Z</time>
      </trkpt>
      <trkpt lat="45.462478" lon="6.895302">
        <ele>2245.955</ele>
        <time>2018-07-17T09:59:56Z</time>
      </trkpt>
      <trkpt lat="45.462531" lon="6.895322">
        <ele>2243.992</ele>
        <time>2018-07-17T10:00:02Z</time>
      </trkpt>
      <trkpt lat="45.462570" lon="6.895369">
        <ele>2242.764</ele>
        <time>2018-07-17T10:00:08Z</time>
      </trkpt>
      <trkpt lat="45.462592" lon="6.895427">
        <ele>2242.044</ele>
        <time>2018-07-17T10:00:13Z</time>
      </trkpt>
      <trkpt lat="45.462596" lon="6.895503">
        <ele>2241.285</ele>
        <time>2018-07-17T10:00:18Z</time>
      </trkpt>
      <trkpt lat="45.462573" lon="6.895560">
        <ele>2239.521</ele>
        <time>2018-07-17T10:00:28Z</time>
      </trkpt>
      <trkpt lat="45.462567" lon="6.895633">
        <ele>2238.541</ele>
        <time>2018-07-17T10:00:33Z</time>
      </trkpt>
      <trkpt lat="45.462586" lon="6.895709">
        <ele>2238.305</ele>
        <time>2018-07-17T10:00:38Z</time>
      </trkpt>
      <trkpt lat="45.462611" lon="6.895766">
        <ele>2237.408</ele>
        <time>2018-07-17T10:00:43Z</time>
      </trkpt>
      <trkpt lat="45.462616" lon="6.895834">
        <ele>2238.014</ele>
        <time>2018-07-17T10:00:49Z</time>
      </trkpt>
      <trkpt lat="45.462640" lon="6.895897">
        <ele>2238.848</ele>
        <time>2018-07-17T10:00:54Z</time>
      </trkpt>
      <trkpt lat="45.462670" lon="6.895947">
        <ele>2239.720</ele>
        <time>2018-07-17T10:01:00Z</time>
      </trkpt>
      <trkpt lat="45.462708" lon="6.895981">
        <ele>2239.876</ele>
        <time>2018-07-17T10:01:10Z</time>
      </trkpt>
      <trkpt lat="45.462753" lon="6.895988">
        <ele>2239.593</ele>
        <time>2018-07-17T10:01:18Z</time>
      </trkpt>
      <trkpt lat="45.462800" lon="6.895996">
        <ele>2238.985</ele>
        <time>2018-07-17T10:01:24Z</time>
      </trkpt>
      <trkpt lat="45.462848" lon="6.896012">
        <ele>2237.385</ele>
        <time>2018-07-17T10:01:30Z</time>
      </trkpt>
      <trkpt lat="45.462898" lon="6.896031">
        <ele>2236.866</ele>
        <time>2018-07-17T10:01:37Z</time>
      </trkpt>
      <trkpt lat="45.462937" lon="6.896071">
        <ele>2235.736</ele>
        <time>2018-07-17T10:01:43Z</time>
      </trkpt>
      <trkpt lat="45.462981" lon="6.896089">
        <ele>2235.417</ele>
        <time>2018-07-17T10:01:48Z</time>
      </trkpt>
      <trkpt lat="45.463024" lon="6.896127">
        <ele>2235.218</ele>
        <time>2018-07-17T10:01:53Z</time>
      </trkpt>
      <trkpt lat="45.463065" lon="6.896159">
        <ele>2233.908</ele>
        <time>2018-07-17T10:01:58Z</time>
      </trkpt>
      <trkpt lat="45.463101" lon="6.896209">
        <ele>2233.115</ele>
        <time>2018-07-17T10:02:05Z</time>
      </trkpt>
      <trkpt lat="45.463128" lon="6.896260">
        <ele>2232.639</ele>
        <time>2018-07-17T10:02:10Z</time>
      </trkpt>
      <trkpt lat="45.463174" lon="6.896295">
        <ele>2232.791</ele>
        <time>2018-07-17T10:02:15Z</time>
      </trkpt>
      <trkpt lat="45.463225" lon="6.896312">
        <ele>2232.027</ele>
        <time>2018-07-17T10:02:20Z</time>
      </trkpt>
      <trkpt lat="45.463272" lon="6.896322">
        <ele>2232.464</ele>
        <time>2018-07-17T10:02:24Z</time>
      </trkpt>
      <trkpt lat="45.463324" lon="6.896338">
        <ele>2233.086</ele>
        <time>2018-07-17T10:02:29Z</time>
      </trkpt>
      <trkpt lat="45.463372" lon="6.896367">
        <ele>2233.026</ele>
        <time>2018-07-17T10:02:34Z</time>
      </trkpt>
      <trkpt lat="45.463416" lon="6.896404">
        <ele>2233.097</ele>
        <time>2018-07-17T10:02:40Z</time>
      </trkpt>
      <trkpt lat="45.463456" lon="6.896448">
        <ele>2231.815</ele>
        <time>2018-07-17T10:02:48Z</time>
      </trkpt>
      <trkpt lat="45.463499" lon="6.896477">
        <ele>2230.365</ele>
        <time>2018-07-17T10:02:54Z</time>
      </trkpt>
      <trkpt lat="45.463540" lon="6.896512">
        <ele>2230.211</ele>
        <time>2018-07-17T10:03:00Z</time>
      </trkpt>
      <trkpt lat="45.463588" lon="6.896542">
        <ele>2229.308</ele>
        <time>2018-07-17T10:03:06Z</time>
      </trkpt>
      <trkpt lat="45.463638" lon="6.896566">
        <ele>2228.823</ele>
        <time>2018-07-17T10:03:12Z</time>
      </trkpt>
      <trkpt lat="45.463677" lon="6.896609">
        <ele>2228.597</ele>
        <time>2018-07-17T10:03:18Z</time>
      </trkpt>
      <trkpt lat="45.463717" lon="6.896654">
        <ele>2228.349</ele>
        <time>2018-07-17T10:03:23Z</time>
      </trkpt>
      <trkpt lat="45.463758" lon="6.896693">
        <ele>2227.875</ele>
        <time>2018-07-17T10:03:28Z</time>
      </trkpt>
      <trkpt lat="45.463803" lon="6.896730">
        <ele>2227.982</ele>
        <time>2018-07-17T10:03:33Z</time>
      </trkpt>
      <trkpt lat="45.463847" lon="6.896755">
        <ele>2228.064</ele>
        <time>2018-07-17T10:03:37Z</time>
      </trkpt>
      <trkpt lat="45.463880" lon="6.896808">
        <ele>2227.214</ele>
        <time>2018-07-17T10:03:42Z</time>
      </trkpt>
      <trkpt lat="45.463911" lon="6.896865">
        <ele>2226.395</ele>
        <time>2018-07-17T10:03:47Z</time>
      </trkpt>
      <trkpt lat="45.463950" lon="6.896908">
        <ele>2225.086</ele>
        <time>2018-07-17T10:03:54Z</time>
      </trkpt>
      <trkpt lat="45.463999" lon="6.896946">
        <ele>2224.660</ele>
        <time>2018-07-17T10:04:02Z</time>
      </trkpt>
      <trkpt lat="45.464038" lon="6.896981">
        <ele>2224.426</ele>
        <time>2018-07-17T10:04:07Z</time>
      </trkpt>
      <trkpt lat="45.464083" lon="6.897004">
        <ele>2223.508</ele>
        <time>2018-07-17T10:04:12Z</time>
      </trkpt>
      <trkpt lat="45.464128" lon="6.897022">
        <ele>2222.950</ele>
        <time>2018-07-17T10:04:17Z</time>
      </trkpt>
      <trkpt lat="45.464173" lon="6.897032">
        <ele>2222.294</ele>
        <time>2018-07-17T10:04:21Z</time>
      </trkpt>
      <trkpt lat="45.464228" lon="6.897041">
        <ele>2221.846</ele>
        <time>2018-07-17T10:04:26Z</time>
      </trkpt>
      <trkpt lat="45.464273" lon="6.897053">
        <ele>2221.182</ele>
        <time>2018-07-17T10:04:30Z</time>
      </trkpt>
      <trkpt lat="45.464307" lon="6.897096">
        <ele>2219.989</ele>
        <time>2018-07-17T10:04:35Z</time>
      </trkpt>
      <trkpt lat="45.464341" lon="6.897142">
        <ele>2219.661</ele>
        <time>2018-07-17T10:04:42Z</time>
      </trkpt>
      <trkpt lat="45.464381" lon="6.897174">
        <ele>2217.051</ele>
        <time>2018-07-17T10:04:52Z</time>
      </trkpt>
      <trkpt lat="45.464428" lon="6.897191">
        <ele>2215.882</ele>
        <time>2018-07-17T10:04:58Z</time>
      </trkpt>
      <trkpt lat="45.464472" lon="6.897222">
        <ele>2214.791</ele>
        <time>2018-07-17T10:05:08Z</time>
      </trkpt>
      <trkpt lat="45.464521" lon="6.897227">
        <ele>2212.881</ele>
        <time>2018-07-17T10:05:14Z</time>
      </trkpt>
      <trkpt lat="45.464560" lon="6.897263">
        <ele>2210.519</ele>
        <time>2018-07-17T10:05:21Z</time>
      </trkpt>
      <trkpt lat="45.464601" lon="6.897299">
        <ele>2209.508</ele>
        <time>2018-07-17T10:05:29Z</time>
      </trkpt>
      <trkpt lat="45.464633" lon="6.897345">
        <ele>2207.391</ele>
        <time>2018-07-17T10:05:37Z</time>
      </trkpt>
      <trkpt lat="45.464674" lon="6.897387">
        <ele>2205.655</ele>
        <time>2018-07-17T10:05:46Z</time>
      </trkpt>
      <trkpt lat="45.464718" lon="6.897411">
        <ele>2204.697</ele>
        <time>2018-07-17T10:05:55Z</time>
      </trkpt>
      <trkpt lat="45.464739" lon="6.897470">
        <ele>2204.093</ele>
        <time>2018-07-17T10:06:01Z</time>
      </trkpt>
      <trkpt lat="45.464789" lon="6.897485">
        <ele>2202.810</ele>
        <time>2018-07-17T10:06:08Z</time>
      </trkpt>
      <trkpt lat="45.464839" lon="6.897511">
        <ele>2201.712</ele>
        <time>2018-07-17T10:06:14Z</time>
      </trkpt>
      <trkpt lat="45.464884" lon="6.897522">
        <ele>2200.612</ele>
        <time>2018-07-17T10:06:18Z</time>
      </trkpt>
      <trkpt lat="45.464926" lon="6.897549">
        <ele>2199.693</ele>
        <time>2018-07-17T10:06:23Z</time>
      </trkpt>
      <trkpt lat="45.464971" lon="6.897570">
        <ele>2199.035</ele>
        <time>2018-07-17T10:06:29Z</time>
      </trkpt>
      <trkpt lat="45.465014" lon="6.897595">
        <ele>2199.086</ele>
        <time>2018-07-17T10:06:47Z</time>
      </trkpt>
      <trkpt lat="45.465037" lon="6.897651">
        <ele>2198.614</ele>
        <time>2018-07-17T10:06:53Z</time>
      </trkpt>
      <trkpt lat="45.465069" lon="6.897701">
        <ele>2199.608</ele>
        <time>2018-07-17T10:07:23Z</time>
      </trkpt>
      <trkpt lat="45.465116" lon="6.897705">
        <ele>2199.885</ele>
        <time>2018-07-17T10:07:31Z</time>
      </trkpt>
      <trkpt lat="45.465081" lon="6.897749">
        <ele>2198.729</ele>
        <time>2018-07-17T10:07:42Z</time>
      </trkpt>
      <trkpt lat="45.465040" lon="6.897785">
        <ele>2197.651</ele>
        <time>2018-07-17T10:07:49Z</time>
      </trkpt>
      <trkpt lat="45.465065" lon="6.897839">
        <ele>2197.467</ele>
        <time>2018-07-17T10:08:01Z</time>
      </trkpt>
      <trkpt lat="45.465108" lon="6.897871">
        <ele>2196.564</ele>
        <time>2018-07-17T10:08:10Z</time>
      </trkpt>
      <trkpt lat="45.465152" lon="6.897891">
        <ele>2195.566</ele>
        <time>2018-07-17T10:08:16Z</time>
      </trkpt>
      <trkpt lat="45.465200" lon="6.897906">
        <ele>2194.186</ele>
        <time>2018-07-17T10:08:22Z</time>
      </trkpt>
      <trkpt lat="45.465247" lon="6.897933">
        <ele>2192.557</ele>
        <time>2018-07-17T10:08:29Z</time>
      </trkpt>
      <trkpt lat="45.465293" lon="6.897941">
        <ele>2191.132</ele>
        <time>2018-07-17T10:08:33Z</time>
      </trkpt>
      <trkpt lat="45.465340" lon="6.897961">
        <ele>2190.392</ele>
        <time>2018-07-17T10:08:38Z</time>
      </trkpt>
      <trkpt lat="45.465386" lon="6.897990">
        <ele>2189.011</ele>
        <time>2018-07-17T10:08:44Z</time>
      </trkpt>
      <trkpt lat="45.465423" lon="6.898029">
        <ele>2188.608</ele>
        <time>2018-07-17T10:08:50Z</time>
      </trkpt>
      <trkpt lat="45.465468" lon="6.898061">
        <ele>2188.025</ele>
        <time>2018-07-17T10:08:56Z</time>
      </trkpt>
      <trkpt lat="45.465511" lon="6.898086">
        <ele>2186.889</ele>
        <time>2018-07-17T10:09:00Z</time>
      </trkpt>
      <trkpt lat="45.465554" lon="6.898119">
        <ele>2185.741</ele>
        <time>2018-07-17T10:09:06Z</time>
      </trkpt>
      <trkpt lat="45.465599" lon="6.898154">
        <ele>2184.697</ele>
        <time>2018-07-17T10:09:12Z</time>
      </trkpt>
      <trkpt lat="45.465645" lon="6.898178">
        <ele>2184.084</ele>
        <time>2018-07-17T10:09:17Z</time>
      </trkpt>
      <trkpt lat="45.465690" lon="6.898189">
        <ele>2182.496</ele>
        <time>2018-07-17T10:09:22Z</time>
      </trkpt>
      <trkpt lat="45.465741" lon="6.898188">
        <ele>2180.776</ele>
        <time>2018-07-17T10:09:29Z</time>
      </trkpt>
      <trkpt lat="45.465789" lon="6.898199">
        <ele>2177.327</ele>
        <time>2018-07-17T10:09:37Z</time>
      </trkpt>
      <trkpt lat="45.465839" lon="6.898230">
        <ele>2175.689</ele>
        <time>2018-07-17T10:09:43Z</time>
      </trkpt>
      <trkpt lat="45.465868" lon="6.898283">
        <ele>2175.006</ele>
        <time>2018-07-17T10:09:49Z</time>
      </trkpt>
      <trkpt lat="45.465891" lon="6.898346">
        <ele>2174.226</ele>
        <time>2018-07-17T10:09:56Z</time>
      </trkpt>
      <trkpt lat="45.465923" lon="6.898401">
        <ele>2172.508</ele>
        <time>2018-07-17T10:10:06Z</time>
      </trkpt>
      <trkpt lat="45.465963" lon="6.898443">
        <ele>2171.160</ele>
        <time>2018-07-17T10:10:12Z</time>
      </trkpt>
      <trkpt lat="45.465982" lon="6.898509">
        <ele>2170.314</ele>
        <time>2018-07-17T10:10:20Z</time>
      </trkpt>
      <trkpt lat="45.466009" lon="6.898564">
        <ele>2168.646</ele>
        <time>2018-07-17T10:10:31Z</time>
      </trkpt>
      <trkpt lat="45.466018" lon="6.898628">
        <ele>2168.072</ele>
        <time>2018-07-17T10:10:40Z</time>
      </trkpt>
      <trkpt lat="45.465988" lon="6.898683">
        <ele>2166.889</ele>
        <time>2018-07-17T10:10:48Z</time>
      </trkpt>
      <trkpt lat="45.465945" lon="6.898717">
        <ele>2165.791</ele>
        <time>2018-07-17T10:10:54Z</time>
      </trkpt>
      <trkpt lat="45.465973" lon="6.898772">
        <ele>2163.821</ele>
        <time>2018-07-17T10:11:06Z</time>
      </trkpt>
      <trkpt lat="45.466014" lon="6.898814">
        <ele>2161.952</ele>
        <time>2018-07-17T10:11:15Z</time>
      </trkpt>
      <trkpt lat="45.466046" lon="6.898870">
        <ele>2159.931</ele>
        <time>2018-07-17T10:11:23Z</time>
      </trkpt>
      <trkpt lat="45.466084" lon="6.898912">
        <ele>2157.961</ele>
        <time>2018-07-17T10:11:31Z</time>
      </trkpt>
      <trkpt lat="45.466077" lon="6.898978">
        <ele>2156.307</ele>
        <time>2018-07-17T10:11:39Z</time>
      </trkpt>
      <trkpt lat="45.466050" lon="6.899032">
        <ele>2155.008</ele>
        <time>2018-07-17T10:11:46Z</time>
      </trkpt>
      <trkpt lat="45.466062" lon="6.899094">
        <ele>2153.475</ele>
        <time>2018-07-17T10:12:00Z</time>
      </trkpt>
      <trkpt lat="45.466083" lon="6.899158">
        <ele>2152.439</ele>
        <time>2018-07-17T10:12:05Z</time>
      </trkpt>
      <trkpt lat="45.466105" lon="6.899230">
        <ele>2151.841</ele>
        <time>2018-07-17T10:12:10Z</time>
      </trkpt>
      <trkpt lat="45.466123" lon="6.899294">
        <ele>2151.997</ele>
        <time>2018-07-17T10:12:14Z</time>
      </trkpt>
      <trkpt lat="45.466135" lon="6.899361">
        <ele>2151.534</ele>
        <time>2018-07-17T10:12:19Z</time>
      </trkpt>
      <trkpt lat="45.466147" lon="6.899429">
        <ele>2151.356</ele>
        <time>2018-07-17T10:12:24Z</time>
      </trkpt>
      <trkpt lat="45.466159" lon="6.899491">
        <ele>2150.456</ele>
        <time>2018-07-17T10:12:36Z</time>
      </trkpt>
      <trkpt lat="45.466165" lon="6.899559">
        <ele>2149.447</ele>
        <time>2018-07-17T10:12:44Z</time>
      </trkpt>
      <trkpt lat="45.466160" lon="6.899623">
        <ele>2148.055</ele>
        <time>2018-07-17T10:12:51Z</time>
      </trkpt>
      <trkpt lat="45.466140" lon="6.899689">
        <ele>2146.807</ele>
        <time>2018-07-17T10:13:15Z</time>
      </trkpt>
      <trkpt lat="45.466179" lon="6.899735">
        <ele>2146.917</ele>
        <time>2018-07-17T10:14:13Z</time>
      </trkpt>
      <trkpt lat="45.466172" lon="6.899804">
        <ele>2144.908</ele>
        <time>2018-07-17T10:14:36Z</time>
      </trkpt>
      <trkpt lat="45.466168" lon="6.899879">
        <ele>2143.767</ele>
        <time>2018-07-17T10:14:41Z</time>
      </trkpt>
      <trkpt lat="45.466153" lon="6.899951">
        <ele>2143.051</ele>
        <time>2018-07-17T10:14:46Z</time>
      </trkpt>
      <trkpt lat="45.466151" lon="6.900028">
        <ele>2142.273</ele>
        <time>2018-07-17T10:14:52Z</time>
      </trkpt>
      <trkpt lat="45.466152" lon="6.900100">
        <ele>2141.779</ele>
        <time>2018-07-17T10:14:57Z</time>
      </trkpt>
      <trkpt lat="45.466118" lon="6.900148">
        <ele>2140.616</ele>
        <time>2018-07-17T10:15:02Z</time>
      </trkpt>
      <trkpt lat="45.466069" lon="6.900185">
        <ele>2139.918</ele>
        <time>2018-07-17T10:15:07Z</time>
      </trkpt>
      <trkpt lat="45.466026" lon="6.900215">
        <ele>2140.398</ele>
        <time>2018-07-17T10:15:14Z</time>
      </trkpt>
      <trkpt lat="45.465990" lon="6.900278">
        <ele>2140.599</ele>
        <time>2018-07-17T10:15:20Z</time>
      </trkpt>
      <trkpt lat="45.465977" lon="6.900342">
        <ele>2140.637</ele>
        <time>2018-07-17T10:15:31Z</time>
      </trkpt>
      <trkpt lat="45.465948" lon="6.900408">
        <ele>2140.749</ele>
        <time>2018-07-17T10:15:43Z</time>
      </trkpt>
      <trkpt lat="45.465978" lon="6.900460">
        <ele>2140.813</ele>
        <time>2018-07-17T10:16:04Z</time>
      </trkpt>
      <trkpt lat="45.466014" lon="6.900516">
        <ele>2141.208</ele>
        <time>2018-07-17T10:16:09Z</time>
      </trkpt>
      <trkpt lat="45.466043" lon="6.900575">
        <ele>2141.515</ele>
        <time>2018-07-17T10:16:14Z</time>
      </trkpt>
      <trkpt lat="45.466057" lon="6.900639">
        <ele>2141.329</ele>
        <time>2018-07-17T10:16:19Z</time>
      </trkpt>
      <trkpt lat="45.466085" lon="6.900692">
        <ele>2140.821</ele>
        <time>2018-07-17T10:16:24Z</time>
      </trkpt>
      <trkpt lat="45.466106" lon="6.900759">
        <ele>2140.147</ele>
        <time>2018-07-17T10:16:29Z</time>
      </trkpt>
      <trkpt lat="45.466131" lon="6.900820">
        <ele>2139.724</ele>
        <time>2018-07-17T10:16:34Z</time>
      </trkpt>
      <trkpt lat="45.466139" lon="6.900887">
        <ele>2139.046</ele>
        <time>2018-07-17T10:16:48Z</time>
      </trkpt>
      <trkpt lat="45.466174" lon="6.900944">
        <ele>2139.086</ele>
        <time>2018-07-17T10:16:53Z</time>
      </trkpt>
      <trkpt lat="45.466220" lon="6.900988">
        <ele>2139.067</ele>
        <time>2018-07-17T10:16:57Z</time>
      </trkpt>
      <trkpt lat="45.466253" lon="6.901042">
        <ele>2139.465</ele>
        <time>2018-07-17T10:17:01Z</time>
      </trkpt>
      <trkpt lat="45.466278" lon="6.901107">
        <ele>2139.668</ele>
        <time>2018-07-17T10:17:06Z</time>
      </trkpt>
      <trkpt lat="45.466291" lon="6.901178">
        <ele>2140.114</ele>
        <time>2018-07-17T10:17:15Z</time>
      </trkpt>
      <trkpt lat="45.466323" lon="6.901236">
        <ele>2140.408</ele>
        <time>2018-07-17T10:17:20Z</time>
      </trkpt>
      <trkpt lat="45.466357" lon="6.901285">
        <ele>2141.088</ele>
        <time>2018-07-17T10:17:24Z</time>
      </trkpt>
      <trkpt lat="45.466396" lon="6.901323">
        <ele>2141.082</ele>
        <time>2018-07-17T10:17:28Z</time>
      </trkpt>
      <trkpt lat="45.466436" lon="6.901356">
        <ele>2141.474</ele>
        <time>2018-07-17T10:17:32Z</time>
      </trkpt>
      <trkpt lat="45.466479" lon="6.901390">
        <ele>2141.660</ele>
        <time>2018-07-17T10:17:36Z</time>
      </trkpt>
      <trkpt lat="45.466525" lon="6.901415">
        <ele>2141.757</ele>
        <time>2018-07-17T10:17:40Z</time>
      </trkpt>
      <trkpt lat="45.466571" lon="6.901437">
        <ele>2141.079</ele>
        <time>2018-07-17T10:17:44Z</time>
      </trkpt>
      <trkpt lat="45.466615" lon="6.901461">
        <ele>2140.689</ele>
        <time>2018-07-17T10:17:48Z</time>
      </trkpt>
      <trkpt lat="45.466661" lon="6.901485">
        <ele>2140.370</ele>
        <time>2018-07-17T10:17:52Z</time>
      </trkpt>
      <trkpt lat="45.466702" lon="6.901520">
        <ele>2139.732</ele>
        <time>2018-07-17T10:17:56Z</time>
      </trkpt>
      <trkpt lat="45.466722" lon="6.901594">
        <ele>2139.892</ele>
        <time>2018-07-17T10:18:01Z</time>
      </trkpt>
      <trkpt lat="45.466731" lon="6.901669">
        <ele>2139.811</ele>
        <time>2018-07-17T10:18:06Z</time>
      </trkpt>
      <trkpt lat="45.466745" lon="6.901740">
        <ele>2140.208</ele>
        <time>2018-07-17T10:18:18Z</time>
      </trkpt>
      <trkpt lat="45.466768" lon="6.901810">
        <ele>2140.595</ele>
        <time>2018-07-17T10:18:23Z</time>
      </trkpt>
      <trkpt lat="45.466776" lon="6.901875">
        <ele>2140.739</ele>
        <time>2018-07-17T10:18:27Z</time>
      </trkpt>
      <trkpt lat="45.466785" lon="6.901940">
        <ele>2140.851</ele>
        <time>2018-07-17T10:18:31Z</time>
      </trkpt>
      <trkpt lat="45.466795" lon="6.902004">
        <ele>2140.927</ele>
        <time>2018-07-17T10:18:35Z</time>
      </trkpt>
      <trkpt lat="45.466805" lon="6.902073">
        <ele>2141.344</ele>
        <time>2018-07-17T10:18:39Z</time>
      </trkpt>
      <trkpt lat="45.466816" lon="6.902140">
        <ele>2141.636</ele>
        <time>2018-07-17T10:18:43Z</time>
      </trkpt>
      <trkpt lat="45.466832" lon="6.902203">
        <ele>2141.836</ele>
        <time>2018-07-17T10:18:47Z</time>
      </trkpt>
      <trkpt lat="45.466854" lon="6.902262">
        <ele>2141.977</ele>
        <time>2018-07-17T10:18:51Z</time>
      </trkpt>
      <trkpt lat="45.466874" lon="6.902333">
        <ele>2142.452</ele>
        <time>2018-07-17T10:18:56Z</time>
      </trkpt>
      <trkpt lat="45.466887" lon="6.902396">
        <ele>2143.153</ele>
        <time>2018-07-17T10:19:00Z</time>
      </trkpt>
      <trkpt lat="45.466903" lon="6.902457">
        <ele>2143.108</ele>
        <time>2018-07-17T10:19:04Z</time>
      </trkpt>
      <trkpt lat="45.466920" lon="6.902531">
        <ele>2143.108</ele>
        <time>2018-07-17T10:19:09Z</time>
      </trkpt>
      <trkpt lat="45.466934" lon="6.902603">
        <ele>2143.577</ele>
        <time>2018-07-17T10:19:14Z</time>
      </trkpt>
      <trkpt lat="45.466948" lon="6.902677">
        <ele>2144.181</ele>
        <time>2018-07-17T10:19:19Z</time>
      </trkpt>
      <trkpt lat="45.466958" lon="6.902741">
        <ele>2144.573</ele>
        <time>2018-07-17T10:19:23Z</time>
      </trkpt>
      <trkpt lat="45.466966" lon="6.902819">
        <ele>2144.329</ele>
        <time>2018-07-17T10:19:28Z</time>
      </trkpt>
      <trkpt lat="45.466985" lon="6.902891">
        <ele>2144.226</ele>
        <time>2018-07-17T10:19:33Z</time>
      </trkpt>
      <trkpt lat="45.467024" lon="6.902943">
        <ele>2143.798</ele>
        <time>2018-07-17T10:19:38Z</time>
      </trkpt>
      <trkpt lat="45.467064" lon="6.902983">
        <ele>2143.048</ele>
        <time>2018-07-17T10:19:43Z</time>
      </trkpt>
      <trkpt lat="45.467096" lon="6.903042">
        <ele>2142.269</ele>
        <time>2018-07-17T10:19:48Z</time>
      </trkpt>
      <trkpt lat="45.467123" lon="6.903112">
        <ele>2141.339</ele>
        <time>2018-07-17T10:19:53Z</time>
      </trkpt>
      <trkpt lat="45.467133" lon="6.903181">
        <ele>2141.601</ele>
        <time>2018-07-17T10:19:57Z</time>
      </trkpt>
      <trkpt lat="45.467132" lon="6.903249">
        <ele>2141.421</ele>
        <time>2018-07-17T10:20:01Z</time>
      </trkpt>
      <trkpt lat="45.467119" lon="6.903313">
        <ele>2140.908</ele>
        <time>2018-07-17T10:20:06Z</time>
      </trkpt>
      <trkpt lat="45.467109" lon="6.903383">
        <ele>2140.645</ele>
        <time>2018-07-17T10:20:10Z</time>
      </trkpt>
      <trkpt lat="45.467098" lon="6.903452">
        <ele>2140.499</ele>
        <time>2018-07-17T10:20:14Z</time>
      </trkpt>
      <trkpt lat="45.467087" lon="6.903528">
        <ele>2139.981</ele>
        <time>2018-07-17T10:20:19Z</time>
      </trkpt>
      <trkpt lat="45.467085" lon="6.903608">
        <ele>2140.017</ele>
        <time>2018-07-17T10:20:24Z</time>
      </trkpt>
      <trkpt lat="45.467088" lon="6.903677">
        <ele>2140.144</ele>
        <time>2018-07-17T10:20:28Z</time>
      </trkpt>
      <trkpt lat="45.467101" lon="6.903747">
        <ele>2140.176</ele>
        <time>2018-07-17T10:20:32Z</time>
      </trkpt>
      <trkpt lat="45.467118" lon="6.903815">
        <ele>2140.546</ele>
        <time>2018-07-17T10:20:36Z</time>
      </trkpt>
      <trkpt lat="45.467132" lon="6.903881">
        <ele>2141.297</ele>
        <time>2018-07-17T10:20:40Z</time>
      </trkpt>
      <trkpt lat="45.467143" lon="6.903944">
        <ele>2141.654</ele>
        <time>2018-07-17T10:20:44Z</time>
      </trkpt>
      <trkpt lat="45.467158" lon="6.904006">
        <ele>2141.856</ele>
        <time>2018-07-17T10:20:48Z</time>
      </trkpt>
      <trkpt lat="45.467181" lon="6.904065">
        <ele>2141.911</ele>
        <time>2018-07-17T10:20:52Z</time>
      </trkpt>
      <trkpt lat="45.467215" lon="6.904113">
        <ele>2142.408</ele>
        <time>2018-07-17T10:20:56Z</time>
      </trkpt>
      <trkpt lat="45.467254" lon="6.904162">
        <ele>2141.917</ele>
        <time>2018-07-17T10:21:01Z</time>
      </trkpt>
      <trkpt lat="45.467292" lon="6.904200">
        <ele>2142.051</ele>
        <time>2018-07-17T10:21:05Z</time>
      </trkpt>
      <trkpt lat="45.467336" lon="6.904244">
        <ele>2141.763</ele>
        <time>2018-07-17T10:21:10Z</time>
      </trkpt>
      <trkpt lat="45.467380" lon="6.904287">
        <ele>2141.969</ele>
        <time>2018-07-17T10:21:15Z</time>
      </trkpt>
      <trkpt lat="45.467423" lon="6.904328">
        <ele>2142.086</ele>
        <time>2018-07-17T10:21:19Z</time>
      </trkpt>
      <trkpt lat="45.467464" lon="6.904372">
        <ele>2142.568</ele>
        <time>2018-07-17T10:21:23Z</time>
      </trkpt>
      <trkpt lat="45.467506" lon="6.904422">
        <ele>2142.818</ele>
        <time>2018-07-17T10:21:27Z</time>
      </trkpt>
      <trkpt lat="45.467531" lon="6.904480">
        <ele>2142.629</ele>
        <time>2018-07-17T10:21:31Z</time>
      </trkpt>
      <trkpt lat="45.467548" lon="6.904543">
        <ele>2142.545</ele>
        <time>2018-07-17T10:21:35Z</time>
      </trkpt>
      <trkpt lat="45.467565" lon="6.904604">
        <ele>2142.047</ele>
        <time>2018-07-17T10:21:39Z</time>
      </trkpt>
      <trkpt lat="45.467579" lon="6.904672">
        <ele>2141.711</ele>
        <time>2018-07-17T10:21:43Z</time>
      </trkpt>
      <trkpt lat="45.467603" lon="6.904740">
        <ele>2141.908</ele>
        <time>2018-07-17T10:21:47Z</time>
      </trkpt>
      <trkpt lat="45.467619" lon="6.904804">
        <ele>2141.236</ele>
        <time>2018-07-17T10:21:51Z</time>
      </trkpt>
      <trkpt lat="45.467630" lon="6.904866">
        <ele>2140.870</ele>
        <time>2018-07-17T10:21:55Z</time>
      </trkpt>
      <trkpt lat="45.467635" lon="6.904935">
        <ele>2140.292</ele>
        <time>2018-07-17T10:21:59Z</time>
      </trkpt>
      <trkpt lat="45.467639" lon="6.905009">
        <ele>2139.838</ele>
        <time>2018-07-17T10:22:03Z</time>
      </trkpt>
      <trkpt lat="45.467645" lon="6.905082">
        <ele>2139.665</ele>
        <time>2018-07-17T10:22:07Z</time>
      </trkpt>
      <trkpt lat="45.467641" lon="6.905148">
        <ele>2139.157</ele>
        <time>2018-07-17T10:22:11Z</time>
      </trkpt>
      <trkpt lat="45.467611" lon="6.905215">
        <ele>2137.637</ele>
        <time>2018-07-17T10:22:16Z</time>
      </trkpt>
      <trkpt lat="45.467579" lon="6.905267">
        <ele>2135.978</ele>
        <time>2018-07-17T10:22:20Z</time>
      </trkpt>
      <trkpt lat="45.467552" lon="6.905329">
        <ele>2134.595</ele>
        <time>2018-07-17T10:22:24Z</time>
      </trkpt>
      <trkpt lat="45.467533" lon="6.905392">
        <ele>2133.649</ele>
        <time>2018-07-17T10:22:28Z</time>
      </trkpt>
      <trkpt lat="45.467511" lon="6.905464">
        <ele>2132.723</ele>
        <time>2018-07-17T10:22:33Z</time>
      </trkpt>
      <trkpt lat="45.467495" lon="6.905525">
        <ele>2132.208</ele>
        <time>2018-07-17T10:22:37Z</time>
      </trkpt>
      <trkpt lat="45.467482" lon="6.905590">
        <ele>2131.551</ele>
        <time>2018-07-17T10:22:41Z</time>
      </trkpt>
      <trkpt lat="45.467469" lon="6.905652">
        <ele>2131.145</ele>
        <time>2018-07-17T10:22:45Z</time>
      </trkpt>
      <trkpt lat="45.467452" lon="6.905717">
        <ele>2130.497</ele>
        <time>2018-07-17T10:22:49Z</time>
      </trkpt>
      <trkpt lat="45.467435" lon="6.905779">
        <ele>2130.053</ele>
        <time>2018-07-17T10:22:53Z</time>
      </trkpt>
      <trkpt lat="45.467422" lon="6.905841">
        <ele>2129.850</ele>
        <time>2018-07-17T10:22:57Z</time>
      </trkpt>
      <trkpt lat="45.467414" lon="6.905909">
        <ele>2129.772</ele>
        <time>2018-07-17T10:23:01Z</time>
      </trkpt>
      <trkpt lat="45.467409" lon="6.905975">
        <ele>2129.692</ele>
        <time>2018-07-17T10:23:05Z</time>
      </trkpt>
      <trkpt lat="45.467402" lon="6.906041">
        <ele>2129.583</ele>
        <time>2018-07-17T10:23:09Z</time>
      </trkpt>
      <trkpt lat="45.467404" lon="6.906113">
        <ele>2129.964</ele>
        <time>2018-07-17T10:23:13Z</time>
      </trkpt>
      <trkpt lat="45.467401" lon="6.906184">
        <ele>2130.506</ele>
        <time>2018-07-17T10:23:17Z</time>
      </trkpt>
      <trkpt lat="45.467406" lon="6.906252">
        <ele>2131.316</ele>
        <time>2018-07-17T10:23:21Z</time>
      </trkpt>
      <trkpt lat="45.467414" lon="6.906323">
        <ele>2132.208</ele>
        <time>2018-07-17T10:23:25Z</time>
      </trkpt>
      <trkpt lat="45.467422" lon="6.906389">
        <ele>2132.338</ele>
        <time>2018-07-17T10:23:29Z</time>
      </trkpt>
      <trkpt lat="45.467433" lon="6.906459">
        <ele>2133.282</ele>
        <time>2018-07-17T10:23:33Z</time>
      </trkpt>
      <trkpt lat="45.467447" lon="6.906528">
        <ele>2134.124</ele>
        <time>2018-07-17T10:23:37Z</time>
      </trkpt>
      <trkpt lat="45.467458" lon="6.906595">
        <ele>2134.730</ele>
        <time>2018-07-17T10:23:41Z</time>
      </trkpt>
      <trkpt lat="45.467476" lon="6.906662">
        <ele>2135.817</ele>
        <time>2018-07-17T10:23:45Z</time>
      </trkpt>
      <trkpt lat="45.467493" lon="6.906725">
        <ele>2136.979</ele>
        <time>2018-07-17T10:23:49Z</time>
      </trkpt>
      <trkpt lat="45.467514" lon="6.906795">
        <ele>2136.759</ele>
        <time>2018-07-17T10:23:54Z</time>
      </trkpt>
      <trkpt lat="45.467536" lon="6.906869">
        <ele>2137.040</ele>
        <time>2018-07-17T10:23:59Z</time>
      </trkpt>
      <trkpt lat="45.467564" lon="6.906930">
        <ele>2137.622</ele>
        <time>2018-07-17T10:24:03Z</time>
      </trkpt>
      <trkpt lat="45.467597" lon="6.906977">
        <ele>2138.462</ele>
        <time>2018-07-17T10:24:07Z</time>
      </trkpt>
      <trkpt lat="45.467634" lon="6.907026">
        <ele>2138.908</ele>
        <time>2018-07-17T10:24:11Z</time>
      </trkpt>
      <trkpt lat="45.467675" lon="6.907074">
        <ele>2139.208</ele>
        <time>2018-07-17T10:24:15Z</time>
      </trkpt>
      <trkpt lat="45.467717" lon="6.907127">
        <ele>2140.224</ele>
        <time>2018-07-17T10:24:20Z</time>
      </trkpt>
      <trkpt lat="45.467752" lon="6.907182">
        <ele>2142.028</ele>
        <time>2018-07-17T10:24:24Z</time>
      </trkpt>
      <trkpt lat="45.467802" lon="6.907213">
        <ele>2143.550</ele>
        <time>2018-07-17T10:24:31Z</time>
      </trkpt>
      <trkpt lat="45.467844" lon="6.907241">
        <ele>2144.416</ele>
        <time>2018-07-17T10:24:34Z</time>
      </trkpt>
      <trkpt lat="45.467897" lon="6.907265">
        <ele>2144.573</ele>
        <time>2018-07-17T10:24:38Z</time>
      </trkpt>
      <trkpt lat="45.467943" lon="6.907297">
        <ele>2145.035</ele>
        <time>2018-07-17T10:24:43Z</time>
      </trkpt>
      <trkpt lat="45.467922" lon="6.907360">
        <ele>2145.345</ele>
        <time>2018-07-17T10:24:58Z</time>
      </trkpt>
      <trkpt lat="45.467885" lon="6.907410">
        <ele>2144.786</ele>
        <time>2018-07-17T10:25:02Z</time>
      </trkpt>
      <trkpt lat="45.467844" lon="6.907467">
        <ele>2143.916</ele>
        <time>2018-07-17T10:25:06Z</time>
      </trkpt>
      <trkpt lat="45.467808" lon="6.907524">
        <ele>2142.676</ele>
        <time>2018-07-17T10:25:10Z</time>
      </trkpt>
      <trkpt lat="45.467807" lon="6.907594">
        <ele>2141.413</ele>
        <time>2018-07-17T10:25:15Z</time>
      </trkpt>
      <trkpt lat="45.467838" lon="6.907642">
        <ele>2139.908</ele>
        <time>2018-07-17T10:25:20Z</time>
      </trkpt>
      <trkpt lat="45.467874" lon="6.907689">
        <ele>2138.683</ele>
        <time>2018-07-17T10:25:25Z</time>
      </trkpt>
      <trkpt lat="45.467917" lon="6.907720">
        <ele>2137.487</ele>
        <time>2018-07-17T10:25:30Z</time>
      </trkpt>
      <trkpt lat="45.467963" lon="6.907753">
        <ele>2136.399</ele>
        <time>2018-07-17T10:25:36Z</time>
      </trkpt>
      <trkpt lat="45.468007" lon="6.907774">
        <ele>2134.875</ele>
        <time>2018-07-17T10:25:41Z</time>
      </trkpt>
      <trkpt lat="45.468050" lon="6.907802">
        <ele>2133.572</ele>
        <time>2018-07-17T10:25:46Z</time>
      </trkpt>
      <trkpt lat="45.468097" lon="6.907817">
        <ele>2132.724</ele>
        <time>2018-07-17T10:25:51Z</time>
      </trkpt>
      <trkpt lat="45.468151" lon="6.907826">
        <ele>2133.014</ele>
        <time>2018-07-17T10:25:56Z</time>
      </trkpt>
      <trkpt lat="45.468199" lon="6.907832">
        <ele>2133.615</ele>
        <time>2018-07-17T10:25:59Z</time>
      </trkpt>
      <trkpt lat="45.468252" lon="6.907832">
        <ele>2134.887</ele>
        <time>2018-07-17T10:26:03Z</time>
      </trkpt>
      <trkpt lat="45.468304" lon="6.907842">
        <ele>2136.742</ele>
        <time>2018-07-17T10:26:07Z</time>
      </trkpt>
      <trkpt lat="45.468360" lon="6.907848">
        <ele>2139.026</ele>
        <time>2018-07-17T10:26:10Z</time>
      </trkpt>
      <trkpt lat="45.468406" lon="6.907850">
        <ele>2141.208</ele>
        <time>2018-07-17T10:26:13Z</time>
      </trkpt>
      <trkpt lat="45.468455" lon="6.907843">
        <ele>2143.310</ele>
        <time>2018-07-17T10:26:18Z</time>
      </trkpt>
      <trkpt lat="45.468501" lon="6.907850">
        <ele>2145.434</ele>
        <time>2018-07-17T10:26:26Z</time>
      </trkpt>
      <trkpt lat="45.468550" lon="6.907851">
        <ele>2147.856</ele>
        <time>2018-07-17T10:26:31Z</time>
      </trkpt>
      <trkpt lat="45.468598" lon="6.907856">
        <ele>2150.122</ele>
        <time>2018-07-17T10:26:37Z</time>
      </trkpt>
      <trkpt lat="45.468615" lon="6.907917">
        <ele>2150.719</ele>
        <time>2018-07-17T10:26:52Z</time>
      </trkpt>
      <trkpt lat="45.468654" lon="6.907949">
        <ele>2151.421</ele>
        <time>2018-07-17T10:27:16Z</time>
      </trkpt>
      <trkpt lat="45.468682" lon="6.908003">
        <ele>2151.431</ele>
        <time>2018-07-17T10:27:22Z</time>
      </trkpt>
      <trkpt lat="45.468683" lon="6.908261">
        <ele>2144.412</ele>
        <time>2018-07-17T10:29:00Z</time>
      </trkpt>
      <trkpt lat="45.468636" lon="6.908293">
        <ele>2144.442</ele>
        <time>2018-07-17T10:29:06Z</time>
      </trkpt>
      <trkpt lat="45.468587" lon="6.908333">
        <ele>2145.322</ele>
        <time>2018-07-17T10:29:11Z</time>
      </trkpt>
      <trkpt lat="45.468558" lon="6.908388">
        <ele>2145.014</ele>
        <time>2018-07-17T10:29:18Z</time>
      </trkpt>
      <trkpt lat="45.468530" lon="6.908455">
        <ele>2145.008</ele>
        <time>2018-07-17T10:29:23Z</time>
      </trkpt>
      <trkpt lat="45.468514" lon="6.908517">
        <ele>2146.646</ele>
        <time>2018-07-17T10:29:28Z</time>
      </trkpt>
      <trkpt lat="45.468500" lon="6.908583">
        <ele>2147.210</ele>
        <time>2018-07-17T10:29:34Z</time>
      </trkpt>
      <trkpt lat="45.468503" lon="6.908651">
        <ele>2147.552</ele>
        <time>2018-07-17T10:29:40Z</time>
      </trkpt>
      <trkpt lat="45.468490" lon="6.908714">
        <ele>2148.198</ele>
        <time>2018-07-17T10:29:45Z</time>
      </trkpt>
      <trkpt lat="45.468518" lon="6.908766">
        <ele>2150.575</ele>
        <time>2018-07-17T10:29:49Z</time>
      </trkpt>
      <trkpt lat="45.468567" lon="6.908805">
        <ele>2152.327</ele>
        <time>2018-07-17T10:29:53Z</time>
      </trkpt>
      <trkpt lat="45.468511" lon="6.908938">
        <ele>2146.027</ele>
        <time>2018-07-17T10:39:07Z</time>
      </trkpt>
      <trkpt lat="45.468499" lon="6.909015">
        <ele>2147.468</ele>
        <time>2018-07-17T10:39:15Z</time>
      </trkpt>
      <trkpt lat="45.468485" lon="6.909080">
        <ele>2147.943</ele>
        <time>2018-07-17T10:39:19Z</time>
      </trkpt>
      <trkpt lat="45.468457" lon="6.909146">
        <ele>2149.064</ele>
        <time>2018-07-17T10:39:23Z</time>
      </trkpt>
      <trkpt lat="45.468434" lon="6.909207">
        <ele>2149.310</ele>
        <time>2018-07-17T10:39:28Z</time>
      </trkpt>
      <trkpt lat="45.468412" lon="6.909278">
        <ele>2146.808</ele>
        <time>2018-07-17T10:39:32Z</time>
      </trkpt>
      <trkpt lat="45.468387" lon="6.909336">
        <ele>2146.816</ele>
        <time>2018-07-17T10:39:35Z</time>
      </trkpt>
      <trkpt lat="45.468357" lon="6.909386">
        <ele>2149.250</ele>
        <time>2018-07-17T10:39:40Z</time>
      </trkpt>
      <trkpt lat="45.468323" lon="6.909442">
        <ele>2151.032</ele>
        <time>2018-07-17T10:39:44Z</time>
      </trkpt>
      <trkpt lat="45.468276" lon="6.909487">
        <ele>2151.378</ele>
        <time>2018-07-17T10:39:48Z</time>
      </trkpt>
      <trkpt lat="45.468244" lon="6.909535">
        <ele>2151.575</ele>
        <time>2018-07-17T10:39:52Z</time>
      </trkpt>
      <trkpt lat="45.468205" lon="6.909572">
        <ele>2152.057</ele>
        <time>2018-07-17T10:39:56Z</time>
      </trkpt>
      <trkpt lat="45.468159" lon="6.909613">
        <ele>2151.517</ele>
        <time>2018-07-17T10:40:01Z</time>
      </trkpt>
      <trkpt lat="45.468106" lon="6.909633">
        <ele>2150.848</ele>
        <time>2018-07-17T10:40:06Z</time>
      </trkpt>
      <trkpt lat="45.468061" lon="6.909661">
        <ele>2149.251</ele>
        <time>2018-07-17T10:40:10Z</time>
      </trkpt>
      <trkpt lat="45.468027" lon="6.909703">
        <ele>2147.001</ele>
        <time>2018-07-17T10:40:14Z</time>
      </trkpt>
      <trkpt lat="45.467995" lon="6.909752">
        <ele>2145.711</ele>
        <time>2018-07-17T10:40:19Z</time>
      </trkpt>
      <trkpt lat="45.467962" lon="6.909799">
        <ele>2144.908</ele>
        <time>2018-07-17T10:40:23Z</time>
      </trkpt>
      <trkpt lat="45.467920" lon="6.909839">
        <ele>2144.047</ele>
        <time>2018-07-17T10:40:27Z</time>
      </trkpt>
      <trkpt lat="45.467871" lon="6.909876">
        <ele>2143.591</ele>
        <time>2018-07-17T10:40:31Z</time>
      </trkpt>
      <trkpt lat="45.467828" lon="6.909904">
        <ele>2143.213</ele>
        <time>2018-07-17T10:40:35Z</time>
      </trkpt>
      <trkpt lat="45.467775" lon="6.909925">
        <ele>2143.059</ele>
        <time>2018-07-17T10:40:39Z</time>
      </trkpt>
      <trkpt lat="45.467726" lon="6.909951">
        <ele>2143.796</ele>
        <time>2018-07-17T10:40:43Z</time>
      </trkpt>
      <trkpt lat="45.467678" lon="6.909971">
        <ele>2144.598</ele>
        <time>2018-07-17T10:40:48Z</time>
      </trkpt>
      <trkpt lat="45.467637" lon="6.909998">
        <ele>2145.878</ele>
        <time>2018-07-17T10:40:53Z</time>
      </trkpt>
      <trkpt lat="45.467589" lon="6.910020">
        <ele>2147.439</ele>
        <time>2018-07-17T10:40:57Z</time>
      </trkpt>
      <trkpt lat="45.467545" lon="6.910047">
        <ele>2148.373</ele>
        <time>2018-07-17T10:41:02Z</time>
      </trkpt>
      <trkpt lat="45.467559" lon="6.910115">
        <ele>2147.385</ele>
        <time>2018-07-17T10:41:12Z</time>
      </trkpt>
      <trkpt lat="45.467546" lon="6.910180">
        <ele>2147.513</ele>
        <time>2018-07-17T10:41:20Z</time>
      </trkpt>
      <trkpt lat="45.467516" lon="6.910240">
        <ele>2147.608</ele>
        <time>2018-07-17T10:41:28Z</time>
      </trkpt>
      <trkpt lat="45.467483" lon="6.910294">
        <ele>2148.939</ele>
        <time>2018-07-17T10:41:35Z</time>
      </trkpt>
      <trkpt lat="45.467437" lon="6.910325">
        <ele>2150.933</ele>
        <time>2018-07-17T10:41:41Z</time>
      </trkpt>
      <trkpt lat="45.467392" lon="6.910346">
        <ele>2151.725</ele>
        <time>2018-07-17T10:41:48Z</time>
      </trkpt>
      <trkpt lat="45.467383" lon="6.910416">
        <ele>2153.051</ele>
        <time>2018-07-17T10:41:57Z</time>
      </trkpt>
      <trkpt lat="45.467393" lon="6.910489">
        <ele>2153.468</ele>
        <time>2018-07-17T10:42:19Z</time>
      </trkpt>
      <trkpt lat="45.467399" lon="6.910563">
        <ele>2154.070</ele>
        <time>2018-07-17T10:42:25Z</time>
      </trkpt>
      <trkpt lat="45.467417" lon="6.910632">
        <ele>2154.850</ele>
        <time>2018-07-17T10:42:30Z</time>
      </trkpt>
      <trkpt lat="45.467441" lon="6.910700">
        <ele>2155.351</ele>
        <time>2018-07-17T10:42:35Z</time>
      </trkpt>
      <trkpt lat="45.467455" lon="6.910766">
        <ele>2155.669</ele>
        <time>2018-07-17T10:42:40Z</time>
      </trkpt>
      <trkpt lat="45.467476" lon="6.910831">
        <ele>2156.204</ele>
        <time>2018-07-17T10:42:46Z</time>
      </trkpt>
      <trkpt lat="45.467499" lon="6.910891">
        <ele>2156.924</ele>
        <time>2018-07-17T10:42:52Z</time>
      </trkpt>
      <trkpt lat="45.467512" lon="6.910956">
        <ele>2158.508</ele>
        <time>2018-07-17T10:42:59Z</time>
      </trkpt>
      <trkpt lat="45.467528" lon="6.911025">
        <ele>2159.928</ele>
        <time>2018-07-17T10:43:05Z</time>
      </trkpt>
      <trkpt lat="45.467550" lon="6.911086">
        <ele>2161.162</ele>
        <time>2018-07-17T10:43:11Z</time>
      </trkpt>
      <trkpt lat="45.467584" lon="6.911138">
        <ele>2162.624</ele>
        <time>2018-07-17T10:43:18Z</time>
      </trkpt>
      <trkpt lat="45.467621" lon="6.911177">
        <ele>2163.570</ele>
        <time>2018-07-17T10:43:23Z</time>
      </trkpt>
      <trkpt lat="45.467672" lon="6.911203">
        <ele>2164.947</ele>
        <time>2018-07-17T10:43:28Z</time>
      </trkpt>
      <trkpt lat="45.467725" lon="6.911225">
        <ele>2166.189</ele>
        <time>2018-07-17T10:43:32Z</time>
      </trkpt>
      <trkpt lat="45.467773" lon="6.911244">
        <ele>2167.229</ele>
        <time>2018-07-17T10:43:36Z</time>
      </trkpt>
      <trkpt lat="45.467807" lon="6.911290">
        <ele>2167.930</ele>
        <time>2018-07-17T10:43:41Z</time>
      </trkpt>
      <trkpt lat="45.467853" lon="6.911331">
        <ele>2168.781</ele>
        <time>2018-07-17T10:43:47Z</time>
      </trkpt>
      <trkpt lat="45.467896" lon="6.911358">
        <ele>2170.061</ele>
        <time>2018-07-17T10:43:51Z</time>
      </trkpt>
      <trkpt lat="45.467946" lon="6.911389">
        <ele>2171.617</ele>
        <time>2018-07-17T10:43:56Z</time>
      </trkpt>
      <trkpt lat="45.467981" lon="6.911435">
        <ele>2172.508</ele>
        <time>2018-07-17T10:44:01Z</time>
      </trkpt>
      <trkpt lat="45.468020" lon="6.911478">
        <ele>2173.150</ele>
        <time>2018-07-17T10:44:06Z</time>
      </trkpt>
      <trkpt lat="45.468052" lon="6.911529">
        <ele>2173.454</ele>
        <time>2018-07-17T10:44:11Z</time>
      </trkpt>
      <trkpt lat="45.468082" lon="6.911581">
        <ele>2173.266</ele>
        <time>2018-07-17T10:44:16Z</time>
      </trkpt>
      <trkpt lat="45.468112" lon="6.911634">
        <ele>2173.142</ele>
        <time>2018-07-17T10:44:21Z</time>
      </trkpt>
      <trkpt lat="45.468158" lon="6.911671">
        <ele>2172.219</ele>
        <time>2018-07-17T10:44:27Z</time>
      </trkpt>
      <trkpt lat="45.468207" lon="6.911695">
        <ele>2171.731</ele>
        <time>2018-07-17T10:44:33Z</time>
      </trkpt>
      <trkpt lat="45.468254" lon="6.911729">
        <ele>2170.651</ele>
        <time>2018-07-17T10:44:41Z</time>
      </trkpt>
      <trkpt lat="45.468307" lon="6.911748">
        <ele>2170.392</ele>
        <time>2018-07-17T10:44:46Z</time>
      </trkpt>
      <trkpt lat="45.468348" lon="6.911792">
        <ele>2170.194</ele>
        <time>2018-07-17T10:44:51Z</time>
      </trkpt>
      <trkpt lat="45.468385" lon="6.911830">
        <ele>2170.457</ele>
        <time>2018-07-17T10:44:55Z</time>
      </trkpt>
      <trkpt lat="45.468429" lon="6.911868">
        <ele>2170.622</ele>
        <time>2018-07-17T10:44:59Z</time>
      </trkpt>
      <trkpt lat="45.468467" lon="6.911909">
        <ele>2170.708</ele>
        <time>2018-07-17T10:45:03Z</time>
      </trkpt>
      <trkpt lat="45.468502" lon="6.911955">
        <ele>2170.431</ele>
        <time>2018-07-17T10:45:07Z</time>
      </trkpt>
      <trkpt lat="45.468536" lon="6.911998">
        <ele>2170.225</ele>
        <time>2018-07-17T10:45:11Z</time>
      </trkpt>
      <trkpt lat="45.468568" lon="6.912059">
        <ele>2170.537</ele>
        <time>2018-07-17T10:45:16Z</time>
      </trkpt>
      <trkpt lat="45.468588" lon="6.912117">
        <ele>2170.323</ele>
        <time>2018-07-17T10:45:20Z</time>
      </trkpt>
      <trkpt lat="45.468604" lon="6.912187">
        <ele>2169.010</ele>
        <time>2018-07-17T10:45:25Z</time>
      </trkpt>
      <trkpt lat="45.468619" lon="6.912249">
        <ele>2168.682</ele>
        <time>2018-07-17T10:45:30Z</time>
      </trkpt>
      <trkpt lat="45.468634" lon="6.912319">
        <ele>2167.682</ele>
        <time>2018-07-17T10:45:35Z</time>
      </trkpt>
      <trkpt lat="45.468662" lon="6.912381">
        <ele>2167.043</ele>
        <time>2018-07-17T10:45:40Z</time>
      </trkpt>
      <trkpt lat="45.468672" lon="6.912451">
        <ele>2166.685</ele>
        <time>2018-07-17T10:45:45Z</time>
      </trkpt>
      <trkpt lat="45.468661" lon="6.912524">
        <ele>2165.689</ele>
        <time>2018-07-17T10:45:50Z</time>
      </trkpt>
      <trkpt lat="45.468652" lon="6.912600">
        <ele>2164.617</ele>
        <time>2018-07-17T10:45:55Z</time>
      </trkpt>
      <trkpt lat="45.468633" lon="6.912664">
        <ele>2163.608</ele>
        <time>2018-07-17T10:46:00Z</time>
      </trkpt>
      <trkpt lat="45.468630" lon="6.912738">
        <ele>2163.040</ele>
        <time>2018-07-17T10:46:05Z</time>
      </trkpt>
      <trkpt lat="45.468634" lon="6.912812">
        <ele>2163.044</ele>
        <time>2018-07-17T10:46:10Z</time>
      </trkpt>
      <trkpt lat="45.468634" lon="6.912881">
        <ele>2163.096</ele>
        <time>2018-07-17T10:46:15Z</time>
      </trkpt>
      <trkpt lat="45.468647" lon="6.912948">
        <ele>2163.042</ele>
        <time>2018-07-17T10:46:20Z</time>
      </trkpt>
      <trkpt lat="45.468664" lon="6.913018">
        <ele>2162.659</ele>
        <time>2018-07-17T10:46:26Z</time>
      </trkpt>
      <trkpt lat="45.468659" lon="6.913088">
        <ele>2162.091</ele>
        <time>2018-07-17T10:46:34Z</time>
      </trkpt>
      <trkpt lat="45.468666" lon="6.913162">
        <ele>2162.081</ele>
        <time>2018-07-17T10:46:41Z</time>
      </trkpt>
      <trkpt lat="45.468677" lon="6.913227">
        <ele>2162.442</ele>
        <time>2018-07-17T10:46:46Z</time>
      </trkpt>
      <trkpt lat="45.468680" lon="6.913300">
        <ele>2162.638</ele>
        <time>2018-07-17T10:46:52Z</time>
      </trkpt>
      <trkpt lat="45.468696" lon="6.913368">
        <ele>2163.570</ele>
        <time>2018-07-17T10:47:00Z</time>
      </trkpt>
      <trkpt lat="45.468722" lon="6.913422">
        <ele>2164.917</ele>
        <time>2018-07-17T10:47:07Z</time>
      </trkpt>
      <trkpt lat="45.468745" lon="6.913479">
        <ele>2166.108</ele>
        <time>2018-07-17T10:47:14Z</time>
      </trkpt>
      <trkpt lat="45.468768" lon="6.913545">
        <ele>2167.675</ele>
        <time>2018-07-17T10:47:21Z</time>
      </trkpt>
      <trkpt lat="45.468802" lon="6.913600">
        <ele>2169.719</ele>
        <time>2018-07-17T10:47:27Z</time>
      </trkpt>
      <trkpt lat="45.468822" lon="6.913659">
        <ele>2170.671</ele>
        <time>2018-07-17T10:47:34Z</time>
      </trkpt>
      <trkpt lat="45.468833" lon="6.913722">
        <ele>2169.147</ele>
        <time>2018-07-17T10:48:01Z</time>
      </trkpt>
      <trkpt lat="45.468844" lon="6.913785">
        <ele>2168.654</ele>
        <time>2018-07-17T10:48:10Z</time>
      </trkpt>
      <trkpt lat="45.468875" lon="6.913842">
        <ele>2168.756</ele>
        <time>2018-07-17T10:48:19Z</time>
      </trkpt>
      <trkpt lat="45.468895" lon="6.913901">
        <ele>2169.656</ele>
        <time>2018-07-17T10:48:31Z</time>
      </trkpt>
      <trkpt lat="45.468926" lon="6.913955">
        <ele>2171.367</ele>
        <time>2018-07-17T10:48:42Z</time>
      </trkpt>
      <trkpt lat="45.468958" lon="6.914004">
        <ele>2172.723</ele>
        <time>2018-07-17T10:48:53Z</time>
      </trkpt>
      <trkpt lat="45.468996" lon="6.914047">
        <ele>2174.083</ele>
        <time>2018-07-17T10:49:03Z</time>
      </trkpt>
      <trkpt lat="45.469039" lon="6.914082">
        <ele>2175.611</ele>
        <time>2018-07-17T10:49:14Z</time>
      </trkpt>
      <trkpt lat="45.469071" lon="6.914135">
        <ele>2177.308</ele>
        <time>2018-07-17T10:49:24Z</time>
      </trkpt>
      <trkpt lat="45.469096" lon="6.914202">
        <ele>2178.734</ele>
        <time>2018-07-17T10:49:37Z</time>
      </trkpt>
      <trkpt lat="45.469103" lon="6.914266">
        <ele>2180.048</ele>
        <time>2018-07-17T10:49:48Z</time>
      </trkpt>
      <trkpt lat="45.469121" lon="6.914332">
        <ele>2181.240</ele>
        <time>2018-07-17T10:49:59Z</time>
      </trkpt>
      <trkpt lat="45.469152" lon="6.914380">
        <ele>2182.766</ele>
        <time>2018-07-17T10:50:10Z</time>
      </trkpt>
      <trkpt lat="45.469190" lon="6.914414">
        <ele>2184.863</ele>
        <time>2018-07-17T10:50:18Z</time>
      </trkpt>
      <trkpt lat="45.469172" lon="6.914477">
        <ele>2183.355</ele>
        <time>2018-07-17T10:50:41Z</time>
      </trkpt>
      <trkpt lat="45.469129" lon="6.914506">
        <ele>2181.635</ele>
        <time>2018-07-17T10:50:44Z</time>
      </trkpt>
      <trkpt lat="45.469077" lon="6.914515">
        <ele>2180.236</ele>
        <time>2018-07-17T10:50:48Z</time>
      </trkpt>
      <trkpt lat="45.469023" lon="6.914531">
        <ele>2178.558</ele>
        <time>2018-07-17T10:50:53Z</time>
      </trkpt>
      <trkpt lat="45.468976" lon="6.914539">
        <ele>2176.752</ele>
        <time>2018-07-17T10:50:58Z</time>
      </trkpt>
      <trkpt lat="45.468923" lon="6.914545">
        <ele>2175.617</ele>
        <time>2018-07-17T10:51:03Z</time>
      </trkpt>
      <trkpt lat="45.468878" lon="6.914537">
        <ele>2173.808</ele>
        <time>2018-07-17T10:51:11Z</time>
      </trkpt>
      <trkpt lat="45.468826" lon="6.914532">
        <ele>2172.797</ele>
        <time>2018-07-17T10:51:17Z</time>
      </trkpt>
      <trkpt lat="45.468781" lon="6.914541">
        <ele>2171.251</ele>
        <time>2018-07-17T10:51:21Z</time>
      </trkpt>
      <trkpt lat="45.468777" lon="6.914619">
        <ele>2170.783</ele>
        <time>2018-07-17T10:51:25Z</time>
      </trkpt>
      <trkpt lat="45.468797" lon="6.914690">
        <ele>2171.229</ele>
        <time>2018-07-17T10:51:30Z</time>
      </trkpt>
      <trkpt lat="45.468804" lon="6.914757">
        <ele>2171.596</ele>
        <time>2018-07-17T10:51:35Z</time>
      </trkpt>
      <trkpt lat="45.468816" lon="6.914823">
        <ele>2171.788</ele>
        <time>2018-07-17T10:51:40Z</time>
      </trkpt>
      <trkpt lat="45.468831" lon="6.914896">
        <ele>2171.438</ele>
        <time>2018-07-17T10:51:45Z</time>
      </trkpt>
      <trkpt lat="45.468851" lon="6.914956">
        <ele>2171.269</ele>
        <time>2018-07-17T10:51:49Z</time>
      </trkpt>
      <trkpt lat="45.468887" lon="6.915017">
        <ele>2171.142</ele>
        <time>2018-07-17T10:51:54Z</time>
      </trkpt>
      <trkpt lat="45.468914" lon="6.915071">
        <ele>2171.022</ele>
        <time>2018-07-17T10:51:59Z</time>
      </trkpt>
      <trkpt lat="45.468941" lon="6.915129">
        <ele>2170.614</ele>
        <time>2018-07-17T10:52:04Z</time>
      </trkpt>
      <trkpt lat="45.468958" lon="6.915191">
        <ele>2170.308</ele>
        <time>2018-07-17T10:52:09Z</time>
      </trkpt>
      <trkpt lat="45.468994" lon="6.915234">
        <ele>2170.146</ele>
        <time>2018-07-17T10:52:13Z</time>
      </trkpt>
      <trkpt lat="45.469038" lon="6.915253">
        <ele>2169.650</ele>
        <time>2018-07-17T10:52:17Z</time>
      </trkpt>
      <trkpt lat="45.469082" lon="6.915280">
        <ele>2169.322</ele>
        <time>2018-07-17T10:52:22Z</time>
      </trkpt>
      <trkpt lat="45.469121" lon="6.915314">
        <ele>2169.518</ele>
        <time>2018-07-17T10:52:27Z</time>
      </trkpt>
      <trkpt lat="45.469167" lon="6.915356">
        <ele>2170.055</ele>
        <time>2018-07-17T10:52:33Z</time>
      </trkpt>
      <trkpt lat="45.469212" lon="6.915394">
        <ele>2170.367</ele>
        <time>2018-07-17T10:52:38Z</time>
      </trkpt>
      <trkpt lat="45.469253" lon="6.915438">
        <ele>2170.537</ele>
        <time>2018-07-17T10:52:44Z</time>
      </trkpt>
      <trkpt lat="45.469284" lon="6.915484">
        <ele>2171.468</ele>
        <time>2018-07-17T10:52:50Z</time>
      </trkpt>
      <trkpt lat="45.469305" lon="6.915547">
        <ele>2172.754</ele>
        <time>2018-07-17T10:52:58Z</time>
      </trkpt>
      <trkpt lat="45.469308" lon="6.915613">
        <ele>2173.156</ele>
        <time>2018-07-17T10:53:09Z</time>
      </trkpt>
      <trkpt lat="45.469345" lon="6.915655">
        <ele>2174.511</ele>
        <time>2018-07-17T10:53:21Z</time>
      </trkpt>
      <trkpt lat="45.469392" lon="6.915647">
        <ele>2175.008</ele>
        <time>2018-07-17T10:53:31Z</time>
      </trkpt>
      <trkpt lat="45.469438" lon="6.915667">
        <ele>2175.727</ele>
        <time>2018-07-17T10:53:38Z</time>
      </trkpt>
      <trkpt lat="45.469469" lon="6.915715">
        <ele>2176.521</ele>
        <time>2018-07-17T10:53:50Z</time>
      </trkpt>
      <trkpt lat="45.469485" lon="6.915784">
        <ele>2177.053</ele>
        <time>2018-07-17T10:54:06Z</time>
      </trkpt>
      <trkpt lat="45.469516" lon="6.915841">
        <ele>2178.139</ele>
        <time>2018-07-17T10:54:17Z</time>
      </trkpt>
      <trkpt lat="45.469558" lon="6.915877">
        <ele>2180.046</ele>
        <time>2018-07-17T10:54:27Z</time>
      </trkpt>
      <trkpt lat="45.469562" lon="6.915943">
        <ele>2181.578</ele>
        <time>2018-07-17T10:54:43Z</time>
      </trkpt>
      <trkpt lat="45.469583" lon="6.916006">
        <ele>2182.898</ele>
        <time>2018-07-17T10:54:56Z</time>
      </trkpt>
      <trkpt lat="45.469616" lon="6.916059">
        <ele>2184.079</ele>
        <time>2018-07-17T10:55:07Z</time>
      </trkpt>
      <trkpt lat="45.469653" lon="6.916101">
        <ele>2184.776</ele>
        <time>2018-07-17T10:55:14Z</time>
      </trkpt>
      <trkpt lat="45.469687" lon="6.916149">
        <ele>2185.590</ele>
        <time>2018-07-17T10:55:20Z</time>
      </trkpt>
      <trkpt lat="45.469717" lon="6.916207">
        <ele>2185.619</ele>
        <time>2018-07-17T10:55:27Z</time>
      </trkpt>
      <trkpt lat="45.469744" lon="6.916260">
        <ele>2186.108</ele>
        <time>2018-07-17T10:55:33Z</time>
      </trkpt>
      <trkpt lat="45.469770" lon="6.916320">
        <ele>2186.049</ele>
        <time>2018-07-17T10:55:52Z</time>
      </trkpt>
      <trkpt lat="45.469791" lon="6.916383">
        <ele>2186.383</ele>
        <time>2018-07-17T10:56:00Z</time>
      </trkpt>
      <trkpt lat="45.469818" lon="6.916446">
        <ele>2187.385</ele>
        <time>2018-07-17T10:56:06Z</time>
      </trkpt>
      <trkpt lat="45.469849" lon="6.916495">
        <ele>2188.751</ele>
        <time>2018-07-17T10:56:12Z</time>
      </trkpt>
      <trkpt lat="45.469871" lon="6.916555">
        <ele>2189.578</ele>
        <time>2018-07-17T10:56:19Z</time>
      </trkpt>
      <trkpt lat="45.469901" lon="6.916606">
        <ele>2190.870</ele>
        <time>2018-07-17T10:56:25Z</time>
      </trkpt>
      <trkpt lat="45.469941" lon="6.916648">
        <ele>2191.660</ele>
        <time>2018-07-17T10:56:31Z</time>
      </trkpt>
      <trkpt lat="45.469952" lon="6.916718">
        <ele>2190.181</ele>
        <time>2018-07-17T10:56:39Z</time>
      </trkpt>
      <trkpt lat="45.469950" lon="6.916789">
        <ele>2189.248</ele>
        <time>2018-07-17T10:56:47Z</time>
      </trkpt>
      <trkpt lat="45.469944" lon="6.916856">
        <ele>2189.061</ele>
        <time>2018-07-17T10:56:57Z</time>
      </trkpt>
      <trkpt lat="45.469955" lon="6.916920">
        <ele>2189.317</ele>
        <time>2018-07-17T10:57:04Z</time>
      </trkpt>
      <trkpt lat="45.469972" lon="6.916986">
        <ele>2189.908</ele>
        <time>2018-07-17T10:57:11Z</time>
      </trkpt>
      <trkpt lat="45.469982" lon="6.917054">
        <ele>2190.356</ele>
        <time>2018-07-17T10:57:19Z</time>
      </trkpt>
      <trkpt lat="45.469985" lon="6.917120">
        <ele>2190.590</ele>
        <time>2018-07-17T10:57:28Z</time>
      </trkpt>
      <trkpt lat="45.469978" lon="6.917187">
        <ele>2190.642</ele>
        <time>2018-07-17T10:57:37Z</time>
      </trkpt>
      <trkpt lat="45.469969" lon="6.917257">
        <ele>2191.158</ele>
        <time>2018-07-17T10:57:46Z</time>
      </trkpt>
      <trkpt lat="45.469953" lon="6.917320">
        <ele>2191.895</ele>
        <time>2018-07-17T10:57:55Z</time>
      </trkpt>
      <trkpt lat="45.469948" lon="6.917362">
        <ele>2196.147</ele>
        <time>2018-07-17T11:00:08Z</time>
      </trkpt>
      <trkpt lat="45.469925" lon="6.917302">
        <ele>2199.057</ele>
        <time>2018-07-17T11:00:29Z</time>
      </trkpt>
      <trkpt lat="45.469877" lon="6.917297">
        <ele>2197.248</ele>
        <time>2018-07-17T11:00:45Z</time>
      </trkpt>
      <trkpt lat="45.469846" lon="6.917251">
        <ele>2198.263</ele>
        <time>2018-07-17T11:00:58Z</time>
      </trkpt>
      <trkpt lat="45.469815" lon="6.917201">
        <ele>2199.644</ele>
        <time>2018-07-17T11:01:06Z</time>
      </trkpt>
      <trkpt lat="45.469790" lon="6.917142">
        <ele>2200.418</ele>
        <time>2018-07-17T11:01:15Z</time>
      </trkpt>
      <trkpt lat="45.469760" lon="6.917090">
        <ele>2200.908</ele>
        <time>2018-07-17T11:01:22Z</time>
      </trkpt>
      <trkpt lat="45.469730" lon="6.917039">
        <ele>2201.668</ele>
        <time>2018-07-17T11:01:30Z</time>
      </trkpt>
      <trkpt lat="45.469687" lon="6.917013">
        <ele>2202.852</ele>
        <time>2018-07-17T11:01:39Z</time>
      </trkpt>
      <trkpt lat="45.469644" lon="6.916996">
        <ele>2203.194</ele>
        <time>2018-07-17T11:01:48Z</time>
      </trkpt>
      <trkpt lat="45.469609" lon="6.916951">
        <ele>2204.160</ele>
        <time>2018-07-17T11:02:00Z</time>
      </trkpt>
      <trkpt lat="45.469568" lon="6.916919">
        <ele>2205.117</ele>
        <time>2018-07-17T11:02:11Z</time>
      </trkpt>
      <trkpt lat="45.469528" lon="6.916888">
        <ele>2206.169</ele>
        <time>2018-07-17T11:02:20Z</time>
      </trkpt>
      <trkpt lat="45.469486" lon="6.916862">
        <ele>2207.549</ele>
        <time>2018-07-17T11:02:28Z</time>
      </trkpt>
      <trkpt lat="45.469440" lon="6.916847">
        <ele>2208.750</ele>
        <time>2018-07-17T11:02:36Z</time>
      </trkpt>
      <trkpt lat="45.469400" lon="6.916801">
        <ele>2209.815</ele>
        <time>2018-07-17T11:02:46Z</time>
      </trkpt>
      <trkpt lat="45.469357" lon="6.916765">
        <ele>2210.565</ele>
        <time>2018-07-17T11:02:53Z</time>
      </trkpt>
      <trkpt lat="45.469318" lon="6.916729">
        <ele>2211.311</ele>
        <time>2018-07-17T11:02:59Z</time>
      </trkpt>
      <trkpt lat="45.469277" lon="6.916701">
        <ele>2212.208</ele>
        <time>2018-07-17T11:03:05Z</time>
      </trkpt>
      <trkpt lat="45.469234" lon="6.916674">
        <ele>2213.133</ele>
        <time>2018-07-17T11:03:15Z</time>
      </trkpt>
      <trkpt lat="45.469195" lon="6.916636">
        <ele>2213.727</ele>
        <time>2018-07-17T11:03:22Z</time>
      </trkpt>
      <trkpt lat="45.469150" lon="6.916619">
        <ele>2214.069</ele>
        <time>2018-07-17T11:03:28Z</time>
      </trkpt>
      <trkpt lat="45.469102" lon="6.916593">
        <ele>2214.655</ele>
        <time>2018-07-17T11:03:34Z</time>
      </trkpt>
      <trkpt lat="45.469060" lon="6.916558">
        <ele>2215.072</ele>
        <time>2018-07-17T11:03:42Z</time>
      </trkpt>
      <trkpt lat="45.469020" lon="6.916523">
        <ele>2215.264</ele>
        <time>2018-07-17T11:03:51Z</time>
      </trkpt>
      <trkpt lat="45.468980" lon="6.916487">
        <ele>2216.584</ele>
        <time>2018-07-17T11:03:57Z</time>
      </trkpt>
      <trkpt lat="45.468937" lon="6.916463">
        <ele>2216.915</ele>
        <time>2018-07-17T11:04:09Z</time>
      </trkpt>
      <trkpt lat="45.468899" lon="6.916426">
        <ele>2217.976</ele>
        <time>2018-07-17T11:04:18Z</time>
      </trkpt>
      <trkpt lat="45.468855" lon="6.916396">
        <ele>2219.390</ele>
        <time>2018-07-17T11:04:27Z</time>
      </trkpt>
      <trkpt lat="45.468811" lon="6.916357">
        <ele>2220.619</ele>
        <time>2018-07-17T11:04:35Z</time>
      </trkpt>
      <trkpt lat="45.468771" lon="6.916321">
        <ele>2222.208</ele>
        <time>2018-07-17T11:04:42Z</time>
      </trkpt>
      <trkpt lat="45.468734" lon="6.916283">
        <ele>2223.529</ele>
        <time>2018-07-17T11:04:48Z</time>
      </trkpt>
      <trkpt lat="45.468697" lon="6.916245">
        <ele>2223.943</ele>
        <time>2018-07-17T11:04:59Z</time>
      </trkpt>
      <trkpt lat="45.468728" lon="6.916300">
        <ele>2224.955</ele>
        <time>2018-07-17T11:05:29Z</time>
      </trkpt>
      <trkpt lat="45.468750" lon="6.916356">
        <ele>2225.521</ele>
        <time>2018-07-17T11:05:40Z</time>
      </trkpt>
      <trkpt lat="45.468775" lon="6.916419">
        <ele>2226.328</ele>
        <time>2018-07-17T11:05:53Z</time>
      </trkpt>
      <trkpt lat="45.468797" lon="6.916480">
        <ele>2226.850</ele>
        <time>2018-07-17T11:06:04Z</time>
      </trkpt>
      <trkpt lat="45.468829" lon="6.916531">
        <ele>2227.120</ele>
        <time>2018-07-17T11:06:15Z</time>
      </trkpt>
      <trkpt lat="45.468865" lon="6.916571">
        <ele>2227.361</ele>
        <time>2018-07-17T11:06:21Z</time>
      </trkpt>
      <trkpt lat="45.468890" lon="6.916630">
        <ele>2226.219</ele>
        <time>2018-07-17T11:06:31Z</time>
      </trkpt>
      <trkpt lat="45.468926" lon="6.916679">
        <ele>2225.909</ele>
        <time>2018-07-17T11:06:39Z</time>
      </trkpt>
      <trkpt lat="45.468951" lon="6.916737">
        <ele>2225.719</ele>
        <time>2018-07-17T11:06:47Z</time>
      </trkpt>
      <trkpt lat="45.468979" lon="6.916788">
        <ele>2226.008</ele>
        <time>2018-07-17T11:06:54Z</time>
      </trkpt>
      <trkpt lat="45.469007" lon="6.916846">
        <ele>2226.273</ele>
        <time>2018-07-17T11:07:02Z</time>
      </trkpt>
      <trkpt lat="45.469029" lon="6.916904">
        <ele>2226.717</ele>
        <time>2018-07-17T11:07:12Z</time>
      </trkpt>
      <trkpt lat="45.469043" lon="6.916966">
        <ele>2227.849</ele>
        <time>2018-07-17T11:07:23Z</time>
      </trkpt>
      <trkpt lat="45.469080" lon="6.917012">
        <ele>2230.525</ele>
        <time>2018-07-17T11:08:36Z</time>
      </trkpt>
      <trkpt lat="45.469067" lon="6.917080">
        <ele>2232.532</ele>
        <time>2018-07-17T11:09:07Z</time>
      </trkpt>
      <trkpt lat="45.469063" lon="6.917145">
        <ele>2233.734</ele>
        <time>2018-07-17T11:09:25Z</time>
      </trkpt>
      <trkpt lat="45.469055" lon="6.917214">
        <ele>2234.854</ele>
        <time>2018-07-17T11:09:35Z</time>
      </trkpt>
      <trkpt lat="45.469069" lon="6.917280">
        <ele>2236.745</ele>
        <time>2018-07-17T11:10:00Z</time>
      </trkpt>
      <trkpt lat="45.469073" lon="6.917345">
        <ele>2237.439</ele>
        <time>2018-07-17T11:10:14Z</time>
      </trkpt>
      <trkpt lat="45.469101" lon="6.917403">
        <ele>2238.201</ele>
        <time>2018-07-17T11:10:23Z</time>
      </trkpt>
      <trkpt lat="45.469121" lon="6.917461">
        <ele>2238.721</ele>
        <time>2018-07-17T11:10:29Z</time>
      </trkpt>
      <trkpt lat="45.469138" lon="6.917525">
        <ele>2239.408</ele>
        <time>2018-07-17T11:11:00Z</time>
      </trkpt>
      <trkpt lat="45.469139" lon="6.917598">
        <ele>2239.845</ele>
        <time>2018-07-17T11:11:18Z</time>
      </trkpt>
      <trkpt lat="45.469147" lon="6.917672">
        <ele>2241.739</ele>
        <time>2018-07-17T11:11:34Z</time>
      </trkpt>
      <trkpt lat="45.469153" lon="6.917737">
        <ele>2243.691</ele>
        <time>2018-07-17T11:11:51Z</time>
      </trkpt>
      <trkpt lat="45.469170" lon="6.917798">
        <ele>2245.577</ele>
        <time>2018-07-17T11:12:01Z</time>
      </trkpt>
      <trkpt lat="45.469171" lon="6.917863">
        <ele>2246.714</ele>
        <time>2018-07-17T11:12:15Z</time>
      </trkpt>
      <trkpt lat="45.469174" lon="6.917931">
        <ele>2247.816</ele>
        <time>2018-07-17T11:12:26Z</time>
      </trkpt>
      <trkpt lat="45.469195" lon="6.918001">
        <ele>2249.356</ele>
        <time>2018-07-17T11:12:46Z</time>
      </trkpt>
      <trkpt lat="45.469208" lon="6.918068">
        <ele>2250.667</ele>
        <time>2018-07-17T11:12:58Z</time>
      </trkpt>
      <trkpt lat="45.469218" lon="6.918134">
        <ele>2251.898</ele>
        <time>2018-07-17T11:13:08Z</time>
      </trkpt>
      <trkpt lat="45.469220" lon="6.918201">
        <ele>2253.315</ele>
        <time>2018-07-17T11:13:17Z</time>
      </trkpt>
      <trkpt lat="45.469212" lon="6.918274">
        <ele>2254.626</ele>
        <time>2018-07-17T11:13:26Z</time>
      </trkpt>
      <trkpt lat="45.469218" lon="6.918343">
        <ele>2255.808</ele>
        <time>2018-07-17T11:13:33Z</time>
      </trkpt>
      <trkpt lat="45.469221" lon="6.918414">
        <ele>2257.391</ele>
        <time>2018-07-17T11:14:13Z</time>
      </trkpt>
      <trkpt lat="45.469229" lon="6.918482">
        <ele>2257.885</ele>
        <time>2018-07-17T11:14:20Z</time>
      </trkpt>
      <trkpt lat="45.469238" lon="6.918545">
        <ele>2258.597</ele>
        <time>2018-07-17T11:14:27Z</time>
      </trkpt>
      <trkpt lat="45.469232" lon="6.918619">
        <ele>2259.323</ele>
        <time>2018-07-17T11:14:34Z</time>
      </trkpt>
      <trkpt lat="45.469226" lon="6.918683">
        <ele>2260.290</ele>
        <time>2018-07-17T11:14:42Z</time>
      </trkpt>
      <trkpt lat="45.469235" lon="6.918749">
        <ele>2261.582</ele>
        <time>2018-07-17T11:14:50Z</time>
      </trkpt>
      <trkpt lat="45.469243" lon="6.918813">
        <ele>2262.372</ele>
        <time>2018-07-17T11:14:58Z</time>
      </trkpt>
      <trkpt lat="45.469245" lon="6.918884">
        <ele>2263.263</ele>
        <time>2018-07-17T11:15:07Z</time>
      </trkpt>
      <trkpt lat="45.469251" lon="6.918948">
        <ele>2264.157</ele>
        <time>2018-07-17T11:15:14Z</time>
      </trkpt>
      <trkpt lat="45.469262" lon="6.919011">
        <ele>2265.100</ele>
        <time>2018-07-17T11:15:22Z</time>
      </trkpt>
      <trkpt lat="45.469262" lon="6.919079">
        <ele>2266.520</ele>
        <time>2018-07-17T11:15:32Z</time>
      </trkpt>
      <trkpt lat="45.469257" lon="6.919144">
        <ele>2268.108</ele>
        <time>2018-07-17T11:15:42Z</time>
      </trkpt>
      <trkpt lat="45.469253" lon="6.919210">
        <ele>2269.537</ele>
        <time>2018-07-17T11:15:51Z</time>
      </trkpt>
      <trkpt lat="45.469250" lon="6.919275">
        <ele>2270.771</ele>
        <time>2018-07-17T11:15:59Z</time>
      </trkpt>
      <trkpt lat="45.469249" lon="6.919341">
        <ele>2271.443</ele>
        <time>2018-07-17T11:16:13Z</time>
      </trkpt>
      <trkpt lat="45.469237" lon="6.919409">
        <ele>2272.679</ele>
        <time>2018-07-17T11:16:26Z</time>
      </trkpt>
      <trkpt lat="45.469239" lon="6.919475">
        <ele>2273.766</ele>
        <time>2018-07-17T11:16:34Z</time>
      </trkpt>
      <trkpt lat="45.469241" lon="6.919540">
        <ele>2275.258</ele>
        <time>2018-07-17T11:16:45Z</time>
      </trkpt>
      <trkpt lat="45.469239" lon="6.919605">
        <ele>2276.138</ele>
        <time>2018-07-17T11:16:53Z</time>
      </trkpt>
      <trkpt lat="45.469247" lon="6.919675">
        <ele>2277.089</ele>
        <time>2018-07-17T11:17:00Z</time>
      </trkpt>
      <trkpt lat="45.469252" lon="6.919744">
        <ele>2277.669</ele>
        <time>2018-07-17T11:17:07Z</time>
      </trkpt>
      <trkpt lat="45.469260" lon="6.919810">
        <ele>2277.904</ele>
        <time>2018-07-17T11:17:14Z</time>
      </trkpt>
      <trkpt lat="45.469252" lon="6.919875">
        <ele>2278.524</ele>
        <time>2018-07-17T11:17:21Z</time>
      </trkpt>
      <trkpt lat="45.469218" lon="6.919928">
        <ele>2278.908</ele>
        <time>2018-07-17T11:17:31Z</time>
      </trkpt>
      <trkpt lat="45.469187" lon="6.919982">
        <ele>2278.748</ele>
        <time>2018-07-17T11:17:39Z</time>
      </trkpt>
      <trkpt lat="45.469150" lon="6.920031">
        <ele>2278.622</ele>
        <time>2018-07-17T11:17:47Z</time>
      </trkpt>
      <trkpt lat="45.469128" lon="6.920092">
        <ele>2278.924</ele>
        <time>2018-07-17T11:17:54Z</time>
      </trkpt>
      <trkpt lat="45.469100" lon="6.920148">
        <ele>2279.520</ele>
        <time>2018-07-17T11:18:01Z</time>
      </trkpt>
      <trkpt lat="45.469074" lon="6.920207">
        <ele>2279.927</ele>
        <time>2018-07-17T11:18:07Z</time>
      </trkpt>
      <trkpt lat="45.469049" lon="6.920260">
        <ele>2280.599</ele>
        <time>2018-07-17T11:18:14Z</time>
      </trkpt>
      <trkpt lat="45.469016" lon="6.920309">
        <ele>2280.579</ele>
        <time>2018-07-17T11:18:24Z</time>
      </trkpt>
      <trkpt lat="45.469000" lon="6.920377">
        <ele>2281.310</ele>
        <time>2018-07-17T11:18:32Z</time>
      </trkpt>
      <trkpt lat="45.468985" lon="6.920440">
        <ele>2282.278</ele>
        <time>2018-07-17T11:18:40Z</time>
      </trkpt>
      <trkpt lat="45.468970" lon="6.920509">
        <ele>2283.133</ele>
        <time>2018-07-17T11:18:48Z</time>
      </trkpt>
      <trkpt lat="45.468971" lon="6.920577">
        <ele>2284.126</ele>
        <time>2018-07-17T11:18:55Z</time>
      </trkpt>
      <trkpt lat="45.468979" lon="6.920649">
        <ele>2285.108</ele>
        <time>2018-07-17T11:19:02Z</time>
      </trkpt>
      <trkpt lat="45.468989" lon="6.920718">
        <ele>2286.189</ele>
        <time>2018-07-17T11:19:09Z</time>
      </trkpt>
      <trkpt lat="45.468987" lon="6.920790">
        <ele>2287.193</ele>
        <time>2018-07-17T11:19:16Z</time>
      </trkpt>
      <trkpt lat="45.468975" lon="6.920854">
        <ele>2287.725</ele>
        <time>2018-07-17T11:19:23Z</time>
      </trkpt>
      <trkpt lat="45.468964" lon="6.920919">
        <ele>2288.911</ele>
        <time>2018-07-17T11:19:33Z</time>
      </trkpt>
      <trkpt lat="45.468948" lon="6.920980">
        <ele>2290.058</ele>
        <time>2018-07-17T11:19:43Z</time>
      </trkpt>
      <trkpt lat="45.468940" lon="6.921048">
        <ele>2291.550</ele>
        <time>2018-07-17T11:20:09Z</time>
      </trkpt>
      <trkpt lat="45.468923" lon="6.921109">
        <ele>2292.450</ele>
        <time>2018-07-17T11:20:29Z</time>
      </trkpt>
      <trkpt lat="45.468914" lon="6.921177">
        <ele>2293.381</ele>
        <time>2018-07-17T11:20:42Z</time>
      </trkpt>
      <trkpt lat="45.468912" lon="6.921242">
        <ele>2294.779</ele>
        <time>2018-07-17T11:20:51Z</time>
      </trkpt>
      <trkpt lat="45.468918" lon="6.921311">
        <ele>2296.305</ele>
        <time>2018-07-17T11:21:02Z</time>
      </trkpt>
      <trkpt lat="45.468908" lon="6.921379">
        <ele>2297.325</ele>
        <time>2018-07-17T11:21:13Z</time>
      </trkpt>
      <trkpt lat="45.468866" lon="6.921423">
        <ele>2297.908</ele>
        <time>2018-07-17T11:21:22Z</time>
      </trkpt>
      <trkpt lat="45.468823" lon="6.921471">
        <ele>2298.689</ele>
        <time>2018-07-17T11:21:28Z</time>
      </trkpt>
      <trkpt lat="45.468797" lon="6.921536">
        <ele>2299.073</ele>
        <time>2018-07-17T11:21:38Z</time>
      </trkpt>
      <trkpt lat="45.468792" lon="6.921602">
        <ele>2298.915</ele>
        <time>2018-07-17T11:21:46Z</time>
      </trkpt>
      <trkpt lat="45.468776" lon="6.921662">
        <ele>2298.821</ele>
        <time>2018-07-17T11:21:52Z</time>
      </trkpt>
      <trkpt lat="45.468763" lon="6.921732">
        <ele>2299.228</ele>
        <time>2018-07-17T11:21:59Z</time>
      </trkpt>
      <trkpt lat="45.468742" lon="6.921798">
        <ele>2299.870</ele>
        <time>2018-07-17T11:22:06Z</time>
      </trkpt>
      <trkpt lat="45.468723" lon="6.921858">
        <ele>2301.030</ele>
        <time>2018-07-17T11:22:17Z</time>
      </trkpt>
      <trkpt lat="45.468716" lon="6.921926">
        <ele>2301.381</ele>
        <time>2018-07-17T11:22:25Z</time>
      </trkpt>
      <trkpt lat="45.468732" lon="6.921994">
        <ele>2301.962</ele>
        <time>2018-07-17T11:22:32Z</time>
      </trkpt>
      <trkpt lat="45.468742" lon="6.922061">
        <ele>2302.683</ele>
        <time>2018-07-17T11:22:38Z</time>
      </trkpt>
      <trkpt lat="45.468749" lon="6.922131">
        <ele>2303.411</ele>
        <time>2018-07-17T11:22:47Z</time>
      </trkpt>
      <trkpt lat="45.468743" lon="6.922195">
        <ele>2303.908</ele>
        <time>2018-07-17T11:22:58Z</time>
      </trkpt>
      <trkpt lat="45.468727" lon="6.922261">
        <ele>2304.648</ele>
        <time>2018-07-17T11:23:19Z</time>
      </trkpt>
      <trkpt lat="45.468738" lon="6.922330">
        <ele>2305.032</ele>
        <time>2018-07-17T11:23:41Z</time>
      </trkpt>
      <trkpt lat="45.468732" lon="6.922404">
        <ele>2305.734</ele>
        <time>2018-07-17T11:23:47Z</time>
      </trkpt>
      <trkpt lat="45.468724" lon="6.922471">
        <ele>2306.110</ele>
        <time>2018-07-17T11:23:54Z</time>
      </trkpt>
      <trkpt lat="45.468729" lon="6.922539">
        <ele>2306.367</ele>
        <time>2018-07-17T11:24:01Z</time>
      </trkpt>
      <trkpt lat="45.468741" lon="6.922605">
        <ele>2306.829</ele>
        <time>2018-07-17T11:24:09Z</time>
      </trkpt>
      <trkpt lat="45.468754" lon="6.922670">
        <ele>2307.929</ele>
        <time>2018-07-17T11:24:16Z</time>
      </trkpt>
      <trkpt lat="45.468755" lon="6.922735">
        <ele>2308.250</ele>
        <time>2018-07-17T11:24:22Z</time>
      </trkpt>
      <trkpt lat="45.468755" lon="6.922803">
        <ele>2308.857</ele>
        <time>2018-07-17T11:24:29Z</time>
      </trkpt>
      <trkpt lat="45.468739" lon="6.922871">
        <ele>2309.100</ele>
        <time>2018-07-17T11:24:37Z</time>
      </trkpt>
      <trkpt lat="45.468734" lon="6.922940">
        <ele>2310.120</ele>
        <time>2018-07-17T11:24:48Z</time>
      </trkpt>
      <trkpt lat="45.468755" lon="6.922999">
        <ele>2310.708</ele>
        <time>2018-07-17T11:24:56Z</time>
      </trkpt>
      <trkpt lat="45.468784" lon="6.923048">
        <ele>2310.777</ele>
        <time>2018-07-17T11:25:02Z</time>
      </trkpt>
      <trkpt lat="45.468803" lon="6.923108">
        <ele>2310.791</ele>
        <time>2018-07-17T11:25:10Z</time>
      </trkpt>
      <trkpt lat="45.468813" lon="6.923178">
        <ele>2311.193</ele>
        <time>2018-07-17T11:25:18Z</time>
      </trkpt>
      <trkpt lat="45.468831" lon="6.923238">
        <ele>2311.329</ele>
        <time>2018-07-17T11:25:25Z</time>
      </trkpt>
      <trkpt lat="45.468864" lon="6.923289">
        <ele>2311.416</ele>
        <time>2018-07-17T11:25:31Z</time>
      </trkpt>
      <trkpt lat="45.468887" lon="6.923351">
        <ele>2311.968</ele>
        <time>2018-07-17T11:25:39Z</time>
      </trkpt>
      <trkpt lat="45.468891" lon="6.923417">
        <ele>2312.678</ele>
        <time>2018-07-17T11:25:49Z</time>
      </trkpt>
      <trkpt lat="45.468910" lon="6.923476">
        <ele>2313.489</ele>
        <time>2018-07-17T11:25:58Z</time>
      </trkpt>
      <trkpt lat="45.468944" lon="6.923520">
        <ele>2313.976</ele>
        <time>2018-07-17T11:26:06Z</time>
      </trkpt>
      <trkpt lat="45.468984" lon="6.923557">
        <ele>2314.290</ele>
        <time>2018-07-17T11:26:13Z</time>
      </trkpt>
      <trkpt lat="45.469008" lon="6.923616">
        <ele>2314.819</ele>
        <time>2018-07-17T11:26:21Z</time>
      </trkpt>
      <trkpt lat="45.469031" lon="6.923677">
        <ele>2315.508</ele>
        <time>2018-07-17T11:26:29Z</time>
      </trkpt>
      <trkpt lat="45.469044" lon="6.923749">
        <ele>2315.969</ele>
        <time>2018-07-17T11:26:36Z</time>
      </trkpt>
      <trkpt lat="45.469053" lon="6.923819">
        <ele>2317.033</ele>
        <time>2018-07-17T11:26:43Z</time>
      </trkpt>
      <trkpt lat="45.469052" lon="6.923884">
        <ele>2317.665</ele>
        <time>2018-07-17T11:26:50Z</time>
      </trkpt>
      <trkpt lat="45.469040" lon="6.923951">
        <ele>2318.481</ele>
        <time>2018-07-17T11:26:59Z</time>
      </trkpt>
      <trkpt lat="45.469041" lon="6.924016">
        <ele>2318.978</ele>
        <time>2018-07-17T11:27:06Z</time>
      </trkpt>
      <trkpt lat="45.469054" lon="6.924087">
        <ele>2319.230</ele>
        <time>2018-07-17T11:27:13Z</time>
      </trkpt>
      <trkpt lat="45.469082" lon="6.924141">
        <ele>2319.480</ele>
        <time>2018-07-17T11:27:21Z</time>
      </trkpt>
      <trkpt lat="45.469087" lon="6.924212">
        <ele>2319.951</ele>
        <time>2018-07-17T11:27:29Z</time>
      </trkpt>
      <trkpt lat="45.469086" lon="6.924277">
        <ele>2320.669</ele>
        <time>2018-07-17T11:27:36Z</time>
      </trkpt>
      <trkpt lat="45.469069" lon="6.924345">
        <ele>2321.404</ele>
        <time>2018-07-17T11:27:44Z</time>
      </trkpt>
      <trkpt lat="45.469045" lon="6.924402">
        <ele>2321.524</ele>
        <time>2018-07-17T11:27:51Z</time>
      </trkpt>
      <trkpt lat="45.469019" lon="6.924457">
        <ele>2321.608</ele>
        <time>2018-07-17T11:28:00Z</time>
      </trkpt>
      <trkpt lat="45.468996" lon="6.924515">
        <ele>2322.458</ele>
        <time>2018-07-17T11:28:17Z</time>
      </trkpt>
      <trkpt lat="45.468970" lon="6.924570">
        <ele>2322.132</ele>
        <time>2018-07-17T11:29:30Z</time>
      </trkpt>
      <trkpt lat="45.468935" lon="6.924624">
        <ele>2321.964</ele>
        <time>2018-07-17T11:29:36Z</time>
      </trkpt>
      <trkpt lat="45.468905" lon="6.924681">
        <ele>2321.890</ele>
        <time>2018-07-17T11:29:43Z</time>
      </trkpt>
      <trkpt lat="45.468877" lon="6.924736">
        <ele>2321.767</ele>
        <time>2018-07-17T11:29:50Z</time>
      </trkpt>
      <trkpt lat="45.468872" lon="6.924802">
        <ele>2321.759</ele>
        <time>2018-07-17T11:29:57Z</time>
      </trkpt>
      <trkpt lat="45.468867" lon="6.924875">
        <ele>2322.159</ele>
        <time>2018-07-17T11:30:06Z</time>
      </trkpt>
      <trkpt lat="45.468856" lon="6.924942">
        <ele>2322.390</ele>
        <time>2018-07-17T11:30:13Z</time>
      </trkpt>
      <trkpt lat="45.468828" lon="6.924998">
        <ele>2322.498</ele>
        <time>2018-07-17T11:30:20Z</time>
      </trkpt>
      <trkpt lat="45.468780" lon="6.925012">
        <ele>2322.515</ele>
        <time>2018-07-17T11:30:29Z</time>
      </trkpt>
      <trkpt lat="45.468742" lon="6.925058">
        <ele>2322.926</ele>
        <time>2018-07-17T11:30:36Z</time>
      </trkpt>
      <trkpt lat="45.468698" lon="6.925081">
        <ele>2322.808</ele>
        <time>2018-07-17T11:30:42Z</time>
      </trkpt>
      <trkpt lat="45.468655" lon="6.925114">
        <ele>2322.341</ele>
        <time>2018-07-17T11:30:49Z</time>
      </trkpt>
      <trkpt lat="45.468622" lon="6.925168">
        <ele>2322.065</ele>
        <time>2018-07-17T11:30:55Z</time>
      </trkpt>
      <trkpt lat="45.468594" lon="6.925223">
        <ele>2322.237</ele>
        <time>2018-07-17T11:31:02Z</time>
      </trkpt>
      <trkpt lat="45.468573" lon="6.925285">
        <ele>2322.743</ele>
        <time>2018-07-17T11:31:10Z</time>
      </trkpt>
      <trkpt lat="45.468536" lon="6.925331">
        <ele>2323.460</ele>
        <time>2018-07-17T11:31:18Z</time>
      </trkpt>
      <trkpt lat="45.468502" lon="6.925377">
        <ele>2323.812</ele>
        <time>2018-07-17T11:31:24Z</time>
      </trkpt>
      <trkpt lat="45.468472" lon="6.925432">
        <ele>2323.782</ele>
        <time>2018-07-17T11:31:30Z</time>
      </trkpt>
      <trkpt lat="45.468443" lon="6.925493">
        <ele>2323.293</ele>
        <time>2018-07-17T11:31:37Z</time>
      </trkpt>
      <trkpt lat="45.468405" lon="6.925535">
        <ele>2323.328</ele>
        <time>2018-07-17T11:31:44Z</time>
      </trkpt>
      <trkpt lat="45.468365" lon="6.925572">
        <ele>2323.489</ele>
        <time>2018-07-17T11:31:50Z</time>
      </trkpt>
      <trkpt lat="45.468323" lon="6.925596">
        <ele>2324.217</ele>
        <time>2018-07-17T11:31:57Z</time>
      </trkpt>
      <trkpt lat="45.468309" lon="6.925657">
        <ele>2324.308</ele>
        <time>2018-07-17T11:32:05Z</time>
      </trkpt>
      <trkpt lat="45.468266" lon="6.925679">
        <ele>2324.084</ele>
        <time>2018-07-17T11:32:12Z</time>
      </trkpt>
      <trkpt lat="45.468229" lon="6.925717">
        <ele>2323.018</ele>
        <time>2018-07-17T11:32:22Z</time>
      </trkpt>
      <trkpt lat="45.468195" lon="6.925758">
        <ele>2321.610</ele>
        <time>2018-07-17T11:32:31Z</time>
      </trkpt>
      <trkpt lat="45.468150" lon="6.925796">
        <ele>2320.816</ele>
        <time>2018-07-17T11:32:39Z</time>
      </trkpt>
      <trkpt lat="45.468127" lon="6.925855">
        <ele>2320.783</ele>
        <time>2018-07-17T11:32:46Z</time>
      </trkpt>
      <trkpt lat="45.468109" lon="6.925918">
        <ele>2320.615</ele>
        <time>2018-07-17T11:32:56Z</time>
      </trkpt>
      <trkpt lat="45.468104" lon="6.925988">
        <ele>2320.615</ele>
        <time>2018-07-17T11:33:04Z</time>
      </trkpt>
      <trkpt lat="45.468082" lon="6.926052">
        <ele>2321.086</ele>
        <time>2018-07-17T11:33:13Z</time>
      </trkpt>
      <trkpt lat="45.468060" lon="6.926110">
        <ele>2321.692</ele>
        <time>2018-07-17T11:33:21Z</time>
      </trkpt>
      <trkpt lat="45.468046" lon="6.926175">
        <ele>2322.473</ele>
        <time>2018-07-17T11:33:29Z</time>
      </trkpt>
      <trkpt lat="45.468031" lon="6.926241">
        <ele>2323.720</ele>
        <time>2018-07-17T11:33:36Z</time>
      </trkpt>
      <trkpt lat="45.468018" lon="6.926308">
        <ele>2324.508</ele>
        <time>2018-07-17T11:33:42Z</time>
      </trkpt>
      <trkpt lat="45.468004" lon="6.926376">
        <ele>2325.421</ele>
        <time>2018-07-17T11:33:48Z</time>
      </trkpt>
      <trkpt lat="45.467986" lon="6.926441">
        <ele>2325.975</ele>
        <time>2018-07-17T11:33:54Z</time>
      </trkpt>
      <trkpt lat="45.467969" lon="6.926502">
        <ele>2326.657</ele>
        <time>2018-07-17T11:34:00Z</time>
      </trkpt>
      <trkpt lat="45.467945" lon="6.926561">
        <ele>2326.673</ele>
        <time>2018-07-17T11:34:06Z</time>
      </trkpt>
      <trkpt lat="45.467916" lon="6.926625">
        <ele>2326.620</ele>
        <time>2018-07-17T11:34:12Z</time>
      </trkpt>
      <trkpt lat="45.467893" lon="6.926681">
        <ele>2326.632</ele>
        <time>2018-07-17T11:34:17Z</time>
      </trkpt>
      <trkpt lat="45.467871" lon="6.926738">
        <ele>2326.252</ele>
        <time>2018-07-17T11:34:22Z</time>
      </trkpt>
      <trkpt lat="45.467842" lon="6.926796">
        <ele>2326.053</ele>
        <time>2018-07-17T11:34:27Z</time>
      </trkpt>
      <trkpt lat="45.467813" lon="6.926856">
        <ele>2326.711</ele>
        <time>2018-07-17T11:34:33Z</time>
      </trkpt>
      <trkpt lat="45.467791" lon="6.926913">
        <ele>2326.721</ele>
        <time>2018-07-17T11:34:38Z</time>
      </trkpt>
      <trkpt lat="45.467760" lon="6.926976">
        <ele>2327.103</ele>
        <time>2018-07-17T11:34:44Z</time>
      </trkpt>
      <trkpt lat="45.467731" lon="6.927030">
        <ele>2326.908</ele>
        <time>2018-07-17T11:34:49Z</time>
      </trkpt>
      <trkpt lat="45.467699" lon="6.927091">
        <ele>2327.293</ele>
        <time>2018-07-17T11:34:55Z</time>
      </trkpt>
      <trkpt lat="45.467665" lon="6.927143">
        <ele>2327.027</ele>
        <time>2018-07-17T11:35:00Z</time>
      </trkpt>
      <trkpt lat="45.467633" lon="6.927197">
        <ele>2327.389</ele>
        <time>2018-07-17T11:35:06Z</time>
      </trkpt>
      <trkpt lat="45.467603" lon="6.927255">
        <ele>2327.565</ele>
        <time>2018-07-17T11:35:12Z</time>
      </trkpt>
      <trkpt lat="45.467583" lon="6.927319">
        <ele>2328.062</ele>
        <time>2018-07-17T11:35:18Z</time>
      </trkpt>
      <trkpt lat="45.467560" lon="6.927383">
        <ele>2328.394</ele>
        <time>2018-07-17T11:35:24Z</time>
      </trkpt>
      <trkpt lat="45.467541" lon="6.927447">
        <ele>2328.574</ele>
        <time>2018-07-17T11:35:29Z</time>
      </trkpt>
      <trkpt lat="45.467523" lon="6.927519">
        <ele>2328.655</ele>
        <time>2018-07-17T11:35:34Z</time>
      </trkpt>
      <trkpt lat="45.467503" lon="6.927586">
        <ele>2328.312</ele>
        <time>2018-07-17T11:35:39Z</time>
      </trkpt>
      <trkpt lat="45.467478" lon="6.927645">
        <ele>2328.532</ele>
        <time>2018-07-17T11:35:44Z</time>
      </trkpt>
      <trkpt lat="45.467459" lon="6.927708">
        <ele>2328.605</ele>
        <time>2018-07-17T11:35:49Z</time>
      </trkpt>
      <trkpt lat="45.467441" lon="6.927777">
        <ele>2329.108</ele>
        <time>2018-07-17T11:35:54Z</time>
      </trkpt>
      <trkpt lat="45.467422" lon="6.927840">
        <ele>2329.443</ele>
        <time>2018-07-17T11:35:59Z</time>
      </trkpt>
      <trkpt lat="45.467405" lon="6.927906">
        <ele>2329.237</ele>
        <time>2018-07-17T11:36:04Z</time>
      </trkpt>
      <trkpt lat="45.467389" lon="6.927973">
        <ele>2329.539</ele>
        <time>2018-07-17T11:36:09Z</time>
      </trkpt>
      <trkpt lat="45.467370" lon="6.928041">
        <ele>2329.775</ele>
        <time>2018-07-17T11:36:14Z</time>
      </trkpt>
      <trkpt lat="45.467352" lon="6.928104">
        <ele>2329.872</ele>
        <time>2018-07-17T11:36:19Z</time>
      </trkpt>
      <trkpt lat="45.467328" lon="6.928161">
        <ele>2330.364</ele>
        <time>2018-07-17T11:36:24Z</time>
      </trkpt>
      <trkpt lat="45.467301" lon="6.928221">
        <ele>2330.664</ele>
        <time>2018-07-17T11:36:30Z</time>
      </trkpt>
      <trkpt lat="45.467279" lon="6.928278">
        <ele>2331.235</ele>
        <time>2018-07-17T11:36:35Z</time>
      </trkpt>
      <trkpt lat="45.467260" lon="6.928342">
        <ele>2331.596</ele>
        <time>2018-07-17T11:36:41Z</time>
      </trkpt>
      <trkpt lat="45.467282" lon="6.928402">
        <ele>2331.731</ele>
        <time>2018-07-17T11:36:49Z</time>
      </trkpt>
      <trkpt lat="45.467302" lon="6.928464">
        <ele>2332.224</ele>
        <time>2018-07-17T11:36:59Z</time>
      </trkpt>
      <trkpt lat="45.467302" lon="6.928532">
        <ele>2332.508</ele>
        <time>2018-07-17T11:37:08Z</time>
      </trkpt>
      <trkpt lat="45.467299" lon="6.928598">
        <ele>2333.161</ele>
        <time>2018-07-17T11:37:17Z</time>
      </trkpt>
      <trkpt lat="45.467277" lon="6.928661">
        <ele>2333.525</ele>
        <time>2018-07-17T11:37:25Z</time>
      </trkpt>
      <trkpt lat="45.467262" lon="6.928726">
        <ele>2334.197</ele>
        <time>2018-07-17T11:37:34Z</time>
      </trkpt>
      <trkpt lat="45.467222" lon="6.928770">
        <ele>2334.513</ele>
        <time>2018-07-17T11:37:44Z</time>
      </trkpt>
      <trkpt lat="45.467186" lon="6.928819">
        <ele>2334.340</ele>
        <time>2018-07-17T11:37:52Z</time>
      </trkpt>
      <trkpt lat="45.467144" lon="6.928865">
        <ele>2333.872</ele>
        <time>2018-07-17T11:37:58Z</time>
      </trkpt>
      <trkpt lat="45.467098" lon="6.928889">
        <ele>2333.592</ele>
        <time>2018-07-17T11:38:04Z</time>
      </trkpt>
      <trkpt lat="45.467056" lon="6.928917">
        <ele>2333.363</ele>
        <time>2018-07-17T11:38:10Z</time>
      </trkpt>
      <trkpt lat="45.467010" lon="6.928920">
        <ele>2332.854</ele>
        <time>2018-07-17T11:38:32Z</time>
      </trkpt>
      <trkpt lat="45.466959" lon="6.928940">
        <ele>2332.156</ele>
        <time>2018-07-17T11:38:41Z</time>
      </trkpt>
      <trkpt lat="45.466910" lon="6.928982">
        <ele>2331.311</ele>
        <time>2018-07-17T11:39:04Z</time>
      </trkpt>
      <trkpt lat="45.466900" lon="6.929048">
        <ele>2331.208</ele>
        <time>2018-07-17T11:39:24Z</time>
      </trkpt>
      <trkpt lat="45.466899" lon="6.929120">
        <ele>2330.797</ele>
        <time>2018-07-17T11:39:30Z</time>
      </trkpt>
      <trkpt lat="45.466896" lon="6.929190">
        <ele>2330.471</ele>
        <time>2018-07-17T11:39:35Z</time>
      </trkpt>
      <trkpt lat="45.466909" lon="6.929268">
        <ele>2329.833</ele>
        <time>2018-07-17T11:39:40Z</time>
      </trkpt>
      <trkpt lat="45.466918" lon="6.929343">
        <ele>2329.939</ele>
        <time>2018-07-17T11:39:45Z</time>
      </trkpt>
      <trkpt lat="45.466924" lon="6.929412">
        <ele>2329.576</ele>
        <time>2018-07-17T11:39:50Z</time>
      </trkpt>
      <trkpt lat="45.466907" lon="6.929477">
        <ele>2329.338</ele>
        <time>2018-07-17T11:39:57Z</time>
      </trkpt>
      <trkpt lat="45.466870" lon="6.929526">
        <ele>2329.298</ele>
        <time>2018-07-17T11:40:05Z</time>
      </trkpt>
      <trkpt lat="45.466852" lon="6.929590">
        <ele>2329.179</ele>
        <time>2018-07-17T11:40:11Z</time>
      </trkpt>
      <trkpt lat="45.466834" lon="6.929656">
        <ele>2328.758</ele>
        <time>2018-07-17T11:40:18Z</time>
      </trkpt>
      <trkpt lat="45.466820" lon="6.929724">
        <ele>2328.452</ele>
        <time>2018-07-17T11:40:26Z</time>
      </trkpt>
      <trkpt lat="45.466815" lon="6.929789">
        <ele>2327.417</ele>
        <time>2018-07-17T11:40:34Z</time>
      </trkpt>
      <trkpt lat="45.466823" lon="6.929855">
        <ele>2326.008</ele>
        <time>2018-07-17T11:40:45Z</time>
      </trkpt>
      <trkpt lat="45.466868" lon="6.929863">
        <ele>2324.887</ele>
        <time>2018-07-17T11:40:51Z</time>
      </trkpt>
      <trkpt lat="45.466916" lon="6.929844">
        <ele>2324.181</ele>
        <time>2018-07-17T11:40:57Z</time>
      </trkpt>
      <trkpt lat="45.466964" lon="6.929831">
        <ele>2323.383</ele>
        <time>2018-07-17T11:41:03Z</time>
      </trkpt>
      <trkpt lat="45.467014" lon="6.929837">
        <ele>2322.019</ele>
        <time>2018-07-17T11:41:11Z</time>
      </trkpt>
      <trkpt lat="45.467035" lon="6.929905">
        <ele>2321.246</ele>
        <time>2018-07-17T11:41:18Z</time>
      </trkpt>
      <trkpt lat="45.467036" lon="6.929974">
        <ele>2319.958</ele>
        <time>2018-07-17T11:41:24Z</time>
      </trkpt>
      <trkpt lat="45.467037" lon="6.930046">
        <ele>2319.178</ele>
        <time>2018-07-17T11:41:29Z</time>
      </trkpt>
      <trkpt lat="45.467037" lon="6.930121">
        <ele>2318.289</ele>
        <time>2018-07-17T11:41:34Z</time>
      </trkpt>
      <trkpt lat="45.467045" lon="6.930196">
        <ele>2317.311</ele>
        <time>2018-07-17T11:41:39Z</time>
      </trkpt>
      <trkpt lat="45.467051" lon="6.930276">
        <ele>2316.821</ele>
        <time>2018-07-17T11:41:44Z</time>
      </trkpt>
      <trkpt lat="45.467058" lon="6.930343">
        <ele>2316.503</ele>
        <time>2018-07-17T11:41:48Z</time>
      </trkpt>
      <trkpt lat="45.467067" lon="6.930409">
        <ele>2316.308</ele>
        <time>2018-07-17T11:41:52Z</time>
      </trkpt>
      <trkpt lat="45.467069" lon="6.930474">
        <ele>2316.273</ele>
        <time>2018-07-17T11:41:56Z</time>
      </trkpt>
      <trkpt lat="45.467066" lon="6.930539">
        <ele>2315.717</ele>
        <time>2018-07-17T11:42:00Z</time>
      </trkpt>
      <trkpt lat="45.467074" lon="6.930613">
        <ele>2315.469</ele>
        <time>2018-07-17T11:42:05Z</time>
      </trkpt>
      <trkpt lat="45.467106" lon="6.930665">
        <ele>2314.465</ele>
        <time>2018-07-17T11:42:10Z</time>
      </trkpt>
      <trkpt lat="45.467155" lon="6.930679">
        <ele>2313.072</ele>
        <time>2018-07-17T11:42:16Z</time>
      </trkpt>
      <trkpt lat="45.467206" lon="6.930704">
        <ele>2311.494</ele>
        <time>2018-07-17T11:42:22Z</time>
      </trkpt>
      <trkpt lat="45.467251" lon="6.930745">
        <ele>2310.014</ele>
        <time>2018-07-17T11:42:27Z</time>
      </trkpt>
      <trkpt lat="45.467300" lon="6.930779">
        <ele>2308.825</ele>
        <time>2018-07-17T11:42:32Z</time>
      </trkpt>
      <trkpt lat="45.467334" lon="6.930826">
        <ele>2308.191</ele>
        <time>2018-07-17T11:42:37Z</time>
      </trkpt>
      <trkpt lat="45.467354" lon="6.930893">
        <ele>2307.781</ele>
        <time>2018-07-17T11:42:42Z</time>
      </trkpt>
      <trkpt lat="45.467373" lon="6.930963">
        <ele>2307.019</ele>
        <time>2018-07-17T11:42:47Z</time>
      </trkpt>
      <trkpt lat="45.467385" lon="6.931032">
        <ele>2306.608</ele>
        <time>2018-07-17T11:42:52Z</time>
      </trkpt>
      <trkpt lat="45.467391" lon="6.931104">
        <ele>2306.021</ele>
        <time>2018-07-17T11:42:57Z</time>
      </trkpt>
      <trkpt lat="45.467383" lon="6.931173">
        <ele>2305.265</ele>
        <time>2018-07-17T11:43:01Z</time>
      </trkpt>
      <trkpt lat="45.467373" lon="6.931245">
        <ele>2304.717</ele>
        <time>2018-07-17T11:43:05Z</time>
      </trkpt>
      <trkpt lat="45.467364" lon="6.931311">
        <ele>2304.023</ele>
        <time>2018-07-17T11:43:09Z</time>
      </trkpt>
      <trkpt lat="45.467354" lon="6.931375">
        <ele>2303.640</ele>
        <time>2018-07-17T11:43:13Z</time>
      </trkpt>
      <trkpt lat="45.467341" lon="6.931437">
        <ele>2303.832</ele>
        <time>2018-07-17T11:43:17Z</time>
      </trkpt>
      <trkpt lat="45.467316" lon="6.931509">
        <ele>2303.572</ele>
        <time>2018-07-17T11:43:22Z</time>
      </trkpt>
      <trkpt lat="45.467282" lon="6.931573">
        <ele>2303.393</ele>
        <time>2018-07-17T11:43:27Z</time>
      </trkpt>
      <trkpt lat="45.467237" lon="6.931607">
        <ele>2302.879</ele>
        <time>2018-07-17T11:43:32Z</time>
      </trkpt>
      <trkpt lat="45.467196" lon="6.931639">
        <ele>2302.505</ele>
        <time>2018-07-17T11:43:37Z</time>
      </trkpt>
      <trkpt lat="45.467152" lon="6.931682">
        <ele>2301.925</ele>
        <time>2018-07-17T11:43:42Z</time>
      </trkpt>
      <trkpt lat="45.467115" lon="6.931732">
        <ele>2301.108</ele>
        <time>2018-07-17T11:43:47Z</time>
      </trkpt>
      <trkpt lat="45.467091" lon="6.931787">
        <ele>2300.219</ele>
        <time>2018-07-17T11:43:51Z</time>
      </trkpt>
      <trkpt lat="45.467055" lon="6.931842">
        <ele>2299.733</ele>
        <time>2018-07-17T11:43:56Z</time>
      </trkpt>
      <trkpt lat="45.467026" lon="6.931891">
        <ele>2299.075</ele>
        <time>2018-07-17T11:44:00Z</time>
      </trkpt>
      <trkpt lat="45.466991" lon="6.931942">
        <ele>2298.251</ele>
        <time>2018-07-17T11:44:05Z</time>
      </trkpt>
      <trkpt lat="45.466957" lon="6.931993">
        <ele>2297.748</ele>
        <time>2018-07-17T11:44:10Z</time>
      </trkpt>
      <trkpt lat="45.466927" lon="6.932051">
        <ele>2297.450</ele>
        <time>2018-07-17T11:44:16Z</time>
      </trkpt>
      <trkpt lat="45.466887" lon="6.932103">
        <ele>2296.460</ele>
        <time>2018-07-17T11:44:22Z</time>
      </trkpt>
      <trkpt lat="45.466847" lon="6.932141">
        <ele>2295.451</ele>
        <time>2018-07-17T11:44:27Z</time>
      </trkpt>
      <trkpt lat="45.466804" lon="6.932188">
        <ele>2295.254</ele>
        <time>2018-07-17T11:44:32Z</time>
      </trkpt>
      <trkpt lat="45.466771" lon="6.932246">
        <ele>2295.156</ele>
        <time>2018-07-17T11:44:37Z</time>
      </trkpt>
      <trkpt lat="45.466739" lon="6.932308">
        <ele>2295.011</ele>
        <time>2018-07-17T11:44:42Z</time>
      </trkpt>
      <trkpt lat="45.466704" lon="6.932350">
        <ele>2295.408</ele>
        <time>2018-07-17T11:45:01Z</time>
      </trkpt>
      <trkpt lat="45.466658" lon="6.932372">
        <ele>2294.817</ele>
        <time>2018-07-17T11:45:21Z</time>
      </trkpt>
      <trkpt lat="45.466616" lon="6.932413">
        <ele>2294.081</ele>
        <time>2018-07-17T11:45:29Z</time>
      </trkpt>
      <trkpt lat="45.466585" lon="6.932466">
        <ele>2293.113</ele>
        <time>2018-07-17T11:45:35Z</time>
      </trkpt>
      <trkpt lat="45.466560" lon="6.932523">
        <ele>2292.239</ele>
        <time>2018-07-17T11:45:41Z</time>
      </trkpt>
      <trkpt lat="45.466537" lon="6.932583">
        <ele>2291.756</ele>
        <time>2018-07-17T11:45:47Z</time>
      </trkpt>
      <trkpt lat="45.466512" lon="6.932640">
        <ele>2291.088</ele>
        <time>2018-07-17T11:45:52Z</time>
      </trkpt>
      <trkpt lat="45.466489" lon="6.932703">
        <ele>2291.058</ele>
        <time>2018-07-17T11:45:57Z</time>
      </trkpt>
      <trkpt lat="45.466470" lon="6.932772">
        <ele>2290.669</ele>
        <time>2018-07-17T11:46:02Z</time>
      </trkpt>
      <trkpt lat="45.466453" lon="6.932848">
        <ele>2289.992</ele>
        <time>2018-07-17T11:46:07Z</time>
      </trkpt>
      <trkpt lat="45.466437" lon="6.932914">
        <ele>2289.173</ele>
        <time>2018-07-17T11:46:12Z</time>
      </trkpt>
      <trkpt lat="45.466401" lon="6.932966">
        <ele>2288.220</ele>
        <time>2018-07-17T11:46:30Z</time>
      </trkpt>
      <trkpt lat="45.466387" lon="6.933032">
        <ele>2288.508</ele>
        <time>2018-07-17T11:47:26Z</time>
      </trkpt>
      <trkpt lat="45.466361" lon="6.933087">
        <ele>2288.321</ele>
        <time>2018-07-17T11:47:31Z</time>
      </trkpt>
      <trkpt lat="45.466337" lon="6.933148">
        <ele>2287.835</ele>
        <time>2018-07-17T11:47:36Z</time>
      </trkpt>
      <trkpt lat="45.466308" lon="6.933216">
        <ele>2287.187</ele>
        <time>2018-07-17T11:47:41Z</time>
      </trkpt>
      <trkpt lat="45.466281" lon="6.933272">
        <ele>2286.313</ele>
        <time>2018-07-17T11:47:46Z</time>
      </trkpt>
      <trkpt lat="45.466256" lon="6.933327">
        <ele>2285.450</ele>
        <time>2018-07-17T11:47:51Z</time>
      </trkpt>
      <trkpt lat="45.466232" lon="6.933387">
        <ele>2284.582</ele>
        <time>2018-07-17T11:47:55Z</time>
      </trkpt>
      <trkpt lat="45.466225" lon="6.933457">
        <ele>2282.782</ele>
        <time>2018-07-17T11:48:02Z</time>
      </trkpt>
      <trkpt lat="45.466194" lon="6.933516">
        <ele>2282.023</ele>
        <time>2018-07-17T11:48:07Z</time>
      </trkpt>
      <trkpt lat="45.466163" lon="6.933568">
        <ele>2282.075</ele>
        <time>2018-07-17T11:48:11Z</time>
      </trkpt>
      <trkpt lat="45.466134" lon="6.933620">
        <ele>2282.028</ele>
        <time>2018-07-17T11:48:15Z</time>
      </trkpt>
      <trkpt lat="45.466102" lon="6.933681">
        <ele>2282.420</ele>
        <time>2018-07-17T11:48:20Z</time>
      </trkpt>
      <trkpt lat="45.466074" lon="6.933734">
        <ele>2282.608</ele>
        <time>2018-07-17T11:48:24Z</time>
      </trkpt>
      <trkpt lat="45.466043" lon="6.933798">
        <ele>2282.719</ele>
        <time>2018-07-17T11:48:29Z</time>
      </trkpt>
      <trkpt lat="45.466004" lon="6.933849">
        <ele>2283.263</ele>
        <time>2018-07-17T11:48:34Z</time>
      </trkpt>
      <trkpt lat="45.465968" lon="6.933907">
        <ele>2283.595</ele>
        <time>2018-07-17T11:48:39Z</time>
      </trkpt>
      <trkpt lat="45.465940" lon="6.933958">
        <ele>2283.731</ele>
        <time>2018-07-17T11:48:43Z</time>
      </trkpt>
      <trkpt lat="45.465917" lon="6.934024">
        <ele>2283.458</ele>
        <time>2018-07-17T11:48:48Z</time>
      </trkpt>
      <trkpt lat="45.465888" lon="6.934084">
        <ele>2283.290</ele>
        <time>2018-07-17T11:48:53Z</time>
      </trkpt>
      <trkpt lat="45.465855" lon="6.934145">
        <ele>2282.720</ele>
        <time>2018-07-17T11:48:58Z</time>
      </trkpt>
      <trkpt lat="45.465824" lon="6.934198">
        <ele>2282.031</ele>
        <time>2018-07-17T11:49:03Z</time>
      </trkpt>
      <trkpt lat="45.465790" lon="6.934253">
        <ele>2282.837</ele>
        <time>2018-07-17T11:49:08Z</time>
      </trkpt>
      <trkpt lat="45.465758" lon="6.934299">
        <ele>2282.549</ele>
        <time>2018-07-17T11:49:18Z</time>
      </trkpt>
      <trkpt lat="45.465729" lon="6.934356">
        <ele>2282.313</ele>
        <time>2018-07-17T11:49:24Z</time>
      </trkpt>
      <trkpt lat="45.465697" lon="6.934404">
        <ele>2282.208</ele>
        <time>2018-07-17T11:49:29Z</time>
      </trkpt>
      <trkpt lat="45.465657" lon="6.934449">
        <ele>2282.555</ele>
        <time>2018-07-17T11:49:34Z</time>
      </trkpt>
      <trkpt lat="45.465616" lon="6.934482">
        <ele>2283.599</ele>
        <time>2018-07-17T11:49:39Z</time>
      </trkpt>
      <trkpt lat="45.465560" lon="6.934507">
        <ele>2283.341</ele>
        <time>2018-07-17T11:49:53Z</time>
      </trkpt>
      <trkpt lat="45.465512" lon="6.934540">
        <ele>2282.417</ele>
        <time>2018-07-17T11:50:00Z</time>
      </trkpt>
      <trkpt lat="45.465467" lon="6.934575">
        <ele>2281.434</ele>
        <time>2018-07-17T11:50:05Z</time>
      </trkpt>
      <trkpt lat="45.465415" lon="6.934600">
        <ele>2280.016</ele>
        <time>2018-07-17T11:50:10Z</time>
      </trkpt>
      <trkpt lat="45.465360" lon="6.934620">
        <ele>2279.296</ele>
        <time>2018-07-17T11:50:15Z</time>
      </trkpt>
      <trkpt lat="45.465317" lon="6.934641">
        <ele>2278.387</ele>
        <time>2018-07-17T11:50:19Z</time>
      </trkpt>
      <trkpt lat="45.465272" lon="6.934685">
        <ele>2278.651</ele>
        <time>2018-07-17T11:50:24Z</time>
      </trkpt>
      <trkpt lat="45.465234" lon="6.934743">
        <ele>2278.801</ele>
        <time>2018-07-17T11:50:29Z</time>
      </trkpt>
      <trkpt lat="45.465203" lon="6.934790">
        <ele>2278.911</ele>
        <time>2018-07-17T11:50:33Z</time>
      </trkpt>
      <trkpt lat="45.465182" lon="6.934853">
        <ele>2279.008</ele>
        <time>2018-07-17T11:50:38Z</time>
      </trkpt>
      <trkpt lat="45.465154" lon="6.934915">
        <ele>2279.027</ele>
        <time>2018-07-17T11:50:44Z</time>
      </trkpt>
      <trkpt lat="45.465121" lon="6.934977">
        <ele>2279.041</ele>
        <time>2018-07-17T11:51:20Z</time>
      </trkpt>
      <trkpt lat="45.465095" lon="6.935030">
        <ele>2279.043</ele>
        <time>2018-07-17T11:51:26Z</time>
      </trkpt>
      <trkpt lat="45.465078" lon="6.935098">
        <ele>2279.039</ele>
        <time>2018-07-17T11:51:31Z</time>
      </trkpt>
      <trkpt lat="45.465064" lon="6.935174">
        <ele>2279.056</ele>
        <time>2018-07-17T11:51:36Z</time>
      </trkpt>
      <trkpt lat="45.465055" lon="6.935238">
        <ele>2279.058</ele>
        <time>2018-07-17T11:51:40Z</time>
      </trkpt>
      <trkpt lat="45.465046" lon="6.935316">
        <ele>2279.058</ele>
        <time>2018-07-17T11:51:45Z</time>
      </trkpt>
      <trkpt lat="45.465041" lon="6.935391">
        <ele>2278.229</ele>
        <time>2018-07-17T11:51:50Z</time>
      </trkpt>
      <trkpt lat="45.465038" lon="6.935468">
        <ele>2277.785</ele>
        <time>2018-07-17T11:51:55Z</time>
      </trkpt>
      <trkpt lat="45.465034" lon="6.935547">
        <ele>2277.489</ele>
        <time>2018-07-17T11:52:00Z</time>
      </trkpt>
      <trkpt lat="45.465028" lon="6.935614">
        <ele>2276.817</ele>
        <time>2018-07-17T11:52:04Z</time>
      </trkpt>
      <trkpt lat="45.465023" lon="6.935693">
        <ele>2276.508</ele>
        <time>2018-07-17T11:52:09Z</time>
      </trkpt>
      <trkpt lat="45.465017" lon="6.935759">
        <ele>2275.930</ele>
        <time>2018-07-17T11:52:13Z</time>
      </trkpt>
      <trkpt lat="45.465009" lon="6.935838">
        <ele>2275.544</ele>
        <time>2018-07-17T11:52:18Z</time>
      </trkpt>
      <trkpt lat="45.465002" lon="6.935903">
        <ele>2274.916</ele>
        <time>2018-07-17T11:52:22Z</time>
      </trkpt>
      <trkpt lat="45.464989" lon="6.935965">
        <ele>2274.522</ele>
        <time>2018-07-17T11:52:26Z</time>
      </trkpt>
      <trkpt lat="45.464972" lon="6.936026">
        <ele>2274.399</ele>
        <time>2018-07-17T11:52:30Z</time>
      </trkpt>
      <trkpt lat="45.464945" lon="6.936092">
        <ele>2273.891</ele>
        <time>2018-07-17T11:52:35Z</time>
      </trkpt>
      <trkpt lat="45.464917" lon="6.936149">
        <ele>2273.961</ele>
        <time>2018-07-17T11:52:39Z</time>
      </trkpt>
      <trkpt lat="45.464889" lon="6.936199">
        <ele>2273.512</ele>
        <time>2018-07-17T11:52:43Z</time>
      </trkpt>
      <trkpt lat="45.464859" lon="6.936258">
        <ele>2273.767</ele>
        <time>2018-07-17T11:52:48Z</time>
      </trkpt>
      <trkpt lat="45.464828" lon="6.936324">
        <ele>2274.281</ele>
        <time>2018-07-17T11:52:53Z</time>
      </trkpt>
      <trkpt lat="45.464802" lon="6.936378">
        <ele>2274.519</ele>
        <time>2018-07-17T11:52:57Z</time>
      </trkpt>
      <trkpt lat="45.464773" lon="6.936441">
        <ele>2274.708</ele>
        <time>2018-07-17T11:53:02Z</time>
      </trkpt>
      <trkpt lat="45.464749" lon="6.936497">
        <ele>2274.438</ele>
        <time>2018-07-17T11:53:06Z</time>
      </trkpt>
      <trkpt lat="45.464717" lon="6.936561">
        <ele>2275.092</ele>
        <time>2018-07-17T11:53:11Z</time>
      </trkpt>
      <trkpt lat="45.464693" lon="6.936625">
        <ele>2275.864</ele>
        <time>2018-07-17T11:53:16Z</time>
      </trkpt>
      <trkpt lat="45.464673" lon="6.936685">
        <ele>2276.380</ele>
        <time>2018-07-17T11:53:21Z</time>
      </trkpt>
      <trkpt lat="45.464655" lon="6.936748">
        <ele>2275.837</ele>
        <time>2018-07-17T11:53:27Z</time>
      </trkpt>
      <trkpt lat="45.464639" lon="6.936809">
        <ele>2275.149</ele>
        <time>2018-07-17T11:53:32Z</time>
      </trkpt>
      <trkpt lat="45.464616" lon="6.936875">
        <ele>2274.759</ele>
        <time>2018-07-17T11:53:37Z</time>
      </trkpt>
      <trkpt lat="45.464584" lon="6.936933">
        <ele>2274.050</ele>
        <time>2018-07-17T11:53:42Z</time>
      </trkpt>
      <trkpt lat="45.464549" lon="6.936988">
        <ele>2274.072</ele>
        <time>2018-07-17T11:53:47Z</time>
      </trkpt>
      <trkpt lat="45.464513" lon="6.937032">
        <ele>2273.613</ele>
        <time>2018-07-17T11:53:52Z</time>
      </trkpt>
      <trkpt lat="45.464478" lon="6.937075">
        <ele>2273.414</ele>
        <time>2018-07-17T11:53:57Z</time>
      </trkpt>
      <trkpt lat="45.464439" lon="6.937124">
        <ele>2272.508</ele>
        <time>2018-07-17T11:54:03Z</time>
      </trkpt>
      <trkpt lat="45.464397" lon="6.937169">
        <ele>2270.729</ele>
        <time>2018-07-17T11:54:09Z</time>
      </trkpt>
      <trkpt lat="45.464366" lon="6.937222">
        <ele>2268.843</ele>
        <time>2018-07-17T11:54:14Z</time>
      </trkpt>
      <trkpt lat="45.464337" lon="6.937272">
        <ele>2267.715</ele>
        <time>2018-07-17T11:54:18Z</time>
      </trkpt>
      <trkpt lat="45.464309" lon="6.937324">
        <ele>2266.631</ele>
        <time>2018-07-17T11:54:22Z</time>
      </trkpt>
      <trkpt lat="45.464275" lon="6.937388">
        <ele>2265.678</ele>
        <time>2018-07-17T11:54:27Z</time>
      </trkpt>
      <trkpt lat="45.464248" lon="6.937441">
        <ele>2265.430</ele>
        <time>2018-07-17T11:54:31Z</time>
      </trkpt>
      <trkpt lat="45.464225" lon="6.937508">
        <ele>2265.330</ele>
        <time>2018-07-17T11:54:36Z</time>
      </trkpt>
      <trkpt lat="45.464212" lon="6.937578">
        <ele>2264.881</ele>
        <time>2018-07-17T11:54:41Z</time>
      </trkpt>
      <trkpt lat="45.464202" lon="6.937645">
        <ele>2263.738</ele>
        <time>2018-07-17T11:54:46Z</time>
      </trkpt>
      <trkpt lat="45.464200" lon="6.937717">
        <ele>2262.670</ele>
        <time>2018-07-17T11:54:51Z</time>
      </trkpt>
      <trkpt lat="45.464187" lon="6.937786">
        <ele>2262.017</ele>
        <time>2018-07-17T11:54:56Z</time>
      </trkpt>
      <trkpt lat="45.464170" lon="6.937852">
        <ele>2261.208</ele>
        <time>2018-07-17T11:55:01Z</time>
      </trkpt>
      <trkpt lat="45.464145" lon="6.937913">
        <ele>2260.745</ele>
        <time>2018-07-17T11:55:06Z</time>
      </trkpt>
      <trkpt lat="45.464122" lon="6.937975">
        <ele>2260.479</ele>
        <time>2018-07-17T11:55:11Z</time>
      </trkpt>
      <trkpt lat="45.464097" lon="6.938040">
        <ele>2259.831</ele>
        <time>2018-07-17T11:55:16Z</time>
      </trkpt>
      <trkpt lat="45.464086" lon="6.938105">
        <ele>2258.797</ele>
        <time>2018-07-17T11:55:21Z</time>
      </trkpt>
      <trkpt lat="45.464072" lon="6.938168">
        <ele>2258.024</ele>
        <time>2018-07-17T11:55:25Z</time>
      </trkpt>
      <trkpt lat="45.464060" lon="6.938232">
        <ele>2258.086</ele>
        <time>2018-07-17T11:55:29Z</time>
      </trkpt>
      <trkpt lat="45.464043" lon="6.938305">
        <ele>2257.616</ele>
        <time>2018-07-17T11:55:34Z</time>
      </trkpt>
      <trkpt lat="45.464020" lon="6.938373">
        <ele>2257.467</ele>
        <time>2018-07-17T11:55:39Z</time>
      </trkpt>
      <trkpt lat="45.463998" lon="6.938429">
        <ele>2257.397</ele>
        <time>2018-07-17T11:55:43Z</time>
      </trkpt>
      <trkpt lat="45.463979" lon="6.938488">
        <ele>2257.223</ele>
        <time>2018-07-17T11:55:47Z</time>
      </trkpt>
      <trkpt lat="45.463953" lon="6.938554">
        <ele>2257.125</ele>
        <time>2018-07-17T11:55:52Z</time>
      </trkpt>
      <trkpt lat="45.463931" lon="6.938613">
        <ele>2257.108</ele>
        <time>2018-07-17T11:55:56Z</time>
      </trkpt>
      <trkpt lat="45.463907" lon="6.938675">
        <ele>2257.161</ele>
        <time>2018-07-17T11:56:00Z</time>
      </trkpt>
      <trkpt lat="45.463881" lon="6.938742">
        <ele>2257.145</ele>
        <time>2018-07-17T11:56:05Z</time>
      </trkpt>
      <trkpt lat="45.463858" lon="6.938800">
        <ele>2256.767</ele>
        <time>2018-07-17T11:56:09Z</time>
      </trkpt>
      <trkpt lat="45.463826" lon="6.938862">
        <ele>2256.513</ele>
        <time>2018-07-17T11:56:14Z</time>
      </trkpt>
      <trkpt lat="45.463795" lon="6.938924">
        <ele>2256.410</ele>
        <time>2018-07-17T11:56:19Z</time>
      </trkpt>
      <trkpt lat="45.463768" lon="6.938992">
        <ele>2255.932</ele>
        <time>2018-07-17T11:56:24Z</time>
      </trkpt>
      <trkpt lat="45.463744" lon="6.939063">
        <ele>2255.692</ele>
        <time>2018-07-17T11:56:29Z</time>
      </trkpt>
      <trkpt lat="45.463718" lon="6.939122">
        <ele>2255.083</ele>
        <time>2018-07-17T11:56:33Z</time>
      </trkpt>
      <trkpt lat="45.463692" lon="6.939192">
        <ele>2254.779</ele>
        <time>2018-07-17T11:56:38Z</time>
      </trkpt>
      <trkpt lat="45.463670" lon="6.939262">
        <ele>2254.905</ele>
        <time>2018-07-17T11:56:43Z</time>
      </trkpt>
      <trkpt lat="45.463652" lon="6.939337">
        <ele>2254.625</ele>
        <time>2018-07-17T11:56:48Z</time>
      </trkpt>
      <trkpt lat="45.463634" lon="6.939409">
        <ele>2254.808</ele>
        <time>2018-07-17T11:56:53Z</time>
      </trkpt>
      <trkpt lat="45.463619" lon="6.939472">
        <ele>2254.949</ele>
        <time>2018-07-17T11:56:57Z</time>
      </trkpt>
      <trkpt lat="45.463608" lon="6.939536">
        <ele>2255.033</ele>
        <time>2018-07-17T11:57:01Z</time>
      </trkpt>
      <trkpt lat="45.463593" lon="6.939610">
        <ele>2255.045</ele>
        <time>2018-07-17T11:57:06Z</time>
      </trkpt>
      <trkpt lat="45.463576" lon="6.939675">
        <ele>2254.681</ele>
        <time>2018-07-17T11:57:11Z</time>
      </trkpt>
      <trkpt lat="45.463557" lon="6.939733">
        <ele>2254.058</ele>
        <time>2018-07-17T11:57:15Z</time>
      </trkpt>
      <trkpt lat="45.463530" lon="6.939801">
        <ele>2253.670</ele>
        <time>2018-07-17T11:57:20Z</time>
      </trkpt>
      <trkpt lat="45.463503" lon="6.939854">
        <ele>2253.890</ele>
        <time>2018-07-17T11:57:24Z</time>
      </trkpt>
      <trkpt lat="45.463478" lon="6.939915">
        <ele>2253.551</ele>
        <time>2018-07-17T11:57:28Z</time>
      </trkpt>
      <trkpt lat="45.463449" lon="6.939978">
        <ele>2253.337</ele>
        <time>2018-07-17T11:57:33Z</time>
      </trkpt>
      <trkpt lat="45.463420" lon="6.940033">
        <ele>2252.449</ele>
        <time>2018-07-17T11:57:38Z</time>
      </trkpt>
      <trkpt lat="45.463390" lon="6.940096">
        <ele>2251.913</ele>
        <time>2018-07-17T11:57:43Z</time>
      </trkpt>
      <trkpt lat="45.463357" lon="6.940145">
        <ele>2251.208</ele>
        <time>2018-07-17T11:57:47Z</time>
      </trkpt>
      <trkpt lat="45.463322" lon="6.940195">
        <ele>2250.875</ele>
        <time>2018-07-17T11:57:51Z</time>
      </trkpt>
      <trkpt lat="45.463295" lon="6.940246">
        <ele>2250.529</ele>
        <time>2018-07-17T11:57:55Z</time>
      </trkpt>
      <trkpt lat="45.463266" lon="6.940304">
        <ele>2249.971</ele>
        <time>2018-07-17T11:58:00Z</time>
      </trkpt>
      <trkpt lat="45.463236" lon="6.940366">
        <ele>2248.817</ele>
        <time>2018-07-17T11:58:05Z</time>
      </trkpt>
      <trkpt lat="45.463217" lon="6.940429">
        <ele>2248.184</ele>
        <time>2018-07-17T11:58:09Z</time>
      </trkpt>
      <trkpt lat="45.463199" lon="6.940494">
        <ele>2247.766</ele>
        <time>2018-07-17T11:58:13Z</time>
      </trkpt>
      <trkpt lat="45.463179" lon="6.940551">
        <ele>2247.546</ele>
        <time>2018-07-17T11:58:17Z</time>
      </trkpt>
      <trkpt lat="45.463154" lon="6.940615">
        <ele>2246.677</ele>
        <time>2018-07-17T11:58:22Z</time>
      </trkpt>
      <trkpt lat="45.463129" lon="6.940670">
        <ele>2246.412</ele>
        <time>2018-07-17T11:58:26Z</time>
      </trkpt>
      <trkpt lat="45.463103" lon="6.940729">
        <ele>2246.732</ele>
        <time>2018-07-17T11:58:30Z</time>
      </trkpt>
      <trkpt lat="45.463064" lon="6.940780">
        <ele>2247.305</ele>
        <time>2018-07-17T11:58:36Z</time>
      </trkpt>
      <trkpt lat="45.463031" lon="6.940834">
        <ele>2247.208</ele>
        <time>2018-07-17T11:58:42Z</time>
      </trkpt>
      <trkpt lat="45.462997" lon="6.940886">
        <ele>2246.473</ele>
        <time>2018-07-17T11:58:47Z</time>
      </trkpt>
      <trkpt lat="45.462961" lon="6.940943">
        <ele>2246.387</ele>
        <time>2018-07-17T11:58:52Z</time>
      </trkpt>
      <trkpt lat="45.462922" lon="6.940995">
        <ele>2246.279</ele>
        <time>2018-07-17T11:58:57Z</time>
      </trkpt>
      <trkpt lat="45.462890" lon="6.941053">
        <ele>2245.875</ele>
        <time>2018-07-17T11:59:02Z</time>
      </trkpt>
      <trkpt lat="45.462865" lon="6.941117">
        <ele>2245.532</ele>
        <time>2018-07-17T11:59:07Z</time>
      </trkpt>
      <trkpt lat="45.462838" lon="6.941182">
        <ele>2245.754</ele>
        <time>2018-07-17T11:59:12Z</time>
      </trkpt>
      <trkpt lat="45.462814" lon="6.941240">
        <ele>2246.624</ele>
        <time>2018-07-17T11:59:17Z</time>
      </trkpt>
      <trkpt lat="45.462790" lon="6.941307">
        <ele>2246.495</ele>
        <time>2018-07-17T11:59:23Z</time>
      </trkpt>
      <trkpt lat="45.462771" lon="6.941366">
        <ele>2245.984</ele>
        <time>2018-07-17T11:59:28Z</time>
      </trkpt>
      <trkpt lat="45.462749" lon="6.941423">
        <ele>2244.807</ele>
        <time>2018-07-17T11:59:33Z</time>
      </trkpt>
      <trkpt lat="45.462717" lon="6.941484">
        <ele>2244.917</ele>
        <time>2018-07-17T11:59:38Z</time>
      </trkpt>
      <trkpt lat="45.462687" lon="6.941548">
        <ele>2244.208</ele>
        <time>2018-07-17T11:59:43Z</time>
      </trkpt>
      <trkpt lat="45.462661" lon="6.941614">
        <ele>2243.420</ele>
        <time>2018-07-17T11:59:48Z</time>
      </trkpt>
      <trkpt lat="45.462634" lon="6.941686">
        <ele>2242.984</ele>
        <time>2018-07-17T11:59:53Z</time>
      </trkpt>
      <trkpt lat="45.462610" lon="6.941745">
        <ele>2243.076</ele>
        <time>2018-07-17T11:59:57Z</time>
      </trkpt>
      <trkpt lat="45.462584" lon="6.941807">
        <ele>2242.752</ele>
        <time>2018-07-17T12:00:02Z</time>
      </trkpt>
      <trkpt lat="45.462561" lon="6.941879">
        <ele>2242.919</ele>
        <time>2018-07-17T12:00:07Z</time>
      </trkpt>
      <trkpt lat="45.462533" lon="6.941947">
        <ele>2242.651</ele>
        <time>2018-07-17T12:00:12Z</time>
      </trkpt>
      <trkpt lat="45.462507" lon="6.942016">
        <ele>2242.461</ele>
        <time>2018-07-17T12:00:17Z</time>
      </trkpt>
      <trkpt lat="45.462491" lon="6.942089">
        <ele>2241.932</ele>
        <time>2018-07-17T12:00:22Z</time>
      </trkpt>
      <trkpt lat="45.462476" lon="6.942165">
        <ele>2242.067</ele>
        <time>2018-07-17T12:00:27Z</time>
      </trkpt>
      <trkpt lat="45.462464" lon="6.942227">
        <ele>2241.781</ele>
        <time>2018-07-17T12:00:31Z</time>
      </trkpt>
      <trkpt lat="45.462446" lon="6.942298">
        <ele>2241.519</ele>
        <time>2018-07-17T12:00:36Z</time>
      </trkpt>
      <trkpt lat="45.462428" lon="6.942365">
        <ele>2240.608</ele>
        <time>2018-07-17T12:00:41Z</time>
      </trkpt>
      <trkpt lat="45.462416" lon="6.942434">
        <ele>2240.018</ele>
        <time>2018-07-17T12:00:46Z</time>
      </trkpt>
      <trkpt lat="45.462399" lon="6.942504">
        <ele>2239.712</ele>
        <time>2018-07-17T12:00:51Z</time>
      </trkpt>
      <trkpt lat="45.462386" lon="6.942571">
        <ele>2238.784</ele>
        <time>2018-07-17T12:00:56Z</time>
      </trkpt>
      <trkpt lat="45.462374" lon="6.942643">
        <ele>2238.160</ele>
        <time>2018-07-17T12:01:01Z</time>
      </trkpt>
      <trkpt lat="45.462358" lon="6.942717">
        <ele>2237.347</ele>
        <time>2018-07-17T12:01:06Z</time>
      </trkpt>
      <trkpt lat="45.462348" lon="6.942784">
        <ele>2236.899</ele>
        <time>2018-07-17T12:01:10Z</time>
      </trkpt>
      <trkpt lat="45.462338" lon="6.942859">
        <ele>2236.139</ele>
        <time>2018-07-17T12:01:15Z</time>
      </trkpt>
      <trkpt lat="45.462324" lon="6.942920">
        <ele>2235.390</ele>
        <time>2018-07-17T12:01:19Z</time>
      </trkpt>
      <trkpt lat="45.462309" lon="6.942989">
        <ele>2234.413</ele>
        <time>2018-07-17T12:01:24Z</time>
      </trkpt>
      <trkpt lat="45.462294" lon="6.943057">
        <ele>2234.343</ele>
        <time>2018-07-17T12:01:29Z</time>
      </trkpt>
      <trkpt lat="45.462277" lon="6.943132">
        <ele>2233.407</ele>
        <time>2018-07-17T12:01:34Z</time>
      </trkpt>
      <trkpt lat="45.462260" lon="6.943207">
        <ele>2232.908</ele>
        <time>2018-07-17T12:01:39Z</time>
      </trkpt>
      <trkpt lat="45.462250" lon="6.943278">
        <ele>2232.243</ele>
        <time>2018-07-17T12:01:44Z</time>
      </trkpt>
      <trkpt lat="45.462232" lon="6.943345">
        <ele>2231.827</ele>
        <time>2018-07-17T12:01:50Z</time>
      </trkpt>
      <trkpt lat="45.462218" lon="6.943419">
        <ele>2231.129</ele>
        <time>2018-07-17T12:01:56Z</time>
      </trkpt>
      <trkpt lat="45.462216" lon="6.943485">
        <ele>2230.325</ele>
        <time>2018-07-17T12:02:01Z</time>
      </trkpt>
      <trkpt lat="45.462211" lon="6.943554">
        <ele>2229.422</ele>
        <time>2018-07-17T12:02:06Z</time>
      </trkpt>
      <trkpt lat="45.462209" lon="6.943622">
        <ele>2228.954</ele>
        <time>2018-07-17T12:02:11Z</time>
      </trkpt>
      <trkpt lat="45.462211" lon="6.943690">
        <ele>2228.214</ele>
        <time>2018-07-17T12:02:16Z</time>
      </trkpt>
      <trkpt lat="45.462225" lon="6.943760">
        <ele>2227.445</ele>
        <time>2018-07-17T12:02:21Z</time>
      </trkpt>
      <trkpt lat="45.462226" lon="6.943831">
        <ele>2226.919</ele>
        <time>2018-07-17T12:02:26Z</time>
      </trkpt>
      <trkpt lat="45.462242" lon="6.943902">
        <ele>2225.809</ele>
        <time>2018-07-17T12:02:32Z</time>
      </trkpt>
      <trkpt lat="45.462251" lon="6.943971">
        <ele>2224.719</ele>
        <time>2018-07-17T12:02:37Z</time>
      </trkpt>
      <trkpt lat="45.462254" lon="6.944037">
        <ele>2223.708</ele>
        <time>2018-07-17T12:02:42Z</time>
      </trkpt>
      <trkpt lat="45.462257" lon="6.944110">
        <ele>2222.373</ele>
        <time>2018-07-17T12:02:47Z</time>
      </trkpt>
      <trkpt lat="45.462255" lon="6.944177">
        <ele>2221.057</ele>
        <time>2018-07-17T12:02:52Z</time>
      </trkpt>
      <trkpt lat="45.462251" lon="6.944251">
        <ele>2219.819</ele>
        <time>2018-07-17T12:02:58Z</time>
      </trkpt>
      <trkpt lat="45.462250" lon="6.944325">
        <ele>2219.165</ele>
        <time>2018-07-17T12:03:04Z</time>
      </trkpt>
      <trkpt lat="45.462262" lon="6.944393">
        <ele>2218.382</ele>
        <time>2018-07-17T12:03:09Z</time>
      </trkpt>
      <trkpt lat="45.462274" lon="6.944469">
        <ele>2217.474</ele>
        <time>2018-07-17T12:03:14Z</time>
      </trkpt>
      <trkpt lat="45.462286" lon="6.944543">
        <ele>2216.554</ele>
        <time>2018-07-17T12:03:19Z</time>
      </trkpt>
      <trkpt lat="45.462296" lon="6.944618">
        <ele>2215.995</ele>
        <time>2018-07-17T12:03:24Z</time>
      </trkpt>
      <trkpt lat="45.462306" lon="6.944688">
        <ele>2215.247</ele>
        <time>2018-07-17T12:03:29Z</time>
      </trkpt>
      <trkpt lat="45.462314" lon="6.944755">
        <ele>2214.429</ele>
        <time>2018-07-17T12:03:34Z</time>
      </trkpt>
      <trkpt lat="45.462320" lon="6.944830">
        <ele>2213.521</ele>
        <time>2018-07-17T12:03:40Z</time>
      </trkpt>
      <trkpt lat="45.462326" lon="6.944901">
        <ele>2212.608</ele>
        <time>2018-07-17T12:03:46Z</time>
      </trkpt>
      <trkpt lat="45.462337" lon="6.944963">
        <ele>2211.646</ele>
        <time>2018-07-17T12:03:51Z</time>
      </trkpt>
      <trkpt lat="45.462337" lon="6.945035">
        <ele>2211.080</ele>
        <time>2018-07-17T12:03:57Z</time>
      </trkpt>
      <trkpt lat="45.462338" lon="6.945109">
        <ele>2211.142</ele>
        <time>2018-07-17T12:04:03Z</time>
      </trkpt>
      <trkpt lat="45.462341" lon="6.945177">
        <ele>2210.728</ele>
        <time>2018-07-17T12:04:11Z</time>
      </trkpt>
      <trkpt lat="45.462359" lon="6.945240">
        <ele>2209.795</ele>
        <time>2018-07-17T12:04:18Z</time>
      </trkpt>
      <trkpt lat="45.462374" lon="6.945302">
        <ele>2208.347</ele>
        <time>2018-07-17T12:04:24Z</time>
      </trkpt>
      <trkpt lat="45.462363" lon="6.945662">
        <ele>2208.357</ele>
        <time>2018-07-17T12:04:50Z</time>
      </trkpt>
      <trkpt lat="45.462409" lon="6.945669">
        <ele>2208.358</ele>
        <time>2018-07-17T12:04:53Z</time>
      </trkpt>
      <trkpt lat="45.462423" lon="6.945738">
        <ele>2206.789</ele>
        <time>2018-07-17T12:05:00Z</time>
      </trkpt>
      <trkpt lat="45.462420" lon="6.945813">
        <ele>2206.506</ele>
        <time>2018-07-17T12:05:06Z</time>
      </trkpt>
      <trkpt lat="45.462411" lon="6.945881">
        <ele>2205.226</ele>
        <time>2018-07-17T12:05:11Z</time>
      </trkpt>
      <trkpt lat="45.462403" lon="6.945948">
        <ele>2204.008</ele>
        <time>2018-07-17T12:05:17Z</time>
      </trkpt>
      <trkpt lat="45.462394" lon="6.946020">
        <ele>2202.110</ele>
        <time>2018-07-17T12:05:22Z</time>
      </trkpt>
      <trkpt lat="45.462384" lon="6.946085">
        <ele>2200.214</ele>
        <time>2018-07-17T12:05:27Z</time>
      </trkpt>
      <trkpt lat="45.462369" lon="6.946156">
        <ele>2198.636</ele>
        <time>2018-07-17T12:05:33Z</time>
      </trkpt>
      <trkpt lat="45.462348" lon="6.946216">
        <ele>2197.332</ele>
        <time>2018-07-17T12:05:38Z</time>
      </trkpt>
      <trkpt lat="45.462326" lon="6.946275">
        <ele>2196.549</ele>
        <time>2018-07-17T12:05:44Z</time>
      </trkpt>
      <trkpt lat="45.462299" lon="6.946333">
        <ele>2195.661</ele>
        <time>2018-07-17T12:05:55Z</time>
      </trkpt>
      <trkpt lat="45.462285" lon="6.946404">
        <ele>2195.161</ele>
        <time>2018-07-17T12:06:01Z</time>
      </trkpt>
      <trkpt lat="45.462280" lon="6.946468">
        <ele>2194.882</ele>
        <time>2018-07-17T12:06:05Z</time>
      </trkpt>
      <trkpt lat="45.462269" lon="6.946543">
        <ele>2194.248</ele>
        <time>2018-07-17T12:06:10Z</time>
      </trkpt>
      <trkpt lat="45.462261" lon="6.946611">
        <ele>2193.061</ele>
        <time>2018-07-17T12:06:15Z</time>
      </trkpt>
      <trkpt lat="45.462255" lon="6.946682">
        <ele>2191.917</ele>
        <time>2018-07-17T12:06:21Z</time>
      </trkpt>
      <trkpt lat="45.462254" lon="6.946746">
        <ele>2190.808</ele>
        <time>2018-07-17T12:06:26Z</time>
      </trkpt>
      <trkpt lat="45.462230" lon="6.946814">
        <ele>2189.426</ele>
        <time>2018-07-17T12:06:32Z</time>
      </trkpt>
      <trkpt lat="45.462209" lon="6.946876">
        <ele>2188.540</ele>
        <time>2018-07-17T12:06:37Z</time>
      </trkpt>
      <trkpt lat="45.462195" lon="6.946948">
        <ele>2187.622</ele>
        <time>2018-07-17T12:06:43Z</time>
      </trkpt>
      <trkpt lat="45.462191" lon="6.947014">
        <ele>2186.768</ele>
        <time>2018-07-17T12:06:48Z</time>
      </trkpt>
      <trkpt lat="45.462197" lon="6.947083">
        <ele>2186.165</ele>
        <time>2018-07-17T12:06:53Z</time>
      </trkpt>
      <trkpt lat="45.462203" lon="6.947152">
        <ele>2185.477</ele>
        <time>2018-07-17T12:06:58Z</time>
      </trkpt>
      <trkpt lat="45.462200" lon="6.947224">
        <ele>2184.287</ele>
        <time>2018-07-17T12:07:03Z</time>
      </trkpt>
      <trkpt lat="45.462183" lon="6.947293">
        <ele>2183.588</ele>
        <time>2018-07-17T12:07:08Z</time>
      </trkpt>
      <trkpt lat="45.462158" lon="6.947363">
        <ele>2183.136</ele>
        <time>2018-07-17T12:07:13Z</time>
      </trkpt>
      <trkpt lat="45.462127" lon="6.947424">
        <ele>2182.817</ele>
        <time>2018-07-17T12:07:18Z</time>
      </trkpt>
      <trkpt lat="45.462102" lon="6.947481">
        <ele>2182.218</ele>
        <time>2018-07-17T12:07:23Z</time>
      </trkpt>
      <trkpt lat="45.462088" lon="6.947549">
        <ele>2181.508</ele>
        <time>2018-07-17T12:07:29Z</time>
      </trkpt>
      <trkpt lat="45.462063" lon="6.947603">
        <ele>2180.785</ele>
        <time>2018-07-17T12:07:34Z</time>
      </trkpt>
      <trkpt lat="45.462034" lon="6.947659">
        <ele>2180.229</ele>
        <time>2018-07-17T12:07:39Z</time>
      </trkpt>
      <trkpt lat="45.461998" lon="6.947702">
        <ele>2178.771</ele>
        <time>2018-07-17T12:07:44Z</time>
      </trkpt>
      <trkpt lat="45.461964" lon="6.947747">
        <ele>2177.877</ele>
        <time>2018-07-17T12:07:49Z</time>
      </trkpt>
      <trkpt lat="45.461929" lon="6.947795">
        <ele>2177.774</ele>
        <time>2018-07-17T12:07:54Z</time>
      </trkpt>
      <trkpt lat="45.461908" lon="6.947859">
        <ele>2177.226</ele>
        <time>2018-07-17T12:08:00Z</time>
      </trkpt>
      <trkpt lat="45.461897" lon="6.947931">
        <ele>2176.196</ele>
        <time>2018-07-17T12:08:06Z</time>
      </trkpt>
      <trkpt lat="45.461862" lon="6.947973">
        <ele>2175.427</ele>
        <time>2018-07-17T12:08:11Z</time>
      </trkpt>
      <trkpt lat="45.461819" lon="6.948003">
        <ele>2175.072</ele>
        <time>2018-07-17T12:08:16Z</time>
      </trkpt>
      <trkpt lat="45.461783" lon="6.948055">
        <ele>2174.413</ele>
        <time>2018-07-17T12:08:22Z</time>
      </trkpt>
      <trkpt lat="45.461756" lon="6.948115">
        <ele>2174.014</ele>
        <time>2018-07-17T12:08:27Z</time>
      </trkpt>
      <trkpt lat="45.461729" lon="6.948172">
        <ele>2173.408</ele>
        <time>2018-07-17T12:08:32Z</time>
      </trkpt>
      <trkpt lat="45.461700" lon="6.948224">
        <ele>2172.639</ele>
        <time>2018-07-17T12:08:37Z</time>
      </trkpt>
      <trkpt lat="45.461666" lon="6.948270">
        <ele>2171.733</ele>
        <time>2018-07-17T12:08:42Z</time>
      </trkpt>
      <trkpt lat="45.461634" lon="6.948331">
        <ele>2171.295</ele>
        <time>2018-07-17T12:08:47Z</time>
      </trkpt>
      <trkpt lat="45.461607" lon="6.948390">
        <ele>2171.311</ele>
        <time>2018-07-17T12:08:52Z</time>
      </trkpt>
      <trkpt lat="45.461585" lon="6.948450">
        <ele>2171.448</ele>
        <time>2018-07-17T12:08:57Z</time>
      </trkpt>
      <trkpt lat="45.461547" lon="6.948505">
        <ele>2171.040</ele>
        <time>2018-07-17T12:09:03Z</time>
      </trkpt>
      <trkpt lat="45.461515" lon="6.948563">
        <ele>2170.860</ele>
        <time>2018-07-17T12:09:09Z</time>
      </trkpt>
      <trkpt lat="45.461480" lon="6.948620">
        <ele>2170.781</ele>
        <time>2018-07-17T12:09:15Z</time>
      </trkpt>
      <trkpt lat="45.461444" lon="6.948673">
        <ele>2169.847</ele>
        <time>2018-07-17T12:09:23Z</time>
      </trkpt>
      <trkpt lat="45.461403" lon="6.948719">
        <ele>2169.329</ele>
        <time>2018-07-17T12:09:29Z</time>
      </trkpt>
      <trkpt lat="45.461373" lon="6.948768">
        <ele>2168.621</ele>
        <time>2018-07-17T12:09:34Z</time>
      </trkpt>
      <trkpt lat="45.461342" lon="6.948817">
        <ele>2168.208</ele>
        <time>2018-07-17T12:09:57Z</time>
      </trkpt>
      <trkpt lat="45.461300" lon="6.948841">
        <ele>2168.336</ele>
        <time>2018-07-17T12:11:23Z</time>
      </trkpt>
      <trkpt lat="45.461279" lon="6.948909">
        <ele>2168.090</ele>
        <time>2018-07-17T12:11:29Z</time>
      </trkpt>
      <trkpt lat="45.461253" lon="6.948972">
        <ele>2167.822</ele>
        <time>2018-07-17T12:11:35Z</time>
      </trkpt>
      <trkpt lat="45.461242" lon="6.949035">
        <ele>2166.138</ele>
        <time>2018-07-17T12:11:52Z</time>
      </trkpt>
      <trkpt lat="45.461283" lon="6.949080">
        <ele>2164.335</ele>
        <time>2018-07-17T12:11:58Z</time>
      </trkpt>
      <trkpt lat="45.461320" lon="6.949116">
        <ele>2162.037</ele>
        <time>2018-07-17T12:12:03Z</time>
      </trkpt>
      <trkpt lat="45.461365" lon="6.949158">
        <ele>2160.267</ele>
        <time>2018-07-17T12:12:09Z</time>
      </trkpt>
      <trkpt lat="45.461355" lon="6.949227">
        <ele>2157.928</ele>
        <time>2018-07-17T12:12:17Z</time>
      </trkpt>
      <trkpt lat="45.461316" lon="6.949275">
        <ele>2155.754</ele>
        <time>2018-07-17T12:12:24Z</time>
      </trkpt>
      <trkpt lat="45.461281" lon="6.949332">
        <ele>2154.056</ele>
        <time>2018-07-17T12:12:30Z</time>
      </trkpt>
      <trkpt lat="45.461251" lon="6.949394">
        <ele>2152.611</ele>
        <time>2018-07-17T12:12:36Z</time>
      </trkpt>
      <trkpt lat="45.461234" lon="6.949456">
        <ele>2151.308</ele>
        <time>2018-07-17T12:12:42Z</time>
      </trkpt>
      <trkpt lat="45.461241" lon="6.949527">
        <ele>2150.187</ele>
        <time>2018-07-17T12:12:57Z</time>
      </trkpt>
      <trkpt lat="45.461272" lon="6.949575">
        <ele>2149.011</ele>
        <time>2018-07-17T12:13:02Z</time>
      </trkpt>
      <trkpt lat="45.461307" lon="6.949616">
        <ele>2147.593</ele>
        <time>2018-07-17T12:13:07Z</time>
      </trkpt>
      <trkpt lat="45.461345" lon="6.949661">
        <ele>2146.249</ele>
        <time>2018-07-17T12:13:12Z</time>
      </trkpt>
      <trkpt lat="45.461382" lon="6.949707">
        <ele>2145.446</ele>
        <time>2018-07-17T12:13:17Z</time>
      </trkpt>
      <trkpt lat="45.461419" lon="6.949755">
        <ele>2144.568</ele>
        <time>2018-07-17T12:13:22Z</time>
      </trkpt>
      <trkpt lat="45.461450" lon="6.949809">
        <ele>2143.698</ele>
        <time>2018-07-17T12:13:27Z</time>
      </trkpt>
      <trkpt lat="45.461481" lon="6.949868">
        <ele>2142.789</ele>
        <time>2018-07-17T12:13:33Z</time>
      </trkpt>
      <trkpt lat="45.461518" lon="6.949912">
        <ele>2141.793</ele>
        <time>2018-07-17T12:13:47Z</time>
      </trkpt>
      <trkpt lat="45.461558" lon="6.949947">
        <ele>2140.765</ele>
        <time>2018-07-17T12:13:52Z</time>
      </trkpt>
      <trkpt lat="45.461593" lon="6.949994">
        <ele>2139.721</ele>
        <time>2018-07-17T12:13:57Z</time>
      </trkpt>
      <trkpt lat="45.461623" lon="6.950046">
        <ele>2137.908</ele>
        <time>2018-07-17T12:14:04Z</time>
      </trkpt>
      <trkpt lat="45.461659" lon="6.950087">
        <ele>2136.461</ele>
        <time>2018-07-17T12:14:08Z</time>
      </trkpt>
      <trkpt lat="45.461706" lon="6.950116">
        <ele>2135.155</ele>
        <time>2018-07-17T12:14:15Z</time>
      </trkpt>
      <trkpt lat="45.461747" lon="6.950159">
        <ele>2133.927</ele>
        <time>2018-07-17T12:14:21Z</time>
      </trkpt>
      <trkpt lat="45.461794" lon="6.950174">
        <ele>2132.853</ele>
        <time>2018-07-17T12:14:27Z</time>
      </trkpt>
      <trkpt lat="45.461833" lon="6.950213">
        <ele>2132.920</ele>
        <time>2018-07-17T12:14:41Z</time>
      </trkpt>
      <trkpt lat="45.461879" lon="6.950234">
        <ele>2132.652</ele>
        <time>2018-07-17T12:14:46Z</time>
      </trkpt>
      <trkpt lat="45.461921" lon="6.950259">
        <ele>2132.012</ele>
        <time>2018-07-17T12:14:50Z</time>
      </trkpt>
      <trkpt lat="45.461967" lon="6.950269">
        <ele>2131.233</ele>
        <time>2018-07-17T12:14:55Z</time>
      </trkpt>
      <trkpt lat="45.462021" lon="6.950273">
        <ele>2129.539</ele>
        <time>2018-07-17T12:15:02Z</time>
      </trkpt>
      <trkpt lat="45.462066" lon="6.950280">
        <ele>2127.701</ele>
        <time>2018-07-17T12:15:09Z</time>
      </trkpt>
      <trkpt lat="45.462098" lon="6.950330">
        <ele>2126.221</ele>
        <time>2018-07-17T12:15:17Z</time>
      </trkpt>
      <trkpt lat="45.462146" lon="6.950355">
        <ele>2125.308</ele>
        <time>2018-07-17T12:15:23Z</time>
      </trkpt>
      <trkpt lat="45.462177" lon="6.950403">
        <ele>2124.875</ele>
        <time>2018-07-17T12:15:31Z</time>
      </trkpt>
      <trkpt lat="45.462215" lon="6.950441">
        <ele>2123.719</ele>
        <time>2018-07-17T12:15:37Z</time>
      </trkpt>
      <trkpt lat="45.462262" lon="6.950455">
        <ele>2122.681</ele>
        <time>2018-07-17T12:15:44Z</time>
      </trkpt>
      <trkpt lat="45.462301" lon="6.950498">
        <ele>2121.647</ele>
        <time>2018-07-17T12:15:52Z</time>
      </trkpt>
      <trkpt lat="45.462336" lon="6.950538">
        <ele>2120.684</ele>
        <time>2018-07-17T12:15:57Z</time>
      </trkpt>
      <trkpt lat="45.462378" lon="6.950580">
        <ele>2118.866</ele>
        <time>2018-07-17T12:16:03Z</time>
      </trkpt>
      <trkpt lat="45.462401" lon="6.950637">
        <ele>2117.326</ele>
        <time>2018-07-17T12:16:10Z</time>
      </trkpt>
      <trkpt lat="45.462384" lon="6.950702">
        <ele>2116.077</ele>
        <time>2018-07-17T12:16:18Z</time>
      </trkpt>
      <trkpt lat="45.462366" lon="6.950769">
        <ele>2114.823</ele>
        <time>2018-07-17T12:16:24Z</time>
      </trkpt>
      <trkpt lat="45.462349" lon="6.950837">
        <ele>2113.783</ele>
        <time>2018-07-17T12:16:30Z</time>
      </trkpt>
      <trkpt lat="45.462328" lon="6.950898">
        <ele>2112.611</ele>
        <time>2018-07-17T12:16:36Z</time>
      </trkpt>
      <trkpt lat="45.462318" lon="6.950966">
        <ele>2112.408</ele>
        <time>2018-07-17T12:16:43Z</time>
      </trkpt>
      <trkpt lat="45.462308" lon="6.951030">
        <ele>2111.934</ele>
        <time>2018-07-17T12:16:51Z</time>
      </trkpt>
      <trkpt lat="45.462307" lon="6.951100">
        <ele>2111.668</ele>
        <time>2018-07-17T12:16:57Z</time>
      </trkpt>
      <trkpt lat="45.462311" lon="6.951170">
        <ele>2111.490</ele>
        <time>2018-07-17T12:17:03Z</time>
      </trkpt>
      <trkpt lat="45.462308" lon="6.951244">
        <ele>2111.366</ele>
        <time>2018-07-17T12:17:07Z</time>
      </trkpt>
      <trkpt lat="45.462303" lon="6.951324">
        <ele>2111.613</ele>
        <time>2018-07-17T12:17:12Z</time>
      </trkpt>
      <trkpt lat="45.462296" lon="6.951389">
        <ele>2110.635</ele>
        <time>2018-07-17T12:17:17Z</time>
      </trkpt>
      <trkpt lat="45.462319" lon="6.951458">
        <ele>2110.425</ele>
        <time>2018-07-17T12:17:23Z</time>
      </trkpt>
      <trkpt lat="45.462314" lon="6.951526">
        <ele>2110.786</ele>
        <time>2018-07-17T12:17:27Z</time>
      </trkpt>
      <trkpt lat="45.462327" lon="6.951594">
        <ele>2110.135</ele>
        <time>2018-07-17T12:17:32Z</time>
      </trkpt>
      <trkpt lat="45.462347" lon="6.951674">
        <ele>2108.586</ele>
        <time>2018-07-17T12:17:37Z</time>
      </trkpt>
      <trkpt lat="45.462379" lon="6.951734">
        <ele>2108.014</ele>
        <time>2018-07-17T12:17:42Z</time>
      </trkpt>
      <trkpt lat="45.462371" lon="6.951813">
        <ele>2109.308</ele>
        <time>2018-07-17T12:18:27Z</time>
      </trkpt>
      <trkpt lat="45.462391" lon="6.951882">
        <ele>2109.375</ele>
        <time>2018-07-17T12:18:34Z</time>
      </trkpt>
      <trkpt lat="45.462410" lon="6.951944">
        <ele>2108.959</ele>
        <time>2018-07-17T12:18:39Z</time>
      </trkpt>
      <trkpt lat="45.462423" lon="6.952012">
        <ele>2108.241</ele>
        <time>2018-07-17T12:18:45Z</time>
      </trkpt>
      <trkpt lat="45.462405" lon="6.952085">
        <ele>2106.237</ele>
        <time>2018-07-17T12:18:59Z</time>
      </trkpt>
      <trkpt lat="45.462388" lon="6.952147">
        <ele>2105.494</ele>
        <time>2018-07-17T12:19:07Z</time>
      </trkpt>
      <trkpt lat="45.462371" lon="6.952207">
        <ele>2103.356</ele>
        <time>2018-07-17T12:19:13Z</time>
      </trkpt>
      <trkpt lat="45.462323" lon="6.952174">
        <ele>2100.976</ele>
        <time>2018-07-17T12:19:25Z</time>
      </trkpt>
      <trkpt lat="45.462282" lon="6.952144">
        <ele>2099.037</ele>
        <time>2018-07-17T12:19:33Z</time>
      </trkpt>
      <trkpt lat="45.462254" lon="6.952210">
        <ele>2098.799</ele>
        <time>2018-07-17T12:19:50Z</time>
      </trkpt>
      <trkpt lat="45.462264" lon="6.952283">
        <ele>2097.707</ele>
        <time>2018-07-17T12:20:04Z</time>
      </trkpt>
      <trkpt lat="45.462255" lon="6.952356">
        <ele>2096.327</ele>
        <time>2018-07-17T12:20:09Z</time>
      </trkpt>
      <trkpt lat="45.462236" lon="6.952424">
        <ele>2096.308</ele>
        <time>2018-07-17T12:20:14Z</time>
      </trkpt>
      <trkpt lat="45.462234" lon="6.952493">
        <ele>2095.961</ele>
        <time>2018-07-17T12:20:21Z</time>
      </trkpt>
      <trkpt lat="45.462248" lon="6.952557">
        <ele>2096.895</ele>
        <time>2018-07-17T12:20:29Z</time>
      </trkpt>
      <trkpt lat="45.462284" lon="6.952620">
        <ele>2094.657</ele>
        <time>2018-07-17T12:20:40Z</time>
      </trkpt>
      <trkpt lat="45.462271" lon="6.952686">
        <ele>2092.573</ele>
        <time>2018-07-17T12:20:44Z</time>
      </trkpt>
      <trkpt lat="45.462240" lon="6.952758">
        <ele>2089.690</ele>
        <time>2018-07-17T12:20:51Z</time>
      </trkpt>
      <trkpt lat="45.462215" lon="6.952820">
        <ele>2088.392</ele>
        <time>2018-07-17T12:20:56Z</time>
      </trkpt>
      <trkpt lat="45.462190" lon="6.952883">
        <ele>2087.512</ele>
        <time>2018-07-17T12:21:00Z</time>
      </trkpt>
      <trkpt lat="45.462166" lon="6.952947">
        <ele>2087.453</ele>
        <time>2018-07-17T12:21:08Z</time>
      </trkpt>
      <trkpt lat="45.462169" lon="6.953015">
        <ele>2087.463</ele>
        <time>2018-07-17T12:21:14Z</time>
      </trkpt>
      <trkpt lat="45.462146" lon="6.953074">
        <ele>2086.244</ele>
        <time>2018-07-17T12:21:28Z</time>
      </trkpt>
      <trkpt lat="45.462147" lon="6.953150">
        <ele>2085.118</ele>
        <time>2018-07-17T12:21:34Z</time>
      </trkpt>
      <trkpt lat="45.462129" lon="6.953214">
        <ele>2084.008</ele>
        <time>2018-07-17T12:21:41Z</time>
      </trkpt>
      <trkpt lat="45.462079" lon="6.953201">
        <ele>2081.838</ele>
        <time>2018-07-17T12:21:54Z</time>
      </trkpt>
      <trkpt lat="45.462046" lon="6.953148">
        <ele>2080.172</ele>
        <time>2018-07-17T12:21:59Z</time>
      </trkpt>
      <trkpt lat="45.462008" lon="6.953104">
        <ele>2079.144</ele>
        <time>2018-07-17T12:22:03Z</time>
      </trkpt>
      <trkpt lat="45.461966" lon="6.953061">
        <ele>2078.590</ele>
        <time>2018-07-17T12:22:08Z</time>
      </trkpt>
      <trkpt lat="45.461954" lon="6.952987">
        <ele>2076.987</ele>
        <time>2018-07-17T12:22:13Z</time>
      </trkpt>
      <trkpt lat="45.461957" lon="6.952923">
        <ele>2074.439</ele>
        <time>2018-07-17T12:22:18Z</time>
      </trkpt>
      <trkpt lat="45.461946" lon="6.952846">
        <ele>2073.729</ele>
        <time>2018-07-17T12:22:23Z</time>
      </trkpt>
      <trkpt lat="45.461922" lon="6.952789">
        <ele>2072.960</ele>
        <time>2018-07-17T12:22:28Z</time>
      </trkpt>
      <trkpt lat="45.461917" lon="6.952719">
        <ele>2071.647</ele>
        <time>2018-07-17T12:22:33Z</time>
      </trkpt>
      <trkpt lat="45.461903" lon="6.952645">
        <ele>2070.829</ele>
        <time>2018-07-17T12:22:38Z</time>
      </trkpt>
      <trkpt lat="45.461909" lon="6.952564">
        <ele>2071.121</ele>
        <time>2018-07-17T12:22:44Z</time>
      </trkpt>
      <trkpt lat="45.461903" lon="6.952494">
        <ele>2072.108</ele>
        <time>2018-07-17T12:22:49Z</time>
      </trkpt>
      <trkpt lat="45.461888" lon="6.952431">
        <ele>2072.336</ele>
        <time>2018-07-17T12:22:53Z</time>
      </trkpt>
      <trkpt lat="45.461850" lon="6.952373">
        <ele>2072.880</ele>
        <time>2018-07-17T12:22:58Z</time>
      </trkpt>
      <trkpt lat="45.461802" lon="6.952349">
        <ele>2073.162</ele>
        <time>2018-07-17T12:23:02Z</time>
      </trkpt>
      <trkpt lat="45.461752" lon="6.952328">
        <ele>2072.988</ele>
        <time>2018-07-17T12:23:08Z</time>
      </trkpt>
      <trkpt lat="45.461723" lon="6.952275">
        <ele>2072.485</ele>
        <time>2018-07-17T12:23:13Z</time>
      </trkpt>
      <trkpt lat="45.461705" lon="6.952203">
        <ele>2071.767</ele>
        <time>2018-07-17T12:23:18Z</time>
      </trkpt>
      <trkpt lat="45.461687" lon="6.952143">
        <ele>2070.927</ele>
        <time>2018-07-17T12:23:23Z</time>
      </trkpt>
      <trkpt lat="45.461677" lon="6.952070">
        <ele>2069.688</ele>
        <time>2018-07-17T12:23:30Z</time>
      </trkpt>
      <trkpt lat="45.461660" lon="6.952008">
        <ele>2068.822</ele>
        <time>2018-07-17T12:23:34Z</time>
      </trkpt>
      <trkpt lat="45.461610" lon="6.951976">
        <ele>2068.362</ele>
        <time>2018-07-17T12:23:39Z</time>
      </trkpt>
      <trkpt lat="45.461564" lon="6.951988">
        <ele>2067.608</ele>
        <time>2018-07-17T12:23:43Z</time>
      </trkpt>
      <trkpt lat="45.461513" lon="6.951985">
        <ele>2066.808</ele>
        <time>2018-07-17T12:23:50Z</time>
      </trkpt>
      <trkpt lat="45.461467" lon="6.952013">
        <ele>2066.794</ele>
        <time>2018-07-17T12:23:56Z</time>
      </trkpt>
      <trkpt lat="45.461419" lon="6.952026">
        <ele>2067.068</ele>
        <time>2018-07-17T12:24:01Z</time>
      </trkpt>
      <trkpt lat="45.461368" lon="6.952035">
        <ele>2068.080</ele>
        <time>2018-07-17T12:24:07Z</time>
      </trkpt>
      <trkpt lat="45.461317" lon="6.952061">
        <ele>2068.696</ele>
        <time>2018-07-17T12:24:12Z</time>
      </trkpt>
      <trkpt lat="45.461316" lon="6.952125">
        <ele>2068.613</ele>
        <time>2018-07-17T12:24:39Z</time>
      </trkpt>
      <trkpt lat="45.461349" lon="6.952175">
        <ele>2067.465</ele>
        <time>2018-07-17T12:24:45Z</time>
      </trkpt>
      <trkpt lat="45.461393" lon="6.952202">
        <ele>2066.375</ele>
        <time>2018-07-17T12:24:52Z</time>
      </trkpt>
      <trkpt lat="45.461431" lon="6.952243">
        <ele>2065.296</ele>
        <time>2018-07-17T12:24:57Z</time>
      </trkpt>
      <trkpt lat="45.461463" lon="6.952289">
        <ele>2056.157</ele>
        <time>2018-07-17T12:28:06Z</time>
      </trkpt>
      <trkpt lat="45.461472" lon="6.952352">
        <ele>2058.800</ele>
        <time>2018-07-17T12:28:10Z</time>
      </trkpt>
      <trkpt lat="45.461479" lon="6.952418">
        <ele>2058.320</ele>
        <time>2018-07-17T12:28:14Z</time>
      </trkpt>
      <trkpt lat="45.461483" lon="6.952489">
        <ele>2057.208</ele>
        <time>2018-07-17T12:28:20Z</time>
      </trkpt>
      <trkpt lat="45.461514" lon="6.952548">
        <ele>2057.087</ele>
        <time>2018-07-17T12:28:26Z</time>
      </trkpt>
      <trkpt lat="45.461527" lon="6.952610">
        <ele>2056.321</ele>
        <time>2018-07-17T12:28:32Z</time>
      </trkpt>
      <trkpt lat="45.461545" lon="6.952682">
        <ele>2056.733</ele>
        <time>2018-07-17T12:28:37Z</time>
      </trkpt>
      <trkpt lat="45.461552" lon="6.952751">
        <ele>2057.739</ele>
        <time>2018-07-17T12:28:41Z</time>
      </trkpt>
      <trkpt lat="45.461544" lon="6.952825">
        <ele>2057.556</ele>
        <time>2018-07-17T12:28:46Z</time>
      </trkpt>
      <trkpt lat="45.461504" lon="6.952872">
        <ele>2057.078</ele>
        <time>2018-07-17T12:28:51Z</time>
      </trkpt>
      <trkpt lat="45.461463" lon="6.952919">
        <ele>2056.388</ele>
        <time>2018-07-17T12:28:56Z</time>
      </trkpt>
      <trkpt lat="45.461425" lon="6.952969">
        <ele>2055.549</ele>
        <time>2018-07-17T12:29:02Z</time>
      </trkpt>
      <trkpt lat="45.461392" lon="6.953026">
        <ele>2054.684</ele>
        <time>2018-07-17T12:29:07Z</time>
      </trkpt>
      <trkpt lat="45.461369" lon="6.953093">
        <ele>2054.107</ele>
        <time>2018-07-17T12:29:11Z</time>
      </trkpt>
      <trkpt lat="45.461353" lon="6.953153">
        <ele>2053.817</ele>
        <time>2018-07-17T12:29:15Z</time>
      </trkpt>
      <trkpt lat="45.461347" lon="6.953219">
        <ele>2053.208</ele>
        <time>2018-07-17T12:29:19Z</time>
      </trkpt>
      <trkpt lat="45.461343" lon="6.953286">
        <ele>2052.060</ele>
        <time>2018-07-17T12:29:24Z</time>
      </trkpt>
      <trkpt lat="45.461333" lon="6.953360">
        <ele>2050.994</ele>
        <time>2018-07-17T12:29:29Z</time>
      </trkpt>
      <trkpt lat="45.461338" lon="6.953431">
        <ele>2049.816</ele>
        <time>2018-07-17T12:29:34Z</time>
      </trkpt>
      <trkpt lat="45.461322" lon="6.953491">
        <ele>2049.272</ele>
        <time>2018-07-17T12:29:39Z</time>
      </trkpt>
      <trkpt lat="45.461297" lon="6.953555">
        <ele>2048.039</ele>
        <time>2018-07-17T12:29:44Z</time>
      </trkpt>
      <trkpt lat="45.461263" lon="6.953615">
        <ele>2046.531</ele>
        <time>2018-07-17T12:29:51Z</time>
      </trkpt>
      <trkpt lat="45.461233" lon="6.953681">
        <ele>2045.671</ele>
        <time>2018-07-17T12:29:56Z</time>
      </trkpt>
      <trkpt lat="45.461208" lon="6.953736">
        <ele>2045.172</ele>
        <time>2018-07-17T12:30:01Z</time>
      </trkpt>
      <trkpt lat="45.461183" lon="6.953794">
        <ele>2044.433</ele>
        <time>2018-07-17T12:30:07Z</time>
      </trkpt>
      <trkpt lat="45.461163" lon="6.953861">
        <ele>2043.223</ele>
        <time>2018-07-17T12:30:15Z</time>
      </trkpt>
      <trkpt lat="45.461130" lon="6.953921">
        <ele>2042.115</ele>
        <time>2018-07-17T12:30:21Z</time>
      </trkpt>
      <trkpt lat="45.461110" lon="6.953981">
        <ele>2040.208</ele>
        <time>2018-07-17T12:30:28Z</time>
      </trkpt>
      <trkpt lat="45.461097" lon="6.954044">
        <ele>2039.585</ele>
        <time>2018-07-17T12:30:38Z</time>
      </trkpt>
      <trkpt lat="45.461088" lon="6.954109">
        <ele>2037.139</ele>
        <time>2018-07-17T12:30:49Z</time>
      </trkpt>
      <trkpt lat="45.461068" lon="6.954169">
        <ele>2034.821</ele>
        <time>2018-07-17T12:31:01Z</time>
      </trkpt>
      <trkpt lat="45.461065" lon="6.954234">
        <ele>2033.457</ele>
        <time>2018-07-17T12:31:08Z</time>
      </trkpt>
      <trkpt lat="45.461038" lon="6.954291">
        <ele>2032.284</ele>
        <time>2018-07-17T12:31:16Z</time>
      </trkpt>
      <trkpt lat="45.461005" lon="6.954343">
        <ele>2030.356</ele>
        <time>2018-07-17T12:31:26Z</time>
      </trkpt>
      <trkpt lat="45.460997" lon="6.954407">
        <ele>2027.916</ele>
        <time>2018-07-17T12:31:39Z</time>
      </trkpt>
      <trkpt lat="45.460976" lon="6.954465">
        <ele>2025.367</ele>
        <time>2018-07-17T12:31:52Z</time>
      </trkpt>
      <trkpt lat="45.460949" lon="6.954517">
        <ele>2022.594</ele>
        <time>2018-07-17T12:32:03Z</time>
      </trkpt>
      <trkpt lat="45.460968" lon="6.954585">
        <ele>2020.457</ele>
        <time>2018-07-17T12:32:11Z</time>
      </trkpt>
      <trkpt lat="45.460984" lon="6.954648">
        <ele>2018.822</ele>
        <time>2018-07-17T12:32:17Z</time>
      </trkpt>
      <trkpt lat="45.461012" lon="6.954712">
        <ele>2017.808</ele>
        <time>2018-07-17T12:32:22Z</time>
      </trkpt>
      <trkpt lat="45.461029" lon="6.954774">
        <ele>2016.461</ele>
        <time>2018-07-17T12:32:28Z</time>
      </trkpt>
      <trkpt lat="45.461054" lon="6.954839">
        <ele>2016.085</ele>
        <time>2018-07-17T12:32:34Z</time>
      </trkpt>
      <trkpt lat="45.461093" lon="6.954881">
        <ele>2016.127</ele>
        <time>2018-07-17T12:32:41Z</time>
      </trkpt>
      <trkpt lat="45.461129" lon="6.954925">
        <ele>2016.233</ele>
        <time>2018-07-17T12:32:50Z</time>
      </trkpt>
      <trkpt lat="45.461140" lon="6.955001">
        <ele>2016.390</ele>
        <time>2018-07-17T12:33:11Z</time>
      </trkpt>
      <trkpt lat="45.461138" lon="6.955068">
        <ele>2015.912</ele>
        <time>2018-07-17T12:33:58Z</time>
      </trkpt>
      <trkpt lat="45.461100" lon="6.955111">
        <ele>2014.152</ele>
        <time>2018-07-17T12:34:16Z</time>
      </trkpt>
      <trkpt lat="45.461075" lon="6.955170">
        <ele>2013.493</ele>
        <time>2018-07-17T12:34:28Z</time>
      </trkpt>
      <trkpt lat="45.461036" lon="6.955203">
        <ele>2011.877</ele>
        <time>2018-07-17T12:34:44Z</time>
      </trkpt>
      <trkpt lat="45.461018" lon="6.955268">
        <ele>2009.261</ele>
        <time>2018-07-17T12:34:54Z</time>
      </trkpt>
      <trkpt lat="45.461044" lon="6.955321">
        <ele>2008.127</ele>
        <time>2018-07-17T12:35:09Z</time>
      </trkpt>
      <trkpt lat="45.461055" lon="6.955388">
        <ele>2006.208</ele>
        <time>2018-07-17T12:35:20Z</time>
      </trkpt>
      <trkpt lat="45.461075" lon="6.955452">
        <ele>2005.129</ele>
        <time>2018-07-17T12:35:28Z</time>
      </trkpt>
      <trkpt lat="45.461097" lon="6.955509">
        <ele>2004.463</ele>
        <time>2018-07-17T12:35:33Z</time>
      </trkpt>
      <trkpt lat="45.461114" lon="6.955574">
        <ele>2004.835</ele>
        <time>2018-07-17T12:35:39Z</time>
      </trkpt>
      <trkpt lat="45.461093" lon="6.955634">
        <ele>2004.291</ele>
        <time>2018-07-17T12:35:47Z</time>
      </trkpt>
      <trkpt lat="45.461081" lon="6.955698">
        <ele>2003.568</ele>
        <time>2018-07-17T12:35:52Z</time>
      </trkpt>
      <trkpt lat="45.461080" lon="6.955767">
        <ele>2003.550</ele>
        <time>2018-07-17T12:35:58Z</time>
      </trkpt>
      <trkpt lat="45.461042" lon="6.955818">
        <ele>2004.790</ele>
        <time>2018-07-17T12:36:04Z</time>
      </trkpt>
      <trkpt lat="45.461025" lon="6.955885">
        <ele>2006.221</ele>
        <time>2018-07-17T12:36:10Z</time>
      </trkpt>
      <trkpt lat="45.460997" lon="6.955938">
        <ele>2006.786</ele>
        <time>2018-07-17T12:36:21Z</time>
      </trkpt>
      <trkpt lat="45.460983" lon="6.956000">
        <ele>2007.060</ele>
        <time>2018-07-17T12:36:31Z</time>
      </trkpt>
      <trkpt lat="45.460939" lon="6.956015">
        <ele>2006.026</ele>
        <time>2018-07-17T12:36:40Z</time>
      </trkpt>
      <trkpt lat="45.460890" lon="6.956019">
        <ele>2003.408</ele>
        <time>2018-07-17T12:36:47Z</time>
      </trkpt>
      <trkpt lat="45.460846" lon="6.956050">
        <ele>2001.010</ele>
        <time>2018-07-17T12:36:52Z</time>
      </trkpt>
      <trkpt lat="45.460810" lon="6.956097">
        <ele>1999.664</ele>
        <time>2018-07-17T12:36:57Z</time>
      </trkpt>
      <trkpt lat="45.460769" lon="6.956143">
        <ele>1998.746</ele>
        <time>2018-07-17T12:37:02Z</time>
      </trkpt>
      <trkpt lat="45.460746" lon="6.956210">
        <ele>1997.472</ele>
        <time>2018-07-17T12:37:07Z</time>
      </trkpt>
      <trkpt lat="45.460713" lon="6.956269">
        <ele>1996.629</ele>
        <time>2018-07-17T12:37:12Z</time>
      </trkpt>
      <trkpt lat="45.460671" lon="6.956317">
        <ele>1996.951</ele>
        <time>2018-07-17T12:37:17Z</time>
      </trkpt>
      <trkpt lat="45.460634" lon="6.956360">
        <ele>1995.541</ele>
        <time>2018-07-17T12:37:32Z</time>
      </trkpt>
      <trkpt lat="45.460613" lon="6.956421">
        <ele>1997.512</ele>
        <time>2018-07-17T12:37:43Z</time>
      </trkpt>
      <trkpt lat="45.460581" lon="6.956473">
        <ele>1999.164</ele>
        <time>2018-07-17T12:37:53Z</time>
      </trkpt>
      <trkpt lat="45.460548" lon="6.956531">
        <ele>2000.006</ele>
        <time>2018-07-17T12:37:59Z</time>
      </trkpt>
      <trkpt lat="45.460540" lon="6.956596">
        <ele>2000.616</ele>
        <time>2018-07-17T12:38:05Z</time>
      </trkpt>
      <trkpt lat="45.460559" lon="6.956657">
        <ele>1999.708</ele>
        <time>2018-07-17T12:38:11Z</time>
      </trkpt>
      <trkpt lat="45.460579" lon="6.956723">
        <ele>1998.898</ele>
        <time>2018-07-17T12:38:18Z</time>
      </trkpt>
      <trkpt lat="45.460617" lon="6.956772">
        <ele>1999.142</ele>
        <time>2018-07-17T12:38:29Z</time>
      </trkpt>
      <trkpt lat="45.460633" lon="6.956835">
        <ele>1997.754</ele>
        <time>2018-07-17T12:38:38Z</time>
      </trkpt>
      <trkpt lat="45.460661" lon="6.956885">
        <ele>1996.810</ele>
        <time>2018-07-17T12:38:45Z</time>
      </trkpt>
      <trkpt lat="45.460681" lon="6.956947">
        <ele>1996.367</ele>
        <time>2018-07-17T12:38:54Z</time>
      </trkpt>
      <trkpt lat="45.460707" lon="6.957003">
        <ele>1995.219</ele>
        <time>2018-07-17T12:39:02Z</time>
      </trkpt>
      <trkpt lat="45.460672" lon="6.957051">
        <ele>1993.749</ele>
        <time>2018-07-17T12:39:09Z</time>
      </trkpt>
      <trkpt lat="45.460635" lon="6.957104">
        <ele>1992.890</ele>
        <time>2018-07-17T12:39:16Z</time>
      </trkpt>
      <trkpt lat="45.460602" lon="6.957154">
        <ele>1991.558</ele>
        <time>2018-07-17T12:39:23Z</time>
      </trkpt>
      <trkpt lat="45.460587" lon="6.957231">
        <ele>1989.952</ele>
        <time>2018-07-17T12:39:39Z</time>
      </trkpt>
      <trkpt lat="45.460609" lon="6.957289">
        <ele>1987.317</ele>
        <time>2018-07-17T12:39:56Z</time>
      </trkpt>
      <trkpt lat="45.460607" lon="6.957361">
        <ele>1985.008</ele>
        <time>2018-07-17T12:40:05Z</time>
      </trkpt>
      <trkpt lat="45.460605" lon="6.957436">
        <ele>1983.257</ele>
        <time>2018-07-17T12:40:19Z</time>
      </trkpt>
      <trkpt lat="45.460580" lon="6.957497">
        <ele>1981.351</ele>
        <time>2018-07-17T12:40:29Z</time>
      </trkpt>
      <trkpt lat="45.460619" lon="6.957540">
        <ele>1979.013</ele>
        <time>2018-07-17T12:40:49Z</time>
      </trkpt>
      <trkpt lat="45.460627" lon="6.957605">
        <ele>1977.259</ele>
        <time>2018-07-17T12:41:05Z</time>
      </trkpt>
      <trkpt lat="45.460587" lon="6.957642">
        <ele>1973.756</ele>
        <time>2018-07-17T12:41:23Z</time>
      </trkpt>
      <trkpt lat="45.460554" lon="6.957689">
        <ele>1970.838</ele>
        <time>2018-07-17T12:41:43Z</time>
      </trkpt>
      <trkpt lat="45.460566" lon="6.957756">
        <ele>1968.748</ele>
        <time>2018-07-17T12:41:56Z</time>
      </trkpt>
      <trkpt lat="45.460592" lon="6.957812">
        <ele>1966.219</ele>
        <time>2018-07-17T12:42:04Z</time>
      </trkpt>
      <trkpt lat="45.460575" lon="6.957876">
        <ele>1963.972</ele>
        <time>2018-07-17T12:42:20Z</time>
      </trkpt>
      <trkpt lat="45.460578" lon="6.957947">
        <ele>1964.113</ele>
        <time>2018-07-17T12:42:30Z</time>
      </trkpt>
      <trkpt lat="45.460610" lon="6.957992">
        <ele>1962.614</ele>
        <time>2018-07-17T12:42:42Z</time>
      </trkpt>
      <trkpt lat="45.460622" lon="6.958064">
        <ele>1960.908</ele>
        <time>2018-07-17T12:42:50Z</time>
      </trkpt>
      <trkpt lat="45.460629" lon="6.958130">
        <ele>1959.959</ele>
        <time>2018-07-17T12:42:56Z</time>
      </trkpt>
      <trkpt lat="45.460637" lon="6.958197">
        <ele>1959.313</ele>
        <time>2018-07-17T12:43:03Z</time>
      </trkpt>
      <trkpt lat="45.460642" lon="6.958267">
        <ele>1957.715</ele>
        <time>2018-07-17T12:43:12Z</time>
      </trkpt>
      <trkpt lat="45.460669" lon="6.958322">
        <ele>1956.041</ele>
        <time>2018-07-17T12:43:19Z</time>
      </trkpt>
      <trkpt lat="45.460697" lon="6.958376">
        <ele>1955.018</ele>
        <time>2018-07-17T12:43:26Z</time>
      </trkpt>
      <trkpt lat="45.460738" lon="6.958421">
        <ele>1955.290</ele>
        <time>2018-07-17T12:43:34Z</time>
      </trkpt>
      <trkpt lat="45.460788" lon="6.958463">
        <ele>1956.190</ele>
        <time>2018-07-17T12:43:40Z</time>
      </trkpt>
      <trkpt lat="45.460805" lon="6.958400">
        <ele>1952.191</ele>
        <time>2018-07-17T12:44:01Z</time>
      </trkpt>
      <trkpt lat="45.460798" lon="6.958332">
        <ele>1948.638</ele>
        <time>2018-07-17T12:44:22Z</time>
      </trkpt>
      <trkpt lat="45.460796" lon="6.958262">
        <ele>1945.770</ele>
        <time>2018-07-17T12:44:43Z</time>
      </trkpt>
      <trkpt lat="45.460835" lon="6.958219">
        <ele>1943.617</ele>
        <time>2018-07-17T12:44:53Z</time>
      </trkpt>
      <trkpt lat="45.460876" lon="6.958176">
        <ele>1941.908</ele>
        <time>2018-07-17T12:45:05Z</time>
      </trkpt>
      <trkpt lat="45.460922" lon="6.958189">
        <ele>1939.755</ele>
        <time>2018-07-17T12:45:17Z</time>
      </trkpt>
      <trkpt lat="45.460969" lon="6.958219">
        <ele>1939.239</ele>
        <time>2018-07-17T12:45:21Z</time>
      </trkpt>
      <trkpt lat="45.461010" lon="6.958262">
        <ele>1937.731</ele>
        <time>2018-07-17T12:45:34Z</time>
      </trkpt>
      <trkpt lat="45.461039" lon="6.958325">
        <ele>1936.027</ele>
        <time>2018-07-17T12:45:41Z</time>
      </trkpt>
      <trkpt lat="45.461067" lon="6.958392">
        <ele>1934.254</ele>
        <time>2018-07-17T12:45:47Z</time>
      </trkpt>
      <trkpt lat="45.461093" lon="6.958445">
        <ele>1932.716</ele>
        <time>2018-07-17T12:45:51Z</time>
      </trkpt>
      <trkpt lat="45.461119" lon="6.958503">
        <ele>1931.836</ele>
        <time>2018-07-17T12:45:56Z</time>
      </trkpt>
      <trkpt lat="45.461138" lon="6.958563">
        <ele>1931.317</ele>
        <time>2018-07-17T12:46:01Z</time>
      </trkpt>
      <trkpt lat="45.461163" lon="6.958620">
        <ele>1931.435</ele>
        <time>2018-07-17T12:46:05Z</time>
      </trkpt>
      <trkpt lat="45.461164" lon="6.958719">
        <ele>1932.286</ele>
        <time>2018-07-17T12:46:21Z</time>
      </trkpt>
      <trkpt lat="45.461196" lon="6.958774">
        <ele>1934.314</ele>
        <time>2018-07-17T12:46:25Z</time>
      </trkpt>
      <trkpt lat="45.461218" lon="6.958832">
        <ele>1936.008</ele>
        <time>2018-07-17T12:46:29Z</time>
      </trkpt>
      <trkpt lat="45.461201" lon="6.958906">
        <ele>1935.855</ele>
        <time>2018-07-17T12:46:36Z</time>
      </trkpt>
      <trkpt lat="45.461209" lon="6.958974">
        <ele>1936.189</ele>
        <time>2018-07-17T12:46:41Z</time>
      </trkpt>
      <trkpt lat="45.461178" lon="6.959025">
        <ele>1932.331</ele>
        <time>2018-07-17T12:46:48Z</time>
      </trkpt>
      <trkpt lat="45.461123" lon="6.959040">
        <ele>1928.867</ele>
        <time>2018-07-17T12:46:52Z</time>
      </trkpt>
      <trkpt lat="45.461092" lon="6.959087">
        <ele>1927.574</ele>
        <time>2018-07-17T12:47:04Z</time>
      </trkpt>
      <trkpt lat="45.461124" lon="6.959137">
        <ele>1924.326</ele>
        <time>2018-07-17T12:47:26Z</time>
      </trkpt>
      <trkpt lat="45.461152" lon="6.959191">
        <ele>1924.086</ele>
        <time>2018-07-17T12:47:33Z</time>
      </trkpt>
      <trkpt lat="45.461200" lon="6.959200">
        <ele>1920.017</ele>
        <time>2018-07-17T12:48:01Z</time>
      </trkpt>
      <trkpt lat="45.461214" lon="6.959267">
        <ele>1917.893</ele>
        <time>2018-07-17T12:48:12Z</time>
      </trkpt>
      <trkpt lat="45.461236" lon="6.959330">
        <ele>1916.165</ele>
        <time>2018-07-17T12:48:25Z</time>
      </trkpt>
      <trkpt lat="45.461231" lon="6.959395">
        <ele>1912.321</ele>
        <time>2018-07-17T12:48:35Z</time>
      </trkpt>
      <trkpt lat="45.461236" lon="6.959469">
        <ele>1912.008</ele>
        <time>2018-07-17T12:48:42Z</time>
      </trkpt>
      <trkpt lat="45.461243" lon="6.959541">
        <ele>1912.641</ele>
        <time>2018-07-17T12:48:47Z</time>
      </trkpt>
      <trkpt lat="45.461202" lon="6.959584">
        <ele>1910.255</ele>
        <time>2018-07-17T12:48:52Z</time>
      </trkpt>
      <trkpt lat="45.461170" lon="6.959631">
        <ele>1906.357</ele>
        <time>2018-07-17T12:48:59Z</time>
      </trkpt>
      <trkpt lat="45.461149" lon="6.959694">
        <ele>1903.693</ele>
        <time>2018-07-17T12:49:06Z</time>
      </trkpt>
      <trkpt lat="45.461161" lon="6.959762">
        <ele>1903.270</ele>
        <time>2018-07-17T12:49:10Z</time>
      </trkpt>
      <trkpt lat="45.461175" lon="6.959829">
        <ele>1902.932</ele>
        <time>2018-07-17T12:49:15Z</time>
      </trkpt>
      <trkpt lat="45.461187" lon="6.959892">
        <ele>1902.772</ele>
        <time>2018-07-17T12:49:21Z</time>
      </trkpt>
      <trkpt lat="45.461190" lon="6.959960">
        <ele>1902.243</ele>
        <time>2018-07-17T12:49:27Z</time>
      </trkpt>
      <trkpt lat="45.461185" lon="6.960036">
        <ele>1902.732</ele>
        <time>2018-07-17T12:49:34Z</time>
      </trkpt>
      <trkpt lat="45.461203" lon="6.960100">
        <ele>1904.292</ele>
        <time>2018-07-17T12:49:39Z</time>
      </trkpt>
      <trkpt lat="45.461206" lon="6.960168">
        <ele>1907.111</ele>
        <time>2018-07-17T12:49:43Z</time>
      </trkpt>
      <trkpt lat="45.461204" lon="6.960232">
        <ele>1907.608</ele>
        <time>2018-07-17T12:49:49Z</time>
      </trkpt>
      <trkpt lat="45.461190" lon="6.960294">
        <ele>1905.995</ele>
        <time>2018-07-17T12:49:55Z</time>
      </trkpt>
      <trkpt lat="45.461187" lon="6.960363">
        <ele>1902.599</ele>
        <time>2018-07-17T12:50:04Z</time>
      </trkpt>
      <trkpt lat="45.461194" lon="6.960433">
        <ele>1900.131</ele>
        <time>2018-07-17T12:50:11Z</time>
      </trkpt>
      <trkpt lat="45.461194" lon="6.960501">
        <ele>1897.817</ele>
        <time>2018-07-17T12:50:18Z</time>
      </trkpt>
      <trkpt lat="45.461219" lon="6.960564">
        <ele>1898.424</ele>
        <time>2018-07-17T12:50:23Z</time>
      </trkpt>
      <trkpt lat="45.461212" lon="6.960630">
        <ele>1895.246</ele>
        <time>2018-07-17T12:50:39Z</time>
      </trkpt>
      <trkpt lat="45.461097" lon="6.960626">
        <ele>1891.266</ele>
        <time>2018-07-17T12:51:01Z</time>
      </trkpt>
      <trkpt lat="45.461137" lon="6.960690">
        <ele>1890.157</ele>
        <time>2018-07-17T12:51:11Z</time>
      </trkpt>
      <trkpt lat="45.461176" lon="6.960729">
        <ele>1890.261</ele>
        <time>2018-07-17T12:51:14Z</time>
      </trkpt>
      <trkpt lat="45.461182" lon="6.960805">
        <ele>1889.921</ele>
        <time>2018-07-17T12:51:20Z</time>
      </trkpt>
      <trkpt lat="45.461175" lon="6.960873">
        <ele>1889.713</ele>
        <time>2018-07-17T12:51:26Z</time>
      </trkpt>
      <trkpt lat="45.461149" lon="6.960933">
        <ele>1889.208</ele>
        <time>2018-07-17T12:51:34Z</time>
      </trkpt>
      <trkpt lat="45.461118" lon="6.960986">
        <ele>1890.548</ele>
        <time>2018-07-17T12:51:40Z</time>
      </trkpt>
      <trkpt lat="45.461069" lon="6.961012">
        <ele>1889.352</ele>
        <time>2018-07-17T12:51:44Z</time>
      </trkpt>
      <trkpt lat="45.461023" lon="6.961036">
        <ele>1887.084</ele>
        <time>2018-07-17T12:51:48Z</time>
      </trkpt>
      <trkpt lat="45.460972" lon="6.961030">
        <ele>1884.810</ele>
        <time>2018-07-17T12:51:52Z</time>
      </trkpt>
      <trkpt lat="45.460927" lon="6.960994">
        <ele>1882.727</ele>
        <time>2018-07-17T12:51:56Z</time>
      </trkpt>
      <trkpt lat="45.460875" lon="6.960976">
        <ele>1880.639</ele>
        <time>2018-07-17T12:52:01Z</time>
      </trkpt>
      <trkpt lat="45.460824" lon="6.960986">
        <ele>1879.439</ele>
        <time>2018-07-17T12:52:06Z</time>
      </trkpt>
      <trkpt lat="45.460778" lon="6.961018">
        <ele>1879.540</ele>
        <time>2018-07-17T12:52:11Z</time>
      </trkpt>
      <trkpt lat="45.460740" lon="6.961076">
        <ele>1880.743</ele>
        <time>2018-07-17T12:52:15Z</time>
      </trkpt>
      <trkpt lat="45.460713" lon="6.961132">
        <ele>1879.864</ele>
        <time>2018-07-17T12:52:20Z</time>
      </trkpt>
      <trkpt lat="45.460689" lon="6.961196">
        <ele>1878.510</ele>
        <time>2018-07-17T12:52:26Z</time>
      </trkpt>
      <trkpt lat="45.460666" lon="6.961258">
        <ele>1877.708</ele>
        <time>2018-07-17T12:52:32Z</time>
      </trkpt>
      <trkpt lat="45.460637" lon="6.961309">
        <ele>1878.046</ele>
        <time>2018-07-17T12:52:39Z</time>
      </trkpt>
      <trkpt lat="45.460598" lon="6.961353">
        <ele>1877.880</ele>
        <time>2018-07-17T12:52:45Z</time>
      </trkpt>
      <trkpt lat="45.460568" lon="6.961407">
        <ele>1878.122</ele>
        <time>2018-07-17T12:52:51Z</time>
      </trkpt>
      <trkpt lat="45.460530" lon="6.961455">
        <ele>1878.388</ele>
        <time>2018-07-17T12:52:56Z</time>
      </trkpt>
      <trkpt lat="45.460495" lon="6.961502">
        <ele>1878.495</ele>
        <time>2018-07-17T12:53:00Z</time>
      </trkpt>
      <trkpt lat="45.460472" lon="6.961567">
        <ele>1878.517</ele>
        <time>2018-07-17T12:53:04Z</time>
      </trkpt>
      <trkpt lat="45.460436" lon="6.961628">
        <ele>1878.147</ele>
        <time>2018-07-17T12:53:09Z</time>
      </trkpt>
      <trkpt lat="45.460411" lon="6.961690">
        <ele>1877.578</ele>
        <time>2018-07-17T12:53:14Z</time>
      </trkpt>
      <trkpt lat="45.460384" lon="6.961756">
        <ele>1877.527</ele>
        <time>2018-07-17T12:53:20Z</time>
      </trkpt>
      <trkpt lat="45.460348" lon="6.961813">
        <ele>1877.568</ele>
        <time>2018-07-17T12:53:25Z</time>
      </trkpt>
      <trkpt lat="45.460315" lon="6.961873">
        <ele>1877.514</ele>
        <time>2018-07-17T12:53:30Z</time>
      </trkpt>
      <trkpt lat="45.460284" lon="6.961932">
        <ele>1877.108</ele>
        <time>2018-07-17T12:53:35Z</time>
      </trkpt>
      <trkpt lat="45.460252" lon="6.961990">
        <ele>1876.584</ele>
        <time>2018-07-17T12:53:40Z</time>
      </trkpt>
      <trkpt lat="45.460219" lon="6.962053">
        <ele>1876.188</ele>
        <time>2018-07-17T12:53:45Z</time>
      </trkpt>
      <trkpt lat="45.460190" lon="6.962113">
        <ele>1876.780</ele>
        <time>2018-07-17T12:53:49Z</time>
      </trkpt>
      <trkpt lat="45.460173" lon="6.962175">
        <ele>1876.646</ele>
        <time>2018-07-17T12:53:53Z</time>
      </trkpt>
      <trkpt lat="45.460149" lon="6.962237">
        <ele>1876.633</ele>
        <time>2018-07-17T12:53:58Z</time>
      </trkpt>
      <trkpt lat="45.460122" lon="6.962295">
        <ele>1876.245</ele>
        <time>2018-07-17T12:54:03Z</time>
      </trkpt>
      <trkpt lat="45.460097" lon="6.962352">
        <ele>1875.565</ele>
        <time>2018-07-17T12:54:08Z</time>
      </trkpt>
      <trkpt lat="45.460071" lon="6.962410">
        <ele>1875.126</ele>
        <time>2018-07-17T12:54:13Z</time>
      </trkpt>
      <trkpt lat="45.460075" lon="6.962479">
        <ele>1874.555</ele>
        <time>2018-07-17T12:54:21Z</time>
      </trkpt>
      <trkpt lat="45.460102" lon="6.962533">
        <ele>1874.107</ele>
        <time>2018-07-17T12:54:28Z</time>
      </trkpt>
      <trkpt lat="45.460135" lon="6.962579">
        <ele>1873.117</ele>
        <time>2018-07-17T12:54:35Z</time>
      </trkpt>
      <trkpt lat="45.460170" lon="6.962625">
        <ele>1871.708</ele>
        <time>2018-07-17T12:54:43Z</time>
      </trkpt>
      <trkpt lat="45.460205" lon="6.962670">
        <ele>1870.897</ele>
        <time>2018-07-17T12:54:48Z</time>
      </trkpt>
      <trkpt lat="45.460239" lon="6.962725">
        <ele>1869.931</ele>
        <time>2018-07-17T12:54:54Z</time>
      </trkpt>
      <trkpt lat="45.460261" lon="6.962783">
        <ele>1868.213</ele>
        <time>2018-07-17T12:55:00Z</time>
      </trkpt>
      <trkpt lat="45.460263" lon="6.962850">
        <ele>1866.869</ele>
        <time>2018-07-17T12:55:06Z</time>
      </trkpt>
      <trkpt lat="45.460279" lon="6.962919">
        <ele>1865.516</ele>
        <time>2018-07-17T12:55:12Z</time>
      </trkpt>
      <trkpt lat="45.460288" lon="6.962984">
        <ele>1864.328</ele>
        <time>2018-07-17T12:55:17Z</time>
      </trkpt>
      <trkpt lat="45.460283" lon="6.963049">
        <ele>1863.688</ele>
        <time>2018-07-17T12:55:22Z</time>
      </trkpt>
      <trkpt lat="45.460272" lon="6.963119">
        <ele>1863.249</ele>
        <time>2018-07-17T12:55:27Z</time>
      </trkpt>
      <trkpt lat="45.460249" lon="6.963185">
        <ele>1863.386</ele>
        <time>2018-07-17T12:55:32Z</time>
      </trkpt>
      <trkpt lat="45.460219" lon="6.963245">
        <ele>1863.460</ele>
        <time>2018-07-17T12:55:37Z</time>
      </trkpt>
      <trkpt lat="45.460178" lon="6.963295">
        <ele>1863.526</ele>
        <time>2018-07-17T12:55:42Z</time>
      </trkpt>
      <trkpt lat="45.460136" lon="6.963335">
        <ele>1863.508</ele>
        <time>2018-07-17T12:55:47Z</time>
      </trkpt>
      <trkpt lat="45.460093" lon="6.963354">
        <ele>1863.590</ele>
        <time>2018-07-17T12:55:51Z</time>
      </trkpt>
      <trkpt lat="45.460048" lon="6.963366">
        <ele>1863.164</ele>
        <time>2018-07-17T12:55:55Z</time>
      </trkpt>
      <trkpt lat="45.460003" lon="6.963387">
        <ele>1862.996</ele>
        <time>2018-07-17T12:55:59Z</time>
      </trkpt>
      <trkpt lat="45.459961" lon="6.963429">
        <ele>1863.272</ele>
        <time>2018-07-17T12:56:04Z</time>
      </trkpt>
      <trkpt lat="45.459914" lon="6.963414">
        <ele>1863.059</ele>
        <time>2018-07-17T12:56:14Z</time>
      </trkpt>
      <trkpt lat="45.459954" lon="6.963376">
        <ele>1862.951</ele>
        <time>2018-07-17T12:56:33Z</time>
      </trkpt>
      <trkpt lat="45.460003" lon="6.963345">
        <ele>1862.831</ele>
        <time>2018-07-17T12:56:37Z</time>
      </trkpt>
      <trkpt lat="45.460058" lon="6.963350">
        <ele>1863.582</ele>
        <time>2018-07-17T12:56:41Z</time>
      </trkpt>
      <trkpt lat="45.460106" lon="6.963320">
        <ele>1863.981</ele>
        <time>2018-07-17T12:56:45Z</time>
      </trkpt>
      <trkpt lat="45.460146" lon="6.963287">
        <ele>1863.861</ele>
        <time>2018-07-17T12:56:49Z</time>
      </trkpt>
      <trkpt lat="45.460195" lon="6.963251">
        <ele>1863.717</ele>
        <time>2018-07-17T12:56:54Z</time>
      </trkpt>
      <trkpt lat="45.460227" lon="6.963198">
        <ele>1863.708</ele>
        <time>2018-07-17T12:56:59Z</time>
      </trkpt>
      <trkpt lat="45.460228" lon="6.963131">
        <ele>1862.540</ele>
        <time>2018-07-17T12:57:05Z</time>
      </trkpt>
      <trkpt lat="45.460266" lon="6.963073">
        <ele>1862.224</ele>
        <time>2018-07-17T12:57:10Z</time>
      </trkpt>
      <trkpt lat="45.460298" lon="6.963027">
        <ele>1862.026</ele>
        <time>2018-07-17T12:57:15Z</time>
      </trkpt>
      <trkpt lat="45.460346" lon="6.963060">
        <ele>1861.572</ele>
        <time>2018-07-17T12:57:22Z</time>
      </trkpt>
      <trkpt lat="45.460392" lon="6.963081">
        <ele>1861.279</ele>
        <time>2018-07-17T12:57:27Z</time>
      </trkpt>
      <trkpt lat="45.460444" lon="6.963113">
        <ele>1860.271</ele>
        <time>2018-07-17T12:57:32Z</time>
      </trkpt>
      <trkpt lat="45.460487" lon="6.963140">
        <ele>1859.621</ele>
        <time>2018-07-17T12:57:37Z</time>
      </trkpt>
      <trkpt lat="45.460531" lon="6.963180">
        <ele>1858.842</ele>
        <time>2018-07-17T12:57:41Z</time>
      </trkpt>
      <trkpt lat="45.460573" lon="6.963221">
        <ele>1857.574</ele>
        <time>2018-07-17T12:57:45Z</time>
      </trkpt>
      <trkpt lat="45.460617" lon="6.963277">
        <ele>1856.356</ele>
        <time>2018-07-17T12:57:50Z</time>
      </trkpt>
      <trkpt lat="45.460667" lon="6.963305">
        <ele>1855.621</ele>
        <time>2018-07-17T12:57:55Z</time>
      </trkpt>
      <trkpt lat="45.460710" lon="6.963343">
        <ele>1855.208</ele>
        <time>2018-07-17T12:57:59Z</time>
      </trkpt>
      <trkpt lat="45.460740" lon="6.963398">
        <ele>1855.069</ele>
        <time>2018-07-17T12:58:03Z</time>
      </trkpt>
      <trkpt lat="45.460774" lon="6.963455">
        <ele>1854.143</ele>
        <time>2018-07-17T12:58:10Z</time>
      </trkpt>
      <trkpt lat="45.460799" lon="6.963518">
        <ele>1853.945</ele>
        <time>2018-07-17T12:58:14Z</time>
      </trkpt>
      <trkpt lat="45.460839" lon="6.963567">
        <ele>1853.461</ele>
        <time>2018-07-17T12:58:19Z</time>
      </trkpt>
      <trkpt lat="45.460868" lon="6.963636">
        <ele>1852.738</ele>
        <time>2018-07-17T12:58:23Z</time>
      </trkpt>
      <trkpt lat="45.460896" lon="6.963694">
        <ele>1853.130</ele>
        <time>2018-07-17T12:58:27Z</time>
      </trkpt>
      <trkpt lat="45.460923" lon="6.963755">
        <ele>1853.340</ele>
        <time>2018-07-17T12:58:31Z</time>
      </trkpt>
      <trkpt lat="45.460943" lon="6.963818">
        <ele>1853.421</ele>
        <time>2018-07-17T12:58:34Z</time>
      </trkpt>
      <trkpt lat="45.460975" lon="6.963866">
        <ele>1853.512</ele>
        <time>2018-07-17T12:58:38Z</time>
      </trkpt>
      <trkpt lat="45.460995" lon="6.963936">
        <ele>1853.932</ele>
        <time>2018-07-17T12:58:42Z</time>
      </trkpt>
      <trkpt lat="45.461015" lon="6.963998">
        <ele>1854.205</ele>
        <time>2018-07-17T12:58:46Z</time>
      </trkpt>
      <trkpt lat="45.461022" lon="6.964062">
        <ele>1853.208</ele>
        <time>2018-07-17T12:58:50Z</time>
      </trkpt>
      <trkpt lat="45.461039" lon="6.964122">
        <ele>1852.253</ele>
        <time>2018-07-17T12:58:55Z</time>
      </trkpt>
      <trkpt lat="45.461048" lon="6.964193">
        <ele>1851.647</ele>
        <time>2018-07-17T12:59:01Z</time>
      </trkpt>
      <trkpt lat="45.461007" lon="6.964237">
        <ele>1850.849</ele>
        <time>2018-07-17T12:59:06Z</time>
      </trkpt>
      <trkpt lat="45.460950" lon="6.964247">
        <ele>1849.985</ele>
        <time>2018-07-17T12:59:10Z</time>
      </trkpt>
      <trkpt lat="45.460899" lon="6.964244">
        <ele>1849.432</ele>
        <time>2018-07-17T12:59:13Z</time>
      </trkpt>
      <trkpt lat="45.460851" lon="6.964250">
        <ele>1849.534</ele>
        <time>2018-07-17T12:59:16Z</time>
      </trkpt>
      <trkpt lat="45.460798" lon="6.964245">
        <ele>1849.644</ele>
        <time>2018-07-17T12:59:20Z</time>
      </trkpt>
      <trkpt lat="45.460744" lon="6.964247">
        <ele>1850.095</ele>
        <time>2018-07-17T12:59:25Z</time>
      </trkpt>
      <trkpt lat="45.460696" lon="6.964245">
        <ele>1850.399</ele>
        <time>2018-07-17T12:59:29Z</time>
      </trkpt>
      <trkpt lat="45.460650" lon="6.964233">
        <ele>1850.507</ele>
        <time>2018-07-17T12:59:33Z</time>
      </trkpt>
      <trkpt lat="45.460597" lon="6.964244">
        <ele>1851.027</ele>
        <time>2018-07-17T12:59:38Z</time>
      </trkpt>
      <trkpt lat="45.460546" lon="6.964232">
        <ele>1850.908</ele>
        <time>2018-07-17T12:59:43Z</time>
      </trkpt>
      <trkpt lat="45.460497" lon="6.964220">
        <ele>1851.241</ele>
        <time>2018-07-17T12:59:48Z</time>
      </trkpt>
      <trkpt lat="45.460446" lon="6.964211">
        <ele>1851.495</ele>
        <time>2018-07-17T12:59:52Z</time>
      </trkpt>
      <trkpt lat="45.460395" lon="6.964217">
        <ele>1851.557</ele>
        <time>2018-07-17T12:59:56Z</time>
      </trkpt>
      <trkpt lat="45.460346" lon="6.964216">
        <ele>1851.693</ele>
        <time>2018-07-17T13:00:00Z</time>
      </trkpt>
      <trkpt lat="45.460289" lon="6.964235">
        <ele>1852.050</ele>
        <time>2018-07-17T13:00:05Z</time>
      </trkpt>
      <trkpt lat="45.460243" lon="6.964265">
        <ele>1852.382</ele>
        <time>2018-07-17T13:00:10Z</time>
      </trkpt>
      <trkpt lat="45.460191" lon="6.964282">
        <ele>1852.512</ele>
        <time>2018-07-17T13:00:16Z</time>
      </trkpt>
      <trkpt lat="45.460155" lon="6.964334">
        <ele>1853.463</ele>
        <time>2018-07-17T13:00:21Z</time>
      </trkpt>
      <trkpt lat="45.460110" lon="6.964364">
        <ele>1853.932</ele>
        <time>2018-07-17T13:00:25Z</time>
      </trkpt>
      <trkpt lat="45.460063" lon="6.964391">
        <ele>1853.892</ele>
        <time>2018-07-17T13:00:29Z</time>
      </trkpt>
      <trkpt lat="45.460020" lon="6.964416">
        <ele>1853.811</ele>
        <time>2018-07-17T13:00:33Z</time>
      </trkpt>
      <trkpt lat="45.459971" lon="6.964437">
        <ele>1854.208</ele>
        <time>2018-07-17T13:00:38Z</time>
      </trkpt>
      <trkpt lat="45.459920" lon="6.964462">
        <ele>1854.455</ele>
        <time>2018-07-17T13:00:43Z</time>
      </trkpt>
      <trkpt lat="45.459877" lon="6.964480">
        <ele>1854.569</ele>
        <time>2018-07-17T13:00:47Z</time>
      </trkpt>
      <trkpt lat="45.459834" lon="6.964504">
        <ele>1854.681</ele>
        <time>2018-07-17T13:00:51Z</time>
      </trkpt>
      <trkpt lat="45.459788" lon="6.964532">
        <ele>1855.067</ele>
        <time>2018-07-17T13:00:56Z</time>
      </trkpt>
      <trkpt lat="45.459748" lon="6.964565">
        <ele>1855.734</ele>
        <time>2018-07-17T13:01:01Z</time>
      </trkpt>
      <trkpt lat="45.459702" lon="6.964607">
        <ele>1856.176</ele>
        <time>2018-07-17T13:01:07Z</time>
      </trkpt>
      <trkpt lat="45.459653" lon="6.964642">
        <ele>1855.946</ele>
        <time>2018-07-17T13:01:13Z</time>
      </trkpt>
      <trkpt lat="45.459612" lon="6.964688">
        <ele>1856.227</ele>
        <time>2018-07-17T13:01:18Z</time>
      </trkpt>
      <trkpt lat="45.459567" lon="6.964735">
        <ele>1856.018</ele>
        <time>2018-07-17T13:01:23Z</time>
      </trkpt>
      <trkpt lat="45.459532" lon="6.964783">
        <ele>1855.198</ele>
        <time>2018-07-17T13:01:28Z</time>
      </trkpt>
      <trkpt lat="45.459498" lon="6.964825">
        <ele>1854.517</ele>
        <time>2018-07-17T13:01:32Z</time>
      </trkpt>
      <trkpt lat="45.459458" lon="6.964880">
        <ele>1854.608</ele>
        <time>2018-07-17T13:01:37Z</time>
      </trkpt>
      <trkpt lat="45.459414" lon="6.964926">
        <ele>1854.213</ele>
        <time>2018-07-17T13:01:42Z</time>
      </trkpt>
      <trkpt lat="45.459364" lon="6.964954">
        <ele>1854.037</ele>
        <time>2018-07-17T13:01:47Z</time>
      </trkpt>
      <trkpt lat="45.459322" lon="6.964979">
        <ele>1854.329</ele>
        <time>2018-07-17T13:01:51Z</time>
      </trkpt>
      <trkpt lat="45.459279" lon="6.965010">
        <ele>1854.575</ele>
        <time>2018-07-17T13:01:55Z</time>
      </trkpt>
      <trkpt lat="45.459232" lon="6.965034">
        <ele>1854.292</ele>
        <time>2018-07-17T13:01:59Z</time>
      </trkpt>
      <trkpt lat="45.459188" lon="6.965057">
        <ele>1854.024</ele>
        <time>2018-07-17T13:02:03Z</time>
      </trkpt>
      <trkpt lat="45.459142" lon="6.965086">
        <ele>1853.514</ele>
        <time>2018-07-17T13:02:09Z</time>
      </trkpt>
      <trkpt lat="45.459092" lon="6.965119">
        <ele>1852.865</ele>
        <time>2018-07-17T13:02:14Z</time>
      </trkpt>
      <trkpt lat="45.459052" lon="6.965151">
        <ele>1852.854</ele>
        <time>2018-07-17T13:02:18Z</time>
      </trkpt>
      <trkpt lat="45.459012" lon="6.965186">
        <ele>1852.856</ele>
        <time>2018-07-17T13:02:22Z</time>
      </trkpt>
      <trkpt lat="45.458968" lon="6.965222">
        <ele>1853.211</ele>
        <time>2018-07-17T13:02:26Z</time>
      </trkpt>
      <trkpt lat="45.458921" lon="6.965260">
        <ele>1853.008</ele>
        <time>2018-07-17T13:02:30Z</time>
      </trkpt>
      <trkpt lat="45.458873" lon="6.965299">
        <ele>1852.967</ele>
        <time>2018-07-17T13:02:34Z</time>
      </trkpt>
      <trkpt lat="45.458831" lon="6.965331">
        <ele>1852.891</ele>
        <time>2018-07-17T13:02:38Z</time>
      </trkpt>
      <trkpt lat="45.458793" lon="6.965366">
        <ele>1852.843</ele>
        <time>2018-07-17T13:02:42Z</time>
      </trkpt>
      <trkpt lat="45.458754" lon="6.965400">
        <ele>1853.259</ele>
        <time>2018-07-17T13:02:46Z</time>
      </trkpt>
      <trkpt lat="45.458715" lon="6.965441">
        <ele>1853.846</ele>
        <time>2018-07-17T13:02:51Z</time>
      </trkpt>
      <trkpt lat="45.458668" lon="6.965460">
        <ele>1854.268</ele>
        <time>2018-07-17T13:02:56Z</time>
      </trkpt>
      <trkpt lat="45.458620" lon="6.965486">
        <ele>1854.098</ele>
        <time>2018-07-17T13:03:00Z</time>
      </trkpt>
      <trkpt lat="45.458568" lon="6.965507">
        <ele>1853.949</ele>
        <time>2018-07-17T13:03:04Z</time>
      </trkpt>
      <trkpt lat="45.458521" lon="6.965523">
        <ele>1853.053</ele>
        <time>2018-07-17T13:03:08Z</time>
      </trkpt>
      <trkpt lat="45.458476" lon="6.965539">
        <ele>1852.904</ele>
        <time>2018-07-17T13:03:12Z</time>
      </trkpt>
      <trkpt lat="45.458427" lon="6.965580">
        <ele>1854.414</ele>
        <time>2018-07-17T13:03:17Z</time>
      </trkpt>
      <trkpt lat="45.458382" lon="6.965614">
        <ele>1856.108</ele>
        <time>2018-07-17T13:03:21Z</time>
      </trkpt>
      <trkpt lat="45.458338" lon="6.965632">
        <ele>1856.337</ele>
        <time>2018-07-17T13:03:25Z</time>
      </trkpt>
      <trkpt lat="45.458292" lon="6.965663">
        <ele>1856.031</ele>
        <time>2018-07-17T13:03:29Z</time>
      </trkpt>
      <trkpt lat="45.458242" lon="6.965696">
        <ele>1856.253</ele>
        <time>2018-07-17T13:03:33Z</time>
      </trkpt>
      <trkpt lat="45.458191" lon="6.965719">
        <ele>1856.739</ele>
        <time>2018-07-17T13:03:37Z</time>
      </trkpt>
      <trkpt lat="45.458145" lon="6.965747">
        <ele>1856.686</ele>
        <time>2018-07-17T13:03:42Z</time>
      </trkpt>
      <trkpt lat="45.458103" lon="6.965770">
        <ele>1856.658</ele>
        <time>2018-07-17T13:03:47Z</time>
      </trkpt>
      <trkpt lat="45.458057" lon="6.965781">
        <ele>1856.228</ele>
        <time>2018-07-17T13:03:51Z</time>
      </trkpt>
      <trkpt lat="45.458003" lon="6.965792">
        <ele>1855.179</ele>
        <time>2018-07-17T13:03:56Z</time>
      </trkpt>
      <trkpt lat="45.457955" lon="6.965814">
        <ele>1853.743</ele>
        <time>2018-07-17T13:04:00Z</time>
      </trkpt>
      <trkpt lat="45.457915" lon="6.965843">
        <ele>1850.464</ele>
        <time>2018-07-17T13:04:06Z</time>
      </trkpt>
      <trkpt lat="45.457870" lon="6.965888">
        <ele>1848.810</ele>
        <time>2018-07-17T13:04:12Z</time>
      </trkpt>
      <trkpt lat="45.457825" lon="6.965906">
        <ele>1848.708</ele>
        <time>2018-07-17T13:04:16Z</time>
      </trkpt>
      <trkpt lat="45.457778" lon="6.965922">
        <ele>1848.646</ele>
        <time>2018-07-17T13:04:31Z</time>
      </trkpt>
      <trkpt lat="45.457727" lon="6.965927">
        <ele>1849.080</ele>
        <time>2018-07-17T13:04:36Z</time>
      </trkpt>
      <trkpt lat="45.457676" lon="6.965939">
        <ele>1849.672</ele>
        <time>2018-07-17T13:04:41Z</time>
      </trkpt>
      <trkpt lat="45.457631" lon="6.965949">
        <ele>1849.288</ele>
        <time>2018-07-17T13:04:47Z</time>
      </trkpt>
      <trkpt lat="45.457579" lon="6.965959">
        <ele>1848.995</ele>
        <time>2018-07-17T13:04:52Z</time>
      </trkpt>
      <trkpt lat="45.457534" lon="6.965983">
        <ele>1848.777</ele>
        <time>2018-07-17T13:04:57Z</time>
      </trkpt>
      <trkpt lat="45.457495" lon="6.966026">
        <ele>1848.667</ele>
        <time>2018-07-17T13:05:01Z</time>
      </trkpt>
      <trkpt lat="45.457448" lon="6.966069">
        <ele>1848.968</ele>
        <time>2018-07-17T13:05:06Z</time>
      </trkpt>
      <trkpt lat="45.457398" lon="6.966094">
        <ele>1849.554</ele>
        <time>2018-07-17T13:05:10Z</time>
      </trkpt>
      <trkpt lat="45.457356" lon="6.966120">
        <ele>1849.956</ele>
        <time>2018-07-17T13:05:14Z</time>
      </trkpt>
      <trkpt lat="45.457315" lon="6.966147">
        <ele>1850.511</ele>
        <time>2018-07-17T13:05:18Z</time>
      </trkpt>
      <trkpt lat="45.457271" lon="6.966166">
        <ele>1851.708</ele>
        <time>2018-07-17T13:05:22Z</time>
      </trkpt>
      <trkpt lat="45.457218" lon="6.966184">
        <ele>1852.867</ele>
        <time>2018-07-17T13:05:26Z</time>
      </trkpt>
      <trkpt lat="45.457169" lon="6.966209">
        <ele>1853.991</ele>
        <time>2018-07-17T13:05:30Z</time>
      </trkpt>
      <trkpt lat="45.457127" lon="6.966260">
        <ele>1854.183</ele>
        <time>2018-07-17T13:05:35Z</time>
      </trkpt>
      <trkpt lat="45.457089" lon="6.966303">
        <ele>1854.659</ele>
        <time>2018-07-17T13:05:39Z</time>
      </trkpt>
      <trkpt lat="45.457050" lon="6.966337">
        <ele>1855.326</ele>
        <time>2018-07-17T13:05:43Z</time>
      </trkpt>
      <trkpt lat="45.457012" lon="6.966376">
        <ele>1856.188</ele>
        <time>2018-07-17T13:05:47Z</time>
      </trkpt>
      <trkpt lat="45.456983" lon="6.966432">
        <ele>1856.658</ele>
        <time>2018-07-17T13:05:51Z</time>
      </trkpt>
      <trkpt lat="45.456952" lon="6.966483">
        <ele>1857.379</ele>
        <time>2018-07-17T13:05:55Z</time>
      </trkpt>
      <trkpt lat="45.456921" lon="6.966541">
        <ele>1857.725</ele>
        <time>2018-07-17T13:06:00Z</time>
      </trkpt>
      <trkpt lat="45.456902" lon="6.966605">
        <ele>1856.826</ele>
        <time>2018-07-17T13:06:05Z</time>
      </trkpt>
      <trkpt lat="45.456902" lon="6.966683">
        <ele>1855.408</ele>
        <time>2018-07-17T13:06:10Z</time>
      </trkpt>
      <trkpt lat="45.456866" lon="6.966734">
        <ele>1854.608</ele>
        <time>2018-07-17T13:06:15Z</time>
      </trkpt>
      <trkpt lat="45.456824" lon="6.966781">
        <ele>1855.354</ele>
        <time>2018-07-17T13:06:20Z</time>
      </trkpt>
      <trkpt lat="45.456780" lon="6.966825">
        <ele>1855.368</ele>
        <time>2018-07-17T13:06:25Z</time>
      </trkpt>
      <trkpt lat="45.456761" lon="6.966886">
        <ele>1858.190</ele>
        <time>2018-07-17T13:06:30Z</time>
      </trkpt>
      <trkpt lat="45.456719" lon="6.966921">
        <ele>1859.456</ele>
        <time>2018-07-17T13:06:36Z</time>
      </trkpt>
      <trkpt lat="45.456672" lon="6.966919">
        <ele>1859.073</ele>
        <time>2018-07-17T13:06:42Z</time>
      </trkpt>
      <trkpt lat="45.456622" lon="6.966960">
        <ele>1857.975</ele>
        <time>2018-07-17T13:06:46Z</time>
      </trkpt>
      <trkpt lat="45.456575" lon="6.966996">
        <ele>1857.795</ele>
        <time>2018-07-17T13:06:50Z</time>
      </trkpt>
      <trkpt lat="45.456549" lon="6.967063">
        <ele>1856.836</ele>
        <time>2018-07-17T13:06:57Z</time>
      </trkpt>
      <trkpt lat="45.456529" lon="6.967136">
        <ele>1855.883</ele>
        <time>2018-07-17T13:07:02Z</time>
      </trkpt>
      <trkpt lat="45.456491" lon="6.967191">
        <ele>1855.225</ele>
        <time>2018-07-17T13:07:07Z</time>
      </trkpt>
      <trkpt lat="45.456451" lon="6.967237">
        <ele>1855.317</ele>
        <time>2018-07-17T13:07:11Z</time>
      </trkpt>
      <trkpt lat="45.456415" lon="6.967280">
        <ele>1855.308</ele>
        <time>2018-07-17T13:07:15Z</time>
      </trkpt>
      <trkpt lat="45.456389" lon="6.967333">
        <ele>1855.790</ele>
        <time>2018-07-17T13:07:19Z</time>
      </trkpt>
      <trkpt lat="45.456346" lon="6.967381">
        <ele>1856.424</ele>
        <time>2018-07-17T13:07:24Z</time>
      </trkpt>
      <trkpt lat="45.456297" lon="6.967419">
        <ele>1856.886</ele>
        <time>2018-07-17T13:07:29Z</time>
      </trkpt>
      <trkpt lat="45.456272" lon="6.967473">
        <ele>1856.242</ele>
        <time>2018-07-17T13:07:35Z</time>
      </trkpt>
      <trkpt lat="45.456230" lon="6.967509">
        <ele>1855.159</ele>
        <time>2018-07-17T13:07:41Z</time>
      </trkpt>
      <trkpt lat="45.456179" lon="6.967506">
        <ele>1854.841</ele>
        <time>2018-07-17T13:07:45Z</time>
      </trkpt>
      <trkpt lat="45.456130" lon="6.967508">
        <ele>1855.461</ele>
        <time>2018-07-17T13:07:49Z</time>
      </trkpt>
      <trkpt lat="45.456085" lon="6.967525">
        <ele>1856.232</ele>
        <time>2018-07-17T13:07:53Z</time>
      </trkpt>
      <trkpt lat="45.456041" lon="6.967567">
        <ele>1856.366</ele>
        <time>2018-07-17T13:07:58Z</time>
      </trkpt>
      <trkpt lat="45.455992" lon="6.967569">
        <ele>1856.329</ele>
        <time>2018-07-17T13:08:03Z</time>
      </trkpt>
      <trkpt lat="45.455942" lon="6.967563">
        <ele>1857.121</ele>
        <time>2018-07-17T13:08:09Z</time>
      </trkpt>
      <trkpt lat="45.455891" lon="6.967567">
        <ele>1856.808</ele>
        <time>2018-07-17T13:08:17Z</time>
      </trkpt>
      <trkpt lat="45.455844" lon="6.967559">
        <ele>1856.618</ele>
        <time>2018-07-17T13:08:22Z</time>
      </trkpt>
      <trkpt lat="45.455793" lon="6.967555">
        <ele>1856.992</ele>
        <time>2018-07-17T13:08:27Z</time>
      </trkpt>
      <trkpt lat="45.455745" lon="6.967562">
        <ele>1857.924</ele>
        <time>2018-07-17T13:08:33Z</time>
      </trkpt>
      <trkpt lat="45.455690" lon="6.967553">
        <ele>1859.370</ele>
        <time>2018-07-17T13:08:39Z</time>
      </trkpt>
      <trkpt lat="45.455639" lon="6.967541">
        <ele>1859.767</ele>
        <time>2018-07-17T13:08:45Z</time>
      </trkpt>
      <trkpt lat="45.455584" lon="6.967529">
        <ele>1860.829</ele>
        <time>2018-07-17T13:08:50Z</time>
      </trkpt>
      <trkpt lat="45.455535" lon="6.967539">
        <ele>1863.069</ele>
        <time>2018-07-17T13:08:58Z</time>
      </trkpt>
      <trkpt lat="45.455487" lon="6.967537">
        <ele>1864.310</ele>
        <time>2018-07-17T13:09:07Z</time>
      </trkpt>
      <trkpt lat="45.455443" lon="6.967509">
        <ele>1864.761</ele>
        <time>2018-07-17T13:09:10Z</time>
      </trkpt>
      <trkpt lat="45.455398" lon="6.967504">
        <ele>1864.921</ele>
        <time>2018-07-17T13:09:13Z</time>
      </trkpt>
      <trkpt lat="45.455347" lon="6.967496">
        <ele>1865.013</ele>
        <time>2018-07-17T13:09:17Z</time>
      </trkpt>
      <trkpt lat="45.455300" lon="6.967485">
        <ele>1865.508</ele>
        <time>2018-07-17T13:09:21Z</time>
      </trkpt>
      <trkpt lat="45.455271" lon="6.967432">
        <ele>1864.698</ele>
        <time>2018-07-17T13:09:36Z</time>
      </trkpt>
      <trkpt lat="45.455224" lon="6.967412">
        <ele>1864.122</ele>
        <time>2018-07-17T13:09:39Z</time>
      </trkpt>
      <trkpt lat="45.455170" lon="6.967409">
        <ele>1863.494</ele>
        <time>2018-07-17T13:09:43Z</time>
      </trkpt>
      <trkpt lat="45.455115" lon="6.967407">
        <ele>1862.680</ele>
        <time>2018-07-17T13:09:48Z</time>
      </trkpt>
      <trkpt lat="45.455059" lon="6.967395">
        <ele>1861.737</ele>
        <time>2018-07-17T13:09:53Z</time>
      </trkpt>
      <trkpt lat="45.455013" lon="6.967393">
        <ele>1862.469</ele>
        <time>2018-07-17T13:09:57Z</time>
      </trkpt>
      <trkpt lat="45.454959" lon="6.967403">
        <ele>1862.459</ele>
        <time>2018-07-17T13:10:02Z</time>
      </trkpt>
      <trkpt lat="45.454910" lon="6.967424">
        <ele>1862.050</ele>
        <time>2018-07-17T13:10:07Z</time>
      </trkpt>
      <trkpt lat="45.454857" lon="6.967446">
        <ele>1862.276</ele>
        <time>2018-07-17T13:10:12Z</time>
      </trkpt>
      <trkpt lat="45.454815" lon="6.967470">
        <ele>1862.390</ele>
        <time>2018-07-17T13:10:16Z</time>
      </trkpt>
      <trkpt lat="45.454769" lon="6.967492">
        <ele>1862.419</ele>
        <time>2018-07-17T13:10:20Z</time>
      </trkpt>
      <trkpt lat="45.454724" lon="6.967527">
        <ele>1862.408</ele>
        <time>2018-07-17T13:10:25Z</time>
      </trkpt>
      <trkpt lat="45.454689" lon="6.967588">
        <ele>1862.419</ele>
        <time>2018-07-17T13:10:30Z</time>
      </trkpt>
      <trkpt lat="45.454646" lon="6.967623">
        <ele>1863.293</ele>
        <time>2018-07-17T13:10:34Z</time>
      </trkpt>
      <trkpt lat="45.454607" lon="6.967655">
        <ele>1863.735</ele>
        <time>2018-07-17T13:10:38Z</time>
      </trkpt>
      <trkpt lat="45.454577" lon="6.967706">
        <ele>1863.271</ele>
        <time>2018-07-17T13:10:43Z</time>
      </trkpt>
      <trkpt lat="45.454561" lon="6.967775">
        <ele>1861.378</ele>
        <time>2018-07-17T13:10:48Z</time>
      </trkpt>
      <trkpt lat="45.454547" lon="6.967850">
        <ele>1859.420</ele>
        <time>2018-07-17T13:10:54Z</time>
      </trkpt>
      <trkpt lat="45.454512" lon="6.967898">
        <ele>1859.020</ele>
        <time>2018-07-17T13:10:59Z</time>
      </trkpt>
      <trkpt lat="45.454464" lon="6.967938">
        <ele>1858.821</ele>
        <time>2018-07-17T13:11:04Z</time>
      </trkpt>
      <trkpt lat="45.454422" lon="6.967969">
        <ele>1859.178</ele>
        <time>2018-07-17T13:11:08Z</time>
      </trkpt>
      <trkpt lat="45.454378" lon="6.967991">
        <ele>1859.733</ele>
        <time>2018-07-17T13:11:12Z</time>
      </trkpt>
      <trkpt lat="45.454328" lon="6.968028">
        <ele>1859.626</ele>
        <time>2018-07-17T13:11:17Z</time>
      </trkpt>
      <trkpt lat="45.454283" lon="6.968064">
        <ele>1859.608</ele>
        <time>2018-07-17T13:11:21Z</time>
      </trkpt>
      <trkpt lat="45.454238" lon="6.968101">
        <ele>1860.089</ele>
        <time>2018-07-17T13:11:25Z</time>
      </trkpt>
      <trkpt lat="45.454195" lon="6.968140">
        <ele>1860.623</ele>
        <time>2018-07-17T13:11:30Z</time>
      </trkpt>
      <trkpt lat="45.454142" lon="6.968155">
        <ele>1861.055</ele>
        <time>2018-07-17T13:11:35Z</time>
      </trkpt>
      <trkpt lat="45.454098" lon="6.968170">
        <ele>1860.861</ele>
        <time>2018-07-17T13:11:40Z</time>
      </trkpt>
      <trkpt lat="45.454063" lon="6.968223">
        <ele>1859.148</ele>
        <time>2018-07-17T13:11:58Z</time>
      </trkpt>
      <trkpt lat="45.454054" lon="6.968286">
        <ele>1858.960</ele>
        <time>2018-07-17T13:12:03Z</time>
      </trkpt>
      <trkpt lat="45.454023" lon="6.968351">
        <ele>1859.240</ele>
        <time>2018-07-17T13:12:08Z</time>
      </trkpt>
      <trkpt lat="45.453987" lon="6.968405">
        <ele>1859.831</ele>
        <time>2018-07-17T13:12:13Z</time>
      </trkpt>
      <trkpt lat="45.453942" lon="6.968452">
        <ele>1860.582</ele>
        <time>2018-07-17T13:12:18Z</time>
      </trkpt>
      <trkpt lat="45.453906" lon="6.968493">
        <ele>1860.543</ele>
        <time>2018-07-17T13:12:23Z</time>
      </trkpt>
      <trkpt lat="45.453861" lon="6.968510">
        <ele>1860.917</ele>
        <time>2018-07-17T13:12:27Z</time>
      </trkpt>
      <trkpt lat="45.453821" lon="6.968560">
        <ele>1860.808</ele>
        <time>2018-07-17T13:12:32Z</time>
      </trkpt>
      <trkpt lat="45.453774" lon="6.968604">
        <ele>1860.760</ele>
        <time>2018-07-17T13:12:37Z</time>
      </trkpt>
      <trkpt lat="45.453726" lon="6.968635">
        <ele>1860.664</ele>
        <time>2018-07-17T13:12:42Z</time>
      </trkpt>
      <trkpt lat="45.453679" lon="6.968664">
        <ele>1859.886</ele>
        <time>2018-07-17T13:12:48Z</time>
      </trkpt>
      <trkpt lat="45.453634" lon="6.968672">
        <ele>1860.182</ele>
        <time>2018-07-17T13:12:53Z</time>
      </trkpt>
      <trkpt lat="45.453588" lon="6.968701">
        <ele>1861.169</ele>
        <time>2018-07-17T13:13:01Z</time>
      </trkpt>
      <trkpt lat="45.453547" lon="6.968742">
        <ele>1860.171</ele>
        <time>2018-07-17T13:13:06Z</time>
      </trkpt>
      <trkpt lat="45.453519" lon="6.968792">
        <ele>1859.561</ele>
        <time>2018-07-17T13:13:11Z</time>
      </trkpt>
      <trkpt lat="45.453487" lon="6.968849">
        <ele>1858.772</ele>
        <time>2018-07-17T13:13:17Z</time>
      </trkpt>
      <trkpt lat="45.453443" lon="6.968867">
        <ele>1857.838</ele>
        <time>2018-07-17T13:13:22Z</time>
      </trkpt>
      <trkpt lat="45.453402" lon="6.968921">
        <ele>1859.370</ele>
        <time>2018-07-17T13:13:44Z</time>
      </trkpt>
      <trkpt lat="45.453392" lon="6.969000">
        <ele>1862.217</ele>
        <time>2018-07-17T13:14:04Z</time>
      </trkpt>
      <trkpt lat="45.453361" lon="6.969062">
        <ele>1864.308</ele>
        <time>2018-07-17T13:14:07Z</time>
      </trkpt>
      <trkpt lat="45.453333" lon="6.969132">
        <ele>1864.815</ele>
        <time>2018-07-17T13:14:11Z</time>
      </trkpt>
      <trkpt lat="45.453337" lon="6.969202">
        <ele>1864.389</ele>
        <time>2018-07-17T13:14:17Z</time>
      </trkpt>
      <trkpt lat="45.453354" lon="6.969273">
        <ele>1865.621</ele>
        <time>2018-07-17T13:14:22Z</time>
      </trkpt>
      <trkpt lat="45.453372" lon="6.969340">
        <ele>1867.267</ele>
        <time>2018-07-17T13:14:26Z</time>
      </trkpt>
      <trkpt lat="45.453368" lon="6.969406">
        <ele>1868.114</ele>
        <time>2018-07-17T13:14:33Z</time>
      </trkpt>
      <trkpt lat="45.453356" lon="6.969481">
        <ele>1867.936</ele>
        <time>2018-07-17T13:14:43Z</time>
      </trkpt>
      <trkpt lat="45.453373" lon="6.969545">
        <ele>1866.636</ele>
        <time>2018-07-17T13:14:48Z</time>
      </trkpt>
      <trkpt lat="45.453384" lon="6.969617">
        <ele>1865.067</ele>
        <time>2018-07-17T13:14:52Z</time>
      </trkpt>
      <trkpt lat="45.453409" lon="6.969683">
        <ele>1865.248</ele>
        <time>2018-07-17T13:14:57Z</time>
      </trkpt>
      <trkpt lat="45.453440" lon="6.969730">
        <ele>1864.961</ele>
        <time>2018-07-17T13:15:00Z</time>
      </trkpt>
      <trkpt lat="45.453445" lon="6.969796">
        <ele>1865.917</ele>
        <time>2018-07-17T13:15:13Z</time>
      </trkpt>
      <trkpt lat="45.453465" lon="6.969856">
        <ele>1865.708</ele>
        <time>2018-07-17T13:15:22Z</time>
      </trkpt>
      <trkpt lat="45.453497" lon="6.969905">
        <ele>1865.636</ele>
        <time>2018-07-17T13:15:26Z</time>
      </trkpt>
      <trkpt lat="45.453521" lon="6.969964">
        <ele>1865.510</ele>
        <time>2018-07-17T13:15:30Z</time>
      </trkpt>
      <trkpt lat="45.453549" lon="6.970036">
        <ele>1865.112</ele>
        <time>2018-07-17T13:15:35Z</time>
      </trkpt>
      <trkpt lat="45.453575" lon="6.970099">
        <ele>1864.468</ele>
        <time>2018-07-17T13:15:40Z</time>
      </trkpt>
      <trkpt lat="45.453580" lon="6.970168">
        <ele>1863.675</ele>
        <time>2018-07-17T13:15:46Z</time>
      </trkpt>
      <trkpt lat="45.453567" lon="6.970233">
        <ele>1863.167</ele>
        <time>2018-07-17T13:15:51Z</time>
      </trkpt>
      <trkpt lat="45.453555" lon="6.970300">
        <ele>1863.257</ele>
        <time>2018-07-17T13:15:56Z</time>
      </trkpt>
      <trkpt lat="45.453535" lon="6.970361">
        <ele>1862.928</ele>
        <time>2018-07-17T13:16:00Z</time>
      </trkpt>
      <trkpt lat="45.453524" lon="6.970435">
        <ele>1862.327</ele>
        <time>2018-07-17T13:16:05Z</time>
      </trkpt>
      <trkpt lat="45.453514" lon="6.970503">
        <ele>1861.568</ele>
        <time>2018-07-17T13:16:09Z</time>
      </trkpt>
      <trkpt lat="45.453503" lon="6.970569">
        <ele>1861.814</ele>
        <time>2018-07-17T13:16:14Z</time>
      </trkpt>
      <trkpt lat="45.453519" lon="6.970646">
        <ele>1862.408</ele>
        <time>2018-07-17T13:16:19Z</time>
      </trkpt>
      <trkpt lat="45.453528" lon="6.970722">
        <ele>1862.494</ele>
        <time>2018-07-17T13:16:24Z</time>
      </trkpt>
      <trkpt lat="45.453513" lon="6.970784">
        <ele>1862.478</ele>
        <time>2018-07-17T13:16:29Z</time>
      </trkpt>
      <trkpt lat="45.453501" lon="6.970857">
        <ele>1862.460</ele>
        <time>2018-07-17T13:16:35Z</time>
      </trkpt>
      <trkpt lat="45.453487" lon="6.970929">
        <ele>1862.826</ele>
        <time>2018-07-17T13:16:40Z</time>
      </trkpt>
      <trkpt lat="45.453466" lon="6.970991">
        <ele>1863.083</ele>
        <time>2018-07-17T13:16:48Z</time>
      </trkpt>
      <trkpt lat="45.453442" lon="6.971048">
        <ele>1863.165</ele>
        <time>2018-07-17T13:16:53Z</time>
      </trkpt>
      <trkpt lat="45.453486" lon="6.971126">
        <ele>1863.265</ele>
        <time>2018-07-17T13:17:05Z</time>
      </trkpt>
      <trkpt lat="45.453511" lon="6.971184">
        <ele>1864.526</ele>
        <time>2018-07-17T13:18:00Z</time>
      </trkpt>
      <trkpt lat="45.453562" lon="6.971196">
        <ele>1865.712</ele>
        <time>2018-07-17T13:18:04Z</time>
      </trkpt>
      <trkpt lat="45.453617" lon="6.971191">
        <ele>1866.432</ele>
        <time>2018-07-17T13:18:12Z</time>
      </trkpt>
      <trkpt lat="45.453663" lon="6.971204">
        <ele>1866.805</ele>
        <time>2018-07-17T13:18:17Z</time>
      </trkpt>
      <trkpt lat="45.453709" lon="6.971229">
        <ele>1866.208</ele>
        <time>2018-07-17T13:18:22Z</time>
      </trkpt>
      <trkpt lat="45.453762" lon="6.971230">
        <ele>1865.593</ele>
        <time>2018-07-17T13:18:29Z</time>
      </trkpt>
      <trkpt lat="45.453807" lon="6.971259">
        <ele>1864.717</ele>
        <time>2018-07-17T13:18:34Z</time>
      </trkpt>
      <trkpt lat="45.453842" lon="6.971315">
        <ele>1864.249</ele>
        <time>2018-07-17T13:18:47Z</time>
      </trkpt>
      <trkpt lat="45.453878" lon="6.971361">
        <ele>1863.985</ele>
        <time>2018-07-17T13:18:52Z</time>
      </trkpt>
      <trkpt lat="45.453919" lon="6.971395">
        <ele>1863.372</ele>
        <time>2018-07-17T13:18:56Z</time>
      </trkpt>
      <trkpt lat="45.453956" lon="6.971434">
        <ele>1863.034</ele>
        <time>2018-07-17T13:19:01Z</time>
      </trkpt>
      <trkpt lat="45.453945" lon="6.971506">
        <ele>1862.824</ele>
        <time>2018-07-17T13:19:10Z</time>
      </trkpt>
      <trkpt lat="45.453911" lon="6.971566">
        <ele>1862.755</ele>
        <time>2018-07-17T13:19:18Z</time>
      </trkpt>
      <trkpt lat="45.453872" lon="6.971618">
        <ele>1863.042</ele>
        <time>2018-07-17T13:19:23Z</time>
      </trkpt>
      <trkpt lat="45.453827" lon="6.971647">
        <ele>1862.822</ele>
        <time>2018-07-17T13:19:39Z</time>
      </trkpt>
      <trkpt lat="45.453799" lon="6.971707">
        <ele>1863.514</ele>
        <time>2018-07-17T13:19:46Z</time>
      </trkpt>
      <trkpt lat="45.453772" lon="6.971763">
        <ele>1863.908</ele>
        <time>2018-07-17T13:19:52Z</time>
      </trkpt>
      <trkpt lat="45.453741" lon="6.971826">
        <ele>1864.176</ele>
        <time>2018-07-17T13:19:57Z</time>
      </trkpt>
      <trkpt lat="45.453705" lon="6.971872">
        <ele>1863.880</ele>
        <time>2018-07-17T13:20:02Z</time>
      </trkpt>
      <trkpt lat="45.453671" lon="6.971930">
        <ele>1864.022</ele>
        <time>2018-07-17T13:20:06Z</time>
      </trkpt>
      <trkpt lat="45.453640" lon="6.971978">
        <ele>1863.768</ele>
        <time>2018-07-17T13:20:10Z</time>
      </trkpt>
      <trkpt lat="45.453618" lon="6.972044">
        <ele>1863.985</ele>
        <time>2018-07-17T13:20:14Z</time>
      </trkpt>
      <trkpt lat="45.453596" lon="6.972109">
        <ele>1864.457</ele>
        <time>2018-07-17T13:20:18Z</time>
      </trkpt>
      <trkpt lat="45.453576" lon="6.972169">
        <ele>1865.127</ele>
        <time>2018-07-17T13:20:22Z</time>
      </trkpt>
      <trkpt lat="45.453552" lon="6.972234">
        <ele>1865.118</ele>
        <time>2018-07-17T13:20:27Z</time>
      </trkpt>
      <trkpt lat="45.453515" lon="6.972288">
        <ele>1864.738</ele>
        <time>2018-07-17T13:20:32Z</time>
      </trkpt>
      <trkpt lat="45.453481" lon="6.972333">
        <ele>1864.570</ele>
        <time>2018-07-17T13:20:36Z</time>
      </trkpt>
      <trkpt lat="45.453449" lon="6.972392">
        <ele>1864.417</ele>
        <time>2018-07-17T13:20:41Z</time>
      </trkpt>
      <trkpt lat="45.453414" lon="6.972445">
        <ele>1864.708</ele>
        <time>2018-07-17T13:20:45Z</time>
      </trkpt>
      <trkpt lat="45.453380" lon="6.972490">
        <ele>1864.515</ele>
        <time>2018-07-17T13:20:49Z</time>
      </trkpt>
      <trkpt lat="45.453346" lon="6.972541">
        <ele>1865.269</ele>
        <time>2018-07-17T13:20:53Z</time>
      </trkpt>
      <trkpt lat="45.453310" lon="6.972590">
        <ele>1866.051</ele>
        <time>2018-07-17T13:20:57Z</time>
      </trkpt>
      <trkpt lat="45.453279" lon="6.972640">
        <ele>1866.567</ele>
        <time>2018-07-17T13:21:01Z</time>
      </trkpt>
      <trkpt lat="45.453242" lon="6.972691">
        <ele>1866.874</ele>
        <time>2018-07-17T13:21:05Z</time>
      </trkpt>
      <trkpt lat="45.453207" lon="6.972745">
        <ele>1867.016</ele>
        <time>2018-07-17T13:21:09Z</time>
      </trkpt>
      <trkpt lat="45.453181" lon="6.972810">
        <ele>1866.726</ele>
        <time>2018-07-17T13:21:14Z</time>
      </trkpt>
      <trkpt lat="45.453148" lon="6.972870">
        <ele>1866.917</ele>
        <time>2018-07-17T13:21:19Z</time>
      </trkpt>
      <trkpt lat="45.453121" lon="6.972928">
        <ele>1867.078</ele>
        <time>2018-07-17T13:21:23Z</time>
      </trkpt>
      <trkpt lat="45.453092" lon="6.972980">
        <ele>1866.733</ele>
        <time>2018-07-17T13:21:27Z</time>
      </trkpt>
      <trkpt lat="45.453053" lon="6.973032">
        <ele>1866.926</ele>
        <time>2018-07-17T13:21:32Z</time>
      </trkpt>
      <trkpt lat="45.453010" lon="6.973089">
        <ele>1867.408</ele>
        <time>2018-07-17T13:21:37Z</time>
      </trkpt>
      <trkpt lat="45.452973" lon="6.973131">
        <ele>1867.729</ele>
        <time>2018-07-17T13:21:41Z</time>
      </trkpt>
      <trkpt lat="45.452941" lon="6.973177">
        <ele>1867.933</ele>
        <time>2018-07-17T13:21:45Z</time>
      </trkpt>
      <trkpt lat="45.452910" lon="6.973241">
        <ele>1867.285</ele>
        <time>2018-07-17T13:21:50Z</time>
      </trkpt>
      <trkpt lat="45.452881" lon="6.973305">
        <ele>1866.431</ele>
        <time>2018-07-17T13:21:55Z</time>
      </trkpt>
      <trkpt lat="45.452837" lon="6.973347">
        <ele>1865.518</ele>
        <time>2018-07-17T13:22:00Z</time>
      </trkpt>
      <trkpt lat="45.452793" lon="6.973396">
        <ele>1865.070</ele>
        <time>2018-07-17T13:22:05Z</time>
      </trkpt>
      <trkpt lat="45.452754" lon="6.973448">
        <ele>1865.120</ele>
        <time>2018-07-17T13:22:10Z</time>
      </trkpt>
      <trkpt lat="45.452718" lon="6.973493">
        <ele>1865.171</ele>
        <time>2018-07-17T13:22:14Z</time>
      </trkpt>
      <trkpt lat="45.452674" lon="6.973531">
        <ele>1865.954</ele>
        <time>2018-07-17T13:22:18Z</time>
      </trkpt>
      <trkpt lat="45.452631" lon="6.973565">
        <ele>1865.656</ele>
        <time>2018-07-17T13:22:23Z</time>
      </trkpt>
      <trkpt lat="45.452593" lon="6.973612">
        <ele>1865.011</ele>
        <time>2018-07-17T13:22:28Z</time>
      </trkpt>
      <trkpt lat="45.452556" lon="6.973663">
        <ele>1865.108</ele>
        <time>2018-07-17T13:22:32Z</time>
      </trkpt>
      <trkpt lat="45.452520" lon="6.973712">
        <ele>1865.147</ele>
        <time>2018-07-17T13:22:36Z</time>
      </trkpt>
      <trkpt lat="45.452487" lon="6.973759">
        <ele>1865.151</ele>
        <time>2018-07-17T13:22:40Z</time>
      </trkpt>
      <trkpt lat="45.452447" lon="6.973799">
        <ele>1865.173</ele>
        <time>2018-07-17T13:22:44Z</time>
      </trkpt>
      <trkpt lat="45.452410" lon="6.973843">
        <ele>1865.599</ele>
        <time>2018-07-17T13:22:48Z</time>
      </trkpt>
      <trkpt lat="45.452367" lon="6.973890">
        <ele>1866.146</ele>
        <time>2018-07-17T13:22:53Z</time>
      </trkpt>
      <trkpt lat="45.452321" lon="6.973928">
        <ele>1867.348</ele>
        <time>2018-07-17T13:22:58Z</time>
      </trkpt>
      <trkpt lat="45.452278" lon="6.973970">
        <ele>1867.238</ele>
        <time>2018-07-17T13:23:03Z</time>
      </trkpt>
      <trkpt lat="45.452238" lon="6.974021">
        <ele>1866.359</ele>
        <time>2018-07-17T13:23:08Z</time>
      </trkpt>
      <trkpt lat="45.452202" lon="6.974067">
        <ele>1865.837</ele>
        <time>2018-07-17T13:23:12Z</time>
      </trkpt>
      <trkpt lat="45.452166" lon="6.974109">
        <ele>1865.549</ele>
        <time>2018-07-17T13:23:16Z</time>
      </trkpt>
      <trkpt lat="45.452125" lon="6.974148">
        <ele>1865.313</ele>
        <time>2018-07-17T13:23:20Z</time>
      </trkpt>
      <trkpt lat="45.452081" lon="6.974186">
        <ele>1865.208</ele>
        <time>2018-07-17T13:23:24Z</time>
      </trkpt>
      <trkpt lat="45.452035" lon="6.974224">
        <ele>1864.735</ele>
        <time>2018-07-17T13:23:29Z</time>
      </trkpt>
      <trkpt lat="45.451996" lon="6.974272">
        <ele>1864.469</ele>
        <time>2018-07-17T13:23:33Z</time>
      </trkpt>
      <trkpt lat="45.451960" lon="6.974324">
        <ele>1864.621</ele>
        <time>2018-07-17T13:23:37Z</time>
      </trkpt>
      <trkpt lat="45.451914" lon="6.974335">
        <ele>1865.137</ele>
        <time>2018-07-17T13:23:42Z</time>
      </trkpt>
      <trkpt lat="45.451881" lon="6.974380">
        <ele>1865.474</ele>
        <time>2018-07-17T13:23:47Z</time>
      </trkpt>
      <trkpt lat="45.451850" lon="6.974427">
        <ele>1866.096</ele>
        <time>2018-07-17T13:23:51Z</time>
      </trkpt>
      <trkpt lat="45.451805" lon="6.974459">
        <ele>1867.686</ele>
        <time>2018-07-17T13:23:55Z</time>
      </trkpt>
      <trkpt lat="45.451760" lon="6.974508">
        <ele>1868.567</ele>
        <time>2018-07-17T13:23:59Z</time>
      </trkpt>
      <trkpt lat="45.451716" lon="6.974556">
        <ele>1869.163</ele>
        <time>2018-07-17T13:24:03Z</time>
      </trkpt>
      <trkpt lat="45.451680" lon="6.974597">
        <ele>1869.844</ele>
        <time>2018-07-17T13:24:07Z</time>
      </trkpt>
      <trkpt lat="45.451653" lon="6.974666">
        <ele>1871.018</ele>
        <time>2018-07-17T13:24:11Z</time>
      </trkpt>
      <trkpt lat="45.451608" lon="6.974715">
        <ele>1872.108</ele>
        <time>2018-07-17T13:24:16Z</time>
      </trkpt>
      <trkpt lat="45.451568" lon="6.974745">
        <ele>1872.058</ele>
        <time>2018-07-17T13:24:20Z</time>
      </trkpt>
      <trkpt lat="45.451537" lon="6.974792">
        <ele>1872.372</ele>
        <time>2018-07-17T13:24:24Z</time>
      </trkpt>
      <trkpt lat="45.451495" lon="6.974829">
        <ele>1873.324</ele>
        <time>2018-07-17T13:24:28Z</time>
      </trkpt>
      <trkpt lat="45.451452" lon="6.974876">
        <ele>1873.940</ele>
        <time>2018-07-17T13:24:32Z</time>
      </trkpt>
      <trkpt lat="45.451409" lon="6.974906">
        <ele>1873.917</ele>
        <time>2018-07-17T13:24:36Z</time>
      </trkpt>
      <trkpt lat="45.451374" lon="6.974961">
        <ele>1873.599</ele>
        <time>2018-07-17T13:24:42Z</time>
      </trkpt>
      <trkpt lat="45.451343" lon="6.975011">
        <ele>1872.869</ele>
        <time>2018-07-17T13:24:47Z</time>
      </trkpt>
      <trkpt lat="45.451334" lon="6.975075">
        <ele>1872.070</ele>
        <time>2018-07-17T13:24:51Z</time>
      </trkpt>
      <trkpt lat="45.451325" lon="6.975138">
        <ele>1871.525</ele>
        <time>2018-07-17T13:24:55Z</time>
      </trkpt>
      <trkpt lat="45.451314" lon="6.975206">
        <ele>1871.226</ele>
        <time>2018-07-17T13:25:00Z</time>
      </trkpt>
      <trkpt lat="45.451276" lon="6.975250">
        <ele>1871.008</ele>
        <time>2018-07-17T13:25:05Z</time>
      </trkpt>
      <trkpt lat="45.451246" lon="6.975305">
        <ele>1870.508</ele>
        <time>2018-07-17T13:25:10Z</time>
      </trkpt>
      <trkpt lat="45.451231" lon="6.975371">
        <ele>1869.834</ele>
        <time>2018-07-17T13:25:15Z</time>
      </trkpt>
      <trkpt lat="45.451202" lon="6.975420">
        <ele>1869.418</ele>
        <time>2018-07-17T13:25:19Z</time>
      </trkpt>
      <trkpt lat="45.451163" lon="6.975464">
        <ele>1869.110</ele>
        <time>2018-07-17T13:25:23Z</time>
      </trkpt>
      <trkpt lat="45.451120" lon="6.975499">
        <ele>1868.516</ele>
        <time>2018-07-17T13:25:29Z</time>
      </trkpt>
      <trkpt lat="45.451092" lon="6.975565">
        <ele>1869.053</ele>
        <time>2018-07-17T13:25:35Z</time>
      </trkpt>
      <trkpt lat="45.451073" lon="6.975625">
        <ele>1869.355</ele>
        <time>2018-07-17T13:25:39Z</time>
      </trkpt>
      <trkpt lat="45.451050" lon="6.975688">
        <ele>1870.335</ele>
        <time>2018-07-17T13:25:45Z</time>
      </trkpt>
      <trkpt lat="45.451027" lon="6.975744">
        <ele>1870.196</ele>
        <time>2018-07-17T13:25:51Z</time>
      </trkpt>
      <trkpt lat="45.450983" lon="6.975787">
        <ele>1870.493</ele>
        <time>2018-07-17T13:25:56Z</time>
      </trkpt>
      <trkpt lat="45.450949" lon="6.975849">
        <ele>1871.465</ele>
        <time>2018-07-17T13:26:06Z</time>
      </trkpt>
      <trkpt lat="45.450922" lon="6.975902">
        <ele>1872.021</ele>
        <time>2018-07-17T13:26:10Z</time>
      </trkpt>
      <trkpt lat="45.450890" lon="6.975966">
        <ele>1872.708</ele>
        <time>2018-07-17T13:26:14Z</time>
      </trkpt>
      <trkpt lat="45.450887" lon="6.976036">
        <ele>1873.531</ele>
        <time>2018-07-17T13:26:18Z</time>
      </trkpt>
      <trkpt lat="45.450884" lon="6.976101">
        <ele>1873.245</ele>
        <time>2018-07-17T13:26:22Z</time>
      </trkpt>
      <trkpt lat="45.450892" lon="6.976164">
        <ele>1874.267</ele>
        <time>2018-07-17T13:26:26Z</time>
      </trkpt>
      <trkpt lat="45.450887" lon="6.976235">
        <ele>1874.463</ele>
        <time>2018-07-17T13:26:31Z</time>
      </trkpt>
      <trkpt lat="45.450868" lon="6.976307">
        <ele>1875.390</ele>
        <time>2018-07-17T13:26:36Z</time>
      </trkpt>
      <trkpt lat="45.450821" lon="6.976350">
        <ele>1876.742</ele>
        <time>2018-07-17T13:26:40Z</time>
      </trkpt>
      <trkpt lat="45.450778" lon="6.976400">
        <ele>1877.522</ele>
        <time>2018-07-17T13:26:44Z</time>
      </trkpt>
      <trkpt lat="45.450746" lon="6.976451">
        <ele>1878.013</ele>
        <time>2018-07-17T13:26:48Z</time>
      </trkpt>
      <trkpt lat="45.450709" lon="6.976501">
        <ele>1878.382</ele>
        <time>2018-07-17T13:26:53Z</time>
      </trkpt>
      <trkpt lat="45.450675" lon="6.976544">
        <ele>1878.943</ele>
        <time>2018-07-17T13:26:56Z</time>
      </trkpt>
      <trkpt lat="45.450630" lon="6.976591">
        <ele>1879.217</ele>
        <time>2018-07-17T13:27:00Z</time>
      </trkpt>
      <trkpt lat="45.450597" lon="6.976635">
        <ele>1879.008</ele>
        <time>2018-07-17T13:27:04Z</time>
      </trkpt>
      <trkpt lat="45.450564" lon="6.976680">
        <ele>1878.590</ele>
        <time>2018-07-17T13:27:08Z</time>
      </trkpt>
      <trkpt lat="45.450535" lon="6.976738">
        <ele>1878.644</ele>
        <time>2018-07-17T13:27:12Z</time>
      </trkpt>
      <trkpt lat="45.450500" lon="6.976797">
        <ele>1879.126</ele>
        <time>2018-07-17T13:27:17Z</time>
      </trkpt>
      <trkpt lat="45.450468" lon="6.976852">
        <ele>1879.072</ele>
        <time>2018-07-17T13:27:21Z</time>
      </trkpt>
      <trkpt lat="45.450438" lon="6.976910">
        <ele>1879.789</ele>
        <time>2018-07-17T13:27:25Z</time>
      </trkpt>
      <trkpt lat="45.450411" lon="6.976971">
        <ele>1880.151</ele>
        <time>2018-07-17T13:27:30Z</time>
      </trkpt>
      <trkpt lat="45.450374" lon="6.977028">
        <ele>1879.631</ele>
        <time>2018-07-17T13:27:35Z</time>
      </trkpt>
      <trkpt lat="45.450355" lon="6.977101">
        <ele>1879.742</ele>
        <time>2018-07-17T13:27:40Z</time>
      </trkpt>
      <trkpt lat="45.450323" lon="6.977167">
        <ele>1880.134</ele>
        <time>2018-07-17T13:27:45Z</time>
      </trkpt>
      <trkpt lat="45.450289" lon="6.977229">
        <ele>1880.455</ele>
        <time>2018-07-17T13:27:50Z</time>
      </trkpt>
      <trkpt lat="45.450250" lon="6.977266">
        <ele>1881.010</ele>
        <time>2018-07-17T13:27:57Z</time>
      </trkpt>
      <trkpt lat="45.450203" lon="6.977266">
        <ele>1880.908</ele>
        <time>2018-07-17T13:28:02Z</time>
      </trkpt>
      <trkpt lat="45.450154" lon="6.977259">
        <ele>1880.975</ele>
        <time>2018-07-17T13:28:07Z</time>
      </trkpt>
      <trkpt lat="45.450104" lon="6.977251">
        <ele>1881.779</ele>
        <time>2018-07-17T13:28:12Z</time>
      </trkpt>
      <trkpt lat="45.450064" lon="6.977282">
        <ele>1882.261</ele>
        <time>2018-07-17T13:28:17Z</time>
      </trkpt>
      <trkpt lat="45.450024" lon="6.977321">
        <ele>1882.977</ele>
        <time>2018-07-17T13:28:22Z</time>
      </trkpt>
      <trkpt lat="45.449983" lon="6.977349">
        <ele>1882.594</ele>
        <time>2018-07-17T13:28:29Z</time>
      </trkpt>
      <trkpt lat="45.449956" lon="6.977405">
        <ele>1881.926</ele>
        <time>2018-07-17T13:28:34Z</time>
      </trkpt>
      <trkpt lat="45.449902" lon="6.977420">
        <ele>1881.166</ele>
        <time>2018-07-17T13:28:41Z</time>
      </trkpt>
      <trkpt lat="45.449855" lon="6.977425">
        <ele>1880.627</ele>
        <time>2018-07-17T13:28:46Z</time>
      </trkpt>
      <trkpt lat="45.449814" lon="6.977468">
        <ele>1876.624</ele>
        <time>2018-07-17T13:34:40Z</time>
      </trkpt>
      <trkpt lat="45.449765" lon="6.977453">
        <ele>1872.704</ele>
        <time>2018-07-17T13:34:47Z</time>
      </trkpt>
      <trkpt lat="45.449714" lon="6.977461">
        <ele>1870.514</ele>
        <time>2018-07-17T13:34:54Z</time>
      </trkpt>
      <trkpt lat="45.449662" lon="6.977444">
        <ele>1868.808</ele>
        <time>2018-07-17T13:35:00Z</time>
      </trkpt>
      <trkpt lat="45.449607" lon="6.977436">
        <ele>1871.694</ele>
        <time>2018-07-17T13:35:08Z</time>
      </trkpt>
      <trkpt lat="45.449560" lon="6.977424">
        <ele>1871.088</ele>
        <time>2018-07-17T13:35:12Z</time>
      </trkpt>
      <trkpt lat="45.449516" lon="6.977387">
        <ele>1873.030</ele>
        <time>2018-07-17T13:35:15Z</time>
      </trkpt>
      <trkpt lat="45.449471" lon="6.977368">
        <ele>1874.616</ele>
        <time>2018-07-17T13:35:20Z</time>
      </trkpt>
      <trkpt lat="45.449423" lon="6.977350">
        <ele>1876.043</ele>
        <time>2018-07-17T13:35:24Z</time>
      </trkpt>
      <trkpt lat="45.449379" lon="6.977332">
        <ele>1876.455</ele>
        <time>2018-07-17T13:35:27Z</time>
      </trkpt>
      <trkpt lat="45.449327" lon="6.977302">
        <ele>1877.545</ele>
        <time>2018-07-17T13:35:32Z</time>
      </trkpt>
      <trkpt lat="45.449285" lon="6.977275">
        <ele>1878.196</ele>
        <time>2018-07-17T13:35:35Z</time>
      </trkpt>
      <trkpt lat="45.449240" lon="6.977242">
        <ele>1878.986</ele>
        <time>2018-07-17T13:35:39Z</time>
      </trkpt>
      <trkpt lat="45.449199" lon="6.977194">
        <ele>1879.460</ele>
        <time>2018-07-17T13:35:44Z</time>
      </trkpt>
      <trkpt lat="45.449158" lon="6.977153">
        <ele>1879.726</ele>
        <time>2018-07-17T13:35:48Z</time>
      </trkpt>
      <trkpt lat="45.449113" lon="6.977112">
        <ele>1879.908</ele>
        <time>2018-07-17T13:35:52Z</time>
      </trkpt>
      <trkpt lat="45.449064" lon="6.977087">
        <ele>1880.810</ele>
        <time>2018-07-17T13:35:56Z</time>
      </trkpt>
      <trkpt lat="45.449022" lon="6.977063">
        <ele>1881.794</ele>
        <time>2018-07-17T13:36:01Z</time>
      </trkpt>
      <trkpt lat="45.448978" lon="6.977034">
        <ele>1882.366</ele>
        <time>2018-07-17T13:36:07Z</time>
      </trkpt>
      <trkpt lat="45.448935" lon="6.977004">
        <ele>1883.032</ele>
        <time>2018-07-17T13:36:11Z</time>
      </trkpt>
      <trkpt lat="45.448890" lon="6.976975">
        <ele>1883.829</ele>
        <time>2018-07-17T13:36:17Z</time>
      </trkpt>
      <trkpt lat="45.448843" lon="6.976940">
        <ele>1883.981</ele>
        <time>2018-07-17T13:36:25Z</time>
      </trkpt>
      <trkpt lat="45.448801" lon="6.976910">
        <ele>1885.241</ele>
        <time>2018-07-17T13:36:30Z</time>
      </trkpt>
      <trkpt lat="45.448747" lon="6.976915">
        <ele>1884.072</ele>
        <time>2018-07-17T13:36:37Z</time>
      </trkpt>
      <trkpt lat="45.448690" lon="6.976913">
        <ele>1883.387</ele>
        <time>2018-07-17T13:36:41Z</time>
      </trkpt>
      <trkpt lat="45.448628" lon="6.976894">
        <ele>1882.542</ele>
        <time>2018-07-17T13:36:45Z</time>
      </trkpt>
      <trkpt lat="45.448578" lon="6.976889">
        <ele>1881.226</ele>
        <time>2018-07-17T13:36:49Z</time>
      </trkpt>
      <trkpt lat="45.448528" lon="6.976859">
        <ele>1882.008</ele>
        <time>2018-07-17T13:36:52Z</time>
      </trkpt>
      <trkpt lat="45.448486" lon="6.976825">
        <ele>1882.990</ele>
        <time>2018-07-17T13:36:54Z</time>
      </trkpt>
      <trkpt lat="45.448439" lon="6.976803">
        <ele>1883.414</ele>
        <time>2018-07-17T13:36:57Z</time>
      </trkpt>
      <trkpt lat="45.448393" lon="6.976781">
        <ele>1883.356</ele>
        <time>2018-07-17T13:37:01Z</time>
      </trkpt>
      <trkpt lat="45.448345" lon="6.976769">
        <ele>1883.772</ele>
        <time>2018-07-17T13:37:06Z</time>
      </trkpt>
      <trkpt lat="45.448307" lon="6.976805">
        <ele>1883.959</ele>
        <time>2018-07-17T13:37:11Z</time>
      </trkpt>
      <trkpt lat="45.448255" lon="6.976825">
        <ele>1883.611</ele>
        <time>2018-07-17T13:37:16Z</time>
      </trkpt>
      <trkpt lat="45.448206" lon="6.976827">
        <ele>1883.441</ele>
        <time>2018-07-17T13:37:20Z</time>
      </trkpt>
      <trkpt lat="45.448164" lon="6.976860">
        <ele>1883.712</ele>
        <time>2018-07-17T13:37:24Z</time>
      </trkpt>
      <trkpt lat="45.448116" lon="6.976879">
        <ele>1883.517</ele>
        <time>2018-07-17T13:37:28Z</time>
      </trkpt>
      <trkpt lat="45.448063" lon="6.976896">
        <ele>1884.287</ele>
        <time>2018-07-17T13:37:32Z</time>
      </trkpt>
      <trkpt lat="45.448014" lon="6.976919">
        <ele>1884.615</ele>
        <time>2018-07-17T13:37:36Z</time>
      </trkpt>
      <trkpt lat="45.447966" lon="6.976932">
        <ele>1885.608</ele>
        <time>2018-07-17T13:37:40Z</time>
      </trkpt>
      <trkpt lat="45.447906" lon="6.976926">
        <ele>1886.693</ele>
        <time>2018-07-17T13:37:44Z</time>
      </trkpt>
      <trkpt lat="45.447863" lon="6.976950">
        <ele>1887.257</ele>
        <time>2018-07-17T13:37:48Z</time>
      </trkpt>
      <trkpt lat="45.447808" lon="6.976956">
        <ele>1888.069</ele>
        <time>2018-07-17T13:37:52Z</time>
      </trkpt>
      <trkpt lat="45.447758" lon="6.976969">
        <ele>1888.125</ele>
        <time>2018-07-17T13:37:57Z</time>
      </trkpt>
      <trkpt lat="45.447713" lon="6.976985">
        <ele>1888.152</ele>
        <time>2018-07-17T13:38:01Z</time>
      </trkpt>
      <trkpt lat="45.447668" lon="6.977004">
        <ele>1888.514</ele>
        <time>2018-07-17T13:38:05Z</time>
      </trkpt>
      <trkpt lat="45.447622" lon="6.977029">
        <ele>1888.414</ele>
        <time>2018-07-17T13:38:10Z</time>
      </trkpt>
      <trkpt lat="45.447576" lon="6.977021">
        <ele>1887.965</ele>
        <time>2018-07-17T13:38:13Z</time>
      </trkpt>
      <trkpt lat="45.447524" lon="6.977014">
        <ele>1888.029</ele>
        <time>2018-07-17T13:38:17Z</time>
      </trkpt>
      <trkpt lat="45.447475" lon="6.977000">
        <ele>1888.100</ele>
        <time>2018-07-17T13:38:21Z</time>
      </trkpt>
      <trkpt lat="45.447429" lon="6.977003">
        <ele>1887.320</ele>
        <time>2018-07-17T13:38:30Z</time>
      </trkpt>
      <trkpt lat="45.447374" lon="6.976986">
        <ele>1887.608</ele>
        <time>2018-07-17T13:38:35Z</time>
      </trkpt>
      <trkpt lat="45.447318" lon="6.976981">
        <ele>1887.424</ele>
        <time>2018-07-17T13:38:40Z</time>
      </trkpt>
      <trkpt lat="45.447273" lon="6.976974">
        <ele>1888.128</ele>
        <time>2018-07-17T13:38:43Z</time>
      </trkpt>
      <trkpt lat="45.447225" lon="6.976988">
        <ele>1888.170</ele>
        <time>2018-07-17T13:38:48Z</time>
      </trkpt>
      <trkpt lat="45.447179" lon="6.976999">
        <ele>1888.566</ele>
        <time>2018-07-17T13:38:52Z</time>
      </trkpt>
      <trkpt lat="45.447124" lon="6.977016">
        <ele>1889.133</ele>
        <time>2018-07-17T13:38:57Z</time>
      </trkpt>
      <trkpt lat="45.447078" lon="6.977048">
        <ele>1889.125</ele>
        <time>2018-07-17T13:39:01Z</time>
      </trkpt>
      <trkpt lat="45.447031" lon="6.977070">
        <ele>1889.595</ele>
        <time>2018-07-17T13:39:05Z</time>
      </trkpt>
      <trkpt lat="45.446985" lon="6.977078">
        <ele>1889.776</ele>
        <time>2018-07-17T13:39:09Z</time>
      </trkpt>
      <trkpt lat="45.446934" lon="6.977091">
        <ele>1890.636</ele>
        <time>2018-07-17T13:39:14Z</time>
      </trkpt>
      <trkpt lat="45.446884" lon="6.977082">
        <ele>1891.217</ele>
        <time>2018-07-17T13:39:19Z</time>
      </trkpt>
      <trkpt lat="45.446837" lon="6.977081">
        <ele>1891.918</ele>
        <time>2018-07-17T13:39:24Z</time>
      </trkpt>
      <trkpt lat="45.446787" lon="6.977107">
        <ele>1892.308</ele>
        <time>2018-07-17T13:39:30Z</time>
      </trkpt>
      <trkpt lat="45.446745" lon="6.977076">
        <ele>1893.465</ele>
        <time>2018-07-17T13:39:39Z</time>
      </trkpt>
      <trkpt lat="45.446714" lon="6.977027">
        <ele>1894.099</ele>
        <time>2018-07-17T13:39:43Z</time>
      </trkpt>
      <trkpt lat="45.446690" lon="6.976969">
        <ele>1894.091</ele>
        <time>2018-07-17T13:39:47Z</time>
      </trkpt>
      <trkpt lat="45.446663" lon="6.976913">
        <ele>1894.057</ele>
        <time>2018-07-17T13:39:51Z</time>
      </trkpt>
      <trkpt lat="45.446641" lon="6.976853">
        <ele>1894.014</ele>
        <time>2018-07-17T13:39:55Z</time>
      </trkpt>
      <trkpt lat="45.446607" lon="6.976797">
        <ele>1894.456</ele>
        <time>2018-07-17T13:40:00Z</time>
      </trkpt>
      <trkpt lat="45.446572" lon="6.976742">
        <ele>1895.096</ele>
        <time>2018-07-17T13:40:05Z</time>
      </trkpt>
      <trkpt lat="45.446533" lon="6.976697">
        <ele>1895.057</ele>
        <time>2018-07-17T13:40:09Z</time>
      </trkpt>
      <trkpt lat="45.446484" lon="6.976690">
        <ele>1895.086</ele>
        <time>2018-07-17T13:40:13Z</time>
      </trkpt>
      <trkpt lat="45.446437" lon="6.976681">
        <ele>1895.460</ele>
        <time>2018-07-17T13:40:18Z</time>
      </trkpt>
      <trkpt lat="45.446384" lon="6.976669">
        <ele>1895.626</ele>
        <time>2018-07-17T13:40:24Z</time>
      </trkpt>
      <trkpt lat="45.446337" lon="6.976640">
        <ele>1894.908</ele>
        <time>2018-07-17T13:40:29Z</time>
      </trkpt>
      <trkpt lat="45.446287" lon="6.976637">
        <ele>1894.930</ele>
        <time>2018-07-17T13:40:34Z</time>
      </trkpt>
      <trkpt lat="45.446243" lon="6.976620">
        <ele>1895.734</ele>
        <time>2018-07-17T13:40:38Z</time>
      </trkpt>
      <trkpt lat="45.446194" lon="6.976593">
        <ele>1896.226</ele>
        <time>2018-07-17T13:40:44Z</time>
      </trkpt>
      <trkpt lat="45.446167" lon="6.976648">
        <ele>1896.952</ele>
        <time>2018-07-17T13:40:51Z</time>
      </trkpt>
      <trkpt lat="45.446181" lon="6.976713">
        <ele>1896.549</ele>
        <time>2018-07-17T13:41:28Z</time>
      </trkpt>
      <trkpt lat="45.446197" lon="6.976773">
        <ele>1895.971</ele>
        <time>2018-07-17T13:41:33Z</time>
      </trkpt>
      <trkpt lat="45.446217" lon="6.976842">
        <ele>1894.781</ele>
        <time>2018-07-17T13:41:38Z</time>
      </trkpt>
      <trkpt lat="45.446238" lon="6.976903">
        <ele>1894.832</ele>
        <time>2018-07-17T13:41:44Z</time>
      </trkpt>
      <trkpt lat="45.446235" lon="6.976975">
        <ele>1894.983</ele>
        <time>2018-07-17T13:41:49Z</time>
      </trkpt>
      <trkpt lat="45.446205" lon="6.977029">
        <ele>1895.725</ele>
        <time>2018-07-17T13:41:56Z</time>
      </trkpt>
      <trkpt lat="45.446173" lon="6.977080">
        <ele>1896.217</ele>
        <time>2018-07-17T13:42:03Z</time>
      </trkpt>
      <trkpt lat="45.446141" lon="6.977127">
        <ele>1896.508</ele>
        <time>2018-07-17T13:42:09Z</time>
      </trkpt>
      <trkpt lat="45.446122" lon="6.977196">
        <ele>1897.510</ele>
        <time>2018-07-17T13:42:14Z</time>
      </trkpt>
      <trkpt lat="45.446116" lon="6.977260">
        <ele>1898.134</ele>
        <time>2018-07-17T13:42:19Z</time>
      </trkpt>
      <trkpt lat="45.446068" lon="6.977291">
        <ele>1899.396</ele>
        <time>2018-07-17T13:42:25Z</time>
      </trkpt>
      <trkpt lat="45.446026" lon="6.977324">
        <ele>1900.462</ele>
        <time>2018-07-17T13:42:30Z</time>
      </trkpt>
      <trkpt lat="45.445975" lon="6.977345">
        <ele>1901.519</ele>
        <time>2018-07-17T13:42:36Z</time>
      </trkpt>
      <trkpt lat="45.445930" lon="6.977356">
        <ele>1902.141</ele>
        <time>2018-07-17T13:42:41Z</time>
      </trkpt>
      <trkpt lat="45.445883" lon="6.977369">
        <ele>1902.141</ele>
        <time>2018-07-17T13:42:46Z</time>
      </trkpt>
      <trkpt lat="45.445837" lon="6.977382">
        <ele>1902.172</ele>
        <time>2018-07-17T13:42:51Z</time>
      </trkpt>
      <trkpt lat="45.445791" lon="6.977373">
        <ele>1902.133</ele>
        <time>2018-07-17T13:42:56Z</time>
      </trkpt>
      <trkpt lat="45.445746" lon="6.977400">
        <ele>1902.123</ele>
        <time>2018-07-17T13:43:01Z</time>
      </trkpt>
      <trkpt lat="45.445698" lon="6.977404">
        <ele>1902.115</ele>
        <time>2018-07-17T13:43:07Z</time>
      </trkpt>
      <trkpt lat="45.445647" lon="6.977418">
        <ele>1902.508</ele>
        <time>2018-07-17T13:43:17Z</time>
      </trkpt>
      <trkpt lat="45.445599" lon="6.977453">
        <ele>1902.775</ele>
        <time>2018-07-17T13:43:22Z</time>
      </trkpt>
      <trkpt lat="45.445551" lon="6.977471">
        <ele>1902.829</ele>
        <time>2018-07-17T13:43:28Z</time>
      </trkpt>
      <trkpt lat="45.445713" lon="6.976131">
        <ele>1850.524</ele>
        <time>2018-07-18T09:28:06Z</time>
      </trkpt>
      <trkpt lat="45.445659" lon="6.976128">
        <ele>1850.504</ele>
        <time>2018-07-18T09:28:29Z</time>
      </trkpt>
      <trkpt lat="45.445613" lon="6.976132">
        <ele>1850.514</ele>
        <time>2018-07-18T09:29:11Z</time>
      </trkpt>
      <trkpt lat="45.445563" lon="6.976136">
        <ele>1850.508</ele>
        <time>2018-07-18T09:29:17Z</time>
      </trkpt>
      <trkpt lat="45.445509" lon="6.976150">
        <ele>1850.584</ele>
        <time>2018-07-18T09:29:22Z</time>
      </trkpt>
      <trkpt lat="45.445456" lon="6.976148">
        <ele>1850.549</ele>
        <time>2018-07-18T09:29:27Z</time>
      </trkpt>
      <trkpt lat="45.445394" lon="6.976156">
        <ele>1850.524</ele>
        <time>2018-07-18T09:29:35Z</time>
      </trkpt>
      <trkpt lat="45.445343" lon="6.976170">
        <ele>1850.529</ele>
        <time>2018-07-18T09:29:38Z</time>
      </trkpt>
      <trkpt lat="45.445297" lon="6.976169">
        <ele>1850.573</ele>
        <time>2018-07-18T09:29:41Z</time>
      </trkpt>
      <trkpt lat="45.445237" lon="6.976162">
        <ele>1850.542</ele>
        <time>2018-07-18T09:29:45Z</time>
      </trkpt>
      <trkpt lat="45.445185" lon="6.976152">
        <ele>1850.566</ele>
        <time>2018-07-18T09:29:48Z</time>
      </trkpt>
      <trkpt lat="45.445140" lon="6.976146">
        <ele>1850.510</ele>
        <time>2018-07-18T09:29:51Z</time>
      </trkpt>
      <trkpt lat="45.445093" lon="6.976130">
        <ele>1850.576</ele>
        <time>2018-07-18T09:29:55Z</time>
      </trkpt>
      <trkpt lat="45.445044" lon="6.976100">
        <ele>1850.590</ele>
        <time>2018-07-18T09:29:59Z</time>
      </trkpt>
      <trkpt lat="45.445001" lon="6.976067">
        <ele>1850.519</ele>
        <time>2018-07-18T09:30:07Z</time>
      </trkpt>
      <trkpt lat="45.444959" lon="6.976020">
        <ele>1851.908</ele>
        <time>2018-07-18T09:30:11Z</time>
      </trkpt>
      <trkpt lat="45.444919" lon="6.975983">
        <ele>1851.819</ele>
        <time>2018-07-18T09:30:15Z</time>
      </trkpt>
      <trkpt lat="45.444882" lon="6.975940">
        <ele>1852.574</ele>
        <time>2018-07-18T09:30:19Z</time>
      </trkpt>
      <trkpt lat="45.444839" lon="6.975901">
        <ele>1852.669</ele>
        <time>2018-07-18T09:30:23Z</time>
      </trkpt>
      <trkpt lat="45.444791" lon="6.975863">
        <ele>1852.344</ele>
        <time>2018-07-18T09:30:28Z</time>
      </trkpt>
      <trkpt lat="45.444750" lon="6.975824">
        <ele>1852.888</ele>
        <time>2018-07-18T09:30:32Z</time>
      </trkpt>
      <trkpt lat="45.444710" lon="6.975787">
        <ele>1852.717</ele>
        <time>2018-07-18T09:30:36Z</time>
      </trkpt>
      <trkpt lat="45.444669" lon="6.975740">
        <ele>1854.471</ele>
        <time>2018-07-18T09:30:40Z</time>
      </trkpt>
      <trkpt lat="45.444634" lon="6.975697">
        <ele>1854.765</ele>
        <time>2018-07-18T09:30:44Z</time>
      </trkpt>
      <trkpt lat="45.444591" lon="6.975657">
        <ele>1854.978</ele>
        <time>2018-07-18T09:30:49Z</time>
      </trkpt>
      <trkpt lat="45.444546" lon="6.975647">
        <ele>1853.333</ele>
        <time>2018-07-18T09:30:53Z</time>
      </trkpt>
      <trkpt lat="45.444503" lon="6.975669">
        <ele>1853.726</ele>
        <time>2018-07-18T09:30:56Z</time>
      </trkpt>
      <trkpt lat="45.444460" lon="6.975710">
        <ele>1854.308</ele>
        <time>2018-07-18T09:31:00Z</time>
      </trkpt>
      <trkpt lat="45.444437" lon="6.975779">
        <ele>1853.949</ele>
        <time>2018-07-18T09:31:04Z</time>
      </trkpt>
      <trkpt lat="45.444437" lon="6.975851">
        <ele>1853.844</ele>
        <time>2018-07-18T09:31:09Z</time>
      </trkpt>
      <trkpt lat="45.444440" lon="6.975927">
        <ele>1854.449</ele>
        <time>2018-07-18T09:31:21Z</time>
      </trkpt>
      <trkpt lat="45.444430" lon="6.976010">
        <ele>1853.524</ele>
        <time>2018-07-18T09:31:25Z</time>
      </trkpt>
      <trkpt lat="45.444411" lon="6.976078">
        <ele>1853.458</ele>
        <time>2018-07-18T09:31:29Z</time>
      </trkpt>
      <trkpt lat="45.444405" lon="6.976161">
        <ele>1853.737</ele>
        <time>2018-07-18T09:31:33Z</time>
      </trkpt>
      <trkpt lat="45.444425" lon="6.976245">
        <ele>1853.591</ele>
        <time>2018-07-18T09:31:37Z</time>
      </trkpt>
      <trkpt lat="45.444448" lon="6.976301">
        <ele>1853.835</ele>
        <time>2018-07-18T09:31:41Z</time>
      </trkpt>
      <trkpt lat="45.444484" lon="6.976343">
        <ele>1853.677</ele>
        <time>2018-07-18T09:31:44Z</time>
      </trkpt>
      <trkpt lat="45.444518" lon="6.976401">
        <ele>1853.461</ele>
        <time>2018-07-18T09:31:48Z</time>
      </trkpt>
      <trkpt lat="45.444554" lon="6.976448">
        <ele>1853.627</ele>
        <time>2018-07-18T09:31:52Z</time>
      </trkpt>
      <trkpt lat="45.444588" lon="6.976493">
        <ele>1854.808</ele>
        <time>2018-07-18T09:31:56Z</time>
      </trkpt>
      <trkpt lat="45.444632" lon="6.976545">
        <ele>1854.639</ele>
        <time>2018-07-18T09:32:00Z</time>
      </trkpt>
      <trkpt lat="45.444676" lon="6.976583">
        <ele>1853.644</ele>
        <time>2018-07-18T09:32:04Z</time>
      </trkpt>
      <trkpt lat="45.444721" lon="6.976615">
        <ele>1854.129</ele>
        <time>2018-07-18T09:32:07Z</time>
      </trkpt>
      <trkpt lat="45.444759" lon="6.976653">
        <ele>1853.854</ele>
        <time>2018-07-18T09:32:10Z</time>
      </trkpt>
      <trkpt lat="45.444797" lon="6.976690">
        <ele>1853.328</ele>
        <time>2018-07-18T09:32:14Z</time>
      </trkpt>
      <trkpt lat="45.444837" lon="6.976743">
        <ele>1853.037</ele>
        <time>2018-07-18T09:32:18Z</time>
      </trkpt>
      <trkpt lat="45.444882" lon="6.976799">
        <ele>1852.661</ele>
        <time>2018-07-18T09:32:22Z</time>
      </trkpt>
      <trkpt lat="45.444925" lon="6.976854">
        <ele>1853.685</ele>
        <time>2018-07-18T09:32:27Z</time>
      </trkpt>
      <trkpt lat="45.444965" lon="6.976902">
        <ele>1853.731</ele>
        <time>2018-07-18T09:32:31Z</time>
      </trkpt>
      <trkpt lat="45.445007" lon="6.976947">
        <ele>1853.461</ele>
        <time>2018-07-18T09:32:35Z</time>
      </trkpt>
      <trkpt lat="45.445049" lon="6.977006">
        <ele>1853.207</ele>
        <time>2018-07-18T09:32:39Z</time>
      </trkpt>
      <trkpt lat="45.445095" lon="6.977031">
        <ele>1853.308</ele>
        <time>2018-07-18T09:32:43Z</time>
      </trkpt>
      <trkpt lat="45.445135" lon="6.977076">
        <ele>1853.075</ele>
        <time>2018-07-18T09:32:47Z</time>
      </trkpt>
      <trkpt lat="45.445172" lon="6.977118">
        <ele>1852.490</ele>
        <time>2018-07-18T09:32:51Z</time>
      </trkpt>
      <trkpt lat="45.445211" lon="6.977164">
        <ele>1853.265</ele>
        <time>2018-07-18T09:32:55Z</time>
      </trkpt>
      <trkpt lat="45.445249" lon="6.977226">
        <ele>1853.270</ele>
        <time>2018-07-18T09:33:00Z</time>
      </trkpt>
      <trkpt lat="45.445290" lon="6.977263">
        <ele>1852.834</ele>
        <time>2018-07-18T09:33:04Z</time>
      </trkpt>
      <trkpt lat="45.445336" lon="6.977300">
        <ele>1853.773</ele>
        <time>2018-07-18T09:33:09Z</time>
      </trkpt>
      <trkpt lat="45.445381" lon="6.977342">
        <ele>1853.187</ele>
        <time>2018-07-18T09:33:13Z</time>
      </trkpt>
      <trkpt lat="45.445417" lon="6.977386">
        <ele>1853.441</ele>
        <time>2018-07-18T09:33:18Z</time>
      </trkpt>
      <trkpt lat="45.445460" lon="6.977418">
        <ele>1852.762</ele>
        <time>2018-07-18T09:33:21Z</time>
      </trkpt>
      <trkpt lat="45.445495" lon="6.977463">
        <ele>1852.283</ele>
        <time>2018-07-18T09:33:25Z</time>
      </trkpt>
      <trkpt lat="45.445529" lon="6.977520">
        <ele>1851.711</ele>
        <time>2018-07-18T09:33:30Z</time>
      </trkpt>
      <trkpt lat="45.445559" lon="6.977581">
        <ele>1853.208</ele>
        <time>2018-07-18T09:33:35Z</time>
      </trkpt>
      <trkpt lat="45.445590" lon="6.977633">
        <ele>1851.628</ele>
        <time>2018-07-18T09:33:40Z</time>
      </trkpt>
      <trkpt lat="45.445600" lon="6.977697">
        <ele>1852.083</ele>
        <time>2018-07-18T09:33:44Z</time>
      </trkpt>
      <trkpt lat="45.445625" lon="6.977772">
        <ele>1851.848</ele>
        <time>2018-07-18T09:33:48Z</time>
      </trkpt>
      <trkpt lat="45.445636" lon="6.977838">
        <ele>1851.953</ele>
        <time>2018-07-18T09:33:52Z</time>
      </trkpt>
      <trkpt lat="45.445653" lon="6.977900">
        <ele>1851.127</ele>
        <time>2018-07-18T09:33:55Z</time>
      </trkpt>
      <trkpt lat="45.445686" lon="6.977959">
        <ele>1852.126</ele>
        <time>2018-07-18T09:34:00Z</time>
      </trkpt>
      <trkpt lat="45.445703" lon="6.978028">
        <ele>1852.640</ele>
        <time>2018-07-18T09:34:04Z</time>
      </trkpt>
      <trkpt lat="45.445730" lon="6.978086">
        <ele>1853.034</ele>
        <time>2018-07-18T09:34:09Z</time>
      </trkpt>
      <trkpt lat="45.445764" lon="6.978144">
        <ele>1853.046</ele>
        <time>2018-07-18T09:34:14Z</time>
      </trkpt>
      <trkpt lat="45.445802" lon="6.978187">
        <ele>1853.988</ele>
        <time>2018-07-18T09:34:19Z</time>
      </trkpt>
      <trkpt lat="45.445820" lon="6.978252">
        <ele>1855.716</ele>
        <time>2018-07-18T09:34:25Z</time>
      </trkpt>
      <trkpt lat="45.445831" lon="6.978317">
        <ele>1854.608</ele>
        <time>2018-07-18T09:34:29Z</time>
      </trkpt>
      <trkpt lat="45.445861" lon="6.978375">
        <ele>1854.716</ele>
        <time>2018-07-18T09:34:33Z</time>
      </trkpt>
      <trkpt lat="45.445878" lon="6.978443">
        <ele>1856.081</ele>
        <time>2018-07-18T09:34:37Z</time>
      </trkpt>
      <trkpt lat="45.445902" lon="6.978498">
        <ele>1855.096</ele>
        <time>2018-07-18T09:34:40Z</time>
      </trkpt>
      <trkpt lat="45.445934" lon="6.978564">
        <ele>1855.021</ele>
        <time>2018-07-18T09:34:44Z</time>
      </trkpt>
      <trkpt lat="45.445968" lon="6.978628">
        <ele>1854.085</ele>
        <time>2018-07-18T09:34:48Z</time>
      </trkpt>
      <trkpt lat="45.446000" lon="6.978693">
        <ele>1854.764</ele>
        <time>2018-07-18T09:34:52Z</time>
      </trkpt>
      <trkpt lat="45.446025" lon="6.978756">
        <ele>1854.898</ele>
        <time>2018-07-18T09:34:56Z</time>
      </trkpt>
      <trkpt lat="45.446055" lon="6.978818">
        <ele>1854.362</ele>
        <time>2018-07-18T09:35:00Z</time>
      </trkpt>
      <trkpt lat="45.446091" lon="6.978874">
        <ele>1854.036</ele>
        <time>2018-07-18T09:35:04Z</time>
      </trkpt>
      <trkpt lat="45.446119" lon="6.978926">
        <ele>1854.017</ele>
        <time>2018-07-18T09:35:08Z</time>
      </trkpt>
      <trkpt lat="45.446147" lon="6.978977">
        <ele>1854.718</ele>
        <time>2018-07-18T09:35:12Z</time>
      </trkpt>
      <trkpt lat="45.446176" lon="6.979047">
        <ele>1854.208</ele>
        <time>2018-07-18T09:35:16Z</time>
      </trkpt>
      <trkpt lat="45.446202" lon="6.979114">
        <ele>1855.325</ele>
        <time>2018-07-18T09:35:20Z</time>
      </trkpt>
      <trkpt lat="45.446232" lon="6.979171">
        <ele>1854.370</ele>
        <time>2018-07-18T09:35:24Z</time>
      </trkpt>
      <trkpt lat="45.446263" lon="6.979232">
        <ele>1854.715</ele>
        <time>2018-07-18T09:35:28Z</time>
      </trkpt>
      <trkpt lat="45.446289" lon="6.979308">
        <ele>1854.940</ele>
        <time>2018-07-18T09:35:33Z</time>
      </trkpt>
      <trkpt lat="45.446323" lon="6.979354">
        <ele>1853.564</ele>
        <time>2018-07-18T09:35:37Z</time>
      </trkpt>
      <trkpt lat="45.446349" lon="6.979408">
        <ele>1854.343</ele>
        <time>2018-07-18T09:35:40Z</time>
      </trkpt>
      <trkpt lat="45.446378" lon="6.979461">
        <ele>1855.097</ele>
        <time>2018-07-18T09:35:44Z</time>
      </trkpt>
      <trkpt lat="45.446389" lon="6.979542">
        <ele>1854.171</ele>
        <time>2018-07-18T09:35:52Z</time>
      </trkpt>
      <trkpt lat="45.446400" lon="6.979605">
        <ele>1852.369</ele>
        <time>2018-07-18T09:35:55Z</time>
      </trkpt>
      <trkpt lat="45.446391" lon="6.979671">
        <ele>1853.704</ele>
        <time>2018-07-18T09:36:00Z</time>
      </trkpt>
      <trkpt lat="45.446353" lon="6.979711">
        <ele>1853.524</ele>
        <time>2018-07-18T09:36:06Z</time>
      </trkpt>
      <trkpt lat="45.446305" lon="6.979732">
        <ele>1853.308</ele>
        <time>2018-07-18T09:36:13Z</time>
      </trkpt>
      <trkpt lat="45.446256" lon="6.979740">
        <ele>1853.968</ele>
        <time>2018-07-18T09:36:23Z</time>
      </trkpt>
      <trkpt lat="45.446229" lon="6.979795">
        <ele>1854.393</ele>
        <time>2018-07-18T09:36:31Z</time>
      </trkpt>
      <trkpt lat="45.446210" lon="6.979861">
        <ele>1855.728</ele>
        <time>2018-07-18T09:36:49Z</time>
      </trkpt>
      <trkpt lat="45.446207" lon="6.979926">
        <ele>1856.633</ele>
        <time>2018-07-18T09:36:53Z</time>
      </trkpt>
      <trkpt lat="45.446212" lon="6.980008">
        <ele>1856.037</ele>
        <time>2018-07-18T09:36:58Z</time>
      </trkpt>
      <trkpt lat="45.446215" lon="6.980081">
        <ele>1855.166</ele>
        <time>2018-07-18T09:37:02Z</time>
      </trkpt>
      <trkpt lat="45.446229" lon="6.980147">
        <ele>1855.930</ele>
        <time>2018-07-18T09:37:13Z</time>
      </trkpt>
      <trkpt lat="45.446233" lon="6.980214">
        <ele>1855.724</ele>
        <time>2018-07-18T09:37:18Z</time>
      </trkpt>
      <trkpt lat="45.446248" lon="6.980277">
        <ele>1853.163</ele>
        <time>2018-07-18T09:37:23Z</time>
      </trkpt>
      <trkpt lat="45.446256" lon="6.980343">
        <ele>1852.844</ele>
        <time>2018-07-18T09:37:27Z</time>
      </trkpt>
      <trkpt lat="45.446267" lon="6.980415">
        <ele>1852.518</ele>
        <time>2018-07-18T09:37:31Z</time>
      </trkpt>
      <trkpt lat="45.446281" lon="6.980487">
        <ele>1852.508</ele>
        <time>2018-07-18T09:37:35Z</time>
      </trkpt>
      <trkpt lat="45.446292" lon="6.980561">
        <ele>1852.658</ele>
        <time>2018-07-18T09:37:39Z</time>
      </trkpt>
      <trkpt lat="45.446303" lon="6.980636">
        <ele>1852.193</ele>
        <time>2018-07-18T09:37:43Z</time>
      </trkpt>
      <trkpt lat="45.446312" lon="6.980716">
        <ele>1852.188</ele>
        <time>2018-07-18T09:37:47Z</time>
      </trkpt>
      <trkpt lat="45.446321" lon="6.980786">
        <ele>1852.953</ele>
        <time>2018-07-18T09:37:51Z</time>
      </trkpt>
      <trkpt lat="45.446324" lon="6.980855">
        <ele>1852.387</ele>
        <time>2018-07-18T09:37:55Z</time>
      </trkpt>
      <trkpt lat="45.446329" lon="6.980926">
        <ele>1852.216</ele>
        <time>2018-07-18T09:37:59Z</time>
      </trkpt>
      <trkpt lat="45.446333" lon="6.980997">
        <ele>1852.510</ele>
        <time>2018-07-18T09:38:03Z</time>
      </trkpt>
      <trkpt lat="45.446334" lon="6.981072">
        <ele>1852.324</ele>
        <time>2018-07-18T09:38:07Z</time>
      </trkpt>
      <trkpt lat="45.446333" lon="6.981142">
        <ele>1852.122</ele>
        <time>2018-07-18T09:38:11Z</time>
      </trkpt>
      <trkpt lat="45.446329" lon="6.981219">
        <ele>1851.662</ele>
        <time>2018-07-18T09:38:15Z</time>
      </trkpt>
      <trkpt lat="45.446323" lon="6.981294">
        <ele>1851.708</ele>
        <time>2018-07-18T09:38:19Z</time>
      </trkpt>
      <trkpt lat="45.446315" lon="6.981373">
        <ele>1853.408</ele>
        <time>2018-07-18T09:38:23Z</time>
      </trkpt>
      <trkpt lat="45.446305" lon="6.981449">
        <ele>1851.814</ele>
        <time>2018-07-18T09:38:27Z</time>
      </trkpt>
      <trkpt lat="45.446300" lon="6.981514">
        <ele>1851.749</ele>
        <time>2018-07-18T09:38:31Z</time>
      </trkpt>
      <trkpt lat="45.446301" lon="6.981584">
        <ele>1851.874</ele>
        <time>2018-07-18T09:38:35Z</time>
      </trkpt>
      <trkpt lat="45.446302" lon="6.981656">
        <ele>1852.959</ele>
        <time>2018-07-18T09:38:39Z</time>
      </trkpt>
      <trkpt lat="45.446300" lon="6.981729">
        <ele>1851.923</ele>
        <time>2018-07-18T09:38:43Z</time>
      </trkpt>
      <trkpt lat="45.446300" lon="6.981798">
        <ele>1852.442</ele>
        <time>2018-07-18T09:38:47Z</time>
      </trkpt>
      <trkpt lat="45.446299" lon="6.981870">
        <ele>1852.336</ele>
        <time>2018-07-18T09:38:51Z</time>
      </trkpt>
      <trkpt lat="45.446296" lon="6.981945">
        <ele>1852.150</ele>
        <time>2018-07-18T09:38:55Z</time>
      </trkpt>
      <trkpt lat="45.446292" lon="6.982016">
        <ele>1852.385</ele>
        <time>2018-07-18T09:38:59Z</time>
      </trkpt>
      <trkpt lat="45.446286" lon="6.982082">
        <ele>1852.489</ele>
        <time>2018-07-18T09:39:03Z</time>
      </trkpt>
      <trkpt lat="45.446278" lon="6.982153">
        <ele>1852.417</ele>
        <time>2018-07-18T09:39:07Z</time>
      </trkpt>
      <trkpt lat="45.446268" lon="6.982229">
        <ele>1852.508</ele>
        <time>2018-07-18T09:39:11Z</time>
      </trkpt>
      <trkpt lat="45.446254" lon="6.982301">
        <ele>1852.630</ele>
        <time>2018-07-18T09:39:15Z</time>
      </trkpt>
      <trkpt lat="45.446237" lon="6.982367">
        <ele>1852.545</ele>
        <time>2018-07-18T09:39:19Z</time>
      </trkpt>
      <trkpt lat="45.446226" lon="6.982433">
        <ele>1852.310</ele>
        <time>2018-07-18T09:39:23Z</time>
      </trkpt>
      <trkpt lat="45.446216" lon="6.982498">
        <ele>1852.375</ele>
        <time>2018-07-18T09:39:27Z</time>
      </trkpt>
      <trkpt lat="45.446209" lon="6.982567">
        <ele>1854.349</ele>
        <time>2018-07-18T09:39:31Z</time>
      </trkpt>
      <trkpt lat="45.446201" lon="6.982643">
        <ele>1854.368</ele>
        <time>2018-07-18T09:39:34Z</time>
      </trkpt>
      <trkpt lat="45.446190" lon="6.982710">
        <ele>1853.042</ele>
        <time>2018-07-18T09:39:37Z</time>
      </trkpt>
      <trkpt lat="45.446208" lon="6.982771">
        <ele>1853.756</ele>
        <time>2018-07-18T09:39:41Z</time>
      </trkpt>
      <trkpt lat="45.446231" lon="6.982836">
        <ele>1853.072</ele>
        <time>2018-07-18T09:39:46Z</time>
      </trkpt>
      <trkpt lat="45.446246" lon="6.982903">
        <ele>1852.213</ele>
        <time>2018-07-18T09:39:50Z</time>
      </trkpt>
      <trkpt lat="45.446262" lon="6.982973">
        <ele>1851.714</ele>
        <time>2018-07-18T09:39:54Z</time>
      </trkpt>
      <trkpt lat="45.446269" lon="6.983041">
        <ele>1851.808</ele>
        <time>2018-07-18T09:39:58Z</time>
      </trkpt>
      <trkpt lat="45.446272" lon="6.983116">
        <ele>1851.869</ele>
        <time>2018-07-18T09:40:06Z</time>
      </trkpt>
      <trkpt lat="45.446278" lon="6.983198">
        <ele>1851.544</ele>
        <time>2018-07-18T09:40:12Z</time>
      </trkpt>
      <trkpt lat="45.446282" lon="6.983271">
        <ele>1853.449</ele>
        <time>2018-07-18T09:40:17Z</time>
      </trkpt>
      <trkpt lat="45.446285" lon="6.983342">
        <ele>1854.374</ele>
        <time>2018-07-18T09:40:26Z</time>
      </trkpt>
      <trkpt lat="45.446282" lon="6.983418">
        <ele>1852.018</ele>
        <time>2018-07-18T09:40:33Z</time>
      </trkpt>
      <trkpt lat="45.446283" lon="6.983491">
        <ele>1852.287</ele>
        <time>2018-07-18T09:40:37Z</time>
      </trkpt>
      <trkpt lat="45.446279" lon="6.983564">
        <ele>1852.621</ele>
        <time>2018-07-18T09:40:41Z</time>
      </trkpt>
      <trkpt lat="45.446271" lon="6.983642">
        <ele>1852.315</ele>
        <time>2018-07-18T09:40:45Z</time>
      </trkpt>
      <trkpt lat="45.446271" lon="6.983716">
        <ele>1852.231</ele>
        <time>2018-07-18T09:40:49Z</time>
      </trkpt>
      <trkpt lat="45.446271" lon="6.983782">
        <ele>1852.361</ele>
        <time>2018-07-18T09:40:53Z</time>
      </trkpt>
      <trkpt lat="45.446264" lon="6.983862">
        <ele>1852.707</ele>
        <time>2018-07-18T09:40:58Z</time>
      </trkpt>
      <trkpt lat="45.446276" lon="6.983933">
        <ele>1853.008</ele>
        <time>2018-07-18T09:41:02Z</time>
      </trkpt>
      <trkpt lat="45.446274" lon="6.984004">
        <ele>1852.745</ele>
        <time>2018-07-18T09:41:06Z</time>
      </trkpt>
      <trkpt lat="45.446267" lon="6.984071">
        <ele>1852.770</ele>
        <time>2018-07-18T09:41:10Z</time>
      </trkpt>
      <trkpt lat="45.446281" lon="6.984134">
        <ele>1852.965</ele>
        <time>2018-07-18T09:41:14Z</time>
      </trkpt>
      <trkpt lat="45.446289" lon="6.984201">
        <ele>1853.480</ele>
        <time>2018-07-18T09:41:19Z</time>
      </trkpt>
      <trkpt lat="45.446307" lon="6.984272">
        <ele>1853.864</ele>
        <time>2018-07-18T09:41:24Z</time>
      </trkpt>
      <trkpt lat="45.446314" lon="6.984340">
        <ele>1854.023</ele>
        <time>2018-07-18T09:41:28Z</time>
      </trkpt>
      <trkpt lat="45.446326" lon="6.984417">
        <ele>1854.327</ele>
        <time>2018-07-18T09:41:32Z</time>
      </trkpt>
      <trkpt lat="45.446320" lon="6.984484">
        <ele>1854.711</ele>
        <time>2018-07-18T09:41:36Z</time>
      </trkpt>
      <trkpt lat="45.446306" lon="6.984545">
        <ele>1854.326</ele>
        <time>2018-07-18T09:41:40Z</time>
      </trkpt>
      <trkpt lat="45.446278" lon="6.984599">
        <ele>1854.747</ele>
        <time>2018-07-18T09:41:44Z</time>
      </trkpt>
      <trkpt lat="45.446255" lon="6.984660">
        <ele>1857.411</ele>
        <time>2018-07-18T09:41:47Z</time>
      </trkpt>
      <trkpt lat="45.446226" lon="6.984716">
        <ele>1856.608</ele>
        <time>2018-07-18T09:41:50Z</time>
      </trkpt>
      <trkpt lat="45.446190" lon="6.984759">
        <ele>1857.244</ele>
        <time>2018-07-18T09:41:53Z</time>
      </trkpt>
      <trkpt lat="45.446158" lon="6.984811">
        <ele>1856.119</ele>
        <time>2018-07-18T09:41:57Z</time>
      </trkpt>
      <trkpt lat="45.446125" lon="6.984858">
        <ele>1857.574</ele>
        <time>2018-07-18T09:42:00Z</time>
      </trkpt>
      <trkpt lat="45.446090" lon="6.984915">
        <ele>1856.569</ele>
        <time>2018-07-18T09:42:04Z</time>
      </trkpt>
      <trkpt lat="45.446052" lon="6.984960">
        <ele>1857.113</ele>
        <time>2018-07-18T09:42:08Z</time>
      </trkpt>
      <trkpt lat="45.446013" lon="6.985016">
        <ele>1855.492</ele>
        <time>2018-07-18T09:42:12Z</time>
      </trkpt>
      <trkpt lat="45.445981" lon="6.985081">
        <ele>1856.856</ele>
        <time>2018-07-18T09:42:16Z</time>
      </trkpt>
      <trkpt lat="45.445948" lon="6.985134">
        <ele>1855.710</ele>
        <time>2018-07-18T09:42:20Z</time>
      </trkpt>
      <trkpt lat="45.445917" lon="6.985198">
        <ele>1855.848</ele>
        <time>2018-07-18T09:42:26Z</time>
      </trkpt>
      <trkpt lat="45.445896" lon="6.985257">
        <ele>1856.261</ele>
        <time>2018-07-18T09:42:29Z</time>
      </trkpt>
      <trkpt lat="45.445875" lon="6.985328">
        <ele>1857.817</ele>
        <time>2018-07-18T09:42:35Z</time>
      </trkpt>
      <trkpt lat="45.445845" lon="6.985389">
        <ele>1858.108</ele>
        <time>2018-07-18T09:42:40Z</time>
      </trkpt>
      <trkpt lat="45.445816" lon="6.985444">
        <ele>1857.896</ele>
        <time>2018-07-18T09:42:44Z</time>
      </trkpt>
      <trkpt lat="45.445796" lon="6.985502">
        <ele>1858.241</ele>
        <time>2018-07-18T09:42:48Z</time>
      </trkpt>
      <trkpt lat="45.445778" lon="6.985567">
        <ele>1858.416</ele>
        <time>2018-07-18T09:42:53Z</time>
      </trkpt>
      <trkpt lat="45.445760" lon="6.985644">
        <ele>1858.781</ele>
        <time>2018-07-18T09:42:57Z</time>
      </trkpt>
      <trkpt lat="45.445754" lon="6.985709">
        <ele>1858.675</ele>
        <time>2018-07-18T09:43:02Z</time>
      </trkpt>
      <trkpt lat="45.445741" lon="6.985780">
        <ele>1859.634</ele>
        <time>2018-07-18T09:43:07Z</time>
      </trkpt>
      <trkpt lat="45.445729" lon="6.985844">
        <ele>1859.148</ele>
        <time>2018-07-18T09:43:11Z</time>
      </trkpt>
      <trkpt lat="45.445714" lon="6.985910">
        <ele>1859.262</ele>
        <time>2018-07-18T09:43:15Z</time>
      </trkpt>
      <trkpt lat="45.445692" lon="6.985982">
        <ele>1858.833</ele>
        <time>2018-07-18T09:43:20Z</time>
      </trkpt>
      <trkpt lat="45.445682" lon="6.986061">
        <ele>1860.523</ele>
        <time>2018-07-18T09:43:24Z</time>
      </trkpt>
      <trkpt lat="45.445697" lon="6.986124">
        <ele>1860.715</ele>
        <time>2018-07-18T09:43:28Z</time>
      </trkpt>
      <trkpt lat="45.445702" lon="6.986189">
        <ele>1861.208</ele>
        <time>2018-07-18T09:43:33Z</time>
      </trkpt>
      <trkpt lat="45.445704" lon="6.986259">
        <ele>1859.535</ele>
        <time>2018-07-18T09:43:38Z</time>
      </trkpt>
      <trkpt lat="45.445691" lon="6.986332">
        <ele>1859.170</ele>
        <time>2018-07-18T09:43:42Z</time>
      </trkpt>
      <trkpt lat="45.445683" lon="6.986401">
        <ele>1859.525</ele>
        <time>2018-07-18T09:43:46Z</time>
      </trkpt>
      <trkpt lat="45.445679" lon="6.986471">
        <ele>1859.690</ele>
        <time>2018-07-18T09:43:50Z</time>
      </trkpt>
      <trkpt lat="45.445668" lon="6.986539">
        <ele>1861.174</ele>
        <time>2018-07-18T09:43:54Z</time>
      </trkpt>
      <trkpt lat="45.445658" lon="6.986602">
        <ele>1860.533</ele>
        <time>2018-07-18T09:43:58Z</time>
      </trkpt>
      <trkpt lat="45.445650" lon="6.986677">
        <ele>1861.227</ele>
        <time>2018-07-18T09:44:03Z</time>
      </trkpt>
      <trkpt lat="45.445651" lon="6.986748">
        <ele>1861.561</ele>
        <time>2018-07-18T09:44:08Z</time>
      </trkpt>
      <trkpt lat="45.445645" lon="6.986818">
        <ele>1861.936</ele>
        <time>2018-07-18T09:44:13Z</time>
      </trkpt>
      <trkpt lat="45.445644" lon="6.986887">
        <ele>1862.517</ele>
        <time>2018-07-18T09:44:18Z</time>
      </trkpt>
      <trkpt lat="45.445639" lon="6.986960">
        <ele>1862.618</ele>
        <time>2018-07-18T09:44:23Z</time>
      </trkpt>
      <trkpt lat="45.445637" lon="6.987036">
        <ele>1862.708</ele>
        <time>2018-07-18T09:44:28Z</time>
      </trkpt>
      <trkpt lat="45.445629" lon="6.987105">
        <ele>1862.815</ele>
        <time>2018-07-18T09:44:33Z</time>
      </trkpt>
      <trkpt lat="45.445622" lon="6.987173">
        <ele>1865.820</ele>
        <time>2018-07-18T09:44:39Z</time>
      </trkpt>
      <trkpt lat="45.445629" lon="6.987248">
        <ele>1865.125</ele>
        <time>2018-07-18T09:44:46Z</time>
      </trkpt>
      <trkpt lat="45.445637" lon="6.987314">
        <ele>1864.570</ele>
        <time>2018-07-18T09:44:50Z</time>
      </trkpt>
      <trkpt lat="45.445644" lon="6.987381">
        <ele>1865.834</ele>
        <time>2018-07-18T09:44:55Z</time>
      </trkpt>
      <trkpt lat="45.445645" lon="6.987452">
        <ele>1866.063</ele>
        <time>2018-07-18T09:45:00Z</time>
      </trkpt>
      <trkpt lat="45.445654" lon="6.987526">
        <ele>1865.317</ele>
        <time>2018-07-18T09:45:05Z</time>
      </trkpt>
      <trkpt lat="45.445645" lon="6.987596">
        <ele>1866.021</ele>
        <time>2018-07-18T09:45:10Z</time>
      </trkpt>
      <trkpt lat="45.445634" lon="6.987665">
        <ele>1866.692</ele>
        <time>2018-07-18T09:45:16Z</time>
      </trkpt>
      <trkpt lat="45.445596" lon="6.987715">
        <ele>1868.873</ele>
        <time>2018-07-18T09:45:22Z</time>
      </trkpt>
      <trkpt lat="45.445578" lon="6.987790">
        <ele>1869.520</ele>
        <time>2018-07-18T09:45:27Z</time>
      </trkpt>
      <trkpt lat="45.445572" lon="6.987862">
        <ele>1869.008</ele>
        <time>2018-07-18T09:45:31Z</time>
      </trkpt>
      <trkpt lat="45.445573" lon="6.987928">
        <ele>1869.141</ele>
        <time>2018-07-18T09:45:35Z</time>
      </trkpt>
      <trkpt lat="45.445592" lon="6.987992">
        <ele>1867.066</ele>
        <time>2018-07-18T09:45:40Z</time>
      </trkpt>
      <trkpt lat="45.445616" lon="6.988048">
        <ele>1866.521</ele>
        <time>2018-07-18T09:45:45Z</time>
      </trkpt>
      <trkpt lat="45.445649" lon="6.988097">
        <ele>1866.356</ele>
        <time>2018-07-18T09:45:49Z</time>
      </trkpt>
      <trkpt lat="45.445683" lon="6.988147">
        <ele>1865.740</ele>
        <time>2018-07-18T09:45:53Z</time>
      </trkpt>
      <trkpt lat="45.445723" lon="6.988187">
        <ele>1865.539</ele>
        <time>2018-07-18T09:45:58Z</time>
      </trkpt>
      <trkpt lat="45.445773" lon="6.988212">
        <ele>1864.813</ele>
        <time>2018-07-18T09:46:03Z</time>
      </trkpt>
      <trkpt lat="45.445820" lon="6.988216">
        <ele>1864.757</ele>
        <time>2018-07-18T09:46:07Z</time>
      </trkpt>
      <trkpt lat="45.445872" lon="6.988228">
        <ele>1863.738</ele>
        <time>2018-07-18T09:46:12Z</time>
      </trkpt>
      <trkpt lat="45.445909" lon="6.988268">
        <ele>1862.970</ele>
        <time>2018-07-18T09:46:17Z</time>
      </trkpt>
      <trkpt lat="45.445928" lon="6.988341">
        <ele>1863.317</ele>
        <time>2018-07-18T09:46:22Z</time>
      </trkpt>
      <trkpt lat="45.445934" lon="6.988405">
        <ele>1863.308</ele>
        <time>2018-07-18T09:46:26Z</time>
      </trkpt>
      <trkpt lat="45.445933" lon="6.988470">
        <ele>1863.835</ele>
        <time>2018-07-18T09:46:30Z</time>
      </trkpt>
      <trkpt lat="45.445935" lon="6.988537">
        <ele>1863.810</ele>
        <time>2018-07-18T09:46:34Z</time>
      </trkpt>
      <trkpt lat="45.445937" lon="6.988614">
        <ele>1864.545</ele>
        <time>2018-07-18T09:46:39Z</time>
      </trkpt>
      <trkpt lat="45.445931" lon="6.988688">
        <ele>1867.290</ele>
        <time>2018-07-18T09:46:44Z</time>
      </trkpt>
      <trkpt lat="45.445933" lon="6.988752">
        <ele>1867.494</ele>
        <time>2018-07-18T09:46:49Z</time>
      </trkpt>
      <trkpt lat="45.445945" lon="6.988831">
        <ele>1867.693</ele>
        <time>2018-07-18T09:46:54Z</time>
      </trkpt>
      <trkpt lat="45.445949" lon="6.988903">
        <ele>1867.487</ele>
        <time>2018-07-18T09:46:58Z</time>
      </trkpt>
      <trkpt lat="45.445936" lon="6.988968">
        <ele>1868.151</ele>
        <time>2018-07-18T09:47:02Z</time>
      </trkpt>
      <trkpt lat="45.445923" lon="6.989040">
        <ele>1868.874</ele>
        <time>2018-07-18T09:47:07Z</time>
      </trkpt>
      <trkpt lat="45.445918" lon="6.989111">
        <ele>1869.056</ele>
        <time>2018-07-18T09:47:12Z</time>
      </trkpt>
      <trkpt lat="45.445922" lon="6.989188">
        <ele>1869.521</ele>
        <time>2018-07-18T09:47:17Z</time>
      </trkpt>
      <trkpt lat="45.445932" lon="6.989261">
        <ele>1870.308</ele>
        <time>2018-07-18T09:47:22Z</time>
      </trkpt>
      <trkpt lat="45.445933" lon="6.989336">
        <ele>1870.859</ele>
        <time>2018-07-18T09:47:27Z</time>
      </trkpt>
      <trkpt lat="45.445932" lon="6.989414">
        <ele>1871.384</ele>
        <time>2018-07-18T09:47:32Z</time>
      </trkpt>
      <trkpt lat="45.445934" lon="6.989490">
        <ele>1871.659</ele>
        <time>2018-07-18T09:47:37Z</time>
      </trkpt>
      <trkpt lat="45.445937" lon="6.989558">
        <ele>1872.074</ele>
        <time>2018-07-18T09:47:42Z</time>
      </trkpt>
      <trkpt lat="45.445937" lon="6.989628">
        <ele>1872.568</ele>
        <time>2018-07-18T09:47:47Z</time>
      </trkpt>
      <trkpt lat="45.445939" lon="6.989696">
        <ele>1872.687</ele>
        <time>2018-07-18T09:47:51Z</time>
      </trkpt>
      <trkpt lat="45.445936" lon="6.989775">
        <ele>1872.771</ele>
        <time>2018-07-18T09:47:56Z</time>
      </trkpt>
      <trkpt lat="45.445947" lon="6.989840">
        <ele>1873.215</ele>
        <time>2018-07-18T09:48:00Z</time>
      </trkpt>
      <trkpt lat="45.445955" lon="6.989917">
        <ele>1873.059</ele>
        <time>2018-07-18T09:48:05Z</time>
      </trkpt>
      <trkpt lat="45.445971" lon="6.989994">
        <ele>1871.503</ele>
        <time>2018-07-18T09:48:10Z</time>
      </trkpt>
      <trkpt lat="45.445983" lon="6.990061">
        <ele>1871.023</ele>
        <time>2018-07-18T09:48:14Z</time>
      </trkpt>
      <trkpt lat="45.445984" lon="6.990136">
        <ele>1871.008</ele>
        <time>2018-07-18T09:48:19Z</time>
      </trkpt>
      <trkpt lat="45.445987" lon="6.990210">
        <ele>1872.857</ele>
        <time>2018-07-18T09:48:26Z</time>
      </trkpt>
      <trkpt lat="45.446015" lon="6.990274">
        <ele>1873.462</ele>
        <time>2018-07-18T09:48:45Z</time>
      </trkpt>
      <trkpt lat="45.446001" lon="6.990338">
        <ele>1873.547</ele>
        <time>2018-07-18T09:48:51Z</time>
      </trkpt>
      <trkpt lat="45.445987" lon="6.990404">
        <ele>1873.552</ele>
        <time>2018-07-18T09:48:56Z</time>
      </trkpt>
      <trkpt lat="45.445978" lon="6.990478">
        <ele>1874.666</ele>
        <time>2018-07-18T09:49:02Z</time>
      </trkpt>
      <trkpt lat="45.445997" lon="6.990540">
        <ele>1874.865</ele>
        <time>2018-07-18T09:49:08Z</time>
      </trkpt>
      <trkpt lat="45.445997" lon="6.990605">
        <ele>1875.129</ele>
        <time>2018-07-18T09:49:12Z</time>
      </trkpt>
      <trkpt lat="45.446006" lon="6.990678">
        <ele>1874.953</ele>
        <time>2018-07-18T09:49:16Z</time>
      </trkpt>
      <trkpt lat="45.446012" lon="6.990754">
        <ele>1872.872</ele>
        <time>2018-07-18T09:49:26Z</time>
      </trkpt>
      <trkpt lat="45.446029" lon="6.990817">
        <ele>1873.313</ele>
        <time>2018-07-18T09:49:30Z</time>
      </trkpt>
      <trkpt lat="45.446047" lon="6.990883">
        <ele>1873.414</ele>
        <time>2018-07-18T09:49:34Z</time>
      </trkpt>
      <trkpt lat="45.446058" lon="6.990950">
        <ele>1873.408</ele>
        <time>2018-07-18T09:49:38Z</time>
      </trkpt>
      <trkpt lat="45.446068" lon="6.991017">
        <ele>1875.669</ele>
        <time>2018-07-18T09:49:42Z</time>
      </trkpt>
      <trkpt lat="45.446075" lon="6.991081">
        <ele>1875.424</ele>
        <time>2018-07-18T09:49:46Z</time>
      </trkpt>
      <trkpt lat="45.446080" lon="6.991149">
        <ele>1875.759</ele>
        <time>2018-07-18T09:49:50Z</time>
      </trkpt>
      <trkpt lat="45.446083" lon="6.991214">
        <ele>1875.274</ele>
        <time>2018-07-18T09:49:54Z</time>
      </trkpt>
      <trkpt lat="45.446093" lon="6.991279">
        <ele>1874.318</ele>
        <time>2018-07-18T09:49:58Z</time>
      </trkpt>
      <trkpt lat="45.446106" lon="6.991352">
        <ele>1874.117</ele>
        <time>2018-07-18T09:50:03Z</time>
      </trkpt>
      <trkpt lat="45.446113" lon="6.991417">
        <ele>1873.871</ele>
        <time>2018-07-18T09:50:07Z</time>
      </trkpt>
      <trkpt lat="45.446110" lon="6.991481">
        <ele>1875.885</ele>
        <time>2018-07-18T09:50:11Z</time>
      </trkpt>
      <trkpt lat="45.446101" lon="6.991547">
        <ele>1875.495</ele>
        <time>2018-07-18T09:50:15Z</time>
      </trkpt>
      <trkpt lat="45.446093" lon="6.991611">
        <ele>1875.949</ele>
        <time>2018-07-18T09:50:19Z</time>
      </trkpt>
      <trkpt lat="45.446090" lon="6.991676">
        <ele>1874.223</ele>
        <time>2018-07-18T09:50:23Z</time>
      </trkpt>
      <trkpt lat="45.446084" lon="6.991747">
        <ele>1873.908</ele>
        <time>2018-07-18T09:50:27Z</time>
      </trkpt>
      <trkpt lat="45.446073" lon="6.991813">
        <ele>1874.151</ele>
        <time>2018-07-18T09:50:31Z</time>
      </trkpt>
      <trkpt lat="45.446079" lon="6.991877">
        <ele>1873.816</ele>
        <time>2018-07-18T09:50:35Z</time>
      </trkpt>
      <trkpt lat="45.446079" lon="6.991945">
        <ele>1873.911</ele>
        <time>2018-07-18T09:50:39Z</time>
      </trkpt>
      <trkpt lat="45.446080" lon="6.992014">
        <ele>1875.076</ele>
        <time>2018-07-18T09:50:43Z</time>
      </trkpt>
      <trkpt lat="45.446080" lon="6.992083">
        <ele>1873.840</ele>
        <time>2018-07-18T09:50:47Z</time>
      </trkpt>
      <trkpt lat="45.446085" lon="6.992149">
        <ele>1873.539</ele>
        <time>2018-07-18T09:50:51Z</time>
      </trkpt>
      <trkpt lat="45.446081" lon="6.992222">
        <ele>1873.813</ele>
        <time>2018-07-18T09:50:55Z</time>
      </trkpt>
      <trkpt lat="45.446082" lon="6.992292">
        <ele>1873.947</ele>
        <time>2018-07-18T09:50:59Z</time>
      </trkpt>
      <trkpt lat="45.446086" lon="6.992364">
        <ele>1873.963</ele>
        <time>2018-07-18T09:51:03Z</time>
      </trkpt>
      <trkpt lat="45.446092" lon="6.992433">
        <ele>1873.844</ele>
        <time>2018-07-18T09:51:07Z</time>
      </trkpt>
      <trkpt lat="45.446105" lon="6.992511">
        <ele>1874.518</ele>
        <time>2018-07-18T09:51:12Z</time>
      </trkpt>
      <trkpt lat="45.446113" lon="6.992588">
        <ele>1874.008</ele>
        <time>2018-07-18T09:51:17Z</time>
      </trkpt>
      <trkpt lat="45.446125" lon="6.992656">
        <ele>1874.288</ele>
        <time>2018-07-18T09:51:28Z</time>
      </trkpt>
      <trkpt lat="45.446115" lon="6.992729">
        <ele>1874.833</ele>
        <time>2018-07-18T09:51:33Z</time>
      </trkpt>
      <trkpt lat="45.446110" lon="6.992800">
        <ele>1874.568</ele>
        <time>2018-07-18T09:51:37Z</time>
      </trkpt>
      <trkpt lat="45.446113" lon="6.992869">
        <ele>1874.333</ele>
        <time>2018-07-18T09:51:41Z</time>
      </trkpt>
      <trkpt lat="45.446122" lon="6.992939">
        <ele>1874.417</ele>
        <time>2018-07-18T09:51:45Z</time>
      </trkpt>
      <trkpt lat="45.446129" lon="6.993006">
        <ele>1874.876</ele>
        <time>2018-07-18T09:51:49Z</time>
      </trkpt>
      <trkpt lat="45.446125" lon="6.993084">
        <ele>1874.630</ele>
        <time>2018-07-18T09:51:54Z</time>
      </trkpt>
      <trkpt lat="45.446119" lon="6.993162">
        <ele>1875.124</ele>
        <time>2018-07-18T09:51:59Z</time>
      </trkpt>
      <trkpt lat="45.446107" lon="6.993237">
        <ele>1876.232</ele>
        <time>2018-07-18T09:52:04Z</time>
      </trkpt>
      <trkpt lat="45.446091" lon="6.993299">
        <ele>1877.992</ele>
        <time>2018-07-18T09:52:08Z</time>
      </trkpt>
      <trkpt lat="45.446084" lon="6.993363">
        <ele>1877.911</ele>
        <time>2018-07-18T09:52:12Z</time>
      </trkpt>
      <trkpt lat="45.446099" lon="6.993429">
        <ele>1876.108</ele>
        <time>2018-07-18T09:52:16Z</time>
      </trkpt>
      <trkpt lat="45.446101" lon="6.993539">
        <ele>1876.215</ele>
        <time>2018-07-18T09:52:32Z</time>
      </trkpt>
      <trkpt lat="45.446123" lon="6.993595">
        <ele>1876.080</ele>
        <time>2018-07-18T09:52:40Z</time>
      </trkpt>
      <trkpt lat="45.446130" lon="6.993667">
        <ele>1876.265</ele>
        <time>2018-07-18T09:52:46Z</time>
      </trkpt>
      <trkpt lat="45.446126" lon="6.993747">
        <ele>1876.860</ele>
        <time>2018-07-18T09:52:51Z</time>
      </trkpt>
      <trkpt lat="45.446119" lon="6.993825">
        <ele>1876.854</ele>
        <time>2018-07-18T09:52:56Z</time>
      </trkpt>
      <trkpt lat="45.446122" lon="6.993905">
        <ele>1876.923</ele>
        <time>2018-07-18T09:53:01Z</time>
      </trkpt>
      <trkpt lat="45.446126" lon="6.993983">
        <ele>1877.267</ele>
        <time>2018-07-18T09:53:06Z</time>
      </trkpt>
      <trkpt lat="45.446131" lon="6.994052">
        <ele>1877.721</ele>
        <time>2018-07-18T09:53:11Z</time>
      </trkpt>
      <trkpt lat="45.446139" lon="6.994118">
        <ele>1878.649</ele>
        <time>2018-07-18T09:53:16Z</time>
      </trkpt>
      <trkpt lat="45.446144" lon="6.994189">
        <ele>1878.502</ele>
        <time>2018-07-18T09:53:22Z</time>
      </trkpt>
      <trkpt lat="45.446145" lon="6.994263">
        <ele>1879.422</ele>
        <time>2018-07-18T09:53:27Z</time>
      </trkpt>
      <trkpt lat="45.446133" lon="6.994338">
        <ele>1879.808</ele>
        <time>2018-07-18T09:53:32Z</time>
      </trkpt>
      <trkpt lat="45.446128" lon="6.994403">
        <ele>1880.946</ele>
        <time>2018-07-18T09:53:37Z</time>
      </trkpt>
      <trkpt lat="45.446123" lon="6.994470">
        <ele>1881.421</ele>
        <time>2018-07-18T09:53:43Z</time>
      </trkpt>
      <trkpt lat="45.446119" lon="6.994539">
        <ele>1882.016</ele>
        <time>2018-07-18T09:53:49Z</time>
      </trkpt>
      <trkpt lat="45.446103" lon="6.994600">
        <ele>1884.711</ele>
        <time>2018-07-18T09:53:54Z</time>
      </trkpt>
      <trkpt lat="45.446087" lon="6.994669">
        <ele>1885.775</ele>
        <time>2018-07-18T09:54:00Z</time>
      </trkpt>
      <trkpt lat="45.446070" lon="6.994733">
        <ele>1886.764</ele>
        <time>2018-07-18T09:54:06Z</time>
      </trkpt>
      <trkpt lat="45.446058" lon="6.994796">
        <ele>1887.418</ele>
        <time>2018-07-18T09:54:11Z</time>
      </trkpt>
      <trkpt lat="45.446043" lon="6.994869">
        <ele>1887.812</ele>
        <time>2018-07-18T09:54:17Z</time>
      </trkpt>
      <trkpt lat="45.446026" lon="6.994940">
        <ele>1886.631</ele>
        <time>2018-07-18T09:54:23Z</time>
      </trkpt>
      <trkpt lat="45.446010" lon="6.995001">
        <ele>1887.461</ele>
        <time>2018-07-18T09:54:30Z</time>
      </trkpt>
      <trkpt lat="45.445979" lon="6.995056">
        <ele>1888.007</ele>
        <time>2018-07-18T09:54:36Z</time>
      </trkpt>
      <trkpt lat="45.445948" lon="6.995113">
        <ele>1888.408</ele>
        <time>2018-07-18T09:54:42Z</time>
      </trkpt>
      <trkpt lat="45.445927" lon="6.995170">
        <ele>1889.115</ele>
        <time>2018-07-18T09:54:48Z</time>
      </trkpt>
      <trkpt lat="45.445899" lon="6.995230">
        <ele>1889.840</ele>
        <time>2018-07-18T09:54:55Z</time>
      </trkpt>
      <trkpt lat="45.445885" lon="6.995295">
        <ele>1890.445</ele>
        <time>2018-07-18T09:55:01Z</time>
      </trkpt>
      <trkpt lat="45.445855" lon="6.995352">
        <ele>1890.560</ele>
        <time>2018-07-18T09:55:12Z</time>
      </trkpt>
      <trkpt lat="45.445830" lon="6.995408">
        <ele>1893.134</ele>
        <time>2018-07-18T09:55:19Z</time>
      </trkpt>
      <trkpt lat="45.445801" lon="6.995464">
        <ele>1892.733</ele>
        <time>2018-07-18T09:55:26Z</time>
      </trkpt>
      <trkpt lat="45.445773" lon="6.995525">
        <ele>1893.817</ele>
        <time>2018-07-18T09:55:33Z</time>
      </trkpt>
      <trkpt lat="45.445749" lon="6.995579">
        <ele>1894.761</ele>
        <time>2018-07-18T09:55:40Z</time>
      </trkpt>
      <trkpt lat="45.445723" lon="6.995639">
        <ele>1897.071</ele>
        <time>2018-07-18T09:55:47Z</time>
      </trkpt>
      <trkpt lat="45.445705" lon="6.995704">
        <ele>1896.341</ele>
        <time>2018-07-18T09:55:53Z</time>
      </trkpt>
      <trkpt lat="45.445677" lon="6.995762">
        <ele>1897.015</ele>
        <time>2018-07-18T09:55:59Z</time>
      </trkpt>
      <trkpt lat="45.445649" lon="6.995815">
        <ele>1898.008</ele>
        <time>2018-07-18T09:56:06Z</time>
      </trkpt>
      <trkpt lat="45.445613" lon="6.995861">
        <ele>1899.189</ele>
        <time>2018-07-18T09:56:15Z</time>
      </trkpt>
      <trkpt lat="45.445585" lon="6.995916">
        <ele>1899.924</ele>
        <time>2018-07-18T09:56:24Z</time>
      </trkpt>
      <trkpt lat="45.445554" lon="6.995967">
        <ele>1901.369</ele>
        <time>2018-07-18T09:56:34Z</time>
      </trkpt>
      <trkpt lat="45.445511" lon="6.996016">
        <ele>1902.624</ele>
        <time>2018-07-18T09:56:44Z</time>
      </trkpt>
      <trkpt lat="45.445484" lon="6.996068">
        <ele>1903.788</ele>
        <time>2018-07-18T09:56:52Z</time>
      </trkpt>
      <trkpt lat="45.445473" lon="6.996130">
        <ele>1904.817</ele>
        <time>2018-07-18T09:57:00Z</time>
      </trkpt>
      <trkpt lat="45.445458" lon="6.996193">
        <ele>1906.471</ele>
        <time>2018-07-18T09:57:12Z</time>
      </trkpt>
      <trkpt lat="45.445438" lon="6.996253">
        <ele>1907.275</ele>
        <time>2018-07-18T09:57:22Z</time>
      </trkpt>
      <trkpt lat="45.445403" lon="6.996299">
        <ele>1908.211</ele>
        <time>2018-07-18T09:57:30Z</time>
      </trkpt>
      <trkpt lat="45.445365" lon="6.996347">
        <ele>1908.821</ele>
        <time>2018-07-18T09:57:36Z</time>
      </trkpt>
      <trkpt lat="45.445322" lon="6.996376">
        <ele>1909.403</ele>
        <time>2018-07-18T09:57:42Z</time>
      </trkpt>
      <trkpt lat="45.445283" lon="6.996415">
        <ele>1910.708</ele>
        <time>2018-07-18T09:57:50Z</time>
      </trkpt>
      <trkpt lat="45.445247" lon="6.996458">
        <ele>1910.833</ele>
        <time>2018-07-18T09:57:58Z</time>
      </trkpt>
      <trkpt lat="45.445203" lon="6.996483">
        <ele>1911.888</ele>
        <time>2018-07-18T09:58:07Z</time>
      </trkpt>
      <trkpt lat="45.445161" lon="6.996506">
        <ele>1913.223</ele>
        <time>2018-07-18T09:58:26Z</time>
      </trkpt>
      <trkpt lat="45.445116" lon="6.996530">
        <ele>1914.028</ele>
        <time>2018-07-18T09:58:36Z</time>
      </trkpt>
      <trkpt lat="45.445085" lon="6.996588">
        <ele>1915.682</ele>
        <time>2018-07-18T09:58:46Z</time>
      </trkpt>
      <trkpt lat="45.445057" lon="6.996642">
        <ele>1917.081</ele>
        <time>2018-07-18T09:58:56Z</time>
      </trkpt>
      <trkpt lat="45.445034" lon="6.996698">
        <ele>1917.875</ele>
        <time>2018-07-18T09:59:06Z</time>
      </trkpt>
      <trkpt lat="45.445012" lon="6.996765">
        <ele>1918.969</ele>
        <time>2018-07-18T09:59:14Z</time>
      </trkpt>
      <trkpt lat="45.444992" lon="6.996830">
        <ele>1919.736</ele>
        <time>2018-07-18T09:59:21Z</time>
      </trkpt>
      <trkpt lat="45.444991" lon="6.996901">
        <ele>1920.517</ele>
        <time>2018-07-18T09:59:30Z</time>
      </trkpt>
      <trkpt lat="45.444973" lon="6.996962">
        <ele>1921.318</ele>
        <time>2018-07-18T09:59:38Z</time>
      </trkpt>
      <trkpt lat="45.444955" lon="6.997025">
        <ele>1922.008</ele>
        <time>2018-07-18T09:59:46Z</time>
      </trkpt>
      <trkpt lat="45.444963" lon="6.997090">
        <ele>1922.885</ele>
        <time>2018-07-18T09:59:55Z</time>
      </trkpt>
      <trkpt lat="45.444968" lon="6.997160">
        <ele>1923.660</ele>
        <time>2018-07-18T10:00:01Z</time>
      </trkpt>
      <trkpt lat="45.444980" lon="6.997225">
        <ele>1924.355</ele>
        <time>2018-07-18T10:00:08Z</time>
      </trkpt>
      <trkpt lat="45.444985" lon="6.997290">
        <ele>1925.110</ele>
        <time>2018-07-18T10:00:16Z</time>
      </trkpt>
      <trkpt lat="45.444976" lon="6.997361">
        <ele>1925.874</ele>
        <time>2018-07-18T10:00:24Z</time>
      </trkpt>
      <trkpt lat="45.444955" lon="6.997426">
        <ele>1926.323</ele>
        <time>2018-07-18T10:00:31Z</time>
      </trkpt>
      <trkpt lat="45.444923" lon="6.997475">
        <ele>1926.767</ele>
        <time>2018-07-18T10:00:39Z</time>
      </trkpt>
      <trkpt lat="45.444889" lon="6.997529">
        <ele>1928.141</ele>
        <time>2018-07-18T10:00:46Z</time>
      </trkpt>
      <trkpt lat="45.444861" lon="6.997580">
        <ele>1928.742</ele>
        <time>2018-07-18T10:00:53Z</time>
      </trkpt>
      <trkpt lat="45.444828" lon="6.997625">
        <ele>1929.322</ele>
        <time>2018-07-18T10:00:59Z</time>
      </trkpt>
      <trkpt lat="45.444789" lon="6.997670">
        <ele>1929.414</ele>
        <time>2018-07-18T10:01:06Z</time>
      </trkpt>
      <trkpt lat="45.444764" lon="6.997731">
        <ele>1930.608</ele>
        <time>2018-07-18T10:01:13Z</time>
      </trkpt>
      <trkpt lat="45.444734" lon="6.997781">
        <ele>1931.556</ele>
        <time>2018-07-18T10:01:21Z</time>
      </trkpt>
      <trkpt lat="45.444711" lon="6.997847">
        <ele>1932.321</ele>
        <time>2018-07-18T10:01:28Z</time>
      </trkpt>
      <trkpt lat="45.444694" lon="6.997919">
        <ele>1932.836</ele>
        <time>2018-07-18T10:01:36Z</time>
      </trkpt>
      <trkpt lat="45.444669" lon="6.997981">
        <ele>1933.951</ele>
        <time>2018-07-18T10:01:44Z</time>
      </trkpt>
      <trkpt lat="45.444644" lon="6.998036">
        <ele>1934.895</ele>
        <time>2018-07-18T10:02:15Z</time>
      </trkpt>
      <trkpt lat="45.444604" lon="6.998076">
        <ele>1935.824</ele>
        <time>2018-07-18T10:02:22Z</time>
      </trkpt>
      <trkpt lat="45.444559" lon="6.998100">
        <ele>1936.528</ele>
        <time>2018-07-18T10:02:31Z</time>
      </trkpt>
      <trkpt lat="45.444520" lon="6.998143">
        <ele>1938.082</ele>
        <time>2018-07-18T10:02:44Z</time>
      </trkpt>
      <trkpt lat="45.444481" lon="6.998176">
        <ele>1939.243</ele>
        <time>2018-07-18T10:02:53Z</time>
      </trkpt>
      <trkpt lat="45.444439" lon="6.998200">
        <ele>1940.264</ele>
        <time>2018-07-18T10:03:03Z</time>
      </trkpt>
      <trkpt lat="45.444395" lon="6.998226">
        <ele>1942.210</ele>
        <time>2018-07-18T10:03:15Z</time>
      </trkpt>
      <trkpt lat="45.444350" lon="6.998240">
        <ele>1943.908</ele>
        <time>2018-07-18T10:03:27Z</time>
      </trkpt>
      <trkpt lat="45.444313" lon="6.998279">
        <ele>1944.866</ele>
        <time>2018-07-18T10:03:38Z</time>
      </trkpt>
      <trkpt lat="45.444274" lon="6.998315">
        <ele>1946.651</ele>
        <time>2018-07-18T10:03:57Z</time>
      </trkpt>
      <trkpt lat="45.444237" lon="6.998358">
        <ele>1947.776</ele>
        <time>2018-07-18T10:04:08Z</time>
      </trkpt>
      <trkpt lat="45.444206" lon="6.998413">
        <ele>1949.621</ele>
        <time>2018-07-18T10:04:26Z</time>
      </trkpt>
      <trkpt lat="45.444171" lon="6.998460">
        <ele>1953.355</ele>
        <time>2018-07-18T10:04:38Z</time>
      </trkpt>
      <trkpt lat="45.444129" lon="6.998492">
        <ele>1952.794</ele>
        <time>2018-07-18T10:04:56Z</time>
      </trkpt>
      <trkpt lat="45.444084" lon="6.998514">
        <ele>1953.928</ele>
        <time>2018-07-18T10:05:07Z</time>
      </trkpt>
      <trkpt lat="45.444036" lon="6.998513">
        <ele>1955.322</ele>
        <time>2018-07-18T10:05:32Z</time>
      </trkpt>
      <trkpt lat="45.443996" lon="6.998542">
        <ele>1956.388</ele>
        <time>2018-07-18T10:05:41Z</time>
      </trkpt>
      <trkpt lat="45.443958" lon="6.998576">
        <ele>1957.524</ele>
        <time>2018-07-18T10:05:50Z</time>
      </trkpt>
      <trkpt lat="45.443919" lon="6.998618">
        <ele>1959.226</ele>
        <time>2018-07-18T10:06:10Z</time>
      </trkpt>
      <trkpt lat="45.443871" lon="6.998631">
        <ele>1960.408</ele>
        <time>2018-07-18T10:06:27Z</time>
      </trkpt>
      <trkpt lat="45.443831" lon="6.998663">
        <ele>1961.480</ele>
        <time>2018-07-18T10:06:36Z</time>
      </trkpt>
      <trkpt lat="45.443806" lon="6.998717">
        <ele>1962.995</ele>
        <time>2018-07-18T10:06:47Z</time>
      </trkpt>
      <trkpt lat="45.443761" lon="6.998737">
        <ele>1964.090</ele>
        <time>2018-07-18T10:06:59Z</time>
      </trkpt>
      <trkpt lat="45.443723" lon="6.998774">
        <ele>1965.665</ele>
        <time>2018-07-18T10:07:16Z</time>
      </trkpt>
      <trkpt lat="45.443689" lon="6.998820">
        <ele>1966.959</ele>
        <time>2018-07-18T10:07:27Z</time>
      </trkpt>
      <trkpt lat="45.443664" lon="6.998877">
        <ele>1967.198</ele>
        <time>2018-07-18T10:08:29Z</time>
      </trkpt>
      <trkpt lat="45.443631" lon="6.998923">
        <ele>1968.232</ele>
        <time>2018-07-18T10:08:37Z</time>
      </trkpt>
      <trkpt lat="45.443586" lon="6.998962">
        <ele>1970.386</ele>
        <time>2018-07-18T10:08:47Z</time>
      </trkpt>
      <trkpt lat="45.443557" lon="6.999012">
        <ele>1970.277</ele>
        <time>2018-07-18T10:09:01Z</time>
      </trkpt>
      <trkpt lat="45.443542" lon="6.999078">
        <ele>1970.961</ele>
        <time>2018-07-18T10:09:17Z</time>
      </trkpt>
      <trkpt lat="45.443556" lon="6.999145">
        <ele>1970.327</ele>
        <time>2018-07-18T10:09:30Z</time>
      </trkpt>
      <trkpt lat="45.443541" lon="6.999210">
        <ele>1972.308</ele>
        <time>2018-07-18T10:09:44Z</time>
      </trkpt>
      <trkpt lat="45.443505" lon="6.999256">
        <ele>1973.849</ele>
        <time>2018-07-18T10:09:53Z</time>
      </trkpt>
      <trkpt lat="45.443460" lon="6.999283">
        <ele>1975.474</ele>
        <time>2018-07-18T10:10:02Z</time>
      </trkpt>
      <trkpt lat="45.443416" lon="6.999315">
        <ele>1977.749</ele>
        <time>2018-07-18T10:10:17Z</time>
      </trkpt>
      <trkpt lat="45.443367" lon="6.999310">
        <ele>1979.024</ele>
        <time>2018-07-18T10:10:30Z</time>
      </trkpt>
      <trkpt lat="45.443319" lon="6.999326">
        <ele>1981.338</ele>
        <time>2018-07-18T10:11:02Z</time>
      </trkpt>
      <trkpt lat="45.443285" lon="6.999369">
        <ele>1982.597</ele>
        <time>2018-07-18T10:11:21Z</time>
      </trkpt>
      <trkpt lat="45.443287" lon="6.999435">
        <ele>1982.511</ele>
        <time>2018-07-18T10:11:43Z</time>
      </trkpt>
      <trkpt lat="45.443325" lon="6.999474">
        <ele>1983.425</ele>
        <time>2018-07-18T10:11:56Z</time>
      </trkpt>
      <trkpt lat="45.443333" lon="6.999539">
        <ele>1985.248</ele>
        <time>2018-07-18T10:12:06Z</time>
      </trkpt>
      <trkpt lat="45.443343" lon="6.999606">
        <ele>1988.361</ele>
        <time>2018-07-18T10:12:28Z</time>
      </trkpt>
      <trkpt lat="45.443333" lon="6.999675">
        <ele>1989.117</ele>
        <time>2018-07-18T10:12:41Z</time>
      </trkpt>
      <trkpt lat="45.443336" lon="6.999744">
        <ele>1990.908</ele>
        <time>2018-07-18T10:13:02Z</time>
      </trkpt>
      <trkpt lat="45.443363" lon="6.999799">
        <ele>1993.476</ele>
        <time>2018-07-18T10:13:26Z</time>
      </trkpt>
      <trkpt lat="45.443385" lon="6.999858">
        <ele>1995.981</ele>
        <time>2018-07-18T10:13:42Z</time>
      </trkpt>
      <trkpt lat="45.443413" lon="6.999909">
        <ele>1997.046</ele>
        <time>2018-07-18T10:13:53Z</time>
      </trkpt>
      <trkpt lat="45.443454" lon="6.999945">
        <ele>1998.861</ele>
        <time>2018-07-18T10:14:08Z</time>
      </trkpt>
      <trkpt lat="45.443491" lon="6.999991">
        <ele>2000.865</ele>
        <time>2018-07-18T10:14:26Z</time>
      </trkpt>
      <trkpt lat="45.443532" lon="7.000028">
        <ele>2002.624</ele>
        <time>2018-07-18T10:14:41Z</time>
      </trkpt>
      <trkpt lat="45.443578" lon="7.000051">
        <ele>2005.238</ele>
        <time>2018-07-18T10:14:54Z</time>
      </trkpt>
      <trkpt lat="45.443622" lon="7.000085">
        <ele>2005.022</ele>
        <time>2018-07-18T10:15:13Z</time>
      </trkpt>
      <trkpt lat="45.443665" lon="7.000106">
        <ele>2008.038</ele>
        <time>2018-07-18T10:15:26Z</time>
      </trkpt>
      <trkpt lat="45.443709" lon="7.000132">
        <ele>2010.170</ele>
        <time>2018-07-18T10:15:40Z</time>
      </trkpt>
      <trkpt lat="45.443754" lon="7.000158">
        <ele>2009.217</ele>
        <time>2018-07-18T10:15:52Z</time>
      </trkpt>
      <trkpt lat="45.443799" lon="7.000165">
        <ele>2010.408</ele>
        <time>2018-07-18T10:16:03Z</time>
      </trkpt>
      <trkpt lat="45.443843" lon="7.000185">
        <ele>2011.645</ele>
        <time>2018-07-18T10:16:13Z</time>
      </trkpt>
      <trkpt lat="45.443888" lon="7.000203">
        <ele>2014.930</ele>
        <time>2018-07-18T10:16:32Z</time>
      </trkpt>
      <trkpt lat="45.443937" lon="7.000210">
        <ele>2016.725</ele>
        <time>2018-07-18T10:16:48Z</time>
      </trkpt>
      <trkpt lat="45.443985" lon="7.000228">
        <ele>2016.250</ele>
        <time>2018-07-18T10:17:00Z</time>
      </trkpt>
      <trkpt lat="45.444033" lon="7.000248">
        <ele>2017.194</ele>
        <time>2018-07-18T10:17:09Z</time>
      </trkpt>
      <trkpt lat="45.444084" lon="7.000263">
        <ele>2019.943</ele>
        <time>2018-07-18T10:17:21Z</time>
      </trkpt>
      <trkpt lat="45.444127" lon="7.000292">
        <ele>2019.877</ele>
        <time>2018-07-18T10:17:31Z</time>
      </trkpt>
      <trkpt lat="45.444169" lon="7.000328">
        <ele>2020.631</ele>
        <time>2018-07-18T10:17:40Z</time>
      </trkpt>
      <trkpt lat="45.444206" lon="7.000372">
        <ele>2021.549</ele>
        <time>2018-07-18T10:17:51Z</time>
      </trkpt>
      <trkpt lat="45.444237" lon="7.000432">
        <ele>2022.702</ele>
        <time>2018-07-18T10:18:02Z</time>
      </trkpt>
      <trkpt lat="45.444260" lon="7.000491">
        <ele>2023.622</ele>
        <time>2018-07-18T10:18:14Z</time>
      </trkpt>
      <trkpt lat="45.444291" lon="7.000547">
        <ele>2027.108</ele>
        <time>2018-07-18T10:19:12Z</time>
      </trkpt>
      <trkpt lat="45.444322" lon="7.000604">
        <ele>2027.136</ele>
        <time>2018-07-18T10:19:22Z</time>
      </trkpt>
      <trkpt lat="45.444334" lon="7.000672">
        <ele>2027.581</ele>
        <time>2018-07-18T10:19:35Z</time>
      </trkpt>
      <trkpt lat="45.444360" lon="7.000728">
        <ele>2031.316</ele>
        <time>2018-07-18T10:19:49Z</time>
      </trkpt>
      <trkpt lat="45.444386" lon="7.000781">
        <ele>2032.361</ele>
        <time>2018-07-18T10:20:00Z</time>
      </trkpt>
      <trkpt lat="45.444404" lon="7.000850">
        <ele>2031.535</ele>
        <time>2018-07-18T10:20:12Z</time>
      </trkpt>
      <trkpt lat="45.444411" lon="7.000922">
        <ele>2033.474</ele>
        <time>2018-07-18T10:20:28Z</time>
      </trkpt>
      <trkpt lat="45.444419" lon="7.000987">
        <ele>2035.488</ele>
        <time>2018-07-18T10:20:40Z</time>
      </trkpt>
      <trkpt lat="45.444443" lon="7.001048">
        <ele>2035.852</ele>
        <time>2018-07-18T10:20:52Z</time>
      </trkpt>
      <trkpt lat="45.444458" lon="7.001111">
        <ele>2037.153</ele>
        <time>2018-07-18T10:21:03Z</time>
      </trkpt>
      <trkpt lat="45.444475" lon="7.001173">
        <ele>2038.204</ele>
        <time>2018-07-18T10:21:17Z</time>
      </trkpt>
      <trkpt lat="45.444467" lon="7.001240">
        <ele>2040.114</ele>
        <time>2018-07-18T10:21:34Z</time>
      </trkpt>
      <trkpt lat="45.444466" lon="7.001307">
        <ele>2042.208</ele>
        <time>2018-07-18T10:21:42Z</time>
      </trkpt>
      <trkpt lat="45.444459" lon="7.001374">
        <ele>2042.037</ele>
        <time>2018-07-18T10:21:54Z</time>
      </trkpt>
      <trkpt lat="45.444445" lon="7.001439">
        <ele>2043.942</ele>
        <time>2018-07-18T10:22:04Z</time>
      </trkpt>
      <trkpt lat="45.444475" lon="7.001497">
        <ele>2043.947</ele>
        <time>2018-07-18T10:22:15Z</time>
      </trkpt>
      <trkpt lat="45.444493" lon="7.001566">
        <ele>2044.452</ele>
        <time>2018-07-18T10:22:23Z</time>
      </trkpt>
      <trkpt lat="45.444499" lon="7.001634">
        <ele>2046.616</ele>
        <time>2018-07-18T10:22:33Z</time>
      </trkpt>
      <trkpt lat="45.444531" lon="7.001681">
        <ele>2047.895</ele>
        <time>2018-07-18T10:22:40Z</time>
      </trkpt>
      <trkpt lat="45.444564" lon="7.001731">
        <ele>2047.319</ele>
        <time>2018-07-18T10:22:51Z</time>
      </trkpt>
      <trkpt lat="45.444594" lon="7.001779">
        <ele>2048.493</ele>
        <time>2018-07-18T10:23:04Z</time>
      </trkpt>
      <trkpt lat="45.444596" lon="7.001848">
        <ele>2049.599</ele>
        <time>2018-07-18T10:23:12Z</time>
      </trkpt>
      <trkpt lat="45.444600" lon="7.001926">
        <ele>2051.107</ele>
        <time>2018-07-18T10:23:25Z</time>
      </trkpt>
      <trkpt lat="45.444600" lon="7.001993">
        <ele>2054.127</ele>
        <time>2018-07-18T10:23:37Z</time>
      </trkpt>
      <trkpt lat="45.444551" lon="7.001994">
        <ele>2053.608</ele>
        <time>2018-07-18T10:23:50Z</time>
      </trkpt>
      <trkpt lat="45.444553" lon="7.002059">
        <ele>2056.151</ele>
        <time>2018-07-18T10:24:22Z</time>
      </trkpt>
      <trkpt lat="45.444514" lon="7.002092">
        <ele>2056.946</ele>
        <time>2018-07-18T10:24:34Z</time>
      </trkpt>
      <trkpt lat="45.444469" lon="7.002070">
        <ele>2057.481</ele>
        <time>2018-07-18T10:24:42Z</time>
      </trkpt>
      <trkpt lat="45.444464" lon="7.002154">
        <ele>2062.186</ele>
        <time>2018-07-18T10:25:04Z</time>
      </trkpt>
      <trkpt lat="45.444415" lon="7.002171">
        <ele>2062.510</ele>
        <time>2018-07-18T10:25:19Z</time>
      </trkpt>
      <trkpt lat="45.444442" lon="7.002232">
        <ele>2064.769</ele>
        <time>2018-07-18T10:26:02Z</time>
      </trkpt>
      <trkpt lat="45.444421" lon="7.002296">
        <ele>2065.923</ele>
        <time>2018-07-18T10:26:14Z</time>
      </trkpt>
      <trkpt lat="45.444413" lon="7.002359">
        <ele>2067.257</ele>
        <time>2018-07-18T10:26:26Z</time>
      </trkpt>
      <trkpt lat="45.444396" lon="7.002424">
        <ele>2069.481</ele>
        <time>2018-07-18T10:26:43Z</time>
      </trkpt>
      <trkpt lat="45.444373" lon="7.002485">
        <ele>2070.161</ele>
        <time>2018-07-18T10:26:54Z</time>
      </trkpt>
      <trkpt lat="45.444324" lon="7.002478">
        <ele>2074.317</ele>
        <time>2018-07-18T10:27:16Z</time>
      </trkpt>
      <trkpt lat="45.444277" lon="7.002470">
        <ele>2074.708</ele>
        <time>2018-07-18T10:27:30Z</time>
      </trkpt>
      <trkpt lat="45.444264" lon="7.002536">
        <ele>2074.930</ele>
        <time>2018-07-18T10:27:40Z</time>
      </trkpt>
      <trkpt lat="45.444227" lon="7.002579">
        <ele>2078.215</ele>
        <time>2018-07-18T10:28:48Z</time>
      </trkpt>
      <trkpt lat="45.444200" lon="7.002637">
        <ele>2079.280</ele>
        <time>2018-07-18T10:28:58Z</time>
      </trkpt>
      <trkpt lat="45.444200" lon="7.002704">
        <ele>2080.875</ele>
        <time>2018-07-18T10:29:08Z</time>
      </trkpt>
      <trkpt lat="45.444162" lon="7.002742">
        <ele>2081.159</ele>
        <time>2018-07-18T10:29:17Z</time>
      </trkpt>
      <trkpt lat="45.444119" lon="7.002764">
        <ele>2083.118</ele>
        <time>2018-07-18T10:29:56Z</time>
      </trkpt>
      <trkpt lat="45.444070" lon="7.002769">
        <ele>2085.922</ele>
        <time>2018-07-18T10:30:05Z</time>
      </trkpt>
      <trkpt lat="45.444020" lon="7.002753">
        <ele>2086.036</ele>
        <time>2018-07-18T10:30:16Z</time>
      </trkpt>
      <trkpt lat="45.443962" lon="7.002750">
        <ele>2090.011</ele>
        <time>2018-07-18T10:31:17Z</time>
      </trkpt>
      <trkpt lat="45.443912" lon="7.002740">
        <ele>2091.321</ele>
        <time>2018-07-18T10:31:27Z</time>
      </trkpt>
      <trkpt lat="45.443864" lon="7.002758">
        <ele>2092.603</ele>
        <time>2018-07-18T10:31:41Z</time>
      </trkpt>
      <trkpt lat="45.443843" lon="7.002816">
        <ele>2097.308</ele>
        <time>2018-07-18T10:31:56Z</time>
      </trkpt>
      <trkpt lat="45.443840" lon="7.002890">
        <ele>2098.483</ele>
        <time>2018-07-18T10:32:10Z</time>
      </trkpt>
      <trkpt lat="45.443826" lon="7.002952">
        <ele>2096.788</ele>
        <time>2018-07-18T10:32:18Z</time>
      </trkpt>
      <trkpt lat="45.443799" lon="7.003017">
        <ele>2097.833</ele>
        <time>2018-07-18T10:32:27Z</time>
      </trkpt>
      <trkpt lat="45.443774" lon="7.003072">
        <ele>2099.338</ele>
        <time>2018-07-18T10:32:40Z</time>
      </trkpt>
      <trkpt lat="45.443745" lon="7.003122">
        <ele>2101.832</ele>
        <time>2018-07-18T10:32:55Z</time>
      </trkpt>
      <trkpt lat="45.443703" lon="7.003158">
        <ele>2104.111</ele>
        <time>2018-07-18T10:33:12Z</time>
      </trkpt>
      <trkpt lat="45.443697" lon="7.003227">
        <ele>2106.035</ele>
        <time>2018-07-18T10:33:25Z</time>
      </trkpt>
      <trkpt lat="45.443703" lon="7.003293">
        <ele>2104.929</ele>
        <time>2018-07-18T10:33:36Z</time>
      </trkpt>
      <trkpt lat="45.443723" lon="7.003355">
        <ele>2105.473</ele>
        <time>2018-07-18T10:33:45Z</time>
      </trkpt>
      <trkpt lat="45.443735" lon="7.003417">
        <ele>2107.185</ele>
        <time>2018-07-18T10:33:56Z</time>
      </trkpt>
      <trkpt lat="45.443742" lon="7.003481">
        <ele>2109.413</ele>
        <time>2018-07-18T10:34:09Z</time>
      </trkpt>
      <trkpt lat="45.443738" lon="7.003546">
        <ele>2111.108</ele>
        <time>2018-07-18T10:34:23Z</time>
      </trkpt>
      <trkpt lat="45.443705" lon="7.003595">
        <ele>2113.479</ele>
        <time>2018-07-18T10:34:39Z</time>
      </trkpt>
      <trkpt lat="45.443656" lon="7.003599">
        <ele>2113.934</ele>
        <time>2018-07-18T10:35:03Z</time>
      </trkpt>
      <trkpt lat="45.443608" lon="7.003599">
        <ele>2116.939</ele>
        <time>2018-07-18T10:35:16Z</time>
      </trkpt>
      <trkpt lat="45.443562" lon="7.003606">
        <ele>2116.654</ele>
        <time>2018-07-18T10:35:25Z</time>
      </trkpt>
      <trkpt lat="45.443513" lon="7.003616">
        <ele>2120.398</ele>
        <time>2018-07-18T10:35:45Z</time>
      </trkpt>
      <trkpt lat="45.443534" lon="7.003681">
        <ele>2121.577</ele>
        <time>2018-07-18T10:36:01Z</time>
      </trkpt>
      <trkpt lat="45.443557" lon="7.003737">
        <ele>2122.551</ele>
        <time>2018-07-18T10:36:11Z</time>
      </trkpt>
      <trkpt lat="45.443580" lon="7.003795">
        <ele>2123.255</ele>
        <time>2018-07-18T10:36:20Z</time>
      </trkpt>
      <trkpt lat="45.443614" lon="7.003838">
        <ele>2123.584</ele>
        <time>2018-07-18T10:36:28Z</time>
      </trkpt>
      <trkpt lat="45.443635" lon="7.003874">
        <ele>2125.007</ele>
        <time>2018-07-18T10:47:22Z</time>
      </trkpt>
      <trkpt lat="45.443647" lon="7.003936">
        <ele>2140.117</ele>
        <time>2018-07-18T10:47:31Z</time>
      </trkpt>
      <trkpt lat="45.443659" lon="7.004001">
        <ele>2155.808</ele>
        <time>2018-07-18T10:47:40Z</time>
      </trkpt>
      <trkpt lat="45.443667" lon="7.004075">
        <ele>2173.340</ele>
        <time>2018-07-18T10:47:52Z</time>
      </trkpt>
      <trkpt lat="45.443667" lon="7.004151">
        <ele>2189.115</ele>
        <time>2018-07-18T10:48:09Z</time>
      </trkpt>
      <trkpt lat="45.443620" lon="7.004154">
        <ele>2190.390</ele>
        <time>2018-07-18T10:48:25Z</time>
      </trkpt>
      <trkpt lat="45.443571" lon="7.004184">
        <ele>2191.845</ele>
        <time>2018-07-18T10:48:41Z</time>
      </trkpt>
      <trkpt lat="45.443579" lon="7.004250">
        <ele>2194.329</ele>
        <time>2018-07-18T10:48:56Z</time>
      </trkpt>
      <trkpt lat="45.443590" lon="7.004313">
        <ele>2195.818</ele>
        <time>2018-07-18T10:49:08Z</time>
      </trkpt>
      <trkpt lat="45.443601" lon="7.004375">
        <ele>2197.142</ele>
        <time>2018-07-18T10:49:20Z</time>
      </trkpt>
      <trkpt lat="45.443607" lon="7.004441">
        <ele>2198.336</ele>
        <time>2018-07-18T10:49:31Z</time>
      </trkpt>
      <trkpt lat="45.443604" lon="7.004507">
        <ele>2199.479</ele>
        <time>2018-07-18T10:49:43Z</time>
      </trkpt>
      <trkpt lat="45.443596" lon="7.004572">
        <ele>2200.905</ele>
        <time>2018-07-18T10:49:55Z</time>
      </trkpt>
      <trkpt lat="45.443599" lon="7.004640">
        <ele>2202.225</ele>
        <time>2018-07-18T10:50:10Z</time>
      </trkpt>
      <trkpt lat="45.443617" lon="7.004700">
        <ele>2203.008</ele>
        <time>2018-07-18T10:50:20Z</time>
      </trkpt>
      <trkpt lat="45.443630" lon="7.004765">
        <ele>2203.539</ele>
        <time>2018-07-18T10:50:27Z</time>
      </trkpt>
      <trkpt lat="45.443624" lon="7.004832">
        <ele>2204.664</ele>
        <time>2018-07-18T10:50:36Z</time>
      </trkpt>
      <trkpt lat="45.443601" lon="7.004895">
        <ele>2206.059</ele>
        <time>2018-07-18T10:50:49Z</time>
      </trkpt>
      <trkpt lat="45.443554" lon="7.004888">
        <ele>2207.314</ele>
        <time>2018-07-18T10:51:02Z</time>
      </trkpt>
      <trkpt lat="45.443532" lon="7.004831">
        <ele>2209.388</ele>
        <time>2018-07-18T10:51:13Z</time>
      </trkpt>
      <trkpt lat="45.443486" lon="7.004810">
        <ele>2210.527</ele>
        <time>2018-07-18T10:51:28Z</time>
      </trkpt>
      <trkpt lat="45.443447" lon="7.004844">
        <ele>2212.471</ele>
        <time>2018-07-18T10:51:49Z</time>
      </trkpt>
      <trkpt lat="45.443448" lon="7.004911">
        <ele>2214.765</ele>
        <time>2018-07-18T10:52:00Z</time>
      </trkpt>
      <trkpt lat="45.443454" lon="7.004978">
        <ele>2216.151</ele>
        <time>2018-07-18T10:52:11Z</time>
      </trkpt>
      <trkpt lat="45.443465" lon="7.005045">
        <ele>2217.701</ele>
        <time>2018-07-18T10:52:21Z</time>
      </trkpt>
      <trkpt lat="45.443466" lon="7.005112">
        <ele>2218.311</ele>
        <time>2018-07-18T10:52:30Z</time>
      </trkpt>
      <trkpt lat="45.443457" lon="7.005183">
        <ele>2218.708</ele>
        <time>2018-07-18T10:52:51Z</time>
      </trkpt>
      <trkpt lat="45.443440" lon="7.005251">
        <ele>2219.337</ele>
        <time>2018-07-18T10:52:59Z</time>
      </trkpt>
      <trkpt lat="45.443442" lon="7.005321">
        <ele>2220.182</ele>
        <time>2018-07-18T10:53:14Z</time>
      </trkpt>
      <trkpt lat="45.443435" lon="7.005385">
        <ele>2221.857</ele>
        <time>2018-07-18T10:53:30Z</time>
      </trkpt>
      <trkpt lat="45.443421" lon="7.005451">
        <ele>2222.842</ele>
        <time>2018-07-18T10:53:41Z</time>
      </trkpt>
      <trkpt lat="45.443377" lon="7.005431">
        <ele>2224.666</ele>
        <time>2018-07-18T10:53:57Z</time>
      </trkpt>
      <trkpt lat="45.443351" lon="7.005373">
        <ele>2227.335</ele>
        <time>2018-07-18T10:54:11Z</time>
      </trkpt>
      <trkpt lat="45.443327" lon="7.005427">
        <ele>2228.929</ele>
        <time>2018-07-18T10:54:33Z</time>
      </trkpt>
      <trkpt lat="45.443317" lon="7.005493">
        <ele>2229.963</ele>
        <time>2018-07-18T10:54:43Z</time>
      </trkpt>
      <trkpt lat="45.443311" lon="7.005560">
        <ele>2231.315</ele>
        <time>2018-07-18T10:54:55Z</time>
      </trkpt>
      <trkpt lat="45.443284" lon="7.005613">
        <ele>2232.965</ele>
        <time>2018-07-18T10:55:11Z</time>
      </trkpt>
      <trkpt lat="45.443241" lon="7.005588">
        <ele>2234.711</ele>
        <time>2018-07-18T10:55:25Z</time>
      </trkpt>
      <trkpt lat="45.443205" lon="7.005546">
        <ele>2236.208</ele>
        <time>2018-07-18T10:55:36Z</time>
      </trkpt>
      <trkpt lat="45.443161" lon="7.005518">
        <ele>2237.983</ele>
        <time>2018-07-18T10:55:44Z</time>
      </trkpt>
      <trkpt lat="45.443129" lon="7.005567">
        <ele>2239.798</ele>
        <time>2018-07-18T10:56:04Z</time>
      </trkpt>
      <trkpt lat="45.443100" lon="7.005620">
        <ele>2241.223</ele>
        <time>2018-07-18T10:56:19Z</time>
      </trkpt>
      <trkpt lat="45.443071" lon="7.005672">
        <ele>2242.538</ele>
        <time>2018-07-18T10:56:28Z</time>
      </trkpt>
      <trkpt lat="45.443030" lon="7.005703">
        <ele>2243.742</ele>
        <time>2018-07-18T10:56:41Z</time>
      </trkpt>
      <trkpt lat="45.442986" lon="7.005738">
        <ele>2244.011</ele>
        <time>2018-07-18T10:56:52Z</time>
      </trkpt>
      <trkpt lat="45.442949" lon="7.005790">
        <ele>2244.275</ele>
        <time>2018-07-18T10:57:01Z</time>
      </trkpt>
      <trkpt lat="45.442930" lon="7.005853">
        <ele>2245.159</ele>
        <time>2018-07-18T10:57:08Z</time>
      </trkpt>
      <trkpt lat="45.442928" lon="7.005921">
        <ele>2245.642</ele>
        <time>2018-07-18T10:57:15Z</time>
      </trkpt>
      <trkpt lat="45.442949" lon="7.005978">
        <ele>2245.922</ele>
        <time>2018-07-18T10:57:21Z</time>
      </trkpt>
      <trkpt lat="45.442976" lon="7.006033">
        <ele>2246.114</ele>
        <time>2018-07-18T10:57:27Z</time>
      </trkpt>
      <trkpt lat="45.442996" lon="7.006097">
        <ele>2246.608</ele>
        <time>2018-07-18T10:57:34Z</time>
      </trkpt>
      <trkpt lat="45.443012" lon="7.006164">
        <ele>2246.936</ele>
        <time>2018-07-18T10:57:41Z</time>
      </trkpt>
      <trkpt lat="45.443018" lon="7.006229">
        <ele>2247.191</ele>
        <time>2018-07-18T10:57:49Z</time>
      </trkpt>
      <trkpt lat="45.443021" lon="7.006294">
        <ele>2248.046</ele>
        <time>2018-07-18T10:58:00Z</time>
      </trkpt>
      <trkpt lat="45.443031" lon="7.006357">
        <ele>2249.371</ele>
        <time>2018-07-18T10:58:10Z</time>
      </trkpt>
      <trkpt lat="45.443041" lon="7.006420">
        <ele>2250.995</ele>
        <time>2018-07-18T10:58:20Z</time>
      </trkpt>
      <trkpt lat="45.443059" lon="7.006479">
        <ele>2251.934</ele>
        <time>2018-07-18T10:58:30Z</time>
      </trkpt>
      <trkpt lat="45.443065" lon="7.006544">
        <ele>2252.958</ele>
        <time>2018-07-18T10:58:44Z</time>
      </trkpt>
      <trkpt lat="45.443042" lon="7.006603">
        <ele>2253.552</ele>
        <time>2018-07-18T10:58:55Z</time>
      </trkpt>
      <trkpt lat="45.443002" lon="7.006638">
        <ele>2254.756</ele>
        <time>2018-07-18T10:59:08Z</time>
      </trkpt>
      <trkpt lat="45.442961" lon="7.006676">
        <ele>2255.859</ele>
        <time>2018-07-18T10:59:19Z</time>
      </trkpt>
      <trkpt lat="45.442919" lon="7.006703">
        <ele>2257.714</ele>
        <time>2018-07-18T10:59:29Z</time>
      </trkpt>
      <trkpt lat="45.442880" lon="7.006735">
        <ele>2259.608</ele>
        <time>2018-07-18T11:00:51Z</time>
      </trkpt>
      <trkpt lat="45.442872" lon="7.006800">
        <ele>2261.517</ele>
        <time>2018-07-18T11:01:12Z</time>
      </trkpt>
      <trkpt lat="45.442916" lon="7.006819">
        <ele>2263.562</ele>
        <time>2018-07-18T11:01:27Z</time>
      </trkpt>
      <trkpt lat="45.442957" lon="7.006849">
        <ele>2265.137</ele>
        <time>2018-07-18T11:01:37Z</time>
      </trkpt>
      <trkpt lat="45.442989" lon="7.006896">
        <ele>2266.852</ele>
        <time>2018-07-18T11:01:51Z</time>
      </trkpt>
      <trkpt lat="45.443015" lon="7.006951">
        <ele>2269.096</ele>
        <time>2018-07-18T11:02:03Z</time>
      </trkpt>
      <trkpt lat="45.443037" lon="7.007014">
        <ele>2271.155</ele>
        <time>2018-07-18T11:02:16Z</time>
      </trkpt>
      <trkpt lat="45.443050" lon="7.007075">
        <ele>2272.439</ele>
        <time>2018-07-18T11:02:28Z</time>
      </trkpt>
      <trkpt lat="45.443071" lon="7.007135">
        <ele>2272.883</ele>
        <time>2018-07-18T11:02:42Z</time>
      </trkpt>
      <trkpt lat="45.443100" lon="7.007191">
        <ele>2273.826</ele>
        <time>2018-07-18T11:03:27Z</time>
      </trkpt>
      <trkpt lat="45.443133" lon="7.007244">
        <ele>2274.847</ele>
        <time>2018-07-18T11:03:41Z</time>
      </trkpt>
      <trkpt lat="45.443156" lon="7.007307">
        <ele>2274.611</ele>
        <time>2018-07-18T11:03:50Z</time>
      </trkpt>
      <trkpt lat="45.443169" lon="7.007368">
        <ele>2275.308</ele>
        <time>2018-07-18T11:03:56Z</time>
      </trkpt>
      <trkpt lat="45.443185" lon="7.007436">
        <ele>2276.154</ele>
        <time>2018-07-18T11:04:03Z</time>
      </trkpt>
      <trkpt lat="45.443209" lon="7.007496">
        <ele>2277.079</ele>
        <time>2018-07-18T11:04:09Z</time>
      </trkpt>
      <trkpt lat="45.443236" lon="7.007561">
        <ele>2277.954</ele>
        <time>2018-07-18T11:04:15Z</time>
      </trkpt>
      <trkpt lat="45.443259" lon="7.007625">
        <ele>2278.929</ele>
        <time>2018-07-18T11:04:21Z</time>
      </trkpt>
      <trkpt lat="45.443271" lon="7.007692">
        <ele>2279.563</ele>
        <time>2018-07-18T11:04:27Z</time>
      </trkpt>
      <trkpt lat="45.443283" lon="7.007763">
        <ele>2279.842</ele>
        <time>2018-07-18T11:04:33Z</time>
      </trkpt>
      <trkpt lat="45.443292" lon="7.007835">
        <ele>2280.446</ele>
        <time>2018-07-18T11:04:40Z</time>
      </trkpt>
      <trkpt lat="45.443307" lon="7.007904">
        <ele>2281.240</ele>
        <time>2018-07-18T11:04:48Z</time>
      </trkpt>
      <trkpt lat="45.443333" lon="7.007961">
        <ele>2282.165</ele>
        <time>2018-07-18T11:04:56Z</time>
      </trkpt>
      <trkpt lat="45.443359" lon="7.008016">
        <ele>2282.668</ele>
        <time>2018-07-18T11:05:03Z</time>
      </trkpt>
      <trkpt lat="45.443373" lon="7.008078">
        <ele>2283.314</ele>
        <time>2018-07-18T11:05:10Z</time>
      </trkpt>
      <trkpt lat="45.443380" lon="7.008142">
        <ele>2284.508</ele>
        <time>2018-07-18T11:05:21Z</time>
      </trkpt>
      <trkpt lat="45.443381" lon="7.008207">
        <ele>2285.218</ele>
        <time>2018-07-18T11:05:29Z</time>
      </trkpt>
      <trkpt lat="45.443400" lon="7.008267">
        <ele>2286.083</ele>
        <time>2018-07-18T11:05:37Z</time>
      </trkpt>
      <trkpt lat="45.443402" lon="7.008334">
        <ele>2287.368</ele>
        <time>2018-07-18T11:05:44Z</time>
      </trkpt>
      <trkpt lat="45.443407" lon="7.008398">
        <ele>2288.153</ele>
        <time>2018-07-18T11:05:53Z</time>
      </trkpt>
      <trkpt lat="45.443417" lon="7.008467">
        <ele>2289.097</ele>
        <time>2018-07-18T11:06:04Z</time>
      </trkpt>
      <trkpt lat="45.443420" lon="7.008538">
        <ele>2290.356</ele>
        <time>2018-07-18T11:06:35Z</time>
      </trkpt>
      <trkpt lat="45.443394" lon="7.008595">
        <ele>2292.330</ele>
        <time>2018-07-18T11:06:50Z</time>
      </trkpt>
      <trkpt lat="45.443388" lon="7.008662">
        <ele>2293.964</ele>
        <time>2018-07-18T11:07:01Z</time>
      </trkpt>
      <trkpt lat="45.443373" lon="7.008728">
        <ele>2295.337</ele>
        <time>2018-07-18T11:07:12Z</time>
      </trkpt>
      <trkpt lat="45.443363" lon="7.008793">
        <ele>2296.549</ele>
        <time>2018-07-18T11:07:20Z</time>
      </trkpt>
      <trkpt lat="45.443347" lon="7.008859">
        <ele>2297.213</ele>
        <time>2018-07-18T11:07:28Z</time>
      </trkpt>
      <trkpt lat="45.443322" lon="7.008912">
        <ele>2297.208</ele>
        <time>2018-07-18T11:07:37Z</time>
      </trkpt>
      <trkpt lat="45.443297" lon="7.008969">
        <ele>2297.665</ele>
        <time>2018-07-18T11:07:46Z</time>
      </trkpt>
      <trkpt lat="45.443268" lon="7.009023">
        <ele>2298.710</ele>
        <time>2018-07-18T11:07:56Z</time>
      </trkpt>
      <trkpt lat="45.443233" lon="7.009063">
        <ele>2299.795</ele>
        <time>2018-07-18T11:08:05Z</time>
      </trkpt>
      <trkpt lat="45.443198" lon="7.009105">
        <ele>2300.310</ele>
        <time>2018-07-18T11:08:16Z</time>
      </trkpt>
      <trkpt lat="45.443157" lon="7.009135">
        <ele>2301.114</ele>
        <time>2018-07-18T11:08:24Z</time>
      </trkpt>
      <trkpt lat="45.443118" lon="7.009171">
        <ele>2302.013</ele>
        <time>2018-07-18T11:08:36Z</time>
      </trkpt>
      <trkpt lat="45.443087" lon="7.009217">
        <ele>2302.567</ele>
        <time>2018-07-18T11:08:46Z</time>
      </trkpt>
      <trkpt lat="45.443096" lon="7.009284">
        <ele>2303.231</ele>
        <time>2018-07-18T11:09:00Z</time>
      </trkpt>
      <trkpt lat="45.443126" lon="7.009339">
        <ele>2304.076</ele>
        <time>2018-07-18T11:09:11Z</time>
      </trkpt>
      <trkpt lat="45.443131" lon="7.009406">
        <ele>2305.790</ele>
        <time>2018-07-18T11:09:24Z</time>
      </trkpt>
      <trkpt lat="45.443127" lon="7.009471">
        <ele>2307.119</ele>
        <time>2018-07-18T11:09:33Z</time>
      </trkpt>
      <trkpt lat="45.443127" lon="7.009539">
        <ele>2308.808</ele>
        <time>2018-07-18T11:09:43Z</time>
      </trkpt>
      <trkpt lat="45.443105" lon="7.009597">
        <ele>2310.259</ele>
        <time>2018-07-18T11:09:53Z</time>
      </trkpt>
      <trkpt lat="45.443096" lon="7.009661">
        <ele>2311.824</ele>
        <time>2018-07-18T11:10:03Z</time>
      </trkpt>
      <trkpt lat="45.443074" lon="7.009718">
        <ele>2312.819</ele>
        <time>2018-07-18T11:10:15Z</time>
      </trkpt>
      <trkpt lat="45.443051" lon="7.009776">
        <ele>2313.424</ele>
        <time>2018-07-18T11:10:27Z</time>
      </trkpt>
      <trkpt lat="45.443043" lon="7.009841">
        <ele>2314.278</ele>
        <time>2018-07-18T11:10:40Z</time>
      </trkpt>
      <trkpt lat="45.443053" lon="7.009907">
        <ele>2315.597</ele>
        <time>2018-07-18T11:10:52Z</time>
      </trkpt>
      <trkpt lat="45.443058" lon="7.009972">
        <ele>2317.551</ele>
        <time>2018-07-18T11:11:48Z</time>
      </trkpt>
      <trkpt lat="45.443055" lon="7.010042">
        <ele>2319.545</ele>
        <time>2018-07-18T11:12:01Z</time>
      </trkpt>
      <trkpt lat="45.443043" lon="7.010104">
        <ele>2321.114</ele>
        <time>2018-07-18T11:12:11Z</time>
      </trkpt>
      <trkpt lat="45.443050" lon="7.010167">
        <ele>2322.854</ele>
        <time>2018-07-18T11:12:21Z</time>
      </trkpt>
      <trkpt lat="45.443055" lon="7.010233">
        <ele>2323.809</ele>
        <time>2018-07-18T11:12:31Z</time>
      </trkpt>
      <trkpt lat="45.443041" lon="7.010301">
        <ele>2324.008</ele>
        <time>2018-07-18T11:12:42Z</time>
      </trkpt>
      <trkpt lat="45.443035" lon="7.010365">
        <ele>2324.933</ele>
        <time>2018-07-18T11:12:52Z</time>
      </trkpt>
      <trkpt lat="45.443025" lon="7.010430">
        <ele>2326.318</ele>
        <time>2018-07-18T11:13:02Z</time>
      </trkpt>
      <trkpt lat="45.443016" lon="7.010496">
        <ele>2327.953</ele>
        <time>2018-07-18T11:13:12Z</time>
      </trkpt>
      <trkpt lat="45.443012" lon="7.010560">
        <ele>2329.348</ele>
        <time>2018-07-18T11:13:22Z</time>
      </trkpt>
      <trkpt lat="45.442994" lon="7.010623">
        <ele>2330.532</ele>
        <time>2018-07-18T11:13:34Z</time>
      </trkpt>
      <trkpt lat="45.442992" lon="7.010690">
        <ele>2331.291</ele>
        <time>2018-07-18T11:13:49Z</time>
      </trkpt>
      <trkpt lat="45.442984" lon="7.010757">
        <ele>2332.435</ele>
        <time>2018-07-18T11:14:01Z</time>
      </trkpt>
      <trkpt lat="45.442983" lon="7.010829">
        <ele>2333.559</ele>
        <time>2018-07-18T11:14:36Z</time>
      </trkpt>
      <trkpt lat="45.442988" lon="7.010897">
        <ele>2334.635</ele>
        <time>2018-07-18T11:15:02Z</time>
      </trkpt>
      <trkpt lat="45.442991" lon="7.010963">
        <ele>2336.186</ele>
        <time>2018-07-18T11:15:12Z</time>
      </trkpt>
      <trkpt lat="45.442988" lon="7.011034">
        <ele>2337.414</ele>
        <time>2018-07-18T11:15:23Z</time>
      </trkpt>
      <trkpt lat="45.442965" lon="7.011092">
        <ele>2338.608</ele>
        <time>2018-07-18T11:15:34Z</time>
      </trkpt>
      <trkpt lat="45.442918" lon="7.011077">
        <ele>2339.745</ele>
        <time>2018-07-18T11:15:46Z</time>
      </trkpt>
      <trkpt lat="45.442877" lon="7.011045">
        <ele>2341.690</ele>
        <time>2018-07-18T11:16:08Z</time>
      </trkpt>
      <trkpt lat="45.442894" lon="7.011111">
        <ele>2343.535</ele>
        <time>2018-07-18T11:16:26Z</time>
      </trkpt>
      <trkpt lat="45.442919" lon="7.011172">
        <ele>2345.090</ele>
        <time>2018-07-18T11:16:35Z</time>
      </trkpt>
      <trkpt lat="45.442918" lon="7.011237">
        <ele>2346.354</ele>
        <time>2018-07-18T11:16:44Z</time>
      </trkpt>
      <trkpt lat="45.442903" lon="7.011303">
        <ele>2347.523</ele>
        <time>2018-07-18T11:16:54Z</time>
      </trkpt>
      <trkpt lat="45.442899" lon="7.011373">
        <ele>2347.857</ele>
        <time>2018-07-18T11:17:04Z</time>
      </trkpt>
      <trkpt lat="45.442893" lon="7.011442">
        <ele>2348.461</ele>
        <time>2018-07-18T11:17:15Z</time>
      </trkpt>
      <trkpt lat="45.442879" lon="7.011503">
        <ele>2349.219</ele>
        <time>2018-07-18T11:17:25Z</time>
      </trkpt>
      <trkpt lat="45.442858" lon="7.011564">
        <ele>2350.509</ele>
        <time>2018-07-18T11:17:34Z</time>
      </trkpt>
      <trkpt lat="45.442837" lon="7.011626">
        <ele>2351.319</ele>
        <time>2018-07-18T11:17:45Z</time>
      </trkpt>
      <trkpt lat="45.442790" lon="7.011617">
        <ele>2352.208</ele>
        <time>2018-07-18T11:18:00Z</time>
      </trkpt>
      <trkpt lat="45.442744" lon="7.011615">
        <ele>2353.533</ele>
        <time>2018-07-18T11:18:15Z</time>
      </trkpt>
      <trkpt lat="45.442715" lon="7.011672">
        <ele>2355.158</ele>
        <time>2018-07-18T11:18:24Z</time>
      </trkpt>
      <trkpt lat="45.442704" lon="7.011739">
        <ele>2356.993</ele>
        <time>2018-07-18T11:18:32Z</time>
      </trkpt>
      <trkpt lat="45.442677" lon="7.011795">
        <ele>2358.838</ele>
        <time>2018-07-18T11:18:41Z</time>
      </trkpt>
      <trkpt lat="45.442630" lon="7.011810">
        <ele>2359.582</ele>
        <time>2018-07-18T11:18:51Z</time>
      </trkpt>
      <trkpt lat="45.442603" lon="7.011755">
        <ele>2360.751</ele>
        <time>2018-07-18T11:19:02Z</time>
      </trkpt>
      <trkpt lat="45.442557" lon="7.011767">
        <ele>2361.875</ele>
        <time>2018-07-18T11:19:21Z</time>
      </trkpt>
      <trkpt lat="45.442529" lon="7.011824">
        <ele>2362.949</ele>
        <time>2018-07-18T11:19:32Z</time>
      </trkpt>
      <trkpt lat="45.442496" lon="7.011868">
        <ele>2363.929</ele>
        <time>2018-07-18T11:19:41Z</time>
      </trkpt>
      <trkpt lat="45.442466" lon="7.011916">
        <ele>2364.900</ele>
        <time>2018-07-18T11:19:54Z</time>
      </trkpt>
      <trkpt lat="45.442435" lon="7.011968">
        <ele>2365.120</ele>
        <time>2018-07-18T11:20:05Z</time>
      </trkpt>
      <trkpt lat="45.442400" lon="7.012016">
        <ele>2366.008</ele>
        <time>2018-07-18T11:20:14Z</time>
      </trkpt>
      <trkpt lat="45.442363" lon="7.012059">
        <ele>2367.054</ele>
        <time>2018-07-18T11:20:25Z</time>
      </trkpt>
      <trkpt lat="45.442320" lon="7.012082">
        <ele>2368.029</ele>
        <time>2018-07-18T11:20:36Z</time>
      </trkpt>
      <trkpt lat="45.442279" lon="7.012051">
        <ele>2369.434</ele>
        <time>2018-07-18T11:20:48Z</time>
      </trkpt>
      <trkpt lat="45.442242" lon="7.012015">
        <ele>2371.069</ele>
        <time>2018-07-18T11:21:08Z</time>
      </trkpt>
      <trkpt lat="45.442203" lon="7.011982">
        <ele>2372.843</ele>
        <time>2018-07-18T11:21:20Z</time>
      </trkpt>
      <trkpt lat="45.442164" lon="7.011945">
        <ele>2374.722</ele>
        <time>2018-07-18T11:21:33Z</time>
      </trkpt>
      <trkpt lat="45.442128" lon="7.011988">
        <ele>2376.616</ele>
        <time>2018-07-18T11:21:59Z</time>
      </trkpt>
      <trkpt lat="45.442088" lon="7.012023">
        <ele>2378.650</ele>
        <time>2018-07-18T11:22:09Z</time>
      </trkpt>
      <trkpt lat="45.442055" lon="7.012071">
        <ele>2380.245</ele>
        <time>2018-07-18T11:22:18Z</time>
      </trkpt>
      <trkpt lat="45.441998" lon="7.012088">
        <ele>2379.947</ele>
        <time>2018-07-18T11:23:25Z</time>
      </trkpt>
      <trkpt lat="45.441985" lon="7.012151">
        <ele>2380.111</ele>
        <time>2018-07-18T11:23:49Z</time>
      </trkpt>
      <trkpt lat="45.441977" lon="7.012219">
        <ele>2380.208</ele>
        <time>2018-07-18T11:23:55Z</time>
      </trkpt>
      <trkpt lat="45.441977" lon="7.012296">
        <ele>2380.366</ele>
        <time>2018-07-18T11:24:01Z</time>
      </trkpt>
      <trkpt lat="45.441982" lon="7.012369">
        <ele>2380.841</ele>
        <time>2018-07-18T11:24:06Z</time>
      </trkpt>
      <trkpt lat="45.441987" lon="7.012440">
        <ele>2381.126</ele>
        <time>2018-07-18T11:24:11Z</time>
      </trkpt>
      <trkpt lat="45.441995" lon="7.012508">
        <ele>2381.391</ele>
        <time>2018-07-18T11:24:16Z</time>
      </trkpt>
      <trkpt lat="45.442008" lon="7.012582">
        <ele>2381.465</ele>
        <time>2018-07-18T11:24:21Z</time>
      </trkpt>
      <trkpt lat="45.442021" lon="7.012652">
        <ele>2381.534</ele>
        <time>2018-07-18T11:24:26Z</time>
      </trkpt>
      <trkpt lat="45.442027" lon="7.012723">
        <ele>2381.588</ele>
        <time>2018-07-18T11:24:31Z</time>
      </trkpt>
      <trkpt lat="45.442011" lon="7.012797">
        <ele>2381.982</ele>
        <time>2018-07-18T11:24:37Z</time>
      </trkpt>
      <trkpt lat="45.442005" lon="7.012863">
        <ele>2381.848</ele>
        <time>2018-07-18T11:24:42Z</time>
      </trkpt>
      <trkpt lat="45.441991" lon="7.012936">
        <ele>2381.761</ele>
        <time>2018-07-18T11:24:47Z</time>
      </trkpt>
      <trkpt lat="45.441985" lon="7.013008">
        <ele>2381.617</ele>
        <time>2018-07-18T11:24:53Z</time>
      </trkpt>
      <trkpt lat="45.441990" lon="7.013080">
        <ele>2382.008</ele>
        <time>2018-07-18T11:25:02Z</time>
      </trkpt>
      <trkpt lat="45.442002" lon="7.013142">
        <ele>2382.256</ele>
        <time>2018-07-18T11:25:08Z</time>
      </trkpt>
      <trkpt lat="45.442010" lon="7.013211">
        <ele>2382.781</ele>
        <time>2018-07-18T11:25:14Z</time>
      </trkpt>
      <trkpt lat="45.442011" lon="7.013278">
        <ele>2383.466</ele>
        <time>2018-07-18T11:25:21Z</time>
      </trkpt>
      <trkpt lat="45.441994" lon="7.013343">
        <ele>2384.261</ele>
        <time>2018-07-18T11:25:30Z</time>
      </trkpt>
      <trkpt lat="45.441973" lon="7.013404">
        <ele>2385.545</ele>
        <time>2018-07-18T11:25:40Z</time>
      </trkpt>
      <trkpt lat="45.441952" lon="7.013467">
        <ele>2386.384</ele>
        <time>2018-07-18T11:25:51Z</time>
      </trkpt>
      <trkpt lat="45.441935" lon="7.013528">
        <ele>2387.688</ele>
        <time>2018-07-18T11:26:01Z</time>
      </trkpt>
      <trkpt lat="45.441937" lon="7.013599">
        <ele>2388.462</ele>
        <time>2018-07-18T11:26:08Z</time>
      </trkpt>
      <trkpt lat="45.441936" lon="7.013669">
        <ele>2388.976</ele>
        <time>2018-07-18T11:26:14Z</time>
      </trkpt>
      <trkpt lat="45.441924" lon="7.013737">
        <ele>2389.290</ele>
        <time>2018-07-18T11:26:21Z</time>
      </trkpt>
      <trkpt lat="45.441896" lon="7.013797">
        <ele>2389.419</ele>
        <time>2018-07-18T11:26:28Z</time>
      </trkpt>
      <trkpt lat="45.441870" lon="7.013860">
        <ele>2389.508</ele>
        <time>2018-07-18T11:26:35Z</time>
      </trkpt>
      <trkpt lat="45.441841" lon="7.013914">
        <ele>2390.089</ele>
        <time>2018-07-18T11:26:42Z</time>
      </trkpt>
      <trkpt lat="45.441816" lon="7.013971">
        <ele>2390.314</ele>
        <time>2018-07-18T11:26:49Z</time>
      </trkpt>
      <trkpt lat="45.441797" lon="7.014031">
        <ele>2390.569</ele>
        <time>2018-07-18T11:26:57Z</time>
      </trkpt>
      <trkpt lat="45.441799" lon="7.014095">
        <ele>2391.014</ele>
        <time>2018-07-18T11:27:03Z</time>
      </trkpt>
      <trkpt lat="45.441801" lon="7.014160">
        <ele>2391.748</ele>
        <time>2018-07-18T11:27:09Z</time>
      </trkpt>
      <trkpt lat="45.441801" lon="7.014232">
        <ele>2392.127</ele>
        <time>2018-07-18T11:27:17Z</time>
      </trkpt>
      <trkpt lat="45.441785" lon="7.014292">
        <ele>2392.871</ele>
        <time>2018-07-18T11:27:24Z</time>
      </trkpt>
      <trkpt lat="45.441759" lon="7.014345">
        <ele>2393.645</ele>
        <time>2018-07-18T11:27:32Z</time>
      </trkpt>
      <trkpt lat="45.441730" lon="7.014396">
        <ele>2394.175</ele>
        <time>2018-07-18T11:27:40Z</time>
      </trkpt>
      <trkpt lat="45.441704" lon="7.014454">
        <ele>2394.428</ele>
        <time>2018-07-18T11:27:48Z</time>
      </trkpt>
      <trkpt lat="45.441670" lon="7.014509">
        <ele>2395.020</ele>
        <time>2018-07-18T11:27:55Z</time>
      </trkpt>
      <trkpt lat="45.441633" lon="7.014551">
        <ele>2394.908</ele>
        <time>2018-07-18T11:28:01Z</time>
      </trkpt>
      <trkpt lat="45.441593" lon="7.014587">
        <ele>2394.999</ele>
        <time>2018-07-18T11:28:08Z</time>
      </trkpt>
      <trkpt lat="45.441551" lon="7.014625">
        <ele>2395.764</ele>
        <time>2018-07-18T11:28:16Z</time>
      </trkpt>
      <trkpt lat="45.441511" lon="7.014672">
        <ele>2396.269</ele>
        <time>2018-07-18T11:28:23Z</time>
      </trkpt>
      <trkpt lat="45.441482" lon="7.014722">
        <ele>2397.374</ele>
        <time>2018-07-18T11:28:38Z</time>
      </trkpt>
      <trkpt lat="45.441446" lon="7.014765">
        <ele>2398.338</ele>
        <time>2018-07-18T11:28:50Z</time>
      </trkpt>
      <trkpt lat="45.441408" lon="7.014804">
        <ele>2399.357</ele>
        <time>2018-07-18T11:28:58Z</time>
      </trkpt>
      <trkpt lat="45.441370" lon="7.014845">
        <ele>2400.771</ele>
        <time>2018-07-18T11:29:05Z</time>
      </trkpt>
      <trkpt lat="45.441338" lon="7.014900">
        <ele>2402.095</ele>
        <time>2018-07-18T11:29:12Z</time>
      </trkpt>
      <trkpt lat="45.441319" lon="7.014963">
        <ele>2403.237</ele>
        <time>2018-07-18T11:29:19Z</time>
      </trkpt>
      <trkpt lat="45.441284" lon="7.015007">
        <ele>2403.949</ele>
        <time>2018-07-18T11:29:27Z</time>
      </trkpt>
      <trkpt lat="45.441247" lon="7.015045">
        <ele>2405.513</ele>
        <time>2018-07-18T11:29:35Z</time>
      </trkpt>
      <trkpt lat="45.441209" lon="7.015081">
        <ele>2406.508</ele>
        <time>2018-07-18T11:29:41Z</time>
      </trkpt>
      <trkpt lat="45.441173" lon="7.015126">
        <ele>2407.555</ele>
        <time>2018-07-18T11:29:48Z</time>
      </trkpt>
      <trkpt lat="45.441143" lon="7.015182">
        <ele>2408.160</ele>
        <time>2018-07-18T11:29:56Z</time>
      </trkpt>
      <trkpt lat="45.441105" lon="7.015218">
        <ele>2408.575</ele>
        <time>2018-07-18T11:30:05Z</time>
      </trkpt>
      <trkpt lat="45.441068" lon="7.015260">
        <ele>2409.180</ele>
        <time>2018-07-18T11:30:16Z</time>
      </trkpt>
      <trkpt lat="45.441024" lon="7.015285">
        <ele>2409.574</ele>
        <time>2018-07-18T11:30:30Z</time>
      </trkpt>
      <trkpt lat="45.440979" lon="7.015300">
        <ele>2410.143</ele>
        <time>2018-07-18T11:30:45Z</time>
      </trkpt>
      <trkpt lat="45.440957" lon="7.015356">
        <ele>2411.337</ele>
        <time>2018-07-18T11:30:56Z</time>
      </trkpt>
      <trkpt lat="45.440925" lon="7.015411">
        <ele>2411.611</ele>
        <time>2018-07-18T11:31:04Z</time>
      </trkpt>
      <trkpt lat="45.440888" lon="7.015450">
        <ele>2412.268</ele>
        <time>2018-07-18T11:31:09Z</time>
      </trkpt>
      <trkpt lat="45.440848" lon="7.015488">
        <ele>2412.542</ele>
        <time>2018-07-18T11:31:15Z</time>
      </trkpt>
      <trkpt lat="45.440806" lon="7.015522">
        <ele>2413.126</ele>
        <time>2018-07-18T11:31:21Z</time>
      </trkpt>
      <trkpt lat="45.440756" lon="7.015545">
        <ele>2413.108</ele>
        <time>2018-07-18T11:31:27Z</time>
      </trkpt>
      <trkpt lat="45.440709" lon="7.015570">
        <ele>2413.588</ele>
        <time>2018-07-18T11:31:33Z</time>
      </trkpt>
      <trkpt lat="45.440661" lon="7.015597">
        <ele>2414.123</ele>
        <time>2018-07-18T11:31:39Z</time>
      </trkpt>
      <trkpt lat="45.440617" lon="7.015621">
        <ele>2414.998</ele>
        <time>2018-07-18T11:31:46Z</time>
      </trkpt>
      <trkpt lat="45.440568" lon="7.015642">
        <ele>2415.483</ele>
        <time>2018-07-18T11:31:53Z</time>
      </trkpt>
      <trkpt lat="45.440532" lon="7.015685">
        <ele>2415.717</ele>
        <time>2018-07-18T11:31:59Z</time>
      </trkpt>
      <trkpt lat="45.440492" lon="7.015727">
        <ele>2415.986</ele>
        <time>2018-07-18T11:32:06Z</time>
      </trkpt>
      <trkpt lat="45.440454" lon="7.015763">
        <ele>2416.050</ele>
        <time>2018-07-18T11:32:12Z</time>
      </trkpt>
      <trkpt lat="45.440421" lon="7.015810">
        <ele>2416.154</ele>
        <time>2018-07-18T11:32:18Z</time>
      </trkpt>
      <trkpt lat="45.440386" lon="7.015855">
        <ele>2416.112</ele>
        <time>2018-07-18T11:32:24Z</time>
      </trkpt>
      <trkpt lat="45.440349" lon="7.015899">
        <ele>2416.532</ele>
        <time>2018-07-18T11:32:31Z</time>
      </trkpt>
      <trkpt lat="45.440315" lon="7.015955">
        <ele>2416.805</ele>
        <time>2018-07-18T11:32:37Z</time>
      </trkpt>
      <trkpt lat="45.440301" lon="7.016018">
        <ele>2417.408</ele>
        <time>2018-07-18T11:32:43Z</time>
      </trkpt>
      <trkpt lat="45.440277" lon="7.016080">
        <ele>2417.373</ele>
        <time>2018-07-18T11:32:49Z</time>
      </trkpt>
      <trkpt lat="45.440267" lon="7.016150">
        <ele>2417.718</ele>
        <time>2018-07-18T11:32:55Z</time>
      </trkpt>
      <trkpt lat="45.440240" lon="7.016210">
        <ele>2417.583</ele>
        <time>2018-07-18T11:33:01Z</time>
      </trkpt>
      <trkpt lat="45.440214" lon="7.016264">
        <ele>2417.848</ele>
        <time>2018-07-18T11:33:07Z</time>
      </trkpt>
      <trkpt lat="45.440183" lon="7.016318">
        <ele>2418.432</ele>
        <time>2018-07-18T11:33:13Z</time>
      </trkpt>
      <trkpt lat="45.440146" lon="7.016368">
        <ele>2419.151</ele>
        <time>2018-07-18T11:33:21Z</time>
      </trkpt>
      <trkpt lat="45.440115" lon="7.016415">
        <ele>2419.535</ele>
        <time>2018-07-18T11:33:27Z</time>
      </trkpt>
      <trkpt lat="45.440079" lon="7.016458">
        <ele>2419.859</ele>
        <time>2018-07-18T11:33:34Z</time>
      </trkpt>
      <trkpt lat="45.440039" lon="7.016497">
        <ele>2420.493</ele>
        <time>2018-07-18T11:33:41Z</time>
      </trkpt>
      <trkpt lat="45.439997" lon="7.016525">
        <ele>2421.165</ele>
        <time>2018-07-18T11:33:47Z</time>
      </trkpt>
      <trkpt lat="45.439954" lon="7.016546">
        <ele>2421.521</ele>
        <time>2018-07-18T11:33:53Z</time>
      </trkpt>
      <trkpt lat="45.439908" lon="7.016555">
        <ele>2422.208</ele>
        <time>2018-07-18T11:34:01Z</time>
      </trkpt>
      <trkpt lat="45.439862" lon="7.016570">
        <ele>2422.641</ele>
        <time>2018-07-18T11:34:09Z</time>
      </trkpt>
      <trkpt lat="45.439817" lon="7.016589">
        <ele>2423.286</ele>
        <time>2018-07-18T11:34:18Z</time>
      </trkpt>
      <trkpt lat="45.439774" lon="7.016614">
        <ele>2424.811</ele>
        <time>2018-07-18T11:34:29Z</time>
      </trkpt>
      <trkpt lat="45.439736" lon="7.016659">
        <ele>2426.646</ele>
        <time>2018-07-18T11:34:38Z</time>
      </trkpt>
      <trkpt lat="45.439689" lon="7.016680">
        <ele>2427.780</ele>
        <time>2018-07-18T11:34:46Z</time>
      </trkpt>
      <trkpt lat="45.439643" lon="7.016695">
        <ele>2427.959</ele>
        <time>2018-07-18T11:34:54Z</time>
      </trkpt>
      <trkpt lat="45.439594" lon="7.016691">
        <ele>2428.053</ele>
        <time>2018-07-18T11:35:03Z</time>
      </trkpt>
      <trkpt lat="45.439545" lon="7.016692">
        <ele>2429.377</ele>
        <time>2018-07-18T11:35:54Z</time>
      </trkpt>
      <trkpt lat="45.439499" lon="7.016680">
        <ele>2431.375</ele>
        <time>2018-07-18T11:36:06Z</time>
      </trkpt>
      <trkpt lat="45.439455" lon="7.016656">
        <ele>2432.928</ele>
        <time>2018-07-18T11:36:16Z</time>
      </trkpt>
      <trkpt lat="45.439407" lon="7.016651">
        <ele>2435.020</ele>
        <time>2018-07-18T11:36:30Z</time>
      </trkpt>
      <trkpt lat="45.439362" lon="7.016672">
        <ele>2436.308</ele>
        <time>2018-07-18T11:36:39Z</time>
      </trkpt>
      <trkpt lat="45.439317" lon="7.016695">
        <ele>2437.199</ele>
        <time>2018-07-18T11:36:48Z</time>
      </trkpt>
      <trkpt lat="45.439279" lon="7.016730">
        <ele>2437.624</ele>
        <time>2018-07-18T11:36:54Z</time>
      </trkpt>
      <trkpt lat="45.439239" lon="7.016772">
        <ele>2438.359</ele>
        <time>2018-07-18T11:37:01Z</time>
      </trkpt>
      <trkpt lat="45.439221" lon="7.016838">
        <ele>2439.924</ele>
        <time>2018-07-18T11:37:12Z</time>
      </trkpt>
      <trkpt lat="45.439202" lon="7.016897">
        <ele>2440.948</ele>
        <time>2018-07-18T11:37:21Z</time>
      </trkpt>
      <trkpt lat="45.439165" lon="7.016934">
        <ele>2441.547</ele>
        <time>2018-07-18T11:37:29Z</time>
      </trkpt>
      <trkpt lat="45.439121" lon="7.016949">
        <ele>2442.281</ele>
        <time>2018-07-18T11:37:40Z</time>
      </trkpt>
      <trkpt lat="45.439089" lon="7.016997">
        <ele>2443.455</ele>
        <time>2018-07-18T11:37:51Z</time>
      </trkpt>
      <trkpt lat="45.439055" lon="7.017039">
        <ele>2444.532</ele>
        <time>2018-07-18T11:38:04Z</time>
      </trkpt>
      <trkpt lat="45.439012" lon="7.017064">
        <ele>2446.092</ele>
        <time>2018-07-18T11:38:16Z</time>
      </trkpt>
      <trkpt lat="45.438965" lon="7.017078">
        <ele>2447.711</ele>
        <time>2018-07-18T11:38:32Z</time>
      </trkpt>
      <trkpt lat="45.438919" lon="7.017091">
        <ele>2449.108</ele>
        <time>2018-07-18T11:38:44Z</time>
      </trkpt>
      <trkpt lat="45.438874" lon="7.017104">
        <ele>2450.365</ele>
        <time>2018-07-18T11:38:58Z</time>
      </trkpt>
      <trkpt lat="45.438826" lon="7.017098">
        <ele>2451.070</ele>
        <time>2018-07-18T11:39:11Z</time>
      </trkpt>
      <trkpt lat="45.438778" lon="7.017115">
        <ele>2453.045</ele>
        <time>2018-07-18T11:39:23Z</time>
      </trkpt>
      <trkpt lat="45.438733" lon="7.017126">
        <ele>2454.230</ele>
        <time>2018-07-18T11:39:35Z</time>
      </trkpt>
      <trkpt lat="45.438687" lon="7.017119">
        <ele>2455.344</ele>
        <time>2018-07-18T11:39:45Z</time>
      </trkpt>
      <trkpt lat="45.438642" lon="7.017137">
        <ele>2456.863</ele>
        <time>2018-07-18T11:39:57Z</time>
      </trkpt>
      <trkpt lat="45.438595" lon="7.017148">
        <ele>2457.367</ele>
        <time>2018-07-18T11:40:07Z</time>
      </trkpt>
      <trkpt lat="45.438546" lon="7.017155">
        <ele>2458.471</ele>
        <time>2018-07-18T11:40:17Z</time>
      </trkpt>
      <trkpt lat="45.438501" lon="7.017157">
        <ele>2459.543</ele>
        <time>2018-07-18T11:40:23Z</time>
      </trkpt>
      <trkpt lat="45.438454" lon="7.017166">
        <ele>2459.764</ele>
        <time>2018-07-18T11:40:32Z</time>
      </trkpt>
      <trkpt lat="45.438437" lon="7.017073">
        <ele>2456.210</ele>
        <time>2018-07-18T11:41:30Z</time>
      </trkpt>
      <trkpt lat="45.438398" lon="7.017111">
        <ele>2453.708</ele>
        <time>2018-07-18T11:41:39Z</time>
      </trkpt>
      <trkpt lat="45.438365" lon="7.017156">
        <ele>2453.426</ele>
        <time>2018-07-18T11:41:54Z</time>
      </trkpt>
      <trkpt lat="45.438312" lon="7.017178">
        <ele>2453.291</ele>
        <time>2018-07-18T11:42:00Z</time>
      </trkpt>
      <trkpt lat="45.438262" lon="7.017203">
        <ele>2453.576</ele>
        <time>2018-07-18T11:42:05Z</time>
      </trkpt>
      <trkpt lat="45.438222" lon="7.017237">
        <ele>2454.121</ele>
        <time>2018-07-18T11:42:10Z</time>
      </trkpt>
      <trkpt lat="45.438187" lon="7.017280">
        <ele>2454.855</ele>
        <time>2018-07-18T11:42:16Z</time>
      </trkpt>
      <trkpt lat="45.438157" lon="7.017336">
        <ele>2456.484</ele>
        <time>2018-07-18T11:42:26Z</time>
      </trkpt>
      <trkpt lat="45.438110" lon="7.017383">
        <ele>2457.468</ele>
        <time>2018-07-18T11:42:36Z</time>
      </trkpt>
      <trkpt lat="45.438062" lon="7.017401">
        <ele>2457.682</ele>
        <time>2018-07-18T11:42:44Z</time>
      </trkpt>
      <trkpt lat="45.438018" lon="7.017419">
        <ele>2458.934</ele>
        <time>2018-07-18T11:42:59Z</time>
      </trkpt>
      <trkpt lat="45.437968" lon="7.017436">
        <ele>2459.755</ele>
        <time>2018-07-18T11:43:06Z</time>
      </trkpt>
      <trkpt lat="45.437923" lon="7.017464">
        <ele>2461.010</ele>
        <time>2018-07-18T11:43:12Z</time>
      </trkpt>
      <trkpt lat="45.437901" lon="7.017524">
        <ele>2462.608</ele>
        <time>2018-07-18T11:43:23Z</time>
      </trkpt>
      <trkpt lat="45.437902" lon="7.017590">
        <ele>2464.325</ele>
        <time>2018-07-18T11:43:29Z</time>
      </trkpt>
      <trkpt lat="45.437872" lon="7.017642">
        <ele>2465.760</ele>
        <time>2018-07-18T11:43:53Z</time>
      </trkpt>
      <trkpt lat="45.437828" lon="7.017618">
        <ele>2466.655</ele>
        <time>2018-07-18T11:44:08Z</time>
      </trkpt>
      <trkpt lat="45.437782" lon="7.017605">
        <ele>2467.960</ele>
        <time>2018-07-18T11:44:20Z</time>
      </trkpt>
      <trkpt lat="45.437736" lon="7.017606">
        <ele>2469.144</ele>
        <time>2018-07-18T11:44:28Z</time>
      </trkpt>
      <trkpt lat="45.437691" lon="7.017581">
        <ele>2469.893</ele>
        <time>2018-07-18T11:44:37Z</time>
      </trkpt>
      <trkpt lat="45.437646" lon="7.017566">
        <ele>2471.417</ele>
        <time>2018-07-18T11:44:46Z</time>
      </trkpt>
      <trkpt lat="45.437601" lon="7.017591">
        <ele>2474.431</ele>
        <time>2018-07-18T11:45:17Z</time>
      </trkpt>
      <trkpt lat="45.437562" lon="7.017557">
        <ele>2476.636</ele>
        <time>2018-07-18T11:45:31Z</time>
      </trkpt>
      <trkpt lat="45.437531" lon="7.017504">
        <ele>2478.317</ele>
        <time>2018-07-18T11:45:39Z</time>
      </trkpt>
      <trkpt lat="45.437488" lon="7.017473">
        <ele>2480.918</ele>
        <time>2018-07-18T11:45:55Z</time>
      </trkpt>
      <trkpt lat="45.437444" lon="7.017450">
        <ele>2482.108</ele>
        <time>2018-07-18T11:46:03Z</time>
      </trkpt>
      <trkpt lat="45.437398" lon="7.017453">
        <ele>2482.815</ele>
        <time>2018-07-18T11:46:27Z</time>
      </trkpt>
      <trkpt lat="45.437388" lon="7.017517">
        <ele>2484.820</ele>
        <time>2018-07-18T11:46:41Z</time>
      </trkpt>
      <trkpt lat="45.437338" lon="7.017535">
        <ele>2486.825</ele>
        <time>2018-07-18T11:46:53Z</time>
      </trkpt>
      <trkpt lat="45.437286" lon="7.017529">
        <ele>2488.870</ele>
        <time>2018-07-18T11:47:09Z</time>
      </trkpt>
      <trkpt lat="45.437236" lon="7.017519">
        <ele>2490.454</ele>
        <time>2018-07-18T11:47:19Z</time>
      </trkpt>
      <trkpt lat="45.437185" lon="7.017508">
        <ele>2491.463</ele>
        <time>2018-07-18T11:47:28Z</time>
      </trkpt>
      <trkpt lat="45.437139" lon="7.017519">
        <ele>2494.857</ele>
        <time>2018-07-18T11:47:47Z</time>
      </trkpt>
      <trkpt lat="45.437100" lon="7.017562">
        <ele>2498.091</ele>
        <time>2018-07-18T11:48:15Z</time>
      </trkpt>
      <trkpt lat="45.437080" lon="7.017624">
        <ele>2501.554</ele>
        <time>2018-07-18T11:48:41Z</time>
      </trkpt>
      <trkpt lat="45.437067" lon="7.017687">
        <ele>2502.856</ele>
        <time>2018-07-18T11:48:53Z</time>
      </trkpt>
      <trkpt lat="45.437020" lon="7.017701">
        <ele>2504.811</ele>
        <time>2018-07-18T11:49:05Z</time>
      </trkpt>
      <trkpt lat="45.436982" lon="7.017739">
        <ele>2506.808</ele>
        <time>2018-07-18T11:49:33Z</time>
      </trkpt>
      <trkpt lat="45.436936" lon="7.017747">
        <ele>2508.477</ele>
        <time>2018-07-18T11:49:49Z</time>
      </trkpt>
      <trkpt lat="45.436887" lon="7.017758">
        <ele>2509.062</ele>
        <time>2018-07-18T11:50:00Z</time>
      </trkpt>
      <trkpt lat="45.436842" lon="7.017774">
        <ele>2509.777</ele>
        <time>2018-07-18T11:50:14Z</time>
      </trkpt>
      <trkpt lat="45.436797" lon="7.017784">
        <ele>2510.512</ele>
        <time>2018-07-18T11:50:27Z</time>
      </trkpt>
      <trkpt lat="45.436780" lon="7.017848">
        <ele>2513.056</ele>
        <time>2018-07-18T11:51:05Z</time>
      </trkpt>
      <trkpt lat="45.436740" lon="7.017885">
        <ele>2516.185</ele>
        <time>2018-07-18T11:51:32Z</time>
      </trkpt>
      <trkpt lat="45.436697" lon="7.017908">
        <ele>2517.259</ele>
        <time>2018-07-18T11:51:39Z</time>
      </trkpt>
      <trkpt lat="45.436649" lon="7.017906">
        <ele>2517.813</ele>
        <time>2018-07-18T11:51:48Z</time>
      </trkpt>
      <trkpt lat="45.436605" lon="7.017920">
        <ele>2519.427</ele>
        <time>2018-07-18T11:51:58Z</time>
      </trkpt>
      <trkpt lat="45.436555" lon="7.017916">
        <ele>2519.968</ele>
        <time>2018-07-18T11:52:10Z</time>
      </trkpt>
      <trkpt lat="45.436535" lon="7.017975">
        <ele>2521.814</ele>
        <time>2018-07-18T11:52:33Z</time>
      </trkpt>
      <trkpt lat="45.436532" lon="7.018040">
        <ele>2522.208</ele>
        <time>2018-07-18T11:52:43Z</time>
      </trkpt>
      <trkpt lat="45.436504" lon="7.018099">
        <ele>2523.254</ele>
        <time>2018-07-18T11:52:52Z</time>
      </trkpt>
      <trkpt lat="45.436469" lon="7.018141">
        <ele>2523.819</ele>
        <time>2018-07-18T11:52:59Z</time>
      </trkpt>
      <trkpt lat="45.436431" lon="7.018176">
        <ele>2524.614</ele>
        <time>2018-07-18T11:53:08Z</time>
      </trkpt>
      <trkpt lat="45.436391" lon="7.018217">
        <ele>2525.559</ele>
        <time>2018-07-18T11:53:17Z</time>
      </trkpt>
      <trkpt lat="45.436363" lon="7.018268">
        <ele>2526.883</ele>
        <time>2018-07-18T11:53:25Z</time>
      </trkpt>
      <trkpt lat="45.436323" lon="7.018309">
        <ele>2528.432</ele>
        <time>2018-07-18T11:53:34Z</time>
      </trkpt>
      <trkpt lat="45.436284" lon="7.018349">
        <ele>2529.496</ele>
        <time>2018-07-18T11:53:44Z</time>
      </trkpt>
      <trkpt lat="45.436257" lon="7.018400">
        <ele>2530.460</ele>
        <time>2018-07-18T11:54:32Z</time>
      </trkpt>
      <trkpt lat="45.436227" lon="7.018460">
        <ele>2531.871</ele>
        <time>2018-07-18T11:54:48Z</time>
      </trkpt>
      <trkpt lat="45.436187" lon="7.018500">
        <ele>2533.041</ele>
        <time>2018-07-18T11:55:01Z</time>
      </trkpt>
      <trkpt lat="45.436147" lon="7.018537">
        <ele>2533.715</ele>
        <time>2018-07-18T11:55:10Z</time>
      </trkpt>
      <trkpt lat="45.436104" lon="7.018575">
        <ele>2534.508</ele>
        <time>2018-07-18T11:55:20Z</time>
      </trkpt>
      <trkpt lat="45.436061" lon="7.018601">
        <ele>2535.459</ele>
        <time>2018-07-18T11:55:33Z</time>
      </trkpt>
      <trkpt lat="45.436026" lon="7.018649">
        <ele>2536.354</ele>
        <time>2018-07-18T11:55:48Z</time>
      </trkpt>
      <trkpt lat="45.435988" lon="7.018686">
        <ele>2537.359</ele>
        <time>2018-07-18T11:55:58Z</time>
      </trkpt>
      <trkpt lat="45.435949" lon="7.018720">
        <ele>2538.354</ele>
        <time>2018-07-18T11:56:07Z</time>
      </trkpt>
      <trkpt lat="45.435904" lon="7.018727">
        <ele>2538.928</ele>
        <time>2018-07-18T11:56:19Z</time>
      </trkpt>
      <trkpt lat="45.435861" lon="7.018770">
        <ele>2540.947</ele>
        <time>2018-07-18T11:56:31Z</time>
      </trkpt>
      <trkpt lat="45.435818" lon="7.018794">
        <ele>2542.111</ele>
        <time>2018-07-18T11:56:41Z</time>
      </trkpt>
      <trkpt lat="45.435773" lon="7.018812">
        <ele>2542.895</ele>
        <time>2018-07-18T11:56:55Z</time>
      </trkpt>
      <trkpt lat="45.435728" lon="7.018825">
        <ele>2543.622</ele>
        <time>2018-07-18T11:57:11Z</time>
      </trkpt>
      <trkpt lat="45.435692" lon="7.018866">
        <ele>2544.962</ele>
        <time>2018-07-18T11:57:25Z</time>
      </trkpt>
      <trkpt lat="45.435651" lon="7.018904">
        <ele>2546.908</ele>
        <time>2018-07-18T11:57:34Z</time>
      </trkpt>
      <trkpt lat="45.435604" lon="7.018914">
        <ele>2548.108</ele>
        <time>2018-07-18T11:57:45Z</time>
      </trkpt>
      <trkpt lat="45.435562" lon="7.018938">
        <ele>2549.254</ele>
        <time>2018-07-18T11:58:00Z</time>
      </trkpt>
      <trkpt lat="45.435518" lon="7.018963">
        <ele>2550.379</ele>
        <time>2018-07-18T11:58:10Z</time>
      </trkpt>
      <trkpt lat="45.435471" lon="7.018996">
        <ele>2551.714</ele>
        <time>2018-07-18T11:58:17Z</time>
      </trkpt>
      <trkpt lat="45.435422" lon="7.019021">
        <ele>2553.069</ele>
        <time>2018-07-18T11:58:25Z</time>
      </trkpt>
      <trkpt lat="45.435378" lon="7.019039">
        <ele>2554.293</ele>
        <time>2018-07-18T11:58:34Z</time>
      </trkpt>
      <trkpt lat="45.435335" lon="7.019071">
        <ele>2555.312</ele>
        <time>2018-07-18T11:58:45Z</time>
      </trkpt>
      <trkpt lat="45.435289" lon="7.019093">
        <ele>2556.436</ele>
        <time>2018-07-18T11:58:53Z</time>
      </trkpt>
      <trkpt lat="45.435242" lon="7.019101">
        <ele>2556.630</ele>
        <time>2018-07-18T11:59:00Z</time>
      </trkpt>
      <trkpt lat="45.435201" lon="7.019134">
        <ele>2556.773</ele>
        <time>2018-07-18T11:59:09Z</time>
      </trkpt>
      <trkpt lat="45.435155" lon="7.019150">
        <ele>2556.085</ele>
        <time>2018-07-18T11:59:16Z</time>
      </trkpt>
      <trkpt lat="45.435111" lon="7.019180">
        <ele>2557.213</ele>
        <time>2018-07-18T11:59:22Z</time>
      </trkpt>
      <trkpt lat="45.435066" lon="7.019205">
        <ele>2557.908</ele>
        <time>2018-07-18T11:59:32Z</time>
      </trkpt>
      <trkpt lat="45.435026" lon="7.019239">
        <ele>2559.519</ele>
        <time>2018-07-18T11:59:39Z</time>
      </trkpt>
      <trkpt lat="45.434977" lon="7.019258">
        <ele>2561.724</ele>
        <time>2018-07-18T11:59:53Z</time>
      </trkpt>
      <trkpt lat="45.434937" lon="7.019295">
        <ele>2563.859</ele>
        <time>2018-07-18T12:00:02Z</time>
      </trkpt>
      <trkpt lat="45.434927" lon="7.019365">
        <ele>2565.174</ele>
        <time>2018-07-18T12:00:15Z</time>
      </trkpt>
      <trkpt lat="45.434882" lon="7.019351">
        <ele>2564.758</ele>
        <time>2018-07-18T12:00:27Z</time>
      </trkpt>
      <trkpt lat="45.434857" lon="7.019405">
        <ele>2564.457</ele>
        <time>2018-07-18T12:00:57Z</time>
      </trkpt>
      <trkpt lat="45.434902" lon="7.019394">
        <ele>2565.461</ele>
        <time>2018-07-18T12:01:13Z</time>
      </trkpt>
      <trkpt lat="45.434855" lon="7.019395">
        <ele>2564.995</ele>
        <time>2018-07-18T12:27:35Z</time>
      </trkpt>
      <trkpt lat="45.434812" lon="7.019376">
        <ele>2565.691</ele>
        <time>2018-07-18T12:27:41Z</time>
      </trkpt>
      <trkpt lat="45.434766" lon="7.019374">
        <ele>2566.481</ele>
        <time>2018-07-18T12:27:56Z</time>
      </trkpt>
      <trkpt lat="45.434722" lon="7.019399">
        <ele>2566.919</ele>
        <time>2018-07-18T12:28:15Z</time>
      </trkpt>
      <trkpt lat="45.434678" lon="7.019418">
        <ele>2567.708</ele>
        <time>2018-07-18T12:28:25Z</time>
      </trkpt>
      <trkpt lat="45.434633" lon="7.019434">
        <ele>2568.251</ele>
        <time>2018-07-18T12:28:38Z</time>
      </trkpt>
      <trkpt lat="45.434594" lon="7.019471">
        <ele>2568.536</ele>
        <time>2018-07-18T12:28:52Z</time>
      </trkpt>
      <trkpt lat="45.434554" lon="7.019506">
        <ele>2569.591</ele>
        <time>2018-07-18T12:28:59Z</time>
      </trkpt>
      <trkpt lat="45.434512" lon="7.019544">
        <ele>2570.936</ele>
        <time>2018-07-18T12:29:05Z</time>
      </trkpt>
      <trkpt lat="45.434470" lon="7.019588">
        <ele>2572.540</ele>
        <time>2018-07-18T12:29:12Z</time>
      </trkpt>
      <trkpt lat="45.434431" lon="7.019623">
        <ele>2573.119</ele>
        <time>2018-07-18T12:29:18Z</time>
      </trkpt>
      <trkpt lat="45.434391" lon="7.019657">
        <ele>2573.413</ele>
        <time>2018-07-18T12:29:26Z</time>
      </trkpt>
      <trkpt lat="45.434347" lon="7.019679">
        <ele>2573.627</ele>
        <time>2018-07-18T12:29:35Z</time>
      </trkpt>
      <trkpt lat="45.434302" lon="7.019711">
        <ele>2574.116</ele>
        <time>2018-07-18T12:29:43Z</time>
      </trkpt>
      <trkpt lat="45.434259" lon="7.019732">
        <ele>2574.476</ele>
        <time>2018-07-18T12:29:50Z</time>
      </trkpt>
      <trkpt lat="45.434214" lon="7.019761">
        <ele>2575.413</ele>
        <time>2018-07-18T12:29:59Z</time>
      </trkpt>
      <trkpt lat="45.434174" lon="7.019803">
        <ele>2576.408</ele>
        <time>2018-07-18T12:30:08Z</time>
      </trkpt>
      <trkpt lat="45.434136" lon="7.019839">
        <ele>2577.423</ele>
        <time>2018-07-18T12:30:17Z</time>
      </trkpt>
      <trkpt lat="45.434101" lon="7.019890">
        <ele>2578.418</ele>
        <time>2018-07-18T12:30:27Z</time>
      </trkpt>
      <trkpt lat="45.434067" lon="7.019944">
        <ele>2579.833</ele>
        <time>2018-07-18T12:30:36Z</time>
      </trkpt>
      <trkpt lat="45.434034" lon="7.019990">
        <ele>2580.668</ele>
        <time>2018-07-18T12:30:43Z</time>
      </trkpt>
      <trkpt lat="45.434004" lon="7.020038">
        <ele>2581.542</ele>
        <time>2018-07-18T12:30:50Z</time>
      </trkpt>
      <trkpt lat="45.433962" lon="7.020080">
        <ele>2583.281</ele>
        <time>2018-07-18T12:30:59Z</time>
      </trkpt>
      <trkpt lat="45.433923" lon="7.020121">
        <ele>2584.215</ele>
        <time>2018-07-18T12:31:09Z</time>
      </trkpt>
      <trkpt lat="45.433888" lon="7.020167">
        <ele>2585.229</ele>
        <time>2018-07-18T12:31:17Z</time>
      </trkpt>
      <trkpt lat="45.433847" lon="7.020205">
        <ele>2586.246</ele>
        <time>2018-07-18T12:31:24Z</time>
      </trkpt>
      <trkpt lat="45.433801" lon="7.020243">
        <ele>2586.488</ele>
        <time>2018-07-18T12:31:30Z</time>
      </trkpt>
      <trkpt lat="45.433756" lon="7.020264">
        <ele>2586.516</ele>
        <time>2018-07-18T12:31:35Z</time>
      </trkpt>
      <trkpt lat="45.433711" lon="7.020281">
        <ele>2586.208</ele>
        <time>2018-07-18T12:31:40Z</time>
      </trkpt>
      <trkpt lat="45.433666" lon="7.020293">
        <ele>2585.656</ele>
        <time>2018-07-18T12:31:45Z</time>
      </trkpt>
      <trkpt lat="45.433618" lon="7.020312">
        <ele>2584.861</ele>
        <time>2018-07-18T12:31:51Z</time>
      </trkpt>
      <trkpt lat="45.433571" lon="7.020332">
        <ele>2584.386</ele>
        <time>2018-07-18T12:31:57Z</time>
      </trkpt>
      <trkpt lat="45.433525" lon="7.020351">
        <ele>2583.631</ele>
        <time>2018-07-18T12:32:02Z</time>
      </trkpt>
      <trkpt lat="45.433476" lon="7.020373">
        <ele>2583.635</ele>
        <time>2018-07-18T12:32:08Z</time>
      </trkpt>
      <trkpt lat="45.433428" lon="7.020409">
        <ele>2583.224</ele>
        <time>2018-07-18T12:32:13Z</time>
      </trkpt>
      <trkpt lat="45.433381" lon="7.020438">
        <ele>2583.498</ele>
        <time>2018-07-18T12:32:18Z</time>
      </trkpt>
      <trkpt lat="45.433333" lon="7.020464">
        <ele>2583.132</ele>
        <time>2018-07-18T12:32:23Z</time>
      </trkpt>
      <trkpt lat="45.433288" lon="7.020484">
        <ele>2582.945</ele>
        <time>2018-07-18T12:32:28Z</time>
      </trkpt>
      <trkpt lat="45.433245" lon="7.020515">
        <ele>2582.447</ele>
        <time>2018-07-18T12:32:33Z</time>
      </trkpt>
      <trkpt lat="45.433198" lon="7.020542">
        <ele>2582.111</ele>
        <time>2018-07-18T12:32:37Z</time>
      </trkpt>
      <trkpt lat="45.433152" lon="7.020581">
        <ele>2582.308</ele>
        <time>2018-07-18T12:32:41Z</time>
      </trkpt>
      <trkpt lat="45.433109" lon="7.020611">
        <ele>2582.826</ele>
        <time>2018-07-18T12:32:47Z</time>
      </trkpt>
      <trkpt lat="45.433067" lon="7.020646">
        <ele>2583.161</ele>
        <time>2018-07-18T12:32:54Z</time>
      </trkpt>
      <trkpt lat="45.433019" lon="7.020675">
        <ele>2584.126</ele>
        <time>2018-07-18T12:33:01Z</time>
      </trkpt>
      <trkpt lat="45.432970" lon="7.020699">
        <ele>2585.161</ele>
        <time>2018-07-18T12:33:07Z</time>
      </trkpt>
      <trkpt lat="45.432925" lon="7.020721">
        <ele>2585.725</ele>
        <time>2018-07-18T12:33:13Z</time>
      </trkpt>
      <trkpt lat="45.432870" lon="7.020755">
        <ele>2586.534</ele>
        <time>2018-07-18T12:33:25Z</time>
      </trkpt>
      <trkpt lat="45.432826" lon="7.020788">
        <ele>2587.438</ele>
        <time>2018-07-18T12:33:33Z</time>
      </trkpt>
      <trkpt lat="45.432779" lon="7.020817">
        <ele>2589.122</ele>
        <time>2018-07-18T12:33:39Z</time>
      </trkpt>
      <trkpt lat="45.432733" lon="7.020847">
        <ele>2590.135</ele>
        <time>2018-07-18T12:33:45Z</time>
      </trkpt>
      <trkpt lat="45.432690" lon="7.020877">
        <ele>2591.186</ele>
        <time>2018-07-18T12:33:51Z</time>
      </trkpt>
      <trkpt lat="45.432652" lon="7.020916">
        <ele>2592.114</ele>
        <time>2018-07-18T12:33:56Z</time>
      </trkpt>
      <trkpt lat="45.432610" lon="7.020950">
        <ele>2593.108</ele>
        <time>2018-07-18T12:34:01Z</time>
      </trkpt>
      <trkpt lat="45.432564" lon="7.020983">
        <ele>2593.725</ele>
        <time>2018-07-18T12:34:06Z</time>
      </trkpt>
      <trkpt lat="45.432522" lon="7.021008">
        <ele>2594.560</ele>
        <time>2018-07-18T12:34:11Z</time>
      </trkpt>
      <trkpt lat="45.432474" lon="7.021038">
        <ele>2595.425</ele>
        <time>2018-07-18T12:34:17Z</time>
      </trkpt>
      <trkpt lat="45.432429" lon="7.021058">
        <ele>2595.920</ele>
        <time>2018-07-18T12:34:22Z</time>
      </trkpt>
      <trkpt lat="45.432384" lon="7.021079">
        <ele>2596.644</ele>
        <time>2018-07-18T12:34:28Z</time>
      </trkpt>
      <trkpt lat="45.432337" lon="7.021102">
        <ele>2597.443</ele>
        <time>2018-07-18T12:34:34Z</time>
      </trkpt>
      <trkpt lat="45.432293" lon="7.021143">
        <ele>2597.547</ele>
        <time>2018-07-18T12:34:41Z</time>
      </trkpt>
      <trkpt lat="45.432252" lon="7.021175">
        <ele>2598.411</ele>
        <time>2018-07-18T12:34:47Z</time>
      </trkpt>
      <trkpt lat="45.432205" lon="7.021202">
        <ele>2599.332</ele>
        <time>2018-07-18T12:34:53Z</time>
      </trkpt>
      <trkpt lat="45.432163" lon="7.021230">
        <ele>2599.892</ele>
        <time>2018-07-18T12:34:58Z</time>
      </trkpt>
      <trkpt lat="45.432119" lon="7.021263">
        <ele>2600.511</ele>
        <time>2018-07-18T12:35:03Z</time>
      </trkpt>
      <trkpt lat="45.432074" lon="7.021291">
        <ele>2601.308</ele>
        <time>2018-07-18T12:35:08Z</time>
      </trkpt>
      <trkpt lat="45.432027" lon="7.021320">
        <ele>2602.245</ele>
        <time>2018-07-18T12:35:14Z</time>
      </trkpt>
      <trkpt lat="45.431982" lon="7.021355">
        <ele>2602.710</ele>
        <time>2018-07-18T12:35:22Z</time>
      </trkpt>
      <trkpt lat="45.431938" lon="7.021385">
        <ele>2603.425</ele>
        <time>2018-07-18T12:35:28Z</time>
      </trkpt>
      <trkpt lat="45.431899" lon="7.021430">
        <ele>2603.820</ele>
        <time>2018-07-18T12:35:34Z</time>
      </trkpt>
      <trkpt lat="45.431854" lon="7.021465">
        <ele>2604.924</ele>
        <time>2018-07-18T12:35:40Z</time>
      </trkpt>
      <trkpt lat="45.431805" lon="7.021489">
        <ele>2605.573</ele>
        <time>2018-07-18T12:35:46Z</time>
      </trkpt>
      <trkpt lat="45.431764" lon="7.021523">
        <ele>2606.337</ele>
        <time>2018-07-18T12:35:51Z</time>
      </trkpt>
      <trkpt lat="45.431727" lon="7.021568">
        <ele>2607.251</ele>
        <time>2018-07-18T12:35:56Z</time>
      </trkpt>
      <trkpt lat="45.431699" lon="7.021621">
        <ele>2607.783</ele>
        <time>2018-07-18T12:36:01Z</time>
      </trkpt>
      <trkpt lat="45.431670" lon="7.021674">
        <ele>2608.025</ele>
        <time>2018-07-18T12:36:06Z</time>
      </trkpt>
      <trkpt lat="45.431636" lon="7.021726">
        <ele>2608.217</ele>
        <time>2018-07-18T12:36:12Z</time>
      </trkpt>
      <trkpt lat="45.431602" lon="7.021772">
        <ele>2608.308</ele>
        <time>2018-07-18T12:36:17Z</time>
      </trkpt>
      <trkpt lat="45.431568" lon="7.021826">
        <ele>2608.450</ele>
        <time>2018-07-18T12:36:23Z</time>
      </trkpt>
      <trkpt lat="45.431531" lon="7.021883">
        <ele>2608.035</ele>
        <time>2018-07-18T12:36:28Z</time>
      </trkpt>
      <trkpt lat="45.431490" lon="7.021925">
        <ele>2607.820</ele>
        <time>2018-07-18T12:36:33Z</time>
      </trkpt>
      <trkpt lat="45.431449" lon="7.021967">
        <ele>2608.145</ele>
        <time>2018-07-18T12:36:38Z</time>
      </trkpt>
      <trkpt lat="45.431411" lon="7.022006">
        <ele>2607.969</ele>
        <time>2018-07-18T12:36:43Z</time>
      </trkpt>
      <trkpt lat="45.431359" lon="7.022018">
        <ele>2607.878</ele>
        <time>2018-07-18T12:36:48Z</time>
      </trkpt>
      <trkpt lat="45.431314" lon="7.022045">
        <ele>2606.992</ele>
        <time>2018-07-18T12:36:53Z</time>
      </trkpt>
      <trkpt lat="45.431267" lon="7.022066">
        <ele>2606.426</ele>
        <time>2018-07-18T12:36:58Z</time>
      </trkpt>
      <trkpt lat="45.431219" lon="7.022103">
        <ele>2605.775</ele>
        <time>2018-07-18T12:37:03Z</time>
      </trkpt>
      <trkpt lat="45.431170" lon="7.022136">
        <ele>2604.928</ele>
        <time>2018-07-18T12:37:08Z</time>
      </trkpt>
      <trkpt lat="45.431131" lon="7.022182">
        <ele>2604.420</ele>
        <time>2018-07-18T12:37:13Z</time>
      </trkpt>
      <trkpt lat="45.431099" lon="7.022241">
        <ele>2604.508</ele>
        <time>2018-07-18T12:37:18Z</time>
      </trkpt>
      <trkpt lat="45.431077" lon="7.022301">
        <ele>2605.479</ele>
        <time>2018-07-18T12:37:22Z</time>
      </trkpt>
      <trkpt lat="45.431049" lon="7.022365">
        <ele>2605.584</ele>
        <time>2018-07-18T12:37:27Z</time>
      </trkpt>
      <trkpt lat="45.431006" lon="7.022396">
        <ele>2605.659</ele>
        <time>2018-07-18T12:37:32Z</time>
      </trkpt>
      <trkpt lat="45.430961" lon="7.022429">
        <ele>2605.624</ele>
        <time>2018-07-18T12:37:37Z</time>
      </trkpt>
      <trkpt lat="45.430922" lon="7.022473">
        <ele>2605.248</ele>
        <time>2018-07-18T12:37:45Z</time>
      </trkpt>
      <trkpt lat="45.430884" lon="7.022516">
        <ele>2604.697</ele>
        <time>2018-07-18T12:37:50Z</time>
      </trkpt>
      <trkpt lat="45.430846" lon="7.022568">
        <ele>2604.241</ele>
        <time>2018-07-18T12:37:56Z</time>
      </trkpt>
      <trkpt lat="45.430817" lon="7.022624">
        <ele>2604.035</ele>
        <time>2018-07-18T12:38:01Z</time>
      </trkpt>
      <trkpt lat="45.430787" lon="7.022684">
        <ele>2603.926</ele>
        <time>2018-07-18T12:38:06Z</time>
      </trkpt>
      <trkpt lat="45.430758" lon="7.022750">
        <ele>2604.247</ele>
        <time>2018-07-18T12:38:11Z</time>
      </trkpt>
      <trkpt lat="45.430731" lon="7.022804">
        <ele>2604.011</ele>
        <time>2018-07-18T12:38:15Z</time>
      </trkpt>
      <trkpt lat="45.430694" lon="7.022855">
        <ele>2603.908</ele>
        <time>2018-07-18T12:38:21Z</time>
      </trkpt>
      <trkpt lat="45.430654" lon="7.022908">
        <ele>2603.854</ele>
        <time>2018-07-18T12:38:27Z</time>
      </trkpt>
      <trkpt lat="45.430619" lon="7.022961">
        <ele>2603.819</ele>
        <time>2018-07-18T12:38:32Z</time>
      </trkpt>
      <trkpt lat="45.430588" lon="7.023007">
        <ele>2604.244</ele>
        <time>2018-07-18T12:38:37Z</time>
      </trkpt>
      <trkpt lat="45.430543" lon="7.023048">
        <ele>2604.469</ele>
        <time>2018-07-18T12:38:43Z</time>
      </trkpt>
      <trkpt lat="45.430496" lon="7.023078">
        <ele>2604.913</ele>
        <time>2018-07-18T12:38:49Z</time>
      </trkpt>
      <trkpt lat="45.430457" lon="7.023112">
        <ele>2605.652</ele>
        <time>2018-07-18T12:38:54Z</time>
      </trkpt>
      <trkpt lat="45.430410" lon="7.023144">
        <ele>2606.046</ele>
        <time>2018-07-18T12:38:59Z</time>
      </trkpt>
      <trkpt lat="45.430357" lon="7.023171">
        <ele>2606.790</ele>
        <time>2018-07-18T12:39:04Z</time>
      </trkpt>
      <trkpt lat="45.430307" lon="7.023192">
        <ele>2607.559</ele>
        <time>2018-07-18T12:39:09Z</time>
      </trkpt>
      <trkpt lat="45.430261" lon="7.023212">
        <ele>2607.603</ele>
        <time>2018-07-18T12:39:15Z</time>
      </trkpt>
      <trkpt lat="45.430222" lon="7.023247">
        <ele>2607.623</ele>
        <time>2018-07-18T12:39:21Z</time>
      </trkpt>
      <trkpt lat="45.430177" lon="7.023282">
        <ele>2608.008</ele>
        <time>2018-07-18T12:39:27Z</time>
      </trkpt>
      <trkpt lat="45.430138" lon="7.023329">
        <ele>2608.787</ele>
        <time>2018-07-18T12:39:33Z</time>
      </trkpt>
      <trkpt lat="45.430108" lon="7.023388">
        <ele>2609.132</ele>
        <time>2018-07-18T12:39:39Z</time>
      </trkpt>
      <trkpt lat="45.430068" lon="7.023435">
        <ele>2610.197</ele>
        <time>2018-07-18T12:39:45Z</time>
      </trkpt>
      <trkpt lat="45.430033" lon="7.023477">
        <ele>2611.152</ele>
        <time>2018-07-18T12:39:50Z</time>
      </trkpt>
      <trkpt lat="45.430000" lon="7.023525">
        <ele>2611.396</ele>
        <time>2018-07-18T12:39:55Z</time>
      </trkpt>
      <trkpt lat="45.429961" lon="7.023573">
        <ele>2611.895</ele>
        <time>2018-07-18T12:40:01Z</time>
      </trkpt>
      <trkpt lat="45.429921" lon="7.023609">
        <ele>2611.749</ele>
        <time>2018-07-18T12:40:07Z</time>
      </trkpt>
      <trkpt lat="45.429882" lon="7.023655">
        <ele>2611.723</ele>
        <time>2018-07-18T12:40:14Z</time>
      </trkpt>
      <trkpt lat="45.429841" lon="7.023687">
        <ele>2612.197</ele>
        <time>2018-07-18T12:40:19Z</time>
      </trkpt>
      <trkpt lat="45.429799" lon="7.023717">
        <ele>2612.723</ele>
        <time>2018-07-18T12:40:24Z</time>
      </trkpt>
      <trkpt lat="45.429754" lon="7.023748">
        <ele>2613.125</ele>
        <time>2018-07-18T12:40:30Z</time>
      </trkpt>
      <trkpt lat="45.429706" lon="7.023767">
        <ele>2614.108</ele>
        <time>2018-07-18T12:40:36Z</time>
      </trkpt>
      <trkpt lat="45.429659" lon="7.023791">
        <ele>2615.931</ele>
        <time>2018-07-18T12:40:42Z</time>
      </trkpt>
      <trkpt lat="45.429612" lon="7.023822">
        <ele>2616.686</ele>
        <time>2018-07-18T12:40:48Z</time>
      </trkpt>
      <trkpt lat="45.429568" lon="7.023848">
        <ele>2617.891</ele>
        <time>2018-07-18T12:40:54Z</time>
      </trkpt>
      <trkpt lat="45.429522" lon="7.023866">
        <ele>2618.176</ele>
        <time>2018-07-18T12:41:00Z</time>
      </trkpt>
      <trkpt lat="45.429470" lon="7.023874">
        <ele>2618.740</ele>
        <time>2018-07-18T12:41:06Z</time>
      </trkpt>
      <trkpt lat="45.429420" lon="7.023890">
        <ele>2619.179</ele>
        <time>2018-07-18T12:41:12Z</time>
      </trkpt>
      <trkpt lat="45.429369" lon="7.023902">
        <ele>2619.313</ele>
        <time>2018-07-18T12:41:18Z</time>
      </trkpt>
      <trkpt lat="45.429324" lon="7.023911">
        <ele>2619.477</ele>
        <time>2018-07-18T12:41:23Z</time>
      </trkpt>
      <trkpt lat="45.429276" lon="7.023937">
        <ele>2619.938</ele>
        <time>2018-07-18T12:41:29Z</time>
      </trkpt>
      <trkpt lat="45.429237" lon="7.023971">
        <ele>2620.270</ele>
        <time>2018-07-18T12:41:35Z</time>
      </trkpt>
      <trkpt lat="45.429195" lon="7.024004">
        <ele>2620.417</ele>
        <time>2018-07-18T12:41:43Z</time>
      </trkpt>
      <trkpt lat="45.429151" lon="7.024033">
        <ele>2620.508</ele>
        <time>2018-07-18T12:41:50Z</time>
      </trkpt>
      <trkpt lat="45.429108" lon="7.024055">
        <ele>2621.065</ele>
        <time>2018-07-18T12:41:56Z</time>
      </trkpt>
      <trkpt lat="45.429064" lon="7.024088">
        <ele>2621.750</ele>
        <time>2018-07-18T12:42:03Z</time>
      </trkpt>
      <trkpt lat="45.429019" lon="7.024103">
        <ele>2622.575</ele>
        <time>2018-07-18T12:42:09Z</time>
      </trkpt>
      <trkpt lat="45.428979" lon="7.024133">
        <ele>2623.450</ele>
        <time>2018-07-18T12:42:15Z</time>
      </trkpt>
      <trkpt lat="45.428934" lon="7.024151">
        <ele>2624.374</ele>
        <time>2018-07-18T12:42:20Z</time>
      </trkpt>
      <trkpt lat="45.428890" lon="7.024171">
        <ele>2625.383</ele>
        <time>2018-07-18T12:42:25Z</time>
      </trkpt>
      <trkpt lat="45.428839" lon="7.024182">
        <ele>2626.797</ele>
        <time>2018-07-18T12:42:31Z</time>
      </trkpt>
      <trkpt lat="45.428788" lon="7.024189">
        <ele>2627.951</ele>
        <time>2018-07-18T12:42:38Z</time>
      </trkpt>
      <trkpt lat="45.428739" lon="7.024190">
        <ele>2628.687</ele>
        <time>2018-07-18T12:42:45Z</time>
      </trkpt>
      <trkpt lat="45.428692" lon="7.024187">
        <ele>2629.442</ele>
        <time>2018-07-18T12:42:53Z</time>
      </trkpt>
      <trkpt lat="45.428650" lon="7.024146">
        <ele>2629.926</ele>
        <time>2018-07-18T12:43:00Z</time>
      </trkpt>
      <trkpt lat="45.428614" lon="7.024095">
        <ele>2630.608</ele>
        <time>2018-07-18T12:43:11Z</time>
      </trkpt>
      <trkpt lat="45.428571" lon="7.024057">
        <ele>2631.850</ele>
        <time>2018-07-18T12:43:19Z</time>
      </trkpt>
      <trkpt lat="45.428521" lon="7.024055">
        <ele>2632.945</ele>
        <time>2018-07-18T12:43:31Z</time>
      </trkpt>
      <trkpt lat="45.428476" lon="7.024048">
        <ele>2634.080</ele>
        <time>2018-07-18T12:43:40Z</time>
      </trkpt>
      <trkpt lat="45.428430" lon="7.024049">
        <ele>2635.445</ele>
        <time>2018-07-18T12:43:51Z</time>
      </trkpt>
      <trkpt lat="45.428384" lon="7.024044">
        <ele>2637.119</ele>
        <time>2018-07-18T12:44:05Z</time>
      </trkpt>
      <trkpt lat="45.428336" lon="7.024047">
        <ele>2638.998</ele>
        <time>2018-07-18T12:44:15Z</time>
      </trkpt>
      <trkpt lat="45.428292" lon="7.024075">
        <ele>2640.812</ele>
        <time>2018-07-18T12:44:42Z</time>
      </trkpt>
      <trkpt lat="45.428245" lon="7.024089">
        <ele>2642.796</ele>
        <time>2018-07-18T12:44:52Z</time>
      </trkpt>
      <trkpt lat="45.428203" lon="7.024117">
        <ele>2643.984</ele>
        <time>2018-07-18T12:45:04Z</time>
      </trkpt>
      <trkpt lat="45.428160" lon="7.024154">
        <ele>2644.607</ele>
        <time>2018-07-18T12:45:13Z</time>
      </trkpt>
      <trkpt lat="45.428129" lon="7.024205">
        <ele>2644.217</ele>
        <time>2018-07-18T12:45:20Z</time>
      </trkpt>
      <trkpt lat="45.428083" lon="7.024233">
        <ele>2644.408</ele>
        <time>2018-07-18T12:45:28Z</time>
      </trkpt>
      <trkpt lat="45.428042" lon="7.024267">
        <ele>2644.950</ele>
        <time>2018-07-18T12:45:35Z</time>
      </trkpt>
      <trkpt lat="45.428025" lon="7.024286">
        <ele>2640.375</ele>
        <time>2018-07-18T12:49:08Z</time>
      </trkpt>
      <trkpt lat="45.427984" lon="7.024314">
        <ele>2642.160</ele>
        <time>2018-07-18T12:49:16Z</time>
      </trkpt>
      <trkpt lat="45.427846" lon="7.024047">
        <ele>2644.395</ele>
        <time>2018-07-18T12:49:37Z</time>
      </trkpt>
      <trkpt lat="45.427857" lon="7.024110">
        <ele>2644.879</ele>
        <time>2018-07-18T12:49:39Z</time>
      </trkpt>
      <trkpt lat="45.427830" lon="7.024172">
        <ele>2643.268</ele>
        <time>2018-07-18T12:49:44Z</time>
      </trkpt>
      <trkpt lat="45.427783" lon="7.024166">
        <ele>2643.912</ele>
        <time>2018-07-18T12:49:51Z</time>
      </trkpt>
      <trkpt lat="45.427734" lon="7.024162">
        <ele>2645.176</ele>
        <time>2018-07-18T12:49:58Z</time>
      </trkpt>
      <trkpt lat="45.427686" lon="7.024165">
        <ele>2646.665</ele>
        <time>2018-07-18T12:50:05Z</time>
      </trkpt>
      <trkpt lat="45.427640" lon="7.024157">
        <ele>2647.968</ele>
        <time>2018-07-18T12:50:12Z</time>
      </trkpt>
      <trkpt lat="45.427595" lon="7.024161">
        <ele>2649.914</ele>
        <time>2018-07-18T12:50:19Z</time>
      </trkpt>
      <trkpt lat="45.427546" lon="7.024182">
        <ele>2651.908</ele>
        <time>2018-07-18T12:50:27Z</time>
      </trkpt>
      <trkpt lat="45.427504" lon="7.024220">
        <ele>2653.518</ele>
        <time>2018-07-18T12:50:34Z</time>
      </trkpt>
      <trkpt lat="45.427468" lon="7.024262">
        <ele>2655.333</ele>
        <time>2018-07-18T12:50:43Z</time>
      </trkpt>
      <trkpt lat="45.427435" lon="7.024309">
        <ele>2656.038</ele>
        <time>2018-07-18T12:50:52Z</time>
      </trkpt>
      <trkpt lat="45.427396" lon="7.024343">
        <ele>2657.673</ele>
        <time>2018-07-18T12:51:03Z</time>
      </trkpt>
      <trkpt lat="45.427349" lon="7.024367">
        <ele>2659.017</ele>
        <time>2018-07-18T12:51:12Z</time>
      </trkpt>
      <trkpt lat="45.427301" lon="7.024390">
        <ele>2660.656</ele>
        <time>2018-07-18T12:51:21Z</time>
      </trkpt>
      <trkpt lat="45.427256" lon="7.024411">
        <ele>2662.070</ele>
        <time>2018-07-18T12:51:28Z</time>
      </trkpt>
      <trkpt lat="45.427211" lon="7.024436">
        <ele>2662.864</ele>
        <time>2018-07-18T12:51:36Z</time>
      </trkpt>
      <trkpt lat="45.427166" lon="7.024463">
        <ele>2664.142</ele>
        <time>2018-07-18T12:51:44Z</time>
      </trkpt>
      <trkpt lat="45.427118" lon="7.024478">
        <ele>2665.722</ele>
        <time>2018-07-18T12:51:52Z</time>
      </trkpt>
      <trkpt lat="45.427068" lon="7.024478">
        <ele>2667.414</ele>
        <time>2018-07-18T12:52:01Z</time>
      </trkpt>
      <trkpt lat="45.427025" lon="7.024504">
        <ele>2668.808</ele>
        <time>2018-07-18T12:52:10Z</time>
      </trkpt>
      <trkpt lat="45.426992" lon="7.024551">
        <ele>2669.776</ele>
        <time>2018-07-18T12:52:21Z</time>
      </trkpt>
      <trkpt lat="45.426954" lon="7.024591">
        <ele>2670.661</ele>
        <time>2018-07-18T12:52:30Z</time>
      </trkpt>
      <trkpt lat="45.426907" lon="7.024617">
        <ele>2672.036</ele>
        <time>2018-07-18T12:52:38Z</time>
      </trkpt>
      <trkpt lat="45.426859" lon="7.024631">
        <ele>2673.651</ele>
        <time>2018-07-18T12:52:46Z</time>
      </trkpt>
      <trkpt lat="45.426815" lon="7.024655">
        <ele>2675.015</ele>
        <time>2018-07-18T12:52:59Z</time>
      </trkpt>
      <trkpt lat="45.426766" lon="7.024652">
        <ele>2676.654</ele>
        <time>2018-07-18T12:53:10Z</time>
      </trkpt>
      <trkpt lat="45.426715" lon="7.024658">
        <ele>2678.048</ele>
        <time>2018-07-18T12:53:19Z</time>
      </trkpt>
      <trkpt lat="45.426670" lon="7.024681">
        <ele>2678.852</ele>
        <time>2018-07-18T12:53:26Z</time>
      </trkpt>
      <trkpt lat="45.426621" lon="7.024698">
        <ele>2680.121</ele>
        <time>2018-07-18T12:53:34Z</time>
      </trkpt>
      <trkpt lat="45.426573" lon="7.024707">
        <ele>2681.741</ele>
        <time>2018-07-18T12:53:41Z</time>
      </trkpt>
      <trkpt lat="45.426524" lon="7.024712">
        <ele>2682.605</ele>
        <time>2018-07-18T12:53:48Z</time>
      </trkpt>
      <trkpt lat="45.426477" lon="7.024726">
        <ele>2682.808</ele>
        <time>2018-07-18T12:53:57Z</time>
      </trkpt>
      <trkpt lat="45.426433" lon="7.024754">
        <ele>2682.574</ele>
        <time>2018-07-18T12:54:06Z</time>
      </trkpt>
      <trkpt lat="45.426390" lon="7.024777">
        <ele>2682.359</ele>
        <time>2018-07-18T12:54:14Z</time>
      </trkpt>
      <trkpt lat="45.426342" lon="7.024798">
        <ele>2682.674</ele>
        <time>2018-07-18T12:54:21Z</time>
      </trkpt>
      <trkpt lat="45.426302" lon="7.024827">
        <ele>2682.489</ele>
        <time>2018-07-18T12:54:27Z</time>
      </trkpt>
      <trkpt lat="45.426256" lon="7.024857">
        <ele>2682.393</ele>
        <time>2018-07-18T12:54:34Z</time>
      </trkpt>
      <trkpt lat="45.426205" lon="7.024866">
        <ele>2683.022</ele>
        <time>2018-07-18T12:54:41Z</time>
      </trkpt>
      <trkpt lat="45.426158" lon="7.024871">
        <ele>2682.616</ele>
        <time>2018-07-18T12:54:49Z</time>
      </trkpt>
      <trkpt lat="45.426115" lon="7.024897">
        <ele>2683.240</ele>
        <time>2018-07-18T12:54:56Z</time>
      </trkpt>
      <trkpt lat="45.426070" lon="7.024930">
        <ele>2683.562</ele>
        <time>2018-07-18T12:55:03Z</time>
      </trkpt>
      <trkpt lat="45.426024" lon="7.024961">
        <ele>2684.183</ele>
        <time>2018-07-18T12:55:10Z</time>
      </trkpt>
      <trkpt lat="45.425989" lon="7.025007">
        <ele>2684.511</ele>
        <time>2018-07-18T12:55:16Z</time>
      </trkpt>
      <trkpt lat="45.425960" lon="7.025069">
        <ele>2684.708</ele>
        <time>2018-07-18T12:55:22Z</time>
      </trkpt>
      <trkpt lat="45.425921" lon="7.025118">
        <ele>2685.258</ele>
        <time>2018-07-18T12:55:28Z</time>
      </trkpt>
      <trkpt lat="45.425884" lon="7.025158">
        <ele>2685.533</ele>
        <time>2018-07-18T12:55:34Z</time>
      </trkpt>
      <trkpt lat="45.425847" lon="7.025203">
        <ele>2685.768</ele>
        <time>2018-07-18T12:55:40Z</time>
      </trkpt>
      <trkpt lat="45.425814" lon="7.025249">
        <ele>2686.213</ele>
        <time>2018-07-18T12:55:46Z</time>
      </trkpt>
      <trkpt lat="45.425780" lon="7.025296">
        <ele>2686.577</ele>
        <time>2018-07-18T12:55:53Z</time>
      </trkpt>
      <trkpt lat="45.425742" lon="7.025340">
        <ele>2687.186</ele>
        <time>2018-07-18T12:55:59Z</time>
      </trkpt>
      <trkpt lat="45.425707" lon="7.025383">
        <ele>2687.960</ele>
        <time>2018-07-18T12:56:05Z</time>
      </trkpt>
      <trkpt lat="45.425664" lon="7.025402">
        <ele>2688.444</ele>
        <time>2018-07-18T12:56:13Z</time>
      </trkpt>
      <trkpt lat="45.425623" lon="7.025437">
        <ele>2688.736</ele>
        <time>2018-07-18T12:56:21Z</time>
      </trkpt>
      <trkpt lat="45.425576" lon="7.025462">
        <ele>2689.717</ele>
        <time>2018-07-18T12:56:28Z</time>
      </trkpt>
      <trkpt lat="45.425531" lon="7.025489">
        <ele>2690.318</ele>
        <time>2018-07-18T12:56:35Z</time>
      </trkpt>
      <trkpt lat="45.425487" lon="7.025511">
        <ele>2691.808</ele>
        <time>2018-07-18T12:56:41Z</time>
      </trkpt>
      <trkpt lat="45.425448" lon="7.025553">
        <ele>2692.735</ele>
        <time>2018-07-18T12:56:48Z</time>
      </trkpt>
      <trkpt lat="45.425404" lon="7.025585">
        <ele>2693.310</ele>
        <time>2018-07-18T12:56:55Z</time>
      </trkpt>
      <trkpt lat="45.425357" lon="7.025597">
        <ele>2693.695</ele>
        <time>2018-07-18T12:57:02Z</time>
      </trkpt>
      <trkpt lat="45.425312" lon="7.025609">
        <ele>2693.420</ele>
        <time>2018-07-18T12:57:09Z</time>
      </trkpt>
      <trkpt lat="45.425266" lon="7.025623">
        <ele>2693.734</ele>
        <time>2018-07-18T12:57:16Z</time>
      </trkpt>
      <trkpt lat="45.425221" lon="7.025643">
        <ele>2693.923</ele>
        <time>2018-07-18T12:57:23Z</time>
      </trkpt>
      <trkpt lat="45.425175" lon="7.025654">
        <ele>2694.867</ele>
        <time>2018-07-18T12:57:30Z</time>
      </trkpt>
      <trkpt lat="45.425129" lon="7.025673">
        <ele>2695.361</ele>
        <time>2018-07-18T12:57:37Z</time>
      </trkpt>
      <trkpt lat="45.425078" lon="7.025682">
        <ele>2696.069</ele>
        <time>2018-07-18T12:57:46Z</time>
      </trkpt>
      <trkpt lat="45.425031" lon="7.025707">
        <ele>2696.804</ele>
        <time>2018-07-18T12:57:53Z</time>
      </trkpt>
      <trkpt lat="45.424988" lon="7.025735">
        <ele>2697.324</ele>
        <time>2018-07-18T12:57:59Z</time>
      </trkpt>
      <trkpt lat="45.424943" lon="7.025769">
        <ele>2698.008</ele>
        <time>2018-07-18T12:58:05Z</time>
      </trkpt>
      <trkpt lat="45.424903" lon="7.025799">
        <ele>2698.818</ele>
        <time>2018-07-18T12:58:10Z</time>
      </trkpt>
      <trkpt lat="45.424866" lon="7.025841">
        <ele>2699.313</ele>
        <time>2018-07-18T12:58:18Z</time>
      </trkpt>
      <trkpt lat="45.424823" lon="7.025874">
        <ele>2699.648</ele>
        <time>2018-07-18T12:58:28Z</time>
      </trkpt>
      <trkpt lat="45.424783" lon="7.025918">
        <ele>2700.613</ele>
        <time>2018-07-18T12:58:37Z</time>
      </trkpt>
      <trkpt lat="45.424744" lon="7.025960">
        <ele>2702.027</ele>
        <time>2018-07-18T12:58:46Z</time>
      </trkpt>
      <trkpt lat="45.424702" lon="7.025986">
        <ele>2704.076</ele>
        <time>2018-07-18T12:58:53Z</time>
      </trkpt>
      <trkpt lat="45.424663" lon="7.026019">
        <ele>2706.080</ele>
        <time>2018-07-18T12:59:00Z</time>
      </trkpt>
      <trkpt lat="45.424618" lon="7.026054">
        <ele>2708.074</ele>
        <time>2018-07-18T12:59:07Z</time>
      </trkpt>
      <trkpt lat="45.424570" lon="7.026066">
        <ele>2709.665</ele>
        <time>2018-07-18T12:59:20Z</time>
      </trkpt>
      <trkpt lat="45.424533" lon="7.026107">
        <ele>2709.468</ele>
        <time>2018-07-18T12:59:29Z</time>
      </trkpt>
      <trkpt lat="45.424489" lon="7.026134">
        <ele>2708.914</ele>
        <time>2018-07-18T12:59:36Z</time>
      </trkpt>
      <trkpt lat="45.424452" lon="7.026184">
        <ele>2709.008</ele>
        <time>2018-07-18T12:59:45Z</time>
      </trkpt>
      <trkpt lat="45.424417" lon="7.026229">
        <ele>2709.058</ele>
        <time>2018-07-18T12:59:52Z</time>
      </trkpt>
      <trkpt lat="45.424380" lon="7.026267">
        <ele>2709.813</ele>
        <time>2018-07-18T12:59:59Z</time>
      </trkpt>
      <trkpt lat="45.424339" lon="7.026303">
        <ele>2710.798</ele>
        <time>2018-07-18T13:00:06Z</time>
      </trkpt>
      <trkpt lat="45.424302" lon="7.026340">
        <ele>2712.013</ele>
        <time>2018-07-18T13:00:13Z</time>
      </trkpt>
      <trkpt lat="45.424260" lon="7.026362">
        <ele>2712.497</ele>
        <time>2018-07-18T13:00:25Z</time>
      </trkpt>
      <trkpt lat="45.424221" lon="7.026409">
        <ele>2713.096</ele>
        <time>2018-07-18T13:00:32Z</time>
      </trkpt>
      <trkpt lat="45.424182" lon="7.026458">
        <ele>2713.450</ele>
        <time>2018-07-18T13:00:39Z</time>
      </trkpt>
      <trkpt lat="45.424146" lon="7.026498">
        <ele>2713.254</ele>
        <time>2018-07-18T13:00:46Z</time>
      </trkpt>
      <trkpt lat="45.424098" lon="7.026503">
        <ele>2712.768</ele>
        <time>2018-07-18T13:01:28Z</time>
      </trkpt>
      <trkpt lat="45.424046" lon="7.026491">
        <ele>2712.442</ele>
        <time>2018-07-18T13:01:34Z</time>
      </trkpt>
      <trkpt lat="45.423996" lon="7.026480">
        <ele>2712.626</ele>
        <time>2018-07-18T13:01:40Z</time>
      </trkpt>
      <trkpt lat="45.423947" lon="7.026481">
        <ele>2713.108</ele>
        <time>2018-07-18T13:01:47Z</time>
      </trkpt>
      <trkpt lat="45.423897" lon="7.026469">
        <ele>2715.018</ele>
        <time>2018-07-18T13:01:56Z</time>
      </trkpt>
      <trkpt lat="45.423850" lon="7.026474">
        <ele>2716.683</ele>
        <time>2018-07-18T13:02:04Z</time>
      </trkpt>
      <trkpt lat="45.423805" lon="7.026499">
        <ele>2717.998</ele>
        <time>2018-07-18T13:02:12Z</time>
      </trkpt>
      <trkpt lat="45.423760" lon="7.026516">
        <ele>2719.113</ele>
        <time>2018-07-18T13:02:21Z</time>
      </trkpt>
      <trkpt lat="45.423722" lon="7.026553">
        <ele>2719.847</ele>
        <time>2018-07-18T13:02:29Z</time>
      </trkpt>
      <trkpt lat="45.423673" lon="7.026574">
        <ele>2720.696</ele>
        <time>2018-07-18T13:02:38Z</time>
      </trkpt>
      <trkpt lat="45.423629" lon="7.026605">
        <ele>2721.920</ele>
        <time>2018-07-18T13:02:45Z</time>
      </trkpt>
      <trkpt lat="45.423589" lon="7.026646">
        <ele>2723.534</ele>
        <time>2018-07-18T13:02:53Z</time>
      </trkpt>
      <trkpt lat="45.423549" lon="7.026680">
        <ele>2724.848</ele>
        <time>2018-07-18T13:03:00Z</time>
      </trkpt>
      <trkpt lat="45.423523" lon="7.026739">
        <ele>2726.061</ele>
        <time>2018-07-18T13:03:26Z</time>
      </trkpt>
      <trkpt lat="45.423520" lon="7.026804">
        <ele>2725.917</ele>
        <time>2018-07-18T13:03:32Z</time>
      </trkpt>
      <trkpt lat="45.423519" lon="7.026873">
        <ele>2726.708</ele>
        <time>2018-07-18T13:03:39Z</time>
      </trkpt>
      <trkpt lat="45.423510" lon="7.026937">
        <ele>2727.616</ele>
        <time>2018-07-18T13:03:47Z</time>
      </trkpt>
      <trkpt lat="45.423496" lon="7.026999">
        <ele>2728.581</ele>
        <time>2018-07-18T13:04:07Z</time>
      </trkpt>
      <trkpt lat="45.423481" lon="7.027066">
        <ele>2728.656</ele>
        <time>2018-07-18T13:04:13Z</time>
      </trkpt>
      <trkpt lat="45.423463" lon="7.027133">
        <ele>2729.131</ele>
        <time>2018-07-18T13:04:19Z</time>
      </trkpt>
      <trkpt lat="45.423438" lon="7.027192">
        <ele>2729.045</ele>
        <time>2018-07-18T13:04:25Z</time>
      </trkpt>
      <trkpt lat="45.423412" lon="7.027246">
        <ele>2728.984</ele>
        <time>2018-07-18T13:04:31Z</time>
      </trkpt>
      <trkpt lat="45.423385" lon="7.027311">
        <ele>2730.198</ele>
        <time>2018-07-18T13:04:37Z</time>
      </trkpt>
      <trkpt lat="45.423357" lon="7.027369">
        <ele>2730.422</ele>
        <time>2018-07-18T13:04:42Z</time>
      </trkpt>
      <trkpt lat="45.423332" lon="7.027428">
        <ele>2730.257</ele>
        <time>2018-07-18T13:04:47Z</time>
      </trkpt>
      <trkpt lat="45.423304" lon="7.027493">
        <ele>2730.500</ele>
        <time>2018-07-18T13:04:53Z</time>
      </trkpt>
      <trkpt lat="45.423278" lon="7.027549">
        <ele>2731.520</ele>
        <time>2018-07-18T13:04:58Z</time>
      </trkpt>
      <trkpt lat="45.423253" lon="7.027606">
        <ele>2731.708</ele>
        <time>2018-07-18T13:05:03Z</time>
      </trkpt>
      <trkpt lat="45.423228" lon="7.027667">
        <ele>2732.267</ele>
        <time>2018-07-18T13:05:08Z</time>
      </trkpt>
      <trkpt lat="45.423200" lon="7.027732">
        <ele>2732.942</ele>
        <time>2018-07-18T13:05:14Z</time>
      </trkpt>
      <trkpt lat="45.423185" lon="7.027798">
        <ele>2733.787</ele>
        <time>2018-07-18T13:05:20Z</time>
      </trkpt>
      <trkpt lat="45.423157" lon="7.027860">
        <ele>2733.472</ele>
        <time>2018-07-18T13:05:28Z</time>
      </trkpt>
      <trkpt lat="45.423136" lon="7.027918">
        <ele>2733.656</ele>
        <time>2018-07-18T13:05:34Z</time>
      </trkpt>
      <trkpt lat="45.423114" lon="7.027974">
        <ele>2733.725</ele>
        <time>2018-07-18T13:05:41Z</time>
      </trkpt>
      <trkpt lat="45.423076" lon="7.028022">
        <ele>2733.899</ele>
        <time>2018-07-18T13:05:54Z</time>
      </trkpt>
      <trkpt lat="45.423040" lon="7.028068">
        <ele>2733.483</ele>
        <time>2018-07-18T13:06:00Z</time>
      </trkpt>
      <trkpt lat="45.423001" lon="7.028116">
        <ele>2733.242</ele>
        <time>2018-07-18T13:06:06Z</time>
      </trkpt>
      <trkpt lat="45.422969" lon="7.028166">
        <ele>2733.522</ele>
        <time>2018-07-18T13:06:11Z</time>
      </trkpt>
      <trkpt lat="45.422933" lon="7.028217">
        <ele>2734.114</ele>
        <time>2018-07-18T13:06:16Z</time>
      </trkpt>
      <trkpt lat="45.422899" lon="7.028263">
        <ele>2734.808</ele>
        <time>2018-07-18T13:06:50Z</time>
      </trkpt>
      <trkpt lat="45.422861" lon="7.028309">
        <ele>2735.276</ele>
        <time>2018-07-18T13:06:56Z</time>
      </trkpt>
      <trkpt lat="45.422824" lon="7.028363">
        <ele>2735.531</ele>
        <time>2018-07-18T13:07:02Z</time>
      </trkpt>
      <trkpt lat="45.422790" lon="7.028411">
        <ele>2736.156</ele>
        <time>2018-07-18T13:07:07Z</time>
      </trkpt>
      <trkpt lat="45.422756" lon="7.028463">
        <ele>2736.081</ele>
        <time>2018-07-18T13:07:12Z</time>
      </trkpt>
      <trkpt lat="45.422726" lon="7.028518">
        <ele>2735.685</ele>
        <time>2018-07-18T13:07:17Z</time>
      </trkpt>
      <trkpt lat="45.422690" lon="7.028566">
        <ele>2735.334</ele>
        <time>2018-07-18T13:07:22Z</time>
      </trkpt>
      <trkpt lat="45.422651" lon="7.028620">
        <ele>2735.178</ele>
        <time>2018-07-18T13:07:28Z</time>
      </trkpt>
      <trkpt lat="45.422611" lon="7.028668">
        <ele>2735.822</ele>
        <time>2018-07-18T13:07:33Z</time>
      </trkpt>
      <trkpt lat="45.422567" lon="7.028712">
        <ele>2736.617</ele>
        <time>2018-07-18T13:07:38Z</time>
      </trkpt>
      <trkpt lat="45.422524" lon="7.028755">
        <ele>2737.587</ele>
        <time>2018-07-18T13:07:43Z</time>
      </trkpt>
      <trkpt lat="45.422477" lon="7.028786">
        <ele>2738.815</ele>
        <time>2018-07-18T13:07:48Z</time>
      </trkpt>
      <trkpt lat="45.422435" lon="7.028810">
        <ele>2740.408</ele>
        <time>2018-07-18T13:07:52Z</time>
      </trkpt>
      <trkpt lat="45.422383" lon="7.028835">
        <ele>2741.873</ele>
        <time>2018-07-18T13:07:57Z</time>
      </trkpt>
      <trkpt lat="45.422332" lon="7.028848">
        <ele>2743.068</ele>
        <time>2018-07-18T13:08:02Z</time>
      </trkpt>
      <trkpt lat="45.422279" lon="7.028835">
        <ele>2744.153</ele>
        <time>2018-07-18T13:08:08Z</time>
      </trkpt>
      <trkpt lat="45.422233" lon="7.028813">
        <ele>2744.818</ele>
        <time>2018-07-18T13:08:13Z</time>
      </trkpt>
      <trkpt lat="45.422188" lon="7.028789">
        <ele>2744.892</ele>
        <time>2018-07-18T13:08:18Z</time>
      </trkpt>
      <trkpt lat="45.422144" lon="7.028774">
        <ele>2744.021</ele>
        <time>2018-07-18T13:08:23Z</time>
      </trkpt>
      <trkpt lat="45.422097" lon="7.028801">
        <ele>2742.365</ele>
        <time>2018-07-18T13:08:31Z</time>
      </trkpt>
      <trkpt lat="45.422050" lon="7.028833">
        <ele>2741.389</ele>
        <time>2018-07-18T13:08:38Z</time>
      </trkpt>
      <trkpt lat="45.422005" lon="7.028844">
        <ele>2741.169</ele>
        <time>2018-07-18T13:08:43Z</time>
      </trkpt>
      <trkpt lat="45.421960" lon="7.028846">
        <ele>2741.404</ele>
        <time>2018-07-18T13:08:49Z</time>
      </trkpt>
      <trkpt lat="45.421910" lon="7.028822">
        <ele>2742.024</ele>
        <time>2018-07-18T13:08:56Z</time>
      </trkpt>
      <trkpt lat="45.421863" lon="7.028805">
        <ele>2742.708</ele>
        <time>2018-07-18T13:09:02Z</time>
      </trkpt>
      <trkpt lat="45.421815" lon="7.028787">
        <ele>2742.368</ele>
        <time>2018-07-18T13:09:09Z</time>
      </trkpt>
      <trkpt lat="45.421768" lon="7.028767">
        <ele>2741.723</ele>
        <time>2018-07-18T13:09:14Z</time>
      </trkpt>
      <trkpt lat="45.421722" lon="7.028754">
        <ele>2741.788</ele>
        <time>2018-07-18T13:09:18Z</time>
      </trkpt>
      <trkpt lat="45.421672" lon="7.028766">
        <ele>2741.783</ele>
        <time>2018-07-18T13:09:22Z</time>
      </trkpt>
      <trkpt lat="45.421627" lon="7.028780">
        <ele>2741.317</ele>
        <time>2018-07-18T13:09:29Z</time>
      </trkpt>
      <trkpt lat="45.421576" lon="7.028792">
        <ele>2742.346</ele>
        <time>2018-07-18T13:09:40Z</time>
      </trkpt>
      <trkpt lat="45.421531" lon="7.028770">
        <ele>2743.780</ele>
        <time>2018-07-18T13:09:46Z</time>
      </trkpt>
      <trkpt lat="45.421486" lon="7.028747">
        <ele>2744.544</ele>
        <time>2018-07-18T13:09:52Z</time>
      </trkpt>
      <trkpt lat="45.421444" lon="7.028722">
        <ele>2745.822</ele>
        <time>2018-07-18T13:09:58Z</time>
      </trkpt>
      <trkpt lat="45.421396" lon="7.028718">
        <ele>2746.262</ele>
        <time>2018-07-18T13:10:05Z</time>
      </trkpt>
      <trkpt lat="45.421350" lon="7.028726">
        <ele>2746.808</ele>
        <time>2018-07-18T13:10:12Z</time>
      </trkpt>
      <trkpt lat="45.421298" lon="7.028727">
        <ele>2746.808</ele>
        <time>2018-07-18T13:10:18Z</time>
      </trkpt>
      <trkpt lat="45.421250" lon="7.028731">
        <ele>2746.494</ele>
        <time>2018-07-18T13:10:23Z</time>
      </trkpt>
      <trkpt lat="45.421201" lon="7.028735">
        <ele>2746.299</ele>
        <time>2018-07-18T13:10:28Z</time>
      </trkpt>
      <trkpt lat="45.421151" lon="7.028722">
        <ele>2746.944</ele>
        <time>2018-07-18T13:10:35Z</time>
      </trkpt>
      <trkpt lat="45.421102" lon="7.028718">
        <ele>2747.749</ele>
        <time>2018-07-18T13:10:42Z</time>
      </trkpt>
      <trkpt lat="45.421055" lon="7.028726">
        <ele>2748.663</ele>
        <time>2018-07-18T13:10:49Z</time>
      </trkpt>
      <trkpt lat="45.421008" lon="7.028735">
        <ele>2749.532</ele>
        <time>2018-07-18T13:10:57Z</time>
      </trkpt>
      <trkpt lat="45.420957" lon="7.028743">
        <ele>2750.136</ele>
        <time>2018-07-18T13:11:05Z</time>
      </trkpt>
      <trkpt lat="45.420911" lon="7.028745">
        <ele>2750.850</ele>
        <time>2018-07-18T13:11:12Z</time>
      </trkpt>
      <trkpt lat="45.420863" lon="7.028760">
        <ele>2751.677</ele>
        <time>2018-07-18T13:11:30Z</time>
      </trkpt>
      <trkpt lat="45.420815" lon="7.028763">
        <ele>2753.361</ele>
        <time>2018-07-18T13:11:38Z</time>
      </trkpt>
      <trkpt lat="45.420767" lon="7.028762">
        <ele>2753.927</ele>
        <time>2018-07-18T13:11:47Z</time>
      </trkpt>
      <trkpt lat="45.420718" lon="7.028749">
        <ele>2754.708</ele>
        <time>2018-07-18T13:11:56Z</time>
      </trkpt>
      <trkpt lat="45.420671" lon="7.028747">
        <ele>2755.669</ele>
        <time>2018-07-18T13:12:05Z</time>
      </trkpt>
      <trkpt lat="45.420627" lon="7.028729">
        <ele>2756.554</ele>
        <time>2018-07-18T13:12:12Z</time>
      </trkpt>
      <trkpt lat="45.420581" lon="7.028707">
        <ele>2757.579</ele>
        <time>2018-07-18T13:12:19Z</time>
      </trkpt>
      <trkpt lat="45.420524" lon="7.028712">
        <ele>2758.994</ele>
        <time>2018-07-18T13:12:30Z</time>
      </trkpt>
      <trkpt lat="45.420477" lon="7.028729">
        <ele>2760.138</ele>
        <time>2018-07-18T13:12:40Z</time>
      </trkpt>
      <trkpt lat="45.420429" lon="7.028739">
        <ele>2762.087</ele>
        <time>2018-07-18T13:12:49Z</time>
      </trkpt>
      <trkpt lat="45.420382" lon="7.028761">
        <ele>2763.261</ele>
        <time>2018-07-18T13:12:57Z</time>
      </trkpt>
      <trkpt lat="45.420345" lon="7.028801">
        <ele>2763.985</ele>
        <time>2018-07-18T13:13:03Z</time>
      </trkpt>
      <trkpt lat="45.420305" lon="7.028847">
        <ele>2764.373</ele>
        <time>2018-07-18T13:13:10Z</time>
      </trkpt>
      <trkpt lat="45.420265" lon="7.028892">
        <ele>2764.285</ele>
        <time>2018-07-18T13:13:17Z</time>
      </trkpt>
      <trkpt lat="45.420226" lon="7.028936">
        <ele>2764.513</ele>
        <time>2018-07-18T13:13:23Z</time>
      </trkpt>
      <trkpt lat="45.420200" lon="7.028992">
        <ele>2764.708</ele>
        <time>2018-07-18T13:13:28Z</time>
      </trkpt>
      <trkpt lat="45.420168" lon="7.029048">
        <ele>2765.289</ele>
        <time>2018-07-18T13:13:33Z</time>
      </trkpt>
      <trkpt lat="45.420138" lon="7.029102">
        <ele>2765.994</ele>
        <time>2018-07-18T13:13:38Z</time>
      </trkpt>
      <trkpt lat="45.420115" lon="7.029165">
        <ele>2766.749</ele>
        <time>2018-07-18T13:13:43Z</time>
      </trkpt>
      <trkpt lat="45.420082" lon="7.029221">
        <ele>2767.614</ele>
        <time>2018-07-18T13:13:49Z</time>
      </trkpt>
      <trkpt lat="45.420045" lon="7.029259">
        <ele>2768.978</ele>
        <time>2018-07-18T13:13:55Z</time>
      </trkpt>
      <trkpt lat="45.420003" lon="7.029296">
        <ele>2770.137</ele>
        <time>2018-07-18T13:14:02Z</time>
      </trkpt>
      <trkpt lat="45.419954" lon="7.029312">
        <ele>2771.271</ele>
        <time>2018-07-18T13:14:11Z</time>
      </trkpt>
      <trkpt lat="45.419907" lon="7.029323">
        <ele>2773.155</ele>
        <time>2018-07-18T13:14:19Z</time>
      </trkpt>
      <trkpt lat="45.419858" lon="7.029344">
        <ele>2774.681</ele>
        <time>2018-07-18T13:14:27Z</time>
      </trkpt>
      <trkpt lat="45.419808" lon="7.029352">
        <ele>2775.161</ele>
        <time>2018-07-18T13:14:35Z</time>
      </trkpt>
      <trkpt lat="45.419763" lon="7.029374">
        <ele>2776.217</ele>
        <time>2018-07-18T13:14:43Z</time>
      </trkpt>
      <trkpt lat="45.419713" lon="7.029391">
        <ele>2777.308</ele>
        <time>2018-07-18T13:14:52Z</time>
      </trkpt>
      <trkpt lat="45.419703" lon="7.029458">
        <ele>2778.350</ele>
        <time>2018-07-18T13:15:04Z</time>
      </trkpt>
      <trkpt lat="45.419661" lon="7.029488">
        <ele>2779.395</ele>
        <time>2018-07-18T13:15:13Z</time>
      </trkpt>
      <trkpt lat="45.419617" lon="7.029507">
        <ele>2780.770</ele>
        <time>2018-07-18T13:15:23Z</time>
      </trkpt>
      <trkpt lat="45.419574" lon="7.029540">
        <ele>2781.945</ele>
        <time>2018-07-18T13:16:27Z</time>
      </trkpt>
      <trkpt lat="45.419564" lon="7.029606">
        <ele>2783.059</ele>
        <time>2018-07-18T13:16:37Z</time>
      </trkpt>
      <trkpt lat="45.419557" lon="7.029670">
        <ele>2783.328</ele>
        <time>2018-07-18T13:16:44Z</time>
      </trkpt>
      <trkpt lat="45.419552" lon="7.029740">
        <ele>2783.962</ele>
        <time>2018-07-18T13:16:52Z</time>
      </trkpt>
      <trkpt lat="45.419514" lon="7.029788">
        <ele>2785.086</ele>
        <time>2018-07-18T13:17:01Z</time>
      </trkpt>
      <trkpt lat="45.419466" lon="7.029766">
        <ele>2784.947</ele>
        <time>2018-07-18T13:17:10Z</time>
      </trkpt>
      <trkpt lat="45.419422" lon="7.029744">
        <ele>2785.229</ele>
        <time>2018-07-18T13:17:20Z</time>
      </trkpt>
      <trkpt lat="45.419377" lon="7.029724">
        <ele>2786.621</ele>
        <time>2018-07-18T13:17:32Z</time>
      </trkpt>
      <trkpt lat="45.419340" lon="7.029771">
        <ele>2786.608</ele>
        <time>2018-07-18T13:17:43Z</time>
      </trkpt>
      <trkpt lat="45.419328" lon="7.029836">
        <ele>2787.076</ele>
        <time>2018-07-18T13:17:49Z</time>
      </trkpt>
      <trkpt lat="45.419280" lon="7.029833">
        <ele>2787.771</ele>
        <time>2018-07-18T13:18:06Z</time>
      </trkpt>
      <trkpt lat="45.419233" lon="7.029812">
        <ele>2788.936</ele>
        <time>2018-07-18T13:18:16Z</time>
      </trkpt>
      <trkpt lat="45.419206" lon="7.029865">
        <ele>2790.081</ele>
        <time>2018-07-18T13:18:28Z</time>
      </trkpt>
      <trkpt lat="45.419188" lon="7.029931">
        <ele>2791.585</ele>
        <time>2018-07-18T13:18:36Z</time>
      </trkpt>
      <trkpt lat="45.419165" lon="7.029987">
        <ele>2792.084</ele>
        <time>2018-07-18T13:18:41Z</time>
      </trkpt>
      <trkpt lat="45.419134" lon="7.030053">
        <ele>2792.378</ele>
        <time>2018-07-18T13:18:53Z</time>
      </trkpt>
      <trkpt lat="45.419088" lon="7.030047">
        <ele>2793.792</ele>
        <time>2018-07-18T13:19:08Z</time>
      </trkpt>
      <trkpt lat="45.419041" lon="7.030051">
        <ele>2794.556</ele>
        <time>2018-07-18T13:19:17Z</time>
      </trkpt>
      <trkpt lat="45.418997" lon="7.030065">
        <ele>2795.059</ele>
        <time>2018-07-18T13:19:25Z</time>
      </trkpt>
      <trkpt lat="45.418953" lon="7.030089">
        <ele>2794.914</ele>
        <time>2018-07-18T13:19:34Z</time>
      </trkpt>
      <trkpt lat="45.418904" lon="7.030105">
        <ele>2796.008</ele>
        <time>2018-07-18T13:19:43Z</time>
      </trkpt>
      <trkpt lat="45.418857" lon="7.030129">
        <ele>2797.577</ele>
        <time>2018-07-18T13:19:55Z</time>
      </trkpt>
      <trkpt lat="45.418815" lon="7.030156">
        <ele>2800.452</ele>
        <time>2018-07-18T13:20:10Z</time>
      </trkpt>
      <trkpt lat="45.418771" lon="7.030187">
        <ele>2803.337</ele>
        <time>2018-07-18T13:20:22Z</time>
      </trkpt>
      <trkpt lat="45.418735" lon="7.030226">
        <ele>2805.522</ele>
        <time>2018-07-18T13:20:34Z</time>
      </trkpt>
      <trkpt lat="45.418689" lon="7.030225">
        <ele>2807.226</ele>
        <time>2018-07-18T13:20:54Z</time>
      </trkpt>
      <trkpt lat="45.418642" lon="7.030249">
        <ele>2809.415</ele>
        <time>2018-07-18T13:21:05Z</time>
      </trkpt>
      <trkpt lat="45.418607" lon="7.030294">
        <ele>2811.139</ele>
        <time>2018-07-18T13:21:15Z</time>
      </trkpt>
      <trkpt lat="45.418575" lon="7.030348">
        <ele>2811.343</ele>
        <time>2018-07-18T13:22:09Z</time>
      </trkpt>
      <trkpt lat="45.418533" lon="7.030384">
        <ele>2811.463</ele>
        <time>2018-07-18T13:22:16Z</time>
      </trkpt>
      <trkpt lat="45.418488" lon="7.030375">
        <ele>2811.544</ele>
        <time>2018-07-18T13:23:01Z</time>
      </trkpt>
      <trkpt lat="45.418444" lon="7.030399">
        <ele>2811.218</ele>
        <time>2018-07-18T13:23:06Z</time>
      </trkpt>
      <trkpt lat="45.418403" lon="7.030430">
        <ele>2811.008</ele>
        <time>2018-07-18T13:23:10Z</time>
      </trkpt>
      <trkpt lat="45.418357" lon="7.030472">
        <ele>2810.548</ele>
        <time>2018-07-18T13:23:15Z</time>
      </trkpt>
      <trkpt lat="45.418317" lon="7.030504">
        <ele>2810.253</ele>
        <time>2018-07-18T13:23:19Z</time>
      </trkpt>
      <trkpt lat="45.418278" lon="7.030538">
        <ele>2810.028</ele>
        <time>2018-07-18T13:23:23Z</time>
      </trkpt>
      <trkpt lat="45.418229" lon="7.030563">
        <ele>2809.153</ele>
        <time>2018-07-18T13:23:28Z</time>
      </trkpt>
      <trkpt lat="45.418175" lon="7.030569">
        <ele>2809.077</ele>
        <time>2018-07-18T13:23:33Z</time>
      </trkpt>
      <trkpt lat="45.418121" lon="7.030570">
        <ele>2808.596</ele>
        <time>2018-07-18T13:23:38Z</time>
      </trkpt>
      <trkpt lat="45.418067" lon="7.030575">
        <ele>2808.650</ele>
        <time>2018-07-18T13:23:43Z</time>
      </trkpt>
      <trkpt lat="45.418013" lon="7.030576">
        <ele>2809.574</ele>
        <time>2018-07-18T13:23:48Z</time>
      </trkpt>
      <trkpt lat="45.417960" lon="7.030569">
        <ele>2810.066</ele>
        <time>2018-07-18T13:23:53Z</time>
      </trkpt>
      <trkpt lat="45.417913" lon="7.030578">
        <ele>2809.929</ele>
        <time>2018-07-18T13:23:58Z</time>
      </trkpt>
      <trkpt lat="45.417865" lon="7.030597">
        <ele>2810.621</ele>
        <time>2018-07-18T13:24:03Z</time>
      </trkpt>
      <trkpt lat="45.417817" lon="7.030609">
        <ele>2811.008</ele>
        <time>2018-07-18T13:24:08Z</time>
      </trkpt>
      <trkpt lat="45.417766" lon="7.030619">
        <ele>2811.718</ele>
        <time>2018-07-18T13:24:13Z</time>
      </trkpt>
      <trkpt lat="45.417715" lon="7.030625">
        <ele>2812.533</ele>
        <time>2018-07-18T13:24:18Z</time>
      </trkpt>
      <trkpt lat="45.417666" lon="7.030639">
        <ele>2813.028</ele>
        <time>2018-07-18T13:24:23Z</time>
      </trkpt>
      <trkpt lat="45.417622" lon="7.030617">
        <ele>2814.143</ele>
        <time>2018-07-18T13:24:39Z</time>
      </trkpt>
      <trkpt lat="45.417571" lon="7.030593">
        <ele>2815.267</ele>
        <time>2018-07-18T13:24:45Z</time>
      </trkpt>
      <trkpt lat="45.417528" lon="7.030557">
        <ele>2816.286</ele>
        <time>2018-07-18T13:24:50Z</time>
      </trkpt>
      <trkpt lat="45.417482" lon="7.030551">
        <ele>2817.220</ele>
        <time>2018-07-18T13:24:55Z</time>
      </trkpt>
      <trkpt lat="45.417435" lon="7.030559">
        <ele>2817.864</ele>
        <time>2018-07-18T13:25:00Z</time>
      </trkpt>
      <trkpt lat="45.417389" lon="7.030571">
        <ele>2818.636</ele>
        <time>2018-07-18T13:25:05Z</time>
      </trkpt>
      <trkpt lat="45.417344" lon="7.030564">
        <ele>2818.717</ele>
        <time>2018-07-18T13:25:10Z</time>
      </trkpt>
      <trkpt lat="45.417296" lon="7.030521">
        <ele>2818.318</ele>
        <time>2018-07-18T13:25:22Z</time>
      </trkpt>
      <trkpt lat="45.417320" lon="7.030521">
        <ele>2817.808</ele>
        <time>2018-07-18T13:45:37Z</time>
      </trkpt>
      <trkpt lat="45.417280" lon="7.030556">
        <ele>2820.045</ele>
        <time>2018-07-18T13:45:43Z</time>
      </trkpt>
      <trkpt lat="45.417239" lon="7.030585">
        <ele>2820.190</ele>
        <time>2018-07-18T13:45:49Z</time>
      </trkpt>
      <trkpt lat="45.417199" lon="7.030615">
        <ele>2819.015</ele>
        <time>2018-07-18T13:45:57Z</time>
      </trkpt>
      <trkpt lat="45.417192" lon="7.030682">
        <ele>2818.940</ele>
        <time>2018-07-18T13:46:07Z</time>
      </trkpt>
      <trkpt lat="45.417164" lon="7.030742">
        <ele>2818.324</ele>
        <time>2018-07-18T13:46:13Z</time>
      </trkpt>
      <trkpt lat="45.417126" lon="7.030789">
        <ele>2818.793</ele>
        <time>2018-07-18T13:46:21Z</time>
      </trkpt>
      <trkpt lat="45.417084" lon="7.030821">
        <ele>2818.997</ele>
        <time>2018-07-18T13:46:29Z</time>
      </trkpt>
      <trkpt lat="45.417035" lon="7.030828">
        <ele>2819.061</ele>
        <time>2018-07-18T13:46:40Z</time>
      </trkpt>
      <trkpt lat="45.416989" lon="7.030857">
        <ele>2819.159</ele>
        <time>2018-07-18T13:47:06Z</time>
      </trkpt>
      <trkpt lat="45.416962" lon="7.030919">
        <ele>2819.203</ele>
        <time>2018-07-18T13:47:10Z</time>
      </trkpt>
      <trkpt lat="45.416919" lon="7.030972">
        <ele>2819.223</ele>
        <time>2018-07-18T13:47:14Z</time>
      </trkpt>
      <trkpt lat="45.416875" lon="7.031012">
        <ele>2818.808</ele>
        <time>2018-07-18T13:47:19Z</time>
      </trkpt>
      <trkpt lat="45.416829" lon="7.031040">
        <ele>2819.027</ele>
        <time>2018-07-18T13:47:24Z</time>
      </trkpt>
      <trkpt lat="45.416788" lon="7.031066">
        <ele>2819.192</ele>
        <time>2018-07-18T13:47:28Z</time>
      </trkpt>
      <trkpt lat="45.416745" lon="7.031090">
        <ele>2818.837</ele>
        <time>2018-07-18T13:47:32Z</time>
      </trkpt>
      <trkpt lat="45.416701" lon="7.031118">
        <ele>2818.612</ele>
        <time>2018-07-18T13:47:36Z</time>
      </trkpt>
      <trkpt lat="45.416661" lon="7.031154">
        <ele>2818.186</ele>
        <time>2018-07-18T13:47:40Z</time>
      </trkpt>
      <trkpt lat="45.416622" lon="7.031195">
        <ele>2817.845</ele>
        <time>2018-07-18T13:47:44Z</time>
      </trkpt>
      <trkpt lat="45.416581" lon="7.031227">
        <ele>2816.849</ele>
        <time>2018-07-18T13:47:49Z</time>
      </trkpt>
      <trkpt lat="45.416542" lon="7.031271">
        <ele>2816.233</ele>
        <time>2018-07-18T13:47:55Z</time>
      </trkpt>
      <trkpt lat="45.416516" lon="7.031327">
        <ele>2815.079</ele>
        <time>2018-07-18T13:48:05Z</time>
      </trkpt>
      <trkpt lat="45.416462" lon="7.031352">
        <ele>2813.905</ele>
        <time>2018-07-18T13:48:11Z</time>
      </trkpt>
      <trkpt lat="45.416448" lon="7.031423">
        <ele>2813.225</ele>
        <time>2018-07-18T13:48:17Z</time>
      </trkpt>
      <trkpt lat="45.416399" lon="7.031429">
        <ele>2812.008</ele>
        <time>2018-07-18T13:48:26Z</time>
      </trkpt>
      <trkpt lat="45.416355" lon="7.031444">
        <ele>2810.599</ele>
        <time>2018-07-18T13:48:42Z</time>
      </trkpt>
      <trkpt lat="45.416343" lon="7.031512">
        <ele>2808.884</ele>
        <time>2018-07-18T13:48:52Z</time>
      </trkpt>
      <trkpt lat="45.416301" lon="7.031549">
        <ele>2807.089</ele>
        <time>2018-07-18T13:49:00Z</time>
      </trkpt>
      <trkpt lat="45.416250" lon="7.031531">
        <ele>2805.524</ele>
        <time>2018-07-18T13:49:06Z</time>
      </trkpt>
      <trkpt lat="45.416209" lon="7.031493">
        <ele>2804.668</ele>
        <time>2018-07-18T13:49:12Z</time>
      </trkpt>
      <trkpt lat="45.416161" lon="7.031482">
        <ele>2804.177</ele>
        <time>2018-07-18T13:49:19Z</time>
      </trkpt>
      <trkpt lat="45.416112" lon="7.031468">
        <ele>2803.851</ele>
        <time>2018-07-18T13:49:26Z</time>
      </trkpt>
      <trkpt lat="45.416065" lon="7.031459">
        <ele>2803.245</ele>
        <time>2018-07-18T13:49:33Z</time>
      </trkpt>
      <trkpt lat="45.416024" lon="7.031432">
        <ele>2802.031</ele>
        <time>2018-07-18T13:49:40Z</time>
      </trkpt>
      <trkpt lat="45.415978" lon="7.031409">
        <ele>2800.961</ele>
        <time>2018-07-18T13:49:49Z</time>
      </trkpt>
      <trkpt lat="45.415930" lon="7.031402">
        <ele>2800.207</ele>
        <time>2018-07-18T13:50:00Z</time>
      </trkpt>
      <trkpt lat="45.415886" lon="7.031367">
        <ele>2799.808</ele>
        <time>2018-07-18T13:50:08Z</time>
      </trkpt>
      <trkpt lat="45.415838" lon="7.031372">
        <ele>2798.875</ele>
        <time>2018-07-18T13:50:30Z</time>
      </trkpt>
      <trkpt lat="45.415795" lon="7.031351">
        <ele>2798.240</ele>
        <time>2018-07-18T13:50:37Z</time>
      </trkpt>
      <trkpt lat="45.415748" lon="7.031365">
        <ele>2796.215</ele>
        <time>2018-07-18T13:51:01Z</time>
      </trkpt>
      <trkpt lat="45.415703" lon="7.031358">
        <ele>2793.850</ele>
        <time>2018-07-18T13:51:15Z</time>
      </trkpt>
      <trkpt lat="45.415663" lon="7.031390">
        <ele>2791.674</ele>
        <time>2018-07-18T13:51:30Z</time>
      </trkpt>
      <trkpt lat="45.415612" lon="7.031378">
        <ele>2789.983</ele>
        <time>2018-07-18T13:51:39Z</time>
      </trkpt>
      <trkpt lat="45.415564" lon="7.031361">
        <ele>2788.567</ele>
        <time>2018-07-18T13:51:47Z</time>
      </trkpt>
      <trkpt lat="45.415519" lon="7.031338">
        <ele>2787.241</ele>
        <time>2018-07-18T13:51:54Z</time>
      </trkpt>
      <trkpt lat="45.415474" lon="7.031304">
        <ele>2786.444</ele>
        <time>2018-07-18T13:52:02Z</time>
      </trkpt>
      <trkpt lat="45.415428" lon="7.031279">
        <ele>2785.105</ele>
        <time>2018-07-18T13:52:12Z</time>
      </trkpt>
      <trkpt lat="45.415385" lon="7.031242">
        <ele>2783.915</ele>
        <time>2018-07-18T13:52:21Z</time>
      </trkpt>
      <trkpt lat="45.415347" lon="7.031203">
        <ele>2783.608</ele>
        <time>2018-07-18T13:52:26Z</time>
      </trkpt>
      <trkpt lat="45.415306" lon="7.031161">
        <ele>2783.096</ele>
        <time>2018-07-18T13:52:31Z</time>
      </trkpt>
      <trkpt lat="45.415268" lon="7.031115">
        <ele>2782.751</ele>
        <time>2018-07-18T13:52:36Z</time>
      </trkpt>
      <trkpt lat="45.415238" lon="7.031065">
        <ele>2781.786</ele>
        <time>2018-07-18T13:52:41Z</time>
      </trkpt>
      <trkpt lat="45.415202" lon="7.031012">
        <ele>2780.721</ele>
        <time>2018-07-18T13:52:47Z</time>
      </trkpt>
      <trkpt lat="45.415165" lon="7.030965">
        <ele>2779.725</ele>
        <time>2018-07-18T13:52:53Z</time>
      </trkpt>
      <trkpt lat="45.415122" lon="7.030942">
        <ele>2778.394</ele>
        <time>2018-07-18T13:52:59Z</time>
      </trkpt>
      <trkpt lat="45.415078" lon="7.030910">
        <ele>2776.788</ele>
        <time>2018-07-18T13:53:07Z</time>
      </trkpt>
      <trkpt lat="45.415044" lon="7.030857">
        <ele>2774.952</ele>
        <time>2018-07-18T13:53:17Z</time>
      </trkpt>
      <trkpt lat="45.415006" lon="7.030814">
        <ele>2773.489</ele>
        <time>2018-07-18T13:53:33Z</time>
      </trkpt>
      <trkpt lat="45.414961" lon="7.030812">
        <ele>2772.506</ele>
        <time>2018-07-18T13:53:51Z</time>
      </trkpt>
      <trkpt lat="45.414916" lon="7.030789">
        <ele>2771.626</ele>
        <time>2018-07-18T13:54:04Z</time>
      </trkpt>
      <trkpt lat="45.414868" lon="7.030776">
        <ele>2770.208</ele>
        <time>2018-07-18T13:54:13Z</time>
      </trkpt>
      <trkpt lat="45.414823" lon="7.030748">
        <ele>2769.420</ele>
        <time>2018-07-18T13:54:22Z</time>
      </trkpt>
      <trkpt lat="45.414774" lon="7.030740">
        <ele>2768.135</ele>
        <time>2018-07-18T13:54:31Z</time>
      </trkpt>
      <trkpt lat="45.414728" lon="7.030721">
        <ele>2766.590</ele>
        <time>2018-07-18T13:54:41Z</time>
      </trkpt>
      <trkpt lat="45.414690" lon="7.030682">
        <ele>2765.645</ele>
        <time>2018-07-18T13:54:48Z</time>
      </trkpt>
      <trkpt lat="45.414651" lon="7.030645">
        <ele>2764.259</ele>
        <time>2018-07-18T13:54:57Z</time>
      </trkpt>
      <trkpt lat="45.414603" lon="7.030623">
        <ele>2762.618</ele>
        <time>2018-07-18T13:55:07Z</time>
      </trkpt>
      <trkpt lat="45.414556" lon="7.030596">
        <ele>2760.832</ele>
        <time>2018-07-18T13:55:14Z</time>
      </trkpt>
      <trkpt lat="45.414511" lon="7.030595">
        <ele>2758.196</ele>
        <time>2018-07-18T13:55:30Z</time>
      </trkpt>
      <trkpt lat="45.414475" lon="7.030641">
        <ele>2754.583</ele>
        <time>2018-07-18T13:55:51Z</time>
      </trkpt>
      <trkpt lat="45.414428" lon="7.030645">
        <ele>2751.525</ele>
        <time>2018-07-18T13:56:13Z</time>
      </trkpt>
      <trkpt lat="45.414387" lon="7.030674">
        <ele>2748.517</ele>
        <time>2018-07-18T13:56:34Z</time>
      </trkpt>
      <trkpt lat="45.414342" lon="7.030664">
        <ele>2747.108</ele>
        <time>2018-07-18T13:56:55Z</time>
      </trkpt>
      <trkpt lat="45.414301" lon="7.030693">
        <ele>2743.970</ele>
        <time>2018-07-18T13:57:16Z</time>
      </trkpt>
      <trkpt lat="45.414255" lon="7.030698">
        <ele>2741.635</ele>
        <time>2018-07-18T13:57:34Z</time>
      </trkpt>
      <trkpt lat="45.414234" lon="7.030639">
        <ele>2739.020</ele>
        <time>2018-07-18T13:58:44Z</time>
      </trkpt>
      <trkpt lat="45.414195" lon="7.030595">
        <ele>2737.885</ele>
        <time>2018-07-18T13:58:56Z</time>
      </trkpt>
      <trkpt lat="45.414158" lon="7.030555">
        <ele>2736.369</ele>
        <time>2018-07-18T13:59:15Z</time>
      </trkpt>
      <trkpt lat="45.414109" lon="7.030536">
        <ele>2735.018</ele>
        <time>2018-07-18T13:59:36Z</time>
      </trkpt>
      <trkpt lat="45.414078" lon="7.030490">
        <ele>2734.292</ele>
        <time>2018-07-18T13:59:44Z</time>
      </trkpt>
      <trkpt lat="45.414034" lon="7.030457">
        <ele>2733.316</ele>
        <time>2018-07-18T13:59:56Z</time>
      </trkpt>
      <trkpt lat="45.413993" lon="7.030408">
        <ele>2732.044</ele>
        <time>2018-07-18T14:00:04Z</time>
      </trkpt>
      <trkpt lat="45.413957" lon="7.030365">
        <ele>2731.605</ele>
        <time>2018-07-18T14:00:09Z</time>
      </trkpt>
      <trkpt lat="45.413911" lon="7.030339">
        <ele>2731.415</ele>
        <time>2018-07-18T14:00:18Z</time>
      </trkpt>
      <trkpt lat="45.413867" lon="7.030318">
        <ele>2730.908</ele>
        <time>2018-07-18T14:00:27Z</time>
      </trkpt>
      <trkpt lat="45.413825" lon="7.030286">
        <ele>2728.616</ele>
        <time>2018-07-18T14:00:48Z</time>
      </trkpt>
      <trkpt lat="45.413781" lon="7.030258">
        <ele>2726.061</ele>
        <time>2018-07-18T14:00:59Z</time>
      </trkpt>
      <trkpt lat="45.413739" lon="7.030221">
        <ele>2724.026</ele>
        <time>2018-07-18T14:01:07Z</time>
      </trkpt>
      <trkpt lat="45.413697" lon="7.030192">
        <ele>2722.841</ele>
        <time>2018-07-18T14:01:15Z</time>
      </trkpt>
      <trkpt lat="45.413655" lon="7.030168">
        <ele>2721.795</ele>
        <time>2018-07-18T14:01:23Z</time>
      </trkpt>
      <trkpt lat="45.413610" lon="7.030153">
        <ele>2721.444</ele>
        <time>2018-07-18T14:01:55Z</time>
      </trkpt>
      <trkpt lat="45.413565" lon="7.030137">
        <ele>2721.228</ele>
        <time>2018-07-18T14:02:10Z</time>
      </trkpt>
      <trkpt lat="45.413518" lon="7.030120">
        <ele>2719.142</ele>
        <time>2018-07-18T14:02:30Z</time>
      </trkpt>
      <trkpt lat="45.413494" lon="7.030056">
        <ele>2717.863</ele>
        <time>2018-07-18T14:02:37Z</time>
      </trkpt>
      <trkpt lat="45.413476" lon="7.029991">
        <ele>2716.244</ele>
        <time>2018-07-18T14:02:43Z</time>
      </trkpt>
      <trkpt lat="45.413438" lon="7.029952">
        <ele>2714.918</ele>
        <time>2018-07-18T14:02:50Z</time>
      </trkpt>
      <trkpt lat="45.413408" lon="7.029900">
        <ele>2710.908</ele>
        <time>2018-07-18T14:03:05Z</time>
      </trkpt>
      <trkpt lat="45.413370" lon="7.029857">
        <ele>2708.198</ele>
        <time>2018-07-18T14:03:10Z</time>
      </trkpt>
      <trkpt lat="45.413333" lon="7.029818">
        <ele>2706.413</ele>
        <time>2018-07-18T14:03:15Z</time>
      </trkpt>
      <trkpt lat="45.413285" lon="7.029801">
        <ele>2704.618</ele>
        <time>2018-07-18T14:03:24Z</time>
      </trkpt>
      <trkpt lat="45.413240" lon="7.029779">
        <ele>2701.583</ele>
        <time>2018-07-18T14:03:37Z</time>
      </trkpt>
      <trkpt lat="45.413194" lon="7.029759">
        <ele>2700.077</ele>
        <time>2018-07-18T14:03:44Z</time>
      </trkpt>
      <trkpt lat="45.413145" lon="7.029765">
        <ele>2697.556</ele>
        <time>2018-07-18T14:03:52Z</time>
      </trkpt>
      <trkpt lat="45.413100" lon="7.029780">
        <ele>2694.410</ele>
        <time>2018-07-18T14:04:01Z</time>
      </trkpt>
      <trkpt lat="45.413058" lon="7.029808">
        <ele>2690.664</ele>
        <time>2018-07-18T14:04:14Z</time>
      </trkpt>
      <trkpt lat="45.413011" lon="7.029816">
        <ele>2687.516</ele>
        <time>2018-07-18T14:04:25Z</time>
      </trkpt>
      <trkpt lat="45.412963" lon="7.029810">
        <ele>2685.276</ele>
        <time>2018-07-18T14:04:36Z</time>
      </trkpt>
      <trkpt lat="45.412937" lon="7.029757">
        <ele>2684.213</ele>
        <time>2018-07-18T14:04:45Z</time>
      </trkpt>
      <trkpt lat="45.412898" lon="7.029718">
        <ele>2684.008</ele>
        <time>2018-07-18T14:04:50Z</time>
      </trkpt>
      <trkpt lat="45.412867" lon="7.029666">
        <ele>2684.353</ele>
        <time>2018-07-18T14:04:56Z</time>
      </trkpt>
      <trkpt lat="45.412828" lon="7.029626">
        <ele>2686.138</ele>
        <time>2018-07-18T14:05:12Z</time>
      </trkpt>
      <trkpt lat="45.412795" lon="7.029570">
        <ele>2686.813</ele>
        <time>2018-07-18T14:05:19Z</time>
      </trkpt>
      <trkpt lat="45.412760" lon="7.029523">
        <ele>2686.828</ele>
        <time>2018-07-18T14:05:29Z</time>
      </trkpt>
      <trkpt lat="45.412722" lon="7.029476">
        <ele>2687.672</ele>
        <time>2018-07-18T14:05:35Z</time>
      </trkpt>
      <trkpt lat="45.412683" lon="7.029438">
        <ele>2688.541</ele>
        <time>2018-07-18T14:05:41Z</time>
      </trkpt>
      <trkpt lat="45.412648" lon="7.029394">
        <ele>2689.485</ele>
        <time>2018-07-18T14:05:47Z</time>
      </trkpt>
      <trkpt lat="45.412624" lon="7.029333">
        <ele>2689.679</ele>
        <time>2018-07-18T14:05:54Z</time>
      </trkpt>
      <trkpt lat="45.412578" lon="7.029297">
        <ele>2690.134</ele>
        <time>2018-07-18T14:06:00Z</time>
      </trkpt>
      <trkpt lat="45.412528" lon="7.029273">
        <ele>2690.055</ele>
        <time>2018-07-18T14:06:07Z</time>
      </trkpt>
      <trkpt lat="45.412481" lon="7.029253">
        <ele>2689.910</ele>
        <time>2018-07-18T14:06:12Z</time>
      </trkpt>
      <trkpt lat="45.412439" lon="7.029226">
        <ele>2689.908</ele>
        <time>2018-07-18T14:06:17Z</time>
      </trkpt>
      <trkpt lat="45.412393" lon="7.029204">
        <ele>2689.955</ele>
        <time>2018-07-18T14:06:22Z</time>
      </trkpt>
      <trkpt lat="45.412350" lon="7.029178">
        <ele>2690.320</ele>
        <time>2018-07-18T14:06:27Z</time>
      </trkpt>
      <trkpt lat="45.412301" lon="7.029167">
        <ele>2688.915</ele>
        <time>2018-07-18T14:06:34Z</time>
      </trkpt>
      <trkpt lat="45.412248" lon="7.029148">
        <ele>2688.520</ele>
        <time>2018-07-18T14:06:40Z</time>
      </trkpt>
      <trkpt lat="45.412203" lon="7.029132">
        <ele>2688.244</ele>
        <time>2018-07-18T14:06:44Z</time>
      </trkpt>
      <trkpt lat="45.412156" lon="7.029116">
        <ele>2688.023</ele>
        <time>2018-07-18T14:06:48Z</time>
      </trkpt>
      <trkpt lat="45.412103" lon="7.029099">
        <ele>2687.957</ele>
        <time>2018-07-18T14:06:53Z</time>
      </trkpt>
      <trkpt lat="45.412055" lon="7.029078">
        <ele>2687.831</ele>
        <time>2018-07-18T14:06:58Z</time>
      </trkpt>
      <trkpt lat="45.412008" lon="7.029091">
        <ele>2689.459</ele>
        <time>2018-07-18T14:07:07Z</time>
      </trkpt>
      <trkpt lat="45.411958" lon="7.029064">
        <ele>2689.903</ele>
        <time>2018-07-18T14:07:14Z</time>
      </trkpt>
      <trkpt lat="45.411919" lon="7.029022">
        <ele>2689.823</ele>
        <time>2018-07-18T14:07:19Z</time>
      </trkpt>
      <trkpt lat="45.411876" lon="7.028991">
        <ele>2689.408</ele>
        <time>2018-07-18T14:07:24Z</time>
      </trkpt>
      <trkpt lat="45.411843" lon="7.028948">
        <ele>2689.147</ele>
        <time>2018-07-18T14:07:28Z</time>
      </trkpt>
      <trkpt lat="45.411815" lon="7.028896">
        <ele>2688.582</ele>
        <time>2018-07-18T14:07:33Z</time>
      </trkpt>
      <trkpt lat="45.411782" lon="7.028849">
        <ele>2688.287</ele>
        <time>2018-07-18T14:07:38Z</time>
      </trkpt>
      <trkpt lat="45.411747" lon="7.028796">
        <ele>2687.292</ele>
        <time>2018-07-18T14:07:44Z</time>
      </trkpt>
      <trkpt lat="45.411705" lon="7.028758">
        <ele>2685.486</ele>
        <time>2018-07-18T14:07:51Z</time>
      </trkpt>
      <trkpt lat="45.411663" lon="7.028730">
        <ele>2683.565</ele>
        <time>2018-07-18T14:07:57Z</time>
      </trkpt>
      <trkpt lat="45.411623" lon="7.028689">
        <ele>2682.029</ele>
        <time>2018-07-18T14:08:02Z</time>
      </trkpt>
      <trkpt lat="45.411582" lon="7.028651">
        <ele>2681.133</ele>
        <time>2018-07-18T14:08:08Z</time>
      </trkpt>
      <trkpt lat="45.411534" lon="7.028619">
        <ele>2679.737</ele>
        <time>2018-07-18T14:08:15Z</time>
      </trkpt>
      <trkpt lat="45.411492" lon="7.028597">
        <ele>2679.349</ele>
        <time>2018-07-18T14:08:19Z</time>
      </trkpt>
      <trkpt lat="45.411448" lon="7.028551">
        <ele>2679.113</ele>
        <time>2018-07-18T14:08:24Z</time>
      </trkpt>
      <trkpt lat="45.411405" lon="7.028503">
        <ele>2678.608</ele>
        <time>2018-07-18T14:08:29Z</time>
      </trkpt>
      <trkpt lat="45.411359" lon="7.028473">
        <ele>2677.975</ele>
        <time>2018-07-18T14:08:34Z</time>
      </trkpt>
      <trkpt lat="45.411310" lon="7.028447">
        <ele>2677.510</ele>
        <time>2018-07-18T14:08:40Z</time>
      </trkpt>
      <trkpt lat="45.411266" lon="7.028428">
        <ele>2676.855</ele>
        <time>2018-07-18T14:08:45Z</time>
      </trkpt>
      <trkpt lat="45.411216" lon="7.028430">
        <ele>2675.660</ele>
        <time>2018-07-18T14:08:52Z</time>
      </trkpt>
      <trkpt lat="45.411166" lon="7.028412">
        <ele>2674.154</ele>
        <time>2018-07-18T14:08:59Z</time>
      </trkpt>
      <trkpt lat="45.411115" lon="7.028394">
        <ele>2672.853</ele>
        <time>2018-07-18T14:09:05Z</time>
      </trkpt>
      <trkpt lat="45.411069" lon="7.028367">
        <ele>2672.037</ele>
        <time>2018-07-18T14:09:10Z</time>
      </trkpt>
      <trkpt lat="45.411027" lon="7.028335">
        <ele>2671.581</ele>
        <time>2018-07-18T14:09:14Z</time>
      </trkpt>
      <trkpt lat="45.410994" lon="7.028286">
        <ele>2670.037</ele>
        <time>2018-07-18T14:09:20Z</time>
      </trkpt>
      <trkpt lat="45.410981" lon="7.028220">
        <ele>2668.749</ele>
        <time>2018-07-18T14:09:26Z</time>
      </trkpt>
      <trkpt lat="45.410957" lon="7.028163">
        <ele>2667.513</ele>
        <time>2018-07-18T14:09:32Z</time>
      </trkpt>
      <trkpt lat="45.410920" lon="7.028117">
        <ele>2666.008</ele>
        <time>2018-07-18T14:09:38Z</time>
      </trkpt>
      <trkpt lat="45.410880" lon="7.028076">
        <ele>2665.525</ele>
        <time>2018-07-18T14:09:43Z</time>
      </trkpt>
      <trkpt lat="45.410843" lon="7.028037">
        <ele>2664.870</ele>
        <time>2018-07-18T14:09:50Z</time>
      </trkpt>
      <trkpt lat="45.410802" lon="7.028007">
        <ele>2664.025</ele>
        <time>2018-07-18T14:09:56Z</time>
      </trkpt>
      <trkpt lat="45.410757" lon="7.027984">
        <ele>2663.560</ele>
        <time>2018-07-18T14:10:02Z</time>
      </trkpt>
      <trkpt lat="45.410718" lon="7.027930">
        <ele>2663.274</ele>
        <time>2018-07-18T14:10:09Z</time>
      </trkpt>
      <trkpt lat="45.410689" lon="7.027873">
        <ele>2662.663</ele>
        <time>2018-07-18T14:10:14Z</time>
      </trkpt>
      <trkpt lat="45.410662" lon="7.027816">
        <ele>2662.357</ele>
        <time>2018-07-18T14:10:20Z</time>
      </trkpt>
      <trkpt lat="45.410627" lon="7.027770">
        <ele>2661.771</ele>
        <time>2018-07-18T14:10:25Z</time>
      </trkpt>
      <trkpt lat="45.410595" lon="7.027718">
        <ele>2661.384</ele>
        <time>2018-07-18T14:10:30Z</time>
      </trkpt>
      <trkpt lat="45.410560" lon="7.027668">
        <ele>2660.707</ele>
        <time>2018-07-18T14:10:36Z</time>
      </trkpt>
      <trkpt lat="45.410531" lon="7.027615">
        <ele>2659.517</ele>
        <time>2018-07-18T14:10:42Z</time>
      </trkpt>
      <trkpt lat="45.410491" lon="7.027566">
        <ele>2658.408</ele>
        <time>2018-07-18T14:10:48Z</time>
      </trkpt>
      <trkpt lat="45.410465" lon="7.027511">
        <ele>2656.570</ele>
        <time>2018-07-18T14:10:54Z</time>
      </trkpt>
      <trkpt lat="45.410435" lon="7.027447">
        <ele>2654.615</ele>
        <time>2018-07-18T14:11:00Z</time>
      </trkpt>
      <trkpt lat="45.410398" lon="7.027408">
        <ele>2653.410</ele>
        <time>2018-07-18T14:11:06Z</time>
      </trkpt>
      <trkpt lat="45.410355" lon="7.027389">
        <ele>2653.195</ele>
        <time>2018-07-18T14:11:12Z</time>
      </trkpt>
      <trkpt lat="45.410307" lon="7.027371">
        <ele>2652.169</ele>
        <time>2018-07-18T14:11:20Z</time>
      </trkpt>
      <trkpt lat="45.410252" lon="7.027363">
        <ele>2651.168</ele>
        <time>2018-07-18T14:11:27Z</time>
      </trkpt>
      <trkpt lat="45.410198" lon="7.027344">
        <ele>2650.552</ele>
        <time>2018-07-18T14:11:32Z</time>
      </trkpt>
      <trkpt lat="45.410151" lon="7.027333">
        <ele>2650.186</ele>
        <time>2018-07-18T14:11:37Z</time>
      </trkpt>
      <trkpt lat="45.410107" lon="7.027345">
        <ele>2648.329</ele>
        <time>2018-07-18T14:11:46Z</time>
      </trkpt>
      <trkpt lat="45.410069" lon="7.027379">
        <ele>2646.000</ele>
        <time>2018-07-18T14:11:55Z</time>
      </trkpt>
      <trkpt lat="45.410025" lon="7.027406">
        <ele>2643.820</ele>
        <time>2018-07-18T14:12:06Z</time>
      </trkpt>
      <trkpt lat="45.409977" lon="7.027426">
        <ele>2641.308</ele>
        <time>2018-07-18T14:12:15Z</time>
      </trkpt>
      <trkpt lat="45.409931" lon="7.027419">
        <ele>2639.424</ele>
        <time>2018-07-18T14:12:22Z</time>
      </trkpt>
      <trkpt lat="45.409886" lon="7.027422">
        <ele>2637.549</ele>
        <time>2018-07-18T14:12:29Z</time>
      </trkpt>
      <trkpt lat="45.409844" lon="7.027397">
        <ele>2635.994</ele>
        <time>2018-07-18T14:12:37Z</time>
      </trkpt>
      <trkpt lat="45.409793" lon="7.027398">
        <ele>2635.079</ele>
        <time>2018-07-18T14:12:45Z</time>
      </trkpt>
      <trkpt lat="45.409743" lon="7.027392">
        <ele>2634.483</ele>
        <time>2018-07-18T14:12:51Z</time>
      </trkpt>
      <trkpt lat="45.409694" lon="7.027384">
        <ele>2634.172</ele>
        <time>2018-07-18T14:12:56Z</time>
      </trkpt>
      <trkpt lat="45.409643" lon="7.027378">
        <ele>2633.956</ele>
        <time>2018-07-18T14:13:02Z</time>
      </trkpt>
      <trkpt lat="45.409597" lon="7.027361">
        <ele>2633.040</ele>
        <time>2018-07-18T14:13:08Z</time>
      </trkpt>
      <trkpt lat="45.409551" lon="7.027335">
        <ele>2632.495</ele>
        <time>2018-07-18T14:13:14Z</time>
      </trkpt>
      <trkpt lat="45.409506" lon="7.027317">
        <ele>2632.149</ele>
        <time>2018-07-18T14:13:20Z</time>
      </trkpt>
      <trkpt lat="45.409462" lon="7.027279">
        <ele>2631.923</ele>
        <time>2018-07-18T14:13:26Z</time>
      </trkpt>
      <trkpt lat="45.409412" lon="7.027276">
        <ele>2631.408</ele>
        <time>2018-07-18T14:13:32Z</time>
      </trkpt>
      <trkpt lat="45.409365" lon="7.027307">
        <ele>2630.321</ele>
        <time>2018-07-18T14:13:39Z</time>
      </trkpt>
      <trkpt lat="45.409322" lon="7.027329">
        <ele>2629.646</ele>
        <time>2018-07-18T14:13:45Z</time>
      </trkpt>
      <trkpt lat="45.409277" lon="7.027346">
        <ele>2628.491</ele>
        <time>2018-07-18T14:13:53Z</time>
      </trkpt>
      <trkpt lat="45.409227" lon="7.027369">
        <ele>2627.366</ele>
        <time>2018-07-18T14:13:59Z</time>
      </trkpt>
      <trkpt lat="45.409181" lon="7.027381">
        <ele>2626.270</ele>
        <time>2018-07-18T14:14:04Z</time>
      </trkpt>
      <trkpt lat="45.409131" lon="7.027393">
        <ele>2625.289</ele>
        <time>2018-07-18T14:14:09Z</time>
      </trkpt>
      <trkpt lat="45.409083" lon="7.027403">
        <ele>2625.073</ele>
        <time>2018-07-18T14:14:13Z</time>
      </trkpt>
      <trkpt lat="45.409029" lon="7.027417">
        <ele>2624.557</ele>
        <time>2018-07-18T14:14:18Z</time>
      </trkpt>
      <trkpt lat="45.408975" lon="7.027420">
        <ele>2624.242</ele>
        <time>2018-07-18T14:14:23Z</time>
      </trkpt>
      <trkpt lat="45.408927" lon="7.027427">
        <ele>2623.222</ele>
        <time>2018-07-18T14:14:28Z</time>
      </trkpt>
      <trkpt lat="45.408881" lon="7.027442">
        <ele>2623.014</ele>
        <time>2018-07-18T14:14:32Z</time>
      </trkpt>
      <trkpt lat="45.408836" lon="7.027452">
        <ele>2622.508</ele>
        <time>2018-07-18T14:14:36Z</time>
      </trkpt>
      <trkpt lat="45.408782" lon="7.027449">
        <ele>2622.256</ele>
        <time>2018-07-18T14:14:41Z</time>
      </trkpt>
      <trkpt lat="45.408731" lon="7.027457">
        <ele>2622.491</ele>
        <time>2018-07-18T14:14:46Z</time>
      </trkpt>
      <trkpt lat="45.408683" lon="7.027455">
        <ele>2622.166</ele>
        <time>2018-07-18T14:14:50Z</time>
      </trkpt>
      <trkpt lat="45.408635" lon="7.027453">
        <ele>2621.991</ele>
        <time>2018-07-18T14:14:54Z</time>
      </trkpt>
      <trkpt lat="45.408583" lon="7.027467">
        <ele>2621.475</ele>
        <time>2018-07-18T14:15:00Z</time>
      </trkpt>
      <trkpt lat="45.408537" lon="7.027464">
        <ele>2620.794</ele>
        <time>2018-07-18T14:15:07Z</time>
      </trkpt>
      <trkpt lat="45.408492" lon="7.027459">
        <ele>2619.968</ele>
        <time>2018-07-18T14:15:16Z</time>
      </trkpt>
      <trkpt lat="45.408444" lon="7.027456">
        <ele>2619.462</ele>
        <time>2018-07-18T14:15:22Z</time>
      </trkpt>
      <trkpt lat="45.408395" lon="7.027458">
        <ele>2618.781</ele>
        <time>2018-07-18T14:15:30Z</time>
      </trkpt>
      <trkpt lat="45.408346" lon="7.027455">
        <ele>2615.961</ele>
        <time>2018-07-18T14:15:44Z</time>
      </trkpt>
      <trkpt lat="45.408302" lon="7.027436">
        <ele>2613.417</ele>
        <time>2018-07-18T14:15:52Z</time>
      </trkpt>
      <trkpt lat="45.408250" lon="7.027435">
        <ele>2611.908</ele>
        <time>2018-07-18T14:16:01Z</time>
      </trkpt>
      <trkpt lat="45.408198" lon="7.027421">
        <ele>2610.610</ele>
        <time>2018-07-18T14:16:08Z</time>
      </trkpt>
      <trkpt lat="45.408154" lon="7.027406">
        <ele>2610.615</ele>
        <time>2018-07-18T14:16:13Z</time>
      </trkpt>
      <trkpt lat="45.408103" lon="7.027402">
        <ele>2610.290</ele>
        <time>2018-07-18T14:16:20Z</time>
      </trkpt>
      <trkpt lat="45.408054" lon="7.027406">
        <ele>2610.455</ele>
        <time>2018-07-18T14:16:26Z</time>
      </trkpt>
      <trkpt lat="45.408008" lon="7.027401">
        <ele>2610.599</ele>
        <time>2018-07-18T14:16:44Z</time>
      </trkpt>
      <trkpt lat="45.407964" lon="7.027424">
        <ele>2610.618</ele>
        <time>2018-07-18T14:16:53Z</time>
      </trkpt>
      <trkpt lat="45.407922" lon="7.027448">
        <ele>2609.832</ele>
        <time>2018-07-18T14:17:04Z</time>
      </trkpt>
      <trkpt lat="45.407874" lon="7.027457">
        <ele>2608.586</ele>
        <time>2018-07-18T14:17:18Z</time>
      </trkpt>
      <trkpt lat="45.407832" lon="7.027480">
        <ele>2607.359</ele>
        <time>2018-07-18T14:17:24Z</time>
      </trkpt>
      <trkpt lat="45.407788" lon="7.027507">
        <ele>2605.803</ele>
        <time>2018-07-18T14:17:29Z</time>
      </trkpt>
      <trkpt lat="45.407743" lon="7.027526">
        <ele>2604.923</ele>
        <time>2018-07-18T14:17:34Z</time>
      </trkpt>
      <trkpt lat="45.407693" lon="7.027528">
        <ele>2605.208</ele>
        <time>2018-07-18T14:17:40Z</time>
      </trkpt>
      <trkpt lat="45.407648" lon="7.027546">
        <ele>2605.467</ele>
        <time>2018-07-18T14:17:45Z</time>
      </trkpt>
      <trkpt lat="45.407600" lon="7.027563">
        <ele>2605.952</ele>
        <time>2018-07-18T14:17:50Z</time>
      </trkpt>
      <trkpt lat="45.407555" lon="7.027576">
        <ele>2605.477</ele>
        <time>2018-07-18T14:17:57Z</time>
      </trkpt>
      <trkpt lat="45.407522" lon="7.027622">
        <ele>2604.792</ele>
        <time>2018-07-18T14:18:04Z</time>
      </trkpt>
      <trkpt lat="45.407517" lon="7.027555">
        <ele>2604.326</ele>
        <time>2018-07-18T14:19:16Z</time>
      </trkpt>
      <trkpt lat="45.407483" lon="7.027509">
        <ele>2603.245</ele>
        <time>2018-07-18T14:19:22Z</time>
      </trkpt>
      <trkpt lat="45.407443" lon="7.027470">
        <ele>2601.839</ele>
        <time>2018-07-18T14:19:28Z</time>
      </trkpt>
      <trkpt lat="45.407396" lon="7.027440">
        <ele>2600.983</ele>
        <time>2018-07-18T14:19:36Z</time>
      </trkpt>
      <trkpt lat="45.407348" lon="7.027423">
        <ele>2599.641</ele>
        <time>2018-07-18T14:19:43Z</time>
      </trkpt>
      <trkpt lat="45.407301" lon="7.027411">
        <ele>2598.481</ele>
        <time>2018-07-18T14:19:48Z</time>
      </trkpt>
      <trkpt lat="45.407251" lon="7.027432">
        <ele>2597.309</ele>
        <time>2018-07-18T14:19:53Z</time>
      </trkpt>
      <trkpt lat="45.407208" lon="7.027461">
        <ele>2596.208</ele>
        <time>2018-07-18T14:19:58Z</time>
      </trkpt>
      <trkpt lat="45.407156" lon="7.027466">
        <ele>2595.626</ele>
        <time>2018-07-18T14:20:04Z</time>
      </trkpt>
      <trkpt lat="45.407111" lon="7.027485">
        <ele>2594.811</ele>
        <time>2018-07-18T14:20:10Z</time>
      </trkpt>
      <trkpt lat="45.407060" lon="7.027497">
        <ele>2593.986</ele>
        <time>2018-07-18T14:20:16Z</time>
      </trkpt>
      <trkpt lat="45.407013" lon="7.027472">
        <ele>2592.681</ele>
        <time>2018-07-18T14:20:22Z</time>
      </trkpt>
      <trkpt lat="45.406965" lon="7.027471">
        <ele>2591.045</ele>
        <time>2018-07-18T14:20:29Z</time>
      </trkpt>
      <trkpt lat="45.406915" lon="7.027488">
        <ele>2590.044</ele>
        <time>2018-07-18T14:20:34Z</time>
      </trkpt>
      <trkpt lat="45.406861" lon="7.027499">
        <ele>2589.028</ele>
        <time>2018-07-18T14:20:39Z</time>
      </trkpt>
      <trkpt lat="45.406806" lon="7.027509">
        <ele>2588.862</ele>
        <time>2018-07-18T14:20:44Z</time>
      </trkpt>
      <trkpt lat="45.406755" lon="7.027518">
        <ele>2588.737</ele>
        <time>2018-07-18T14:20:49Z</time>
      </trkpt>
      <trkpt lat="45.406706" lon="7.027521">
        <ele>2588.649</ele>
        <time>2018-07-18T14:20:54Z</time>
      </trkpt>
      <trkpt lat="45.406655" lon="7.027545">
        <ele>2588.213</ele>
        <time>2018-07-18T14:21:00Z</time>
      </trkpt>
      <trkpt lat="45.406611" lon="7.027583">
        <ele>2586.708</ele>
        <time>2018-07-18T14:21:06Z</time>
      </trkpt>
      <trkpt lat="45.406575" lon="7.027624">
        <ele>2587.475</ele>
        <time>2018-07-18T14:21:26Z</time>
      </trkpt>
      <trkpt lat="45.406531" lon="7.027649">
        <ele>2588.230</ele>
        <time>2018-07-18T14:21:54Z</time>
      </trkpt>
      <trkpt lat="45.406486" lon="7.027684">
        <ele>2584.715</ele>
        <time>2018-07-18T14:22:21Z</time>
      </trkpt>
      <trkpt lat="45.406438" lon="7.027720">
        <ele>2582.640</ele>
        <time>2018-07-18T14:22:31Z</time>
      </trkpt>
      <trkpt lat="45.406399" lon="7.027759">
        <ele>2581.334</ele>
        <time>2018-07-18T14:22:36Z</time>
      </trkpt>
      <trkpt lat="45.406357" lon="7.027808">
        <ele>2579.723</ele>
        <time>2018-07-18T14:22:41Z</time>
      </trkpt>
      <trkpt lat="45.406325" lon="7.027855">
        <ele>2578.867</ele>
        <time>2018-07-18T14:22:46Z</time>
      </trkpt>
      <trkpt lat="45.406287" lon="7.027903">
        <ele>2577.851</ele>
        <time>2018-07-18T14:22:51Z</time>
      </trkpt>
      <trkpt lat="45.406250" lon="7.027961">
        <ele>2576.821</ele>
        <time>2018-07-18T14:22:57Z</time>
      </trkpt>
      <trkpt lat="45.406227" lon="7.028018">
        <ele>2576.641</ele>
        <time>2018-07-18T14:23:02Z</time>
      </trkpt>
      <trkpt lat="45.406183" lon="7.028058">
        <ele>2576.105</ele>
        <time>2018-07-18T14:23:07Z</time>
      </trkpt>
      <trkpt lat="45.406134" lon="7.028077">
        <ele>2575.808</ele>
        <time>2018-07-18T14:23:12Z</time>
      </trkpt>
      <trkpt lat="45.406088" lon="7.028099">
        <ele>2574.864</ele>
        <time>2018-07-18T14:23:18Z</time>
      </trkpt>
      <trkpt lat="45.406058" lon="7.028158">
        <ele>2574.249</ele>
        <time>2018-07-18T14:23:24Z</time>
      </trkpt>
      <trkpt lat="45.406028" lon="7.028213">
        <ele>2573.464</ele>
        <time>2018-07-18T14:23:29Z</time>
      </trkpt>
      <trkpt lat="45.405996" lon="7.028264">
        <ele>2572.129</ele>
        <time>2018-07-18T14:23:35Z</time>
      </trkpt>
      <trkpt lat="45.405969" lon="7.028315">
        <ele>2571.353</ele>
        <time>2018-07-18T14:23:40Z</time>
      </trkpt>
      <trkpt lat="45.405948" lon="7.028372">
        <ele>2570.422</ele>
        <time>2018-07-18T14:23:46Z</time>
      </trkpt>
      <trkpt lat="45.405924" lon="7.028428">
        <ele>2569.526</ele>
        <time>2018-07-18T14:23:54Z</time>
      </trkpt>
      <trkpt lat="45.405911" lon="7.028492">
        <ele>2569.450</ele>
        <time>2018-07-18T14:24:00Z</time>
      </trkpt>
      <trkpt lat="45.405951" lon="7.028535">
        <ele>2569.342</ele>
        <time>2018-07-18T14:24:30Z</time>
      </trkpt>
      <trkpt lat="45.406001" lon="7.028524">
        <ele>2570.022</ele>
        <time>2018-07-18T14:25:06Z</time>
      </trkpt>
      <trkpt lat="45.406026" lon="7.028442">
        <ele>2570.414</ele>
        <time>2018-07-18T14:25:18Z</time>
      </trkpt>
      <trkpt lat="45.406022" lon="7.028370">
        <ele>2569.508</ele>
        <time>2018-07-18T14:25:34Z</time>
      </trkpt>
      <trkpt lat="45.406016" lon="7.028304">
        <ele>2568.996</ele>
        <time>2018-07-18T14:25:42Z</time>
      </trkpt>
      <trkpt lat="45.406029" lon="7.028240">
        <ele>2568.261</ele>
        <time>2018-07-18T14:25:51Z</time>
      </trkpt>
      <trkpt lat="45.406032" lon="7.028174">
        <ele>2568.626</ele>
        <time>2018-07-18T14:25:58Z</time>
      </trkpt>
      <trkpt lat="45.406062" lon="7.028124">
        <ele>2569.241</ele>
        <time>2018-07-18T14:26:05Z</time>
      </trkpt>
      <trkpt lat="45.406090" lon="7.028072">
        <ele>2570.045</ele>
        <time>2018-07-18T14:26:21Z</time>
      </trkpt>
      <trkpt lat="45.406083" lon="7.027998">
        <ele>2570.984</ele>
        <time>2018-07-18T14:26:29Z</time>
      </trkpt>
      <trkpt lat="45.406132" lon="7.028014">
        <ele>2571.848</ele>
        <time>2018-07-18T14:26:58Z</time>
      </trkpt>
      <trkpt lat="45.406175" lon="7.027990">
        <ele>2571.252</ele>
        <time>2018-07-18T14:27:02Z</time>
      </trkpt>
      <trkpt lat="45.406219" lon="7.027947">
        <ele>2570.861</ele>
        <time>2018-07-18T14:27:07Z</time>
      </trkpt>
      <trkpt lat="45.406258" lon="7.027914">
        <ele>2570.221</ele>
        <time>2018-07-18T14:27:12Z</time>
      </trkpt>
      <trkpt lat="45.406302" lon="7.027891">
        <ele>2569.413</ele>
        <time>2018-07-18T14:27:17Z</time>
      </trkpt>
      <trkpt lat="45.406345" lon="7.027862">
        <ele>2569.708</ele>
        <time>2018-07-18T14:27:23Z</time>
      </trkpt>
      <trkpt lat="45.406360" lon="7.027799">
        <ele>2570.728</ele>
        <time>2018-07-18T14:27:29Z</time>
      </trkpt>
      <trkpt lat="45.406340" lon="7.027727">
        <ele>2572.523</ele>
        <time>2018-07-18T14:27:43Z</time>
      </trkpt>
      <trkpt lat="45.406317" lon="7.027668">
        <ele>2573.648</ele>
        <time>2018-07-18T14:27:51Z</time>
      </trkpt>
      <trkpt lat="45.406293" lon="7.027612">
        <ele>2574.683</ele>
        <time>2018-07-18T14:27:57Z</time>
      </trkpt>
      <trkpt lat="45.406277" lon="7.027549">
        <ele>2575.697</ele>
        <time>2018-07-18T14:28:02Z</time>
      </trkpt>
      <trkpt lat="45.406252" lon="7.027495">
        <ele>2576.616</ele>
        <time>2018-07-18T14:28:08Z</time>
      </trkpt>
      <trkpt lat="45.406222" lon="7.027445">
        <ele>2578.430</ele>
        <time>2018-07-18T14:28:14Z</time>
      </trkpt>
      <trkpt lat="45.406169" lon="7.027459">
        <ele>2578.364</ele>
        <time>2018-07-18T14:28:24Z</time>
      </trkpt>
      <trkpt lat="45.406120" lon="7.027464">
        <ele>2578.648</ele>
        <time>2018-07-18T14:28:32Z</time>
      </trkpt>
      <trkpt lat="45.406070" lon="7.027441">
        <ele>2579.261</ele>
        <time>2018-07-18T14:28:37Z</time>
      </trkpt>
      <trkpt lat="45.406036" lon="7.027395">
        <ele>2580.417</ele>
        <time>2018-07-18T14:28:45Z</time>
      </trkpt>
      <trkpt lat="45.406012" lon="7.027335">
        <ele>2581.108</ele>
        <time>2018-07-18T14:28:52Z</time>
      </trkpt>
      <trkpt lat="45.405976" lon="7.027290">
        <ele>2583.126</ele>
        <time>2018-07-18T14:28:58Z</time>
      </trkpt>
      <trkpt lat="45.405956" lon="7.027224">
        <ele>2583.151</ele>
        <time>2018-07-18T14:29:35Z</time>
      </trkpt>
      <trkpt lat="45.405927" lon="7.027152">
        <ele>2585.176</ele>
        <time>2018-07-18T14:30:04Z</time>
      </trkpt>
      <trkpt lat="45.405933" lon="7.027087">
        <ele>2584.761</ele>
        <time>2018-07-18T14:30:42Z</time>
      </trkpt>
      <trkpt lat="45.405910" lon="7.027030">
        <ele>2585.755</ele>
        <time>2018-07-18T14:30:48Z</time>
      </trkpt>
      <trkpt lat="45.405893" lon="7.026964">
        <ele>2586.744</ele>
        <time>2018-07-18T14:30:55Z</time>
      </trkpt>
      <trkpt lat="45.405866" lon="7.026909">
        <ele>2586.938</ele>
        <time>2018-07-18T14:31:05Z</time>
      </trkpt>
      <trkpt lat="45.405890" lon="7.026846">
        <ele>2587.432</ele>
        <time>2018-07-18T14:31:16Z</time>
      </trkpt>
      <trkpt lat="45.405867" lon="7.026783">
        <ele>2588.989</ele>
        <time>2018-07-18T14:31:23Z</time>
      </trkpt>
      <trkpt lat="45.405838" lon="7.026724">
        <ele>2591.006</ele>
        <time>2018-07-18T14:31:29Z</time>
      </trkpt>
      <trkpt lat="45.405782" lon="7.026693">
        <ele>2593.926</ele>
        <time>2018-07-18T14:31:47Z</time>
      </trkpt>
      <trkpt lat="45.405775" lon="7.026622">
        <ele>2595.208</ele>
        <time>2018-07-18T14:32:16Z</time>
      </trkpt>
      <trkpt lat="45.405754" lon="7.026560">
        <ele>2596.880</ele>
        <time>2018-07-18T14:32:25Z</time>
      </trkpt>
      <trkpt lat="45.405716" lon="7.026518">
        <ele>2597.865</ele>
        <time>2018-07-18T14:32:36Z</time>
      </trkpt>
      <trkpt lat="45.405763" lon="7.026487">
        <ele>2600.070</ele>
        <time>2018-07-18T14:33:28Z</time>
      </trkpt>
      <trkpt lat="45.405786" lon="7.026545">
        <ele>2600.535</ele>
        <time>2018-07-18T14:33:38Z</time>
      </trkpt>
      <trkpt lat="45.405801" lon="7.026609">
        <ele>2599.239</ele>
        <time>2018-07-18T14:33:46Z</time>
      </trkpt>
      <trkpt lat="45.405824" lon="7.026666">
        <ele>2597.238</ele>
        <time>2018-07-18T14:33:52Z</time>
      </trkpt>
      <trkpt lat="45.405828" lon="7.026734">
        <ele>2594.892</ele>
        <time>2018-07-18T14:34:02Z</time>
      </trkpt>
      <trkpt lat="45.405853" lon="7.026792">
        <ele>2593.416</ele>
        <time>2018-07-18T14:34:07Z</time>
      </trkpt>
      <trkpt lat="45.405886" lon="7.026847">
        <ele>2591.741</ele>
        <time>2018-07-18T14:34:12Z</time>
      </trkpt>
      <trkpt lat="45.405910" lon="7.026906">
        <ele>2590.781</ele>
        <time>2018-07-18T14:34:17Z</time>
      </trkpt>
      <trkpt lat="45.405944" lon="7.026951">
        <ele>2589.709</ele>
        <time>2018-07-18T14:34:21Z</time>
      </trkpt>
      <trkpt lat="45.405984" lon="7.026998">
        <ele>2589.108</ele>
        <time>2018-07-18T14:34:25Z</time>
      </trkpt>
      <trkpt lat="45.406023" lon="7.027047">
        <ele>2588.386</ele>
        <time>2018-07-18T14:34:29Z</time>
      </trkpt>
      <trkpt lat="45.406058" lon="7.027100">
        <ele>2587.411</ele>
        <time>2018-07-18T14:34:34Z</time>
      </trkpt>
      <trkpt lat="45.406101" lon="7.027153">
        <ele>2587.356</ele>
        <time>2018-07-18T14:34:39Z</time>
      </trkpt>
      <trkpt lat="45.406143" lon="7.027196">
        <ele>2587.231</ele>
        <time>2018-07-18T14:34:43Z</time>
      </trkpt>
      <trkpt lat="45.406180" lon="7.027242">
        <ele>2586.065</ele>
        <time>2018-07-18T14:34:48Z</time>
      </trkpt>
      <trkpt lat="45.406222" lon="7.027269">
        <ele>2584.984</ele>
        <time>2018-07-18T14:34:53Z</time>
      </trkpt>
      <trkpt lat="45.406272" lon="7.027305">
        <ele>2585.058</ele>
        <time>2018-07-18T14:34:58Z</time>
      </trkpt>
      <trkpt lat="45.406300" lon="7.027357">
        <ele>2584.342</ele>
        <time>2018-07-18T14:35:03Z</time>
      </trkpt>
      <trkpt lat="45.406340" lon="7.027409">
        <ele>2583.143</ele>
        <time>2018-07-18T14:35:09Z</time>
      </trkpt>
      <trkpt lat="45.406387" lon="7.027436">
        <ele>2583.264</ele>
        <time>2018-07-18T14:35:13Z</time>
      </trkpt>
      <trkpt lat="45.406431" lon="7.027452">
        <ele>2583.210</ele>
        <time>2018-07-18T14:35:17Z</time>
      </trkpt>
      <trkpt lat="45.406486" lon="7.027464">
        <ele>2583.608</ele>
        <time>2018-07-18T14:35:21Z</time>
      </trkpt>
      <trkpt lat="45.406533" lon="7.027483">
        <ele>2583.576</ele>
        <time>2018-07-18T14:35:24Z</time>
      </trkpt>
      <trkpt lat="45.406582" lon="7.027503">
        <ele>2583.461</ele>
        <time>2018-07-18T14:35:29Z</time>
      </trkpt>
      <trkpt lat="45.406520" lon="7.027519">
        <ele>2582.176</ele>
        <time>2018-07-18T14:36:03Z</time>
      </trkpt>
      <trkpt lat="45.406500" lon="7.027577">
        <ele>2580.181</ele>
        <time>2018-07-18T14:36:11Z</time>
      </trkpt>
      <trkpt lat="45.406470" lon="7.027643">
        <ele>2578.155</ele>
        <time>2018-07-18T14:36:16Z</time>
      </trkpt>
      <trkpt lat="45.406444" lon="7.027701">
        <ele>2576.954</ele>
        <time>2018-07-18T14:36:20Z</time>
      </trkpt>
      <trkpt lat="45.406409" lon="7.027750">
        <ele>2576.258</ele>
        <time>2018-07-18T14:36:24Z</time>
      </trkpt>
      <trkpt lat="45.406378" lon="7.027798">
        <ele>2575.852</ele>
        <time>2018-07-18T14:36:28Z</time>
      </trkpt>
      <trkpt lat="45.406344" lon="7.027843">
        <ele>2575.114</ele>
        <time>2018-07-18T14:36:32Z</time>
      </trkpt>
      <trkpt lat="45.406310" lon="7.027892">
        <ele>2575.154</ele>
        <time>2018-07-18T14:36:37Z</time>
      </trkpt>
      <trkpt lat="45.406276" lon="7.027950">
        <ele>2575.109</ele>
        <time>2018-07-18T14:36:42Z</time>
      </trkpt>
      <trkpt lat="45.406244" lon="7.027996">
        <ele>2574.708</ele>
        <time>2018-07-18T14:36:46Z</time>
      </trkpt>
      <trkpt lat="45.406199" lon="7.028041">
        <ele>2574.583</ele>
        <time>2018-07-18T14:36:51Z</time>
      </trkpt>
      <trkpt lat="45.406152" lon="7.028069">
        <ele>2574.848</ele>
        <time>2018-07-18T14:36:58Z</time>
      </trkpt>
      <trkpt lat="45.406098" lon="7.028065">
        <ele>2574.673</ele>
        <time>2018-07-18T14:37:07Z</time>
      </trkpt>
      <trkpt lat="45.406047" lon="7.028067">
        <ele>2575.378</ele>
        <time>2018-07-18T14:37:18Z</time>
      </trkpt>
      <trkpt lat="45.406008" lon="7.028103">
        <ele>2575.332</ele>
        <time>2018-07-18T14:37:24Z</time>
      </trkpt>
      <trkpt lat="45.406056" lon="7.028053">
        <ele>2574.931</ele>
        <time>2018-07-18T14:37:54Z</time>
      </trkpt>
      <trkpt lat="45.406097" lon="7.027991">
        <ele>2575.115</ele>
        <time>2018-07-18T14:38:05Z</time>
      </trkpt>
      <trkpt lat="45.406071" lon="7.028051">
        <ele>2576.039</ele>
        <time>2018-07-18T14:38:47Z</time>
      </trkpt>
      <trkpt lat="45.406034" lon="7.028092">
        <ele>2577.758</ele>
        <time>2018-07-18T14:39:09Z</time>
      </trkpt>
      <trkpt lat="45.406062" lon="7.028037">
        <ele>2577.552</ele>
        <time>2018-07-18T14:39:44Z</time>
      </trkpt>
      <trkpt lat="45.406075" lon="7.027969">
        <ele>2576.617</ele>
        <time>2018-07-18T14:39:51Z</time>
      </trkpt>
      <trkpt lat="45.406062" lon="7.028041">
        <ele>2576.108</ele>
        <time>2018-07-18T14:40:16Z</time>
      </trkpt>
      <trkpt lat="45.406046" lon="7.028104">
        <ele>2575.447</ele>
        <time>2018-07-18T14:40:20Z</time>
      </trkpt>
      <trkpt lat="45.406012" lon="7.028167">
        <ele>2575.012</ele>
        <time>2018-07-18T14:40:25Z</time>
      </trkpt>
      <trkpt lat="45.405979" lon="7.028223">
        <ele>2574.727</ele>
        <time>2018-07-18T14:40:31Z</time>
      </trkpt>
      <trkpt lat="45.405951" lon="7.028275">
        <ele>2574.192</ele>
        <time>2018-07-18T14:40:36Z</time>
      </trkpt>
      <trkpt lat="45.405925" lon="7.028332">
        <ele>2573.416</ele>
        <time>2018-07-18T14:40:44Z</time>
      </trkpt>
      <trkpt lat="45.405904" lon="7.028395">
        <ele>2573.015</ele>
        <time>2018-07-18T14:40:53Z</time>
      </trkpt>
      <trkpt lat="45.405879" lon="7.028457">
        <ele>2572.739</ele>
        <time>2018-07-18T14:40:59Z</time>
      </trkpt>
      <trkpt lat="45.405846" lon="7.028502">
        <ele>2572.133</ele>
        <time>2018-07-18T14:41:05Z</time>
      </trkpt>
      <trkpt lat="45.405817" lon="7.028557">
        <ele>2571.828</ele>
        <time>2018-07-18T14:41:12Z</time>
      </trkpt>
      <trkpt lat="45.405797" lon="7.028621">
        <ele>2572.089</ele>
        <time>2018-07-18T14:41:19Z</time>
      </trkpt>
      <trkpt lat="45.405754" lon="7.028656">
        <ele>2572.517</ele>
        <time>2018-07-18T14:41:26Z</time>
      </trkpt>
      <trkpt lat="45.405710" lon="7.028622">
        <ele>2573.608</ele>
        <time>2018-07-18T14:41:32Z</time>
      </trkpt>
      <trkpt lat="45.405661" lon="7.028605">
        <ele>2574.714</ele>
        <time>2018-07-18T14:41:38Z</time>
      </trkpt>
      <trkpt lat="45.405616" lon="7.028609">
        <ele>2576.149</ele>
        <time>2018-07-18T14:41:44Z</time>
      </trkpt>
      <trkpt lat="45.405572" lon="7.028644">
        <ele>2577.014</ele>
        <time>2018-07-18T14:41:52Z</time>
      </trkpt>
      <trkpt lat="45.405539" lon="7.028692">
        <ele>2577.959</ele>
        <time>2018-07-18T14:41:58Z</time>
      </trkpt>
      <trkpt lat="45.405502" lon="7.028736">
        <ele>2578.553</ele>
        <time>2018-07-18T14:42:05Z</time>
      </trkpt>
      <trkpt lat="45.405454" lon="7.028727">
        <ele>2577.682</ele>
        <time>2018-07-18T14:42:13Z</time>
      </trkpt>
      <trkpt lat="45.405419" lon="7.028680">
        <ele>2576.376</ele>
        <time>2018-07-18T14:42:18Z</time>
      </trkpt>
      <trkpt lat="45.405378" lon="7.028645">
        <ele>2577.190</ele>
        <time>2018-07-18T14:42:24Z</time>
      </trkpt>
      <trkpt lat="45.405334" lon="7.028618">
        <ele>2578.411</ele>
        <time>2018-07-18T14:43:22Z</time>
      </trkpt>
      <trkpt lat="45.405287" lon="7.028611">
        <ele>2578.421</ele>
        <time>2018-07-18T14:43:29Z</time>
      </trkpt>
      <trkpt lat="45.405248" lon="7.028569">
        <ele>2576.403</ele>
        <time>2018-07-18T14:43:36Z</time>
      </trkpt>
      <trkpt lat="45.405203" lon="7.028561">
        <ele>2575.608</ele>
        <time>2018-07-18T14:43:55Z</time>
      </trkpt>
      <trkpt lat="45.405157" lon="7.028569">
        <ele>2575.523</ele>
        <time>2018-07-18T14:44:04Z</time>
      </trkpt>
      <trkpt lat="45.405109" lon="7.028585">
        <ele>2576.648</ele>
        <time>2018-07-18T14:44:12Z</time>
      </trkpt>
      <trkpt lat="45.405090" lon="7.028648">
        <ele>2576.983</ele>
        <time>2018-07-18T14:44:22Z</time>
      </trkpt>
      <trkpt lat="45.405129" lon="7.028681">
        <ele>2576.328</ele>
        <time>2018-07-18T14:44:27Z</time>
      </trkpt>
      <trkpt lat="45.405157" lon="7.028747">
        <ele>2576.362</ele>
        <time>2018-07-18T14:44:32Z</time>
      </trkpt>
      <trkpt lat="45.405152" lon="7.028813">
        <ele>2576.381</ele>
        <time>2018-07-18T14:44:37Z</time>
      </trkpt>
      <trkpt lat="45.405132" lon="7.028874">
        <ele>2576.775</ele>
        <time>2018-07-18T14:44:43Z</time>
      </trkpt>
      <trkpt lat="45.405095" lon="7.028930">
        <ele>2576.919</ele>
        <time>2018-07-18T14:44:49Z</time>
      </trkpt>
      <trkpt lat="45.405075" lon="7.028993">
        <ele>2578.216</ele>
        <time>2018-07-18T14:45:00Z</time>
      </trkpt>
      <trkpt lat="45.405064" lon="7.029061">
        <ele>2577.876</ele>
        <time>2018-07-18T14:45:08Z</time>
      </trkpt>
      <trkpt lat="45.405062" lon="7.029130">
        <ele>2577.613</ele>
        <time>2018-07-18T14:45:16Z</time>
      </trkpt>
      <trkpt lat="45.405079" lon="7.029194">
        <ele>2575.508</ele>
        <time>2018-07-18T14:46:08Z</time>
      </trkpt>
      <trkpt lat="45.405097" lon="7.029262">
        <ele>2573.863</ele>
        <time>2018-07-18T14:46:14Z</time>
      </trkpt>
      <trkpt lat="45.405122" lon="7.029326">
        <ele>2572.848</ele>
        <time>2018-07-18T14:46:19Z</time>
      </trkpt>
      <trkpt lat="45.405138" lon="7.029400">
        <ele>2572.633</ele>
        <time>2018-07-18T14:46:24Z</time>
      </trkpt>
      <trkpt lat="45.405122" lon="7.029476">
        <ele>2572.198</ele>
        <time>2018-07-18T14:46:51Z</time>
      </trkpt>
      <trkpt lat="45.405143" lon="7.029547">
        <ele>2571.082</ele>
        <time>2018-07-18T14:47:09Z</time>
      </trkpt>
      <trkpt lat="45.405123" lon="7.029612">
        <ele>2568.711</ele>
        <time>2018-07-18T14:47:36Z</time>
      </trkpt>
      <trkpt lat="45.405103" lon="7.029671">
        <ele>2566.975</ele>
        <time>2018-07-18T14:47:43Z</time>
      </trkpt>
      <trkpt lat="45.405068" lon="7.029724">
        <ele>2565.459</ele>
        <time>2018-07-18T14:47:48Z</time>
      </trkpt>
      <trkpt lat="45.405029" lon="7.029770">
        <ele>2564.542</ele>
        <time>2018-07-18T14:47:54Z</time>
      </trkpt>
      <trkpt lat="45.404983" lon="7.029791">
        <ele>2563.222</ele>
        <time>2018-07-18T14:48:11Z</time>
      </trkpt>
      <trkpt lat="45.404939" lon="7.029813">
        <ele>2563.214</ele>
        <time>2018-07-18T14:48:30Z</time>
      </trkpt>
      <trkpt lat="45.404899" lon="7.029855">
        <ele>2562.808</ele>
        <time>2018-07-18T14:48:39Z</time>
      </trkpt>
      <trkpt lat="45.404882" lon="7.029922">
        <ele>2561.876</ele>
        <time>2018-07-18T14:48:47Z</time>
      </trkpt>
      <trkpt lat="45.404849" lon="7.029969">
        <ele>2562.081</ele>
        <time>2018-07-18T14:48:53Z</time>
      </trkpt>
      <trkpt lat="45.404801" lon="7.029985">
        <ele>2562.986</ele>
        <time>2018-07-18T14:49:00Z</time>
      </trkpt>
      <trkpt lat="45.404772" lon="7.030037">
        <ele>2563.831</ele>
        <time>2018-07-18T14:49:11Z</time>
      </trkpt>
      <trkpt lat="45.404761" lon="7.030099">
        <ele>2562.825</ele>
        <time>2018-07-18T14:49:16Z</time>
      </trkpt>
      <trkpt lat="45.404732" lon="7.030152">
        <ele>2562.274</ele>
        <time>2018-07-18T14:49:21Z</time>
      </trkpt>
      <trkpt lat="45.404704" lon="7.030203">
        <ele>2563.878</ele>
        <time>2018-07-18T14:49:35Z</time>
      </trkpt>
      <trkpt lat="45.404679" lon="7.030263">
        <ele>2565.682</ele>
        <time>2018-07-18T14:49:44Z</time>
      </trkpt>
      <trkpt lat="45.404661" lon="7.030328">
        <ele>2565.524</ele>
        <time>2018-07-18T14:49:52Z</time>
      </trkpt>
      <trkpt lat="45.404638" lon="7.030385">
        <ele>2564.604</ele>
        <time>2018-07-18T14:50:11Z</time>
      </trkpt>
      <trkpt lat="45.404646" lon="7.030457">
        <ele>2562.914</ele>
        <time>2018-07-18T14:50:20Z</time>
      </trkpt>
      <trkpt lat="45.404647" lon="7.030529">
        <ele>2561.508</ele>
        <time>2018-07-18T14:50:26Z</time>
      </trkpt>
      <trkpt lat="45.404642" lon="7.030597">
        <ele>2560.284</ele>
        <time>2018-07-18T14:50:30Z</time>
      </trkpt>
      <trkpt lat="45.404636" lon="7.030662">
        <ele>2559.049</ele>
        <time>2018-07-18T14:50:34Z</time>
      </trkpt>
      <trkpt lat="45.404629" lon="7.030727">
        <ele>2558.334</ele>
        <time>2018-07-18T14:50:38Z</time>
      </trkpt>
      <trkpt lat="45.404626" lon="7.030798">
        <ele>2557.189</ele>
        <time>2018-07-18T14:50:43Z</time>
      </trkpt>
      <trkpt lat="45.404624" lon="7.030871">
        <ele>2556.093</ele>
        <time>2018-07-18T14:50:48Z</time>
      </trkpt>
      <trkpt lat="45.404616" lon="7.030948">
        <ele>2554.982</ele>
        <time>2018-07-18T14:50:53Z</time>
      </trkpt>
      <trkpt lat="45.404620" lon="7.031013">
        <ele>2553.516</ele>
        <time>2018-07-18T14:50:58Z</time>
      </trkpt>
      <trkpt lat="45.404614" lon="7.031081">
        <ele>2552.270</ele>
        <time>2018-07-18T14:51:03Z</time>
      </trkpt>
      <trkpt lat="45.404598" lon="7.031158">
        <ele>2551.423</ele>
        <time>2018-07-18T14:51:08Z</time>
      </trkpt>
      <trkpt lat="45.404570" lon="7.031212">
        <ele>2550.983</ele>
        <time>2018-07-18T14:51:12Z</time>
      </trkpt>
      <trkpt lat="45.404532" lon="7.031265">
        <ele>2550.211</ele>
        <time>2018-07-18T14:51:17Z</time>
      </trkpt>
      <trkpt lat="45.404501" lon="7.031314">
        <ele>2549.408</ele>
        <time>2018-07-18T14:51:22Z</time>
      </trkpt>
      <trkpt lat="45.404468" lon="7.031371">
        <ele>2549.354</ele>
        <time>2018-07-18T14:51:27Z</time>
      </trkpt>
      <trkpt lat="45.404432" lon="7.031416">
        <ele>2548.919</ele>
        <time>2018-07-18T14:51:32Z</time>
      </trkpt>
      <trkpt lat="45.404393" lon="7.031451">
        <ele>2548.254</ele>
        <time>2018-07-18T14:51:39Z</time>
      </trkpt>
      <trkpt lat="45.404352" lon="7.031478">
        <ele>2547.489</ele>
        <time>2018-07-18T14:51:47Z</time>
      </trkpt>
      <trkpt lat="45.404309" lon="7.031517">
        <ele>2546.593</ele>
        <time>2018-07-18T14:51:58Z</time>
      </trkpt>
      <trkpt lat="45.404264" lon="7.031524">
        <ele>2544.822</ele>
        <time>2018-07-18T14:52:12Z</time>
      </trkpt>
      <trkpt lat="45.404221" lon="7.031544">
        <ele>2543.496</ele>
        <time>2018-07-18T14:52:21Z</time>
      </trkpt>
      <trkpt lat="45.404175" lon="7.031532">
        <ele>2542.160</ele>
        <time>2018-07-18T14:52:29Z</time>
      </trkpt>
      <trkpt lat="45.404129" lon="7.031536">
        <ele>2539.775</ele>
        <time>2018-07-18T14:52:47Z</time>
      </trkpt>
      <trkpt lat="45.404087" lon="7.031562">
        <ele>2537.528</ele>
        <time>2018-07-18T14:52:57Z</time>
      </trkpt>
      <trkpt lat="45.404041" lon="7.031589">
        <ele>2536.620</ele>
        <time>2018-07-18T14:53:05Z</time>
      </trkpt>
      <trkpt lat="45.403996" lon="7.031584">
        <ele>2535.608</ele>
        <time>2018-07-18T14:53:12Z</time>
      </trkpt>
      <trkpt lat="45.403950" lon="7.031573">
        <ele>2534.259</ele>
        <time>2018-07-18T14:53:20Z</time>
      </trkpt>
      <trkpt lat="45.403907" lon="7.031594">
        <ele>2532.634</ele>
        <time>2018-07-18T14:53:28Z</time>
      </trkpt>
      <trkpt lat="45.403865" lon="7.031627">
        <ele>2531.659</ele>
        <time>2018-07-18T14:53:36Z</time>
      </trkpt>
      <trkpt lat="45.403820" lon="7.031658">
        <ele>2530.264</ele>
        <time>2018-07-18T14:53:51Z</time>
      </trkpt>
      <trkpt lat="45.403774" lon="7.031664">
        <ele>2528.668</ele>
        <time>2018-07-18T14:54:03Z</time>
      </trkpt>
      <trkpt lat="45.403730" lon="7.031696">
        <ele>2526.867</ele>
        <time>2018-07-18T14:54:17Z</time>
      </trkpt>
      <trkpt lat="45.403683" lon="7.031724">
        <ele>2525.361</ele>
        <time>2018-07-18T14:54:24Z</time>
      </trkpt>
      <trkpt lat="45.403633" lon="7.031753">
        <ele>2524.035</ele>
        <time>2018-07-18T14:54:30Z</time>
      </trkpt>
      <trkpt lat="45.403582" lon="7.031772">
        <ele>2522.856</ele>
        <time>2018-07-18T14:54:35Z</time>
      </trkpt>
      <trkpt lat="45.403532" lon="7.031781">
        <ele>2521.759</ele>
        <time>2018-07-18T14:54:40Z</time>
      </trkpt>
      <trkpt lat="45.403489" lon="7.031801">
        <ele>2520.614</ele>
        <time>2018-07-18T14:54:45Z</time>
      </trkpt>
      <trkpt lat="45.403439" lon="7.031825">
        <ele>2519.208</ele>
        <time>2018-07-18T14:54:50Z</time>
      </trkpt>
      <trkpt lat="45.403388" lon="7.031844">
        <ele>2517.927</ele>
        <time>2018-07-18T14:54:55Z</time>
      </trkpt>
      <trkpt lat="45.403334" lon="7.031853">
        <ele>2516.752</ele>
        <time>2018-07-18T14:55:00Z</time>
      </trkpt>
      <trkpt lat="45.403281" lon="7.031862">
        <ele>2515.617</ele>
        <time>2018-07-18T14:55:05Z</time>
      </trkpt>
      <trkpt lat="45.403227" lon="7.031888">
        <ele>2515.382</ele>
        <time>2018-07-18T14:55:14Z</time>
      </trkpt>
      <trkpt lat="45.403178" lon="7.031907">
        <ele>2515.116</ele>
        <time>2018-07-18T14:55:22Z</time>
      </trkpt>
      <trkpt lat="45.403129" lon="7.031923">
        <ele>2514.295</ele>
        <time>2018-07-18T14:55:29Z</time>
      </trkpt>
      <trkpt lat="45.403080" lon="7.031947">
        <ele>2512.959</ele>
        <time>2018-07-18T14:55:36Z</time>
      </trkpt>
      <trkpt lat="45.403035" lon="7.031977">
        <ele>2511.713</ele>
        <time>2018-07-18T14:55:41Z</time>
      </trkpt>
      <trkpt lat="45.402984" lon="7.032012">
        <ele>2511.464</ele>
        <time>2018-07-18T14:55:46Z</time>
      </trkpt>
      <trkpt lat="45.402936" lon="7.032038">
        <ele>2511.606</ele>
        <time>2018-07-18T14:55:51Z</time>
      </trkpt>
      <trkpt lat="45.402888" lon="7.032048">
        <ele>2511.716</ele>
        <time>2018-07-18T14:55:56Z</time>
      </trkpt>
      <trkpt lat="45.402837" lon="7.032064">
        <ele>2511.808</ele>
        <time>2018-07-18T14:56:02Z</time>
      </trkpt>
      <trkpt lat="45.402795" lon="7.032107">
        <ele>2512.648</ele>
        <time>2018-07-18T14:56:08Z</time>
      </trkpt>
      <trkpt lat="45.402759" lon="7.032152">
        <ele>2513.583</ele>
        <time>2018-07-18T14:56:14Z</time>
      </trkpt>
      <trkpt lat="45.402713" lon="7.032161">
        <ele>2514.448</ele>
        <time>2018-07-18T14:56:19Z</time>
      </trkpt>
      <trkpt lat="45.402674" lon="7.032208">
        <ele>2515.843</ele>
        <time>2018-07-18T14:56:25Z</time>
      </trkpt>
      <trkpt lat="45.402644" lon="7.032256">
        <ele>2517.047</ele>
        <time>2018-07-18T14:56:32Z</time>
      </trkpt>
      <trkpt lat="45.402614" lon="7.032310">
        <ele>2517.746</ele>
        <time>2018-07-18T14:56:40Z</time>
      </trkpt>
      <trkpt lat="45.402588" lon="7.032366">
        <ele>2518.520</ele>
        <time>2018-07-18T14:56:46Z</time>
      </trkpt>
      <trkpt lat="45.402557" lon="7.032422">
        <ele>2519.894</ele>
        <time>2018-07-18T14:56:52Z</time>
      </trkpt>
      <trkpt lat="45.402524" lon="7.032474">
        <ele>2520.618</ele>
        <time>2018-07-18T14:56:58Z</time>
      </trkpt>
      <trkpt lat="45.402485" lon="7.032514">
        <ele>2521.998</ele>
        <time>2018-07-18T14:57:04Z</time>
      </trkpt>
      <trkpt lat="45.402440" lon="7.032549">
        <ele>2523.917</ele>
        <time>2018-07-18T14:57:10Z</time>
      </trkpt>
      <trkpt lat="45.402399" lon="7.032600">
        <ele>2525.108</ele>
        <time>2018-07-18T14:57:15Z</time>
      </trkpt>
      <trkpt lat="45.402370" lon="7.032659">
        <ele>2525.463</ele>
        <time>2018-07-18T14:57:20Z</time>
      </trkpt>
      <trkpt lat="45.402396" lon="7.032606">
        <ele>2521.468</ele>
        <time>2018-07-18T14:57:48Z</time>
      </trkpt>
      <trkpt lat="45.402367" lon="7.032671">
        <ele>2517.433</ele>
        <time>2018-07-18T14:57:54Z</time>
      </trkpt>
      <trkpt lat="45.402330" lon="7.032732">
        <ele>2513.668</ele>
        <time>2018-07-18T14:57:58Z</time>
      </trkpt>
      <trkpt lat="45.402295" lon="7.032792">
        <ele>2511.742</ele>
        <time>2018-07-18T14:58:02Z</time>
      </trkpt>
      <trkpt lat="45.402264" lon="7.032845">
        <ele>2510.671</ele>
        <time>2018-07-18T14:58:06Z</time>
      </trkpt>
      <trkpt lat="45.402227" lon="7.032901">
        <ele>2509.945</ele>
        <time>2018-07-18T14:58:10Z</time>
      </trkpt>
      <trkpt lat="45.402187" lon="7.032951">
        <ele>2509.949</ele>
        <time>2018-07-18T14:58:14Z</time>
      </trkpt>
      <trkpt lat="45.402146" lon="7.033000">
        <ele>2509.935</ele>
        <time>2018-07-18T14:58:18Z</time>
      </trkpt>
      <trkpt lat="45.402114" lon="7.033060">
        <ele>2509.986</ele>
        <time>2018-07-18T14:58:22Z</time>
      </trkpt>
      <trkpt lat="45.402099" lon="7.033130">
        <ele>2509.914</ele>
        <time>2018-07-18T14:58:27Z</time>
      </trkpt>
      <trkpt lat="45.402071" lon="7.033185">
        <ele>2509.908</ele>
        <time>2018-07-18T14:58:31Z</time>
      </trkpt>
      <trkpt lat="45.402042" lon="7.033249">
        <ele>2509.585</ele>
        <time>2018-07-18T14:58:36Z</time>
      </trkpt>
      <trkpt lat="45.402018" lon="7.033305">
        <ele>2509.390</ele>
        <time>2018-07-18T14:58:40Z</time>
      </trkpt>
      <trkpt lat="45.401996" lon="7.033362">
        <ele>2509.275</ele>
        <time>2018-07-18T14:58:45Z</time>
      </trkpt>
      <trkpt lat="45.401977" lon="7.033436">
        <ele>2508.740</ele>
        <time>2018-07-18T14:58:50Z</time>
      </trkpt>
      <trkpt lat="45.401949" lon="7.033512">
        <ele>2508.864</ele>
        <time>2018-07-18T14:58:54Z</time>
      </trkpt>
      <trkpt lat="45.401918" lon="7.033577">
        <ele>2508.573</ele>
        <time>2018-07-18T14:58:58Z</time>
      </trkpt>
      <trkpt lat="45.401892" lon="7.033634">
        <ele>2508.357</ele>
        <time>2018-07-18T14:59:02Z</time>
      </trkpt>
      <trkpt lat="45.401856" lon="7.033695">
        <ele>2508.221</ele>
        <time>2018-07-18T14:59:06Z</time>
      </trkpt>
      <trkpt lat="45.401821" lon="7.033745">
        <ele>2508.162</ele>
        <time>2018-07-18T14:59:10Z</time>
      </trkpt>
      <trkpt lat="45.401795" lon="7.033803">
        <ele>2508.583</ele>
        <time>2018-07-18T14:59:14Z</time>
      </trkpt>
      <trkpt lat="45.401787" lon="7.033874">
        <ele>2508.711</ele>
        <time>2018-07-18T14:59:19Z</time>
      </trkpt>
      <trkpt lat="45.401782" lon="7.033939">
        <ele>2508.408</ele>
        <time>2018-07-18T14:59:26Z</time>
      </trkpt>
      <trkpt lat="45.401740" lon="7.033969">
        <ele>2509.418</ele>
        <time>2018-07-18T14:59:38Z</time>
      </trkpt>
      <trkpt lat="45.401700" lon="7.034018">
        <ele>2510.043</ele>
        <time>2018-07-18T14:59:43Z</time>
      </trkpt>
      <trkpt lat="45.401663" lon="7.034060">
        <ele>2510.458</ele>
        <time>2018-07-18T14:59:47Z</time>
      </trkpt>
      <trkpt lat="45.401632" lon="7.034111">
        <ele>2511.453</ele>
        <time>2018-07-18T14:59:51Z</time>
      </trkpt>
      <trkpt lat="45.401599" lon="7.034171">
        <ele>2511.637</ele>
        <time>2018-07-18T14:59:56Z</time>
      </trkpt>
      <trkpt lat="45.401552" lon="7.034198">
        <ele>2511.336</ele>
        <time>2018-07-18T15:00:08Z</time>
      </trkpt>
      <trkpt lat="45.401523" lon="7.034256">
        <ele>2511.190</ele>
        <time>2018-07-18T15:00:15Z</time>
      </trkpt>
      <trkpt lat="45.401484" lon="7.034296">
        <ele>2510.614</ele>
        <time>2018-07-18T15:00:20Z</time>
      </trkpt>
      <trkpt lat="45.401517" lon="7.034349">
        <ele>2506.641</ele>
        <time>2018-07-18T15:00:32Z</time>
      </trkpt>
      <trkpt lat="45.401566" lon="7.034372">
        <ele>2503.981</ele>
        <time>2018-07-18T15:00:38Z</time>
      </trkpt>
      <trkpt lat="45.401600" lon="7.034422">
        <ele>2501.509</ele>
        <time>2018-07-18T15:00:42Z</time>
      </trkpt>
      <trkpt lat="45.401589" lon="7.034485">
        <ele>2498.408</ele>
        <time>2018-07-18T15:00:47Z</time>
      </trkpt>
      <trkpt lat="45.401543" lon="7.034517">
        <ele>2497.076</ele>
        <time>2018-07-18T15:00:52Z</time>
      </trkpt>
      <trkpt lat="45.401499" lon="7.034549">
        <ele>2496.191</ele>
        <time>2018-07-18T15:00:58Z</time>
      </trkpt>
      <trkpt lat="45.401463" lon="7.034602">
        <ele>2494.856</ele>
        <time>2018-07-18T15:01:06Z</time>
      </trkpt>
      <trkpt lat="45.401440" lon="7.034659">
        <ele>2493.291</ele>
        <time>2018-07-18T15:01:16Z</time>
      </trkpt>
      <trkpt lat="45.401472" lon="7.034711">
        <ele>2491.485</ele>
        <time>2018-07-18T15:01:32Z</time>
      </trkpt>
      <trkpt lat="45.401469" lon="7.034778">
        <ele>2489.984</ele>
        <time>2018-07-18T15:01:50Z</time>
      </trkpt>
      <trkpt lat="45.401419" lon="7.034787">
        <ele>2488.628</ele>
        <time>2018-07-18T15:01:57Z</time>
      </trkpt>
      <trkpt lat="45.401374" lon="7.034779">
        <ele>2488.252</ele>
        <time>2018-07-18T15:02:01Z</time>
      </trkpt>
      <trkpt lat="45.401333" lon="7.034750">
        <ele>2487.697</ele>
        <time>2018-07-18T15:02:06Z</time>
      </trkpt>
      <trkpt lat="45.401291" lon="7.034716">
        <ele>2486.023</ele>
        <time>2018-07-18T15:02:13Z</time>
      </trkpt>
      <trkpt lat="45.401254" lon="7.034674">
        <ele>2485.125</ele>
        <time>2018-07-18T15:02:18Z</time>
      </trkpt>
      <trkpt lat="45.401223" lon="7.034621">
        <ele>2484.108</ele>
        <time>2018-07-18T15:02:24Z</time>
      </trkpt>
      <trkpt lat="45.401178" lon="7.034613">
        <ele>2483.171</ele>
        <time>2018-07-18T15:02:31Z</time>
      </trkpt>
      <trkpt lat="45.401144" lon="7.034562">
        <ele>2481.386</ele>
        <time>2018-07-18T15:02:42Z</time>
      </trkpt>
      <trkpt lat="45.401108" lon="7.034516">
        <ele>2479.811</ele>
        <time>2018-07-18T15:02:52Z</time>
      </trkpt>
      <trkpt lat="45.401069" lon="7.034485">
        <ele>2478.176</ele>
        <time>2018-07-18T15:03:03Z</time>
      </trkpt>
      <trkpt lat="45.401017" lon="7.034487">
        <ele>2476.720</ele>
        <time>2018-07-18T15:03:14Z</time>
      </trkpt>
      <trkpt lat="45.400978" lon="7.034455">
        <ele>2475.199</ele>
        <time>2018-07-18T15:03:19Z</time>
      </trkpt>
      <trkpt lat="45.400937" lon="7.034404">
        <ele>2473.783</ele>
        <time>2018-07-18T15:03:24Z</time>
      </trkpt>
      <trkpt lat="45.400906" lon="7.034351">
        <ele>2472.157</ele>
        <time>2018-07-18T15:03:30Z</time>
      </trkpt>
      <trkpt lat="45.400868" lon="7.034312">
        <ele>2471.163</ele>
        <time>2018-07-18T15:03:36Z</time>
      </trkpt>
      <trkpt lat="45.400835" lon="7.034265">
        <ele>2469.744</ele>
        <time>2018-07-18T15:03:42Z</time>
      </trkpt>
      <trkpt lat="45.400820" lon="7.034333">
        <ele>2467.718</ele>
        <time>2018-07-18T15:03:54Z</time>
      </trkpt>
      <trkpt lat="45.400846" lon="7.034388">
        <ele>2466.508</ele>
        <time>2018-07-18T15:03:58Z</time>
      </trkpt>
      <trkpt lat="45.400867" lon="7.034448">
        <ele>2464.618</ele>
        <time>2018-07-18T15:04:04Z</time>
      </trkpt>
      <trkpt lat="45.400859" lon="7.034513">
        <ele>2462.623</ele>
        <time>2018-07-18T15:04:14Z</time>
      </trkpt>
      <trkpt lat="45.400850" lon="7.034584">
        <ele>2460.668</ele>
        <time>2018-07-18T15:04:21Z</time>
      </trkpt>
      <trkpt lat="45.400870" lon="7.034655">
        <ele>2459.073</ele>
        <time>2018-07-18T15:04:26Z</time>
      </trkpt>
      <trkpt lat="45.400885" lon="7.034727">
        <ele>2457.677</ele>
        <time>2018-07-18T15:04:31Z</time>
      </trkpt>
      <trkpt lat="45.400880" lon="7.034807">
        <ele>2456.816</ele>
        <time>2018-07-18T15:04:36Z</time>
      </trkpt>
      <trkpt lat="45.400887" lon="7.034876">
        <ele>2455.910</ele>
        <time>2018-07-18T15:04:41Z</time>
      </trkpt>
      <trkpt lat="45.400887" lon="7.034945">
        <ele>2454.634</ele>
        <time>2018-07-18T15:04:47Z</time>
      </trkpt>
      <trkpt lat="45.400852" lon="7.034985">
        <ele>2453.843</ele>
        <time>2018-07-18T15:04:55Z</time>
      </trkpt>
      <trkpt lat="45.400823" lon="7.035039">
        <ele>2453.364</ele>
        <time>2018-07-18T15:05:08Z</time>
      </trkpt>
      <trkpt lat="45.400807" lon="7.035099">
        <ele>2453.010</ele>
        <time>2018-07-18T15:05:13Z</time>
      </trkpt>
      <trkpt lat="45.400793" lon="7.035176">
        <ele>2452.408</ele>
        <time>2018-07-18T15:05:18Z</time>
      </trkpt>
      <trkpt lat="45.400784" lon="7.035250">
        <ele>2451.756</ele>
        <time>2018-07-18T15:05:23Z</time>
      </trkpt>
      <trkpt lat="45.400762" lon="7.035310">
        <ele>2450.971</ele>
        <time>2018-07-18T15:05:28Z</time>
      </trkpt>
      <trkpt lat="45.400733" lon="7.035373">
        <ele>2449.626</ele>
        <time>2018-07-18T15:05:33Z</time>
      </trkpt>
      <trkpt lat="45.400709" lon="7.035442">
        <ele>2448.851</ele>
        <time>2018-07-18T15:05:38Z</time>
      </trkpt>
      <trkpt lat="45.400689" lon="7.035508">
        <ele>2447.945</ele>
        <time>2018-07-18T15:05:43Z</time>
      </trkpt>
      <trkpt lat="45.400674" lon="7.035575">
        <ele>2447.054</ele>
        <time>2018-07-18T15:05:48Z</time>
      </trkpt>
      <trkpt lat="45.400668" lon="7.035650">
        <ele>2446.458</ele>
        <time>2018-07-18T15:05:53Z</time>
      </trkpt>
      <trkpt lat="45.400661" lon="7.035722">
        <ele>2445.312</ele>
        <time>2018-07-18T15:05:59Z</time>
      </trkpt>
      <trkpt lat="45.400667" lon="7.035796">
        <ele>2444.635</ele>
        <time>2018-07-18T15:06:05Z</time>
      </trkpt>
      <trkpt lat="45.400649" lon="7.035869">
        <ele>2443.886</ele>
        <time>2018-07-18T15:06:10Z</time>
      </trkpt>
      <trkpt lat="45.400632" lon="7.035934">
        <ele>2443.314</ele>
        <time>2018-07-18T15:06:14Z</time>
      </trkpt>
      <trkpt lat="45.400604" lon="7.035990">
        <ele>2442.608</ele>
        <time>2018-07-18T15:06:18Z</time>
      </trkpt>
      <trkpt lat="45.400567" lon="7.036036">
        <ele>2441.825</ele>
        <time>2018-07-18T15:06:23Z</time>
      </trkpt>
      <trkpt lat="45.400547" lon="7.036097">
        <ele>2441.370</ele>
        <time>2018-07-18T15:06:29Z</time>
      </trkpt>
      <trkpt lat="45.400532" lon="7.036168">
        <ele>2441.485</ele>
        <time>2018-07-18T15:06:35Z</time>
      </trkpt>
      <trkpt lat="45.400525" lon="7.036240">
        <ele>2441.170</ele>
        <time>2018-07-18T15:06:40Z</time>
      </trkpt>
      <trkpt lat="45.400502" lon="7.036308">
        <ele>2440.984</ele>
        <time>2018-07-18T15:06:46Z</time>
      </trkpt>
      <trkpt lat="45.400474" lon="7.036365">
        <ele>2440.453</ele>
        <time>2018-07-18T15:06:52Z</time>
      </trkpt>
      <trkpt lat="45.400432" lon="7.036413">
        <ele>2439.797</ele>
        <time>2018-07-18T15:06:57Z</time>
      </trkpt>
      <trkpt lat="45.400398" lon="7.036463">
        <ele>2440.121</ele>
        <time>2018-07-18T15:07:01Z</time>
      </trkpt>
      <trkpt lat="45.400365" lon="7.036513">
        <ele>2439.942</ele>
        <time>2018-07-18T15:07:06Z</time>
      </trkpt>
      <trkpt lat="45.400325" lon="7.036553">
        <ele>2439.822</ele>
        <time>2018-07-18T15:07:12Z</time>
      </trkpt>
      <trkpt lat="45.400279" lon="7.036584">
        <ele>2438.914</ele>
        <time>2018-07-18T15:07:19Z</time>
      </trkpt>
      <trkpt lat="45.400246" lon="7.036633">
        <ele>2437.608</ele>
        <time>2018-07-18T15:07:25Z</time>
      </trkpt>
      <trkpt lat="45.400199" lon="7.036643">
        <ele>2435.676</ele>
        <time>2018-07-18T15:07:32Z</time>
      </trkpt>
      <trkpt lat="45.400156" lon="7.036667">
        <ele>2434.411</ele>
        <time>2018-07-18T15:07:39Z</time>
      </trkpt>
      <trkpt lat="45.400120" lon="7.036708">
        <ele>2432.946</ele>
        <time>2018-07-18T15:07:45Z</time>
      </trkpt>
      <trkpt lat="45.400087" lon="7.036764">
        <ele>2432.021</ele>
        <time>2018-07-18T15:07:51Z</time>
      </trkpt>
      <trkpt lat="45.400046" lon="7.036798">
        <ele>2430.755</ele>
        <time>2018-07-18T15:07:57Z</time>
      </trkpt>
      <trkpt lat="45.399998" lon="7.036812">
        <ele>2429.134</ele>
        <time>2018-07-18T15:08:03Z</time>
      </trkpt>
      <trkpt lat="45.399953" lon="7.036824">
        <ele>2427.778</ele>
        <time>2018-07-18T15:08:11Z</time>
      </trkpt>
      <trkpt lat="45.399904" lon="7.036856">
        <ele>2425.772</ele>
        <time>2018-07-18T15:08:18Z</time>
      </trkpt>
      <trkpt lat="45.399855" lon="7.036870">
        <ele>2423.793</ele>
        <time>2018-07-18T15:08:24Z</time>
      </trkpt>
      <trkpt lat="45.399812" lon="7.036906">
        <ele>2421.765</ele>
        <time>2018-07-18T15:08:30Z</time>
      </trkpt>
      <trkpt lat="45.399769" lon="7.036948">
        <ele>2419.721</ele>
        <time>2018-07-18T15:08:36Z</time>
      </trkpt>
      <trkpt lat="45.399727" lon="7.036992">
        <ele>2418.108</ele>
        <time>2018-07-18T15:08:41Z</time>
      </trkpt>
      <trkpt lat="45.399699" lon="7.037057">
        <ele>2416.761</ele>
        <time>2018-07-18T15:08:46Z</time>
      </trkpt>
      <trkpt lat="45.399701" lon="7.037121">
        <ele>2414.726</ele>
        <time>2018-07-18T15:08:52Z</time>
      </trkpt>
      <trkpt lat="45.399721" lon="7.037178">
        <ele>2413.121</ele>
        <time>2018-07-18T15:09:02Z</time>
      </trkpt>
      <trkpt lat="45.399723" lon="7.037245">
        <ele>2411.366</ele>
        <time>2018-07-18T15:09:10Z</time>
      </trkpt>
      <trkpt lat="45.399740" lon="7.037305">
        <ele>2409.090</ele>
        <time>2018-07-18T15:09:17Z</time>
      </trkpt>
      <trkpt lat="45.399704" lon="7.037344">
        <ele>2406.469</ele>
        <time>2018-07-18T15:09:23Z</time>
      </trkpt>
      <trkpt lat="45.399674" lon="7.037393">
        <ele>2404.933</ele>
        <time>2018-07-18T15:09:29Z</time>
      </trkpt>
      <trkpt lat="45.399640" lon="7.037439">
        <ele>2404.087</ele>
        <time>2018-07-18T15:09:36Z</time>
      </trkpt>
      <trkpt lat="45.399598" lon="7.037479">
        <ele>2403.442</ele>
        <time>2018-07-18T15:09:44Z</time>
      </trkpt>
      <trkpt lat="45.399570" lon="7.037531">
        <ele>2402.722</ele>
        <time>2018-07-18T15:09:50Z</time>
      </trkpt>
      <trkpt lat="45.399559" lon="7.037604">
        <ele>2401.514</ele>
        <time>2018-07-18T15:09:56Z</time>
      </trkpt>
      <trkpt lat="45.399547" lon="7.037679">
        <ele>2400.408</ele>
        <time>2018-07-18T15:10:02Z</time>
      </trkpt>
      <trkpt lat="45.399523" lon="7.037735">
        <ele>2398.976</ele>
        <time>2018-07-18T15:10:08Z</time>
      </trkpt>
      <trkpt lat="45.399481" lon="7.037773">
        <ele>2397.261</ele>
        <time>2018-07-18T15:10:14Z</time>
      </trkpt>
      <trkpt lat="45.399468" lon="7.037836">
        <ele>2396.216</ele>
        <time>2018-07-18T15:10:35Z</time>
      </trkpt>
      <trkpt lat="45.399446" lon="7.037895">
        <ele>2395.211</ele>
        <time>2018-07-18T15:10:41Z</time>
      </trkpt>
      <trkpt lat="45.399420" lon="7.037952">
        <ele>2394.645</ele>
        <time>2018-07-18T15:10:46Z</time>
      </trkpt>
      <trkpt lat="45.399397" lon="7.038010">
        <ele>2394.244</ele>
        <time>2018-07-18T15:10:51Z</time>
      </trkpt>
      <trkpt lat="45.399370" lon="7.038072">
        <ele>2393.648</ele>
        <time>2018-07-18T15:10:56Z</time>
      </trkpt>
      <trkpt lat="45.399341" lon="7.038130">
        <ele>2393.252</ele>
        <time>2018-07-18T15:11:01Z</time>
      </trkpt>
      <trkpt lat="45.399314" lon="7.038191">
        <ele>2393.438</ele>
        <time>2018-07-18T15:11:06Z</time>
      </trkpt>
      <trkpt lat="45.399279" lon="7.038250">
        <ele>2392.770</ele>
        <time>2018-07-18T15:11:11Z</time>
      </trkpt>
      <trkpt lat="45.399249" lon="7.038301">
        <ele>2392.317</ele>
        <time>2018-07-18T15:11:17Z</time>
      </trkpt>
      <trkpt lat="45.399209" lon="7.038339">
        <ele>2391.308</ele>
        <time>2018-07-18T15:11:23Z</time>
      </trkpt>
      <trkpt lat="45.399166" lon="7.038385">
        <ele>2390.375</ele>
        <time>2018-07-18T15:11:29Z</time>
      </trkpt>
      <trkpt lat="45.399115" lon="7.038406">
        <ele>2389.790</ele>
        <time>2018-07-18T15:11:34Z</time>
      </trkpt>
      <trkpt lat="45.399069" lon="7.038432">
        <ele>2388.945</ele>
        <time>2018-07-18T15:11:39Z</time>
      </trkpt>
      <trkpt lat="45.399024" lon="7.038472">
        <ele>2388.010</ele>
        <time>2018-07-18T15:11:44Z</time>
      </trkpt>
      <trkpt lat="45.398978" lon="7.038508">
        <ele>2386.754</ele>
        <time>2018-07-18T15:11:49Z</time>
      </trkpt>
      <trkpt lat="45.398930" lon="7.038511">
        <ele>2385.593</ele>
        <time>2018-07-18T15:11:54Z</time>
      </trkpt>
      <trkpt lat="45.398900" lon="7.038456">
        <ele>2384.467</ele>
        <time>2018-07-18T15:12:02Z</time>
      </trkpt>
      <trkpt lat="45.398855" lon="7.038435">
        <ele>2383.751</ele>
        <time>2018-07-18T15:12:07Z</time>
      </trkpt>
      <trkpt lat="45.398817" lon="7.038399">
        <ele>2382.978</ele>
        <time>2018-07-18T15:12:11Z</time>
      </trkpt>
      <trkpt lat="45.398820" lon="7.038334">
        <ele>2381.633</ele>
        <time>2018-07-18T15:12:15Z</time>
      </trkpt>
      <trkpt lat="45.398814" lon="7.038269">
        <ele>2380.426</ele>
        <time>2018-07-18T15:12:19Z</time>
      </trkpt>
      <trkpt lat="45.398802" lon="7.038202">
        <ele>2379.308</ele>
        <time>2018-07-18T15:12:23Z</time>
      </trkpt>
      <trkpt lat="45.398796" lon="7.038130">
        <ele>2378.219</ele>
        <time>2018-07-18T15:12:27Z</time>
      </trkpt>
      <trkpt lat="45.398786" lon="7.038067">
        <ele>2377.274</ele>
        <time>2018-07-18T15:12:31Z</time>
      </trkpt>
      <trkpt lat="45.398765" lon="7.037992">
        <ele>2376.249</ele>
        <time>2018-07-18T15:12:35Z</time>
      </trkpt>
      <trkpt lat="45.398743" lon="7.037935">
        <ele>2375.674</ele>
        <time>2018-07-18T15:12:39Z</time>
      </trkpt>
      <trkpt lat="45.398731" lon="7.037860">
        <ele>2374.428</ele>
        <time>2018-07-18T15:12:45Z</time>
      </trkpt>
      <trkpt lat="45.398689" lon="7.037800">
        <ele>2374.187</ele>
        <time>2018-07-18T15:12:54Z</time>
      </trkpt>
      <trkpt lat="45.398658" lon="7.037747">
        <ele>2373.571</ele>
        <time>2018-07-18T15:12:58Z</time>
      </trkpt>
      <trkpt lat="45.398620" lon="7.037684">
        <ele>2373.295</ele>
        <time>2018-07-18T15:13:02Z</time>
      </trkpt>
      <trkpt lat="45.398578" lon="7.037646">
        <ele>2373.017</ele>
        <time>2018-07-18T15:13:06Z</time>
      </trkpt>
      <trkpt lat="45.398537" lon="7.037591">
        <ele>2372.187</ele>
        <time>2018-07-18T15:13:12Z</time>
      </trkpt>
      <trkpt lat="45.398497" lon="7.037550">
        <ele>2370.715</ele>
        <time>2018-07-18T15:13:16Z</time>
      </trkpt>
      <trkpt lat="45.398463" lon="7.037502">
        <ele>2369.908</ele>
        <time>2018-07-18T15:13:21Z</time>
      </trkpt>
      <trkpt lat="45.398412" lon="7.037482">
        <ele>2369.423</ele>
        <time>2018-07-18T15:13:26Z</time>
      </trkpt>
      <trkpt lat="45.398360" lon="7.037461">
        <ele>2369.138</ele>
        <time>2018-07-18T15:13:31Z</time>
      </trkpt>
      <trkpt lat="45.398317" lon="7.037507">
        <ele>2368.933</ele>
        <time>2018-07-18T15:13:36Z</time>
      </trkpt>
      <trkpt lat="45.398267" lon="7.037503">
        <ele>2368.448</ele>
        <time>2018-07-18T15:13:41Z</time>
      </trkpt>
      <trkpt lat="45.398215" lon="7.037467">
        <ele>2368.512</ele>
        <time>2018-07-18T15:13:45Z</time>
      </trkpt>
      <trkpt lat="45.398167" lon="7.037431">
        <ele>2368.241</ele>
        <time>2018-07-18T15:13:49Z</time>
      </trkpt>
      <trkpt lat="45.398116" lon="7.037395">
        <ele>2368.065</ele>
        <time>2018-07-18T15:13:53Z</time>
      </trkpt>
      <trkpt lat="45.398067" lon="7.037360">
        <ele>2367.589</ele>
        <time>2018-07-18T15:13:57Z</time>
      </trkpt>
      <trkpt lat="45.398020" lon="7.037331">
        <ele>2367.265</ele>
        <time>2018-07-18T15:14:01Z</time>
      </trkpt>
      <trkpt lat="45.397969" lon="7.037302">
        <ele>2366.668</ele>
        <time>2018-07-18T15:14:05Z</time>
      </trkpt>
      <trkpt lat="45.397923" lon="7.037272">
        <ele>2366.214</ele>
        <time>2018-07-18T15:14:09Z</time>
      </trkpt>
      <trkpt lat="45.397879" lon="7.037232">
        <ele>2365.608</ele>
        <time>2018-07-18T15:14:13Z</time>
      </trkpt>
      <trkpt lat="45.397842" lon="7.037189">
        <ele>2365.278</ele>
        <time>2018-07-18T15:14:17Z</time>
      </trkpt>
      <trkpt lat="45.397800" lon="7.037152">
        <ele>2365.093</ele>
        <time>2018-07-18T15:14:23Z</time>
      </trkpt>
      <trkpt lat="45.397764" lon="7.037109">
        <ele>2364.588</ele>
        <time>2018-07-18T15:14:31Z</time>
      </trkpt>
      <trkpt lat="45.397720" lon="7.037083">
        <ele>2363.873</ele>
        <time>2018-07-18T15:14:35Z</time>
      </trkpt>
      <trkpt lat="45.397669" lon="7.037077">
        <ele>2361.467</ele>
        <time>2018-07-18T15:14:42Z</time>
      </trkpt>
      <trkpt lat="45.397619" lon="7.037094">
        <ele>2359.586</ele>
        <time>2018-07-18T15:14:47Z</time>
      </trkpt>
      <trkpt lat="45.397570" lon="7.037159">
        <ele>2357.230</ele>
        <time>2018-07-18T15:15:03Z</time>
      </trkpt>
      <trkpt lat="45.397547" lon="7.037215">
        <ele>2357.464</ele>
        <time>2018-07-18T15:15:34Z</time>
      </trkpt>
      <trkpt lat="45.397524" lon="7.037272">
        <ele>2357.957</ele>
        <time>2018-07-18T15:15:42Z</time>
      </trkpt>
      <trkpt lat="45.397505" lon="7.037330">
        <ele>2358.200</ele>
        <time>2018-07-18T15:15:47Z</time>
      </trkpt>
      <trkpt lat="45.397484" lon="7.037389">
        <ele>2358.420</ele>
        <time>2018-07-18T15:15:51Z</time>
      </trkpt>
      <trkpt lat="45.397450" lon="7.037435">
        <ele>2358.508</ele>
        <time>2018-07-18T15:15:55Z</time>
      </trkpt>
      <trkpt lat="45.397415" lon="7.037477">
        <ele>2357.837</ele>
        <time>2018-07-18T15:16:01Z</time>
      </trkpt>
      <trkpt lat="45.397381" lon="7.037420">
        <ele>2356.282</ele>
        <time>2018-07-18T15:16:10Z</time>
      </trkpt>
      <trkpt lat="45.397337" lon="7.037440">
        <ele>2354.847</ele>
        <time>2018-07-18T15:16:20Z</time>
      </trkpt>
      <trkpt lat="45.397286" lon="7.037453">
        <ele>2353.232</ele>
        <time>2018-07-18T15:16:29Z</time>
      </trkpt>
      <trkpt lat="45.397237" lon="7.037462">
        <ele>2351.426</ele>
        <time>2018-07-18T15:16:37Z</time>
      </trkpt>
      <trkpt lat="45.397251" lon="7.037397">
        <ele>2348.755</ele>
        <time>2018-07-18T15:16:46Z</time>
      </trkpt>
      <trkpt lat="45.397214" lon="7.037329">
        <ele>2347.559</ele>
        <time>2018-07-18T15:17:03Z</time>
      </trkpt>
      <trkpt lat="45.397176" lon="7.037369">
        <ele>2346.883</ele>
        <time>2018-07-18T15:17:16Z</time>
      </trkpt>
      <trkpt lat="45.397131" lon="7.037411">
        <ele>2345.244</ele>
        <time>2018-07-18T15:17:23Z</time>
      </trkpt>
      <trkpt lat="45.397086" lon="7.037451">
        <ele>2343.805</ele>
        <time>2018-07-18T15:17:28Z</time>
      </trkpt>
      <trkpt lat="45.397040" lon="7.037482">
        <ele>2342.215</ele>
        <time>2018-07-18T15:17:33Z</time>
      </trkpt>
      <trkpt lat="45.396994" lon="7.037474">
        <ele>2340.808</ele>
        <time>2018-07-18T15:17:38Z</time>
      </trkpt>
      <trkpt lat="45.396952" lon="7.037451">
        <ele>2339.686</ele>
        <time>2018-07-18T15:17:42Z</time>
      </trkpt>
      <trkpt lat="45.396921" lon="7.037400">
        <ele>2338.111</ele>
        <time>2018-07-18T15:17:47Z</time>
      </trkpt>
      <trkpt lat="45.396877" lon="7.037381">
        <ele>2336.856</ele>
        <time>2018-07-18T15:17:53Z</time>
      </trkpt>
      <trkpt lat="45.396833" lon="7.037402">
        <ele>2335.231</ele>
        <time>2018-07-18T15:17:58Z</time>
      </trkpt>
      <trkpt lat="45.396786" lon="7.037398">
        <ele>2334.685</ele>
        <time>2018-07-18T15:18:03Z</time>
      </trkpt>
      <trkpt lat="45.396733" lon="7.037398">
        <ele>2333.934</ele>
        <time>2018-07-18T15:18:10Z</time>
      </trkpt>
      <trkpt lat="45.396684" lon="7.037398">
        <ele>2333.528</ele>
        <time>2018-07-18T15:18:15Z</time>
      </trkpt>
      <trkpt lat="45.396648" lon="7.037436">
        <ele>2332.442</ele>
        <time>2018-07-18T15:18:23Z</time>
      </trkpt>
      <trkpt lat="45.396637" lon="7.037503">
        <ele>2330.698</ele>
        <time>2018-07-18T15:18:29Z</time>
      </trkpt>
      <trkpt lat="45.396667" lon="7.037559">
        <ele>2328.715</ele>
        <time>2018-07-18T15:18:34Z</time>
      </trkpt>
      <trkpt lat="45.396692" lon="7.037623">
        <ele>2327.226</ele>
        <time>2018-07-18T15:18:38Z</time>
      </trkpt>
      <trkpt lat="45.396722" lon="7.037682">
        <ele>2326.308</ele>
        <time>2018-07-18T15:18:42Z</time>
      </trkpt>
      <trkpt lat="45.396752" lon="7.037731">
        <ele>2324.541</ele>
        <time>2018-07-18T15:18:46Z</time>
      </trkpt>
      <trkpt lat="45.396794" lon="7.037772">
        <ele>2323.076</ele>
        <time>2018-07-18T15:18:50Z</time>
      </trkpt>
      <trkpt lat="45.396837" lon="7.037806">
        <ele>2322.111</ele>
        <time>2018-07-18T15:18:54Z</time>
      </trkpt>
      <trkpt lat="45.396867" lon="7.037871">
        <ele>2321.666</ele>
        <time>2018-07-18T15:18:58Z</time>
      </trkpt>
      <trkpt lat="45.396894" lon="7.037943">
        <ele>2321.750</ele>
        <time>2018-07-18T15:19:02Z</time>
      </trkpt>
      <trkpt lat="45.396909" lon="7.038017">
        <ele>2321.889</ele>
        <time>2018-07-18T15:19:06Z</time>
      </trkpt>
      <trkpt lat="45.396924" lon="7.038090">
        <ele>2322.693</ele>
        <time>2018-07-18T15:19:10Z</time>
      </trkpt>
      <trkpt lat="45.396928" lon="7.038161">
        <ele>2323.177</ele>
        <time>2018-07-18T15:19:14Z</time>
      </trkpt>
      <trkpt lat="45.396924" lon="7.038232">
        <ele>2323.897</ele>
        <time>2018-07-18T15:19:18Z</time>
      </trkpt>
      <trkpt lat="45.396922" lon="7.038306">
        <ele>2324.623</ele>
        <time>2018-07-18T15:19:22Z</time>
      </trkpt>
      <trkpt lat="45.396922" lon="7.038379">
        <ele>2324.725</ele>
        <time>2018-07-18T15:19:26Z</time>
      </trkpt>
      <trkpt lat="45.396926" lon="7.038451">
        <ele>2325.208</ele>
        <time>2018-07-18T15:19:30Z</time>
      </trkpt>
      <trkpt lat="45.396923" lon="7.038526">
        <ele>2325.591</ele>
        <time>2018-07-18T15:19:34Z</time>
      </trkpt>
      <trkpt lat="45.396919" lon="7.038596">
        <ele>2326.116</ele>
        <time>2018-07-18T15:19:38Z</time>
      </trkpt>
      <trkpt lat="45.396908" lon="7.038667">
        <ele>2326.811</ele>
        <time>2018-07-18T15:19:42Z</time>
      </trkpt>
      <trkpt lat="45.396897" lon="7.038734">
        <ele>2326.876</ele>
        <time>2018-07-18T15:19:46Z</time>
      </trkpt>
      <trkpt lat="45.396888" lon="7.038798">
        <ele>2326.810</ele>
        <time>2018-07-18T15:19:50Z</time>
      </trkpt>
      <trkpt lat="45.396888" lon="7.038862">
        <ele>2326.439</ele>
        <time>2018-07-18T15:19:54Z</time>
      </trkpt>
      <trkpt lat="45.396891" lon="7.038927">
        <ele>2326.213</ele>
        <time>2018-07-18T15:19:58Z</time>
      </trkpt>
      <trkpt lat="45.396878" lon="7.038996">
        <ele>2326.537</ele>
        <time>2018-07-18T15:20:02Z</time>
      </trkpt>
      <trkpt lat="45.396851" lon="7.039067">
        <ele>2326.728</ele>
        <time>2018-07-18T15:20:06Z</time>
      </trkpt>
      <trkpt lat="45.396817" lon="7.039133">
        <ele>2327.289</ele>
        <time>2018-07-18T15:20:10Z</time>
      </trkpt>
      <trkpt lat="45.396783" lon="7.039195">
        <ele>2327.517</ele>
        <time>2018-07-18T15:20:14Z</time>
      </trkpt>
      <trkpt lat="45.396752" lon="7.039258">
        <ele>2327.308</ele>
        <time>2018-07-18T15:20:18Z</time>
      </trkpt>
      <trkpt lat="45.396718" lon="7.039322">
        <ele>2327.224</ele>
        <time>2018-07-18T15:20:22Z</time>
      </trkpt>
      <trkpt lat="45.396675" lon="7.039377">
        <ele>2327.599</ele>
        <time>2018-07-18T15:20:26Z</time>
      </trkpt>
      <trkpt lat="45.396622" lon="7.039402">
        <ele>2327.744</ele>
        <time>2018-07-18T15:20:30Z</time>
      </trkpt>
      <trkpt lat="45.396575" lon="7.039409">
        <ele>2327.499</ele>
        <time>2018-07-18T15:20:33Z</time>
      </trkpt>
      <trkpt lat="45.396532" lon="7.039385">
        <ele>2326.483</ele>
        <time>2018-07-18T15:20:37Z</time>
      </trkpt>
      <trkpt lat="45.396559" lon="7.039318">
        <ele>2323.842</ele>
        <time>2018-07-18T15:20:43Z</time>
      </trkpt>
      <trkpt lat="45.396596" lon="7.039279">
        <ele>2321.586</ele>
        <time>2018-07-18T15:20:47Z</time>
      </trkpt>
      <trkpt lat="45.396625" lon="7.039227">
        <ele>2319.340</ele>
        <time>2018-07-18T15:20:52Z</time>
      </trkpt>
      <trkpt lat="45.396589" lon="7.039172">
        <ele>2317.249</ele>
        <time>2018-07-18T15:20:59Z</time>
      </trkpt>
      <trkpt lat="45.396549" lon="7.039138">
        <ele>2315.902</ele>
        <time>2018-07-18T15:21:04Z</time>
      </trkpt>
      <trkpt lat="45.396498" lon="7.039115">
        <ele>2314.722</ele>
        <time>2018-07-18T15:21:10Z</time>
      </trkpt>
      <trkpt lat="45.396454" lon="7.039084">
        <ele>2313.608</ele>
        <time>2018-07-18T15:21:16Z</time>
      </trkpt>
      <trkpt lat="45.396406" lon="7.039077">
        <ele>2312.586</ele>
        <time>2018-07-18T15:21:22Z</time>
      </trkpt>
      <trkpt lat="45.396355" lon="7.039072">
        <ele>2311.991</ele>
        <time>2018-07-18T15:21:27Z</time>
      </trkpt>
      <trkpt lat="45.396306" lon="7.039060">
        <ele>2311.186</ele>
        <time>2018-07-18T15:21:32Z</time>
      </trkpt>
      <trkpt lat="45.396259" lon="7.039055">
        <ele>2310.631</ele>
        <time>2018-07-18T15:21:36Z</time>
      </trkpt>
      <trkpt lat="45.396207" lon="7.039063">
        <ele>2309.545</ele>
        <time>2018-07-18T15:21:41Z</time>
      </trkpt>
      <trkpt lat="45.396158" lon="7.039074">
        <ele>2308.944</ele>
        <time>2018-07-18T15:21:46Z</time>
      </trkpt>
      <trkpt lat="45.396108" lon="7.039064">
        <ele>2308.568</ele>
        <time>2018-07-18T15:21:52Z</time>
      </trkpt>
      <trkpt lat="45.396063" lon="7.039048">
        <ele>2307.512</ele>
        <time>2018-07-18T15:21:59Z</time>
      </trkpt>
      <trkpt lat="45.396017" lon="7.039023">
        <ele>2306.518</ele>
        <time>2018-07-18T15:22:06Z</time>
      </trkpt>
      <trkpt lat="45.395973" lon="7.038993">
        <ele>2305.198</ele>
        <time>2018-07-18T15:22:13Z</time>
      </trkpt>
      <trkpt lat="45.395940" lon="7.038947">
        <ele>2303.917</ele>
        <time>2018-07-18T15:22:20Z</time>
      </trkpt>
      <trkpt lat="45.395896" lon="7.038913">
        <ele>2303.208</ele>
        <time>2018-07-18T15:22:27Z</time>
      </trkpt>
      <trkpt lat="45.395856" lon="7.038870">
        <ele>2302.813</ele>
        <time>2018-07-18T15:22:32Z</time>
      </trkpt>
      <trkpt lat="45.395829" lon="7.038816">
        <ele>2302.188</ele>
        <time>2018-07-18T15:22:39Z</time>
      </trkpt>
      <trkpt lat="45.395795" lon="7.038762">
        <ele>2301.373</ele>
        <time>2018-07-18T15:22:57Z</time>
      </trkpt>
      <trkpt lat="45.395749" lon="7.038731">
        <ele>2300.478</ele>
        <time>2018-07-18T15:23:02Z</time>
      </trkpt>
      <trkpt lat="45.395695" lon="7.038730">
        <ele>2299.582</ele>
        <time>2018-07-18T15:23:07Z</time>
      </trkpt>
      <trkpt lat="45.395648" lon="7.038720">
        <ele>2298.531</ele>
        <time>2018-07-18T15:23:12Z</time>
      </trkpt>
      <trkpt lat="45.395603" lon="7.038685">
        <ele>2297.585</ele>
        <time>2018-07-18T15:23:17Z</time>
      </trkpt>
      <trkpt lat="45.395554" lon="7.038650">
        <ele>2296.579</ele>
        <time>2018-07-18T15:23:22Z</time>
      </trkpt>
      <trkpt lat="45.395511" lon="7.038612">
        <ele>2295.972</ele>
        <time>2018-07-18T15:23:26Z</time>
      </trkpt>
      <trkpt lat="45.395468" lon="7.038575">
        <ele>2295.513</ele>
        <time>2018-07-18T15:23:30Z</time>
      </trkpt>
      <trkpt lat="45.395427" lon="7.038537">
        <ele>2295.314</ele>
        <time>2018-07-18T15:23:34Z</time>
      </trkpt>
      <trkpt lat="45.395378" lon="7.038506">
        <ele>2295.608</ele>
        <time>2018-07-18T15:23:39Z</time>
      </trkpt>
      <trkpt lat="45.395326" lon="7.038493">
        <ele>2295.879</ele>
        <time>2018-07-18T15:23:44Z</time>
      </trkpt>
      <trkpt lat="45.395276" lon="7.038466">
        <ele>2295.194</ele>
        <time>2018-07-18T15:23:50Z</time>
      </trkpt>
      <trkpt lat="45.395227" lon="7.038434">
        <ele>2294.379</ele>
        <time>2018-07-18T15:23:56Z</time>
      </trkpt>
      <trkpt lat="45.395186" lon="7.038394">
        <ele>2293.884</ele>
        <time>2018-07-18T15:24:01Z</time>
      </trkpt>
      <trkpt lat="45.395135" lon="7.038364">
        <ele>2293.188</ele>
        <time>2018-07-18T15:24:06Z</time>
      </trkpt>
      <trkpt lat="45.395076" lon="7.038318">
        <ele>2292.727</ele>
        <time>2018-07-18T15:24:24Z</time>
      </trkpt>
      <trkpt lat="45.395034" lon="7.038280">
        <ele>2292.031</ele>
        <time>2018-07-18T15:24:41Z</time>
      </trkpt>
      <trkpt lat="45.394984" lon="7.038249">
        <ele>2291.615</ele>
        <time>2018-07-18T15:24:46Z</time>
      </trkpt>
      <trkpt lat="45.394933" lon="7.038229">
        <ele>2291.445</ele>
        <time>2018-07-18T15:24:50Z</time>
      </trkpt>
      <trkpt lat="45.394884" lon="7.038205">
        <ele>2290.947</ele>
        <time>2018-07-18T15:24:54Z</time>
      </trkpt>
      <trkpt lat="45.394837" lon="7.038180">
        <ele>2290.611</ele>
        <time>2018-07-18T15:24:58Z</time>
      </trkpt>
      <trkpt lat="45.394792" lon="7.038150">
        <ele>2290.008</ele>
        <time>2018-07-18T15:25:02Z</time>
      </trkpt>
      <trkpt lat="45.394748" lon="7.038109">
        <ele>2290.076</ele>
        <time>2018-07-18T15:25:06Z</time>
      </trkpt>
      <trkpt lat="45.394708" lon="7.038069">
        <ele>2289.641</ele>
        <time>2018-07-18T15:25:10Z</time>
      </trkpt>
      <trkpt lat="45.394666" lon="7.038030">
        <ele>2289.836</ele>
        <time>2018-07-18T15:25:14Z</time>
      </trkpt>
      <trkpt lat="45.394624" lon="7.037994">
        <ele>2289.521</ele>
        <time>2018-07-18T15:25:18Z</time>
      </trkpt>
      <trkpt lat="45.394585" lon="7.037951">
        <ele>2289.365</ele>
        <time>2018-07-18T15:25:22Z</time>
      </trkpt>
      <trkpt lat="45.394548" lon="7.037899">
        <ele>2288.844</ele>
        <time>2018-07-18T15:25:26Z</time>
      </trkpt>
      <trkpt lat="45.394511" lon="7.037848">
        <ele>2288.188</ele>
        <time>2018-07-18T15:25:30Z</time>
      </trkpt>
      <trkpt lat="45.394465" lon="7.037810">
        <ele>2288.112</ele>
        <time>2018-07-18T15:25:34Z</time>
      </trkpt>
      <trkpt lat="45.394419" lon="7.037779">
        <ele>2287.756</ele>
        <time>2018-07-18T15:25:38Z</time>
      </trkpt>
      <trkpt lat="45.394377" lon="7.037747">
        <ele>2287.559</ele>
        <time>2018-07-18T15:25:42Z</time>
      </trkpt>
      <trkpt lat="45.394333" lon="7.037717">
        <ele>2287.014</ele>
        <time>2018-07-18T15:25:47Z</time>
      </trkpt>
      <trkpt lat="45.394292" lon="7.037680">
        <ele>2286.308</ele>
        <time>2018-07-18T15:25:58Z</time>
      </trkpt>
      <trkpt lat="45.394235" lon="7.037663">
        <ele>2285.177</ele>
        <time>2018-07-18T15:26:04Z</time>
      </trkpt>
      <trkpt lat="45.394188" lon="7.037631">
        <ele>2284.462</ele>
        <time>2018-07-18T15:26:09Z</time>
      </trkpt>
      <trkpt lat="45.394158" lon="7.037570">
        <ele>2283.697</ele>
        <time>2018-07-18T15:26:14Z</time>
      </trkpt>
      <trkpt lat="45.394118" lon="7.037532">
        <ele>2282.772</ele>
        <time>2018-07-18T15:26:18Z</time>
      </trkpt>
      <trkpt lat="45.394069" lon="7.037502">
        <ele>2282.646</ele>
        <time>2018-07-18T15:26:22Z</time>
      </trkpt>
      <trkpt lat="45.394017" lon="7.037513">
        <ele>2282.135</ele>
        <time>2018-07-18T15:26:26Z</time>
      </trkpt>
      <trkpt lat="45.393961" lon="7.037519">
        <ele>2281.479</ele>
        <time>2018-07-18T15:26:31Z</time>
      </trkpt>
      <trkpt lat="45.393912" lon="7.037517">
        <ele>2281.053</ele>
        <time>2018-07-18T15:26:35Z</time>
      </trkpt>
      <trkpt lat="45.393865" lon="7.037531">
        <ele>2280.878</ele>
        <time>2018-07-18T15:26:39Z</time>
      </trkpt>
      <trkpt lat="45.393820" lon="7.037551">
        <ele>2280.733</ele>
        <time>2018-07-18T15:26:43Z</time>
      </trkpt>
      <trkpt lat="45.393774" lon="7.037582">
        <ele>2280.626</ele>
        <time>2018-07-18T15:26:47Z</time>
      </trkpt>
      <trkpt lat="45.393736" lon="7.037625">
        <ele>2280.508</ele>
        <time>2018-07-18T15:26:53Z</time>
      </trkpt>
      <trkpt lat="45.393692" lon="7.037652">
        <ele>2280.589</ele>
        <time>2018-07-18T15:26:59Z</time>
      </trkpt>
      <trkpt lat="45.393650" lon="7.037680">
        <ele>2280.124</ele>
        <time>2018-07-18T15:27:06Z</time>
      </trkpt>
      <trkpt lat="45.393602" lon="7.037675">
        <ele>2279.489</ele>
        <time>2018-07-18T15:27:12Z</time>
      </trkpt>
      <trkpt lat="45.393562" lon="7.037724">
        <ele>2279.074</ele>
        <time>2018-07-18T15:27:16Z</time>
      </trkpt>
      <trkpt lat="45.393534" lon="7.037785">
        <ele>2279.258</ele>
        <time>2018-07-18T15:27:21Z</time>
      </trkpt>
      <trkpt lat="45.393496" lon="7.037821">
        <ele>2278.557</ele>
        <time>2018-07-18T15:27:32Z</time>
      </trkpt>
      <trkpt lat="45.393462" lon="7.037868">
        <ele>2277.731</ele>
        <time>2018-07-18T15:27:39Z</time>
      </trkpt>
      <trkpt lat="45.393433" lon="7.037920">
        <ele>2276.865</ele>
        <time>2018-07-18T15:27:44Z</time>
      </trkpt>
      <trkpt lat="45.393403" lon="7.037968">
        <ele>2276.392</ele>
        <time>2018-07-18T15:27:49Z</time>
      </trkpt>
      <trkpt lat="45.393371" lon="7.038016">
        <ele>2275.673</ele>
        <time>2018-07-18T15:27:54Z</time>
      </trkpt>
      <trkpt lat="45.393335" lon="7.038055">
        <ele>2275.220</ele>
        <time>2018-07-18T15:28:00Z</time>
      </trkpt>
      <trkpt lat="45.393304" lon="7.038108">
        <ele>2274.908</ele>
        <time>2018-07-18T15:28:06Z</time>
      </trkpt>
      <trkpt lat="45.393277" lon="7.038161">
        <ele>2274.341</ele>
        <time>2018-07-18T15:28:18Z</time>
      </trkpt>
      <trkpt lat="45.393242" lon="7.038208">
        <ele>2273.676</ele>
        <time>2018-07-18T15:28:25Z</time>
      </trkpt>
      <trkpt lat="45.393220" lon="7.038149">
        <ele>2271.621</ele>
        <time>2018-07-18T15:28:37Z</time>
      </trkpt>
      <trkpt lat="45.393209" lon="7.038078">
        <ele>2269.286</ele>
        <time>2018-07-18T15:28:45Z</time>
      </trkpt>
      <trkpt lat="45.393231" lon="7.038013">
        <ele>2267.740</ele>
        <time>2018-07-18T15:28:51Z</time>
      </trkpt>
      <trkpt lat="45.393254" lon="7.037957">
        <ele>2266.069</ele>
        <time>2018-07-18T15:28:56Z</time>
      </trkpt>
      <trkpt lat="45.393266" lon="7.037881">
        <ele>2264.243</ele>
        <time>2018-07-18T15:29:03Z</time>
      </trkpt>
      <trkpt lat="45.393274" lon="7.037817">
        <ele>2263.157</ele>
        <time>2018-07-18T15:29:08Z</time>
      </trkpt>
      <trkpt lat="45.393273" lon="7.037749">
        <ele>2262.149</ele>
        <time>2018-07-18T15:29:13Z</time>
      </trkpt>
      <trkpt lat="45.393264" lon="7.037677">
        <ele>2260.702</ele>
        <time>2018-07-18T15:29:18Z</time>
      </trkpt>
      <trkpt lat="45.393272" lon="7.037607">
        <ele>2259.422</ele>
        <time>2018-07-18T15:29:25Z</time>
      </trkpt>
      <trkpt lat="45.393225" lon="7.037620">
        <ele>2258.208</ele>
        <time>2018-07-18T15:29:35Z</time>
      </trkpt>
      <trkpt lat="45.393191" lon="7.037670">
        <ele>2257.526</ele>
        <time>2018-07-18T15:29:40Z</time>
      </trkpt>
      <trkpt lat="45.393158" lon="7.037729">
        <ele>2256.751</ele>
        <time>2018-07-18T15:29:45Z</time>
      </trkpt>
      <trkpt lat="45.393124" lon="7.037778">
        <ele>2256.226</ele>
        <time>2018-07-18T15:29:49Z</time>
      </trkpt>
      <trkpt lat="45.393091" lon="7.037824">
        <ele>2255.511</ele>
        <time>2018-07-18T15:29:53Z</time>
      </trkpt>
      <trkpt lat="45.393046" lon="7.037864">
        <ele>2254.775</ele>
        <time>2018-07-18T15:29:58Z</time>
      </trkpt>
      <trkpt lat="45.393000" lon="7.037903">
        <ele>2253.844</ele>
        <time>2018-07-18T15:30:03Z</time>
      </trkpt>
      <trkpt lat="45.392955" lon="7.037941">
        <ele>2253.398</ele>
        <time>2018-07-18T15:30:08Z</time>
      </trkpt>
      <trkpt lat="45.392912" lon="7.037960">
        <ele>2252.692</ele>
        <time>2018-07-18T15:30:12Z</time>
      </trkpt>
      <trkpt lat="45.392860" lon="7.037974">
        <ele>2251.854</ele>
        <time>2018-07-18T15:30:16Z</time>
      </trkpt>
      <trkpt lat="45.392810" lon="7.038001">
        <ele>2251.356</ele>
        <time>2018-07-18T15:30:20Z</time>
      </trkpt>
      <trkpt lat="45.392755" lon="7.038029">
        <ele>2250.611</ele>
        <time>2018-07-18T15:30:24Z</time>
      </trkpt>
      <trkpt lat="45.392697" lon="7.038052">
        <ele>2250.208</ele>
        <time>2018-07-18T15:30:28Z</time>
      </trkpt>
      <trkpt lat="45.392646" lon="7.038080">
        <ele>2249.567</ele>
        <time>2018-07-18T15:30:32Z</time>
      </trkpt>
      <trkpt lat="45.392598" lon="7.038110">
        <ele>2248.752</ele>
        <time>2018-07-18T15:30:36Z</time>
      </trkpt>
      <trkpt lat="45.392551" lon="7.038149">
        <ele>2247.877</ele>
        <time>2018-07-18T15:30:40Z</time>
      </trkpt>
      <trkpt lat="45.392502" lon="7.038175">
        <ele>2247.392</ele>
        <time>2018-07-18T15:30:44Z</time>
      </trkpt>
      <trkpt lat="45.392449" lon="7.038199">
        <ele>2246.666</ele>
        <time>2018-07-18T15:30:48Z</time>
      </trkpt>
      <trkpt lat="45.392400" lon="7.038232">
        <ele>2245.455</ele>
        <time>2018-07-18T15:30:52Z</time>
      </trkpt>
      <trkpt lat="45.392346" lon="7.038258">
        <ele>2244.729</ele>
        <time>2018-07-18T15:30:56Z</time>
      </trkpt>
      <trkpt lat="45.392294" lon="7.038268">
        <ele>2243.993</ele>
        <time>2018-07-18T15:31:00Z</time>
      </trkpt>
      <trkpt lat="45.392240" lon="7.038270">
        <ele>2243.044</ele>
        <time>2018-07-18T15:31:04Z</time>
      </trkpt>
      <trkpt lat="45.392193" lon="7.038283">
        <ele>2242.505</ele>
        <time>2018-07-18T15:31:08Z</time>
      </trkpt>
      <trkpt lat="45.392148" lon="7.038305">
        <ele>2241.815</ele>
        <time>2018-07-18T15:31:12Z</time>
      </trkpt>
      <trkpt lat="45.392098" lon="7.038313">
        <ele>2241.008</ele>
        <time>2018-07-18T15:31:16Z</time>
      </trkpt>
      <trkpt lat="45.392045" lon="7.038317">
        <ele>2240.156</ele>
        <time>2018-07-18T15:31:20Z</time>
      </trkpt>
      <trkpt lat="45.391990" lon="7.038332">
        <ele>2239.691</ele>
        <time>2018-07-18T15:31:24Z</time>
      </trkpt>
      <trkpt lat="45.391943" lon="7.038351">
        <ele>2239.366</ele>
        <time>2018-07-18T15:31:28Z</time>
      </trkpt>
      <trkpt lat="45.391894" lon="7.038370">
        <ele>2238.791</ele>
        <time>2018-07-18T15:31:32Z</time>
      </trkpt>
      <trkpt lat="45.391841" lon="7.038390">
        <ele>2238.355</ele>
        <time>2018-07-18T15:31:36Z</time>
      </trkpt>
      <trkpt lat="45.391784" lon="7.038404">
        <ele>2238.124</ele>
        <time>2018-07-18T15:31:40Z</time>
      </trkpt>
      <trkpt lat="45.391728" lon="7.038421">
        <ele>2237.698</ele>
        <time>2018-07-18T15:31:44Z</time>
      </trkpt>
      <trkpt lat="45.391675" lon="7.038450">
        <ele>2237.382</ele>
        <time>2018-07-18T15:31:48Z</time>
      </trkpt>
      <trkpt lat="45.391622" lon="7.038472">
        <ele>2236.768</ele>
        <time>2018-07-18T15:31:52Z</time>
      </trkpt>
      <trkpt lat="45.391569" lon="7.038494">
        <ele>2236.342</ele>
        <time>2018-07-18T15:31:56Z</time>
      </trkpt>
      <trkpt lat="45.391525" lon="7.038508">
        <ele>2235.726</ele>
        <time>2018-07-18T15:31:59Z</time>
      </trkpt>
      <trkpt lat="45.391480" lon="7.038524">
        <ele>2235.308</ele>
        <time>2018-07-18T15:32:02Z</time>
      </trkpt>
      <trkpt lat="45.391429" lon="7.038547">
        <ele>2235.128</ele>
        <time>2018-07-18T15:32:06Z</time>
      </trkpt>
      <trkpt lat="45.391379" lon="7.038569">
        <ele>2234.633</ele>
        <time>2018-07-18T15:32:10Z</time>
      </trkpt>
      <trkpt lat="45.391325" lon="7.038588">
        <ele>2233.938</ele>
        <time>2018-07-18T15:32:14Z</time>
      </trkpt>
      <trkpt lat="45.391282" lon="7.038607">
        <ele>2233.113</ele>
        <time>2018-07-18T15:32:17Z</time>
      </trkpt>
      <trkpt lat="45.391230" lon="7.038635">
        <ele>2232.277</ele>
        <time>2018-07-18T15:32:21Z</time>
      </trkpt>
      <trkpt lat="45.391178" lon="7.038667">
        <ele>2231.726</ele>
        <time>2018-07-18T15:32:25Z</time>
      </trkpt>
      <trkpt lat="45.391125" lon="7.038700">
        <ele>2231.040</ele>
        <time>2018-07-18T15:32:29Z</time>
      </trkpt>
      <trkpt lat="45.391076" lon="7.038732">
        <ele>2230.634</ele>
        <time>2018-07-18T15:32:33Z</time>
      </trkpt>
      <trkpt lat="45.391026" lon="7.038765">
        <ele>2230.798</ele>
        <time>2018-07-18T15:32:37Z</time>
      </trkpt>
      <trkpt lat="45.390983" lon="7.038787">
        <ele>2230.815</ele>
        <time>2018-07-18T15:32:40Z</time>
      </trkpt>
      <trkpt lat="45.390939" lon="7.038802">
        <ele>2230.926</ele>
        <time>2018-07-18T15:32:43Z</time>
      </trkpt>
      <trkpt lat="45.390883" lon="7.038819">
        <ele>2230.108</ele>
        <time>2018-07-18T15:32:47Z</time>
      </trkpt>
      <trkpt lat="45.390838" lon="7.038833">
        <ele>2229.661</ele>
        <time>2018-07-18T15:32:50Z</time>
      </trkpt>
      <trkpt lat="45.390780" lon="7.038850">
        <ele>2229.316</ele>
        <time>2018-07-18T15:32:54Z</time>
      </trkpt>
      <trkpt lat="45.390723" lon="7.038869">
        <ele>2229.191</ele>
        <time>2018-07-18T15:32:58Z</time>
      </trkpt>
      <trkpt lat="45.390669" lon="7.038896">
        <ele>2228.696</ele>
        <time>2018-07-18T15:33:02Z</time>
      </trkpt>
      <trkpt lat="45.390621" lon="7.038918">
        <ele>2228.330</ele>
        <time>2018-07-18T15:33:06Z</time>
      </trkpt>
      <trkpt lat="45.390565" lon="7.038939">
        <ele>2228.149</ele>
        <time>2018-07-18T15:33:10Z</time>
      </trkpt>
      <trkpt lat="45.390512" lon="7.038965">
        <ele>2228.033</ele>
        <time>2018-07-18T15:33:14Z</time>
      </trkpt>
      <trkpt lat="45.390465" lon="7.039008">
        <ele>2227.997</ele>
        <time>2018-07-18T15:33:18Z</time>
      </trkpt>
      <trkpt lat="45.390424" lon="7.039053">
        <ele>2227.549</ele>
        <time>2018-07-18T15:33:22Z</time>
      </trkpt>
      <trkpt lat="45.390375" lon="7.039078">
        <ele>2226.802</ele>
        <time>2018-07-18T15:33:26Z</time>
      </trkpt>
      <trkpt lat="45.390319" lon="7.039095">
        <ele>2226.022</ele>
        <time>2018-07-18T15:33:30Z</time>
      </trkpt>
      <trkpt lat="45.390275" lon="7.039112">
        <ele>2225.508</ele>
        <time>2018-07-18T15:33:33Z</time>
      </trkpt>
      <trkpt lat="45.390222" lon="7.039141">
        <ele>2225.226</ele>
        <time>2018-07-18T15:33:37Z</time>
      </trkpt>
      <trkpt lat="45.390172" lon="7.039172">
        <ele>2224.641</ele>
        <time>2018-07-18T15:33:41Z</time>
      </trkpt>
      <trkpt lat="45.390119" lon="7.039207">
        <ele>2224.366</ele>
        <time>2018-07-18T15:33:45Z</time>
      </trkpt>
      <trkpt lat="45.390076" lon="7.039229">
        <ele>2224.131</ele>
        <time>2018-07-18T15:33:48Z</time>
      </trkpt>
      <trkpt lat="45.390033" lon="7.039253">
        <ele>2224.085</ele>
        <time>2018-07-18T15:33:51Z</time>
      </trkpt>
      <trkpt lat="45.389984" lon="7.039286">
        <ele>2223.594</ele>
        <time>2018-07-18T15:33:55Z</time>
      </trkpt>
      <trkpt lat="45.389936" lon="7.039325">
        <ele>2222.828</ele>
        <time>2018-07-18T15:33:59Z</time>
      </trkpt>
      <trkpt lat="45.389892" lon="7.039369">
        <ele>2222.452</ele>
        <time>2018-07-18T15:34:03Z</time>
      </trkpt>
      <trkpt lat="45.389849" lon="7.039423">
        <ele>2221.869</ele>
        <time>2018-07-18T15:34:07Z</time>
      </trkpt>
      <trkpt lat="45.389808" lon="7.039473">
        <ele>2221.004</ele>
        <time>2018-07-18T15:34:11Z</time>
      </trkpt>
      <trkpt lat="45.389765" lon="7.039523">
        <ele>2220.124</ele>
        <time>2018-07-18T15:34:15Z</time>
      </trkpt>
      <trkpt lat="45.389723" lon="7.039569">
        <ele>2219.608</ele>
        <time>2018-07-18T15:34:19Z</time>
      </trkpt>
      <trkpt lat="45.389681" lon="7.039617">
        <ele>2218.968</ele>
        <time>2018-07-18T15:34:23Z</time>
      </trkpt>
      <trkpt lat="45.389636" lon="7.039657">
        <ele>2218.173</ele>
        <time>2018-07-18T15:34:27Z</time>
      </trkpt>
      <trkpt lat="45.389588" lon="7.039700">
        <ele>2217.248</ele>
        <time>2018-07-18T15:34:31Z</time>
      </trkpt>
      <trkpt lat="45.389539" lon="7.039731">
        <ele>2216.323</ele>
        <time>2018-07-18T15:34:35Z</time>
      </trkpt>
      <trkpt lat="45.389493" lon="7.039762">
        <ele>2215.737</ele>
        <time>2018-07-18T15:34:39Z</time>
      </trkpt>
      <trkpt lat="45.389445" lon="7.039788">
        <ele>2215.036</ele>
        <time>2018-07-18T15:34:43Z</time>
      </trkpt>
      <trkpt lat="45.389396" lon="7.039824">
        <ele>2214.610</ele>
        <time>2018-07-18T15:34:47Z</time>
      </trkpt>
      <trkpt lat="45.389356" lon="7.039856">
        <ele>2214.374</ele>
        <time>2018-07-18T15:34:50Z</time>
      </trkpt>
      <trkpt lat="45.389305" lon="7.039893">
        <ele>2213.742</ele>
        <time>2018-07-18T15:34:54Z</time>
      </trkpt>
      <trkpt lat="45.389256" lon="7.039928">
        <ele>2213.422</ele>
        <time>2018-07-18T15:34:58Z</time>
      </trkpt>
      <trkpt lat="45.389203" lon="7.039964">
        <ele>2213.214</ele>
        <time>2018-07-18T15:35:02Z</time>
      </trkpt>
      <trkpt lat="45.389150" lon="7.040000">
        <ele>2212.708</ele>
        <time>2018-07-18T15:35:06Z</time>
      </trkpt>
      <trkpt lat="45.389109" lon="7.040031">
        <ele>2212.056</ele>
        <time>2018-07-18T15:35:09Z</time>
      </trkpt>
      <trkpt lat="45.389070" lon="7.040063">
        <ele>2211.661</ele>
        <time>2018-07-18T15:35:12Z</time>
      </trkpt>
      <trkpt lat="45.389022" lon="7.040109">
        <ele>2211.326</ele>
        <time>2018-07-18T15:35:16Z</time>
      </trkpt>
      <trkpt lat="45.388977" lon="7.040152">
        <ele>2210.751</ele>
        <time>2018-07-18T15:35:20Z</time>
      </trkpt>
      <trkpt lat="45.388931" lon="7.040198">
        <ele>2210.475</ele>
        <time>2018-07-18T15:35:24Z</time>
      </trkpt>
      <trkpt lat="45.388878" lon="7.040234">
        <ele>2209.864</ele>
        <time>2018-07-18T15:35:28Z</time>
      </trkpt>
      <trkpt lat="45.388825" lon="7.040264">
        <ele>2209.478</ele>
        <time>2018-07-18T15:35:32Z</time>
      </trkpt>
      <trkpt lat="45.388773" lon="7.040297">
        <ele>2208.852</ele>
        <time>2018-07-18T15:35:36Z</time>
      </trkpt>
      <trkpt lat="45.388717" lon="7.040315">
        <ele>2208.488</ele>
        <time>2018-07-18T15:35:40Z</time>
      </trkpt>
      <trkpt lat="45.388661" lon="7.040332">
        <ele>2207.824</ele>
        <time>2018-07-18T15:35:44Z</time>
      </trkpt>
      <trkpt lat="45.388611" lon="7.040350">
        <ele>2207.026</ele>
        <time>2018-07-18T15:35:48Z</time>
      </trkpt>
      <trkpt lat="45.388564" lon="7.040376">
        <ele>2206.108</ele>
        <time>2018-07-18T15:35:52Z</time>
      </trkpt>
      <trkpt lat="45.388513" lon="7.040409">
        <ele>2205.220</ele>
        <time>2018-07-18T15:35:56Z</time>
      </trkpt>
      <trkpt lat="45.388459" lon="7.040432">
        <ele>2204.265</ele>
        <time>2018-07-18T15:36:00Z</time>
      </trkpt>
      <trkpt lat="45.388403" lon="7.040450">
        <ele>2203.660</ele>
        <time>2018-07-18T15:36:04Z</time>
      </trkpt>
      <trkpt lat="45.388348" lon="7.040465">
        <ele>2203.325</ele>
        <time>2018-07-18T15:36:08Z</time>
      </trkpt>
      <trkpt lat="45.388293" lon="7.040482">
        <ele>2202.799</ele>
        <time>2018-07-18T15:36:12Z</time>
      </trkpt>
      <trkpt lat="45.388236" lon="7.040503">
        <ele>2202.728</ele>
        <time>2018-07-18T15:36:16Z</time>
      </trkpt>
      <trkpt lat="45.388181" lon="7.040525">
        <ele>2202.712</ele>
        <time>2018-07-18T15:36:20Z</time>
      </trkpt>
      <trkpt lat="45.388125" lon="7.040541">
        <ele>2202.396</ele>
        <time>2018-07-18T15:36:24Z</time>
      </trkpt>
      <trkpt lat="45.388077" lon="7.040565">
        <ele>2202.164</ele>
        <time>2018-07-18T15:36:27Z</time>
      </trkpt>
      <trkpt lat="45.388020" lon="7.040608">
        <ele>2201.606</ele>
        <time>2018-07-18T15:36:31Z</time>
      </trkpt>
      <trkpt lat="45.387972" lon="7.040636">
        <ele>2201.316</ele>
        <time>2018-07-18T15:36:35Z</time>
      </trkpt>
      <trkpt lat="45.387925" lon="7.040659">
        <ele>2201.508</ele>
        <time>2018-07-18T15:36:38Z</time>
      </trkpt>
      <trkpt lat="45.387869" lon="7.040674">
        <ele>2202.088</ele>
        <time>2018-07-18T15:36:41Z</time>
      </trkpt>
      <trkpt lat="45.387818" lon="7.040692">
        <ele>2202.383</ele>
        <time>2018-07-18T15:36:45Z</time>
      </trkpt>
      <trkpt lat="45.387768" lon="7.040705">
        <ele>2202.598</ele>
        <time>2018-07-18T15:36:49Z</time>
      </trkpt>
      <trkpt lat="45.387721" lon="7.040725">
        <ele>2201.893</ele>
        <time>2018-07-18T15:36:53Z</time>
      </trkpt>
      <trkpt lat="45.387676" lon="7.040752">
        <ele>2201.437</ele>
        <time>2018-07-18T15:36:57Z</time>
      </trkpt>
      <trkpt lat="45.387628" lon="7.040770">
        <ele>2200.876</ele>
        <time>2018-07-18T15:37:01Z</time>
      </trkpt>
      <trkpt lat="45.387575" lon="7.040781">
        <ele>2200.450</ele>
        <time>2018-07-18T15:37:06Z</time>
      </trkpt>
      <trkpt lat="45.387526" lon="7.040783">
        <ele>2199.834</ele>
        <time>2018-07-18T15:37:10Z</time>
      </trkpt>
      <trkpt lat="45.387467" lon="7.040788">
        <ele>2199.081</ele>
        <time>2018-07-18T15:37:14Z</time>
      </trkpt>
      <trkpt lat="45.387414" lon="7.040797">
        <ele>2198.561</ele>
        <time>2018-07-18T15:37:18Z</time>
      </trkpt>
      <trkpt lat="45.387380" lon="7.040840">
        <ele>2197.817</ele>
        <time>2018-07-18T15:37:23Z</time>
      </trkpt>
      <trkpt lat="45.387332" lon="7.040848">
        <ele>2197.008</ele>
        <time>2018-07-18T15:37:37Z</time>
      </trkpt>
      <trkpt lat="45.387301" lon="7.040898">
        <ele>2196.160</ele>
        <time>2018-07-18T15:38:33Z</time>
      </trkpt>
      <trkpt lat="45.387256" lon="7.040940">
        <ele>2196.055</ele>
        <time>2018-07-18T15:38:39Z</time>
      </trkpt>
      <trkpt lat="45.387308" lon="7.040973">
        <ele>2195.560</ele>
        <time>2018-07-18T15:38:52Z</time>
      </trkpt>
      <trkpt lat="45.387268" lon="7.040940">
        <ele>2195.295</ele>
        <time>2018-07-18T15:39:00Z</time>
      </trkpt>
      <trkpt lat="45.387263" lon="7.040864">
        <ele>2194.639</ele>
        <time>2018-07-18T15:39:05Z</time>
      </trkpt>
      <trkpt lat="45.387278" lon="7.040792">
        <ele>2193.918</ele>
        <time>2018-07-18T15:39:10Z</time>
      </trkpt>
      <trkpt lat="45.387302" lon="7.040736">
        <ele>2193.132</ele>
        <time>2018-07-18T15:39:14Z</time>
      </trkpt>
      <trkpt lat="45.387329" lon="7.040681">
        <ele>2192.676</ele>
        <time>2018-07-18T15:39:18Z</time>
      </trkpt>
      <trkpt lat="45.387360" lon="7.040621">
        <ele>2192.375</ele>
        <time>2018-07-18T15:39:22Z</time>
      </trkpt>
      <trkpt lat="45.387386" lon="7.040565">
        <ele>2192.128</ele>
        <time>2018-07-18T15:39:26Z</time>
      </trkpt>
      <trkpt lat="45.387414" lon="7.040512">
        <ele>2191.620</ele>
        <time>2018-07-18T15:39:30Z</time>
      </trkpt>
      <trkpt lat="45.387436" lon="7.040455">
        <ele>2191.308</ele>
        <time>2018-07-18T15:39:34Z</time>
      </trkpt>
      <trkpt lat="45.387456" lon="7.040383">
        <ele>2191.169</ele>
        <time>2018-07-18T15:39:39Z</time>
      </trkpt>
      <trkpt lat="45.387465" lon="7.040317">
        <ele>2191.464</ele>
        <time>2018-07-18T15:39:43Z</time>
      </trkpt>
      <trkpt lat="45.387468" lon="7.040251">
        <ele>2191.659</ele>
        <time>2018-07-18T15:39:48Z</time>
      </trkpt>
      <trkpt lat="45.387453" lon="7.040183">
        <ele>2192.544</ele>
        <time>2018-07-18T15:39:58Z</time>
      </trkpt>
      <trkpt lat="45.387424" lon="7.040124">
        <ele>2193.078</ele>
        <time>2018-07-18T15:40:08Z</time>
      </trkpt>
      <trkpt lat="45.387398" lon="7.040065">
        <ele>2193.347</ele>
        <time>2018-07-18T15:40:15Z</time>
      </trkpt>
      <trkpt lat="45.387395" lon="7.039989">
        <ele>2193.541</ele>
        <time>2018-07-18T15:40:21Z</time>
      </trkpt>
      <trkpt lat="45.387405" lon="7.039922">
        <ele>2193.615</ele>
        <time>2018-07-18T15:40:26Z</time>
      </trkpt>
      <trkpt lat="45.387435" lon="7.039860">
        <ele>2193.718</ele>
        <time>2018-07-18T15:40:31Z</time>
      </trkpt>
      <trkpt lat="45.387463" lon="7.039797">
        <ele>2192.998</ele>
        <time>2018-07-18T15:40:36Z</time>
      </trkpt>
      <trkpt lat="45.387501" lon="7.039752">
        <ele>2192.817</ele>
        <time>2018-07-18T15:40:43Z</time>
      </trkpt>
      <trkpt lat="45.387530" lon="7.039699">
        <ele>2192.808</ele>
        <time>2018-07-18T15:40:49Z</time>
      </trkpt>
      <trkpt lat="45.387552" lon="7.039640">
        <ele>2193.253</ele>
        <time>2018-07-18T15:40:59Z</time>
      </trkpt>
      <trkpt lat="45.387567" lon="7.039575">
        <ele>2193.458</ele>
        <time>2018-07-18T15:41:05Z</time>
      </trkpt>
      <trkpt lat="45.387586" lon="7.039517">
        <ele>2193.543</ele>
        <time>2018-07-18T15:41:10Z</time>
      </trkpt>
      <trkpt lat="45.387606" lon="7.039455">
        <ele>2193.678</ele>
        <time>2018-07-18T15:41:15Z</time>
      </trkpt>
      <trkpt lat="45.387622" lon="7.039389">
        <ele>2194.452</ele>
        <time>2018-07-18T15:41:20Z</time>
      </trkpt>
      <trkpt lat="45.387621" lon="7.039308">
        <ele>2195.781</ele>
        <time>2018-07-18T15:41:25Z</time>
      </trkpt>
      <trkpt lat="45.387625" lon="7.039234">
        <ele>2196.555</ele>
        <time>2018-07-18T15:41:30Z</time>
      </trkpt>
      <trkpt lat="45.387615" lon="7.039159">
        <ele>2197.459</ele>
        <time>2018-07-18T15:41:36Z</time>
      </trkpt>
      <trkpt lat="45.387590" lon="7.039104">
        <ele>2198.349</ele>
        <time>2018-07-18T15:41:41Z</time>
      </trkpt>
      <trkpt lat="45.387562" lon="7.039049">
        <ele>2198.902</ele>
        <time>2018-07-18T15:41:45Z</time>
      </trkpt>
      <trkpt lat="45.387524" lon="7.038992">
        <ele>2200.022</ele>
        <time>2018-07-18T15:41:51Z</time>
      </trkpt>
      <trkpt lat="45.387484" lon="7.038962">
        <ele>2201.508</ele>
        <time>2018-07-18T15:41:56Z</time>
      </trkpt>
      <trkpt lat="45.387437" lon="7.038917">
        <ele>2203.216</ele>
        <time>2018-07-18T15:42:02Z</time>
      </trkpt>
      <trkpt lat="45.387390" lon="7.038900">
        <ele>2204.691</ele>
        <time>2018-07-18T15:42:07Z</time>
      </trkpt>
      <trkpt lat="45.387345" lon="7.038868">
        <ele>2205.446</ele>
        <time>2018-07-18T15:42:12Z</time>
      </trkpt>
      <trkpt lat="45.387302" lon="7.038840">
        <ele>2206.311</ele>
        <time>2018-07-18T15:42:17Z</time>
      </trkpt>
      <trkpt lat="45.387262" lon="7.038806">
        <ele>2207.215</ele>
        <time>2018-07-18T15:42:22Z</time>
      </trkpt>
      <trkpt lat="45.387212" lon="7.038788">
        <ele>2208.214</ele>
        <time>2018-07-18T15:42:29Z</time>
      </trkpt>
      <trkpt lat="45.387167" lon="7.038751">
        <ele>2208.438</ele>
        <time>2018-07-18T15:42:35Z</time>
      </trkpt>
      <trkpt lat="45.387127" lon="7.038705">
        <ele>2208.112</ele>
        <time>2018-07-18T15:42:41Z</time>
      </trkpt>
      <trkpt lat="45.387085" lon="7.038666">
        <ele>2208.341</ele>
        <time>2018-07-18T15:42:46Z</time>
      </trkpt>
      <trkpt lat="45.387061" lon="7.038611">
        <ele>2208.081</ele>
        <time>2018-07-18T15:42:52Z</time>
      </trkpt>
      <trkpt lat="45.387061" lon="7.038539">
        <ele>2207.809</ele>
        <time>2018-07-18T15:42:58Z</time>
      </trkpt>
      <trkpt lat="45.387077" lon="7.038479">
        <ele>2207.708</ele>
        <time>2018-07-18T15:43:03Z</time>
      </trkpt>
      <trkpt lat="45.387098" lon="7.038415">
        <ele>2207.686</ele>
        <time>2018-07-18T15:43:09Z</time>
      </trkpt>
      <trkpt lat="45.387119" lon="7.038350">
        <ele>2207.631</ele>
        <time>2018-07-18T15:43:15Z</time>
      </trkpt>
      <trkpt lat="45.387140" lon="7.038281">
        <ele>2207.666</ele>
        <time>2018-07-18T15:43:21Z</time>
      </trkpt>
      <trkpt lat="45.387163" lon="7.038213">
        <ele>2207.251</ele>
        <time>2018-07-18T15:43:27Z</time>
      </trkpt>
      <trkpt lat="45.387187" lon="7.038147">
        <ele>2207.055</ele>
        <time>2018-07-18T15:43:33Z</time>
      </trkpt>
      <trkpt lat="45.387211" lon="7.038081">
        <ele>2207.364</ele>
        <time>2018-07-18T15:43:39Z</time>
      </trkpt>
      <trkpt lat="45.387232" lon="7.038020">
        <ele>2207.528</ele>
        <time>2018-07-18T15:43:45Z</time>
      </trkpt>
      <trkpt lat="45.387267" lon="7.037970">
        <ele>2207.262</ele>
        <time>2018-07-18T15:43:51Z</time>
      </trkpt>
      <trkpt lat="45.387296" lon="7.037921">
        <ele>2207.052</ele>
        <time>2018-07-18T15:43:56Z</time>
      </trkpt>
      <trkpt lat="45.387334" lon="7.037876">
        <ele>2207.353</ele>
        <time>2018-07-18T15:44:02Z</time>
      </trkpt>
      <trkpt lat="45.387369" lon="7.037828">
        <ele>2207.108</ele>
        <time>2018-07-18T15:44:08Z</time>
      </trkpt>
      <trkpt lat="45.387401" lon="7.037774">
        <ele>2207.408</ele>
        <time>2018-07-18T15:44:14Z</time>
      </trkpt>
      <trkpt lat="45.387430" lon="7.037718">
        <ele>2207.697</ele>
        <time>2018-07-18T15:44:20Z</time>
      </trkpt>
      <trkpt lat="45.387459" lon="7.037656">
        <ele>2207.382</ele>
        <time>2018-07-18T15:44:26Z</time>
      </trkpt>
      <trkpt lat="45.387476" lon="7.037596">
        <ele>2207.577</ele>
        <time>2018-07-18T15:44:31Z</time>
      </trkpt>
      <trkpt lat="45.387452" lon="7.037541">
        <ele>2208.482</ele>
        <time>2018-07-18T15:44:37Z</time>
      </trkpt>
      <trkpt lat="45.387407" lon="7.037521">
        <ele>2210.256</ele>
        <time>2018-07-18T15:44:42Z</time>
      </trkpt>
      <trkpt lat="45.387362" lon="7.037522">
        <ele>2212.125</ele>
        <time>2018-07-18T15:44:47Z</time>
      </trkpt>
      <trkpt lat="45.387309" lon="7.037521">
        <ele>2213.619</ele>
        <time>2018-07-18T15:44:52Z</time>
      </trkpt>
      <trkpt lat="45.387255" lon="7.037506">
        <ele>2214.593</ele>
        <time>2018-07-18T15:44:57Z</time>
      </trkpt>
      <trkpt lat="45.387216" lon="7.037474">
        <ele>2215.035</ele>
        <time>2018-07-18T15:45:01Z</time>
      </trkpt>
      <trkpt lat="45.387179" lon="7.037431">
        <ele>2215.386</ele>
        <time>2018-07-18T15:45:05Z</time>
      </trkpt>
      <trkpt lat="45.387143" lon="7.037376">
        <ele>2216.714</ele>
        <time>2018-07-18T15:45:12Z</time>
      </trkpt>
      <trkpt lat="45.387104" lon="7.037340">
        <ele>2217.908</ele>
        <time>2018-07-18T15:45:17Z</time>
      </trkpt>
      <trkpt lat="45.387073" lon="7.037284">
        <ele>2218.675</ele>
        <time>2018-07-18T15:45:23Z</time>
      </trkpt>
      <trkpt lat="45.387048" lon="7.037227">
        <ele>2219.820</ele>
        <time>2018-07-18T15:45:28Z</time>
      </trkpt>
      <trkpt lat="45.387035" lon="7.037165">
        <ele>2220.525</ele>
        <time>2018-07-18T15:45:33Z</time>
      </trkpt>
      <trkpt lat="45.387047" lon="7.037095">
        <ele>2220.940</ele>
        <time>2018-07-18T15:45:39Z</time>
      </trkpt>
      <trkpt lat="45.387077" lon="7.037047">
        <ele>2221.234</ele>
        <time>2018-07-18T15:45:44Z</time>
      </trkpt>
      <trkpt lat="45.387112" lon="7.037003">
        <ele>2221.833</ele>
        <time>2018-07-18T15:45:49Z</time>
      </trkpt>
      <trkpt lat="45.387157" lon="7.036975">
        <ele>2222.177</ele>
        <time>2018-07-18T15:45:54Z</time>
      </trkpt>
      <trkpt lat="45.387202" lon="7.036946">
        <ele>2222.331</ele>
        <time>2018-07-18T15:45:59Z</time>
      </trkpt>
      <trkpt lat="45.387244" lon="7.036918">
        <ele>2222.021</ele>
        <time>2018-07-18T15:46:04Z</time>
      </trkpt>
      <trkpt lat="45.387294" lon="7.036898">
        <ele>2221.841</ele>
        <time>2018-07-18T15:46:10Z</time>
      </trkpt>
      <trkpt lat="45.387337" lon="7.036867">
        <ele>2221.305</ele>
        <time>2018-07-18T15:46:15Z</time>
      </trkpt>
      <trkpt lat="45.387379" lon="7.036825">
        <ele>2221.408</ele>
        <time>2018-07-18T15:46:20Z</time>
      </trkpt>
      <trkpt lat="45.387415" lon="7.036780">
        <ele>2221.534</ele>
        <time>2018-07-18T15:46:26Z</time>
      </trkpt>
      <trkpt lat="45.387454" lon="7.036733">
        <ele>2221.559</ele>
        <time>2018-07-18T15:46:33Z</time>
      </trkpt>
      <trkpt lat="45.387480" lon="7.036672">
        <ele>2221.524</ele>
        <time>2018-07-18T15:46:41Z</time>
      </trkpt>
      <trkpt lat="45.387478" lon="7.036597">
        <ele>2222.729</ele>
        <time>2018-07-18T15:46:48Z</time>
      </trkpt>
      <trkpt lat="45.387457" lon="7.036538">
        <ele>2224.233</ele>
        <time>2018-07-18T15:46:54Z</time>
      </trkpt>
      <trkpt lat="45.387432" lon="7.036474">
        <ele>2225.132</ele>
        <time>2018-07-18T15:47:00Z</time>
      </trkpt>
      <trkpt lat="45.387408" lon="7.036416">
        <ele>2226.086</ele>
        <time>2018-07-18T15:47:06Z</time>
      </trkpt>
      <trkpt lat="45.387386" lon="7.036359">
        <ele>2227.050</ele>
        <time>2018-07-18T15:47:11Z</time>
      </trkpt>
      <trkpt lat="45.387364" lon="7.036288">
        <ele>2227.638</ele>
        <time>2018-07-18T15:47:17Z</time>
      </trkpt>
      <trkpt lat="45.387339" lon="7.036225">
        <ele>2227.970</ele>
        <time>2018-07-18T15:47:22Z</time>
      </trkpt>
      <trkpt lat="45.387313" lon="7.036169">
        <ele>2228.517</ele>
        <time>2018-07-18T15:47:27Z</time>
      </trkpt>
      <trkpt lat="45.387267" lon="7.036149">
        <ele>2229.708</ele>
        <time>2018-07-18T15:47:33Z</time>
      </trkpt>
      <trkpt lat="45.387214" lon="7.036150">
        <ele>2231.235</ele>
        <time>2018-07-18T15:47:39Z</time>
      </trkpt>
      <trkpt lat="45.387161" lon="7.036166">
        <ele>2232.190</ele>
        <time>2018-07-18T15:47:45Z</time>
      </trkpt>
      <trkpt lat="45.387116" lon="7.036182">
        <ele>2233.415</ele>
        <time>2018-07-18T15:47:50Z</time>
      </trkpt>
      <trkpt lat="45.387070" lon="7.036193">
        <ele>2234.640</ele>
        <time>2018-07-18T15:47:55Z</time>
      </trkpt>
      <trkpt lat="45.387021" lon="7.036196">
        <ele>2235.324</ele>
        <time>2018-07-18T15:48:00Z</time>
      </trkpt>
      <trkpt lat="45.386974" lon="7.036204">
        <ele>2236.143</ele>
        <time>2018-07-18T15:48:05Z</time>
      </trkpt>
      <trkpt lat="45.386925" lon="7.036221">
        <ele>2237.017</ele>
        <time>2018-07-18T15:48:10Z</time>
      </trkpt>
      <trkpt lat="45.386879" lon="7.036247">
        <ele>2237.911</ele>
        <time>2018-07-18T15:48:15Z</time>
      </trkpt>
      <trkpt lat="45.386840" lon="7.036287">
        <ele>2239.332</ele>
        <time>2018-07-18T15:48:20Z</time>
      </trkpt>
      <trkpt lat="45.386807" lon="7.036334">
        <ele>2240.592</ele>
        <time>2018-07-18T15:48:25Z</time>
      </trkpt>
      <trkpt lat="45.386769" lon="7.036380">
        <ele>2242.011</ele>
        <time>2018-07-18T15:48:30Z</time>
      </trkpt>
      <trkpt lat="45.386729" lon="7.036423">
        <ele>2243.308</ele>
        <time>2018-07-18T15:48:35Z</time>
      </trkpt>
      <trkpt lat="45.386690" lon="7.036469">
        <ele>2244.195</ele>
        <time>2018-07-18T15:48:40Z</time>
      </trkpt>
      <trkpt lat="45.386652" lon="7.036512">
        <ele>2245.430</ele>
        <time>2018-07-18T15:48:45Z</time>
      </trkpt>
      <trkpt lat="45.386610" lon="7.036563">
        <ele>2246.655</ele>
        <time>2018-07-18T15:48:50Z</time>
      </trkpt>
      <trkpt lat="45.386575" lon="7.036605">
        <ele>2247.340</ele>
        <time>2018-07-18T15:48:55Z</time>
      </trkpt>
      <trkpt lat="45.386535" lon="7.036648">
        <ele>2248.164</ele>
        <time>2018-07-18T15:49:00Z</time>
      </trkpt>
      <trkpt lat="45.386497" lon="7.036683">
        <ele>2249.073</ele>
        <time>2018-07-18T15:49:05Z</time>
      </trkpt>
      <trkpt lat="45.386448" lon="7.036696">
        <ele>2249.547</ele>
        <time>2018-07-18T15:49:10Z</time>
      </trkpt>
      <trkpt lat="45.386402" lon="7.036706">
        <ele>2250.211</ele>
        <time>2018-07-18T15:49:15Z</time>
      </trkpt>
      <trkpt lat="45.386353" lon="7.036717">
        <ele>2250.658</ele>
        <time>2018-07-18T15:49:20Z</time>
      </trkpt>
      <trkpt lat="45.386308" lon="7.036729">
        <ele>2250.952</ele>
        <time>2018-07-18T15:49:25Z</time>
      </trkpt>
      <trkpt lat="45.386263" lon="7.036738">
        <ele>2251.117</ele>
        <time>2018-07-18T15:49:30Z</time>
      </trkpt>
      <trkpt lat="45.386216" lon="7.036748">
        <ele>2251.608</ele>
        <time>2018-07-18T15:49:35Z</time>
      </trkpt>
      <trkpt lat="45.386164" lon="7.036755">
        <ele>2252.357</ele>
        <time>2018-07-18T15:49:40Z</time>
      </trkpt>
      <trkpt lat="45.386115" lon="7.036768">
        <ele>2253.112</ele>
        <time>2018-07-18T15:49:45Z</time>
      </trkpt>
      <trkpt lat="45.386065" lon="7.036780">
        <ele>2253.617</ele>
        <time>2018-07-18T15:49:50Z</time>
      </trkpt>
      <trkpt lat="45.386012" lon="7.036793">
        <ele>2254.732</ele>
        <time>2018-07-18T15:49:56Z</time>
      </trkpt>
      <trkpt lat="45.385962" lon="7.036807">
        <ele>2255.446</ele>
        <time>2018-07-18T15:50:02Z</time>
      </trkpt>
      <trkpt lat="45.385919" lon="7.036834">
        <ele>2255.865</ele>
        <time>2018-07-18T15:50:07Z</time>
      </trkpt>
      <trkpt lat="45.385871" lon="7.036864">
        <ele>2256.429</ele>
        <time>2018-07-18T15:50:13Z</time>
      </trkpt>
      <trkpt lat="45.385827" lon="7.036896">
        <ele>2256.833</ele>
        <time>2018-07-18T15:50:19Z</time>
      </trkpt>
      <trkpt lat="45.385786" lon="7.036925">
        <ele>2257.424</ele>
        <time>2018-07-18T15:50:24Z</time>
      </trkpt>
      <trkpt lat="45.385743" lon="7.036959">
        <ele>2258.204</ele>
        <time>2018-07-18T15:50:29Z</time>
      </trkpt>
      <trkpt lat="45.385698" lon="7.036996">
        <ele>2259.114</ele>
        <time>2018-07-18T15:50:34Z</time>
      </trkpt>
      <trkpt lat="45.385654" lon="7.037042">
        <ele>2260.008</ele>
        <time>2018-07-18T15:50:39Z</time>
      </trkpt>
      <trkpt lat="45.385617" lon="7.037083">
        <ele>2260.694</ele>
        <time>2018-07-18T15:50:44Z</time>
      </trkpt>
      <trkpt lat="45.385580" lon="7.037137">
        <ele>2260.979</ele>
        <time>2018-07-18T15:50:50Z</time>
      </trkpt>
      <trkpt lat="45.385546" lon="7.037190">
        <ele>2261.154</ele>
        <time>2018-07-18T15:50:56Z</time>
      </trkpt>
      <trkpt lat="45.385513" lon="7.037235">
        <ele>2262.039</ele>
        <time>2018-07-18T15:51:01Z</time>
      </trkpt>
      <trkpt lat="45.385474" lon="7.037286">
        <ele>2262.243</ele>
        <time>2018-07-18T15:51:07Z</time>
      </trkpt>
      <trkpt lat="45.385428" lon="7.037287">
        <ele>2261.982</ele>
        <time>2018-07-18T15:51:17Z</time>
      </trkpt>
      <trkpt lat="45.385422" lon="7.037358">
        <ele>2261.776</ele>
        <time>2018-07-18T15:51:47Z</time>
      </trkpt>
      <trkpt lat="45.385391" lon="7.037418">
        <ele>2261.650</ele>
        <time>2018-07-18T15:51:53Z</time>
      </trkpt>
      <trkpt lat="45.385355" lon="7.037474">
        <ele>2262.357</ele>
        <time>2018-07-18T15:51:59Z</time>
      </trkpt>
      <trkpt lat="45.385323" lon="7.037532">
        <ele>2262.700</ele>
        <time>2018-07-18T15:52:05Z</time>
      </trkpt>
      <trkpt lat="45.385298" lon="7.037585">
        <ele>2263.420</ele>
        <time>2018-07-18T15:52:11Z</time>
      </trkpt>
      <trkpt lat="45.385262" lon="7.037634">
        <ele>2264.208</ele>
        <time>2018-07-18T15:52:17Z</time>
      </trkpt>
      <trkpt lat="45.385219" lon="7.037678">
        <ele>2265.187</ele>
        <time>2018-07-18T15:52:23Z</time>
      </trkpt>
      <trkpt lat="45.385183" lon="7.037727">
        <ele>2265.642</ele>
        <time>2018-07-18T15:52:29Z</time>
      </trkpt>
      <trkpt lat="45.385148" lon="7.037769">
        <ele>2266.397</ele>
        <time>2018-07-18T15:52:34Z</time>
      </trkpt>
      <trkpt lat="45.385109" lon="7.037812">
        <ele>2267.582</ele>
        <time>2018-07-18T15:52:39Z</time>
      </trkpt>
      <trkpt lat="45.385067" lon="7.037859">
        <ele>2268.256</ele>
        <time>2018-07-18T15:52:44Z</time>
      </trkpt>
      <trkpt lat="45.385032" lon="7.037914">
        <ele>2269.015</ele>
        <time>2018-07-18T15:52:49Z</time>
      </trkpt>
      <trkpt lat="45.385001" lon="7.037964">
        <ele>2269.929</ele>
        <time>2018-07-18T15:52:54Z</time>
      </trkpt>
      <trkpt lat="45.384961" lon="7.038016">
        <ele>2270.843</ele>
        <time>2018-07-18T15:53:00Z</time>
      </trkpt>
      <trkpt lat="45.384930" lon="7.038075">
        <ele>2271.086</ele>
        <time>2018-07-18T15:53:06Z</time>
      </trkpt>
      <trkpt lat="45.384909" lon="7.038132">
        <ele>2270.760</ele>
        <time>2018-07-18T15:53:11Z</time>
      </trkpt>
      <trkpt lat="45.384882" lon="7.038194">
        <ele>2270.526</ele>
        <time>2018-07-18T15:53:17Z</time>
      </trkpt>
      <trkpt lat="45.384861" lon="7.038252">
        <ele>2270.408</ele>
        <time>2018-07-18T15:53:24Z</time>
      </trkpt>
      <trkpt lat="45.384834" lon="7.038312">
        <ele>2270.390</ele>
        <time>2018-07-18T15:53:30Z</time>
      </trkpt>
      <trkpt lat="45.384811" lon="7.038370">
        <ele>2270.335</ele>
        <time>2018-07-18T15:53:35Z</time>
      </trkpt>
      <trkpt lat="45.384815" lon="7.038441">
        <ele>2270.720</ele>
        <time>2018-07-18T15:53:59Z</time>
      </trkpt>
      <trkpt lat="45.384781" lon="7.038491">
        <ele>2270.935</ele>
        <time>2018-07-18T15:54:06Z</time>
      </trkpt>
      <trkpt lat="45.384749" lon="7.038549">
        <ele>2271.869</ele>
        <time>2018-07-18T15:54:12Z</time>
      </trkpt>
      <trkpt lat="45.384719" lon="7.038602">
        <ele>2272.418</ele>
        <time>2018-07-18T15:54:17Z</time>
      </trkpt>
      <trkpt lat="45.384691" lon="7.038664">
        <ele>2273.152</ele>
        <time>2018-07-18T15:54:22Z</time>
      </trkpt>
      <trkpt lat="45.384669" lon="7.038723">
        <ele>2273.566</ele>
        <time>2018-07-18T15:54:26Z</time>
      </trkpt>
      <trkpt lat="45.384653" lon="7.038790">
        <ele>2273.853</ele>
        <time>2018-07-18T15:54:31Z</time>
      </trkpt>
      <trkpt lat="45.384626" lon="7.038855">
        <ele>2274.404</ele>
        <time>2018-07-18T15:54:37Z</time>
      </trkpt>
      <trkpt lat="45.384592" lon="7.038912">
        <ele>2275.114</ele>
        <time>2018-07-18T15:54:43Z</time>
      </trkpt>
      <trkpt lat="45.384548" lon="7.038940">
        <ele>2275.508</ele>
        <time>2018-07-18T15:54:48Z</time>
      </trkpt>
      <trkpt lat="45.384500" lon="7.038968">
        <ele>2276.257</ele>
        <time>2018-07-18T15:54:53Z</time>
      </trkpt>
      <trkpt lat="45.384461" lon="7.039004">
        <ele>2277.092</ele>
        <time>2018-07-18T15:54:58Z</time>
      </trkpt>
      <trkpt lat="45.384418" lon="7.039044">
        <ele>2277.967</ele>
        <time>2018-07-18T15:55:03Z</time>
      </trkpt>
      <trkpt lat="45.384377" lon="7.039084">
        <ele>2278.482</ele>
        <time>2018-07-18T15:55:08Z</time>
      </trkpt>
      <trkpt lat="45.384333" lon="7.039117">
        <ele>2279.116</ele>
        <time>2018-07-18T15:55:13Z</time>
      </trkpt>
      <trkpt lat="45.384289" lon="7.039158">
        <ele>2279.925</ele>
        <time>2018-07-18T15:55:18Z</time>
      </trkpt>
      <trkpt lat="45.384243" lon="7.039195">
        <ele>2280.869</ele>
        <time>2018-07-18T15:55:23Z</time>
      </trkpt>
      <trkpt lat="45.384200" lon="7.039226">
        <ele>2281.713</ele>
        <time>2018-07-18T15:55:28Z</time>
      </trkpt>
      <trkpt lat="45.384160" lon="7.039266">
        <ele>2281.936</ele>
        <time>2018-07-18T15:55:34Z</time>
      </trkpt>
      <trkpt lat="45.384116" lon="7.039304">
        <ele>2282.417</ele>
        <time>2018-07-18T15:55:40Z</time>
      </trkpt>
      <trkpt lat="45.384074" lon="7.039349">
        <ele>2283.518</ele>
        <time>2018-07-18T15:55:46Z</time>
      </trkpt>
      <trkpt lat="45.384046" lon="7.039405">
        <ele>2285.008</ele>
        <time>2018-07-18T15:55:52Z</time>
      </trkpt>
      <trkpt lat="45.384008" lon="7.039456">
        <ele>2285.935</ele>
        <time>2018-07-18T15:55:58Z</time>
      </trkpt>
      <trkpt lat="45.383967" lon="7.039503">
        <ele>2286.840</ele>
        <time>2018-07-18T15:56:04Z</time>
      </trkpt>
      <trkpt lat="45.383930" lon="7.039541">
        <ele>2287.455</ele>
        <time>2018-07-18T15:56:09Z</time>
      </trkpt>
      <trkpt lat="45.383895" lon="7.039582">
        <ele>2288.160</ele>
        <time>2018-07-18T15:56:14Z</time>
      </trkpt>
      <trkpt lat="45.383861" lon="7.039626">
        <ele>2288.964</ele>
        <time>2018-07-18T15:56:20Z</time>
      </trkpt>
      <trkpt lat="45.383816" lon="7.039665">
        <ele>2289.843</ele>
        <time>2018-07-18T15:56:26Z</time>
      </trkpt>
      <trkpt lat="45.383781" lon="7.039710">
        <ele>2290.317</ele>
        <time>2018-07-18T15:56:31Z</time>
      </trkpt>
      <trkpt lat="45.383746" lon="7.039754">
        <ele>2290.641</ele>
        <time>2018-07-18T15:56:36Z</time>
      </trkpt>
      <trkpt lat="45.383710" lon="7.039795">
        <ele>2290.814</ele>
        <time>2018-07-18T15:56:41Z</time>
      </trkpt>
      <trkpt lat="45.383673" lon="7.039845">
        <ele>2290.954</ele>
        <time>2018-07-18T15:56:47Z</time>
      </trkpt>
      <trkpt lat="45.383637" lon="7.039896">
        <ele>2291.409</ele>
        <time>2018-07-18T15:56:52Z</time>
      </trkpt>
      <trkpt lat="45.383604" lon="7.039942">
        <ele>2291.708</ele>
        <time>2018-07-18T15:56:57Z</time>
      </trkpt>
      <trkpt lat="45.383570" lon="7.039992">
        <ele>2292.313</ele>
        <time>2018-07-18T15:57:03Z</time>
      </trkpt>
      <trkpt lat="45.383542" lon="7.040048">
        <ele>2292.238</ele>
        <time>2018-07-18T15:57:10Z</time>
      </trkpt>
      <trkpt lat="45.383504" lon="7.040094">
        <ele>2292.243</ele>
        <time>2018-07-18T15:57:16Z</time>
      </trkpt>
      <trkpt lat="45.383461" lon="7.040126">
        <ele>2292.698</ele>
        <time>2018-07-18T15:57:22Z</time>
      </trkpt>
      <trkpt lat="45.383415" lon="7.040162">
        <ele>2292.862</ele>
        <time>2018-07-18T15:57:28Z</time>
      </trkpt>
      <trkpt lat="45.383377" lon="7.040196">
        <ele>2293.341</ele>
        <time>2018-07-18T15:57:33Z</time>
      </trkpt>
      <trkpt lat="45.383341" lon="7.040239">
        <ele>2294.465</ele>
        <time>2018-07-18T15:57:39Z</time>
      </trkpt>
      <trkpt lat="45.383298" lon="7.040281">
        <ele>2295.129</ele>
        <time>2018-07-18T15:57:45Z</time>
      </trkpt>
      <trkpt lat="45.383264" lon="7.040326">
        <ele>2295.575</ele>
        <time>2018-07-18T15:58:03Z</time>
      </trkpt>
      <trkpt lat="45.383215" lon="7.040351">
        <ele>2296.128</ele>
        <time>2018-07-18T15:58:12Z</time>
      </trkpt>
      <trkpt lat="45.383177" lon="7.040387">
        <ele>2296.520</ele>
        <time>2018-07-18T15:58:17Z</time>
      </trkpt>
      <trkpt lat="45.383135" lon="7.040419">
        <ele>2296.708</ele>
        <time>2018-07-18T15:58:23Z</time>
      </trkpt>
      <trkpt lat="45.383086" lon="7.040428">
        <ele>2296.089</ele>
        <time>2018-07-18T15:58:29Z</time>
      </trkpt>
      <trkpt lat="45.383047" lon="7.040462">
        <ele>2295.634</ele>
        <time>2018-07-18T15:58:35Z</time>
      </trkpt>
      <trkpt lat="45.383002" lon="7.040475">
        <ele>2295.039</ele>
        <time>2018-07-18T15:58:40Z</time>
      </trkpt>
      <trkpt lat="45.382972" lon="7.040531">
        <ele>2294.284</ele>
        <time>2018-07-18T15:59:43Z</time>
      </trkpt>
      <trkpt lat="45.382930" lon="7.040564">
        <ele>2293.758</ele>
        <time>2018-07-18T15:59:48Z</time>
      </trkpt>
      <trkpt lat="45.382885" lon="7.040590">
        <ele>2293.437</ele>
        <time>2018-07-18T15:59:53Z</time>
      </trkpt>
      <trkpt lat="45.382836" lon="7.040610">
        <ele>2293.631</ele>
        <time>2018-07-18T15:59:58Z</time>
      </trkpt>
      <trkpt lat="45.382785" lon="7.040636">
        <ele>2293.755</ele>
        <time>2018-07-18T16:00:03Z</time>
      </trkpt>
      <trkpt lat="45.382739" lon="7.040656">
        <ele>2294.224</ele>
        <time>2018-07-18T16:00:08Z</time>
      </trkpt>
      <trkpt lat="45.382687" lon="7.040673">
        <ele>2294.104</ele>
        <time>2018-07-18T16:00:13Z</time>
      </trkpt>
      <trkpt lat="45.382642" lon="7.040677">
        <ele>2294.414</ele>
        <time>2018-07-18T16:00:18Z</time>
      </trkpt>
      <trkpt lat="45.382595" lon="7.040681">
        <ele>2295.008</ele>
        <time>2018-07-18T16:00:23Z</time>
      </trkpt>
      <trkpt lat="45.382543" lon="7.040680">
        <ele>2295.434</ele>
        <time>2018-07-18T16:00:28Z</time>
      </trkpt>
      <trkpt lat="45.382493" lon="7.040664">
        <ele>2295.649</ele>
        <time>2018-07-18T16:00:33Z</time>
      </trkpt>
      <trkpt lat="45.382442" lon="7.040643">
        <ele>2295.754</ele>
        <time>2018-07-18T16:00:38Z</time>
      </trkpt>
      <trkpt lat="45.382398" lon="7.040612">
        <ele>2295.839</ele>
        <time>2018-07-18T16:00:43Z</time>
      </trkpt>
      <trkpt lat="45.382352" lon="7.040577">
        <ele>2296.283</ele>
        <time>2018-07-18T16:00:48Z</time>
      </trkpt>
      <trkpt lat="45.382304" lon="7.040539">
        <ele>2296.962</ele>
        <time>2018-07-18T16:00:53Z</time>
      </trkpt>
      <trkpt lat="45.382265" lon="7.040506">
        <ele>2296.996</ele>
        <time>2018-07-18T16:00:57Z</time>
      </trkpt>
      <trkpt lat="45.382225" lon="7.040472">
        <ele>2297.350</ele>
        <time>2018-07-18T16:01:01Z</time>
      </trkpt>
      <trkpt lat="45.382183" lon="7.040443">
        <ele>2297.518</ele>
        <time>2018-07-18T16:01:05Z</time>
      </trkpt>
      <trkpt lat="45.382135" lon="7.040412">
        <ele>2297.698</ele>
        <time>2018-07-18T16:01:10Z</time>
      </trkpt>
      <trkpt lat="45.382085" lon="7.040390">
        <ele>2297.717</ele>
        <time>2018-07-18T16:01:15Z</time>
      </trkpt>
      <trkpt lat="45.382034" lon="7.040370">
        <ele>2297.808</ele>
        <time>2018-07-18T16:01:20Z</time>
      </trkpt>
      <trkpt lat="45.381982" lon="7.040359">
        <ele>2298.213</ele>
        <time>2018-07-18T16:01:25Z</time>
      </trkpt>
      <trkpt lat="45.381931" lon="7.040351">
        <ele>2298.968</ele>
        <time>2018-07-18T16:01:30Z</time>
      </trkpt>
      <trkpt lat="45.381878" lon="7.040347">
        <ele>2299.753</ele>
        <time>2018-07-18T16:01:35Z</time>
      </trkpt>
      <trkpt lat="45.381831" lon="7.040356">
        <ele>2300.228</ele>
        <time>2018-07-18T16:01:40Z</time>
      </trkpt>
      <trkpt lat="45.381782" lon="7.040381">
        <ele>2300.992</ele>
        <time>2018-07-18T16:01:46Z</time>
      </trkpt>
      <trkpt lat="45.381736" lon="7.040411">
        <ele>2301.781</ele>
        <time>2018-07-18T16:01:52Z</time>
      </trkpt>
      <trkpt lat="45.381695" lon="7.040439">
        <ele>2302.695</ele>
        <time>2018-07-18T16:01:57Z</time>
      </trkpt>
      <trkpt lat="45.381654" lon="7.040469">
        <ele>2303.569</ele>
        <time>2018-07-18T16:02:02Z</time>
      </trkpt>
      <trkpt lat="45.381615" lon="7.040509">
        <ele>2304.113</ele>
        <time>2018-07-18T16:02:07Z</time>
      </trkpt>
      <trkpt lat="45.381582" lon="7.040552">
        <ele>2304.843</ele>
        <time>2018-07-18T16:02:12Z</time>
      </trkpt>
      <trkpt lat="45.381551" lon="7.040601">
        <ele>2305.607</ele>
        <time>2018-07-18T16:02:17Z</time>
      </trkpt>
      <trkpt lat="45.381514" lon="7.040643">
        <ele>2306.508</ele>
        <time>2018-07-18T16:02:22Z</time>
      </trkpt>
      <trkpt lat="45.381471" lon="7.040681">
        <ele>2307.413</ele>
        <time>2018-07-18T16:02:28Z</time>
      </trkpt>
      <trkpt lat="45.381427" lon="7.040708">
        <ele>2308.078</ele>
        <time>2018-07-18T16:02:33Z</time>
      </trkpt>
      <trkpt lat="45.381376" lon="7.040700">
        <ele>2308.383</ele>
        <time>2018-07-18T16:02:39Z</time>
      </trkpt>
      <trkpt lat="45.381334" lon="7.040678">
        <ele>2308.188</ele>
        <time>2018-07-18T16:02:44Z</time>
      </trkpt>
      <trkpt lat="45.381285" lon="7.040664">
        <ele>2308.462</ele>
        <time>2018-07-18T16:02:49Z</time>
      </trkpt>
      <trkpt lat="45.381236" lon="7.040674">
        <ele>2308.631</ele>
        <time>2018-07-18T16:02:54Z</time>
      </trkpt>
      <trkpt lat="45.381189" lon="7.040700">
        <ele>2309.115</ele>
        <time>2018-07-18T16:02:59Z</time>
      </trkpt>
      <trkpt lat="45.381145" lon="7.040732">
        <ele>2309.429</ele>
        <time>2018-07-18T16:03:04Z</time>
      </trkpt>
      <trkpt lat="45.381108" lon="7.040769">
        <ele>2309.677</ele>
        <time>2018-07-18T16:03:09Z</time>
      </trkpt>
      <trkpt lat="45.381065" lon="7.040799">
        <ele>2309.761</ele>
        <time>2018-07-18T16:03:14Z</time>
      </trkpt>
      <trkpt lat="45.381017" lon="7.040830">
        <ele>2310.227</ele>
        <time>2018-07-18T16:03:19Z</time>
      </trkpt>
      <trkpt lat="45.380966" lon="7.040860">
        <ele>2310.908</ele>
        <time>2018-07-18T16:03:24Z</time>
      </trkpt>
      <trkpt lat="45.380915" lon="7.040884">
        <ele>2311.359</ele>
        <time>2018-07-18T16:03:29Z</time>
      </trkpt>
      <trkpt lat="45.380863" lon="7.040895">
        <ele>2311.594</ele>
        <time>2018-07-18T16:03:34Z</time>
      </trkpt>
      <trkpt lat="45.380811" lon="7.040906">
        <ele>2311.689</ele>
        <time>2018-07-18T16:03:39Z</time>
      </trkpt>
      <trkpt lat="45.380758" lon="7.040911">
        <ele>2312.134</ele>
        <time>2018-07-18T16:03:44Z</time>
      </trkpt>
      <trkpt lat="45.380703" lon="7.040912">
        <ele>2312.438</ele>
        <time>2018-07-18T16:03:49Z</time>
      </trkpt>
      <trkpt lat="45.380654" lon="7.040909">
        <ele>2312.637</ele>
        <time>2018-07-18T16:03:53Z</time>
      </trkpt>
      <trkpt lat="45.380599" lon="7.040909">
        <ele>2312.781</ele>
        <time>2018-07-18T16:03:58Z</time>
      </trkpt>
      <trkpt lat="45.380549" lon="7.040907">
        <ele>2312.885</ele>
        <time>2018-07-18T16:04:03Z</time>
      </trkpt>
      <trkpt lat="45.380494" lon="7.040901">
        <ele>2312.853</ele>
        <time>2018-07-18T16:04:08Z</time>
      </trkpt>
      <trkpt lat="45.380447" lon="7.040892">
        <ele>2312.804</ele>
        <time>2018-07-18T16:04:12Z</time>
      </trkpt>
      <trkpt lat="45.380396" lon="7.040870">
        <ele>2312.814</ele>
        <time>2018-07-18T16:04:17Z</time>
      </trkpt>
      <trkpt lat="45.380353" lon="7.040850">
        <ele>2312.808</ele>
        <time>2018-07-18T16:04:21Z</time>
      </trkpt>
      <trkpt lat="45.380308" lon="7.040823">
        <ele>2312.867</ele>
        <time>2018-07-18T16:04:25Z</time>
      </trkpt>
      <trkpt lat="45.380265" lon="7.040789">
        <ele>2312.042</ele>
        <time>2018-07-18T16:04:29Z</time>
      </trkpt>
      <trkpt lat="45.380242" lon="7.040723">
        <ele>2311.967</ele>
        <time>2018-07-18T16:04:34Z</time>
      </trkpt>
      <trkpt lat="45.380250" lon="7.040654">
        <ele>2312.352</ele>
        <time>2018-07-18T16:04:43Z</time>
      </trkpt>
      <trkpt lat="45.380237" lon="7.040586">
        <ele>2312.536</ele>
        <time>2018-07-18T16:04:48Z</time>
      </trkpt>
      <trkpt lat="45.380229" lon="7.040518">
        <ele>2312.295</ele>
        <time>2018-07-18T16:04:53Z</time>
      </trkpt>
      <trkpt lat="45.380229" lon="7.040446">
        <ele>2312.419</ele>
        <time>2018-07-18T16:04:59Z</time>
      </trkpt>
      <trkpt lat="45.380224" lon="7.040380">
        <ele>2312.593</ele>
        <time>2018-07-18T16:05:04Z</time>
      </trkpt>
      <trkpt lat="45.380218" lon="7.040304">
        <ele>2313.069</ele>
        <time>2018-07-18T16:05:09Z</time>
      </trkpt>
      <trkpt lat="45.380226" lon="7.040231">
        <ele>2313.704</ele>
        <time>2018-07-18T16:05:14Z</time>
      </trkpt>
      <trkpt lat="45.380254" lon="7.040171">
        <ele>2314.524</ele>
        <time>2018-07-18T16:05:19Z</time>
      </trkpt>
      <trkpt lat="45.380289" lon="7.040112">
        <ele>2315.008</ele>
        <time>2018-07-18T16:05:23Z</time>
      </trkpt>
      <trkpt lat="45.380326" lon="7.040071">
        <ele>2315.748</ele>
        <time>2018-07-18T16:05:27Z</time>
      </trkpt>
      <trkpt lat="45.380360" lon="7.040025">
        <ele>2315.363</ele>
        <time>2018-07-18T16:05:35Z</time>
      </trkpt>
      <trkpt lat="45.380378" lon="7.039960">
        <ele>2315.578</ele>
        <time>2018-07-18T16:05:41Z</time>
      </trkpt>
      <trkpt lat="45.380401" lon="7.039903">
        <ele>2316.443</ele>
        <time>2018-07-18T16:05:46Z</time>
      </trkpt>
      <trkpt lat="45.380426" lon="7.039845">
        <ele>2316.957</ele>
        <time>2018-07-18T16:05:53Z</time>
      </trkpt>
      <trkpt lat="45.380466" lon="7.039795">
        <ele>2316.436</ele>
        <time>2018-07-18T16:06:01Z</time>
      </trkpt>
      <trkpt lat="45.380496" lon="7.039743">
        <ele>2316.580</ele>
        <time>2018-07-18T16:06:07Z</time>
      </trkpt>
      <trkpt lat="45.380537" lon="7.039697">
        <ele>2315.814</ele>
        <time>2018-07-18T16:06:14Z</time>
      </trkpt>
      <trkpt lat="45.380575" lon="7.039654">
        <ele>2316.636</ele>
        <time>2018-07-18T16:06:21Z</time>
      </trkpt>
      <trkpt lat="45.380582" lon="7.039576">
        <ele>2317.517</ele>
        <time>2018-07-18T16:06:37Z</time>
      </trkpt>
      <trkpt lat="45.380631" lon="7.039573">
        <ele>2319.218</ele>
        <time>2018-07-18T16:06:48Z</time>
      </trkpt>
      <trkpt lat="45.380676" lon="7.039535">
        <ele>2321.008</ele>
        <time>2018-07-18T16:06:54Z</time>
      </trkpt>
      <trkpt lat="45.380722" lon="7.039504">
        <ele>2322.185</ele>
        <time>2018-07-18T16:07:01Z</time>
      </trkpt>
      <trkpt lat="45.380731" lon="7.039436">
        <ele>2322.890</ele>
        <time>2018-07-18T16:07:15Z</time>
      </trkpt>
      <trkpt lat="45.380750" lon="7.039370">
        <ele>2323.285</ele>
        <time>2018-07-18T16:07:23Z</time>
      </trkpt>
      <trkpt lat="45.380787" lon="7.039329">
        <ele>2323.870</ele>
        <time>2018-07-18T16:07:30Z</time>
      </trkpt>
      <trkpt lat="45.380762" lon="7.039271">
        <ele>2325.844</ele>
        <time>2018-07-18T16:07:38Z</time>
      </trkpt>
      <trkpt lat="45.380732" lon="7.039222">
        <ele>2327.483</ele>
        <time>2018-07-18T16:07:44Z</time>
      </trkpt>
      <trkpt lat="45.380723" lon="7.039156">
        <ele>2328.897</ele>
        <time>2018-07-18T16:07:50Z</time>
      </trkpt>
      <trkpt lat="45.380697" lon="7.039092">
        <ele>2329.651</ele>
        <time>2018-07-18T16:07:57Z</time>
      </trkpt>
      <trkpt lat="45.380661" lon="7.039046">
        <ele>2330.527</ele>
        <time>2018-07-18T16:08:03Z</time>
      </trkpt>
      <trkpt lat="45.380623" lon="7.039007">
        <ele>2331.868</ele>
        <time>2018-07-18T16:08:09Z</time>
      </trkpt>
      <trkpt lat="45.380587" lon="7.038964">
        <ele>2333.014</ele>
        <time>2018-07-18T16:08:16Z</time>
      </trkpt>
      <trkpt lat="45.380552" lon="7.038920">
        <ele>2333.708</ele>
        <time>2018-07-18T16:08:24Z</time>
      </trkpt>
      <trkpt lat="45.380519" lon="7.038866">
        <ele>2334.554</ele>
        <time>2018-07-18T16:08:32Z</time>
      </trkpt>
      <trkpt lat="45.380484" lon="7.038818">
        <ele>2335.069</ele>
        <time>2018-07-18T16:08:39Z</time>
      </trkpt>
      <trkpt lat="45.380442" lon="7.038775">
        <ele>2335.774</ele>
        <time>2018-07-18T16:08:46Z</time>
      </trkpt>
      <trkpt lat="45.380404" lon="7.038725">
        <ele>2336.599</ele>
        <time>2018-07-18T16:08:52Z</time>
      </trkpt>
      <trkpt lat="45.380367" lon="7.038672">
        <ele>2337.883</ele>
        <time>2018-07-18T16:08:58Z</time>
      </trkpt>
      <trkpt lat="45.380334" lon="7.038627">
        <ele>2338.682</ele>
        <time>2018-07-18T16:09:04Z</time>
      </trkpt>
      <trkpt lat="45.380290" lon="7.038594">
        <ele>2339.116</ele>
        <time>2018-07-18T16:09:10Z</time>
      </trkpt>
      <trkpt lat="45.380250" lon="7.038547">
        <ele>2339.880</ele>
        <time>2018-07-18T16:09:17Z</time>
      </trkpt>
      <trkpt lat="45.380212" lon="7.038505">
        <ele>2340.677</ele>
        <time>2018-07-18T16:09:23Z</time>
      </trkpt>
      <trkpt lat="45.380174" lon="7.038450">
        <ele>2341.161</ele>
        <time>2018-07-18T16:09:29Z</time>
      </trkpt>
      <trkpt lat="45.380147" lon="7.038397">
        <ele>2341.827</ele>
        <time>2018-07-18T16:09:34Z</time>
      </trkpt>
      <trkpt lat="45.380122" lon="7.038344">
        <ele>2342.208</ele>
        <time>2018-07-18T16:09:40Z</time>
      </trkpt>
      <trkpt lat="45.380102" lon="7.038286">
        <ele>2342.879</ele>
        <time>2018-07-18T16:09:46Z</time>
      </trkpt>
      <trkpt lat="45.380077" lon="7.038217">
        <ele>2342.834</ele>
        <time>2018-07-18T16:09:52Z</time>
      </trkpt>
      <trkpt lat="45.380065" lon="7.038146">
        <ele>2343.219</ele>
        <time>2018-07-18T16:09:58Z</time>
      </trkpt>
      <trkpt lat="45.380053" lon="7.038074">
        <ele>2343.864</ele>
        <time>2018-07-18T16:10:04Z</time>
      </trkpt>
      <trkpt lat="45.380059" lon="7.038002">
        <ele>2344.218</ele>
        <time>2018-07-18T16:10:11Z</time>
      </trkpt>
      <trkpt lat="45.380046" lon="7.037940">
        <ele>2344.047</ele>
        <time>2018-07-18T16:10:17Z</time>
      </trkpt>
      <trkpt lat="45.380021" lon="7.037880">
        <ele>2343.991</ele>
        <time>2018-07-18T16:10:22Z</time>
      </trkpt>
      <trkpt lat="45.379996" lon="7.037816">
        <ele>2343.815</ele>
        <time>2018-07-18T16:10:27Z</time>
      </trkpt>
      <trkpt lat="45.379981" lon="7.037751">
        <ele>2344.287</ele>
        <time>2018-07-18T16:10:32Z</time>
      </trkpt>
      <trkpt lat="45.379968" lon="7.037689">
        <ele>2344.042</ele>
        <time>2018-07-18T16:10:36Z</time>
      </trkpt>
      <trkpt lat="45.379962" lon="7.037613">
        <ele>2343.926</ele>
        <time>2018-07-18T16:10:41Z</time>
      </trkpt>
      <trkpt lat="45.379959" lon="7.037540">
        <ele>2343.008</ele>
        <time>2018-07-18T16:10:46Z</time>
      </trkpt>
      <trkpt lat="45.379948" lon="7.037470">
        <ele>2342.520</ele>
        <time>2018-07-18T16:10:52Z</time>
      </trkpt>
      <trkpt lat="45.379937" lon="7.037398">
        <ele>2341.495</ele>
        <time>2018-07-18T16:10:58Z</time>
      </trkpt>
      <trkpt lat="45.379907" lon="7.037344">
        <ele>2341.190</ele>
        <time>2018-07-18T16:11:03Z</time>
      </trkpt>
      <trkpt lat="45.379875" lon="7.037281">
        <ele>2340.135</ele>
        <time>2018-07-18T16:11:08Z</time>
      </trkpt>
      <trkpt lat="45.379858" lon="7.037206">
        <ele>2339.929</ele>
        <time>2018-07-18T16:11:13Z</time>
      </trkpt>
      <trkpt lat="45.379849" lon="7.037128">
        <ele>2339.838</ele>
        <time>2018-07-18T16:11:18Z</time>
      </trkpt>
      <trkpt lat="45.379845" lon="7.037064">
        <ele>2339.772</ele>
        <time>2018-07-18T16:11:22Z</time>
      </trkpt>
      <trkpt lat="45.379849" lon="7.037000">
        <ele>2339.396</ele>
        <time>2018-07-18T16:11:26Z</time>
      </trkpt>
      <trkpt lat="45.379840" lon="7.036924">
        <ele>2339.491</ele>
        <time>2018-07-18T16:11:31Z</time>
      </trkpt>
      <trkpt lat="45.379827" lon="7.036861">
        <ele>2339.581</ele>
        <time>2018-07-18T16:11:35Z</time>
      </trkpt>
      <trkpt lat="45.379820" lon="7.036796">
        <ele>2339.519</ele>
        <time>2018-07-18T16:11:39Z</time>
      </trkpt>
      <trkpt lat="45.379827" lon="7.036732">
        <ele>2339.108</ele>
        <time>2018-07-18T16:11:43Z</time>
      </trkpt>
      <trkpt lat="45.379831" lon="7.036655">
        <ele>2338.941</ele>
        <time>2018-07-18T16:11:48Z</time>
      </trkpt>
      <trkpt lat="45.379818" lon="7.036585">
        <ele>2339.236</ele>
        <time>2018-07-18T16:11:53Z</time>
      </trkpt>
      <trkpt lat="45.379792" lon="7.036520">
        <ele>2339.841</ele>
        <time>2018-07-18T16:11:58Z</time>
      </trkpt>
      <trkpt lat="45.379768" lon="7.036464">
        <ele>2340.196</ele>
        <time>2018-07-18T16:12:02Z</time>
      </trkpt>
      <trkpt lat="45.379737" lon="7.036410">
        <ele>2340.320</ele>
        <time>2018-07-18T16:12:07Z</time>
      </trkpt>
      <trkpt lat="45.379707" lon="7.036354">
        <ele>2340.469</ele>
        <time>2018-07-18T16:12:13Z</time>
      </trkpt>
      <trkpt lat="45.379673" lon="7.036306">
        <ele>2340.953</ele>
        <time>2018-07-18T16:12:19Z</time>
      </trkpt>
      <trkpt lat="45.379643" lon="7.036251">
        <ele>2341.647</ele>
        <time>2018-07-18T16:12:25Z</time>
      </trkpt>
      <trkpt lat="45.379616" lon="7.036188">
        <ele>2342.067</ele>
        <time>2018-07-18T16:12:30Z</time>
      </trkpt>
      <trkpt lat="45.379595" lon="7.036125">
        <ele>2342.281</ele>
        <time>2018-07-18T16:12:36Z</time>
      </trkpt>
      <trkpt lat="45.379570" lon="7.036064">
        <ele>2342.719</ele>
        <time>2018-07-18T16:12:43Z</time>
      </trkpt>
      <trkpt lat="45.379547" lon="7.036007">
        <ele>2343.808</ele>
        <time>2018-07-18T16:12:51Z</time>
      </trkpt>
      <trkpt lat="45.379524" lon="7.035952">
        <ele>2344.918</ele>
        <time>2018-07-18T16:13:01Z</time>
      </trkpt>
      <trkpt lat="45.379512" lon="7.035882">
        <ele>2345.953</ele>
        <time>2018-07-18T16:13:11Z</time>
      </trkpt>
      <trkpt lat="45.379486" lon="7.035822">
        <ele>2346.998</ele>
        <time>2018-07-18T16:13:18Z</time>
      </trkpt>
      <trkpt lat="45.379456" lon="7.035760">
        <ele>2347.923</ele>
        <time>2018-07-18T16:13:25Z</time>
      </trkpt>
      <trkpt lat="45.379437" lon="7.035695">
        <ele>2348.537</ele>
        <time>2018-07-18T16:13:32Z</time>
      </trkpt>
      <trkpt lat="45.379413" lon="7.035640">
        <ele>2348.946</ele>
        <time>2018-07-18T16:13:39Z</time>
      </trkpt>
      <trkpt lat="45.379378" lon="7.035587">
        <ele>2349.560</ele>
        <time>2018-07-18T16:13:45Z</time>
      </trkpt>
      <trkpt lat="45.379370" lon="7.035519">
        <ele>2349.954</ele>
        <time>2018-07-18T16:13:51Z</time>
      </trkpt>
      <trkpt lat="45.379404" lon="7.035466">
        <ele>2349.798</ele>
        <time>2018-07-18T16:13:57Z</time>
      </trkpt>
      <trkpt lat="45.379435" lon="7.035419">
        <ele>2348.815</ele>
        <time>2018-07-18T16:14:02Z</time>
      </trkpt>
      <trkpt lat="45.379467" lon="7.035364">
        <ele>2347.926</ele>
        <time>2018-07-18T16:14:07Z</time>
      </trkpt>
      <trkpt lat="45.379472" lon="7.035300">
        <ele>2347.308</ele>
        <time>2018-07-18T16:14:12Z</time>
      </trkpt>
      <trkpt lat="45.379439" lon="7.035239">
        <ele>2347.451</ele>
        <time>2018-07-18T16:14:17Z</time>
      </trkpt>
      <trkpt lat="45.379403" lon="7.035198">
        <ele>2347.816</ele>
        <time>2018-07-18T16:14:22Z</time>
      </trkpt>
      <trkpt lat="45.379356" lon="7.035167">
        <ele>2348.911</ele>
        <time>2018-07-18T16:14:28Z</time>
      </trkpt>
      <trkpt lat="45.379313" lon="7.035147">
        <ele>2350.386</ele>
        <time>2018-07-18T16:14:34Z</time>
      </trkpt>
      <trkpt lat="45.379282" lon="7.035100">
        <ele>2351.650</ele>
        <time>2018-07-18T16:14:43Z</time>
      </trkpt>
      <trkpt lat="45.379271" lon="7.035033">
        <ele>2352.879</ele>
        <time>2018-07-18T16:14:52Z</time>
      </trkpt>
      <trkpt lat="45.379272" lon="7.034966">
        <ele>2353.583</ele>
        <time>2018-07-18T16:14:58Z</time>
      </trkpt>
      <trkpt lat="45.379249" lon="7.034902">
        <ele>2354.397</ele>
        <time>2018-07-18T16:15:04Z</time>
      </trkpt>
      <trkpt lat="45.379210" lon="7.034853">
        <ele>2355.299</ele>
        <time>2018-07-18T16:15:10Z</time>
      </trkpt>
      <trkpt lat="45.379171" lon="7.034807">
        <ele>2356.507</ele>
        <time>2018-07-18T16:15:15Z</time>
      </trkpt>
      <trkpt lat="45.379135" lon="7.034765">
        <ele>2357.727</ele>
        <time>2018-07-18T16:15:21Z</time>
      </trkpt>
      <trkpt lat="45.379106" lon="7.034711">
        <ele>2358.808</ele>
        <time>2018-07-18T16:15:29Z</time>
      </trkpt>
      <trkpt lat="45.379074" lon="7.034665">
        <ele>2359.951</ele>
        <time>2018-07-18T16:15:36Z</time>
      </trkpt>
      <trkpt lat="45.379038" lon="7.034624">
        <ele>2360.926</ele>
        <time>2018-07-18T16:15:45Z</time>
      </trkpt>
      <trkpt lat="45.379008" lon="7.034571">
        <ele>2362.321</ele>
        <time>2018-07-18T16:15:55Z</time>
      </trkpt>
      <trkpt lat="45.378972" lon="7.034524">
        <ele>2363.616</ele>
        <time>2018-07-18T16:16:04Z</time>
      </trkpt>
      <trkpt lat="45.378951" lon="7.034459">
        <ele>2366.090</ele>
        <time>2018-07-18T16:17:43Z</time>
      </trkpt>
      <trkpt lat="45.378918" lon="7.034404">
        <ele>2367.069</ele>
        <time>2018-07-18T16:17:49Z</time>
      </trkpt>
      <trkpt lat="45.378878" lon="7.034356">
        <ele>2367.683</ele>
        <time>2018-07-18T16:17:54Z</time>
      </trkpt>
      <trkpt lat="45.378839" lon="7.034313">
        <ele>2368.027</ele>
        <time>2018-07-18T16:17:59Z</time>
      </trkpt>
      <trkpt lat="45.378808" lon="7.034264">
        <ele>2368.685</ele>
        <time>2018-07-18T16:18:04Z</time>
      </trkpt>
      <trkpt lat="45.378771" lon="7.034215">
        <ele>2368.689</ele>
        <time>2018-07-18T16:18:10Z</time>
      </trkpt>
      <trkpt lat="45.378732" lon="7.034168">
        <ele>2369.017</ele>
        <time>2018-07-18T16:18:15Z</time>
      </trkpt>
      <trkpt lat="45.378697" lon="7.034114">
        <ele>2369.208</ele>
        <time>2018-07-18T16:18:20Z</time>
      </trkpt>
      <trkpt lat="45.378662" lon="7.034056">
        <ele>2370.120</ele>
        <time>2018-07-18T16:18:25Z</time>
      </trkpt>
      <trkpt lat="45.378633" lon="7.034004">
        <ele>2370.735</ele>
        <time>2018-07-18T16:18:30Z</time>
      </trkpt>
      <trkpt lat="45.378599" lon="7.033949">
        <ele>2371.830</ele>
        <time>2018-07-18T16:18:36Z</time>
      </trkpt>
      <trkpt lat="45.378568" lon="7.033896">
        <ele>2373.375</ele>
        <time>2018-07-18T16:18:42Z</time>
      </trkpt>
      <trkpt lat="45.378543" lon="7.033840">
        <ele>2374.239</ele>
        <time>2018-07-18T16:18:49Z</time>
      </trkpt>
      <trkpt lat="45.378523" lon="7.033778">
        <ele>2374.728</ele>
        <time>2018-07-18T16:19:01Z</time>
      </trkpt>
      <trkpt lat="45.378490" lon="7.033724">
        <ele>2375.442</ele>
        <time>2018-07-18T16:19:13Z</time>
      </trkpt>
      <trkpt lat="45.378446" lon="7.033686">
        <ele>2376.276</ele>
        <time>2018-07-18T16:19:20Z</time>
      </trkpt>
      <trkpt lat="45.378406" lon="7.033638">
        <ele>2377.168</ele>
        <time>2018-07-18T16:19:27Z</time>
      </trkpt>
      <trkpt lat="45.378377" lon="7.033588">
        <ele>2378.042</ele>
        <time>2018-07-18T16:19:33Z</time>
      </trkpt>
      <trkpt lat="45.378357" lon="7.033530">
        <ele>2378.626</ele>
        <time>2018-07-18T16:19:40Z</time>
      </trkpt>
      <trkpt lat="45.378344" lon="7.033464">
        <ele>2379.308</ele>
        <time>2018-07-18T16:19:47Z</time>
      </trkpt>
      <trkpt lat="45.378323" lon="7.033400">
        <ele>2379.778</ele>
        <time>2018-07-18T16:19:54Z</time>
      </trkpt>
      <trkpt lat="45.378293" lon="7.033345">
        <ele>2380.083</ele>
        <time>2018-07-18T16:19:59Z</time>
      </trkpt>
      <trkpt lat="45.378267" lon="7.033290">
        <ele>2380.288</ele>
        <time>2018-07-18T16:20:05Z</time>
      </trkpt>
      <trkpt lat="45.378244" lon="7.033229">
        <ele>2380.743</ele>
        <time>2018-07-18T16:20:11Z</time>
      </trkpt>
      <trkpt lat="45.378220" lon="7.033174">
        <ele>2381.027</ele>
        <time>2018-07-18T16:20:16Z</time>
      </trkpt>
      <trkpt lat="45.378197" lon="7.033109">
        <ele>2381.216</ele>
        <time>2018-07-18T16:20:22Z</time>
      </trkpt>
      <trkpt lat="45.378181" lon="7.033040">
        <ele>2380.910</ele>
        <time>2018-07-18T16:20:28Z</time>
      </trkpt>
      <trkpt lat="45.378165" lon="7.032979">
        <ele>2380.784</ele>
        <time>2018-07-18T16:20:33Z</time>
      </trkpt>
      <trkpt lat="45.378168" lon="7.032912">
        <ele>2380.688</ele>
        <time>2018-07-18T16:20:38Z</time>
      </trkpt>
      <trkpt lat="45.378192" lon="7.032857">
        <ele>2380.124</ele>
        <time>2018-07-18T16:20:44Z</time>
      </trkpt>
      <trkpt lat="45.378219" lon="7.032795">
        <ele>2379.426</ele>
        <time>2018-07-18T16:21:22Z</time>
      </trkpt>
      <trkpt lat="45.378236" lon="7.032735">
        <ele>2379.008</ele>
        <time>2018-07-18T16:21:30Z</time>
      </trkpt>
      <trkpt lat="45.378239" lon="7.032660">
        <ele>2380.020</ele>
        <time>2018-07-18T16:21:37Z</time>
      </trkpt>
      <trkpt lat="45.378226" lon="7.032596">
        <ele>2381.015</ele>
        <time>2018-07-18T16:21:42Z</time>
      </trkpt>
      <trkpt lat="45.378211" lon="7.032534">
        <ele>2382.490</ele>
        <time>2018-07-18T16:21:47Z</time>
      </trkpt>
      <trkpt lat="45.378186" lon="7.032479">
        <ele>2383.635</ele>
        <time>2018-07-18T16:22:00Z</time>
      </trkpt>
      <trkpt lat="45.378161" lon="7.032424">
        <ele>2384.799</ele>
        <time>2018-07-18T16:22:09Z</time>
      </trkpt>
      <trkpt lat="45.378135" lon="7.032366">
        <ele>2385.848</ele>
        <time>2018-07-18T16:22:15Z</time>
      </trkpt>
      <trkpt lat="45.378102" lon="7.032290">
        <ele>2386.442</ele>
        <time>2018-07-18T16:22:24Z</time>
      </trkpt>
      <trkpt lat="45.378074" lon="7.032234">
        <ele>2387.696</ele>
        <time>2018-07-18T16:22:30Z</time>
      </trkpt>
      <trkpt lat="45.378044" lon="7.032181">
        <ele>2388.792</ele>
        <time>2018-07-18T16:22:36Z</time>
      </trkpt>
      <trkpt lat="45.378014" lon="7.032123">
        <ele>2389.873</ele>
        <time>2018-07-18T16:22:43Z</time>
      </trkpt>
      <trkpt lat="45.377986" lon="7.032067">
        <ele>2391.220</ele>
        <time>2018-07-18T16:22:48Z</time>
      </trkpt>
      <trkpt lat="45.377957" lon="7.032010">
        <ele>2391.708</ele>
        <time>2018-07-18T16:22:57Z</time>
      </trkpt>
      <trkpt lat="45.377942" lon="7.031949">
        <ele>2392.491</ele>
        <time>2018-07-18T16:23:09Z</time>
      </trkpt>
      <trkpt lat="45.377928" lon="7.031887">
        <ele>2393.676</ele>
        <time>2018-07-18T16:23:20Z</time>
      </trkpt>
      <trkpt lat="45.377905" lon="7.031823">
        <ele>2394.781</ele>
        <time>2018-07-18T16:23:29Z</time>
      </trkpt>
      <trkpt lat="45.377878" lon="7.031763">
        <ele>2395.876</ele>
        <time>2018-07-18T16:23:37Z</time>
      </trkpt>
      <trkpt lat="45.377849" lon="7.031714">
        <ele>2396.860</ele>
        <time>2018-07-18T16:23:44Z</time>
      </trkpt>
      <trkpt lat="45.377819" lon="7.031665">
        <ele>2397.839</ele>
        <time>2018-07-18T16:23:52Z</time>
      </trkpt>
      <trkpt lat="45.377786" lon="7.031612">
        <ele>2399.213</ele>
        <time>2018-07-18T16:24:01Z</time>
      </trkpt>
      <trkpt lat="45.377765" lon="7.031553">
        <ele>2400.057</ele>
        <time>2018-07-18T16:24:09Z</time>
      </trkpt>
      <trkpt lat="45.377768" lon="7.031483">
        <ele>2400.515</ele>
        <time>2018-07-18T16:24:19Z</time>
      </trkpt>
      <trkpt lat="45.377741" lon="7.031422">
        <ele>2401.265</ele>
        <time>2018-07-18T16:24:26Z</time>
      </trkpt>
      <trkpt lat="45.377716" lon="7.031366">
        <ele>2402.011</ele>
        <time>2018-07-18T16:24:34Z</time>
      </trkpt>
      <trkpt lat="45.377698" lon="7.031307">
        <ele>2404.908</ele>
        <time>2018-07-18T16:25:22Z</time>
      </trkpt>
      <trkpt lat="45.377670" lon="7.031252">
        <ele>2408.223</ele>
        <time>2018-07-18T16:25:33Z</time>
      </trkpt>
      <trkpt lat="45.377635" lon="7.031212">
        <ele>2411.078</ele>
        <time>2018-07-18T16:25:41Z</time>
      </trkpt>
      <trkpt lat="45.377596" lon="7.031167">
        <ele>2413.963</ele>
        <time>2018-07-18T16:25:53Z</time>
      </trkpt>
      <trkpt lat="45.377553" lon="7.031137">
        <ele>2416.058</ele>
        <time>2018-07-18T16:26:02Z</time>
      </trkpt>
      <trkpt lat="45.377516" lon="7.031089">
        <ele>2418.172</ele>
        <time>2018-07-18T16:26:13Z</time>
      </trkpt>
      <trkpt lat="45.377483" lon="7.031037">
        <ele>2418.961</ele>
        <time>2018-07-18T16:26:22Z</time>
      </trkpt>
      <trkpt lat="45.377450" lon="7.030993">
        <ele>2419.875</ele>
        <time>2018-07-18T16:26:28Z</time>
      </trkpt>
      <trkpt lat="45.377421" lon="7.030939">
        <ele>2420.339</ele>
        <time>2018-07-18T16:26:36Z</time>
      </trkpt>
      <trkpt lat="45.377397" lon="7.030883">
        <ele>2420.681</ele>
        <time>2018-07-18T16:26:44Z</time>
      </trkpt>
      <trkpt lat="45.377359" lon="7.030843">
        <ele>2421.261</ele>
        <time>2018-07-18T16:26:52Z</time>
      </trkpt>
      <trkpt lat="45.377326" lon="7.030793">
        <ele>2421.617</ele>
        <time>2018-07-18T16:27:01Z</time>
      </trkpt>
      <trkpt lat="45.377288" lon="7.030748">
        <ele>2422.208</ele>
        <time>2018-07-18T16:27:09Z</time>
      </trkpt>
      <trkpt lat="45.377254" lon="7.030698">
        <ele>2423.040</ele>
        <time>2018-07-18T16:27:16Z</time>
      </trkpt>
      <trkpt lat="45.377223" lon="7.030647">
        <ele>2423.915</ele>
        <time>2018-07-18T16:27:24Z</time>
      </trkpt>
      <trkpt lat="45.377196" lon="7.030588">
        <ele>2424.420</ele>
        <time>2018-07-18T16:27:31Z</time>
      </trkpt>
      <trkpt lat="45.377167" lon="7.030536">
        <ele>2425.525</ele>
        <time>2018-07-18T16:27:38Z</time>
      </trkpt>
      <trkpt lat="45.377129" lon="7.030481">
        <ele>2426.619</ele>
        <time>2018-07-18T16:28:12Z</time>
      </trkpt>
      <trkpt lat="45.377091" lon="7.030441">
        <ele>2427.278</ele>
        <time>2018-07-18T16:28:24Z</time>
      </trkpt>
      <trkpt lat="45.377054" lon="7.030396">
        <ele>2428.482</ele>
        <time>2018-07-18T16:28:31Z</time>
      </trkpt>
      <trkpt lat="45.377036" lon="7.030334">
        <ele>2429.936</ele>
        <time>2018-07-18T16:28:40Z</time>
      </trkpt>
      <trkpt lat="45.377017" lon="7.030275">
        <ele>2431.284</ele>
        <time>2018-07-18T16:28:52Z</time>
      </trkpt>
      <trkpt lat="45.377004" lon="7.030206">
        <ele>2432.807</ele>
        <time>2018-07-18T16:29:01Z</time>
      </trkpt>
      <trkpt lat="45.376985" lon="7.030130">
        <ele>2434.217</ele>
        <time>2018-07-18T16:29:38Z</time>
      </trkpt>
      <trkpt lat="45.376978" lon="7.030062">
        <ele>2435.408</ele>
        <time>2018-07-18T16:29:46Z</time>
      </trkpt>
      <trkpt lat="45.376962" lon="7.029996">
        <ele>2436.590</ele>
        <time>2018-07-18T16:29:53Z</time>
      </trkpt>
      <trkpt lat="45.376937" lon="7.029939">
        <ele>2437.655</ele>
        <time>2018-07-18T16:30:00Z</time>
      </trkpt>
      <trkpt lat="45.376918" lon="7.029878">
        <ele>2438.660</ele>
        <time>2018-07-18T16:30:08Z</time>
      </trkpt>
      <trkpt lat="45.376896" lon="7.029816">
        <ele>2440.075</ele>
        <time>2018-07-18T16:30:16Z</time>
      </trkpt>
      <trkpt lat="45.376876" lon="7.029753">
        <ele>2441.399</ele>
        <time>2018-07-18T16:30:23Z</time>
      </trkpt>
      <trkpt lat="45.376864" lon="7.029681">
        <ele>2442.138</ele>
        <time>2018-07-18T16:30:30Z</time>
      </trkpt>
      <trkpt lat="45.376865" lon="7.029608">
        <ele>2442.692</ele>
        <time>2018-07-18T16:30:37Z</time>
      </trkpt>
      <trkpt lat="45.376865" lon="7.029535">
        <ele>2443.326</ele>
        <time>2018-07-18T16:30:44Z</time>
      </trkpt>
      <trkpt lat="45.376853" lon="7.029470">
        <ele>2443.726</ele>
        <time>2018-07-18T16:30:51Z</time>
      </trkpt>
      <trkpt lat="45.376834" lon="7.029405">
        <ele>2444.347</ele>
        <time>2018-07-18T16:30:58Z</time>
      </trkpt>
      <trkpt lat="45.376816" lon="7.029339">
        <ele>2445.111</ele>
        <time>2018-07-18T16:31:06Z</time>
      </trkpt>
      <trkpt lat="45.376795" lon="7.029277">
        <ele>2445.608</ele>
        <time>2018-07-18T16:31:14Z</time>
      </trkpt>
      <trkpt lat="45.376793" lon="7.029209">
        <ele>2445.924</ele>
        <time>2018-07-18T16:31:24Z</time>
      </trkpt>
      <trkpt lat="45.376806" lon="7.029144">
        <ele>2445.749</ele>
        <time>2018-07-18T16:31:41Z</time>
      </trkpt>
      <trkpt lat="45.376761" lon="7.029118">
        <ele>2446.464</ele>
        <time>2018-07-18T16:31:52Z</time>
      </trkpt>
      <trkpt lat="45.376723" lon="7.029082">
        <ele>2447.659</ele>
        <time>2018-07-18T16:32:00Z</time>
      </trkpt>
      <trkpt lat="45.376703" lon="7.029024">
        <ele>2448.733</ele>
        <time>2018-07-18T16:32:13Z</time>
      </trkpt>
      <trkpt lat="45.376678" lon="7.028965">
        <ele>2450.212</ele>
        <time>2018-07-18T16:32:22Z</time>
      </trkpt>
      <trkpt lat="45.376657" lon="7.028907">
        <ele>2451.156</ele>
        <time>2018-07-18T16:33:10Z</time>
      </trkpt>
      <trkpt lat="45.376639" lon="7.028847">
        <ele>2452.060</ele>
        <time>2018-07-18T16:34:18Z</time>
      </trkpt>
      <trkpt lat="45.376614" lon="7.028793">
        <ele>2452.619</ele>
        <time>2018-07-18T16:34:27Z</time>
      </trkpt>
      <trkpt lat="45.376601" lon="7.028731">
        <ele>2453.309</ele>
        <time>2018-07-18T16:34:40Z</time>
      </trkpt>
      <trkpt lat="45.376589" lon="7.028666">
        <ele>2454.519</ele>
        <time>2018-07-18T16:34:52Z</time>
      </trkpt>
      <trkpt lat="45.376566" lon="7.028609">
        <ele>2455.208</ele>
        <time>2018-07-18T16:35:05Z</time>
      </trkpt>
      <trkpt lat="45.376537" lon="7.028555">
        <ele>2457.213</ele>
        <time>2018-07-18T16:35:36Z</time>
      </trkpt>
      <trkpt lat="45.376507" lon="7.028504">
        <ele>2458.478</ele>
        <time>2018-07-18T16:35:44Z</time>
      </trkpt>
      <trkpt lat="45.376473" lon="7.028460">
        <ele>2458.783</ele>
        <time>2018-07-18T16:35:52Z</time>
      </trkpt>
      <trkpt lat="45.376443" lon="7.028411">
        <ele>2458.948</ele>
        <time>2018-07-18T16:36:00Z</time>
      </trkpt>
      <trkpt lat="45.376415" lon="7.028358">
        <ele>2459.842</ele>
        <time>2018-07-18T16:36:08Z</time>
      </trkpt>
      <trkpt lat="45.376387" lon="7.028306">
        <ele>2460.071</ele>
        <time>2018-07-18T16:36:16Z</time>
      </trkpt>
      <trkpt lat="45.376359" lon="7.028254">
        <ele>2460.915</ele>
        <time>2018-07-18T16:36:28Z</time>
      </trkpt>
      <trkpt lat="45.376333" lon="7.028202">
        <ele>2461.899</ele>
        <time>2018-07-18T16:36:41Z</time>
      </trkpt>
      <trkpt lat="45.376315" lon="7.028141">
        <ele>2462.486</ele>
        <time>2018-07-18T16:36:53Z</time>
      </trkpt>
      <trkpt lat="45.376290" lon="7.028085">
        <ele>2463.960</ele>
        <time>2018-07-18T16:37:11Z</time>
      </trkpt>
      <trkpt lat="45.376253" lon="7.028044">
        <ele>2465.626</ele>
        <time>2018-07-18T16:37:22Z</time>
      </trkpt>
      <trkpt lat="45.376233" lon="7.027986">
        <ele>2467.408</ele>
        <time>2018-07-18T16:37:54Z</time>
      </trkpt>
      <trkpt lat="45.376212" lon="7.027926">
        <ele>2468.920</ele>
        <time>2018-07-18T16:38:07Z</time>
      </trkpt>
      <trkpt lat="45.376200" lon="7.027861">
        <ele>2471.075</ele>
        <time>2018-07-18T16:38:20Z</time>
      </trkpt>
      <trkpt lat="45.376196" lon="7.027796">
        <ele>2472.790</ele>
        <time>2018-07-18T16:38:33Z</time>
      </trkpt>
      <trkpt lat="45.376193" lon="7.027730">
        <ele>2475.315</ele>
        <time>2018-07-18T16:38:54Z</time>
      </trkpt>
      <trkpt lat="45.376150" lon="7.027709">
        <ele>2478.179</ele>
        <time>2018-07-18T16:39:08Z</time>
      </trkpt>
      <trkpt lat="45.376111" lon="7.027672">
        <ele>2479.848</ele>
        <time>2018-07-18T16:39:19Z</time>
      </trkpt>
      <trkpt lat="45.376070" lon="7.027645">
        <ele>2480.882</ele>
        <time>2018-07-18T16:39:25Z</time>
      </trkpt>
      <trkpt lat="45.376026" lon="7.027605">
        <ele>2481.466</ele>
        <time>2018-07-18T16:39:31Z</time>
      </trkpt>
      <trkpt lat="45.375995" lon="7.027554">
        <ele>2481.482</ele>
        <time>2018-07-18T16:39:38Z</time>
      </trkpt>
      <trkpt lat="45.375968" lon="7.027499">
        <ele>2480.643</ele>
        <time>2018-07-18T16:39:53Z</time>
      </trkpt>
      <trkpt lat="45.375926" lon="7.027463">
        <ele>2480.517</ele>
        <time>2018-07-18T16:40:14Z</time>
      </trkpt>
      <trkpt lat="45.375885" lon="7.027429">
        <ele>2481.608</ele>
        <time>2018-07-18T16:40:25Z</time>
      </trkpt>
      <trkpt lat="45.375849" lon="7.027378">
        <ele>2481.590</ele>
        <time>2018-07-18T16:40:34Z</time>
      </trkpt>
      <trkpt lat="45.375809" lon="7.027345">
        <ele>2481.835</ele>
        <time>2018-07-18T16:40:40Z</time>
      </trkpt>
      <trkpt lat="45.375765" lon="7.027312">
        <ele>2481.610</ele>
        <time>2018-07-18T16:40:49Z</time>
      </trkpt>
      <trkpt lat="45.375736" lon="7.027255">
        <ele>2481.965</ele>
        <time>2018-07-18T16:40:58Z</time>
      </trkpt>
      <trkpt lat="45.375698" lon="7.027218">
        <ele>2482.929</ele>
        <time>2018-07-18T16:41:09Z</time>
      </trkpt>
      <trkpt lat="45.375654" lon="7.027194">
        <ele>2483.968</ele>
        <time>2018-07-18T16:41:17Z</time>
      </trkpt>
      <trkpt lat="45.375614" lon="7.027149">
        <ele>2484.552</ele>
        <time>2018-07-18T16:41:23Z</time>
      </trkpt>
      <trkpt lat="45.375581" lon="7.027100">
        <ele>2485.366</ele>
        <time>2018-07-18T16:41:28Z</time>
      </trkpt>
      <trkpt lat="45.375555" lon="7.027042">
        <ele>2486.259</ele>
        <time>2018-07-18T16:41:35Z</time>
      </trkpt>
      <trkpt lat="45.375519" lon="7.026989">
        <ele>2486.303</ele>
        <time>2018-07-18T16:41:42Z</time>
      </trkpt>
      <trkpt lat="45.375477" lon="7.026951">
        <ele>2486.423</ele>
        <time>2018-07-18T16:41:49Z</time>
      </trkpt>
      <trkpt lat="45.375432" lon="7.026935">
        <ele>2486.808</ele>
        <time>2018-07-18T16:41:55Z</time>
      </trkpt>
      <trkpt lat="45.375392" lon="7.026900">
        <ele>2486.757</ele>
        <time>2018-07-18T16:42:00Z</time>
      </trkpt>
      <trkpt lat="45.375348" lon="7.026863">
        <ele>2486.622</ele>
        <time>2018-07-18T16:42:07Z</time>
      </trkpt>
      <trkpt lat="45.375311" lon="7.026815">
        <ele>2487.087</ele>
        <time>2018-07-18T16:42:14Z</time>
      </trkpt>
      <trkpt lat="45.375283" lon="7.026765">
        <ele>2487.632</ele>
        <time>2018-07-18T16:42:20Z</time>
      </trkpt>
      <trkpt lat="45.375250" lon="7.026717">
        <ele>2488.066</ele>
        <time>2018-07-18T16:42:26Z</time>
      </trkpt>
      <trkpt lat="45.375219" lon="7.026665">
        <ele>2488.215</ele>
        <time>2018-07-18T16:42:32Z</time>
      </trkpt>
      <trkpt lat="45.375184" lon="7.026622">
        <ele>2487.949</ele>
        <time>2018-07-18T16:42:38Z</time>
      </trkpt>
      <trkpt lat="45.375139" lon="7.026590">
        <ele>2487.763</ele>
        <time>2018-07-18T16:42:44Z</time>
      </trkpt>
      <trkpt lat="45.375096" lon="7.026564">
        <ele>2488.428</ele>
        <time>2018-07-18T16:42:52Z</time>
      </trkpt>
      <trkpt lat="45.375056" lon="7.026531">
        <ele>2489.689</ele>
        <time>2018-07-18T16:43:07Z</time>
      </trkpt>
      <trkpt lat="45.375020" lon="7.026480">
        <ele>2491.117</ele>
        <time>2018-07-18T16:43:28Z</time>
      </trkpt>
      <trkpt lat="45.374976" lon="7.026454">
        <ele>2492.808</ele>
        <time>2018-07-18T16:43:41Z</time>
      </trkpt>
      <trkpt lat="45.374938" lon="7.026407">
        <ele>2494.654</ele>
        <time>2018-07-18T16:44:03Z</time>
      </trkpt>
      <trkpt lat="45.374897" lon="7.026376">
        <ele>2496.939</ele>
        <time>2018-07-18T16:44:20Z</time>
      </trkpt>
      <trkpt lat="45.374880" lon="7.026315">
        <ele>2499.184</ele>
        <time>2018-07-18T16:44:34Z</time>
      </trkpt>
      <trkpt lat="45.374831" lon="7.026296">
        <ele>2500.449</ele>
        <time>2018-07-18T16:44:44Z</time>
      </trkpt>
      <trkpt lat="45.374792" lon="7.026255">
        <ele>2501.613</ele>
        <time>2018-07-18T16:44:52Z</time>
      </trkpt>
      <trkpt lat="45.374755" lon="7.026213">
        <ele>2502.372</ele>
        <time>2018-07-18T16:44:59Z</time>
      </trkpt>
      <trkpt lat="45.374728" lon="7.026161">
        <ele>2502.756</ele>
        <time>2018-07-18T16:45:05Z</time>
      </trkpt>
      <trkpt lat="45.374700" lon="7.026094">
        <ele>2503.060</ele>
        <time>2018-07-18T16:45:11Z</time>
      </trkpt>
      <trkpt lat="45.374671" lon="7.026034">
        <ele>2503.232</ele>
        <time>2018-07-18T16:45:17Z</time>
      </trkpt>
      <trkpt lat="45.374635" lon="7.025979">
        <ele>2503.392</ele>
        <time>2018-07-18T16:45:23Z</time>
      </trkpt>
      <trkpt lat="45.374606" lon="7.025924">
        <ele>2503.411</ele>
        <time>2018-07-18T16:45:28Z</time>
      </trkpt>
      <trkpt lat="45.374581" lon="7.025865">
        <ele>2503.808</ele>
        <time>2018-07-18T16:45:34Z</time>
      </trkpt>
      <trkpt lat="45.374553" lon="7.025811">
        <ele>2504.515</ele>
        <time>2018-07-18T16:45:41Z</time>
      </trkpt>
      <trkpt lat="45.374520" lon="7.025751">
        <ele>2504.570</ele>
        <time>2018-07-18T16:45:46Z</time>
      </trkpt>
      <trkpt lat="45.374493" lon="7.025697">
        <ele>2504.525</ele>
        <time>2018-07-18T16:45:51Z</time>
      </trkpt>
      <trkpt lat="45.374460" lon="7.025639">
        <ele>2504.940</ele>
        <time>2018-07-18T16:45:57Z</time>
      </trkpt>
      <trkpt lat="45.374432" lon="7.025581">
        <ele>2505.914</ele>
        <time>2018-07-18T16:46:03Z</time>
      </trkpt>
      <trkpt lat="45.374389" lon="7.025545">
        <ele>2506.933</ele>
        <time>2018-07-18T16:46:09Z</time>
      </trkpt>
      <trkpt lat="45.374340" lon="7.025517">
        <ele>2507.127</ele>
        <time>2018-07-18T16:46:19Z</time>
      </trkpt>
      <trkpt lat="45.374297" lon="7.025479">
        <ele>2507.291</ele>
        <time>2018-07-18T16:46:24Z</time>
      </trkpt>
      <trkpt lat="45.374253" lon="7.025432">
        <ele>2506.994</ele>
        <time>2018-07-18T16:46:29Z</time>
      </trkpt>
      <trkpt lat="45.374217" lon="7.025387">
        <ele>2506.357</ele>
        <time>2018-07-18T16:46:33Z</time>
      </trkpt>
      <trkpt lat="45.374175" lon="7.025339">
        <ele>2505.522</ele>
        <time>2018-07-18T16:46:38Z</time>
      </trkpt>
      <trkpt lat="45.374138" lon="7.025290">
        <ele>2505.008</ele>
        <time>2018-07-18T16:46:43Z</time>
      </trkpt>
      <trkpt lat="45.374113" lon="7.025234">
        <ele>2504.321</ele>
        <time>2018-07-18T16:46:49Z</time>
      </trkpt>
      <trkpt lat="45.374085" lon="7.025182">
        <ele>2503.516</ele>
        <time>2018-07-18T16:46:55Z</time>
      </trkpt>
      <trkpt lat="45.374054" lon="7.025129">
        <ele>2503.061</ele>
        <time>2018-07-18T16:47:01Z</time>
      </trkpt>
      <trkpt lat="45.374016" lon="7.025078">
        <ele>2502.326</ele>
        <time>2018-07-18T16:47:07Z</time>
      </trkpt>
      <trkpt lat="45.373976" lon="7.025034">
        <ele>2502.340</ele>
        <time>2018-07-18T16:47:12Z</time>
      </trkpt>
      <trkpt lat="45.373937" lon="7.024979">
        <ele>2502.389</ele>
        <time>2018-07-18T16:47:17Z</time>
      </trkpt>
      <trkpt lat="45.373908" lon="7.024914">
        <ele>2502.753</ele>
        <time>2018-07-18T16:47:22Z</time>
      </trkpt>
      <trkpt lat="45.373880" lon="7.024859">
        <ele>2502.947</ele>
        <time>2018-07-18T16:47:26Z</time>
      </trkpt>
      <trkpt lat="45.373851" lon="7.024796">
        <ele>2503.049</ele>
        <time>2018-07-18T16:47:31Z</time>
      </trkpt>
      <trkpt lat="45.373835" lon="7.024727">
        <ele>2503.502</ele>
        <time>2018-07-18T16:47:36Z</time>
      </trkpt>
      <trkpt lat="45.373811" lon="7.024655">
        <ele>2503.422</ele>
        <time>2018-07-18T16:47:41Z</time>
      </trkpt>
      <trkpt lat="45.373784" lon="7.024600">
        <ele>2503.308</ele>
        <time>2018-07-18T16:47:45Z</time>
      </trkpt>
      <trkpt lat="45.373749" lon="7.024536">
        <ele>2503.736</ele>
        <time>2018-07-18T16:47:50Z</time>
      </trkpt>
      <trkpt lat="45.373722" lon="7.024480">
        <ele>2503.971</ele>
        <time>2018-07-18T16:47:54Z</time>
      </trkpt>
      <trkpt lat="45.373705" lon="7.024412">
        <ele>2503.676</ele>
        <time>2018-07-18T16:47:59Z</time>
      </trkpt>
      <trkpt lat="45.373682" lon="7.024353">
        <ele>2503.071</ele>
        <time>2018-07-18T16:48:04Z</time>
      </trkpt>
      <trkpt lat="45.373651" lon="7.024295">
        <ele>2502.395</ele>
        <time>2018-07-18T16:48:10Z</time>
      </trkpt>
      <trkpt lat="45.373621" lon="7.024242">
        <ele>2501.154</ele>
        <time>2018-07-18T16:48:17Z</time>
      </trkpt>
      <trkpt lat="45.373606" lon="7.024181">
        <ele>2499.648</ele>
        <time>2018-07-18T16:48:23Z</time>
      </trkpt>
      <trkpt lat="45.373576" lon="7.024129">
        <ele>2498.322</ele>
        <time>2018-07-18T16:48:31Z</time>
      </trkpt>
      <trkpt lat="45.373535" lon="7.024080">
        <ele>2497.941</ele>
        <time>2018-07-18T16:48:37Z</time>
      </trkpt>
      <trkpt lat="45.373502" lon="7.024018">
        <ele>2497.381</ele>
        <time>2018-07-18T16:48:42Z</time>
      </trkpt>
      <trkpt lat="45.373470" lon="7.023955">
        <ele>2496.909</ele>
        <time>2018-07-18T16:48:47Z</time>
      </trkpt>
      <trkpt lat="45.373450" lon="7.023889">
        <ele>2497.108</ele>
        <time>2018-07-18T16:48:53Z</time>
      </trkpt>
      <trkpt lat="45.373445" lon="7.023819">
        <ele>2497.236</ele>
        <time>2018-07-18T16:49:00Z</time>
      </trkpt>
      <trkpt lat="45.373448" lon="7.023752">
        <ele>2497.341</ele>
        <time>2018-07-18T16:49:06Z</time>
      </trkpt>
      <trkpt lat="45.373444" lon="7.023686">
        <ele>2496.556</ele>
        <time>2018-07-18T16:49:11Z</time>
      </trkpt>
      <trkpt lat="45.373447" lon="7.023619">
        <ele>2496.011</ele>
        <time>2018-07-18T16:49:17Z</time>
      </trkpt>
      <trkpt lat="45.373451" lon="7.023553">
        <ele>2496.955</ele>
        <time>2018-07-18T16:49:26Z</time>
      </trkpt>
      <trkpt lat="45.373426" lon="7.023495">
        <ele>2497.974</ele>
        <time>2018-07-18T16:49:32Z</time>
      </trkpt>
      <trkpt lat="45.373400" lon="7.023441">
        <ele>2498.588</ele>
        <time>2018-07-18T16:49:38Z</time>
      </trkpt>
      <trkpt lat="45.373384" lon="7.023369">
        <ele>2498.892</ele>
        <time>2018-07-18T16:49:44Z</time>
      </trkpt>
      <trkpt lat="45.373381" lon="7.023302">
        <ele>2499.015</ele>
        <time>2018-07-18T16:49:49Z</time>
      </trkpt>
      <trkpt lat="45.373380" lon="7.023236">
        <ele>2498.365</ele>
        <time>2018-07-18T16:49:54Z</time>
      </trkpt>
      <trkpt lat="45.373377" lon="7.023161">
        <ele>2497.511</ele>
        <time>2018-07-18T16:50:00Z</time>
      </trkpt>
      <trkpt lat="45.373346" lon="7.023104">
        <ele>2496.608</ele>
        <time>2018-07-18T16:50:05Z</time>
      </trkpt>
      <trkpt lat="45.373324" lon="7.023034">
        <ele>2495.753</ele>
        <time>2018-07-18T16:50:11Z</time>
      </trkpt>
      <trkpt lat="45.373329" lon="7.022955">
        <ele>2494.738</ele>
        <time>2018-07-18T16:50:27Z</time>
      </trkpt>
      <trkpt lat="45.373354" lon="7.022901">
        <ele>2494.143</ele>
        <time>2018-07-18T16:50:48Z</time>
      </trkpt>
      <trkpt lat="45.373334" lon="7.022834">
        <ele>2493.038</ele>
        <time>2018-07-18T16:50:55Z</time>
      </trkpt>
      <trkpt lat="45.373309" lon="7.022775">
        <ele>2491.952</ele>
        <time>2018-07-18T16:51:06Z</time>
      </trkpt>
      <trkpt lat="45.373296" lon="7.022708">
        <ele>2490.841</ele>
        <time>2018-07-18T16:51:16Z</time>
      </trkpt>
      <trkpt lat="45.373273" lon="7.022643">
        <ele>2489.875</ele>
        <time>2018-07-18T16:51:21Z</time>
      </trkpt>
      <trkpt lat="45.373263" lon="7.022571">
        <ele>2488.829</ele>
        <time>2018-07-18T16:51:26Z</time>
      </trkpt>
      <trkpt lat="45.373252" lon="7.022503">
        <ele>2488.278</ele>
        <time>2018-07-18T16:51:31Z</time>
      </trkpt>
      <trkpt lat="45.373230" lon="7.022445">
        <ele>2487.833</ele>
        <time>2018-07-18T16:51:36Z</time>
      </trkpt>
      <trkpt lat="45.373206" lon="7.022385">
        <ele>2487.626</ele>
        <time>2018-07-18T16:51:47Z</time>
      </trkpt>
      <trkpt lat="45.373190" lon="7.022319">
        <ele>2486.708</ele>
        <time>2018-07-18T16:51:56Z</time>
      </trkpt>
      <trkpt lat="45.373171" lon="7.022254">
        <ele>2486.189</ele>
        <time>2018-07-18T16:52:03Z</time>
      </trkpt>
      <trkpt lat="45.373143" lon="7.022203">
        <ele>2487.094</ele>
        <time>2018-07-18T16:52:14Z</time>
      </trkpt>
      <trkpt lat="45.373113" lon="7.022150">
        <ele>2487.599</ele>
        <time>2018-07-18T16:52:19Z</time>
      </trkpt>
      <trkpt lat="45.373075" lon="7.022099">
        <ele>2488.224</ele>
        <time>2018-07-18T16:52:24Z</time>
      </trkpt>
      <trkpt lat="45.373039" lon="7.022050">
        <ele>2488.228</ele>
        <time>2018-07-18T16:52:29Z</time>
      </trkpt>
      <trkpt lat="45.372996" lon="7.022023">
        <ele>2489.447</ele>
        <time>2018-07-18T16:52:35Z</time>
      </trkpt>
      <trkpt lat="45.372949" lon="7.022004">
        <ele>2490.551</ele>
        <time>2018-07-18T16:52:41Z</time>
      </trkpt>
      <trkpt lat="45.372908" lon="7.021955">
        <ele>2491.235</ele>
        <time>2018-07-18T16:52:46Z</time>
      </trkpt>
      <trkpt lat="45.372868" lon="7.021919">
        <ele>2492.069</ele>
        <time>2018-07-18T16:52:51Z</time>
      </trkpt>
      <trkpt lat="45.372825" lon="7.021877">
        <ele>2492.504</ele>
        <time>2018-07-18T16:53:05Z</time>
      </trkpt>
      <trkpt lat="45.372793" lon="7.021829">
        <ele>2492.824</ele>
        <time>2018-07-18T16:53:11Z</time>
      </trkpt>
      <trkpt lat="45.372762" lon="7.021782">
        <ele>2493.008</ele>
        <time>2018-07-18T16:53:16Z</time>
      </trkpt>
      <trkpt lat="45.372738" lon="7.021724">
        <ele>2493.178</ele>
        <time>2018-07-18T16:53:25Z</time>
      </trkpt>
      <trkpt lat="45.372731" lon="7.021651">
        <ele>2492.823</ele>
        <time>2018-07-18T16:53:32Z</time>
      </trkpt>
      <trkpt lat="45.372726" lon="7.021571">
        <ele>2492.268</ele>
        <time>2018-07-18T16:53:37Z</time>
      </trkpt>
      <trkpt lat="45.372710" lon="7.021500">
        <ele>2491.883</ele>
        <time>2018-07-18T16:53:42Z</time>
      </trkpt>
      <trkpt lat="45.372664" lon="7.021476">
        <ele>2491.697</ele>
        <time>2018-07-18T16:53:50Z</time>
      </trkpt>
      <trkpt lat="45.372617" lon="7.021487">
        <ele>2491.586</ele>
        <time>2018-07-18T16:53:55Z</time>
      </trkpt>
      <trkpt lat="45.372570" lon="7.021516">
        <ele>2491.430</ele>
        <time>2018-07-18T16:54:00Z</time>
      </trkpt>
      <trkpt lat="45.372542" lon="7.021572">
        <ele>2492.634</ele>
        <time>2018-07-18T16:54:24Z</time>
      </trkpt>
      <trkpt lat="45.372506" lon="7.021612">
        <ele>2493.733</ele>
        <time>2018-07-18T16:55:01Z</time>
      </trkpt>
      <trkpt lat="45.372456" lon="7.021629">
        <ele>2493.223</ele>
        <time>2018-07-18T16:55:08Z</time>
      </trkpt>
      <trkpt lat="45.372425" lon="7.021675">
        <ele>2492.115</ele>
        <time>2018-07-18T16:55:19Z</time>
      </trkpt>
      <trkpt lat="45.372378" lon="7.021650">
        <ele>2490.608</ele>
        <time>2018-07-18T16:55:51Z</time>
      </trkpt>
      <trkpt lat="45.372332" lon="7.021634">
        <ele>2489.725</ele>
        <time>2018-07-18T16:55:59Z</time>
      </trkpt>
      <trkpt lat="45.372287" lon="7.021625">
        <ele>2488.080</ele>
        <time>2018-07-18T16:56:06Z</time>
      </trkpt>
      <trkpt lat="45.372239" lon="7.021610">
        <ele>2486.675</ele>
        <time>2018-07-18T16:56:11Z</time>
      </trkpt>
      <trkpt lat="45.372193" lon="7.021587">
        <ele>2485.740</ele>
        <time>2018-07-18T16:56:16Z</time>
      </trkpt>
      <trkpt lat="45.372150" lon="7.021549">
        <ele>2484.834</ele>
        <time>2018-07-18T16:56:21Z</time>
      </trkpt>
      <trkpt lat="45.372109" lon="7.021511">
        <ele>2483.883</ele>
        <time>2018-07-18T16:56:27Z</time>
      </trkpt>
      <trkpt lat="45.372103" lon="7.021579">
        <ele>2484.067</ele>
        <time>2018-07-18T16:56:42Z</time>
      </trkpt>
      <trkpt lat="45.372105" lon="7.021651">
        <ele>2483.721</ele>
        <time>2018-07-18T16:56:47Z</time>
      </trkpt>
      <trkpt lat="45.372060" lon="7.021653">
        <ele>2482.369</ele>
        <time>2018-07-18T16:56:56Z</time>
      </trkpt>
      <trkpt lat="45.372024" lon="7.021609">
        <ele>2480.304</ele>
        <time>2018-07-18T16:57:03Z</time>
      </trkpt>
      <trkpt lat="45.371994" lon="7.021659">
        <ele>2478.724</ele>
        <time>2018-07-18T16:57:14Z</time>
      </trkpt>
      <trkpt lat="45.371980" lon="7.021723">
        <ele>2477.308</ele>
        <time>2018-07-18T16:57:21Z</time>
      </trkpt>
      <trkpt lat="45.371963" lon="7.021795">
        <ele>2476.548</ele>
        <time>2018-07-18T16:57:29Z</time>
      </trkpt>
      <trkpt lat="45.371944" lon="7.021857">
        <ele>2475.613</ele>
        <time>2018-07-18T16:57:36Z</time>
      </trkpt>
      <trkpt lat="45.371900" lon="7.021876">
        <ele>2473.158</ele>
        <time>2018-07-18T16:57:48Z</time>
      </trkpt>
      <trkpt lat="45.371877" lon="7.021815">
        <ele>2471.213</ele>
        <time>2018-07-18T16:57:54Z</time>
      </trkpt>
      <trkpt lat="45.371843" lon="7.021761">
        <ele>2469.687</ele>
        <time>2018-07-18T16:57:59Z</time>
      </trkpt>
      <trkpt lat="45.371810" lon="7.021715">
        <ele>2468.376</ele>
        <time>2018-07-18T16:58:03Z</time>
      </trkpt>
      <trkpt lat="45.371781" lon="7.021655">
        <ele>2467.520</ele>
        <time>2018-07-18T16:58:08Z</time>
      </trkpt>
      <trkpt lat="45.371742" lon="7.021608">
        <ele>2467.094</ele>
        <time>2018-07-18T16:58:15Z</time>
      </trkpt>
      <trkpt lat="45.371703" lon="7.021567">
        <ele>2466.798</ele>
        <time>2018-07-18T16:58:21Z</time>
      </trkpt>
      <trkpt lat="45.371668" lon="7.021523">
        <ele>2466.915</ele>
        <time>2018-07-18T16:58:26Z</time>
      </trkpt>
      <trkpt lat="45.371633" lon="7.021480">
        <ele>2466.626</ele>
        <time>2018-07-18T16:58:30Z</time>
      </trkpt>
      <trkpt lat="45.371592" lon="7.021448">
        <ele>2466.408</ele>
        <time>2018-07-18T16:58:36Z</time>
      </trkpt>
      <trkpt lat="45.371578" lon="7.021381">
        <ele>2466.731</ele>
        <time>2018-07-18T16:58:45Z</time>
      </trkpt>
      <trkpt lat="45.371528" lon="7.021358">
        <ele>2466.956</ele>
        <time>2018-07-18T16:58:51Z</time>
      </trkpt>
      <trkpt lat="45.371479" lon="7.021344">
        <ele>2467.051</ele>
        <time>2018-07-18T16:58:56Z</time>
      </trkpt>
      <trkpt lat="45.371430" lon="7.021326">
        <ele>2467.126</ele>
        <time>2018-07-18T16:59:01Z</time>
      </trkpt>
      <trkpt lat="45.371385" lon="7.021319">
        <ele>2467.980</ele>
        <time>2018-07-18T16:59:07Z</time>
      </trkpt>
      <trkpt lat="45.371338" lon="7.021312">
        <ele>2468.889</ele>
        <time>2018-07-18T16:59:13Z</time>
      </trkpt>
      <trkpt lat="45.371290" lon="7.021300">
        <ele>2470.163</ele>
        <time>2018-07-18T16:59:19Z</time>
      </trkpt>
      <trkpt lat="45.371245" lon="7.021314">
        <ele>2470.957</ele>
        <time>2018-07-18T16:59:25Z</time>
      </trkpt>
      <trkpt lat="45.371201" lon="7.021330">
        <ele>2471.852</ele>
        <time>2018-07-18T16:59:30Z</time>
      </trkpt>
      <trkpt lat="45.371154" lon="7.021359">
        <ele>2472.753</ele>
        <time>2018-07-18T16:59:36Z</time>
      </trkpt>
      <trkpt lat="45.371112" lon="7.021389">
        <ele>2473.708</ele>
        <time>2018-07-18T16:59:41Z</time>
      </trkpt>
      <trkpt lat="45.371064" lon="7.021412">
        <ele>2474.308</ele>
        <time>2018-07-18T16:59:46Z</time>
      </trkpt>
      <trkpt lat="45.371018" lon="7.021411">
        <ele>2474.637</ele>
        <time>2018-07-18T16:59:51Z</time>
      </trkpt>
      <trkpt lat="45.370965" lon="7.021404">
        <ele>2474.882</ele>
        <time>2018-07-18T16:59:57Z</time>
      </trkpt>
      <trkpt lat="45.370920" lon="7.021403">
        <ele>2475.317</ele>
        <time>2018-07-18T17:00:02Z</time>
      </trkpt>
      <trkpt lat="45.370870" lon="7.021411">
        <ele>2475.692</ele>
        <time>2018-07-18T17:00:19Z</time>
      </trkpt>
      <trkpt lat="45.370822" lon="7.021412">
        <ele>2475.856</ele>
        <time>2018-07-18T17:00:24Z</time>
      </trkpt>
      <trkpt lat="45.370772" lon="7.021409">
        <ele>2475.945</ele>
        <time>2018-07-18T17:00:29Z</time>
      </trkpt>
      <trkpt lat="45.370723" lon="7.021405">
        <ele>2475.659</ele>
        <time>2018-07-18T17:00:34Z</time>
      </trkpt>
      <trkpt lat="45.370674" lon="7.021382">
        <ele>2475.063</ele>
        <time>2018-07-18T17:00:40Z</time>
      </trkpt>
      <trkpt lat="45.370630" lon="7.021350">
        <ele>2474.669</ele>
        <time>2018-07-18T17:00:45Z</time>
      </trkpt>
      <trkpt lat="45.370585" lon="7.021324">
        <ele>2474.404</ele>
        <time>2018-07-18T17:00:50Z</time>
      </trkpt>
      <trkpt lat="45.370537" lon="7.021297">
        <ele>2474.324</ele>
        <time>2018-07-18T17:00:56Z</time>
      </trkpt>
      <trkpt lat="45.370490" lon="7.021277">
        <ele>2475.008</ele>
        <time>2018-07-18T17:01:04Z</time>
      </trkpt>
      <trkpt lat="45.370441" lon="7.021294">
        <ele>2475.498</ele>
        <time>2018-07-18T17:01:13Z</time>
      </trkpt>
      <trkpt lat="45.370411" lon="7.021351">
        <ele>2475.793</ele>
        <time>2018-07-18T17:01:20Z</time>
      </trkpt>
      <trkpt lat="45.370387" lon="7.021411">
        <ele>2476.368</ele>
        <time>2018-07-18T17:01:25Z</time>
      </trkpt>
      <trkpt lat="45.370361" lon="7.021464">
        <ele>2477.083</ele>
        <time>2018-07-18T17:01:30Z</time>
      </trkpt>
      <trkpt lat="45.370314" lon="7.021497">
        <ele>2477.827</ele>
        <time>2018-07-18T17:02:39Z</time>
      </trkpt>
      <trkpt lat="45.370271" lon="7.021520">
        <ele>2479.776</ele>
        <time>2018-07-18T17:07:24Z</time>
      </trkpt>
      <trkpt lat="45.370222" lon="7.021537">
        <ele>2478.560</ele>
        <time>2018-07-18T17:07:40Z</time>
      </trkpt>
      <trkpt lat="45.370173" lon="7.021532">
        <ele>2478.894</ele>
        <time>2018-07-18T17:07:47Z</time>
      </trkpt>
      <trkpt lat="45.370129" lon="7.021519">
        <ele>2479.469</ele>
        <time>2018-07-18T17:07:54Z</time>
      </trkpt>
      <trkpt lat="45.370078" lon="7.021522">
        <ele>2478.904</ele>
        <time>2018-07-18T17:08:01Z</time>
      </trkpt>
      <trkpt lat="45.370032" lon="7.021514">
        <ele>2479.124</ele>
        <time>2018-07-18T17:08:07Z</time>
      </trkpt>
      <trkpt lat="45.369980" lon="7.021508">
        <ele>2479.208</ele>
        <time>2018-07-18T17:08:26Z</time>
      </trkpt>
      <trkpt lat="45.369935" lon="7.021507">
        <ele>2480.118</ele>
        <time>2018-07-18T17:08:33Z</time>
      </trkpt>
      <trkpt lat="45.369890" lon="7.021504">
        <ele>2481.013</ele>
        <time>2018-07-18T17:08:39Z</time>
      </trkpt>
      <trkpt lat="45.369843" lon="7.021514">
        <ele>2482.018</ele>
        <time>2018-07-18T17:08:46Z</time>
      </trkpt>
      <trkpt lat="45.369794" lon="7.021514">
        <ele>2483.083</ele>
        <time>2018-07-18T17:08:54Z</time>
      </trkpt>
      <trkpt lat="45.369747" lon="7.021508">
        <ele>2483.647</ele>
        <time>2018-07-18T17:09:01Z</time>
      </trkpt>
      <trkpt lat="45.369702" lon="7.021501">
        <ele>2484.056</ele>
        <time>2018-07-18T17:09:08Z</time>
      </trkpt>
      <trkpt lat="45.369658" lon="7.021484">
        <ele>2484.230</ele>
        <time>2018-07-18T17:09:14Z</time>
      </trkpt>
      <trkpt lat="45.369611" lon="7.021448">
        <ele>2484.354</ele>
        <time>2018-07-18T17:09:21Z</time>
      </trkpt>
      <trkpt lat="45.369569" lon="7.021417">
        <ele>2484.865</ele>
        <time>2018-07-18T17:09:26Z</time>
      </trkpt>
      <trkpt lat="45.369526" lon="7.021384">
        <ele>2485.168</ele>
        <time>2018-07-18T17:09:32Z</time>
      </trkpt>
      <trkpt lat="45.369482" lon="7.021357">
        <ele>2485.314</ele>
        <time>2018-07-18T17:09:40Z</time>
      </trkpt>
      <trkpt lat="45.369436" lon="7.021330">
        <ele>2485.808</ele>
        <time>2018-07-18T17:09:49Z</time>
      </trkpt>
      <trkpt lat="45.369390" lon="7.021328">
        <ele>2486.548</ele>
        <time>2018-07-18T17:10:12Z</time>
      </trkpt>
      <trkpt lat="45.369341" lon="7.021312">
        <ele>2487.353</ele>
        <time>2018-07-18T17:10:23Z</time>
      </trkpt>
      <trkpt lat="45.369291" lon="7.021294">
        <ele>2488.288</ele>
        <time>2018-07-18T17:10:30Z</time>
      </trkpt>
      <trkpt lat="45.369239" lon="7.021281">
        <ele>2488.763</ele>
        <time>2018-07-18T17:10:36Z</time>
      </trkpt>
      <trkpt lat="45.369197" lon="7.021256">
        <ele>2489.067</ele>
        <time>2018-07-18T17:10:41Z</time>
      </trkpt>
      <trkpt lat="45.369152" lon="7.021232">
        <ele>2489.666</ele>
        <time>2018-07-18T17:10:46Z</time>
      </trkpt>
      <trkpt lat="45.369102" lon="7.021216">
        <ele>2490.090</ele>
        <time>2018-07-18T17:10:52Z</time>
      </trkpt>
      <trkpt lat="45.369056" lon="7.021196">
        <ele>2490.684</ele>
        <time>2018-07-18T17:10:59Z</time>
      </trkpt>
      <trkpt lat="45.369009" lon="7.021191">
        <ele>2491.085</ele>
        <time>2018-07-18T17:11:06Z</time>
      </trkpt>
      <trkpt lat="45.368961" lon="7.021201">
        <ele>2491.689</ele>
        <time>2018-07-18T17:11:13Z</time>
      </trkpt>
      <trkpt lat="45.368911" lon="7.021213">
        <ele>2492.817</ele>
        <time>2018-07-18T17:11:22Z</time>
      </trkpt>
      <trkpt lat="45.368863" lon="7.021210">
        <ele>2494.308</ele>
        <time>2018-07-18T17:11:32Z</time>
      </trkpt>
      <trkpt lat="45.368817" lon="7.021225">
        <ele>2495.680</ele>
        <time>2018-07-18T17:11:46Z</time>
      </trkpt>
      <trkpt lat="45.368776" lon="7.021255">
        <ele>2496.875</ele>
        <time>2018-07-18T17:11:58Z</time>
      </trkpt>
      <trkpt lat="45.368743" lon="7.021310">
        <ele>2498.310</ele>
        <time>2018-07-18T17:12:10Z</time>
      </trkpt>
      <trkpt lat="45.368700" lon="7.021347">
        <ele>2499.635</ele>
        <time>2018-07-18T17:12:22Z</time>
      </trkpt>
      <trkpt lat="45.368676" lon="7.021410">
        <ele>2500.469</ele>
        <time>2018-07-18T17:12:31Z</time>
      </trkpt>
      <trkpt lat="45.368652" lon="7.021464">
        <ele>2501.758</ele>
        <time>2018-07-18T17:12:39Z</time>
      </trkpt>
      <trkpt lat="45.368607" lon="7.021492">
        <ele>2502.922</ele>
        <time>2018-07-18T17:12:47Z</time>
      </trkpt>
      <trkpt lat="45.368561" lon="7.021523">
        <ele>2503.656</ele>
        <time>2018-07-18T17:12:54Z</time>
      </trkpt>
      <trkpt lat="45.368511" lon="7.021540">
        <ele>2504.441</ele>
        <time>2018-07-18T17:13:02Z</time>
      </trkpt>
      <trkpt lat="45.368460" lon="7.021563">
        <ele>2505.381</ele>
        <time>2018-07-18T17:13:09Z</time>
      </trkpt>
      <trkpt lat="45.368412" lon="7.021572">
        <ele>2505.809</ele>
        <time>2018-07-18T17:13:14Z</time>
      </trkpt>
      <trkpt lat="45.368361" lon="7.021568">
        <ele>2506.108</ele>
        <time>2018-07-18T17:13:20Z</time>
      </trkpt>
      <trkpt lat="45.368317" lon="7.021535">
        <ele>2506.326</ele>
        <time>2018-07-18T17:13:26Z</time>
      </trkpt>
      <trkpt lat="45.368280" lon="7.021495">
        <ele>2506.051</ele>
        <time>2018-07-18T17:13:31Z</time>
      </trkpt>
      <trkpt lat="45.368242" lon="7.021458">
        <ele>2505.886</ele>
        <time>2018-07-18T17:13:36Z</time>
      </trkpt>
      <trkpt lat="45.368206" lon="7.021404">
        <ele>2505.721</ele>
        <time>2018-07-18T17:13:42Z</time>
      </trkpt>
      <trkpt lat="45.368181" lon="7.021347">
        <ele>2505.645</ele>
        <time>2018-07-18T17:13:48Z</time>
      </trkpt>
      <trkpt lat="45.368145" lon="7.021297">
        <ele>2505.694</ele>
        <time>2018-07-18T17:13:56Z</time>
      </trkpt>
      <trkpt lat="45.368098" lon="7.021272">
        <ele>2506.418</ele>
        <time>2018-07-18T17:14:04Z</time>
      </trkpt>
      <trkpt lat="45.368054" lon="7.021254">
        <ele>2507.782</ele>
        <time>2018-07-18T17:14:13Z</time>
      </trkpt>
      <trkpt lat="45.368005" lon="7.021248">
        <ele>2509.759</ele>
        <time>2018-07-18T17:14:22Z</time>
      </trkpt>
      <trkpt lat="45.367957" lon="7.021249">
        <ele>2511.303</ele>
        <time>2018-07-18T17:14:30Z</time>
      </trkpt>
      <trkpt lat="45.367907" lon="7.021261">
        <ele>2512.223</ele>
        <time>2018-07-18T17:14:38Z</time>
      </trkpt>
      <trkpt lat="45.367862" lon="7.021274">
        <ele>2512.008</ele>
        <time>2018-07-18T17:14:44Z</time>
      </trkpt>
      <trkpt lat="45.367810" lon="7.021280">
        <ele>2512.337</ele>
        <time>2018-07-18T17:15:00Z</time>
      </trkpt>
      <trkpt lat="45.367762" lon="7.021263">
        <ele>2512.542</ele>
        <time>2018-07-18T17:15:07Z</time>
      </trkpt>
      <trkpt lat="45.367711" lon="7.021267">
        <ele>2512.637</ele>
        <time>2018-07-18T17:15:14Z</time>
      </trkpt>
      <trkpt lat="45.367661" lon="7.021249">
        <ele>2513.132</ele>
        <time>2018-07-18T17:15:21Z</time>
      </trkpt>
      <trkpt lat="45.367615" lon="7.021227">
        <ele>2514.266</ele>
        <time>2018-07-18T17:15:28Z</time>
      </trkpt>
      <trkpt lat="45.367571" lon="7.021200">
        <ele>2515.285</ele>
        <time>2018-07-18T17:15:35Z</time>
      </trkpt>
      <trkpt lat="45.367527" lon="7.021162">
        <ele>2516.239</ele>
        <time>2018-07-18T17:15:42Z</time>
      </trkpt>
      <trkpt lat="45.367482" lon="7.021124">
        <ele>2516.853</ele>
        <time>2018-07-18T17:15:49Z</time>
      </trkpt>
      <trkpt lat="45.367437" lon="7.021096">
        <ele>2517.697</ele>
        <time>2018-07-18T17:15:57Z</time>
      </trkpt>
      <trkpt lat="45.367389" lon="7.021072">
        <ele>2518.523</ele>
        <time>2018-07-18T17:16:05Z</time>
      </trkpt>
      <trkpt lat="45.367347" lon="7.021047">
        <ele>2519.425</ele>
        <time>2018-07-18T17:16:12Z</time>
      </trkpt>
      <trkpt lat="45.367299" lon="7.021032">
        <ele>2520.408</ele>
        <time>2018-07-18T17:16:22Z</time>
      </trkpt>
      <trkpt lat="45.367251" lon="7.021013">
        <ele>2521.431</ele>
        <time>2018-07-18T17:16:31Z</time>
      </trkpt>
      <trkpt lat="45.367207" lon="7.020978">
        <ele>2522.066</ele>
        <time>2018-07-18T17:16:40Z</time>
      </trkpt>
      <trkpt lat="45.367162" lon="7.020949">
        <ele>2522.721</ele>
        <time>2018-07-18T17:16:49Z</time>
      </trkpt>
      <trkpt lat="45.367119" lon="7.020924">
        <ele>2523.526</ele>
        <time>2018-07-18T17:16:56Z</time>
      </trkpt>
      <trkpt lat="45.367073" lon="7.020899">
        <ele>2524.010</ele>
        <time>2018-07-18T17:17:04Z</time>
      </trkpt>
      <trkpt lat="45.367030" lon="7.020878">
        <ele>2524.339</ele>
        <time>2018-07-18T17:17:11Z</time>
      </trkpt>
      <trkpt lat="45.366981" lon="7.020863">
        <ele>2525.393</ele>
        <time>2018-07-18T17:17:19Z</time>
      </trkpt>
      <trkpt lat="45.366932" lon="7.020875">
        <ele>2525.957</ele>
        <time>2018-07-18T17:17:27Z</time>
      </trkpt>
      <trkpt lat="45.366884" lon="7.020896">
        <ele>2526.739</ele>
        <time>2018-07-18T17:17:36Z</time>
      </trkpt>
      <trkpt lat="45.366839" lon="7.020920">
        <ele>2527.201</ele>
        <time>2018-07-18T17:17:45Z</time>
      </trkpt>
      <trkpt lat="45.366788" lon="7.020918">
        <ele>2527.921</ele>
        <time>2018-07-18T17:17:53Z</time>
      </trkpt>
      <trkpt lat="45.366741" lon="7.020903">
        <ele>2528.708</ele>
        <time>2018-07-18T17:18:00Z</time>
      </trkpt>
      <trkpt lat="45.366690" lon="7.020894">
        <ele>2529.665</ele>
        <time>2018-07-18T17:18:09Z</time>
      </trkpt>
      <trkpt lat="45.366642" lon="7.020892">
        <ele>2530.530</ele>
        <time>2018-07-18T17:18:17Z</time>
      </trkpt>
      <trkpt lat="45.366594" lon="7.020889">
        <ele>2531.985</ele>
        <time>2018-07-18T17:18:27Z</time>
      </trkpt>
      <trkpt lat="45.366549" lon="7.020878">
        <ele>2533.170</ele>
        <time>2018-07-18T17:18:34Z</time>
      </trkpt>
      <trkpt lat="45.366505" lon="7.020856">
        <ele>2534.224</ele>
        <time>2018-07-18T17:18:41Z</time>
      </trkpt>
      <trkpt lat="45.366456" lon="7.020828">
        <ele>2534.553</ele>
        <time>2018-07-18T17:18:48Z</time>
      </trkpt>
      <trkpt lat="45.366407" lon="7.020808">
        <ele>2534.727</ele>
        <time>2018-07-18T17:18:53Z</time>
      </trkpt>
      <trkpt lat="45.366363" lon="7.020784">
        <ele>2534.811</ele>
        <time>2018-07-18T17:18:58Z</time>
      </trkpt>
      <trkpt lat="45.366320" lon="7.020763">
        <ele>2535.385</ele>
        <time>2018-07-18T17:19:04Z</time>
      </trkpt>
      <trkpt lat="45.366274" lon="7.020730">
        <ele>2536.089</ele>
        <time>2018-07-18T17:19:11Z</time>
      </trkpt>
      <trkpt lat="45.366231" lon="7.020693">
        <ele>2536.817</ele>
        <time>2018-07-18T17:19:19Z</time>
      </trkpt>
      <trkpt lat="45.366187" lon="7.020667">
        <ele>2537.708</ele>
        <time>2018-07-18T17:19:26Z</time>
      </trkpt>
      <trkpt lat="45.366143" lon="7.020642">
        <ele>2538.210</ele>
        <time>2018-07-18T17:19:33Z</time>
      </trkpt>
      <trkpt lat="45.366098" lon="7.020632">
        <ele>2538.925</ele>
        <time>2018-07-18T17:19:40Z</time>
      </trkpt>
      <trkpt lat="45.366052" lon="7.020614">
        <ele>2539.760</ele>
        <time>2018-07-18T17:19:48Z</time>
      </trkpt>
      <trkpt lat="45.366023" lon="7.020561">
        <ele>2540.625</ele>
        <time>2018-07-18T17:19:57Z</time>
      </trkpt>
      <trkpt lat="45.365981" lon="7.020532">
        <ele>2541.919</ele>
        <time>2018-07-18T17:20:07Z</time>
      </trkpt>
      <trkpt lat="45.365938" lon="7.020507">
        <ele>2542.778</ele>
        <time>2018-07-18T17:20:15Z</time>
      </trkpt>
      <trkpt lat="45.365890" lon="7.020495">
        <ele>2543.652</ele>
        <time>2018-07-18T17:20:22Z</time>
      </trkpt>
      <trkpt lat="45.365840" lon="7.020498">
        <ele>2544.136</ele>
        <time>2018-07-18T17:20:28Z</time>
      </trkpt>
      <trkpt lat="45.365790" lon="7.020497">
        <ele>2544.884</ele>
        <time>2018-07-18T17:20:34Z</time>
      </trkpt>
      <trkpt lat="45.365744" lon="7.020504">
        <ele>2545.207</ele>
        <time>2018-07-18T17:20:40Z</time>
      </trkpt>
      <trkpt lat="45.365694" lon="7.020485">
        <ele>2545.517</ele>
        <time>2018-07-18T17:20:46Z</time>
      </trkpt>
      <trkpt lat="45.365648" lon="7.020470">
        <ele>2545.708</ele>
        <time>2018-07-18T17:20:51Z</time>
      </trkpt>
      <trkpt lat="45.365596" lon="7.020453">
        <ele>2545.420</ele>
        <time>2018-07-18T17:20:56Z</time>
      </trkpt>
      <trkpt lat="45.365547" lon="7.020434">
        <ele>2545.265</ele>
        <time>2018-07-18T17:21:01Z</time>
      </trkpt>
      <trkpt lat="45.365496" lon="7.020408">
        <ele>2545.590</ele>
        <time>2018-07-18T17:21:07Z</time>
      </trkpt>
      <trkpt lat="45.365452" lon="7.020388">
        <ele>2545.785</ele>
        <time>2018-07-18T17:21:12Z</time>
      </trkpt>
      <trkpt lat="45.365407" lon="7.020367">
        <ele>2545.849</ele>
        <time>2018-07-18T17:21:17Z</time>
      </trkpt>
      <trkpt lat="45.365360" lon="7.020350">
        <ele>2545.998</ele>
        <time>2018-07-18T17:21:22Z</time>
      </trkpt>
      <trkpt lat="45.365312" lon="7.020331">
        <ele>2545.992</ele>
        <time>2018-07-18T17:21:27Z</time>
      </trkpt>
      <trkpt lat="45.365266" lon="7.020298">
        <ele>2545.936</ele>
        <time>2018-07-18T17:21:32Z</time>
      </trkpt>
      <trkpt lat="45.365220" lon="7.020273">
        <ele>2545.917</ele>
        <time>2018-07-18T17:21:37Z</time>
      </trkpt>
      <trkpt lat="45.365167" lon="7.020256">
        <ele>2545.987</ele>
        <time>2018-07-18T17:21:43Z</time>
      </trkpt>
      <trkpt lat="45.365120" lon="7.020244">
        <ele>2545.515</ele>
        <time>2018-07-18T17:21:48Z</time>
      </trkpt>
      <trkpt lat="45.365072" lon="7.020236">
        <ele>2545.308</ele>
        <time>2018-07-18T17:21:53Z</time>
      </trkpt>
      <trkpt lat="45.365020" lon="7.020226">
        <ele>2544.873</ele>
        <time>2018-07-18T17:21:58Z</time>
      </trkpt>
      <trkpt lat="45.364967" lon="7.020214">
        <ele>2544.528</ele>
        <time>2018-07-18T17:22:03Z</time>
      </trkpt>
      <trkpt lat="45.364919" lon="7.020197">
        <ele>2543.993</ele>
        <time>2018-07-18T17:22:08Z</time>
      </trkpt>
      <trkpt lat="45.364871" lon="7.020184">
        <ele>2543.518</ele>
        <time>2018-07-18T17:22:13Z</time>
      </trkpt>
      <trkpt lat="45.364822" lon="7.020178">
        <ele>2543.392</ele>
        <time>2018-07-18T17:22:18Z</time>
      </trkpt>
      <trkpt lat="45.364770" lon="7.020158">
        <ele>2542.821</ele>
        <time>2018-07-18T17:22:23Z</time>
      </trkpt>
      <trkpt lat="45.364717" lon="7.020148">
        <ele>2542.545</ele>
        <time>2018-07-18T17:22:28Z</time>
      </trkpt>
      <trkpt lat="45.364664" lon="7.020144">
        <ele>2542.339</ele>
        <time>2018-07-18T17:22:33Z</time>
      </trkpt>
      <trkpt lat="45.364617" lon="7.020147">
        <ele>2542.284</ele>
        <time>2018-07-18T17:22:38Z</time>
      </trkpt>
      <trkpt lat="45.364567" lon="7.020140">
        <ele>2542.107</ele>
        <time>2018-07-18T17:22:44Z</time>
      </trkpt>
      <trkpt lat="45.364523" lon="7.020121">
        <ele>2541.717</ele>
        <time>2018-07-18T17:22:50Z</time>
      </trkpt>
      <trkpt lat="45.364476" lon="7.020094">
        <ele>2541.008</ele>
        <time>2018-07-18T17:22:55Z</time>
      </trkpt>
      <trkpt lat="45.364427" lon="7.020077">
        <ele>2540.240</ele>
        <time>2018-07-18T17:23:00Z</time>
      </trkpt>
      <trkpt lat="45.364381" lon="7.020052">
        <ele>2539.755</ele>
        <time>2018-07-18T17:23:05Z</time>
      </trkpt>
      <trkpt lat="45.364337" lon="7.020024">
        <ele>2539.090</ele>
        <time>2018-07-18T17:23:10Z</time>
      </trkpt>
      <trkpt lat="45.364291" lon="7.019993">
        <ele>2538.685</ele>
        <time>2018-07-18T17:23:15Z</time>
      </trkpt>
      <trkpt lat="45.364245" lon="7.019961">
        <ele>2538.059</ele>
        <time>2018-07-18T17:23:20Z</time>
      </trkpt>
      <trkpt lat="45.364194" lon="7.019927">
        <ele>2537.648</ele>
        <time>2018-07-18T17:23:25Z</time>
      </trkpt>
      <trkpt lat="45.364149" lon="7.019908">
        <ele>2537.412</ele>
        <time>2018-07-18T17:23:29Z</time>
      </trkpt>
      <trkpt lat="45.364097" lon="7.019882">
        <ele>2536.976</ele>
        <time>2018-07-18T17:23:34Z</time>
      </trkpt>
      <trkpt lat="45.364049" lon="7.019861">
        <ele>2536.648</ele>
        <time>2018-07-18T17:23:39Z</time>
      </trkpt>
      <trkpt lat="45.364004" lon="7.019851">
        <ele>2536.061</ele>
        <time>2018-07-18T17:23:43Z</time>
      </trkpt>
      <trkpt lat="45.363955" lon="7.019836">
        <ele>2535.217</ele>
        <time>2018-07-18T17:23:48Z</time>
      </trkpt>
      <trkpt lat="45.363903" lon="7.019815">
        <ele>2534.708</ele>
        <time>2018-07-18T17:23:53Z</time>
      </trkpt>
      <trkpt lat="45.363861" lon="7.019789">
        <ele>2534.066</ele>
        <time>2018-07-18T17:23:57Z</time>
      </trkpt>
      <trkpt lat="45.363820" lon="7.019762">
        <ele>2533.211</ele>
        <time>2018-07-18T17:24:03Z</time>
      </trkpt>
      <trkpt lat="45.363778" lon="7.019733">
        <ele>2532.326</ele>
        <time>2018-07-18T17:24:08Z</time>
      </trkpt>
      <trkpt lat="45.363735" lon="7.019704">
        <ele>2531.851</ele>
        <time>2018-07-18T17:24:12Z</time>
      </trkpt>
      <trkpt lat="45.363691" lon="7.019665">
        <ele>2531.525</ele>
        <time>2018-07-18T17:24:16Z</time>
      </trkpt>
      <trkpt lat="45.363646" lon="7.019630">
        <ele>2530.974</ele>
        <time>2018-07-18T17:24:20Z</time>
      </trkpt>
      <trkpt lat="45.363604" lon="7.019604">
        <ele>2530.198</ele>
        <time>2018-07-18T17:24:24Z</time>
      </trkpt>
      <trkpt lat="45.363560" lon="7.019577">
        <ele>2529.692</ele>
        <time>2018-07-18T17:24:28Z</time>
      </trkpt>
      <trkpt lat="45.363516" lon="7.019540">
        <ele>2529.788</ele>
        <time>2018-07-18T17:24:33Z</time>
      </trkpt>
      <trkpt lat="45.363470" lon="7.019500">
        <ele>2529.424</ele>
        <time>2018-07-18T17:24:38Z</time>
      </trkpt>
      <trkpt lat="45.363431" lon="7.019465">
        <ele>2528.826</ele>
        <time>2018-07-18T17:24:42Z</time>
      </trkpt>
      <trkpt lat="45.363391" lon="7.019425">
        <ele>2528.408</ele>
        <time>2018-07-18T17:24:46Z</time>
      </trkpt>
      <trkpt lat="45.363349" lon="7.019391">
        <ele>2527.820</ele>
        <time>2018-07-18T17:24:50Z</time>
      </trkpt>
      <trkpt lat="45.363309" lon="7.019355">
        <ele>2527.425</ele>
        <time>2018-07-18T17:24:54Z</time>
      </trkpt>
      <trkpt lat="45.363272" lon="7.019308">
        <ele>2527.270</ele>
        <time>2018-07-18T17:24:58Z</time>
      </trkpt>
      <trkpt lat="45.363231" lon="7.019262">
        <ele>2526.365</ele>
        <time>2018-07-18T17:25:02Z</time>
      </trkpt>
      <trkpt lat="45.363185" lon="7.019231">
        <ele>2525.399</ele>
        <time>2018-07-18T17:25:06Z</time>
      </trkpt>
      <trkpt lat="45.363148" lon="7.019193">
        <ele>2524.728</ele>
        <time>2018-07-18T17:25:10Z</time>
      </trkpt>
      <trkpt lat="45.363110" lon="7.019154">
        <ele>2524.442</ele>
        <time>2018-07-18T17:25:14Z</time>
      </trkpt>
      <trkpt lat="45.363065" lon="7.019109">
        <ele>2524.686</ele>
        <time>2018-07-18T17:25:19Z</time>
      </trkpt>
      <trkpt lat="45.363021" lon="7.019073">
        <ele>2524.757</ele>
        <time>2018-07-18T17:25:24Z</time>
      </trkpt>
      <trkpt lat="45.362983" lon="7.019030">
        <ele>2524.800</ele>
        <time>2018-07-18T17:25:29Z</time>
      </trkpt>
      <trkpt lat="45.362944" lon="7.018984">
        <ele>2524.420</ele>
        <time>2018-07-18T17:25:36Z</time>
      </trkpt>
      <trkpt lat="45.362896" lon="7.018959">
        <ele>2523.808</ele>
        <time>2018-07-18T17:25:42Z</time>
      </trkpt>
      <trkpt lat="45.362848" lon="7.018937">
        <ele>2523.447</ele>
        <time>2018-07-18T17:25:46Z</time>
      </trkpt>
      <trkpt lat="45.362803" lon="7.018927">
        <ele>2523.632</ele>
        <time>2018-07-18T17:25:50Z</time>
      </trkpt>
      <trkpt lat="45.362751" lon="7.018926">
        <ele>2523.727</ele>
        <time>2018-07-18T17:25:55Z</time>
      </trkpt>
      <trkpt lat="45.362696" lon="7.018919">
        <ele>2523.862</ele>
        <time>2018-07-18T17:26:00Z</time>
      </trkpt>
      <trkpt lat="45.362653" lon="7.018901">
        <ele>2523.816</ele>
        <time>2018-07-18T17:26:04Z</time>
      </trkpt>
      <trkpt lat="45.362605" lon="7.018894">
        <ele>2524.275</ele>
        <time>2018-07-18T17:26:09Z</time>
      </trkpt>
      <trkpt lat="45.362559" lon="7.018879">
        <ele>2524.539</ele>
        <time>2018-07-18T17:26:14Z</time>
      </trkpt>
      <trkpt lat="45.362513" lon="7.018884">
        <ele>2525.113</ele>
        <time>2018-07-18T17:26:20Z</time>
      </trkpt>
      <trkpt lat="45.362468" lon="7.018889">
        <ele>2525.437</ele>
        <time>2018-07-18T17:26:25Z</time>
      </trkpt>
      <trkpt lat="45.362423" lon="7.018875">
        <ele>2525.649</ele>
        <time>2018-07-18T17:26:30Z</time>
      </trkpt>
      <trkpt lat="45.362373" lon="7.018848">
        <ele>2525.713</ele>
        <time>2018-07-18T17:26:35Z</time>
      </trkpt>
      <trkpt lat="45.362328" lon="7.018814">
        <ele>2525.408</ele>
        <time>2018-07-18T17:26:40Z</time>
      </trkpt>
      <trkpt lat="45.362286" lon="7.018791">
        <ele>2525.625</ele>
        <time>2018-07-18T17:26:44Z</time>
      </trkpt>
      <trkpt lat="45.362243" lon="7.018746">
        <ele>2525.340</ele>
        <time>2018-07-18T17:26:54Z</time>
      </trkpt>
      <trkpt lat="45.362196" lon="7.018717">
        <ele>2525.565</ele>
        <time>2018-07-18T17:26:59Z</time>
      </trkpt>
      <trkpt lat="45.362150" lon="7.018702">
        <ele>2525.610</ele>
        <time>2018-07-18T17:27:03Z</time>
      </trkpt>
      <trkpt lat="45.362109" lon="7.018668">
        <ele>2525.734</ele>
        <time>2018-07-18T17:27:08Z</time>
      </trkpt>
      <trkpt lat="45.362073" lon="7.018616">
        <ele>2526.633</ele>
        <time>2018-07-18T17:27:13Z</time>
      </trkpt>
      <trkpt lat="45.362034" lon="7.018566">
        <ele>2527.187</ele>
        <time>2018-07-18T17:27:18Z</time>
      </trkpt>
      <trkpt lat="45.361989" lon="7.018519">
        <ele>2527.091</ele>
        <time>2018-07-18T17:27:23Z</time>
      </trkpt>
      <trkpt lat="45.361949" lon="7.018488">
        <ele>2526.951</ele>
        <time>2018-07-18T17:27:27Z</time>
      </trkpt>
      <trkpt lat="45.361902" lon="7.018449">
        <ele>2526.501</ele>
        <time>2018-07-18T17:27:32Z</time>
      </trkpt>
      <trkpt lat="45.361861" lon="7.018407">
        <ele>2526.211</ele>
        <time>2018-07-18T17:27:36Z</time>
      </trkpt>
      <trkpt lat="45.361819" lon="7.018367">
        <ele>2526.008</ele>
        <time>2018-07-18T17:27:41Z</time>
      </trkpt>
      <trkpt lat="45.361772" lon="7.018326">
        <ele>2525.927</ele>
        <time>2018-07-18T17:27:46Z</time>
      </trkpt>
      <trkpt lat="45.361728" lon="7.018287">
        <ele>2525.482</ele>
        <time>2018-07-18T17:27:50Z</time>
      </trkpt>
      <trkpt lat="45.361687" lon="7.018260">
        <ele>2524.797</ele>
        <time>2018-07-18T17:27:54Z</time>
      </trkpt>
      <trkpt lat="45.361643" lon="7.018218">
        <ele>2523.922</ele>
        <time>2018-07-18T17:27:59Z</time>
      </trkpt>
      <trkpt lat="45.361599" lon="7.018180">
        <ele>2523.456</ele>
        <time>2018-07-18T17:28:04Z</time>
      </trkpt>
      <trkpt lat="45.361564" lon="7.018131">
        <ele>2522.775</ele>
        <time>2018-07-18T17:28:08Z</time>
      </trkpt>
      <trkpt lat="45.361531" lon="7.018077">
        <ele>2522.369</ele>
        <time>2018-07-18T17:28:12Z</time>
      </trkpt>
      <trkpt lat="45.361496" lon="7.018029">
        <ele>2521.743</ele>
        <time>2018-07-18T17:28:16Z</time>
      </trkpt>
      <trkpt lat="45.361460" lon="7.017978">
        <ele>2520.917</ele>
        <time>2018-07-18T17:28:20Z</time>
      </trkpt>
      <trkpt lat="45.361420" lon="7.017924">
        <ele>2520.487</ele>
        <time>2018-07-18T17:28:25Z</time>
      </trkpt>
      <trkpt lat="45.361382" lon="7.017872">
        <ele>2519.315</ele>
        <time>2018-07-18T17:28:30Z</time>
      </trkpt>
      <trkpt lat="45.361345" lon="7.017834">
        <ele>2518.208</ele>
        <time>2018-07-18T17:28:34Z</time>
      </trkpt>
      <trkpt lat="45.361302" lon="7.017803">
        <ele>2517.663</ele>
        <time>2018-07-18T17:28:38Z</time>
      </trkpt>
      <trkpt lat="45.361256" lon="7.017775">
        <ele>2517.238</ele>
        <time>2018-07-18T17:28:42Z</time>
      </trkpt>
      <trkpt lat="45.361203" lon="7.017761">
        <ele>2517.073</ele>
        <time>2018-07-18T17:28:47Z</time>
      </trkpt>
      <trkpt lat="45.361149" lon="7.017741">
        <ele>2517.388</ele>
        <time>2018-07-18T17:28:52Z</time>
      </trkpt>
      <trkpt lat="45.361103" lon="7.017721">
        <ele>2517.592</ele>
        <time>2018-07-18T17:28:57Z</time>
      </trkpt>
      <trkpt lat="45.361051" lon="7.017699">
        <ele>2518.011</ele>
        <time>2018-07-18T17:29:03Z</time>
      </trkpt>
      <trkpt lat="45.361003" lon="7.017672">
        <ele>2518.775</ele>
        <time>2018-07-18T17:29:08Z</time>
      </trkpt>
      <trkpt lat="45.360956" lon="7.017635">
        <ele>2519.119</ele>
        <time>2018-07-18T17:29:13Z</time>
      </trkpt>
      <trkpt lat="45.360905" lon="7.017602">
        <ele>2519.454</ele>
        <time>2018-07-18T17:29:18Z</time>
      </trkpt>
      <trkpt lat="45.360860" lon="7.017580">
        <ele>2519.656</ele>
        <time>2018-07-18T17:29:22Z</time>
      </trkpt>
      <trkpt lat="45.360814" lon="7.017568">
        <ele>2519.711</ele>
        <time>2018-07-18T17:29:26Z</time>
      </trkpt>
      <trkpt lat="45.360760" lon="7.017554">
        <ele>2519.408</ele>
        <time>2018-07-18T17:29:31Z</time>
      </trkpt>
      <trkpt lat="45.360712" lon="7.017544">
        <ele>2519.237</ele>
        <time>2018-07-18T17:29:36Z</time>
      </trkpt>
      <trkpt lat="45.360665" lon="7.017530">
        <ele>2519.542</ele>
        <time>2018-07-18T17:29:40Z</time>
      </trkpt>
      <trkpt lat="45.360620" lon="7.017502">
        <ele>2519.367</ele>
        <time>2018-07-18T17:29:44Z</time>
      </trkpt>
      <trkpt lat="45.360580" lon="7.017463">
        <ele>2519.282</ele>
        <time>2018-07-18T17:29:48Z</time>
      </trkpt>
      <trkpt lat="45.360539" lon="7.017432">
        <ele>2518.746</ele>
        <time>2018-07-18T17:29:52Z</time>
      </trkpt>
      <trkpt lat="45.360491" lon="7.017393">
        <ele>2518.045</ele>
        <time>2018-07-18T17:29:57Z</time>
      </trkpt>
      <trkpt lat="45.360437" lon="7.017361">
        <ele>2517.299</ele>
        <time>2018-07-18T17:30:02Z</time>
      </trkpt>
      <trkpt lat="45.360407" lon="7.017308">
        <ele>2515.543</ele>
        <time>2018-07-18T17:30:06Z</time>
      </trkpt>
      <trkpt lat="45.360370" lon="7.017253">
        <ele>2514.586</ele>
        <time>2018-07-18T17:30:10Z</time>
      </trkpt>
      <trkpt lat="45.360331" lon="7.017203">
        <ele>2513.160</ele>
        <time>2018-07-18T17:30:14Z</time>
      </trkpt>
      <trkpt lat="45.360290" lon="7.017153">
        <ele>2512.326</ele>
        <time>2018-07-18T17:30:19Z</time>
      </trkpt>
      <trkpt lat="45.360254" lon="7.017107">
        <ele>2511.808</ele>
        <time>2018-07-18T17:30:27Z</time>
      </trkpt>
      <trkpt lat="45.360219" lon="7.017064">
        <ele>2511.540</ele>
        <time>2018-07-18T17:30:30Z</time>
      </trkpt>
      <trkpt lat="45.360173" lon="7.017028">
        <ele>2511.365</ele>
        <time>2018-07-18T17:30:35Z</time>
      </trkpt>
      <trkpt lat="45.360122" lon="7.016996">
        <ele>2511.650</ele>
        <time>2018-07-18T17:30:40Z</time>
      </trkpt>
      <trkpt lat="45.360079" lon="7.016961">
        <ele>2512.635</ele>
        <time>2018-07-18T17:30:45Z</time>
      </trkpt>
      <trkpt lat="45.360039" lon="7.016920">
        <ele>2512.859</ele>
        <time>2018-07-18T17:30:49Z</time>
      </trkpt>
      <trkpt lat="45.359992" lon="7.016889">
        <ele>2512.928</ele>
        <time>2018-07-18T17:30:53Z</time>
      </trkpt>
      <trkpt lat="45.359944" lon="7.016873">
        <ele>2512.622</ele>
        <time>2018-07-18T17:30:57Z</time>
      </trkpt>
      <trkpt lat="45.359896" lon="7.016835">
        <ele>2512.436</ele>
        <time>2018-07-18T17:31:01Z</time>
      </trkpt>
      <trkpt lat="45.359851" lon="7.016795">
        <ele>2512.325</ele>
        <time>2018-07-18T17:31:05Z</time>
      </trkpt>
      <trkpt lat="45.359806" lon="7.016760">
        <ele>2512.626</ele>
        <time>2018-07-18T17:31:09Z</time>
      </trkpt>
      <trkpt lat="45.359764" lon="7.016727">
        <ele>2512.808</ele>
        <time>2018-07-18T17:31:13Z</time>
      </trkpt>
      <trkpt lat="45.359720" lon="7.016700">
        <ele>2512.108</ele>
        <time>2018-07-18T17:31:17Z</time>
      </trkpt>
      <trkpt lat="45.359671" lon="7.016689">
        <ele>2511.714</ele>
        <time>2018-07-18T17:31:21Z</time>
      </trkpt>
      <trkpt lat="45.359624" lon="7.016670">
        <ele>2511.579</ele>
        <time>2018-07-18T17:31:25Z</time>
      </trkpt>
      <trkpt lat="45.359581" lon="7.016642">
        <ele>2511.434</ele>
        <time>2018-07-18T17:31:29Z</time>
      </trkpt>
      <trkpt lat="45.359538" lon="7.016617">
        <ele>2511.329</ele>
        <time>2018-07-18T17:31:33Z</time>
      </trkpt>
      <trkpt lat="45.359488" lon="7.016593">
        <ele>2511.663</ele>
        <time>2018-07-18T17:31:37Z</time>
      </trkpt>
      <trkpt lat="45.359445" lon="7.016564">
        <ele>2511.442</ele>
        <time>2018-07-18T17:31:41Z</time>
      </trkpt>
      <trkpt lat="45.359403" lon="7.016542">
        <ele>2510.966</ele>
        <time>2018-07-18T17:31:45Z</time>
      </trkpt>
      <trkpt lat="45.359357" lon="7.016512">
        <ele>2510.650</ele>
        <time>2018-07-18T17:31:49Z</time>
      </trkpt>
      <trkpt lat="45.359311" lon="7.016484">
        <ele>2510.451</ele>
        <time>2018-07-18T17:31:53Z</time>
      </trkpt>
      <trkpt lat="45.359261" lon="7.016470">
        <ele>2509.901</ele>
        <time>2018-07-18T17:31:57Z</time>
      </trkpt>
      <trkpt lat="45.359213" lon="7.016438">
        <ele>2509.611</ele>
        <time>2018-07-18T17:32:01Z</time>
      </trkpt>
      <trkpt lat="45.359167" lon="7.016409">
        <ele>2509.008</ele>
        <time>2018-07-18T17:32:05Z</time>
      </trkpt>
      <trkpt lat="45.359117" lon="7.016392">
        <ele>2508.617</ele>
        <time>2018-07-18T17:32:09Z</time>
      </trkpt>
      <trkpt lat="45.359071" lon="7.016383">
        <ele>2508.432</ele>
        <time>2018-07-18T17:32:13Z</time>
      </trkpt>
      <trkpt lat="45.359021" lon="7.016378">
        <ele>2508.347</ele>
        <time>2018-07-18T17:32:24Z</time>
      </trkpt>
      <trkpt lat="45.358966" lon="7.016383">
        <ele>2507.442</ele>
        <time>2018-07-18T17:32:29Z</time>
      </trkpt>
      <trkpt lat="45.358919" lon="7.016393">
        <ele>2506.576</ele>
        <time>2018-07-18T17:32:33Z</time>
      </trkpt>
      <trkpt lat="45.358874" lon="7.016398">
        <ele>2505.975</ele>
        <time>2018-07-18T17:32:37Z</time>
      </trkpt>
      <trkpt lat="45.358827" lon="7.016405">
        <ele>2505.279</ele>
        <time>2018-07-18T17:32:41Z</time>
      </trkpt>
      <trkpt lat="45.358779" lon="7.016403">
        <ele>2504.453</ele>
        <time>2018-07-18T17:32:46Z</time>
      </trkpt>
      <trkpt lat="45.358725" lon="7.016398">
        <ele>2503.592</ele>
        <time>2018-07-18T17:32:51Z</time>
      </trkpt>
      <trkpt lat="45.358675" lon="7.016389">
        <ele>2502.673</ele>
        <time>2018-07-18T17:32:55Z</time>
      </trkpt>
      <trkpt lat="45.358624" lon="7.016374">
        <ele>2501.620</ele>
        <time>2018-07-18T17:33:00Z</time>
      </trkpt>
      <trkpt lat="45.358580" lon="7.016354">
        <ele>2500.608</ele>
        <time>2018-07-18T17:33:04Z</time>
      </trkpt>
      <trkpt lat="45.358532" lon="7.016336">
        <ele>2499.611</ele>
        <time>2018-07-18T17:33:08Z</time>
      </trkpt>
      <trkpt lat="45.358487" lon="7.016301">
        <ele>2498.666</ele>
        <time>2018-07-18T17:33:12Z</time>
      </trkpt>
      <trkpt lat="45.358443" lon="7.016270">
        <ele>2497.631</ele>
        <time>2018-07-18T17:33:16Z</time>
      </trkpt>
      <trkpt lat="45.358404" lon="7.016233">
        <ele>2496.636</ele>
        <time>2018-07-18T17:33:20Z</time>
      </trkpt>
      <trkpt lat="45.358362" lon="7.016196">
        <ele>2496.060</ele>
        <time>2018-07-18T17:33:24Z</time>
      </trkpt>
      <trkpt lat="45.358321" lon="7.016156">
        <ele>2495.249</ele>
        <time>2018-07-18T17:33:28Z</time>
      </trkpt>
      <trkpt lat="45.358279" lon="7.016120">
        <ele>2494.333</ele>
        <time>2018-07-18T17:33:32Z</time>
      </trkpt>
      <trkpt lat="45.358237" lon="7.016081">
        <ele>2493.877</ele>
        <time>2018-07-18T17:33:36Z</time>
      </trkpt>
      <trkpt lat="45.358195" lon="7.016032">
        <ele>2493.553</ele>
        <time>2018-07-18T17:33:40Z</time>
      </trkpt>
      <trkpt lat="45.358155" lon="7.015991">
        <ele>2493.304</ele>
        <time>2018-07-18T17:33:44Z</time>
      </trkpt>
      <trkpt lat="45.358113" lon="7.015952">
        <ele>2492.814</ele>
        <time>2018-07-18T17:33:48Z</time>
      </trkpt>
      <trkpt lat="45.358072" lon="7.015915">
        <ele>2492.508</ele>
        <time>2018-07-18T17:33:52Z</time>
      </trkpt>
      <trkpt lat="45.358030" lon="7.015881">
        <ele>2492.347</ele>
        <time>2018-07-18T17:33:56Z</time>
      </trkpt>
      <trkpt lat="45.357988" lon="7.015841">
        <ele>2491.842</ele>
        <time>2018-07-18T17:34:00Z</time>
      </trkpt>
      <trkpt lat="45.357943" lon="7.015799">
        <ele>2491.527</ele>
        <time>2018-07-18T17:34:04Z</time>
      </trkpt>
      <trkpt lat="45.357899" lon="7.015761">
        <ele>2491.342</ele>
        <time>2018-07-18T17:34:08Z</time>
      </trkpt>
      <trkpt lat="45.357856" lon="7.015727">
        <ele>2491.236</ele>
        <time>2018-07-18T17:34:12Z</time>
      </trkpt>
      <trkpt lat="45.357813" lon="7.015707">
        <ele>2491.135</ele>
        <time>2018-07-18T17:34:16Z</time>
      </trkpt>
      <trkpt lat="45.357767" lon="7.015684">
        <ele>2490.769</ele>
        <time>2018-07-18T17:34:20Z</time>
      </trkpt>
      <trkpt lat="45.357723" lon="7.015668">
        <ele>2490.043</ele>
        <time>2018-07-18T17:34:24Z</time>
      </trkpt>
      <trkpt lat="45.357672" lon="7.015644">
        <ele>2489.654</ele>
        <time>2018-07-18T17:34:29Z</time>
      </trkpt>
      <trkpt lat="45.357629" lon="7.015618">
        <ele>2489.056</ele>
        <time>2018-07-18T17:34:33Z</time>
      </trkpt>
      <trkpt lat="45.357586" lon="7.015587">
        <ele>2488.211</ele>
        <time>2018-07-18T17:34:37Z</time>
      </trkpt>
      <trkpt lat="45.357542" lon="7.015566">
        <ele>2487.708</ele>
        <time>2018-07-18T17:34:41Z</time>
      </trkpt>
      <trkpt lat="45.357491" lon="7.015567">
        <ele>2487.047</ele>
        <time>2018-07-18T17:34:46Z</time>
      </trkpt>
      <trkpt lat="45.357448" lon="7.015591">
        <ele>2486.252</ele>
        <time>2018-07-18T17:34:51Z</time>
      </trkpt>
      <trkpt lat="45.357397" lon="7.015596">
        <ele>2485.767</ele>
        <time>2018-07-18T17:35:13Z</time>
      </trkpt>
      <trkpt lat="45.357368" lon="7.015540">
        <ele>2484.662</ele>
        <time>2018-07-18T17:35:19Z</time>
      </trkpt>
      <trkpt lat="45.357338" lon="7.015486">
        <ele>2484.326</ele>
        <time>2018-07-18T17:35:24Z</time>
      </trkpt>
      <trkpt lat="45.357300" lon="7.015439">
        <ele>2484.135</ele>
        <time>2018-07-18T17:35:28Z</time>
      </trkpt>
      <trkpt lat="45.357250" lon="7.015423">
        <ele>2483.669</ele>
        <time>2018-07-18T17:35:34Z</time>
      </trkpt>
      <trkpt lat="45.357202" lon="7.015410">
        <ele>2483.353</ele>
        <time>2018-07-18T17:35:40Z</time>
      </trkpt>
      <trkpt lat="45.357159" lon="7.015381">
        <ele>2482.729</ele>
        <time>2018-07-18T17:35:45Z</time>
      </trkpt>
      <trkpt lat="45.357179" lon="7.015440">
        <ele>2481.600</ele>
        <time>2018-07-18T17:36:28Z</time>
      </trkpt>
      <trkpt lat="45.357200" lon="7.015503">
        <ele>2480.520</ele>
        <time>2018-07-18T17:36:33Z</time>
      </trkpt>
      <trkpt lat="45.357207" lon="7.015574">
        <ele>2479.408</ele>
        <time>2018-07-18T17:36:40Z</time>
      </trkpt>
      <trkpt lat="45.357184" lon="7.015629">
        <ele>2478.094</ele>
        <time>2018-07-18T17:36:50Z</time>
      </trkpt>
      <trkpt lat="45.357137" lon="7.015614">
        <ele>2476.359</ele>
        <time>2018-07-18T17:37:00Z</time>
      </trkpt>
      <trkpt lat="45.357093" lon="7.015598">
        <ele>2474.954</ele>
        <time>2018-07-18T17:37:06Z</time>
      </trkpt>
      <trkpt lat="45.357054" lon="7.015564">
        <ele>2473.779</ele>
        <time>2018-07-18T17:37:12Z</time>
      </trkpt>
      <trkpt lat="45.357013" lon="7.015539">
        <ele>2472.653</ele>
        <time>2018-07-18T17:37:19Z</time>
      </trkpt>
      <trkpt lat="45.356968" lon="7.015511">
        <ele>2470.742</ele>
        <time>2018-07-18T17:37:27Z</time>
      </trkpt>
      <trkpt lat="45.356931" lon="7.015469">
        <ele>2469.286</ele>
        <time>2018-07-18T17:37:32Z</time>
      </trkpt>
      <trkpt lat="45.356890" lon="7.015424">
        <ele>2467.990</ele>
        <time>2018-07-18T17:37:37Z</time>
      </trkpt>
      <trkpt lat="45.356844" lon="7.015395">
        <ele>2466.356</ele>
        <time>2018-07-18T17:37:42Z</time>
      </trkpt>
      <trkpt lat="45.356797" lon="7.015376">
        <ele>2464.559</ele>
        <time>2018-07-18T17:37:48Z</time>
      </trkpt>
      <trkpt lat="45.356754" lon="7.015351">
        <ele>2463.014</ele>
        <time>2018-07-18T17:37:53Z</time>
      </trkpt>
      <trkpt lat="45.356722" lon="7.015306">
        <ele>2461.708</ele>
        <time>2018-07-18T17:37:59Z</time>
      </trkpt>
      <trkpt lat="45.356707" lon="7.015238">
        <ele>2460.587</ele>
        <time>2018-07-18T17:38:05Z</time>
      </trkpt>
      <trkpt lat="45.356691" lon="7.015176">
        <ele>2459.082</ele>
        <time>2018-07-18T17:38:12Z</time>
      </trkpt>
      <trkpt lat="45.356654" lon="7.015128">
        <ele>2456.937</ele>
        <time>2018-07-18T17:38:20Z</time>
      </trkpt>
      <trkpt lat="45.356606" lon="7.015106">
        <ele>2454.862</ele>
        <time>2018-07-18T17:38:27Z</time>
      </trkpt>
      <trkpt lat="45.356569" lon="7.015148">
        <ele>2452.846</ele>
        <time>2018-07-18T17:38:35Z</time>
      </trkpt>
      <trkpt lat="45.356534" lon="7.015107">
        <ele>2451.645</ele>
        <time>2018-07-18T17:38:45Z</time>
      </trkpt>
      <trkpt lat="45.356513" lon="7.015048">
        <ele>2450.119</ele>
        <time>2018-07-18T17:38:52Z</time>
      </trkpt>
      <trkpt lat="45.356477" lon="7.014991">
        <ele>2448.443</ele>
        <time>2018-07-18T17:38:58Z</time>
      </trkpt>
      <trkpt lat="45.356459" lon="7.014930">
        <ele>2447.032</ele>
        <time>2018-07-18T17:39:04Z</time>
      </trkpt>
      <trkpt lat="45.356449" lon="7.014861">
        <ele>2445.392</ele>
        <time>2018-07-18T17:39:13Z</time>
      </trkpt>
      <trkpt lat="45.356443" lon="7.014797">
        <ele>2443.511</ele>
        <time>2018-07-18T17:39:20Z</time>
      </trkpt>
      <trkpt lat="45.356418" lon="7.014741">
        <ele>2440.808</ele>
        <time>2018-07-18T17:39:31Z</time>
      </trkpt>
      <trkpt lat="45.356407" lon="7.014675">
        <ele>2438.415</ele>
        <time>2018-07-18T17:39:42Z</time>
      </trkpt>
      <trkpt lat="45.356378" lon="7.014625">
        <ele>2435.430</ele>
        <time>2018-07-18T17:39:52Z</time>
      </trkpt>
      <trkpt lat="45.356332" lon="7.014622">
        <ele>2433.245</ele>
        <time>2018-07-18T17:40:01Z</time>
      </trkpt>
      <trkpt lat="45.356291" lon="7.014666">
        <ele>2431.160</ele>
        <time>2018-07-18T17:40:12Z</time>
      </trkpt>
      <trkpt lat="45.356267" lon="7.014724">
        <ele>2429.484</ele>
        <time>2018-07-18T17:40:19Z</time>
      </trkpt>
      <trkpt lat="45.356251" lon="7.014791">
        <ele>2427.623</ele>
        <time>2018-07-18T17:40:25Z</time>
      </trkpt>
      <trkpt lat="45.356239" lon="7.014862">
        <ele>2426.197</ele>
        <time>2018-07-18T17:40:30Z</time>
      </trkpt>
      <trkpt lat="45.356193" lon="7.014851">
        <ele>2424.831</ele>
        <time>2018-07-18T17:40:38Z</time>
      </trkpt>
      <trkpt lat="45.356151" lon="7.014815">
        <ele>2424.094</ele>
        <time>2018-07-18T17:40:43Z</time>
      </trkpt>
      <trkpt lat="45.356102" lon="7.014785">
        <ele>2423.157</ele>
        <time>2018-07-18T17:40:48Z</time>
      </trkpt>
      <trkpt lat="45.356057" lon="7.014747">
        <ele>2422.222</ele>
        <time>2018-07-18T17:40:53Z</time>
      </trkpt>
      <trkpt lat="45.356004" lon="7.014742">
        <ele>2420.808</ele>
        <time>2018-07-18T17:40:58Z</time>
      </trkpt>
      <trkpt lat="45.355954" lon="7.014722">
        <ele>2420.011</ele>
        <time>2018-07-18T17:41:03Z</time>
      </trkpt>
      <trkpt lat="45.355936" lon="7.014653">
        <ele>2418.746</ele>
        <time>2018-07-18T17:41:08Z</time>
      </trkpt>
      <trkpt lat="45.355941" lon="7.014578">
        <ele>2417.191</ele>
        <time>2018-07-18T17:41:13Z</time>
      </trkpt>
      <trkpt lat="45.355964" lon="7.014511">
        <ele>2415.496</ele>
        <time>2018-07-18T17:41:19Z</time>
      </trkpt>
      <trkpt lat="45.355965" lon="7.014434">
        <ele>2413.680</ele>
        <time>2018-07-18T17:41:25Z</time>
      </trkpt>
      <trkpt lat="45.355963" lon="7.014364">
        <ele>2412.189</ele>
        <time>2018-07-18T17:41:31Z</time>
      </trkpt>
      <trkpt lat="45.355951" lon="7.014301">
        <ele>2410.453</ele>
        <time>2018-07-18T17:42:36Z</time>
      </trkpt>
      <trkpt lat="45.355923" lon="7.014233">
        <ele>2409.467</ele>
        <time>2018-07-18T17:42:49Z</time>
      </trkpt>
      <trkpt lat="45.355884" lon="7.014193">
        <ele>2408.039</ele>
        <time>2018-07-18T17:42:58Z</time>
      </trkpt>
      <trkpt lat="45.355846" lon="7.014142">
        <ele>2406.801</ele>
        <time>2018-07-18T17:43:06Z</time>
      </trkpt>
      <trkpt lat="45.355819" lon="7.014086">
        <ele>2405.321</ele>
        <time>2018-07-18T17:43:13Z</time>
      </trkpt>
      <trkpt lat="45.355798" lon="7.014029">
        <ele>2404.008</ele>
        <time>2018-07-18T17:43:19Z</time>
      </trkpt>
      <trkpt lat="45.355765" lon="7.013985">
        <ele>2402.415</ele>
        <time>2018-07-18T17:43:24Z</time>
      </trkpt>
      <trkpt lat="45.355732" lon="7.013940">
        <ele>2401.410</ele>
        <time>2018-07-18T17:43:29Z</time>
      </trkpt>
      <trkpt lat="45.355703" lon="7.013887">
        <ele>2400.065</ele>
        <time>2018-07-18T17:43:35Z</time>
      </trkpt>
      <trkpt lat="45.355672" lon="7.013834">
        <ele>2398.870</ele>
        <time>2018-07-18T17:43:41Z</time>
      </trkpt>
      <trkpt lat="45.355625" lon="7.013812">
        <ele>2397.794</ele>
        <time>2018-07-18T17:43:47Z</time>
      </trkpt>
      <trkpt lat="45.355580" lon="7.013796">
        <ele>2396.693</ele>
        <time>2018-07-18T17:43:52Z</time>
      </trkpt>
      <trkpt lat="45.355530" lon="7.013790">
        <ele>2395.637</ele>
        <time>2018-07-18T17:43:57Z</time>
      </trkpt>
      <trkpt lat="45.355542" lon="7.013862">
        <ele>2393.031</ele>
        <time>2018-07-18T17:44:12Z</time>
      </trkpt>
      <trkpt lat="45.355528" lon="7.013928">
        <ele>2391.036</ele>
        <time>2018-07-18T17:44:19Z</time>
      </trkpt>
      <trkpt lat="45.355503" lon="7.013986">
        <ele>2389.417</ele>
        <time>2018-07-18T17:44:24Z</time>
      </trkpt>
      <trkpt lat="45.355457" lon="7.013993">
        <ele>2388.018</ele>
        <time>2018-07-18T17:44:29Z</time>
      </trkpt>
      <trkpt lat="45.355412" lon="7.014004">
        <ele>2386.408</ele>
        <time>2018-07-18T17:44:34Z</time>
      </trkpt>
      <trkpt lat="45.355367" lon="7.014046">
        <ele>2384.615</ele>
        <time>2018-07-18T17:44:40Z</time>
      </trkpt>
      <trkpt lat="45.355334" lon="7.014104">
        <ele>2382.740</ele>
        <time>2018-07-18T17:44:46Z</time>
      </trkpt>
      <trkpt lat="45.355298" lon="7.014157">
        <ele>2380.895</ele>
        <time>2018-07-18T17:44:56Z</time>
      </trkpt>
      <trkpt lat="45.355267" lon="7.014215">
        <ele>2379.310</ele>
        <time>2018-07-18T17:45:07Z</time>
      </trkpt>
      <trkpt lat="45.355247" lon="7.014281">
        <ele>2377.664</ele>
        <time>2018-07-18T17:45:13Z</time>
      </trkpt>
      <trkpt lat="45.355229" lon="7.014341">
        <ele>2376.673</ele>
        <time>2018-07-18T17:45:19Z</time>
      </trkpt>
      <trkpt lat="45.355208" lon="7.014409">
        <ele>2375.277</ele>
        <time>2018-07-18T17:45:25Z</time>
      </trkpt>
      <trkpt lat="45.355193" lon="7.014480">
        <ele>2373.911</ele>
        <time>2018-07-18T17:45:31Z</time>
      </trkpt>
      <trkpt lat="45.355179" lon="7.014544">
        <ele>2372.738</ele>
        <time>2018-07-18T17:45:36Z</time>
      </trkpt>
      <trkpt lat="45.355160" lon="7.014606">
        <ele>2371.670</ele>
        <time>2018-07-18T17:45:41Z</time>
      </trkpt>
      <trkpt lat="45.355135" lon="7.014664">
        <ele>2370.517</ele>
        <time>2018-07-18T17:45:46Z</time>
      </trkpt>
      <trkpt lat="45.355109" lon="7.014719">
        <ele>2369.508</ele>
        <time>2018-07-18T17:45:51Z</time>
      </trkpt>
      <trkpt lat="45.355086" lon="7.014782">
        <ele>2368.115</ele>
        <time>2018-07-18T17:45:56Z</time>
      </trkpt>
      <trkpt lat="45.355061" lon="7.014850">
        <ele>2366.860</ele>
        <time>2018-07-18T17:46:01Z</time>
      </trkpt>
      <trkpt lat="45.355031" lon="7.014910">
        <ele>2365.675</ele>
        <time>2018-07-18T17:46:06Z</time>
      </trkpt>
      <trkpt lat="45.355005" lon="7.014974">
        <ele>2364.120</ele>
        <time>2018-07-18T17:46:11Z</time>
      </trkpt>
      <trkpt lat="45.354974" lon="7.015031">
        <ele>2362.854</ele>
        <time>2018-07-18T17:46:16Z</time>
      </trkpt>
      <trkpt lat="45.354949" lon="7.015096">
        <ele>2362.053</ele>
        <time>2018-07-18T17:46:21Z</time>
      </trkpt>
      <trkpt lat="45.354925" lon="7.015162">
        <ele>2361.197</ele>
        <time>2018-07-18T17:46:26Z</time>
      </trkpt>
      <trkpt lat="45.354898" lon="7.015229">
        <ele>2360.241</ele>
        <time>2018-07-18T17:46:31Z</time>
      </trkpt>
      <trkpt lat="45.354889" lon="7.015294">
        <ele>2359.224</ele>
        <time>2018-07-18T17:46:36Z</time>
      </trkpt>
      <trkpt lat="45.354874" lon="7.015360">
        <ele>2358.204</ele>
        <time>2018-07-18T17:46:42Z</time>
      </trkpt>
      <trkpt lat="45.354870" lon="7.015426">
        <ele>2357.214</ele>
        <time>2018-07-18T17:46:48Z</time>
      </trkpt>
      <trkpt lat="45.354886" lon="7.015487">
        <ele>2355.808</ele>
        <time>2018-07-18T17:46:54Z</time>
      </trkpt>
      <trkpt lat="45.354903" lon="7.015551">
        <ele>2354.694</ele>
        <time>2018-07-18T17:46:59Z</time>
      </trkpt>
      <trkpt lat="45.354863" lon="7.015583">
        <ele>2352.779</ele>
        <time>2018-07-18T17:47:05Z</time>
      </trkpt>
      <trkpt lat="45.354819" lon="7.015557">
        <ele>2351.124</ele>
        <time>2018-07-18T17:47:10Z</time>
      </trkpt>
      <trkpt lat="45.354774" lon="7.015518">
        <ele>2349.839</ele>
        <time>2018-07-18T17:47:15Z</time>
      </trkpt>
      <trkpt lat="45.354731" lon="7.015470">
        <ele>2348.623</ele>
        <time>2018-07-18T17:47:20Z</time>
      </trkpt>
      <trkpt lat="45.354698" lon="7.015427">
        <ele>2347.542</ele>
        <time>2018-07-18T17:47:24Z</time>
      </trkpt>
      <trkpt lat="45.354672" lon="7.015359">
        <ele>2346.436</ele>
        <time>2018-07-18T17:47:29Z</time>
      </trkpt>
      <trkpt lat="45.354650" lon="7.015303">
        <ele>2345.820</ele>
        <time>2018-07-18T17:47:33Z</time>
      </trkpt>
      <trkpt lat="45.354628" lon="7.015246">
        <ele>2345.035</ele>
        <time>2018-07-18T17:47:37Z</time>
      </trkpt>
      <trkpt lat="45.354602" lon="7.015182">
        <ele>2344.186</ele>
        <time>2018-07-18T17:48:06Z</time>
      </trkpt>
      <trkpt lat="45.354607" lon="7.015099">
        <ele>2343.214</ele>
        <time>2018-07-18T17:48:18Z</time>
      </trkpt>
      <trkpt lat="45.354606" lon="7.015025">
        <ele>2341.808</ele>
        <time>2018-07-18T17:48:22Z</time>
      </trkpt>
      <trkpt lat="45.354593" lon="7.014962">
        <ele>2340.685</ele>
        <time>2018-07-18T17:48:26Z</time>
      </trkpt>
      <trkpt lat="45.354576" lon="7.014900">
        <ele>2339.990</ele>
        <time>2018-07-18T17:48:30Z</time>
      </trkpt>
      <trkpt lat="45.354561" lon="7.014831">
        <ele>2339.115</ele>
        <time>2018-07-18T17:48:35Z</time>
      </trkpt>
      <trkpt lat="45.354557" lon="7.014758">
        <ele>2337.830</ele>
        <time>2018-07-18T17:48:41Z</time>
      </trkpt>
      <trkpt lat="45.354553" lon="7.014685">
        <ele>2336.624</ele>
        <time>2018-07-18T17:48:46Z</time>
      </trkpt>
      <trkpt lat="45.354541" lon="7.014614">
        <ele>2335.133</ele>
        <time>2018-07-18T17:48:51Z</time>
      </trkpt>
      <trkpt lat="45.354524" lon="7.014547">
        <ele>2334.227</ele>
        <time>2018-07-18T17:48:57Z</time>
      </trkpt>
      <trkpt lat="45.354508" lon="7.014468">
        <ele>2333.781</ele>
        <time>2018-07-18T17:49:02Z</time>
      </trkpt>
      <trkpt lat="45.354497" lon="7.014390">
        <ele>2332.639</ele>
        <time>2018-07-18T17:49:07Z</time>
      </trkpt>
      <trkpt lat="45.354493" lon="7.014322">
        <ele>2331.501</ele>
        <time>2018-07-18T17:49:12Z</time>
      </trkpt>
      <trkpt lat="45.354488" lon="7.014246">
        <ele>2330.521</ele>
        <time>2018-07-18T17:49:17Z</time>
      </trkpt>
      <trkpt lat="45.354483" lon="7.014181">
        <ele>2328.708</ele>
        <time>2018-07-18T17:49:23Z</time>
      </trkpt>
      <trkpt lat="45.354446" lon="7.014136">
        <ele>2328.045</ele>
        <time>2018-07-18T17:49:27Z</time>
      </trkpt>
      <trkpt lat="45.354397" lon="7.014106">
        <ele>2327.660</ele>
        <time>2018-07-18T17:49:31Z</time>
      </trkpt>
      <trkpt lat="45.354379" lon="7.014030">
        <ele>2326.925</ele>
        <time>2018-07-18T17:49:36Z</time>
      </trkpt>
      <trkpt lat="45.354375" lon="7.013963">
        <ele>2326.530</ele>
        <time>2018-07-18T17:49:40Z</time>
      </trkpt>
      <trkpt lat="45.354371" lon="7.013895">
        <ele>2325.944</ele>
        <time>2018-07-18T17:49:44Z</time>
      </trkpt>
      <trkpt lat="45.354359" lon="7.013826">
        <ele>2325.123</ele>
        <time>2018-07-18T17:49:48Z</time>
      </trkpt>
      <trkpt lat="45.354338" lon="7.013764">
        <ele>2324.227</ele>
        <time>2018-07-18T17:49:52Z</time>
      </trkpt>
      <trkpt lat="45.354322" lon="7.013700">
        <ele>2323.351</ele>
        <time>2018-07-18T17:49:56Z</time>
      </trkpt>
      <trkpt lat="45.354320" lon="7.013630">
        <ele>2322.311</ele>
        <time>2018-07-18T17:50:00Z</time>
      </trkpt>
      <trkpt lat="45.354318" lon="7.013555">
        <ele>2321.721</ele>
        <time>2018-07-18T17:50:04Z</time>
      </trkpt>
      <trkpt lat="45.354323" lon="7.013482">
        <ele>2320.603</ele>
        <time>2018-07-18T17:50:08Z</time>
      </trkpt>
      <trkpt lat="45.354331" lon="7.013415">
        <ele>2319.908</ele>
        <time>2018-07-18T17:50:12Z</time>
      </trkpt>
      <trkpt lat="45.354343" lon="7.013345">
        <ele>2319.563</ele>
        <time>2018-07-18T17:50:16Z</time>
      </trkpt>
      <trkpt lat="45.354349" lon="7.013275">
        <ele>2318.918</ele>
        <time>2018-07-18T17:50:20Z</time>
      </trkpt>
      <trkpt lat="45.354354" lon="7.013203">
        <ele>2318.523</ele>
        <time>2018-07-18T17:50:24Z</time>
      </trkpt>
      <trkpt lat="45.354345" lon="7.013133">
        <ele>2318.398</ele>
        <time>2018-07-18T17:50:31Z</time>
      </trkpt>
      <trkpt lat="45.354343" lon="7.013060">
        <ele>2317.842</ele>
        <time>2018-07-18T17:50:36Z</time>
      </trkpt>
      <trkpt lat="45.354337" lon="7.012991">
        <ele>2317.131</ele>
        <time>2018-07-18T17:50:40Z</time>
      </trkpt>
      <trkpt lat="45.354326" lon="7.012926">
        <ele>2316.785</ele>
        <time>2018-07-18T17:50:44Z</time>
      </trkpt>
      <trkpt lat="45.354308" lon="7.012856">
        <ele>2316.049</ele>
        <time>2018-07-18T17:50:48Z</time>
      </trkpt>
      <trkpt lat="45.354298" lon="7.012783">
        <ele>2315.674</ele>
        <time>2018-07-18T17:50:52Z</time>
      </trkpt>
      <trkpt lat="45.354290" lon="7.012710">
        <ele>2315.856</ele>
        <time>2018-07-18T17:50:56Z</time>
      </trkpt>
      <trkpt lat="45.354267" lon="7.012645">
        <ele>2315.521</ele>
        <time>2018-07-18T17:51:00Z</time>
      </trkpt>
      <trkpt lat="45.354225" lon="7.012591">
        <ele>2315.708</ele>
        <time>2018-07-18T17:51:04Z</time>
      </trkpt>
      <trkpt lat="45.354187" lon="7.012535">
        <ele>2315.899</ele>
        <time>2018-07-18T17:51:08Z</time>
      </trkpt>
      <trkpt lat="45.354150" lon="7.012478">
        <ele>2315.934</ele>
        <time>2018-07-18T17:51:12Z</time>
      </trkpt>
      <trkpt lat="45.354114" lon="7.012428">
        <ele>2315.959</ele>
        <time>2018-07-18T17:51:16Z</time>
      </trkpt>
      <trkpt lat="45.354079" lon="7.012381">
        <ele>2315.594</ele>
        <time>2018-07-18T17:51:20Z</time>
      </trkpt>
      <trkpt lat="45.354041" lon="7.012333">
        <ele>2315.368</ele>
        <time>2018-07-18T17:51:24Z</time>
      </trkpt>
      <trkpt lat="45.353999" lon="7.012290">
        <ele>2315.227</ele>
        <time>2018-07-18T17:51:28Z</time>
      </trkpt>
      <trkpt lat="45.353959" lon="7.012251">
        <ele>2315.191</ele>
        <time>2018-07-18T17:51:32Z</time>
      </trkpt>
      <trkpt lat="45.353921" lon="7.012212">
        <ele>2315.595</ele>
        <time>2018-07-18T17:51:36Z</time>
      </trkpt>
      <trkpt lat="45.353887" lon="7.012166">
        <ele>2315.718</ele>
        <time>2018-07-18T17:51:40Z</time>
      </trkpt>
      <trkpt lat="45.353854" lon="7.012113">
        <ele>2315.098</ele>
        <time>2018-07-18T17:51:45Z</time>
      </trkpt>
      <trkpt lat="45.353827" lon="7.012058">
        <ele>2314.217</ele>
        <time>2018-07-18T17:51:50Z</time>
      </trkpt>
      <trkpt lat="45.353803" lon="7.011986">
        <ele>2312.908</ele>
        <time>2018-07-18T17:51:55Z</time>
      </trkpt>
      <trkpt lat="45.353769" lon="7.011943">
        <ele>2311.773</ele>
        <time>2018-07-18T17:51:59Z</time>
      </trkpt>
      <trkpt lat="45.353735" lon="7.011899">
        <ele>2310.628</ele>
        <time>2018-07-18T17:52:05Z</time>
      </trkpt>
      <trkpt lat="45.353718" lon="7.011838">
        <ele>2309.573</ele>
        <time>2018-07-18T17:52:10Z</time>
      </trkpt>
      <trkpt lat="45.353695" lon="7.011773">
        <ele>2308.588</ele>
        <time>2018-07-18T17:52:17Z</time>
      </trkpt>
      <trkpt lat="45.353674" lon="7.011705">
        <ele>2307.142</ele>
        <time>2018-07-18T17:52:23Z</time>
      </trkpt>
      <trkpt lat="45.353667" lon="7.011636">
        <ele>2305.421</ele>
        <time>2018-07-18T17:52:28Z</time>
      </trkpt>
      <trkpt lat="45.353657" lon="7.011567">
        <ele>2304.065</ele>
        <time>2018-07-18T17:52:33Z</time>
      </trkpt>
      <trkpt lat="45.353616" lon="7.011528">
        <ele>2303.629</ele>
        <time>2018-07-18T17:52:40Z</time>
      </trkpt>
      <trkpt lat="45.353591" lon="7.011473">
        <ele>2302.937</ele>
        <time>2018-07-18T17:52:45Z</time>
      </trkpt>
      <trkpt lat="45.353580" lon="7.011410">
        <ele>2302.149</ele>
        <time>2018-07-18T17:52:49Z</time>
      </trkpt>
      <trkpt lat="45.353565" lon="7.011335">
        <ele>2301.213</ele>
        <time>2018-07-18T17:52:54Z</time>
      </trkpt>
      <trkpt lat="45.353545" lon="7.011272">
        <ele>2300.708</ele>
        <time>2018-07-18T17:52:58Z</time>
      </trkpt>
      <trkpt lat="45.353515" lon="7.011201">
        <ele>2299.625</ele>
        <time>2018-07-18T17:53:06Z</time>
      </trkpt>
      <trkpt lat="45.353472" lon="7.011220">
        <ele>2299.740</ele>
        <time>2018-07-18T17:53:13Z</time>
      </trkpt>
      <trkpt lat="45.353422" lon="7.011245">
        <ele>2299.845</ele>
        <time>2018-07-18T17:53:18Z</time>
      </trkpt>
      <trkpt lat="45.353377" lon="7.011241">
        <ele>2299.070</ele>
        <time>2018-07-18T17:53:22Z</time>
      </trkpt>
      <trkpt lat="45.353328" lon="7.011211">
        <ele>2298.114</ele>
        <time>2018-07-18T17:53:27Z</time>
      </trkpt>
      <trkpt lat="45.353293" lon="7.011166">
        <ele>2297.683</ele>
        <time>2018-07-18T17:53:31Z</time>
      </trkpt>
      <trkpt lat="45.353263" lon="7.011110">
        <ele>2296.917</ele>
        <time>2018-07-18T17:53:35Z</time>
      </trkpt>
      <trkpt lat="45.353243" lon="7.011045">
        <ele>2296.561</ele>
        <time>2018-07-18T17:53:39Z</time>
      </trkpt>
      <trkpt lat="45.353214" lon="7.010994">
        <ele>2296.238</ele>
        <time>2018-07-18T17:53:44Z</time>
      </trkpt>
      <trkpt lat="45.353164" lon="7.010971">
        <ele>2296.070</ele>
        <time>2018-07-18T17:54:44Z</time>
      </trkpt>
      <trkpt lat="45.353118" lon="7.010954">
        <ele>2295.517</ele>
        <time>2018-07-18T17:54:56Z</time>
      </trkpt>
      <trkpt lat="45.353069" lon="7.010955">
        <ele>2295.208</ele>
        <time>2018-07-18T17:55:02Z</time>
      </trkpt>
      <trkpt lat="45.353028" lon="7.010999">
        <ele>2295.455</ele>
        <time>2018-07-18T17:55:07Z</time>
      </trkpt>
      <trkpt lat="45.352999" lon="7.011058">
        <ele>2295.980</ele>
        <time>2018-07-18T17:55:12Z</time>
      </trkpt>
      <trkpt lat="45.352969" lon="7.011121">
        <ele>2296.625</ele>
        <time>2018-07-18T17:55:18Z</time>
      </trkpt>
      <trkpt lat="45.352940" lon="7.011179">
        <ele>2297.430</ele>
        <time>2018-07-18T17:55:24Z</time>
      </trkpt>
      <trkpt lat="45.352901" lon="7.011220">
        <ele>2298.314</ele>
        <time>2018-07-18T17:55:30Z</time>
      </trkpt>
      <trkpt lat="45.352854" lon="7.011246">
        <ele>2299.253</ele>
        <time>2018-07-18T17:55:36Z</time>
      </trkpt>
      <trkpt lat="45.352808" lon="7.011276">
        <ele>2300.287</ele>
        <time>2018-07-18T17:55:42Z</time>
      </trkpt>
      <trkpt lat="45.352763" lon="7.011298">
        <ele>2301.281</ele>
        <time>2018-07-18T17:55:48Z</time>
      </trkpt>
      <trkpt lat="45.352718" lon="7.011317">
        <ele>2301.829</ele>
        <time>2018-07-18T17:55:54Z</time>
      </trkpt>
      <trkpt lat="45.352670" lon="7.011334">
        <ele>2302.200</ele>
        <time>2018-07-18T17:56:00Z</time>
      </trkpt>
      <trkpt lat="45.352629" lon="7.011363">
        <ele>2302.820</ele>
        <time>2018-07-18T17:56:05Z</time>
      </trkpt>
      <trkpt lat="45.352589" lon="7.011401">
        <ele>2303.608</ele>
        <time>2018-07-18T17:56:12Z</time>
      </trkpt>
      <trkpt lat="45.352552" lon="7.011447">
        <ele>2304.534</ele>
        <time>2018-07-18T17:56:20Z</time>
      </trkpt>
      <trkpt lat="45.352511" lon="7.011486">
        <ele>2305.049</ele>
        <time>2018-07-18T17:56:27Z</time>
      </trkpt>
      <trkpt lat="45.352467" lon="7.011511">
        <ele>2305.764</ele>
        <time>2018-07-18T17:56:34Z</time>
      </trkpt>
      <trkpt lat="45.352420" lon="7.011543">
        <ele>2306.129</ele>
        <time>2018-07-18T17:56:41Z</time>
      </trkpt>
      <trkpt lat="45.352381" lon="7.011578">
        <ele>2306.843</ele>
        <time>2018-07-18T17:56:47Z</time>
      </trkpt>
      <trkpt lat="45.352342" lon="7.011615">
        <ele>2307.212</ele>
        <time>2018-07-18T17:56:55Z</time>
      </trkpt>
      <trkpt lat="45.352306" lon="7.011656">
        <ele>2308.286</ele>
        <time>2018-07-18T17:57:02Z</time>
      </trkpt>
      <trkpt lat="45.352266" lon="7.011704">
        <ele>2308.870</ele>
        <time>2018-07-18T17:57:09Z</time>
      </trkpt>
      <trkpt lat="45.352228" lon="7.011747">
        <ele>2309.291</ele>
        <time>2018-07-18T17:57:14Z</time>
      </trkpt>
      <trkpt lat="45.352188" lon="7.011799">
        <ele>2309.881</ele>
        <time>2018-07-18T17:57:19Z</time>
      </trkpt>
      <trkpt lat="45.352162" lon="7.011867">
        <ele>2309.819</ele>
        <time>2018-07-18T17:57:24Z</time>
      </trkpt>
      <trkpt lat="45.352139" lon="7.011937">
        <ele>2309.408</ele>
        <time>2018-07-18T17:57:29Z</time>
      </trkpt>
      <trkpt lat="45.352115" lon="7.012004">
        <ele>2309.621</ele>
        <time>2018-07-18T17:57:34Z</time>
      </trkpt>
      <trkpt lat="45.352088" lon="7.012058">
        <ele>2310.156</ele>
        <time>2018-07-18T17:57:38Z</time>
      </trkpt>
      <trkpt lat="45.352061" lon="7.012110">
        <ele>2310.411</ele>
        <time>2018-07-18T17:57:42Z</time>
      </trkpt>
      <trkpt lat="45.352035" lon="7.012163">
        <ele>2311.026</ele>
        <time>2018-07-18T17:57:46Z</time>
      </trkpt>
      <trkpt lat="45.352001" lon="7.012222">
        <ele>2311.390</ele>
        <time>2018-07-18T17:57:51Z</time>
      </trkpt>
      <trkpt lat="45.351971" lon="7.012279">
        <ele>2311.919</ele>
        <time>2018-07-18T17:57:57Z</time>
      </trkpt>
      <trkpt lat="45.351940" lon="7.012335">
        <ele>2312.333</ele>
        <time>2018-07-18T17:58:02Z</time>
      </trkpt>
      <trkpt lat="45.351907" lon="7.012393">
        <ele>2312.997</ele>
        <time>2018-07-18T17:58:07Z</time>
      </trkpt>
      <trkpt lat="45.351866" lon="7.012444">
        <ele>2313.765</ele>
        <time>2018-07-18T17:58:13Z</time>
      </trkpt>
      <trkpt lat="45.351831" lon="7.012486">
        <ele>2314.268</ele>
        <time>2018-07-18T17:58:18Z</time>
      </trkpt>
      <trkpt lat="45.351797" lon="7.012535">
        <ele>2314.914</ele>
        <time>2018-07-18T17:58:24Z</time>
      </trkpt>
      <trkpt lat="45.351765" lon="7.012586">
        <ele>2315.308</ele>
        <time>2018-07-18T17:58:31Z</time>
      </trkpt>
      <trkpt lat="45.351731" lon="7.012631">
        <ele>2315.528</ele>
        <time>2018-07-18T17:58:38Z</time>
      </trkpt>
      <trkpt lat="45.351697" lon="7.012685">
        <ele>2316.063</ele>
        <time>2018-07-18T17:58:46Z</time>
      </trkpt>
      <trkpt lat="45.351664" lon="7.012734">
        <ele>2316.758</ele>
        <time>2018-07-18T17:58:52Z</time>
      </trkpt>
      <trkpt lat="45.351632" lon="7.012782">
        <ele>2317.973</ele>
        <time>2018-07-18T17:58:57Z</time>
      </trkpt>
      <trkpt lat="45.351597" lon="7.012832">
        <ele>2319.077</ele>
        <time>2018-07-18T17:59:02Z</time>
      </trkpt>
      <trkpt lat="45.351559" lon="7.012882">
        <ele>2319.756</ele>
        <time>2018-07-18T17:59:07Z</time>
      </trkpt>
      <trkpt lat="45.351516" lon="7.012925">
        <ele>2320.170</ele>
        <time>2018-07-18T17:59:12Z</time>
      </trkpt>
      <trkpt lat="45.351474" lon="7.012963">
        <ele>2320.754</ele>
        <time>2018-07-18T17:59:17Z</time>
      </trkpt>
      <trkpt lat="45.351434" lon="7.013009">
        <ele>2320.719</ele>
        <time>2018-07-18T17:59:22Z</time>
      </trkpt>
      <trkpt lat="45.351399" lon="7.013050">
        <ele>2320.709</ele>
        <time>2018-07-18T17:59:27Z</time>
      </trkpt>
      <trkpt lat="45.351367" lon="7.013095">
        <ele>2320.719</ele>
        <time>2018-07-18T17:59:32Z</time>
      </trkpt>
      <trkpt lat="45.351331" lon="7.013147">
        <ele>2321.508</ele>
        <time>2018-07-18T17:59:38Z</time>
      </trkpt>
      <trkpt lat="45.351294" lon="7.013199">
        <ele>2322.063</ele>
        <time>2018-07-18T17:59:44Z</time>
      </trkpt>
      <trkpt lat="45.351260" lon="7.013248">
        <ele>2322.388</ele>
        <time>2018-07-18T17:59:49Z</time>
      </trkpt>
      <trkpt lat="45.351224" lon="7.013311">
        <ele>2322.583</ele>
        <time>2018-07-18T17:59:54Z</time>
      </trkpt>
      <trkpt lat="45.351197" lon="7.013363">
        <ele>2323.018</ele>
        <time>2018-07-18T17:59:58Z</time>
      </trkpt>
      <trkpt lat="45.351169" lon="7.013428">
        <ele>2323.352</ele>
        <time>2018-07-18T18:00:03Z</time>
      </trkpt>
      <trkpt lat="45.351144" lon="7.013498">
        <ele>2323.511</ele>
        <time>2018-07-18T18:00:08Z</time>
      </trkpt>
      <trkpt lat="45.351115" lon="7.013560">
        <ele>2323.285</ele>
        <time>2018-07-18T18:00:13Z</time>
      </trkpt>
      <trkpt lat="45.351088" lon="7.013622">
        <ele>2323.029</ele>
        <time>2018-07-18T18:00:18Z</time>
      </trkpt>
      <trkpt lat="45.351057" lon="7.013681">
        <ele>2322.942</ele>
        <time>2018-07-18T18:00:23Z</time>
      </trkpt>
      <trkpt lat="45.351028" lon="7.013745">
        <ele>2322.822</ele>
        <time>2018-07-18T18:00:28Z</time>
      </trkpt>
      <trkpt lat="45.351003" lon="7.013808">
        <ele>2322.814</ele>
        <time>2018-07-18T18:00:33Z</time>
      </trkpt>
      <trkpt lat="45.350977" lon="7.013877">
        <ele>2323.208</ele>
        <time>2018-07-18T18:00:38Z</time>
      </trkpt>
      <trkpt lat="45.350950" lon="7.013932">
        <ele>2323.876</ele>
        <time>2018-07-18T18:00:42Z</time>
      </trkpt>
      <trkpt lat="45.350926" lon="7.013989">
        <ele>2324.271</ele>
        <time>2018-07-18T18:00:46Z</time>
      </trkpt>
      <trkpt lat="45.350896" lon="7.014048">
        <ele>2324.496</ele>
        <time>2018-07-18T18:00:51Z</time>
      </trkpt>
      <trkpt lat="45.350868" lon="7.014103">
        <ele>2324.591</ele>
        <time>2018-07-18T18:00:56Z</time>
      </trkpt>
      <trkpt lat="45.350839" lon="7.014156">
        <ele>2325.475</ele>
        <time>2018-07-18T18:01:00Z</time>
      </trkpt>
      <trkpt lat="45.350798" lon="7.014201">
        <ele>2325.534</ele>
        <time>2018-07-18T18:01:05Z</time>
      </trkpt>
      <trkpt lat="45.350749" lon="7.014235">
        <ele>2325.698</ele>
        <time>2018-07-18T18:01:10Z</time>
      </trkpt>
      <trkpt lat="45.350697" lon="7.014243">
        <ele>2325.242</ele>
        <time>2018-07-18T18:01:15Z</time>
      </trkpt>
      <trkpt lat="45.350648" lon="7.014243">
        <ele>2324.691</ele>
        <time>2018-07-18T18:01:19Z</time>
      </trkpt>
      <trkpt lat="45.350603" lon="7.014268">
        <ele>2324.681</ele>
        <time>2018-07-18T18:01:23Z</time>
      </trkpt>
      <trkpt lat="45.350558" lon="7.014312">
        <ele>2324.619</ele>
        <time>2018-07-18T18:01:28Z</time>
      </trkpt>
      <trkpt lat="45.350516" lon="7.014361">
        <ele>2325.008</ele>
        <time>2018-07-18T18:01:33Z</time>
      </trkpt>
      <trkpt lat="45.350476" lon="7.014399">
        <ele>2325.221</ele>
        <time>2018-07-18T18:01:37Z</time>
      </trkpt>
      <trkpt lat="45.350437" lon="7.014432">
        <ele>2325.756</ele>
        <time>2018-07-18T18:01:41Z</time>
      </trkpt>
      <trkpt lat="45.350392" lon="7.014454">
        <ele>2326.051</ele>
        <time>2018-07-18T18:01:45Z</time>
      </trkpt>
      <trkpt lat="45.350338" lon="7.014469">
        <ele>2325.456</ele>
        <time>2018-07-18T18:01:50Z</time>
      </trkpt>
      <trkpt lat="45.350287" lon="7.014478">
        <ele>2324.690</ele>
        <time>2018-07-18T18:01:55Z</time>
      </trkpt>
      <trkpt lat="45.350240" lon="7.014473">
        <ele>2323.719</ele>
        <time>2018-07-18T18:01:59Z</time>
      </trkpt>
      <trkpt lat="45.350189" lon="7.014463">
        <ele>2322.893</ele>
        <time>2018-07-18T18:02:03Z</time>
      </trkpt>
      <trkpt lat="45.350134" lon="7.014454">
        <ele>2321.917</ele>
        <time>2018-07-18T18:02:07Z</time>
      </trkpt>
      <trkpt lat="45.350083" lon="7.014433">
        <ele>2321.365</ele>
        <time>2018-07-18T18:02:11Z</time>
      </trkpt>
      <trkpt lat="45.350031" lon="7.014406">
        <ele>2320.668</ele>
        <time>2018-07-18T18:02:15Z</time>
      </trkpt>
      <trkpt lat="45.349987" lon="7.014371">
        <ele>2319.814</ele>
        <time>2018-07-18T18:02:19Z</time>
      </trkpt>
      <trkpt lat="45.349946" lon="7.014331">
        <ele>2318.508</ele>
        <time>2018-07-18T18:02:23Z</time>
      </trkpt>
      <trkpt lat="45.349897" lon="7.014300">
        <ele>2317.738</ele>
        <time>2018-07-18T18:02:27Z</time>
      </trkpt>
      <trkpt lat="45.349842" lon="7.014281">
        <ele>2316.813</ele>
        <time>2018-07-18T18:02:31Z</time>
      </trkpt>
      <trkpt lat="45.349788" lon="7.014270">
        <ele>2316.378</ele>
        <time>2018-07-18T18:02:35Z</time>
      </trkpt>
      <trkpt lat="45.349732" lon="7.014266">
        <ele>2316.013</ele>
        <time>2018-07-18T18:02:39Z</time>
      </trkpt>
      <trkpt lat="45.349675" lon="7.014269">
        <ele>2315.877</ele>
        <time>2018-07-18T18:02:43Z</time>
      </trkpt>
      <trkpt lat="45.349620" lon="7.014282">
        <ele>2316.156</ele>
        <time>2018-07-18T18:02:47Z</time>
      </trkpt>
      <trkpt lat="45.349569" lon="7.014282">
        <ele>2316.350</ele>
        <time>2018-07-18T18:02:51Z</time>
      </trkpt>
      <trkpt lat="45.349519" lon="7.014265">
        <ele>2316.414</ele>
        <time>2018-07-18T18:02:55Z</time>
      </trkpt>
      <trkpt lat="45.349468" lon="7.014231">
        <ele>2316.554</ele>
        <time>2018-07-18T18:02:59Z</time>
      </trkpt>
      <trkpt lat="45.349416" lon="7.014197">
        <ele>2315.756</ele>
        <time>2018-07-18T18:03:03Z</time>
      </trkpt>
      <trkpt lat="45.349358" lon="7.014180">
        <ele>2315.211</ele>
        <time>2018-07-18T18:03:07Z</time>
      </trkpt>
      <trkpt lat="45.349304" lon="7.014180">
        <ele>2314.908</ele>
        <time>2018-07-18T18:03:11Z</time>
      </trkpt>
      <trkpt lat="45.349253" lon="7.014210">
        <ele>2314.747</ele>
        <time>2018-07-18T18:03:15Z</time>
      </trkpt>
      <trkpt lat="45.349201" lon="7.014248">
        <ele>2315.032</ele>
        <time>2018-07-18T18:03:19Z</time>
      </trkpt>
      <trkpt lat="45.349147" lon="7.014276">
        <ele>2315.237</ele>
        <time>2018-07-18T18:03:23Z</time>
      </trkpt>
      <trkpt lat="45.349097" lon="7.014308">
        <ele>2314.942</ele>
        <time>2018-07-18T18:03:27Z</time>
      </trkpt>
      <trkpt lat="45.349052" lon="7.014356">
        <ele>2314.756</ele>
        <time>2018-07-18T18:03:31Z</time>
      </trkpt>
      <trkpt lat="45.349009" lon="7.014412">
        <ele>2314.665</ele>
        <time>2018-07-18T18:03:35Z</time>
      </trkpt>
      <trkpt lat="45.348961" lon="7.014455">
        <ele>2314.149</ele>
        <time>2018-07-18T18:03:39Z</time>
      </trkpt>
      <trkpt lat="45.348910" lon="7.014498">
        <ele>2313.813</ele>
        <time>2018-07-18T18:03:43Z</time>
      </trkpt>
      <trkpt lat="45.348866" lon="7.014553">
        <ele>2313.678</ele>
        <time>2018-07-18T18:03:47Z</time>
      </trkpt>
      <trkpt lat="45.348826" lon="7.014609">
        <ele>2313.133</ele>
        <time>2018-07-18T18:03:51Z</time>
      </trkpt>
      <trkpt lat="45.348789" lon="7.014664">
        <ele>2312.826</ele>
        <time>2018-07-18T18:03:55Z</time>
      </trkpt>
      <trkpt lat="45.348749" lon="7.014721">
        <ele>2312.608</ele>
        <time>2018-07-18T18:03:59Z</time>
      </trkpt>
      <trkpt lat="45.348700" lon="7.014765">
        <ele>2312.959</ele>
        <time>2018-07-18T18:04:03Z</time>
      </trkpt>
      <trkpt lat="45.348653" lon="7.014813">
        <ele>2313.554</ele>
        <time>2018-07-18T18:04:07Z</time>
      </trkpt>
      <trkpt lat="45.348607" lon="7.014865">
        <ele>2313.859</ele>
        <time>2018-07-18T18:04:11Z</time>
      </trkpt>
      <trkpt lat="45.348564" lon="7.014918">
        <ele>2314.074</ele>
        <time>2018-07-18T18:04:15Z</time>
      </trkpt>
      <trkpt lat="45.348525" lon="7.014969">
        <ele>2314.588</ele>
        <time>2018-07-18T18:04:19Z</time>
      </trkpt>
      <trkpt lat="45.348483" lon="7.015019">
        <ele>2315.267</ele>
        <time>2018-07-18T18:04:23Z</time>
      </trkpt>
      <trkpt lat="45.348439" lon="7.015068">
        <ele>2315.661</ele>
        <time>2018-07-18T18:04:27Z</time>
      </trkpt>
      <trkpt lat="45.348394" lon="7.015117">
        <ele>2315.915</ele>
        <time>2018-07-18T18:04:31Z</time>
      </trkpt>
      <trkpt lat="45.348350" lon="7.015167">
        <ele>2316.534</ele>
        <time>2018-07-18T18:04:35Z</time>
      </trkpt>
      <trkpt lat="45.348309" lon="7.015222">
        <ele>2316.455</ele>
        <time>2018-07-18T18:04:39Z</time>
      </trkpt>
      <trkpt lat="45.348276" lon="7.015279">
        <ele>2316.810</ele>
        <time>2018-07-18T18:04:43Z</time>
      </trkpt>
      <trkpt lat="45.348242" lon="7.015327">
        <ele>2317.008</ele>
        <time>2018-07-18T18:04:47Z</time>
      </trkpt>
      <trkpt lat="45.348199" lon="7.015349">
        <ele>2317.145</ele>
        <time>2018-07-18T18:04:51Z</time>
      </trkpt>
      <trkpt lat="45.348148" lon="7.015364">
        <ele>2317.210</ele>
        <time>2018-07-18T18:04:55Z</time>
      </trkpt>
      <trkpt lat="45.348096" lon="7.015381">
        <ele>2317.275</ele>
        <time>2018-07-18T18:04:59Z</time>
      </trkpt>
      <trkpt lat="45.348043" lon="7.015410">
        <ele>2317.660</ele>
        <time>2018-07-18T18:05:03Z</time>
      </trkpt>
      <trkpt lat="45.347993" lon="7.015440">
        <ele>2317.924</ele>
        <time>2018-07-18T18:05:07Z</time>
      </trkpt>
      <trkpt lat="45.347943" lon="7.015450">
        <ele>2318.183</ele>
        <time>2018-07-18T18:05:11Z</time>
      </trkpt>
      <trkpt lat="45.347890" lon="7.015450">
        <ele>2318.267</ele>
        <time>2018-07-18T18:05:15Z</time>
      </trkpt>
      <trkpt lat="45.347836" lon="7.015447">
        <ele>2318.381</ele>
        <time>2018-07-18T18:05:19Z</time>
      </trkpt>
      <trkpt lat="45.347785" lon="7.015435">
        <ele>2318.323</ele>
        <time>2018-07-18T18:05:23Z</time>
      </trkpt>
      <trkpt lat="45.347730" lon="7.015412">
        <ele>2318.383</ele>
        <time>2018-07-18T18:05:27Z</time>
      </trkpt>
      <trkpt lat="45.347674" lon="7.015387">
        <ele>2318.311</ele>
        <time>2018-07-18T18:05:31Z</time>
      </trkpt>
      <trkpt lat="45.347619" lon="7.015364">
        <ele>2318.308</ele>
        <time>2018-07-18T18:05:35Z</time>
      </trkpt>
      <trkpt lat="45.347563" lon="7.015342">
        <ele>2318.334</ele>
        <time>2018-07-18T18:05:39Z</time>
      </trkpt>
      <trkpt lat="45.347509" lon="7.015314">
        <ele>2317.929</ele>
        <time>2018-07-18T18:05:43Z</time>
      </trkpt>
      <trkpt lat="45.347460" lon="7.015277">
        <ele>2317.794</ele>
        <time>2018-07-18T18:05:47Z</time>
      </trkpt>
      <trkpt lat="45.347418" lon="7.015229">
        <ele>2317.239</ele>
        <time>2018-07-18T18:05:51Z</time>
      </trkpt>
      <trkpt lat="45.347376" lon="7.015180">
        <ele>2317.323</ele>
        <time>2018-07-18T18:05:55Z</time>
      </trkpt>
      <trkpt lat="45.347336" lon="7.015133">
        <ele>2317.362</ele>
        <time>2018-07-18T18:05:59Z</time>
      </trkpt>
      <trkpt lat="45.347299" lon="7.015077">
        <ele>2316.956</ele>
        <time>2018-07-18T18:06:03Z</time>
      </trkpt>
      <trkpt lat="45.347259" lon="7.015022">
        <ele>2316.720</ele>
        <time>2018-07-18T18:06:07Z</time>
      </trkpt>
      <trkpt lat="45.347212" lon="7.014973">
        <ele>2317.072</ele>
        <time>2018-07-18T18:06:11Z</time>
      </trkpt>
      <trkpt lat="45.347161" lon="7.014927">
        <ele>2317.213</ele>
        <time>2018-07-18T18:06:15Z</time>
      </trkpt>
      <trkpt lat="45.347109" lon="7.014890">
        <ele>2317.314</ele>
        <time>2018-07-18T18:06:19Z</time>
      </trkpt>
      <trkpt lat="45.347060" lon="7.014847">
        <ele>2317.408</ele>
        <time>2018-07-18T18:06:23Z</time>
      </trkpt>
      <trkpt lat="45.347018" lon="7.014802">
        <ele>2317.449</ele>
        <time>2018-07-18T18:06:27Z</time>
      </trkpt>
      <trkpt lat="45.346975" lon="7.014760">
        <ele>2317.074</ele>
        <time>2018-07-18T18:06:31Z</time>
      </trkpt>
      <trkpt lat="45.346926" lon="7.014738">
        <ele>2316.469</ele>
        <time>2018-07-18T18:06:35Z</time>
      </trkpt>
      <trkpt lat="45.346872" lon="7.014728">
        <ele>2316.024</ele>
        <time>2018-07-18T18:06:39Z</time>
      </trkpt>
      <trkpt lat="45.346820" lon="7.014735">
        <ele>2315.888</ele>
        <time>2018-07-18T18:06:43Z</time>
      </trkpt>
      <trkpt lat="45.346770" lon="7.014759">
        <ele>2315.727</ele>
        <time>2018-07-18T18:06:47Z</time>
      </trkpt>
      <trkpt lat="45.346719" lon="7.014789">
        <ele>2315.621</ele>
        <time>2018-07-18T18:06:51Z</time>
      </trkpt>
      <trkpt lat="45.346665" lon="7.014808">
        <ele>2315.275</ele>
        <time>2018-07-18T18:06:55Z</time>
      </trkpt>
      <trkpt lat="45.346610" lon="7.014812">
        <ele>2315.314</ele>
        <time>2018-07-18T18:06:59Z</time>
      </trkpt>
      <trkpt lat="45.346555" lon="7.014819">
        <ele>2315.054</ele>
        <time>2018-07-18T18:07:03Z</time>
      </trkpt>
      <trkpt lat="45.346501" lon="7.014824">
        <ele>2314.809</ele>
        <time>2018-07-18T18:07:07Z</time>
      </trkpt>
      <trkpt lat="45.346444" lon="7.014824">
        <ele>2314.708</ele>
        <time>2018-07-18T18:07:11Z</time>
      </trkpt>
      <trkpt lat="45.346387" lon="7.014823">
        <ele>2314.213</ele>
        <time>2018-07-18T18:07:15Z</time>
      </trkpt>
      <trkpt lat="45.346342" lon="7.014817">
        <ele>2313.998</ele>
        <time>2018-07-18T18:07:18Z</time>
      </trkpt>
      <trkpt lat="45.346287" lon="7.014803">
        <ele>2314.153</ele>
        <time>2018-07-18T18:07:22Z</time>
      </trkpt>
      <trkpt lat="45.346232" lon="7.014794">
        <ele>2314.248</ele>
        <time>2018-07-18T18:07:26Z</time>
      </trkpt>
      <trkpt lat="45.346178" lon="7.014788">
        <ele>2313.992</ele>
        <time>2018-07-18T18:07:30Z</time>
      </trkpt>
      <trkpt lat="45.346121" lon="7.014783">
        <ele>2313.311</ele>
        <time>2018-07-18T18:07:34Z</time>
      </trkpt>
      <trkpt lat="45.346064" lon="7.014779">
        <ele>2313.395</ele>
        <time>2018-07-18T18:07:38Z</time>
      </trkpt>
      <trkpt lat="45.346011" lon="7.014765">
        <ele>2313.379</ele>
        <time>2018-07-18T18:07:42Z</time>
      </trkpt>
      <trkpt lat="45.345963" lon="7.014743">
        <ele>2313.751</ele>
        <time>2018-07-18T18:07:46Z</time>
      </trkpt>
      <trkpt lat="45.345919" lon="7.014719">
        <ele>2313.501</ele>
        <time>2018-07-18T18:07:50Z</time>
      </trkpt>
      <trkpt lat="45.345878" lon="7.014686">
        <ele>2313.811</ele>
        <time>2018-07-18T18:07:54Z</time>
      </trkpt>
      <trkpt lat="45.345840" lon="7.014646">
        <ele>2314.008</ele>
        <time>2018-07-18T18:07:58Z</time>
      </trkpt>
      <trkpt lat="45.345793" lon="7.014614">
        <ele>2314.557</ele>
        <time>2018-07-18T18:08:02Z</time>
      </trkpt>
      <trkpt lat="45.345745" lon="7.014587">
        <ele>2314.462</ele>
        <time>2018-07-18T18:08:06Z</time>
      </trkpt>
      <trkpt lat="45.345693" lon="7.014568">
        <ele>2314.327</ele>
        <time>2018-07-18T18:08:10Z</time>
      </trkpt>
      <trkpt lat="45.345641" lon="7.014554">
        <ele>2314.732</ele>
        <time>2018-07-18T18:08:14Z</time>
      </trkpt>
      <trkpt lat="45.345589" lon="7.014541">
        <ele>2314.936</ele>
        <time>2018-07-18T18:08:18Z</time>
      </trkpt>
      <trkpt lat="45.345539" lon="7.014521">
        <ele>2315.075</ele>
        <time>2018-07-18T18:08:22Z</time>
      </trkpt>
      <trkpt lat="45.345492" lon="7.014494">
        <ele>2315.189</ele>
        <time>2018-07-18T18:08:26Z</time>
      </trkpt>
      <trkpt lat="45.345441" lon="7.014475">
        <ele>2315.123</ele>
        <time>2018-07-18T18:08:30Z</time>
      </trkpt>
      <trkpt lat="45.345389" lon="7.014462">
        <ele>2315.122</ele>
        <time>2018-07-18T18:08:34Z</time>
      </trkpt>
      <trkpt lat="45.345334" lon="7.014458">
        <ele>2315.162</ele>
        <time>2018-07-18T18:08:38Z</time>
      </trkpt>
      <trkpt lat="45.345281" lon="7.014454">
        <ele>2315.108</ele>
        <time>2018-07-18T18:08:42Z</time>
      </trkpt>
      <trkpt lat="45.345225" lon="7.014459">
        <ele>2315.108</ele>
        <time>2018-07-18T18:08:46Z</time>
      </trkpt>
      <trkpt lat="45.345167" lon="7.014458">
        <ele>2315.194</ele>
        <time>2018-07-18T18:08:50Z</time>
      </trkpt>
      <trkpt lat="45.345114" lon="7.014453">
        <ele>2315.519</ele>
        <time>2018-07-18T18:08:54Z</time>
      </trkpt>
      <trkpt lat="45.345064" lon="7.014436">
        <ele>2315.784</ele>
        <time>2018-07-18T18:08:58Z</time>
      </trkpt>
      <trkpt lat="45.345015" lon="7.014410">
        <ele>2315.859</ele>
        <time>2018-07-18T18:09:02Z</time>
      </trkpt>
      <trkpt lat="45.344973" lon="7.014367">
        <ele>2315.513</ele>
        <time>2018-07-18T18:09:06Z</time>
      </trkpt>
      <trkpt lat="45.344927" lon="7.014339">
        <ele>2315.362</ele>
        <time>2018-07-18T18:09:10Z</time>
      </trkpt>
      <trkpt lat="45.344879" lon="7.014332">
        <ele>2314.826</ele>
        <time>2018-07-18T18:09:13Z</time>
      </trkpt>
      <trkpt lat="45.344834" lon="7.014281">
        <ele>2314.560</ele>
        <time>2018-07-18T18:09:18Z</time>
      </trkpt>
      <trkpt lat="45.344801" lon="7.014225">
        <ele>2314.397</ele>
        <time>2018-07-18T18:09:23Z</time>
      </trkpt>
      <trkpt lat="45.344770" lon="7.014171">
        <ele>2314.223</ele>
        <time>2018-07-18T18:09:29Z</time>
      </trkpt>
      <trkpt lat="45.344730" lon="7.014133">
        <ele>2314.525</ele>
        <time>2018-07-18T18:09:35Z</time>
      </trkpt>
      <trkpt lat="45.344696" lon="7.014086">
        <ele>2314.708</ele>
        <time>2018-07-18T18:09:39Z</time>
      </trkpt>
      <trkpt lat="45.344661" lon="7.014042">
        <ele>2314.021</ele>
        <time>2018-07-18T18:09:43Z</time>
      </trkpt>
      <trkpt lat="45.344661" lon="7.014042">
        <ele>2314.016</ele>
        <time>2018-07-18T18:09:43Z</time>
      </trkpt>
      <trkpt lat="45.344627" lon="7.013998">
        <ele>2313.231</ele>
        <time>2018-07-18T18:09:47Z</time>
      </trkpt>
      <trkpt lat="45.344590" lon="7.013954">
        <ele>2312.386</ele>
        <time>2018-07-18T18:09:52Z</time>
      </trkpt>
      <trkpt lat="45.344546" lon="7.013904">
        <ele>2311.850</ele>
        <time>2018-07-18T18:09:57Z</time>
      </trkpt>
      <trkpt lat="45.344502" lon="7.013865">
        <ele>2311.589</ele>
        <time>2018-07-18T18:10:01Z</time>
      </trkpt>
      <trkpt lat="45.344462" lon="7.013821">
        <ele>2311.753</ele>
        <time>2018-07-18T18:10:05Z</time>
      </trkpt>
      <trkpt lat="45.344427" lon="7.013771">
        <ele>2311.817</ele>
        <time>2018-07-18T18:10:09Z</time>
      </trkpt>
      <trkpt lat="45.344389" lon="7.013719">
        <ele>2312.395</ele>
        <time>2018-07-18T18:10:13Z</time>
      </trkpt>
      <trkpt lat="45.344355" lon="7.013677">
        <ele>2313.049</ele>
        <time>2018-07-18T18:10:16Z</time>
      </trkpt>
      <trkpt lat="45.344320" lon="7.013630">
        <ele>2313.423</ele>
        <time>2018-07-18T18:10:19Z</time>
      </trkpt>
      <trkpt lat="45.344269" lon="7.013605">
        <ele>2312.408</ele>
        <time>2018-07-18T18:10:24Z</time>
      </trkpt>
      <trkpt lat="45.344220" lon="7.013594">
        <ele>2311.481</ele>
        <time>2018-07-18T18:10:29Z</time>
      </trkpt>
      <trkpt lat="45.344177" lon="7.013557">
        <ele>2310.476</ele>
        <time>2018-07-18T18:10:33Z</time>
      </trkpt>
      <trkpt lat="45.344140" lon="7.013498">
        <ele>2309.881</ele>
        <time>2018-07-18T18:10:37Z</time>
      </trkpt>
      <trkpt lat="45.344097" lon="7.013450">
        <ele>2309.876</ele>
        <time>2018-07-18T18:10:41Z</time>
      </trkpt>
      <trkpt lat="45.344046" lon="7.013409">
        <ele>2309.890</ele>
        <time>2018-07-18T18:10:45Z</time>
      </trkpt>
      <trkpt lat="45.343997" lon="7.013363">
        <ele>2309.429</ele>
        <time>2018-07-18T18:10:49Z</time>
      </trkpt>
      <trkpt lat="45.343948" lon="7.013315">
        <ele>2308.493</ele>
        <time>2018-07-18T18:10:53Z</time>
      </trkpt>
      <trkpt lat="45.343899" lon="7.013282">
        <ele>2307.837</ele>
        <time>2018-07-18T18:10:57Z</time>
      </trkpt>
      <trkpt lat="45.343850" lon="7.013250">
        <ele>2307.054</ele>
        <time>2018-07-18T18:11:01Z</time>
      </trkpt>
      <trkpt lat="45.343809" lon="7.013213">
        <ele>2306.156</ele>
        <time>2018-07-18T18:11:05Z</time>
      </trkpt>
      <trkpt lat="45.343769" lon="7.013179">
        <ele>2305.211</ele>
        <time>2018-07-18T18:11:09Z</time>
      </trkpt>
      <trkpt lat="45.343719" lon="7.013143">
        <ele>2304.208</ele>
        <time>2018-07-18T18:11:14Z</time>
      </trkpt>
      <trkpt lat="45.343676" lon="7.013123">
        <ele>2303.257</ele>
        <time>2018-07-18T18:11:18Z</time>
      </trkpt>
      <trkpt lat="45.343635" lon="7.013095">
        <ele>2302.232</ele>
        <time>2018-07-18T18:11:22Z</time>
      </trkpt>
      <trkpt lat="45.343598" lon="7.013043">
        <ele>2300.857</ele>
        <time>2018-07-18T18:11:27Z</time>
      </trkpt>
      <trkpt lat="45.343561" lon="7.012996">
        <ele>2299.652</ele>
        <time>2018-07-18T18:11:32Z</time>
      </trkpt>
      <trkpt lat="45.343518" lon="7.012976">
        <ele>2298.576</ele>
        <time>2018-07-18T18:11:36Z</time>
      </trkpt>
      <trkpt lat="45.343472" lon="7.012962">
        <ele>2297.415</ele>
        <time>2018-07-18T18:11:40Z</time>
      </trkpt>
      <trkpt lat="45.343426" lon="7.012953">
        <ele>2296.399</ele>
        <time>2018-07-18T18:11:44Z</time>
      </trkpt>
      <trkpt lat="45.343379" lon="7.012949">
        <ele>2295.373</ele>
        <time>2018-07-18T18:11:48Z</time>
      </trkpt>
      <trkpt lat="45.343330" lon="7.012951">
        <ele>2294.722</ele>
        <time>2018-07-18T18:11:52Z</time>
      </trkpt>
      <trkpt lat="45.343280" lon="7.012954">
        <ele>2293.962</ele>
        <time>2018-07-18T18:11:56Z</time>
      </trkpt>
      <trkpt lat="45.343231" lon="7.012947">
        <ele>2293.408</ele>
        <time>2018-07-18T18:12:00Z</time>
      </trkpt>
      <trkpt lat="45.343180" lon="7.012938">
        <ele>2292.708</ele>
        <time>2018-07-18T18:12:04Z</time>
      </trkpt>
      <trkpt lat="45.343131" lon="7.012920">
        <ele>2291.924</ele>
        <time>2018-07-18T18:12:08Z</time>
      </trkpt>
      <trkpt lat="45.343086" lon="7.012887">
        <ele>2291.069</ele>
        <time>2018-07-18T18:12:12Z</time>
      </trkpt>
      <trkpt lat="45.343043" lon="7.012849">
        <ele>2290.144</ele>
        <time>2018-07-18T18:12:16Z</time>
      </trkpt>
      <trkpt lat="45.342994" lon="7.012818">
        <ele>2289.179</ele>
        <time>2018-07-18T18:12:20Z</time>
      </trkpt>
      <trkpt lat="45.342945" lon="7.012797">
        <ele>2288.143</ele>
        <time>2018-07-18T18:12:24Z</time>
      </trkpt>
      <trkpt lat="45.342895" lon="7.012780">
        <ele>2287.182</ele>
        <time>2018-07-18T18:12:28Z</time>
      </trkpt>
      <trkpt lat="45.342846" lon="7.012766">
        <ele>2286.136</ele>
        <time>2018-07-18T18:12:32Z</time>
      </trkpt>
      <trkpt lat="45.342799" lon="7.012737">
        <ele>2284.750</ele>
        <time>2018-07-18T18:12:36Z</time>
      </trkpt>
      <trkpt lat="45.342753" lon="7.012699">
        <ele>2283.588</ele>
        <time>2018-07-18T18:12:40Z</time>
      </trkpt>
      <trkpt lat="45.342710" lon="7.012676">
        <ele>2282.424</ele>
        <time>2018-07-18T18:12:44Z</time>
      </trkpt>
      <trkpt lat="45.342667" lon="7.012650">
        <ele>2281.726</ele>
        <time>2018-07-18T18:13:16Z</time>
      </trkpt>
      <trkpt lat="45.342620" lon="7.012625">
        <ele>2280.508</ele>
        <time>2018-07-18T18:13:22Z</time>
      </trkpt>
      <trkpt lat="45.342574" lon="7.012618">
        <ele>2279.410</ele>
        <time>2018-07-18T18:13:31Z</time>
      </trkpt>
      <trkpt lat="45.342529" lon="7.012636">
        <ele>2278.325</ele>
        <time>2018-07-18T18:13:38Z</time>
      </trkpt>
      <trkpt lat="45.342490" lon="7.012667">
        <ele>2276.910</ele>
        <time>2018-07-18T18:13:44Z</time>
      </trkpt>
      <trkpt lat="45.342445" lon="7.012680">
        <ele>2275.645</ele>
        <time>2018-07-18T18:13:51Z</time>
      </trkpt>
      <trkpt lat="45.342414" lon="7.012628">
        <ele>2274.029</ele>
        <time>2018-07-18T18:14:00Z</time>
      </trkpt>
      <trkpt lat="45.342375" lon="7.012594">
        <ele>2271.978</ele>
        <time>2018-07-18T18:14:10Z</time>
      </trkpt>
      <trkpt lat="45.342346" lon="7.012541">
        <ele>2269.852</ele>
        <time>2018-07-18T18:14:18Z</time>
      </trkpt>
      <trkpt lat="45.342339" lon="7.012474">
        <ele>2268.286</ele>
        <time>2018-07-18T18:14:23Z</time>
      </trkpt>
      <trkpt lat="45.342321" lon="7.012407">
        <ele>2266.477</ele>
        <time>2018-07-18T18:14:28Z</time>
      </trkpt>
      <trkpt lat="45.342290" lon="7.012344">
        <ele>2264.961</ele>
        <time>2018-07-18T18:14:33Z</time>
      </trkpt>
      <trkpt lat="45.342248" lon="7.012290">
        <ele>2263.627</ele>
        <time>2018-07-18T18:14:38Z</time>
      </trkpt>
      <trkpt lat="45.342211" lon="7.012252">
        <ele>2262.408</ele>
        <time>2018-07-18T18:14:42Z</time>
      </trkpt>
      <trkpt lat="45.342165" lon="7.012221">
        <ele>2260.999</ele>
        <time>2018-07-18T18:14:47Z</time>
      </trkpt>
      <trkpt lat="45.342113" lon="7.012200">
        <ele>2259.694</ele>
        <time>2018-07-18T18:14:52Z</time>
      </trkpt>
      <trkpt lat="45.342064" lon="7.012218">
        <ele>2258.419</ele>
        <time>2018-07-18T18:14:58Z</time>
      </trkpt>
      <trkpt lat="45.342015" lon="7.012245">
        <ele>2256.954</ele>
        <time>2018-07-18T18:15:03Z</time>
      </trkpt>
      <trkpt lat="45.341970" lon="7.012256">
        <ele>2255.668</ele>
        <time>2018-07-18T18:15:09Z</time>
      </trkpt>
      <trkpt lat="45.341924" lon="7.012257">
        <ele>2254.437</ele>
        <time>2018-07-18T18:15:14Z</time>
      </trkpt>
      <trkpt lat="45.341868" lon="7.012252">
        <ele>2252.911</ele>
        <time>2018-07-18T18:15:19Z</time>
      </trkpt>
      <trkpt lat="45.341823" lon="7.012231">
        <ele>2251.675</ele>
        <time>2018-07-18T18:15:23Z</time>
      </trkpt>
      <trkpt lat="45.341778" lon="7.012203">
        <ele>2250.456</ele>
        <time>2018-07-18T18:15:27Z</time>
      </trkpt>
      <trkpt lat="45.341737" lon="7.012158">
        <ele>2249.359</ele>
        <time>2018-07-18T18:15:32Z</time>
      </trkpt>
      <trkpt lat="45.341698" lon="7.012103">
        <ele>2247.814</ele>
        <time>2018-07-18T18:15:37Z</time>
      </trkpt>
      <trkpt lat="45.341663" lon="7.012043">
        <ele>2246.508</ele>
        <time>2018-07-18T18:15:42Z</time>
      </trkpt>
      <trkpt lat="45.341632" lon="7.011982">
        <ele>2245.767</ele>
        <time>2018-07-18T18:15:47Z</time>
      </trkpt>
      <trkpt lat="45.341608" lon="7.011926">
        <ele>2244.882</ele>
        <time>2018-07-18T18:15:51Z</time>
      </trkpt>
      <trkpt lat="45.341577" lon="7.011866">
        <ele>2243.587</ele>
        <time>2018-07-18T18:15:56Z</time>
      </trkpt>
      <trkpt lat="45.341551" lon="7.011806">
        <ele>2241.952</ele>
        <time>2018-07-18T18:16:01Z</time>
      </trkpt>
      <trkpt lat="45.341536" lon="7.011744">
        <ele>2240.596</ele>
        <time>2018-07-18T18:16:06Z</time>
      </trkpt>
      <trkpt lat="45.341522" lon="7.011676">
        <ele>2239.315</ele>
        <time>2018-07-18T18:16:11Z</time>
      </trkpt>
      <trkpt lat="45.341513" lon="7.011601">
        <ele>2238.279</ele>
        <time>2018-07-18T18:16:16Z</time>
      </trkpt>
      <trkpt lat="45.341506" lon="7.011531">
        <ele>2237.183</ele>
        <time>2018-07-18T18:16:21Z</time>
      </trkpt>
      <trkpt lat="45.341495" lon="7.011459">
        <ele>2235.787</ele>
        <time>2018-07-18T18:16:26Z</time>
      </trkpt>
      <trkpt lat="45.341483" lon="7.011388">
        <ele>2234.442</ele>
        <time>2018-07-18T18:16:31Z</time>
      </trkpt>
      <trkpt lat="45.341476" lon="7.011314">
        <ele>2233.226</ele>
        <time>2018-07-18T18:16:36Z</time>
      </trkpt>
      <trkpt lat="45.341473" lon="7.011239">
        <ele>2232.108</ele>
        <time>2018-07-18T18:16:41Z</time>
      </trkpt>
      <trkpt lat="45.341471" lon="7.011162">
        <ele>2231.040</ele>
        <time>2018-07-18T18:16:46Z</time>
      </trkpt>
      <trkpt lat="45.341455" lon="7.011101">
        <ele>2230.075</ele>
        <time>2018-07-18T18:16:50Z</time>
      </trkpt>
      <trkpt lat="45.341425" lon="7.011036">
        <ele>2228.610</ele>
        <time>2018-07-18T18:16:55Z</time>
      </trkpt>
      <trkpt lat="45.341381" lon="7.010991">
        <ele>2227.345</ele>
        <time>2018-07-18T18:17:00Z</time>
      </trkpt>
      <trkpt lat="45.341344" lon="7.010953">
        <ele>2226.169</ele>
        <time>2018-07-18T18:17:04Z</time>
      </trkpt>
      <trkpt lat="45.341307" lon="7.010915">
        <ele>2225.098</ele>
        <time>2018-07-18T18:17:08Z</time>
      </trkpt>
      <trkpt lat="45.341270" lon="7.010878">
        <ele>2223.952</ele>
        <time>2018-07-18T18:17:12Z</time>
      </trkpt>
      <trkpt lat="45.341231" lon="7.010833">
        <ele>2223.356</ele>
        <time>2018-07-18T18:17:16Z</time>
      </trkpt>
      <trkpt lat="45.341192" lon="7.010787">
        <ele>2222.551</ele>
        <time>2018-07-18T18:17:20Z</time>
      </trkpt>
      <trkpt lat="45.341147" lon="7.010745">
        <ele>2221.601</ele>
        <time>2018-07-18T18:17:25Z</time>
      </trkpt>
      <trkpt lat="45.341106" lon="7.010713">
        <ele>2220.711</ele>
        <time>2018-07-18T18:17:29Z</time>
      </trkpt>
      <trkpt lat="45.341061" lon="7.010706">
        <ele>2219.708</ele>
        <time>2018-07-18T18:17:33Z</time>
      </trkpt>
      <trkpt lat="45.341016" lon="7.010712">
        <ele>2218.747</ele>
        <time>2018-07-18T18:17:37Z</time>
      </trkpt>
      <trkpt lat="45.340969" lon="7.010721">
        <ele>2218.132</ele>
        <time>2018-07-18T18:17:41Z</time>
      </trkpt>
      <trkpt lat="45.340913" lon="7.010720">
        <ele>2217.447</ele>
        <time>2018-07-18T18:17:46Z</time>
      </trkpt>
      <trkpt lat="45.340858" lon="7.010704">
        <ele>2216.282</ele>
        <time>2018-07-18T18:17:51Z</time>
      </trkpt>
      <trkpt lat="45.340804" lon="7.010690">
        <ele>2214.766</ele>
        <time>2018-07-18T18:17:56Z</time>
      </trkpt>
      <trkpt lat="45.340758" lon="7.010665">
        <ele>2213.445</ele>
        <time>2018-07-18T18:18:01Z</time>
      </trkpt>
      <trkpt lat="45.340713" lon="7.010642">
        <ele>2212.279</ele>
        <time>2018-07-18T18:18:06Z</time>
      </trkpt>
      <trkpt lat="45.340669" lon="7.010610">
        <ele>2211.133</ele>
        <time>2018-07-18T18:18:11Z</time>
      </trkpt>
      <trkpt lat="45.340618" lon="7.010582">
        <ele>2210.057</ele>
        <time>2018-07-18T18:18:16Z</time>
      </trkpt>
      <trkpt lat="45.340568" lon="7.010556">
        <ele>2209.000</ele>
        <time>2018-07-18T18:18:21Z</time>
      </trkpt>
      <trkpt lat="45.340524" lon="7.010530">
        <ele>2207.620</ele>
        <time>2018-07-18T18:18:26Z</time>
      </trkpt>
      <trkpt lat="45.340478" lon="7.010513">
        <ele>2206.308</ele>
        <time>2018-07-18T18:18:31Z</time>
      </trkpt>
      <trkpt lat="45.340429" lon="7.010492">
        <ele>2204.717</ele>
        <time>2018-07-18T18:18:36Z</time>
      </trkpt>
      <trkpt lat="45.340376" lon="7.010467">
        <ele>2203.022</ele>
        <time>2018-07-18T18:18:41Z</time>
      </trkpt>
      <trkpt lat="45.340331" lon="7.010456">
        <ele>2201.657</ele>
        <time>2018-07-18T18:18:45Z</time>
      </trkpt>
      <trkpt lat="45.340287" lon="7.010441">
        <ele>2200.362</ele>
        <time>2018-07-18T18:18:49Z</time>
      </trkpt>
      <trkpt lat="45.340243" lon="7.010426">
        <ele>2199.186</ele>
        <time>2018-07-18T18:18:53Z</time>
      </trkpt>
      <trkpt lat="45.340199" lon="7.010408">
        <ele>2198.055</ele>
        <time>2018-07-18T18:18:57Z</time>
      </trkpt>
      <trkpt lat="45.340156" lon="7.010381">
        <ele>2196.519</ele>
        <time>2018-07-18T18:19:01Z</time>
      </trkpt>
      <trkpt lat="45.340105" lon="7.010352">
        <ele>2195.263</ele>
        <time>2018-07-18T18:19:06Z</time>
      </trkpt>
      <trkpt lat="45.340054" lon="7.010327">
        <ele>2194.092</ele>
        <time>2018-07-18T18:19:11Z</time>
      </trkpt>
      <trkpt lat="45.340012" lon="7.010304">
        <ele>2192.573</ele>
        <time>2018-07-18T18:19:15Z</time>
      </trkpt>
      <trkpt lat="45.339960" lon="7.010280">
        <ele>2191.220</ele>
        <time>2018-07-18T18:19:20Z</time>
      </trkpt>
      <trkpt lat="45.339908" lon="7.010291">
        <ele>2190.408</ele>
        <time>2018-07-18T18:19:25Z</time>
      </trkpt>
      <trkpt lat="45.339857" lon="7.010271">
        <ele>2189.171</ele>
        <time>2018-07-18T18:19:32Z</time>
      </trkpt>
      <trkpt lat="45.339823" lon="7.010213">
        <ele>2187.916</ele>
        <time>2018-07-18T18:19:38Z</time>
      </trkpt>
      <trkpt lat="45.339790" lon="7.010161">
        <ele>2186.421</ele>
        <time>2018-07-18T18:19:43Z</time>
      </trkpt>
      <trkpt lat="45.339754" lon="7.010121">
        <ele>2185.196</ele>
        <time>2018-07-18T18:19:48Z</time>
      </trkpt>
      <trkpt lat="45.339711" lon="7.010085">
        <ele>2183.940</ele>
        <time>2018-07-18T18:19:53Z</time>
      </trkpt>
      <trkpt lat="45.339668" lon="7.010053">
        <ele>2182.869</ele>
        <time>2018-07-18T18:19:58Z</time>
      </trkpt>
      <trkpt lat="45.339629" lon="7.010008">
        <ele>2181.363</ele>
        <time>2018-07-18T18:20:04Z</time>
      </trkpt>
      <trkpt lat="45.339590" lon="7.009958">
        <ele>2179.637</ele>
        <time>2018-07-18T18:20:10Z</time>
      </trkpt>
      <trkpt lat="45.339554" lon="7.009915">
        <ele>2177.884</ele>
        <time>2018-07-18T18:20:15Z</time>
      </trkpt>
      <trkpt lat="45.339518" lon="7.009866">
        <ele>2176.307</ele>
        <time>2018-07-18T18:20:21Z</time>
      </trkpt>
      <trkpt lat="45.339481" lon="7.009817">
        <ele>2175.017</ele>
        <time>2018-07-18T18:20:27Z</time>
      </trkpt>
      <trkpt lat="45.339452" lon="7.009762">
        <ele>2173.408</ele>
        <time>2018-07-18T18:20:33Z</time>
      </trkpt>
      <trkpt lat="45.339442" lon="7.009699">
        <ele>2172.190</ele>
        <time>2018-07-18T18:20:40Z</time>
      </trkpt>
      <trkpt lat="45.339405" lon="7.009654">
        <ele>2170.565</ele>
        <time>2018-07-18T18:20:46Z</time>
      </trkpt>
      <trkpt lat="45.339373" lon="7.009603">
        <ele>2169.180</ele>
        <time>2018-07-18T18:20:53Z</time>
      </trkpt>
      <trkpt lat="45.339336" lon="7.009555">
        <ele>2167.575</ele>
        <time>2018-07-18T18:21:06Z</time>
      </trkpt>
      <trkpt lat="45.339306" lon="7.009507">
        <ele>2165.799</ele>
        <time>2018-07-18T18:21:11Z</time>
      </trkpt>
      <trkpt lat="45.339282" lon="7.009451">
        <ele>2164.298</ele>
        <time>2018-07-18T18:21:15Z</time>
      </trkpt>
      <trkpt lat="45.339269" lon="7.009378">
        <ele>2162.932</ele>
        <time>2018-07-18T18:21:21Z</time>
      </trkpt>
      <trkpt lat="45.339257" lon="7.009311">
        <ele>2161.316</ele>
        <time>2018-07-18T18:21:27Z</time>
      </trkpt>
      <trkpt lat="45.339235" lon="7.009240">
        <ele>2160.431</ele>
        <time>2018-07-18T18:21:33Z</time>
      </trkpt>
      <trkpt lat="45.339200" lon="7.009193">
        <ele>2159.061</ele>
        <time>2018-07-18T18:21:40Z</time>
      </trkpt>
      <trkpt lat="45.339186" lon="7.009131">
        <ele>2157.407</ele>
        <time>2018-07-18T18:21:45Z</time>
      </trkpt>
      <trkpt lat="45.339155" lon="7.009073">
        <ele>2156.808</ele>
        <time>2018-07-18T18:21:50Z</time>
      </trkpt>
      <trkpt lat="45.339114" lon="7.009037">
        <ele>2155.735</ele>
        <time>2018-07-18T18:21:55Z</time>
      </trkpt>
      <trkpt lat="45.339091" lon="7.008976">
        <ele>2154.650</ele>
        <time>2018-07-18T18:22:00Z</time>
      </trkpt>
      <trkpt lat="45.339070" lon="7.008916">
        <ele>2153.555</ele>
        <time>2018-07-18T18:22:05Z</time>
      </trkpt>
      <trkpt lat="45.339031" lon="7.008883">
        <ele>2152.960</ele>
        <time>2018-07-18T18:22:15Z</time>
      </trkpt>
      <trkpt lat="45.338993" lon="7.008848">
        <ele>2151.354</ele>
        <time>2018-07-18T18:22:23Z</time>
      </trkpt>
      <trkpt lat="45.338953" lon="7.008807">
        <ele>2149.633</ele>
        <time>2018-07-18T18:22:30Z</time>
      </trkpt>
      <trkpt lat="45.338930" lon="7.008752">
        <ele>2148.237</ele>
        <time>2018-07-18T18:22:35Z</time>
      </trkpt>
      <trkpt lat="45.338900" lon="7.008702">
        <ele>2146.981</ele>
        <time>2018-07-18T18:22:40Z</time>
      </trkpt>
      <trkpt lat="45.338864" lon="7.008651">
        <ele>2145.386</ele>
        <time>2018-07-18T18:22:46Z</time>
      </trkpt>
      <trkpt lat="45.338824" lon="7.008615">
        <ele>2143.660</ele>
        <time>2018-07-18T18:22:51Z</time>
      </trkpt>
      <trkpt lat="45.338788" lon="7.008576">
        <ele>2142.626</ele>
        <time>2018-07-18T18:22:57Z</time>
      </trkpt>
      <trkpt lat="45.338750" lon="7.008542">
        <ele>2141.208</ele>
        <time>2018-07-18T18:23:02Z</time>
      </trkpt>
      <trkpt lat="45.338703" lon="7.008514">
        <ele>2139.950</ele>
        <time>2018-07-18T18:23:09Z</time>
      </trkpt>
      <trkpt lat="45.338658" lon="7.008499">
        <ele>2138.765</ele>
        <time>2018-07-18T18:23:15Z</time>
      </trkpt>
      <trkpt lat="45.338613" lon="7.008475">
        <ele>2137.670</ele>
        <time>2018-07-18T18:23:21Z</time>
      </trkpt>
      <trkpt lat="45.338575" lon="7.008439">
        <ele>2136.595</ele>
        <time>2018-07-18T18:23:27Z</time>
      </trkpt>
      <trkpt lat="45.338535" lon="7.008392">
        <ele>2134.719</ele>
        <time>2018-07-18T18:23:33Z</time>
      </trkpt>
      <trkpt lat="45.338507" lon="7.008331">
        <ele>2134.498</ele>
        <time>2018-07-18T18:23:39Z</time>
      </trkpt>
      <trkpt lat="45.338481" lon="7.008276">
        <ele>2133.412</ele>
        <time>2018-07-18T18:23:44Z</time>
      </trkpt>
      <trkpt lat="45.338446" lon="7.008231">
        <ele>2132.066</ele>
        <time>2018-07-18T18:23:49Z</time>
      </trkpt>
      <trkpt lat="45.338422" lon="7.008175">
        <ele>2130.863</ele>
        <time>2018-07-18T18:23:54Z</time>
      </trkpt>
      <trkpt lat="45.338380" lon="7.008139">
        <ele>2129.744</ele>
        <time>2018-07-18T18:24:11Z</time>
      </trkpt>
      <trkpt lat="45.338332" lon="7.008140">
        <ele>2128.618</ele>
        <time>2018-07-18T18:24:21Z</time>
      </trkpt>
      <trkpt lat="45.338293" lon="7.008094">
        <ele>2127.108</ele>
        <time>2018-07-18T18:24:30Z</time>
      </trkpt>
      <trkpt lat="45.338269" lon="7.008036">
        <ele>2126.288</ele>
        <time>2018-07-18T18:24:36Z</time>
      </trkpt>
      <trkpt lat="45.338237" lon="7.007985">
        <ele>2125.323</ele>
        <time>2018-07-18T18:24:41Z</time>
      </trkpt>
      <trkpt lat="45.338208" lon="7.007930">
        <ele>2124.368</ele>
        <time>2018-07-18T18:24:47Z</time>
      </trkpt>
      <trkpt lat="45.338160" lon="7.007913">
        <ele>2122.583</ele>
        <time>2018-07-18T18:25:10Z</time>
      </trkpt>
      <trkpt lat="45.338134" lon="7.007849">
        <ele>2121.857</ele>
        <time>2018-07-18T18:25:59Z</time>
      </trkpt>
      <trkpt lat="45.338114" lon="7.007780">
        <ele>2120.696</ele>
        <time>2018-07-18T18:26:06Z</time>
      </trkpt>
      <trkpt lat="45.338095" lon="7.007721">
        <ele>2119.120</ele>
        <time>2018-07-18T18:26:11Z</time>
      </trkpt>
      <trkpt lat="45.338057" lon="7.007678">
        <ele>2117.494</ele>
        <time>2018-07-18T18:26:18Z</time>
      </trkpt>
      <trkpt lat="45.338023" lon="7.007633">
        <ele>2115.617</ele>
        <time>2018-07-18T18:26:26Z</time>
      </trkpt>
      <trkpt lat="45.337993" lon="7.007582">
        <ele>2113.787</ele>
        <time>2018-07-18T18:26:33Z</time>
      </trkpt>
      <trkpt lat="45.337974" lon="7.007512">
        <ele>2112.215</ele>
        <time>2018-07-18T18:26:39Z</time>
      </trkpt>
      <trkpt lat="45.337944" lon="7.007463">
        <ele>2110.908</ele>
        <time>2018-07-18T18:26:45Z</time>
      </trkpt>
      <trkpt lat="45.337908" lon="7.007416">
        <ele>2108.563</ele>
        <time>2018-07-18T18:26:50Z</time>
      </trkpt>
      <trkpt lat="45.337868" lon="7.007362">
        <ele>2107.518</ele>
        <time>2018-07-18T18:26:55Z</time>
      </trkpt>
      <trkpt lat="45.337834" lon="7.007306">
        <ele>2106.553</ele>
        <time>2018-07-18T18:27:00Z</time>
      </trkpt>
      <trkpt lat="45.337801" lon="7.007255">
        <ele>2105.588</ele>
        <time>2018-07-18T18:27:05Z</time>
      </trkpt>
      <trkpt lat="45.337767" lon="7.007209">
        <ele>2104.522</ele>
        <time>2018-07-18T18:27:11Z</time>
      </trkpt>
      <trkpt lat="45.337723" lon="7.007169">
        <ele>2103.161</ele>
        <time>2018-07-18T18:27:18Z</time>
      </trkpt>
      <trkpt lat="45.337682" lon="7.007132">
        <ele>2101.975</ele>
        <time>2018-07-18T18:27:24Z</time>
      </trkpt>
      <trkpt lat="45.337665" lon="7.007063">
        <ele>2100.049</ele>
        <time>2018-07-18T18:27:32Z</time>
      </trkpt>
      <trkpt lat="45.337661" lon="7.006998">
        <ele>2098.425</ele>
        <time>2018-07-18T18:27:37Z</time>
      </trkpt>
      <trkpt lat="45.337658" lon="7.006927">
        <ele>2096.726</ele>
        <time>2018-07-18T18:27:43Z</time>
      </trkpt>
      <trkpt lat="45.337662" lon="7.006852">
        <ele>2095.308</ele>
        <time>2018-07-18T18:27:50Z</time>
      </trkpt>
      <trkpt lat="45.337648" lon="7.006784">
        <ele>2094.008</ele>
        <time>2018-07-18T18:27:58Z</time>
      </trkpt>
      <trkpt lat="45.337617" lon="7.006731">
        <ele>2092.854</ele>
        <time>2018-07-18T18:28:03Z</time>
      </trkpt>
      <trkpt lat="45.337588" lon="7.006680">
        <ele>2091.739</ele>
        <time>2018-07-18T18:28:08Z</time>
      </trkpt>
      <trkpt lat="45.337558" lon="7.006621">
        <ele>2090.274</ele>
        <time>2018-07-18T18:28:14Z</time>
      </trkpt>
      <trkpt lat="45.337525" lon="7.006573">
        <ele>2088.969</ele>
        <time>2018-07-18T18:28:19Z</time>
      </trkpt>
      <trkpt lat="45.337484" lon="7.006533">
        <ele>2087.323</ele>
        <time>2018-07-18T18:28:25Z</time>
      </trkpt>
      <trkpt lat="45.337450" lon="7.006485">
        <ele>2085.692</ele>
        <time>2018-07-18T18:28:30Z</time>
      </trkpt>
      <trkpt lat="45.337406" lon="7.006449">
        <ele>2084.256</ele>
        <time>2018-07-18T18:28:35Z</time>
      </trkpt>
      <trkpt lat="45.337361" lon="7.006432">
        <ele>2082.970</ele>
        <time>2018-07-18T18:28:40Z</time>
      </trkpt>
      <trkpt lat="45.337318" lon="7.006404">
        <ele>2081.723</ele>
        <time>2018-07-18T18:28:45Z</time>
      </trkpt>
      <trkpt lat="45.337267" lon="7.006399">
        <ele>2080.683</ele>
        <time>2018-07-18T18:28:50Z</time>
      </trkpt>
      <trkpt lat="45.337220" lon="7.006385">
        <ele>2079.511</ele>
        <time>2018-07-18T18:28:55Z</time>
      </trkpt>
      <trkpt lat="45.337171" lon="7.006380">
        <ele>2078.108</ele>
        <time>2018-07-18T18:29:01Z</time>
      </trkpt>
      <trkpt lat="45.337122" lon="7.006366">
        <ele>2076.444</ele>
        <time>2018-07-18T18:29:07Z</time>
      </trkpt>
      <trkpt lat="45.337074" lon="7.006350">
        <ele>2075.459</ele>
        <time>2018-07-18T18:29:14Z</time>
      </trkpt>
      <trkpt lat="45.337028" lon="7.006326">
        <ele>2074.094</ele>
        <time>2018-07-18T18:29:21Z</time>
      </trkpt>
      <trkpt lat="45.336984" lon="7.006307">
        <ele>2072.469</ele>
        <time>2018-07-18T18:29:28Z</time>
      </trkpt>
      <trkpt lat="45.336941" lon="7.006280">
        <ele>2071.053</ele>
        <time>2018-07-18T18:29:37Z</time>
      </trkpt>
      <trkpt lat="45.336900" lon="7.006250">
        <ele>2069.012</ele>
        <time>2018-07-18T18:29:45Z</time>
      </trkpt>
      <trkpt lat="45.336871" lon="7.006197">
        <ele>2067.446</ele>
        <time>2018-07-18T18:29:53Z</time>
      </trkpt>
      <trkpt lat="45.336823" lon="7.006179">
        <ele>2065.240</ele>
        <time>2018-07-18T18:30:03Z</time>
      </trkpt>
      <trkpt lat="45.336779" lon="7.006196">
        <ele>2063.524</ele>
        <time>2018-07-18T18:30:10Z</time>
      </trkpt>
      <trkpt lat="45.336765" lon="7.006128">
        <ele>2061.704</ele>
        <time>2018-07-18T18:30:18Z</time>
      </trkpt>
      <trkpt lat="45.336727" lon="7.006086">
        <ele>2060.214</ele>
        <time>2018-07-18T18:30:27Z</time>
      </trkpt>
      <trkpt lat="45.336681" lon="7.006121">
        <ele>2058.508</ele>
        <time>2018-07-18T18:30:37Z</time>
      </trkpt>
      <trkpt lat="45.336635" lon="7.006121">
        <ele>2056.714</ele>
        <time>2018-07-18T18:30:44Z</time>
      </trkpt>
      <trkpt lat="45.336587" lon="7.006107">
        <ele>2055.249</ele>
        <time>2018-07-18T18:30:52Z</time>
      </trkpt>
      <trkpt lat="45.336547" lon="7.006137">
        <ele>2053.984</ele>
        <time>2018-07-18T18:31:02Z</time>
      </trkpt>
      <trkpt lat="45.336502" lon="7.006133">
        <ele>2052.769</ele>
        <time>2018-07-18T18:31:08Z</time>
      </trkpt>
      <trkpt lat="45.336462" lon="7.006096">
        <ele>2051.243</ele>
        <time>2018-07-18T18:31:13Z</time>
      </trkpt>
      <trkpt lat="45.336420" lon="7.006057">
        <ele>2049.932</ele>
        <time>2018-07-18T18:31:19Z</time>
      </trkpt>
      <trkpt lat="45.336379" lon="7.006022">
        <ele>2048.766</ele>
        <time>2018-07-18T18:31:24Z</time>
      </trkpt>
      <trkpt lat="45.336335" lon="7.005991">
        <ele>2047.260</ele>
        <time>2018-07-18T18:31:29Z</time>
      </trkpt>
      <trkpt lat="45.336290" lon="7.005966">
        <ele>2046.349</ele>
        <time>2018-07-18T18:31:34Z</time>
      </trkpt>
      <trkpt lat="45.336248" lon="7.005933">
        <ele>2045.002</ele>
        <time>2018-07-18T18:31:39Z</time>
      </trkpt>
      <trkpt lat="45.336212" lon="7.005884">
        <ele>2043.022</ele>
        <time>2018-07-18T18:31:45Z</time>
      </trkpt>
      <trkpt lat="45.336158" lon="7.005872">
        <ele>2042.208</ele>
        <time>2018-07-18T18:31:53Z</time>
      </trkpt>
      <trkpt lat="45.336151" lon="7.005954">
        <ele>2040.956</ele>
        <time>2018-07-18T18:32:02Z</time>
      </trkpt>
      <trkpt lat="45.336131" lon="7.006018">
        <ele>2040.161</ele>
        <time>2018-07-18T18:32:05Z</time>
      </trkpt>
      <trkpt lat="45.336134" lon="7.006097">
        <ele>2038.816</ele>
        <time>2018-07-18T18:32:09Z</time>
      </trkpt>
      <trkpt lat="45.336131" lon="7.006164">
        <ele>2037.611</ele>
        <time>2018-07-18T18:32:14Z</time>
      </trkpt>
      <trkpt lat="45.336136" lon="7.006240">
        <ele>2036.925</ele>
        <time>2018-07-18T18:32:19Z</time>
      </trkpt>
      <trkpt lat="45.336126" lon="7.006307">
        <ele>2036.574</ele>
        <time>2018-07-18T18:32:24Z</time>
      </trkpt>
      <trkpt lat="45.336081" lon="7.006315">
        <ele>2035.918</ele>
        <time>2018-07-18T18:32:30Z</time>
      </trkpt>
      <trkpt lat="45.336041" lon="7.006283">
        <ele>2034.772</ele>
        <time>2018-07-18T18:32:37Z</time>
      </trkpt>
      <trkpt lat="45.335994" lon="7.006248">
        <ele>2033.219</ele>
        <time>2018-07-18T18:32:43Z</time>
      </trkpt>
      <trkpt lat="45.335947" lon="7.006215">
        <ele>2031.509</ele>
        <time>2018-07-18T18:32:49Z</time>
      </trkpt>
      <trkpt lat="45.335908" lon="7.006182">
        <ele>2030.519</ele>
        <time>2018-07-18T18:32:54Z</time>
      </trkpt>
      <trkpt lat="45.335865" lon="7.006138">
        <ele>2029.508</ele>
        <time>2018-07-18T18:33:00Z</time>
      </trkpt>
      <trkpt lat="45.335831" lon="7.006091">
        <ele>2028.553</ele>
        <time>2018-07-18T18:33:05Z</time>
      </trkpt>
      <trkpt lat="45.335801" lon="7.006030">
        <ele>2027.578</ele>
        <time>2018-07-18T18:33:10Z</time>
      </trkpt>
      <trkpt lat="45.335786" lon="7.005958">
        <ele>2026.563</ele>
        <time>2018-07-18T18:33:15Z</time>
      </trkpt>
      <trkpt lat="45.335780" lon="7.005884">
        <ele>2025.518</ele>
        <time>2018-07-18T18:33:20Z</time>
      </trkpt>
      <trkpt lat="45.335772" lon="7.005809">
        <ele>2023.782</ele>
        <time>2018-07-18T18:33:26Z</time>
      </trkpt>
      <trkpt lat="45.335726" lon="7.005810">
        <ele>2022.661</ele>
        <time>2018-07-18T18:33:32Z</time>
      </trkpt>
      <trkpt lat="45.335701" lon="7.005867">
        <ele>2022.055</ele>
        <time>2018-07-18T18:33:37Z</time>
      </trkpt>
      <trkpt lat="45.335689" lon="7.005941">
        <ele>2021.279</ele>
        <time>2018-07-18T18:33:42Z</time>
      </trkpt>
      <trkpt lat="45.335673" lon="7.006011">
        <ele>2020.775</ele>
        <time>2018-07-18T18:33:47Z</time>
      </trkpt>
      <trkpt lat="45.335656" lon="7.006080">
        <ele>2020.028</ele>
        <time>2018-07-18T18:33:52Z</time>
      </trkpt>
      <trkpt lat="45.335651" lon="7.006154">
        <ele>2019.220</ele>
        <time>2018-07-18T18:33:57Z</time>
      </trkpt>
      <trkpt lat="45.335652" lon="7.006231">
        <ele>2017.908</ele>
        <time>2018-07-18T18:34:02Z</time>
      </trkpt>
      <trkpt lat="45.335646" lon="7.006296">
        <ele>2017.149</ele>
        <time>2018-07-18T18:34:06Z</time>
      </trkpt>
      <trkpt lat="45.335609" lon="7.006351">
        <ele>2016.684</ele>
        <time>2018-07-18T18:34:11Z</time>
      </trkpt>
      <trkpt lat="45.335562" lon="7.006321">
        <ele>2015.169</ele>
        <time>2018-07-18T18:34:17Z</time>
      </trkpt>
      <trkpt lat="45.335530" lon="7.006266">
        <ele>2013.844</ele>
        <time>2018-07-18T18:34:23Z</time>
      </trkpt>
      <trkpt lat="45.335504" lon="7.006207">
        <ele>2012.618</ele>
        <time>2018-07-18T18:34:29Z</time>
      </trkpt>
      <trkpt lat="45.335470" lon="7.006163">
        <ele>2010.737</ele>
        <time>2018-07-18T18:34:35Z</time>
      </trkpt>
      <trkpt lat="45.335429" lon="7.006123">
        <ele>2008.811</ele>
        <time>2018-07-18T18:34:41Z</time>
      </trkpt>
      <trkpt lat="45.335384" lon="7.006079">
        <ele>2006.415</ele>
        <time>2018-07-18T18:34:47Z</time>
      </trkpt>
      <trkpt lat="45.335339" lon="7.006059">
        <ele>2005.066</ele>
        <time>2018-07-18T18:34:53Z</time>
      </trkpt>
      <trkpt lat="45.335295" lon="7.006022">
        <ele>2002.929</ele>
        <time>2018-07-18T18:34:59Z</time>
      </trkpt>
      <trkpt lat="45.335271" lon="7.005961">
        <ele>2000.921</ele>
        <time>2018-07-18T18:35:06Z</time>
      </trkpt>
      <trkpt lat="45.335240" lon="7.005904">
        <ele>1998.508</ele>
        <time>2018-07-18T18:35:13Z</time>
      </trkpt>
      <trkpt lat="45.335205" lon="7.005859">
        <ele>1997.048</ele>
        <time>2018-07-18T18:35:20Z</time>
      </trkpt>
      <trkpt lat="45.335173" lon="7.005806">
        <ele>1995.333</ele>
        <time>2018-07-18T18:35:26Z</time>
      </trkpt>
      <trkpt lat="45.335148" lon="7.005749">
        <ele>1993.938</ele>
        <time>2018-07-18T18:35:31Z</time>
      </trkpt>
      <trkpt lat="45.335106" lon="7.005703">
        <ele>1992.333</ele>
        <time>2018-07-18T18:35:37Z</time>
      </trkpt>
      <trkpt lat="45.335059" lon="7.005705">
        <ele>1990.567</ele>
        <time>2018-07-18T18:35:44Z</time>
      </trkpt>
      <trkpt lat="45.335008" lon="7.005707">
        <ele>1989.086</ele>
        <time>2018-07-18T18:35:51Z</time>
      </trkpt>
      <trkpt lat="45.334970" lon="7.005747">
        <ele>1987.350</ele>
        <time>2018-07-18T18:35:58Z</time>
      </trkpt>
      <trkpt lat="45.334924" lon="7.005757">
        <ele>1985.544</ele>
        <time>2018-07-18T18:36:05Z</time>
      </trkpt>
      <trkpt lat="45.334878" lon="7.005755">
        <ele>1984.082</ele>
        <time>2018-07-18T18:36:11Z</time>
      </trkpt>
      <trkpt lat="45.334833" lon="7.005775">
        <ele>1982.343</ele>
        <time>2018-07-18T18:36:18Z</time>
      </trkpt>
      <trkpt lat="45.334810" lon="7.005835">
        <ele>1980.917</ele>
        <time>2018-07-18T18:36:24Z</time>
      </trkpt>
      <trkpt lat="45.334771" lon="7.005884">
        <ele>1979.308</ele>
        <time>2018-07-18T18:36:31Z</time>
      </trkpt>
      <trkpt lat="45.334725" lon="7.005898">
        <ele>1977.960</ele>
        <time>2018-07-18T18:36:39Z</time>
      </trkpt>
      <trkpt lat="45.334678" lon="7.005919">
        <ele>1976.725</ele>
        <time>2018-07-18T18:36:46Z</time>
      </trkpt>
      <trkpt lat="45.334652" lon="7.005971">
        <ele>1975.680</ele>
        <time>2018-07-18T18:36:52Z</time>
      </trkpt>
      <trkpt lat="45.334614" lon="7.006015">
        <ele>1974.595</ele>
        <time>2018-07-18T18:37:00Z</time>
      </trkpt>
      <trkpt lat="45.334571" lon="7.005993">
        <ele>1972.639</ele>
        <time>2018-07-18T18:37:10Z</time>
      </trkpt>
      <trkpt lat="45.334543" lon="7.006051">
        <ele>1971.148</ele>
        <time>2018-07-18T18:37:17Z</time>
      </trkpt>
      <trkpt lat="45.334523" lon="7.006113">
        <ele>1969.872</ele>
        <time>2018-07-18T18:37:24Z</time>
      </trkpt>
      <trkpt lat="45.334478" lon="7.006100">
        <ele>1967.456</ele>
        <time>2018-07-18T18:37:32Z</time>
      </trkpt>
      <trkpt lat="45.334454" lon="7.006044">
        <ele>1966.074</ele>
        <time>2018-07-18T18:37:37Z</time>
      </trkpt>
      <trkpt lat="45.334441" lon="7.005976">
        <ele>1964.756</ele>
        <time>2018-07-18T18:37:43Z</time>
      </trkpt>
      <trkpt lat="45.334437" lon="7.005912">
        <ele>1963.521</ele>
        <time>2018-07-18T18:37:48Z</time>
      </trkpt>
      <trkpt lat="45.334407" lon="7.005859">
        <ele>1962.008</ele>
        <time>2018-07-18T18:37:54Z</time>
      </trkpt>
      <trkpt lat="45.334370" lon="7.005902">
        <ele>1960.739</ele>
        <time>2018-07-18T18:38:01Z</time>
      </trkpt>
      <trkpt lat="45.334337" lon="7.005956">
        <ele>1959.564</ele>
        <time>2018-07-18T18:38:07Z</time>
      </trkpt>
      <trkpt lat="45.334304" lon="7.006002">
        <ele>1958.429</ele>
        <time>2018-07-18T18:38:15Z</time>
      </trkpt>
      <trkpt lat="45.334280" lon="7.005936">
        <ele>1956.544</ele>
        <time>2018-07-18T18:38:22Z</time>
      </trkpt>
      <trkpt lat="45.334264" lon="7.005867">
        <ele>1955.048</ele>
        <time>2018-07-18T18:38:28Z</time>
      </trkpt>
      <trkpt lat="45.334239" lon="7.005811">
        <ele>1953.737</ele>
        <time>2018-07-18T18:38:35Z</time>
      </trkpt>
      <trkpt lat="45.334209" lon="7.005756">
        <ele>1952.131</ele>
        <time>2018-07-18T18:38:42Z</time>
      </trkpt>
      <trkpt lat="45.334161" lon="7.005761">
        <ele>1949.955</ele>
        <time>2018-07-18T18:38:55Z</time>
      </trkpt>
      <trkpt lat="45.334130" lon="7.005713">
        <ele>1948.275</ele>
        <time>2018-07-18T18:39:01Z</time>
      </trkpt>
      <trkpt lat="45.334121" lon="7.005643">
        <ele>1946.828</ele>
        <time>2018-07-18T18:39:08Z</time>
      </trkpt>
      <trkpt lat="45.334120" lon="7.005570">
        <ele>1945.620</ele>
        <time>2018-07-18T18:39:14Z</time>
      </trkpt>
      <trkpt lat="45.334111" lon="7.005497">
        <ele>1944.108</ele>
        <time>2018-07-18T18:39:20Z</time>
      </trkpt>
      <trkpt lat="45.334062" lon="7.005489">
        <ele>1943.219</ele>
        <time>2018-07-18T18:39:28Z</time>
      </trkpt>
      <trkpt lat="45.334021" lon="7.005522">
        <ele>1942.254</ele>
        <time>2018-07-18T18:39:34Z</time>
      </trkpt>
      <trkpt lat="45.333975" lon="7.005531">
        <ele>1941.279</ele>
        <time>2018-07-18T18:39:40Z</time>
      </trkpt>
      <trkpt lat="45.333924" lon="7.005545">
        <ele>1939.864</ele>
        <time>2018-07-18T18:39:47Z</time>
      </trkpt>
      <trkpt lat="45.333883" lon="7.005583">
        <ele>1937.828</ele>
        <time>2018-07-18T18:40:02Z</time>
      </trkpt>
      <trkpt lat="45.333862" lon="7.005649">
        <ele>1935.887</ele>
        <time>2018-07-18T18:40:12Z</time>
      </trkpt>
      <trkpt lat="45.333836" lon="7.005704">
        <ele>1933.841</ele>
        <time>2018-07-18T18:40:20Z</time>
      </trkpt>
      <trkpt lat="45.333810" lon="7.005757">
        <ele>1932.285</ele>
        <time>2018-07-18T18:40:26Z</time>
      </trkpt>
      <trkpt lat="45.333807" lon="7.005830">
        <ele>1930.895</ele>
        <time>2018-07-18T18:40:33Z</time>
      </trkpt>
      <trkpt lat="45.333823" lon="7.005892">
        <ele>1929.249</ele>
        <time>2018-07-18T18:40:39Z</time>
      </trkpt>
      <trkpt lat="45.333848" lon="7.005957">
        <ele>1928.223</ele>
        <time>2018-07-18T18:40:44Z</time>
      </trkpt>
      <trkpt lat="45.333869" lon="7.006025">
        <ele>1927.208</ele>
        <time>2018-07-18T18:40:49Z</time>
      </trkpt>
      <trkpt lat="45.333881" lon="7.006095">
        <ele>1925.851</ele>
        <time>2018-07-18T18:40:54Z</time>
      </trkpt>
      <trkpt lat="45.333888" lon="7.006160">
        <ele>1924.646</ele>
        <time>2018-07-18T18:40:59Z</time>
      </trkpt>
      <trkpt lat="45.333886" lon="7.006234">
        <ele>1923.111</ele>
        <time>2018-07-18T18:41:05Z</time>
      </trkpt>
      <trkpt lat="45.333871" lon="7.006302">
        <ele>1921.836</ele>
        <time>2018-07-18T18:41:11Z</time>
      </trkpt>
      <trkpt lat="45.333861" lon="7.006366">
        <ele>1920.680</ele>
        <time>2018-07-18T18:41:16Z</time>
      </trkpt>
      <trkpt lat="45.333842" lon="7.006425">
        <ele>1919.599</ele>
        <time>2018-07-18T18:41:21Z</time>
      </trkpt>
      <trkpt lat="45.333801" lon="7.006463">
        <ele>1918.893</ele>
        <time>2018-07-18T18:41:27Z</time>
      </trkpt>
      <trkpt lat="45.333767" lon="7.006419">
        <ele>1918.897</ele>
        <time>2018-07-18T18:41:32Z</time>
      </trkpt>
      <trkpt lat="45.333730" lon="7.006379">
        <ele>1918.429</ele>
        <time>2018-07-18T18:41:36Z</time>
      </trkpt>
      <trkpt lat="45.333677" lon="7.006364">
        <ele>1917.400</ele>
        <time>2018-07-18T18:41:41Z</time>
      </trkpt>
      <trkpt lat="45.333635" lon="7.006331">
        <ele>1916.020</ele>
        <time>2018-07-18T18:41:46Z</time>
      </trkpt>
      <trkpt lat="45.333590" lon="7.006317">
        <ele>1914.708</ele>
        <time>2018-07-18T18:41:52Z</time>
      </trkpt>
      <trkpt lat="45.333546" lon="7.006302">
        <ele>1913.524</ele>
        <time>2018-07-18T18:41:59Z</time>
      </trkpt>
      <trkpt lat="45.333498" lon="7.006302">
        <ele>1912.099</ele>
        <time>2018-07-18T18:42:08Z</time>
      </trkpt>
      <trkpt lat="45.333452" lon="7.006286">
        <ele>1910.374</ele>
        <time>2018-07-18T18:42:15Z</time>
      </trkpt>
      <trkpt lat="45.333405" lon="7.006275">
        <ele>1908.569</ele>
        <time>2018-07-18T18:42:22Z</time>
      </trkpt>
      <trkpt lat="45.333357" lon="7.006263">
        <ele>1906.293</ele>
        <time>2018-07-18T18:42:30Z</time>
      </trkpt>
      <trkpt lat="45.333311" lon="7.006237">
        <ele>1904.012</ele>
        <time>2018-07-18T18:42:38Z</time>
      </trkpt>
      <trkpt lat="45.333276" lon="7.006195">
        <ele>1902.386</ele>
        <time>2018-07-18T18:42:46Z</time>
      </trkpt>
      <trkpt lat="45.333227" lon="7.006167">
        <ele>1900.950</ele>
        <time>2018-07-18T18:43:04Z</time>
      </trkpt>
      <trkpt lat="45.333174" lon="7.006150">
        <ele>1899.265</ele>
        <time>2018-07-18T18:43:11Z</time>
      </trkpt>
      <trkpt lat="45.333122" lon="7.006139">
        <ele>1897.468</ele>
        <time>2018-07-18T18:43:21Z</time>
      </trkpt>
      <trkpt lat="45.333077" lon="7.006186">
        <ele>1896.314</ele>
        <time>2018-07-18T18:43:29Z</time>
      </trkpt>
      <trkpt lat="45.333046" lon="7.006244">
        <ele>1895.308</ele>
        <time>2018-07-18T18:43:35Z</time>
      </trkpt>
      <trkpt lat="45.333025" lon="7.006309">
        <ele>1894.378</ele>
        <time>2018-07-18T18:43:41Z</time>
      </trkpt>
      <trkpt lat="45.333010" lon="7.006372">
        <ele>1892.923</ele>
        <time>2018-07-18T18:43:52Z</time>
      </trkpt>
      <trkpt lat="45.332988" lon="7.006441">
        <ele>1891.738</ele>
        <time>2018-07-18T18:43:59Z</time>
      </trkpt>
      <trkpt lat="45.332977" lon="7.006514">
        <ele>1890.693</ele>
        <time>2018-07-18T18:44:04Z</time>
      </trkpt>
      <trkpt lat="45.332975" lon="7.006579">
        <ele>1889.957</ele>
        <time>2018-07-18T18:44:08Z</time>
      </trkpt>
      <trkpt lat="45.332976" lon="7.006643">
        <ele>1889.136</ele>
        <time>2018-07-18T18:44:12Z</time>
      </trkpt>
      <trkpt lat="45.332970" lon="7.006713">
        <ele>1887.880</ele>
        <time>2018-07-18T18:44:17Z</time>
      </trkpt>
      <trkpt lat="45.332967" lon="7.006785">
        <ele>1887.414</ele>
        <time>2018-07-18T18:44:22Z</time>
      </trkpt>
      <trkpt lat="45.332980" lon="7.006851">
        <ele>1886.428</ele>
        <time>2018-07-18T18:44:27Z</time>
      </trkpt>
      <trkpt lat="45.333008" lon="7.006917">
        <ele>1885.489</ele>
        <time>2018-07-18T18:44:32Z</time>
      </trkpt>
      <trkpt lat="45.333028" lon="7.006987">
        <ele>1884.417</ele>
        <time>2018-07-18T18:44:37Z</time>
      </trkpt>
      <trkpt lat="45.333058" lon="7.007045">
        <ele>1883.808</ele>
        <time>2018-07-18T18:44:42Z</time>
      </trkpt>
      <trkpt lat="45.333096" lon="7.007082">
        <ele>1882.694</ele>
        <time>2018-07-18T18:44:47Z</time>
      </trkpt>
      <trkpt lat="45.333135" lon="7.007132">
        <ele>1881.529</ele>
        <time>2018-07-18T18:44:54Z</time>
      </trkpt>
      <trkpt lat="45.333109" lon="7.007199">
        <ele>1880.044</ele>
        <time>2018-07-18T18:45:00Z</time>
      </trkpt>
      <trkpt lat="45.333068" lon="7.007244">
        <ele>1879.159</ele>
        <time>2018-07-18T18:45:05Z</time>
      </trkpt>
      <trkpt lat="45.333045" lon="7.007308">
        <ele>1878.263</ele>
        <time>2018-07-18T18:45:10Z</time>
      </trkpt>
      <trkpt lat="45.333052" lon="7.007379">
        <ele>1876.862</ele>
        <time>2018-07-18T18:45:16Z</time>
      </trkpt>
      <trkpt lat="45.333078" lon="7.007432">
        <ele>1876.066</ele>
        <time>2018-07-18T18:45:21Z</time>
      </trkpt>
      <trkpt lat="45.333102" lon="7.007496">
        <ele>1875.190</ele>
        <time>2018-07-18T18:45:26Z</time>
      </trkpt>
      <trkpt lat="45.333108" lon="7.007570">
        <ele>1874.256</ele>
        <time>2018-07-18T18:45:33Z</time>
      </trkpt>
      <trkpt lat="45.333108" lon="7.007640">
        <ele>1872.859</ele>
        <time>2018-07-18T18:45:41Z</time>
      </trkpt>
      <trkpt lat="45.333115" lon="7.007704">
        <ele>1872.414</ele>
        <time>2018-07-18T18:45:46Z</time>
      </trkpt>
      <trkpt lat="45.333105" lon="7.007769">
        <ele>1871.008</ele>
        <time>2018-07-18T18:46:08Z</time>
      </trkpt>
      <trkpt lat="45.333099" lon="7.007833">
        <ele>1869.327</ele>
        <time>2018-07-18T18:46:19Z</time>
      </trkpt>
      <trkpt lat="45.333065" lon="7.007879">
        <ele>1867.962</ele>
        <time>2018-07-18T18:46:24Z</time>
      </trkpt>
      <trkpt lat="45.333030" lon="7.007933">
        <ele>1866.747</ele>
        <time>2018-07-18T18:46:29Z</time>
      </trkpt>
      <trkpt lat="45.333016" lon="7.008005">
        <ele>1865.632</ele>
        <time>2018-07-18T18:46:34Z</time>
      </trkpt>
      <trkpt lat="45.333020" lon="7.008078">
        <ele>1864.966</ele>
        <time>2018-07-18T18:46:39Z</time>
      </trkpt>
      <trkpt lat="45.333041" lon="7.008143">
        <ele>1864.165</ele>
        <time>2018-07-18T18:46:43Z</time>
      </trkpt>
      <trkpt lat="45.333059" lon="7.008206">
        <ele>1863.659</ele>
        <time>2018-07-18T18:46:47Z</time>
      </trkpt>
      <trkpt lat="45.333068" lon="7.008280">
        <ele>1862.963</ele>
        <time>2018-07-18T18:46:52Z</time>
      </trkpt>
      <trkpt lat="45.333086" lon="7.008345">
        <ele>1862.178</ele>
        <time>2018-07-18T18:46:56Z</time>
      </trkpt>
      <trkpt lat="45.333112" lon="7.008410">
        <ele>1861.233</ele>
        <time>2018-07-18T18:47:00Z</time>
      </trkpt>
      <trkpt lat="45.333139" lon="7.008474">
        <ele>1860.326</ele>
        <time>2018-07-18T18:47:04Z</time>
      </trkpt>
      <trkpt lat="45.333165" lon="7.008529">
        <ele>1858.908</ele>
        <time>2018-07-18T18:47:08Z</time>
      </trkpt>
      <trkpt lat="45.333198" lon="7.008585">
        <ele>1857.779</ele>
        <time>2018-07-18T18:47:12Z</time>
      </trkpt>
      <trkpt lat="45.333225" lon="7.008638">
        <ele>1856.654</ele>
        <time>2018-07-18T18:47:16Z</time>
      </trkpt>
      <trkpt lat="45.333249" lon="7.008693">
        <ele>1855.539</ele>
        <time>2018-07-18T18:47:20Z</time>
      </trkpt>
      <trkpt lat="45.333280" lon="7.008746">
        <ele>1854.994</ele>
        <time>2018-07-18T18:47:24Z</time>
      </trkpt>
      <trkpt lat="45.333312" lon="7.008800">
        <ele>1854.178</ele>
        <time>2018-07-18T18:47:28Z</time>
      </trkpt>
      <trkpt lat="45.333337" lon="7.008860">
        <ele>1853.237</ele>
        <time>2018-07-18T18:47:32Z</time>
      </trkpt>
      <trkpt lat="45.333353" lon="7.008924">
        <ele>1852.321</ele>
        <time>2018-07-18T18:47:36Z</time>
      </trkpt>
      <trkpt lat="45.333323" lon="7.008982">
        <ele>1851.355</ele>
        <time>2018-07-18T18:47:42Z</time>
      </trkpt>
      <trkpt lat="45.333274" lon="7.008963">
        <ele>1850.328</ele>
        <time>2018-07-18T18:47:47Z</time>
      </trkpt>
      <trkpt lat="45.333228" lon="7.008919">
        <ele>1849.389</ele>
        <time>2018-07-18T18:47:52Z</time>
      </trkpt>
      <trkpt lat="45.333180" lon="7.008884">
        <ele>1848.717</ele>
        <time>2018-07-18T18:47:56Z</time>
      </trkpt>
      <trkpt lat="45.333127" lon="7.008856">
        <ele>1847.908</ele>
        <time>2018-07-18T18:48:00Z</time>
      </trkpt>
      <trkpt lat="45.333084" lon="7.008814">
        <ele>1847.874</ele>
        <time>2018-07-18T18:48:04Z</time>
      </trkpt>
      <trkpt lat="45.333051" lon="7.008761">
        <ele>1847.459</ele>
        <time>2018-07-18T18:48:08Z</time>
      </trkpt>
      <trkpt lat="45.333015" lon="7.008710">
        <ele>1847.924</ele>
        <time>2018-07-18T18:48:12Z</time>
      </trkpt>
      <trkpt lat="45.332970" lon="7.008703">
        <ele>1848.259</ele>
        <time>2018-07-18T18:48:16Z</time>
      </trkpt>
      <trkpt lat="45.332962" lon="7.008775">
        <ele>1847.623</ele>
        <time>2018-07-18T18:48:20Z</time>
      </trkpt>
      <trkpt lat="45.332990" lon="7.008859">
        <ele>1846.892</ele>
        <time>2018-07-18T18:48:24Z</time>
      </trkpt>
      <trkpt lat="45.333023" lon="7.008914">
        <ele>1845.536</ele>
        <time>2018-07-18T18:48:28Z</time>
      </trkpt>
      <trkpt lat="45.333051" lon="7.008974">
        <ele>1844.370</ele>
        <time>2018-07-18T18:48:32Z</time>
      </trkpt>
      <trkpt lat="45.333077" lon="7.009034">
        <ele>1843.274</ele>
        <time>2018-07-18T18:48:36Z</time>
      </trkpt>
      <trkpt lat="45.333104" lon="7.009089">
        <ele>1842.556</ele>
        <time>2018-07-18T18:48:40Z</time>
      </trkpt>
      <trkpt lat="45.333134" lon="7.009156">
        <ele>1841.721</ele>
        <time>2018-07-18T18:48:45Z</time>
      </trkpt>
      <trkpt lat="45.333156" lon="7.009225">
        <ele>1840.808</ele>
        <time>2018-07-18T18:48:50Z</time>
      </trkpt>
      <trkpt lat="45.333187" lon="7.009291">
        <ele>1839.969</ele>
        <time>2018-07-18T18:48:55Z</time>
      </trkpt>
      <trkpt lat="45.333217" lon="7.009359">
        <ele>1838.974</ele>
        <time>2018-07-18T18:49:00Z</time>
      </trkpt>
      <trkpt lat="45.333260" lon="7.009407">
        <ele>1837.929</ele>
        <time>2018-07-18T18:49:04Z</time>
      </trkpt>
      <trkpt lat="45.333276" lon="7.009467">
        <ele>1836.954</ele>
        <time>2018-07-18T18:49:08Z</time>
      </trkpt>
      <trkpt lat="45.333301" lon="7.009542">
        <ele>1836.388</ele>
        <time>2018-07-18T18:49:13Z</time>
      </trkpt>
      <trkpt lat="45.333321" lon="7.009622">
        <ele>1835.137</ele>
        <time>2018-07-18T18:49:18Z</time>
      </trkpt>
      <trkpt lat="45.333337" lon="7.009696">
        <ele>1834.491</ele>
        <time>2018-07-18T18:49:22Z</time>
      </trkpt>
      <trkpt lat="45.333357" lon="7.009765">
        <ele>1834.015</ele>
        <time>2018-07-18T18:49:26Z</time>
      </trkpt>
      <trkpt lat="45.333379" lon="7.009836">
        <ele>1833.814</ele>
        <time>2018-07-18T18:49:30Z</time>
      </trkpt>
      <trkpt lat="45.333396" lon="7.009911">
        <ele>1833.354</ele>
        <time>2018-07-18T18:49:35Z</time>
      </trkpt>
      <trkpt lat="45.333414" lon="7.009985">
        <ele>1833.009</ele>
        <time>2018-07-18T18:49:39Z</time>
      </trkpt>
      <trkpt lat="45.333434" lon="7.010050">
        <ele>1832.008</ele>
        <time>2018-07-18T18:49:43Z</time>
      </trkpt>
      <trkpt lat="45.333454" lon="7.010115">
        <ele>1831.063</ele>
        <time>2018-07-18T18:49:47Z</time>
      </trkpt>
      <trkpt lat="45.333478" lon="7.010183">
        <ele>1830.068</ele>
        <time>2018-07-18T18:49:51Z</time>
      </trkpt>
      <trkpt lat="45.333506" lon="7.010248">
        <ele>1829.063</ele>
        <time>2018-07-18T18:49:55Z</time>
      </trkpt>
      <trkpt lat="45.333528" lon="7.010305">
        <ele>1828.488</ele>
        <time>2018-07-18T18:49:59Z</time>
      </trkpt>
      <trkpt lat="45.333555" lon="7.010373">
        <ele>1827.692</ele>
        <time>2018-07-18T18:50:03Z</time>
      </trkpt>
      <trkpt lat="45.333578" lon="7.010430">
        <ele>1827.191</ele>
        <time>2018-07-18T18:50:07Z</time>
      </trkpt>
      <trkpt lat="45.333599" lon="7.010490">
        <ele>1826.445</ele>
        <time>2018-07-18T18:50:11Z</time>
      </trkpt>
      <trkpt lat="45.333627" lon="7.010552">
        <ele>1826.069</ele>
        <time>2018-07-18T18:50:15Z</time>
      </trkpt>
      <trkpt lat="45.333659" lon="7.010615">
        <ele>1825.471</ele>
        <time>2018-07-18T18:50:19Z</time>
      </trkpt>
      <trkpt lat="45.333688" lon="7.010668">
        <ele>1825.041</ele>
        <time>2018-07-18T18:50:23Z</time>
      </trkpt>
      <trkpt lat="45.333718" lon="7.010725">
        <ele>1824.415</ele>
        <time>2018-07-18T18:50:27Z</time>
      </trkpt>
      <trkpt lat="45.333750" lon="7.010778">
        <ele>1823.608</ele>
        <time>2018-07-18T18:50:31Z</time>
      </trkpt>
      <trkpt lat="45.333783" lon="7.010831">
        <ele>1823.149</ele>
        <time>2018-07-18T18:50:35Z</time>
      </trkpt>
      <trkpt lat="45.333816" lon="7.010886">
        <ele>1822.454</ele>
        <time>2018-07-18T18:50:39Z</time>
      </trkpt>
      <trkpt lat="45.333842" lon="7.010939">
        <ele>1821.689</ele>
        <time>2018-07-18T18:50:43Z</time>
      </trkpt>
      <trkpt lat="45.333865" lon="7.010996">
        <ele>1820.734</ele>
        <time>2018-07-18T18:50:47Z</time>
      </trkpt>
      <trkpt lat="45.333886" lon="7.011067">
        <ele>1820.238</ele>
        <time>2018-07-18T18:50:51Z</time>
      </trkpt>
      <trkpt lat="45.333909" lon="7.011129">
        <ele>1820.327</ele>
        <time>2018-07-18T18:50:55Z</time>
      </trkpt>
      <trkpt lat="45.333941" lon="7.011198">
        <ele>1819.991</ele>
        <time>2018-07-18T18:50:59Z</time>
      </trkpt>
      <trkpt lat="45.333972" lon="7.011245">
        <ele>1819.315</ele>
        <time>2018-07-18T18:51:03Z</time>
      </trkpt>
      <trkpt lat="45.333984" lon="7.011316">
        <ele>1818.997</ele>
        <time>2018-07-18T18:51:07Z</time>
      </trkpt>
      <trkpt lat="45.333993" lon="7.011392">
        <ele>1817.923</ele>
        <time>2018-07-18T18:51:12Z</time>
      </trkpt>
      <trkpt lat="45.334005" lon="7.011463">
        <ele>1816.925</ele>
        <time>2018-07-18T18:51:16Z</time>
      </trkpt>
      <trkpt lat="45.334027" lon="7.011527">
        <ele>1816.308</ele>
        <time>2018-07-18T18:51:20Z</time>
      </trkpt>
      <trkpt lat="45.334061" lon="7.011579">
        <ele>1815.931</ele>
        <time>2018-07-18T18:51:25Z</time>
      </trkpt>
      <trkpt lat="45.334084" lon="7.011636">
        <ele>1815.326</ele>
        <time>2018-07-18T18:51:31Z</time>
      </trkpt>
      <trkpt lat="45.334098" lon="7.011716">
        <ele>1815.351</ele>
        <time>2018-07-18T18:51:36Z</time>
      </trkpt>
      <trkpt lat="45.334109" lon="7.011791">
        <ele>1815.326</ele>
        <time>2018-07-18T18:51:40Z</time>
      </trkpt>
      <trkpt lat="45.334106" lon="7.011863">
        <ele>1815.360</ele>
        <time>2018-07-18T18:51:44Z</time>
      </trkpt>
      <trkpt lat="45.334098" lon="7.011939">
        <ele>1814.599</ele>
        <time>2018-07-18T18:51:48Z</time>
      </trkpt>
      <trkpt lat="45.334087" lon="7.012012">
        <ele>1814.083</ele>
        <time>2018-07-18T18:51:52Z</time>
      </trkpt>
      <trkpt lat="45.334074" lon="7.012087">
        <ele>1813.727</ele>
        <time>2018-07-18T18:51:56Z</time>
      </trkpt>
      <trkpt lat="45.334061" lon="7.012153">
        <ele>1813.122</ele>
        <time>2018-07-18T18:52:00Z</time>
      </trkpt>
      <trkpt lat="45.334058" lon="7.012227">
        <ele>1812.462</ele>
        <time>2018-07-18T18:52:04Z</time>
      </trkpt>
      <trkpt lat="45.334060" lon="7.012301">
        <ele>1811.208</ele>
        <time>2018-07-18T18:52:08Z</time>
      </trkpt>
      <trkpt lat="45.334065" lon="7.012383">
        <ele>1808.508</ele>
        <time>2018-07-18T18:52:13Z</time>
      </trkpt>
      <trkpt lat="45.334075" lon="7.012459">
        <ele>1808.134</ele>
        <time>2018-07-18T18:52:17Z</time>
      </trkpt>
      <trkpt lat="45.334077" lon="7.012528">
        <ele>1807.889</ele>
        <time>2018-07-18T18:52:21Z</time>
      </trkpt>
      <trkpt lat="45.334074" lon="7.012606">
        <ele>1807.634</ele>
        <time>2018-07-18T18:52:25Z</time>
      </trkpt>
      <trkpt lat="45.334072" lon="7.012681">
        <ele>1806.789</ele>
        <time>2018-07-18T18:52:29Z</time>
      </trkpt>
      <trkpt lat="45.334064" lon="7.012764">
        <ele>1806.283</ele>
        <time>2018-07-18T18:52:33Z</time>
      </trkpt>
      <trkpt lat="45.334049" lon="7.012834">
        <ele>1805.142</ele>
        <time>2018-07-18T18:52:37Z</time>
      </trkpt>
      <trkpt lat="45.334036" lon="7.012900">
        <ele>1804.466</ele>
        <time>2018-07-18T18:52:41Z</time>
      </trkpt>
      <trkpt lat="45.334033" lon="7.012975">
        <ele>1804.060</ele>
        <time>2018-07-18T18:52:45Z</time>
      </trkpt>
      <trkpt lat="45.334042" lon="7.013052">
        <ele>1803.476</ele>
        <time>2018-07-18T18:52:49Z</time>
      </trkpt>
      <trkpt lat="45.334060" lon="7.013129">
        <ele>1803.490</ele>
        <time>2018-07-18T18:52:53Z</time>
      </trkpt>
      <trkpt lat="45.334078" lon="7.013202">
        <ele>1803.019</ele>
        <time>2018-07-18T18:52:57Z</time>
      </trkpt>
      <trkpt lat="45.334089" lon="7.013270">
        <ele>1802.808</ele>
        <time>2018-07-18T18:53:01Z</time>
      </trkpt>
      <trkpt lat="45.334091" lon="7.013347">
        <ele>1801.969</ele>
        <time>2018-07-18T18:53:05Z</time>
      </trkpt>
      <trkpt lat="45.334085" lon="7.013429">
        <ele>1801.384</ele>
        <time>2018-07-18T18:53:09Z</time>
      </trkpt>
      <trkpt lat="45.334066" lon="7.013492">
        <ele>1800.619</ele>
        <time>2018-07-18T18:53:14Z</time>
      </trkpt>
      <trkpt lat="45.334035" lon="7.013541">
        <ele>1800.694</ele>
        <time>2018-07-18T18:53:48Z</time>
      </trkpt>
      <trkpt lat="45.333982" lon="7.013547">
        <ele>1800.668</ele>
        <time>2018-07-18T18:54:15Z</time>
      </trkpt>
      <trkpt lat="45.333934" lon="7.013555">
        <ele>1801.047</ele>
        <time>2018-07-18T18:54:20Z</time>
      </trkpt>
      <trkpt lat="45.333887" lon="7.013588">
        <ele>1801.291</ele>
        <time>2018-07-18T18:54:25Z</time>
      </trkpt>
      <trkpt lat="45.333838" lon="7.013616">
        <ele>1800.995</ele>
        <time>2018-07-18T18:54:30Z</time>
      </trkpt>
      <trkpt lat="45.333791" lon="7.013654">
        <ele>1801.173</ele>
        <time>2018-07-18T18:54:35Z</time>
      </trkpt>
      <trkpt lat="45.333744" lon="7.013693">
        <ele>1800.885</ele>
        <time>2018-07-18T18:54:40Z</time>
      </trkpt>
      <trkpt lat="45.333710" lon="7.013738">
        <ele>1800.213</ele>
        <time>2018-07-18T18:54:44Z</time>
      </trkpt>
      <trkpt lat="45.333691" lon="7.013800">
        <ele>1799.508</ele>
        <time>2018-07-18T18:54:48Z</time>
      </trkpt>
      <trkpt lat="45.333673" lon="7.013864">
        <ele>1799.529</ele>
        <time>2018-07-18T18:54:52Z</time>
      </trkpt>
      <trkpt lat="45.333652" lon="7.013921">
        <ele>1799.184</ele>
        <time>2018-07-18T18:54:56Z</time>
      </trkpt>
      <trkpt lat="45.333638" lon="7.013986">
        <ele>1798.829</ele>
        <time>2018-07-18T18:55:00Z</time>
      </trkpt>
      <trkpt lat="45.333618" lon="7.014049">
        <ele>1799.054</ele>
        <time>2018-07-18T18:55:04Z</time>
      </trkpt>
      <trkpt lat="45.333594" lon="7.014115">
        <ele>1798.718</ele>
        <time>2018-07-18T18:55:08Z</time>
      </trkpt>
      <trkpt lat="45.333557" lon="7.014165">
        <ele>1798.587</ele>
        <time>2018-07-18T18:55:12Z</time>
      </trkpt>
      <trkpt lat="45.333509" lon="7.014204">
        <ele>1798.091</ele>
        <time>2018-07-18T18:55:17Z</time>
      </trkpt>
      <trkpt lat="45.333472" lon="7.014242">
        <ele>1797.755</ele>
        <time>2018-07-18T18:55:21Z</time>
      </trkpt>
      <trkpt lat="45.333425" lon="7.014284">
        <ele>1797.144</ele>
        <time>2018-07-18T18:55:26Z</time>
      </trkpt>
      <trkpt lat="45.333386" lon="7.014320">
        <ele>1797.205</ele>
        <time>2018-07-18T18:55:35Z</time>
      </trkpt>
      <trkpt lat="45.333335" lon="7.014341">
        <ele>1797.215</ele>
        <time>2018-07-18T18:55:41Z</time>
      </trkpt>
      <trkpt lat="45.333292" lon="7.014369">
        <ele>1797.208</ele>
        <time>2018-07-18T18:55:46Z</time>
      </trkpt>
      <trkpt lat="45.333243" lon="7.014402">
        <ele>1796.896</ele>
        <time>2018-07-18T18:55:54Z</time>
      </trkpt>
      <trkpt lat="45.333198" lon="7.014390">
        <ele>1796.281</ele>
        <time>2018-07-18T18:55:59Z</time>
      </trkpt>
      <trkpt lat="45.333166" lon="7.014329">
        <ele>1795.846</ele>
        <time>2018-07-18T18:56:04Z</time>
      </trkpt>
      <trkpt lat="45.333146" lon="7.014270">
        <ele>1795.671</ele>
        <time>2018-07-18T18:56:08Z</time>
      </trkpt>
      <trkpt lat="45.333130" lon="7.014201">
        <ele>1795.975</ele>
        <time>2018-07-18T18:56:12Z</time>
      </trkpt>
      <trkpt lat="45.333116" lon="7.014134">
        <ele>1796.554</ele>
        <time>2018-07-18T18:56:16Z</time>
      </trkpt>
      <trkpt lat="45.333105" lon="7.014063">
        <ele>1796.488</ele>
        <time>2018-07-18T18:56:20Z</time>
      </trkpt>
      <trkpt lat="45.333102" lon="7.013992">
        <ele>1796.462</ele>
        <time>2018-07-18T18:56:24Z</time>
      </trkpt>
      <trkpt lat="45.333103" lon="7.013925">
        <ele>1796.413</ele>
        <time>2018-07-18T18:56:28Z</time>
      </trkpt>
      <trkpt lat="45.333099" lon="7.013856">
        <ele>1796.443</ele>
        <time>2018-07-18T18:56:32Z</time>
      </trkpt>
      <trkpt lat="45.333095" lon="7.013789">
        <ele>1796.007</ele>
        <time>2018-07-18T18:56:36Z</time>
      </trkpt>
      <trkpt lat="45.333096" lon="7.013722">
        <ele>1795.808</ele>
        <time>2018-07-18T18:56:40Z</time>
      </trkpt>
      <trkpt lat="45.333100" lon="7.013654">
        <ele>1796.123</ele>
        <time>2018-07-18T18:56:44Z</time>
      </trkpt>
      <trkpt lat="45.333104" lon="7.013586">
        <ele>1796.388</ele>
        <time>2018-07-18T18:56:48Z</time>
      </trkpt>
      <trkpt lat="45.333110" lon="7.013515">
        <ele>1796.423</ele>
        <time>2018-07-18T18:56:52Z</time>
      </trkpt>
      <trkpt lat="45.333116" lon="7.013441">
        <ele>1796.548</ele>
        <time>2018-07-18T18:56:56Z</time>
      </trkpt>
      <trkpt lat="45.333116" lon="7.013373">
        <ele>1796.942</ele>
        <time>2018-07-18T18:57:00Z</time>
      </trkpt>
      <trkpt lat="45.333112" lon="7.013308">
        <ele>1797.231</ele>
        <time>2018-07-18T18:57:04Z</time>
      </trkpt>
      <trkpt lat="45.333100" lon="7.013244">
        <ele>1797.475</ele>
        <time>2018-07-18T18:57:08Z</time>
      </trkpt>
      <trkpt lat="45.333077" lon="7.013183">
        <ele>1797.579</ele>
        <time>2018-07-18T18:57:12Z</time>
      </trkpt>
      <trkpt lat="45.333060" lon="7.013119">
        <ele>1797.274</ele>
        <time>2018-07-18T18:57:16Z</time>
      </trkpt>
      <trkpt lat="45.333048" lon="7.013056">
        <ele>1797.456</ele>
        <time>2018-07-18T18:57:25Z</time>
      </trkpt>
      <trkpt lat="45.333029" lon="7.012984">
        <ele>1797.521</ele>
        <time>2018-07-18T18:57:32Z</time>
      </trkpt>
      <trkpt lat="45.333006" lon="7.012919">
        <ele>1797.608</ele>
        <time>2018-07-18T18:57:37Z</time>
      </trkpt>
      <trkpt lat="45.332980" lon="7.012865">
        <ele>1797.659</ele>
        <time>2018-07-18T18:57:41Z</time>
      </trkpt>
      <trkpt lat="45.332951" lon="7.012799">
        <ele>1797.264</ele>
        <time>2018-07-18T18:57:46Z</time>
      </trkpt>
      <trkpt lat="45.332923" lon="7.012745">
        <ele>1797.499</ele>
        <time>2018-07-18T18:57:50Z</time>
      </trkpt>
      <trkpt lat="45.332893" lon="7.012688">
        <ele>1797.544</ele>
        <time>2018-07-18T18:57:54Z</time>
      </trkpt>
      <trkpt lat="45.332864" lon="7.012630">
        <ele>1797.668</ele>
        <time>2018-07-18T18:57:58Z</time>
      </trkpt>
      <trkpt lat="45.332836" lon="7.012577">
        <ele>1797.637</ele>
        <time>2018-07-18T18:58:02Z</time>
      </trkpt>
      <trkpt lat="45.332807" lon="7.012521">
        <ele>1797.631</ele>
        <time>2018-07-18T18:58:06Z</time>
      </trkpt>
      <trkpt lat="45.332777" lon="7.012469">
        <ele>1797.685</ele>
        <time>2018-07-18T18:58:10Z</time>
      </trkpt>
      <trkpt lat="45.332741" lon="7.012425">
        <ele>1798.096</ele>
        <time>2018-07-18T18:58:14Z</time>
      </trkpt>
      <trkpt lat="45.332723" lon="7.012354">
        <ele>1798.231</ele>
        <time>2018-07-18T18:58:19Z</time>
      </trkpt>
      <trkpt lat="45.332703" lon="7.012282">
        <ele>1799.124</ele>
        <time>2018-07-18T18:58:24Z</time>
      </trkpt>
      <trkpt lat="45.332697" lon="7.012218">
        <ele>1799.708</ele>
        <time>2018-07-18T18:58:28Z</time>
      </trkpt>
      <trkpt lat="45.332701" lon="7.012152">
        <ele>1799.681</ele>
        <time>2018-07-18T18:58:32Z</time>
      </trkpt>
      <trkpt lat="45.332713" lon="7.012085">
        <ele>1798.876</ele>
        <time>2018-07-18T18:58:36Z</time>
      </trkpt>
      <trkpt lat="45.332731" lon="7.012023">
        <ele>1798.351</ele>
        <time>2018-07-18T18:58:40Z</time>
      </trkpt>
      <trkpt lat="45.332751" lon="7.011963">
        <ele>1798.086</ele>
        <time>2018-07-18T18:58:44Z</time>
      </trkpt>
      <trkpt lat="45.332772" lon="7.011900">
        <ele>1797.040</ele>
        <time>2018-07-18T18:58:48Z</time>
      </trkpt>
      <trkpt lat="45.332794" lon="7.011843">
        <ele>1796.419</ele>
        <time>2018-07-18T18:58:52Z</time>
      </trkpt>
      <trkpt lat="45.332817" lon="7.011786">
        <ele>1796.053</ele>
        <time>2018-07-18T18:58:56Z</time>
      </trkpt>
      <trkpt lat="45.332840" lon="7.011730">
        <ele>1795.447</ele>
        <time>2018-07-18T18:59:00Z</time>
      </trkpt>
      <trkpt lat="45.332859" lon="7.011665">
        <ele>1795.845</ele>
        <time>2018-07-18T18:59:13Z</time>
      </trkpt>
      <trkpt lat="45.332870" lon="7.011601">
        <ele>1795.347</ele>
        <time>2018-07-18T18:59:18Z</time>
      </trkpt>
      <trkpt lat="45.332888" lon="7.011536">
        <ele>1794.211</ele>
        <time>2018-07-18T18:59:23Z</time>
      </trkpt>
      <trkpt lat="45.332903" lon="7.011472">
        <ele>1793.108</ele>
        <time>2018-07-18T18:59:28Z</time>
      </trkpt>
      <trkpt lat="45.332915" lon="7.011406">
        <ele>1792.176</ele>
        <time>2018-07-18T18:59:33Z</time>
      </trkpt>
      <trkpt lat="45.332935" lon="7.011335">
        <ele>1790.771</ele>
        <time>2018-07-18T18:59:38Z</time>
      </trkpt>
      <trkpt lat="45.332952" lon="7.011275">
        <ele>1789.896</ele>
        <time>2018-07-18T18:59:42Z</time>
      </trkpt>
      <trkpt lat="45.332967" lon="7.011210">
        <ele>1788.911</ele>
        <time>2018-07-18T18:59:46Z</time>
      </trkpt>
      <trkpt lat="45.332978" lon="7.011140">
        <ele>1788.445</ele>
        <time>2018-07-18T18:59:50Z</time>
      </trkpt>
      <trkpt lat="45.332992" lon="7.011070">
        <ele>1787.734</ele>
        <time>2018-07-18T18:59:54Z</time>
      </trkpt>
      <trkpt lat="45.332999" lon="7.011005">
        <ele>1787.738</ele>
        <time>2018-07-18T18:59:58Z</time>
      </trkpt>
      <trkpt lat="45.333001" lon="7.010940">
        <ele>1787.392</ele>
        <time>2018-07-18T19:00:02Z</time>
      </trkpt>
      <trkpt lat="45.332989" lon="7.010864">
        <ele>1787.446</ele>
        <time>2018-07-18T19:00:07Z</time>
      </trkpt>
      <trkpt lat="45.332984" lon="7.010794">
        <ele>1787.588</ele>
        <time>2018-07-18T19:00:12Z</time>
      </trkpt>
      <trkpt lat="45.332976" lon="7.010728">
        <ele>1786.816</ele>
        <time>2018-07-18T19:00:18Z</time>
      </trkpt>
      <trkpt lat="45.332961" lon="7.010657">
        <ele>1787.208</ele>
        <time>2018-07-18T19:00:24Z</time>
      </trkpt>
      <trkpt lat="45.332949" lon="7.010593">
        <ele>1787.886</ele>
        <time>2018-07-18T19:00:30Z</time>
      </trkpt>
      <trkpt lat="45.332933" lon="7.010532">
        <ele>1788.261</ele>
        <time>2018-07-18T19:00:36Z</time>
      </trkpt>
      <trkpt lat="45.332920" lon="7.010470">
        <ele>1788.436</ele>
        <time>2018-07-18T19:00:41Z</time>
      </trkpt>
      <trkpt lat="45.332897" lon="7.010403">
        <ele>1788.991</ele>
        <time>2018-07-18T19:00:47Z</time>
      </trkpt>
      <trkpt lat="45.332873" lon="7.010348">
        <ele>1789.635</ele>
        <time>2018-07-18T19:00:52Z</time>
      </trkpt>
      <trkpt lat="45.332844" lon="7.010292">
        <ele>1790.044</ele>
        <time>2018-07-18T19:00:57Z</time>
      </trkpt>
      <trkpt lat="45.332811" lon="7.010241">
        <ele>1790.758</ele>
        <time>2018-07-18T19:01:02Z</time>
      </trkpt>
      <trkpt lat="45.332773" lon="7.010199">
        <ele>1791.532</ele>
        <time>2018-07-18T19:01:07Z</time>
      </trkpt>
      <trkpt lat="45.332733" lon="7.010152">
        <ele>1792.458</ele>
        <time>2018-07-18T19:01:12Z</time>
      </trkpt>
      <trkpt lat="45.332700" lon="7.010101">
        <ele>1792.552</ele>
        <time>2018-07-18T19:01:17Z</time>
      </trkpt>
      <trkpt lat="45.332669" lon="7.010044">
        <ele>1792.217</ele>
        <time>2018-07-18T19:01:22Z</time>
      </trkpt>
      <trkpt lat="45.332630" lon="7.009995">
        <ele>1792.808</ele>
        <time>2018-07-18T19:01:28Z</time>
      </trkpt>
      <trkpt lat="45.332600" lon="7.009945">
        <ele>1793.287</ele>
        <time>2018-07-18T19:01:33Z</time>
      </trkpt>
      <trkpt lat="45.332573" lon="7.009889">
        <ele>1793.412</ele>
        <time>2018-07-18T19:01:38Z</time>
      </trkpt>
      <trkpt lat="45.332542" lon="7.009829">
        <ele>1794.317</ele>
        <time>2018-07-18T19:01:44Z</time>
      </trkpt>
      <trkpt lat="45.332515" lon="7.009772">
        <ele>1795.362</ele>
        <time>2018-07-18T19:01:50Z</time>
      </trkpt>
      <trkpt lat="45.332489" lon="7.009716">
        <ele>1795.976</ele>
        <time>2018-07-18T19:01:56Z</time>
      </trkpt>
      <trkpt lat="45.332459" lon="7.009665">
        <ele>1797.085</ele>
        <time>2018-07-18T19:02:02Z</time>
      </trkpt>
      <trkpt lat="45.332424" lon="7.009613">
        <ele>1797.359</ele>
        <time>2018-07-18T19:02:08Z</time>
      </trkpt>
      <trkpt lat="45.332388" lon="7.009569">
        <ele>1797.943</ele>
        <time>2018-07-18T19:02:13Z</time>
      </trkpt>
      <trkpt lat="45.332343" lon="7.009528">
        <ele>1798.652</ele>
        <time>2018-07-18T19:02:19Z</time>
      </trkpt>
      <trkpt lat="45.332298" lon="7.009486">
        <ele>1798.653</ele>
        <time>2018-07-18T19:02:24Z</time>
      </trkpt>
      <trkpt lat="45.332249" lon="7.009462">
        <ele>1798.608</ele>
        <time>2018-07-18T19:02:29Z</time>
      </trkpt>
      <trkpt lat="45.332216" lon="7.009405">
        <ele>1798.608</ele>
        <time>2018-07-18T19:02:33Z</time>
      </trkpt>
      <trkpt lat="45.332179" lon="7.009356">
        <ele>1797.817</ele>
        <time>2018-07-18T19:02:36Z</time>
      </trkpt>
      <trkpt lat="45.332145" lon="7.009302">
        <ele>1797.762</ele>
        <time>2018-07-18T19:02:40Z</time>
      </trkpt>
      <trkpt lat="45.332114" lon="7.009252">
        <ele>1797.717</ele>
        <time>2018-07-18T19:02:44Z</time>
      </trkpt>
      <trkpt lat="45.332076" lon="7.009198">
        <ele>1797.792</ele>
        <time>2018-07-18T19:02:49Z</time>
      </trkpt>
      <trkpt lat="45.332030" lon="7.009159">
        <ele>1797.726</ele>
        <time>2018-07-18T19:02:54Z</time>
      </trkpt>
      <trkpt lat="45.331992" lon="7.009117">
        <ele>1797.735</ele>
        <time>2018-07-18T19:02:58Z</time>
      </trkpt>
      <trkpt lat="45.331953" lon="7.009079">
        <ele>1797.779</ele>
        <time>2018-07-18T19:03:02Z</time>
      </trkpt>
      <trkpt lat="45.331912" lon="7.009033">
        <ele>1796.523</ele>
        <time>2018-07-18T19:03:09Z</time>
      </trkpt>
      <trkpt lat="45.331868" lon="7.008992">
        <ele>1797.019</ele>
        <time>2018-07-18T19:03:14Z</time>
      </trkpt>
      <trkpt lat="45.331821" lon="7.008953">
        <ele>1796.509</ele>
        <time>2018-07-18T19:03:18Z</time>
      </trkpt>
      <trkpt lat="45.331779" lon="7.008925">
        <ele>1795.819</ele>
        <time>2018-07-18T19:03:22Z</time>
      </trkpt>
      <trkpt lat="45.331727" lon="7.008900">
        <ele>1795.008</ele>
        <time>2018-07-18T19:03:27Z</time>
      </trkpt>
      <trkpt lat="45.331680" lon="7.008888">
        <ele>1793.733</ele>
        <time>2018-07-18T19:03:31Z</time>
      </trkpt>
      <trkpt lat="45.331635" lon="7.008883">
        <ele>1792.188</ele>
        <time>2018-07-18T19:03:35Z</time>
      </trkpt>
      <trkpt lat="45.331586" lon="7.008892">
        <ele>1791.263</ele>
        <time>2018-07-18T19:03:40Z</time>
      </trkpt>
      <trkpt lat="45.331536" lon="7.008878">
        <ele>1790.238</ele>
        <time>2018-07-18T19:03:46Z</time>
      </trkpt>
      <trkpt lat="45.331487" lon="7.008854">
        <ele>1788.842</ele>
        <time>2018-07-18T19:03:51Z</time>
      </trkpt>
      <trkpt lat="45.331442" lon="7.008820">
        <ele>1787.621</ele>
        <time>2018-07-18T19:03:56Z</time>
      </trkpt>
      <trkpt lat="45.331395" lon="7.008803">
        <ele>1786.945</ele>
        <time>2018-07-18T19:04:00Z</time>
      </trkpt>
      <trkpt lat="45.331340" lon="7.008793">
        <ele>1786.169</ele>
        <time>2018-07-18T19:04:05Z</time>
      </trkpt>
      <trkpt lat="45.331294" lon="7.008802">
        <ele>1786.029</ele>
        <time>2018-07-18T19:04:09Z</time>
      </trkpt>
      <trkpt lat="45.331240" lon="7.008809">
        <ele>1785.900</ele>
        <time>2018-07-18T19:04:13Z</time>
      </trkpt>
      <trkpt lat="45.331191" lon="7.008805">
        <ele>1785.920</ele>
        <time>2018-07-18T19:04:17Z</time>
      </trkpt>
      <trkpt lat="45.331144" lon="7.008783">
        <ele>1785.108</ele>
        <time>2018-07-18T19:04:21Z</time>
      </trkpt>
      <trkpt lat="45.331106" lon="7.008745">
        <ele>1784.244</ele>
        <time>2018-07-18T19:04:25Z</time>
      </trkpt>
      <trkpt lat="45.331068" lon="7.008708">
        <ele>1783.379</ele>
        <time>2018-07-18T19:04:29Z</time>
      </trkpt>
      <trkpt lat="45.331018" lon="7.008680">
        <ele>1781.994</ele>
        <time>2018-07-18T19:04:34Z</time>
      </trkpt>
      <trkpt lat="45.330973" lon="7.008666">
        <ele>1780.319</ele>
        <time>2018-07-18T19:04:39Z</time>
      </trkpt>
      <trkpt lat="45.330930" lon="7.008634">
        <ele>1778.543</ele>
        <time>2018-07-18T19:04:43Z</time>
      </trkpt>
      <trkpt lat="45.330879" lon="7.008603">
        <ele>1777.462</ele>
        <time>2018-07-18T19:04:47Z</time>
      </trkpt>
      <trkpt lat="45.330843" lon="7.008553">
        <ele>1776.846</ele>
        <time>2018-07-18T19:04:51Z</time>
      </trkpt>
      <trkpt lat="45.330820" lon="7.008494">
        <ele>1776.050</ele>
        <time>2018-07-18T19:04:55Z</time>
      </trkpt>
      <trkpt lat="45.330806" lon="7.008431">
        <ele>1775.923</ele>
        <time>2018-07-18T19:04:59Z</time>
      </trkpt>
      <trkpt lat="45.330787" lon="7.008357">
        <ele>1775.983</ele>
        <time>2018-07-18T19:05:04Z</time>
      </trkpt>
      <trkpt lat="45.330765" lon="7.008296">
        <ele>1775.511</ele>
        <time>2018-07-18T19:05:08Z</time>
      </trkpt>
      <trkpt lat="45.330744" lon="7.008233">
        <ele>1775.208</ele>
        <time>2018-07-18T19:05:12Z</time>
      </trkpt>
      <trkpt lat="45.330725" lon="7.008170">
        <ele>1775.034</ele>
        <time>2018-07-18T19:05:16Z</time>
      </trkpt>
      <trkpt lat="45.330703" lon="7.008111">
        <ele>1774.929</ele>
        <time>2018-07-18T19:05:20Z</time>
      </trkpt>
      <trkpt lat="45.330683" lon="7.008050">
        <ele>1775.224</ele>
        <time>2018-07-18T19:05:24Z</time>
      </trkpt>
      <trkpt lat="45.330664" lon="7.007988">
        <ele>1775.899</ele>
        <time>2018-07-18T19:05:28Z</time>
      </trkpt>
      <trkpt lat="45.330642" lon="7.007926">
        <ele>1776.613</ele>
        <time>2018-07-18T19:05:32Z</time>
      </trkpt>
      <trkpt lat="45.330619" lon="7.007870">
        <ele>1776.732</ele>
        <time>2018-07-18T19:05:36Z</time>
      </trkpt>
      <trkpt lat="45.330591" lon="7.007803">
        <ele>1777.156</ele>
        <time>2018-07-18T19:05:41Z</time>
      </trkpt>
      <trkpt lat="45.330573" lon="7.007741">
        <ele>1777.840</ele>
        <time>2018-07-18T19:05:45Z</time>
      </trkpt>
      <trkpt lat="45.330566" lon="7.007674">
        <ele>1778.213</ele>
        <time>2018-07-18T19:05:49Z</time>
      </trkpt>
      <trkpt lat="45.330565" lon="7.007607">
        <ele>1778.443</ele>
        <time>2018-07-18T19:05:53Z</time>
      </trkpt>
      <trkpt lat="45.330567" lon="7.007528">
        <ele>1778.507</ele>
        <time>2018-07-18T19:05:58Z</time>
      </trkpt>
      <trkpt lat="45.330567" lon="7.007456">
        <ele>1778.208</ele>
        <time>2018-07-18T19:06:03Z</time>
      </trkpt>
      <trkpt lat="45.330561" lon="7.007377">
        <ele>1777.273</ele>
        <time>2018-07-18T19:06:08Z</time>
      </trkpt>
      <trkpt lat="45.330549" lon="7.007301">
        <ele>1776.288</ele>
        <time>2018-07-18T19:06:13Z</time>
      </trkpt>
      <trkpt lat="45.330527" lon="7.007242">
        <ele>1775.233</ele>
        <time>2018-07-18T19:06:17Z</time>
      </trkpt>
      <trkpt lat="45.330499" lon="7.007187">
        <ele>1774.288</ele>
        <time>2018-07-18T19:06:21Z</time>
      </trkpt>
      <trkpt lat="45.330476" lon="7.007127">
        <ele>1773.652</ele>
        <time>2018-07-18T19:06:25Z</time>
      </trkpt>
      <trkpt lat="45.330450" lon="7.007073">
        <ele>1773.251</ele>
        <time>2018-07-18T19:06:29Z</time>
      </trkpt>
      <trkpt lat="45.330420" lon="7.007015">
        <ele>1773.065</ele>
        <time>2018-07-18T19:06:34Z</time>
      </trkpt>
      <trkpt lat="45.330388" lon="7.006951">
        <ele>1772.949</ele>
        <time>2018-07-18T19:06:39Z</time>
      </trkpt>
      <trkpt lat="45.330365" lon="7.006879">
        <ele>1772.818</ele>
        <time>2018-07-18T19:06:44Z</time>
      </trkpt>
      <trkpt lat="45.330343" lon="7.006818">
        <ele>1772.898</ele>
        <time>2018-07-18T19:06:48Z</time>
      </trkpt>
      <trkpt lat="45.330324" lon="7.006751">
        <ele>1772.417</ele>
        <time>2018-07-18T19:06:52Z</time>
      </trkpt>
      <trkpt lat="45.330310" lon="7.006682">
        <ele>1772.108</ele>
        <time>2018-07-18T19:06:56Z</time>
      </trkpt>
      <trkpt lat="45.330302" lon="7.006611">
        <ele>1771.983</ele>
        <time>2018-07-18T19:07:00Z</time>
      </trkpt>
      <trkpt lat="45.330296" lon="7.006541">
        <ele>1771.848</ele>
        <time>2018-07-18T19:07:04Z</time>
      </trkpt>
      <trkpt lat="45.330296" lon="7.006471">
        <ele>1771.763</ele>
        <time>2018-07-18T19:07:08Z</time>
      </trkpt>
      <trkpt lat="45.330300" lon="7.006401">
        <ele>1771.788</ele>
        <time>2018-07-18T19:07:12Z</time>
      </trkpt>
      <trkpt lat="45.330310" lon="7.006334">
        <ele>1771.722</ele>
        <time>2018-07-18T19:07:16Z</time>
      </trkpt>
      <trkpt lat="45.330321" lon="7.006264">
        <ele>1771.781</ele>
        <time>2018-07-18T19:07:20Z</time>
      </trkpt>
      <trkpt lat="45.330330" lon="7.006195">
        <ele>1771.335</ele>
        <time>2018-07-18T19:07:24Z</time>
      </trkpt>
      <trkpt lat="45.330331" lon="7.006125">
        <ele>1771.949</ele>
        <time>2018-07-18T19:07:28Z</time>
      </trkpt>
      <trkpt lat="45.330326" lon="7.006054">
        <ele>1771.886</ele>
        <time>2018-07-18T19:07:32Z</time>
      </trkpt>
      <trkpt lat="45.330321" lon="7.005985">
        <ele>1772.260</ele>
        <time>2018-07-18T19:07:36Z</time>
      </trkpt>
      <trkpt lat="45.330316" lon="7.005913">
        <ele>1772.026</ele>
        <time>2018-07-18T19:07:40Z</time>
      </trkpt>
      <trkpt lat="45.330311" lon="7.005845">
        <ele>1771.908</ele>
        <time>2018-07-18T19:07:44Z</time>
      </trkpt>
      <trkpt lat="45.330311" lon="7.005777">
        <ele>1771.460</ele>
        <time>2018-07-18T19:07:48Z</time>
      </trkpt>
      <trkpt lat="45.330311" lon="7.005708">
        <ele>1771.185</ele>
        <time>2018-07-18T19:07:52Z</time>
      </trkpt>
      <trkpt lat="45.330310" lon="7.005638">
        <ele>1770.540</ele>
        <time>2018-07-18T19:07:56Z</time>
      </trkpt>
      <trkpt lat="45.330307" lon="7.005566">
        <ele>1770.215</ele>
        <time>2018-07-18T19:08:00Z</time>
      </trkpt>
      <trkpt lat="45.330303" lon="7.005495">
        <ele>1770.459</ele>
        <time>2018-07-18T19:08:04Z</time>
      </trkpt>
      <trkpt lat="45.330299" lon="7.005421">
        <ele>1770.598</ele>
        <time>2018-07-18T19:08:08Z</time>
      </trkpt>
      <trkpt lat="45.330296" lon="7.005346">
        <ele>1771.092</ele>
        <time>2018-07-18T19:08:12Z</time>
      </trkpt>
      <trkpt lat="45.330293" lon="7.005276">
        <ele>1771.746</ele>
        <time>2018-07-18T19:08:16Z</time>
      </trkpt>
      <trkpt lat="45.330289" lon="7.005206">
        <ele>1772.548</ele>
        <time>2018-07-18T19:08:20Z</time>
      </trkpt>
      <trkpt lat="45.330290" lon="7.005135">
        <ele>1773.061</ele>
        <time>2018-07-18T19:08:24Z</time>
      </trkpt>
      <trkpt lat="45.330294" lon="7.005059">
        <ele>1773.317</ele>
        <time>2018-07-18T19:08:28Z</time>
      </trkpt>
      <trkpt lat="45.330297" lon="7.004988">
        <ele>1773.508</ele>
        <time>2018-07-18T19:08:32Z</time>
      </trkpt>
      <trkpt lat="45.330300" lon="7.004914">
        <ele>1773.216</ele>
        <time>2018-07-18T19:08:36Z</time>
      </trkpt>
      <trkpt lat="45.330300" lon="7.004836">
        <ele>1772.261</ele>
        <time>2018-07-18T19:08:40Z</time>
      </trkpt>
      <trkpt lat="45.330306" lon="7.004764">
        <ele>1771.676</ele>
        <time>2018-07-18T19:08:44Z</time>
      </trkpt>
      <trkpt lat="45.330313" lon="7.004694">
        <ele>1770.821</ele>
        <time>2018-07-18T19:08:48Z</time>
      </trkpt>
      <trkpt lat="45.330316" lon="7.004626">
        <ele>1770.785</ele>
        <time>2018-07-18T19:08:52Z</time>
      </trkpt>
      <trkpt lat="45.330315" lon="7.004557">
        <ele>1771.164</ele>
        <time>2018-07-18T19:08:56Z</time>
      </trkpt>
      <trkpt lat="45.330314" lon="7.004492">
        <ele>1770.988</ele>
        <time>2018-07-18T19:09:00Z</time>
      </trkpt>
      <trkpt lat="45.330310" lon="7.004422">
        <ele>1770.842</ele>
        <time>2018-07-18T19:09:04Z</time>
      </trkpt>
      <trkpt lat="45.330303" lon="7.004355">
        <ele>1770.354</ele>
        <time>2018-07-18T19:09:08Z</time>
      </trkpt>
      <trkpt lat="45.330296" lon="7.004287">
        <ele>1770.056</ele>
        <time>2018-07-18T19:09:12Z</time>
      </trkpt>
      <trkpt lat="45.330276" lon="7.004229">
        <ele>1769.811</ele>
        <time>2018-07-18T19:09:17Z</time>
      </trkpt>
      <trkpt lat="45.330280" lon="7.004165">
        <ele>1768.908</ele>
        <time>2018-07-18T19:09:48Z</time>
      </trkpt>
      <trkpt lat="45.330278" lon="7.004099">
        <ele>1768.447</ele>
        <time>2018-07-18T19:10:09Z</time>
      </trkpt>
      <trkpt lat="45.330271" lon="7.004022">
        <ele>1768.122</ele>
        <time>2018-07-18T19:10:13Z</time>
      </trkpt>
      <trkpt lat="45.330265" lon="7.003951">
        <ele>1767.927</ele>
        <time>2018-07-18T19:10:16Z</time>
      </trkpt>
      <trkpt lat="45.330262" lon="7.003872">
        <ele>1767.472</ele>
        <time>2018-07-18T19:10:20Z</time>
      </trkpt>
      <trkpt lat="45.330258" lon="7.003802">
        <ele>1767.526</ele>
        <time>2018-07-18T19:10:24Z</time>
      </trkpt>
      <trkpt lat="45.330245" lon="7.003729">
        <ele>1768.075</ele>
        <time>2018-07-18T19:10:30Z</time>
      </trkpt>
      <trkpt lat="45.330223" lon="7.003667">
        <ele>1768.749</ele>
        <time>2018-07-18T19:10:35Z</time>
      </trkpt>
      <trkpt lat="45.330209" lon="7.003596">
        <ele>1769.583</ele>
        <time>2018-07-18T19:10:40Z</time>
      </trkpt>
      <trkpt lat="45.330194" lon="7.003532">
        <ele>1770.414</ele>
        <time>2018-07-18T19:10:44Z</time>
      </trkpt>
      <trkpt lat="45.330174" lon="7.003468">
        <ele>1770.554</ele>
        <time>2018-07-18T19:10:48Z</time>
      </trkpt>
      <trkpt lat="45.330152" lon="7.003394">
        <ele>1770.609</ele>
        <time>2018-07-18T19:10:53Z</time>
      </trkpt>
      <trkpt lat="45.330134" lon="7.003333">
        <ele>1770.608</ele>
        <time>2018-07-18T19:10:57Z</time>
      </trkpt>
      <trkpt lat="45.330107" lon="7.003261">
        <ele>1770.663</ele>
        <time>2018-07-18T19:11:02Z</time>
      </trkpt>
      <trkpt lat="45.330081" lon="7.003205">
        <ele>1770.258</ele>
        <time>2018-07-18T19:11:06Z</time>
      </trkpt>
      <trkpt lat="45.330054" lon="7.003144">
        <ele>1770.033</ele>
        <time>2018-07-18T19:11:10Z</time>
      </trkpt>
      <trkpt lat="45.330019" lon="7.003082">
        <ele>1769.928</ele>
        <time>2018-07-18T19:11:15Z</time>
      </trkpt>
      <trkpt lat="45.329979" lon="7.003033">
        <ele>1769.412</ele>
        <time>2018-07-18T19:11:21Z</time>
      </trkpt>
      <trkpt lat="45.329952" lon="7.002977">
        <ele>1768.751</ele>
        <time>2018-07-18T19:11:25Z</time>
      </trkpt>
      <trkpt lat="45.329925" lon="7.002917">
        <ele>1768.735</ele>
        <time>2018-07-18T19:11:29Z</time>
      </trkpt>
      <trkpt lat="45.329895" lon="7.002860">
        <ele>1768.749</ele>
        <time>2018-07-18T19:11:33Z</time>
      </trkpt>
      <trkpt lat="45.329867" lon="7.002797">
        <ele>1768.797</ele>
        <time>2018-07-18T19:11:37Z</time>
      </trkpt>
      <trkpt lat="45.329841" lon="7.002736">
        <ele>1768.723</ele>
        <time>2018-07-18T19:11:41Z</time>
      </trkpt>
      <trkpt lat="45.329820" lon="7.002671">
        <ele>1769.125</ele>
        <time>2018-07-18T19:11:45Z</time>
      </trkpt>
      <trkpt lat="45.329801" lon="7.002605">
        <ele>1768.908</ele>
        <time>2018-07-18T19:11:49Z</time>
      </trkpt>
      <trkpt lat="45.329775" lon="7.002548">
        <ele>1768.431</ele>
        <time>2018-07-18T19:11:53Z</time>
      </trkpt>
      <trkpt lat="45.329747" lon="7.002490">
        <ele>1768.516</ele>
        <time>2018-07-18T19:11:57Z</time>
      </trkpt>
      <trkpt lat="45.329716" lon="7.002433">
        <ele>1769.091</ele>
        <time>2018-07-18T19:12:01Z</time>
      </trkpt>
      <trkpt lat="45.329681" lon="7.002382">
        <ele>1768.946</ele>
        <time>2018-07-18T19:12:05Z</time>
      </trkpt>
      <trkpt lat="45.329646" lon="7.002330">
        <ele>1768.890</ele>
        <time>2018-07-18T19:12:09Z</time>
      </trkpt>
      <trkpt lat="45.329614" lon="7.002276">
        <ele>1768.879</ele>
        <time>2018-07-18T19:12:13Z</time>
      </trkpt>
      <trkpt lat="45.329582" lon="7.002222">
        <ele>1768.433</ele>
        <time>2018-07-18T19:12:17Z</time>
      </trkpt>
      <trkpt lat="45.329546" lon="7.002173">
        <ele>1768.197</ele>
        <time>2018-07-18T19:12:21Z</time>
      </trkpt>
      <trkpt lat="45.329514" lon="7.002115">
        <ele>1767.976</ele>
        <time>2018-07-18T19:12:25Z</time>
      </trkpt>
      <trkpt lat="45.329482" lon="7.002058">
        <ele>1767.890</ele>
        <time>2018-07-18T19:12:29Z</time>
      </trkpt>
      <trkpt lat="45.329452" lon="7.001999">
        <ele>1767.719</ele>
        <time>2018-07-18T19:12:33Z</time>
      </trkpt>
      <trkpt lat="45.329428" lon="7.001941">
        <ele>1767.708</ele>
        <time>2018-07-18T19:12:37Z</time>
      </trkpt>
      <trkpt lat="45.329407" lon="7.001880">
        <ele>1767.739</ele>
        <time>2018-07-18T19:12:41Z</time>
      </trkpt>
      <trkpt lat="45.329390" lon="7.001821">
        <ele>1767.764</ele>
        <time>2018-07-18T19:12:45Z</time>
      </trkpt>
      <trkpt lat="45.329371" lon="7.001753">
        <ele>1767.729</ele>
        <time>2018-07-18T19:12:49Z</time>
      </trkpt>
      <trkpt lat="45.329352" lon="7.001691">
        <ele>1768.164</ele>
        <time>2018-07-18T19:12:53Z</time>
      </trkpt>
      <trkpt lat="45.329334" lon="7.001630">
        <ele>1768.398</ele>
        <time>2018-07-18T19:12:57Z</time>
      </trkpt>
      <trkpt lat="45.329315" lon="7.001566">
        <ele>1768.097</ele>
        <time>2018-07-18T19:13:01Z</time>
      </trkpt>
      <trkpt lat="45.329298" lon="7.001503">
        <ele>1767.851</ele>
        <time>2018-07-18T19:13:05Z</time>
      </trkpt>
      <trkpt lat="45.329281" lon="7.001435">
        <ele>1767.745</ele>
        <time>2018-07-18T19:13:09Z</time>
      </trkpt>
      <trkpt lat="45.329265" lon="7.001369">
        <ele>1767.657</ele>
        <time>2018-07-18T19:13:13Z</time>
      </trkpt>
      <trkpt lat="45.329242" lon="7.001296">
        <ele>1767.600</ele>
        <time>2018-07-18T19:13:18Z</time>
      </trkpt>
      <trkpt lat="45.329226" lon="7.001229">
        <ele>1767.220</ele>
        <time>2018-07-18T19:13:22Z</time>
      </trkpt>
      <trkpt lat="45.329208" lon="7.001166">
        <ele>1766.908</ele>
        <time>2018-07-18T19:13:26Z</time>
      </trkpt>
      <trkpt lat="45.329189" lon="7.001102">
        <ele>1766.747</ele>
        <time>2018-07-18T19:13:30Z</time>
      </trkpt>
      <trkpt lat="45.329171" lon="7.001033">
        <ele>1766.682</ele>
        <time>2018-07-18T19:13:34Z</time>
      </trkpt>
      <trkpt lat="45.329157" lon="7.000962">
        <ele>1766.537</ele>
        <time>2018-07-18T19:13:38Z</time>
      </trkpt>
      <trkpt lat="45.329142" lon="7.000897">
        <ele>1766.582</ele>
        <time>2018-07-18T19:13:42Z</time>
      </trkpt>
      <trkpt lat="45.329131" lon="7.000827">
        <ele>1766.176</ele>
        <time>2018-07-18T19:13:46Z</time>
      </trkpt>
      <trkpt lat="45.329118" lon="7.000755">
        <ele>1765.865</ele>
        <time>2018-07-18T19:13:50Z</time>
      </trkpt>
      <trkpt lat="45.329114" lon="7.000678">
        <ele>1765.649</ele>
        <time>2018-07-18T19:13:54Z</time>
      </trkpt>
      <trkpt lat="45.329118" lon="7.000601">
        <ele>1765.933</ele>
        <time>2018-07-18T19:13:58Z</time>
      </trkpt>
      <trkpt lat="45.329122" lon="7.000530">
        <ele>1765.756</ele>
        <time>2018-07-18T19:14:02Z</time>
      </trkpt>
      <trkpt lat="45.329128" lon="7.000452">
        <ele>1765.259</ele>
        <time>2018-07-18T19:14:07Z</time>
      </trkpt>
      <trkpt lat="45.329129" lon="7.000370">
        <ele>1765.714</ele>
        <time>2018-07-18T19:14:12Z</time>
      </trkpt>
      <trkpt lat="45.329121" lon="7.000302">
        <ele>1766.008</ele>
        <time>2018-07-18T19:14:16Z</time>
      </trkpt>
      <trkpt lat="45.329106" lon="7.000233">
        <ele>1766.617</ele>
        <time>2018-07-18T19:14:20Z</time>
      </trkpt>
      <trkpt lat="45.329091" lon="7.000162">
        <ele>1766.962</ele>
        <time>2018-07-18T19:14:24Z</time>
      </trkpt>
      <trkpt lat="45.329074" lon="7.000093">
        <ele>1767.167</ele>
        <time>2018-07-18T19:14:28Z</time>
      </trkpt>
      <trkpt lat="45.329059" lon="7.000028">
        <ele>1766.812</ele>
        <time>2018-07-18T19:14:32Z</time>
      </trkpt>
      <trkpt lat="45.329043" lon="6.999957">
        <ele>1766.676</ele>
        <time>2018-07-18T19:14:36Z</time>
      </trkpt>
      <trkpt lat="45.329027" lon="6.999888">
        <ele>1766.565</ele>
        <time>2018-07-18T19:14:40Z</time>
      </trkpt>
      <trkpt lat="45.329013" lon="6.999821">
        <ele>1766.449</ele>
        <time>2018-07-18T19:14:44Z</time>
      </trkpt>
      <trkpt lat="45.329002" lon="6.999749">
        <ele>1766.413</ele>
        <time>2018-07-18T19:14:48Z</time>
      </trkpt>
      <trkpt lat="45.328994" lon="6.999678">
        <ele>1766.486</ele>
        <time>2018-07-18T19:14:52Z</time>
      </trkpt>
      <trkpt lat="45.328987" lon="6.999608">
        <ele>1766.460</ele>
        <time>2018-07-18T19:14:56Z</time>
      </trkpt>
      <trkpt lat="45.328980" lon="6.999541">
        <ele>1766.026</ele>
        <time>2018-07-18T19:15:00Z</time>
      </trkpt>
      <trkpt lat="45.328971" lon="6.999468">
        <ele>1765.408</ele>
        <time>2018-07-18T19:15:04Z</time>
      </trkpt>
      <trkpt lat="45.328966" lon="6.999397">
        <ele>1765.030</ele>
        <time>2018-07-18T19:15:08Z</time>
      </trkpt>
      <trkpt lat="45.328959" lon="6.999324">
        <ele>1764.855</ele>
        <time>2018-07-18T19:15:12Z</time>
      </trkpt>
      <trkpt lat="45.328944" lon="6.999247">
        <ele>1765.150</ele>
        <time>2018-07-18T19:15:17Z</time>
      </trkpt>
      <trkpt lat="45.328927" lon="6.999183">
        <ele>1765.385</ele>
        <time>2018-07-18T19:15:21Z</time>
      </trkpt>
      <trkpt lat="45.328908" lon="6.999119">
        <ele>1765.889</ele>
        <time>2018-07-18T19:15:25Z</time>
      </trkpt>
      <trkpt lat="45.328890" lon="6.999051">
        <ele>1765.768</ele>
        <time>2018-07-18T19:15:29Z</time>
      </trkpt>
      <trkpt lat="45.328870" lon="6.998993">
        <ele>1765.612</ele>
        <time>2018-07-18T19:15:33Z</time>
      </trkpt>
      <trkpt lat="45.328852" lon="6.998921">
        <ele>1765.646</ele>
        <time>2018-07-18T19:15:38Z</time>
      </trkpt>
      <trkpt lat="45.328832" lon="6.998849">
        <ele>1765.628</ele>
        <time>2018-07-18T19:15:43Z</time>
      </trkpt>
      <trkpt lat="45.328814" lon="6.998782">
        <ele>1765.689</ele>
        <time>2018-07-18T19:15:48Z</time>
      </trkpt>
      <trkpt lat="45.328806" lon="6.998714">
        <ele>1765.617</ele>
        <time>2018-07-18T19:15:53Z</time>
      </trkpt>
      <trkpt lat="45.328783" lon="6.998645">
        <ele>1765.608</ele>
        <time>2018-07-18T19:15:59Z</time>
      </trkpt>
      <trkpt lat="45.328757" lon="6.998584">
        <ele>1765.634</ele>
        <time>2018-07-18T19:16:05Z</time>
      </trkpt>
      <trkpt lat="45.328734" lon="6.998518">
        <ele>1766.479</ele>
        <time>2018-07-18T19:16:12Z</time>
      </trkpt>
      <trkpt lat="45.328724" lon="6.998443">
        <ele>1767.324</ele>
        <time>2018-07-18T19:16:30Z</time>
      </trkpt>
      <trkpt lat="45.328687" lon="6.998397">
        <ele>1768.219</ele>
        <time>2018-07-18T19:16:39Z</time>
      </trkpt>
      <trkpt lat="45.328649" lon="6.998347">
        <ele>1768.073</ele>
        <time>2018-07-18T19:16:57Z</time>
      </trkpt>
      <trkpt lat="45.328614" lon="6.998301">
        <ele>1768.342</ele>
        <time>2018-07-18T19:17:02Z</time>
      </trkpt>
      <trkpt lat="45.328579" lon="6.998249">
        <ele>1768.556</ele>
        <time>2018-07-18T19:17:07Z</time>
      </trkpt>
      <trkpt lat="45.328541" lon="6.998205">
        <ele>1768.220</ele>
        <time>2018-07-18T19:17:12Z</time>
      </trkpt>
      <trkpt lat="45.328495" lon="6.998170">
        <ele>1768.449</ele>
        <time>2018-07-18T19:17:17Z</time>
      </trkpt>
      <trkpt lat="45.328453" lon="6.998144">
        <ele>1768.502</ele>
        <time>2018-07-18T19:17:21Z</time>
      </trkpt>
      <trkpt lat="45.328412" lon="6.998111">
        <ele>1768.222</ele>
        <time>2018-07-18T19:17:25Z</time>
      </trkpt>
      <trkpt lat="45.328369" lon="6.998074">
        <ele>1768.008</ele>
        <time>2018-07-18T19:17:29Z</time>
      </trkpt>
      <trkpt lat="45.328324" lon="6.998042">
        <ele>1767.946</ele>
        <time>2018-07-18T19:17:33Z</time>
      </trkpt>
      <trkpt lat="45.328278" lon="6.998016">
        <ele>1767.811</ele>
        <time>2018-07-18T19:17:37Z</time>
      </trkpt>
      <trkpt lat="45.328234" lon="6.997989">
        <ele>1767.856</ele>
        <time>2018-07-18T19:17:41Z</time>
      </trkpt>
      <trkpt lat="45.328191" lon="6.997962">
        <ele>1767.821</ele>
        <time>2018-07-18T19:17:45Z</time>
      </trkpt>
      <trkpt lat="45.328148" lon="6.997940">
        <ele>1767.815</ele>
        <time>2018-07-18T19:17:49Z</time>
      </trkpt>
      <trkpt lat="45.328104" lon="6.997913">
        <ele>1767.894</ele>
        <time>2018-07-18T19:17:53Z</time>
      </trkpt>
      <trkpt lat="45.328061" lon="6.997880">
        <ele>1767.848</ele>
        <time>2018-07-18T19:17:57Z</time>
      </trkpt>
      <trkpt lat="45.328020" lon="6.997843">
        <ele>1767.862</ele>
        <time>2018-07-18T19:18:01Z</time>
      </trkpt>
      <trkpt lat="45.327976" lon="6.997797">
        <ele>1768.269</ele>
        <time>2018-07-18T19:18:06Z</time>
      </trkpt>
      <trkpt lat="45.327933" lon="6.997764">
        <ele>1768.804</ele>
        <time>2018-07-18T19:18:11Z</time>
      </trkpt>
      <trkpt lat="45.327888" lon="6.997720">
        <ele>1769.224</ele>
        <time>2018-07-18T19:18:17Z</time>
      </trkpt>
      <trkpt lat="45.327845" lon="6.997693">
        <ele>1769.008</ele>
        <time>2018-07-18T19:18:23Z</time>
      </trkpt>
      <trkpt lat="45.327798" lon="6.997657">
        <ele>1768.998</ele>
        <time>2018-07-18T19:18:28Z</time>
      </trkpt>
      <trkpt lat="45.327763" lon="6.997612">
        <ele>1768.823</ele>
        <time>2018-07-18T19:18:33Z</time>
      </trkpt>
      <trkpt lat="45.327725" lon="6.997575">
        <ele>1768.498</ele>
        <time>2018-07-18T19:18:39Z</time>
      </trkpt>
      <trkpt lat="45.327705" lon="6.997516">
        <ele>1768.573</ele>
        <time>2018-07-18T19:18:45Z</time>
      </trkpt>
      <trkpt lat="45.327673" lon="6.997453">
        <ele>1768.677</ele>
        <time>2018-07-18T19:18:54Z</time>
      </trkpt>
      <trkpt lat="45.327650" lon="6.997389">
        <ele>1769.446</ele>
        <time>2018-07-18T19:19:03Z</time>
      </trkpt>
      <trkpt lat="45.327609" lon="6.997356">
        <ele>1769.940</ele>
        <time>2018-07-18T19:19:11Z</time>
      </trkpt>
      <trkpt lat="45.327559" lon="6.997341">
        <ele>1769.814</ele>
        <time>2018-07-18T19:19:20Z</time>
      </trkpt>
      <trkpt lat="45.327514" lon="6.997336">
        <ele>1769.385</ele>
        <time>2018-07-18T19:19:25Z</time>
      </trkpt>
      <trkpt lat="45.327468" lon="6.997314">
        <ele>1768.289</ele>
        <time>2018-07-18T19:19:31Z</time>
      </trkpt>
      <trkpt lat="45.327426" lon="6.997289">
        <ele>1767.617</ele>
        <time>2018-07-18T19:19:36Z</time>
      </trkpt>
      <trkpt lat="45.327379" lon="6.997270">
        <ele>1766.808</ele>
        <time>2018-07-18T19:19:41Z</time>
      </trkpt>
      <trkpt lat="45.327335" lon="6.997249">
        <ele>1765.970</ele>
        <time>2018-07-18T19:19:46Z</time>
      </trkpt>
      <trkpt lat="45.327292" lon="6.997223">
        <ele>1765.065</ele>
        <time>2018-07-18T19:19:51Z</time>
      </trkpt>
      <trkpt lat="45.327249" lon="6.997189">
        <ele>1764.440</ele>
        <time>2018-07-18T19:19:56Z</time>
      </trkpt>
      <trkpt lat="45.327209" lon="6.997160">
        <ele>1763.715</ele>
        <time>2018-07-18T19:20:00Z</time>
      </trkpt>
      <trkpt lat="45.327162" lon="6.997132">
        <ele>1762.939</ele>
        <time>2018-07-18T19:20:04Z</time>
      </trkpt>
      <trkpt lat="45.327115" lon="6.997105">
        <ele>1762.068</ele>
        <time>2018-07-18T19:20:08Z</time>
      </trkpt>
      <trkpt lat="45.327077" lon="6.997062">
        <ele>1761.972</ele>
        <time>2018-07-18T19:20:12Z</time>
      </trkpt>
      <trkpt lat="45.327041" lon="6.997019">
        <ele>1761.846</ele>
        <time>2018-07-18T19:20:16Z</time>
      </trkpt>
      <trkpt lat="45.327009" lon="6.996971">
        <ele>1760.934</ele>
        <time>2018-07-18T19:20:20Z</time>
      </trkpt>
      <trkpt lat="45.326973" lon="6.996928">
        <ele>1760.455</ele>
        <time>2018-07-18T19:20:24Z</time>
      </trkpt>
      <trkpt lat="45.326937" lon="6.996877">
        <ele>1760.110</ele>
        <time>2018-07-18T19:20:28Z</time>
      </trkpt>
      <trkpt lat="45.326904" lon="6.996820">
        <ele>1760.308</ele>
        <time>2018-07-18T19:20:32Z</time>
      </trkpt>
      <trkpt lat="45.326873" lon="6.996761">
        <ele>1760.465</ele>
        <time>2018-07-18T19:20:36Z</time>
      </trkpt>
      <trkpt lat="45.326847" lon="6.996702">
        <ele>1760.180</ele>
        <time>2018-07-18T19:20:40Z</time>
      </trkpt>
      <trkpt lat="45.326828" lon="6.996640">
        <ele>1759.935</ele>
        <time>2018-07-18T19:20:44Z</time>
      </trkpt>
      <trkpt lat="45.326808" lon="6.996580">
        <ele>1759.830</ele>
        <time>2018-07-18T19:20:48Z</time>
      </trkpt>
      <trkpt lat="45.326792" lon="6.996516">
        <ele>1759.394</ele>
        <time>2018-07-18T19:20:52Z</time>
      </trkpt>
      <trkpt lat="45.326778" lon="6.996450">
        <ele>1759.013</ele>
        <time>2018-07-18T19:20:56Z</time>
      </trkpt>
      <trkpt lat="45.326760" lon="6.996382">
        <ele>1758.867</ele>
        <time>2018-07-18T19:21:00Z</time>
      </trkpt>
      <trkpt lat="45.326742" lon="6.996321">
        <ele>1758.781</ele>
        <time>2018-07-18T19:21:04Z</time>
      </trkpt>
      <trkpt lat="45.326723" lon="6.996259">
        <ele>1758.633</ele>
        <time>2018-07-18T19:21:08Z</time>
      </trkpt>
      <trkpt lat="45.326700" lon="6.996192">
        <ele>1758.623</ele>
        <time>2018-07-18T19:21:12Z</time>
      </trkpt>
      <trkpt lat="45.326672" lon="6.996127">
        <ele>1759.015</ele>
        <time>2018-07-18T19:21:17Z</time>
      </trkpt>
      <trkpt lat="45.326636" lon="6.996080">
        <ele>1759.208</ele>
        <time>2018-07-18T19:21:22Z</time>
      </trkpt>
      <trkpt lat="45.326602" lon="6.996032">
        <ele>1759.315</ele>
        <time>2018-07-18T19:21:27Z</time>
      </trkpt>
      <trkpt lat="45.326571" lon="6.995970">
        <ele>1760.210</ele>
        <time>2018-07-18T19:21:33Z</time>
      </trkpt>
      <trkpt lat="45.326554" lon="6.995899">
        <ele>1760.325</ele>
        <time>2018-07-18T19:21:39Z</time>
      </trkpt>
      <trkpt lat="45.326556" lon="6.995825">
        <ele>1760.040</ele>
        <time>2018-07-18T19:21:44Z</time>
      </trkpt>
      <trkpt lat="45.326544" lon="6.995761">
        <ele>1761.054</ele>
        <time>2018-07-18T19:21:48Z</time>
      </trkpt>
      <trkpt lat="45.326527" lon="6.995700">
        <ele>1761.663</ele>
        <time>2018-07-18T19:21:52Z</time>
      </trkpt>
      <trkpt lat="45.326501" lon="6.995631">
        <ele>1761.637</ele>
        <time>2018-07-18T19:21:57Z</time>
      </trkpt>
      <trkpt lat="45.326472" lon="6.995577">
        <ele>1762.011</ele>
        <time>2018-07-18T19:22:01Z</time>
      </trkpt>
      <trkpt lat="45.326439" lon="6.995516">
        <ele>1762.218</ele>
        <time>2018-07-18T19:22:06Z</time>
      </trkpt>
      <trkpt lat="45.326411" lon="6.995458">
        <ele>1762.398</ele>
        <time>2018-07-18T19:22:10Z</time>
      </trkpt>
      <trkpt lat="45.326379" lon="6.995408">
        <ele>1762.417</ele>
        <time>2018-07-18T19:22:14Z</time>
      </trkpt>
      <trkpt lat="45.326343" lon="6.995361">
        <ele>1762.408</ele>
        <time>2018-07-18T19:22:18Z</time>
      </trkpt>
      <trkpt lat="45.326312" lon="6.995311">
        <ele>1762.013</ele>
        <time>2018-07-18T19:22:22Z</time>
      </trkpt>
      <trkpt lat="45.326278" lon="6.995256">
        <ele>1762.628</ele>
        <time>2018-07-18T19:22:27Z</time>
      </trkpt>
      <trkpt lat="45.326247" lon="6.995208">
        <ele>1762.543</ele>
        <time>2018-07-18T19:22:31Z</time>
      </trkpt>
      <trkpt lat="45.326214" lon="6.995157">
        <ele>1762.158</ele>
        <time>2018-07-18T19:22:35Z</time>
      </trkpt>
      <trkpt lat="45.326177" lon="6.995105">
        <ele>1761.442</ele>
        <time>2018-07-18T19:22:39Z</time>
      </trkpt>
      <trkpt lat="45.326144" lon="6.995053">
        <ele>1761.091</ele>
        <time>2018-07-18T19:22:43Z</time>
      </trkpt>
      <trkpt lat="45.326114" lon="6.994997">
        <ele>1760.445</ele>
        <time>2018-07-18T19:22:47Z</time>
      </trkpt>
      <trkpt lat="45.326080" lon="6.994951">
        <ele>1759.629</ele>
        <time>2018-07-18T19:22:51Z</time>
      </trkpt>
      <trkpt lat="45.326043" lon="6.994910">
        <ele>1759.171</ele>
        <time>2018-07-18T19:22:55Z</time>
      </trkpt>
      <trkpt lat="45.326007" lon="6.994865">
        <ele>1759.241</ele>
        <time>2018-07-18T19:22:59Z</time>
      </trkpt>
      <trkpt lat="45.325969" lon="6.994819">
        <ele>1758.915</ele>
        <time>2018-07-18T19:23:03Z</time>
      </trkpt>
      <trkpt lat="45.325931" lon="6.994761">
        <ele>1758.708</ele>
        <time>2018-07-18T19:23:07Z</time>
      </trkpt>
      <trkpt lat="45.325899" lon="6.994706">
        <ele>1758.289</ele>
        <time>2018-07-18T19:23:11Z</time>
      </trkpt>
      <trkpt lat="45.325878" lon="6.994643">
        <ele>1757.984</ele>
        <time>2018-07-18T19:23:15Z</time>
      </trkpt>
      <trkpt lat="45.325860" lon="6.994575">
        <ele>1757.729</ele>
        <time>2018-07-18T19:23:19Z</time>
      </trkpt>
      <trkpt lat="45.325836" lon="6.994512">
        <ele>1757.214</ele>
        <time>2018-07-18T19:23:23Z</time>
      </trkpt>
      <trkpt lat="45.325806" lon="6.994453">
        <ele>1757.718</ele>
        <time>2018-07-18T19:23:27Z</time>
      </trkpt>
      <trkpt lat="45.325775" lon="6.994395">
        <ele>1758.087</ele>
        <time>2018-07-18T19:23:31Z</time>
      </trkpt>
      <trkpt lat="45.325745" lon="6.994330">
        <ele>1757.871</ele>
        <time>2018-07-18T19:23:35Z</time>
      </trkpt>
      <trkpt lat="45.325714" lon="6.994268">
        <ele>1757.785</ele>
        <time>2018-07-18T19:23:39Z</time>
      </trkpt>
      <trkpt lat="45.325682" lon="6.994209">
        <ele>1757.222</ele>
        <time>2018-07-18T19:23:43Z</time>
      </trkpt>
      <trkpt lat="45.325652" lon="6.994148">
        <ele>1756.962</ele>
        <time>2018-07-18T19:23:47Z</time>
      </trkpt>
      <trkpt lat="45.325619" lon="6.994093">
        <ele>1756.708</ele>
        <time>2018-07-18T19:23:51Z</time>
      </trkpt>
      <trkpt lat="45.325583" lon="6.994045">
        <ele>1756.608</ele>
        <time>2018-07-18T19:23:55Z</time>
      </trkpt>
      <trkpt lat="45.325548" lon="6.994004">
        <ele>1756.954</ele>
        <time>2018-07-18T19:23:59Z</time>
      </trkpt>
      <trkpt lat="45.325512" lon="6.993953">
        <ele>1757.139</ele>
        <time>2018-07-18T19:24:03Z</time>
      </trkpt>
      <trkpt lat="45.325475" lon="6.993902">
        <ele>1757.634</ele>
        <time>2018-07-18T19:24:07Z</time>
      </trkpt>
      <trkpt lat="45.325432" lon="6.993854">
        <ele>1757.949</ele>
        <time>2018-07-18T19:24:11Z</time>
      </trkpt>
      <trkpt lat="45.325390" lon="6.993811">
        <ele>1757.763</ele>
        <time>2018-07-18T19:24:15Z</time>
      </trkpt>
      <trkpt lat="45.325347" lon="6.993775">
        <ele>1758.092</ele>
        <time>2018-07-18T19:24:19Z</time>
      </trkpt>
      <trkpt lat="45.325300" lon="6.993750">
        <ele>1757.896</ele>
        <time>2018-07-18T19:24:23Z</time>
      </trkpt>
      <trkpt lat="45.325253" lon="6.993720">
        <ele>1758.190</ele>
        <time>2018-07-18T19:24:27Z</time>
      </trkpt>
      <trkpt lat="45.325208" lon="6.993693">
        <ele>1757.546</ele>
        <time>2018-07-18T19:24:31Z</time>
      </trkpt>
      <trkpt lat="45.325168" lon="6.993656">
        <ele>1757.188</ele>
        <time>2018-07-18T19:24:35Z</time>
      </trkpt>
      <trkpt lat="45.325125" lon="6.993622">
        <ele>1756.516</ele>
        <time>2018-07-18T19:24:39Z</time>
      </trkpt>
      <trkpt lat="45.325084" lon="6.993587">
        <ele>1756.108</ele>
        <time>2018-07-18T19:24:43Z</time>
      </trkpt>
      <trkpt lat="45.325045" lon="6.993551">
        <ele>1755.556</ele>
        <time>2018-07-18T19:24:47Z</time>
      </trkpt>
      <trkpt lat="45.325003" lon="6.993511">
        <ele>1755.951</ele>
        <time>2018-07-18T19:24:51Z</time>
      </trkpt>
      <trkpt lat="45.324962" lon="6.993466">
        <ele>1756.296</ele>
        <time>2018-07-18T19:24:55Z</time>
      </trkpt>
      <trkpt lat="45.324921" lon="6.993419">
        <ele>1756.411</ele>
        <time>2018-07-18T19:24:59Z</time>
      </trkpt>
      <trkpt lat="45.324884" lon="6.993376">
        <ele>1756.125</ele>
        <time>2018-07-18T19:25:03Z</time>
      </trkpt>
      <trkpt lat="45.324841" lon="6.993337">
        <ele>1756.324</ele>
        <time>2018-07-18T19:25:07Z</time>
      </trkpt>
      <trkpt lat="45.324794" lon="6.993298">
        <ele>1756.858</ele>
        <time>2018-07-18T19:25:11Z</time>
      </trkpt>
      <trkpt lat="45.324750" lon="6.993258">
        <ele>1756.772</ele>
        <time>2018-07-18T19:25:15Z</time>
      </trkpt>
      <trkpt lat="45.324710" lon="6.993214">
        <ele>1756.781</ele>
        <time>2018-07-18T19:25:19Z</time>
      </trkpt>
      <trkpt lat="45.324668" lon="6.993173">
        <ele>1756.761</ele>
        <time>2018-07-18T19:25:23Z</time>
      </trkpt>
      <trkpt lat="45.324622" lon="6.993140">
        <ele>1757.117</ele>
        <time>2018-07-18T19:25:27Z</time>
      </trkpt>
      <trkpt lat="45.324580" lon="6.993106">
        <ele>1756.908</ele>
        <time>2018-07-18T19:25:31Z</time>
      </trkpt>
      <trkpt lat="45.324533" lon="6.993076">
        <ele>1756.850</ele>
        <time>2018-07-18T19:25:35Z</time>
      </trkpt>
      <trkpt lat="45.324490" lon="6.993052">
        <ele>1756.765</ele>
        <time>2018-07-18T19:25:39Z</time>
      </trkpt>
      <trkpt lat="45.324444" lon="6.993031">
        <ele>1756.780</ele>
        <time>2018-07-18T19:25:43Z</time>
      </trkpt>
      <trkpt lat="45.324400" lon="6.993011">
        <ele>1756.775</ele>
        <time>2018-07-18T19:25:47Z</time>
      </trkpt>
      <trkpt lat="45.324354" lon="6.992986">
        <ele>1756.739</ele>
        <time>2018-07-18T19:25:51Z</time>
      </trkpt>
      <trkpt lat="45.324309" lon="6.992967">
        <ele>1756.788</ele>
        <time>2018-07-18T19:25:55Z</time>
      </trkpt>
      <trkpt lat="45.324262" lon="6.992949">
        <ele>1756.372</ele>
        <time>2018-07-18T19:25:59Z</time>
      </trkpt>
      <trkpt lat="45.324214" lon="6.992934">
        <ele>1756.556</ele>
        <time>2018-07-18T19:26:03Z</time>
      </trkpt>
      <trkpt lat="45.324167" lon="6.992929">
        <ele>1756.681</ele>
        <time>2018-07-18T19:26:07Z</time>
      </trkpt>
      <trkpt lat="45.324122" lon="6.992922">
        <ele>1756.761</ele>
        <time>2018-07-18T19:26:11Z</time>
      </trkpt>
      <trkpt lat="45.324073" lon="6.992921">
        <ele>1756.717</ele>
        <time>2018-07-18T19:26:15Z</time>
      </trkpt>
      <trkpt lat="45.324025" lon="6.992922">
        <ele>1755.908</ele>
        <time>2018-07-18T19:26:19Z</time>
      </trkpt>
      <trkpt lat="45.323978" lon="6.992924">
        <ele>1755.420</ele>
        <time>2018-07-18T19:26:23Z</time>
      </trkpt>
      <trkpt lat="45.323922" lon="6.992926">
        <ele>1755.175</ele>
        <time>2018-07-18T19:26:28Z</time>
      </trkpt>
      <trkpt lat="45.323869" lon="6.992929">
        <ele>1754.140</ele>
        <time>2018-07-18T19:26:33Z</time>
      </trkpt>
      <trkpt lat="45.323823" lon="6.992930">
        <ele>1753.535</ele>
        <time>2018-07-18T19:26:37Z</time>
      </trkpt>
      <trkpt lat="45.323772" lon="6.992942">
        <ele>1753.289</ele>
        <time>2018-07-18T19:26:41Z</time>
      </trkpt>
      <trkpt lat="45.323724" lon="6.992956">
        <ele>1753.038</ele>
        <time>2018-07-18T19:26:45Z</time>
      </trkpt>
      <trkpt lat="45.323676" lon="6.992969">
        <ele>1752.972</ele>
        <time>2018-07-18T19:26:49Z</time>
      </trkpt>
      <trkpt lat="45.323628" lon="6.992984">
        <ele>1752.846</ele>
        <time>2018-07-18T19:26:53Z</time>
      </trkpt>
      <trkpt lat="45.323578" lon="6.993007">
        <ele>1752.846</ele>
        <time>2018-07-18T19:26:57Z</time>
      </trkpt>
      <trkpt lat="45.323531" lon="6.993027">
        <ele>1753.288</ele>
        <time>2018-07-18T19:27:01Z</time>
      </trkpt>
      <trkpt lat="45.323484" lon="6.993061">
        <ele>1753.416</ele>
        <time>2018-07-18T19:27:05Z</time>
      </trkpt>
      <trkpt lat="45.323438" lon="6.993097">
        <ele>1753.908</ele>
        <time>2018-07-18T19:27:09Z</time>
      </trkpt>
      <trkpt lat="45.323391" lon="6.993129">
        <ele>1754.286</ele>
        <time>2018-07-18T19:27:13Z</time>
      </trkpt>
      <trkpt lat="45.323343" lon="6.993145">
        <ele>1754.451</ele>
        <time>2018-07-18T19:27:17Z</time>
      </trkpt>
      <trkpt lat="45.323295" lon="6.993158">
        <ele>1754.176</ele>
        <time>2018-07-18T19:27:21Z</time>
      </trkpt>
      <trkpt lat="45.323247" lon="6.993162">
        <ele>1754.391</ele>
        <time>2018-07-18T19:27:25Z</time>
      </trkpt>
      <trkpt lat="45.323198" lon="6.993158">
        <ele>1754.845</ele>
        <time>2018-07-18T19:27:29Z</time>
      </trkpt>
      <trkpt lat="45.323150" lon="6.993163">
        <ele>1755.184</ele>
        <time>2018-07-18T19:27:33Z</time>
      </trkpt>
      <trkpt lat="45.323102" lon="6.993169">
        <ele>1755.388</ele>
        <time>2018-07-18T19:27:37Z</time>
      </trkpt>
      <trkpt lat="45.323048" lon="6.993172">
        <ele>1755.412</ele>
        <time>2018-07-18T19:27:43Z</time>
      </trkpt>
      <trkpt lat="45.323001" lon="6.993175">
        <ele>1755.563</ele>
        <time>2018-07-18T19:27:49Z</time>
      </trkpt>
      <trkpt lat="45.322949" lon="6.993168">
        <ele>1755.944</ele>
        <time>2018-07-18T19:27:55Z</time>
      </trkpt>
      <trkpt lat="45.322900" lon="6.993155">
        <ele>1756.218</ele>
        <time>2018-07-18T19:28:01Z</time>
      </trkpt>
      <trkpt lat="45.322847" lon="6.993167">
        <ele>1756.408</ele>
        <time>2018-07-18T19:28:08Z</time>
      </trkpt>
      <trkpt lat="45.322799" lon="6.993199">
        <ele>1756.118</ele>
        <time>2018-07-18T19:28:17Z</time>
      </trkpt>
      <trkpt lat="45.322760" lon="6.993244">
        <ele>1755.993</ele>
        <time>2018-07-18T19:28:22Z</time>
      </trkpt>
      <trkpt lat="45.322718" lon="6.993269">
        <ele>1755.498</ele>
        <time>2018-07-18T19:28:26Z</time>
      </trkpt>
      <trkpt lat="45.322671" lon="6.993281">
        <ele>1755.133</ele>
        <time>2018-07-18T19:28:30Z</time>
      </trkpt>
      <trkpt lat="45.322618" lon="6.993274">
        <ele>1754.917</ele>
        <time>2018-07-18T19:28:35Z</time>
      </trkpt>
      <trkpt lat="45.322571" lon="6.993276">
        <ele>1754.066</ele>
        <time>2018-07-18T19:28:41Z</time>
      </trkpt>
      <trkpt lat="45.322540" lon="6.993227">
        <ele>1753.970</ele>
        <time>2018-07-18T19:28:49Z</time>
      </trkpt>
      <trkpt lat="45.322493" lon="6.993255">
        <ele>1753.094</ele>
        <time>2018-07-18T19:28:56Z</time>
      </trkpt>
      <trkpt lat="45.322441" lon="6.993244">
        <ele>1752.517</ele>
        <time>2018-07-18T19:29:00Z</time>
      </trkpt>
      <trkpt lat="45.322394" lon="6.993232">
        <ele>1752.687</ele>
        <time>2018-07-18T19:29:05Z</time>
      </trkpt>
      <trkpt lat="45.322348" lon="6.993220">
        <ele>1752.215</ele>
        <time>2018-07-18T19:29:09Z</time>
      </trkpt>
      <trkpt lat="45.322298" lon="6.993213">
        <ele>1752.008</ele>
        <time>2018-07-18T19:29:15Z</time>
      </trkpt>
      <trkpt lat="45.322242" lon="6.993197">
        <ele>1752.323</ele>
        <time>2018-07-18T19:29:20Z</time>
      </trkpt>
      <trkpt lat="45.322194" lon="6.993192">
        <ele>1752.558</ele>
        <time>2018-07-18T19:29:27Z</time>
      </trkpt>
      <trkpt lat="45.322145" lon="6.993188">
        <ele>1752.653</ele>
        <time>2018-07-18T19:29:33Z</time>
      </trkpt>
      <trkpt lat="45.322097" lon="6.993186">
        <ele>1752.318</ele>
        <time>2018-07-18T19:29:40Z</time>
      </trkpt>
      <trkpt lat="45.322056" lon="6.993135">
        <ele>1752.122</ele>
        <time>2018-07-18T19:29:45Z</time>
      </trkpt>
      <trkpt lat="45.322009" lon="6.993084">
        <ele>1752.441</ele>
        <time>2018-07-18T19:29:51Z</time>
      </trkpt>
      <trkpt lat="45.321969" lon="6.993049">
        <ele>1753.085</ele>
        <time>2018-07-18T19:29:56Z</time>
      </trkpt>
      <trkpt lat="45.321928" lon="6.992998">
        <ele>1753.389</ele>
        <time>2018-07-18T19:30:01Z</time>
      </trkpt>
      <trkpt lat="45.321888" lon="6.992941">
        <ele>1753.138</ele>
        <time>2018-07-18T19:30:07Z</time>
      </trkpt>
      <trkpt lat="45.321865" lon="6.992885">
        <ele>1753.470</ele>
        <time>2018-07-18T19:30:12Z</time>
      </trkpt>
      <trkpt lat="45.321844" lon="6.992824">
        <ele>1754.017</ele>
        <time>2018-07-18T19:30:19Z</time>
      </trkpt>
      <trkpt lat="45.321809" lon="6.992781">
        <ele>1754.308</ele>
        <time>2018-07-18T19:30:26Z</time>
      </trkpt>
      <trkpt lat="45.321795" lon="6.992715">
        <ele>1754.565</ele>
        <time>2018-07-18T19:30:33Z</time>
      </trkpt>
      <trkpt lat="45.321796" lon="6.992650">
        <ele>1754.260</ele>
        <time>2018-07-18T19:30:38Z</time>
      </trkpt>
      <trkpt lat="45.321772" lon="6.992589">
        <ele>1754.455</ele>
        <time>2018-07-18T19:30:43Z</time>
      </trkpt>
      <trkpt lat="45.321749" lon="6.992511">
        <ele>1754.540</ele>
        <time>2018-07-18T19:30:48Z</time>
      </trkpt>
      <trkpt lat="45.321725" lon="6.992451">
        <ele>1754.274</ele>
        <time>2018-07-18T19:30:53Z</time>
      </trkpt>
      <trkpt lat="45.321697" lon="6.992392">
        <ele>1754.873</ele>
        <time>2018-07-18T19:30:58Z</time>
      </trkpt>
      <trkpt lat="45.321672" lon="6.992333">
        <ele>1755.227</ele>
        <time>2018-07-18T19:31:02Z</time>
      </trkpt>
      <trkpt lat="45.321638" lon="6.992279">
        <ele>1755.091</ele>
        <time>2018-07-18T19:31:06Z</time>
      </trkpt>
      <trkpt lat="45.321611" lon="6.992217">
        <ele>1754.911</ele>
        <time>2018-07-18T19:31:12Z</time>
      </trkpt>
      <trkpt lat="45.321580" lon="6.992159">
        <ele>1754.821</ele>
        <time>2018-07-18T19:31:16Z</time>
      </trkpt>
      <trkpt lat="45.321552" lon="6.992104">
        <ele>1755.203</ele>
        <time>2018-07-18T19:31:21Z</time>
      </trkpt>
      <trkpt lat="45.321525" lon="6.992040">
        <ele>1755.808</ele>
        <time>2018-07-18T19:31:27Z</time>
      </trkpt>
      <trkpt lat="45.321481" lon="6.992056">
        <ele>1755.813</ele>
        <time>2018-07-18T19:31:55Z</time>
      </trkpt>
      <trkpt lat="45.321534" lon="6.991975">
        <ele>1706.918</ele>
        <time>2018-07-19T06:41:24Z</time>
      </trkpt>
      <trkpt lat="45.321492" lon="6.991949">
        <ele>1706.998</ele>
        <time>2018-07-19T06:41:58Z</time>
      </trkpt>
      <trkpt lat="45.321484" lon="6.991877">
        <ele>1706.917</ele>
        <time>2018-07-19T06:42:02Z</time>
      </trkpt>
      <trkpt lat="45.321473" lon="6.991811">
        <ele>1706.908</ele>
        <time>2018-07-19T06:42:06Z</time>
      </trkpt>
      <trkpt lat="45.321449" lon="6.991757">
        <ele>1706.943</ele>
        <time>2018-07-19T06:42:14Z</time>
      </trkpt>
      <trkpt lat="45.321437" lon="6.991682">
        <ele>1706.968</ele>
        <time>2018-07-19T06:42:20Z</time>
      </trkpt>
      <trkpt lat="45.321418" lon="6.991615">
        <ele>1706.963</ele>
        <time>2018-07-19T06:42:28Z</time>
      </trkpt>
      <trkpt lat="45.321372" lon="6.991589">
        <ele>1706.958</ele>
        <time>2018-07-19T06:42:33Z</time>
      </trkpt>
      <trkpt lat="45.321335" lon="6.991552">
        <ele>1706.933</ele>
        <time>2018-07-19T06:42:41Z</time>
      </trkpt>
      <trkpt lat="45.321327" lon="6.991489">
        <ele>1706.914</ele>
        <time>2018-07-19T06:42:45Z</time>
      </trkpt>
      <trkpt lat="45.321313" lon="6.991419">
        <ele>1706.972</ele>
        <time>2018-07-19T06:42:49Z</time>
      </trkpt>
      <trkpt lat="45.321292" lon="6.991355">
        <ele>1706.961</ele>
        <time>2018-07-19T06:42:53Z</time>
      </trkpt>
      <trkpt lat="45.321271" lon="6.991294">
        <ele>1706.997</ele>
        <time>2018-07-19T06:42:57Z</time>
      </trkpt>
      <trkpt lat="45.321247" lon="6.991233">
        <ele>1706.923</ele>
        <time>2018-07-19T06:43:01Z</time>
      </trkpt>
      <trkpt lat="45.321225" lon="6.991169">
        <ele>1706.925</ele>
        <time>2018-07-19T06:43:05Z</time>
      </trkpt>
      <trkpt lat="45.321209" lon="6.991102">
        <ele>1706.608</ele>
        <time>2018-07-19T06:43:09Z</time>
      </trkpt>
      <trkpt lat="45.321195" lon="6.991031">
        <ele>1706.161</ele>
        <time>2018-07-19T06:43:14Z</time>
      </trkpt>
      <trkpt lat="45.321196" lon="6.990960">
        <ele>1706.346</ele>
        <time>2018-07-19T06:43:22Z</time>
      </trkpt>
      <trkpt lat="45.321190" lon="6.990894">
        <ele>1706.411</ele>
        <time>2018-07-19T06:43:26Z</time>
      </trkpt>
      <trkpt lat="45.321183" lon="6.990827">
        <ele>1706.316</ele>
        <time>2018-07-19T06:43:30Z</time>
      </trkpt>
      <trkpt lat="45.321170" lon="6.990753">
        <ele>1706.441</ele>
        <time>2018-07-19T06:43:34Z</time>
      </trkpt>
      <trkpt lat="45.321161" lon="6.990682">
        <ele>1706.242</ele>
        <time>2018-07-19T06:43:38Z</time>
      </trkpt>
      <trkpt lat="45.321155" lon="6.990609">
        <ele>1706.440</ele>
        <time>2018-07-19T06:43:42Z</time>
      </trkpt>
      <trkpt lat="45.321148" lon="6.990540">
        <ele>1706.229</ele>
        <time>2018-07-19T06:43:46Z</time>
      </trkpt>
      <trkpt lat="45.321143" lon="6.990467">
        <ele>1705.749</ele>
        <time>2018-07-19T06:43:50Z</time>
      </trkpt>
      <trkpt lat="45.321141" lon="6.990400">
        <ele>1705.902</ele>
        <time>2018-07-19T06:43:54Z</time>
      </trkpt>
      <trkpt lat="45.321140" lon="6.990334">
        <ele>1705.522</ele>
        <time>2018-07-19T06:43:58Z</time>
      </trkpt>
      <trkpt lat="45.321137" lon="6.990266">
        <ele>1705.508</ele>
        <time>2018-07-19T06:44:02Z</time>
      </trkpt>
      <trkpt lat="45.321124" lon="6.990197">
        <ele>1705.226</ele>
        <time>2018-07-19T06:44:06Z</time>
      </trkpt>
      <trkpt lat="45.321109" lon="6.990122">
        <ele>1704.771</ele>
        <time>2018-07-19T06:44:10Z</time>
      </trkpt>
      <trkpt lat="45.321095" lon="6.990058">
        <ele>1704.416</ele>
        <time>2018-07-19T06:44:14Z</time>
      </trkpt>
      <trkpt lat="45.321075" lon="6.989988">
        <ele>1703.731</ele>
        <time>2018-07-19T06:44:18Z</time>
      </trkpt>
      <trkpt lat="45.321057" lon="6.989919">
        <ele>1703.486</ele>
        <time>2018-07-19T06:44:22Z</time>
      </trkpt>
      <trkpt lat="45.321040" lon="6.989845">
        <ele>1703.477</ele>
        <time>2018-07-19T06:44:26Z</time>
      </trkpt>
      <trkpt lat="45.321035" lon="6.989774">
        <ele>1703.415</ele>
        <time>2018-07-19T06:44:30Z</time>
      </trkpt>
      <trkpt lat="45.321029" lon="6.989700">
        <ele>1703.594</ele>
        <time>2018-07-19T06:44:34Z</time>
      </trkpt>
      <trkpt lat="45.321028" lon="6.989622">
        <ele>1703.276</ele>
        <time>2018-07-19T06:44:38Z</time>
      </trkpt>
      <trkpt lat="45.321028" lon="6.989622">
        <ele>1703.290</ele>
        <time>2018-07-19T06:44:38Z</time>
      </trkpt>
      <trkpt lat="45.321037" lon="6.989558">
        <ele>1703.319</ele>
        <time>2018-07-19T06:44:41Z</time>
      </trkpt>
      <trkpt lat="45.321048" lon="6.989487">
        <ele>1702.908</ele>
        <time>2018-07-19T06:44:46Z</time>
      </trkpt>
      <trkpt lat="45.321048" lon="6.989414">
        <ele>1703.059</ele>
        <time>2018-07-19T06:44:50Z</time>
      </trkpt>
      <trkpt lat="45.321041" lon="6.989346">
        <ele>1702.724</ele>
        <time>2018-07-19T06:44:53Z</time>
      </trkpt>
      <trkpt lat="45.321043" lon="6.989280">
        <ele>1703.129</ele>
        <time>2018-07-19T06:44:57Z</time>
      </trkpt>
      <trkpt lat="45.321049" lon="6.989215">
        <ele>1703.044</ele>
        <time>2018-07-19T06:45:01Z</time>
      </trkpt>
      <trkpt lat="45.321042" lon="6.989143">
        <ele>1703.039</ele>
        <time>2018-07-19T06:45:06Z</time>
      </trkpt>
      <trkpt lat="45.321077" lon="6.989093">
        <ele>1703.380</ele>
        <time>2018-07-19T06:45:12Z</time>
      </trkpt>
      <trkpt lat="45.321122" lon="6.989072">
        <ele>1703.718</ele>
        <time>2018-07-19T06:45:17Z</time>
      </trkpt>
      <trkpt lat="45.321167" lon="6.989037">
        <ele>1703.737</ele>
        <time>2018-07-19T06:45:23Z</time>
      </trkpt>
      <trkpt lat="45.321207" lon="6.989006">
        <ele>1703.889</ele>
        <time>2018-07-19T06:45:27Z</time>
      </trkpt>
      <trkpt lat="45.321226" lon="6.988939">
        <ele>1703.806</ele>
        <time>2018-07-19T06:45:52Z</time>
      </trkpt>
      <trkpt lat="45.321227" lon="6.988872">
        <ele>1703.626</ele>
        <time>2018-07-19T06:45:57Z</time>
      </trkpt>
      <trkpt lat="45.321232" lon="6.988795">
        <ele>1703.508</ele>
        <time>2018-07-19T06:46:02Z</time>
      </trkpt>
      <trkpt lat="45.321217" lon="6.988726">
        <ele>1703.570</ele>
        <time>2018-07-19T06:46:07Z</time>
      </trkpt>
      <trkpt lat="45.321202" lon="6.988654">
        <ele>1703.465</ele>
        <time>2018-07-19T06:46:11Z</time>
      </trkpt>
      <trkpt lat="45.321178" lon="6.988596">
        <ele>1703.370</ele>
        <time>2018-07-19T06:46:16Z</time>
      </trkpt>
      <trkpt lat="45.321159" lon="6.988528">
        <ele>1703.015</ele>
        <time>2018-07-19T06:46:23Z</time>
      </trkpt>
      <trkpt lat="45.321136" lon="6.988453">
        <ele>1703.490</ele>
        <time>2018-07-19T06:46:28Z</time>
      </trkpt>
      <trkpt lat="45.321118" lon="6.988378">
        <ele>1703.151</ele>
        <time>2018-07-19T06:46:32Z</time>
      </trkpt>
      <trkpt lat="45.321103" lon="6.988314">
        <ele>1703.249</ele>
        <time>2018-07-19T06:46:36Z</time>
      </trkpt>
      <trkpt lat="45.321091" lon="6.988250">
        <ele>1703.278</ele>
        <time>2018-07-19T06:46:40Z</time>
      </trkpt>
      <trkpt lat="45.321084" lon="6.988185">
        <ele>1703.084</ele>
        <time>2018-07-19T06:46:44Z</time>
      </trkpt>
      <trkpt lat="45.321075" lon="6.988119">
        <ele>1703.007</ele>
        <time>2018-07-19T06:46:48Z</time>
      </trkpt>
      <trkpt lat="45.321057" lon="6.988044">
        <ele>1702.417</ele>
        <time>2018-07-19T06:46:52Z</time>
      </trkpt>
      <trkpt lat="45.321036" lon="6.987978">
        <ele>1702.908</ele>
        <time>2018-07-19T06:46:56Z</time>
      </trkpt>
      <trkpt lat="45.321014" lon="6.987912">
        <ele>1702.580</ele>
        <time>2018-07-19T06:47:00Z</time>
      </trkpt>
      <trkpt lat="45.320986" lon="6.987844">
        <ele>1702.515</ele>
        <time>2018-07-19T06:47:04Z</time>
      </trkpt>
      <trkpt lat="45.320961" lon="6.987778">
        <ele>1702.430</ele>
        <time>2018-07-19T06:47:08Z</time>
      </trkpt>
      <trkpt lat="45.320941" lon="6.987713">
        <ele>1703.125</ele>
        <time>2018-07-19T06:47:12Z</time>
      </trkpt>
      <trkpt lat="45.320926" lon="6.987641">
        <ele>1703.840</ele>
        <time>2018-07-19T06:47:16Z</time>
      </trkpt>
      <trkpt lat="45.320919" lon="6.987573">
        <ele>1704.581</ele>
        <time>2018-07-19T06:47:22Z</time>
      </trkpt>
      <trkpt lat="45.320915" lon="6.987505">
        <ele>1704.319</ele>
        <time>2018-07-19T06:47:27Z</time>
      </trkpt>
      <trkpt lat="45.320903" lon="6.987443">
        <ele>1704.578</ele>
        <time>2018-07-19T06:47:31Z</time>
      </trkpt>
      <trkpt lat="45.320893" lon="6.987379">
        <ele>1704.585</ele>
        <time>2018-07-19T06:47:35Z</time>
      </trkpt>
      <trkpt lat="45.320881" lon="6.987309">
        <ele>1704.689</ele>
        <time>2018-07-19T06:47:39Z</time>
      </trkpt>
      <trkpt lat="45.320869" lon="6.987235">
        <ele>1704.617</ele>
        <time>2018-07-19T06:47:43Z</time>
      </trkpt>
      <trkpt lat="45.320856" lon="6.987163">
        <ele>1704.608</ele>
        <time>2018-07-19T06:47:47Z</time>
      </trkpt>
      <trkpt lat="45.320839" lon="6.987092">
        <ele>1704.780</ele>
        <time>2018-07-19T06:47:51Z</time>
      </trkpt>
      <trkpt lat="45.320820" lon="6.987024">
        <ele>1704.525</ele>
        <time>2018-07-19T06:47:55Z</time>
      </trkpt>
      <trkpt lat="45.320806" lon="6.986953">
        <ele>1704.270</ele>
        <time>2018-07-19T06:47:59Z</time>
      </trkpt>
      <trkpt lat="45.320787" lon="6.986887">
        <ele>1704.575</ele>
        <time>2018-07-19T06:48:03Z</time>
      </trkpt>
      <trkpt lat="45.320765" lon="6.986820">
        <ele>1704.320</ele>
        <time>2018-07-19T06:48:07Z</time>
      </trkpt>
      <trkpt lat="45.320745" lon="6.986754">
        <ele>1704.311</ele>
        <time>2018-07-19T06:48:11Z</time>
      </trkpt>
      <trkpt lat="45.320730" lon="6.986685">
        <ele>1704.279</ele>
        <time>2018-07-19T06:48:15Z</time>
      </trkpt>
      <trkpt lat="45.320715" lon="6.986616">
        <ele>1704.168</ele>
        <time>2018-07-19T06:48:19Z</time>
      </trkpt>
      <trkpt lat="45.320701" lon="6.986545">
        <ele>1704.078</ele>
        <time>2018-07-19T06:48:23Z</time>
      </trkpt>
      <trkpt lat="45.320690" lon="6.986475">
        <ele>1703.833</ele>
        <time>2018-07-19T06:48:27Z</time>
      </trkpt>
      <trkpt lat="45.320683" lon="6.986404">
        <ele>1703.826</ele>
        <time>2018-07-19T06:48:31Z</time>
      </trkpt>
      <trkpt lat="45.320676" lon="6.986332">
        <ele>1704.008</ele>
        <time>2018-07-19T06:48:35Z</time>
      </trkpt>
      <trkpt lat="45.320660" lon="6.986257">
        <ele>1704.439</ele>
        <time>2018-07-19T06:48:39Z</time>
      </trkpt>
      <trkpt lat="45.320648" lon="6.986191">
        <ele>1704.524</ele>
        <time>2018-07-19T06:48:43Z</time>
      </trkpt>
      <trkpt lat="45.320642" lon="6.986122">
        <ele>1704.019</ele>
        <time>2018-07-19T06:48:47Z</time>
      </trkpt>
      <trkpt lat="45.320633" lon="6.986050">
        <ele>1704.344</ele>
        <time>2018-07-19T06:48:51Z</time>
      </trkpt>
      <trkpt lat="45.320618" lon="6.985980">
        <ele>1704.349</ele>
        <time>2018-07-19T06:48:55Z</time>
      </trkpt>
      <trkpt lat="45.320602" lon="6.985913">
        <ele>1704.050</ele>
        <time>2018-07-19T06:48:59Z</time>
      </trkpt>
      <trkpt lat="45.320580" lon="6.985846">
        <ele>1703.838</ele>
        <time>2018-07-19T06:49:03Z</time>
      </trkpt>
      <trkpt lat="45.320562" lon="6.985784">
        <ele>1703.917</ele>
        <time>2018-07-19T06:49:07Z</time>
      </trkpt>
      <trkpt lat="45.320545" lon="6.985718">
        <ele>1703.889</ele>
        <time>2018-07-19T06:49:12Z</time>
      </trkpt>
      <trkpt lat="45.320527" lon="6.985653">
        <ele>1703.406</ele>
        <time>2018-07-19T06:49:16Z</time>
      </trkpt>
      <trkpt lat="45.320501" lon="6.985596">
        <ele>1703.726</ele>
        <time>2018-07-19T06:49:19Z</time>
      </trkpt>
      <trkpt lat="45.320474" lon="6.985521">
        <ele>1703.608</ele>
        <time>2018-07-19T06:49:23Z</time>
      </trkpt>
      <trkpt lat="45.320458" lon="6.985451">
        <ele>1703.490</ele>
        <time>2018-07-19T06:49:27Z</time>
      </trkpt>
      <trkpt lat="45.320430" lon="6.985380">
        <ele>1703.495</ele>
        <time>2018-07-19T06:49:31Z</time>
      </trkpt>
      <trkpt lat="45.320402" lon="6.985326">
        <ele>1703.310</ele>
        <time>2018-07-19T06:49:34Z</time>
      </trkpt>
      <trkpt lat="45.320376" lon="6.985273">
        <ele>1703.315</ele>
        <time>2018-07-19T06:49:37Z</time>
      </trkpt>
      <trkpt lat="45.320351" lon="6.985203">
        <ele>1703.160</ele>
        <time>2018-07-19T06:49:41Z</time>
      </trkpt>
      <trkpt lat="45.320316" lon="6.985147">
        <ele>1703.161</ele>
        <time>2018-07-19T06:49:45Z</time>
      </trkpt>
      <trkpt lat="45.320285" lon="6.985089">
        <ele>1702.969</ele>
        <time>2018-07-19T06:49:49Z</time>
      </trkpt>
      <trkpt lat="45.320252" lon="6.985030">
        <ele>1702.628</ele>
        <time>2018-07-19T06:49:53Z</time>
      </trkpt>
      <trkpt lat="45.320221" lon="6.984971">
        <ele>1702.662</ele>
        <time>2018-07-19T06:49:57Z</time>
      </trkpt>
      <trkpt lat="45.320197" lon="6.984904">
        <ele>1702.383</ele>
        <time>2018-07-19T06:50:01Z</time>
      </trkpt>
      <trkpt lat="45.320176" lon="6.984834">
        <ele>1702.211</ele>
        <time>2018-07-19T06:50:05Z</time>
      </trkpt>
      <trkpt lat="45.320158" lon="6.984764">
        <ele>1702.408</ele>
        <time>2018-07-19T06:50:09Z</time>
      </trkpt>
      <trkpt lat="45.320133" lon="6.984694">
        <ele>1702.218</ele>
        <time>2018-07-19T06:50:13Z</time>
      </trkpt>
      <trkpt lat="45.320107" lon="6.984625">
        <ele>1702.343</ele>
        <time>2018-07-19T06:50:17Z</time>
      </trkpt>
      <trkpt lat="45.320090" lon="6.984562">
        <ele>1702.378</ele>
        <time>2018-07-19T06:50:21Z</time>
      </trkpt>
      <trkpt lat="45.320075" lon="6.984492">
        <ele>1702.133</ele>
        <time>2018-07-19T06:50:25Z</time>
      </trkpt>
      <trkpt lat="45.320063" lon="6.984424">
        <ele>1702.268</ele>
        <time>2018-07-19T06:50:29Z</time>
      </trkpt>
      <trkpt lat="45.320048" lon="6.984352">
        <ele>1702.279</ele>
        <time>2018-07-19T06:50:33Z</time>
      </trkpt>
      <trkpt lat="45.320034" lon="6.984281">
        <ele>1702.167</ele>
        <time>2018-07-19T06:50:37Z</time>
      </trkpt>
      <trkpt lat="45.320011" lon="6.984215">
        <ele>1702.086</ele>
        <time>2018-07-19T06:50:41Z</time>
      </trkpt>
      <trkpt lat="45.319990" lon="6.984149">
        <ele>1702.068</ele>
        <time>2018-07-19T06:50:45Z</time>
      </trkpt>
      <trkpt lat="45.319968" lon="6.984084">
        <ele>1701.842</ele>
        <time>2018-07-19T06:50:49Z</time>
      </trkpt>
      <trkpt lat="45.319946" lon="6.984016">
        <ele>1701.626</ele>
        <time>2018-07-19T06:50:53Z</time>
      </trkpt>
      <trkpt lat="45.319917" lon="6.983953">
        <ele>1701.308</ele>
        <time>2018-07-19T06:50:57Z</time>
      </trkpt>
      <trkpt lat="45.319889" lon="6.983894">
        <ele>1701.368</ele>
        <time>2018-07-19T06:51:01Z</time>
      </trkpt>
      <trkpt lat="45.319864" lon="6.983829">
        <ele>1701.453</ele>
        <time>2018-07-19T06:51:05Z</time>
      </trkpt>
      <trkpt lat="45.319836" lon="6.983767">
        <ele>1701.498</ele>
        <time>2018-07-19T06:51:09Z</time>
      </trkpt>
      <trkpt lat="45.319803" lon="6.983707">
        <ele>1700.873</ele>
        <time>2018-07-19T06:51:13Z</time>
      </trkpt>
      <trkpt lat="45.319767" lon="6.983649">
        <ele>1700.768</ele>
        <time>2018-07-19T06:51:17Z</time>
      </trkpt>
      <trkpt lat="45.319730" lon="6.983601">
        <ele>1700.799</ele>
        <time>2018-07-19T06:51:21Z</time>
      </trkpt>
      <trkpt lat="45.319689" lon="6.983565">
        <ele>1701.017</ele>
        <time>2018-07-19T06:51:25Z</time>
      </trkpt>
      <trkpt lat="45.319644" lon="6.983536">
        <ele>1701.046</ele>
        <time>2018-07-19T06:51:29Z</time>
      </trkpt>
      <trkpt lat="45.319597" lon="6.983505">
        <ele>1701.397</ele>
        <time>2018-07-19T06:51:33Z</time>
      </trkpt>
      <trkpt lat="45.319549" lon="6.983475">
        <ele>1701.123</ele>
        <time>2018-07-19T06:51:37Z</time>
      </trkpt>
      <trkpt lat="45.319502" lon="6.983450">
        <ele>1701.325</ele>
        <time>2018-07-19T06:51:41Z</time>
      </trkpt>
      <trkpt lat="45.319458" lon="6.983418">
        <ele>1701.108</ele>
        <time>2018-07-19T06:51:45Z</time>
      </trkpt>
      <trkpt lat="45.319418" lon="6.983375">
        <ele>1701.131</ele>
        <time>2018-07-19T06:51:49Z</time>
      </trkpt>
      <trkpt lat="45.319376" lon="6.983325">
        <ele>1701.136</ele>
        <time>2018-07-19T06:51:53Z</time>
      </trkpt>
      <trkpt lat="45.319334" lon="6.983275">
        <ele>1701.031</ele>
        <time>2018-07-19T06:51:57Z</time>
      </trkpt>
      <trkpt lat="45.319288" lon="6.983226">
        <ele>1700.996</ele>
        <time>2018-07-19T06:52:01Z</time>
      </trkpt>
      <trkpt lat="45.319245" lon="6.983179">
        <ele>1700.991</ele>
        <time>2018-07-19T06:52:05Z</time>
      </trkpt>
      <trkpt lat="45.319202" lon="6.983135">
        <ele>1700.752</ele>
        <time>2018-07-19T06:52:09Z</time>
      </trkpt>
      <trkpt lat="45.319159" lon="6.983090">
        <ele>1700.680</ele>
        <time>2018-07-19T06:52:13Z</time>
      </trkpt>
      <trkpt lat="45.319115" lon="6.983043">
        <ele>1700.339</ele>
        <time>2018-07-19T06:52:17Z</time>
      </trkpt>
      <trkpt lat="45.319071" lon="6.982998">
        <ele>1700.726</ele>
        <time>2018-07-19T06:52:21Z</time>
      </trkpt>
      <trkpt lat="45.319030" lon="6.982947">
        <ele>1700.747</ele>
        <time>2018-07-19T06:52:25Z</time>
      </trkpt>
      <trkpt lat="45.318992" lon="6.982894">
        <ele>1700.711</ele>
        <time>2018-07-19T06:52:29Z</time>
      </trkpt>
      <trkpt lat="45.318953" lon="6.982847">
        <ele>1700.608</ele>
        <time>2018-07-19T06:52:33Z</time>
      </trkpt>
      <trkpt lat="45.318915" lon="6.982801">
        <ele>1700.844</ele>
        <time>2018-07-19T06:52:37Z</time>
      </trkpt>
      <trkpt lat="45.318877" lon="6.982758">
        <ele>1700.799</ele>
        <time>2018-07-19T06:52:41Z</time>
      </trkpt>
      <trkpt lat="45.318833" lon="6.982715">
        <ele>1700.764</ele>
        <time>2018-07-19T06:52:45Z</time>
      </trkpt>
      <trkpt lat="45.318792" lon="6.982664">
        <ele>1700.839</ele>
        <time>2018-07-19T06:52:49Z</time>
      </trkpt>
      <trkpt lat="45.318752" lon="6.982615">
        <ele>1700.414</ele>
        <time>2018-07-19T06:52:53Z</time>
      </trkpt>
      <trkpt lat="45.318709" lon="6.982568">
        <ele>1700.615</ele>
        <time>2018-07-19T06:52:57Z</time>
      </trkpt>
      <trkpt lat="45.318669" lon="6.982515">
        <ele>1700.623</ele>
        <time>2018-07-19T06:53:01Z</time>
      </trkpt>
      <trkpt lat="45.318630" lon="6.982465">
        <ele>1700.572</ele>
        <time>2018-07-19T06:53:05Z</time>
      </trkpt>
      <trkpt lat="45.318590" lon="6.982415">
        <ele>1700.228</ele>
        <time>2018-07-19T06:53:09Z</time>
      </trkpt>
      <trkpt lat="45.318548" lon="6.982370">
        <ele>1700.289</ele>
        <time>2018-07-19T06:53:13Z</time>
      </trkpt>
      <trkpt lat="45.318504" lon="6.982325">
        <ele>1700.017</ele>
        <time>2018-07-19T06:53:17Z</time>
      </trkpt>
      <trkpt lat="45.318461" lon="6.982278">
        <ele>1699.608</ele>
        <time>2018-07-19T06:53:21Z</time>
      </trkpt>
      <trkpt lat="45.318417" lon="6.982231">
        <ele>1700.074</ele>
        <time>2018-07-19T06:53:25Z</time>
      </trkpt>
      <trkpt lat="45.318372" lon="6.982188">
        <ele>1699.819</ele>
        <time>2018-07-19T06:53:29Z</time>
      </trkpt>
      <trkpt lat="45.318329" lon="6.982146">
        <ele>1700.084</ele>
        <time>2018-07-19T06:53:33Z</time>
      </trkpt>
      <trkpt lat="45.318288" lon="6.982101">
        <ele>1699.669</ele>
        <time>2018-07-19T06:53:37Z</time>
      </trkpt>
      <trkpt lat="45.318247" lon="6.982057">
        <ele>1699.614</ele>
        <time>2018-07-19T06:53:41Z</time>
      </trkpt>
      <trkpt lat="45.318208" lon="6.982014">
        <ele>1699.795</ele>
        <time>2018-07-19T06:53:45Z</time>
      </trkpt>
      <trkpt lat="45.318167" lon="6.981975">
        <ele>1699.983</ele>
        <time>2018-07-19T06:53:49Z</time>
      </trkpt>
      <trkpt lat="45.318123" lon="6.981934">
        <ele>1699.912</ele>
        <time>2018-07-19T06:53:53Z</time>
      </trkpt>
      <trkpt lat="45.318084" lon="6.981895">
        <ele>1700.481</ele>
        <time>2018-07-19T06:53:57Z</time>
      </trkpt>
      <trkpt lat="45.318043" lon="6.981864">
        <ele>1700.061</ele>
        <time>2018-07-19T06:54:01Z</time>
      </trkpt>
      <trkpt lat="45.318033" lon="6.981796">
        <ele>1700.017</ele>
        <time>2018-07-19T06:54:42Z</time>
      </trkpt>
      <trkpt lat="45.317985" lon="6.981750">
        <ele>1699.608</ele>
        <time>2018-07-19T06:54:47Z</time>
      </trkpt>
      <trkpt lat="45.317947" lon="6.981713">
        <ele>1699.680</ele>
        <time>2018-07-19T06:54:50Z</time>
      </trkpt>
      <trkpt lat="45.317910" lon="6.981675">
        <ele>1699.535</ele>
        <time>2018-07-19T06:54:53Z</time>
      </trkpt>
      <trkpt lat="45.317860" lon="6.981631">
        <ele>1699.560</ele>
        <time>2018-07-19T06:54:57Z</time>
      </trkpt>
      <trkpt lat="45.317812" lon="6.981582">
        <ele>1699.585</ele>
        <time>2018-07-19T06:55:01Z</time>
      </trkpt>
      <trkpt lat="45.317773" lon="6.981528">
        <ele>1699.320</ele>
        <time>2018-07-19T06:55:05Z</time>
      </trkpt>
      <trkpt lat="45.317732" lon="6.981481">
        <ele>1699.161</ele>
        <time>2018-07-19T06:55:09Z</time>
      </trkpt>
      <trkpt lat="45.317690" lon="6.981428">
        <ele>1699.199</ele>
        <time>2018-07-19T06:55:13Z</time>
      </trkpt>
      <trkpt lat="45.317654" lon="6.981382">
        <ele>1698.988</ele>
        <time>2018-07-19T06:55:17Z</time>
      </trkpt>
      <trkpt lat="45.317635" lon="6.981318">
        <ele>1698.831</ele>
        <time>2018-07-19T06:55:30Z</time>
      </trkpt>
      <trkpt lat="45.317596" lon="6.981268">
        <ele>1698.661</ele>
        <time>2018-07-19T06:55:34Z</time>
      </trkpt>
      <trkpt lat="45.317554" lon="6.981225">
        <ele>1698.407</ele>
        <time>2018-07-19T06:55:38Z</time>
      </trkpt>
      <trkpt lat="45.317514" lon="6.981179">
        <ele>1698.308</ele>
        <time>2018-07-19T06:55:42Z</time>
      </trkpt>
      <trkpt lat="45.317475" lon="6.981131">
        <ele>1698.545</ele>
        <time>2018-07-19T06:55:46Z</time>
      </trkpt>
      <trkpt lat="45.317436" lon="6.981087">
        <ele>1698.670</ele>
        <time>2018-07-19T06:55:50Z</time>
      </trkpt>
      <trkpt lat="45.317399" lon="6.981041">
        <ele>1698.445</ele>
        <time>2018-07-19T06:55:54Z</time>
      </trkpt>
      <trkpt lat="45.317361" lon="6.980994">
        <ele>1698.220</ele>
        <time>2018-07-19T06:55:58Z</time>
      </trkpt>
      <trkpt lat="45.317321" lon="6.980945">
        <ele>1698.375</ele>
        <time>2018-07-19T06:56:02Z</time>
      </trkpt>
      <trkpt lat="45.317280" lon="6.980896">
        <ele>1698.076</ele>
        <time>2018-07-19T06:56:06Z</time>
      </trkpt>
      <trkpt lat="45.317239" lon="6.980842">
        <ele>1697.874</ele>
        <time>2018-07-19T06:56:10Z</time>
      </trkpt>
      <trkpt lat="45.317206" lon="6.980780">
        <ele>1697.963</ele>
        <time>2018-07-19T06:56:14Z</time>
      </trkpt>
      <trkpt lat="45.317185" lon="6.980711">
        <ele>1698.298</ele>
        <time>2018-07-19T06:56:18Z</time>
      </trkpt>
      <trkpt lat="45.317168" lon="6.980641">
        <ele>1698.315</ele>
        <time>2018-07-19T06:56:22Z</time>
      </trkpt>
      <trkpt lat="45.317159" lon="6.980571">
        <ele>1698.326</ele>
        <time>2018-07-19T06:56:26Z</time>
      </trkpt>
      <trkpt lat="45.317150" lon="6.980495">
        <ele>1698.108</ele>
        <time>2018-07-19T06:56:30Z</time>
      </trkpt>
      <trkpt lat="45.317150" lon="6.980422">
        <ele>1697.971</ele>
        <time>2018-07-19T06:56:34Z</time>
      </trkpt>
      <trkpt lat="45.317150" lon="6.980350">
        <ele>1697.896</ele>
        <time>2018-07-19T06:56:38Z</time>
      </trkpt>
      <trkpt lat="45.317140" lon="6.980274">
        <ele>1697.981</ele>
        <time>2018-07-19T06:56:42Z</time>
      </trkpt>
      <trkpt lat="45.317133" lon="6.980202">
        <ele>1697.716</ele>
        <time>2018-07-19T06:56:46Z</time>
      </trkpt>
      <trkpt lat="45.317121" lon="6.980127">
        <ele>1697.681</ele>
        <time>2018-07-19T06:56:50Z</time>
      </trkpt>
      <trkpt lat="45.317106" lon="6.980058">
        <ele>1697.672</ele>
        <time>2018-07-19T06:56:54Z</time>
      </trkpt>
      <trkpt lat="45.317094" lon="6.979986">
        <ele>1697.850</ele>
        <time>2018-07-19T06:56:58Z</time>
      </trkpt>
      <trkpt lat="45.317084" lon="6.979912">
        <ele>1697.559</ele>
        <time>2018-07-19T06:57:02Z</time>
      </trkpt>
      <trkpt lat="45.317070" lon="6.979843">
        <ele>1697.597</ele>
        <time>2018-07-19T06:57:06Z</time>
      </trkpt>
      <trkpt lat="45.317051" lon="6.979778">
        <ele>1697.523</ele>
        <time>2018-07-19T06:57:10Z</time>
      </trkpt>
      <trkpt lat="45.317023" lon="6.979713">
        <ele>1697.525</ele>
        <time>2018-07-19T06:57:14Z</time>
      </trkpt>
      <trkpt lat="45.316988" lon="6.979648">
        <ele>1697.608</ele>
        <time>2018-07-19T06:57:18Z</time>
      </trkpt>
      <trkpt lat="45.316957" lon="6.979588">
        <ele>1697.521</ele>
        <time>2018-07-19T06:57:22Z</time>
      </trkpt>
      <trkpt lat="45.316927" lon="6.979525">
        <ele>1697.636</ele>
        <time>2018-07-19T06:57:26Z</time>
      </trkpt>
      <trkpt lat="45.316896" lon="6.979464">
        <ele>1697.561</ele>
        <time>2018-07-19T06:57:30Z</time>
      </trkpt>
      <trkpt lat="45.316862" lon="6.979403">
        <ele>1697.866</ele>
        <time>2018-07-19T06:57:34Z</time>
      </trkpt>
      <trkpt lat="45.316831" lon="6.979341">
        <ele>1697.671</ele>
        <time>2018-07-19T06:57:38Z</time>
      </trkpt>
      <trkpt lat="45.316801" lon="6.979283">
        <ele>1697.792</ele>
        <time>2018-07-19T06:57:42Z</time>
      </trkpt>
      <trkpt lat="45.316773" lon="6.979218">
        <ele>1697.980</ele>
        <time>2018-07-19T06:57:46Z</time>
      </trkpt>
      <trkpt lat="45.316744" lon="6.979157">
        <ele>1697.919</ele>
        <time>2018-07-19T06:57:50Z</time>
      </trkpt>
      <trkpt lat="45.316712" lon="6.979089">
        <ele>1697.766</ele>
        <time>2018-07-19T06:57:54Z</time>
      </trkpt>
      <trkpt lat="45.316688" lon="6.979021">
        <ele>1697.929</ele>
        <time>2018-07-19T06:57:58Z</time>
      </trkpt>
      <trkpt lat="45.316660" lon="6.978956">
        <ele>1698.021</ele>
        <time>2018-07-19T06:58:02Z</time>
      </trkpt>
      <trkpt lat="45.316633" lon="6.978889">
        <ele>1698.308</ele>
        <time>2018-07-19T06:58:06Z</time>
      </trkpt>
      <trkpt lat="45.316605" lon="6.978832">
        <ele>1698.268</ele>
        <time>2018-07-19T06:58:10Z</time>
      </trkpt>
      <trkpt lat="45.316571" lon="6.978772">
        <ele>1698.453</ele>
        <time>2018-07-19T06:58:14Z</time>
      </trkpt>
      <trkpt lat="45.316544" lon="6.978709">
        <ele>1698.428</ele>
        <time>2018-07-19T06:58:18Z</time>
      </trkpt>
      <trkpt lat="45.316515" lon="6.978646">
        <ele>1698.563</ele>
        <time>2018-07-19T06:58:22Z</time>
      </trkpt>
      <trkpt lat="45.316488" lon="6.978581">
        <ele>1698.538</ele>
        <time>2018-07-19T06:58:26Z</time>
      </trkpt>
      <trkpt lat="45.316458" lon="6.978526">
        <ele>1698.319</ele>
        <time>2018-07-19T06:58:30Z</time>
      </trkpt>
      <trkpt lat="45.316426" lon="6.978473">
        <ele>1698.257</ele>
        <time>2018-07-19T06:58:34Z</time>
      </trkpt>
      <trkpt lat="45.316394" lon="6.978413">
        <ele>1698.316</ele>
        <time>2018-07-19T06:58:38Z</time>
      </trkpt>
      <trkpt lat="45.316362" lon="6.978354">
        <ele>1698.122</ele>
        <time>2018-07-19T06:58:42Z</time>
      </trkpt>
      <trkpt lat="45.316327" lon="6.978310">
        <ele>1698.262</ele>
        <time>2018-07-19T06:58:45Z</time>
      </trkpt>
      <trkpt lat="45.316289" lon="6.978262">
        <ele>1697.908</ele>
        <time>2018-07-19T06:58:49Z</time>
      </trkpt>
      <trkpt lat="45.316245" lon="6.978220">
        <ele>1697.608</ele>
        <time>2018-07-19T06:58:53Z</time>
      </trkpt>
      <trkpt lat="45.316207" lon="6.978168">
        <ele>1697.654</ele>
        <time>2018-07-19T06:58:57Z</time>
      </trkpt>
      <trkpt lat="45.316164" lon="6.978125">
        <ele>1697.479</ele>
        <time>2018-07-19T06:59:01Z</time>
      </trkpt>
      <trkpt lat="45.316115" lon="6.978088">
        <ele>1697.394</ele>
        <time>2018-07-19T06:59:05Z</time>
      </trkpt>
      <trkpt lat="45.316069" lon="6.978054">
        <ele>1697.359</ele>
        <time>2018-07-19T06:59:09Z</time>
      </trkpt>
      <trkpt lat="45.316023" lon="6.978023">
        <ele>1697.364</ele>
        <time>2018-07-19T06:59:13Z</time>
      </trkpt>
      <trkpt lat="45.315982" lon="6.977995">
        <ele>1697.475</ele>
        <time>2018-07-19T06:59:17Z</time>
      </trkpt>
      <trkpt lat="45.315936" lon="6.977958">
        <ele>1697.413</ele>
        <time>2018-07-19T06:59:21Z</time>
      </trkpt>
      <trkpt lat="45.315892" lon="6.977922">
        <ele>1697.552</ele>
        <time>2018-07-19T06:59:25Z</time>
      </trkpt>
      <trkpt lat="45.315847" lon="6.977879">
        <ele>1697.421</ele>
        <time>2018-07-19T06:59:29Z</time>
      </trkpt>
      <trkpt lat="45.315804" lon="6.977837">
        <ele>1697.341</ele>
        <time>2018-07-19T06:59:33Z</time>
      </trkpt>
      <trkpt lat="45.315758" lon="6.977797">
        <ele>1697.105</ele>
        <time>2018-07-19T06:59:37Z</time>
      </trkpt>
      <trkpt lat="45.315715" lon="6.977749">
        <ele>1697.208</ele>
        <time>2018-07-19T06:59:41Z</time>
      </trkpt>
      <trkpt lat="45.315674" lon="6.977693">
        <ele>1697.134</ele>
        <time>2018-07-19T06:59:45Z</time>
      </trkpt>
      <trkpt lat="45.315638" lon="6.977635">
        <ele>1697.179</ele>
        <time>2018-07-19T06:59:49Z</time>
      </trkpt>
      <trkpt lat="45.315606" lon="6.977572">
        <ele>1697.134</ele>
        <time>2018-07-19T06:59:53Z</time>
      </trkpt>
      <trkpt lat="45.315573" lon="6.977515">
        <ele>1697.069</ele>
        <time>2018-07-19T06:59:57Z</time>
      </trkpt>
      <trkpt lat="45.315541" lon="6.977457">
        <ele>1697.094</ele>
        <time>2018-07-19T07:00:01Z</time>
      </trkpt>
      <trkpt lat="45.315513" lon="6.977398">
        <ele>1697.035</ele>
        <time>2018-07-19T07:00:05Z</time>
      </trkpt>
      <trkpt lat="45.315502" lon="6.977333">
        <ele>1697.023</ele>
        <time>2018-07-19T07:00:26Z</time>
      </trkpt>
      <trkpt lat="45.315479" lon="6.977264">
        <ele>1696.852</ele>
        <time>2018-07-19T07:00:31Z</time>
      </trkpt>
      <trkpt lat="45.315469" lon="6.977194">
        <ele>1696.545</ele>
        <time>2018-07-19T07:00:35Z</time>
      </trkpt>
      <trkpt lat="45.315457" lon="6.977115">
        <ele>1696.447</ele>
        <time>2018-07-19T07:00:39Z</time>
      </trkpt>
      <trkpt lat="45.315452" lon="6.977035">
        <ele>1696.611</ele>
        <time>2018-07-19T07:00:43Z</time>
      </trkpt>
      <trkpt lat="45.315450" lon="6.976954">
        <ele>1696.608</ele>
        <time>2018-07-19T07:00:47Z</time>
      </trkpt>
      <trkpt lat="45.315448" lon="6.976885">
        <ele>1696.616</ele>
        <time>2018-07-19T07:00:51Z</time>
      </trkpt>
      <trkpt lat="45.315453" lon="6.976821">
        <ele>1696.521</ele>
        <time>2018-07-19T07:00:55Z</time>
      </trkpt>
      <trkpt lat="45.315447" lon="6.976752">
        <ele>1696.466</ele>
        <time>2018-07-19T07:00:59Z</time>
      </trkpt>
      <trkpt lat="45.315431" lon="6.976690">
        <ele>1696.511</ele>
        <time>2018-07-19T07:01:03Z</time>
      </trkpt>
      <trkpt lat="45.315410" lon="6.976628">
        <ele>1696.586</ele>
        <time>2018-07-19T07:01:07Z</time>
      </trkpt>
      <trkpt lat="45.315388" lon="6.976560">
        <ele>1696.437</ele>
        <time>2018-07-19T07:01:11Z</time>
      </trkpt>
      <trkpt lat="45.315369" lon="6.976494">
        <ele>1696.625</ele>
        <time>2018-07-19T07:01:15Z</time>
      </trkpt>
      <trkpt lat="45.315346" lon="6.976427">
        <ele>1696.424</ele>
        <time>2018-07-19T07:01:19Z</time>
      </trkpt>
      <trkpt lat="45.315323" lon="6.976363">
        <ele>1696.482</ele>
        <time>2018-07-19T07:01:23Z</time>
      </trkpt>
      <trkpt lat="45.315301" lon="6.976297">
        <ele>1696.543</ele>
        <time>2018-07-19T07:01:27Z</time>
      </trkpt>
      <trkpt lat="45.315278" lon="6.976231">
        <ele>1696.617</ele>
        <time>2018-07-19T07:01:31Z</time>
      </trkpt>
      <trkpt lat="45.315250" lon="6.976169">
        <ele>1696.608</ele>
        <time>2018-07-19T07:01:35Z</time>
      </trkpt>
      <trkpt lat="45.315225" lon="6.976108">
        <ele>1696.340</ele>
        <time>2018-07-19T07:01:39Z</time>
      </trkpt>
      <trkpt lat="45.315205" lon="6.976043">
        <ele>1696.145</ele>
        <time>2018-07-19T07:01:43Z</time>
      </trkpt>
      <trkpt lat="45.315185" lon="6.975976">
        <ele>1696.470</ele>
        <time>2018-07-19T07:01:47Z</time>
      </trkpt>
      <trkpt lat="45.315166" lon="6.975903">
        <ele>1696.435</ele>
        <time>2018-07-19T07:01:51Z</time>
      </trkpt>
      <trkpt lat="45.315152" lon="6.975839">
        <ele>1696.460</ele>
        <time>2018-07-19T07:01:55Z</time>
      </trkpt>
      <trkpt lat="45.315137" lon="6.975758">
        <ele>1696.421</ele>
        <time>2018-07-19T07:01:59Z</time>
      </trkpt>
      <trkpt lat="45.315119" lon="6.975684">
        <ele>1696.469</ele>
        <time>2018-07-19T07:02:03Z</time>
      </trkpt>
      <trkpt lat="45.315092" lon="6.975624">
        <ele>1696.748</ele>
        <time>2018-07-19T07:02:07Z</time>
      </trkpt>
      <trkpt lat="45.315061" lon="6.975574">
        <ele>1696.549</ele>
        <time>2018-07-19T07:02:11Z</time>
      </trkpt>
      <trkpt lat="45.315026" lon="6.975531">
        <ele>1696.902</ele>
        <time>2018-07-19T07:02:15Z</time>
      </trkpt>
      <trkpt lat="45.314982" lon="6.975490">
        <ele>1697.022</ele>
        <time>2018-07-19T07:02:19Z</time>
      </trkpt>
      <trkpt lat="45.314943" lon="6.975456">
        <ele>1697.308</ele>
        <time>2018-07-19T07:02:23Z</time>
      </trkpt>
      <trkpt lat="45.314898" lon="6.975407">
        <ele>1697.716</ele>
        <time>2018-07-19T07:02:28Z</time>
      </trkpt>
      <trkpt lat="45.314855" lon="6.975358">
        <ele>1698.161</ele>
        <time>2018-07-19T07:02:33Z</time>
      </trkpt>
      <trkpt lat="45.314814" lon="6.975314">
        <ele>1698.646</ele>
        <time>2018-07-19T07:02:38Z</time>
      </trkpt>
      <trkpt lat="45.314775" lon="6.975263">
        <ele>1699.591</ele>
        <time>2018-07-19T07:02:44Z</time>
      </trkpt>
      <trkpt lat="45.314741" lon="6.975208">
        <ele>1699.996</ele>
        <time>2018-07-19T07:02:50Z</time>
      </trkpt>
      <trkpt lat="45.314703" lon="6.975161">
        <ele>1700.767</ele>
        <time>2018-07-19T07:02:56Z</time>
      </trkpt>
      <trkpt lat="45.314669" lon="6.975115">
        <ele>1701.425</ele>
        <time>2018-07-19T07:03:02Z</time>
      </trkpt>
      <trkpt lat="45.314630" lon="6.975069">
        <ele>1702.124</ele>
        <time>2018-07-19T07:03:08Z</time>
      </trkpt>
      <trkpt lat="45.314596" lon="6.975022">
        <ele>1702.446</ele>
        <time>2018-07-19T07:03:14Z</time>
      </trkpt>
      <trkpt lat="45.314563" lon="6.974971">
        <ele>1703.088</ele>
        <time>2018-07-19T07:03:19Z</time>
      </trkpt>
      <trkpt lat="45.314540" lon="6.974913">
        <ele>1703.316</ele>
        <time>2018-07-19T07:03:25Z</time>
      </trkpt>
      <trkpt lat="45.314517" lon="6.974856">
        <ele>1704.108</ele>
        <time>2018-07-19T07:03:31Z</time>
      </trkpt>
      <trkpt lat="45.314489" lon="6.974799">
        <ele>1704.636</ele>
        <time>2018-07-19T07:03:37Z</time>
      </trkpt>
      <trkpt lat="45.314453" lon="6.974760">
        <ele>1704.551</ele>
        <time>2018-07-19T07:03:41Z</time>
      </trkpt>
      <trkpt lat="45.314412" lon="6.974720">
        <ele>1704.336</ele>
        <time>2018-07-19T07:03:45Z</time>
      </trkpt>
      <trkpt lat="45.314366" lon="6.974681">
        <ele>1704.071</ele>
        <time>2018-07-19T07:03:49Z</time>
      </trkpt>
      <trkpt lat="45.314329" lon="6.974633">
        <ele>1703.896</ele>
        <time>2018-07-19T07:03:54Z</time>
      </trkpt>
      <trkpt lat="45.314289" lon="6.974593">
        <ele>1703.637</ele>
        <time>2018-07-19T07:03:58Z</time>
      </trkpt>
      <trkpt lat="45.314251" lon="6.974557">
        <ele>1703.955</ele>
        <time>2018-07-19T07:04:02Z</time>
      </trkpt>
      <trkpt lat="45.314208" lon="6.974514">
        <ele>1703.914</ele>
        <time>2018-07-19T07:04:06Z</time>
      </trkpt>
      <trkpt lat="45.314165" lon="6.974479">
        <ele>1703.848</ele>
        <time>2018-07-19T07:04:10Z</time>
      </trkpt>
      <trkpt lat="45.314120" lon="6.974457">
        <ele>1703.761</ele>
        <time>2018-07-19T07:04:14Z</time>
      </trkpt>
      <trkpt lat="45.314078" lon="6.974435">
        <ele>1703.417</ele>
        <time>2018-07-19T07:04:18Z</time>
      </trkpt>
      <trkpt lat="45.314030" lon="6.974421">
        <ele>1703.708</ele>
        <time>2018-07-19T07:04:22Z</time>
      </trkpt>
      <trkpt lat="45.313980" lon="6.974431">
        <ele>1703.616</ele>
        <time>2018-07-19T07:04:26Z</time>
      </trkpt>
      <trkpt lat="45.313933" lon="6.974400">
        <ele>1703.811</ele>
        <time>2018-07-19T07:04:31Z</time>
      </trkpt>
      <trkpt lat="45.313882" lon="6.974374">
        <ele>1703.866</ele>
        <time>2018-07-19T07:04:35Z</time>
      </trkpt>
      <trkpt lat="45.313834" lon="6.974350">
        <ele>1703.751</ele>
        <time>2018-07-19T07:04:39Z</time>
      </trkpt>
      <trkpt lat="45.313789" lon="6.974358">
        <ele>1703.756</ele>
        <time>2018-07-19T07:04:43Z</time>
      </trkpt>
      <trkpt lat="45.313739" lon="6.974345">
        <ele>1703.667</ele>
        <time>2018-07-19T07:04:49Z</time>
      </trkpt>
      <trkpt lat="45.313691" lon="6.974342">
        <ele>1703.545</ele>
        <time>2018-07-19T07:04:53Z</time>
      </trkpt>
      <trkpt lat="45.313640" lon="6.974336">
        <ele>1703.854</ele>
        <time>2018-07-19T07:04:57Z</time>
      </trkpt>
      <trkpt lat="45.313590" lon="6.974327">
        <ele>1703.831</ele>
        <time>2018-07-19T07:05:01Z</time>
      </trkpt>
      <trkpt lat="45.313542" lon="6.974314">
        <ele>1703.961</ele>
        <time>2018-07-19T07:05:05Z</time>
      </trkpt>
      <trkpt lat="45.313494" lon="6.974304">
        <ele>1703.607</ele>
        <time>2018-07-19T07:05:09Z</time>
      </trkpt>
      <trkpt lat="45.313443" lon="6.974301">
        <ele>1703.208</ele>
        <time>2018-07-19T07:05:13Z</time>
      </trkpt>
      <trkpt lat="45.313393" lon="6.974296">
        <ele>1703.345</ele>
        <time>2018-07-19T07:05:17Z</time>
      </trkpt>
      <trkpt lat="45.313343" lon="6.974289">
        <ele>1703.340</ele>
        <time>2018-07-19T07:05:21Z</time>
      </trkpt>
      <trkpt lat="45.313291" lon="6.974285">
        <ele>1703.455</ele>
        <time>2018-07-19T07:05:25Z</time>
      </trkpt>
      <trkpt lat="45.313239" lon="6.974274">
        <ele>1703.410</ele>
        <time>2018-07-19T07:05:29Z</time>
      </trkpt>
      <trkpt lat="45.313189" lon="6.974266">
        <ele>1703.365</ele>
        <time>2018-07-19T07:05:33Z</time>
      </trkpt>
      <trkpt lat="45.313140" lon="6.974255">
        <ele>1703.136</ele>
        <time>2018-07-19T07:05:37Z</time>
      </trkpt>
      <trkpt lat="45.313089" lon="6.974245">
        <ele>1702.824</ele>
        <time>2018-07-19T07:05:41Z</time>
      </trkpt>
      <trkpt lat="45.313038" lon="6.974237">
        <ele>1703.033</ele>
        <time>2018-07-19T07:05:45Z</time>
      </trkpt>
      <trkpt lat="45.312986" lon="6.974230">
        <ele>1702.834</ele>
        <time>2018-07-19T07:05:49Z</time>
      </trkpt>
      <trkpt lat="45.312936" lon="6.974222">
        <ele>1702.855</ele>
        <time>2018-07-19T07:05:53Z</time>
      </trkpt>
      <trkpt lat="45.312888" lon="6.974216">
        <ele>1702.610</ele>
        <time>2018-07-19T07:05:57Z</time>
      </trkpt>
      <trkpt lat="45.312839" lon="6.974204">
        <ele>1702.708</ele>
        <time>2018-07-19T07:06:01Z</time>
      </trkpt>
      <trkpt lat="45.312791" lon="6.974190">
        <ele>1702.815</ele>
        <time>2018-07-19T07:06:05Z</time>
      </trkpt>
      <trkpt lat="45.312744" lon="6.974174">
        <ele>1702.490</ele>
        <time>2018-07-19T07:06:09Z</time>
      </trkpt>
      <trkpt lat="45.312693" lon="6.974162">
        <ele>1702.475</ele>
        <time>2018-07-19T07:06:13Z</time>
      </trkpt>
      <trkpt lat="45.312646" lon="6.974148">
        <ele>1702.350</ele>
        <time>2018-07-19T07:06:17Z</time>
      </trkpt>
      <trkpt lat="45.312599" lon="6.974135">
        <ele>1702.445</ele>
        <time>2018-07-19T07:06:21Z</time>
      </trkpt>
      <trkpt lat="45.312551" lon="6.974121">
        <ele>1702.166</ele>
        <time>2018-07-19T07:06:25Z</time>
      </trkpt>
      <trkpt lat="45.312505" lon="6.974109">
        <ele>1702.084</ele>
        <time>2018-07-19T07:06:29Z</time>
      </trkpt>
      <trkpt lat="45.312456" lon="6.974097">
        <ele>1702.353</ele>
        <time>2018-07-19T07:06:33Z</time>
      </trkpt>
      <trkpt lat="45.312410" lon="6.974082">
        <ele>1702.137</ele>
        <time>2018-07-19T07:06:37Z</time>
      </trkpt>
      <trkpt lat="45.312362" lon="6.974078">
        <ele>1702.049</ele>
        <time>2018-07-19T07:06:41Z</time>
      </trkpt>
      <trkpt lat="45.312315" lon="6.974072">
        <ele>1702.013</ele>
        <time>2018-07-19T07:06:45Z</time>
      </trkpt>
      <trkpt lat="45.312265" lon="6.974062">
        <ele>1701.808</ele>
        <time>2018-07-19T07:06:49Z</time>
      </trkpt>
      <trkpt lat="45.312216" lon="6.974051">
        <ele>1701.895</ele>
        <time>2018-07-19T07:06:53Z</time>
      </trkpt>
      <trkpt lat="45.312168" lon="6.974044">
        <ele>1701.590</ele>
        <time>2018-07-19T07:06:57Z</time>
      </trkpt>
      <trkpt lat="45.312118" lon="6.974040">
        <ele>1701.855</ele>
        <time>2018-07-19T07:07:01Z</time>
      </trkpt>
      <trkpt lat="45.312067" lon="6.974035">
        <ele>1701.690</ele>
        <time>2018-07-19T07:07:05Z</time>
      </trkpt>
      <trkpt lat="45.312015" lon="6.974031">
        <ele>1701.415</ele>
        <time>2018-07-19T07:07:09Z</time>
      </trkpt>
      <trkpt lat="45.311963" lon="6.974025">
        <ele>1701.516</ele>
        <time>2018-07-19T07:07:13Z</time>
      </trkpt>
      <trkpt lat="45.311911" lon="6.974019">
        <ele>1701.364</ele>
        <time>2018-07-19T07:07:17Z</time>
      </trkpt>
      <trkpt lat="45.311854" lon="6.974018">
        <ele>1701.283</ele>
        <time>2018-07-19T07:07:21Z</time>
      </trkpt>
      <trkpt lat="45.311799" lon="6.974015">
        <ele>1701.051</ele>
        <time>2018-07-19T07:07:25Z</time>
      </trkpt>
      <trkpt lat="45.311754" lon="6.973990">
        <ele>1700.501</ele>
        <time>2018-07-19T07:07:29Z</time>
      </trkpt>
      <trkpt lat="45.311714" lon="6.973952">
        <ele>1700.111</ele>
        <time>2018-07-19T07:07:33Z</time>
      </trkpt>
      <trkpt lat="45.311678" lon="6.973908">
        <ele>1700.308</ele>
        <time>2018-07-19T07:07:37Z</time>
      </trkpt>
      <trkpt lat="45.311641" lon="6.973862">
        <ele>1700.047</ele>
        <time>2018-07-19T07:07:41Z</time>
      </trkpt>
      <trkpt lat="45.311607" lon="6.973817">
        <ele>1700.662</ele>
        <time>2018-07-19T07:07:45Z</time>
      </trkpt>
      <trkpt lat="45.311575" lon="6.973766">
        <ele>1700.587</ele>
        <time>2018-07-19T07:07:49Z</time>
      </trkpt>
      <trkpt lat="45.311538" lon="6.973709">
        <ele>1700.312</ele>
        <time>2018-07-19T07:07:53Z</time>
      </trkpt>
      <trkpt lat="45.311509" lon="6.973653">
        <ele>1700.357</ele>
        <time>2018-07-19T07:07:57Z</time>
      </trkpt>
      <trkpt lat="45.311484" lon="6.973598">
        <ele>1700.478</ele>
        <time>2018-07-19T07:08:01Z</time>
      </trkpt>
      <trkpt lat="45.311462" lon="6.973542">
        <ele>1700.366</ele>
        <time>2018-07-19T07:08:05Z</time>
      </trkpt>
      <trkpt lat="45.311440" lon="6.973486">
        <ele>1700.375</ele>
        <time>2018-07-19T07:08:09Z</time>
      </trkpt>
      <trkpt lat="45.311414" lon="6.973432">
        <ele>1700.536</ele>
        <time>2018-07-19T07:08:13Z</time>
      </trkpt>
      <trkpt lat="45.311386" lon="6.973373">
        <ele>1700.417</ele>
        <time>2018-07-19T07:08:17Z</time>
      </trkpt>
      <trkpt lat="45.311363" lon="6.973317">
        <ele>1700.418</ele>
        <time>2018-07-19T07:08:21Z</time>
      </trkpt>
      <trkpt lat="45.311338" lon="6.973254">
        <ele>1700.408</ele>
        <time>2018-07-19T07:08:25Z</time>
      </trkpt>
      <trkpt lat="45.311311" lon="6.973195">
        <ele>1700.795</ele>
        <time>2018-07-19T07:08:29Z</time>
      </trkpt>
      <trkpt lat="45.311288" lon="6.973133">
        <ele>1700.520</ele>
        <time>2018-07-19T07:08:33Z</time>
      </trkpt>
      <trkpt lat="45.311262" lon="6.973070">
        <ele>1700.525</ele>
        <time>2018-07-19T07:08:37Z</time>
      </trkpt>
      <trkpt lat="45.311237" lon="6.973010">
        <ele>1700.940</ele>
        <time>2018-07-19T07:08:41Z</time>
      </trkpt>
      <trkpt lat="45.311210" lon="6.972947">
        <ele>1701.095</ele>
        <time>2018-07-19T07:08:45Z</time>
      </trkpt>
      <trkpt lat="45.311182" lon="6.972883">
        <ele>1701.146</ele>
        <time>2018-07-19T07:08:49Z</time>
      </trkpt>
      <trkpt lat="45.311153" lon="6.972820">
        <ele>1701.074</ele>
        <time>2018-07-19T07:08:53Z</time>
      </trkpt>
      <trkpt lat="45.311126" lon="6.972762">
        <ele>1701.223</ele>
        <time>2018-07-19T07:08:57Z</time>
      </trkpt>
      <trkpt lat="45.311102" lon="6.972704">
        <ele>1701.367</ele>
        <time>2018-07-19T07:09:01Z</time>
      </trkpt>
      <trkpt lat="45.311075" lon="6.972646">
        <ele>1701.781</ele>
        <time>2018-07-19T07:09:05Z</time>
      </trkpt>
      <trkpt lat="45.311050" lon="6.972590">
        <ele>1701.619</ele>
        <time>2018-07-19T07:09:09Z</time>
      </trkpt>
      <trkpt lat="45.311026" lon="6.972534">
        <ele>1702.008</ele>
        <time>2018-07-19T07:09:13Z</time>
      </trkpt>
      <trkpt lat="45.310999" lon="6.972477">
        <ele>1702.168</ele>
        <time>2018-07-19T07:09:17Z</time>
      </trkpt>
      <trkpt lat="45.310976" lon="6.972417">
        <ele>1702.063</ele>
        <time>2018-07-19T07:09:21Z</time>
      </trkpt>
      <trkpt lat="45.310953" lon="6.972356">
        <ele>1702.038</ele>
        <time>2018-07-19T07:09:25Z</time>
      </trkpt>
      <trkpt lat="45.310929" lon="6.972293">
        <ele>1702.043</ele>
        <time>2018-07-19T07:09:29Z</time>
      </trkpt>
      <trkpt lat="45.310904" lon="6.972239">
        <ele>1702.468</ele>
        <time>2018-07-19T07:09:33Z</time>
      </trkpt>
      <trkpt lat="45.310883" lon="6.972180">
        <ele>1702.559</ele>
        <time>2018-07-19T07:09:37Z</time>
      </trkpt>
      <trkpt lat="45.310861" lon="6.972118">
        <ele>1702.847</ele>
        <time>2018-07-19T07:09:41Z</time>
      </trkpt>
      <trkpt lat="45.310837" lon="6.972059">
        <ele>1702.846</ele>
        <time>2018-07-19T07:09:45Z</time>
      </trkpt>
      <trkpt lat="45.310813" lon="6.971995">
        <ele>1702.889</ele>
        <time>2018-07-19T07:09:49Z</time>
      </trkpt>
      <trkpt lat="45.310787" lon="6.971934">
        <ele>1703.006</ele>
        <time>2018-07-19T07:09:53Z</time>
      </trkpt>
      <trkpt lat="45.310761" lon="6.971875">
        <ele>1703.426</ele>
        <time>2018-07-19T07:09:57Z</time>
      </trkpt>
      <trkpt lat="45.310735" lon="6.971820">
        <ele>1703.608</ele>
        <time>2018-07-19T07:10:01Z</time>
      </trkpt>
      <trkpt lat="45.310701" lon="6.971764">
        <ele>1703.450</ele>
        <time>2018-07-19T07:10:05Z</time>
      </trkpt>
      <trkpt lat="45.310669" lon="6.971711">
        <ele>1703.665</ele>
        <time>2018-07-19T07:10:09Z</time>
      </trkpt>
      <trkpt lat="45.310637" lon="6.971660">
        <ele>1703.730</ele>
        <time>2018-07-19T07:10:13Z</time>
      </trkpt>
      <trkpt lat="45.310600" lon="6.971610">
        <ele>1703.735</ele>
        <time>2018-07-19T07:10:17Z</time>
      </trkpt>
      <trkpt lat="45.310565" lon="6.971558">
        <ele>1703.520</ele>
        <time>2018-07-19T07:10:21Z</time>
      </trkpt>
      <trkpt lat="45.310527" lon="6.971508">
        <ele>1703.231</ele>
        <time>2018-07-19T07:10:25Z</time>
      </trkpt>
      <trkpt lat="45.310489" lon="6.971462">
        <ele>1703.149</ele>
        <time>2018-07-19T07:10:29Z</time>
      </trkpt>
      <trkpt lat="45.310454" lon="6.971412">
        <ele>1702.998</ele>
        <time>2018-07-19T07:10:33Z</time>
      </trkpt>
      <trkpt lat="45.310416" lon="6.971351">
        <ele>1702.826</ele>
        <time>2018-07-19T07:10:38Z</time>
      </trkpt>
      <trkpt lat="45.310379" lon="6.971299">
        <ele>1702.447</ele>
        <time>2018-07-19T07:10:42Z</time>
      </trkpt>
      <trkpt lat="45.310341" lon="6.971250">
        <ele>1702.511</ele>
        <time>2018-07-19T07:10:46Z</time>
      </trkpt>
      <trkpt lat="45.310305" lon="6.971201">
        <ele>1702.108</ele>
        <time>2018-07-19T07:10:50Z</time>
      </trkpt>
      <trkpt lat="45.310267" lon="6.971155">
        <ele>1701.924</ele>
        <time>2018-07-19T07:10:54Z</time>
      </trkpt>
      <trkpt lat="45.310228" lon="6.971109">
        <ele>1701.849</ele>
        <time>2018-07-19T07:10:58Z</time>
      </trkpt>
      <trkpt lat="45.310193" lon="6.971057">
        <ele>1701.754</ele>
        <time>2018-07-19T07:11:02Z</time>
      </trkpt>
      <trkpt lat="45.310159" lon="6.971005">
        <ele>1701.489</ele>
        <time>2018-07-19T07:11:06Z</time>
      </trkpt>
      <trkpt lat="45.310125" lon="6.970950">
        <ele>1701.684</ele>
        <time>2018-07-19T07:11:10Z</time>
      </trkpt>
      <trkpt lat="45.310091" lon="6.970894">
        <ele>1701.515</ele>
        <time>2018-07-19T07:11:14Z</time>
      </trkpt>
      <trkpt lat="45.310055" lon="6.970835">
        <ele>1701.513</ele>
        <time>2018-07-19T07:11:18Z</time>
      </trkpt>
      <trkpt lat="45.310024" lon="6.970773">
        <ele>1701.632</ele>
        <time>2018-07-19T07:11:22Z</time>
      </trkpt>
      <trkpt lat="45.309996" lon="6.970714">
        <ele>1701.164</ele>
        <time>2018-07-19T07:11:26Z</time>
      </trkpt>
      <trkpt lat="45.309964" lon="6.970658">
        <ele>1700.906</ele>
        <time>2018-07-19T07:11:30Z</time>
      </trkpt>
      <trkpt lat="45.309932" lon="6.970603">
        <ele>1700.716</ele>
        <time>2018-07-19T07:11:34Z</time>
      </trkpt>
      <trkpt lat="45.309898" lon="6.970551">
        <ele>1700.808</ele>
        <time>2018-07-19T07:11:38Z</time>
      </trkpt>
      <trkpt lat="45.309864" lon="6.970496">
        <ele>1700.598</ele>
        <time>2018-07-19T07:11:42Z</time>
      </trkpt>
      <trkpt lat="45.309831" lon="6.970439">
        <ele>1700.633</ele>
        <time>2018-07-19T07:11:46Z</time>
      </trkpt>
      <trkpt lat="45.309796" lon="6.970377">
        <ele>1700.298</ele>
        <time>2018-07-19T07:11:50Z</time>
      </trkpt>
      <trkpt lat="45.309764" lon="6.970318">
        <ele>1700.343</ele>
        <time>2018-07-19T07:11:54Z</time>
      </trkpt>
      <trkpt lat="45.309737" lon="6.970263">
        <ele>1699.728</ele>
        <time>2018-07-19T07:11:58Z</time>
      </trkpt>
      <trkpt lat="45.309706" lon="6.970210">
        <ele>1699.819</ele>
        <time>2018-07-19T07:12:02Z</time>
      </trkpt>
      <trkpt lat="45.309677" lon="6.970155">
        <ele>1699.637</ele>
        <time>2018-07-19T07:12:06Z</time>
      </trkpt>
      <trkpt lat="45.309646" lon="6.970099">
        <ele>1699.976</ele>
        <time>2018-07-19T07:12:10Z</time>
      </trkpt>
      <trkpt lat="45.309615" lon="6.970039">
        <ele>1699.731</ele>
        <time>2018-07-19T07:12:14Z</time>
      </trkpt>
      <trkpt lat="45.309586" lon="6.969986">
        <ele>1699.761</ele>
        <time>2018-07-19T07:12:18Z</time>
      </trkpt>
      <trkpt lat="45.309556" lon="6.969931">
        <ele>1699.607</ele>
        <time>2018-07-19T07:12:22Z</time>
      </trkpt>
      <trkpt lat="45.309528" lon="6.969874">
        <ele>1699.408</ele>
        <time>2018-07-19T07:12:26Z</time>
      </trkpt>
      <trkpt lat="45.309497" lon="6.969815">
        <ele>1699.495</ele>
        <time>2018-07-19T07:12:30Z</time>
      </trkpt>
      <trkpt lat="45.309465" lon="6.969758">
        <ele>1699.220</ele>
        <time>2018-07-19T07:12:34Z</time>
      </trkpt>
      <trkpt lat="45.309438" lon="6.969695">
        <ele>1699.495</ele>
        <time>2018-07-19T07:12:38Z</time>
      </trkpt>
      <trkpt lat="45.309417" lon="6.969628">
        <ele>1699.260</ele>
        <time>2018-07-19T07:12:42Z</time>
      </trkpt>
      <trkpt lat="45.309396" lon="6.969562">
        <ele>1699.245</ele>
        <time>2018-07-19T07:12:46Z</time>
      </trkpt>
      <trkpt lat="45.309376" lon="6.969492">
        <ele>1699.026</ele>
        <time>2018-07-19T07:12:50Z</time>
      </trkpt>
      <trkpt lat="45.309359" lon="6.969425">
        <ele>1698.874</ele>
        <time>2018-07-19T07:12:54Z</time>
      </trkpt>
      <trkpt lat="45.309343" lon="6.969362">
        <ele>1698.683</ele>
        <time>2018-07-19T07:12:58Z</time>
      </trkpt>
      <trkpt lat="45.309329" lon="6.969299">
        <ele>1699.049</ele>
        <time>2018-07-19T07:13:02Z</time>
      </trkpt>
      <trkpt lat="45.309317" lon="6.969235">
        <ele>1698.902</ele>
        <time>2018-07-19T07:13:06Z</time>
      </trkpt>
      <trkpt lat="45.309296" lon="6.969166">
        <ele>1699.022</ele>
        <time>2018-07-19T07:13:10Z</time>
      </trkpt>
      <trkpt lat="45.309270" lon="6.969102">
        <ele>1699.008</ele>
        <time>2018-07-19T07:13:14Z</time>
      </trkpt>
      <trkpt lat="45.309248" lon="6.969037">
        <ele>1698.886</ele>
        <time>2018-07-19T07:13:18Z</time>
      </trkpt>
      <trkpt lat="45.309225" lon="6.968968">
        <ele>1699.281</ele>
        <time>2018-07-19T07:13:22Z</time>
      </trkpt>
      <trkpt lat="45.309207" lon="6.968903">
        <ele>1699.246</ele>
        <time>2018-07-19T07:13:26Z</time>
      </trkpt>
      <trkpt lat="45.309187" lon="6.968839">
        <ele>1699.241</ele>
        <time>2018-07-19T07:13:30Z</time>
      </trkpt>
      <trkpt lat="45.309165" lon="6.968777">
        <ele>1699.376</ele>
        <time>2018-07-19T07:13:34Z</time>
      </trkpt>
      <trkpt lat="45.309145" lon="6.968717">
        <ele>1699.377</ele>
        <time>2018-07-19T07:13:38Z</time>
      </trkpt>
      <trkpt lat="45.309128" lon="6.968655">
        <ele>1699.245</ele>
        <time>2018-07-19T07:13:42Z</time>
      </trkpt>
      <trkpt lat="45.309105" lon="6.968586">
        <ele>1699.174</ele>
        <time>2018-07-19T07:13:46Z</time>
      </trkpt>
      <trkpt lat="45.309086" lon="6.968518">
        <ele>1699.056</ele>
        <time>2018-07-19T07:13:50Z</time>
      </trkpt>
      <trkpt lat="45.309074" lon="6.968447">
        <ele>1698.659</ele>
        <time>2018-07-19T07:13:54Z</time>
      </trkpt>
      <trkpt lat="45.309061" lon="6.968377">
        <ele>1698.614</ele>
        <time>2018-07-19T07:13:58Z</time>
      </trkpt>
      <trkpt lat="45.309038" lon="6.968313">
        <ele>1698.008</ele>
        <time>2018-07-19T07:14:02Z</time>
      </trkpt>
      <trkpt lat="45.309011" lon="6.968254">
        <ele>1698.047</ele>
        <time>2018-07-19T07:14:06Z</time>
      </trkpt>
      <trkpt lat="45.308977" lon="6.968197">
        <ele>1697.982</ele>
        <time>2018-07-19T07:14:10Z</time>
      </trkpt>
      <trkpt lat="45.308945" lon="6.968143">
        <ele>1697.967</ele>
        <time>2018-07-19T07:14:14Z</time>
      </trkpt>
      <trkpt lat="45.308915" lon="6.968094">
        <ele>1697.632</ele>
        <time>2018-07-19T07:14:18Z</time>
      </trkpt>
      <trkpt lat="45.308889" lon="6.968026">
        <ele>1697.217</ele>
        <time>2018-07-19T07:14:23Z</time>
      </trkpt>
      <trkpt lat="45.308865" lon="6.967970">
        <ele>1697.638</ele>
        <time>2018-07-19T07:14:27Z</time>
      </trkpt>
      <trkpt lat="45.308841" lon="6.967911">
        <ele>1697.616</ele>
        <time>2018-07-19T07:14:31Z</time>
      </trkpt>
      <trkpt lat="45.308814" lon="6.967848">
        <ele>1697.435</ele>
        <time>2018-07-19T07:14:35Z</time>
      </trkpt>
      <trkpt lat="45.308786" lon="6.967785">
        <ele>1697.547</ele>
        <time>2018-07-19T07:14:39Z</time>
      </trkpt>
      <trkpt lat="45.308753" lon="6.967721">
        <ele>1697.229</ele>
        <time>2018-07-19T07:14:43Z</time>
      </trkpt>
      <trkpt lat="45.308721" lon="6.967662">
        <ele>1697.421</ele>
        <time>2018-07-19T07:14:47Z</time>
      </trkpt>
      <trkpt lat="45.308689" lon="6.967605">
        <ele>1697.108</ele>
        <time>2018-07-19T07:14:51Z</time>
      </trkpt>
      <trkpt lat="45.308652" lon="6.967546">
        <ele>1697.056</ele>
        <time>2018-07-19T07:14:55Z</time>
      </trkpt>
      <trkpt lat="45.308614" lon="6.967498">
        <ele>1697.111</ele>
        <time>2018-07-19T07:14:59Z</time>
      </trkpt>
      <trkpt lat="45.308576" lon="6.967459">
        <ele>1696.926</ele>
        <time>2018-07-19T07:15:03Z</time>
      </trkpt>
      <trkpt lat="45.308536" lon="6.967417">
        <ele>1696.751</ele>
        <time>2018-07-19T07:15:07Z</time>
      </trkpt>
      <trkpt lat="45.308497" lon="6.967365">
        <ele>1696.886</ele>
        <time>2018-07-19T07:15:11Z</time>
      </trkpt>
      <trkpt lat="45.308463" lon="6.967313">
        <ele>1696.837</ele>
        <time>2018-07-19T07:15:15Z</time>
      </trkpt>
      <trkpt lat="45.308424" lon="6.967264">
        <ele>1696.545</ele>
        <time>2018-07-19T07:15:19Z</time>
      </trkpt>
      <trkpt lat="45.308387" lon="6.967211">
        <ele>1696.494</ele>
        <time>2018-07-19T07:15:23Z</time>
      </trkpt>
      <trkpt lat="45.308355" lon="6.967152">
        <ele>1696.442</ele>
        <time>2018-07-19T07:15:27Z</time>
      </trkpt>
      <trkpt lat="45.308328" lon="6.967088">
        <ele>1696.422</ele>
        <time>2018-07-19T07:15:31Z</time>
      </trkpt>
      <trkpt lat="45.308304" lon="6.967018">
        <ele>1696.214</ele>
        <time>2018-07-19T07:15:36Z</time>
      </trkpt>
      <trkpt lat="45.308285" lon="6.966956">
        <ele>1696.208</ele>
        <time>2018-07-19T07:15:40Z</time>
      </trkpt>
      <trkpt lat="45.308266" lon="6.966897">
        <ele>1696.316</ele>
        <time>2018-07-19T07:15:44Z</time>
      </trkpt>
      <trkpt lat="45.308245" lon="6.966832">
        <ele>1696.261</ele>
        <time>2018-07-19T07:15:48Z</time>
      </trkpt>
      <trkpt lat="45.308225" lon="6.966764">
        <ele>1696.216</ele>
        <time>2018-07-19T07:15:52Z</time>
      </trkpt>
      <trkpt lat="45.308207" lon="6.966700">
        <ele>1695.931</ele>
        <time>2018-07-19T07:15:56Z</time>
      </trkpt>
      <trkpt lat="45.308189" lon="6.966633">
        <ele>1695.986</ele>
        <time>2018-07-19T07:16:00Z</time>
      </trkpt>
      <trkpt lat="45.308172" lon="6.966564">
        <ele>1695.847</ele>
        <time>2018-07-19T07:16:04Z</time>
      </trkpt>
      <trkpt lat="45.308155" lon="6.966503">
        <ele>1695.485</ele>
        <time>2018-07-19T07:16:08Z</time>
      </trkpt>
      <trkpt lat="45.308135" lon="6.966440">
        <ele>1695.314</ele>
        <time>2018-07-19T07:16:12Z</time>
      </trkpt>
      <trkpt lat="45.308114" lon="6.966374">
        <ele>1695.073</ele>
        <time>2018-07-19T07:16:16Z</time>
      </trkpt>
      <trkpt lat="45.308093" lon="6.966308">
        <ele>1695.185</ele>
        <time>2018-07-19T07:16:20Z</time>
      </trkpt>
      <trkpt lat="45.308069" lon="6.966240">
        <ele>1694.813</ele>
        <time>2018-07-19T07:16:24Z</time>
      </trkpt>
      <trkpt lat="45.308043" lon="6.966174">
        <ele>1694.908</ele>
        <time>2018-07-19T07:16:28Z</time>
      </trkpt>
      <trkpt lat="45.308019" lon="6.966115">
        <ele>1694.219</ele>
        <time>2018-07-19T07:16:32Z</time>
      </trkpt>
      <trkpt lat="45.307995" lon="6.966057">
        <ele>1693.664</ele>
        <time>2018-07-19T07:16:36Z</time>
      </trkpt>
      <trkpt lat="45.307967" lon="6.965997">
        <ele>1693.449</ele>
        <time>2018-07-19T07:16:40Z</time>
      </trkpt>
      <trkpt lat="45.307938" lon="6.965939">
        <ele>1692.724</ele>
        <time>2018-07-19T07:16:44Z</time>
      </trkpt>
      <trkpt lat="45.307908" lon="6.965872">
        <ele>1692.189</ele>
        <time>2018-07-19T07:16:49Z</time>
      </trkpt>
      <trkpt lat="45.307885" lon="6.965811">
        <ele>1691.870</ele>
        <time>2018-07-19T07:16:53Z</time>
      </trkpt>
      <trkpt lat="45.307865" lon="6.965750">
        <ele>1691.468</ele>
        <time>2018-07-19T07:16:57Z</time>
      </trkpt>
      <trkpt lat="45.307842" lon="6.965690">
        <ele>1691.047</ele>
        <time>2018-07-19T07:17:01Z</time>
      </trkpt>
      <trkpt lat="45.307817" lon="6.965619">
        <ele>1691.017</ele>
        <time>2018-07-19T07:17:05Z</time>
      </trkpt>
      <trkpt lat="45.307792" lon="6.965552">
        <ele>1690.787</ele>
        <time>2018-07-19T07:17:09Z</time>
      </trkpt>
      <trkpt lat="45.307767" lon="6.965488">
        <ele>1690.715</ele>
        <time>2018-07-19T07:17:13Z</time>
      </trkpt>
      <trkpt lat="45.307742" lon="6.965428">
        <ele>1690.808</ele>
        <time>2018-07-19T07:17:17Z</time>
      </trkpt>
      <trkpt lat="45.307721" lon="6.965365">
        <ele>1690.823</ele>
        <time>2018-07-19T07:17:21Z</time>
      </trkpt>
      <trkpt lat="45.307698" lon="6.965299">
        <ele>1690.358</ele>
        <time>2018-07-19T07:17:25Z</time>
      </trkpt>
      <trkpt lat="45.307671" lon="6.965232">
        <ele>1690.773</ele>
        <time>2018-07-19T07:17:29Z</time>
      </trkpt>
      <trkpt lat="45.307646" lon="6.965170">
        <ele>1690.458</ele>
        <time>2018-07-19T07:17:33Z</time>
      </trkpt>
      <trkpt lat="45.307617" lon="6.965112">
        <ele>1690.573</ele>
        <time>2018-07-19T07:17:37Z</time>
      </trkpt>
      <trkpt lat="45.307586" lon="6.965055">
        <ele>1690.174</ele>
        <time>2018-07-19T07:17:41Z</time>
      </trkpt>
      <trkpt lat="45.307555" lon="6.964997">
        <ele>1690.042</ele>
        <time>2018-07-19T07:17:45Z</time>
      </trkpt>
      <trkpt lat="45.307525" lon="6.964934">
        <ele>1690.111</ele>
        <time>2018-07-19T07:17:49Z</time>
      </trkpt>
      <trkpt lat="45.307498" lon="6.964871">
        <ele>1689.996</ele>
        <time>2018-07-19T07:17:53Z</time>
      </trkpt>
      <trkpt lat="45.307472" lon="6.964814">
        <ele>1689.931</ele>
        <time>2018-07-19T07:17:57Z</time>
      </trkpt>
      <trkpt lat="45.307449" lon="6.964747">
        <ele>1689.824</ele>
        <time>2018-07-19T07:18:01Z</time>
      </trkpt>
      <trkpt lat="45.307424" lon="6.964679">
        <ele>1689.808</ele>
        <time>2018-07-19T07:18:05Z</time>
      </trkpt>
      <trkpt lat="45.307398" lon="6.964613">
        <ele>1690.051</ele>
        <time>2018-07-19T07:18:09Z</time>
      </trkpt>
      <trkpt lat="45.307376" lon="6.964549">
        <ele>1689.756</ele>
        <time>2018-07-19T07:18:13Z</time>
      </trkpt>
      <trkpt lat="45.307358" lon="6.964486">
        <ele>1689.791</ele>
        <time>2018-07-19T07:18:17Z</time>
      </trkpt>
      <trkpt lat="45.307341" lon="6.964425">
        <ele>1689.416</ele>
        <time>2018-07-19T07:18:21Z</time>
      </trkpt>
      <trkpt lat="45.307323" lon="6.964361">
        <ele>1689.681</ele>
        <time>2018-07-19T07:18:25Z</time>
      </trkpt>
      <trkpt lat="45.307305" lon="6.964288">
        <ele>1689.672</ele>
        <time>2018-07-19T07:18:29Z</time>
      </trkpt>
      <trkpt lat="45.307285" lon="6.964215">
        <ele>1689.310</ele>
        <time>2018-07-19T07:18:33Z</time>
      </trkpt>
      <trkpt lat="45.307268" lon="6.964139">
        <ele>1689.059</ele>
        <time>2018-07-19T07:18:37Z</time>
      </trkpt>
      <trkpt lat="45.307252" lon="6.964069">
        <ele>1688.816</ele>
        <time>2018-07-19T07:18:41Z</time>
      </trkpt>
      <trkpt lat="45.307234" lon="6.964003">
        <ele>1688.776</ele>
        <time>2018-07-19T07:18:45Z</time>
      </trkpt>
      <trkpt lat="45.307212" lon="6.963940">
        <ele>1688.713</ele>
        <time>2018-07-19T07:18:49Z</time>
      </trkpt>
      <trkpt lat="45.307184" lon="6.963882">
        <ele>1688.408</ele>
        <time>2018-07-19T07:18:53Z</time>
      </trkpt>
      <trkpt lat="45.307150" lon="6.963830">
        <ele>1688.453</ele>
        <time>2018-07-19T07:18:57Z</time>
      </trkpt>
      <trkpt lat="45.307118" lon="6.963779">
        <ele>1688.258</ele>
        <time>2018-07-19T07:19:01Z</time>
      </trkpt>
      <trkpt lat="45.307081" lon="6.963720">
        <ele>1687.983</ele>
        <time>2018-07-19T07:19:06Z</time>
      </trkpt>
      <trkpt lat="45.307054" lon="6.963660">
        <ele>1687.828</ele>
        <time>2018-07-19T07:19:10Z</time>
      </trkpt>
      <trkpt lat="45.307028" lon="6.963599">
        <ele>1687.323</ele>
        <time>2018-07-19T07:19:14Z</time>
      </trkpt>
      <trkpt lat="45.307006" lon="6.963538">
        <ele>1687.334</ele>
        <time>2018-07-19T07:19:18Z</time>
      </trkpt>
      <trkpt lat="45.306981" lon="6.963483">
        <ele>1687.432</ele>
        <time>2018-07-19T07:19:22Z</time>
      </trkpt>
      <trkpt lat="45.306956" lon="6.963420">
        <ele>1687.711</ele>
        <time>2018-07-19T07:19:26Z</time>
      </trkpt>
      <trkpt lat="45.306929" lon="6.963366">
        <ele>1687.549</ele>
        <time>2018-07-19T07:19:30Z</time>
      </trkpt>
      <trkpt lat="45.306893" lon="6.963310">
        <ele>1687.502</ele>
        <time>2018-07-19T07:19:34Z</time>
      </trkpt>
      <trkpt lat="45.306853" lon="6.963256">
        <ele>1687.722</ele>
        <time>2018-07-19T07:19:38Z</time>
      </trkpt>
      <trkpt lat="45.306805" lon="6.963207">
        <ele>1687.308</ele>
        <time>2018-07-19T07:19:42Z</time>
      </trkpt>
      <trkpt lat="45.306759" lon="6.963158">
        <ele>1687.176</ele>
        <time>2018-07-19T07:19:46Z</time>
      </trkpt>
      <trkpt lat="45.306720" lon="6.963105">
        <ele>1687.051</ele>
        <time>2018-07-19T07:19:50Z</time>
      </trkpt>
      <trkpt lat="45.306680" lon="6.963055">
        <ele>1686.986</ele>
        <time>2018-07-19T07:19:54Z</time>
      </trkpt>
      <trkpt lat="45.306639" lon="6.963016">
        <ele>1687.071</ele>
        <time>2018-07-19T07:19:58Z</time>
      </trkpt>
      <trkpt lat="45.306602" lon="6.962971">
        <ele>1687.196</ele>
        <time>2018-07-19T07:20:02Z</time>
      </trkpt>
      <trkpt lat="45.306568" lon="6.962927">
        <ele>1686.737</ele>
        <time>2018-07-19T07:20:06Z</time>
      </trkpt>
      <trkpt lat="45.306539" lon="6.962874">
        <ele>1686.455</ele>
        <time>2018-07-19T07:20:10Z</time>
      </trkpt>
      <trkpt lat="45.306522" lon="6.962814">
        <ele>1685.944</ele>
        <time>2018-07-19T07:20:14Z</time>
      </trkpt>
      <trkpt lat="45.306506" lon="6.962740">
        <ele>1685.253</ele>
        <time>2018-07-19T07:20:19Z</time>
      </trkpt>
      <trkpt lat="45.306490" lon="6.962672">
        <ele>1684.404</ele>
        <time>2018-07-19T07:20:23Z</time>
      </trkpt>
      <trkpt lat="45.306474" lon="6.962604">
        <ele>1684.314</ele>
        <time>2018-07-19T07:20:27Z</time>
      </trkpt>
      <trkpt lat="45.306460" lon="6.962543">
        <ele>1684.308</ele>
        <time>2018-07-19T07:20:31Z</time>
      </trkpt>
      <trkpt lat="45.306438" lon="6.962486">
        <ele>1684.017</ele>
        <time>2018-07-19T07:20:37Z</time>
      </trkpt>
      <trkpt lat="45.306414" lon="6.962431">
        <ele>1684.192</ele>
        <time>2018-07-19T07:21:30Z</time>
      </trkpt>
      <trkpt lat="45.306406" lon="6.962365">
        <ele>1684.247</ele>
        <time>2018-07-19T07:21:36Z</time>
      </trkpt>
      <trkpt lat="45.306410" lon="6.962294">
        <ele>1684.312</ele>
        <time>2018-07-19T07:21:41Z</time>
      </trkpt>
      <trkpt lat="45.306417" lon="6.962230">
        <ele>1684.667</ele>
        <time>2018-07-19T07:21:45Z</time>
      </trkpt>
      <trkpt lat="45.306421" lon="6.962166">
        <ele>1684.788</ele>
        <time>2018-07-19T07:21:49Z</time>
      </trkpt>
      <trkpt lat="45.306421" lon="6.962101">
        <ele>1684.876</ele>
        <time>2018-07-19T07:21:53Z</time>
      </trkpt>
      <trkpt lat="45.306392" lon="6.962035">
        <ele>1685.145</ele>
        <time>2018-07-19T07:21:59Z</time>
      </trkpt>
      <trkpt lat="45.306368" lon="6.961974">
        <ele>1684.855</ele>
        <time>2018-07-19T07:22:04Z</time>
      </trkpt>
      <trkpt lat="45.306367" lon="6.961902">
        <ele>1685.407</ele>
        <time>2018-07-19T07:22:09Z</time>
      </trkpt>
      <trkpt lat="45.306368" lon="6.961823">
        <ele>1685.517</ele>
        <time>2018-07-19T07:22:14Z</time>
      </trkpt>
      <trkpt lat="45.306370" lon="6.961757">
        <ele>1685.508</ele>
        <time>2018-07-19T07:22:18Z</time>
      </trkpt>
      <trkpt lat="45.306371" lon="6.961692">
        <ele>1685.747</ele>
        <time>2018-07-19T07:22:22Z</time>
      </trkpt>
      <trkpt lat="45.306374" lon="6.961622">
        <ele>1685.922</ele>
        <time>2018-07-19T07:22:26Z</time>
      </trkpt>
      <trkpt lat="45.306377" lon="6.961555">
        <ele>1685.917</ele>
        <time>2018-07-19T07:22:30Z</time>
      </trkpt>
      <trkpt lat="45.306381" lon="6.961485">
        <ele>1686.322</ele>
        <time>2018-07-19T07:22:34Z</time>
      </trkpt>
      <trkpt lat="45.306387" lon="6.961419">
        <ele>1686.367</ele>
        <time>2018-07-19T07:22:38Z</time>
      </trkpt>
      <trkpt lat="45.306392" lon="6.961349">
        <ele>1686.548</ele>
        <time>2018-07-19T07:22:42Z</time>
      </trkpt>
      <trkpt lat="45.306395" lon="6.961276">
        <ele>1686.356</ele>
        <time>2018-07-19T07:22:46Z</time>
      </trkpt>
      <trkpt lat="45.306399" lon="6.961209">
        <ele>1686.415</ele>
        <time>2018-07-19T07:22:50Z</time>
      </trkpt>
      <trkpt lat="45.306404" lon="6.961140">
        <ele>1686.729</ele>
        <time>2018-07-19T07:22:54Z</time>
      </trkpt>
      <trkpt lat="45.306410" lon="6.961073">
        <ele>1686.500</ele>
        <time>2018-07-19T07:22:58Z</time>
      </trkpt>
      <trkpt lat="45.306416" lon="6.960995">
        <ele>1686.420</ele>
        <time>2018-07-19T07:23:03Z</time>
      </trkpt>
      <trkpt lat="45.306420" lon="6.960919">
        <ele>1686.608</ele>
        <time>2018-07-19T07:23:08Z</time>
      </trkpt>
      <trkpt lat="45.306423" lon="6.960851">
        <ele>1686.454</ele>
        <time>2018-07-19T07:23:12Z</time>
      </trkpt>
      <trkpt lat="45.306418" lon="6.960781">
        <ele>1686.959</ele>
        <time>2018-07-19T07:23:16Z</time>
      </trkpt>
      <trkpt lat="45.306417" lon="6.960710">
        <ele>1686.724</ele>
        <time>2018-07-19T07:23:20Z</time>
      </trkpt>
      <trkpt lat="45.306420" lon="6.960645">
        <ele>1686.789</ele>
        <time>2018-07-19T07:23:24Z</time>
      </trkpt>
      <trkpt lat="45.306424" lon="6.960572">
        <ele>1686.624</ele>
        <time>2018-07-19T07:23:29Z</time>
      </trkpt>
      <trkpt lat="45.306419" lon="6.960506">
        <ele>1686.515</ele>
        <time>2018-07-19T07:23:33Z</time>
      </trkpt>
      <trkpt lat="45.306416" lon="6.960441">
        <ele>1686.663</ele>
        <time>2018-07-19T07:23:37Z</time>
      </trkpt>
      <trkpt lat="45.306413" lon="6.960377">
        <ele>1686.832</ele>
        <time>2018-07-19T07:23:41Z</time>
      </trkpt>
      <trkpt lat="45.306403" lon="6.960303">
        <ele>1686.841</ele>
        <time>2018-07-19T07:23:45Z</time>
      </trkpt>
      <trkpt lat="45.306396" lon="6.960238">
        <ele>1686.781</ele>
        <time>2018-07-19T07:23:49Z</time>
      </trkpt>
      <trkpt lat="45.306390" lon="6.960173">
        <ele>1686.709</ele>
        <time>2018-07-19T07:23:53Z</time>
      </trkpt>
      <trkpt lat="45.306377" lon="6.960101">
        <ele>1686.508</ele>
        <time>2018-07-19T07:23:57Z</time>
      </trkpt>
      <trkpt lat="45.306365" lon="6.960032">
        <ele>1686.716</ele>
        <time>2018-07-19T07:24:01Z</time>
      </trkpt>
      <trkpt lat="45.306351" lon="6.959962">
        <ele>1686.621</ele>
        <time>2018-07-19T07:24:05Z</time>
      </trkpt>
      <trkpt lat="45.306340" lon="6.959899">
        <ele>1686.756</ele>
        <time>2018-07-19T07:24:09Z</time>
      </trkpt>
      <trkpt lat="45.306327" lon="6.959821">
        <ele>1686.771</ele>
        <time>2018-07-19T07:24:14Z</time>
      </trkpt>
      <trkpt lat="45.306317" lon="6.959744">
        <ele>1686.876</ele>
        <time>2018-07-19T07:24:19Z</time>
      </trkpt>
      <trkpt lat="45.306302" lon="6.959670">
        <ele>1686.767</ele>
        <time>2018-07-19T07:24:24Z</time>
      </trkpt>
      <trkpt lat="45.306281" lon="6.959602">
        <ele>1686.815</ele>
        <time>2018-07-19T07:24:28Z</time>
      </trkpt>
      <trkpt lat="45.306265" lon="6.959535">
        <ele>1687.054</ele>
        <time>2018-07-19T07:24:32Z</time>
      </trkpt>
      <trkpt lat="45.306271" lon="6.959459">
        <ele>1687.017</ele>
        <time>2018-07-19T07:24:37Z</time>
      </trkpt>
      <trkpt lat="45.306291" lon="6.959394">
        <ele>1687.487</ele>
        <time>2018-07-19T07:24:41Z</time>
      </trkpt>
      <trkpt lat="45.306300" lon="6.959328">
        <ele>1687.215</ele>
        <time>2018-07-19T07:24:45Z</time>
      </trkpt>
      <trkpt lat="45.306293" lon="6.959264">
        <ele>1687.308</ele>
        <time>2018-07-19T07:24:49Z</time>
      </trkpt>
      <trkpt lat="45.306288" lon="6.959196">
        <ele>1687.283</ele>
        <time>2018-07-19T07:24:53Z</time>
      </trkpt>
      <trkpt lat="45.306285" lon="6.959128">
        <ele>1687.158</ele>
        <time>2018-07-19T07:25:07Z</time>
      </trkpt>
      <trkpt lat="45.306307" lon="6.959069">
        <ele>1687.333</ele>
        <time>2018-07-19T07:25:15Z</time>
      </trkpt>
      <trkpt lat="45.306316" lon="6.959005">
        <ele>1689.148</ele>
        <time>2018-07-19T07:25:23Z</time>
      </trkpt>
      <trkpt lat="45.306298" lon="6.958937">
        <ele>1690.363</ele>
        <time>2018-07-19T07:25:33Z</time>
      </trkpt>
      <trkpt lat="45.306283" lon="6.958871">
        <ele>1690.414</ele>
        <time>2018-07-19T07:25:38Z</time>
      </trkpt>
      <trkpt lat="45.306268" lon="6.958805">
        <ele>1690.652</ele>
        <time>2018-07-19T07:25:43Z</time>
      </trkpt>
      <trkpt lat="45.306253" lon="6.958743">
        <ele>1690.711</ele>
        <time>2018-07-19T07:25:47Z</time>
      </trkpt>
      <trkpt lat="45.306236" lon="6.958683">
        <ele>1690.647</ele>
        <time>2018-07-19T07:25:51Z</time>
      </trkpt>
      <trkpt lat="45.306222" lon="6.958613">
        <ele>1690.829</ele>
        <time>2018-07-19T07:25:56Z</time>
      </trkpt>
      <trkpt lat="45.306221" lon="6.958547">
        <ele>1691.021</ele>
        <time>2018-07-19T07:27:43Z</time>
      </trkpt>
      <trkpt lat="45.306198" lon="6.958491">
        <ele>1691.008</ele>
        <time>2018-07-19T07:27:48Z</time>
      </trkpt>
      <trkpt lat="45.306176" lon="6.958431">
        <ele>1691.236</ele>
        <time>2018-07-19T07:27:53Z</time>
      </trkpt>
      <trkpt lat="45.306158" lon="6.958358">
        <ele>1691.781</ele>
        <time>2018-07-19T07:27:59Z</time>
      </trkpt>
      <trkpt lat="45.306142" lon="6.958295">
        <ele>1691.796</ele>
        <time>2018-07-19T07:28:04Z</time>
      </trkpt>
      <trkpt lat="45.306124" lon="6.958223">
        <ele>1691.331</ele>
        <time>2018-07-19T07:28:09Z</time>
      </trkpt>
      <trkpt lat="45.306099" lon="6.958155">
        <ele>1691.276</ele>
        <time>2018-07-19T07:28:14Z</time>
      </trkpt>
      <trkpt lat="45.306076" lon="6.958091">
        <ele>1691.917</ele>
        <time>2018-07-19T07:28:19Z</time>
      </trkpt>
      <trkpt lat="45.306053" lon="6.958033">
        <ele>1692.055</ele>
        <time>2018-07-19T07:28:24Z</time>
      </trkpt>
      <trkpt lat="45.306030" lon="6.957976">
        <ele>1692.834</ele>
        <time>2018-07-19T07:28:29Z</time>
      </trkpt>
      <trkpt lat="45.306003" lon="6.957920">
        <ele>1693.146</ele>
        <time>2018-07-19T07:28:34Z</time>
      </trkpt>
      <trkpt lat="45.305977" lon="6.957863">
        <ele>1693.588</ele>
        <time>2018-07-19T07:28:39Z</time>
      </trkpt>
      <trkpt lat="45.305947" lon="6.957807">
        <ele>1693.716</ele>
        <time>2018-07-19T07:28:44Z</time>
      </trkpt>
      <trkpt lat="45.305912" lon="6.957751">
        <ele>1694.908</ele>
        <time>2018-07-19T07:28:50Z</time>
      </trkpt>
      <trkpt lat="45.305888" lon="6.957688">
        <ele>1695.556</ele>
        <time>2018-07-19T07:28:57Z</time>
      </trkpt>
      <trkpt lat="45.305867" lon="6.957631">
        <ele>1695.951</ele>
        <time>2018-07-19T07:29:03Z</time>
      </trkpt>
      <trkpt lat="45.305847" lon="6.957566">
        <ele>1696.976</ele>
        <time>2018-07-19T07:29:09Z</time>
      </trkpt>
      <trkpt lat="45.305841" lon="6.957492">
        <ele>1696.911</ele>
        <time>2018-07-19T07:29:15Z</time>
      </trkpt>
      <trkpt lat="45.305838" lon="6.957427">
        <ele>1697.516</ele>
        <time>2018-07-19T07:29:22Z</time>
      </trkpt>
      <trkpt lat="45.305820" lon="6.957357">
        <ele>1698.857</ele>
        <time>2018-07-19T07:29:29Z</time>
      </trkpt>
      <trkpt lat="45.305805" lon="6.957284">
        <ele>1699.495</ele>
        <time>2018-07-19T07:29:35Z</time>
      </trkpt>
      <trkpt lat="45.305774" lon="6.957237">
        <ele>1699.694</ele>
        <time>2018-07-19T07:29:40Z</time>
      </trkpt>
      <trkpt lat="45.305752" lon="6.957177">
        <ele>1700.741</ele>
        <time>2018-07-19T07:29:47Z</time>
      </trkpt>
      <trkpt lat="45.305732" lon="6.957086">
        <ele>1701.781</ele>
        <time>2018-07-19T07:29:55Z</time>
      </trkpt>
      <trkpt lat="45.305715" lon="6.957012">
        <ele>1702.609</ele>
        <time>2018-07-19T07:30:07Z</time>
      </trkpt>
      <trkpt lat="45.305690" lon="6.956957">
        <ele>1703.808</ele>
        <time>2018-07-19T07:30:16Z</time>
      </trkpt>
      <trkpt lat="45.305657" lon="6.956891">
        <ele>1704.516</ele>
        <time>2018-07-19T07:30:24Z</time>
      </trkpt>
      <trkpt lat="45.305611" lon="6.956858">
        <ele>1705.421</ele>
        <time>2018-07-19T07:30:30Z</time>
      </trkpt>
      <trkpt lat="45.305586" lon="6.956789">
        <ele>1706.316</ele>
        <time>2018-07-19T07:30:38Z</time>
      </trkpt>
      <trkpt lat="45.305557" lon="6.956738">
        <ele>1706.931</ele>
        <time>2018-07-19T07:30:43Z</time>
      </trkpt>
      <trkpt lat="45.305520" lon="6.956683">
        <ele>1706.846</ele>
        <time>2018-07-19T07:30:48Z</time>
      </trkpt>
      <trkpt lat="45.305486" lon="6.956632">
        <ele>1706.827</ele>
        <time>2018-07-19T07:30:53Z</time>
      </trkpt>
      <trkpt lat="45.305449" lon="6.956585">
        <ele>1707.215</ele>
        <time>2018-07-19T07:30:59Z</time>
      </trkpt>
      <trkpt lat="45.305413" lon="6.956545">
        <ele>1708.034</ele>
        <time>2018-07-19T07:31:06Z</time>
      </trkpt>
      <trkpt lat="45.305385" lon="6.956485">
        <ele>1708.929</ele>
        <time>2018-07-19T07:31:13Z</time>
      </trkpt>
      <trkpt lat="45.305396" lon="6.956416">
        <ele>1709.700</ele>
        <time>2018-07-19T07:31:20Z</time>
      </trkpt>
      <trkpt lat="45.305408" lon="6.956349">
        <ele>1710.520</ele>
        <time>2018-07-19T07:31:26Z</time>
      </trkpt>
      <trkpt lat="45.305411" lon="6.956281">
        <ele>1711.608</ele>
        <time>2018-07-19T07:31:35Z</time>
      </trkpt>
      <trkpt lat="45.305426" lon="6.956220">
        <ele>1713.324</ele>
        <time>2018-07-19T07:31:46Z</time>
      </trkpt>
      <trkpt lat="45.305457" lon="6.956173">
        <ele>1714.799</ele>
        <time>2018-07-19T07:31:57Z</time>
      </trkpt>
      <trkpt lat="45.305502" lon="6.956163">
        <ele>1715.884</ele>
        <time>2018-07-19T07:32:06Z</time>
      </trkpt>
      <trkpt lat="45.305548" lon="6.956174">
        <ele>1716.139</ele>
        <time>2018-07-19T07:32:12Z</time>
      </trkpt>
      <trkpt lat="45.305593" lon="6.956192">
        <ele>1716.434</ele>
        <time>2018-07-19T07:32:18Z</time>
      </trkpt>
      <trkpt lat="45.305638" lon="6.956216">
        <ele>1717.155</ele>
        <time>2018-07-19T07:32:24Z</time>
      </trkpt>
      <trkpt lat="45.305684" lon="6.956236">
        <ele>1717.653</ele>
        <time>2018-07-19T07:32:30Z</time>
      </trkpt>
      <trkpt lat="45.305729" lon="6.956252">
        <ele>1717.542</ele>
        <time>2018-07-19T07:32:44Z</time>
      </trkpt>
      <trkpt lat="45.305747" lon="6.956190">
        <ele>1719.821</ele>
        <time>2018-07-19T07:33:25Z</time>
      </trkpt>
      <trkpt lat="45.305745" lon="6.956123">
        <ele>1720.741</ele>
        <time>2018-07-19T07:33:34Z</time>
      </trkpt>
      <trkpt lat="45.305732" lon="6.956059">
        <ele>1721.605</ele>
        <time>2018-07-19T07:33:42Z</time>
      </trkpt>
      <trkpt lat="45.305711" lon="6.956002">
        <ele>1722.208</ele>
        <time>2018-07-19T07:33:51Z</time>
      </trkpt>
      <trkpt lat="45.305675" lon="6.955952">
        <ele>1723.064</ele>
        <time>2018-07-19T07:33:59Z</time>
      </trkpt>
      <trkpt lat="45.305642" lon="6.955905">
        <ele>1723.969</ele>
        <time>2018-07-19T07:34:07Z</time>
      </trkpt>
      <trkpt lat="45.305602" lon="6.955861">
        <ele>1724.784</ele>
        <time>2018-07-19T07:34:15Z</time>
      </trkpt>
      <trkpt lat="45.305568" lon="6.955819">
        <ele>1725.959</ele>
        <time>2018-07-19T07:34:23Z</time>
      </trkpt>
      <trkpt lat="45.305534" lon="6.955774">
        <ele>1726.614</ele>
        <time>2018-07-19T07:34:30Z</time>
      </trkpt>
      <trkpt lat="45.305493" lon="6.955733">
        <ele>1727.865</ele>
        <time>2018-07-19T07:34:39Z</time>
      </trkpt>
      <trkpt lat="45.305447" lon="6.955696">
        <ele>1728.553</ele>
        <time>2018-07-19T07:34:46Z</time>
      </trkpt>
      <trkpt lat="45.305408" lon="6.955654">
        <ele>1729.132</ele>
        <time>2018-07-19T07:34:52Z</time>
      </trkpt>
      <trkpt lat="45.305374" lon="6.955604">
        <ele>1729.884</ele>
        <time>2018-07-19T07:34:59Z</time>
      </trkpt>
      <trkpt lat="45.305349" lon="6.955542">
        <ele>1730.407</ele>
        <time>2018-07-19T07:35:06Z</time>
      </trkpt>
      <trkpt lat="45.305331" lon="6.955475">
        <ele>1731.117</ele>
        <time>2018-07-19T07:35:12Z</time>
      </trkpt>
      <trkpt lat="45.305323" lon="6.955408">
        <ele>1731.408</ele>
        <time>2018-07-19T07:35:18Z</time>
      </trkpt>
      <trkpt lat="45.305315" lon="6.955342">
        <ele>1732.080</ele>
        <time>2018-07-19T07:35:25Z</time>
      </trkpt>
      <trkpt lat="45.305308" lon="6.955277">
        <ele>1732.755</ele>
        <time>2018-07-19T07:35:32Z</time>
      </trkpt>
      <trkpt lat="45.305294" lon="6.955208">
        <ele>1733.110</ele>
        <time>2018-07-19T07:35:40Z</time>
      </trkpt>
      <trkpt lat="45.305277" lon="6.955147">
        <ele>1733.825</ele>
        <time>2018-07-19T07:35:46Z</time>
      </trkpt>
      <trkpt lat="45.305262" lon="6.955084">
        <ele>1734.440</ele>
        <time>2018-07-19T07:35:52Z</time>
      </trkpt>
      <trkpt lat="45.305255" lon="6.955016">
        <ele>1735.231</ele>
        <time>2018-07-19T07:35:59Z</time>
      </trkpt>
      <trkpt lat="45.305239" lon="6.954950">
        <ele>1735.769</ele>
        <time>2018-07-19T07:36:05Z</time>
      </trkpt>
      <trkpt lat="45.305222" lon="6.954878">
        <ele>1736.368</ele>
        <time>2018-07-19T07:36:11Z</time>
      </trkpt>
      <trkpt lat="45.305204" lon="6.954807">
        <ele>1736.613</ele>
        <time>2018-07-19T07:36:17Z</time>
      </trkpt>
      <trkpt lat="45.305192" lon="6.954736">
        <ele>1737.543</ele>
        <time>2018-07-19T07:36:23Z</time>
      </trkpt>
      <trkpt lat="45.305176" lon="6.954663">
        <ele>1737.907</ele>
        <time>2018-07-19T07:36:29Z</time>
      </trkpt>
      <trkpt lat="45.305162" lon="6.954590">
        <ele>1738.208</ele>
        <time>2018-07-19T07:36:35Z</time>
      </trkpt>
      <trkpt lat="45.305142" lon="6.954522">
        <ele>1738.843</ele>
        <time>2018-07-19T07:36:41Z</time>
      </trkpt>
      <trkpt lat="45.305120" lon="6.954465">
        <ele>1739.448</ele>
        <time>2018-07-19T07:36:46Z</time>
      </trkpt>
      <trkpt lat="45.305100" lon="6.954401">
        <ele>1739.643</ele>
        <time>2018-07-19T07:36:51Z</time>
      </trkpt>
      <trkpt lat="45.305084" lon="6.954333">
        <ele>1738.978</ele>
        <time>2018-07-19T07:36:56Z</time>
      </trkpt>
      <trkpt lat="45.305082" lon="6.954264">
        <ele>1738.063</ele>
        <time>2018-07-19T07:37:01Z</time>
      </trkpt>
      <trkpt lat="45.305088" lon="6.954190">
        <ele>1737.574</ele>
        <time>2018-07-19T07:37:06Z</time>
      </trkpt>
      <trkpt lat="45.305094" lon="6.954113">
        <ele>1737.092</ele>
        <time>2018-07-19T07:37:11Z</time>
      </trkpt>
      <trkpt lat="45.305076" lon="6.954044">
        <ele>1737.051</ele>
        <time>2018-07-19T07:37:17Z</time>
      </trkpt>
      <trkpt lat="45.305042" lon="6.953995">
        <ele>1737.563</ele>
        <time>2018-07-19T07:37:24Z</time>
      </trkpt>
      <trkpt lat="45.304997" lon="6.953985">
        <ele>1737.944</ele>
        <time>2018-07-19T07:37:33Z</time>
      </trkpt>
      <trkpt lat="45.304947" lon="6.954014">
        <ele>1738.118</ele>
        <time>2018-07-19T07:37:40Z</time>
      </trkpt>
      <trkpt lat="45.304898" lon="6.954041">
        <ele>1738.408</ele>
        <time>2018-07-19T07:37:47Z</time>
      </trkpt>
      <trkpt lat="45.304847" lon="6.954044">
        <ele>1739.578</ele>
        <time>2018-07-19T07:37:55Z</time>
      </trkpt>
      <trkpt lat="45.304803" lon="6.954023">
        <ele>1741.083</ele>
        <time>2018-07-19T07:38:03Z</time>
      </trkpt>
      <trkpt lat="45.304761" lon="6.953982">
        <ele>1741.988</ele>
        <time>2018-07-19T07:38:11Z</time>
      </trkpt>
      <trkpt lat="45.304727" lon="6.953934">
        <ele>1742.673</ele>
        <time>2018-07-19T07:38:17Z</time>
      </trkpt>
      <trkpt lat="45.304689" lon="6.953893">
        <ele>1743.748</ele>
        <time>2018-07-19T07:38:23Z</time>
      </trkpt>
      <trkpt lat="45.304649" lon="6.953842">
        <ele>1744.029</ele>
        <time>2018-07-19T07:38:29Z</time>
      </trkpt>
      <trkpt lat="45.304616" lon="6.953794">
        <ele>1743.427</ele>
        <time>2018-07-19T07:38:34Z</time>
      </trkpt>
      <trkpt lat="45.304582" lon="6.953735">
        <ele>1743.216</ele>
        <time>2018-07-19T07:38:39Z</time>
      </trkpt>
      <trkpt lat="45.304555" lon="6.953667">
        <ele>1743.153</ele>
        <time>2018-07-19T07:38:44Z</time>
      </trkpt>
      <trkpt lat="45.304532" lon="6.953611">
        <ele>1742.604</ele>
        <time>2018-07-19T07:38:48Z</time>
      </trkpt>
      <trkpt lat="45.304510" lon="6.953549">
        <ele>1742.114</ele>
        <time>2018-07-19T07:38:52Z</time>
      </trkpt>
      <trkpt lat="45.304489" lon="6.953482">
        <ele>1742.008</ele>
        <time>2018-07-19T07:38:56Z</time>
      </trkpt>
      <trkpt lat="45.304472" lon="6.953422">
        <ele>1741.847</ele>
        <time>2018-07-19T07:39:00Z</time>
      </trkpt>
      <trkpt lat="45.304448" lon="6.953367">
        <ele>1741.462</ele>
        <time>2018-07-19T07:39:04Z</time>
      </trkpt>
      <trkpt lat="45.304418" lon="6.953300">
        <ele>1741.127</ele>
        <time>2018-07-19T07:39:09Z</time>
      </trkpt>
      <trkpt lat="45.304395" lon="6.953240">
        <ele>1740.932</ele>
        <time>2018-07-19T07:39:13Z</time>
      </trkpt>
      <trkpt lat="45.304371" lon="6.953172">
        <ele>1740.537</ele>
        <time>2018-07-19T07:39:18Z</time>
      </trkpt>
      <trkpt lat="45.304351" lon="6.953114">
        <ele>1740.118</ele>
        <time>2018-07-19T07:39:22Z</time>
      </trkpt>
      <trkpt lat="45.304332" lon="6.953052">
        <ele>1739.846</ele>
        <time>2018-07-19T07:39:26Z</time>
      </trkpt>
      <trkpt lat="45.304309" lon="6.952991">
        <ele>1739.665</ele>
        <time>2018-07-19T07:39:30Z</time>
      </trkpt>
      <trkpt lat="45.304281" lon="6.952931">
        <ele>1739.574</ele>
        <time>2018-07-19T07:39:34Z</time>
      </trkpt>
      <trkpt lat="45.304251" lon="6.952873">
        <ele>1739.456</ele>
        <time>2018-07-19T07:39:38Z</time>
      </trkpt>
      <trkpt lat="45.304221" lon="6.952820">
        <ele>1738.621</ele>
        <time>2018-07-19T07:39:42Z</time>
      </trkpt>
      <trkpt lat="45.304195" lon="6.952763">
        <ele>1738.808</ele>
        <time>2018-07-19T07:39:46Z</time>
      </trkpt>
      <trkpt lat="45.304168" lon="6.952703">
        <ele>1738.669</ele>
        <time>2018-07-19T07:39:50Z</time>
      </trkpt>
      <trkpt lat="45.304143" lon="6.952645">
        <ele>1738.354</ele>
        <time>2018-07-19T07:39:54Z</time>
      </trkpt>
      <trkpt lat="45.304122" lon="6.952583">
        <ele>1738.259</ele>
        <time>2018-07-19T07:39:58Z</time>
      </trkpt>
      <trkpt lat="45.304102" lon="6.952520">
        <ele>1738.084</ele>
        <time>2018-07-19T07:40:02Z</time>
      </trkpt>
      <trkpt lat="45.304081" lon="6.952459">
        <ele>1737.989</ele>
        <time>2018-07-19T07:40:06Z</time>
      </trkpt>
      <trkpt lat="45.304058" lon="6.952402">
        <ele>1737.680</ele>
        <time>2018-07-19T07:40:10Z</time>
      </trkpt>
      <trkpt lat="45.304030" lon="6.952346">
        <ele>1737.228</ele>
        <time>2018-07-19T07:40:14Z</time>
      </trkpt>
      <trkpt lat="45.304002" lon="6.952288">
        <ele>1737.027</ele>
        <time>2018-07-19T07:40:18Z</time>
      </trkpt>
      <trkpt lat="45.303971" lon="6.952231">
        <ele>1736.678</ele>
        <time>2018-07-19T07:40:22Z</time>
      </trkpt>
      <trkpt lat="45.303949" lon="6.952169">
        <ele>1736.333</ele>
        <time>2018-07-19T07:40:26Z</time>
      </trkpt>
      <trkpt lat="45.303923" lon="6.952111">
        <ele>1736.126</ele>
        <time>2018-07-19T07:40:30Z</time>
      </trkpt>
      <trkpt lat="45.303895" lon="6.952052">
        <ele>1735.908</ele>
        <time>2018-07-19T07:40:34Z</time>
      </trkpt>
      <trkpt lat="45.303870" lon="6.951993">
        <ele>1736.069</ele>
        <time>2018-07-19T07:40:38Z</time>
      </trkpt>
      <trkpt lat="45.303842" lon="6.951935">
        <ele>1735.994</ele>
        <time>2018-07-19T07:40:42Z</time>
      </trkpt>
      <trkpt lat="45.303814" lon="6.951879">
        <ele>1735.549</ele>
        <time>2018-07-19T07:40:46Z</time>
      </trkpt>
      <trkpt lat="45.303783" lon="6.951830">
        <ele>1735.714</ele>
        <time>2018-07-19T07:40:50Z</time>
      </trkpt>
      <trkpt lat="45.303751" lon="6.951778">
        <ele>1735.519</ele>
        <time>2018-07-19T07:40:54Z</time>
      </trkpt>
      <trkpt lat="45.303721" lon="6.951717">
        <ele>1735.620</ele>
        <time>2018-07-19T07:40:58Z</time>
      </trkpt>
      <trkpt lat="45.303698" lon="6.951659">
        <ele>1736.048</ele>
        <time>2018-07-19T07:41:02Z</time>
      </trkpt>
      <trkpt lat="45.303669" lon="6.951594">
        <ele>1735.827</ele>
        <time>2018-07-19T07:41:07Z</time>
      </trkpt>
      <trkpt lat="45.303636" lon="6.951531">
        <ele>1736.286</ele>
        <time>2018-07-19T07:41:12Z</time>
      </trkpt>
      <trkpt lat="45.303607" lon="6.951474">
        <ele>1736.260</ele>
        <time>2018-07-19T07:41:16Z</time>
      </trkpt>
      <trkpt lat="45.303576" lon="6.951423">
        <ele>1735.926</ele>
        <time>2018-07-19T07:41:20Z</time>
      </trkpt>
      <trkpt lat="45.303551" lon="6.951365">
        <ele>1735.708</ele>
        <time>2018-07-19T07:41:24Z</time>
      </trkpt>
      <trkpt lat="45.303532" lon="6.951299">
        <ele>1735.760</ele>
        <time>2018-07-19T07:41:28Z</time>
      </trkpt>
      <trkpt lat="45.303514" lon="6.951235">
        <ele>1735.485</ele>
        <time>2018-07-19T07:41:32Z</time>
      </trkpt>
      <trkpt lat="45.303495" lon="6.951177">
        <ele>1735.530</ele>
        <time>2018-07-19T07:41:36Z</time>
      </trkpt>
      <trkpt lat="45.303477" lon="6.951106">
        <ele>1735.745</ele>
        <time>2018-07-19T07:41:41Z</time>
      </trkpt>
      <trkpt lat="45.303461" lon="6.951040">
        <ele>1735.970</ele>
        <time>2018-07-19T07:41:46Z</time>
      </trkpt>
      <trkpt lat="45.303445" lon="6.950972">
        <ele>1736.641</ele>
        <time>2018-07-19T07:41:51Z</time>
      </trkpt>
      <trkpt lat="45.303436" lon="6.950906">
        <ele>1736.849</ele>
        <time>2018-07-19T07:41:56Z</time>
      </trkpt>
      <trkpt lat="45.303425" lon="6.950832">
        <ele>1736.688</ele>
        <time>2018-07-19T07:42:01Z</time>
      </trkpt>
      <trkpt lat="45.303411" lon="6.950756">
        <ele>1736.887</ele>
        <time>2018-07-19T07:42:06Z</time>
      </trkpt>
      <trkpt lat="45.303399" lon="6.950690">
        <ele>1736.942</ele>
        <time>2018-07-19T07:42:10Z</time>
      </trkpt>
      <trkpt lat="45.303384" lon="6.950619">
        <ele>1737.226</ele>
        <time>2018-07-19T07:42:15Z</time>
      </trkpt>
      <trkpt lat="45.303367" lon="6.950547">
        <ele>1737.608</ele>
        <time>2018-07-19T07:42:20Z</time>
      </trkpt>
      <trkpt lat="45.303352" lon="6.950476">
        <ele>1737.610</ele>
        <time>2018-07-19T07:42:25Z</time>
      </trkpt>
      <trkpt lat="45.303340" lon="6.950403">
        <ele>1737.965</ele>
        <time>2018-07-19T07:42:30Z</time>
      </trkpt>
      <trkpt lat="45.303330" lon="6.950328">
        <ele>1737.820</ele>
        <time>2018-07-19T07:42:35Z</time>
      </trkpt>
      <trkpt lat="45.303327" lon="6.950253">
        <ele>1738.095</ele>
        <time>2018-07-19T07:42:40Z</time>
      </trkpt>
      <trkpt lat="45.303322" lon="6.950188">
        <ele>1738.560</ele>
        <time>2018-07-19T07:42:45Z</time>
      </trkpt>
      <trkpt lat="45.303320" lon="6.950115">
        <ele>1739.091</ele>
        <time>2018-07-19T07:42:51Z</time>
      </trkpt>
      <trkpt lat="45.303324" lon="6.950041">
        <ele>1739.869</ele>
        <time>2018-07-19T07:42:57Z</time>
      </trkpt>
      <trkpt lat="45.303334" lon="6.949970">
        <ele>1740.738</ele>
        <time>2018-07-19T07:43:03Z</time>
      </trkpt>
      <trkpt lat="45.303336" lon="6.949901">
        <ele>1741.359</ele>
        <time>2018-07-19T07:43:10Z</time>
      </trkpt>
      <trkpt lat="45.303331" lon="6.949833">
        <ele>1742.003</ele>
        <time>2018-07-19T07:43:16Z</time>
      </trkpt>
      <trkpt lat="45.303326" lon="6.949765">
        <ele>1742.423</ele>
        <time>2018-07-19T07:43:22Z</time>
      </trkpt>
      <trkpt lat="45.303322" lon="6.949698">
        <ele>1742.808</ele>
        <time>2018-07-19T07:43:28Z</time>
      </trkpt>
      <trkpt lat="45.303313" lon="6.949624">
        <ele>1742.787</ele>
        <time>2018-07-19T07:43:34Z</time>
      </trkpt>
      <trkpt lat="45.303299" lon="6.949560">
        <ele>1743.092</ele>
        <time>2018-07-19T07:43:39Z</time>
      </trkpt>
      <trkpt lat="45.303282" lon="6.949496">
        <ele>1743.757</ele>
        <time>2018-07-19T07:43:45Z</time>
      </trkpt>
      <trkpt lat="45.303266" lon="6.949435">
        <ele>1744.212</ele>
        <time>2018-07-19T07:43:51Z</time>
      </trkpt>
      <trkpt lat="45.303235" lon="6.949377">
        <ele>1745.127</ele>
        <time>2018-07-19T07:43:58Z</time>
      </trkpt>
      <trkpt lat="45.303202" lon="6.949329">
        <ele>1745.748</ele>
        <time>2018-07-19T07:44:04Z</time>
      </trkpt>
      <trkpt lat="45.303168" lon="6.949277">
        <ele>1746.746</ele>
        <time>2018-07-19T07:44:11Z</time>
      </trkpt>
      <trkpt lat="45.303132" lon="6.949224">
        <ele>1747.565</ele>
        <time>2018-07-19T07:44:18Z</time>
      </trkpt>
      <trkpt lat="45.303095" lon="6.949182">
        <ele>1748.032</ele>
        <time>2018-07-19T07:44:24Z</time>
      </trkpt>
      <trkpt lat="45.303057" lon="6.949142">
        <ele>1749.092</ele>
        <time>2018-07-19T07:44:30Z</time>
      </trkpt>
      <trkpt lat="45.303016" lon="6.949103">
        <ele>1749.411</ele>
        <time>2018-07-19T07:44:36Z</time>
      </trkpt>
      <trkpt lat="45.302973" lon="6.949065">
        <ele>1749.808</ele>
        <time>2018-07-19T07:44:42Z</time>
      </trkpt>
      <trkpt lat="45.302924" lon="6.949042">
        <ele>1750.225</ele>
        <time>2018-07-19T07:44:48Z</time>
      </trkpt>
      <trkpt lat="45.302872" lon="6.949039">
        <ele>1750.860</ele>
        <time>2018-07-19T07:44:54Z</time>
      </trkpt>
      <trkpt lat="45.302828" lon="6.949021">
        <ele>1751.435</ele>
        <time>2018-07-19T07:45:00Z</time>
      </trkpt>
      <trkpt lat="45.302781" lon="6.949002">
        <ele>1752.130</ele>
        <time>2018-07-19T07:45:07Z</time>
      </trkpt>
      <trkpt lat="45.302735" lon="6.949004">
        <ele>1753.225</ele>
        <time>2018-07-19T07:45:15Z</time>
      </trkpt>
      <trkpt lat="45.302690" lon="6.949017">
        <ele>1754.496</ele>
        <time>2018-07-19T07:45:24Z</time>
      </trkpt>
      <trkpt lat="45.302687" lon="6.948948">
        <ele>1755.154</ele>
        <time>2018-07-19T07:45:34Z</time>
      </trkpt>
      <trkpt lat="45.302702" lon="6.948885">
        <ele>1757.653</ele>
        <time>2018-07-19T07:46:41Z</time>
      </trkpt>
      <trkpt lat="45.302673" lon="6.948828">
        <ele>1758.154</ele>
        <time>2018-07-19T07:46:47Z</time>
      </trkpt>
      <trkpt lat="45.302648" lon="6.948772">
        <ele>1758.356</ele>
        <time>2018-07-19T07:46:52Z</time>
      </trkpt>
      <trkpt lat="45.302621" lon="6.948706">
        <ele>1758.911</ele>
        <time>2018-07-19T07:46:58Z</time>
      </trkpt>
      <trkpt lat="45.302597" lon="6.948646">
        <ele>1759.108</ele>
        <time>2018-07-19T07:47:03Z</time>
      </trkpt>
      <trkpt lat="45.302597" lon="6.948558">
        <ele>1758.577</ele>
        <time>2018-07-19T07:47:27Z</time>
      </trkpt>
      <trkpt lat="45.302586" lon="6.948495">
        <ele>1758.072</ele>
        <time>2018-07-19T07:48:00Z</time>
      </trkpt>
      <trkpt lat="45.302591" lon="6.948430">
        <ele>1758.037</ele>
        <time>2018-07-19T07:48:05Z</time>
      </trkpt>
      <trkpt lat="45.302614" lon="6.948370">
        <ele>1758.052</ele>
        <time>2018-07-19T07:48:12Z</time>
      </trkpt>
      <trkpt lat="45.302646" lon="6.948318">
        <ele>1758.837</ele>
        <time>2018-07-19T07:48:59Z</time>
      </trkpt>
      <trkpt lat="45.302686" lon="6.948282">
        <ele>1759.138</ele>
        <time>2018-07-19T07:49:08Z</time>
      </trkpt>
      <trkpt lat="45.302729" lon="6.948247">
        <ele>1759.636</ele>
        <time>2018-07-19T07:49:15Z</time>
      </trkpt>
      <trkpt lat="45.302775" lon="6.948233">
        <ele>1760.325</ele>
        <time>2018-07-19T07:49:23Z</time>
      </trkpt>
      <trkpt lat="45.302817" lon="6.948208">
        <ele>1761.566</ele>
        <time>2018-07-19T07:49:31Z</time>
      </trkpt>
      <trkpt lat="45.302849" lon="6.948163">
        <ele>1762.329</ele>
        <time>2018-07-19T07:49:49Z</time>
      </trkpt>
      <trkpt lat="45.302876" lon="6.948106">
        <ele>1763.921</ele>
        <time>2018-07-19T07:50:03Z</time>
      </trkpt>
      <trkpt lat="45.302901" lon="6.948048">
        <ele>1764.908</ele>
        <time>2018-07-19T07:50:12Z</time>
      </trkpt>
      <trkpt lat="45.302929" lon="6.947988">
        <ele>1765.888</ele>
        <time>2018-07-19T07:50:21Z</time>
      </trkpt>
      <trkpt lat="45.302955" lon="6.947933">
        <ele>1766.373</ele>
        <time>2018-07-19T07:50:27Z</time>
      </trkpt>
      <trkpt lat="45.302976" lon="6.947870">
        <ele>1767.358</ele>
        <time>2018-07-19T07:50:34Z</time>
      </trkpt>
      <trkpt lat="45.302999" lon="6.947814">
        <ele>1767.733</ele>
        <time>2018-07-19T07:50:41Z</time>
      </trkpt>
      <trkpt lat="45.303023" lon="6.947754">
        <ele>1768.878</ele>
        <time>2018-07-19T07:50:49Z</time>
      </trkpt>
      <trkpt lat="45.303053" lon="6.947696">
        <ele>1769.389</ele>
        <time>2018-07-19T07:50:55Z</time>
      </trkpt>
      <trkpt lat="45.303090" lon="6.947655">
        <ele>1769.687</ele>
        <time>2018-07-19T07:51:02Z</time>
      </trkpt>
      <trkpt lat="45.303127" lon="6.947615">
        <ele>1770.346</ele>
        <time>2018-07-19T07:51:10Z</time>
      </trkpt>
      <trkpt lat="45.303159" lon="6.947569">
        <ele>1772.098</ele>
        <time>2018-07-19T07:51:22Z</time>
      </trkpt>
      <trkpt lat="45.303180" lon="6.947504">
        <ele>1773.015</ele>
        <time>2018-07-19T07:51:31Z</time>
      </trkpt>
      <trkpt lat="45.303198" lon="6.947441">
        <ele>1774.126</ele>
        <time>2018-07-19T07:51:39Z</time>
      </trkpt>
      <trkpt lat="45.303205" lon="6.947374">
        <ele>1774.708</ele>
        <time>2018-07-19T07:51:46Z</time>
      </trkpt>
      <trkpt lat="45.303198" lon="6.947309">
        <ele>1775.181</ele>
        <time>2018-07-19T07:51:52Z</time>
      </trkpt>
      <trkpt lat="45.303212" lon="6.947244">
        <ele>1775.316</ele>
        <time>2018-07-19T07:51:59Z</time>
      </trkpt>
      <trkpt lat="45.303225" lon="6.947173">
        <ele>1776.631</ele>
        <time>2018-07-19T07:52:08Z</time>
      </trkpt>
      <trkpt lat="45.303237" lon="6.947108">
        <ele>1778.476</ele>
        <time>2018-07-19T07:52:19Z</time>
      </trkpt>
      <trkpt lat="45.303248" lon="6.947039">
        <ele>1780.831</ele>
        <time>2018-07-19T07:52:35Z</time>
      </trkpt>
      <trkpt lat="45.303255" lon="6.946972">
        <ele>1783.022</ele>
        <time>2018-07-19T07:52:52Z</time>
      </trkpt>
      <trkpt lat="45.303277" lon="6.946912">
        <ele>1785.230</ele>
        <time>2018-07-19T07:53:06Z</time>
      </trkpt>
      <trkpt lat="45.303280" lon="6.946848">
        <ele>1786.139</ele>
        <time>2018-07-19T07:53:17Z</time>
      </trkpt>
      <trkpt lat="45.303302" lon="6.946785">
        <ele>1787.216</ele>
        <time>2018-07-19T07:53:28Z</time>
      </trkpt>
      <trkpt lat="45.303319" lon="6.946720">
        <ele>1788.176</ele>
        <time>2018-07-19T07:53:39Z</time>
      </trkpt>
      <trkpt lat="45.303326" lon="6.946657">
        <ele>1789.413</ele>
        <time>2018-07-19T07:53:52Z</time>
      </trkpt>
      <trkpt lat="45.303352" lon="6.946599">
        <ele>1790.308</ele>
        <time>2018-07-19T07:54:04Z</time>
      </trkpt>
      <trkpt lat="45.303372" lon="6.946541">
        <ele>1791.283</ele>
        <time>2018-07-19T07:54:15Z</time>
      </trkpt>
      <trkpt lat="45.303360" lon="6.946476">
        <ele>1792.648</ele>
        <time>2018-07-19T07:54:53Z</time>
      </trkpt>
      <trkpt lat="45.303373" lon="6.946413">
        <ele>1794.113</ele>
        <time>2018-07-19T07:55:06Z</time>
      </trkpt>
      <trkpt lat="45.303390" lon="6.946351">
        <ele>1795.048</ele>
        <time>2018-07-19T07:55:16Z</time>
      </trkpt>
      <trkpt lat="45.303413" lon="6.946296">
        <ele>1797.143</ele>
        <time>2018-07-19T07:55:36Z</time>
      </trkpt>
      <trkpt lat="45.303404" lon="6.946231">
        <ele>1798.994</ele>
        <time>2018-07-19T07:55:51Z</time>
      </trkpt>
      <trkpt lat="45.303382" lon="6.946175">
        <ele>1801.162</ele>
        <time>2018-07-19T07:56:05Z</time>
      </trkpt>
      <trkpt lat="45.303367" lon="6.946112">
        <ele>1802.311</ele>
        <time>2018-07-19T07:56:18Z</time>
      </trkpt>
      <trkpt lat="45.303358" lon="6.946048">
        <ele>1803.141</ele>
        <time>2018-07-19T07:56:28Z</time>
      </trkpt>
      <trkpt lat="45.303371" lon="6.945986">
        <ele>1804.681</ele>
        <time>2018-07-19T07:56:39Z</time>
      </trkpt>
      <trkpt lat="45.303406" lon="6.945942">
        <ele>1805.909</ele>
        <time>2018-07-19T07:56:52Z</time>
      </trkpt>
      <trkpt lat="45.303443" lon="6.945978">
        <ele>1808.208</ele>
        <time>2018-07-19T07:57:14Z</time>
      </trkpt>
      <trkpt lat="45.303476" lon="6.946027">
        <ele>1809.526</ele>
        <time>2018-07-19T07:57:32Z</time>
      </trkpt>
      <trkpt lat="45.303484" lon="6.946094">
        <ele>1812.331</ele>
        <time>2018-07-19T07:57:49Z</time>
      </trkpt>
      <trkpt lat="45.303505" lon="6.946155">
        <ele>1813.656</ele>
        <time>2018-07-19T07:58:08Z</time>
      </trkpt>
      <trkpt lat="45.303480" lon="6.946213">
        <ele>1814.141</ele>
        <time>2018-07-19T07:58:29Z</time>
      </trkpt>
      <trkpt lat="45.303525" lon="6.946219">
        <ele>1816.746</ele>
        <time>2018-07-19T08:00:38Z</time>
      </trkpt>
      <trkpt lat="45.303572" lon="6.946198">
        <ele>1818.767</ele>
        <time>2018-07-19T08:01:11Z</time>
      </trkpt>
      <trkpt lat="45.303606" lon="6.946244">
        <ele>1821.475</ele>
        <time>2018-07-19T08:01:49Z</time>
      </trkpt>
      <trkpt lat="45.303633" lon="6.946298">
        <ele>1822.784</ele>
        <time>2018-07-19T08:02:00Z</time>
      </trkpt>
      <trkpt lat="45.303667" lon="6.946344">
        <ele>1824.624</ele>
        <time>2018-07-19T08:02:15Z</time>
      </trkpt>
      <trkpt lat="45.303683" lon="6.946408">
        <ele>1826.304</ele>
        <time>2018-07-19T08:02:35Z</time>
      </trkpt>
      <trkpt lat="45.303699" lon="6.946468">
        <ele>1827.214</ele>
        <time>2018-07-19T08:02:46Z</time>
      </trkpt>
      <trkpt lat="45.303714" lon="6.946532">
        <ele>1829.108</ele>
        <time>2018-07-19T08:03:01Z</time>
      </trkpt>
      <trkpt lat="45.303737" lon="6.946588">
        <ele>1831.074</ele>
        <time>2018-07-19T08:03:18Z</time>
      </trkpt>
      <trkpt lat="45.303777" lon="6.946627">
        <ele>1833.449</ele>
        <time>2018-07-19T08:03:39Z</time>
      </trkpt>
      <trkpt lat="45.303794" lon="6.946700">
        <ele>1834.964</ele>
        <time>2018-07-19T08:03:54Z</time>
      </trkpt>
      <trkpt lat="45.303787" lon="6.946768">
        <ele>1835.739</ele>
        <time>2018-07-19T08:04:05Z</time>
      </trkpt>
      <trkpt lat="45.303793" lon="6.946836">
        <ele>1836.424</ele>
        <time>2018-07-19T08:04:13Z</time>
      </trkpt>
      <trkpt lat="45.303792" lon="6.946907">
        <ele>1837.135</ele>
        <time>2018-07-19T08:04:22Z</time>
      </trkpt>
      <trkpt lat="45.303791" lon="6.946974">
        <ele>1837.963</ele>
        <time>2018-07-19T08:04:33Z</time>
      </trkpt>
      <trkpt lat="45.303797" lon="6.947041">
        <ele>1838.932</ele>
        <time>2018-07-19T08:04:44Z</time>
      </trkpt>
      <trkpt lat="45.303817" lon="6.947102">
        <ele>1839.553</ele>
        <time>2018-07-19T08:04:52Z</time>
      </trkpt>
      <trkpt lat="45.303855" lon="6.947138">
        <ele>1840.404</ele>
        <time>2018-07-19T08:05:02Z</time>
      </trkpt>
      <trkpt lat="45.303899" lon="6.947117">
        <ele>1842.314</ele>
        <time>2018-07-19T08:05:19Z</time>
      </trkpt>
      <trkpt lat="45.303917" lon="6.947053">
        <ele>1843.708</ele>
        <time>2018-07-19T08:05:33Z</time>
      </trkpt>
      <trkpt lat="45.303936" lon="6.946994">
        <ele>1844.297</ele>
        <time>2018-07-19T08:05:41Z</time>
      </trkpt>
      <trkpt lat="45.303967" lon="6.946939">
        <ele>1844.192</ele>
        <time>2018-07-19T08:05:52Z</time>
      </trkpt>
      <trkpt lat="45.303997" lon="6.946890">
        <ele>1845.017</ele>
        <time>2018-07-19T08:06:05Z</time>
      </trkpt>
      <trkpt lat="45.304021" lon="6.946832">
        <ele>1845.962</ele>
        <time>2018-07-19T08:06:19Z</time>
      </trkpt>
      <trkpt lat="45.304067" lon="6.946846">
        <ele>1848.887</ele>
        <time>2018-07-19T08:06:45Z</time>
      </trkpt>
      <trkpt lat="45.304083" lon="6.946909">
        <ele>1849.848</ele>
        <time>2018-07-19T08:06:55Z</time>
      </trkpt>
      <trkpt lat="45.304112" lon="6.946969">
        <ele>1851.476</ele>
        <time>2018-07-19T08:07:06Z</time>
      </trkpt>
      <trkpt lat="45.304135" lon="6.947028">
        <ele>1852.135</ele>
        <time>2018-07-19T08:07:14Z</time>
      </trkpt>
      <trkpt lat="45.304145" lon="6.947098">
        <ele>1853.194</ele>
        <time>2018-07-19T08:07:26Z</time>
      </trkpt>
      <trkpt lat="45.304166" lon="6.947157">
        <ele>1853.957</ele>
        <time>2018-07-19T08:07:36Z</time>
      </trkpt>
      <trkpt lat="45.304171" lon="6.947233">
        <ele>1854.222</ele>
        <time>2018-07-19T08:08:22Z</time>
      </trkpt>
      <trkpt lat="45.304208" lon="6.947192">
        <ele>1857.208</ele>
        <time>2018-07-19T08:08:44Z</time>
      </trkpt>
      <trkpt lat="45.304234" lon="6.947125">
        <ele>1858.231</ele>
        <time>2018-07-19T08:08:53Z</time>
      </trkpt>
      <trkpt lat="45.304236" lon="6.947055">
        <ele>1858.456</ele>
        <time>2018-07-19T08:08:58Z</time>
      </trkpt>
      <trkpt lat="45.304232" lon="6.946983">
        <ele>1859.041</ele>
        <time>2018-07-19T08:09:04Z</time>
      </trkpt>
      <trkpt lat="45.304215" lon="6.946917">
        <ele>1859.186</ele>
        <time>2018-07-19T08:09:10Z</time>
      </trkpt>
      <trkpt lat="45.304216" lon="6.946851">
        <ele>1859.971</ele>
        <time>2018-07-19T08:09:17Z</time>
      </trkpt>
      <trkpt lat="45.304209" lon="6.946782">
        <ele>1860.912</ele>
        <time>2018-07-19T08:09:25Z</time>
      </trkpt>
      <trkpt lat="45.304203" lon="6.946713">
        <ele>1861.740</ele>
        <time>2018-07-19T08:09:33Z</time>
      </trkpt>
      <trkpt lat="45.304200" lon="6.946642">
        <ele>1862.559</ele>
        <time>2018-07-19T08:09:41Z</time>
      </trkpt>
      <trkpt lat="45.304190" lon="6.946576">
        <ele>1863.387</ele>
        <time>2018-07-19T08:09:48Z</time>
      </trkpt>
      <trkpt lat="45.304187" lon="6.946509">
        <ele>1863.542</ele>
        <time>2018-07-19T08:09:55Z</time>
      </trkpt>
      <trkpt lat="45.304192" lon="6.946443">
        <ele>1864.326</ele>
        <time>2018-07-19T08:10:04Z</time>
      </trkpt>
      <trkpt lat="45.304186" lon="6.946379">
        <ele>1864.408</ele>
        <time>2018-07-19T08:10:11Z</time>
      </trkpt>
      <trkpt lat="45.304182" lon="6.946311">
        <ele>1864.850</ele>
        <time>2018-07-19T08:10:18Z</time>
      </trkpt>
      <trkpt lat="45.304178" lon="6.946235">
        <ele>1865.455</ele>
        <time>2018-07-19T08:10:26Z</time>
      </trkpt>
      <trkpt lat="45.304160" lon="6.946172">
        <ele>1866.130</ele>
        <time>2018-07-19T08:10:36Z</time>
      </trkpt>
      <trkpt lat="45.304128" lon="6.946124">
        <ele>1867.115</ele>
        <time>2018-07-19T08:10:47Z</time>
      </trkpt>
      <trkpt lat="45.304114" lon="6.946062">
        <ele>1867.790</ele>
        <time>2018-07-19T08:10:55Z</time>
      </trkpt>
      <trkpt lat="45.304103" lon="6.945999">
        <ele>1868.581</ele>
        <time>2018-07-19T08:11:03Z</time>
      </trkpt>
      <trkpt lat="45.304096" lon="6.945933">
        <ele>1869.139</ele>
        <time>2018-07-19T08:11:13Z</time>
      </trkpt>
      <trkpt lat="45.304093" lon="6.945866">
        <ele>1870.348</ele>
        <time>2018-07-19T08:11:24Z</time>
      </trkpt>
      <trkpt lat="45.304138" lon="6.945888">
        <ele>1872.472</ele>
        <time>2018-07-19T08:11:42Z</time>
      </trkpt>
      <trkpt lat="45.304172" lon="6.945935">
        <ele>1873.213</ele>
        <time>2018-07-19T08:11:51Z</time>
      </trkpt>
      <trkpt lat="45.304186" lon="6.945872">
        <ele>1874.514</ele>
        <time>2018-07-19T08:12:05Z</time>
      </trkpt>
      <trkpt lat="45.304192" lon="6.945803">
        <ele>1875.808</ele>
        <time>2018-07-19T08:12:16Z</time>
      </trkpt>
      <trkpt lat="45.304193" lon="6.945737">
        <ele>1877.349</ele>
        <time>2018-07-19T08:12:35Z</time>
      </trkpt>
      <trkpt lat="45.304195" lon="6.945669">
        <ele>1878.474</ele>
        <time>2018-07-19T08:12:47Z</time>
      </trkpt>
      <trkpt lat="45.304191" lon="6.945602">
        <ele>1879.799</ele>
        <time>2018-07-19T08:12:59Z</time>
      </trkpt>
      <trkpt lat="45.304179" lon="6.945540">
        <ele>1880.534</ele>
        <time>2018-07-19T08:13:08Z</time>
      </trkpt>
      <trkpt lat="45.304190" lon="6.945477">
        <ele>1883.149</ele>
        <time>2018-07-19T08:13:27Z</time>
      </trkpt>
      <trkpt lat="45.304197" lon="6.945409">
        <ele>1884.620</ele>
        <time>2018-07-19T08:13:41Z</time>
      </trkpt>
      <trkpt lat="45.304204" lon="6.945341">
        <ele>1886.048</ele>
        <time>2018-07-19T08:13:54Z</time>
      </trkpt>
      <trkpt lat="45.304229" lon="6.945287">
        <ele>1887.657</ele>
        <time>2018-07-19T08:14:10Z</time>
      </trkpt>
      <trkpt lat="45.304236" lon="6.945221">
        <ele>1889.368</ele>
        <time>2018-07-19T08:14:24Z</time>
      </trkpt>
      <trkpt lat="45.304259" lon="6.945165">
        <ele>1890.942</ele>
        <time>2018-07-19T08:14:40Z</time>
      </trkpt>
      <trkpt lat="45.304258" lon="6.945098">
        <ele>1892.126</ele>
        <time>2018-07-19T08:14:56Z</time>
      </trkpt>
      <trkpt lat="45.304258" lon="6.945032">
        <ele>1893.708</ele>
        <time>2018-07-19T08:15:10Z</time>
      </trkpt>
      <trkpt lat="45.304252" lon="6.944967">
        <ele>1894.958</ele>
        <time>2018-07-19T08:15:23Z</time>
      </trkpt>
      <trkpt lat="45.304249" lon="6.944900">
        <ele>1897.293</ele>
        <time>2018-07-19T08:15:35Z</time>
      </trkpt>
      <trkpt lat="45.304294" lon="6.944921">
        <ele>1898.558</ele>
        <time>2018-07-19T08:15:48Z</time>
      </trkpt>
      <trkpt lat="45.304333" lon="6.944955">
        <ele>1899.613</ele>
        <time>2018-07-19T08:15:58Z</time>
      </trkpt>
      <trkpt lat="45.304382" lon="6.944957">
        <ele>1901.098</ele>
        <time>2018-07-19T08:24:36Z</time>
      </trkpt>
      <trkpt lat="45.304355" lon="6.944902">
        <ele>1916.879</ele>
        <time>2018-07-19T08:24:46Z</time>
      </trkpt>
      <trkpt lat="45.304339" lon="6.944836">
        <ele>1933.147</ele>
        <time>2018-07-19T08:24:58Z</time>
      </trkpt>
      <trkpt lat="45.304324" lon="6.944770">
        <ele>1949.546</ele>
        <time>2018-07-19T08:25:06Z</time>
      </trkpt>
      <trkpt lat="45.304307" lon="6.944705">
        <ele>1960.514</ele>
        <time>2018-07-19T08:25:14Z</time>
      </trkpt>
      <trkpt lat="45.304272" lon="6.944652">
        <ele>1961.554</ele>
        <time>2018-07-19T08:25:22Z</time>
      </trkpt>
      <trkpt lat="45.304248" lon="6.944595">
        <ele>1962.509</ele>
        <time>2018-07-19T08:25:30Z</time>
      </trkpt>
      <trkpt lat="45.304292" lon="6.944584">
        <ele>1963.108</ele>
        <time>2018-07-19T08:25:45Z</time>
      </trkpt>
      <trkpt lat="45.304329" lon="6.944623">
        <ele>1964.383</ele>
        <time>2018-07-19T08:25:54Z</time>
      </trkpt>
      <trkpt lat="45.304338" lon="6.944558">
        <ele>1966.268</ele>
        <time>2018-07-19T08:26:15Z</time>
      </trkpt>
      <trkpt lat="45.304306" lon="6.944512">
        <ele>1967.383</ele>
        <time>2018-07-19T08:26:21Z</time>
      </trkpt>
      <trkpt lat="45.304274" lon="6.944464">
        <ele>1968.028</ele>
        <time>2018-07-19T08:26:29Z</time>
      </trkpt>
      <trkpt lat="45.304250" lon="6.944408">
        <ele>1968.433</ele>
        <time>2018-07-19T08:26:37Z</time>
      </trkpt>
      <trkpt lat="45.304227" lon="6.944346">
        <ele>1969.044</ele>
        <time>2018-07-19T08:26:45Z</time>
      </trkpt>
      <trkpt lat="45.304209" lon="6.944277">
        <ele>1969.862</ele>
        <time>2018-07-19T08:26:53Z</time>
      </trkpt>
      <trkpt lat="45.304185" lon="6.944218">
        <ele>1970.331</ele>
        <time>2018-07-19T08:27:00Z</time>
      </trkpt>
      <trkpt lat="45.304159" lon="6.944156">
        <ele>1971.059</ele>
        <time>2018-07-19T08:27:07Z</time>
      </trkpt>
      <trkpt lat="45.304141" lon="6.944090">
        <ele>1971.803</ele>
        <time>2018-07-19T08:27:14Z</time>
      </trkpt>
      <trkpt lat="45.304137" lon="6.944019">
        <ele>1972.323</ele>
        <time>2018-07-19T08:27:22Z</time>
      </trkpt>
      <trkpt lat="45.304137" lon="6.943951">
        <ele>1973.008</ele>
        <time>2018-07-19T08:27:30Z</time>
      </trkpt>
      <trkpt lat="45.304150" lon="6.943887">
        <ele>1973.487</ele>
        <time>2018-07-19T08:27:37Z</time>
      </trkpt>
      <trkpt lat="45.304159" lon="6.943819">
        <ele>1973.652</ele>
        <time>2018-07-19T08:27:45Z</time>
      </trkpt>
      <trkpt lat="45.304173" lon="6.943746">
        <ele>1974.177</ele>
        <time>2018-07-19T08:27:52Z</time>
      </trkpt>
      <trkpt lat="45.304174" lon="6.943678">
        <ele>1974.452</ele>
        <time>2018-07-19T08:27:58Z</time>
      </trkpt>
      <trkpt lat="45.304156" lon="6.943617">
        <ele>1975.047</ele>
        <time>2018-07-19T08:28:03Z</time>
      </trkpt>
      <trkpt lat="45.304141" lon="6.943548">
        <ele>1975.488</ele>
        <time>2018-07-19T08:28:09Z</time>
      </trkpt>
      <trkpt lat="45.304138" lon="6.943484">
        <ele>1976.086</ele>
        <time>2018-07-19T08:28:15Z</time>
      </trkpt>
      <trkpt lat="45.304145" lon="6.943415">
        <ele>1976.895</ele>
        <time>2018-07-19T08:28:23Z</time>
      </trkpt>
      <trkpt lat="45.304162" lon="6.943354">
        <ele>1977.745</ele>
        <time>2018-07-19T08:28:31Z</time>
      </trkpt>
      <trkpt lat="45.304182" lon="6.943289">
        <ele>1978.247</ele>
        <time>2018-07-19T08:28:41Z</time>
      </trkpt>
      <trkpt lat="45.304198" lon="6.943228">
        <ele>1978.911</ele>
        <time>2018-07-19T08:28:49Z</time>
      </trkpt>
      <trkpt lat="45.304199" lon="6.943162">
        <ele>1980.108</ele>
        <time>2018-07-19T08:29:00Z</time>
      </trkpt>
      <trkpt lat="45.304202" lon="6.943090">
        <ele>1981.276</ele>
        <time>2018-07-19T08:29:10Z</time>
      </trkpt>
      <trkpt lat="45.304199" lon="6.943023">
        <ele>1981.921</ele>
        <time>2018-07-19T08:29:17Z</time>
      </trkpt>
      <trkpt lat="45.304206" lon="6.942957">
        <ele>1983.166</ele>
        <time>2018-07-19T08:29:26Z</time>
      </trkpt>
      <trkpt lat="45.304237" lon="6.943012">
        <ele>1983.471</ele>
        <time>2018-07-19T08:29:42Z</time>
      </trkpt>
      <trkpt lat="45.304247" lon="6.943079">
        <ele>1984.496</ele>
        <time>2018-07-19T08:29:51Z</time>
      </trkpt>
      <trkpt lat="45.304266" lon="6.943137">
        <ele>1985.457</ele>
        <time>2018-07-19T08:30:01Z</time>
      </trkpt>
      <trkpt lat="45.304290" lon="6.943192">
        <ele>1985.625</ele>
        <time>2018-07-19T08:30:11Z</time>
      </trkpt>
      <trkpt lat="45.304323" lon="6.943238">
        <ele>1985.324</ele>
        <time>2018-07-19T08:30:23Z</time>
      </trkpt>
      <trkpt lat="45.304338" lon="6.943301">
        <ele>1985.988</ele>
        <time>2018-07-19T08:30:35Z</time>
      </trkpt>
      <trkpt lat="45.304345" lon="6.943367">
        <ele>1987.924</ele>
        <time>2018-07-19T08:30:42Z</time>
      </trkpt>
      <trkpt lat="45.304367" lon="6.943431">
        <ele>1989.126</ele>
        <time>2018-07-19T08:30:51Z</time>
      </trkpt>
      <trkpt lat="45.304375" lon="6.943497">
        <ele>1989.408</ele>
        <time>2018-07-19T08:31:01Z</time>
      </trkpt>
      <trkpt lat="45.304394" lon="6.943561">
        <ele>1990.090</ele>
        <time>2018-07-19T08:31:09Z</time>
      </trkpt>
      <trkpt lat="45.304406" lon="6.943495">
        <ele>1993.285</ele>
        <time>2018-07-19T08:31:32Z</time>
      </trkpt>
      <trkpt lat="45.304420" lon="6.943434">
        <ele>1994.750</ele>
        <time>2018-07-19T08:31:46Z</time>
      </trkpt>
      <trkpt lat="45.304432" lon="6.943371">
        <ele>1996.845</ele>
        <time>2018-07-19T08:31:56Z</time>
      </trkpt>
      <trkpt lat="45.304431" lon="6.943302">
        <ele>1998.950</ele>
        <time>2018-07-19T08:32:07Z</time>
      </trkpt>
      <trkpt lat="45.304431" lon="6.943232">
        <ele>2000.911</ele>
        <time>2018-07-19T08:32:18Z</time>
      </trkpt>
      <trkpt lat="45.304429" lon="6.943159">
        <ele>2002.199</ele>
        <time>2018-07-19T08:32:27Z</time>
      </trkpt>
      <trkpt lat="45.304430" lon="6.943094">
        <ele>2003.258</ele>
        <time>2018-07-19T08:32:34Z</time>
      </trkpt>
      <trkpt lat="45.304433" lon="6.943026">
        <ele>2003.978</ele>
        <time>2018-07-19T08:32:41Z</time>
      </trkpt>
      <trkpt lat="45.304439" lon="6.942963">
        <ele>2004.733</ele>
        <time>2018-07-19T08:32:47Z</time>
      </trkpt>
      <trkpt lat="45.304447" lon="6.942896">
        <ele>2005.226</ele>
        <time>2018-07-19T08:32:54Z</time>
      </trkpt>
      <trkpt lat="45.304448" lon="6.942827">
        <ele>2005.908</ele>
        <time>2018-07-19T08:33:04Z</time>
      </trkpt>
      <trkpt lat="45.304449" lon="6.942761">
        <ele>2006.759</ele>
        <time>2018-07-19T08:33:13Z</time>
      </trkpt>
      <trkpt lat="45.304456" lon="6.942691">
        <ele>2007.624</ele>
        <time>2018-07-19T08:33:21Z</time>
      </trkpt>
      <trkpt lat="45.304459" lon="6.942621">
        <ele>2008.159</ele>
        <time>2018-07-19T08:33:28Z</time>
      </trkpt>
      <trkpt lat="45.304461" lon="6.942554">
        <ele>2008.894</ele>
        <time>2018-07-19T08:33:36Z</time>
      </trkpt>
      <trkpt lat="45.304463" lon="6.942490">
        <ele>2009.219</ele>
        <time>2018-07-19T08:33:43Z</time>
      </trkpt>
      <trkpt lat="45.304462" lon="6.942421">
        <ele>2009.960</ele>
        <time>2018-07-19T08:33:51Z</time>
      </trkpt>
      <trkpt lat="45.304461" lon="6.942353">
        <ele>2010.758</ele>
        <time>2018-07-19T08:33:59Z</time>
      </trkpt>
      <trkpt lat="45.304440" lon="6.942290">
        <ele>2011.247</ele>
        <time>2018-07-19T08:34:06Z</time>
      </trkpt>
      <trkpt lat="45.304425" lon="6.942230">
        <ele>2011.557</ele>
        <time>2018-07-19T08:34:12Z</time>
      </trkpt>
      <trkpt lat="45.304427" lon="6.942161">
        <ele>2011.700</ele>
        <time>2018-07-19T08:34:20Z</time>
      </trkpt>
      <trkpt lat="45.304436" lon="6.942095">
        <ele>2012.220</ele>
        <time>2018-07-19T08:34:27Z</time>
      </trkpt>
      <trkpt lat="45.304448" lon="6.942024">
        <ele>2012.908</ele>
        <time>2018-07-19T08:34:35Z</time>
      </trkpt>
      <trkpt lat="45.304473" lon="6.941962">
        <ele>2013.397</ele>
        <time>2018-07-19T08:34:44Z</time>
      </trkpt>
      <trkpt lat="45.304491" lon="6.941898">
        <ele>2014.052</ele>
        <time>2018-07-19T08:34:54Z</time>
      </trkpt>
      <trkpt lat="45.304508" lon="6.941834">
        <ele>2014.447</ele>
        <time>2018-07-19T08:35:25Z</time>
      </trkpt>
      <trkpt lat="45.304521" lon="6.941767">
        <ele>2015.022</ele>
        <time>2018-07-19T08:35:35Z</time>
      </trkpt>
      <trkpt lat="45.304548" lon="6.941711">
        <ele>2015.897</ele>
        <time>2018-07-19T08:35:52Z</time>
      </trkpt>
      <trkpt lat="45.304554" lon="6.941644">
        <ele>2017.128</ele>
        <time>2018-07-19T08:36:05Z</time>
      </trkpt>
      <trkpt lat="45.304574" lon="6.941584">
        <ele>2019.126</ele>
        <time>2018-07-19T08:36:15Z</time>
      </trkpt>
      <trkpt lat="45.304592" lon="6.941524">
        <ele>2020.795</ele>
        <time>2018-07-19T08:36:28Z</time>
      </trkpt>
      <trkpt lat="45.304604" lon="6.941459">
        <ele>2022.086</ele>
        <time>2018-07-19T08:36:43Z</time>
      </trkpt>
      <trkpt lat="45.304606" lon="6.941390">
        <ele>2023.660</ele>
        <time>2018-07-19T08:36:56Z</time>
      </trkpt>
      <trkpt lat="45.304650" lon="6.941408">
        <ele>2024.626</ele>
        <time>2018-07-19T08:37:14Z</time>
      </trkpt>
      <trkpt lat="45.304667" lon="6.941476">
        <ele>2025.608</ele>
        <time>2018-07-19T08:37:22Z</time>
      </trkpt>
      <trkpt lat="45.304681" lon="6.941543">
        <ele>2026.660</ele>
        <time>2018-07-19T08:37:32Z</time>
      </trkpt>
      <trkpt lat="45.304697" lon="6.941603">
        <ele>2028.085</ele>
        <time>2018-07-19T08:37:41Z</time>
      </trkpt>
      <trkpt lat="45.304710" lon="6.941667">
        <ele>2029.230</ele>
        <time>2018-07-19T08:37:50Z</time>
      </trkpt>
      <trkpt lat="45.304721" lon="6.941731">
        <ele>2029.935</ele>
        <time>2018-07-19T08:37:59Z</time>
      </trkpt>
      <trkpt lat="45.304727" lon="6.941797">
        <ele>2030.750</ele>
        <time>2018-07-19T08:38:09Z</time>
      </trkpt>
      <trkpt lat="45.304719" lon="6.941867">
        <ele>2032.091</ele>
        <time>2018-07-19T08:38:18Z</time>
      </trkpt>
      <trkpt lat="45.304707" lon="6.941929">
        <ele>2032.819</ele>
        <time>2018-07-19T08:38:26Z</time>
      </trkpt>
      <trkpt lat="45.304717" lon="6.941994">
        <ele>2033.728</ele>
        <time>2018-07-19T08:38:34Z</time>
      </trkpt>
      <trkpt lat="45.304729" lon="6.942060">
        <ele>2034.288</ele>
        <time>2018-07-19T08:38:42Z</time>
      </trkpt>
      <trkpt lat="45.304748" lon="6.942120">
        <ele>2034.924</ele>
        <time>2018-07-19T08:38:51Z</time>
      </trkpt>
      <trkpt lat="45.304780" lon="6.942171">
        <ele>2036.126</ele>
        <time>2018-07-19T08:39:01Z</time>
      </trkpt>
      <trkpt lat="45.304803" lon="6.942231">
        <ele>2037.208</ele>
        <time>2018-07-19T08:39:12Z</time>
      </trkpt>
      <trkpt lat="45.304816" lon="6.942293">
        <ele>2038.350</ele>
        <time>2018-07-19T08:39:20Z</time>
      </trkpt>
      <trkpt lat="45.304822" lon="6.942358">
        <ele>2039.335</ele>
        <time>2018-07-19T08:39:27Z</time>
      </trkpt>
      <trkpt lat="45.304838" lon="6.942422">
        <ele>2040.330</ele>
        <time>2018-07-19T08:39:36Z</time>
      </trkpt>
      <trkpt lat="45.304862" lon="6.942484">
        <ele>2041.395</ele>
        <time>2018-07-19T08:39:46Z</time>
      </trkpt>
      <trkpt lat="45.304865" lon="6.942548">
        <ele>2041.990</ele>
        <time>2018-07-19T08:39:56Z</time>
      </trkpt>
      <trkpt lat="45.304877" lon="6.942612">
        <ele>2042.761</ele>
        <time>2018-07-19T08:40:12Z</time>
      </trkpt>
      <trkpt lat="45.304889" lon="6.942678">
        <ele>2044.089</ele>
        <time>2018-07-19T08:40:37Z</time>
      </trkpt>
      <trkpt lat="45.304922" lon="6.942727">
        <ele>2045.218</ele>
        <time>2018-07-19T08:40:47Z</time>
      </trkpt>
      <trkpt lat="45.304963" lon="6.942755">
        <ele>2045.962</ele>
        <time>2018-07-19T08:40:56Z</time>
      </trkpt>
      <trkpt lat="45.305011" lon="6.942757">
        <ele>2047.183</ele>
        <time>2018-07-19T08:41:06Z</time>
      </trkpt>
      <trkpt lat="45.305058" lon="6.942768">
        <ele>2049.011</ele>
        <time>2018-07-19T08:41:19Z</time>
      </trkpt>
      <trkpt lat="45.305098" lon="6.942810">
        <ele>2050.608</ele>
        <time>2018-07-19T08:41:31Z</time>
      </trkpt>
      <trkpt lat="45.305131" lon="6.942853">
        <ele>2051.938</ele>
        <time>2018-07-19T08:41:46Z</time>
      </trkpt>
      <trkpt lat="45.305171" lon="6.942895">
        <ele>2053.583</ele>
        <time>2018-07-19T08:41:58Z</time>
      </trkpt>
      <trkpt lat="45.305203" lon="6.942947">
        <ele>2054.958</ele>
        <time>2018-07-19T08:42:06Z</time>
      </trkpt>
      <trkpt lat="45.305234" lon="6.942997">
        <ele>2055.733</ele>
        <time>2018-07-19T08:42:13Z</time>
      </trkpt>
      <trkpt lat="45.305268" lon="6.943049">
        <ele>2056.678</ele>
        <time>2018-07-19T08:42:22Z</time>
      </trkpt>
      <trkpt lat="45.305300" lon="6.943099">
        <ele>2057.539</ele>
        <time>2018-07-19T08:42:32Z</time>
      </trkpt>
      <trkpt lat="45.305308" lon="6.943165">
        <ele>2058.557</ele>
        <time>2018-07-19T08:42:52Z</time>
      </trkpt>
      <trkpt lat="45.305318" lon="6.943231">
        <ele>2059.136</ele>
        <time>2018-07-19T08:43:00Z</time>
      </trkpt>
      <trkpt lat="45.305357" lon="6.943191">
        <ele>2060.631</ele>
        <time>2018-07-19T08:43:26Z</time>
      </trkpt>
      <trkpt lat="45.305399" lon="6.943224">
        <ele>2062.361</ele>
        <time>2018-07-19T08:43:41Z</time>
      </trkpt>
      <trkpt lat="45.305427" lon="6.943274">
        <ele>2063.307</ele>
        <time>2018-07-19T08:43:51Z</time>
      </trkpt>
      <trkpt lat="45.305431" lon="6.943340">
        <ele>2063.908</ele>
        <time>2018-07-19T08:44:01Z</time>
      </trkpt>
      <trkpt lat="45.305465" lon="6.943386">
        <ele>2064.775</ele>
        <time>2018-07-19T08:44:14Z</time>
      </trkpt>
      <trkpt lat="45.305469" lon="6.943450">
        <ele>2065.610</ele>
        <time>2018-07-19T08:44:23Z</time>
      </trkpt>
      <trkpt lat="45.305497" lon="6.943505">
        <ele>2066.515</ele>
        <time>2018-07-19T08:44:47Z</time>
      </trkpt>
      <trkpt lat="45.305543" lon="6.943502">
        <ele>2067.920</ele>
        <time>2018-07-19T08:45:01Z</time>
      </trkpt>
      <trkpt lat="45.305588" lon="6.943506">
        <ele>2069.545</ele>
        <time>2018-07-19T08:45:18Z</time>
      </trkpt>
      <trkpt lat="45.305618" lon="6.943555">
        <ele>2070.966</ele>
        <time>2018-07-19T08:45:29Z</time>
      </trkpt>
      <trkpt lat="45.305636" lon="6.943618">
        <ele>2071.724</ele>
        <time>2018-07-19T08:45:41Z</time>
      </trkpt>
      <trkpt lat="45.305683" lon="6.943625">
        <ele>2073.053</ele>
        <time>2018-07-19T08:46:08Z</time>
      </trkpt>
      <trkpt lat="45.305718" lon="6.943584">
        <ele>2074.283</ele>
        <time>2018-07-19T08:46:18Z</time>
      </trkpt>
      <trkpt lat="45.305713" lon="6.943518">
        <ele>2075.725</ele>
        <time>2018-07-19T08:46:27Z</time>
      </trkpt>
      <trkpt lat="45.305690" lon="6.943459">
        <ele>2077.017</ele>
        <time>2018-07-19T08:46:38Z</time>
      </trkpt>
      <trkpt lat="45.305673" lon="6.943394">
        <ele>2078.608</ele>
        <time>2018-07-19T08:46:50Z</time>
      </trkpt>
      <trkpt lat="45.305646" lon="6.943339">
        <ele>2079.550</ele>
        <time>2018-07-19T08:46:58Z</time>
      </trkpt>
      <trkpt lat="45.305621" lon="6.943286">
        <ele>2080.965</ele>
        <time>2018-07-19T08:47:06Z</time>
      </trkpt>
      <trkpt lat="45.305632" lon="6.943219">
        <ele>2081.320</ele>
        <time>2018-07-19T08:48:57Z</time>
      </trkpt>
      <trkpt lat="45.305644" lon="6.943153">
        <ele>2082.065</ele>
        <time>2018-07-19T08:49:04Z</time>
      </trkpt>
      <trkpt lat="45.305685" lon="6.943121">
        <ele>2082.830</ele>
        <time>2018-07-19T08:49:13Z</time>
      </trkpt>
      <trkpt lat="45.305708" lon="6.943176">
        <ele>2083.741</ele>
        <time>2018-07-19T08:49:23Z</time>
      </trkpt>
      <trkpt lat="45.305735" lon="6.943230">
        <ele>2084.649</ele>
        <time>2018-07-19T08:49:31Z</time>
      </trkpt>
      <trkpt lat="45.305769" lon="6.943283">
        <ele>2085.698</ele>
        <time>2018-07-19T08:49:39Z</time>
      </trkpt>
      <trkpt lat="45.305811" lon="6.943314">
        <ele>2086.627</ele>
        <time>2018-07-19T08:49:48Z</time>
      </trkpt>
      <trkpt lat="45.305850" lon="6.943359">
        <ele>2087.668</ele>
        <time>2018-07-19T08:49:57Z</time>
      </trkpt>
      <trkpt lat="45.305870" lon="6.943417">
        <ele>2088.214</ele>
        <time>2018-07-19T08:50:03Z</time>
      </trkpt>
      <trkpt lat="45.305888" lon="6.943483">
        <ele>2089.008</ele>
        <time>2018-07-19T08:50:10Z</time>
      </trkpt>
      <trkpt lat="45.305913" lon="6.943539">
        <ele>2089.994</ele>
        <time>2018-07-19T08:50:18Z</time>
      </trkpt>
      <trkpt lat="45.305931" lon="6.943606">
        <ele>2090.819</ele>
        <time>2018-07-19T08:50:26Z</time>
      </trkpt>
      <trkpt lat="45.305954" lon="6.943665">
        <ele>2091.794</ele>
        <time>2018-07-19T08:50:35Z</time>
      </trkpt>
      <trkpt lat="45.305980" lon="6.943722">
        <ele>2092.749</ele>
        <time>2018-07-19T08:50:45Z</time>
      </trkpt>
      <trkpt lat="45.306006" lon="6.943776">
        <ele>2093.784</ele>
        <time>2018-07-19T08:50:56Z</time>
      </trkpt>
      <trkpt lat="45.306049" lon="6.943806">
        <ele>2095.515</ele>
        <time>2018-07-19T08:51:09Z</time>
      </trkpt>
      <trkpt lat="45.306089" lon="6.943842">
        <ele>2097.033</ele>
        <time>2018-07-19T08:51:24Z</time>
      </trkpt>
      <trkpt lat="45.306112" lon="6.943901">
        <ele>2098.762</ele>
        <time>2018-07-19T08:51:39Z</time>
      </trkpt>
      <trkpt lat="45.306115" lon="6.943975">
        <ele>2099.775</ele>
        <time>2018-07-19T08:51:46Z</time>
      </trkpt>
      <trkpt lat="45.306113" lon="6.944040">
        <ele>2100.328</ele>
        <time>2018-07-19T08:51:52Z</time>
      </trkpt>
      <trkpt lat="45.306115" lon="6.944114">
        <ele>2101.120</ele>
        <time>2018-07-19T08:52:00Z</time>
      </trkpt>
      <trkpt lat="45.306119" lon="6.944187">
        <ele>2101.608</ele>
        <time>2018-07-19T08:52:08Z</time>
      </trkpt>
      <trkpt lat="45.306109" lon="6.944253">
        <ele>2101.549</ele>
        <time>2018-07-19T08:52:17Z</time>
      </trkpt>
      <trkpt lat="45.306112" lon="6.944320">
        <ele>2101.084</ele>
        <time>2018-07-19T08:52:27Z</time>
      </trkpt>
      <trkpt lat="45.306116" lon="6.944385">
        <ele>2100.739</ele>
        <time>2018-07-19T08:52:35Z</time>
      </trkpt>
      <trkpt lat="45.306124" lon="6.944456">
        <ele>2100.124</ele>
        <time>2018-07-19T08:52:44Z</time>
      </trkpt>
      <trkpt lat="45.306141" lon="6.944518">
        <ele>2100.219</ele>
        <time>2018-07-19T08:52:52Z</time>
      </trkpt>
      <trkpt lat="45.306155" lon="6.944584">
        <ele>2100.640</ele>
        <time>2018-07-19T08:52:59Z</time>
      </trkpt>
      <trkpt lat="45.306172" lon="6.944650">
        <ele>2101.318</ele>
        <time>2018-07-19T08:53:06Z</time>
      </trkpt>
      <trkpt lat="45.306177" lon="6.944722">
        <ele>2102.137</ele>
        <time>2018-07-19T08:53:13Z</time>
      </trkpt>
      <trkpt lat="45.306183" lon="6.944793">
        <ele>2103.041</ele>
        <time>2018-07-19T08:53:20Z</time>
      </trkpt>
      <trkpt lat="45.306196" lon="6.944855">
        <ele>2103.981</ele>
        <time>2018-07-19T08:53:27Z</time>
      </trkpt>
      <trkpt lat="45.306211" lon="6.944921">
        <ele>2104.909</ele>
        <time>2018-07-19T08:53:35Z</time>
      </trkpt>
      <trkpt lat="45.306241" lon="6.944974">
        <ele>2105.508</ele>
        <time>2018-07-19T08:53:51Z</time>
      </trkpt>
      <trkpt lat="45.306287" lon="6.944998">
        <ele>2106.286</ele>
        <time>2018-07-19T08:54:02Z</time>
      </trkpt>
      <trkpt lat="45.306330" lon="6.945023">
        <ele>2107.421</ele>
        <time>2018-07-19T08:54:14Z</time>
      </trkpt>
      <trkpt lat="45.306377" lon="6.945026">
        <ele>2108.956</ele>
        <time>2018-07-19T08:54:24Z</time>
      </trkpt>
      <trkpt lat="45.306423" lon="6.945033">
        <ele>2110.211</ele>
        <time>2018-07-19T08:54:31Z</time>
      </trkpt>
      <trkpt lat="45.306471" lon="6.945017">
        <ele>2111.846</ele>
        <time>2018-07-19T08:54:41Z</time>
      </trkpt>
      <trkpt lat="45.306514" lon="6.944992">
        <ele>2112.867</ele>
        <time>2018-07-19T08:54:49Z</time>
      </trkpt>
      <trkpt lat="45.306528" lon="6.944927">
        <ele>2113.825</ele>
        <time>2018-07-19T08:55:01Z</time>
      </trkpt>
      <trkpt lat="45.306499" lon="6.944878">
        <ele>2115.294</ele>
        <time>2018-07-19T08:55:08Z</time>
      </trkpt>
      <trkpt lat="45.306517" lon="6.944819">
        <ele>2116.443</ele>
        <time>2018-07-19T08:55:20Z</time>
      </trkpt>
      <trkpt lat="45.306557" lon="6.944789">
        <ele>2117.164</ele>
        <time>2018-07-19T08:55:30Z</time>
      </trkpt>
      <trkpt lat="45.306603" lon="6.944792">
        <ele>2117.510</ele>
        <time>2018-07-19T08:55:40Z</time>
      </trkpt>
      <trkpt lat="45.306644" lon="6.944829">
        <ele>2117.808</ele>
        <time>2018-07-19T08:55:51Z</time>
      </trkpt>
      <trkpt lat="45.306688" lon="6.944855">
        <ele>2118.466</ele>
        <time>2018-07-19T08:56:00Z</time>
      </trkpt>
      <trkpt lat="45.306728" lon="6.944885">
        <ele>2118.731</ele>
        <time>2018-07-19T08:56:08Z</time>
      </trkpt>
      <trkpt lat="45.306762" lon="6.944940">
        <ele>2119.376</ele>
        <time>2018-07-19T08:56:18Z</time>
      </trkpt>
      <trkpt lat="45.306792" lon="6.944994">
        <ele>2120.191</ele>
        <time>2018-07-19T08:56:28Z</time>
      </trkpt>
      <trkpt lat="45.306835" lon="6.945029">
        <ele>2121.016</ele>
        <time>2018-07-19T08:56:36Z</time>
      </trkpt>
      <trkpt lat="45.306875" lon="6.945061">
        <ele>2121.967</ele>
        <time>2018-07-19T08:56:44Z</time>
      </trkpt>
      <trkpt lat="45.306924" lon="6.945074">
        <ele>2123.275</ele>
        <time>2018-07-19T08:56:53Z</time>
      </trkpt>
      <trkpt lat="45.306972" lon="6.945061">
        <ele>2124.434</ele>
        <time>2018-07-19T08:57:03Z</time>
      </trkpt>
      <trkpt lat="45.307019" lon="6.945047">
        <ele>2125.927</ele>
        <time>2018-07-19T08:57:14Z</time>
      </trkpt>
      <trkpt lat="45.307053" lon="6.945093">
        <ele>2127.268</ele>
        <time>2018-07-19T08:57:31Z</time>
      </trkpt>
      <trkpt lat="45.307079" lon="6.945150">
        <ele>2128.414</ele>
        <time>2018-07-19T08:57:42Z</time>
      </trkpt>
      <trkpt lat="45.307080" lon="6.945222">
        <ele>2129.508</ele>
        <time>2018-07-19T08:57:52Z</time>
      </trkpt>
      <trkpt lat="45.307085" lon="6.945291">
        <ele>2130.224</ele>
        <time>2018-07-19T08:57:59Z</time>
      </trkpt>
      <trkpt lat="45.307095" lon="6.945361">
        <ele>2131.059</ele>
        <time>2018-07-19T08:58:07Z</time>
      </trkpt>
      <trkpt lat="45.307110" lon="6.945428">
        <ele>2131.554</ele>
        <time>2018-07-19T08:58:15Z</time>
      </trkpt>
      <trkpt lat="45.307135" lon="6.945487">
        <ele>2132.259</ele>
        <time>2018-07-19T08:58:22Z</time>
      </trkpt>
      <trkpt lat="45.307151" lon="6.945551">
        <ele>2133.024</ele>
        <time>2018-07-19T08:58:30Z</time>
      </trkpt>
      <trkpt lat="45.307171" lon="6.945615">
        <ele>2134.345</ele>
        <time>2018-07-19T08:58:38Z</time>
      </trkpt>
      <trkpt lat="45.307203" lon="6.945666">
        <ele>2135.583</ele>
        <time>2018-07-19T08:58:46Z</time>
      </trkpt>
      <trkpt lat="45.307233" lon="6.945716">
        <ele>2136.252</ele>
        <time>2018-07-19T08:58:55Z</time>
      </trkpt>
      <trkpt lat="45.307255" lon="6.945644">
        <ele>2137.863</ele>
        <time>2018-07-19T08:59:24Z</time>
      </trkpt>
      <trkpt lat="45.307246" lon="6.945572">
        <ele>2139.644</ele>
        <time>2018-07-19T08:59:35Z</time>
      </trkpt>
      <trkpt lat="45.307236" lon="6.945508">
        <ele>2140.718</ele>
        <time>2018-07-19T08:59:43Z</time>
      </trkpt>
      <trkpt lat="45.307230" lon="6.945441">
        <ele>2141.708</ele>
        <time>2018-07-19T08:59:52Z</time>
      </trkpt>
      <trkpt lat="45.307278" lon="6.945436">
        <ele>2142.788</ele>
        <time>2018-07-19T09:00:08Z</time>
      </trkpt>
      <trkpt lat="45.307317" lon="6.945477">
        <ele>2142.993</ele>
        <time>2018-07-19T09:00:40Z</time>
      </trkpt>
      <trkpt lat="45.307354" lon="6.945523">
        <ele>2144.248</ele>
        <time>2018-07-19T09:00:50Z</time>
      </trkpt>
      <trkpt lat="45.307374" lon="6.945584">
        <ele>2145.413</ele>
        <time>2018-07-19T09:00:58Z</time>
      </trkpt>
      <trkpt lat="45.307402" lon="6.945642">
        <ele>2146.528</ele>
        <time>2018-07-19T09:01:05Z</time>
      </trkpt>
      <trkpt lat="45.307439" lon="6.945686">
        <ele>2147.689</ele>
        <time>2018-07-19T09:01:12Z</time>
      </trkpt>
      <trkpt lat="45.307479" lon="6.945719">
        <ele>2147.837</ele>
        <time>2018-07-19T09:01:22Z</time>
      </trkpt>
      <trkpt lat="45.307510" lon="6.945771">
        <ele>2148.346</ele>
        <time>2018-07-19T09:01:31Z</time>
      </trkpt>
      <trkpt lat="45.307537" lon="6.945826">
        <ele>2149.054</ele>
        <time>2018-07-19T09:01:39Z</time>
      </trkpt>
      <trkpt lat="45.307548" lon="6.945762">
        <ele>2150.656</ele>
        <time>2018-07-19T09:02:00Z</time>
      </trkpt>
      <trkpt lat="45.307548" lon="6.945697">
        <ele>2152.011</ele>
        <time>2018-07-19T09:02:09Z</time>
      </trkpt>
      <trkpt lat="45.307596" lon="6.945715">
        <ele>2153.208</ele>
        <time>2018-07-19T09:02:21Z</time>
      </trkpt>
      <trkpt lat="45.307630" lon="6.945760">
        <ele>2154.357</ele>
        <time>2018-07-19T09:02:30Z</time>
      </trkpt>
      <trkpt lat="45.307662" lon="6.945812">
        <ele>2155.412</ele>
        <time>2018-07-19T09:02:39Z</time>
      </trkpt>
      <trkpt lat="45.307675" lon="6.945876">
        <ele>2156.457</ele>
        <time>2018-07-19T09:02:47Z</time>
      </trkpt>
      <trkpt lat="45.307685" lon="6.945939">
        <ele>2157.452</ele>
        <time>2018-07-19T09:02:55Z</time>
      </trkpt>
      <trkpt lat="45.307702" lon="6.946003">
        <ele>2158.427</ele>
        <time>2018-07-19T09:03:05Z</time>
      </trkpt>
      <trkpt lat="45.307730" lon="6.946055">
        <ele>2159.478</ele>
        <time>2018-07-19T09:03:16Z</time>
      </trkpt>
      <trkpt lat="45.307761" lon="6.946104">
        <ele>2160.466</ele>
        <time>2018-07-19T09:03:28Z</time>
      </trkpt>
      <trkpt lat="45.307777" lon="6.946168">
        <ele>2161.025</ele>
        <time>2018-07-19T09:03:50Z</time>
      </trkpt>
      <trkpt lat="45.307804" lon="6.946224">
        <ele>2161.492</ele>
        <time>2018-07-19T09:04:02Z</time>
      </trkpt>
      <trkpt lat="45.307840" lon="6.946265">
        <ele>2162.873</ele>
        <time>2018-07-19T09:04:12Z</time>
      </trkpt>
      <trkpt lat="45.307867" lon="6.946211">
        <ele>2164.120</ele>
        <time>2018-07-19T09:04:29Z</time>
      </trkpt>
      <trkpt lat="45.307883" lon="6.946147">
        <ele>2165.308</ele>
        <time>2018-07-19T09:04:40Z</time>
      </trkpt>
      <trkpt lat="45.307881" lon="6.946078">
        <ele>2166.891</ele>
        <time>2018-07-19T09:04:54Z</time>
      </trkpt>
      <trkpt lat="45.307927" lon="6.946101">
        <ele>2168.996</ele>
        <time>2018-07-19T09:05:20Z</time>
      </trkpt>
      <trkpt lat="45.307970" lon="6.946125">
        <ele>2170.221</ele>
        <time>2018-07-19T09:05:31Z</time>
      </trkpt>
      <trkpt lat="45.308013" lon="6.946102">
        <ele>2173.096</ele>
        <time>2018-07-19T09:06:07Z</time>
      </trkpt>
      <trkpt lat="45.308046" lon="6.946147">
        <ele>2175.961</ele>
        <time>2018-07-19T09:06:24Z</time>
      </trkpt>
      <trkpt lat="45.308081" lon="6.946196">
        <ele>2177.682</ele>
        <time>2018-07-19T09:06:45Z</time>
      </trkpt>
      <trkpt lat="45.308088" lon="6.946245">
        <ele>2179.670</ele>
        <time>2018-07-19T09:21:48Z</time>
      </trkpt>
      <trkpt lat="45.308109" lon="6.946313">
        <ele>2181.389</ele>
        <time>2018-07-19T09:21:57Z</time>
      </trkpt>
      <trkpt lat="45.308145" lon="6.946368">
        <ele>2182.185</ele>
        <time>2018-07-19T09:22:06Z</time>
      </trkpt>
      <trkpt lat="45.308190" lon="6.946398">
        <ele>2182.289</ele>
        <time>2018-07-19T09:22:13Z</time>
      </trkpt>
      <trkpt lat="45.308233" lon="6.946436">
        <ele>2182.317</ele>
        <time>2018-07-19T09:22:18Z</time>
      </trkpt>
      <trkpt lat="45.308283" lon="6.946457">
        <ele>2182.008</ele>
        <time>2018-07-19T09:22:23Z</time>
      </trkpt>
      <trkpt lat="45.308334" lon="6.946458">
        <ele>2182.230</ele>
        <time>2018-07-19T09:22:29Z</time>
      </trkpt>
      <trkpt lat="45.308379" lon="6.946462">
        <ele>2182.775</ele>
        <time>2018-07-19T09:22:35Z</time>
      </trkpt>
      <trkpt lat="45.308412" lon="6.946506">
        <ele>2183.050</ele>
        <time>2018-07-19T09:22:42Z</time>
      </trkpt>
      <trkpt lat="45.308437" lon="6.946563">
        <ele>2183.275</ele>
        <time>2018-07-19T09:22:49Z</time>
      </trkpt>
      <trkpt lat="45.308465" lon="6.946615">
        <ele>2183.380</ele>
        <time>2018-07-19T09:22:56Z</time>
      </trkpt>
      <trkpt lat="45.308502" lon="6.946657">
        <ele>2183.811</ele>
        <time>2018-07-19T09:23:04Z</time>
      </trkpt>
      <trkpt lat="45.308531" lon="6.946707">
        <ele>2184.569</ele>
        <time>2018-07-19T09:23:13Z</time>
      </trkpt>
      <trkpt lat="45.308558" lon="6.946758">
        <ele>2185.368</ele>
        <time>2018-07-19T09:23:20Z</time>
      </trkpt>
      <trkpt lat="45.308594" lon="6.946799">
        <ele>2186.219</ele>
        <time>2018-07-19T09:23:27Z</time>
      </trkpt>
      <trkpt lat="45.308624" lon="6.946849">
        <ele>2187.109</ele>
        <time>2018-07-19T09:23:35Z</time>
      </trkpt>
      <trkpt lat="45.308659" lon="6.946896">
        <ele>2188.519</ele>
        <time>2018-07-19T09:23:44Z</time>
      </trkpt>
      <trkpt lat="45.308699" lon="6.946927">
        <ele>2190.108</ele>
        <time>2018-07-19T09:23:52Z</time>
      </trkpt>
      <trkpt lat="45.308744" lon="6.946956">
        <ele>2191.553</ele>
        <time>2018-07-19T09:23:59Z</time>
      </trkpt>
      <trkpt lat="45.308772" lon="6.947011">
        <ele>2192.328</ele>
        <time>2018-07-19T09:24:07Z</time>
      </trkpt>
      <trkpt lat="45.308794" lon="6.947068">
        <ele>2193.243</ele>
        <time>2018-07-19T09:24:14Z</time>
      </trkpt>
      <trkpt lat="45.308821" lon="6.947121">
        <ele>2193.768</ele>
        <time>2018-07-19T09:24:20Z</time>
      </trkpt>
      <trkpt lat="45.308844" lon="6.947177">
        <ele>2194.063</ele>
        <time>2018-07-19T09:24:27Z</time>
      </trkpt>
      <trkpt lat="45.308860" lon="6.947240">
        <ele>2194.624</ele>
        <time>2018-07-19T09:24:35Z</time>
      </trkpt>
      <trkpt lat="45.308882" lon="6.947301">
        <ele>2195.492</ele>
        <time>2018-07-19T09:24:45Z</time>
      </trkpt>
      <trkpt lat="45.308916" lon="6.947351">
        <ele>2196.751</ele>
        <time>2018-07-19T09:24:52Z</time>
      </trkpt>
      <trkpt lat="45.308951" lon="6.947403">
        <ele>2197.958</ele>
        <time>2018-07-19T09:24:59Z</time>
      </trkpt>
      <trkpt lat="45.308967" lon="6.947469">
        <ele>2198.652</ele>
        <time>2018-07-19T09:25:05Z</time>
      </trkpt>
      <trkpt lat="45.308976" lon="6.947536">
        <ele>2198.617</ele>
        <time>2018-07-19T09:25:11Z</time>
      </trkpt>
      <trkpt lat="45.308993" lon="6.947603">
        <ele>2199.008</ele>
        <time>2018-07-19T09:25:18Z</time>
      </trkpt>
      <trkpt lat="45.309023" lon="6.947660">
        <ele>2199.267</ele>
        <time>2018-07-19T09:25:26Z</time>
      </trkpt>
      <trkpt lat="45.309041" lon="6.947726">
        <ele>2199.782</ele>
        <time>2018-07-19T09:25:34Z</time>
      </trkpt>
      <trkpt lat="45.309059" lon="6.947786">
        <ele>2200.057</ele>
        <time>2018-07-19T09:25:42Z</time>
      </trkpt>
      <trkpt lat="45.309103" lon="6.947820">
        <ele>2201.012</ele>
        <time>2018-07-19T09:25:51Z</time>
      </trkpt>
      <trkpt lat="45.309138" lon="6.947863">
        <ele>2202.027</ele>
        <time>2018-07-19T09:25:59Z</time>
      </trkpt>
      <trkpt lat="45.309181" lon="6.947900">
        <ele>2202.658</ele>
        <time>2018-07-19T09:26:08Z</time>
      </trkpt>
      <trkpt lat="45.309226" lon="6.947909">
        <ele>2203.846</ele>
        <time>2018-07-19T09:26:16Z</time>
      </trkpt>
      <trkpt lat="45.309273" lon="6.947903">
        <ele>2204.945</ele>
        <time>2018-07-19T09:26:24Z</time>
      </trkpt>
      <trkpt lat="45.309322" lon="6.947906">
        <ele>2206.043</ele>
        <time>2018-07-19T09:26:37Z</time>
      </trkpt>
      <trkpt lat="45.309345" lon="6.947964">
        <ele>2207.064</ele>
        <time>2018-07-19T09:26:52Z</time>
      </trkpt>
      <trkpt lat="45.309392" lon="6.947984">
        <ele>2208.010</ele>
        <time>2018-07-19T09:27:02Z</time>
      </trkpt>
      <trkpt lat="45.309435" lon="6.948007">
        <ele>2209.808</ele>
        <time>2018-07-19T09:27:15Z</time>
      </trkpt>
      <trkpt lat="45.309470" lon="6.948050">
        <ele>2210.936</ele>
        <time>2018-07-19T09:27:27Z</time>
      </trkpt>
      <trkpt lat="45.309501" lon="6.948100">
        <ele>2212.451</ele>
        <time>2018-07-19T09:27:38Z</time>
      </trkpt>
      <trkpt lat="45.309532" lon="6.948156">
        <ele>2213.786</ele>
        <time>2018-07-19T09:27:48Z</time>
      </trkpt>
      <trkpt lat="45.309571" lon="6.948196">
        <ele>2214.931</ele>
        <time>2018-07-19T09:27:58Z</time>
      </trkpt>
      <trkpt lat="45.309618" lon="6.948208">
        <ele>2216.486</ele>
        <time>2018-07-19T09:28:08Z</time>
      </trkpt>
      <trkpt lat="45.309665" lon="6.948226">
        <ele>2217.347</ele>
        <time>2018-07-19T09:28:21Z</time>
      </trkpt>
      <trkpt lat="45.309701" lon="6.948269">
        <ele>2218.285</ele>
        <time>2018-07-19T09:28:34Z</time>
      </trkpt>
      <trkpt lat="45.309723" lon="6.948329">
        <ele>2218.864</ele>
        <time>2018-07-19T09:28:54Z</time>
      </trkpt>
      <trkpt lat="45.309757" lon="6.948374">
        <ele>2219.993</ele>
        <time>2018-07-19T09:29:08Z</time>
      </trkpt>
      <trkpt lat="45.309794" lon="6.948419">
        <ele>2221.065</ele>
        <time>2018-07-19T09:29:23Z</time>
      </trkpt>
      <trkpt lat="45.309830" lon="6.948463">
        <ele>2222.021</ele>
        <time>2018-07-19T09:29:37Z</time>
      </trkpt>
      <trkpt lat="45.309879" lon="6.948460">
        <ele>2223.008</ele>
        <time>2018-07-19T09:29:54Z</time>
      </trkpt>
      <trkpt lat="45.309926" lon="6.948477">
        <ele>2223.671</ele>
        <time>2018-07-19T09:30:05Z</time>
      </trkpt>
      <trkpt lat="45.309949" lon="6.948540">
        <ele>2224.496</ele>
        <time>2018-07-19T09:30:27Z</time>
      </trkpt>
      <trkpt lat="45.309967" lon="6.948601">
        <ele>2226.161</ele>
        <time>2018-07-19T09:30:52Z</time>
      </trkpt>
      <trkpt lat="45.309983" lon="6.948661">
        <ele>2228.366</ele>
        <time>2018-07-19T09:31:15Z</time>
      </trkpt>
      <trkpt lat="45.309992" lon="6.948724">
        <ele>2230.091</ele>
        <time>2018-07-19T09:31:25Z</time>
      </trkpt>
      <trkpt lat="45.310003" lon="6.948791">
        <ele>2231.442</ele>
        <time>2018-07-19T09:31:34Z</time>
      </trkpt>
      <trkpt lat="45.310023" lon="6.948849">
        <ele>2233.120</ele>
        <time>2018-07-19T09:31:42Z</time>
      </trkpt>
      <trkpt lat="45.310031" lon="6.948915">
        <ele>2234.559</ele>
        <time>2018-07-19T09:31:52Z</time>
      </trkpt>
      <trkpt lat="45.310053" lon="6.948975">
        <ele>2236.568</ele>
        <time>2018-07-19T09:32:03Z</time>
      </trkpt>
      <trkpt lat="45.310099" lon="6.948987">
        <ele>2238.142</ele>
        <time>2018-07-19T09:32:28Z</time>
      </trkpt>
      <trkpt lat="45.310145" lon="6.948996">
        <ele>2239.926</ele>
        <time>2018-07-19T09:32:37Z</time>
      </trkpt>
      <trkpt lat="45.310191" lon="6.949004">
        <ele>2241.408</ele>
        <time>2018-07-19T09:32:47Z</time>
      </trkpt>
      <trkpt lat="45.310231" lon="6.949038">
        <ele>2242.788</ele>
        <time>2018-07-19T09:33:00Z</time>
      </trkpt>
      <trkpt lat="45.310274" lon="6.949064">
        <ele>2243.943</ele>
        <time>2018-07-19T09:33:12Z</time>
      </trkpt>
      <trkpt lat="45.310303" lon="6.949114">
        <ele>2245.428</ele>
        <time>2018-07-19T09:33:25Z</time>
      </trkpt>
      <trkpt lat="45.310349" lon="6.949118">
        <ele>2246.323</ele>
        <time>2018-07-19T09:33:38Z</time>
      </trkpt>
      <trkpt lat="45.310380" lon="6.949066">
        <ele>2246.488</ele>
        <time>2018-07-19T09:33:49Z</time>
      </trkpt>
      <trkpt lat="45.310394" lon="6.949003">
        <ele>2246.139</ele>
        <time>2018-07-19T09:33:56Z</time>
      </trkpt>
      <trkpt lat="45.310390" lon="6.948934">
        <ele>2246.747</ele>
        <time>2018-07-19T09:34:04Z</time>
      </trkpt>
      <trkpt lat="45.310401" lon="6.948869">
        <ele>2247.596</ele>
        <time>2018-07-19T09:34:12Z</time>
      </trkpt>
      <trkpt lat="45.310424" lon="6.948810">
        <ele>2247.651</ele>
        <time>2018-07-19T09:34:22Z</time>
      </trkpt>
      <trkpt lat="45.310432" lon="6.948743">
        <ele>2248.401</ele>
        <time>2018-07-19T09:34:32Z</time>
      </trkpt>
      <trkpt lat="45.310455" lon="6.948687">
        <ele>2248.911</ele>
        <time>2018-07-19T09:34:43Z</time>
      </trkpt>
      <trkpt lat="45.310468" lon="6.948618">
        <ele>2250.408</ele>
        <time>2018-07-19T09:34:54Z</time>
      </trkpt>
      <trkpt lat="45.310468" lon="6.948544">
        <ele>2251.317</ele>
        <time>2018-07-19T09:35:01Z</time>
      </trkpt>
      <trkpt lat="45.310467" lon="6.948479">
        <ele>2252.662</ele>
        <time>2018-07-19T09:35:15Z</time>
      </trkpt>
      <trkpt lat="45.310463" lon="6.948400">
        <ele>2254.267</ele>
        <time>2018-07-19T09:35:36Z</time>
      </trkpt>
      <trkpt lat="45.310465" lon="6.948330">
        <ele>2255.272</ele>
        <time>2018-07-19T09:35:46Z</time>
      </trkpt>
      <trkpt lat="45.310476" lon="6.948262">
        <ele>2256.217</ele>
        <time>2018-07-19T09:35:56Z</time>
      </trkpt>
      <trkpt lat="45.310464" lon="6.948193">
        <ele>2257.268</ele>
        <time>2018-07-19T09:36:03Z</time>
      </trkpt>
      <trkpt lat="45.310460" lon="6.948123">
        <ele>2258.666</ele>
        <time>2018-07-19T09:36:13Z</time>
      </trkpt>
      <trkpt lat="45.310447" lon="6.948056">
        <ele>2260.265</ele>
        <time>2018-07-19T09:36:21Z</time>
      </trkpt>
      <trkpt lat="45.310450" lon="6.947991">
        <ele>2261.273</ele>
        <time>2018-07-19T09:36:28Z</time>
      </trkpt>
      <trkpt lat="45.310461" lon="6.947929">
        <ele>2261.885</ele>
        <time>2018-07-19T09:36:35Z</time>
      </trkpt>
      <trkpt lat="45.310484" lon="6.947872">
        <ele>2262.613</ele>
        <time>2018-07-19T09:36:42Z</time>
      </trkpt>
      <trkpt lat="45.310508" lon="6.947811">
        <ele>2263.508</ele>
        <time>2018-07-19T09:36:51Z</time>
      </trkpt>
      <trkpt lat="45.310536" lon="6.947761">
        <ele>2264.059</ele>
        <time>2018-07-19T09:37:01Z</time>
      </trkpt>
      <trkpt lat="45.310567" lon="6.947707">
        <ele>2264.374</ele>
        <time>2018-07-19T09:37:11Z</time>
      </trkpt>
      <trkpt lat="45.310574" lon="6.947636">
        <ele>2264.969</ele>
        <time>2018-07-19T09:37:21Z</time>
      </trkpt>
      <trkpt lat="45.310579" lon="6.947565">
        <ele>2266.134</ele>
        <time>2018-07-19T09:37:29Z</time>
      </trkpt>
      <trkpt lat="45.310576" lon="6.947500">
        <ele>2267.259</ele>
        <time>2018-07-19T09:37:36Z</time>
      </trkpt>
      <trkpt lat="45.310585" lon="6.947433">
        <ele>2267.550</ele>
        <time>2018-07-19T09:37:45Z</time>
      </trkpt>
      <trkpt lat="45.310591" lon="6.947369">
        <ele>2268.138</ele>
        <time>2018-07-19T09:37:55Z</time>
      </trkpt>
      <trkpt lat="45.310582" lon="6.947296">
        <ele>2268.857</ele>
        <time>2018-07-19T09:38:04Z</time>
      </trkpt>
      <trkpt lat="45.310563" lon="6.947238">
        <ele>2269.696</ele>
        <time>2018-07-19T09:38:10Z</time>
      </trkpt>
      <trkpt lat="45.310550" lon="6.947174">
        <ele>2270.531</ele>
        <time>2018-07-19T09:38:18Z</time>
      </trkpt>
      <trkpt lat="45.310528" lon="6.947112">
        <ele>2271.024</ele>
        <time>2018-07-19T09:38:25Z</time>
      </trkpt>
      <trkpt lat="45.310513" lon="6.947050">
        <ele>2271.708</ele>
        <time>2018-07-19T09:38:34Z</time>
      </trkpt>
      <trkpt lat="45.310497" lon="6.946987">
        <ele>2272.151</ele>
        <time>2018-07-19T09:38:41Z</time>
      </trkpt>
      <trkpt lat="45.310470" lon="6.946935">
        <ele>2272.866</ele>
        <time>2018-07-19T09:38:49Z</time>
      </trkpt>
      <trkpt lat="45.310425" lon="6.946901">
        <ele>2273.641</ele>
        <time>2018-07-19T09:38:56Z</time>
      </trkpt>
      <trkpt lat="45.310387" lon="6.946860">
        <ele>2274.156</ele>
        <time>2018-07-19T09:39:04Z</time>
      </trkpt>
      <trkpt lat="45.310353" lon="6.946816">
        <ele>2275.261</ele>
        <time>2018-07-19T09:39:13Z</time>
      </trkpt>
      <trkpt lat="45.310334" lon="6.946755">
        <ele>2276.722</ele>
        <time>2018-07-19T09:39:26Z</time>
      </trkpt>
      <trkpt lat="45.310306" lon="6.946696">
        <ele>2278.050</ele>
        <time>2018-07-19T09:39:36Z</time>
      </trkpt>
      <trkpt lat="45.310294" lon="6.946630">
        <ele>2279.219</ele>
        <time>2018-07-19T09:39:45Z</time>
      </trkpt>
      <trkpt lat="45.310292" lon="6.946566">
        <ele>2280.752</ele>
        <time>2018-07-19T09:39:55Z</time>
      </trkpt>
      <trkpt lat="45.310288" lon="6.946498">
        <ele>2281.653</ele>
        <time>2018-07-19T09:40:05Z</time>
      </trkpt>
      <trkpt lat="45.310294" lon="6.946430">
        <ele>2282.108</ele>
        <time>2018-07-19T09:40:16Z</time>
      </trkpt>
      <trkpt lat="45.310307" lon="6.946363">
        <ele>2282.808</ele>
        <time>2018-07-19T09:40:28Z</time>
      </trkpt>
      <trkpt lat="45.310293" lon="6.946302">
        <ele>2283.627</ele>
        <time>2018-07-19T09:40:37Z</time>
      </trkpt>
      <trkpt lat="45.310281" lon="6.946238">
        <ele>2284.972</ele>
        <time>2018-07-19T09:40:48Z</time>
      </trkpt>
      <trkpt lat="45.310274" lon="6.946167">
        <ele>2286.197</ele>
        <time>2018-07-19T09:40:58Z</time>
      </trkpt>
      <trkpt lat="45.310265" lon="6.946098">
        <ele>2287.262</ele>
        <time>2018-07-19T09:41:09Z</time>
      </trkpt>
      <trkpt lat="45.310260" lon="6.946030">
        <ele>2287.927</ele>
        <time>2018-07-19T09:41:19Z</time>
      </trkpt>
      <trkpt lat="45.310250" lon="6.945960">
        <ele>2288.738</ele>
        <time>2018-07-19T09:41:26Z</time>
      </trkpt>
      <trkpt lat="45.310252" lon="6.945888">
        <ele>2289.636</ele>
        <time>2018-07-19T09:41:33Z</time>
      </trkpt>
      <trkpt lat="45.310269" lon="6.945824">
        <ele>2289.785</ele>
        <time>2018-07-19T09:41:41Z</time>
      </trkpt>
      <trkpt lat="45.310276" lon="6.945753">
        <ele>2290.675</ele>
        <time>2018-07-19T09:41:48Z</time>
      </trkpt>
      <trkpt lat="45.310282" lon="6.945689">
        <ele>2291.128</ele>
        <time>2018-07-19T09:41:53Z</time>
      </trkpt>
      <trkpt lat="45.310293" lon="6.945625">
        <ele>2291.420</ele>
        <time>2018-07-19T09:41:58Z</time>
      </trkpt>
      <trkpt lat="45.310304" lon="6.945557">
        <ele>2292.008</ele>
        <time>2018-07-19T09:42:04Z</time>
      </trkpt>
      <trkpt lat="45.310309" lon="6.945485">
        <ele>2292.829</ele>
        <time>2018-07-19T09:42:10Z</time>
      </trkpt>
      <trkpt lat="45.310314" lon="6.945419">
        <ele>2293.324</ele>
        <time>2018-07-19T09:42:15Z</time>
      </trkpt>
      <trkpt lat="45.310329" lon="6.945350">
        <ele>2293.639</ele>
        <time>2018-07-19T09:42:21Z</time>
      </trkpt>
      <trkpt lat="45.310341" lon="6.945286">
        <ele>2294.264</ele>
        <time>2018-07-19T09:42:26Z</time>
      </trkpt>
      <trkpt lat="45.310364" lon="6.945224">
        <ele>2294.569</ele>
        <time>2018-07-19T09:42:32Z</time>
      </trkpt>
      <trkpt lat="45.310390" lon="6.945167">
        <ele>2294.780</ele>
        <time>2018-07-19T09:42:39Z</time>
      </trkpt>
      <trkpt lat="45.310413" lon="6.945107">
        <ele>2294.878</ele>
        <time>2018-07-19T09:42:47Z</time>
      </trkpt>
      <trkpt lat="45.310423" lon="6.945042">
        <ele>2295.357</ele>
        <time>2018-07-19T09:42:53Z</time>
      </trkpt>
      <trkpt lat="45.310430" lon="6.944971">
        <ele>2296.064</ele>
        <time>2018-07-19T09:42:59Z</time>
      </trkpt>
      <trkpt lat="45.310425" lon="6.944904">
        <ele>2296.806</ele>
        <time>2018-07-19T09:43:05Z</time>
      </trkpt>
      <trkpt lat="45.310421" lon="6.944840">
        <ele>2297.716</ele>
        <time>2018-07-19T09:43:11Z</time>
      </trkpt>
      <trkpt lat="45.310430" lon="6.944775">
        <ele>2298.608</ele>
        <time>2018-07-19T09:43:19Z</time>
      </trkpt>
      <trkpt lat="45.310439" lon="6.944706">
        <ele>2298.838</ele>
        <time>2018-07-19T09:43:27Z</time>
      </trkpt>
      <trkpt lat="45.310453" lon="6.944645">
        <ele>2299.763</ele>
        <time>2018-07-19T09:43:36Z</time>
      </trkpt>
      <trkpt lat="45.310465" lon="6.944579">
        <ele>2300.648</ele>
        <time>2018-07-19T09:43:47Z</time>
      </trkpt>
      <trkpt lat="45.310470" lon="6.944511">
        <ele>2301.673</ele>
        <time>2018-07-19T09:44:15Z</time>
      </trkpt>
      <trkpt lat="45.310484" lon="6.944450">
        <ele>2302.618</ele>
        <time>2018-07-19T09:44:24Z</time>
      </trkpt>
      <trkpt lat="45.310496" lon="6.944385">
        <ele>2303.639</ele>
        <time>2018-07-19T09:44:35Z</time>
      </trkpt>
      <trkpt lat="45.310504" lon="6.944317">
        <ele>2305.047</ele>
        <time>2018-07-19T09:44:45Z</time>
      </trkpt>
      <trkpt lat="45.310517" lon="6.944253">
        <ele>2305.886</ele>
        <time>2018-07-19T09:44:54Z</time>
      </trkpt>
      <trkpt lat="45.310518" lon="6.944183">
        <ele>2307.126</ele>
        <time>2018-07-19T09:45:03Z</time>
      </trkpt>
      <trkpt lat="45.310522" lon="6.944109">
        <ele>2308.347</ele>
        <time>2018-07-19T09:45:13Z</time>
      </trkpt>
      <trkpt lat="45.310523" lon="6.944045">
        <ele>2309.011</ele>
        <time>2018-07-19T09:45:21Z</time>
      </trkpt>
      <trkpt lat="45.310523" lon="6.943979">
        <ele>2309.408</ele>
        <time>2018-07-19T09:45:31Z</time>
      </trkpt>
      <trkpt lat="45.310536" lon="6.943912">
        <ele>2310.144</ele>
        <time>2018-07-19T09:45:41Z</time>
      </trkpt>
      <trkpt lat="45.310540" lon="6.943841">
        <ele>2310.539</ele>
        <time>2018-07-19T09:45:47Z</time>
      </trkpt>
      <trkpt lat="45.310529" lon="6.943771">
        <ele>2310.784</ele>
        <time>2018-07-19T09:45:53Z</time>
      </trkpt>
      <trkpt lat="45.310505" lon="6.943713">
        <ele>2310.869</ele>
        <time>2018-07-19T09:45:59Z</time>
      </trkpt>
      <trkpt lat="45.310487" lon="6.943652">
        <ele>2311.334</ele>
        <time>2018-07-19T09:46:05Z</time>
      </trkpt>
      <trkpt lat="45.310485" lon="6.943587">
        <ele>2311.645</ele>
        <time>2018-07-19T09:46:14Z</time>
      </trkpt>
      <trkpt lat="45.310484" lon="6.943521">
        <ele>2312.273</ele>
        <time>2018-07-19T09:46:26Z</time>
      </trkpt>
      <trkpt lat="45.310484" lon="6.943457">
        <ele>2312.962</ele>
        <time>2018-07-19T09:46:35Z</time>
      </trkpt>
      <trkpt lat="45.310498" lon="6.943393">
        <ele>2313.715</ele>
        <time>2018-07-19T09:46:45Z</time>
      </trkpt>
      <trkpt lat="45.310504" lon="6.943329">
        <ele>2314.665</ele>
        <time>2018-07-19T09:46:54Z</time>
      </trkpt>
      <trkpt lat="45.310515" lon="6.943262">
        <ele>2315.511</ele>
        <time>2018-07-19T09:47:04Z</time>
      </trkpt>
      <trkpt lat="45.310508" lon="6.943197">
        <ele>2316.508</ele>
        <time>2018-07-19T09:47:14Z</time>
      </trkpt>
      <trkpt lat="45.310487" lon="6.943140">
        <ele>2317.583</ele>
        <time>2018-07-19T09:47:21Z</time>
      </trkpt>
      <trkpt lat="45.310481" lon="6.943071">
        <ele>2318.128</ele>
        <time>2018-07-19T09:47:29Z</time>
      </trkpt>
      <trkpt lat="45.310486" lon="6.943000">
        <ele>2318.993</ele>
        <time>2018-07-19T09:47:36Z</time>
      </trkpt>
      <trkpt lat="45.310497" lon="6.942927">
        <ele>2319.038</ele>
        <time>2018-07-19T09:47:43Z</time>
      </trkpt>
      <trkpt lat="45.310498" lon="6.942855">
        <ele>2319.413</ele>
        <time>2018-07-19T09:47:51Z</time>
      </trkpt>
      <trkpt lat="45.310505" lon="6.942785">
        <ele>2320.164</ele>
        <time>2018-07-19T09:47:58Z</time>
      </trkpt>
      <trkpt lat="45.310514" lon="6.942713">
        <ele>2320.942</ele>
        <time>2018-07-19T09:48:05Z</time>
      </trkpt>
      <trkpt lat="45.310524" lon="6.942648">
        <ele>2321.071</ele>
        <time>2018-07-19T09:48:11Z</time>
      </trkpt>
      <trkpt lat="45.310530" lon="6.942583">
        <ele>2321.073</ele>
        <time>2018-07-19T09:48:17Z</time>
      </trkpt>
      <trkpt lat="45.310537" lon="6.942517">
        <ele>2321.885</ele>
        <time>2018-07-19T09:48:24Z</time>
      </trkpt>
      <trkpt lat="45.310540" lon="6.942451">
        <ele>2322.713</ele>
        <time>2018-07-19T09:48:31Z</time>
      </trkpt>
      <trkpt lat="45.310544" lon="6.942381">
        <ele>2323.208</ele>
        <time>2018-07-19T09:48:38Z</time>
      </trkpt>
      <trkpt lat="45.310547" lon="6.942316">
        <ele>2323.949</ele>
        <time>2018-07-19T09:48:44Z</time>
      </trkpt>
      <trkpt lat="45.310551" lon="6.942244">
        <ele>2324.714</ele>
        <time>2018-07-19T09:48:51Z</time>
      </trkpt>
      <trkpt lat="45.310556" lon="6.942180">
        <ele>2325.659</ele>
        <time>2018-07-19T09:48:58Z</time>
      </trkpt>
      <trkpt lat="45.310557" lon="6.942113">
        <ele>2326.174</ele>
        <time>2018-07-19T09:49:05Z</time>
      </trkpt>
      <trkpt lat="45.310562" lon="6.942044">
        <ele>2326.449</ele>
        <time>2018-07-19T09:49:12Z</time>
      </trkpt>
      <trkpt lat="45.310556" lon="6.941975">
        <ele>2326.610</ele>
        <time>2018-07-19T09:49:20Z</time>
      </trkpt>
      <trkpt lat="45.310562" lon="6.941906">
        <ele>2327.158</ele>
        <time>2018-07-19T09:49:30Z</time>
      </trkpt>
      <trkpt lat="45.310582" lon="6.941844">
        <ele>2327.497</ele>
        <time>2018-07-19T09:49:39Z</time>
      </trkpt>
      <trkpt lat="45.310593" lon="6.941782">
        <ele>2328.084</ele>
        <time>2018-07-19T09:49:49Z</time>
      </trkpt>
      <trkpt lat="45.310604" lon="6.941715">
        <ele>2329.207</ele>
        <time>2018-07-19T09:50:05Z</time>
      </trkpt>
      <trkpt lat="45.310638" lon="6.941669">
        <ele>2330.317</ele>
        <time>2018-07-19T09:50:19Z</time>
      </trkpt>
      <trkpt lat="45.310652" lon="6.941607">
        <ele>2331.008</ele>
        <time>2018-07-19T09:50:31Z</time>
      </trkpt>
      <trkpt lat="45.310676" lon="6.941549">
        <ele>2331.470</ele>
        <time>2018-07-19T09:50:54Z</time>
      </trkpt>
      <trkpt lat="45.310701" lon="6.941495">
        <ele>2332.045</ele>
        <time>2018-07-19T09:51:04Z</time>
      </trkpt>
      <trkpt lat="45.310720" lon="6.941435">
        <ele>2333.660</ele>
        <time>2018-07-19T09:51:19Z</time>
      </trkpt>
      <trkpt lat="45.310736" lon="6.941373">
        <ele>2334.545</ele>
        <time>2018-07-19T09:51:38Z</time>
      </trkpt>
      <trkpt lat="45.310746" lon="6.941308">
        <ele>2335.960</ele>
        <time>2018-07-19T09:51:50Z</time>
      </trkpt>
      <trkpt lat="45.310773" lon="6.941254">
        <ele>2337.171</ele>
        <time>2018-07-19T09:52:04Z</time>
      </trkpt>
      <trkpt lat="45.310791" lon="6.941193">
        <ele>2339.019</ele>
        <time>2018-07-19T09:52:16Z</time>
      </trkpt>
      <trkpt lat="45.310791" lon="6.941129">
        <ele>2340.218</ele>
        <time>2018-07-19T09:52:29Z</time>
      </trkpt>
      <trkpt lat="45.310786" lon="6.941064">
        <ele>2341.342</ele>
        <time>2018-07-19T09:52:42Z</time>
      </trkpt>
      <trkpt lat="45.310775" lon="6.940997">
        <ele>2342.822</ele>
        <time>2018-07-19T09:52:53Z</time>
      </trkpt>
      <trkpt lat="45.310766" lon="6.940929">
        <ele>2344.114</ele>
        <time>2018-07-19T09:53:06Z</time>
      </trkpt>
      <trkpt lat="45.310752" lon="6.940862">
        <ele>2345.308</ele>
        <time>2018-07-19T09:53:16Z</time>
      </trkpt>
      <trkpt lat="45.310753" lon="6.940794">
        <ele>2346.096</ele>
        <time>2018-07-19T09:53:26Z</time>
      </trkpt>
      <trkpt lat="45.310755" lon="6.940725">
        <ele>2347.221</ele>
        <time>2018-07-19T09:53:37Z</time>
      </trkpt>
      <trkpt lat="45.310754" lon="6.940659">
        <ele>2348.356</ele>
        <time>2018-07-19T09:53:49Z</time>
      </trkpt>
      <trkpt lat="45.310750" lon="6.940589">
        <ele>2349.891</ele>
        <time>2018-07-19T09:54:00Z</time>
      </trkpt>
      <trkpt lat="45.310743" lon="6.940524">
        <ele>2350.776</ele>
        <time>2018-07-19T09:54:10Z</time>
      </trkpt>
      <trkpt lat="45.310752" lon="6.940456">
        <ele>2352.017</ele>
        <time>2018-07-19T09:55:10Z</time>
      </trkpt>
      <trkpt lat="45.310706" lon="6.940425">
        <ele>2352.895</ele>
        <time>2018-07-19T09:55:32Z</time>
      </trkpt>
      <trkpt lat="45.310752" lon="6.940424">
        <ele>2353.364</ele>
        <time>2018-07-19T09:55:51Z</time>
      </trkpt>
      <trkpt lat="45.310784" lon="6.940372">
        <ele>2353.622</ele>
        <time>2018-07-19T09:55:58Z</time>
      </trkpt>
      <trkpt lat="45.310788" lon="6.940302">
        <ele>2353.462</ele>
        <time>2018-07-19T09:56:03Z</time>
      </trkpt>
      <trkpt lat="45.310793" lon="6.940229">
        <ele>2352.908</ele>
        <time>2018-07-19T09:56:08Z</time>
      </trkpt>
      <trkpt lat="45.310811" lon="6.940157">
        <ele>2351.808</ele>
        <time>2018-07-19T09:56:13Z</time>
      </trkpt>
      <trkpt lat="45.310828" lon="6.940082">
        <ele>2351.124</ele>
        <time>2018-07-19T09:56:18Z</time>
      </trkpt>
      <trkpt lat="45.310839" lon="6.940007">
        <ele>2350.389</ele>
        <time>2018-07-19T09:56:23Z</time>
      </trkpt>
      <trkpt lat="45.310844" lon="6.939930">
        <ele>2349.814</ele>
        <time>2018-07-19T09:56:28Z</time>
      </trkpt>
      <trkpt lat="45.310846" lon="6.939866">
        <ele>2349.119</ele>
        <time>2018-07-19T09:56:32Z</time>
      </trkpt>
      <trkpt lat="45.310844" lon="6.939787">
        <ele>2348.384</ele>
        <time>2018-07-19T09:56:37Z</time>
      </trkpt>
      <trkpt lat="45.310833" lon="6.939710">
        <ele>2347.885</ele>
        <time>2018-07-19T09:56:42Z</time>
      </trkpt>
      <trkpt lat="45.310818" lon="6.939649">
        <ele>2347.133</ele>
        <time>2018-07-19T09:56:46Z</time>
      </trkpt>
      <trkpt lat="45.310802" lon="6.939589">
        <ele>2346.732</ele>
        <time>2018-07-19T09:56:50Z</time>
      </trkpt>
      <trkpt lat="45.310780" lon="6.939517">
        <ele>2346.145</ele>
        <time>2018-07-19T09:56:55Z</time>
      </trkpt>
      <trkpt lat="45.310755" lon="6.939446">
        <ele>2345.747</ele>
        <time>2018-07-19T09:57:00Z</time>
      </trkpt>
      <trkpt lat="45.310731" lon="6.939376">
        <ele>2345.111</ele>
        <time>2018-07-19T09:57:05Z</time>
      </trkpt>
      <trkpt lat="45.310712" lon="6.939316">
        <ele>2344.708</ele>
        <time>2018-07-19T09:57:09Z</time>
      </trkpt>
      <trkpt lat="45.310698" lon="6.939255">
        <ele>2344.556</ele>
        <time>2018-07-19T09:57:13Z</time>
      </trkpt>
      <trkpt lat="45.310683" lon="6.939178">
        <ele>2344.051</ele>
        <time>2018-07-19T09:57:18Z</time>
      </trkpt>
      <trkpt lat="45.310677" lon="6.939113">
        <ele>2343.726</ele>
        <time>2018-07-19T09:57:22Z</time>
      </trkpt>
      <trkpt lat="45.310677" lon="6.939034">
        <ele>2343.171</ele>
        <time>2018-07-19T09:57:27Z</time>
      </trkpt>
      <trkpt lat="45.310683" lon="6.938956">
        <ele>2342.746</ele>
        <time>2018-07-19T09:57:32Z</time>
      </trkpt>
      <trkpt lat="45.310689" lon="6.938879">
        <ele>2342.537</ele>
        <time>2018-07-19T09:57:37Z</time>
      </trkpt>
      <trkpt lat="45.310694" lon="6.938804">
        <ele>2342.055</ele>
        <time>2018-07-19T09:57:42Z</time>
      </trkpt>
      <trkpt lat="45.310697" lon="6.938729">
        <ele>2340.944</ele>
        <time>2018-07-19T09:57:47Z</time>
      </trkpt>
      <trkpt lat="45.310695" lon="6.938653">
        <ele>2339.868</ele>
        <time>2018-07-19T09:57:52Z</time>
      </trkpt>
      <trkpt lat="45.310688" lon="6.938579">
        <ele>2338.842</ele>
        <time>2018-07-19T09:57:57Z</time>
      </trkpt>
      <trkpt lat="45.310674" lon="6.938509">
        <ele>2337.826</ele>
        <time>2018-07-19T09:58:02Z</time>
      </trkpt>
      <trkpt lat="45.310655" lon="6.938437">
        <ele>2337.208</ele>
        <time>2018-07-19T09:58:07Z</time>
      </trkpt>
      <trkpt lat="45.310646" lon="6.938374">
        <ele>2336.418</ele>
        <time>2018-07-19T09:58:11Z</time>
      </trkpt>
      <trkpt lat="45.310633" lon="6.938302">
        <ele>2335.563</ele>
        <time>2018-07-19T09:58:16Z</time>
      </trkpt>
      <trkpt lat="45.310618" lon="6.938240">
        <ele>2335.048</ele>
        <time>2018-07-19T09:58:20Z</time>
      </trkpt>
      <trkpt lat="45.310607" lon="6.938176">
        <ele>2334.383</ele>
        <time>2018-07-19T09:58:24Z</time>
      </trkpt>
      <trkpt lat="45.310591" lon="6.938116">
        <ele>2333.938</ele>
        <time>2018-07-19T09:58:28Z</time>
      </trkpt>
      <trkpt lat="45.310567" lon="6.938057">
        <ele>2333.229</ele>
        <time>2018-07-19T09:58:32Z</time>
      </trkpt>
      <trkpt lat="45.310539" lon="6.938003">
        <ele>2332.887</ele>
        <time>2018-07-19T09:58:36Z</time>
      </trkpt>
      <trkpt lat="45.310498" lon="6.937952">
        <ele>2332.296</ele>
        <time>2018-07-19T09:58:40Z</time>
      </trkpt>
      <trkpt lat="45.310478" lon="6.937895">
        <ele>2331.846</ele>
        <time>2018-07-19T09:58:43Z</time>
      </trkpt>
      <trkpt lat="45.310458" lon="6.937825">
        <ele>2331.688</ele>
        <time>2018-07-19T09:58:47Z</time>
      </trkpt>
      <trkpt lat="45.310429" lon="6.937767">
        <ele>2331.516</ele>
        <time>2018-07-19T09:58:51Z</time>
      </trkpt>
      <trkpt lat="45.310400" lon="6.937708">
        <ele>2331.408</ele>
        <time>2018-07-19T09:58:55Z</time>
      </trkpt>
      <trkpt lat="45.310378" lon="6.937652">
        <ele>2331.416</ele>
        <time>2018-07-19T09:59:17Z</time>
      </trkpt>
      <trkpt lat="45.310347" lon="6.937599">
        <ele>2331.421</ele>
        <time>2018-07-19T09:59:23Z</time>
      </trkpt>
      <trkpt lat="45.310346" lon="6.937532">
        <ele>2331.886</ele>
        <time>2018-07-19T09:59:32Z</time>
      </trkpt>
      <trkpt lat="45.310313" lon="6.937480">
        <ele>2332.051</ele>
        <time>2018-07-19T09:59:40Z</time>
      </trkpt>
      <trkpt lat="45.310291" lon="6.937413">
        <ele>2331.386</ele>
        <time>2018-07-19T09:59:58Z</time>
      </trkpt>
      <trkpt lat="45.310300" lon="6.937337">
        <ele>2329.797</ele>
        <time>2018-07-19T10:00:04Z</time>
      </trkpt>
      <trkpt lat="45.310316" lon="6.937357">
        <ele>2326.395</ele>
        <time>2018-07-19T10:10:26Z</time>
      </trkpt>
      <trkpt lat="45.310364" lon="6.937347">
        <ele>2326.774</ele>
        <time>2018-07-19T10:10:36Z</time>
      </trkpt>
      <trkpt lat="45.310410" lon="6.937338">
        <ele>2326.553</ele>
        <time>2018-07-19T10:10:43Z</time>
      </trkpt>
      <trkpt lat="45.310458" lon="6.937352">
        <ele>2326.804</ele>
        <time>2018-07-19T10:10:49Z</time>
      </trkpt>
      <trkpt lat="45.310498" lon="6.937381">
        <ele>2326.914</ele>
        <time>2018-07-19T10:10:54Z</time>
      </trkpt>
      <trkpt lat="45.310539" lon="6.937424">
        <ele>2326.608</ele>
        <time>2018-07-19T10:11:10Z</time>
      </trkpt>
      <trkpt lat="45.310577" lon="6.937463">
        <ele>2326.087</ele>
        <time>2018-07-19T10:11:15Z</time>
      </trkpt>
      <trkpt lat="45.310621" lon="6.937487">
        <ele>2325.222</ele>
        <time>2018-07-19T10:11:22Z</time>
      </trkpt>
      <trkpt lat="45.310650" lon="6.937438">
        <ele>2324.787</ele>
        <time>2018-07-19T10:11:30Z</time>
      </trkpt>
      <trkpt lat="45.310658" lon="6.937369">
        <ele>2324.412</ele>
        <time>2018-07-19T10:11:36Z</time>
      </trkpt>
      <trkpt lat="45.310661" lon="6.937302">
        <ele>2324.277</ele>
        <time>2018-07-19T10:11:41Z</time>
      </trkpt>
      <trkpt lat="45.310661" lon="6.937232">
        <ele>2323.798</ele>
        <time>2018-07-19T10:11:46Z</time>
      </trkpt>
      <trkpt lat="45.310675" lon="6.937161">
        <ele>2323.416</ele>
        <time>2018-07-19T10:11:51Z</time>
      </trkpt>
      <trkpt lat="45.310692" lon="6.937096">
        <ele>2323.665</ele>
        <time>2018-07-19T10:11:58Z</time>
      </trkpt>
      <trkpt lat="45.310734" lon="6.937048">
        <ele>2323.387</ele>
        <time>2018-07-19T10:12:07Z</time>
      </trkpt>
      <trkpt lat="45.310767" lon="6.936986">
        <ele>2323.142</ele>
        <time>2018-07-19T10:12:12Z</time>
      </trkpt>
      <trkpt lat="45.310790" lon="6.936917">
        <ele>2323.026</ele>
        <time>2018-07-19T10:12:17Z</time>
      </trkpt>
      <trkpt lat="45.310802" lon="6.936852">
        <ele>2322.908</ele>
        <time>2018-07-19T10:12:22Z</time>
      </trkpt>
      <trkpt lat="45.310815" lon="6.936789">
        <ele>2322.940</ele>
        <time>2018-07-19T10:12:27Z</time>
      </trkpt>
      <trkpt lat="45.310812" lon="6.936725">
        <ele>2323.385</ele>
        <time>2018-07-19T10:12:32Z</time>
      </trkpt>
      <trkpt lat="45.310808" lon="6.936654">
        <ele>2324.710</ele>
        <time>2018-07-19T10:12:38Z</time>
      </trkpt>
      <trkpt lat="45.310811" lon="6.936586">
        <ele>2326.015</ele>
        <time>2018-07-19T10:12:44Z</time>
      </trkpt>
      <trkpt lat="45.310820" lon="6.936516">
        <ele>2326.860</ele>
        <time>2018-07-19T10:12:50Z</time>
      </trkpt>
      <trkpt lat="45.310833" lon="6.936451">
        <ele>2327.751</ele>
        <time>2018-07-19T10:12:56Z</time>
      </trkpt>
      <trkpt lat="45.310843" lon="6.936379">
        <ele>2327.859</ele>
        <time>2018-07-19T10:13:02Z</time>
      </trkpt>
      <trkpt lat="45.310848" lon="6.936311">
        <ele>2327.578</ele>
        <time>2018-07-19T10:13:09Z</time>
      </trkpt>
      <trkpt lat="45.310852" lon="6.936240">
        <ele>2327.357</ele>
        <time>2018-07-19T10:13:16Z</time>
      </trkpt>
      <trkpt lat="45.310854" lon="6.936167">
        <ele>2327.200</ele>
        <time>2018-07-19T10:13:24Z</time>
      </trkpt>
      <trkpt lat="45.310861" lon="6.936099">
        <ele>2327.520</ele>
        <time>2018-07-19T10:13:31Z</time>
      </trkpt>
      <trkpt lat="45.310867" lon="6.936029">
        <ele>2327.708</ele>
        <time>2018-07-19T10:13:40Z</time>
      </trkpt>
      <trkpt lat="45.310870" lon="6.935961">
        <ele>2327.817</ele>
        <time>2018-07-19T10:13:47Z</time>
      </trkpt>
      <trkpt lat="45.310869" lon="6.935889">
        <ele>2327.972</ele>
        <time>2018-07-19T10:13:54Z</time>
      </trkpt>
      <trkpt lat="45.310875" lon="6.935822">
        <ele>2327.937</ele>
        <time>2018-07-19T10:14:00Z</time>
      </trkpt>
      <trkpt lat="45.310892" lon="6.935761">
        <ele>2327.962</ele>
        <time>2018-07-19T10:14:05Z</time>
      </trkpt>
      <trkpt lat="45.310918" lon="6.935698">
        <ele>2327.977</ele>
        <time>2018-07-19T10:14:11Z</time>
      </trkpt>
      <trkpt lat="45.310939" lon="6.935637">
        <ele>2328.798</ele>
        <time>2018-07-19T10:14:17Z</time>
      </trkpt>
      <trkpt lat="45.310957" lon="6.935572">
        <ele>2328.856</ele>
        <time>2018-07-19T10:14:23Z</time>
      </trkpt>
      <trkpt lat="45.310962" lon="6.935506">
        <ele>2329.335</ele>
        <time>2018-07-19T10:14:28Z</time>
      </trkpt>
      <trkpt lat="45.310960" lon="6.935441">
        <ele>2330.055</ele>
        <time>2018-07-19T10:14:33Z</time>
      </trkpt>
      <trkpt lat="45.310954" lon="6.935368">
        <ele>2330.807</ele>
        <time>2018-07-19T10:14:39Z</time>
      </trkpt>
      <trkpt lat="45.310946" lon="6.935296">
        <ele>2331.317</ele>
        <time>2018-07-19T10:14:45Z</time>
      </trkpt>
      <trkpt lat="45.310946" lon="6.935226">
        <ele>2332.808</ele>
        <time>2018-07-19T10:14:52Z</time>
      </trkpt>
      <trkpt lat="45.310947" lon="6.935152">
        <ele>2334.597</ele>
        <time>2018-07-19T10:14:59Z</time>
      </trkpt>
      <trkpt lat="45.310958" lon="6.935083">
        <ele>2335.582</ele>
        <time>2018-07-19T10:15:06Z</time>
      </trkpt>
      <trkpt lat="45.310969" lon="6.935013">
        <ele>2336.567</ele>
        <time>2018-07-19T10:15:13Z</time>
      </trkpt>
      <trkpt lat="45.310984" lon="6.934942">
        <ele>2337.122</ele>
        <time>2018-07-19T10:15:20Z</time>
      </trkpt>
      <trkpt lat="45.311004" lon="6.934884">
        <ele>2337.997</ele>
        <time>2018-07-19T10:15:26Z</time>
      </trkpt>
      <trkpt lat="45.311038" lon="6.934825">
        <ele>2338.068</ele>
        <time>2018-07-19T10:15:32Z</time>
      </trkpt>
      <trkpt lat="45.311062" lon="6.934764">
        <ele>2338.456</ele>
        <time>2018-07-19T10:15:38Z</time>
      </trkpt>
      <trkpt lat="45.311073" lon="6.934695">
        <ele>2338.385</ele>
        <time>2018-07-19T10:15:44Z</time>
      </trkpt>
      <trkpt lat="45.311068" lon="6.934623">
        <ele>2338.223</ele>
        <time>2018-07-19T10:15:50Z</time>
      </trkpt>
      <trkpt lat="45.311059" lon="6.934554">
        <ele>2338.583</ele>
        <time>2018-07-19T10:15:56Z</time>
      </trkpt>
      <trkpt lat="45.311042" lon="6.934481">
        <ele>2339.111</ele>
        <time>2018-07-19T10:16:02Z</time>
      </trkpt>
      <trkpt lat="45.311038" lon="6.934409">
        <ele>2339.508</ele>
        <time>2018-07-19T10:16:07Z</time>
      </trkpt>
      <trkpt lat="45.311034" lon="6.934336">
        <ele>2339.764</ele>
        <time>2018-07-19T10:16:13Z</time>
      </trkpt>
      <trkpt lat="45.311026" lon="6.934266">
        <ele>2339.459</ele>
        <time>2018-07-19T10:16:20Z</time>
      </trkpt>
      <trkpt lat="45.311019" lon="6.934197">
        <ele>2340.024</ele>
        <time>2018-07-19T10:16:27Z</time>
      </trkpt>
      <trkpt lat="45.311015" lon="6.934125">
        <ele>2340.499</ele>
        <time>2018-07-19T10:16:33Z</time>
      </trkpt>
      <trkpt lat="45.311022" lon="6.934057">
        <ele>2340.654</ele>
        <time>2018-07-19T10:16:39Z</time>
      </trkpt>
      <trkpt lat="45.311027" lon="6.933984">
        <ele>2340.795</ele>
        <time>2018-07-19T10:16:45Z</time>
      </trkpt>
      <trkpt lat="45.311028" lon="6.933913">
        <ele>2341.283</ele>
        <time>2018-07-19T10:16:51Z</time>
      </trkpt>
      <trkpt lat="45.311025" lon="6.933846">
        <ele>2341.922</ele>
        <time>2018-07-19T10:16:58Z</time>
      </trkpt>
      <trkpt lat="45.311013" lon="6.933783">
        <ele>2342.377</ele>
        <time>2018-07-19T10:17:05Z</time>
      </trkpt>
      <trkpt lat="45.310998" lon="6.933716">
        <ele>2342.961</ele>
        <time>2018-07-19T10:17:11Z</time>
      </trkpt>
      <trkpt lat="45.310984" lon="6.933649">
        <ele>2344.127</ele>
        <time>2018-07-19T10:17:16Z</time>
      </trkpt>
      <trkpt lat="45.310974" lon="6.933572">
        <ele>2344.408</ele>
        <time>2018-07-19T10:17:22Z</time>
      </trkpt>
      <trkpt lat="45.310962" lon="6.933504">
        <ele>2345.049</ele>
        <time>2018-07-19T10:17:27Z</time>
      </trkpt>
      <trkpt lat="45.310956" lon="6.933429">
        <ele>2346.284</ele>
        <time>2018-07-19T10:17:32Z</time>
      </trkpt>
      <trkpt lat="45.310951" lon="6.933354">
        <ele>2346.929</ele>
        <time>2018-07-19T10:17:37Z</time>
      </trkpt>
      <trkpt lat="45.310948" lon="6.933279">
        <ele>2347.364</ele>
        <time>2018-07-19T10:17:42Z</time>
      </trkpt>
      <trkpt lat="45.310948" lon="6.933205">
        <ele>2347.569</ele>
        <time>2018-07-19T10:17:47Z</time>
      </trkpt>
      <trkpt lat="45.310951" lon="6.933136">
        <ele>2348.050</ele>
        <time>2018-07-19T10:17:52Z</time>
      </trkpt>
      <trkpt lat="45.310939" lon="6.933068">
        <ele>2348.328</ele>
        <time>2018-07-19T10:17:57Z</time>
      </trkpt>
      <trkpt lat="45.310924" lon="6.932997">
        <ele>2348.127</ele>
        <time>2018-07-19T10:18:02Z</time>
      </trkpt>
      <trkpt lat="45.310902" lon="6.932929">
        <ele>2348.083</ele>
        <time>2018-07-19T10:18:07Z</time>
      </trkpt>
      <trkpt lat="45.310877" lon="6.932862">
        <ele>2347.925</ele>
        <time>2018-07-19T10:18:12Z</time>
      </trkpt>
      <trkpt lat="45.310854" lon="6.932799">
        <ele>2347.517</ele>
        <time>2018-07-19T10:18:17Z</time>
      </trkpt>
      <trkpt lat="45.310832" lon="6.932731">
        <ele>2347.208</ele>
        <time>2018-07-19T10:18:22Z</time>
      </trkpt>
      <trkpt lat="45.310809" lon="6.932666">
        <ele>2347.070</ele>
        <time>2018-07-19T10:18:27Z</time>
      </trkpt>
      <trkpt lat="45.310790" lon="6.932596">
        <ele>2347.335</ele>
        <time>2018-07-19T10:18:32Z</time>
      </trkpt>
      <trkpt lat="45.310773" lon="6.932527">
        <ele>2347.570</ele>
        <time>2018-07-19T10:18:37Z</time>
      </trkpt>
      <trkpt lat="45.310750" lon="6.932458">
        <ele>2347.695</ele>
        <time>2018-07-19T10:18:42Z</time>
      </trkpt>
      <trkpt lat="45.310731" lon="6.932389">
        <ele>2348.190</ele>
        <time>2018-07-19T10:18:47Z</time>
      </trkpt>
      <trkpt lat="45.310716" lon="6.932320">
        <ele>2348.861</ele>
        <time>2018-07-19T10:18:52Z</time>
      </trkpt>
      <trkpt lat="45.310698" lon="6.932254">
        <ele>2349.649</ele>
        <time>2018-07-19T10:18:57Z</time>
      </trkpt>
      <trkpt lat="45.310679" lon="6.932180">
        <ele>2350.138</ele>
        <time>2018-07-19T10:19:02Z</time>
      </trkpt>
      <trkpt lat="45.310660" lon="6.932117">
        <ele>2350.466</ele>
        <time>2018-07-19T10:19:07Z</time>
      </trkpt>
      <trkpt lat="45.310644" lon="6.932053">
        <ele>2350.229</ele>
        <time>2018-07-19T10:19:12Z</time>
      </trkpt>
      <trkpt lat="45.310621" lon="6.931980">
        <ele>2350.521</ele>
        <time>2018-07-19T10:19:17Z</time>
      </trkpt>
      <trkpt lat="45.310604" lon="6.931917">
        <ele>2350.708</ele>
        <time>2018-07-19T10:19:21Z</time>
      </trkpt>
      <trkpt lat="45.310595" lon="6.931853">
        <ele>2350.848</ele>
        <time>2018-07-19T10:19:25Z</time>
      </trkpt>
      <trkpt lat="45.310581" lon="6.931783">
        <ele>2350.533</ele>
        <time>2018-07-19T10:19:30Z</time>
      </trkpt>
      <trkpt lat="45.310564" lon="6.931712">
        <ele>2350.338</ele>
        <time>2018-07-19T10:19:35Z</time>
      </trkpt>
      <trkpt lat="45.310532" lon="6.931651">
        <ele>2349.823</ele>
        <time>2018-07-19T10:19:40Z</time>
      </trkpt>
      <trkpt lat="45.310497" lon="6.931608">
        <ele>2349.528</ele>
        <time>2018-07-19T10:19:44Z</time>
      </trkpt>
      <trkpt lat="45.310463" lon="6.931561">
        <ele>2349.339</ele>
        <time>2018-07-19T10:19:48Z</time>
      </trkpt>
      <trkpt lat="45.310430" lon="6.931502">
        <ele>2349.257</ele>
        <time>2018-07-19T10:19:53Z</time>
      </trkpt>
      <trkpt lat="45.310404" lon="6.931440">
        <ele>2349.156</ele>
        <time>2018-07-19T10:19:58Z</time>
      </trkpt>
      <trkpt lat="45.310379" lon="6.931385">
        <ele>2349.137</ele>
        <time>2018-07-19T10:20:02Z</time>
      </trkpt>
      <trkpt lat="45.310353" lon="6.931315">
        <ele>2348.749</ele>
        <time>2018-07-19T10:20:07Z</time>
      </trkpt>
      <trkpt lat="45.310327" lon="6.931260">
        <ele>2348.813</ele>
        <time>2018-07-19T10:20:11Z</time>
      </trkpt>
      <trkpt lat="45.310302" lon="6.931193">
        <ele>2348.508</ele>
        <time>2018-07-19T10:20:16Z</time>
      </trkpt>
      <trkpt lat="45.310284" lon="6.931134">
        <ele>2348.355</ele>
        <time>2018-07-19T10:20:20Z</time>
      </trkpt>
      <trkpt lat="45.310267" lon="6.931070">
        <ele>2347.850</ele>
        <time>2018-07-19T10:20:24Z</time>
      </trkpt>
      <trkpt lat="45.310250" lon="6.931011">
        <ele>2347.935</ele>
        <time>2018-07-19T10:20:28Z</time>
      </trkpt>
      <trkpt lat="45.310232" lon="6.930952">
        <ele>2348.070</ele>
        <time>2018-07-19T10:20:32Z</time>
      </trkpt>
      <trkpt lat="45.310213" lon="6.930880">
        <ele>2348.075</ele>
        <time>2018-07-19T10:20:37Z</time>
      </trkpt>
      <trkpt lat="45.310197" lon="6.930804">
        <ele>2348.076</ele>
        <time>2018-07-19T10:20:42Z</time>
      </trkpt>
      <trkpt lat="45.310180" lon="6.930731">
        <ele>2347.684</ele>
        <time>2018-07-19T10:20:47Z</time>
      </trkpt>
      <trkpt lat="45.310156" lon="6.930659">
        <ele>2347.473</ele>
        <time>2018-07-19T10:20:52Z</time>
      </trkpt>
      <trkpt lat="45.310126" lon="6.930606">
        <ele>2346.974</ele>
        <time>2018-07-19T10:20:56Z</time>
      </trkpt>
      <trkpt lat="45.310098" lon="6.930554">
        <ele>2347.056</ele>
        <time>2018-07-19T10:21:00Z</time>
      </trkpt>
      <trkpt lat="45.310072" lon="6.930500">
        <ele>2346.621</ele>
        <time>2018-07-19T10:21:04Z</time>
      </trkpt>
      <trkpt lat="45.310044" lon="6.930448">
        <ele>2346.808</ele>
        <time>2018-07-19T10:21:08Z</time>
      </trkpt>
      <trkpt lat="45.310014" lon="6.930395">
        <ele>2346.919</ele>
        <time>2018-07-19T10:21:12Z</time>
      </trkpt>
      <trkpt lat="45.309992" lon="6.930338">
        <ele>2346.664</ele>
        <time>2018-07-19T10:21:16Z</time>
      </trkpt>
      <trkpt lat="45.309975" lon="6.930277">
        <ele>2346.499</ele>
        <time>2018-07-19T10:21:20Z</time>
      </trkpt>
      <trkpt lat="45.309968" lon="6.930212">
        <ele>2345.974</ele>
        <time>2018-07-19T10:21:24Z</time>
      </trkpt>
      <trkpt lat="45.309961" lon="6.930142">
        <ele>2345.669</ele>
        <time>2018-07-19T10:21:29Z</time>
      </trkpt>
      <trkpt lat="45.309939" lon="6.930086">
        <ele>2345.460</ele>
        <time>2018-07-19T10:21:33Z</time>
      </trkpt>
      <trkpt lat="45.309916" lon="6.930026">
        <ele>2345.318</ele>
        <time>2018-07-19T10:21:37Z</time>
      </trkpt>
      <trkpt lat="45.309899" lon="6.929965">
        <ele>2345.617</ele>
        <time>2018-07-19T10:21:41Z</time>
      </trkpt>
      <trkpt lat="45.309885" lon="6.929900">
        <ele>2345.453</ele>
        <time>2018-07-19T10:21:45Z</time>
      </trkpt>
      <trkpt lat="45.309877" lon="6.929837">
        <ele>2345.704</ele>
        <time>2018-07-19T10:21:49Z</time>
      </trkpt>
      <trkpt lat="45.309866" lon="6.929764">
        <ele>2345.914</ele>
        <time>2018-07-19T10:21:54Z</time>
      </trkpt>
      <trkpt lat="45.309851" lon="6.929688">
        <ele>2346.008</ele>
        <time>2018-07-19T10:21:59Z</time>
      </trkpt>
      <trkpt lat="45.309829" lon="6.929632">
        <ele>2346.177</ele>
        <time>2018-07-19T10:22:03Z</time>
      </trkpt>
      <trkpt lat="45.309812" lon="6.929566">
        <ele>2346.162</ele>
        <time>2018-07-19T10:22:08Z</time>
      </trkpt>
      <trkpt lat="45.309797" lon="6.929495">
        <ele>2346.597</ele>
        <time>2018-07-19T10:22:13Z</time>
      </trkpt>
      <trkpt lat="45.309780" lon="6.929424">
        <ele>2346.862</ele>
        <time>2018-07-19T10:22:18Z</time>
      </trkpt>
      <trkpt lat="45.309759" lon="6.929356">
        <ele>2346.637</ele>
        <time>2018-07-19T10:22:23Z</time>
      </trkpt>
      <trkpt lat="45.309746" lon="6.929289">
        <ele>2346.988</ele>
        <time>2018-07-19T10:22:28Z</time>
      </trkpt>
      <trkpt lat="45.309739" lon="6.929220">
        <ele>2347.566</ele>
        <time>2018-07-19T10:22:33Z</time>
      </trkpt>
      <trkpt lat="45.309724" lon="6.929156">
        <ele>2347.835</ele>
        <time>2018-07-19T10:22:38Z</time>
      </trkpt>
      <trkpt lat="45.309700" lon="6.929097">
        <ele>2348.041</ele>
        <time>2018-07-19T10:22:43Z</time>
      </trkpt>
      <trkpt lat="45.309674" lon="6.929041">
        <ele>2348.181</ele>
        <time>2018-07-19T10:22:48Z</time>
      </trkpt>
      <trkpt lat="45.309652" lon="6.928978">
        <ele>2348.209</ele>
        <time>2018-07-19T10:22:53Z</time>
      </trkpt>
      <trkpt lat="45.309628" lon="6.928910">
        <ele>2347.808</ele>
        <time>2018-07-19T10:22:58Z</time>
      </trkpt>
      <trkpt lat="45.309602" lon="6.928846">
        <ele>2347.616</ele>
        <time>2018-07-19T10:23:03Z</time>
      </trkpt>
      <trkpt lat="45.309579" lon="6.928775">
        <ele>2347.141</ele>
        <time>2018-07-19T10:23:09Z</time>
      </trkpt>
      <trkpt lat="45.309554" lon="6.928713">
        <ele>2346.456</ele>
        <time>2018-07-19T10:23:14Z</time>
      </trkpt>
      <trkpt lat="45.309537" lon="6.928645">
        <ele>2346.061</ele>
        <time>2018-07-19T10:23:20Z</time>
      </trkpt>
      <trkpt lat="45.309543" lon="6.928574">
        <ele>2345.756</ele>
        <time>2018-07-19T10:23:26Z</time>
      </trkpt>
      <trkpt lat="45.309549" lon="6.928508">
        <ele>2346.377</ele>
        <time>2018-07-19T10:23:33Z</time>
      </trkpt>
      <trkpt lat="45.309557" lon="6.928445">
        <ele>2347.115</ele>
        <time>2018-07-19T10:23:41Z</time>
      </trkpt>
      <trkpt lat="45.309579" lon="6.928382">
        <ele>2348.064</ele>
        <time>2018-07-19T10:23:51Z</time>
      </trkpt>
      <trkpt lat="45.309584" lon="6.928316">
        <ele>2348.154</ele>
        <time>2018-07-19T10:24:01Z</time>
      </trkpt>
      <trkpt lat="45.309581" lon="6.928252">
        <ele>2349.056</ele>
        <time>2018-07-19T10:24:13Z</time>
      </trkpt>
      <trkpt lat="45.309595" lon="6.928188">
        <ele>2349.911</ele>
        <time>2018-07-19T10:24:24Z</time>
      </trkpt>
      <trkpt lat="45.309615" lon="6.928128">
        <ele>2350.908</ele>
        <time>2018-07-19T10:24:35Z</time>
      </trkpt>
      <trkpt lat="45.309610" lon="6.928061">
        <ele>2351.177</ele>
        <time>2018-07-19T10:24:44Z</time>
      </trkpt>
      <trkpt lat="45.309601" lon="6.927996">
        <ele>2351.252</ele>
        <time>2018-07-19T10:24:58Z</time>
      </trkpt>
      <trkpt lat="45.309604" lon="6.927925">
        <ele>2352.157</ele>
        <time>2018-07-19T10:25:06Z</time>
      </trkpt>
      <trkpt lat="45.309605" lon="6.927853">
        <ele>2353.442</ele>
        <time>2018-07-19T10:25:14Z</time>
      </trkpt>
      <trkpt lat="45.309605" lon="6.927785">
        <ele>2354.667</ele>
        <time>2018-07-19T10:25:21Z</time>
      </trkpt>
      <trkpt lat="45.309601" lon="6.927719">
        <ele>2356.198</ele>
        <time>2018-07-19T10:25:30Z</time>
      </trkpt>
      <trkpt lat="45.309590" lon="6.927652">
        <ele>2357.446</ele>
        <time>2018-07-19T10:25:40Z</time>
      </trkpt>
      <trkpt lat="45.309583" lon="6.927587">
        <ele>2359.085</ele>
        <time>2018-07-19T10:25:48Z</time>
      </trkpt>
      <trkpt lat="45.309586" lon="6.927518">
        <ele>2359.612</ele>
        <time>2018-07-19T10:25:56Z</time>
      </trkpt>
      <trkpt lat="45.309586" lon="6.927450">
        <ele>2359.932</ele>
        <time>2018-07-19T10:26:06Z</time>
      </trkpt>
      <trkpt lat="45.309577" lon="6.927387">
        <ele>2360.105</ele>
        <time>2018-07-19T10:26:14Z</time>
      </trkpt>
      <trkpt lat="45.309568" lon="6.927321">
        <ele>2361.008</ele>
        <time>2018-07-19T10:26:25Z</time>
      </trkpt>
      <trkpt lat="45.309561" lon="6.927251">
        <ele>2361.643</ele>
        <time>2018-07-19T10:26:35Z</time>
      </trkpt>
      <trkpt lat="45.309553" lon="6.927187">
        <ele>2362.398</ele>
        <time>2018-07-19T10:26:45Z</time>
      </trkpt>
      <trkpt lat="45.309507" lon="6.927171">
        <ele>2363.953</ele>
        <time>2018-07-19T10:26:56Z</time>
      </trkpt>
      <trkpt lat="45.309493" lon="6.927105">
        <ele>2365.768</ele>
        <time>2018-07-19T10:27:07Z</time>
      </trkpt>
      <trkpt lat="45.309494" lon="6.927041">
        <ele>2366.493</ele>
        <time>2018-07-19T10:27:16Z</time>
      </trkpt>
      <trkpt lat="45.309482" lon="6.926977">
        <ele>2366.824</ele>
        <time>2018-07-19T10:27:24Z</time>
      </trkpt>
      <trkpt lat="45.309468" lon="6.926912">
        <ele>2367.412</ele>
        <time>2018-07-19T10:27:33Z</time>
      </trkpt>
      <trkpt lat="45.309471" lon="6.926843">
        <ele>2367.811</ele>
        <time>2018-07-19T10:27:42Z</time>
      </trkpt>
      <trkpt lat="45.309465" lon="6.926773">
        <ele>2368.474</ele>
        <time>2018-07-19T10:27:51Z</time>
      </trkpt>
      <trkpt lat="45.309460" lon="6.926704">
        <ele>2369.256</ele>
        <time>2018-07-19T10:28:00Z</time>
      </trkpt>
      <trkpt lat="45.309463" lon="6.926637">
        <ele>2370.521</ele>
        <time>2018-07-19T10:28:10Z</time>
      </trkpt>
      <trkpt lat="45.309456" lon="6.926573">
        <ele>2370.908</ele>
        <time>2018-07-19T10:28:20Z</time>
      </trkpt>
      <trkpt lat="45.309455" lon="6.926504">
        <ele>2372.319</ele>
        <time>2018-07-19T10:28:32Z</time>
      </trkpt>
      <trkpt lat="45.309454" lon="6.926438">
        <ele>2374.344</ele>
        <time>2018-07-19T10:28:45Z</time>
      </trkpt>
      <trkpt lat="45.309451" lon="6.926371">
        <ele>2375.549</ele>
        <time>2018-07-19T10:28:59Z</time>
      </trkpt>
      <trkpt lat="45.309445" lon="6.926303">
        <ele>2377.064</ele>
        <time>2018-07-19T10:29:13Z</time>
      </trkpt>
      <trkpt lat="45.309437" lon="6.926237">
        <ele>2378.319</ele>
        <time>2018-07-19T10:29:30Z</time>
      </trkpt>
      <trkpt lat="45.309423" lon="6.926172">
        <ele>2378.340</ele>
        <time>2018-07-19T10:29:50Z</time>
      </trkpt>
      <trkpt lat="45.309423" lon="6.926106">
        <ele>2378.368</ele>
        <time>2018-07-19T10:29:58Z</time>
      </trkpt>
      <trkpt lat="45.309451" lon="6.926055">
        <ele>2377.147</ele>
        <time>2018-07-19T10:30:04Z</time>
      </trkpt>
      <trkpt lat="45.309472" lon="6.925996">
        <ele>2378.849</ele>
        <time>2018-07-19T10:30:19Z</time>
      </trkpt>
      <trkpt lat="45.309508" lon="6.925950">
        <ele>2379.802</ele>
        <time>2018-07-19T10:30:30Z</time>
      </trkpt>
      <trkpt lat="45.309549" lon="6.925916">
        <ele>2380.422</ele>
        <time>2018-07-19T10:30:36Z</time>
      </trkpt>
      <trkpt lat="45.309589" lon="6.925878">
        <ele>2382.808</ele>
        <time>2018-07-19T10:30:45Z</time>
      </trkpt>
      <trkpt lat="45.309634" lon="6.925848">
        <ele>2383.466</ele>
        <time>2018-07-19T10:30:57Z</time>
      </trkpt>
      <trkpt lat="45.309677" lon="6.925828">
        <ele>2384.611</ele>
        <time>2018-07-19T10:31:03Z</time>
      </trkpt>
      <trkpt lat="45.309728" lon="6.925830">
        <ele>2386.526</ele>
        <time>2018-07-19T10:31:11Z</time>
      </trkpt>
      <trkpt lat="45.309772" lon="6.925809">
        <ele>2388.811</ele>
        <time>2018-07-19T10:31:18Z</time>
      </trkpt>
      <trkpt lat="45.309818" lon="6.925783">
        <ele>2388.226</ele>
        <time>2018-07-19T10:31:27Z</time>
      </trkpt>
      <trkpt lat="45.309850" lon="6.925735">
        <ele>2387.057</ele>
        <time>2018-07-19T10:31:33Z</time>
      </trkpt>
      <trkpt lat="45.309879" lon="6.925677">
        <ele>2386.745</ele>
        <time>2018-07-19T10:31:39Z</time>
      </trkpt>
      <trkpt lat="45.309900" lon="6.925619">
        <ele>2385.324</ele>
        <time>2018-07-19T10:31:45Z</time>
      </trkpt>
      <trkpt lat="45.309930" lon="6.925570">
        <ele>2384.576</ele>
        <time>2018-07-19T10:31:50Z</time>
      </trkpt>
      <trkpt lat="45.309969" lon="6.925528">
        <ele>2383.690</ele>
        <time>2018-07-19T10:31:55Z</time>
      </trkpt>
      <trkpt lat="45.310006" lon="6.925475">
        <ele>2383.119</ele>
        <time>2018-07-19T10:32:01Z</time>
      </trkpt>
      <trkpt lat="45.310044" lon="6.925424">
        <ele>2382.008</ele>
        <time>2018-07-19T10:32:07Z</time>
      </trkpt>
      <trkpt lat="45.310076" lon="6.925373">
        <ele>2380.979</ele>
        <time>2018-07-19T10:32:13Z</time>
      </trkpt>
      <trkpt lat="45.310106" lon="6.925323">
        <ele>2380.344</ele>
        <time>2018-07-19T10:32:18Z</time>
      </trkpt>
      <trkpt lat="45.310135" lon="6.925268">
        <ele>2379.989</ele>
        <time>2018-07-19T10:32:23Z</time>
      </trkpt>
      <trkpt lat="45.310163" lon="6.925214">
        <ele>2379.784</ele>
        <time>2018-07-19T10:32:28Z</time>
      </trkpt>
      <trkpt lat="45.310186" lon="6.925158">
        <ele>2379.269</ele>
        <time>2018-07-19T10:32:33Z</time>
      </trkpt>
      <trkpt lat="45.310215" lon="6.925102">
        <ele>2379.360</ele>
        <time>2018-07-19T10:32:39Z</time>
      </trkpt>
      <trkpt lat="45.310236" lon="6.925044">
        <ele>2380.578</ele>
        <time>2018-07-19T10:32:46Z</time>
      </trkpt>
      <trkpt lat="45.310270" lon="6.924993">
        <ele>2382.097</ele>
        <time>2018-07-19T10:32:53Z</time>
      </trkpt>
      <trkpt lat="45.310299" lon="6.924938">
        <ele>2382.979</ele>
        <time>2018-07-19T10:33:01Z</time>
      </trkpt>
      <trkpt lat="45.310326" lon="6.924877">
        <ele>2383.905</ele>
        <time>2018-07-19T10:33:08Z</time>
      </trkpt>
      <trkpt lat="45.310340" lon="6.924816">
        <ele>2384.125</ele>
        <time>2018-07-19T10:33:14Z</time>
      </trkpt>
      <trkpt lat="45.310358" lon="6.924752">
        <ele>2384.608</ele>
        <time>2018-07-19T10:33:21Z</time>
      </trkpt>
      <trkpt lat="45.310392" lon="6.924695">
        <ele>2384.989</ele>
        <time>2018-07-19T10:33:28Z</time>
      </trkpt>
      <trkpt lat="45.310430" lon="6.924643">
        <ele>2385.514</ele>
        <time>2018-07-19T10:33:35Z</time>
      </trkpt>
      <trkpt lat="45.310464" lon="6.924597">
        <ele>2385.479</ele>
        <time>2018-07-19T10:33:40Z</time>
      </trkpt>
      <trkpt lat="45.310499" lon="6.924548">
        <ele>2385.464</ele>
        <time>2018-07-19T10:33:46Z</time>
      </trkpt>
      <trkpt lat="45.310533" lon="6.924493">
        <ele>2385.499</ele>
        <time>2018-07-19T10:33:52Z</time>
      </trkpt>
      <trkpt lat="45.310570" lon="6.924445">
        <ele>2385.430</ele>
        <time>2018-07-19T10:33:58Z</time>
      </trkpt>
      <trkpt lat="45.310607" lon="6.924405">
        <ele>2385.838</ele>
        <time>2018-07-19T10:34:03Z</time>
      </trkpt>
      <trkpt lat="45.310651" lon="6.924368">
        <ele>2386.427</ele>
        <time>2018-07-19T10:34:09Z</time>
      </trkpt>
      <trkpt lat="45.310697" lon="6.924340">
        <ele>2387.617</ele>
        <time>2018-07-19T10:34:15Z</time>
      </trkpt>
      <trkpt lat="45.310735" lon="6.924297">
        <ele>2389.187</ele>
        <time>2018-07-19T10:34:21Z</time>
      </trkpt>
      <trkpt lat="45.310772" lon="6.924244">
        <ele>2391.215</ele>
        <time>2018-07-19T10:34:27Z</time>
      </trkpt>
      <trkpt lat="45.310808" lon="6.924283">
        <ele>2391.708</ele>
        <time>2018-07-19T10:35:41Z</time>
      </trkpt>
      <trkpt lat="45.310853" lon="6.924291">
        <ele>2391.273</ele>
        <time>2018-07-19T10:35:47Z</time>
      </trkpt>
      <trkpt lat="45.310901" lon="6.924290">
        <ele>2390.138</ele>
        <time>2018-07-19T10:35:54Z</time>
      </trkpt>
      <trkpt lat="45.310929" lon="6.924231">
        <ele>2389.083</ele>
        <time>2018-07-19T10:36:01Z</time>
      </trkpt>
      <trkpt lat="45.310942" lon="6.924163">
        <ele>2388.038</ele>
        <time>2018-07-19T10:36:07Z</time>
      </trkpt>
      <trkpt lat="45.310942" lon="6.924092">
        <ele>2387.873</ele>
        <time>2018-07-19T10:36:28Z</time>
      </trkpt>
      <trkpt lat="45.310964" lon="6.924029">
        <ele>2388.154</ele>
        <time>2018-07-19T10:36:34Z</time>
      </trkpt>
      <trkpt lat="45.311004" lon="6.923980">
        <ele>2388.382</ele>
        <time>2018-07-19T10:36:40Z</time>
      </trkpt>
      <trkpt lat="45.311031" lon="6.923923">
        <ele>2389.621</ele>
        <time>2018-07-19T10:36:49Z</time>
      </trkpt>
      <trkpt lat="45.311012" lon="6.923857">
        <ele>2390.416</ele>
        <time>2018-07-19T10:37:15Z</time>
      </trkpt>
      <trkpt lat="45.310961" lon="6.923840">
        <ele>2390.576</ele>
        <time>2018-07-19T10:37:20Z</time>
      </trkpt>
      <trkpt lat="45.310918" lon="6.923812">
        <ele>2390.513</ele>
        <time>2018-07-19T10:37:26Z</time>
      </trkpt>
      <trkpt lat="45.310872" lon="6.923778">
        <ele>2389.708</ele>
        <time>2018-07-19T10:37:33Z</time>
      </trkpt>
      <trkpt lat="45.310836" lon="6.923737">
        <ele>2389.623</ele>
        <time>2018-07-19T10:37:38Z</time>
      </trkpt>
      <trkpt lat="45.310795" lon="6.923695">
        <ele>2389.638</ele>
        <time>2018-07-19T10:37:45Z</time>
      </trkpt>
      <trkpt lat="45.310758" lon="6.923655">
        <ele>2390.063</ele>
        <time>2018-07-19T10:37:51Z</time>
      </trkpt>
      <trkpt lat="45.310724" lon="6.923612">
        <ele>2389.828</ele>
        <time>2018-07-19T10:37:56Z</time>
      </trkpt>
      <trkpt lat="45.310690" lon="6.923564">
        <ele>2388.573</ele>
        <time>2018-07-19T10:38:01Z</time>
      </trkpt>
      <trkpt lat="45.310656" lon="6.923518">
        <ele>2388.544</ele>
        <time>2018-07-19T10:38:07Z</time>
      </trkpt>
      <trkpt lat="45.310628" lon="6.923466">
        <ele>2388.122</ele>
        <time>2018-07-19T10:38:14Z</time>
      </trkpt>
      <trkpt lat="45.310602" lon="6.923409">
        <ele>2387.941</ele>
        <time>2018-07-19T10:38:22Z</time>
      </trkpt>
      <trkpt lat="45.310568" lon="6.923364">
        <ele>2387.832</ele>
        <time>2018-07-19T10:38:27Z</time>
      </trkpt>
      <trkpt lat="45.310530" lon="6.923327">
        <ele>2387.392</ele>
        <time>2018-07-19T10:38:33Z</time>
      </trkpt>
      <trkpt lat="45.310496" lon="6.923276">
        <ele>2387.811</ele>
        <time>2018-07-19T10:38:41Z</time>
      </trkpt>
      <trkpt lat="45.310462" lon="6.923224">
        <ele>2387.708</ele>
        <time>2018-07-19T10:38:47Z</time>
      </trkpt>
      <trkpt lat="45.310423" lon="6.923193">
        <ele>2388.065</ele>
        <time>2018-07-19T10:38:53Z</time>
      </trkpt>
      <trkpt lat="45.310387" lon="6.923149">
        <ele>2388.680</ele>
        <time>2018-07-19T10:38:59Z</time>
      </trkpt>
      <trkpt lat="45.310356" lon="6.923088">
        <ele>2389.425</ele>
        <time>2018-07-19T10:39:05Z</time>
      </trkpt>
      <trkpt lat="45.310331" lon="6.923035">
        <ele>2389.580</ele>
        <time>2018-07-19T10:39:14Z</time>
      </trkpt>
      <trkpt lat="45.310305" lon="6.922982">
        <ele>2388.375</ele>
        <time>2018-07-19T10:39:42Z</time>
      </trkpt>
      <trkpt lat="45.310261" lon="6.922956">
        <ele>2388.836</ele>
        <time>2018-07-19T10:39:52Z</time>
      </trkpt>
      <trkpt lat="45.310230" lon="6.922905">
        <ele>2389.184</ele>
        <time>2018-07-19T10:40:01Z</time>
      </trkpt>
      <trkpt lat="45.310199" lon="6.922855">
        <ele>2390.523</ele>
        <time>2018-07-19T10:40:12Z</time>
      </trkpt>
      <trkpt lat="45.310152" lon="6.922826">
        <ele>2391.725</ele>
        <time>2018-07-19T10:40:20Z</time>
      </trkpt>
      <trkpt lat="45.310107" lon="6.922795">
        <ele>2391.626</ele>
        <time>2018-07-19T10:40:27Z</time>
      </trkpt>
      <trkpt lat="45.310060" lon="6.922781">
        <ele>2394.008</ele>
        <time>2018-07-19T10:40:34Z</time>
      </trkpt>
      <trkpt lat="45.310013" lon="6.922761">
        <ele>2396.208</ele>
        <time>2018-07-19T10:40:43Z</time>
      </trkpt>
      <trkpt lat="45.309970" lon="6.922727">
        <ele>2398.314</ele>
        <time>2018-07-19T10:40:52Z</time>
      </trkpt>
      <trkpt lat="45.309927" lon="6.922707">
        <ele>2401.249</ele>
        <time>2018-07-19T10:41:01Z</time>
      </trkpt>
      <trkpt lat="45.309867" lon="6.922686">
        <ele>2401.774</ele>
        <time>2018-07-19T10:41:25Z</time>
      </trkpt>
      <trkpt lat="45.309822" lon="6.922679">
        <ele>2403.219</ele>
        <time>2018-07-19T10:41:42Z</time>
      </trkpt>
      <trkpt lat="45.309773" lon="6.922661">
        <ele>2404.974</ele>
        <time>2018-07-19T10:41:52Z</time>
      </trkpt>
      <trkpt lat="45.309730" lon="6.922635">
        <ele>2405.915</ele>
        <time>2018-07-19T10:42:01Z</time>
      </trkpt>
      <trkpt lat="45.309686" lon="6.922602">
        <ele>2406.973</ele>
        <time>2018-07-19T10:42:11Z</time>
      </trkpt>
      <trkpt lat="45.309652" lon="6.922552">
        <ele>2407.132</ele>
        <time>2018-07-19T10:42:21Z</time>
      </trkpt>
      <trkpt lat="45.309610" lon="6.922518">
        <ele>2407.241</ele>
        <time>2018-07-19T10:42:31Z</time>
      </trkpt>
      <trkpt lat="45.309566" lon="6.922499">
        <ele>2406.981</ele>
        <time>2018-07-19T10:42:44Z</time>
      </trkpt>
      <trkpt lat="45.309523" lon="6.922473">
        <ele>2406.709</ele>
        <time>2018-07-19T10:42:55Z</time>
      </trkpt>
      <trkpt lat="45.309474" lon="6.922469">
        <ele>2409.008</ele>
        <time>2018-07-19T10:43:06Z</time>
      </trkpt>
      <trkpt lat="45.309427" lon="6.922462">
        <ele>2410.456</ele>
        <time>2018-07-19T10:43:17Z</time>
      </trkpt>
      <trkpt lat="45.309382" lon="6.922449">
        <ele>2413.291</ele>
        <time>2018-07-19T10:43:28Z</time>
      </trkpt>
      <trkpt lat="45.309337" lon="6.922455">
        <ele>2415.316</ele>
        <time>2018-07-19T10:45:10Z</time>
      </trkpt>
      <trkpt lat="45.309373" lon="6.922413">
        <ele>2416.681</ele>
        <time>2018-07-19T10:46:35Z</time>
      </trkpt>
      <trkpt lat="45.309383" lon="6.922347">
        <ele>2416.656</ele>
        <time>2018-07-19T10:46:44Z</time>
      </trkpt>
      <trkpt lat="45.309398" lon="6.922282">
        <ele>2415.817</ele>
        <time>2018-07-19T10:46:51Z</time>
      </trkpt>
      <trkpt lat="45.309412" lon="6.922221">
        <ele>2414.935</ele>
        <time>2018-07-19T10:46:57Z</time>
      </trkpt>
      <trkpt lat="45.309424" lon="6.922155">
        <ele>2413.654</ele>
        <time>2018-07-19T10:47:03Z</time>
      </trkpt>
      <trkpt lat="45.309449" lon="6.922094">
        <ele>2412.012</ele>
        <time>2018-07-19T10:47:09Z</time>
      </trkpt>
      <trkpt lat="45.309491" lon="6.922050">
        <ele>2410.632</ele>
        <time>2018-07-19T10:47:15Z</time>
      </trkpt>
      <trkpt lat="45.309515" lon="6.921992">
        <ele>2409.805</ele>
        <time>2018-07-19T10:47:20Z</time>
      </trkpt>
      <trkpt lat="45.309526" lon="6.921925">
        <ele>2409.708</ele>
        <time>2018-07-19T10:47:25Z</time>
      </trkpt>
      <trkpt lat="45.309530" lon="6.921853">
        <ele>2410.033</ele>
        <time>2018-07-19T10:47:30Z</time>
      </trkpt>
      <trkpt lat="45.309529" lon="6.921785">
        <ele>2409.838</ele>
        <time>2018-07-19T10:47:34Z</time>
      </trkpt>
      <trkpt lat="45.309533" lon="6.921710">
        <ele>2409.343</ele>
        <time>2018-07-19T10:47:39Z</time>
      </trkpt>
      <trkpt lat="45.309541" lon="6.921640">
        <ele>2408.678</ele>
        <time>2018-07-19T10:47:44Z</time>
      </trkpt>
      <trkpt lat="45.309558" lon="6.921569">
        <ele>2408.263</ele>
        <time>2018-07-19T10:47:49Z</time>
      </trkpt>
      <trkpt lat="45.309577" lon="6.921501">
        <ele>2407.974</ele>
        <time>2018-07-19T10:47:54Z</time>
      </trkpt>
      <trkpt lat="45.309599" lon="6.921440">
        <ele>2408.112</ele>
        <time>2018-07-19T10:48:00Z</time>
      </trkpt>
      <trkpt lat="45.309621" lon="6.921379">
        <ele>2407.841</ele>
        <time>2018-07-19T10:48:07Z</time>
      </trkpt>
      <trkpt lat="45.309658" lon="6.921329">
        <ele>2407.254</ele>
        <time>2018-07-19T10:48:13Z</time>
      </trkpt>
      <trkpt lat="45.309692" lon="6.921283">
        <ele>2406.556</ele>
        <time>2018-07-19T10:48:18Z</time>
      </trkpt>
      <trkpt lat="45.309717" lon="6.921230">
        <ele>2406.511</ele>
        <time>2018-07-19T10:48:24Z</time>
      </trkpt>
      <trkpt lat="45.309733" lon="6.921161">
        <ele>2406.908</ele>
        <time>2018-07-19T10:48:35Z</time>
      </trkpt>
      <trkpt lat="45.309711" lon="6.921104">
        <ele>2408.397</ele>
        <time>2018-07-19T10:48:47Z</time>
      </trkpt>
      <trkpt lat="45.309688" lon="6.921047">
        <ele>2410.842</ele>
        <time>2018-07-19T10:48:57Z</time>
      </trkpt>
      <trkpt lat="45.309678" lon="6.920981">
        <ele>2411.987</ele>
        <time>2018-07-19T10:49:08Z</time>
      </trkpt>
      <trkpt lat="45.309667" lon="6.920914">
        <ele>2410.912</ele>
        <time>2018-07-19T10:49:22Z</time>
      </trkpt>
      <trkpt lat="45.309658" lon="6.920843">
        <ele>2409.917</ele>
        <time>2018-07-19T10:49:29Z</time>
      </trkpt>
      <trkpt lat="45.309647" lon="6.920779">
        <ele>2409.368</ele>
        <time>2018-07-19T10:49:34Z</time>
      </trkpt>
      <trkpt lat="45.309648" lon="6.920709">
        <ele>2409.386</ele>
        <time>2018-07-19T10:49:42Z</time>
      </trkpt>
      <trkpt lat="45.309647" lon="6.920641">
        <ele>2409.345</ele>
        <time>2018-07-19T10:49:50Z</time>
      </trkpt>
      <trkpt lat="45.309639" lon="6.920570">
        <ele>2408.988</ele>
        <time>2018-07-19T10:49:56Z</time>
      </trkpt>
      <trkpt lat="45.309633" lon="6.920506">
        <ele>2409.124</ele>
        <time>2018-07-19T10:50:04Z</time>
      </trkpt>
      <trkpt lat="45.309608" lon="6.920447">
        <ele>2410.026</ele>
        <time>2018-07-19T10:50:14Z</time>
      </trkpt>
      <trkpt lat="45.309585" lon="6.920387">
        <ele>2411.708</ele>
        <time>2018-07-19T10:50:24Z</time>
      </trkpt>
      <trkpt lat="45.309575" lon="6.920321">
        <ele>2413.160</ele>
        <time>2018-07-19T10:50:38Z</time>
      </trkpt>
      <trkpt lat="45.309563" lon="6.920257">
        <ele>2416.095</ele>
        <time>2018-07-19T10:50:53Z</time>
      </trkpt>
      <trkpt lat="45.309543" lon="6.920197">
        <ele>2418.190</ele>
        <time>2018-07-19T10:51:02Z</time>
      </trkpt>
      <trkpt lat="45.309501" lon="6.920157">
        <ele>2419.455</ele>
        <time>2018-07-19T10:51:14Z</time>
      </trkpt>
      <trkpt lat="45.309466" lon="6.920107">
        <ele>2419.480</ele>
        <time>2018-07-19T10:51:22Z</time>
      </trkpt>
      <trkpt lat="45.309434" lon="6.920060">
        <ele>2419.421</ele>
        <time>2018-07-19T10:51:31Z</time>
      </trkpt>
      <trkpt lat="45.309403" lon="6.920012">
        <ele>2420.279</ele>
        <time>2018-07-19T10:51:40Z</time>
      </trkpt>
      <trkpt lat="45.309398" lon="6.919947">
        <ele>2420.318</ele>
        <time>2018-07-19T10:51:47Z</time>
      </trkpt>
      <trkpt lat="45.309382" lon="6.919887">
        <ele>2420.759</ele>
        <time>2018-07-19T10:51:54Z</time>
      </trkpt>
      <trkpt lat="45.309359" lon="6.919823">
        <ele>2421.003</ele>
        <time>2018-07-19T10:52:01Z</time>
      </trkpt>
      <trkpt lat="45.309339" lon="6.919764">
        <ele>2422.023</ele>
        <time>2018-07-19T10:52:07Z</time>
      </trkpt>
      <trkpt lat="45.309325" lon="6.919701">
        <ele>2422.208</ele>
        <time>2018-07-19T10:52:15Z</time>
      </trkpt>
      <trkpt lat="45.309302" lon="6.919641">
        <ele>2423.567</ele>
        <time>2018-07-19T10:52:24Z</time>
      </trkpt>
      <trkpt lat="45.309289" lon="6.919579">
        <ele>2424.762</ele>
        <time>2018-07-19T10:52:33Z</time>
      </trkpt>
      <trkpt lat="45.309271" lon="6.919515">
        <ele>2426.237</ele>
        <time>2018-07-19T10:52:44Z</time>
      </trkpt>
      <trkpt lat="45.309265" lon="6.919447">
        <ele>2427.122</ele>
        <time>2018-07-19T10:52:58Z</time>
      </trkpt>
      <trkpt lat="45.309243" lon="6.919387">
        <ele>2427.287</ele>
        <time>2018-07-19T10:53:08Z</time>
      </trkpt>
      <trkpt lat="45.309227" lon="6.919321">
        <ele>2428.598</ele>
        <time>2018-07-19T10:53:16Z</time>
      </trkpt>
      <trkpt lat="45.309228" lon="6.919250">
        <ele>2429.746</ele>
        <time>2018-07-19T10:53:23Z</time>
      </trkpt>
      <trkpt lat="45.309234" lon="6.919183">
        <ele>2430.065</ele>
        <time>2018-07-19T10:53:31Z</time>
      </trkpt>
      <trkpt lat="45.309227" lon="6.919115">
        <ele>2430.689</ele>
        <time>2018-07-19T10:53:41Z</time>
      </trkpt>
      <trkpt lat="45.309229" lon="6.919051">
        <ele>2430.106</ele>
        <time>2018-07-19T10:54:00Z</time>
      </trkpt>
      <trkpt lat="45.309223" lon="6.918984">
        <ele>2430.626</ele>
        <time>2018-07-19T10:54:09Z</time>
      </trkpt>
      <trkpt lat="45.309220" lon="6.918915">
        <ele>2430.908</ele>
        <time>2018-07-19T10:54:16Z</time>
      </trkpt>
      <trkpt lat="45.309217" lon="6.918849">
        <ele>2431.170</ele>
        <time>2018-07-19T10:54:22Z</time>
      </trkpt>
      <trkpt lat="45.309196" lon="6.918783">
        <ele>2431.225</ele>
        <time>2018-07-19T10:54:29Z</time>
      </trkpt>
      <trkpt lat="45.309172" lon="6.918725">
        <ele>2432.140</ele>
        <time>2018-07-19T10:54:35Z</time>
      </trkpt>
      <trkpt lat="45.309156" lon="6.918664">
        <ele>2432.675</ele>
        <time>2018-07-19T10:54:40Z</time>
      </trkpt>
      <trkpt lat="45.309132" lon="6.918599">
        <ele>2432.520</ele>
        <time>2018-07-19T10:54:46Z</time>
      </trkpt>
      <trkpt lat="45.309112" lon="6.918540">
        <ele>2432.461</ele>
        <time>2018-07-19T10:54:52Z</time>
      </trkpt>
      <trkpt lat="45.309087" lon="6.918479">
        <ele>2433.679</ele>
        <time>2018-07-19T10:55:00Z</time>
      </trkpt>
      <trkpt lat="45.309060" lon="6.918416">
        <ele>2433.978</ele>
        <time>2018-07-19T10:55:08Z</time>
      </trkpt>
      <trkpt lat="45.309026" lon="6.918372">
        <ele>2432.943</ele>
        <time>2018-07-19T10:55:18Z</time>
      </trkpt>
      <trkpt lat="45.308995" lon="6.918325">
        <ele>2432.364</ele>
        <time>2018-07-19T10:55:30Z</time>
      </trkpt>
      <trkpt lat="45.308944" lon="6.918321">
        <ele>2430.710</ele>
        <time>2018-07-19T10:55:40Z</time>
      </trkpt>
      <trkpt lat="45.308895" lon="6.918304">
        <ele>2430.608</ele>
        <time>2018-07-19T10:55:46Z</time>
      </trkpt>
      <trkpt lat="45.308852" lon="6.918276">
        <ele>2430.196</ele>
        <time>2018-07-19T10:55:51Z</time>
      </trkpt>
      <trkpt lat="45.308808" lon="6.918247">
        <ele>2430.611</ele>
        <time>2018-07-19T10:55:58Z</time>
      </trkpt>
      <trkpt lat="45.308769" lon="6.918215">
        <ele>2431.736</ele>
        <time>2018-07-19T10:56:08Z</time>
      </trkpt>
      <trkpt lat="45.308726" lon="6.918183">
        <ele>2433.621</ele>
        <time>2018-07-19T10:56:22Z</time>
      </trkpt>
      <trkpt lat="45.308696" lon="6.918128">
        <ele>2434.326</ele>
        <time>2018-07-19T10:56:34Z</time>
      </trkpt>
      <trkpt lat="45.308682" lon="6.918061">
        <ele>2433.517</ele>
        <time>2018-07-19T10:56:44Z</time>
      </trkpt>
      <trkpt lat="45.308702" lon="6.918003">
        <ele>2433.075</ele>
        <time>2018-07-19T10:56:50Z</time>
      </trkpt>
      <trkpt lat="45.308718" lon="6.917936">
        <ele>2431.964</ele>
        <time>2018-07-19T10:56:56Z</time>
      </trkpt>
      <trkpt lat="45.308733" lon="6.917873">
        <ele>2431.714</ele>
        <time>2018-07-19T10:57:01Z</time>
      </trkpt>
      <trkpt lat="45.308756" lon="6.917810">
        <ele>2432.054</ele>
        <time>2018-07-19T10:57:09Z</time>
      </trkpt>
      <trkpt lat="45.308789" lon="6.917762">
        <ele>2433.009</ele>
        <time>2018-07-19T10:57:18Z</time>
      </trkpt>
      <trkpt lat="45.308815" lon="6.917704">
        <ele>2434.008</ele>
        <time>2018-07-19T10:57:27Z</time>
      </trkpt>
      <trkpt lat="45.308829" lon="6.917642">
        <ele>2435.433</ele>
        <time>2018-07-19T10:57:38Z</time>
      </trkpt>
      <trkpt lat="45.308830" lon="6.917576">
        <ele>2436.688</ele>
        <time>2018-07-19T10:57:47Z</time>
      </trkpt>
      <trkpt lat="45.308833" lon="6.917503">
        <ele>2437.323</ele>
        <time>2018-07-19T10:57:57Z</time>
      </trkpt>
      <trkpt lat="45.308834" lon="6.917434">
        <ele>2438.598</ele>
        <time>2018-07-19T10:58:04Z</time>
      </trkpt>
      <trkpt lat="45.308834" lon="6.917363">
        <ele>2439.683</ele>
        <time>2018-07-19T10:59:42Z</time>
      </trkpt>
      <trkpt lat="45.308829" lon="6.917293">
        <ele>2440.714</ele>
        <time>2018-07-19T10:59:48Z</time>
      </trkpt>
      <trkpt lat="45.308814" lon="6.917232">
        <ele>2441.062</ele>
        <time>2018-07-19T10:59:54Z</time>
      </trkpt>
      <trkpt lat="45.308792" lon="6.917171">
        <ele>2440.871</ele>
        <time>2018-07-19T11:00:00Z</time>
      </trkpt>
      <trkpt lat="45.308781" lon="6.917100">
        <ele>2441.155</ele>
        <time>2018-07-19T11:00:06Z</time>
      </trkpt>
      <trkpt lat="45.308777" lon="6.917034">
        <ele>2441.707</ele>
        <time>2018-07-19T11:00:11Z</time>
      </trkpt>
      <trkpt lat="45.308779" lon="6.916965">
        <ele>2442.817</ele>
        <time>2018-07-19T11:00:18Z</time>
      </trkpt>
      <trkpt lat="45.308779" lon="6.916898">
        <ele>2443.908</ele>
        <time>2018-07-19T11:00:25Z</time>
      </trkpt>
      <trkpt lat="45.308770" lon="6.916835">
        <ele>2444.157</ele>
        <time>2018-07-19T11:00:32Z</time>
      </trkpt>
      <trkpt lat="45.308763" lon="6.916765">
        <ele>2444.242</ele>
        <time>2018-07-19T11:00:39Z</time>
      </trkpt>
      <trkpt lat="45.308775" lon="6.916698">
        <ele>2443.127</ele>
        <time>2018-07-19T11:00:48Z</time>
      </trkpt>
      <trkpt lat="45.308801" lon="6.916643">
        <ele>2441.632</ele>
        <time>2018-07-19T11:00:57Z</time>
      </trkpt>
      <trkpt lat="45.308813" lon="6.916573">
        <ele>2441.187</ele>
        <time>2018-07-19T11:01:04Z</time>
      </trkpt>
      <trkpt lat="45.308825" lon="6.916507">
        <ele>2441.288</ele>
        <time>2018-07-19T11:01:10Z</time>
      </trkpt>
      <trkpt lat="45.308830" lon="6.916437">
        <ele>2440.926</ele>
        <time>2018-07-19T11:01:16Z</time>
      </trkpt>
      <trkpt lat="45.308834" lon="6.916372">
        <ele>2441.125</ele>
        <time>2018-07-19T11:01:21Z</time>
      </trkpt>
      <trkpt lat="45.308850" lon="6.916299">
        <ele>2440.816</ele>
        <time>2018-07-19T11:01:27Z</time>
      </trkpt>
      <trkpt lat="45.308858" lon="6.916236">
        <ele>2441.076</ele>
        <time>2018-07-19T11:01:36Z</time>
      </trkpt>
      <trkpt lat="45.308892" lon="6.916172">
        <ele>2441.513</ele>
        <time>2018-07-19T11:01:42Z</time>
      </trkpt>
      <trkpt lat="45.308905" lon="6.916106">
        <ele>2441.408</ele>
        <time>2018-07-19T11:01:48Z</time>
      </trkpt>
      <trkpt lat="45.308905" lon="6.916040">
        <ele>2441.853</ele>
        <time>2018-07-19T11:01:54Z</time>
      </trkpt>
      <trkpt lat="45.308906" lon="6.915970">
        <ele>2441.638</ele>
        <time>2018-07-19T11:01:59Z</time>
      </trkpt>
      <trkpt lat="45.308902" lon="6.915896">
        <ele>2441.953</ele>
        <time>2018-07-19T11:02:04Z</time>
      </trkpt>
      <trkpt lat="45.308900" lon="6.915827">
        <ele>2442.528</ele>
        <time>2018-07-19T11:02:09Z</time>
      </trkpt>
      <trkpt lat="45.308910" lon="6.915748">
        <ele>2442.883</ele>
        <time>2018-07-19T11:02:14Z</time>
      </trkpt>
      <trkpt lat="45.308922" lon="6.915677">
        <ele>2443.434</ele>
        <time>2018-07-19T11:02:19Z</time>
      </trkpt>
      <trkpt lat="45.308916" lon="6.915606">
        <ele>2443.442</ele>
        <time>2018-07-19T11:02:24Z</time>
      </trkpt>
      <trkpt lat="45.308909" lon="6.915528">
        <ele>2443.431</ele>
        <time>2018-07-19T11:02:29Z</time>
      </trkpt>
      <trkpt lat="45.308900" lon="6.915453">
        <ele>2443.497</ele>
        <time>2018-07-19T11:02:34Z</time>
      </trkpt>
      <trkpt lat="45.308895" lon="6.915388">
        <ele>2443.423</ele>
        <time>2018-07-19T11:02:38Z</time>
      </trkpt>
      <trkpt lat="45.308893" lon="6.915323">
        <ele>2443.025</ele>
        <time>2018-07-19T11:02:42Z</time>
      </trkpt>
      <trkpt lat="45.308890" lon="6.915259">
        <ele>2443.208</ele>
        <time>2018-07-19T11:02:46Z</time>
      </trkpt>
      <trkpt lat="45.308897" lon="6.915185">
        <ele>2442.951</ele>
        <time>2018-07-19T11:02:51Z</time>
      </trkpt>
      <trkpt lat="45.308914" lon="6.915114">
        <ele>2442.356</ele>
        <time>2018-07-19T11:02:56Z</time>
      </trkpt>
      <trkpt lat="45.308927" lon="6.915042">
        <ele>2441.531</ele>
        <time>2018-07-19T11:03:01Z</time>
      </trkpt>
      <trkpt lat="45.308928" lon="6.914965">
        <ele>2441.056</ele>
        <time>2018-07-19T11:03:06Z</time>
      </trkpt>
      <trkpt lat="45.308933" lon="6.914886">
        <ele>2441.171</ele>
        <time>2018-07-19T11:03:11Z</time>
      </trkpt>
      <trkpt lat="45.308939" lon="6.914811">
        <ele>2440.862</ele>
        <time>2018-07-19T11:03:16Z</time>
      </trkpt>
      <trkpt lat="45.308943" lon="6.914744">
        <ele>2440.630</ele>
        <time>2018-07-19T11:03:20Z</time>
      </trkpt>
      <trkpt lat="45.308944" lon="6.914672">
        <ele>2440.919</ele>
        <time>2018-07-19T11:03:24Z</time>
      </trkpt>
      <trkpt lat="45.308943" lon="6.914602">
        <ele>2441.161</ele>
        <time>2018-07-19T11:03:28Z</time>
      </trkpt>
      <trkpt lat="45.308938" lon="6.914537">
        <ele>2440.821</ele>
        <time>2018-07-19T11:03:32Z</time>
      </trkpt>
      <trkpt lat="45.308929" lon="6.914470">
        <ele>2441.013</ele>
        <time>2018-07-19T11:03:36Z</time>
      </trkpt>
      <trkpt lat="45.308920" lon="6.914403">
        <ele>2440.708</ele>
        <time>2018-07-19T11:03:40Z</time>
      </trkpt>
      <trkpt lat="45.308910" lon="6.914329">
        <ele>2440.558</ele>
        <time>2018-07-19T11:03:45Z</time>
      </trkpt>
      <trkpt lat="45.308901" lon="6.914254">
        <ele>2439.263</ele>
        <time>2018-07-19T11:03:51Z</time>
      </trkpt>
      <trkpt lat="45.308882" lon="6.914193">
        <ele>2438.498</ele>
        <time>2018-07-19T11:03:57Z</time>
      </trkpt>
      <trkpt lat="45.308861" lon="6.914125">
        <ele>2436.713</ele>
        <time>2018-07-19T11:04:04Z</time>
      </trkpt>
      <trkpt lat="45.308840" lon="6.914054">
        <ele>2435.768</ele>
        <time>2018-07-19T11:04:10Z</time>
      </trkpt>
      <trkpt lat="45.308807" lon="6.914001">
        <ele>2435.169</ele>
        <time>2018-07-19T11:04:15Z</time>
      </trkpt>
      <trkpt lat="45.308775" lon="6.913951">
        <ele>2434.337</ele>
        <time>2018-07-19T11:04:20Z</time>
      </trkpt>
      <trkpt lat="45.308750" lon="6.913897">
        <ele>2433.466</ele>
        <time>2018-07-19T11:04:25Z</time>
      </trkpt>
      <trkpt lat="45.308721" lon="6.913838">
        <ele>2431.311</ele>
        <time>2018-07-19T11:04:31Z</time>
      </trkpt>
      <trkpt lat="45.308691" lon="6.913783">
        <ele>2430.421</ele>
        <time>2018-07-19T11:04:36Z</time>
      </trkpt>
      <trkpt lat="45.308659" lon="6.913729">
        <ele>2429.503</ele>
        <time>2018-07-19T11:04:41Z</time>
      </trkpt>
      <trkpt lat="45.308625" lon="6.913679">
        <ele>2428.508</ele>
        <time>2018-07-19T11:04:47Z</time>
      </trkpt>
      <trkpt lat="45.308589" lon="6.913619">
        <ele>2427.153</ele>
        <time>2018-07-19T11:04:53Z</time>
      </trkpt>
      <trkpt lat="45.308555" lon="6.913568">
        <ele>2426.368</ele>
        <time>2018-07-19T11:04:58Z</time>
      </trkpt>
      <trkpt lat="45.308510" lon="6.913520">
        <ele>2425.453</ele>
        <time>2018-07-19T11:05:03Z</time>
      </trkpt>
      <trkpt lat="45.308465" lon="6.913473">
        <ele>2424.578</ele>
        <time>2018-07-19T11:05:08Z</time>
      </trkpt>
      <trkpt lat="45.308422" lon="6.913426">
        <ele>2423.933</ele>
        <time>2018-07-19T11:05:13Z</time>
      </trkpt>
      <trkpt lat="45.308386" lon="6.913387">
        <ele>2423.634</ele>
        <time>2018-07-19T11:05:17Z</time>
      </trkpt>
      <trkpt lat="45.308339" lon="6.913345">
        <ele>2423.462</ele>
        <time>2018-07-19T11:05:22Z</time>
      </trkpt>
      <trkpt lat="45.308299" lon="6.913315">
        <ele>2423.341</ele>
        <time>2018-07-19T11:05:26Z</time>
      </trkpt>
      <trkpt lat="45.308249" lon="6.913283">
        <ele>2423.247</ele>
        <time>2018-07-19T11:05:31Z</time>
      </trkpt>
      <trkpt lat="45.308204" lon="6.913251">
        <ele>2423.629</ele>
        <time>2018-07-19T11:05:36Z</time>
      </trkpt>
      <trkpt lat="45.308171" lon="6.913202">
        <ele>2423.821</ele>
        <time>2018-07-19T11:05:41Z</time>
      </trkpt>
      <trkpt lat="45.308134" lon="6.913155">
        <ele>2424.708</ele>
        <time>2018-07-19T11:05:47Z</time>
      </trkpt>
      <trkpt lat="45.308090" lon="6.913119">
        <ele>2425.396</ele>
        <time>2018-07-19T11:05:53Z</time>
      </trkpt>
      <trkpt lat="45.308044" lon="6.913091">
        <ele>2425.291</ele>
        <time>2018-07-19T11:05:58Z</time>
      </trkpt>
      <trkpt lat="45.307990" lon="6.913073">
        <ele>2424.856</ele>
        <time>2018-07-19T11:06:03Z</time>
      </trkpt>
      <trkpt lat="45.307941" lon="6.913050">
        <ele>2424.571</ele>
        <time>2018-07-19T11:06:08Z</time>
      </trkpt>
      <trkpt lat="45.307891" lon="6.913022">
        <ele>2424.356</ele>
        <time>2018-07-19T11:06:13Z</time>
      </trkpt>
      <trkpt lat="45.307857" lon="6.912974">
        <ele>2423.477</ele>
        <time>2018-07-19T11:06:29Z</time>
      </trkpt>
      <trkpt lat="45.307903" lon="6.912968">
        <ele>2420.915</ele>
        <time>2018-07-19T11:07:00Z</time>
      </trkpt>
      <trkpt lat="45.307949" lon="6.912967">
        <ele>2419.044</ele>
        <time>2018-07-19T11:07:04Z</time>
      </trkpt>
      <trkpt lat="45.307996" lon="6.912966">
        <ele>2417.051</ele>
        <time>2018-07-19T11:07:08Z</time>
      </trkpt>
      <trkpt lat="45.308049" lon="6.912959">
        <ele>2415.001</ele>
        <time>2018-07-19T11:07:13Z</time>
      </trkpt>
      <trkpt lat="45.308100" lon="6.912940">
        <ele>2413.811</ele>
        <time>2018-07-19T11:07:18Z</time>
      </trkpt>
      <trkpt lat="45.308134" lon="6.912984">
        <ele>2411.108</ele>
        <time>2018-07-19T11:07:21Z</time>
      </trkpt>
      <trkpt lat="45.308179" lon="6.912999">
        <ele>2409.557</ele>
        <time>2018-07-19T11:07:26Z</time>
      </trkpt>
      <trkpt lat="45.308230" lon="6.912999">
        <ele>2408.192</ele>
        <time>2018-07-19T11:07:31Z</time>
      </trkpt>
      <trkpt lat="45.308279" lon="6.912993">
        <ele>2407.387</ele>
        <time>2018-07-19T11:07:36Z</time>
      </trkpt>
      <trkpt lat="45.308326" lon="6.913010">
        <ele>2407.292</ele>
        <time>2018-07-19T11:07:40Z</time>
      </trkpt>
      <trkpt lat="45.308372" lon="6.913024">
        <ele>2406.727</ele>
        <time>2018-07-19T11:07:44Z</time>
      </trkpt>
      <trkpt lat="45.308542" lon="6.913043">
        <ele>2404.888</ele>
        <time>2018-07-19T11:07:58Z</time>
      </trkpt>
      <trkpt lat="45.308586" lon="6.913064">
        <ele>2404.926</ele>
        <time>2018-07-19T11:08:01Z</time>
      </trkpt>
      <trkpt lat="45.308603" lon="6.912996">
        <ele>2406.525</ele>
        <time>2018-07-19T11:08:03Z</time>
      </trkpt>
      <trkpt lat="45.308643" lon="6.913033">
        <ele>2405.174</ele>
        <time>2018-07-19T11:08:09Z</time>
      </trkpt>
      <trkpt lat="45.308690" lon="6.913073">
        <ele>2403.956</ele>
        <time>2018-07-19T11:08:14Z</time>
      </trkpt>
      <trkpt lat="45.308736" lon="6.913098">
        <ele>2402.821</ele>
        <time>2018-07-19T11:08:19Z</time>
      </trkpt>
      <trkpt lat="45.308783" lon="6.913120">
        <ele>2402.508</ele>
        <time>2018-07-19T11:08:24Z</time>
      </trkpt>
      <trkpt lat="45.308835" lon="6.913132">
        <ele>2402.739</ele>
        <time>2018-07-19T11:08:29Z</time>
      </trkpt>
      <trkpt lat="45.308885" lon="6.913135">
        <ele>2404.074</ele>
        <time>2018-07-19T11:08:34Z</time>
      </trkpt>
      <trkpt lat="45.308934" lon="6.913131">
        <ele>2404.099</ele>
        <time>2018-07-19T11:08:40Z</time>
      </trkpt>
      <trkpt lat="45.308982" lon="6.913133">
        <ele>2404.844</ele>
        <time>2018-07-19T11:08:46Z</time>
      </trkpt>
      <trkpt lat="45.309034" lon="6.913119">
        <ele>2405.329</ele>
        <time>2018-07-19T11:08:52Z</time>
      </trkpt>
      <trkpt lat="45.309080" lon="6.913100">
        <ele>2406.460</ele>
        <time>2018-07-19T11:08:58Z</time>
      </trkpt>
      <trkpt lat="45.309116" lon="6.913059">
        <ele>2407.918</ele>
        <time>2018-07-19T11:09:04Z</time>
      </trkpt>
      <trkpt lat="45.309165" lon="6.913050">
        <ele>2409.687</ele>
        <time>2018-07-19T11:09:11Z</time>
      </trkpt>
      <trkpt lat="45.309213" lon="6.913058">
        <ele>2409.879</ele>
        <time>2018-07-19T11:09:19Z</time>
      </trkpt>
      <trkpt lat="45.309260" lon="6.913041">
        <ele>2409.905</ele>
        <time>2018-07-19T11:09:30Z</time>
      </trkpt>
      <trkpt lat="45.309303" lon="6.913012">
        <ele>2410.025</ele>
        <time>2018-07-19T11:09:36Z</time>
      </trkpt>
      <trkpt lat="45.309344" lon="6.912983">
        <ele>2409.608</ele>
        <time>2018-07-19T11:09:42Z</time>
      </trkpt>
      <trkpt lat="45.309384" lon="6.912941">
        <ele>2409.829</ele>
        <time>2018-07-19T11:09:49Z</time>
      </trkpt>
      <trkpt lat="45.309426" lon="6.912900">
        <ele>2410.374</ele>
        <time>2018-07-19T11:09:55Z</time>
      </trkpt>
      <trkpt lat="45.309456" lon="6.912852">
        <ele>2411.029</ele>
        <time>2018-07-19T11:10:00Z</time>
      </trkpt>
      <trkpt lat="45.309477" lon="6.912795">
        <ele>2411.054</ele>
        <time>2018-07-19T11:10:05Z</time>
      </trkpt>
      <trkpt lat="45.309512" lon="6.912745">
        <ele>2411.449</ele>
        <time>2018-07-19T11:10:11Z</time>
      </trkpt>
      <trkpt lat="45.309523" lon="6.912671">
        <ele>2411.690</ele>
        <time>2018-07-19T11:10:17Z</time>
      </trkpt>
      <trkpt lat="45.309551" lon="6.912616">
        <ele>2412.148</ele>
        <time>2018-07-19T11:10:22Z</time>
      </trkpt>
      <trkpt lat="45.309573" lon="6.912556">
        <ele>2412.897</ele>
        <time>2018-07-19T11:11:55Z</time>
      </trkpt>
      <trkpt lat="45.309583" lon="6.912491">
        <ele>2413.636</ele>
        <time>2018-07-19T11:12:05Z</time>
      </trkpt>
      <trkpt lat="45.309624" lon="6.912455">
        <ele>2414.117</ele>
        <time>2018-07-19T11:12:12Z</time>
      </trkpt>
      <trkpt lat="45.309664" lon="6.912415">
        <ele>2413.618</ele>
        <time>2018-07-19T11:12:16Z</time>
      </trkpt>
      <trkpt lat="45.309708" lon="6.912397">
        <ele>2412.108</ele>
        <time>2018-07-19T11:12:23Z</time>
      </trkpt>
      <trkpt lat="45.309747" lon="6.912361">
        <ele>2410.435</ele>
        <time>2018-07-19T11:12:31Z</time>
      </trkpt>
      <trkpt lat="45.309788" lon="6.912333">
        <ele>2408.260</ele>
        <time>2018-07-19T11:12:39Z</time>
      </trkpt>
      <trkpt lat="45.309815" lon="6.912278">
        <ele>2406.585</ele>
        <time>2018-07-19T11:12:47Z</time>
      </trkpt>
      <trkpt lat="45.309844" lon="6.912220">
        <ele>2405.120</ele>
        <time>2018-07-19T11:12:53Z</time>
      </trkpt>
      <trkpt lat="45.309876" lon="6.912175">
        <ele>2403.455</ele>
        <time>2018-07-19T11:12:58Z</time>
      </trkpt>
      <trkpt lat="45.309898" lon="6.912111">
        <ele>2402.896</ele>
        <time>2018-07-19T11:13:03Z</time>
      </trkpt>
      <trkpt lat="45.309915" lon="6.912047">
        <ele>2402.434</ele>
        <time>2018-07-19T11:13:07Z</time>
      </trkpt>
      <trkpt lat="45.309953" lon="6.912004">
        <ele>2401.893</ele>
        <time>2018-07-19T11:13:12Z</time>
      </trkpt>
      <trkpt lat="45.310001" lon="6.911982">
        <ele>2401.859</ele>
        <time>2018-07-19T11:13:18Z</time>
      </trkpt>
      <trkpt lat="45.310048" lon="6.911964">
        <ele>2402.203</ele>
        <time>2018-07-19T11:13:28Z</time>
      </trkpt>
      <trkpt lat="45.310093" lon="6.911926">
        <ele>2403.323</ele>
        <time>2018-07-19T11:13:34Z</time>
      </trkpt>
      <trkpt lat="45.310140" lon="6.911928">
        <ele>2403.908</ele>
        <time>2018-07-19T11:13:41Z</time>
      </trkpt>
      <trkpt lat="45.310163" lon="6.911871">
        <ele>2405.157</ele>
        <time>2018-07-19T11:14:15Z</time>
      </trkpt>
      <trkpt lat="45.310113" lon="6.911865">
        <ele>2405.882</ele>
        <time>2018-07-19T11:14:46Z</time>
      </trkpt>
      <trkpt lat="45.310064" lon="6.911855">
        <ele>2405.847</ele>
        <time>2018-07-19T11:14:54Z</time>
      </trkpt>
      <trkpt lat="45.310020" lon="6.911830">
        <ele>2405.842</ele>
        <time>2018-07-19T11:15:07Z</time>
      </trkpt>
      <trkpt lat="45.309971" lon="6.911835">
        <ele>2404.257</ele>
        <time>2018-07-19T11:15:29Z</time>
      </trkpt>
      <trkpt lat="45.309924" lon="6.911847">
        <ele>2403.228</ele>
        <time>2018-07-19T11:15:35Z</time>
      </trkpt>
      <trkpt lat="45.309878" lon="6.911834">
        <ele>2402.276</ele>
        <time>2018-07-19T11:15:40Z</time>
      </trkpt>
      <trkpt lat="45.309832" lon="6.911810">
        <ele>2401.675</ele>
        <time>2018-07-19T11:15:45Z</time>
      </trkpt>
      <trkpt lat="45.309781" lon="6.911789">
        <ele>2401.667</ele>
        <time>2018-07-19T11:15:50Z</time>
      </trkpt>
      <trkpt lat="45.309729" lon="6.911780">
        <ele>2401.681</ele>
        <time>2018-07-19T11:15:55Z</time>
      </trkpt>
      <trkpt lat="45.309676" lon="6.911759">
        <ele>2401.619</ele>
        <time>2018-07-19T11:16:00Z</time>
      </trkpt>
      <trkpt lat="45.309631" lon="6.911729">
        <ele>2401.608</ele>
        <time>2018-07-19T11:16:05Z</time>
      </trkpt>
      <trkpt lat="45.309583" lon="6.911700">
        <ele>2401.298</ele>
        <time>2018-07-19T11:16:11Z</time>
      </trkpt>
      <trkpt lat="45.309536" lon="6.911680">
        <ele>2401.013</ele>
        <time>2018-07-19T11:16:16Z</time>
      </trkpt>
      <trkpt lat="45.309488" lon="6.911651">
        <ele>2400.948</ele>
        <time>2018-07-19T11:16:21Z</time>
      </trkpt>
      <trkpt lat="45.309438" lon="6.911621">
        <ele>2401.273</ele>
        <time>2018-07-19T11:16:26Z</time>
      </trkpt>
      <trkpt lat="45.309390" lon="6.911582">
        <ele>2401.858</ele>
        <time>2018-07-19T11:16:31Z</time>
      </trkpt>
      <trkpt lat="45.309352" lon="6.911544">
        <ele>2402.299</ele>
        <time>2018-07-19T11:16:35Z</time>
      </trkpt>
      <trkpt lat="45.309306" lon="6.911514">
        <ele>2402.037</ele>
        <time>2018-07-19T11:16:40Z</time>
      </trkpt>
      <trkpt lat="45.309265" lon="6.911487">
        <ele>2401.966</ele>
        <time>2018-07-19T11:16:44Z</time>
      </trkpt>
      <trkpt lat="45.309214" lon="6.911454">
        <ele>2401.825</ele>
        <time>2018-07-19T11:16:49Z</time>
      </trkpt>
      <trkpt lat="45.309161" lon="6.911428">
        <ele>2401.426</ele>
        <time>2018-07-19T11:16:54Z</time>
      </trkpt>
      <trkpt lat="45.309118" lon="6.911405">
        <ele>2401.108</ele>
        <time>2018-07-19T11:16:58Z</time>
      </trkpt>
      <trkpt lat="45.309076" lon="6.911368">
        <ele>2400.908</ele>
        <time>2018-07-19T11:17:03Z</time>
      </trkpt>
      <trkpt lat="45.309041" lon="6.911316">
        <ele>2400.094</ele>
        <time>2018-07-19T11:17:08Z</time>
      </trkpt>
      <trkpt lat="45.308999" lon="6.911263">
        <ele>2399.959</ele>
        <time>2018-07-19T11:17:13Z</time>
      </trkpt>
      <trkpt lat="45.308965" lon="6.911217">
        <ele>2399.824</ele>
        <time>2018-07-19T11:17:17Z</time>
      </trkpt>
      <trkpt lat="45.308925" lon="6.911169">
        <ele>2399.869</ele>
        <time>2018-07-19T11:17:22Z</time>
      </trkpt>
      <trkpt lat="45.308886" lon="6.911113">
        <ele>2399.854</ele>
        <time>2018-07-19T11:17:27Z</time>
      </trkpt>
      <trkpt lat="45.308850" lon="6.911059">
        <ele>2399.845</ele>
        <time>2018-07-19T11:17:32Z</time>
      </trkpt>
      <trkpt lat="45.308812" lon="6.911006">
        <ele>2399.813</ele>
        <time>2018-07-19T11:17:37Z</time>
      </trkpt>
      <trkpt lat="45.308781" lon="6.910960">
        <ele>2399.492</ele>
        <time>2018-07-19T11:17:41Z</time>
      </trkpt>
      <trkpt lat="45.308739" lon="6.910912">
        <ele>2399.247</ele>
        <time>2018-07-19T11:17:46Z</time>
      </trkpt>
      <trkpt lat="45.308698" lon="6.910867">
        <ele>2398.329</ele>
        <time>2018-07-19T11:17:51Z</time>
      </trkpt>
      <trkpt lat="45.308661" lon="6.910822">
        <ele>2397.321</ele>
        <time>2018-07-19T11:17:56Z</time>
      </trkpt>
      <trkpt lat="45.308623" lon="6.910778">
        <ele>2396.308</ele>
        <time>2018-07-19T11:18:01Z</time>
      </trkpt>
      <trkpt lat="45.308583" lon="6.910723">
        <ele>2395.316</ele>
        <time>2018-07-19T11:18:06Z</time>
      </trkpt>
      <trkpt lat="45.308544" lon="6.910690">
        <ele>2394.731</ele>
        <time>2018-07-19T11:18:10Z</time>
      </trkpt>
      <trkpt lat="45.308500" lon="6.910652">
        <ele>2393.946</ele>
        <time>2018-07-19T11:18:15Z</time>
      </trkpt>
      <trkpt lat="45.308463" lon="6.910597">
        <ele>2393.821</ele>
        <time>2018-07-19T11:18:20Z</time>
      </trkpt>
      <trkpt lat="45.308435" lon="6.910542">
        <ele>2394.266</ele>
        <time>2018-07-19T11:18:25Z</time>
      </trkpt>
      <trkpt lat="45.308405" lon="6.910488">
        <ele>2394.417</ele>
        <time>2018-07-19T11:18:30Z</time>
      </trkpt>
      <trkpt lat="45.308371" lon="6.910433">
        <ele>2394.515</ele>
        <time>2018-07-19T11:18:35Z</time>
      </trkpt>
      <trkpt lat="45.308333" lon="6.910379">
        <ele>2394.684</ele>
        <time>2018-07-19T11:18:40Z</time>
      </trkpt>
      <trkpt lat="45.308295" lon="6.910338">
        <ele>2395.022</ele>
        <time>2018-07-19T11:18:45Z</time>
      </trkpt>
      <trkpt lat="45.308250" lon="6.910295">
        <ele>2394.562</ele>
        <time>2018-07-19T11:18:50Z</time>
      </trkpt>
      <trkpt lat="45.308208" lon="6.910254">
        <ele>2393.808</ele>
        <time>2018-07-19T11:18:55Z</time>
      </trkpt>
      <trkpt lat="45.308167" lon="6.910210">
        <ele>2393.408</ele>
        <time>2018-07-19T11:19:00Z</time>
      </trkpt>
      <trkpt lat="45.308128" lon="6.910167">
        <ele>2393.164</ele>
        <time>2018-07-19T11:19:05Z</time>
      </trkpt>
      <trkpt lat="45.308089" lon="6.910123">
        <ele>2392.999</ele>
        <time>2018-07-19T11:19:10Z</time>
      </trkpt>
      <trkpt lat="45.308050" lon="6.910090">
        <ele>2392.844</ele>
        <time>2018-07-19T11:19:15Z</time>
      </trkpt>
      <trkpt lat="45.308013" lon="6.910049">
        <ele>2392.349</ele>
        <time>2018-07-19T11:19:19Z</time>
      </trkpt>
      <trkpt lat="45.307980" lon="6.909992">
        <ele>2392.464</ele>
        <time>2018-07-19T11:19:24Z</time>
      </trkpt>
      <trkpt lat="45.307946" lon="6.909932">
        <ele>2392.985</ele>
        <time>2018-07-19T11:19:31Z</time>
      </trkpt>
      <trkpt lat="45.307913" lon="6.909878">
        <ele>2393.253</ele>
        <time>2018-07-19T11:19:36Z</time>
      </trkpt>
      <trkpt lat="45.307884" lon="6.909822">
        <ele>2393.822</ele>
        <time>2018-07-19T11:19:41Z</time>
      </trkpt>
      <trkpt lat="45.307849" lon="6.909773">
        <ele>2394.141</ele>
        <time>2018-07-19T11:19:46Z</time>
      </trkpt>
      <trkpt lat="45.307817" lon="6.909718">
        <ele>2394.381</ele>
        <time>2018-07-19T11:20:00Z</time>
      </trkpt>
      <trkpt lat="45.307784" lon="6.909663">
        <ele>2394.809</ele>
        <time>2018-07-19T11:20:06Z</time>
      </trkpt>
      <trkpt lat="45.307759" lon="6.909605">
        <ele>2395.108</ele>
        <time>2018-07-19T11:20:11Z</time>
      </trkpt>
      <trkpt lat="45.307732" lon="6.909543">
        <ele>2394.986</ele>
        <time>2018-07-19T11:20:16Z</time>
      </trkpt>
      <trkpt lat="45.307705" lon="6.909485">
        <ele>2395.211</ele>
        <time>2018-07-19T11:20:21Z</time>
      </trkpt>
      <trkpt lat="45.307676" lon="6.909428">
        <ele>2395.476</ele>
        <time>2018-07-19T11:20:26Z</time>
      </trkpt>
      <trkpt lat="45.307647" lon="6.909370">
        <ele>2395.951</ele>
        <time>2018-07-19T11:20:31Z</time>
      </trkpt>
      <trkpt lat="45.307628" lon="6.909304">
        <ele>2396.216</ele>
        <time>2018-07-19T11:20:36Z</time>
      </trkpt>
      <trkpt lat="45.307613" lon="6.909233">
        <ele>2396.457</ele>
        <time>2018-07-19T11:20:41Z</time>
      </trkpt>
      <trkpt lat="45.307605" lon="6.909155">
        <ele>2396.155</ele>
        <time>2018-07-19T11:20:46Z</time>
      </trkpt>
      <trkpt lat="45.307598" lon="6.909089">
        <ele>2396.394</ele>
        <time>2018-07-19T11:20:50Z</time>
      </trkpt>
      <trkpt lat="45.307584" lon="6.909018">
        <ele>2396.064</ele>
        <time>2018-07-19T11:20:55Z</time>
      </trkpt>
      <trkpt lat="45.307567" lon="6.908957">
        <ele>2395.806</ele>
        <time>2018-07-19T11:21:00Z</time>
      </trkpt>
      <trkpt lat="45.307546" lon="6.908897">
        <ele>2396.116</ele>
        <time>2018-07-19T11:21:05Z</time>
      </trkpt>
      <trkpt lat="45.307523" lon="6.908838">
        <ele>2396.308</ele>
        <time>2018-07-19T11:21:10Z</time>
      </trkpt>
      <trkpt lat="45.307494" lon="6.908770">
        <ele>2396.048</ele>
        <time>2018-07-19T11:21:15Z</time>
      </trkpt>
      <trkpt lat="45.307466" lon="6.908703">
        <ele>2396.213</ele>
        <time>2018-07-19T11:21:20Z</time>
      </trkpt>
      <trkpt lat="45.307437" lon="6.908645">
        <ele>2396.328</ele>
        <time>2018-07-19T11:21:25Z</time>
      </trkpt>
      <trkpt lat="45.307403" lon="6.908589">
        <ele>2396.813</ele>
        <time>2018-07-19T11:21:31Z</time>
      </trkpt>
      <trkpt lat="45.307374" lon="6.908538">
        <ele>2397.588</ele>
        <time>2018-07-19T11:21:37Z</time>
      </trkpt>
      <trkpt lat="45.307348" lon="6.908482">
        <ele>2397.989</ele>
        <time>2018-07-19T11:21:43Z</time>
      </trkpt>
      <trkpt lat="45.307321" lon="6.908423">
        <ele>2398.967</ele>
        <time>2018-07-19T11:21:49Z</time>
      </trkpt>
      <trkpt lat="45.307297" lon="6.908367">
        <ele>2399.586</ele>
        <time>2018-07-19T11:21:54Z</time>
      </trkpt>
      <trkpt lat="45.307275" lon="6.908310">
        <ele>2399.953</ele>
        <time>2018-07-19T11:21:59Z</time>
      </trkpt>
      <trkpt lat="45.307250" lon="6.908250">
        <ele>2400.504</ele>
        <time>2018-07-19T11:22:05Z</time>
      </trkpt>
      <trkpt lat="45.307222" lon="6.908194">
        <ele>2400.514</ele>
        <time>2018-07-19T11:22:10Z</time>
      </trkpt>
      <trkpt lat="45.307193" lon="6.908133">
        <ele>2400.908</ele>
        <time>2018-07-19T11:22:15Z</time>
      </trkpt>
      <trkpt lat="45.307166" lon="6.908074">
        <ele>2400.797</ele>
        <time>2018-07-19T11:22:20Z</time>
      </trkpt>
      <trkpt lat="45.307145" lon="6.908006">
        <ele>2400.662</ele>
        <time>2018-07-19T11:22:25Z</time>
      </trkpt>
      <trkpt lat="45.307143" lon="6.907935">
        <ele>2400.567</ele>
        <time>2018-07-19T11:22:30Z</time>
      </trkpt>
      <trkpt lat="45.307146" lon="6.907859">
        <ele>2400.132</ele>
        <time>2018-07-19T11:22:35Z</time>
      </trkpt>
      <trkpt lat="45.307154" lon="6.907783">
        <ele>2399.497</ele>
        <time>2018-07-19T11:22:40Z</time>
      </trkpt>
      <trkpt lat="45.307166" lon="6.907714">
        <ele>2398.658</ele>
        <time>2018-07-19T11:22:45Z</time>
      </trkpt>
      <trkpt lat="45.307173" lon="6.907642">
        <ele>2398.166</ele>
        <time>2018-07-19T11:22:50Z</time>
      </trkpt>
      <trkpt lat="45.307174" lon="6.907562">
        <ele>2398.625</ele>
        <time>2018-07-19T11:22:55Z</time>
      </trkpt>
      <trkpt lat="45.307173" lon="6.907491">
        <ele>2399.338</ele>
        <time>2018-07-19T11:22:59Z</time>
      </trkpt>
      <trkpt lat="45.307168" lon="6.907413">
        <ele>2399.770</ele>
        <time>2018-07-19T11:23:04Z</time>
      </trkpt>
      <trkpt lat="45.307165" lon="6.907342">
        <ele>2400.417</ele>
        <time>2018-07-19T11:23:09Z</time>
      </trkpt>
      <trkpt lat="45.307159" lon="6.907278">
        <ele>2400.808</ele>
        <time>2018-07-19T11:23:13Z</time>
      </trkpt>
      <trkpt lat="45.307151" lon="6.907202">
        <ele>2400.675</ele>
        <time>2018-07-19T11:23:18Z</time>
      </trkpt>
      <trkpt lat="45.307149" lon="6.907135">
        <ele>2400.590</ele>
        <time>2018-07-19T11:23:22Z</time>
      </trkpt>
      <trkpt lat="45.307162" lon="6.907072">
        <ele>2400.475</ele>
        <time>2018-07-19T11:23:26Z</time>
      </trkpt>
      <trkpt lat="45.307173" lon="6.907007">
        <ele>2400.890</ele>
        <time>2018-07-19T11:23:30Z</time>
      </trkpt>
      <trkpt lat="45.307176" lon="6.906931">
        <ele>2401.065</ele>
        <time>2018-07-19T11:23:35Z</time>
      </trkpt>
      <trkpt lat="45.307180" lon="6.906856">
        <ele>2401.526</ele>
        <time>2018-07-19T11:23:40Z</time>
      </trkpt>
      <trkpt lat="45.307175" lon="6.906786">
        <ele>2401.494</ele>
        <time>2018-07-19T11:23:45Z</time>
      </trkpt>
      <trkpt lat="45.307169" lon="6.906721">
        <ele>2401.463</ele>
        <time>2018-07-19T11:23:50Z</time>
      </trkpt>
      <trkpt lat="45.307175" lon="6.906646">
        <ele>2401.814</ele>
        <time>2018-07-19T11:23:55Z</time>
      </trkpt>
      <trkpt lat="45.307175" lon="6.906574">
        <ele>2401.654</ele>
        <time>2018-07-19T11:24:01Z</time>
      </trkpt>
      <trkpt lat="45.307165" lon="6.906498">
        <ele>2401.109</ele>
        <time>2018-07-19T11:24:07Z</time>
      </trkpt>
      <trkpt lat="45.307148" lon="6.906430">
        <ele>2400.408</ele>
        <time>2018-07-19T11:24:12Z</time>
      </trkpt>
      <trkpt lat="45.307133" lon="6.906359">
        <ele>2399.673</ele>
        <time>2018-07-19T11:24:17Z</time>
      </trkpt>
      <trkpt lat="45.307122" lon="6.906283">
        <ele>2399.158</ele>
        <time>2018-07-19T11:24:22Z</time>
      </trkpt>
      <trkpt lat="45.307111" lon="6.906217">
        <ele>2399.283</ele>
        <time>2018-07-19T11:24:26Z</time>
      </trkpt>
      <trkpt lat="45.307097" lon="6.906140">
        <ele>2399.398</ele>
        <time>2018-07-19T11:24:31Z</time>
      </trkpt>
      <trkpt lat="45.307091" lon="6.906061">
        <ele>2399.393</ele>
        <time>2018-07-19T11:24:36Z</time>
      </trkpt>
      <trkpt lat="45.307084" lon="6.905991">
        <ele>2399.384</ele>
        <time>2018-07-19T11:24:40Z</time>
      </trkpt>
      <trkpt lat="45.307078" lon="6.905915">
        <ele>2398.942</ele>
        <time>2018-07-19T11:24:45Z</time>
      </trkpt>
      <trkpt lat="45.307074" lon="6.905851">
        <ele>2398.791</ele>
        <time>2018-07-19T11:24:49Z</time>
      </trkpt>
      <trkpt lat="45.307063" lon="6.905776">
        <ele>2398.696</ele>
        <time>2018-07-19T11:24:54Z</time>
      </trkpt>
      <trkpt lat="45.307053" lon="6.905703">
        <ele>2398.531</ele>
        <time>2018-07-19T11:24:59Z</time>
      </trkpt>
      <trkpt lat="45.307045" lon="6.905639">
        <ele>2398.824</ele>
        <time>2018-07-19T11:25:03Z</time>
      </trkpt>
      <trkpt lat="45.307029" lon="6.905571">
        <ele>2398.608</ele>
        <time>2018-07-19T11:25:08Z</time>
      </trkpt>
      <trkpt lat="45.307012" lon="6.905506">
        <ele>2398.551</ele>
        <time>2018-07-19T11:25:14Z</time>
      </trkpt>
      <trkpt lat="45.306999" lon="6.905442">
        <ele>2398.476</ele>
        <time>2018-07-19T11:25:19Z</time>
      </trkpt>
      <trkpt lat="45.306995" lon="6.905377">
        <ele>2398.481</ele>
        <time>2018-07-19T11:25:24Z</time>
      </trkpt>
      <trkpt lat="45.306993" lon="6.905299">
        <ele>2398.856</ele>
        <time>2018-07-19T11:25:29Z</time>
      </trkpt>
      <trkpt lat="45.306998" lon="6.905233">
        <ele>2399.431</ele>
        <time>2018-07-19T11:25:33Z</time>
      </trkpt>
      <trkpt lat="45.307023" lon="6.905165">
        <ele>2399.462</ele>
        <time>2018-07-19T11:25:38Z</time>
      </trkpt>
      <trkpt lat="45.307052" lon="6.905103">
        <ele>2399.470</ele>
        <time>2018-07-19T11:25:43Z</time>
      </trkpt>
      <trkpt lat="45.307080" lon="6.905050">
        <ele>2399.019</ele>
        <time>2018-07-19T11:25:48Z</time>
      </trkpt>
      <trkpt lat="45.307073" lon="6.904983">
        <ele>2398.455</ele>
        <time>2018-07-19T11:26:03Z</time>
      </trkpt>
      <trkpt lat="45.307041" lon="6.904937">
        <ele>2398.407</ele>
        <time>2018-07-19T11:26:13Z</time>
      </trkpt>
      <trkpt lat="45.307018" lon="6.904877">
        <ele>2398.417</ele>
        <time>2018-07-19T11:26:18Z</time>
      </trkpt>
      <trkpt lat="45.306993" lon="6.904808">
        <ele>2398.408</ele>
        <time>2018-07-19T11:26:23Z</time>
      </trkpt>
      <trkpt lat="45.306969" lon="6.904741">
        <ele>2398.097</ele>
        <time>2018-07-19T11:26:28Z</time>
      </trkpt>
      <trkpt lat="45.306936" lon="6.904687">
        <ele>2398.262</ele>
        <time>2018-07-19T11:26:33Z</time>
      </trkpt>
      <trkpt lat="45.306906" lon="6.904636">
        <ele>2398.357</ele>
        <time>2018-07-19T11:26:38Z</time>
      </trkpt>
      <trkpt lat="45.306892" lon="6.904565">
        <ele>2397.692</ele>
        <time>2018-07-19T11:26:44Z</time>
      </trkpt>
      <trkpt lat="45.306900" lon="6.904489">
        <ele>2396.827</ele>
        <time>2018-07-19T11:26:50Z</time>
      </trkpt>
      <trkpt lat="45.306914" lon="6.904419">
        <ele>2395.968</ele>
        <time>2018-07-19T11:26:55Z</time>
      </trkpt>
      <trkpt lat="45.306942" lon="6.904368">
        <ele>2395.436</ele>
        <time>2018-07-19T11:27:01Z</time>
      </trkpt>
      <trkpt lat="45.306943" lon="6.904300">
        <ele>2395.175</ele>
        <time>2018-07-19T11:27:10Z</time>
      </trkpt>
      <trkpt lat="45.306890" lon="6.904309">
        <ele>2395.759</ele>
        <time>2018-07-19T11:27:17Z</time>
      </trkpt>
      <trkpt lat="45.306843" lon="6.904294">
        <ele>2396.503</ele>
        <time>2018-07-19T11:27:24Z</time>
      </trkpt>
      <trkpt lat="45.306796" lon="6.904296">
        <ele>2397.823</ele>
        <time>2018-07-19T11:27:32Z</time>
      </trkpt>
      <trkpt lat="45.306752" lon="6.904274">
        <ele>2398.608</ele>
        <time>2018-07-19T11:27:38Z</time>
      </trkpt>
      <trkpt lat="45.306715" lon="6.904229">
        <ele>2399.537</ele>
        <time>2018-07-19T11:27:46Z</time>
      </trkpt>
      <trkpt lat="45.306696" lon="6.904167">
        <ele>2399.672</ele>
        <time>2018-07-19T11:27:52Z</time>
      </trkpt>
      <trkpt lat="45.306684" lon="6.904092">
        <ele>2400.147</ele>
        <time>2018-07-19T11:27:57Z</time>
      </trkpt>
      <trkpt lat="45.306683" lon="6.904019">
        <ele>2400.472</ele>
        <time>2018-07-19T11:28:02Z</time>
      </trkpt>
      <trkpt lat="45.306685" lon="6.903947">
        <ele>2400.297</ele>
        <time>2018-07-19T11:28:07Z</time>
      </trkpt>
      <trkpt lat="45.306703" lon="6.903879">
        <ele>2400.188</ele>
        <time>2018-07-19T11:28:12Z</time>
      </trkpt>
      <trkpt lat="45.306731" lon="6.903821">
        <ele>2399.656</ele>
        <time>2018-07-19T11:28:17Z</time>
      </trkpt>
      <trkpt lat="45.306744" lon="6.903745">
        <ele>2400.115</ele>
        <time>2018-07-19T11:28:22Z</time>
      </trkpt>
      <trkpt lat="45.306768" lon="6.903677">
        <ele>2400.028</ele>
        <time>2018-07-19T11:28:27Z</time>
      </trkpt>
      <trkpt lat="45.306776" lon="6.903612">
        <ele>2400.389</ele>
        <time>2018-07-19T11:28:40Z</time>
      </trkpt>
      <trkpt lat="45.306760" lon="6.903552">
        <ele>2400.117</ele>
        <time>2018-07-19T11:28:46Z</time>
      </trkpt>
      <trkpt lat="45.306733" lon="6.903495">
        <ele>2400.408</ele>
        <time>2018-07-19T11:28:52Z</time>
      </trkpt>
      <trkpt lat="45.306718" lon="6.903430">
        <ele>2401.084</ele>
        <time>2018-07-19T11:28:57Z</time>
      </trkpt>
      <trkpt lat="45.306712" lon="6.903356">
        <ele>2401.369</ele>
        <time>2018-07-19T11:29:02Z</time>
      </trkpt>
      <trkpt lat="45.306704" lon="6.903286">
        <ele>2401.144</ele>
        <time>2018-07-19T11:29:07Z</time>
      </trkpt>
      <trkpt lat="45.306688" lon="6.903211">
        <ele>2401.469</ele>
        <time>2018-07-19T11:29:12Z</time>
      </trkpt>
      <trkpt lat="45.306673" lon="6.903149">
        <ele>2401.224</ele>
        <time>2018-07-19T11:29:17Z</time>
      </trkpt>
      <trkpt lat="45.306658" lon="6.903079">
        <ele>2400.755</ele>
        <time>2018-07-19T11:29:23Z</time>
      </trkpt>
      <trkpt lat="45.306643" lon="6.903014">
        <ele>2400.413</ele>
        <time>2018-07-19T11:29:29Z</time>
      </trkpt>
      <trkpt lat="45.306629" lon="6.902950">
        <ele>2399.852</ele>
        <time>2018-07-19T11:29:34Z</time>
      </trkpt>
      <trkpt lat="45.306617" lon="6.902876">
        <ele>2399.456</ele>
        <time>2018-07-19T11:29:39Z</time>
      </trkpt>
      <trkpt lat="45.306610" lon="6.902811">
        <ele>2398.859</ele>
        <time>2018-07-19T11:29:43Z</time>
      </trkpt>
      <trkpt lat="45.306605" lon="6.902747">
        <ele>2398.414</ele>
        <time>2018-07-19T11:29:47Z</time>
      </trkpt>
      <trkpt lat="45.306600" lon="6.902668">
        <ele>2397.808</ele>
        <time>2018-07-19T11:29:52Z</time>
      </trkpt>
      <trkpt lat="45.306606" lon="6.902593">
        <ele>2397.087</ele>
        <time>2018-07-19T11:29:57Z</time>
      </trkpt>
      <trkpt lat="45.306621" lon="6.902525">
        <ele>2396.952</ele>
        <time>2018-07-19T11:30:02Z</time>
      </trkpt>
      <trkpt lat="45.306643" lon="6.902456">
        <ele>2397.397</ele>
        <time>2018-07-19T11:30:07Z</time>
      </trkpt>
      <trkpt lat="45.306665" lon="6.902398">
        <ele>2397.142</ele>
        <time>2018-07-19T11:30:11Z</time>
      </trkpt>
      <trkpt lat="45.306696" lon="6.902348">
        <ele>2397.057</ele>
        <time>2018-07-19T11:30:15Z</time>
      </trkpt>
      <trkpt lat="45.306732" lon="6.902307">
        <ele>2396.598</ele>
        <time>2018-07-19T11:30:19Z</time>
      </trkpt>
      <trkpt lat="45.306765" lon="6.902247">
        <ele>2396.226</ele>
        <time>2018-07-19T11:30:24Z</time>
      </trkpt>
      <trkpt lat="45.306803" lon="6.902191">
        <ele>2395.635</ele>
        <time>2018-07-19T11:30:29Z</time>
      </trkpt>
      <trkpt lat="45.306844" lon="6.902143">
        <ele>2394.963</ele>
        <time>2018-07-19T11:30:34Z</time>
      </trkpt>
      <trkpt lat="45.306873" lon="6.902091">
        <ele>2394.144</ele>
        <time>2018-07-19T11:30:39Z</time>
      </trkpt>
      <trkpt lat="45.306914" lon="6.902049">
        <ele>2393.218</ele>
        <time>2018-07-19T11:30:44Z</time>
      </trkpt>
      <trkpt lat="45.306953" lon="6.902011">
        <ele>2392.708</ele>
        <time>2018-07-19T11:30:48Z</time>
      </trkpt>
      <trkpt lat="45.306993" lon="6.901980">
        <ele>2392.058</ele>
        <time>2018-07-19T11:30:52Z</time>
      </trkpt>
      <trkpt lat="45.307036" lon="6.901943">
        <ele>2391.623</ele>
        <time>2018-07-19T11:30:57Z</time>
      </trkpt>
      <trkpt lat="45.307080" lon="6.901916">
        <ele>2390.528</ele>
        <time>2018-07-19T11:31:03Z</time>
      </trkpt>
      <trkpt lat="45.307123" lon="6.901894">
        <ele>2390.323</ele>
        <time>2018-07-19T11:31:09Z</time>
      </trkpt>
      <trkpt lat="45.307126" lon="6.901828">
        <ele>2391.448</ele>
        <time>2018-07-19T11:31:18Z</time>
      </trkpt>
      <trkpt lat="45.307109" lon="6.901757">
        <ele>2392.039</ele>
        <time>2018-07-19T11:31:25Z</time>
      </trkpt>
      <trkpt lat="45.307102" lon="6.901686">
        <ele>2392.027</ele>
        <time>2018-07-19T11:31:31Z</time>
      </trkpt>
      <trkpt lat="45.307091" lon="6.901614">
        <ele>2392.426</ele>
        <time>2018-07-19T11:31:37Z</time>
      </trkpt>
      <trkpt lat="45.307073" lon="6.901544">
        <ele>2393.053</ele>
        <time>2018-07-19T11:31:43Z</time>
      </trkpt>
      <trkpt lat="45.307065" lon="6.901480">
        <ele>2393.404</ele>
        <time>2018-07-19T11:31:48Z</time>
      </trkpt>
      <trkpt lat="45.307061" lon="6.901407">
        <ele>2394.014</ele>
        <time>2018-07-19T11:31:55Z</time>
      </trkpt>
      <trkpt lat="45.307046" lon="6.901337">
        <ele>2394.008</ele>
        <time>2018-07-19T11:32:01Z</time>
      </trkpt>
      <trkpt lat="45.307031" lon="6.901262">
        <ele>2393.627</ele>
        <time>2018-07-19T11:32:07Z</time>
      </trkpt>
      <trkpt lat="45.307024" lon="6.901199">
        <ele>2393.412</ele>
        <time>2018-07-19T11:32:12Z</time>
      </trkpt>
      <trkpt lat="45.307043" lon="6.901129">
        <ele>2392.157</ele>
        <time>2018-07-19T11:32:18Z</time>
      </trkpt>
      <trkpt lat="45.307046" lon="6.901060">
        <ele>2391.772</ele>
        <time>2018-07-19T11:32:24Z</time>
      </trkpt>
      <trkpt lat="45.307032" lon="6.900999">
        <ele>2391.147</ele>
        <time>2018-07-19T11:32:30Z</time>
      </trkpt>
      <trkpt lat="45.307024" lon="6.900929">
        <ele>2390.788</ele>
        <time>2018-07-19T11:32:35Z</time>
      </trkpt>
      <trkpt lat="45.307018" lon="6.900851">
        <ele>2390.986</ele>
        <time>2018-07-19T11:32:40Z</time>
      </trkpt>
      <trkpt lat="45.307012" lon="6.900782">
        <ele>2390.625</ele>
        <time>2018-07-19T11:32:45Z</time>
      </trkpt>
      <trkpt lat="45.307001" lon="6.900715">
        <ele>2390.022</ele>
        <time>2018-07-19T11:32:52Z</time>
      </trkpt>
      <trkpt lat="45.306995" lon="6.900648">
        <ele>2389.762</ele>
        <time>2018-07-19T11:32:58Z</time>
      </trkpt>
      <trkpt lat="45.306991" lon="6.900577">
        <ele>2388.708</ele>
        <time>2018-07-19T11:33:03Z</time>
      </trkpt>
      <trkpt lat="45.306986" lon="6.900501">
        <ele>2388.108</ele>
        <time>2018-07-19T11:33:08Z</time>
      </trkpt>
      <trkpt lat="45.306972" lon="6.900437">
        <ele>2387.354</ele>
        <time>2018-07-19T11:33:13Z</time>
      </trkpt>
      <trkpt lat="45.306957" lon="6.900373">
        <ele>2386.499</ele>
        <time>2018-07-19T11:33:21Z</time>
      </trkpt>
      <trkpt lat="45.306942" lon="6.900310">
        <ele>2385.594</ele>
        <time>2018-07-19T11:33:31Z</time>
      </trkpt>
      <trkpt lat="45.306933" lon="6.900244">
        <ele>2383.879</ele>
        <time>2018-07-19T11:33:40Z</time>
      </trkpt>
      <trkpt lat="45.306936" lon="6.900180">
        <ele>2382.064</ele>
        <time>2018-07-19T11:33:49Z</time>
      </trkpt>
      <trkpt lat="45.306928" lon="6.900111">
        <ele>2380.575</ele>
        <time>2018-07-19T11:34:08Z</time>
      </trkpt>
      <trkpt lat="45.306898" lon="6.900052">
        <ele>2380.023</ele>
        <time>2018-07-19T11:34:14Z</time>
      </trkpt>
      <trkpt lat="45.306884" lon="6.899987">
        <ele>2379.782</ele>
        <time>2018-07-19T11:34:18Z</time>
      </trkpt>
      <trkpt lat="45.306863" lon="6.899922">
        <ele>2379.196</ele>
        <time>2018-07-19T11:34:23Z</time>
      </trkpt>
      <trkpt lat="45.306843" lon="6.899856">
        <ele>2379.231</ele>
        <time>2018-07-19T11:34:28Z</time>
      </trkpt>
      <trkpt lat="45.306823" lon="6.899788">
        <ele>2378.824</ele>
        <time>2018-07-19T11:34:33Z</time>
      </trkpt>
      <trkpt lat="45.306804" lon="6.899721">
        <ele>2378.208</ele>
        <time>2018-07-19T11:34:38Z</time>
      </trkpt>
      <trkpt lat="45.306786" lon="6.899662">
        <ele>2377.451</ele>
        <time>2018-07-19T11:34:43Z</time>
      </trkpt>
      <trkpt lat="45.306783" lon="6.899590">
        <ele>2376.156</ele>
        <time>2018-07-19T11:34:50Z</time>
      </trkpt>
      <trkpt lat="45.306819" lon="6.899534">
        <ele>2374.561</ele>
        <time>2018-07-19T11:34:56Z</time>
      </trkpt>
      <trkpt lat="45.306848" lon="6.899481">
        <ele>2374.876</ele>
        <time>2018-07-19T11:35:02Z</time>
      </trkpt>
      <trkpt lat="45.306823" lon="6.899421">
        <ele>2375.451</ele>
        <time>2018-07-19T11:35:39Z</time>
      </trkpt>
      <trkpt lat="45.306779" lon="6.899376">
        <ele>2376.132</ele>
        <time>2018-07-19T11:35:45Z</time>
      </trkpt>
      <trkpt lat="45.306744" lon="6.899318">
        <ele>2376.530</ele>
        <time>2018-07-19T11:35:51Z</time>
      </trkpt>
      <trkpt lat="45.306706" lon="6.899281">
        <ele>2377.219</ele>
        <time>2018-07-19T11:35:56Z</time>
      </trkpt>
      <trkpt lat="45.306661" lon="6.899254">
        <ele>2376.836</ele>
        <time>2018-07-19T11:36:01Z</time>
      </trkpt>
      <trkpt lat="45.306619" lon="6.899223">
        <ele>2376.617</ele>
        <time>2018-07-19T11:36:06Z</time>
      </trkpt>
      <trkpt lat="45.306580" lon="6.899176">
        <ele>2375.718</ele>
        <time>2018-07-19T11:36:11Z</time>
      </trkpt>
      <trkpt lat="45.306542" lon="6.899133">
        <ele>2374.708</ele>
        <time>2018-07-19T11:36:16Z</time>
      </trkpt>
      <trkpt lat="45.306501" lon="6.899092">
        <ele>2374.185</ele>
        <time>2018-07-19T11:36:21Z</time>
      </trkpt>
      <trkpt lat="45.306465" lon="6.899037">
        <ele>2373.080</ele>
        <time>2018-07-19T11:36:26Z</time>
      </trkpt>
      <trkpt lat="45.306433" lon="6.898976">
        <ele>2371.935</ele>
        <time>2018-07-19T11:36:31Z</time>
      </trkpt>
      <trkpt lat="45.306404" lon="6.898917">
        <ele>2370.870</ele>
        <time>2018-07-19T11:36:36Z</time>
      </trkpt>
      <trkpt lat="45.306378" lon="6.898847">
        <ele>2369.885</ele>
        <time>2018-07-19T11:36:41Z</time>
      </trkpt>
      <trkpt lat="45.306350" lon="6.898796">
        <ele>2368.896</ele>
        <time>2018-07-19T11:36:46Z</time>
      </trkpt>
      <trkpt lat="45.306325" lon="6.898739">
        <ele>2367.814</ele>
        <time>2018-07-19T11:36:52Z</time>
      </trkpt>
      <trkpt lat="45.306295" lon="6.898687">
        <ele>2366.883</ele>
        <time>2018-07-19T11:36:57Z</time>
      </trkpt>
      <trkpt lat="45.306271" lon="6.898628">
        <ele>2365.895</ele>
        <time>2018-07-19T11:37:03Z</time>
      </trkpt>
      <trkpt lat="45.306254" lon="6.898569">
        <ele>2364.449</ele>
        <time>2018-07-19T11:37:08Z</time>
      </trkpt>
      <trkpt lat="45.306234" lon="6.898511">
        <ele>2363.623</ele>
        <time>2018-07-19T11:37:13Z</time>
      </trkpt>
      <trkpt lat="45.306205" lon="6.898446">
        <ele>2362.708</ele>
        <time>2018-07-19T11:37:18Z</time>
      </trkpt>
      <trkpt lat="45.306177" lon="6.898388">
        <ele>2361.871</ele>
        <time>2018-07-19T11:37:23Z</time>
      </trkpt>
      <trkpt lat="45.306150" lon="6.898321">
        <ele>2360.836</ele>
        <time>2018-07-19T11:37:28Z</time>
      </trkpt>
      <trkpt lat="45.306122" lon="6.898266">
        <ele>2360.291</ele>
        <time>2018-07-19T11:37:33Z</time>
      </trkpt>
      <trkpt lat="45.306093" lon="6.898204">
        <ele>2359.526</ele>
        <time>2018-07-19T11:37:39Z</time>
      </trkpt>
      <trkpt lat="45.306077" lon="6.898142">
        <ele>2357.961</ele>
        <time>2018-07-19T11:37:45Z</time>
      </trkpt>
      <trkpt lat="45.306069" lon="6.898066">
        <ele>2356.962</ele>
        <time>2018-07-19T11:37:51Z</time>
      </trkpt>
      <trkpt lat="45.306062" lon="6.898002">
        <ele>2356.330</ele>
        <time>2018-07-19T11:37:55Z</time>
      </trkpt>
      <trkpt lat="45.306058" lon="6.897937">
        <ele>2356.799</ele>
        <time>2018-07-19T11:38:02Z</time>
      </trkpt>
      <trkpt lat="45.306060" lon="6.897862">
        <ele>2358.694</ele>
        <time>2018-07-19T11:38:13Z</time>
      </trkpt>
      <trkpt lat="45.306012" lon="6.897898">
        <ele>2359.357</ele>
        <time>2018-07-19T11:38:22Z</time>
      </trkpt>
      <trkpt lat="45.305963" lon="6.897917">
        <ele>2359.722</ele>
        <time>2018-07-19T11:38:27Z</time>
      </trkpt>
      <trkpt lat="45.305914" lon="6.897912">
        <ele>2360.008</ele>
        <time>2018-07-19T11:38:32Z</time>
      </trkpt>
      <trkpt lat="45.305865" lon="6.897914">
        <ele>2360.221</ele>
        <time>2018-07-19T11:38:37Z</time>
      </trkpt>
      <trkpt lat="45.305815" lon="6.897902">
        <ele>2359.516</ele>
        <time>2018-07-19T11:38:45Z</time>
      </trkpt>
      <trkpt lat="45.305765" lon="6.897897">
        <ele>2358.781</ele>
        <time>2018-07-19T11:38:53Z</time>
      </trkpt>
      <trkpt lat="45.305714" lon="6.897915">
        <ele>2357.846</ele>
        <time>2018-07-19T11:38:59Z</time>
      </trkpt>
      <trkpt lat="45.305668" lon="6.897932">
        <ele>2356.971</ele>
        <time>2018-07-19T11:39:04Z</time>
      </trkpt>
      <trkpt lat="45.305624" lon="6.897952">
        <ele>2355.952</ele>
        <time>2018-07-19T11:39:10Z</time>
      </trkpt>
      <trkpt lat="45.305576" lon="6.897951">
        <ele>2355.330</ele>
        <time>2018-07-19T11:39:17Z</time>
      </trkpt>
      <trkpt lat="45.305527" lon="6.897965">
        <ele>2355.099</ele>
        <time>2018-07-19T11:39:24Z</time>
      </trkpt>
      <trkpt lat="45.305478" lon="6.897972">
        <ele>2354.486</ele>
        <time>2018-07-19T11:39:31Z</time>
      </trkpt>
      <trkpt lat="45.305436" lon="6.898000">
        <ele>2353.660</ele>
        <time>2018-07-19T11:39:38Z</time>
      </trkpt>
      <trkpt lat="45.305388" lon="6.898014">
        <ele>2352.726</ele>
        <time>2018-07-19T11:39:47Z</time>
      </trkpt>
      <trkpt lat="45.305340" lon="6.898013">
        <ele>2352.208</ele>
        <time>2018-07-19T11:39:58Z</time>
      </trkpt>
      <trkpt lat="45.305293" lon="6.898022">
        <ele>2352.780</ele>
        <time>2018-07-19T11:40:16Z</time>
      </trkpt>
      <trkpt lat="45.305250" lon="6.898053">
        <ele>2353.465</ele>
        <time>2018-07-19T11:40:25Z</time>
      </trkpt>
      <trkpt lat="45.305206" lon="6.898082">
        <ele>2354.260</ele>
        <time>2018-07-19T11:40:33Z</time>
      </trkpt>
      <trkpt lat="45.305162" lon="6.898095">
        <ele>2355.565</ele>
        <time>2018-07-19T11:40:41Z</time>
      </trkpt>
      <trkpt lat="45.305126" lon="6.898056">
        <ele>2356.760</ele>
        <time>2018-07-19T11:40:48Z</time>
      </trkpt>
      <trkpt lat="45.305092" lon="6.898001">
        <ele>2358.261</ele>
        <time>2018-07-19T11:40:54Z</time>
      </trkpt>
      <trkpt lat="45.305067" lon="6.897947">
        <ele>2359.979</ele>
        <time>2018-07-19T11:40:59Z</time>
      </trkpt>
      <trkpt lat="45.305043" lon="6.897884">
        <ele>2361.318</ele>
        <time>2018-07-19T11:41:06Z</time>
      </trkpt>
      <trkpt lat="45.305032" lon="6.897821">
        <ele>2362.615</ele>
        <time>2018-07-19T11:41:13Z</time>
      </trkpt>
      <trkpt lat="45.305021" lon="6.897758">
        <ele>2363.465</ele>
        <time>2018-07-19T11:41:19Z</time>
      </trkpt>
      <trkpt lat="45.305010" lon="6.897692">
        <ele>2364.311</ele>
        <time>2018-07-19T11:41:25Z</time>
      </trkpt>
      <trkpt lat="45.304987" lon="6.897626">
        <ele>2365.208</ele>
        <time>2018-07-19T11:41:32Z</time>
      </trkpt>
      <trkpt lat="45.304965" lon="6.897563">
        <ele>2365.783</ele>
        <time>2018-07-19T11:41:38Z</time>
      </trkpt>
      <trkpt lat="45.304942" lon="6.897493">
        <ele>2366.458</ele>
        <time>2018-07-19T11:41:44Z</time>
      </trkpt>
      <trkpt lat="45.304925" lon="6.897422">
        <ele>2367.293</ele>
        <time>2018-07-19T11:41:50Z</time>
      </trkpt>
      <trkpt lat="45.304918" lon="6.897349">
        <ele>2367.748</ele>
        <time>2018-07-19T11:41:58Z</time>
      </trkpt>
      <trkpt lat="45.304906" lon="6.897285">
        <ele>2368.013</ele>
        <time>2018-07-19T11:42:03Z</time>
      </trkpt>
      <trkpt lat="45.304891" lon="6.897224">
        <ele>2368.294</ele>
        <time>2018-07-19T11:42:08Z</time>
      </trkpt>
      <trkpt lat="45.304879" lon="6.897159">
        <ele>2368.352</ele>
        <time>2018-07-19T11:42:13Z</time>
      </trkpt>
      <trkpt lat="45.304868" lon="6.897083">
        <ele>2368.461</ele>
        <time>2018-07-19T11:42:18Z</time>
      </trkpt>
      <trkpt lat="45.304856" lon="6.897016">
        <ele>2368.835</ele>
        <time>2018-07-19T11:42:23Z</time>
      </trkpt>
      <trkpt lat="45.304836" lon="6.896955">
        <ele>2369.186</ele>
        <time>2018-07-19T11:42:28Z</time>
      </trkpt>
      <trkpt lat="45.304821" lon="6.896892">
        <ele>2369.314</ele>
        <time>2018-07-19T11:42:33Z</time>
      </trkpt>
      <trkpt lat="45.304803" lon="6.896820">
        <ele>2369.808</ele>
        <time>2018-07-19T11:42:39Z</time>
      </trkpt>
      <trkpt lat="45.304785" lon="6.896759">
        <ele>2370.955</ele>
        <time>2018-07-19T11:42:44Z</time>
      </trkpt>
      <trkpt lat="45.304769" lon="6.896695">
        <ele>2371.240</ele>
        <time>2018-07-19T11:42:49Z</time>
      </trkpt>
      <trkpt lat="45.304760" lon="6.896628">
        <ele>2371.025</ele>
        <time>2018-07-19T11:42:54Z</time>
      </trkpt>
      <trkpt lat="45.304739" lon="6.896569">
        <ele>2371.320</ele>
        <time>2018-07-19T11:43:00Z</time>
      </trkpt>
      <trkpt lat="45.304703" lon="6.896517">
        <ele>2371.535</ele>
        <time>2018-07-19T11:43:07Z</time>
      </trkpt>
      <trkpt lat="45.304668" lon="6.896473">
        <ele>2371.676</ele>
        <time>2018-07-19T11:43:13Z</time>
      </trkpt>
      <trkpt lat="45.304633" lon="6.896429">
        <ele>2371.734</ele>
        <time>2018-07-19T11:43:18Z</time>
      </trkpt>
      <trkpt lat="45.304607" lon="6.896374">
        <ele>2371.353</ele>
        <time>2018-07-19T11:43:23Z</time>
      </trkpt>
      <trkpt lat="45.304584" lon="6.896304">
        <ele>2371.592</ele>
        <time>2018-07-19T11:43:28Z</time>
      </trkpt>
      <trkpt lat="45.304563" lon="6.896242">
        <ele>2371.273</ele>
        <time>2018-07-19T11:43:33Z</time>
      </trkpt>
      <trkpt lat="45.304549" lon="6.896176">
        <ele>2370.620</ele>
        <time>2018-07-19T11:43:38Z</time>
      </trkpt>
      <trkpt lat="45.304535" lon="6.896108">
        <ele>2370.308</ele>
        <time>2018-07-19T11:43:43Z</time>
      </trkpt>
      <trkpt lat="45.304515" lon="6.896039">
        <ele>2370.131</ele>
        <time>2018-07-19T11:43:48Z</time>
      </trkpt>
      <trkpt lat="45.304500" lon="6.895974">
        <ele>2370.076</ele>
        <time>2018-07-19T11:43:52Z</time>
      </trkpt>
      <trkpt lat="45.304483" lon="6.895913">
        <ele>2369.561</ele>
        <time>2018-07-19T11:43:56Z</time>
      </trkpt>
      <trkpt lat="45.304470" lon="6.895852">
        <ele>2369.246</ele>
        <time>2018-07-19T11:44:00Z</time>
      </trkpt>
      <trkpt lat="45.304453" lon="6.895777">
        <ele>2369.081</ele>
        <time>2018-07-19T11:44:05Z</time>
      </trkpt>
      <trkpt lat="45.304440" lon="6.895704">
        <ele>2368.532</ele>
        <time>2018-07-19T11:44:10Z</time>
      </trkpt>
      <trkpt lat="45.304428" lon="6.895633">
        <ele>2368.280</ele>
        <time>2018-07-19T11:44:15Z</time>
      </trkpt>
      <trkpt lat="45.304414" lon="6.895563">
        <ele>2368.019</ele>
        <time>2018-07-19T11:44:19Z</time>
      </trkpt>
      <trkpt lat="45.304399" lon="6.895496">
        <ele>2367.552</ele>
        <time>2018-07-19T11:44:23Z</time>
      </trkpt>
      <trkpt lat="45.304387" lon="6.895433">
        <ele>2367.253</ele>
        <time>2018-07-19T11:44:27Z</time>
      </trkpt>
      <trkpt lat="45.304369" lon="6.895365">
        <ele>2366.608</ele>
        <time>2018-07-19T11:44:32Z</time>
      </trkpt>
      <trkpt lat="45.304354" lon="6.895295">
        <ele>2365.908</ele>
        <time>2018-07-19T11:44:37Z</time>
      </trkpt>
      <trkpt lat="45.304346" lon="6.895222">
        <ele>2365.147</ele>
        <time>2018-07-19T11:44:42Z</time>
      </trkpt>
      <trkpt lat="45.304360" lon="6.895160">
        <ele>2364.232</ele>
        <time>2018-07-19T11:44:47Z</time>
      </trkpt>
      <trkpt lat="45.304365" lon="6.895085">
        <ele>2364.117</ele>
        <time>2018-07-19T11:44:52Z</time>
      </trkpt>
      <trkpt lat="45.304350" lon="6.895017">
        <ele>2364.442</ele>
        <time>2018-07-19T11:44:58Z</time>
      </trkpt>
      <trkpt lat="45.304341" lon="6.894941">
        <ele>2364.647</ele>
        <time>2018-07-19T11:45:04Z</time>
      </trkpt>
      <trkpt lat="45.304354" lon="6.894871">
        <ele>2364.328</ele>
        <time>2018-07-19T11:45:09Z</time>
      </trkpt>
      <trkpt lat="45.304376" lon="6.894806">
        <ele>2363.756</ele>
        <time>2018-07-19T11:45:15Z</time>
      </trkpt>
      <trkpt lat="45.304378" lon="6.894728">
        <ele>2364.285</ele>
        <time>2018-07-19T11:45:20Z</time>
      </trkpt>
      <trkpt lat="45.304371" lon="6.894653">
        <ele>2364.526</ele>
        <time>2018-07-19T11:45:25Z</time>
      </trkpt>
      <trkpt lat="45.304367" lon="6.894587">
        <ele>2365.147</ele>
        <time>2018-07-19T11:45:30Z</time>
      </trkpt>
      <trkpt lat="45.304364" lon="6.894517">
        <ele>2365.811</ele>
        <time>2018-07-19T11:45:35Z</time>
      </trkpt>
      <trkpt lat="45.304362" lon="6.894442">
        <ele>2366.608</ele>
        <time>2018-07-19T11:45:41Z</time>
      </trkpt>
      <trkpt lat="45.304369" lon="6.894376">
        <ele>2367.544</ele>
        <time>2018-07-19T11:45:46Z</time>
      </trkpt>
      <trkpt lat="45.304379" lon="6.894305">
        <ele>2368.459</ele>
        <time>2018-07-19T11:45:52Z</time>
      </trkpt>
      <trkpt lat="45.304385" lon="6.894230">
        <ele>2369.494</ele>
        <time>2018-07-19T11:45:58Z</time>
      </trkpt>
      <trkpt lat="45.304404" lon="6.894172">
        <ele>2368.839</ele>
        <time>2018-07-19T11:46:05Z</time>
      </trkpt>
      <trkpt lat="45.304437" lon="6.894117">
        <ele>2367.664</ele>
        <time>2018-07-19T11:46:12Z</time>
      </trkpt>
      <trkpt lat="45.304472" lon="6.894058">
        <ele>2366.955</ele>
        <time>2018-07-19T11:46:19Z</time>
      </trkpt>
      <trkpt lat="45.304501" lon="6.894003">
        <ele>2366.943</ele>
        <time>2018-07-19T11:46:24Z</time>
      </trkpt>
      <trkpt lat="45.304525" lon="6.893939">
        <ele>2366.942</ele>
        <time>2018-07-19T11:46:30Z</time>
      </trkpt>
      <trkpt lat="45.304560" lon="6.893894">
        <ele>2366.948</ele>
        <time>2018-07-19T11:46:35Z</time>
      </trkpt>
      <trkpt lat="45.304591" lon="6.893840">
        <ele>2366.561</ele>
        <time>2018-07-19T11:46:41Z</time>
      </trkpt>
      <trkpt lat="45.304632" lon="6.893797">
        <ele>2365.117</ele>
        <time>2018-07-19T11:46:48Z</time>
      </trkpt>
      <trkpt lat="45.304649" lon="6.893736">
        <ele>2365.008</ele>
        <time>2018-07-19T11:46:54Z</time>
      </trkpt>
      <trkpt lat="45.304663" lon="6.893664">
        <ele>2365.896</ele>
        <time>2018-07-19T11:47:02Z</time>
      </trkpt>
      <trkpt lat="45.304662" lon="6.893594">
        <ele>2367.551</ele>
        <time>2018-07-19T11:47:07Z</time>
      </trkpt>
      <trkpt lat="45.304665" lon="6.893526">
        <ele>2369.726</ele>
        <time>2018-07-19T11:47:12Z</time>
      </trkpt>
      <trkpt lat="45.304680" lon="6.893460">
        <ele>2371.461</ele>
        <time>2018-07-19T11:47:21Z</time>
      </trkpt>
      <trkpt lat="45.304695" lon="6.893393">
        <ele>2372.816</ele>
        <time>2018-07-19T11:47:28Z</time>
      </trkpt>
      <trkpt lat="45.304718" lon="6.893327">
        <ele>2374.117</ele>
        <time>2018-07-19T11:47:34Z</time>
      </trkpt>
      <trkpt lat="45.304744" lon="6.893262">
        <ele>2374.985</ele>
        <time>2018-07-19T11:47:39Z</time>
      </trkpt>
      <trkpt lat="45.304779" lon="6.893212">
        <ele>2375.444</ele>
        <time>2018-07-19T11:47:45Z</time>
      </trkpt>
      <trkpt lat="45.304818" lon="6.893174">
        <ele>2375.389</ele>
        <time>2018-07-19T11:47:53Z</time>
      </trkpt>
      <trkpt lat="45.304831" lon="6.893139">
        <ele>2382.006</ele>
        <time>2018-07-19T11:56:31Z</time>
      </trkpt>
      <trkpt lat="45.304825" lon="6.893072">
        <ele>2380.926</ele>
        <time>2018-07-19T11:56:57Z</time>
      </trkpt>
      <trkpt lat="45.304791" lon="6.893026">
        <ele>2381.008</ele>
        <time>2018-07-19T11:57:11Z</time>
      </trkpt>
      <trkpt lat="45.304759" lon="6.892978">
        <ele>2381.860</ele>
        <time>2018-07-19T11:57:19Z</time>
      </trkpt>
      <trkpt lat="45.304725" lon="6.892931">
        <ele>2382.715</ele>
        <time>2018-07-19T11:57:26Z</time>
      </trkpt>
      <trkpt lat="45.304702" lon="6.892869">
        <ele>2382.180</ele>
        <time>2018-07-19T11:57:34Z</time>
      </trkpt>
      <trkpt lat="45.304653" lon="6.892859">
        <ele>2381.765</ele>
        <time>2018-07-19T11:57:40Z</time>
      </trkpt>
      <trkpt lat="45.304604" lon="6.892850">
        <ele>2381.110</ele>
        <time>2018-07-19T11:57:45Z</time>
      </trkpt>
      <trkpt lat="45.304553" lon="6.892838">
        <ele>2380.791</ele>
        <time>2018-07-19T11:57:52Z</time>
      </trkpt>
      <trkpt lat="45.304511" lon="6.892801">
        <ele>2380.569</ele>
        <time>2018-07-19T11:57:58Z</time>
      </trkpt>
      <trkpt lat="45.304477" lon="6.892746">
        <ele>2379.678</ele>
        <time>2018-07-19T11:58:05Z</time>
      </trkpt>
      <trkpt lat="45.304443" lon="6.892693">
        <ele>2378.629</ele>
        <time>2018-07-19T11:58:11Z</time>
      </trkpt>
      <trkpt lat="45.304402" lon="6.892654">
        <ele>2378.000</ele>
        <time>2018-07-19T11:58:16Z</time>
      </trkpt>
      <trkpt lat="45.304355" lon="6.892640">
        <ele>2378.120</ele>
        <time>2018-07-19T11:58:20Z</time>
      </trkpt>
      <trkpt lat="45.304307" lon="6.892642">
        <ele>2378.508</ele>
        <time>2018-07-19T11:58:25Z</time>
      </trkpt>
      <trkpt lat="45.304264" lon="6.892669">
        <ele>2378.894</ele>
        <time>2018-07-19T11:58:32Z</time>
      </trkpt>
      <trkpt lat="45.304215" lon="6.892702">
        <ele>2379.889</ele>
        <time>2018-07-19T11:58:38Z</time>
      </trkpt>
      <trkpt lat="45.304163" lon="6.892692">
        <ele>2380.024</ele>
        <time>2018-07-19T11:58:44Z</time>
      </trkpt>
      <trkpt lat="45.304118" lon="6.892655">
        <ele>2380.199</ele>
        <time>2018-07-19T11:58:50Z</time>
      </trkpt>
      <trkpt lat="45.304088" lon="6.892597">
        <ele>2379.894</ele>
        <time>2018-07-19T11:58:55Z</time>
      </trkpt>
      <trkpt lat="45.304064" lon="6.892538">
        <ele>2379.645</ele>
        <time>2018-07-19T11:59:00Z</time>
      </trkpt>
      <trkpt lat="45.304053" lon="6.892473">
        <ele>2379.153</ele>
        <time>2018-07-19T11:59:05Z</time>
      </trkpt>
      <trkpt lat="45.304041" lon="6.892411">
        <ele>2378.462</ele>
        <time>2018-07-19T11:59:10Z</time>
      </trkpt>
      <trkpt lat="45.304021" lon="6.892348">
        <ele>2377.251</ele>
        <time>2018-07-19T11:59:15Z</time>
      </trkpt>
      <trkpt lat="45.303978" lon="6.892307">
        <ele>2376.501</ele>
        <time>2018-07-19T11:59:20Z</time>
      </trkpt>
      <trkpt lat="45.303936" lon="6.892285">
        <ele>2375.711</ele>
        <time>2018-07-19T11:59:25Z</time>
      </trkpt>
      <trkpt lat="45.303885" lon="6.892279">
        <ele>2375.208</ele>
        <time>2018-07-19T11:59:30Z</time>
      </trkpt>
      <trkpt lat="45.303831" lon="6.892271">
        <ele>2374.917</ele>
        <time>2018-07-19T11:59:35Z</time>
      </trkpt>
      <trkpt lat="45.303783" lon="6.892260">
        <ele>2374.712</ele>
        <time>2018-07-19T11:59:40Z</time>
      </trkpt>
      <trkpt lat="45.303744" lon="6.892224">
        <ele>2375.057</ele>
        <time>2018-07-19T11:59:45Z</time>
      </trkpt>
      <trkpt lat="45.303730" lon="6.892153">
        <ele>2374.822</ele>
        <time>2018-07-19T11:59:52Z</time>
      </trkpt>
      <trkpt lat="45.303709" lon="6.892095">
        <ele>2375.587</ele>
        <time>2018-07-19T11:59:57Z</time>
      </trkpt>
      <trkpt lat="45.303695" lon="6.892030">
        <ele>2375.188</ele>
        <time>2018-07-19T12:00:02Z</time>
      </trkpt>
      <trkpt lat="45.303684" lon="6.891963">
        <ele>2374.926</ele>
        <time>2018-07-19T12:00:07Z</time>
      </trkpt>
      <trkpt lat="45.303669" lon="6.891896">
        <ele>2374.435</ele>
        <time>2018-07-19T12:00:12Z</time>
      </trkpt>
      <trkpt lat="45.303645" lon="6.891840">
        <ele>2373.797</ele>
        <time>2018-07-19T12:00:17Z</time>
      </trkpt>
      <trkpt lat="45.303602" lon="6.891795">
        <ele>2373.323</ele>
        <time>2018-07-19T12:00:23Z</time>
      </trkpt>
      <trkpt lat="45.303566" lon="6.891740">
        <ele>2372.625</ele>
        <time>2018-07-19T12:00:28Z</time>
      </trkpt>
      <trkpt lat="45.303530" lon="6.891680">
        <ele>2372.608</ele>
        <time>2018-07-19T12:00:33Z</time>
      </trkpt>
      <trkpt lat="45.303495" lon="6.891624">
        <ele>2372.641</ele>
        <time>2018-07-19T12:00:39Z</time>
      </trkpt>
      <trkpt lat="45.303448" lon="6.891587">
        <ele>2373.046</ele>
        <time>2018-07-19T12:00:44Z</time>
      </trkpt>
      <trkpt lat="45.303396" lon="6.891556">
        <ele>2373.651</ele>
        <time>2018-07-19T12:00:49Z</time>
      </trkpt>
      <trkpt lat="45.303347" lon="6.891533">
        <ele>2373.656</ele>
        <time>2018-07-19T12:00:55Z</time>
      </trkpt>
      <trkpt lat="45.303303" lon="6.891501">
        <ele>2373.671</ele>
        <time>2018-07-19T12:01:00Z</time>
      </trkpt>
      <trkpt lat="45.303256" lon="6.891461">
        <ele>2374.062</ele>
        <time>2018-07-19T12:01:05Z</time>
      </trkpt>
      <trkpt lat="45.303219" lon="6.891413">
        <ele>2373.890</ele>
        <time>2018-07-19T12:01:11Z</time>
      </trkpt>
      <trkpt lat="45.303231" lon="6.891338">
        <ele>2371.719</ele>
        <time>2018-07-19T12:01:16Z</time>
      </trkpt>
      <trkpt lat="45.303252" lon="6.891274">
        <ele>2369.626</ele>
        <time>2018-07-19T12:01:20Z</time>
      </trkpt>
      <trkpt lat="45.303266" lon="6.891211">
        <ele>2368.047</ele>
        <time>2018-07-19T12:01:24Z</time>
      </trkpt>
      <trkpt lat="45.303258" lon="6.891143">
        <ele>2366.611</ele>
        <time>2018-07-19T12:01:29Z</time>
      </trkpt>
      <trkpt lat="45.303243" lon="6.891082">
        <ele>2365.408</ele>
        <time>2018-07-19T12:01:34Z</time>
      </trkpt>
      <trkpt lat="45.303238" lon="6.891017">
        <ele>2364.364</ele>
        <time>2018-07-19T12:01:39Z</time>
      </trkpt>
      <trkpt lat="45.303246" lon="6.890940">
        <ele>2363.299</ele>
        <time>2018-07-19T12:01:44Z</time>
      </trkpt>
      <trkpt lat="45.303244" lon="6.890863">
        <ele>2362.224</ele>
        <time>2018-07-19T12:01:49Z</time>
      </trkpt>
      <trkpt lat="45.303245" lon="6.890797">
        <ele>2361.649</ele>
        <time>2018-07-19T12:01:53Z</time>
      </trkpt>
      <trkpt lat="45.303251" lon="6.890732">
        <ele>2361.234</ele>
        <time>2018-07-19T12:01:57Z</time>
      </trkpt>
      <trkpt lat="45.303255" lon="6.890654">
        <ele>2360.655</ele>
        <time>2018-07-19T12:02:02Z</time>
      </trkpt>
      <trkpt lat="45.303254" lon="6.890589">
        <ele>2360.663</ele>
        <time>2018-07-19T12:02:06Z</time>
      </trkpt>
      <trkpt lat="45.303268" lon="6.890527">
        <ele>2360.632</ele>
        <time>2018-07-19T12:02:10Z</time>
      </trkpt>
      <trkpt lat="45.303287" lon="6.890455">
        <ele>2360.618</ele>
        <time>2018-07-19T12:02:15Z</time>
      </trkpt>
      <trkpt lat="45.303292" lon="6.890386">
        <ele>2360.698</ele>
        <time>2018-07-19T12:02:19Z</time>
      </trkpt>
      <trkpt lat="45.303300" lon="6.890320">
        <ele>2360.217</ele>
        <time>2018-07-19T12:02:23Z</time>
      </trkpt>
      <trkpt lat="45.303306" lon="6.890252">
        <ele>2360.008</ele>
        <time>2018-07-19T12:02:27Z</time>
      </trkpt>
      <trkpt lat="45.303312" lon="6.890184">
        <ele>2360.363</ele>
        <time>2018-07-19T12:02:31Z</time>
      </trkpt>
      <trkpt lat="45.303314" lon="6.890117">
        <ele>2360.138</ele>
        <time>2018-07-19T12:02:35Z</time>
      </trkpt>
      <trkpt lat="45.303320" lon="6.890044">
        <ele>2359.663</ele>
        <time>2018-07-19T12:02:40Z</time>
      </trkpt>
      <trkpt lat="45.303308" lon="6.889970">
        <ele>2359.318</ele>
        <time>2018-07-19T12:02:45Z</time>
      </trkpt>
      <trkpt lat="45.303285" lon="6.889914">
        <ele>2358.763</ele>
        <time>2018-07-19T12:02:50Z</time>
      </trkpt>
      <trkpt lat="45.303261" lon="6.889855">
        <ele>2357.914</ele>
        <time>2018-07-19T12:02:55Z</time>
      </trkpt>
      <trkpt lat="45.303256" lon="6.889785">
        <ele>2357.062</ele>
        <time>2018-07-19T12:03:02Z</time>
      </trkpt>
      <trkpt lat="45.303257" lon="6.889720">
        <ele>2355.771</ele>
        <time>2018-07-19T12:03:08Z</time>
      </trkpt>
      <trkpt lat="45.303258" lon="6.889653">
        <ele>2354.534</ele>
        <time>2018-07-19T12:03:13Z</time>
      </trkpt>
      <trkpt lat="45.303256" lon="6.889581">
        <ele>2353.455</ele>
        <time>2018-07-19T12:03:18Z</time>
      </trkpt>
      <trkpt lat="45.303259" lon="6.889516">
        <ele>2352.710</ele>
        <time>2018-07-19T12:03:22Z</time>
      </trkpt>
      <trkpt lat="45.303265" lon="6.889447">
        <ele>2351.908</ele>
        <time>2018-07-19T12:03:26Z</time>
      </trkpt>
      <trkpt lat="45.303265" lon="6.889377">
        <ele>2351.495</ele>
        <time>2018-07-19T12:03:30Z</time>
      </trkpt>
      <trkpt lat="45.303255" lon="6.889300">
        <ele>2350.750</ele>
        <time>2018-07-19T12:03:35Z</time>
      </trkpt>
      <trkpt lat="45.303247" lon="6.889232">
        <ele>2349.945</ele>
        <time>2018-07-19T12:03:39Z</time>
      </trkpt>
      <trkpt lat="45.303242" lon="6.889166">
        <ele>2349.490</ele>
        <time>2018-07-19T12:03:43Z</time>
      </trkpt>
      <trkpt lat="45.303237" lon="6.889088">
        <ele>2348.755</ele>
        <time>2018-07-19T12:03:48Z</time>
      </trkpt>
      <trkpt lat="45.303226" lon="6.889025">
        <ele>2348.346</ele>
        <time>2018-07-19T12:03:52Z</time>
      </trkpt>
      <trkpt lat="45.303205" lon="6.888953">
        <ele>2347.784</ele>
        <time>2018-07-19T12:03:57Z</time>
      </trkpt>
      <trkpt lat="45.303179" lon="6.888886">
        <ele>2347.373</ele>
        <time>2018-07-19T12:04:02Z</time>
      </trkpt>
      <trkpt lat="45.303158" lon="6.888828">
        <ele>2347.169</ele>
        <time>2018-07-19T12:04:07Z</time>
      </trkpt>
      <trkpt lat="45.303153" lon="6.888756">
        <ele>2346.604</ele>
        <time>2018-07-19T12:04:13Z</time>
      </trkpt>
      <trkpt lat="45.303167" lon="6.888679">
        <ele>2345.924</ele>
        <time>2018-07-19T12:04:18Z</time>
      </trkpt>
      <trkpt lat="45.303173" lon="6.888611">
        <ele>2345.908</ele>
        <time>2018-07-19T12:04:22Z</time>
      </trkpt>
      <trkpt lat="45.303195" lon="6.888540">
        <ele>2345.548</ele>
        <time>2018-07-19T12:04:27Z</time>
      </trkpt>
      <trkpt lat="45.303225" lon="6.888479">
        <ele>2344.863</ele>
        <time>2018-07-19T12:04:32Z</time>
      </trkpt>
      <trkpt lat="45.303229" lon="6.888407">
        <ele>2344.078</ele>
        <time>2018-07-19T12:04:37Z</time>
      </trkpt>
      <trkpt lat="45.303222" lon="6.888341">
        <ele>2343.543</ele>
        <time>2018-07-19T12:04:41Z</time>
      </trkpt>
      <trkpt lat="45.303229" lon="6.888273">
        <ele>2343.248</ele>
        <time>2018-07-19T12:04:45Z</time>
      </trkpt>
      <trkpt lat="45.303244" lon="6.888204">
        <ele>2342.679</ele>
        <time>2018-07-19T12:04:49Z</time>
      </trkpt>
      <trkpt lat="45.303255" lon="6.888133">
        <ele>2341.927</ele>
        <time>2018-07-19T12:04:55Z</time>
      </trkpt>
      <trkpt lat="45.303248" lon="6.888064">
        <ele>2341.566</ele>
        <time>2018-07-19T12:05:00Z</time>
      </trkpt>
      <trkpt lat="45.303238" lon="6.887999">
        <ele>2340.483</ele>
        <time>2018-07-19T12:05:05Z</time>
      </trkpt>
      <trkpt lat="45.303235" lon="6.887924">
        <ele>2339.825</ele>
        <time>2018-07-19T12:05:10Z</time>
      </trkpt>
      <trkpt lat="45.303228" lon="6.887849">
        <ele>2339.017</ele>
        <time>2018-07-19T12:05:15Z</time>
      </trkpt>
      <trkpt lat="45.303209" lon="6.887775">
        <ele>2337.708</ele>
        <time>2018-07-19T12:05:21Z</time>
      </trkpt>
      <trkpt lat="45.303181" lon="6.887723">
        <ele>2336.930</ele>
        <time>2018-07-19T12:05:25Z</time>
      </trkpt>
      <trkpt lat="45.303145" lon="6.887665">
        <ele>2336.065</ele>
        <time>2018-07-19T12:05:30Z</time>
      </trkpt>
      <trkpt lat="45.303126" lon="6.887601">
        <ele>2335.140</ele>
        <time>2018-07-19T12:05:35Z</time>
      </trkpt>
      <trkpt lat="45.303111" lon="6.887528">
        <ele>2334.285</ele>
        <time>2018-07-19T12:05:41Z</time>
      </trkpt>
      <trkpt lat="45.303102" lon="6.887462">
        <ele>2333.280</ele>
        <time>2018-07-19T12:05:46Z</time>
      </trkpt>
      <trkpt lat="45.303091" lon="6.887396">
        <ele>2332.211</ele>
        <time>2018-07-19T12:05:51Z</time>
      </trkpt>
      <trkpt lat="45.303087" lon="6.887328">
        <ele>2331.279</ele>
        <time>2018-07-19T12:05:57Z</time>
      </trkpt>
      <trkpt lat="45.303088" lon="6.887255">
        <ele>2329.838</ele>
        <time>2018-07-19T12:06:03Z</time>
      </trkpt>
      <trkpt lat="45.303084" lon="6.887190">
        <ele>2328.629</ele>
        <time>2018-07-19T12:06:08Z</time>
      </trkpt>
      <trkpt lat="45.303072" lon="6.887128">
        <ele>2327.900</ele>
        <time>2018-07-19T12:06:13Z</time>
      </trkpt>
      <trkpt lat="45.303075" lon="6.887059">
        <ele>2326.720</ele>
        <time>2018-07-19T12:06:19Z</time>
      </trkpt>
      <trkpt lat="45.303079" lon="6.886988">
        <ele>2325.608</ele>
        <time>2018-07-19T12:06:25Z</time>
      </trkpt>
      <trkpt lat="45.303094" lon="6.886926">
        <ele>2324.514</ele>
        <time>2018-07-19T12:06:32Z</time>
      </trkpt>
      <trkpt lat="45.303088" lon="6.886856">
        <ele>2322.229</ele>
        <time>2018-07-19T12:06:43Z</time>
      </trkpt>
      <trkpt lat="45.303085" lon="6.886790">
        <ele>2320.824</ele>
        <time>2018-07-19T12:06:50Z</time>
      </trkpt>
      <trkpt lat="45.303083" lon="6.886716">
        <ele>2319.619</ele>
        <time>2018-07-19T12:06:57Z</time>
      </trkpt>
      <trkpt lat="45.303073" lon="6.886646">
        <ele>2318.974</ele>
        <time>2018-07-19T12:07:04Z</time>
      </trkpt>
      <trkpt lat="45.303069" lon="6.886581">
        <ele>2317.325</ele>
        <time>2018-07-19T12:07:12Z</time>
      </trkpt>
      <trkpt lat="45.303061" lon="6.886511">
        <ele>2315.993</ele>
        <time>2018-07-19T12:07:25Z</time>
      </trkpt>
      <trkpt lat="45.303051" lon="6.886439">
        <ele>2314.342</ele>
        <time>2018-07-19T12:07:32Z</time>
      </trkpt>
      <trkpt lat="45.303050" lon="6.886370">
        <ele>2313.322</ele>
        <time>2018-07-19T12:07:37Z</time>
      </trkpt>
      <trkpt lat="45.303055" lon="6.886292">
        <ele>2312.362</ele>
        <time>2018-07-19T12:07:42Z</time>
      </trkpt>
      <trkpt lat="45.303051" lon="6.886225">
        <ele>2311.308</ele>
        <time>2018-07-19T12:07:46Z</time>
      </trkpt>
      <trkpt lat="45.303043" lon="6.886149">
        <ele>2310.708</ele>
        <time>2018-07-19T12:07:51Z</time>
      </trkpt>
      <trkpt lat="45.303022" lon="6.886077">
        <ele>2309.914</ele>
        <time>2018-07-19T12:07:56Z</time>
      </trkpt>
      <trkpt lat="45.302991" lon="6.886011">
        <ele>2309.059</ele>
        <time>2018-07-19T12:08:01Z</time>
      </trkpt>
      <trkpt lat="45.302962" lon="6.885953">
        <ele>2308.174</ele>
        <time>2018-07-19T12:08:06Z</time>
      </trkpt>
      <trkpt lat="45.302934" lon="6.885885">
        <ele>2307.299</ele>
        <time>2018-07-19T12:08:11Z</time>
      </trkpt>
      <trkpt lat="45.302897" lon="6.885824">
        <ele>2306.634</ele>
        <time>2018-07-19T12:08:16Z</time>
      </trkpt>
      <trkpt lat="45.302868" lon="6.885774">
        <ele>2306.355</ele>
        <time>2018-07-19T12:08:20Z</time>
      </trkpt>
      <trkpt lat="45.302829" lon="6.885719">
        <ele>2306.143</ele>
        <time>2018-07-19T12:08:25Z</time>
      </trkpt>
      <trkpt lat="45.302809" lon="6.885648">
        <ele>2305.682</ele>
        <time>2018-07-19T12:08:31Z</time>
      </trkpt>
      <trkpt lat="45.302803" lon="6.885576">
        <ele>2304.936</ele>
        <time>2018-07-19T12:08:36Z</time>
      </trkpt>
      <trkpt lat="45.302799" lon="6.885503">
        <ele>2304.117</ele>
        <time>2018-07-19T12:08:42Z</time>
      </trkpt>
      <trkpt lat="45.302788" lon="6.885439">
        <ele>2302.818</ele>
        <time>2018-07-19T12:08:47Z</time>
      </trkpt>
      <trkpt lat="45.302771" lon="6.885370">
        <ele>2301.608</ele>
        <time>2018-07-19T12:08:52Z</time>
      </trkpt>
      <trkpt lat="45.302746" lon="6.885300">
        <ele>2300.915</ele>
        <time>2018-07-19T12:08:57Z</time>
      </trkpt>
      <trkpt lat="45.302730" lon="6.885238">
        <ele>2300.580</ele>
        <time>2018-07-19T12:09:01Z</time>
      </trkpt>
      <trkpt lat="45.302719" lon="6.885176">
        <ele>2300.235</ele>
        <time>2018-07-19T12:09:05Z</time>
      </trkpt>
      <trkpt lat="45.302705" lon="6.885102">
        <ele>2299.670</ele>
        <time>2018-07-19T12:09:10Z</time>
      </trkpt>
      <trkpt lat="45.302686" lon="6.885032">
        <ele>2299.385</ele>
        <time>2018-07-19T12:09:15Z</time>
      </trkpt>
      <trkpt lat="45.302672" lon="6.884966">
        <ele>2299.126</ele>
        <time>2018-07-19T12:09:20Z</time>
      </trkpt>
      <trkpt lat="45.302648" lon="6.884907">
        <ele>2298.654</ele>
        <time>2018-07-19T12:09:25Z</time>
      </trkpt>
      <trkpt lat="45.302624" lon="6.884841">
        <ele>2297.943</ele>
        <time>2018-07-19T12:09:36Z</time>
      </trkpt>
      <trkpt lat="45.302604" lon="6.884776">
        <ele>2297.189</ele>
        <time>2018-07-19T12:09:42Z</time>
      </trkpt>
      <trkpt lat="45.302577" lon="6.884716">
        <ele>2296.206</ele>
        <time>2018-07-19T12:09:49Z</time>
      </trkpt>
      <trkpt lat="45.302549" lon="6.884663">
        <ele>2294.926</ele>
        <time>2018-07-19T12:09:58Z</time>
      </trkpt>
      <trkpt lat="45.302529" lon="6.884604">
        <ele>2293.308</ele>
        <time>2018-07-19T12:10:05Z</time>
      </trkpt>
      <trkpt lat="45.302519" lon="6.884535">
        <ele>2292.320</ele>
        <time>2018-07-19T12:10:11Z</time>
      </trkpt>
      <trkpt lat="45.302508" lon="6.884466">
        <ele>2291.345</ele>
        <time>2018-07-19T12:10:17Z</time>
      </trkpt>
      <trkpt lat="45.302505" lon="6.884400">
        <ele>2289.960</ele>
        <time>2018-07-19T12:10:22Z</time>
      </trkpt>
      <trkpt lat="45.302503" lon="6.884331">
        <ele>2288.725</ele>
        <time>2018-07-19T12:10:27Z</time>
      </trkpt>
      <trkpt lat="45.302501" lon="6.884267">
        <ele>2287.630</ele>
        <time>2018-07-19T12:10:32Z</time>
      </trkpt>
      <trkpt lat="45.302498" lon="6.884192">
        <ele>2286.931</ele>
        <time>2018-07-19T12:10:38Z</time>
      </trkpt>
      <trkpt lat="45.302495" lon="6.884120">
        <ele>2286.199</ele>
        <time>2018-07-19T12:10:44Z</time>
      </trkpt>
      <trkpt lat="45.302489" lon="6.884055">
        <ele>2285.228</ele>
        <time>2018-07-19T12:10:49Z</time>
      </trkpt>
      <trkpt lat="45.302479" lon="6.883991">
        <ele>2284.728</ele>
        <time>2018-07-19T12:10:54Z</time>
      </trkpt>
      <trkpt lat="45.302466" lon="6.883919">
        <ele>2283.689</ele>
        <time>2018-07-19T12:10:59Z</time>
      </trkpt>
      <trkpt lat="45.302457" lon="6.883842">
        <ele>2282.917</ele>
        <time>2018-07-19T12:11:04Z</time>
      </trkpt>
      <trkpt lat="45.302434" lon="6.883770">
        <ele>2282.108</ele>
        <time>2018-07-19T12:11:09Z</time>
      </trkpt>
      <trkpt lat="45.302418" lon="6.883705">
        <ele>2282.024</ele>
        <time>2018-07-19T12:11:14Z</time>
      </trkpt>
      <trkpt lat="45.302393" lon="6.883645">
        <ele>2282.019</ele>
        <time>2018-07-19T12:11:19Z</time>
      </trkpt>
      <trkpt lat="45.302355" lon="6.883589">
        <ele>2282.034</ele>
        <time>2018-07-19T12:11:24Z</time>
      </trkpt>
      <trkpt lat="45.302324" lon="6.883542">
        <ele>2282.059</ele>
        <time>2018-07-19T12:11:29Z</time>
      </trkpt>
      <trkpt lat="45.302306" lon="6.883479">
        <ele>2282.044</ele>
        <time>2018-07-19T12:11:34Z</time>
      </trkpt>
      <trkpt lat="45.302290" lon="6.883416">
        <ele>2281.695</ele>
        <time>2018-07-19T12:11:39Z</time>
      </trkpt>
      <trkpt lat="45.302274" lon="6.883344">
        <ele>2281.083</ele>
        <time>2018-07-19T12:11:44Z</time>
      </trkpt>
      <trkpt lat="45.302252" lon="6.883276">
        <ele>2280.292</ele>
        <time>2018-07-19T12:11:49Z</time>
      </trkpt>
      <trkpt lat="45.302227" lon="6.883220">
        <ele>2279.733</ele>
        <time>2018-07-19T12:11:55Z</time>
      </trkpt>
      <trkpt lat="45.302197" lon="6.883167">
        <ele>2278.223</ele>
        <time>2018-07-19T12:12:02Z</time>
      </trkpt>
      <trkpt lat="45.302168" lon="6.883116">
        <ele>2277.315</ele>
        <time>2018-07-19T12:12:09Z</time>
      </trkpt>
      <trkpt lat="45.302171" lon="6.883045">
        <ele>2276.008</ele>
        <time>2018-07-19T12:12:14Z</time>
      </trkpt>
      <trkpt lat="45.302169" lon="6.882977">
        <ele>2275.245</ele>
        <time>2018-07-19T12:12:19Z</time>
      </trkpt>
      <trkpt lat="45.302147" lon="6.882918">
        <ele>2274.390</ele>
        <time>2018-07-19T12:12:24Z</time>
      </trkpt>
      <trkpt lat="45.302129" lon="6.882857">
        <ele>2273.875</ele>
        <time>2018-07-19T12:12:28Z</time>
      </trkpt>
      <trkpt lat="45.302121" lon="6.882789">
        <ele>2273.530</ele>
        <time>2018-07-19T12:12:32Z</time>
      </trkpt>
      <trkpt lat="45.302121" lon="6.882719">
        <ele>2272.985</ele>
        <time>2018-07-19T12:12:36Z</time>
      </trkpt>
      <trkpt lat="45.302117" lon="6.882653">
        <ele>2272.586</ele>
        <time>2018-07-19T12:12:40Z</time>
      </trkpt>
      <trkpt lat="45.302107" lon="6.882582">
        <ele>2272.314</ele>
        <time>2018-07-19T12:12:45Z</time>
      </trkpt>
      <trkpt lat="45.302092" lon="6.882520">
        <ele>2272.223</ele>
        <time>2018-07-19T12:12:49Z</time>
      </trkpt>
      <trkpt lat="45.302067" lon="6.882450">
        <ele>2271.321</ele>
        <time>2018-07-19T12:12:54Z</time>
      </trkpt>
      <trkpt lat="45.302042" lon="6.882390">
        <ele>2270.441</ele>
        <time>2018-07-19T12:12:59Z</time>
      </trkpt>
      <trkpt lat="45.302021" lon="6.882326">
        <ele>2269.405</ele>
        <time>2018-07-19T12:13:06Z</time>
      </trkpt>
      <trkpt lat="45.301996" lon="6.882264">
        <ele>2268.408</ele>
        <time>2018-07-19T12:13:13Z</time>
      </trkpt>
      <trkpt lat="45.301970" lon="6.882207">
        <ele>2267.444</ele>
        <time>2018-07-19T12:13:20Z</time>
      </trkpt>
      <trkpt lat="45.301945" lon="6.882144">
        <ele>2266.459</ele>
        <time>2018-07-19T12:13:27Z</time>
      </trkpt>
      <trkpt lat="45.301914" lon="6.882090">
        <ele>2265.074</ele>
        <time>2018-07-19T12:13:34Z</time>
      </trkpt>
      <trkpt lat="45.301886" lon="6.882037">
        <ele>2263.469</ele>
        <time>2018-07-19T12:13:40Z</time>
      </trkpt>
      <trkpt lat="45.301863" lon="6.881980">
        <ele>2262.434</ele>
        <time>2018-07-19T12:13:45Z</time>
      </trkpt>
      <trkpt lat="45.301837" lon="6.881921">
        <ele>2261.425</ele>
        <time>2018-07-19T12:13:52Z</time>
      </trkpt>
      <trkpt lat="45.301809" lon="6.881866">
        <ele>2260.463</ele>
        <time>2018-07-19T12:14:00Z</time>
      </trkpt>
      <trkpt lat="45.301768" lon="6.881838">
        <ele>2259.092</ele>
        <time>2018-07-19T12:14:07Z</time>
      </trkpt>
      <trkpt lat="45.301733" lon="6.881789">
        <ele>2258.214</ele>
        <time>2018-07-19T12:14:16Z</time>
      </trkpt>
      <trkpt lat="45.301698" lon="6.881742">
        <ele>2257.354</ele>
        <time>2018-07-19T12:14:25Z</time>
      </trkpt>
      <trkpt lat="45.301663" lon="6.881690">
        <ele>2256.009</ele>
        <time>2018-07-19T12:14:34Z</time>
      </trkpt>
      <trkpt lat="45.301634" lon="6.881636">
        <ele>2254.408</ele>
        <time>2018-07-19T12:14:43Z</time>
      </trkpt>
      <trkpt lat="45.301598" lon="6.881595">
        <ele>2252.693</ele>
        <time>2018-07-19T12:14:52Z</time>
      </trkpt>
      <trkpt lat="45.301559" lon="6.881555">
        <ele>2250.798</ele>
        <time>2018-07-19T12:14:59Z</time>
      </trkpt>
      <trkpt lat="45.301531" lon="6.881489">
        <ele>2249.283</ele>
        <time>2018-07-19T12:15:06Z</time>
      </trkpt>
      <trkpt lat="45.301499" lon="6.881435">
        <ele>2247.958</ele>
        <time>2018-07-19T12:15:11Z</time>
      </trkpt>
      <trkpt lat="45.301470" lon="6.881379">
        <ele>2246.753</ele>
        <time>2018-07-19T12:15:17Z</time>
      </trkpt>
      <trkpt lat="45.301472" lon="6.881314">
        <ele>2246.094</ele>
        <time>2018-07-19T12:15:42Z</time>
      </trkpt>
      <trkpt lat="45.301446" lon="6.881258">
        <ele>2244.832</ele>
        <time>2018-07-19T12:15:49Z</time>
      </trkpt>
      <trkpt lat="45.301421" lon="6.881205">
        <ele>2244.121</ele>
        <time>2018-07-19T12:15:55Z</time>
      </trkpt>
      <trkpt lat="45.301396" lon="6.881143">
        <ele>2242.956</ele>
        <time>2018-07-19T12:16:01Z</time>
      </trkpt>
      <trkpt lat="45.301373" lon="6.881081">
        <ele>2241.859</ele>
        <time>2018-07-19T12:16:08Z</time>
      </trkpt>
      <trkpt lat="45.301347" lon="6.881028">
        <ele>2240.314</ele>
        <time>2018-07-19T12:16:14Z</time>
      </trkpt>
      <trkpt lat="45.301324" lon="6.880966">
        <ele>2238.608</ele>
        <time>2018-07-19T12:16:21Z</time>
      </trkpt>
      <trkpt lat="45.301298" lon="6.880912">
        <ele>2237.617</ele>
        <time>2018-07-19T12:16:26Z</time>
      </trkpt>
      <trkpt lat="45.301275" lon="6.880849">
        <ele>2236.642</ele>
        <time>2018-07-19T12:16:32Z</time>
      </trkpt>
      <trkpt lat="45.301252" lon="6.880791">
        <ele>2235.637</ele>
        <time>2018-07-19T12:16:37Z</time>
      </trkpt>
      <trkpt lat="45.301230" lon="6.880732">
        <ele>2234.682</ele>
        <time>2018-07-19T12:16:43Z</time>
      </trkpt>
      <trkpt lat="45.301193" lon="6.880680">
        <ele>2233.667</ele>
        <time>2018-07-19T12:16:49Z</time>
      </trkpt>
      <trkpt lat="45.301152" lon="6.880643">
        <ele>2233.078</ele>
        <time>2018-07-19T12:16:56Z</time>
      </trkpt>
      <trkpt lat="45.301115" lon="6.880601">
        <ele>2231.886</ele>
        <time>2018-07-19T12:17:05Z</time>
      </trkpt>
      <trkpt lat="45.301081" lon="6.880554">
        <ele>2230.745</ele>
        <time>2018-07-19T12:17:11Z</time>
      </trkpt>
      <trkpt lat="45.301057" lon="6.880496">
        <ele>2229.695</ele>
        <time>2018-07-19T12:17:16Z</time>
      </trkpt>
      <trkpt lat="45.301024" lon="6.880434">
        <ele>2228.649</ele>
        <time>2018-07-19T12:17:21Z</time>
      </trkpt>
      <trkpt lat="45.300998" lon="6.880369">
        <ele>2228.423</ele>
        <time>2018-07-19T12:17:27Z</time>
      </trkpt>
      <trkpt lat="45.300970" lon="6.880313">
        <ele>2228.708</ele>
        <time>2018-07-19T12:17:33Z</time>
      </trkpt>
      <trkpt lat="45.300959" lon="6.880248">
        <ele>2228.551</ele>
        <time>2018-07-19T12:17:43Z</time>
      </trkpt>
      <trkpt lat="45.300940" lon="6.880185">
        <ele>2227.286</ele>
        <time>2018-07-19T12:19:45Z</time>
      </trkpt>
      <trkpt lat="45.300931" lon="6.880121">
        <ele>2225.641</ele>
        <time>2018-07-19T12:19:55Z</time>
      </trkpt>
      <trkpt lat="45.300910" lon="6.880060">
        <ele>2224.616</ele>
        <time>2018-07-19T12:20:16Z</time>
      </trkpt>
      <trkpt lat="45.300954" lon="6.880089">
        <ele>2224.811</ele>
        <time>2018-07-19T12:20:37Z</time>
      </trkpt>
      <trkpt lat="45.300998" lon="6.880068">
        <ele>2224.922</ele>
        <time>2018-07-19T12:20:43Z</time>
      </trkpt>
      <trkpt lat="45.301036" lon="6.880018">
        <ele>2225.030</ele>
        <time>2018-07-19T12:20:49Z</time>
      </trkpt>
      <trkpt lat="45.301047" lon="6.879949">
        <ele>2224.649</ele>
        <time>2018-07-19T12:20:54Z</time>
      </trkpt>
      <trkpt lat="45.301043" lon="6.879871">
        <ele>2224.084</ele>
        <time>2018-07-19T12:21:01Z</time>
      </trkpt>
      <trkpt lat="45.301028" lon="6.879806">
        <ele>2219.107</ele>
        <time>2018-07-19T12:52:49Z</time>
      </trkpt>
      <trkpt lat="45.301032" lon="6.879737">
        <ele>2219.617</ele>
        <time>2018-07-19T12:53:00Z</time>
      </trkpt>
      <trkpt lat="45.301026" lon="6.879670">
        <ele>2219.408</ele>
        <time>2018-07-19T12:53:10Z</time>
      </trkpt>
      <trkpt lat="45.300992" lon="6.879620">
        <ele>2219.330</ele>
        <time>2018-07-19T12:53:15Z</time>
      </trkpt>
      <trkpt lat="45.300961" lon="6.879564">
        <ele>2219.125</ele>
        <time>2018-07-19T12:53:22Z</time>
      </trkpt>
      <trkpt lat="45.300939" lon="6.879505">
        <ele>2218.810</ele>
        <time>2018-07-19T12:53:27Z</time>
      </trkpt>
      <trkpt lat="45.300929" lon="6.879436">
        <ele>2218.245</ele>
        <time>2018-07-19T12:53:32Z</time>
      </trkpt>
      <trkpt lat="45.300918" lon="6.879372">
        <ele>2217.550</ele>
        <time>2018-07-19T12:53:37Z</time>
      </trkpt>
      <trkpt lat="45.300902" lon="6.879300">
        <ele>2216.351</ele>
        <time>2018-07-19T12:53:43Z</time>
      </trkpt>
      <trkpt lat="45.300901" lon="6.879228">
        <ele>2215.669</ele>
        <time>2018-07-19T12:53:49Z</time>
      </trkpt>
      <trkpt lat="45.300893" lon="6.879164">
        <ele>2214.878</ele>
        <time>2018-07-19T12:54:00Z</time>
      </trkpt>
      <trkpt lat="45.300898" lon="6.879095">
        <ele>2213.963</ele>
        <time>2018-07-19T12:54:05Z</time>
      </trkpt>
      <trkpt lat="45.300897" lon="6.879026">
        <ele>2213.444</ele>
        <time>2018-07-19T12:54:13Z</time>
      </trkpt>
      <trkpt lat="45.300886" lon="6.878952">
        <ele>2212.718</ele>
        <time>2018-07-19T12:54:20Z</time>
      </trkpt>
      <trkpt lat="45.300872" lon="6.878878">
        <ele>2212.708</ele>
        <time>2018-07-19T12:54:25Z</time>
      </trkpt>
      <trkpt lat="45.300839" lon="6.878830">
        <ele>2212.398</ele>
        <time>2018-07-19T12:54:30Z</time>
      </trkpt>
      <trkpt lat="45.300817" lon="6.878772">
        <ele>2212.013</ele>
        <time>2018-07-19T12:54:34Z</time>
      </trkpt>
      <trkpt lat="45.300812" lon="6.878702">
        <ele>2212.258</ele>
        <time>2018-07-19T12:54:40Z</time>
      </trkpt>
      <trkpt lat="45.300816" lon="6.878633">
        <ele>2211.943</ele>
        <time>2018-07-19T12:54:45Z</time>
      </trkpt>
      <trkpt lat="45.300833" lon="6.878560">
        <ele>2211.378</ele>
        <time>2018-07-19T12:54:51Z</time>
      </trkpt>
      <trkpt lat="45.300796" lon="6.878516">
        <ele>2211.079</ele>
        <time>2018-07-19T12:54:55Z</time>
      </trkpt>
      <trkpt lat="45.300775" lon="6.878455">
        <ele>2210.457</ele>
        <time>2018-07-19T12:55:00Z</time>
      </trkpt>
      <trkpt lat="45.300761" lon="6.878376">
        <ele>2209.636</ele>
        <time>2018-07-19T12:55:06Z</time>
      </trkpt>
      <trkpt lat="45.300748" lon="6.878314">
        <ele>2209.155</ele>
        <time>2018-07-19T12:55:10Z</time>
      </trkpt>
      <trkpt lat="45.300715" lon="6.878269">
        <ele>2208.007</ele>
        <time>2018-07-19T12:55:15Z</time>
      </trkpt>
      <trkpt lat="45.300706" lon="6.878200">
        <ele>2207.017</ele>
        <time>2018-07-19T12:55:22Z</time>
      </trkpt>
      <trkpt lat="45.300690" lon="6.878134">
        <ele>2206.008</ele>
        <time>2018-07-19T12:55:29Z</time>
      </trkpt>
      <trkpt lat="45.300654" lon="6.878094">
        <ele>2204.617</ele>
        <time>2018-07-19T12:55:42Z</time>
      </trkpt>
      <trkpt lat="45.300654" lon="6.878025">
        <ele>2203.482</ele>
        <time>2018-07-19T12:55:50Z</time>
      </trkpt>
      <trkpt lat="45.300669" lon="6.877960">
        <ele>2201.937</ele>
        <time>2018-07-19T12:55:57Z</time>
      </trkpt>
      <trkpt lat="45.300677" lon="6.877896">
        <ele>2200.282</ele>
        <time>2018-07-19T12:56:05Z</time>
      </trkpt>
      <trkpt lat="45.300656" lon="6.877837">
        <ele>2198.457</ele>
        <time>2018-07-19T12:56:13Z</time>
      </trkpt>
      <trkpt lat="45.300619" lon="6.877800">
        <ele>2196.948</ele>
        <time>2018-07-19T12:56:20Z</time>
      </trkpt>
      <trkpt lat="45.300574" lon="6.877771">
        <ele>2195.276</ele>
        <time>2018-07-19T12:56:28Z</time>
      </trkpt>
      <trkpt lat="45.300553" lon="6.877708">
        <ele>2193.445</ele>
        <time>2018-07-19T12:56:35Z</time>
      </trkpt>
      <trkpt lat="45.300566" lon="6.877644">
        <ele>2191.585</ele>
        <time>2018-07-19T12:56:42Z</time>
      </trkpt>
      <trkpt lat="45.300578" lon="6.877579">
        <ele>2190.089</ele>
        <time>2018-07-19T12:56:47Z</time>
      </trkpt>
      <trkpt lat="45.300571" lon="6.877508">
        <ele>2189.117</ele>
        <time>2018-07-19T12:56:53Z</time>
      </trkpt>
      <trkpt lat="45.300575" lon="6.877438">
        <ele>2188.508</ele>
        <time>2018-07-19T12:56:59Z</time>
      </trkpt>
      <trkpt lat="45.300546" lon="6.877384">
        <ele>2187.830</ele>
        <time>2018-07-19T12:57:06Z</time>
      </trkpt>
      <trkpt lat="45.300516" lon="6.877325">
        <ele>2187.415</ele>
        <time>2018-07-19T12:57:13Z</time>
      </trkpt>
      <trkpt lat="45.300475" lon="6.877282">
        <ele>2186.730</ele>
        <time>2018-07-19T12:57:20Z</time>
      </trkpt>
      <trkpt lat="45.300449" lon="6.877218">
        <ele>2186.335</ele>
        <time>2018-07-19T12:57:27Z</time>
      </trkpt>
      <trkpt lat="45.300433" lon="6.877153">
        <ele>2185.320</ele>
        <time>2018-07-19T12:57:33Z</time>
      </trkpt>
      <trkpt lat="45.300418" lon="6.877086">
        <ele>2184.371</ele>
        <time>2018-07-19T12:57:38Z</time>
      </trkpt>
      <trkpt lat="45.300403" lon="6.877015">
        <ele>2183.359</ele>
        <time>2018-07-19T12:57:43Z</time>
      </trkpt>
      <trkpt lat="45.300388" lon="6.876948">
        <ele>2182.758</ele>
        <time>2018-07-19T12:57:48Z</time>
      </trkpt>
      <trkpt lat="45.300363" lon="6.876885">
        <ele>2181.964</ele>
        <time>2018-07-19T12:57:53Z</time>
      </trkpt>
      <trkpt lat="45.300337" lon="6.876816">
        <ele>2181.006</ele>
        <time>2018-07-19T12:57:58Z</time>
      </trkpt>
      <trkpt lat="45.300324" lon="6.876746">
        <ele>2180.516</ele>
        <time>2018-07-19T12:58:03Z</time>
      </trkpt>
      <trkpt lat="45.300291" lon="6.876694">
        <ele>2179.008</ele>
        <time>2018-07-19T12:58:10Z</time>
      </trkpt>
      <trkpt lat="45.300248" lon="6.876732">
        <ele>2177.738</ele>
        <time>2018-07-19T12:58:16Z</time>
      </trkpt>
      <trkpt lat="45.300214" lon="6.876791">
        <ele>2176.533</ele>
        <time>2018-07-19T12:58:21Z</time>
      </trkpt>
      <trkpt lat="45.300187" lon="6.876845">
        <ele>2175.488</ele>
        <time>2018-07-19T12:58:26Z</time>
      </trkpt>
      <trkpt lat="45.300158" lon="6.876896">
        <ele>2174.723</ele>
        <time>2018-07-19T12:58:31Z</time>
      </trkpt>
      <trkpt lat="45.300125" lon="6.876946">
        <ele>2174.358</ele>
        <time>2018-07-19T12:58:35Z</time>
      </trkpt>
      <trkpt lat="45.300085" lon="6.876989">
        <ele>2173.739</ele>
        <time>2018-07-19T12:58:40Z</time>
      </trkpt>
      <trkpt lat="45.300045" lon="6.877029">
        <ele>2172.997</ele>
        <time>2018-07-19T12:58:45Z</time>
      </trkpt>
      <trkpt lat="45.300008" lon="6.877074">
        <ele>2172.096</ele>
        <time>2018-07-19T12:58:50Z</time>
      </trkpt>
      <trkpt lat="45.299983" lon="6.877129">
        <ele>2170.788</ele>
        <time>2018-07-19T12:58:56Z</time>
      </trkpt>
      <trkpt lat="45.299941" lon="6.877090">
        <ele>2169.124</ele>
        <time>2018-07-19T12:59:03Z</time>
      </trkpt>
      <trkpt lat="45.299927" lon="6.877022">
        <ele>2168.126</ele>
        <time>2018-07-19T12:59:08Z</time>
      </trkpt>
      <trkpt lat="45.299922" lon="6.876949">
        <ele>2167.908</ele>
        <time>2018-07-19T12:59:13Z</time>
      </trkpt>
      <trkpt lat="45.299904" lon="6.876882">
        <ele>2167.450</ele>
        <time>2018-07-19T12:59:18Z</time>
      </trkpt>
      <trkpt lat="45.299874" lon="6.876821">
        <ele>2166.735</ele>
        <time>2018-07-19T12:59:23Z</time>
      </trkpt>
      <trkpt lat="45.299848" lon="6.876756">
        <ele>2165.580</ele>
        <time>2018-07-19T12:59:29Z</time>
      </trkpt>
      <trkpt lat="45.299824" lon="6.876692">
        <ele>2164.025</ele>
        <time>2018-07-19T12:59:36Z</time>
      </trkpt>
      <trkpt lat="45.299801" lon="6.876627">
        <ele>2162.730</ele>
        <time>2018-07-19T12:59:43Z</time>
      </trkpt>
      <trkpt lat="45.299779" lon="6.876563">
        <ele>2160.751</ele>
        <time>2018-07-19T12:59:49Z</time>
      </trkpt>
      <trkpt lat="45.299743" lon="6.876513">
        <ele>2159.139</ele>
        <time>2018-07-19T12:59:55Z</time>
      </trkpt>
      <trkpt lat="45.299728" lon="6.876441">
        <ele>2157.778</ele>
        <time>2018-07-19T13:00:01Z</time>
      </trkpt>
      <trkpt lat="45.299724" lon="6.876371">
        <ele>2156.563</ele>
        <time>2018-07-19T13:00:07Z</time>
      </trkpt>
      <trkpt lat="45.299726" lon="6.876303">
        <ele>2155.044</ele>
        <time>2018-07-19T13:00:13Z</time>
      </trkpt>
      <trkpt lat="45.299735" lon="6.876235">
        <ele>2154.118</ele>
        <time>2018-07-19T13:00:19Z</time>
      </trkpt>
      <trkpt lat="45.299751" lon="6.876172">
        <ele>2153.108</ele>
        <time>2018-07-19T13:00:25Z</time>
      </trkpt>
      <trkpt lat="45.299770" lon="6.876113">
        <ele>2151.778</ele>
        <time>2018-07-19T13:00:31Z</time>
      </trkpt>
      <trkpt lat="45.299785" lon="6.876050">
        <ele>2150.153</ele>
        <time>2018-07-19T13:00:38Z</time>
      </trkpt>
      <trkpt lat="45.299793" lon="6.875981">
        <ele>2147.928</ele>
        <time>2018-07-19T13:00:49Z</time>
      </trkpt>
      <trkpt lat="45.299812" lon="6.875914">
        <ele>2145.433</ele>
        <time>2018-07-19T13:00:57Z</time>
      </trkpt>
      <trkpt lat="45.299838" lon="6.875858">
        <ele>2143.578</ele>
        <time>2018-07-19T13:01:06Z</time>
      </trkpt>
      <trkpt lat="45.299873" lon="6.875814">
        <ele>2141.649</ele>
        <time>2018-07-19T13:01:12Z</time>
      </trkpt>
      <trkpt lat="45.299914" lon="6.875783">
        <ele>2139.637</ele>
        <time>2018-07-19T13:01:18Z</time>
      </trkpt>
      <trkpt lat="45.299958" lon="6.875765">
        <ele>2138.076</ele>
        <time>2018-07-19T13:01:25Z</time>
      </trkpt>
      <trkpt lat="45.300004" lon="6.875739">
        <ele>2135.984</ele>
        <time>2018-07-19T13:01:34Z</time>
      </trkpt>
      <trkpt lat="45.300040" lon="6.875700">
        <ele>2134.607</ele>
        <time>2018-07-19T13:01:50Z</time>
      </trkpt>
      <trkpt lat="45.300062" lon="6.875640">
        <ele>2133.417</ele>
        <time>2018-07-19T13:01:57Z</time>
      </trkpt>
      <trkpt lat="45.300074" lon="6.875578">
        <ele>2132.708</ele>
        <time>2018-07-19T13:02:03Z</time>
      </trkpt>
      <trkpt lat="45.300086" lon="6.875510">
        <ele>2131.990</ele>
        <time>2018-07-19T13:02:10Z</time>
      </trkpt>
      <trkpt lat="45.300124" lon="6.875476">
        <ele>2131.025</ele>
        <time>2018-07-19T13:02:16Z</time>
      </trkpt>
      <trkpt lat="45.300162" lon="6.875438">
        <ele>2130.580</ele>
        <time>2018-07-19T13:02:23Z</time>
      </trkpt>
      <trkpt lat="45.300169" lon="6.875369">
        <ele>2130.215</ele>
        <time>2018-07-19T13:02:29Z</time>
      </trkpt>
      <trkpt lat="45.300168" lon="6.875304">
        <ele>2130.010</ele>
        <time>2018-07-19T13:02:34Z</time>
      </trkpt>
      <trkpt lat="45.300163" lon="6.875234">
        <ele>2129.961</ele>
        <time>2018-07-19T13:02:39Z</time>
      </trkpt>
      <trkpt lat="45.300152" lon="6.875168">
        <ele>2130.229</ele>
        <time>2018-07-19T13:02:44Z</time>
      </trkpt>
      <trkpt lat="45.300139" lon="6.875103">
        <ele>2130.458</ele>
        <time>2018-07-19T13:02:49Z</time>
      </trkpt>
      <trkpt lat="45.300142" lon="6.875027">
        <ele>2130.533</ele>
        <time>2018-07-19T13:02:54Z</time>
      </trkpt>
      <trkpt lat="45.300148" lon="6.874948">
        <ele>2130.223</ele>
        <time>2018-07-19T13:02:59Z</time>
      </trkpt>
      <trkpt lat="45.300140" lon="6.874870">
        <ele>2130.415</ele>
        <time>2018-07-19T13:03:04Z</time>
      </trkpt>
      <trkpt lat="45.300128" lon="6.874807">
        <ele>2130.508</ele>
        <time>2018-07-19T13:03:08Z</time>
      </trkpt>
      <trkpt lat="45.300134" lon="6.874738">
        <ele>2131.095</ele>
        <time>2018-07-19T13:03:13Z</time>
      </trkpt>
      <trkpt lat="45.300144" lon="6.874666">
        <ele>2131.340</ele>
        <time>2018-07-19T13:03:18Z</time>
      </trkpt>
      <trkpt lat="45.300150" lon="6.874589">
        <ele>2131.995</ele>
        <time>2018-07-19T13:03:23Z</time>
      </trkpt>
      <trkpt lat="45.300153" lon="6.874521">
        <ele>2131.870</ele>
        <time>2018-07-19T13:03:27Z</time>
      </trkpt>
      <trkpt lat="45.300168" lon="6.874445">
        <ele>2131.865</ele>
        <time>2018-07-19T13:03:32Z</time>
      </trkpt>
      <trkpt lat="45.300198" lon="6.874381">
        <ele>2131.856</ele>
        <time>2018-07-19T13:03:37Z</time>
      </trkpt>
      <trkpt lat="45.300228" lon="6.874333">
        <ele>2131.814</ele>
        <time>2018-07-19T13:03:41Z</time>
      </trkpt>
      <trkpt lat="45.300245" lon="6.874258">
        <ele>2132.283</ele>
        <time>2018-07-19T13:03:46Z</time>
      </trkpt>
      <trkpt lat="45.300236" lon="6.874190">
        <ele>2132.023</ele>
        <time>2018-07-19T13:03:50Z</time>
      </trkpt>
      <trkpt lat="45.300219" lon="6.874124">
        <ele>2131.983</ele>
        <time>2018-07-19T13:03:54Z</time>
      </trkpt>
      <trkpt lat="45.300211" lon="6.874051">
        <ele>2132.211</ele>
        <time>2018-07-19T13:03:59Z</time>
      </trkpt>
      <trkpt lat="45.300205" lon="6.873984">
        <ele>2132.408</ele>
        <time>2018-07-19T13:04:05Z</time>
      </trkpt>
      <trkpt lat="45.300205" lon="6.873913">
        <ele>2132.924</ele>
        <time>2018-07-19T13:04:11Z</time>
      </trkpt>
      <trkpt lat="45.300194" lon="6.873843">
        <ele>2132.899</ele>
        <time>2018-07-19T13:04:17Z</time>
      </trkpt>
      <trkpt lat="45.300180" lon="6.873773">
        <ele>2133.194</ele>
        <time>2018-07-19T13:04:23Z</time>
      </trkpt>
      <trkpt lat="45.300187" lon="6.873700">
        <ele>2132.959</ele>
        <time>2018-07-19T13:04:29Z</time>
      </trkpt>
      <trkpt lat="45.300200" lon="6.873632">
        <ele>2132.814</ele>
        <time>2018-07-19T13:04:35Z</time>
      </trkpt>
      <trkpt lat="45.300223" lon="6.873570">
        <ele>2132.795</ele>
        <time>2018-07-19T13:04:42Z</time>
      </trkpt>
      <trkpt lat="45.300238" lon="6.873499">
        <ele>2133.153</ele>
        <time>2018-07-19T13:04:49Z</time>
      </trkpt>
      <trkpt lat="45.300257" lon="6.873429">
        <ele>2133.762</ele>
        <time>2018-07-19T13:04:55Z</time>
      </trkpt>
      <trkpt lat="45.300265" lon="6.873365">
        <ele>2134.122</ele>
        <time>2018-07-19T13:05:00Z</time>
      </trkpt>
      <trkpt lat="45.300275" lon="6.873301">
        <ele>2134.762</ele>
        <time>2018-07-19T13:05:06Z</time>
      </trkpt>
      <trkpt lat="45.300286" lon="6.873228">
        <ele>2135.508</ele>
        <time>2018-07-19T13:05:12Z</time>
      </trkpt>
      <trkpt lat="45.300276" lon="6.873161">
        <ele>2136.008</ele>
        <time>2018-07-19T13:05:17Z</time>
      </trkpt>
      <trkpt lat="45.300261" lon="6.873100">
        <ele>2135.994</ele>
        <time>2018-07-19T13:05:22Z</time>
      </trkpt>
      <trkpt lat="45.300245" lon="6.873026">
        <ele>2135.459</ele>
        <time>2018-07-19T13:05:28Z</time>
      </trkpt>
      <trkpt lat="45.300249" lon="6.872955">
        <ele>2134.744</ele>
        <time>2018-07-19T13:05:33Z</time>
      </trkpt>
      <trkpt lat="45.300261" lon="6.872890">
        <ele>2134.399</ele>
        <time>2018-07-19T13:05:37Z</time>
      </trkpt>
      <trkpt lat="45.300263" lon="6.872822">
        <ele>2133.714</ele>
        <time>2018-07-19T13:05:41Z</time>
      </trkpt>
      <trkpt lat="45.300272" lon="6.872757">
        <ele>2133.315</ele>
        <time>2018-07-19T13:05:45Z</time>
      </trkpt>
      <trkpt lat="45.300283" lon="6.872694">
        <ele>2133.133</ele>
        <time>2018-07-19T13:05:49Z</time>
      </trkpt>
      <trkpt lat="45.300270" lon="6.872632">
        <ele>2132.242</ele>
        <time>2018-07-19T13:05:53Z</time>
      </trkpt>
      <trkpt lat="45.300251" lon="6.872569">
        <ele>2131.625</ele>
        <time>2018-07-19T13:05:57Z</time>
      </trkpt>
      <trkpt lat="45.300235" lon="6.872506">
        <ele>2130.926</ele>
        <time>2018-07-19T13:06:01Z</time>
      </trkpt>
      <trkpt lat="45.300208" lon="6.872446">
        <ele>2130.108</ele>
        <time>2018-07-19T13:06:05Z</time>
      </trkpt>
      <trkpt lat="45.300190" lon="6.872256">
        <ele>2129.608</ele>
        <time>2018-07-19T13:06:16Z</time>
      </trkpt>
      <trkpt lat="45.300154" lon="6.872206">
        <ele>2130.124</ele>
        <time>2018-07-19T13:06:21Z</time>
      </trkpt>
      <trkpt lat="45.300121" lon="6.872145">
        <ele>2130.099</ele>
        <time>2018-07-19T13:06:25Z</time>
      </trkpt>
      <trkpt lat="45.300097" lon="6.872071">
        <ele>2128.364</ele>
        <time>2018-07-19T13:06:29Z</time>
      </trkpt>
      <trkpt lat="45.300057" lon="6.872026">
        <ele>2127.339</ele>
        <time>2018-07-19T13:06:33Z</time>
      </trkpt>
      <trkpt lat="45.300041" lon="6.871958">
        <ele>2125.974</ele>
        <time>2018-07-19T13:06:38Z</time>
      </trkpt>
      <trkpt lat="45.300014" lon="6.871906">
        <ele>2125.515</ele>
        <time>2018-07-19T13:07:22Z</time>
      </trkpt>
      <trkpt lat="45.299983" lon="6.871851">
        <ele>2124.893</ele>
        <time>2018-07-19T13:07:29Z</time>
      </trkpt>
      <trkpt lat="45.299946" lon="6.871807">
        <ele>2124.072</ele>
        <time>2018-07-19T13:07:35Z</time>
      </trkpt>
      <trkpt lat="45.299916" lon="6.871759">
        <ele>2123.197</ele>
        <time>2018-07-19T13:07:40Z</time>
      </trkpt>
      <trkpt lat="45.299885" lon="6.871707">
        <ele>2121.823</ele>
        <time>2018-07-19T13:07:45Z</time>
      </trkpt>
      <trkpt lat="45.299854" lon="6.871652">
        <ele>2120.625</ele>
        <time>2018-07-19T13:07:50Z</time>
      </trkpt>
      <trkpt lat="45.299826" lon="6.871595">
        <ele>2119.508</ele>
        <time>2018-07-19T13:07:56Z</time>
      </trkpt>
      <trkpt lat="45.299784" lon="6.871563">
        <ele>2118.491</ele>
        <time>2018-07-19T13:08:02Z</time>
      </trkpt>
      <trkpt lat="45.299742" lon="6.871524">
        <ele>2117.096</ele>
        <time>2018-07-19T13:08:12Z</time>
      </trkpt>
      <trkpt lat="45.299706" lon="6.871475">
        <ele>2115.751</ele>
        <time>2018-07-19T13:08:17Z</time>
      </trkpt>
      <trkpt lat="45.299678" lon="6.871414">
        <ele>2114.516</ele>
        <time>2018-07-19T13:08:22Z</time>
      </trkpt>
      <trkpt lat="45.299650" lon="6.871346">
        <ele>2113.491</ele>
        <time>2018-07-19T13:08:27Z</time>
      </trkpt>
      <trkpt lat="45.299628" lon="6.871290">
        <ele>2112.392</ele>
        <time>2018-07-19T13:08:31Z</time>
      </trkpt>
      <trkpt lat="45.299594" lon="6.871237">
        <ele>2111.750</ele>
        <time>2018-07-19T13:08:35Z</time>
      </trkpt>
      <trkpt lat="45.299571" lon="6.871173">
        <ele>2111.749</ele>
        <time>2018-07-19T13:08:39Z</time>
      </trkpt>
      <trkpt lat="45.299552" lon="6.871103">
        <ele>2111.346</ele>
        <time>2018-07-19T13:08:44Z</time>
      </trkpt>
      <trkpt lat="45.299517" lon="6.871061">
        <ele>2110.788</ele>
        <time>2018-07-19T13:08:48Z</time>
      </trkpt>
      <trkpt lat="45.299476" lon="6.871024">
        <ele>2109.916</ele>
        <time>2018-07-19T13:08:52Z</time>
      </trkpt>
      <trkpt lat="45.299432" lon="6.870995">
        <ele>2109.408</ele>
        <time>2018-07-19T13:08:56Z</time>
      </trkpt>
      <trkpt lat="45.299386" lon="6.870970">
        <ele>2109.126</ele>
        <time>2018-07-19T13:09:01Z</time>
      </trkpt>
      <trkpt lat="45.299340" lon="6.870960">
        <ele>2108.571</ele>
        <time>2018-07-19T13:09:09Z</time>
      </trkpt>
      <trkpt lat="45.299296" lon="6.870915">
        <ele>2108.236</ele>
        <time>2018-07-19T13:09:14Z</time>
      </trkpt>
      <trkpt lat="45.299264" lon="6.870857">
        <ele>2108.031</ele>
        <time>2018-07-19T13:09:18Z</time>
      </trkpt>
      <trkpt lat="45.299237" lon="6.870794">
        <ele>2107.946</ele>
        <time>2018-07-19T13:09:22Z</time>
      </trkpt>
      <trkpt lat="45.299209" lon="6.870729">
        <ele>2107.447</ele>
        <time>2018-07-19T13:09:26Z</time>
      </trkpt>
      <trkpt lat="45.299180" lon="6.870668">
        <ele>2107.175</ele>
        <time>2018-07-19T13:09:30Z</time>
      </trkpt>
      <trkpt lat="45.299146" lon="6.870613">
        <ele>2106.544</ele>
        <time>2018-07-19T13:09:34Z</time>
      </trkpt>
      <trkpt lat="45.299111" lon="6.870559">
        <ele>2106.266</ele>
        <time>2018-07-19T13:09:38Z</time>
      </trkpt>
      <trkpt lat="45.299073" lon="6.870505">
        <ele>2106.029</ele>
        <time>2018-07-19T13:09:42Z</time>
      </trkpt>
      <trkpt lat="45.299034" lon="6.870460">
        <ele>2105.921</ele>
        <time>2018-07-19T13:09:46Z</time>
      </trkpt>
      <trkpt lat="45.298997" lon="6.870416">
        <ele>2105.808</ele>
        <time>2018-07-19T13:09:50Z</time>
      </trkpt>
      <trkpt lat="45.298961" lon="6.870373">
        <ele>2105.828</ele>
        <time>2018-07-19T13:09:54Z</time>
      </trkpt>
      <trkpt lat="45.298927" lon="6.870328">
        <ele>2106.223</ele>
        <time>2018-07-19T13:09:58Z</time>
      </trkpt>
      <trkpt lat="45.298885" lon="6.870278">
        <ele>2106.458</ele>
        <time>2018-07-19T13:10:03Z</time>
      </trkpt>
      <trkpt lat="45.298851" lon="6.870233">
        <ele>2106.563</ele>
        <time>2018-07-19T13:10:07Z</time>
      </trkpt>
      <trkpt lat="45.298809" lon="6.870182">
        <ele>2107.058</ele>
        <time>2018-07-19T13:10:12Z</time>
      </trkpt>
      <trkpt lat="45.298775" lon="6.870126">
        <ele>2107.799</ele>
        <time>2018-07-19T13:10:17Z</time>
      </trkpt>
      <trkpt lat="45.298741" lon="6.870074">
        <ele>2108.117</ele>
        <time>2018-07-19T13:10:22Z</time>
      </trkpt>
      <trkpt lat="45.298707" lon="6.870017">
        <ele>2108.376</ele>
        <time>2018-07-19T13:10:27Z</time>
      </trkpt>
      <trkpt lat="45.298680" lon="6.869957">
        <ele>2108.491</ele>
        <time>2018-07-19T13:10:32Z</time>
      </trkpt>
      <trkpt lat="45.298667" lon="6.869892">
        <ele>2108.181</ele>
        <time>2018-07-19T13:10:36Z</time>
      </trkpt>
      <trkpt lat="45.298660" lon="6.869819">
        <ele>2107.919</ele>
        <time>2018-07-19T13:10:40Z</time>
      </trkpt>
      <trkpt lat="45.298645" lon="6.869748">
        <ele>2107.408</ele>
        <time>2018-07-19T13:10:44Z</time>
      </trkpt>
      <trkpt lat="45.298641" lon="6.869679">
        <ele>2107.111</ele>
        <time>2018-07-19T13:10:48Z</time>
      </trkpt>
      <trkpt lat="45.298643" lon="6.869614">
        <ele>2106.986</ele>
        <time>2018-07-19T13:10:52Z</time>
      </trkpt>
      <trkpt lat="45.298640" lon="6.869545">
        <ele>2106.811</ele>
        <time>2018-07-19T13:10:56Z</time>
      </trkpt>
      <trkpt lat="45.298630" lon="6.869482">
        <ele>2106.796</ele>
        <time>2018-07-19T13:11:00Z</time>
      </trkpt>
      <trkpt lat="45.298613" lon="6.869409">
        <ele>2107.131</ele>
        <time>2018-07-19T13:11:05Z</time>
      </trkpt>
      <trkpt lat="45.298592" lon="6.869338">
        <ele>2107.732</ele>
        <time>2018-07-19T13:11:10Z</time>
      </trkpt>
      <trkpt lat="45.298572" lon="6.869278">
        <ele>2108.560</ele>
        <time>2018-07-19T13:11:14Z</time>
      </trkpt>
      <trkpt lat="45.298544" lon="6.869224">
        <ele>2109.089</ele>
        <time>2018-07-19T13:11:18Z</time>
      </trkpt>
      <trkpt lat="45.298509" lon="6.869179">
        <ele>2108.923</ele>
        <time>2018-07-19T13:11:22Z</time>
      </trkpt>
      <trkpt lat="45.298471" lon="6.869140">
        <ele>2109.283</ele>
        <time>2018-07-19T13:11:26Z</time>
      </trkpt>
      <trkpt lat="45.298426" lon="6.869101">
        <ele>2109.811</ele>
        <time>2018-07-19T13:11:31Z</time>
      </trkpt>
      <trkpt lat="45.298380" lon="6.869070">
        <ele>2110.208</ele>
        <time>2018-07-19T13:11:36Z</time>
      </trkpt>
      <trkpt lat="45.298333" lon="6.869038">
        <ele>2110.894</ele>
        <time>2018-07-19T13:11:41Z</time>
      </trkpt>
      <trkpt lat="45.298283" lon="6.869013">
        <ele>2111.639</ele>
        <time>2018-07-19T13:11:46Z</time>
      </trkpt>
      <trkpt lat="45.298246" lon="6.868976">
        <ele>2112.174</ele>
        <time>2018-07-19T13:11:50Z</time>
      </trkpt>
      <trkpt lat="45.298215" lon="6.868923">
        <ele>2112.499</ele>
        <time>2018-07-19T13:11:54Z</time>
      </trkpt>
      <trkpt lat="45.298186" lon="6.868866">
        <ele>2112.694</ele>
        <time>2018-07-19T13:11:58Z</time>
      </trkpt>
      <trkpt lat="45.298150" lon="6.868816">
        <ele>2112.365</ele>
        <time>2018-07-19T13:12:02Z</time>
      </trkpt>
      <trkpt lat="45.298108" lon="6.868772">
        <ele>2112.143</ele>
        <time>2018-07-19T13:12:06Z</time>
      </trkpt>
      <trkpt lat="45.298067" lon="6.868732">
        <ele>2111.662</ele>
        <time>2018-07-19T13:12:10Z</time>
      </trkpt>
      <trkpt lat="45.298029" lon="6.868692">
        <ele>2111.351</ele>
        <time>2018-07-19T13:12:14Z</time>
      </trkpt>
      <trkpt lat="45.297990" lon="6.868650">
        <ele>2111.501</ele>
        <time>2018-07-19T13:12:18Z</time>
      </trkpt>
      <trkpt lat="45.297944" lon="6.868607">
        <ele>2111.611</ele>
        <time>2018-07-19T13:12:22Z</time>
      </trkpt>
      <trkpt lat="45.297902" lon="6.868572">
        <ele>2111.708</ele>
        <time>2018-07-19T13:12:26Z</time>
      </trkpt>
      <trkpt lat="45.297862" lon="6.868540">
        <ele>2111.317</ele>
        <time>2018-07-19T13:12:30Z</time>
      </trkpt>
      <trkpt lat="45.297824" lon="6.868495">
        <ele>2110.772</ele>
        <time>2018-07-19T13:12:34Z</time>
      </trkpt>
      <trkpt lat="45.297790" lon="6.868442">
        <ele>2110.317</ele>
        <time>2018-07-19T13:12:38Z</time>
      </trkpt>
      <trkpt lat="45.297764" lon="6.868387">
        <ele>2110.532</ele>
        <time>2018-07-19T13:12:42Z</time>
      </trkpt>
      <trkpt lat="45.297742" lon="6.868322">
        <ele>2110.697</ele>
        <time>2018-07-19T13:12:46Z</time>
      </trkpt>
      <trkpt lat="45.297726" lon="6.868252">
        <ele>2110.748</ele>
        <time>2018-07-19T13:12:50Z</time>
      </trkpt>
      <trkpt lat="45.297715" lon="6.868181">
        <ele>2110.336</ele>
        <time>2018-07-19T13:12:54Z</time>
      </trkpt>
      <trkpt lat="45.297709" lon="6.868111">
        <ele>2110.195</ele>
        <time>2018-07-19T13:12:58Z</time>
      </trkpt>
      <trkpt lat="45.297705" lon="6.868039">
        <ele>2109.629</ele>
        <time>2018-07-19T13:13:02Z</time>
      </trkpt>
      <trkpt lat="45.297701" lon="6.867965">
        <ele>2109.300</ele>
        <time>2018-07-19T13:13:06Z</time>
      </trkpt>
      <trkpt lat="45.297695" lon="6.867893">
        <ele>2109.120</ele>
        <time>2018-07-19T13:13:10Z</time>
      </trkpt>
      <trkpt lat="45.297698" lon="6.867826">
        <ele>2108.608</ele>
        <time>2018-07-19T13:13:14Z</time>
      </trkpt>
      <trkpt lat="45.297703" lon="6.867755">
        <ele>2107.914</ele>
        <time>2018-07-19T13:13:18Z</time>
      </trkpt>
      <trkpt lat="45.297715" lon="6.867688">
        <ele>2107.549</ele>
        <time>2018-07-19T13:13:22Z</time>
      </trkpt>
      <trkpt lat="45.297725" lon="6.867620">
        <ele>2107.274</ele>
        <time>2018-07-19T13:13:26Z</time>
      </trkpt>
      <trkpt lat="45.297739" lon="6.867551">
        <ele>2106.679</ele>
        <time>2018-07-19T13:13:30Z</time>
      </trkpt>
      <trkpt lat="45.297758" lon="6.867481">
        <ele>2106.354</ele>
        <time>2018-07-19T13:13:34Z</time>
      </trkpt>
      <trkpt lat="45.297779" lon="6.867414">
        <ele>2105.765</ele>
        <time>2018-07-19T13:13:38Z</time>
      </trkpt>
      <trkpt lat="45.297793" lon="6.867346">
        <ele>2105.393</ele>
        <time>2018-07-19T13:13:42Z</time>
      </trkpt>
      <trkpt lat="45.297807" lon="6.867275">
        <ele>2104.732</ele>
        <time>2018-07-19T13:13:46Z</time>
      </trkpt>
      <trkpt lat="45.297821" lon="6.867208">
        <ele>2103.994</ele>
        <time>2018-07-19T13:13:50Z</time>
      </trkpt>
      <trkpt lat="45.297836" lon="6.867132">
        <ele>2103.057</ele>
        <time>2018-07-19T13:13:55Z</time>
      </trkpt>
      <trkpt lat="45.297841" lon="6.867062">
        <ele>2102.522</ele>
        <time>2018-07-19T13:13:59Z</time>
      </trkpt>
      <trkpt lat="45.297847" lon="6.866993">
        <ele>2101.808</ele>
        <time>2018-07-19T13:14:03Z</time>
      </trkpt>
      <trkpt lat="45.297855" lon="6.866924">
        <ele>2101.021</ele>
        <time>2018-07-19T13:14:07Z</time>
      </trkpt>
      <trkpt lat="45.297862" lon="6.866859">
        <ele>2100.546</ele>
        <time>2018-07-19T13:14:11Z</time>
      </trkpt>
      <trkpt lat="45.297868" lon="6.866788">
        <ele>2100.251</ele>
        <time>2018-07-19T13:14:15Z</time>
      </trkpt>
      <trkpt lat="45.297873" lon="6.866712">
        <ele>2100.036</ele>
        <time>2018-07-19T13:14:19Z</time>
      </trkpt>
      <trkpt lat="45.297877" lon="6.866641">
        <ele>2099.931</ele>
        <time>2018-07-19T13:14:23Z</time>
      </trkpt>
      <trkpt lat="45.297884" lon="6.866570">
        <ele>2099.892</ele>
        <time>2018-07-19T13:14:27Z</time>
      </trkpt>
      <trkpt lat="45.297896" lon="6.866500">
        <ele>2100.230</ele>
        <time>2018-07-19T13:14:31Z</time>
      </trkpt>
      <trkpt lat="45.297907" lon="6.866431">
        <ele>2100.449</ele>
        <time>2018-07-19T13:14:35Z</time>
      </trkpt>
      <trkpt lat="45.297916" lon="6.866361">
        <ele>2100.539</ele>
        <time>2018-07-19T13:14:39Z</time>
      </trkpt>
      <trkpt lat="45.297920" lon="6.866289">
        <ele>2100.601</ele>
        <time>2018-07-19T13:14:43Z</time>
      </trkpt>
      <trkpt lat="45.297922" lon="6.866221">
        <ele>2100.621</ele>
        <time>2018-07-19T13:14:47Z</time>
      </trkpt>
      <trkpt lat="45.297916" lon="6.866155">
        <ele>2100.208</ele>
        <time>2018-07-19T13:14:51Z</time>
      </trkpt>
      <trkpt lat="45.297907" lon="6.866086">
        <ele>2099.625</ele>
        <time>2018-07-19T13:14:55Z</time>
      </trkpt>
      <trkpt lat="45.297896" lon="6.866017">
        <ele>2098.870</ele>
        <time>2018-07-19T13:14:59Z</time>
      </trkpt>
      <trkpt lat="45.297882" lon="6.865949">
        <ele>2098.335</ele>
        <time>2018-07-19T13:15:03Z</time>
      </trkpt>
      <trkpt lat="45.297870" lon="6.865883">
        <ele>2098.050</ele>
        <time>2018-07-19T13:15:07Z</time>
      </trkpt>
      <trkpt lat="45.297868" lon="6.865816">
        <ele>2097.875</ele>
        <time>2018-07-19T13:15:11Z</time>
      </trkpt>
      <trkpt lat="45.297873" lon="6.865740">
        <ele>2097.356</ele>
        <time>2018-07-19T13:15:16Z</time>
      </trkpt>
      <trkpt lat="45.297835" lon="6.865695">
        <ele>2096.694</ele>
        <time>2018-07-19T13:15:22Z</time>
      </trkpt>
      <trkpt lat="45.297790" lon="6.865710">
        <ele>2096.283</ele>
        <time>2018-07-19T13:15:27Z</time>
      </trkpt>
      <trkpt lat="45.297759" lon="6.865768">
        <ele>2095.915</ele>
        <time>2018-07-19T13:15:32Z</time>
      </trkpt>
      <trkpt lat="45.297737" lon="6.865830">
        <ele>2095.365</ele>
        <time>2018-07-19T13:15:36Z</time>
      </trkpt>
      <trkpt lat="45.297714" lon="6.865895">
        <ele>2095.411</ele>
        <time>2018-07-19T13:15:40Z</time>
      </trkpt>
      <trkpt lat="45.297691" lon="6.865961">
        <ele>2095.408</ele>
        <time>2018-07-19T13:15:44Z</time>
      </trkpt>
      <trkpt lat="45.297672" lon="6.866031">
        <ele>2094.663</ele>
        <time>2018-07-19T13:15:48Z</time>
      </trkpt>
      <trkpt lat="45.297663" lon="6.866099">
        <ele>2093.758</ele>
        <time>2018-07-19T13:15:52Z</time>
      </trkpt>
      <trkpt lat="45.297653" lon="6.866170">
        <ele>2092.453</ele>
        <time>2018-07-19T13:15:56Z</time>
      </trkpt>
      <trkpt lat="45.297645" lon="6.866240">
        <ele>2091.298</ele>
        <time>2018-07-19T13:16:00Z</time>
      </trkpt>
      <trkpt lat="45.297633" lon="6.866311">
        <ele>2090.533</ele>
        <time>2018-07-19T13:16:04Z</time>
      </trkpt>
      <trkpt lat="45.297617" lon="6.866383">
        <ele>2090.144</ele>
        <time>2018-07-19T13:16:08Z</time>
      </trkpt>
      <trkpt lat="45.297600" lon="6.866453">
        <ele>2090.242</ele>
        <time>2018-07-19T13:16:12Z</time>
      </trkpt>
      <trkpt lat="45.297577" lon="6.866522">
        <ele>2090.391</ele>
        <time>2018-07-19T13:16:16Z</time>
      </trkpt>
      <trkpt lat="45.297553" lon="6.866589">
        <ele>2089.689</ele>
        <time>2018-07-19T13:16:20Z</time>
      </trkpt>
      <trkpt lat="45.297528" lon="6.866653">
        <ele>2089.206</ele>
        <time>2018-07-19T13:16:24Z</time>
      </trkpt>
      <trkpt lat="45.297501" lon="6.866716">
        <ele>2088.926</ele>
        <time>2018-07-19T13:16:28Z</time>
      </trkpt>
      <trkpt lat="45.297471" lon="6.866778">
        <ele>2088.308</ele>
        <time>2018-07-19T13:16:32Z</time>
      </trkpt>
      <trkpt lat="45.297437" lon="6.866828">
        <ele>2087.650</ele>
        <time>2018-07-19T13:16:36Z</time>
      </trkpt>
      <trkpt lat="45.297395" lon="6.866860">
        <ele>2086.415</ele>
        <time>2018-07-19T13:16:40Z</time>
      </trkpt>
      <trkpt lat="45.297346" lon="6.866858">
        <ele>2084.970</ele>
        <time>2018-07-19T13:16:44Z</time>
      </trkpt>
      <trkpt lat="45.297303" lon="6.866822">
        <ele>2083.675</ele>
        <time>2018-07-19T13:16:48Z</time>
      </trkpt>
      <trkpt lat="45.297260" lon="6.866776">
        <ele>2082.890</ele>
        <time>2018-07-19T13:16:52Z</time>
      </trkpt>
      <trkpt lat="45.297227" lon="6.866717">
        <ele>2082.341</ele>
        <time>2018-07-19T13:16:56Z</time>
      </trkpt>
      <trkpt lat="45.297205" lon="6.866652">
        <ele>2082.049</ele>
        <time>2018-07-19T13:17:00Z</time>
      </trkpt>
      <trkpt lat="45.297182" lon="6.866586">
        <ele>2081.858</ele>
        <time>2018-07-19T13:17:04Z</time>
      </trkpt>
      <trkpt lat="45.297165" lon="6.866521">
        <ele>2080.955</ele>
        <time>2018-07-19T13:17:08Z</time>
      </trkpt>
      <trkpt lat="45.297149" lon="6.866452">
        <ele>2080.407</ele>
        <time>2018-07-19T13:17:12Z</time>
      </trkpt>
      <trkpt lat="45.297132" lon="6.866381">
        <ele>2080.117</ele>
        <time>2018-07-19T13:17:16Z</time>
      </trkpt>
      <trkpt lat="45.297116" lon="6.866314">
        <ele>2079.908</ele>
        <time>2018-07-19T13:17:20Z</time>
      </trkpt>
      <trkpt lat="45.297098" lon="6.866244">
        <ele>2079.817</ele>
        <time>2018-07-19T13:17:24Z</time>
      </trkpt>
      <trkpt lat="45.297075" lon="6.866177">
        <ele>2079.752</ele>
        <time>2018-07-19T13:17:28Z</time>
      </trkpt>
      <trkpt lat="45.297050" lon="6.866110">
        <ele>2079.777</ele>
        <time>2018-07-19T13:17:32Z</time>
      </trkpt>
      <trkpt lat="45.297025" lon="6.866045">
        <ele>2080.162</ele>
        <time>2018-07-19T13:17:36Z</time>
      </trkpt>
      <trkpt lat="45.296998" lon="6.865978">
        <ele>2080.367</ele>
        <time>2018-07-19T13:17:40Z</time>
      </trkpt>
      <trkpt lat="45.296974" lon="6.865912">
        <ele>2080.448</ele>
        <time>2018-07-19T13:17:44Z</time>
      </trkpt>
      <trkpt lat="45.296955" lon="6.865844">
        <ele>2080.576</ele>
        <time>2018-07-19T13:17:48Z</time>
      </trkpt>
      <trkpt lat="45.296938" lon="6.865774">
        <ele>2080.585</ele>
        <time>2018-07-19T13:17:52Z</time>
      </trkpt>
      <trkpt lat="45.296922" lon="6.865701">
        <ele>2080.595</ele>
        <time>2018-07-19T13:17:56Z</time>
      </trkpt>
      <trkpt lat="45.296908" lon="6.865634">
        <ele>2080.949</ele>
        <time>2018-07-19T13:18:00Z</time>
      </trkpt>
      <trkpt lat="45.296898" lon="6.865563">
        <ele>2080.823</ele>
        <time>2018-07-19T13:18:04Z</time>
      </trkpt>
      <trkpt lat="45.296890" lon="6.865491">
        <ele>2080.308</ele>
        <time>2018-07-19T13:18:08Z</time>
      </trkpt>
      <trkpt lat="45.296889" lon="6.865424">
        <ele>2079.661</ele>
        <time>2018-07-19T13:18:12Z</time>
      </trkpt>
      <trkpt lat="45.296889" lon="6.865352">
        <ele>2079.286</ele>
        <time>2018-07-19T13:18:16Z</time>
      </trkpt>
      <trkpt lat="45.296887" lon="6.865275">
        <ele>2078.651</ele>
        <time>2018-07-19T13:18:20Z</time>
      </trkpt>
      <trkpt lat="45.296881" lon="6.865204">
        <ele>2078.236</ele>
        <time>2018-07-19T13:18:24Z</time>
      </trkpt>
      <trkpt lat="45.296868" lon="6.865132">
        <ele>2078.061</ele>
        <time>2018-07-19T13:18:28Z</time>
      </trkpt>
      <trkpt lat="45.296856" lon="6.865058">
        <ele>2077.962</ele>
        <time>2018-07-19T13:18:32Z</time>
      </trkpt>
      <trkpt lat="45.296851" lon="6.864987">
        <ele>2077.880</ele>
        <time>2018-07-19T13:18:36Z</time>
      </trkpt>
      <trkpt lat="45.296849" lon="6.864918">
        <ele>2077.379</ele>
        <time>2018-07-19T13:18:40Z</time>
      </trkpt>
      <trkpt lat="45.296849" lon="6.864844">
        <ele>2077.032</ele>
        <time>2018-07-19T13:18:44Z</time>
      </trkpt>
      <trkpt lat="45.296845" lon="6.864774">
        <ele>2076.892</ele>
        <time>2018-07-19T13:18:48Z</time>
      </trkpt>
      <trkpt lat="45.296844" lon="6.864706">
        <ele>2075.911</ele>
        <time>2018-07-19T13:18:52Z</time>
      </trkpt>
      <trkpt lat="45.296841" lon="6.864635">
        <ele>2075.408</ele>
        <time>2018-07-19T13:18:56Z</time>
      </trkpt>
      <trkpt lat="45.296836" lon="6.864571">
        <ele>2074.325</ele>
        <time>2018-07-19T13:19:00Z</time>
      </trkpt>
      <trkpt lat="45.296833" lon="6.864506">
        <ele>2073.630</ele>
        <time>2018-07-19T13:19:04Z</time>
      </trkpt>
      <trkpt lat="45.296839" lon="6.864434">
        <ele>2072.845</ele>
        <time>2018-07-19T13:19:08Z</time>
      </trkpt>
      <trkpt lat="45.296846" lon="6.864363">
        <ele>2071.960</ele>
        <time>2018-07-19T13:19:12Z</time>
      </trkpt>
      <trkpt lat="45.296850" lon="6.864295">
        <ele>2071.495</ele>
        <time>2018-07-19T13:19:16Z</time>
      </trkpt>
      <trkpt lat="45.296850" lon="6.864226">
        <ele>2071.156</ele>
        <time>2018-07-19T13:19:20Z</time>
      </trkpt>
      <trkpt lat="45.296841" lon="6.864157">
        <ele>2070.964</ele>
        <time>2018-07-19T13:19:24Z</time>
      </trkpt>
      <trkpt lat="45.296836" lon="6.864086">
        <ele>2070.823</ele>
        <time>2018-07-19T13:19:28Z</time>
      </trkpt>
      <trkpt lat="45.296833" lon="6.864014">
        <ele>2070.768</ele>
        <time>2018-07-19T13:19:32Z</time>
      </trkpt>
      <trkpt lat="45.296834" lon="6.863942">
        <ele>2070.742</ele>
        <time>2018-07-19T13:19:36Z</time>
      </trkpt>
      <trkpt lat="45.296844" lon="6.863871">
        <ele>2070.726</ele>
        <time>2018-07-19T13:19:40Z</time>
      </trkpt>
      <trkpt lat="45.296863" lon="6.863806">
        <ele>2070.308</ele>
        <time>2018-07-19T13:19:44Z</time>
      </trkpt>
      <trkpt lat="45.296890" lon="6.863744">
        <ele>2069.768</ele>
        <time>2018-07-19T13:19:48Z</time>
      </trkpt>
      <trkpt lat="45.296916" lon="6.863682">
        <ele>2069.383</ele>
        <time>2018-07-19T13:19:52Z</time>
      </trkpt>
      <trkpt lat="45.296940" lon="6.863625">
        <ele>2068.738</ele>
        <time>2018-07-19T13:19:56Z</time>
      </trkpt>
      <trkpt lat="45.296960" lon="6.863555">
        <ele>2068.713</ele>
        <time>2018-07-19T13:20:00Z</time>
      </trkpt>
      <trkpt lat="45.296978" lon="6.863490">
        <ele>2068.748</ele>
        <time>2018-07-19T13:20:04Z</time>
      </trkpt>
      <trkpt lat="45.296997" lon="6.863428">
        <ele>2068.799</ele>
        <time>2018-07-19T13:20:08Z</time>
      </trkpt>
      <trkpt lat="45.297014" lon="6.863367">
        <ele>2068.777</ele>
        <time>2018-07-19T13:20:12Z</time>
      </trkpt>
      <trkpt lat="45.297025" lon="6.863301">
        <ele>2069.186</ele>
        <time>2018-07-19T13:20:16Z</time>
      </trkpt>
      <trkpt lat="45.297027" lon="6.863231">
        <ele>2069.734</ele>
        <time>2018-07-19T13:20:20Z</time>
      </trkpt>
      <trkpt lat="45.297032" lon="6.863159">
        <ele>2070.155</ele>
        <time>2018-07-19T13:20:24Z</time>
      </trkpt>
      <trkpt lat="45.297043" lon="6.863095">
        <ele>2070.710</ele>
        <time>2018-07-19T13:20:28Z</time>
      </trkpt>
      <trkpt lat="45.297058" lon="6.863029">
        <ele>2071.108</ele>
        <time>2018-07-19T13:20:32Z</time>
      </trkpt>
      <trkpt lat="45.297081" lon="6.862968">
        <ele>2070.945</ele>
        <time>2018-07-19T13:20:36Z</time>
      </trkpt>
      <trkpt lat="45.297108" lon="6.862914">
        <ele>2070.850</ele>
        <time>2018-07-19T13:20:40Z</time>
      </trkpt>
      <trkpt lat="45.297131" lon="6.862853">
        <ele>2070.715</ele>
        <time>2018-07-19T13:20:44Z</time>
      </trkpt>
      <trkpt lat="45.297156" lon="6.862798">
        <ele>2070.730</ele>
        <time>2018-07-19T13:20:48Z</time>
      </trkpt>
      <trkpt lat="45.297187" lon="6.862735">
        <ele>2070.775</ele>
        <time>2018-07-19T13:20:53Z</time>
      </trkpt>
      <trkpt lat="45.297208" lon="6.862676">
        <ele>2070.716</ele>
        <time>2018-07-19T13:20:57Z</time>
      </trkpt>
      <trkpt lat="45.297219" lon="6.862607">
        <ele>2070.714</ele>
        <time>2018-07-19T13:21:01Z</time>
      </trkpt>
      <trkpt lat="45.297215" lon="6.862529">
        <ele>2070.763</ele>
        <time>2018-07-19T13:21:06Z</time>
      </trkpt>
      <trkpt lat="45.297197" lon="6.862456">
        <ele>2071.154</ele>
        <time>2018-07-19T13:21:11Z</time>
      </trkpt>
      <trkpt lat="45.297176" lon="6.862386">
        <ele>2070.956</ele>
        <time>2018-07-19T13:21:16Z</time>
      </trkpt>
      <trkpt lat="45.297156" lon="6.862328">
        <ele>2071.211</ele>
        <time>2018-07-19T13:21:20Z</time>
      </trkpt>
      <trkpt lat="45.297134" lon="6.862265">
        <ele>2071.408</ele>
        <time>2018-07-19T13:21:24Z</time>
      </trkpt>
      <trkpt lat="45.297113" lon="6.862196">
        <ele>2071.537</ele>
        <time>2018-07-19T13:21:28Z</time>
      </trkpt>
      <trkpt lat="45.297101" lon="6.862123">
        <ele>2071.622</ele>
        <time>2018-07-19T13:21:32Z</time>
      </trkpt>
      <trkpt lat="45.297107" lon="6.862055">
        <ele>2071.287</ele>
        <time>2018-07-19T13:21:36Z</time>
      </trkpt>
      <trkpt lat="45.297124" lon="6.861993">
        <ele>2071.032</ele>
        <time>2018-07-19T13:21:40Z</time>
      </trkpt>
      <trkpt lat="45.297137" lon="6.861927">
        <ele>2070.937</ele>
        <time>2018-07-19T13:21:44Z</time>
      </trkpt>
      <trkpt lat="45.297140" lon="6.861849">
        <ele>2070.448</ele>
        <time>2018-07-19T13:21:49Z</time>
      </trkpt>
      <trkpt lat="45.297142" lon="6.861779">
        <ele>2069.716</ele>
        <time>2018-07-19T13:21:53Z</time>
      </trkpt>
      <trkpt lat="45.297145" lon="6.861704">
        <ele>2068.945</ele>
        <time>2018-07-19T13:21:57Z</time>
      </trkpt>
      <trkpt lat="45.297151" lon="6.861634">
        <ele>2068.479</ele>
        <time>2018-07-19T13:22:01Z</time>
      </trkpt>
      <trkpt lat="45.297159" lon="6.861566">
        <ele>2068.505</ele>
        <time>2018-07-19T13:22:05Z</time>
      </trkpt>
      <trkpt lat="45.297160" lon="6.861496">
        <ele>2068.225</ele>
        <time>2018-07-19T13:22:09Z</time>
      </trkpt>
      <trkpt lat="45.297160" lon="6.861426">
        <ele>2068.408</ele>
        <time>2018-07-19T13:22:13Z</time>
      </trkpt>
      <trkpt lat="45.297153" lon="6.861355">
        <ele>2068.199</ele>
        <time>2018-07-19T13:22:17Z</time>
      </trkpt>
      <trkpt lat="45.297143" lon="6.861280">
        <ele>2067.994</ele>
        <time>2018-07-19T13:22:21Z</time>
      </trkpt>
      <trkpt lat="45.297137" lon="6.861208">
        <ele>2067.869</ele>
        <time>2018-07-19T13:22:25Z</time>
      </trkpt>
      <trkpt lat="45.297129" lon="6.861141">
        <ele>2067.764</ele>
        <time>2018-07-19T13:22:29Z</time>
      </trkpt>
      <trkpt lat="45.297121" lon="6.861073">
        <ele>2067.369</ele>
        <time>2018-07-19T13:22:33Z</time>
      </trkpt>
      <trkpt lat="45.297109" lon="6.861004">
        <ele>2067.060</ele>
        <time>2018-07-19T13:22:37Z</time>
      </trkpt>
      <trkpt lat="45.297095" lon="6.860937">
        <ele>2066.418</ele>
        <time>2018-07-19T13:22:41Z</time>
      </trkpt>
      <trkpt lat="45.297074" lon="6.860875">
        <ele>2066.167</ele>
        <time>2018-07-19T13:22:45Z</time>
      </trkpt>
      <trkpt lat="45.297051" lon="6.860813">
        <ele>2065.954</ele>
        <time>2018-07-19T13:22:49Z</time>
      </trkpt>
      <trkpt lat="45.297023" lon="6.860751">
        <ele>2065.856</ele>
        <time>2018-07-19T13:22:53Z</time>
      </trkpt>
      <trkpt lat="45.296995" lon="6.860691">
        <ele>2065.711</ele>
        <time>2018-07-19T13:22:57Z</time>
      </trkpt>
      <trkpt lat="45.296970" lon="6.860630">
        <ele>2065.708</ele>
        <time>2018-07-19T13:23:01Z</time>
      </trkpt>
      <trkpt lat="45.296948" lon="6.860571">
        <ele>2066.117</ele>
        <time>2018-07-19T13:23:05Z</time>
      </trkpt>
      <trkpt lat="45.296925" lon="6.860513">
        <ele>2066.362</ele>
        <time>2018-07-19T13:23:09Z</time>
      </trkpt>
      <trkpt lat="45.296900" lon="6.860452">
        <ele>2066.837</ele>
        <time>2018-07-19T13:23:13Z</time>
      </trkpt>
      <trkpt lat="45.296874" lon="6.860396">
        <ele>2066.722</ele>
        <time>2018-07-19T13:23:17Z</time>
      </trkpt>
      <trkpt lat="45.296846" lon="6.860341">
        <ele>2066.327</ele>
        <time>2018-07-19T13:23:21Z</time>
      </trkpt>
      <trkpt lat="45.296818" lon="6.860285">
        <ele>2066.018</ele>
        <time>2018-07-19T13:23:25Z</time>
      </trkpt>
      <trkpt lat="45.296787" lon="6.860234">
        <ele>2065.816</ele>
        <time>2018-07-19T13:23:29Z</time>
      </trkpt>
      <trkpt lat="45.296755" lon="6.860187">
        <ele>2065.365</ele>
        <time>2018-07-19T13:23:33Z</time>
      </trkpt>
      <trkpt lat="45.296726" lon="6.860137">
        <ele>2065.019</ele>
        <time>2018-07-19T13:23:37Z</time>
      </trkpt>
      <trkpt lat="45.296696" lon="6.860085">
        <ele>2064.809</ele>
        <time>2018-07-19T13:23:41Z</time>
      </trkpt>
      <trkpt lat="45.296669" lon="6.860032">
        <ele>2064.719</ele>
        <time>2018-07-19T13:23:45Z</time>
      </trkpt>
      <trkpt lat="45.296636" lon="6.859966">
        <ele>2065.808</ele>
        <time>2018-07-19T13:23:50Z</time>
      </trkpt>
      <trkpt lat="45.296605" lon="6.859915">
        <ele>2067.313</ele>
        <time>2018-07-19T13:23:54Z</time>
      </trkpt>
      <trkpt lat="45.296573" lon="6.859863">
        <ele>2067.068</ele>
        <time>2018-07-19T13:23:59Z</time>
      </trkpt>
      <trkpt lat="45.296548" lon="6.859805">
        <ele>2066.893</ele>
        <time>2018-07-19T13:24:04Z</time>
      </trkpt>
      <trkpt lat="45.296526" lon="6.859730">
        <ele>2065.918</ele>
        <time>2018-07-19T13:24:09Z</time>
      </trkpt>
      <trkpt lat="45.296507" lon="6.859659">
        <ele>2064.673</ele>
        <time>2018-07-19T13:24:13Z</time>
      </trkpt>
      <trkpt lat="45.296492" lon="6.859591">
        <ele>2063.474</ele>
        <time>2018-07-19T13:24:17Z</time>
      </trkpt>
      <trkpt lat="45.296470" lon="6.859517">
        <ele>2062.732</ele>
        <time>2018-07-19T13:24:21Z</time>
      </trkpt>
      <trkpt lat="45.296442" lon="6.859451">
        <ele>2062.331</ele>
        <time>2018-07-19T13:24:25Z</time>
      </trkpt>
      <trkpt lat="45.296416" lon="6.859388">
        <ele>2060.822</ele>
        <time>2018-07-19T13:24:29Z</time>
      </trkpt>
      <trkpt lat="45.296388" lon="6.859323">
        <ele>2060.362</ele>
        <time>2018-07-19T13:24:33Z</time>
      </trkpt>
      <trkpt lat="45.296367" lon="6.859259">
        <ele>2060.408</ele>
        <time>2018-07-19T13:24:37Z</time>
      </trkpt>
      <trkpt lat="45.296348" lon="6.859187">
        <ele>2060.108</ele>
        <time>2018-07-19T13:24:41Z</time>
      </trkpt>
      <trkpt lat="45.296333" lon="6.859121">
        <ele>2059.974</ele>
        <time>2018-07-19T13:24:45Z</time>
      </trkpt>
      <trkpt lat="45.296321" lon="6.859057">
        <ele>2060.679</ele>
        <time>2018-07-19T13:24:49Z</time>
      </trkpt>
      <trkpt lat="45.296312" lon="6.858989">
        <ele>2061.414</ele>
        <time>2018-07-19T13:24:53Z</time>
      </trkpt>
      <trkpt lat="45.296300" lon="6.858911">
        <ele>2061.959</ele>
        <time>2018-07-19T13:24:57Z</time>
      </trkpt>
      <trkpt lat="45.296288" lon="6.858836">
        <ele>2061.864</ele>
        <time>2018-07-19T13:25:01Z</time>
      </trkpt>
      <trkpt lat="45.296281" lon="6.858760">
        <ele>2061.745</ele>
        <time>2018-07-19T13:25:05Z</time>
      </trkpt>
      <trkpt lat="45.296274" lon="6.858685">
        <ele>2061.343</ele>
        <time>2018-07-19T13:25:09Z</time>
      </trkpt>
      <trkpt lat="45.296268" lon="6.858613">
        <ele>2061.062</ele>
        <time>2018-07-19T13:25:13Z</time>
      </trkpt>
      <trkpt lat="45.296258" lon="6.858542">
        <ele>2060.426</ele>
        <time>2018-07-19T13:25:17Z</time>
      </trkpt>
      <trkpt lat="45.296250" lon="6.858472">
        <ele>2060.147</ele>
        <time>2018-07-19T13:25:21Z</time>
      </trkpt>
      <trkpt lat="45.296239" lon="6.858402">
        <ele>2059.511</ele>
        <time>2018-07-19T13:25:25Z</time>
      </trkpt>
      <trkpt lat="45.296221" lon="6.858338">
        <ele>2059.108</ele>
        <time>2018-07-19T13:25:29Z</time>
      </trkpt>
      <trkpt lat="45.296200" lon="6.858278">
        <ele>2058.594</ele>
        <time>2018-07-19T13:25:33Z</time>
      </trkpt>
      <trkpt lat="45.296182" lon="6.858217">
        <ele>2058.139</ele>
        <time>2018-07-19T13:25:37Z</time>
      </trkpt>
      <trkpt lat="45.296159" lon="6.858156">
        <ele>2057.924</ele>
        <time>2018-07-19T13:25:41Z</time>
      </trkpt>
      <trkpt lat="45.296137" lon="6.858091">
        <ele>2057.449</ele>
        <time>2018-07-19T13:25:45Z</time>
      </trkpt>
      <trkpt lat="45.296116" lon="6.858028">
        <ele>2057.114</ele>
        <time>2018-07-19T13:25:49Z</time>
      </trkpt>
      <trkpt lat="45.296094" lon="6.857968">
        <ele>2056.525</ele>
        <time>2018-07-19T13:25:53Z</time>
      </trkpt>
      <trkpt lat="45.296074" lon="6.857906">
        <ele>2056.113</ele>
        <time>2018-07-19T13:25:57Z</time>
      </trkpt>
      <trkpt lat="45.296054" lon="6.857844">
        <ele>2055.922</ele>
        <time>2018-07-19T13:26:01Z</time>
      </trkpt>
      <trkpt lat="45.296034" lon="6.857785">
        <ele>2055.841</ele>
        <time>2018-07-19T13:26:05Z</time>
      </trkpt>
      <trkpt lat="45.296012" lon="6.857711">
        <ele>2055.381</ele>
        <time>2018-07-19T13:26:10Z</time>
      </trkpt>
      <trkpt lat="45.295995" lon="6.857651">
        <ele>2055.009</ele>
        <time>2018-07-19T13:26:13Z</time>
      </trkpt>
      <trkpt lat="45.295974" lon="6.857585">
        <ele>2053.608</ele>
        <time>2018-07-19T13:26:17Z</time>
      </trkpt>
      <trkpt lat="45.295953" lon="6.857519">
        <ele>2052.496</ele>
        <time>2018-07-19T13:26:21Z</time>
      </trkpt>
      <trkpt lat="45.295938" lon="6.857449">
        <ele>2051.311</ele>
        <time>2018-07-19T13:26:25Z</time>
      </trkpt>
      <trkpt lat="45.295927" lon="6.857379">
        <ele>2050.216</ele>
        <time>2018-07-19T13:26:29Z</time>
      </trkpt>
      <trkpt lat="45.295917" lon="6.857301">
        <ele>2048.861</ele>
        <time>2018-07-19T13:26:34Z</time>
      </trkpt>
      <trkpt lat="45.295910" lon="6.857238">
        <ele>2047.176</ele>
        <time>2018-07-19T13:26:38Z</time>
      </trkpt>
      <trkpt lat="45.295895" lon="6.857165">
        <ele>2046.997</ele>
        <time>2018-07-19T13:26:43Z</time>
      </trkpt>
      <trkpt lat="45.295879" lon="6.857101">
        <ele>2046.475</ele>
        <time>2018-07-19T13:26:47Z</time>
      </trkpt>
      <trkpt lat="45.295864" lon="6.857036">
        <ele>2045.794</ele>
        <time>2018-07-19T13:26:51Z</time>
      </trkpt>
      <trkpt lat="45.295847" lon="6.856960">
        <ele>2044.958</ele>
        <time>2018-07-19T13:26:55Z</time>
      </trkpt>
      <trkpt lat="45.295840" lon="6.856878">
        <ele>2043.652</ele>
        <time>2018-07-19T13:26:59Z</time>
      </trkpt>
      <trkpt lat="45.295837" lon="6.856798">
        <ele>2042.817</ele>
        <time>2018-07-19T13:27:03Z</time>
      </trkpt>
      <trkpt lat="45.295850" lon="6.856731">
        <ele>2042.308</ele>
        <time>2018-07-19T13:27:07Z</time>
      </trkpt>
      <trkpt lat="45.295875" lon="6.856671">
        <ele>2041.617</ele>
        <time>2018-07-19T13:27:11Z</time>
      </trkpt>
      <trkpt lat="45.295903" lon="6.856608">
        <ele>2041.282</ele>
        <time>2018-07-19T13:27:15Z</time>
      </trkpt>
      <trkpt lat="45.295922" lon="6.856544">
        <ele>2041.037</ele>
        <time>2018-07-19T13:27:19Z</time>
      </trkpt>
      <trkpt lat="45.295938" lon="6.856484">
        <ele>2041.752</ele>
        <time>2018-07-19T13:27:23Z</time>
      </trkpt>
      <trkpt lat="45.295965" lon="6.856430">
        <ele>2041.717</ele>
        <time>2018-07-19T13:27:28Z</time>
      </trkpt>
      <trkpt lat="45.295987" lon="6.856319">
        <ele>2042.188</ele>
        <time>2018-07-19T13:28:26Z</time>
      </trkpt>
      <trkpt lat="45.295980" lon="6.856255">
        <ele>2041.956</ele>
        <time>2018-07-19T13:28:31Z</time>
      </trkpt>
      <trkpt lat="45.295975" lon="6.856186">
        <ele>2041.095</ele>
        <time>2018-07-19T13:28:35Z</time>
      </trkpt>
      <trkpt lat="45.295967" lon="6.856116">
        <ele>2041.341</ele>
        <time>2018-07-19T13:28:40Z</time>
      </trkpt>
      <trkpt lat="45.295961" lon="6.856049">
        <ele>2039.981</ele>
        <time>2018-07-19T13:28:45Z</time>
      </trkpt>
      <trkpt lat="45.295936" lon="6.855991">
        <ele>2041.409</ele>
        <time>2018-07-19T13:28:58Z</time>
      </trkpt>
      <trkpt lat="45.295918" lon="6.855930">
        <ele>2043.908</ele>
        <time>2018-07-19T13:29:01Z</time>
      </trkpt>
      <trkpt lat="45.295895" lon="6.855854">
        <ele>2046.696</ele>
        <time>2018-07-19T13:29:04Z</time>
      </trkpt>
      <trkpt lat="45.295877" lon="6.855774">
        <ele>2048.671</ele>
        <time>2018-07-19T13:29:08Z</time>
      </trkpt>
      <trkpt lat="45.295874" lon="6.855700">
        <ele>2049.426</ele>
        <time>2018-07-19T13:29:12Z</time>
      </trkpt>
      <trkpt lat="45.295878" lon="6.855625">
        <ele>2048.751</ele>
        <time>2018-07-19T13:29:16Z</time>
      </trkpt>
      <trkpt lat="45.295887" lon="6.855559">
        <ele>2046.786</ele>
        <time>2018-07-19T13:29:19Z</time>
      </trkpt>
      <trkpt lat="45.295895" lon="6.855493">
        <ele>2044.327</ele>
        <time>2018-07-19T13:29:22Z</time>
      </trkpt>
      <trkpt lat="45.295904" lon="6.855430">
        <ele>2042.995</ele>
        <time>2018-07-19T13:29:25Z</time>
      </trkpt>
      <trkpt lat="45.295908" lon="6.855362">
        <ele>2041.234</ele>
        <time>2018-07-19T13:29:29Z</time>
      </trkpt>
      <trkpt lat="45.295899" lon="6.855281">
        <ele>2039.869</ele>
        <time>2018-07-19T13:29:34Z</time>
      </trkpt>
      <trkpt lat="45.295883" lon="6.855206">
        <ele>2039.004</ele>
        <time>2018-07-19T13:29:38Z</time>
      </trkpt>
      <trkpt lat="45.295865" lon="6.855132">
        <ele>2038.524</ele>
        <time>2018-07-19T13:29:42Z</time>
      </trkpt>
      <trkpt lat="45.295854" lon="6.855060">
        <ele>2038.208</ele>
        <time>2018-07-19T13:29:46Z</time>
      </trkpt>
      <trkpt lat="45.295844" lon="6.854986">
        <ele>2037.688</ele>
        <time>2018-07-19T13:29:50Z</time>
      </trkpt>
      <trkpt lat="45.295837" lon="6.854909">
        <ele>2037.383</ele>
        <time>2018-07-19T13:29:54Z</time>
      </trkpt>
      <trkpt lat="45.295831" lon="6.854832">
        <ele>2037.138</ele>
        <time>2018-07-19T13:29:58Z</time>
      </trkpt>
      <trkpt lat="45.295827" lon="6.854756">
        <ele>2037.063</ele>
        <time>2018-07-19T13:30:02Z</time>
      </trkpt>
      <trkpt lat="45.295828" lon="6.854683">
        <ele>2036.578</ele>
        <time>2018-07-19T13:30:06Z</time>
      </trkpt>
      <trkpt lat="45.295834" lon="6.854617">
        <ele>2035.849</ele>
        <time>2018-07-19T13:30:10Z</time>
      </trkpt>
      <trkpt lat="45.295838" lon="6.854544">
        <ele>2035.877</ele>
        <time>2018-07-19T13:30:14Z</time>
      </trkpt>
      <trkpt lat="45.295838" lon="6.854470">
        <ele>2035.416</ele>
        <time>2018-07-19T13:30:18Z</time>
      </trkpt>
      <trkpt lat="45.295838" lon="6.854393">
        <ele>2035.235</ele>
        <time>2018-07-19T13:30:22Z</time>
      </trkpt>
      <trkpt lat="45.295841" lon="6.854319">
        <ele>2034.386</ele>
        <time>2018-07-19T13:30:26Z</time>
      </trkpt>
      <trkpt lat="45.295839" lon="6.854248">
        <ele>2034.114</ele>
        <time>2018-07-19T13:30:30Z</time>
      </trkpt>
      <trkpt lat="45.295832" lon="6.854174">
        <ele>2034.008</ele>
        <time>2018-07-19T13:30:34Z</time>
      </trkpt>
      <trkpt lat="45.295820" lon="6.854102">
        <ele>2033.185</ele>
        <time>2018-07-19T13:30:38Z</time>
      </trkpt>
      <trkpt lat="45.295799" lon="6.854028">
        <ele>2033.010</ele>
        <time>2018-07-19T13:30:43Z</time>
      </trkpt>
      <trkpt lat="45.295780" lon="6.853954">
        <ele>2032.525</ele>
        <time>2018-07-19T13:30:47Z</time>
      </trkpt>
      <trkpt lat="45.295768" lon="6.853880">
        <ele>2031.860</ele>
        <time>2018-07-19T13:30:51Z</time>
      </trkpt>
      <trkpt lat="45.295766" lon="6.853804">
        <ele>2031.825</ele>
        <time>2018-07-19T13:30:55Z</time>
      </trkpt>
      <trkpt lat="45.295764" lon="6.853728">
        <ele>2032.226</ele>
        <time>2018-07-19T13:30:59Z</time>
      </trkpt>
      <trkpt lat="45.295758" lon="6.853659">
        <ele>2031.294</ele>
        <time>2018-07-19T13:31:03Z</time>
      </trkpt>
      <trkpt lat="45.295760" lon="6.853573">
        <ele>2030.613</ele>
        <time>2018-07-19T13:31:07Z</time>
      </trkpt>
      <trkpt lat="45.295768" lon="6.853503">
        <ele>2029.934</ele>
        <time>2018-07-19T13:31:10Z</time>
      </trkpt>
      <trkpt lat="45.295773" lon="6.853427">
        <ele>2029.555</ele>
        <time>2018-07-19T13:31:14Z</time>
      </trkpt>
      <trkpt lat="45.295766" lon="6.853357">
        <ele>2028.810</ele>
        <time>2018-07-19T13:31:19Z</time>
      </trkpt>
      <trkpt lat="45.295752" lon="6.853286">
        <ele>2028.408</ele>
        <time>2018-07-19T13:31:24Z</time>
      </trkpt>
      <trkpt lat="45.295739" lon="6.853212">
        <ele>2027.895</ele>
        <time>2018-07-19T13:31:29Z</time>
      </trkpt>
      <trkpt lat="45.295718" lon="6.853145">
        <ele>2027.830</ele>
        <time>2018-07-19T13:31:33Z</time>
      </trkpt>
      <trkpt lat="45.295689" lon="6.853082">
        <ele>2027.465</ele>
        <time>2018-07-19T13:31:37Z</time>
      </trkpt>
      <trkpt lat="45.295666" lon="6.853020">
        <ele>2026.850</ele>
        <time>2018-07-19T13:31:41Z</time>
      </trkpt>
      <trkpt lat="45.295642" lon="6.852953">
        <ele>2026.895</ele>
        <time>2018-07-19T13:31:45Z</time>
      </trkpt>
      <trkpt lat="45.295622" lon="6.852880">
        <ele>2026.816</ele>
        <time>2018-07-19T13:31:49Z</time>
      </trkpt>
      <trkpt lat="45.295611" lon="6.852809">
        <ele>2025.654</ele>
        <time>2018-07-19T13:31:53Z</time>
      </trkpt>
      <trkpt lat="45.295605" lon="6.852736">
        <ele>2024.573</ele>
        <time>2018-07-19T13:31:57Z</time>
      </trkpt>
      <trkpt lat="45.295599" lon="6.852660">
        <ele>2023.827</ele>
        <time>2018-07-19T13:32:01Z</time>
      </trkpt>
      <trkpt lat="45.295586" lon="6.852586">
        <ele>2023.068</ele>
        <time>2018-07-19T13:32:05Z</time>
      </trkpt>
      <trkpt lat="45.295579" lon="6.852519">
        <ele>2021.714</ele>
        <time>2018-07-19T13:32:09Z</time>
      </trkpt>
      <trkpt lat="45.295577" lon="6.852455">
        <ele>2020.508</ele>
        <time>2018-07-19T13:32:13Z</time>
      </trkpt>
      <trkpt lat="45.295585" lon="6.852382">
        <ele>2019.834</ele>
        <time>2018-07-19T13:32:21Z</time>
      </trkpt>
      <trkpt lat="45.295586" lon="6.852308">
        <ele>2019.499</ele>
        <time>2018-07-19T13:32:26Z</time>
      </trkpt>
      <trkpt lat="45.295587" lon="6.852237">
        <ele>2018.724</ele>
        <time>2018-07-19T13:32:30Z</time>
      </trkpt>
      <trkpt lat="45.295587" lon="6.852167">
        <ele>2018.359</ele>
        <time>2018-07-19T13:32:34Z</time>
      </trkpt>
      <trkpt lat="45.295590" lon="6.852090">
        <ele>2018.134</ele>
        <time>2018-07-19T13:32:38Z</time>
      </trkpt>
      <trkpt lat="45.295597" lon="6.852015">
        <ele>2018.085</ele>
        <time>2018-07-19T13:32:42Z</time>
      </trkpt>
      <trkpt lat="45.295603" lon="6.851937">
        <ele>2017.953</ele>
        <time>2018-07-19T13:32:46Z</time>
      </trkpt>
      <trkpt lat="45.295609" lon="6.851868">
        <ele>2017.432</ele>
        <time>2018-07-19T13:32:50Z</time>
      </trkpt>
      <trkpt lat="45.295616" lon="6.851798">
        <ele>2015.943</ele>
        <time>2018-07-19T13:32:54Z</time>
      </trkpt>
      <trkpt lat="45.295626" lon="6.851722">
        <ele>2015.464</ele>
        <time>2018-07-19T13:32:58Z</time>
      </trkpt>
      <trkpt lat="45.295632" lon="6.851651">
        <ele>2015.110</ele>
        <time>2018-07-19T13:33:02Z</time>
      </trkpt>
      <trkpt lat="45.295636" lon="6.851579">
        <ele>2015.308</ele>
        <time>2018-07-19T13:33:06Z</time>
      </trkpt>
      <trkpt lat="45.295633" lon="6.851506">
        <ele>2015.046</ele>
        <time>2018-07-19T13:33:10Z</time>
      </trkpt>
      <trkpt lat="45.295620" lon="6.851434">
        <ele>2014.841</ele>
        <time>2018-07-19T13:33:14Z</time>
      </trkpt>
      <trkpt lat="45.295606" lon="6.851366">
        <ele>2014.356</ele>
        <time>2018-07-19T13:33:18Z</time>
      </trkpt>
      <trkpt lat="45.295598" lon="6.851303">
        <ele>2013.641</ele>
        <time>2018-07-19T13:33:22Z</time>
      </trkpt>
      <trkpt lat="45.295595" lon="6.851223">
        <ele>2013.296</ele>
        <time>2018-07-19T13:33:27Z</time>
      </trkpt>
      <trkpt lat="45.295594" lon="6.851153">
        <ele>2012.957</ele>
        <time>2018-07-19T13:33:31Z</time>
      </trkpt>
      <trkpt lat="45.295590" lon="6.851084">
        <ele>2012.785</ele>
        <time>2018-07-19T13:33:35Z</time>
      </trkpt>
      <trkpt lat="45.295578" lon="6.851021">
        <ele>2011.814</ele>
        <time>2018-07-19T13:33:39Z</time>
      </trkpt>
      <trkpt lat="45.295565" lon="6.850954">
        <ele>2011.772</ele>
        <time>2018-07-19T13:33:43Z</time>
      </trkpt>
      <trkpt lat="45.295545" lon="6.850891">
        <ele>2011.213</ele>
        <time>2018-07-19T13:33:47Z</time>
      </trkpt>
      <trkpt lat="45.295522" lon="6.850825">
        <ele>2010.914</ele>
        <time>2018-07-19T13:33:51Z</time>
      </trkpt>
      <trkpt lat="45.295507" lon="6.850757">
        <ele>2010.708</ele>
        <time>2018-07-19T13:33:55Z</time>
      </trkpt>
      <trkpt lat="45.295487" lon="6.850691">
        <ele>2010.289</ele>
        <time>2018-07-19T13:33:59Z</time>
      </trkpt>
      <trkpt lat="45.295473" lon="6.850621">
        <ele>2009.554</ele>
        <time>2018-07-19T13:34:03Z</time>
      </trkpt>
      <trkpt lat="45.295465" lon="6.850552">
        <ele>2009.599</ele>
        <time>2018-07-19T13:34:07Z</time>
      </trkpt>
      <trkpt lat="45.295456" lon="6.850480">
        <ele>2009.554</ele>
        <time>2018-07-19T13:34:11Z</time>
      </trkpt>
      <trkpt lat="45.295451" lon="6.850415">
        <ele>2009.919</ele>
        <time>2018-07-19T13:34:15Z</time>
      </trkpt>
      <trkpt lat="45.295440" lon="6.850351">
        <ele>2011.380</ele>
        <time>2018-07-19T13:34:19Z</time>
      </trkpt>
      <trkpt lat="45.295435" lon="6.850272">
        <ele>2011.818</ele>
        <time>2018-07-19T13:34:24Z</time>
      </trkpt>
      <trkpt lat="45.295425" lon="6.850208">
        <ele>2010.917</ele>
        <time>2018-07-19T13:34:28Z</time>
      </trkpt>
      <trkpt lat="45.295404" lon="6.850140">
        <ele>2009.518</ele>
        <time>2018-07-19T13:34:32Z</time>
      </trkpt>
      <trkpt lat="45.295391" lon="6.850076">
        <ele>2007.998</ele>
        <time>2018-07-19T13:34:36Z</time>
      </trkpt>
      <trkpt lat="45.295378" lon="6.850009">
        <ele>2005.717</ele>
        <time>2018-07-19T13:34:40Z</time>
      </trkpt>
      <trkpt lat="45.295364" lon="6.849943">
        <ele>2004.808</ele>
        <time>2018-07-19T13:34:44Z</time>
      </trkpt>
      <trkpt lat="45.295353" lon="6.849874">
        <ele>2004.333</ele>
        <time>2018-07-19T13:34:48Z</time>
      </trkpt>
      <trkpt lat="45.295342" lon="6.849799">
        <ele>2003.288</ele>
        <time>2018-07-19T13:34:52Z</time>
      </trkpt>
      <trkpt lat="45.295325" lon="6.849726">
        <ele>2003.393</ele>
        <time>2018-07-19T13:34:56Z</time>
      </trkpt>
      <trkpt lat="45.295304" lon="6.849654">
        <ele>2003.018</ele>
        <time>2018-07-19T13:35:00Z</time>
      </trkpt>
      <trkpt lat="45.295282" lon="6.849583">
        <ele>2004.033</ele>
        <time>2018-07-19T13:35:04Z</time>
      </trkpt>
      <trkpt lat="45.295257" lon="6.849514">
        <ele>2004.644</ele>
        <time>2018-07-19T13:35:08Z</time>
      </trkpt>
      <trkpt lat="45.295243" lon="6.849435">
        <ele>2004.662</ele>
        <time>2018-07-19T13:35:12Z</time>
      </trkpt>
      <trkpt lat="45.295222" lon="6.849362">
        <ele>2004.221</ele>
        <time>2018-07-19T13:35:16Z</time>
      </trkpt>
      <trkpt lat="45.295199" lon="6.849290">
        <ele>2003.947</ele>
        <time>2018-07-19T13:35:20Z</time>
      </trkpt>
      <trkpt lat="45.295172" lon="6.849226">
        <ele>2004.129</ele>
        <time>2018-07-19T13:35:24Z</time>
      </trkpt>
      <trkpt lat="45.295147" lon="6.849159">
        <ele>2004.221</ele>
        <time>2018-07-19T13:35:28Z</time>
      </trkpt>
      <trkpt lat="45.295120" lon="6.849098">
        <ele>2003.908</ele>
        <time>2018-07-19T13:35:32Z</time>
      </trkpt>
      <trkpt lat="45.295091" lon="6.849034">
        <ele>2003.786</ele>
        <time>2018-07-19T13:35:36Z</time>
      </trkpt>
      <trkpt lat="45.295066" lon="6.848975">
        <ele>2003.671</ele>
        <time>2018-07-19T13:35:40Z</time>
      </trkpt>
      <trkpt lat="45.295040" lon="6.848909">
        <ele>2003.966</ele>
        <time>2018-07-19T13:35:44Z</time>
      </trkpt>
      <trkpt lat="45.295012" lon="6.848843">
        <ele>2003.781</ele>
        <time>2018-07-19T13:35:48Z</time>
      </trkpt>
      <trkpt lat="45.294989" lon="6.848773">
        <ele>2002.456</ele>
        <time>2018-07-19T13:35:52Z</time>
      </trkpt>
      <trkpt lat="45.294964" lon="6.848709">
        <ele>2002.067</ele>
        <time>2018-07-19T13:35:56Z</time>
      </trkpt>
      <trkpt lat="45.294940" lon="6.848646">
        <ele>2001.415</ele>
        <time>2018-07-19T13:36:00Z</time>
      </trkpt>
      <trkpt lat="45.294910" lon="6.848584">
        <ele>1999.824</ele>
        <time>2018-07-19T13:36:04Z</time>
      </trkpt>
      <trkpt lat="45.294883" lon="6.848525">
        <ele>1998.912</ele>
        <time>2018-07-19T13:36:09Z</time>
      </trkpt>
      <trkpt lat="45.294865" lon="6.848462">
        <ele>1997.532</ele>
        <time>2018-07-19T13:36:13Z</time>
      </trkpt>
      <trkpt lat="45.294843" lon="6.848395">
        <ele>1996.705</ele>
        <time>2018-07-19T13:36:17Z</time>
      </trkpt>
      <trkpt lat="45.294821" lon="6.848330">
        <ele>1995.408</ele>
        <time>2018-07-19T13:36:21Z</time>
      </trkpt>
      <trkpt lat="45.294802" lon="6.848260">
        <ele>1993.823</ele>
        <time>2018-07-19T13:36:25Z</time>
      </trkpt>
      <trkpt lat="45.294782" lon="6.848189">
        <ele>1992.578</ele>
        <time>2018-07-19T13:36:29Z</time>
      </trkpt>
      <trkpt lat="45.294768" lon="6.848113">
        <ele>1990.973</ele>
        <time>2018-07-19T13:36:33Z</time>
      </trkpt>
      <trkpt lat="45.294762" lon="6.848035">
        <ele>1989.198</ele>
        <time>2018-07-19T13:36:37Z</time>
      </trkpt>
      <trkpt lat="45.294749" lon="6.847967">
        <ele>1987.613</ele>
        <time>2018-07-19T13:36:41Z</time>
      </trkpt>
      <trkpt lat="45.294732" lon="6.847904">
        <ele>1986.344</ele>
        <time>2018-07-19T13:36:45Z</time>
      </trkpt>
      <trkpt lat="45.294706" lon="6.847845">
        <ele>1985.972</ele>
        <time>2018-07-19T13:36:49Z</time>
      </trkpt>
      <trkpt lat="45.294678" lon="6.847773">
        <ele>1985.761</ele>
        <time>2018-07-19T13:36:53Z</time>
      </trkpt>
      <trkpt lat="45.294645" lon="6.847709">
        <ele>1986.099</ele>
        <time>2018-07-19T13:36:57Z</time>
      </trkpt>
      <trkpt lat="45.294614" lon="6.847641">
        <ele>1985.407</ele>
        <time>2018-07-19T13:37:01Z</time>
      </trkpt>
      <trkpt lat="45.294583" lon="6.847575">
        <ele>1985.027</ele>
        <time>2018-07-19T13:37:05Z</time>
      </trkpt>
      <trkpt lat="45.294557" lon="6.847510">
        <ele>1984.808</ele>
        <time>2018-07-19T13:37:09Z</time>
      </trkpt>
      <trkpt lat="45.294532" lon="6.847448">
        <ele>1984.711</ele>
        <time>2018-07-19T13:37:13Z</time>
      </trkpt>
      <trkpt lat="45.294512" lon="6.847386">
        <ele>1984.636</ele>
        <time>2018-07-19T13:37:17Z</time>
      </trkpt>
      <trkpt lat="45.294492" lon="6.847321">
        <ele>1984.641</ele>
        <time>2018-07-19T13:37:21Z</time>
      </trkpt>
      <trkpt lat="45.294481" lon="6.847251">
        <ele>1983.886</ele>
        <time>2018-07-19T13:37:25Z</time>
      </trkpt>
      <trkpt lat="45.294478" lon="6.847186">
        <ele>1982.991</ele>
        <time>2018-07-19T13:37:29Z</time>
      </trkpt>
      <trkpt lat="45.294481" lon="6.847121">
        <ele>1982.472</ele>
        <time>2018-07-19T13:37:33Z</time>
      </trkpt>
      <trkpt lat="45.294470" lon="6.847052">
        <ele>1982.170</ele>
        <time>2018-07-19T13:37:37Z</time>
      </trkpt>
      <trkpt lat="45.294456" lon="6.846981">
        <ele>1981.169</ele>
        <time>2018-07-19T13:37:41Z</time>
      </trkpt>
      <trkpt lat="45.294437" lon="6.846913">
        <ele>1980.918</ele>
        <time>2018-07-19T13:37:45Z</time>
      </trkpt>
      <trkpt lat="45.294418" lon="6.846847">
        <ele>1980.498</ele>
        <time>2018-07-19T13:37:49Z</time>
      </trkpt>
      <trkpt lat="45.294403" lon="6.846782">
        <ele>1979.717</ele>
        <time>2018-07-19T13:37:53Z</time>
      </trkpt>
      <trkpt lat="45.294388" lon="6.846720">
        <ele>1979.308</ele>
        <time>2018-07-19T13:37:57Z</time>
      </trkpt>
      <trkpt lat="45.294375" lon="6.846654">
        <ele>1979.023</ele>
        <time>2018-07-19T13:38:01Z</time>
      </trkpt>
      <trkpt lat="45.294363" lon="6.846588">
        <ele>1979.228</ele>
        <time>2018-07-19T13:38:05Z</time>
      </trkpt>
      <trkpt lat="45.294341" lon="6.846509">
        <ele>1978.943</ele>
        <time>2018-07-19T13:38:09Z</time>
      </trkpt>
      <trkpt lat="45.294319" lon="6.846453">
        <ele>1979.198</ele>
        <time>2018-07-19T13:38:12Z</time>
      </trkpt>
      <trkpt lat="45.294306" lon="6.846378">
        <ele>1977.673</ele>
        <time>2018-07-19T13:38:16Z</time>
      </trkpt>
      <trkpt lat="45.294265" lon="6.846325">
        <ele>1978.774</ele>
        <time>2018-07-19T13:38:23Z</time>
      </trkpt>
      <trkpt lat="45.294241" lon="6.846257">
        <ele>1979.032</ele>
        <time>2018-07-19T13:38:27Z</time>
      </trkpt>
      <trkpt lat="45.294221" lon="6.846187">
        <ele>1979.641</ele>
        <time>2018-07-19T13:38:31Z</time>
      </trkpt>
      <trkpt lat="45.294210" lon="6.846125">
        <ele>1980.359</ele>
        <time>2018-07-19T13:38:35Z</time>
      </trkpt>
      <trkpt lat="45.294236" lon="6.846059">
        <ele>1979.103</ele>
        <time>2018-07-19T13:38:48Z</time>
      </trkpt>
      <trkpt lat="45.294266" lon="6.846011">
        <ele>1977.623</ele>
        <time>2018-07-19T13:38:55Z</time>
      </trkpt>
      <trkpt lat="45.294307" lon="6.845974">
        <ele>1977.508</ele>
        <time>2018-07-19T13:39:02Z</time>
      </trkpt>
      <trkpt lat="45.294333" lon="6.845917">
        <ele>1979.437</ele>
        <time>2018-07-19T13:39:12Z</time>
      </trkpt>
      <trkpt lat="45.294350" lon="6.845822">
        <ele>1978.672</ele>
        <time>2018-07-19T13:39:44Z</time>
      </trkpt>
      <trkpt lat="45.294375" lon="6.845760">
        <ele>1977.347</ele>
        <time>2018-07-19T13:39:52Z</time>
      </trkpt>
      <trkpt lat="45.294387" lon="6.845694">
        <ele>1976.562</ele>
        <time>2018-07-19T13:40:00Z</time>
      </trkpt>
      <trkpt lat="45.294430" lon="6.845660">
        <ele>1976.047</ele>
        <time>2018-07-19T13:40:08Z</time>
      </trkpt>
      <trkpt lat="45.294455" lon="6.845597">
        <ele>1975.338</ele>
        <time>2018-07-19T13:40:16Z</time>
      </trkpt>
      <trkpt lat="45.294467" lon="6.845532">
        <ele>1975.756</ele>
        <time>2018-07-19T13:40:22Z</time>
      </trkpt>
      <trkpt lat="45.294484" lon="6.845430">
        <ele>1977.585</ele>
        <time>2018-07-19T13:40:46Z</time>
      </trkpt>
      <trkpt lat="45.294508" lon="6.845291">
        <ele>1980.266</ele>
        <time>2018-07-19T13:41:11Z</time>
      </trkpt>
      <trkpt lat="45.294522" lon="6.845223">
        <ele>1979.429</ele>
        <time>2018-07-19T13:41:20Z</time>
      </trkpt>
      <trkpt lat="45.294535" lon="6.845126">
        <ele>1981.321</ele>
        <time>2018-07-19T13:41:37Z</time>
      </trkpt>
      <trkpt lat="45.294544" lon="6.845057">
        <ele>1982.908</ele>
        <time>2018-07-19T13:41:46Z</time>
      </trkpt>
      <trkpt lat="45.294545" lon="6.844977">
        <ele>1984.618</ele>
        <time>2018-07-19T13:42:07Z</time>
      </trkpt>
      <trkpt lat="45.294558" lon="6.844897">
        <ele>1988.053</ele>
        <time>2018-07-19T13:42:21Z</time>
      </trkpt>
      <trkpt lat="45.294548" lon="6.844795">
        <ele>1990.148</ele>
        <time>2018-07-19T13:42:27Z</time>
      </trkpt>
      <trkpt lat="45.294521" lon="6.844739">
        <ele>1994.183</ele>
        <time>2018-07-19T13:42:35Z</time>
      </trkpt>
      <trkpt lat="45.294507" lon="6.844673">
        <ele>1997.788</ele>
        <time>2018-07-19T13:42:45Z</time>
      </trkpt>
      <trkpt lat="45.294502" lon="6.844575">
        <ele>2000.339</ele>
        <time>2018-07-19T13:42:59Z</time>
      </trkpt>
      <trkpt lat="45.294510" lon="6.844510">
        <ele>2003.577</ele>
        <time>2018-07-19T13:43:06Z</time>
      </trkpt>
      <trkpt lat="45.294523" lon="6.844393">
        <ele>2003.866</ele>
        <time>2018-07-19T13:43:19Z</time>
      </trkpt>
      <trkpt lat="45.294545" lon="6.844319">
        <ele>2003.689</ele>
        <time>2018-07-19T13:47:09Z</time>
      </trkpt>
      <trkpt lat="45.294570" lon="6.844261">
        <ele>2005.106</ele>
        <time>2018-07-19T13:47:12Z</time>
      </trkpt>
      <trkpt lat="45.294563" lon="6.844184">
        <ele>2008.026</ele>
        <time>2018-07-19T13:47:15Z</time>
      </trkpt>
      <trkpt lat="45.294578" lon="6.844103">
        <ele>2008.908</ele>
        <time>2018-07-19T13:47:19Z</time>
      </trkpt>
      <trkpt lat="45.294591" lon="6.844038">
        <ele>2009.520</ele>
        <time>2018-07-19T13:47:22Z</time>
      </trkpt>
      <trkpt lat="45.294637" lon="6.844011">
        <ele>2006.295</ele>
        <time>2018-07-19T13:47:27Z</time>
      </trkpt>
      <trkpt lat="45.294672" lon="6.843952">
        <ele>2005.830</ele>
        <time>2018-07-19T13:47:35Z</time>
      </trkpt>
      <trkpt lat="45.294657" lon="6.843877">
        <ele>2009.215</ele>
        <time>2018-07-19T13:47:38Z</time>
      </trkpt>
      <trkpt lat="45.294623" lon="6.843828">
        <ele>2010.020</ele>
        <time>2018-07-19T13:47:42Z</time>
      </trkpt>
      <trkpt lat="45.294615" lon="6.843738">
        <ele>2012.911</ele>
        <time>2018-07-19T13:48:58Z</time>
      </trkpt>
      <trkpt lat="45.294610" lon="6.843455">
        <ele>2016.949</ele>
        <time>2018-07-19T13:50:16Z</time>
      </trkpt>
      <trkpt lat="45.294655" lon="6.843393">
        <ele>2019.828</ele>
        <time>2018-07-19T13:50:19Z</time>
      </trkpt>
      <trkpt lat="45.294661" lon="6.843312">
        <ele>2022.474</ele>
        <time>2018-07-19T13:50:21Z</time>
      </trkpt>
      <trkpt lat="45.294658" lon="6.843247">
        <ele>2024.756</ele>
        <time>2018-07-19T13:50:22Z</time>
      </trkpt>
      <trkpt lat="45.294669" lon="6.843169">
        <ele>2026.521</ele>
        <time>2018-07-19T13:50:27Z</time>
      </trkpt>
      <trkpt lat="45.294719" lon="6.843142">
        <ele>2028.008</ele>
        <time>2018-07-19T13:50:31Z</time>
      </trkpt>
      <trkpt lat="45.294741" lon="6.843086">
        <ele>2028.119</ele>
        <time>2018-07-19T13:50:34Z</time>
      </trkpt>
      <trkpt lat="45.294730" lon="6.842998">
        <ele>2027.894</ele>
        <time>2018-07-19T13:50:36Z</time>
      </trkpt>
      <trkpt lat="45.294720" lon="6.842935">
        <ele>2026.479</ele>
        <time>2018-07-19T13:50:37Z</time>
      </trkpt>
      <trkpt lat="45.294713" lon="6.842864">
        <ele>2026.884</ele>
        <time>2018-07-19T13:50:39Z</time>
      </trkpt>
      <trkpt lat="45.294718" lon="6.842780">
        <ele>2030.299</ele>
        <time>2018-07-19T13:50:48Z</time>
      </trkpt>
      <trkpt lat="45.294766" lon="6.842779">
        <ele>2033.420</ele>
        <time>2018-07-19T13:50:55Z</time>
      </trkpt>
      <trkpt lat="45.294773" lon="6.842687">
        <ele>2034.958</ele>
        <time>2018-07-19T13:52:07Z</time>
      </trkpt>
      <trkpt lat="45.294788" lon="6.842576">
        <ele>2035.877</ele>
        <time>2018-07-19T13:52:09Z</time>
      </trkpt>
      <trkpt lat="45.294786" lon="6.842507">
        <ele>2036.035</ele>
        <time>2018-07-19T13:52:12Z</time>
      </trkpt>
      <trkpt lat="45.294768" lon="6.842438">
        <ele>2037.786</ele>
        <time>2018-07-19T13:52:17Z</time>
      </trkpt>
      <trkpt lat="45.294816" lon="6.842268">
        <ele>2039.514</ele>
        <time>2018-07-19T13:54:21Z</time>
      </trkpt>
      <trkpt lat="45.294920" lon="6.842235">
        <ele>2036.608</ele>
        <time>2018-07-19T13:55:49Z</time>
      </trkpt>
      <trkpt lat="45.294971" lon="6.842270">
        <ele>2033.735</ele>
        <time>2018-07-19T13:55:51Z</time>
      </trkpt>
      <trkpt lat="45.295033" lon="6.842298">
        <ele>2032.790</ele>
        <time>2018-07-19T13:55:53Z</time>
      </trkpt>
      <trkpt lat="45.295094" lon="6.842308">
        <ele>2032.585</ele>
        <time>2018-07-19T13:55:55Z</time>
      </trkpt>
      <trkpt lat="45.295145" lon="6.842303">
        <ele>2031.220</ele>
        <time>2018-07-19T13:55:56Z</time>
      </trkpt>
      <trkpt lat="45.295209" lon="6.842300">
        <ele>2031.245</ele>
        <time>2018-07-19T13:55:57Z</time>
      </trkpt>
      <trkpt lat="45.295248" lon="6.842361">
        <ele>2033.626</ele>
        <time>2018-07-19T13:56:02Z</time>
      </trkpt>
      <trkpt lat="45.295290" lon="6.842401">
        <ele>2036.224</ele>
        <time>2018-07-19T13:56:05Z</time>
      </trkpt>
      <trkpt lat="45.295361" lon="6.842432">
        <ele>2038.643</ele>
        <time>2018-07-19T13:56:07Z</time>
      </trkpt>
      <trkpt lat="45.295333" lon="6.842493">
        <ele>2042.482</ele>
        <time>2018-07-19T13:56:10Z</time>
      </trkpt>
      <trkpt lat="45.295337" lon="6.842593">
        <ele>2046.343</ele>
        <time>2018-07-19T13:56:12Z</time>
      </trkpt>
      <trkpt lat="45.295300" lon="6.842533">
        <ele>2049.417</ele>
        <time>2018-07-19T13:56:18Z</time>
      </trkpt>
      <trkpt lat="45.295345" lon="6.842558">
        <ele>2052.908</ele>
        <time>2018-07-19T13:56:25Z</time>
      </trkpt>
      <trkpt lat="45.295315" lon="6.842586">
        <ele>2060.190</ele>
        <time>2018-07-19T14:08:34Z</time>
      </trkpt>
      <trkpt lat="45.295356" lon="6.842621">
        <ele>2063.165</ele>
        <time>2018-07-19T14:09:09Z</time>
      </trkpt>
      <trkpt lat="45.295387" lon="6.842671">
        <ele>2062.170</ele>
        <time>2018-07-19T14:09:34Z</time>
      </trkpt>
      <trkpt lat="45.295424" lon="6.842731">
        <ele>2065.335</ele>
        <time>2018-07-19T14:09:48Z</time>
      </trkpt>
      <trkpt lat="45.295432" lon="6.842798">
        <ele>2069.290</ele>
        <time>2018-07-19T14:09:59Z</time>
      </trkpt>
      <trkpt lat="45.295466" lon="6.842846">
        <ele>2072.371</ele>
        <time>2018-07-19T14:10:16Z</time>
      </trkpt>
      <trkpt lat="45.295500" lon="6.842888">
        <ele>2074.269</ele>
        <time>2018-07-19T14:10:39Z</time>
      </trkpt>
      <trkpt lat="45.295552" lon="6.842925">
        <ele>2075.758</ele>
        <time>2018-07-19T14:10:53Z</time>
      </trkpt>
      <trkpt lat="45.295597" lon="6.842938">
        <ele>2078.287</ele>
        <time>2018-07-19T14:11:03Z</time>
      </trkpt>
      <trkpt lat="45.295639" lon="6.842911">
        <ele>2079.342</ele>
        <time>2018-07-19T14:11:12Z</time>
      </trkpt>
      <trkpt lat="45.295687" lon="6.842932">
        <ele>2081.626</ele>
        <time>2018-07-19T14:11:25Z</time>
      </trkpt>
      <trkpt lat="45.295751" lon="6.842975">
        <ele>2082.608</ele>
        <time>2018-07-19T14:11:45Z</time>
      </trkpt>
      <trkpt lat="45.295798" lon="6.843011">
        <ele>2084.830</ele>
        <time>2018-07-19T14:11:57Z</time>
      </trkpt>
      <trkpt lat="45.295841" lon="6.843028">
        <ele>2087.365</ele>
        <time>2018-07-19T14:12:12Z</time>
      </trkpt>
      <trkpt lat="45.295852" lon="6.843090">
        <ele>2089.270</ele>
        <time>2018-07-19T14:12:31Z</time>
      </trkpt>
      <trkpt lat="45.295880" lon="6.843143">
        <ele>2091.985</ele>
        <time>2018-07-19T14:13:01Z</time>
      </trkpt>
      <trkpt lat="45.295902" lon="6.843199">
        <ele>2093.130</ele>
        <time>2018-07-19T14:13:08Z</time>
      </trkpt>
      <trkpt lat="45.295950" lon="6.843266">
        <ele>2095.021</ele>
        <time>2018-07-19T14:14:17Z</time>
      </trkpt>
      <trkpt lat="45.295964" lon="6.843333">
        <ele>2098.239</ele>
        <time>2018-07-19T14:14:25Z</time>
      </trkpt>
      <trkpt lat="45.295998" lon="6.843379">
        <ele>2097.728</ele>
        <time>2018-07-19T14:14:38Z</time>
      </trkpt>
      <trkpt lat="45.296035" lon="6.843304">
        <ele>2097.428</ele>
        <time>2018-07-19T14:15:15Z</time>
      </trkpt>
      <trkpt lat="45.296050" lon="6.843366">
        <ele>2098.889</ele>
        <time>2018-07-19T14:15:24Z</time>
      </trkpt>
      <trkpt lat="45.296125" lon="6.843407">
        <ele>2102.117</ele>
        <time>2018-07-19T14:16:26Z</time>
      </trkpt>
      <trkpt lat="45.296191" lon="6.843516">
        <ele>2106.108</ele>
        <time>2018-07-19T14:16:52Z</time>
      </trkpt>
      <trkpt lat="45.296216" lon="6.843573">
        <ele>2109.744</ele>
        <time>2018-07-19T14:17:06Z</time>
      </trkpt>
      <trkpt lat="45.296269" lon="6.843588">
        <ele>2110.619</ele>
        <time>2018-07-19T14:17:14Z</time>
      </trkpt>
      <trkpt lat="45.296291" lon="6.843657">
        <ele>2112.064</ele>
        <time>2018-07-19T14:17:25Z</time>
      </trkpt>
      <trkpt lat="45.296263" lon="6.843713">
        <ele>2112.869</ele>
        <time>2018-07-19T14:17:37Z</time>
      </trkpt>
      <trkpt lat="45.296215" lon="6.843720">
        <ele>2116.114</ele>
        <time>2018-07-19T14:18:10Z</time>
      </trkpt>
      <trkpt lat="45.296188" lon="6.843777">
        <ele>2117.395</ele>
        <time>2018-07-19T14:18:40Z</time>
      </trkpt>
      <trkpt lat="45.296215" lon="6.843868">
        <ele>2117.683</ele>
        <time>2018-07-19T14:19:06Z</time>
      </trkpt>
      <trkpt lat="45.296247" lon="6.843991">
        <ele>2121.672</ele>
        <time>2018-07-19T14:19:31Z</time>
      </trkpt>
      <trkpt lat="45.296279" lon="6.844083">
        <ele>2125.678</ele>
        <time>2018-07-19T14:19:49Z</time>
      </trkpt>
      <trkpt lat="45.296331" lon="6.844070">
        <ele>2127.433</ele>
        <time>2018-07-19T14:19:54Z</time>
      </trkpt>
      <trkpt lat="45.296359" lon="6.844126">
        <ele>2131.326</ele>
        <time>2018-07-19T14:20:03Z</time>
      </trkpt>
      <trkpt lat="45.296392" lon="6.844074">
        <ele>2132.408</ele>
        <time>2018-07-19T14:20:30Z</time>
      </trkpt>
      <trkpt lat="45.296439" lon="6.844058">
        <ele>2132.369</ele>
        <time>2018-07-19T14:20:35Z</time>
      </trkpt>
      <trkpt lat="45.296484" lon="6.844019">
        <ele>2132.664</ele>
        <time>2018-07-19T14:20:46Z</time>
      </trkpt>
      <trkpt lat="45.296477" lon="6.843953">
        <ele>2134.019</ele>
        <time>2018-07-19T14:20:52Z</time>
      </trkpt>
      <trkpt lat="45.296533" lon="6.843962">
        <ele>2133.284</ele>
        <time>2018-07-19T14:21:08Z</time>
      </trkpt>
      <trkpt lat="45.296519" lon="6.844023">
        <ele>2135.539</ele>
        <time>2018-07-19T14:21:19Z</time>
      </trkpt>
      <trkpt lat="45.296568" lon="6.844087">
        <ele>2138.930</ele>
        <time>2018-07-19T14:21:58Z</time>
      </trkpt>
      <trkpt lat="45.296603" lon="6.844032">
        <ele>2140.598</ele>
        <time>2018-07-19T14:22:10Z</time>
      </trkpt>
      <trkpt lat="45.296629" lon="6.843974">
        <ele>2142.737</ele>
        <time>2018-07-19T14:22:23Z</time>
      </trkpt>
      <trkpt lat="45.296655" lon="6.843917">
        <ele>2144.873</ele>
        <time>2018-07-19T14:22:30Z</time>
      </trkpt>
      <trkpt lat="45.296645" lon="6.843852">
        <ele>2146.985</ele>
        <time>2018-07-19T14:22:36Z</time>
      </trkpt>
      <trkpt lat="45.296688" lon="6.843831">
        <ele>2147.313</ele>
        <time>2018-07-19T14:22:47Z</time>
      </trkpt>
      <trkpt lat="45.296736" lon="6.843829">
        <ele>2148.008</ele>
        <time>2018-07-19T14:22:57Z</time>
      </trkpt>
      <trkpt lat="45.296770" lon="6.843879">
        <ele>2148.839</ele>
        <time>2018-07-19T14:23:10Z</time>
      </trkpt>
      <trkpt lat="45.296757" lon="6.843949">
        <ele>2148.924</ele>
        <time>2018-07-19T14:23:20Z</time>
      </trkpt>
      <trkpt lat="45.296766" lon="6.844019">
        <ele>2149.399</ele>
        <time>2018-07-19T14:23:29Z</time>
      </trkpt>
      <trkpt lat="45.296772" lon="6.844084">
        <ele>2149.674</ele>
        <time>2018-07-19T14:23:39Z</time>
      </trkpt>
      <trkpt lat="45.296797" lon="6.844140">
        <ele>2151.039</ele>
        <time>2018-07-19T14:23:48Z</time>
      </trkpt>
      <trkpt lat="45.296828" lon="6.844209">
        <ele>2153.490</ele>
        <time>2018-07-19T14:24:00Z</time>
      </trkpt>
      <trkpt lat="45.296875" lon="6.844220">
        <ele>2154.848</ele>
        <time>2018-07-19T14:24:20Z</time>
      </trkpt>
      <trkpt lat="45.296916" lon="6.844189">
        <ele>2156.947</ele>
        <time>2018-07-19T14:24:36Z</time>
      </trkpt>
      <trkpt lat="45.296918" lon="6.844123">
        <ele>2159.756</ele>
        <time>2018-07-19T14:24:45Z</time>
      </trkpt>
      <trkpt lat="45.296942" lon="6.844064">
        <ele>2160.259</ele>
        <time>2018-07-19T14:24:57Z</time>
      </trkpt>
      <trkpt lat="45.297003" lon="6.844038">
        <ele>2165.214</ele>
        <time>2018-07-19T14:34:58Z</time>
      </trkpt>
      <trkpt lat="45.297007" lon="6.843972">
        <ele>2168.908</ele>
        <time>2018-07-19T14:35:14Z</time>
      </trkpt>
      <trkpt lat="45.297000" lon="6.843904">
        <ele>2170.177</ele>
        <time>2018-07-19T14:35:24Z</time>
      </trkpt>
      <trkpt lat="45.296997" lon="6.843840">
        <ele>2169.692</ele>
        <time>2018-07-19T14:35:34Z</time>
      </trkpt>
      <trkpt lat="45.297004" lon="6.843769">
        <ele>2169.667</ele>
        <time>2018-07-19T14:35:46Z</time>
      </trkpt>
      <trkpt lat="45.297025" lon="6.843710">
        <ele>2168.862</ele>
        <time>2018-07-19T14:35:52Z</time>
      </trkpt>
      <trkpt lat="45.297034" lon="6.843642">
        <ele>2169.537</ele>
        <time>2018-07-19T14:36:04Z</time>
      </trkpt>
      <trkpt lat="45.297035" lon="6.843578">
        <ele>2170.338</ele>
        <time>2018-07-19T14:36:16Z</time>
      </trkpt>
      <trkpt lat="45.297053" lon="6.843516">
        <ele>2171.626</ele>
        <time>2018-07-19T14:36:30Z</time>
      </trkpt>
      <trkpt lat="45.297055" lon="6.843447">
        <ele>2172.865</ele>
        <time>2018-07-19T14:36:43Z</time>
      </trkpt>
      <trkpt lat="45.297052" lon="6.843378">
        <ele>2174.371</ele>
        <time>2018-07-19T14:36:56Z</time>
      </trkpt>
      <trkpt lat="45.297059" lon="6.843310">
        <ele>2175.241</ele>
        <time>2018-07-19T14:37:10Z</time>
      </trkpt>
      <trkpt lat="45.297051" lon="6.843244">
        <ele>2176.515</ele>
        <time>2018-07-19T14:37:20Z</time>
      </trkpt>
      <trkpt lat="45.297036" lon="6.843176">
        <ele>2177.708</ele>
        <time>2018-07-19T14:37:36Z</time>
      </trkpt>
      <trkpt lat="45.297026" lon="6.843106">
        <ele>2178.899</ele>
        <time>2018-07-19T14:37:50Z</time>
      </trkpt>
      <trkpt lat="45.297006" lon="6.843044">
        <ele>2179.954</ele>
        <time>2018-07-19T14:38:00Z</time>
      </trkpt>
      <trkpt lat="45.296982" lon="6.842987">
        <ele>2180.529</ele>
        <time>2018-07-19T14:38:10Z</time>
      </trkpt>
      <trkpt lat="45.296982" lon="6.842922">
        <ele>2180.974</ele>
        <time>2018-07-19T14:38:25Z</time>
      </trkpt>
      <trkpt lat="45.296970" lon="6.842859">
        <ele>2182.389</ele>
        <time>2018-07-19T14:38:46Z</time>
      </trkpt>
      <trkpt lat="45.296945" lon="6.842796">
        <ele>2184.450</ele>
        <time>2018-07-19T14:38:57Z</time>
      </trkpt>
      <trkpt lat="45.296919" lon="6.842742">
        <ele>2186.068</ele>
        <time>2018-07-19T14:39:05Z</time>
      </trkpt>
      <trkpt lat="45.296924" lon="6.842676">
        <ele>2186.617</ele>
        <time>2018-07-19T14:39:14Z</time>
      </trkpt>
      <trkpt lat="45.296905" lon="6.842607">
        <ele>2188.195</ele>
        <time>2018-07-19T14:39:26Z</time>
      </trkpt>
      <trkpt lat="45.296899" lon="6.842538">
        <ele>2189.449</ele>
        <time>2018-07-19T14:39:36Z</time>
      </trkpt>
      <trkpt lat="45.296924" lon="6.842477">
        <ele>2190.223</ele>
        <time>2018-07-19T14:39:46Z</time>
      </trkpt>
      <trkpt lat="45.296929" lon="6.842412">
        <ele>2191.108</ele>
        <time>2018-07-19T14:40:00Z</time>
      </trkpt>
      <trkpt lat="45.296917" lon="6.842349">
        <ele>2191.631</ele>
        <time>2018-07-19T14:40:09Z</time>
      </trkpt>
      <trkpt lat="45.296918" lon="6.842278">
        <ele>2192.726</ele>
        <time>2018-07-19T14:40:23Z</time>
      </trkpt>
      <trkpt lat="45.296955" lon="6.842237">
        <ele>2193.421</ele>
        <time>2018-07-19T14:40:38Z</time>
      </trkpt>
      <trkpt lat="45.297000" lon="6.842242">
        <ele>2194.236</ele>
        <time>2018-07-19T14:40:53Z</time>
      </trkpt>
      <trkpt lat="45.297034" lon="6.842291">
        <ele>2195.991</ele>
        <time>2018-07-19T14:41:26Z</time>
      </trkpt>
      <trkpt lat="45.297064" lon="6.842344">
        <ele>2197.382</ele>
        <time>2018-07-19T14:41:42Z</time>
      </trkpt>
      <trkpt lat="45.297102" lon="6.842387">
        <ele>2199.340</ele>
        <time>2018-07-19T14:42:03Z</time>
      </trkpt>
      <trkpt lat="45.297153" lon="6.842398">
        <ele>2202.529</ele>
        <time>2018-07-19T14:42:15Z</time>
      </trkpt>
      <trkpt lat="45.297182" lon="6.842346">
        <ele>2205.241</ele>
        <time>2018-07-19T14:42:28Z</time>
      </trkpt>
      <trkpt lat="45.297197" lon="6.842279">
        <ele>2207.281</ele>
        <time>2018-07-19T14:42:41Z</time>
      </trkpt>
      <trkpt lat="45.297201" lon="6.842214">
        <ele>2208.809</ele>
        <time>2018-07-19T14:42:48Z</time>
      </trkpt>
      <trkpt lat="45.297210" lon="6.842145">
        <ele>2209.808</ele>
        <time>2018-07-19T14:42:56Z</time>
      </trkpt>
      <trkpt lat="45.297205" lon="6.842076">
        <ele>2210.896</ele>
        <time>2018-07-19T14:43:04Z</time>
      </trkpt>
      <trkpt lat="45.297225" lon="6.842013">
        <ele>2211.841</ele>
        <time>2018-07-19T14:43:13Z</time>
      </trkpt>
      <trkpt lat="45.297229" lon="6.841945">
        <ele>2212.836</ele>
        <time>2018-07-19T14:43:24Z</time>
      </trkpt>
      <trkpt lat="45.297243" lon="6.841880">
        <ele>2214.211</ele>
        <time>2018-07-19T14:43:37Z</time>
      </trkpt>
      <trkpt lat="45.297261" lon="6.841819">
        <ele>2215.036</ele>
        <time>2018-07-19T14:43:53Z</time>
      </trkpt>
      <trkpt lat="45.297303" lon="6.841794">
        <ele>2215.557</ele>
        <time>2018-07-19T14:44:07Z</time>
      </trkpt>
      <trkpt lat="45.297347" lon="6.841775">
        <ele>2216.215</ele>
        <time>2018-07-19T14:44:23Z</time>
      </trkpt>
      <trkpt lat="45.297391" lon="6.841755">
        <ele>2217.054</ele>
        <time>2018-07-19T14:44:34Z</time>
      </trkpt>
      <trkpt lat="45.297424" lon="6.841706">
        <ele>2217.965</ele>
        <time>2018-07-19T14:44:46Z</time>
      </trkpt>
      <trkpt lat="45.297457" lon="6.841662">
        <ele>2219.668</ele>
        <time>2018-07-19T14:45:01Z</time>
      </trkpt>
      <trkpt lat="45.297499" lon="6.841689">
        <ele>2221.014</ele>
        <time>2018-07-19T14:45:15Z</time>
      </trkpt>
      <trkpt lat="45.297532" lon="6.841734">
        <ele>2222.708</ele>
        <time>2018-07-19T14:45:28Z</time>
      </trkpt>
      <trkpt lat="45.297546" lon="6.841796">
        <ele>2224.538</ele>
        <time>2018-07-19T14:45:42Z</time>
      </trkpt>
      <trkpt lat="45.297560" lon="6.841857">
        <ele>2226.463</ele>
        <time>2018-07-19T14:45:57Z</time>
      </trkpt>
      <trkpt lat="45.297575" lon="6.841922">
        <ele>2228.388</ele>
        <time>2018-07-19T14:46:06Z</time>
      </trkpt>
      <trkpt lat="45.297594" lon="6.841982">
        <ele>2229.583</ele>
        <time>2018-07-19T14:46:13Z</time>
      </trkpt>
      <trkpt lat="45.297611" lon="6.842048">
        <ele>2230.668</ele>
        <time>2018-07-19T14:46:21Z</time>
      </trkpt>
      <trkpt lat="45.297624" lon="6.842120">
        <ele>2231.729</ele>
        <time>2018-07-19T14:46:28Z</time>
      </trkpt>
      <trkpt lat="45.297643" lon="6.842185">
        <ele>2232.787</ele>
        <time>2018-07-19T14:46:35Z</time>
      </trkpt>
      <trkpt lat="45.297671" lon="6.842238">
        <ele>2233.726</ele>
        <time>2018-07-19T14:46:42Z</time>
      </trkpt>
      <trkpt lat="45.297693" lon="6.842299">
        <ele>2234.752</ele>
        <time>2018-07-19T14:46:50Z</time>
      </trkpt>
      <trkpt lat="45.297713" lon="6.842364">
        <ele>2235.753</ele>
        <time>2018-07-19T14:46:58Z</time>
      </trkpt>
      <trkpt lat="45.297730" lon="6.842427">
        <ele>2236.308</ele>
        <time>2018-07-19T14:47:05Z</time>
      </trkpt>
      <trkpt lat="45.297747" lon="6.842489">
        <ele>2237.108</ele>
        <time>2018-07-19T14:47:13Z</time>
      </trkpt>
      <trkpt lat="45.297766" lon="6.842549">
        <ele>2238.077</ele>
        <time>2018-07-19T14:47:22Z</time>
      </trkpt>
      <trkpt lat="45.297791" lon="6.842608">
        <ele>2238.912</ele>
        <time>2018-07-19T14:47:32Z</time>
      </trkpt>
      <trkpt lat="45.297836" lon="6.842634">
        <ele>2239.497</ele>
        <time>2018-07-19T14:47:43Z</time>
      </trkpt>
      <trkpt lat="45.297885" lon="6.842619">
        <ele>2240.192</ele>
        <time>2018-07-19T14:47:54Z</time>
      </trkpt>
      <trkpt lat="45.297920" lon="6.842577">
        <ele>2241.347</ele>
        <time>2018-07-19T14:48:04Z</time>
      </trkpt>
      <trkpt lat="45.297934" lon="6.842516">
        <ele>2241.688</ele>
        <time>2018-07-19T14:48:15Z</time>
      </trkpt>
      <trkpt lat="45.297958" lon="6.842462">
        <ele>2242.266</ele>
        <time>2018-07-19T14:48:33Z</time>
      </trkpt>
      <trkpt lat="45.297979" lon="6.842400">
        <ele>2243.445</ele>
        <time>2018-07-19T14:49:17Z</time>
      </trkpt>
      <trkpt lat="45.297995" lon="6.842340">
        <ele>2245.383</ele>
        <time>2018-07-19T14:49:29Z</time>
      </trkpt>
      <trkpt lat="45.298033" lon="6.842303">
        <ele>2246.825</ele>
        <time>2018-07-19T14:49:45Z</time>
      </trkpt>
      <trkpt lat="45.298070" lon="6.842344">
        <ele>2248.117</ele>
        <time>2018-07-19T14:50:15Z</time>
      </trkpt>
      <trkpt lat="45.298099" lon="6.842395">
        <ele>2248.908</ele>
        <time>2018-07-19T14:50:29Z</time>
      </trkpt>
      <trkpt lat="45.298103" lon="6.842460">
        <ele>2249.430</ele>
        <time>2018-07-19T14:50:41Z</time>
      </trkpt>
      <trkpt lat="45.298113" lon="6.842523">
        <ele>2251.345</ele>
        <time>2018-07-19T14:50:51Z</time>
      </trkpt>
      <trkpt lat="45.298122" lon="6.842591">
        <ele>2253.240</ele>
        <time>2018-07-19T14:51:05Z</time>
      </trkpt>
      <trkpt lat="45.298146" lon="6.842651">
        <ele>2254.445</ele>
        <time>2018-07-19T14:51:16Z</time>
      </trkpt>
      <trkpt lat="45.298155" lon="6.842715">
        <ele>2255.940</ele>
        <time>2018-07-19T14:51:29Z</time>
      </trkpt>
      <trkpt lat="45.298169" lon="6.842777">
        <ele>2257.641</ele>
        <time>2018-07-19T14:51:39Z</time>
      </trkpt>
      <trkpt lat="45.298186" lon="6.842841">
        <ele>2259.039</ele>
        <time>2018-07-19T14:51:52Z</time>
      </trkpt>
      <trkpt lat="45.298215" lon="6.842896">
        <ele>2260.388</ele>
        <time>2018-07-19T14:52:09Z</time>
      </trkpt>
      <trkpt lat="45.298255" lon="6.842926">
        <ele>2261.975</ele>
        <time>2018-07-19T14:52:29Z</time>
      </trkpt>
      <trkpt lat="45.298289" lon="6.842973">
        <ele>2262.828</ele>
        <time>2018-07-19T14:52:44Z</time>
      </trkpt>
      <trkpt lat="45.298321" lon="6.842925">
        <ele>2265.820</ele>
        <time>2018-07-19T14:53:09Z</time>
      </trkpt>
      <trkpt lat="45.298360" lon="6.842881">
        <ele>2267.208</ele>
        <time>2018-07-19T14:53:28Z</time>
      </trkpt>
      <trkpt lat="45.298385" lon="6.842938">
        <ele>2269.669</ele>
        <time>2018-07-19T14:53:52Z</time>
      </trkpt>
      <trkpt lat="45.298429" lon="6.842957">
        <ele>2271.124</ele>
        <time>2018-07-19T14:54:04Z</time>
      </trkpt>
      <trkpt lat="45.298465" lon="6.843005">
        <ele>2272.499</ele>
        <time>2018-07-19T14:54:21Z</time>
      </trkpt>
      <trkpt lat="45.298481" lon="6.843065">
        <ele>2274.034</ele>
        <time>2018-07-19T14:54:39Z</time>
      </trkpt>
      <trkpt lat="45.298484" lon="6.843139">
        <ele>2276.569</ele>
        <time>2018-07-19T14:54:53Z</time>
      </trkpt>
      <trkpt lat="45.298490" lon="6.843210">
        <ele>2278.460</ele>
        <time>2018-07-19T14:55:02Z</time>
      </trkpt>
      <trkpt lat="45.298496" lon="6.843278">
        <ele>2279.658</ele>
        <time>2018-07-19T14:55:09Z</time>
      </trkpt>
      <trkpt lat="45.298520" lon="6.843337">
        <ele>2280.327</ele>
        <time>2018-07-19T14:55:16Z</time>
      </trkpt>
      <trkpt lat="45.298551" lon="6.843386">
        <ele>2281.181</ele>
        <time>2018-07-19T14:55:26Z</time>
      </trkpt>
      <trkpt lat="45.298588" lon="6.843429">
        <ele>2281.661</ele>
        <time>2018-07-19T14:55:38Z</time>
      </trkpt>
      <trkpt lat="45.298609" lon="6.843488">
        <ele>2282.317</ele>
        <time>2018-07-19T14:55:51Z</time>
      </trkpt>
      <trkpt lat="45.298654" lon="6.843485">
        <ele>2284.308</ele>
        <time>2018-07-19T14:56:14Z</time>
      </trkpt>
      <trkpt lat="45.298700" lon="6.843469">
        <ele>2285.520</ele>
        <time>2018-07-19T14:56:31Z</time>
      </trkpt>
      <trkpt lat="45.298749" lon="6.843477">
        <ele>2286.655</ele>
        <time>2018-07-19T14:56:43Z</time>
      </trkpt>
      <trkpt lat="45.298798" lon="6.843471">
        <ele>2288.170</ele>
        <time>2018-07-19T14:56:56Z</time>
      </trkpt>
      <trkpt lat="45.298830" lon="6.843423">
        <ele>2290.285</ele>
        <time>2018-07-19T14:57:07Z</time>
      </trkpt>
      <trkpt lat="45.298864" lon="6.843470">
        <ele>2292.360</ele>
        <time>2018-07-19T14:57:30Z</time>
      </trkpt>
      <trkpt lat="45.298876" lon="6.843533">
        <ele>2293.951</ele>
        <time>2018-07-19T14:57:42Z</time>
      </trkpt>
      <trkpt lat="45.298896" lon="6.843594">
        <ele>2295.759</ele>
        <time>2018-07-19T14:57:54Z</time>
      </trkpt>
      <trkpt lat="45.298916" lon="6.843653">
        <ele>2297.668</ele>
        <time>2018-07-19T14:58:09Z</time>
      </trkpt>
      <trkpt lat="45.298961" lon="6.843642">
        <ele>2299.978</ele>
        <time>2018-07-19T14:58:29Z</time>
      </trkpt>
      <trkpt lat="45.298982" lon="6.843583">
        <ele>2301.733</ele>
        <time>2018-07-19T14:58:41Z</time>
      </trkpt>
      <trkpt lat="45.298993" lon="6.843517">
        <ele>2302.826</ele>
        <time>2018-07-19T14:58:56Z</time>
      </trkpt>
      <trkpt lat="45.299014" lon="6.843455">
        <ele>2304.208</ele>
        <time>2018-07-19T14:59:08Z</time>
      </trkpt>
      <trkpt lat="45.299028" lon="6.843394">
        <ele>2305.189</ele>
        <time>2018-07-19T14:59:21Z</time>
      </trkpt>
      <trkpt lat="45.299011" lon="6.843320">
        <ele>2306.834</ele>
        <time>2018-07-19T15:01:33Z</time>
      </trkpt>
      <trkpt lat="45.299015" lon="6.843254">
        <ele>2307.419</ele>
        <time>2018-07-19T15:01:55Z</time>
      </trkpt>
      <trkpt lat="45.299005" lon="6.843191">
        <ele>2308.264</ele>
        <time>2018-07-19T15:02:02Z</time>
      </trkpt>
      <trkpt lat="45.299011" lon="6.843123">
        <ele>2309.139</ele>
        <time>2018-07-19T15:02:09Z</time>
      </trkpt>
      <trkpt lat="45.299043" lon="6.843068">
        <ele>2308.890</ele>
        <time>2018-07-19T15:02:38Z</time>
      </trkpt>
      <trkpt lat="45.299078" lon="6.843020">
        <ele>2309.038</ele>
        <time>2018-07-19T15:02:46Z</time>
      </trkpt>
      <trkpt lat="45.299104" lon="6.842968">
        <ele>2309.527</ele>
        <time>2018-07-19T15:02:53Z</time>
      </trkpt>
      <trkpt lat="45.299123" lon="6.842908">
        <ele>2311.059</ele>
        <time>2018-07-19T15:03:03Z</time>
      </trkpt>
      <trkpt lat="45.299147" lon="6.842845">
        <ele>2311.103</ele>
        <time>2018-07-19T15:03:34Z</time>
      </trkpt>
      <trkpt lat="45.299185" lon="6.842806">
        <ele>2310.823</ele>
        <time>2018-07-19T15:03:39Z</time>
      </trkpt>
      <trkpt lat="45.299212" lon="6.842740">
        <ele>2309.408</ele>
        <time>2018-07-19T15:04:07Z</time>
      </trkpt>
      <trkpt lat="45.299236" lon="6.842676">
        <ele>2308.217</ele>
        <time>2018-07-19T15:04:43Z</time>
      </trkpt>
      <trkpt lat="45.299273" lon="6.842637">
        <ele>2306.332</ele>
        <time>2018-07-19T15:04:46Z</time>
      </trkpt>
      <trkpt lat="45.299293" lon="6.842567">
        <ele>2308.347</ele>
        <time>2018-07-19T15:04:49Z</time>
      </trkpt>
      <trkpt lat="45.299347" lon="6.842463">
        <ele>2308.352</ele>
        <time>2018-07-19T15:05:15Z</time>
      </trkpt>
      <trkpt lat="45.299311" lon="6.842400">
        <ele>2309.997</ele>
        <time>2018-07-19T15:05:22Z</time>
      </trkpt>
      <trkpt lat="45.299297" lon="6.842318">
        <ele>2310.548</ele>
        <time>2018-07-19T15:05:39Z</time>
      </trkpt>
      <trkpt lat="45.299267" lon="6.842248">
        <ele>2313.296</ele>
        <time>2018-07-19T15:05:43Z</time>
      </trkpt>
      <trkpt lat="45.299239" lon="6.842192">
        <ele>2314.485</ele>
        <time>2018-07-19T15:05:53Z</time>
      </trkpt>
      <trkpt lat="45.299221" lon="6.842131">
        <ele>2316.726</ele>
        <time>2018-07-19T15:06:02Z</time>
      </trkpt>
      <trkpt lat="45.299208" lon="6.842060">
        <ele>2317.747</ele>
        <time>2018-07-19T15:06:39Z</time>
      </trkpt>
      <trkpt lat="45.299185" lon="6.842004">
        <ele>2317.511</ele>
        <time>2018-07-19T15:06:48Z</time>
      </trkpt>
      <trkpt lat="45.299206" lon="6.841946">
        <ele>2317.408</ele>
        <time>2018-07-19T15:06:57Z</time>
      </trkpt>
      <trkpt lat="45.299166" lon="6.841908">
        <ele>2316.184</ele>
        <time>2018-07-19T15:07:11Z</time>
      </trkpt>
      <trkpt lat="45.299135" lon="6.841856">
        <ele>2314.539</ele>
        <time>2018-07-19T15:07:21Z</time>
      </trkpt>
      <trkpt lat="45.299115" lon="6.841797">
        <ele>2314.044</ele>
        <time>2018-07-19T15:07:27Z</time>
      </trkpt>
      <trkpt lat="45.299093" lon="6.841737">
        <ele>2311.759</ele>
        <time>2018-07-19T15:07:37Z</time>
      </trkpt>
      <trkpt lat="45.299073" lon="6.841677">
        <ele>2311.954</ele>
        <time>2018-07-19T15:07:54Z</time>
      </trkpt>
      <trkpt lat="45.299075" lon="6.841603">
        <ele>2313.285</ele>
        <time>2018-07-19T15:08:13Z</time>
      </trkpt>
      <trkpt lat="45.299036" lon="6.841549">
        <ele>2315.293</ele>
        <time>2018-07-19T15:08:21Z</time>
      </trkpt>
      <trkpt lat="45.299008" lon="6.841492">
        <ele>2316.082</ele>
        <time>2018-07-19T15:08:31Z</time>
      </trkpt>
      <trkpt lat="45.298993" lon="6.841429">
        <ele>2318.144</ele>
        <time>2018-07-19T15:08:41Z</time>
      </trkpt>
      <trkpt lat="45.299026" lon="6.841375">
        <ele>2318.105</ele>
        <time>2018-07-19T15:08:51Z</time>
      </trkpt>
      <trkpt lat="45.299005" lon="6.841314">
        <ele>2322.115</ele>
        <time>2018-07-19T15:09:12Z</time>
      </trkpt>
      <trkpt lat="45.298972" lon="6.841220">
        <ele>2326.108</ele>
        <time>2018-07-19T15:09:43Z</time>
      </trkpt>
      <trkpt lat="45.299016" lon="6.841248">
        <ele>2330.186</ele>
        <time>2018-07-19T15:10:18Z</time>
      </trkpt>
      <trkpt lat="45.299041" lon="6.841309">
        <ele>2333.321</ele>
        <time>2018-07-19T15:10:30Z</time>
      </trkpt>
      <trkpt lat="45.299083" lon="6.841337">
        <ele>2336.826</ele>
        <time>2018-07-19T15:10:34Z</time>
      </trkpt>
      <trkpt lat="45.299100" lon="6.841399">
        <ele>2340.151</ele>
        <time>2018-07-19T15:11:38Z</time>
      </trkpt>
      <trkpt lat="45.299152" lon="6.841449">
        <ele>2342.526</ele>
        <time>2018-07-19T15:11:42Z</time>
      </trkpt>
      <trkpt lat="45.299219" lon="6.841464">
        <ele>2343.967</ele>
        <time>2018-07-19T15:11:57Z</time>
      </trkpt>
      <trkpt lat="45.299280" lon="6.841512">
        <ele>2346.865</ele>
        <time>2018-07-19T15:12:08Z</time>
      </trkpt>
      <trkpt lat="45.299367" lon="6.841451">
        <ele>2349.794</ele>
        <time>2018-07-19T15:12:57Z</time>
      </trkpt>
      <trkpt lat="45.299396" lon="6.841393">
        <ele>2351.552</ele>
        <time>2018-07-19T15:13:06Z</time>
      </trkpt>
      <trkpt lat="45.299428" lon="6.841335">
        <ele>2353.053</ele>
        <time>2018-07-19T15:13:12Z</time>
      </trkpt>
      <trkpt lat="45.299489" lon="6.841236">
        <ele>2356.308</ele>
        <time>2018-07-19T15:13:45Z</time>
      </trkpt>
      <trkpt lat="45.299537" lon="6.841226">
        <ele>2357.108</ele>
        <time>2018-07-19T15:14:09Z</time>
      </trkpt>
      <trkpt lat="45.299607" lon="6.841164">
        <ele>2357.247</ele>
        <time>2018-07-19T15:14:19Z</time>
      </trkpt>
      <trkpt lat="45.299640" lon="6.841119">
        <ele>2358.812</ele>
        <time>2018-07-19T15:14:26Z</time>
      </trkpt>
      <trkpt lat="45.299689" lon="6.841115">
        <ele>2360.287</ele>
        <time>2018-07-19T15:14:32Z</time>
      </trkpt>
      <trkpt lat="45.299768" lon="6.841093">
        <ele>2361.482</ele>
        <time>2018-07-19T15:14:53Z</time>
      </trkpt>
      <trkpt lat="45.299813" lon="6.841070">
        <ele>2362.537</ele>
        <time>2018-07-19T15:14:59Z</time>
      </trkpt>
      <trkpt lat="45.299859" lon="6.841055">
        <ele>2363.288</ele>
        <time>2018-07-19T15:15:07Z</time>
      </trkpt>
      <trkpt lat="45.299914" lon="6.841045">
        <ele>2364.456</ele>
        <time>2018-07-19T15:15:14Z</time>
      </trkpt>
      <trkpt lat="45.299968" lon="6.841041">
        <ele>2365.935</ele>
        <time>2018-07-19T15:15:20Z</time>
      </trkpt>
      <trkpt lat="45.300020" lon="6.841047">
        <ele>2367.299</ele>
        <time>2018-07-19T15:15:28Z</time>
      </trkpt>
      <trkpt lat="45.300070" lon="6.841059">
        <ele>2368.007</ele>
        <time>2018-07-19T15:15:33Z</time>
      </trkpt>
      <trkpt lat="45.300127" lon="6.841054">
        <ele>2368.127</ele>
        <time>2018-07-19T15:15:37Z</time>
      </trkpt>
      <trkpt lat="45.300172" lon="6.841071">
        <ele>2368.508</ele>
        <time>2018-07-19T15:15:47Z</time>
      </trkpt>
      <trkpt lat="45.300213" lon="6.841099">
        <ele>2368.431</ele>
        <time>2018-07-19T15:15:54Z</time>
      </trkpt>
      <trkpt lat="45.300268" lon="6.841109">
        <ele>2369.576</ele>
        <time>2018-07-19T15:16:01Z</time>
      </trkpt>
      <trkpt lat="45.300313" lon="6.841117">
        <ele>2369.881</ele>
        <time>2018-07-19T15:16:26Z</time>
      </trkpt>
      <trkpt lat="45.300369" lon="6.841121">
        <ele>2371.646</ele>
        <time>2018-07-19T15:16:36Z</time>
      </trkpt>
      <trkpt lat="45.300415" lon="6.841123">
        <ele>2373.551</ele>
        <time>2018-07-19T15:16:42Z</time>
      </trkpt>
      <trkpt lat="45.300468" lon="6.841143">
        <ele>2376.682</ele>
        <time>2018-07-19T15:16:46Z</time>
      </trkpt>
      <trkpt lat="45.300477" lon="6.841209">
        <ele>2378.910</ele>
        <time>2018-07-19T15:17:10Z</time>
      </trkpt>
      <trkpt lat="45.300525" lon="6.841234">
        <ele>2381.199</ele>
        <time>2018-07-19T15:17:13Z</time>
      </trkpt>
      <trkpt lat="45.300564" lon="6.841282">
        <ele>2383.219</ele>
        <time>2018-07-19T15:17:21Z</time>
      </trkpt>
      <trkpt lat="45.300577" lon="6.841348">
        <ele>2384.109</ele>
        <time>2018-07-19T15:17:28Z</time>
      </trkpt>
      <trkpt lat="45.300622" lon="6.841365">
        <ele>2385.019</ele>
        <time>2018-07-19T15:17:32Z</time>
      </trkpt>
      <trkpt lat="45.300669" lon="6.841375">
        <ele>2386.308</ele>
        <time>2018-07-19T15:17:38Z</time>
      </trkpt>
      <trkpt lat="45.300718" lon="6.841389">
        <ele>2385.583</ele>
        <time>2018-07-19T15:17:51Z</time>
      </trkpt>
      <trkpt lat="45.300771" lon="6.841411">
        <ele>2385.068</ele>
        <time>2018-07-19T15:17:58Z</time>
      </trkpt>
      <trkpt lat="45.300789" lon="6.841477">
        <ele>2386.333</ele>
        <time>2018-07-19T15:18:06Z</time>
      </trkpt>
      <trkpt lat="45.300832" lon="6.841518">
        <ele>2387.538</ele>
        <time>2018-07-19T15:18:15Z</time>
      </trkpt>
      <trkpt lat="45.300881" lon="6.841513">
        <ele>2388.293</ele>
        <time>2018-07-19T15:18:22Z</time>
      </trkpt>
      <trkpt lat="45.300929" lon="6.841529">
        <ele>2387.094</ele>
        <time>2018-07-19T15:18:30Z</time>
      </trkpt>
      <trkpt lat="45.300981" lon="6.841560">
        <ele>2387.932</ele>
        <time>2018-07-19T15:19:30Z</time>
      </trkpt>
      <trkpt lat="45.301015" lon="6.841602">
        <ele>2388.431</ele>
        <time>2018-07-19T15:19:36Z</time>
      </trkpt>
      <trkpt lat="45.301062" lon="6.841640">
        <ele>2388.746</ele>
        <time>2018-07-19T15:19:44Z</time>
      </trkpt>
      <trkpt lat="45.301116" lon="6.841651">
        <ele>2389.388</ele>
        <time>2018-07-19T15:19:48Z</time>
      </trkpt>
      <trkpt lat="45.301166" lon="6.841653">
        <ele>2390.516</ele>
        <time>2018-07-19T15:20:02Z</time>
      </trkpt>
      <trkpt lat="45.301211" lon="6.841649">
        <ele>2390.408</ele>
        <time>2018-07-19T15:20:14Z</time>
      </trkpt>
      <trkpt lat="45.301258" lon="6.841650">
        <ele>2389.976</ele>
        <time>2018-07-19T15:20:20Z</time>
      </trkpt>
      <trkpt lat="45.301308" lon="6.841674">
        <ele>2389.271</ele>
        <time>2018-07-19T15:20:29Z</time>
      </trkpt>
      <trkpt lat="45.301356" lon="6.841663">
        <ele>2388.436</ele>
        <time>2018-07-19T15:20:53Z</time>
      </trkpt>
      <trkpt lat="45.301402" lon="6.841658">
        <ele>2387.971</ele>
        <time>2018-07-19T15:21:00Z</time>
      </trkpt>
      <trkpt lat="45.301453" lon="6.841640">
        <ele>2387.276</ele>
        <time>2018-07-19T15:21:06Z</time>
      </trkpt>
      <trkpt lat="45.301494" lon="6.841609">
        <ele>2386.877</ele>
        <time>2018-07-19T15:21:12Z</time>
      </trkpt>
      <trkpt lat="45.301542" lon="6.841602">
        <ele>2386.265</ele>
        <time>2018-07-19T15:21:18Z</time>
      </trkpt>
      <trkpt lat="45.301589" lon="6.841595">
        <ele>2385.414</ele>
        <time>2018-07-19T15:21:50Z</time>
      </trkpt>
      <trkpt lat="45.301632" lon="6.841562">
        <ele>2384.953</ele>
        <time>2018-07-19T15:21:58Z</time>
      </trkpt>
      <trkpt lat="45.301679" lon="6.841542">
        <ele>2384.204</ele>
        <time>2018-07-19T15:22:05Z</time>
      </trkpt>
      <trkpt lat="45.301728" lon="6.841555">
        <ele>2383.414</ele>
        <time>2018-07-19T15:22:11Z</time>
      </trkpt>
      <trkpt lat="45.301787" lon="6.841581">
        <ele>2382.908</ele>
        <time>2018-07-19T15:22:20Z</time>
      </trkpt>
      <trkpt lat="45.301805" lon="6.841645">
        <ele>2380.637</ele>
        <time>2018-07-19T15:22:50Z</time>
      </trkpt>
      <trkpt lat="45.301821" lon="6.841707">
        <ele>2378.482</ele>
        <time>2018-07-19T15:22:57Z</time>
      </trkpt>
      <trkpt lat="45.301870" lon="6.841722">
        <ele>2376.797</ele>
        <time>2018-07-19T15:23:06Z</time>
      </trkpt>
      <trkpt lat="45.301924" lon="6.841713">
        <ele>2376.152</ele>
        <time>2018-07-19T15:23:11Z</time>
      </trkpt>
      <trkpt lat="45.301973" lon="6.841708">
        <ele>2376.117</ele>
        <time>2018-07-19T15:23:15Z</time>
      </trkpt>
      <trkpt lat="45.302022" lon="6.841698">
        <ele>2375.328</ele>
        <time>2018-07-19T15:23:23Z</time>
      </trkpt>
      <trkpt lat="45.302069" lon="6.841713">
        <ele>2375.276</ele>
        <time>2018-07-19T15:23:28Z</time>
      </trkpt>
      <trkpt lat="45.302115" lon="6.841721">
        <ele>2374.845</ele>
        <time>2018-07-19T15:23:33Z</time>
      </trkpt>
      <trkpt lat="45.302168" lon="6.841724">
        <ele>2374.925</ele>
        <time>2018-07-19T15:23:38Z</time>
      </trkpt>
      <trkpt lat="45.302217" lon="6.841750">
        <ele>2375.026</ele>
        <time>2018-07-19T15:23:43Z</time>
      </trkpt>
      <trkpt lat="45.302258" lon="6.841782">
        <ele>2375.008</ele>
        <time>2018-07-19T15:23:48Z</time>
      </trkpt>
      <trkpt lat="45.302310" lon="6.841785">
        <ele>2374.608</ele>
        <time>2018-07-19T15:23:53Z</time>
      </trkpt>
      <trkpt lat="45.302364" lon="6.841785">
        <ele>2374.084</ele>
        <time>2018-07-19T15:24:01Z</time>
      </trkpt>
      <trkpt lat="45.302413" lon="6.841814">
        <ele>2373.259</ele>
        <time>2018-07-19T15:24:06Z</time>
      </trkpt>
      <trkpt lat="45.302456" lon="6.841851">
        <ele>2372.724</ele>
        <time>2018-07-19T15:24:10Z</time>
      </trkpt>
      <trkpt lat="45.302495" lon="6.841908">
        <ele>2372.439</ele>
        <time>2018-07-19T15:24:15Z</time>
      </trkpt>
      <trkpt lat="45.302528" lon="6.841960">
        <ele>2372.614</ele>
        <time>2018-07-19T15:24:19Z</time>
      </trkpt>
      <trkpt lat="45.302567" lon="6.841999">
        <ele>2372.725</ele>
        <time>2018-07-19T15:24:23Z</time>
      </trkpt>
      <trkpt lat="45.302603" lon="6.842039">
        <ele>2372.483</ele>
        <time>2018-07-19T15:24:27Z</time>
      </trkpt>
      <trkpt lat="45.302650" lon="6.842071">
        <ele>2372.632</ele>
        <time>2018-07-19T15:24:32Z</time>
      </trkpt>
      <trkpt lat="45.302698" lon="6.842080">
        <ele>2372.374</ele>
        <time>2018-07-19T15:24:37Z</time>
      </trkpt>
      <trkpt lat="45.302743" lon="6.842097">
        <ele>2372.156</ele>
        <time>2018-07-19T15:24:42Z</time>
      </trkpt>
      <trkpt lat="45.302790" lon="6.842109">
        <ele>2371.621</ele>
        <time>2018-07-19T15:24:47Z</time>
      </trkpt>
      <trkpt lat="45.302839" lon="6.842126">
        <ele>2371.708</ele>
        <time>2018-07-19T15:24:53Z</time>
      </trkpt>
      <trkpt lat="45.302890" lon="6.842139">
        <ele>2371.419</ele>
        <time>2018-07-19T15:24:58Z</time>
      </trkpt>
      <trkpt lat="45.302931" lon="6.842166">
        <ele>2371.274</ele>
        <time>2018-07-19T15:25:03Z</time>
      </trkpt>
      <trkpt lat="45.302974" lon="6.842183">
        <ele>2371.129</ele>
        <time>2018-07-19T15:25:07Z</time>
      </trkpt>
      <trkpt lat="45.303021" lon="6.842193">
        <ele>2371.064</ele>
        <time>2018-07-19T15:25:13Z</time>
      </trkpt>
      <trkpt lat="45.303066" lon="6.842202">
        <ele>2371.089</ele>
        <time>2018-07-19T15:25:18Z</time>
      </trkpt>
      <trkpt lat="45.303113" lon="6.842213">
        <ele>2371.040</ele>
        <time>2018-07-19T15:25:23Z</time>
      </trkpt>
      <trkpt lat="45.303160" lon="6.842222">
        <ele>2371.458</ele>
        <time>2018-07-19T15:25:28Z</time>
      </trkpt>
      <trkpt lat="45.303213" lon="6.842232">
        <ele>2370.867</ele>
        <time>2018-07-19T15:25:34Z</time>
      </trkpt>
      <trkpt lat="45.303260" lon="6.842259">
        <ele>2370.586</ele>
        <time>2018-07-19T15:25:39Z</time>
      </trkpt>
      <trkpt lat="45.303305" lon="6.842268">
        <ele>2369.960</ele>
        <time>2018-07-19T15:25:43Z</time>
      </trkpt>
      <trkpt lat="45.303350" lon="6.842292">
        <ele>2370.326</ele>
        <time>2018-07-19T15:25:48Z</time>
      </trkpt>
      <trkpt lat="45.303401" lon="6.842319">
        <ele>2369.808</ele>
        <time>2018-07-19T15:25:54Z</time>
      </trkpt>
      <trkpt lat="45.303451" lon="6.842338">
        <ele>2369.160</ele>
        <time>2018-07-19T15:26:00Z</time>
      </trkpt>
      <trkpt lat="45.303505" lon="6.842361">
        <ele>2368.745</ele>
        <time>2018-07-19T15:26:06Z</time>
      </trkpt>
      <trkpt lat="45.303555" lon="6.842386">
        <ele>2368.040</ele>
        <time>2018-07-19T15:26:12Z</time>
      </trkpt>
      <trkpt lat="45.303603" lon="6.842409">
        <ele>2367.695</ele>
        <time>2018-07-19T15:26:17Z</time>
      </trkpt>
      <trkpt lat="45.303647" lon="6.842425">
        <ele>2367.410</ele>
        <time>2018-07-19T15:26:21Z</time>
      </trkpt>
      <trkpt lat="45.303693" lon="6.842455">
        <ele>2367.381</ele>
        <time>2018-07-19T15:26:25Z</time>
      </trkpt>
      <trkpt lat="45.303738" lon="6.842497">
        <ele>2367.269</ele>
        <time>2018-07-19T15:26:29Z</time>
      </trkpt>
      <trkpt lat="45.303783" lon="6.842525">
        <ele>2367.588</ele>
        <time>2018-07-19T15:26:32Z</time>
      </trkpt>
      <trkpt lat="45.303806" lon="6.842585">
        <ele>2366.512</ele>
        <time>2018-07-19T15:26:37Z</time>
      </trkpt>
      <trkpt lat="45.303845" lon="6.842643">
        <ele>2366.332</ele>
        <time>2018-07-19T15:26:42Z</time>
      </trkpt>
      <trkpt lat="45.303833" lon="6.842708">
        <ele>2366.605</ele>
        <time>2018-07-19T15:27:07Z</time>
      </trkpt>
      <trkpt lat="45.303882" lon="6.842755">
        <ele>2366.008</ele>
        <time>2018-07-19T15:27:13Z</time>
      </trkpt>
      <trkpt lat="45.303926" lon="6.842795">
        <ele>2365.283</ele>
        <time>2018-07-19T15:27:17Z</time>
      </trkpt>
      <trkpt lat="45.303960" lon="6.842840">
        <ele>2365.138</ele>
        <time>2018-07-19T15:27:21Z</time>
      </trkpt>
      <trkpt lat="45.304003" lon="6.842859">
        <ele>2365.583</ele>
        <time>2018-07-19T15:27:25Z</time>
      </trkpt>
      <trkpt lat="45.304050" lon="6.842891">
        <ele>2365.318</ele>
        <time>2018-07-19T15:27:32Z</time>
      </trkpt>
      <trkpt lat="45.304099" lon="6.842925">
        <ele>2365.613</ele>
        <time>2018-07-19T15:27:36Z</time>
      </trkpt>
      <trkpt lat="45.304144" lon="6.842965">
        <ele>2365.474</ele>
        <time>2018-07-19T15:27:42Z</time>
      </trkpt>
      <trkpt lat="45.304195" lon="6.842997">
        <ele>2366.162</ele>
        <time>2018-07-19T15:27:46Z</time>
      </trkpt>
      <trkpt lat="45.304246" lon="6.843027">
        <ele>2367.351</ele>
        <time>2018-07-19T15:27:51Z</time>
      </trkpt>
      <trkpt lat="45.304289" lon="6.843071">
        <ele>2369.226</ele>
        <time>2018-07-19T15:27:56Z</time>
      </trkpt>
      <trkpt lat="45.304327" lon="6.843119">
        <ele>2370.847</ele>
        <time>2018-07-19T15:28:04Z</time>
      </trkpt>
      <trkpt lat="45.304374" lon="6.843108">
        <ele>2371.311</ele>
        <time>2018-07-19T15:28:10Z</time>
      </trkpt>
      <trkpt lat="45.304420" lon="6.843090">
        <ele>2371.608</ele>
        <time>2018-07-19T15:28:15Z</time>
      </trkpt>
      <trkpt lat="45.304466" lon="6.843106">
        <ele>2372.684</ele>
        <time>2018-07-19T15:28:22Z</time>
      </trkpt>
      <trkpt lat="45.304515" lon="6.843136">
        <ele>2372.869</ele>
        <time>2018-07-19T15:28:30Z</time>
      </trkpt>
      <trkpt lat="45.304564" lon="6.843130">
        <ele>2373.754</ele>
        <time>2018-07-19T15:28:35Z</time>
      </trkpt>
      <trkpt lat="45.304612" lon="6.843135">
        <ele>2373.519</ele>
        <time>2018-07-19T15:28:42Z</time>
      </trkpt>
      <trkpt lat="45.304657" lon="6.843154">
        <ele>2373.844</ele>
        <time>2018-07-19T15:28:48Z</time>
      </trkpt>
      <trkpt lat="45.304712" lon="6.843156">
        <ele>2375.275</ele>
        <time>2018-07-19T15:28:53Z</time>
      </trkpt>
      <trkpt lat="45.304760" lon="6.843172">
        <ele>2375.613</ele>
        <time>2018-07-19T15:29:01Z</time>
      </trkpt>
      <trkpt lat="45.304805" lon="6.843205">
        <ele>2375.842</ele>
        <time>2018-07-19T15:29:08Z</time>
      </trkpt>
      <trkpt lat="45.304845" lon="6.843237">
        <ele>2375.194</ele>
        <time>2018-07-19T15:29:14Z</time>
      </trkpt>
      <trkpt lat="45.304887" lon="6.843270">
        <ele>2374.357</ele>
        <time>2018-07-19T15:29:20Z</time>
      </trkpt>
      <trkpt lat="45.304931" lon="6.843299">
        <ele>2374.222</ele>
        <time>2018-07-19T15:29:27Z</time>
      </trkpt>
      <trkpt lat="45.304981" lon="6.843316">
        <ele>2375.008</ele>
        <time>2018-07-19T15:29:30Z</time>
      </trkpt>
      <trkpt lat="45.305020" lon="6.843350">
        <ele>2375.171</ele>
        <time>2018-07-19T15:29:36Z</time>
      </trkpt>
      <trkpt lat="45.305042" lon="6.843410">
        <ele>2375.996</ele>
        <time>2018-07-19T15:29:45Z</time>
      </trkpt>
      <trkpt lat="45.305063" lon="6.843479">
        <ele>2376.481</ele>
        <time>2018-07-19T15:29:52Z</time>
      </trkpt>
      <trkpt lat="45.305105" lon="6.843511">
        <ele>2377.916</ele>
        <time>2018-07-19T15:29:56Z</time>
      </trkpt>
      <trkpt lat="45.305078" lon="6.843566">
        <ele>2377.631</ele>
        <time>2018-07-19T15:30:14Z</time>
      </trkpt>
      <trkpt lat="45.305055" lon="6.843633">
        <ele>2376.262</ele>
        <time>2018-07-19T15:30:19Z</time>
      </trkpt>
      <trkpt lat="45.305060" lon="6.843706">
        <ele>2375.870</ele>
        <time>2018-07-19T15:30:24Z</time>
      </trkpt>
      <trkpt lat="45.305066" lon="6.843771">
        <ele>2376.379</ele>
        <time>2018-07-19T15:30:28Z</time>
      </trkpt>
      <trkpt lat="45.305107" lon="6.843806">
        <ele>2377.013</ele>
        <time>2018-07-19T15:30:33Z</time>
      </trkpt>
      <trkpt lat="45.305147" lon="6.843859">
        <ele>2377.443</ele>
        <time>2018-07-19T15:30:38Z</time>
      </trkpt>
      <trkpt lat="45.305191" lon="6.843885">
        <ele>2378.107</ele>
        <time>2018-07-19T15:30:44Z</time>
      </trkpt>
      <trkpt lat="45.305229" lon="6.843921">
        <ele>2376.908</ele>
        <time>2018-07-19T15:30:51Z</time>
      </trkpt>
      <trkpt lat="45.305278" lon="6.843904">
        <ele>2377.473</ele>
        <time>2018-07-19T15:30:55Z</time>
      </trkpt>
      <trkpt lat="45.305323" lon="6.843887">
        <ele>2378.548</ele>
        <time>2018-07-19T15:31:01Z</time>
      </trkpt>
      <trkpt lat="45.305373" lon="6.843896">
        <ele>2379.213</ele>
        <time>2018-07-19T15:31:08Z</time>
      </trkpt>
      <trkpt lat="45.305418" lon="6.843904">
        <ele>2379.218</ele>
        <time>2018-07-19T15:31:13Z</time>
      </trkpt>
      <trkpt lat="45.305461" lon="6.843948">
        <ele>2378.873</ele>
        <time>2018-07-19T15:31:19Z</time>
      </trkpt>
      <trkpt lat="45.305507" lon="6.843985">
        <ele>2378.644</ele>
        <time>2018-07-19T15:31:24Z</time>
      </trkpt>
      <trkpt lat="45.305557" lon="6.844002">
        <ele>2379.372</ele>
        <time>2018-07-19T15:31:28Z</time>
      </trkpt>
      <trkpt lat="45.305603" lon="6.844005">
        <ele>2379.361</ele>
        <time>2018-07-19T15:31:34Z</time>
      </trkpt>
      <trkpt lat="45.305651" lon="6.843995">
        <ele>2378.994</ele>
        <time>2018-07-19T15:31:40Z</time>
      </trkpt>
      <trkpt lat="45.305696" lon="6.843986">
        <ele>2378.757</ele>
        <time>2018-07-19T15:31:47Z</time>
      </trkpt>
      <trkpt lat="45.305746" lon="6.843994">
        <ele>2378.622</ele>
        <time>2018-07-19T15:32:36Z</time>
      </trkpt>
      <trkpt lat="45.305795" lon="6.844013">
        <ele>2379.308</ele>
        <time>2018-07-19T15:32:43Z</time>
      </trkpt>
      <trkpt lat="45.305852" lon="6.844056">
        <ele>2379.761</ele>
        <time>2018-07-19T15:32:49Z</time>
      </trkpt>
      <trkpt lat="45.305896" lon="6.844067">
        <ele>2380.456</ele>
        <time>2018-07-19T15:32:52Z</time>
      </trkpt>
      <trkpt lat="45.305947" lon="6.844081">
        <ele>2382.061</ele>
        <time>2018-07-19T15:33:02Z</time>
      </trkpt>
      <trkpt lat="45.305992" lon="6.844099">
        <ele>2384.676</ele>
        <time>2018-07-19T15:33:08Z</time>
      </trkpt>
      <trkpt lat="45.306042" lon="6.844118">
        <ele>2386.151</ele>
        <time>2018-07-19T15:33:14Z</time>
      </trkpt>
      <trkpt lat="45.306089" lon="6.844141">
        <ele>2387.452</ele>
        <time>2018-07-19T15:33:18Z</time>
      </trkpt>
      <trkpt lat="45.306096" lon="6.844208">
        <ele>2387.880</ele>
        <time>2018-07-19T15:33:26Z</time>
      </trkpt>
      <trkpt lat="45.306147" lon="6.844230">
        <ele>2388.849</ele>
        <time>2018-07-19T15:33:30Z</time>
      </trkpt>
      <trkpt lat="45.306208" lon="6.844264">
        <ele>2389.813</ele>
        <time>2018-07-19T15:33:34Z</time>
      </trkpt>
      <trkpt lat="45.306248" lon="6.844303">
        <ele>2390.443</ele>
        <time>2018-07-19T15:33:50Z</time>
      </trkpt>
      <trkpt lat="45.306296" lon="6.844290">
        <ele>2390.007</ele>
        <time>2018-07-19T15:33:55Z</time>
      </trkpt>
      <trkpt lat="45.306348" lon="6.844283">
        <ele>2389.708</ele>
        <time>2018-07-19T15:34:00Z</time>
      </trkpt>
      <trkpt lat="45.306416" lon="6.844317">
        <ele>2388.783</ele>
        <time>2018-07-19T15:34:04Z</time>
      </trkpt>
      <trkpt lat="45.306438" lon="6.844374">
        <ele>2387.328</ele>
        <time>2018-07-19T15:34:09Z</time>
      </trkpt>
      <trkpt lat="45.306452" lon="6.844440">
        <ele>2384.973</ele>
        <time>2018-07-19T15:34:20Z</time>
      </trkpt>
      <trkpt lat="45.306494" lon="6.844469">
        <ele>2383.068</ele>
        <time>2018-07-19T15:34:29Z</time>
      </trkpt>
      <trkpt lat="45.306539" lon="6.844492">
        <ele>2382.323</ele>
        <time>2018-07-19T15:34:35Z</time>
      </trkpt>
      <trkpt lat="45.306587" lon="6.844488">
        <ele>2381.934</ele>
        <time>2018-07-19T15:34:41Z</time>
      </trkpt>
      <trkpt lat="45.306641" lon="6.844482">
        <ele>2381.212</ele>
        <time>2018-07-19T15:34:46Z</time>
      </trkpt>
      <trkpt lat="45.306694" lon="6.844510">
        <ele>2381.661</ele>
        <time>2018-07-19T15:34:51Z</time>
      </trkpt>
      <trkpt lat="45.306744" lon="6.844544">
        <ele>2381.873</ele>
        <time>2018-07-19T15:34:56Z</time>
      </trkpt>
      <trkpt lat="45.306800" lon="6.844543">
        <ele>2382.385</ele>
        <time>2018-07-19T15:35:01Z</time>
      </trkpt>
      <trkpt lat="45.306847" lon="6.844538">
        <ele>2383.013</ele>
        <time>2018-07-19T15:35:05Z</time>
      </trkpt>
      <trkpt lat="45.306900" lon="6.844540">
        <ele>2383.808</ele>
        <time>2018-07-19T15:35:10Z</time>
      </trkpt>
      <trkpt lat="45.306946" lon="6.844557">
        <ele>2384.349</ele>
        <time>2018-07-19T15:35:15Z</time>
      </trkpt>
      <trkpt lat="45.306988" lon="6.844583">
        <ele>2385.094</ele>
        <time>2018-07-19T15:35:20Z</time>
      </trkpt>
      <trkpt lat="45.307033" lon="6.844616">
        <ele>2385.859</ele>
        <time>2018-07-19T15:35:25Z</time>
      </trkpt>
      <trkpt lat="45.307077" lon="6.844658">
        <ele>2386.734</ele>
        <time>2018-07-19T15:35:30Z</time>
      </trkpt>
      <trkpt lat="45.307108" lon="6.844715">
        <ele>2386.489</ele>
        <time>2018-07-19T15:35:37Z</time>
      </trkpt>
      <trkpt lat="45.307150" lon="6.844765">
        <ele>2386.210</ele>
        <time>2018-07-19T15:35:43Z</time>
      </trkpt>
      <trkpt lat="45.307184" lon="6.844819">
        <ele>2386.118</ele>
        <time>2018-07-19T15:35:48Z</time>
      </trkpt>
      <trkpt lat="45.307222" lon="6.844875">
        <ele>2386.447</ele>
        <time>2018-07-19T15:35:53Z</time>
      </trkpt>
      <trkpt lat="45.307274" lon="6.844911">
        <ele>2386.682</ele>
        <time>2018-07-19T15:35:57Z</time>
      </trkpt>
      <trkpt lat="45.307307" lon="6.844965">
        <ele>2387.143</ele>
        <time>2018-07-19T15:36:02Z</time>
      </trkpt>
      <trkpt lat="45.307319" lon="6.845034">
        <ele>2388.217</ele>
        <time>2018-07-19T15:36:08Z</time>
      </trkpt>
      <trkpt lat="45.307360" lon="6.845086">
        <ele>2390.108</ele>
        <time>2018-07-19T15:36:13Z</time>
      </trkpt>
      <trkpt lat="45.307399" lon="6.845128">
        <ele>2390.860</ele>
        <time>2018-07-19T15:36:18Z</time>
      </trkpt>
      <trkpt lat="45.307452" lon="6.845151">
        <ele>2391.275</ele>
        <time>2018-07-19T15:36:23Z</time>
      </trkpt>
      <trkpt lat="45.307496" lon="6.845188">
        <ele>2391.190</ele>
        <time>2018-07-19T15:36:29Z</time>
      </trkpt>
      <trkpt lat="45.307545" lon="6.845227">
        <ele>2391.075</ele>
        <time>2018-07-19T15:36:34Z</time>
      </trkpt>
      <trkpt lat="45.307596" lon="6.845249">
        <ele>2390.990</ele>
        <time>2018-07-19T15:36:39Z</time>
      </trkpt>
      <trkpt lat="45.307638" lon="6.845293">
        <ele>2390.551</ele>
        <time>2018-07-19T15:36:44Z</time>
      </trkpt>
      <trkpt lat="45.307667" lon="6.845352">
        <ele>2389.489</ele>
        <time>2018-07-19T15:36:51Z</time>
      </trkpt>
      <trkpt lat="45.307704" lon="6.845388">
        <ele>2387.628</ele>
        <time>2018-07-19T15:36:56Z</time>
      </trkpt>
      <trkpt lat="45.307745" lon="6.845427">
        <ele>2386.529</ele>
        <time>2018-07-19T15:37:01Z</time>
      </trkpt>
      <trkpt lat="45.307801" lon="6.845433">
        <ele>2386.200</ele>
        <time>2018-07-19T15:37:06Z</time>
      </trkpt>
      <trkpt lat="45.307850" lon="6.845438">
        <ele>2386.020</ele>
        <time>2018-07-19T15:37:10Z</time>
      </trkpt>
      <trkpt lat="45.307896" lon="6.845453">
        <ele>2385.508</ele>
        <time>2018-07-19T15:37:15Z</time>
      </trkpt>
      <trkpt lat="45.307940" lon="6.845476">
        <ele>2384.464</ele>
        <time>2018-07-19T15:37:21Z</time>
      </trkpt>
      <trkpt lat="45.307989" lon="6.845463">
        <ele>2382.989</ele>
        <time>2018-07-19T15:37:28Z</time>
      </trkpt>
      <trkpt lat="45.308031" lon="6.845487">
        <ele>2381.664</ele>
        <time>2018-07-19T15:37:33Z</time>
      </trkpt>
      <trkpt lat="45.308077" lon="6.845509">
        <ele>2380.859</ele>
        <time>2018-07-19T15:37:38Z</time>
      </trkpt>
      <trkpt lat="45.308126" lon="6.845509">
        <ele>2379.514</ele>
        <time>2018-07-19T15:37:44Z</time>
      </trkpt>
      <trkpt lat="45.308180" lon="6.845507">
        <ele>2378.785</ele>
        <time>2018-07-19T15:37:49Z</time>
      </trkpt>
      <trkpt lat="45.308229" lon="6.845502">
        <ele>2377.823</ele>
        <time>2018-07-19T15:37:54Z</time>
      </trkpt>
      <trkpt lat="45.308274" lon="6.845517">
        <ele>2377.762</ele>
        <time>2018-07-19T15:37:58Z</time>
      </trkpt>
      <trkpt lat="45.308319" lon="6.845545">
        <ele>2377.225</ele>
        <time>2018-07-19T15:38:02Z</time>
      </trkpt>
      <trkpt lat="45.308362" lon="6.845571">
        <ele>2377.326</ele>
        <time>2018-07-19T15:38:06Z</time>
      </trkpt>
      <trkpt lat="45.308404" lon="6.845594">
        <ele>2377.808</ele>
        <time>2018-07-19T15:38:10Z</time>
      </trkpt>
      <trkpt lat="45.308443" lon="6.845630">
        <ele>2378.108</ele>
        <time>2018-07-19T15:38:14Z</time>
      </trkpt>
      <trkpt lat="45.308487" lon="6.845665">
        <ele>2377.914</ele>
        <time>2018-07-19T15:38:19Z</time>
      </trkpt>
      <trkpt lat="45.308530" lon="6.845706">
        <ele>2377.069</ele>
        <time>2018-07-19T15:38:25Z</time>
      </trkpt>
      <trkpt lat="45.308579" lon="6.845734">
        <ele>2377.294</ele>
        <time>2018-07-19T15:38:31Z</time>
      </trkpt>
      <trkpt lat="45.308631" lon="6.845736">
        <ele>2377.759</ele>
        <time>2018-07-19T15:38:37Z</time>
      </trkpt>
      <trkpt lat="45.308677" lon="6.845739">
        <ele>2377.224</ele>
        <time>2018-07-19T15:38:59Z</time>
      </trkpt>
      <trkpt lat="45.308727" lon="6.845734">
        <ele>2377.735</ele>
        <time>2018-07-19T15:39:06Z</time>
      </trkpt>
      <trkpt lat="45.308772" lon="6.845753">
        <ele>2378.033</ele>
        <time>2018-07-19T15:39:11Z</time>
      </trkpt>
      <trkpt lat="45.308826" lon="6.845761">
        <ele>2378.692</ele>
        <time>2018-07-19T15:39:16Z</time>
      </trkpt>
      <trkpt lat="45.308872" lon="6.845770">
        <ele>2379.039</ele>
        <time>2018-07-19T15:39:21Z</time>
      </trkpt>
      <trkpt lat="45.308911" lon="6.845808">
        <ele>2379.201</ele>
        <time>2018-07-19T15:39:30Z</time>
      </trkpt>
      <trkpt lat="45.308940" lon="6.845861">
        <ele>2380.121</ele>
        <time>2018-07-19T15:39:37Z</time>
      </trkpt>
      <trkpt lat="45.308988" lon="6.845886">
        <ele>2381.508</ele>
        <time>2018-07-19T15:39:43Z</time>
      </trkpt>
      <trkpt lat="45.309034" lon="6.845886">
        <ele>2383.135</ele>
        <time>2018-07-19T15:40:23Z</time>
      </trkpt>
      <trkpt lat="45.309070" lon="6.845942">
        <ele>2384.140</ele>
        <time>2018-07-19T15:40:30Z</time>
      </trkpt>
      <trkpt lat="45.309118" lon="6.845971">
        <ele>2385.555</ele>
        <time>2018-07-19T15:40:35Z</time>
      </trkpt>
      <trkpt lat="45.309165" lon="6.845994">
        <ele>2387.520</ele>
        <time>2018-07-19T15:40:40Z</time>
      </trkpt>
      <trkpt lat="45.309188" lon="6.846052">
        <ele>2387.945</ele>
        <time>2018-07-19T15:40:47Z</time>
      </trkpt>
      <trkpt lat="45.309242" lon="6.846077">
        <ele>2389.486</ele>
        <time>2018-07-19T15:40:51Z</time>
      </trkpt>
      <trkpt lat="45.309275" lon="6.846131">
        <ele>2389.534</ele>
        <time>2018-07-19T15:41:04Z</time>
      </trkpt>
      <trkpt lat="45.309312" lon="6.846171">
        <ele>2390.373</ele>
        <time>2018-07-19T15:41:10Z</time>
      </trkpt>
      <trkpt lat="45.309368" lon="6.846192">
        <ele>2392.487</ele>
        <time>2018-07-19T15:41:16Z</time>
      </trkpt>
      <trkpt lat="45.309404" lon="6.846247">
        <ele>2392.542</ele>
        <time>2018-07-19T15:42:13Z</time>
      </trkpt>
      <trkpt lat="45.309453" lon="6.846273">
        <ele>2393.326</ele>
        <time>2018-07-19T15:42:17Z</time>
      </trkpt>
      <trkpt lat="45.309497" lon="6.846307">
        <ele>2394.208</ele>
        <time>2018-07-19T15:42:22Z</time>
      </trkpt>
      <trkpt lat="45.309520" lon="6.846371">
        <ele>2394.350</ele>
        <time>2018-07-19T15:42:28Z</time>
      </trkpt>
      <trkpt lat="45.309535" lon="6.846434">
        <ele>2394.855</ele>
        <time>2018-07-19T15:42:36Z</time>
      </trkpt>
      <trkpt lat="45.309577" lon="6.846465">
        <ele>2395.580</ele>
        <time>2018-07-19T15:42:42Z</time>
      </trkpt>
      <trkpt lat="45.309622" lon="6.846511">
        <ele>2396.755</ele>
        <time>2018-07-19T15:42:51Z</time>
      </trkpt>
      <trkpt lat="45.309661" lon="6.846549">
        <ele>2397.070</ele>
        <time>2018-07-19T15:43:01Z</time>
      </trkpt>
      <trkpt lat="45.309709" lon="6.846563">
        <ele>2398.441</ele>
        <time>2018-07-19T15:43:09Z</time>
      </trkpt>
      <trkpt lat="45.309749" lon="6.846604">
        <ele>2399.229</ele>
        <time>2018-07-19T15:43:46Z</time>
      </trkpt>
      <trkpt lat="45.309782" lon="6.846651">
        <ele>2399.338</ele>
        <time>2018-07-19T15:43:52Z</time>
      </trkpt>
      <trkpt lat="45.309832" lon="6.846673">
        <ele>2400.669</ele>
        <time>2018-07-19T15:44:03Z</time>
      </trkpt>
      <trkpt lat="45.309875" lon="6.846695">
        <ele>2401.404</ele>
        <time>2018-07-19T15:44:08Z</time>
      </trkpt>
      <trkpt lat="45.309926" lon="6.846755">
        <ele>2402.324</ele>
        <time>2018-07-19T15:44:26Z</time>
      </trkpt>
      <trkpt lat="45.309973" lon="6.846747">
        <ele>2402.808</ele>
        <time>2018-07-19T15:44:34Z</time>
      </trkpt>
      <trkpt lat="45.310017" lon="6.846770">
        <ele>2403.598</ele>
        <time>2018-07-19T15:44:39Z</time>
      </trkpt>
      <trkpt lat="45.310061" lon="6.846789">
        <ele>2403.153</ele>
        <time>2018-07-19T15:44:49Z</time>
      </trkpt>
      <trkpt lat="45.310109" lon="6.846797">
        <ele>2403.328</ele>
        <time>2018-07-19T15:44:56Z</time>
      </trkpt>
      <trkpt lat="45.310154" lon="6.846829">
        <ele>2403.873</ele>
        <time>2018-07-19T15:45:05Z</time>
      </trkpt>
      <trkpt lat="45.310206" lon="6.846837">
        <ele>2404.998</ele>
        <time>2018-07-19T15:45:10Z</time>
      </trkpt>
      <trkpt lat="45.310253" lon="6.846864">
        <ele>2404.489</ele>
        <time>2018-07-19T15:45:15Z</time>
      </trkpt>
      <trkpt lat="45.310297" lon="6.846890">
        <ele>2404.967</ele>
        <time>2018-07-19T15:45:20Z</time>
      </trkpt>
      <trkpt lat="45.310325" lon="6.846943">
        <ele>2405.666</ele>
        <time>2018-07-19T15:45:27Z</time>
      </trkpt>
      <trkpt lat="45.310363" lon="6.846991">
        <ele>2405.211</ele>
        <time>2018-07-19T15:45:35Z</time>
      </trkpt>
      <trkpt lat="45.310384" lon="6.847050">
        <ele>2406.221</ele>
        <time>2018-07-19T15:45:41Z</time>
      </trkpt>
      <trkpt lat="45.310410" lon="6.847105">
        <ele>2407.603</ele>
        <time>2018-07-19T15:45:46Z</time>
      </trkpt>
      <trkpt lat="45.310418" lon="6.847179">
        <ele>2409.208</ele>
        <time>2018-07-19T15:45:54Z</time>
      </trkpt>
      <trkpt lat="45.310416" lon="6.847250">
        <ele>2410.223</ele>
        <time>2018-07-19T15:46:00Z</time>
      </trkpt>
      <trkpt lat="45.310445" lon="6.847300">
        <ele>2411.218</ele>
        <time>2018-07-19T15:46:05Z</time>
      </trkpt>
      <trkpt lat="45.310473" lon="6.847351">
        <ele>2411.413</ele>
        <time>2018-07-19T15:46:13Z</time>
      </trkpt>
      <trkpt lat="45.310496" lon="6.847407">
        <ele>2413.568</ele>
        <time>2018-07-19T15:46:19Z</time>
      </trkpt>
      <trkpt lat="45.310536" lon="6.847451">
        <ele>2415.673</ele>
        <time>2018-07-19T15:46:23Z</time>
      </trkpt>
      <trkpt lat="45.310575" lon="6.847504">
        <ele>2416.054</ele>
        <time>2018-07-19T15:46:30Z</time>
      </trkpt>
      <trkpt lat="45.310611" lon="6.847548">
        <ele>2416.322</ele>
        <time>2018-07-19T15:46:35Z</time>
      </trkpt>
      <trkpt lat="45.310653" lon="6.847579">
        <ele>2416.551</ele>
        <time>2018-07-19T15:46:39Z</time>
      </trkpt>
      <trkpt lat="45.310640" lon="6.847644">
        <ele>2417.824</ele>
        <time>2018-07-19T15:46:45Z</time>
      </trkpt>
      <trkpt lat="45.310642" lon="6.847711">
        <ele>2418.204</ele>
        <time>2018-07-19T15:47:31Z</time>
      </trkpt>
      <trkpt lat="45.310686" lon="6.847767">
        <ele>2418.814</ele>
        <time>2018-07-19T15:47:36Z</time>
      </trkpt>
      <trkpt lat="45.310713" lon="6.847827">
        <ele>2420.808</ele>
        <time>2018-07-19T15:47:42Z</time>
      </trkpt>
      <trkpt lat="45.310726" lon="6.847906">
        <ele>2422.844</ele>
        <time>2018-07-19T15:47:57Z</time>
      </trkpt>
      <trkpt lat="45.310755" lon="6.847956">
        <ele>2422.859</ele>
        <time>2018-07-19T15:48:17Z</time>
      </trkpt>
      <trkpt lat="45.310793" lon="6.847998">
        <ele>2422.484</ele>
        <time>2018-07-19T15:48:21Z</time>
      </trkpt>
      <trkpt lat="45.310818" lon="6.848051">
        <ele>2422.659</ele>
        <time>2018-07-19T15:48:26Z</time>
      </trkpt>
      <trkpt lat="45.310878" lon="6.848046">
        <ele>2424.754</ele>
        <time>2018-07-19T15:48:33Z</time>
      </trkpt>
      <trkpt lat="45.310874" lon="6.848117">
        <ele>2424.845</ele>
        <time>2018-07-19T15:48:42Z</time>
      </trkpt>
      <trkpt lat="45.310885" lon="6.848181">
        <ele>2425.263</ele>
        <time>2018-07-19T15:48:50Z</time>
      </trkpt>
      <trkpt lat="45.310924" lon="6.848217">
        <ele>2428.792</ele>
        <time>2018-07-19T15:48:58Z</time>
      </trkpt>
      <trkpt lat="45.310964" lon="6.848269">
        <ele>2431.273</ele>
        <time>2018-07-19T15:49:36Z</time>
      </trkpt>
      <trkpt lat="45.310982" lon="6.848330">
        <ele>2431.185</ele>
        <time>2018-07-19T15:49:40Z</time>
      </trkpt>
      <trkpt lat="45.311022" lon="6.848386">
        <ele>2430.613</ele>
        <time>2018-07-19T15:49:43Z</time>
      </trkpt>
      <trkpt lat="45.311061" lon="6.848434">
        <ele>2430.708</ele>
        <time>2018-07-19T15:49:47Z</time>
      </trkpt>
      <trkpt lat="45.311098" lon="6.848482">
        <ele>2430.039</ele>
        <time>2018-07-19T15:49:51Z</time>
      </trkpt>
      <trkpt lat="45.311125" lon="6.848551">
        <ele>2428.834</ele>
        <time>2018-07-19T15:49:55Z</time>
      </trkpt>
      <trkpt lat="45.311153" lon="6.848605">
        <ele>2428.919</ele>
        <time>2018-07-19T15:49:59Z</time>
      </trkpt>
      <trkpt lat="45.311162" lon="6.848681">
        <ele>2426.114</ele>
        <time>2018-07-19T15:50:06Z</time>
      </trkpt>
      <trkpt lat="45.311192" lon="6.848732">
        <ele>2426.449</ele>
        <time>2018-07-19T15:50:10Z</time>
      </trkpt>
      <trkpt lat="45.311229" lon="6.848777">
        <ele>2428.660</ele>
        <time>2018-07-19T15:50:15Z</time>
      </trkpt>
      <trkpt lat="45.311250" lon="6.848843">
        <ele>2429.958</ele>
        <time>2018-07-19T15:50:22Z</time>
      </trkpt>
      <trkpt lat="45.311278" lon="6.848895">
        <ele>2431.127</ele>
        <time>2018-07-19T15:50:28Z</time>
      </trkpt>
      <trkpt lat="45.311325" lon="6.848925">
        <ele>2433.868</ele>
        <time>2018-07-19T15:50:33Z</time>
      </trkpt>
      <trkpt lat="45.311357" lon="6.848975">
        <ele>2434.242</ele>
        <time>2018-07-19T15:50:41Z</time>
      </trkpt>
      <trkpt lat="45.311409" lon="6.849020">
        <ele>2434.926</ele>
        <time>2018-07-19T15:51:12Z</time>
      </trkpt>
      <trkpt lat="45.311440" lon="6.849073">
        <ele>2434.908</ele>
        <time>2018-07-19T15:51:19Z</time>
      </trkpt>
      <trkpt lat="45.311473" lon="6.849124">
        <ele>2436.168</ele>
        <time>2018-07-19T15:51:23Z</time>
      </trkpt>
      <trkpt lat="45.311506" lon="6.849174">
        <ele>2438.463</ele>
        <time>2018-07-19T15:51:28Z</time>
      </trkpt>
      <trkpt lat="45.311538" lon="6.849231">
        <ele>2439.038</ele>
        <time>2018-07-19T15:51:38Z</time>
      </trkpt>
      <trkpt lat="45.311587" lon="6.849256">
        <ele>2439.893</ele>
        <time>2018-07-19T15:51:49Z</time>
      </trkpt>
      <trkpt lat="45.311645" lon="6.849320">
        <ele>2441.338</ele>
        <time>2018-07-19T16:00:55Z</time>
      </trkpt>
      <trkpt lat="45.311674" lon="6.849369">
        <ele>2442.819</ele>
        <time>2018-07-19T16:01:03Z</time>
      </trkpt>
      <trkpt lat="45.311706" lon="6.849417">
        <ele>2443.397</ele>
        <time>2018-07-19T16:01:09Z</time>
      </trkpt>
      <trkpt lat="45.311751" lon="6.849451">
        <ele>2444.826</ele>
        <time>2018-07-19T16:01:17Z</time>
      </trkpt>
      <trkpt lat="45.311779" lon="6.849511">
        <ele>2444.442</ele>
        <time>2018-07-19T16:01:23Z</time>
      </trkpt>
      <trkpt lat="45.311808" lon="6.849573">
        <ele>2445.822</ele>
        <time>2018-07-19T16:01:28Z</time>
      </trkpt>
      <trkpt lat="45.311849" lon="6.849607">
        <ele>2446.314</ele>
        <time>2018-07-19T16:01:34Z</time>
      </trkpt>
      <trkpt lat="45.311893" lon="6.849639">
        <ele>2449.008</ele>
        <time>2018-07-19T16:01:39Z</time>
      </trkpt>
      <trkpt lat="45.311929" lon="6.849677">
        <ele>2451.036</ele>
        <time>2018-07-19T16:01:44Z</time>
      </trkpt>
      <trkpt lat="45.311931" lon="6.849748">
        <ele>2451.421</ele>
        <time>2018-07-19T16:02:04Z</time>
      </trkpt>
      <trkpt lat="45.311961" lon="6.849812">
        <ele>2452.096</ele>
        <time>2018-07-19T16:02:32Z</time>
      </trkpt>
      <trkpt lat="45.311997" lon="6.849857">
        <ele>2452.871</ele>
        <time>2018-07-19T16:02:36Z</time>
      </trkpt>
      <trkpt lat="45.312029" lon="6.849908">
        <ele>2454.126</ele>
        <time>2018-07-19T16:02:44Z</time>
      </trkpt>
      <trkpt lat="45.312066" lon="6.849950">
        <ele>2454.957</ele>
        <time>2018-07-19T16:02:52Z</time>
      </trkpt>
      <trkpt lat="45.312117" lon="6.850012">
        <ele>2455.445</ele>
        <time>2018-07-19T16:03:15Z</time>
      </trkpt>
      <trkpt lat="45.312152" lon="6.850061">
        <ele>2456.184</ele>
        <time>2018-07-19T16:03:19Z</time>
      </trkpt>
      <trkpt lat="45.312187" lon="6.850120">
        <ele>2458.193</ele>
        <time>2018-07-19T16:03:23Z</time>
      </trkpt>
      <trkpt lat="45.312225" lon="6.850161">
        <ele>2458.565</ele>
        <time>2018-07-19T16:03:29Z</time>
      </trkpt>
      <trkpt lat="45.312273" lon="6.850184">
        <ele>2459.521</ele>
        <time>2018-07-19T16:03:36Z</time>
      </trkpt>
      <trkpt lat="45.312317" lon="6.850222">
        <ele>2460.508</ele>
        <time>2018-07-19T16:03:45Z</time>
      </trkpt>
      <trkpt lat="45.312355" lon="6.850264">
        <ele>2460.761</ele>
        <time>2018-07-19T16:03:52Z</time>
      </trkpt>
      <trkpt lat="45.312395" lon="6.850304">
        <ele>2460.426</ele>
        <time>2018-07-19T16:04:00Z</time>
      </trkpt>
      <trkpt lat="45.312436" lon="6.850342">
        <ele>2458.611</ele>
        <time>2018-07-19T16:04:13Z</time>
      </trkpt>
      <trkpt lat="45.312477" lon="6.850380">
        <ele>2457.916</ele>
        <time>2018-07-19T16:04:20Z</time>
      </trkpt>
      <trkpt lat="45.312514" lon="6.850438">
        <ele>2458.381</ele>
        <time>2018-07-19T16:04:28Z</time>
      </trkpt>
      <trkpt lat="45.312553" lon="6.850483">
        <ele>2459.372</ele>
        <time>2018-07-19T16:04:33Z</time>
      </trkpt>
      <trkpt lat="45.312589" lon="6.850525">
        <ele>2459.550</ele>
        <time>2018-07-19T16:04:39Z</time>
      </trkpt>
      <trkpt lat="45.312623" lon="6.850568">
        <ele>2460.019</ele>
        <time>2018-07-19T16:04:45Z</time>
      </trkpt>
      <trkpt lat="45.312622" lon="6.850635">
        <ele>2460.767</ele>
        <time>2018-07-19T16:05:18Z</time>
      </trkpt>
      <trkpt lat="45.312632" lon="6.850699">
        <ele>2462.381</ele>
        <time>2018-07-19T16:05:24Z</time>
      </trkpt>
      <trkpt lat="45.312645" lon="6.850766">
        <ele>2463.719</ele>
        <time>2018-07-19T16:05:30Z</time>
      </trkpt>
      <trkpt lat="45.312657" lon="6.850836">
        <ele>2467.308</ele>
        <time>2018-07-19T16:05:50Z</time>
      </trkpt>
      <trkpt lat="45.312678" lon="6.850899">
        <ele>2467.938</ele>
        <time>2018-07-19T16:05:58Z</time>
      </trkpt>
      <trkpt lat="45.312717" lon="6.850942">
        <ele>2468.663</ele>
        <time>2018-07-19T16:06:05Z</time>
      </trkpt>
      <trkpt lat="45.312744" lon="6.850998">
        <ele>2470.688</ele>
        <time>2018-07-19T16:06:27Z</time>
      </trkpt>
      <trkpt lat="45.312775" lon="6.851048">
        <ele>2472.663</ele>
        <time>2018-07-19T16:06:35Z</time>
      </trkpt>
      <trkpt lat="45.312800" lon="6.851110">
        <ele>2472.278</ele>
        <time>2018-07-19T16:06:42Z</time>
      </trkpt>
      <trkpt lat="45.312833" lon="6.851163">
        <ele>2472.469</ele>
        <time>2018-07-19T16:06:48Z</time>
      </trkpt>
      <trkpt lat="45.312854" lon="6.851224">
        <ele>2472.997</ele>
        <time>2018-07-19T16:06:55Z</time>
      </trkpt>
      <trkpt lat="45.312883" lon="6.851277">
        <ele>2474.466</ele>
        <time>2018-07-19T16:07:00Z</time>
      </trkpt>
      <trkpt lat="45.312900" lon="6.851337">
        <ele>2474.942</ele>
        <time>2018-07-19T16:07:07Z</time>
      </trkpt>
      <trkpt lat="45.312931" lon="6.851397">
        <ele>2474.022</ele>
        <time>2018-07-19T16:07:14Z</time>
      </trkpt>
      <trkpt lat="45.312943" lon="6.851464">
        <ele>2475.114</ele>
        <time>2018-07-19T16:07:21Z</time>
      </trkpt>
      <trkpt lat="45.312944" lon="6.851530">
        <ele>2475.308</ele>
        <time>2018-07-19T16:07:27Z</time>
      </trkpt>
      <trkpt lat="45.312960" lon="6.851593">
        <ele>2474.696</ele>
        <time>2018-07-19T16:07:32Z</time>
      </trkpt>
      <trkpt lat="45.312989" lon="6.851644">
        <ele>2474.211</ele>
        <time>2018-07-19T16:07:38Z</time>
      </trkpt>
      <trkpt lat="45.313026" lon="6.851692">
        <ele>2474.056</ele>
        <time>2018-07-19T16:07:45Z</time>
      </trkpt>
      <trkpt lat="45.313057" lon="6.851750">
        <ele>2472.731</ele>
        <time>2018-07-19T16:07:52Z</time>
      </trkpt>
      <trkpt lat="45.313091" lon="6.851794">
        <ele>2471.576</ele>
        <time>2018-07-19T16:07:59Z</time>
      </trkpt>
      <trkpt lat="45.313112" lon="6.851854">
        <ele>2470.427</ele>
        <time>2018-07-19T16:08:05Z</time>
      </trkpt>
      <trkpt lat="45.313138" lon="6.851909">
        <ele>2471.745</ele>
        <time>2018-07-19T16:08:09Z</time>
      </trkpt>
      <trkpt lat="45.313154" lon="6.851979">
        <ele>2472.584</ele>
        <time>2018-07-19T16:08:15Z</time>
      </trkpt>
      <trkpt lat="45.313177" lon="6.852055">
        <ele>2474.653</ele>
        <time>2018-07-19T16:08:22Z</time>
      </trkpt>
      <trkpt lat="45.313215" lon="6.852096">
        <ele>2476.604</ele>
        <time>2018-07-19T16:08:29Z</time>
      </trkpt>
      <trkpt lat="45.313249" lon="6.852151">
        <ele>2479.414</ele>
        <time>2018-07-19T16:08:36Z</time>
      </trkpt>
      <trkpt lat="45.313293" lon="6.852190">
        <ele>2480.708</ele>
        <time>2018-07-19T16:09:19Z</time>
      </trkpt>
      <trkpt lat="45.313321" lon="6.852240">
        <ele>2482.727</ele>
        <time>2018-07-19T16:09:25Z</time>
      </trkpt>
      <trkpt lat="45.313353" lon="6.852293">
        <ele>2483.542</ele>
        <time>2018-07-19T16:09:35Z</time>
      </trkpt>
      <trkpt lat="45.313380" lon="6.852347">
        <ele>2484.427</ele>
        <time>2018-07-19T16:09:45Z</time>
      </trkpt>
      <trkpt lat="45.313409" lon="6.852405">
        <ele>2484.142</ele>
        <time>2018-07-19T16:09:55Z</time>
      </trkpt>
      <trkpt lat="45.313452" lon="6.852438">
        <ele>2484.717</ele>
        <time>2018-07-19T16:10:01Z</time>
      </trkpt>
      <trkpt lat="45.313486" lon="6.852486">
        <ele>2485.588</ele>
        <time>2018-07-19T16:10:15Z</time>
      </trkpt>
      <trkpt lat="45.313495" lon="6.852560">
        <ele>2488.486</ele>
        <time>2018-07-19T16:10:54Z</time>
      </trkpt>
      <trkpt lat="45.313492" lon="6.852633">
        <ele>2489.735</ele>
        <time>2018-07-19T16:10:59Z</time>
      </trkpt>
      <trkpt lat="45.313502" lon="6.852711">
        <ele>2490.184</ele>
        <time>2018-07-19T16:11:05Z</time>
      </trkpt>
      <trkpt lat="45.313517" lon="6.852783">
        <ele>2491.107</ele>
        <time>2018-07-19T16:11:10Z</time>
      </trkpt>
      <trkpt lat="45.313537" lon="6.852845">
        <ele>2494.117</ele>
        <time>2018-07-19T16:11:14Z</time>
      </trkpt>
      <trkpt lat="45.313528" lon="6.852909">
        <ele>2494.708</ele>
        <time>2018-07-19T16:11:28Z</time>
      </trkpt>
      <trkpt lat="45.313546" lon="6.852974">
        <ele>2497.150</ele>
        <time>2018-07-19T16:11:39Z</time>
      </trkpt>
      <trkpt lat="45.313552" lon="6.853038">
        <ele>2499.345</ele>
        <time>2018-07-19T16:11:46Z</time>
      </trkpt>
      <trkpt lat="45.313561" lon="6.853103">
        <ele>2499.430</ele>
        <time>2018-07-19T16:11:54Z</time>
      </trkpt>
      <trkpt lat="45.313558" lon="6.853171">
        <ele>2498.375</ele>
        <time>2018-07-19T16:12:03Z</time>
      </trkpt>
      <trkpt lat="45.313535" lon="6.853237">
        <ele>2497.650</ele>
        <time>2018-07-19T16:12:10Z</time>
      </trkpt>
      <trkpt lat="45.313500" lon="6.853316">
        <ele>2498.871</ele>
        <time>2018-07-19T16:12:49Z</time>
      </trkpt>
      <trkpt lat="45.313490" lon="6.853381">
        <ele>2500.769</ele>
        <time>2018-07-19T16:13:02Z</time>
      </trkpt>
      <trkpt lat="45.313482" lon="6.853452">
        <ele>2501.168</ele>
        <time>2018-07-19T16:13:06Z</time>
      </trkpt>
      <trkpt lat="45.313478" lon="6.853516">
        <ele>2501.394</ele>
        <time>2018-07-19T16:13:13Z</time>
      </trkpt>
      <trkpt lat="45.313467" lon="6.853582">
        <ele>2504.257</ele>
        <time>2018-07-19T16:13:18Z</time>
      </trkpt>
      <trkpt lat="45.313453" lon="6.853651">
        <ele>2506.022</ele>
        <time>2018-07-19T16:13:26Z</time>
      </trkpt>
      <trkpt lat="45.313457" lon="6.853719">
        <ele>2506.708</ele>
        <time>2018-07-19T16:13:32Z</time>
      </trkpt>
      <trkpt lat="45.313470" lon="6.853783">
        <ele>2507.121</ele>
        <time>2018-07-19T16:13:38Z</time>
      </trkpt>
      <trkpt lat="45.313514" lon="6.853823">
        <ele>2508.586</ele>
        <time>2018-07-19T16:13:50Z</time>
      </trkpt>
      <trkpt lat="45.313547" lon="6.853868">
        <ele>2509.451</ele>
        <time>2018-07-19T16:14:21Z</time>
      </trkpt>
      <trkpt lat="45.313582" lon="6.853924">
        <ele>2510.786</ele>
        <time>2018-07-19T16:14:38Z</time>
      </trkpt>
      <trkpt lat="45.313609" lon="6.853988">
        <ele>2511.981</ele>
        <time>2018-07-19T16:14:48Z</time>
      </trkpt>
      <trkpt lat="45.313613" lon="6.854052">
        <ele>2513.052</ele>
        <time>2018-07-19T16:14:57Z</time>
      </trkpt>
      <trkpt lat="45.313644" lon="6.854113">
        <ele>2516.180</ele>
        <time>2018-07-19T16:15:20Z</time>
      </trkpt>
      <trkpt lat="45.313653" lon="6.854186">
        <ele>2517.599</ele>
        <time>2018-07-19T16:15:26Z</time>
      </trkpt>
      <trkpt lat="45.313674" lon="6.854248">
        <ele>2517.212</ele>
        <time>2018-07-19T16:15:32Z</time>
      </trkpt>
      <trkpt lat="45.313690" lon="6.854323">
        <ele>2517.832</ele>
        <time>2018-07-19T16:15:38Z</time>
      </trkpt>
      <trkpt lat="45.313691" lon="6.854390">
        <ele>2518.605</ele>
        <time>2018-07-19T16:15:43Z</time>
      </trkpt>
      <trkpt lat="45.313732" lon="6.854450">
        <ele>2518.708</ele>
        <time>2018-07-19T16:15:50Z</time>
      </trkpt>
      <trkpt lat="45.313779" lon="6.854469">
        <ele>2519.153</ele>
        <time>2018-07-19T16:16:00Z</time>
      </trkpt>
      <trkpt lat="45.313825" lon="6.854449">
        <ele>2519.028</ele>
        <time>2018-07-19T16:16:13Z</time>
      </trkpt>
      <trkpt lat="45.313875" lon="6.854435">
        <ele>2519.773</ele>
        <time>2018-07-19T16:16:22Z</time>
      </trkpt>
      <trkpt lat="45.313920" lon="6.854439">
        <ele>2520.538</ele>
        <time>2018-07-19T16:16:40Z</time>
      </trkpt>
      <trkpt lat="45.313964" lon="6.854407">
        <ele>2521.473</ele>
        <time>2018-07-19T16:16:47Z</time>
      </trkpt>
      <trkpt lat="45.314010" lon="6.854387">
        <ele>2521.954</ele>
        <time>2018-07-19T16:16:53Z</time>
      </trkpt>
      <trkpt lat="45.314061" lon="6.854376">
        <ele>2522.252</ele>
        <time>2018-07-19T16:17:01Z</time>
      </trkpt>
      <trkpt lat="45.314110" lon="6.854358">
        <ele>2523.651</ele>
        <time>2018-07-19T16:17:14Z</time>
      </trkpt>
      <trkpt lat="45.314154" lon="6.854382">
        <ele>2524.826</ele>
        <time>2018-07-19T16:17:26Z</time>
      </trkpt>
      <trkpt lat="45.314204" lon="6.854393">
        <ele>2524.747</ele>
        <time>2018-07-19T16:17:46Z</time>
      </trkpt>
      <trkpt lat="45.314250" lon="6.854427">
        <ele>2525.111</ele>
        <time>2018-07-19T16:17:55Z</time>
      </trkpt>
      <trkpt lat="45.314294" lon="6.854452">
        <ele>2525.708</ele>
        <time>2018-07-19T16:18:00Z</time>
      </trkpt>
      <trkpt lat="45.314347" lon="6.854470">
        <ele>2525.794</ele>
        <time>2018-07-19T16:18:05Z</time>
      </trkpt>
      <trkpt lat="45.314392" lon="6.854502">
        <ele>2526.579</ele>
        <time>2018-07-19T16:18:11Z</time>
      </trkpt>
      <trkpt lat="45.314432" lon="6.854551">
        <ele>2525.414</ele>
        <time>2018-07-19T16:18:18Z</time>
      </trkpt>
      <trkpt lat="45.314467" lon="6.854592">
        <ele>2525.559</ele>
        <time>2018-07-19T16:18:23Z</time>
      </trkpt>
      <trkpt lat="45.314514" lon="6.854616">
        <ele>2525.614</ele>
        <time>2018-07-19T16:18:28Z</time>
      </trkpt>
      <trkpt lat="45.314558" lon="6.854635">
        <ele>2525.275</ele>
        <time>2018-07-19T16:18:33Z</time>
      </trkpt>
      <trkpt lat="45.314602" lon="6.854663">
        <ele>2525.023</ele>
        <time>2018-07-19T16:18:39Z</time>
      </trkpt>
      <trkpt lat="45.314651" lon="6.854683">
        <ele>2524.972</ele>
        <time>2018-07-19T16:18:44Z</time>
      </trkpt>
      <trkpt lat="45.314699" lon="6.854719">
        <ele>2525.232</ele>
        <time>2018-07-19T16:18:49Z</time>
      </trkpt>
      <trkpt lat="45.314739" lon="6.854762">
        <ele>2525.492</ele>
        <time>2018-07-19T16:18:54Z</time>
      </trkpt>
      <trkpt lat="45.314761" lon="6.854820">
        <ele>2525.111</ele>
        <time>2018-07-19T16:18:59Z</time>
      </trkpt>
      <trkpt lat="45.314799" lon="6.854872">
        <ele>2525.708</ele>
        <time>2018-07-19T16:19:06Z</time>
      </trkpt>
      <trkpt lat="45.314840" lon="6.854911">
        <ele>2525.755</ele>
        <time>2018-07-19T16:19:12Z</time>
      </trkpt>
      <trkpt lat="45.314889" lon="6.854885">
        <ele>2526.170</ele>
        <time>2018-07-19T16:19:20Z</time>
      </trkpt>
      <trkpt lat="45.314934" lon="6.854853">
        <ele>2525.935</ele>
        <time>2018-07-19T16:19:25Z</time>
      </trkpt>
      <trkpt lat="45.314979" lon="6.854840">
        <ele>2525.890</ele>
        <time>2018-07-19T16:19:29Z</time>
      </trkpt>
      <trkpt lat="45.315027" lon="6.854838">
        <ele>2525.365</ele>
        <time>2018-07-19T16:19:34Z</time>
      </trkpt>
      <trkpt lat="45.315075" lon="6.854842">
        <ele>2525.056</ele>
        <time>2018-07-19T16:19:39Z</time>
      </trkpt>
      <trkpt lat="45.315128" lon="6.854862">
        <ele>2525.234</ele>
        <time>2018-07-19T16:19:44Z</time>
      </trkpt>
      <trkpt lat="45.315187" lon="6.854877">
        <ele>2526.143</ele>
        <time>2018-07-19T16:19:48Z</time>
      </trkpt>
      <trkpt lat="45.315231" lon="6.854893">
        <ele>2527.151</ele>
        <time>2018-07-19T16:19:57Z</time>
      </trkpt>
      <trkpt lat="45.315277" lon="6.854901">
        <ele>2527.301</ele>
        <time>2018-07-19T16:20:18Z</time>
      </trkpt>
      <trkpt lat="45.315335" lon="6.854874">
        <ele>2526.611</ele>
        <time>2018-07-19T16:20:29Z</time>
      </trkpt>
      <trkpt lat="45.315374" lon="6.854915">
        <ele>2525.808</ele>
        <time>2018-07-19T16:20:34Z</time>
      </trkpt>
      <trkpt lat="45.315418" lon="6.854935">
        <ele>2524.957</ele>
        <time>2018-07-19T16:20:38Z</time>
      </trkpt>
      <trkpt lat="45.315466" lon="6.854907">
        <ele>2524.012</ele>
        <time>2018-07-19T16:20:43Z</time>
      </trkpt>
      <trkpt lat="45.315506" lon="6.854851">
        <ele>2523.887</ele>
        <time>2018-07-19T16:20:48Z</time>
      </trkpt>
      <trkpt lat="45.315543" lon="6.854801">
        <ele>2524.182</ele>
        <time>2018-07-19T16:20:52Z</time>
      </trkpt>
      <trkpt lat="45.315587" lon="6.854774">
        <ele>2523.927</ele>
        <time>2018-07-19T16:20:56Z</time>
      </trkpt>
      <trkpt lat="45.315634" lon="6.854762">
        <ele>2524.258</ele>
        <time>2018-07-19T16:21:00Z</time>
      </trkpt>
      <trkpt lat="45.315688" lon="6.854780">
        <ele>2523.616</ele>
        <time>2018-07-19T16:21:06Z</time>
      </trkpt>
      <trkpt lat="45.315744" lon="6.854778">
        <ele>2523.265</ele>
        <time>2018-07-19T16:21:11Z</time>
      </trkpt>
      <trkpt lat="45.315800" lon="6.854750">
        <ele>2523.832</ele>
        <time>2018-07-19T16:21:15Z</time>
      </trkpt>
      <trkpt lat="45.315861" lon="6.854742">
        <ele>2524.192</ele>
        <time>2018-07-19T16:21:33Z</time>
      </trkpt>
      <trkpt lat="45.315918" lon="6.854751">
        <ele>2522.711</ele>
        <time>2018-07-19T16:21:37Z</time>
      </trkpt>
      <trkpt lat="45.315974" lon="6.854752">
        <ele>2521.108</ele>
        <time>2018-07-19T16:21:40Z</time>
      </trkpt>
      <trkpt lat="45.316027" lon="6.854737">
        <ele>2520.175</ele>
        <time>2018-07-19T16:21:44Z</time>
      </trkpt>
      <trkpt lat="45.316073" lon="6.854722">
        <ele>2520.350</ele>
        <time>2018-07-19T16:21:47Z</time>
      </trkpt>
      <trkpt lat="45.316118" lon="6.854706">
        <ele>2520.025</ele>
        <time>2018-07-19T16:21:51Z</time>
      </trkpt>
      <trkpt lat="45.316172" lon="6.854689">
        <ele>2520.690</ele>
        <time>2018-07-19T16:21:56Z</time>
      </trkpt>
      <trkpt lat="45.316226" lon="6.854668">
        <ele>2520.685</ele>
        <time>2018-07-19T16:22:00Z</time>
      </trkpt>
      <trkpt lat="45.316280" lon="6.854657">
        <ele>2520.246</ele>
        <time>2018-07-19T16:22:05Z</time>
      </trkpt>
      <trkpt lat="45.316325" lon="6.854645">
        <ele>2520.044</ele>
        <time>2018-07-19T16:22:09Z</time>
      </trkpt>
      <trkpt lat="45.316371" lon="6.854629">
        <ele>2519.963</ele>
        <time>2018-07-19T16:22:13Z</time>
      </trkpt>
      <trkpt lat="45.316418" lon="6.854617">
        <ele>2519.471</ele>
        <time>2018-07-19T16:22:17Z</time>
      </trkpt>
      <trkpt lat="45.316472" lon="6.854602">
        <ele>2519.141</ele>
        <time>2018-07-19T16:22:22Z</time>
      </trkpt>
      <trkpt lat="45.316518" lon="6.854577">
        <ele>2518.915</ele>
        <time>2018-07-19T16:22:26Z</time>
      </trkpt>
      <trkpt lat="45.316567" lon="6.854533">
        <ele>2519.208</ele>
        <time>2018-07-19T16:22:30Z</time>
      </trkpt>
      <trkpt lat="45.316602" lon="6.854475">
        <ele>2519.029</ele>
        <time>2018-07-19T16:22:34Z</time>
      </trkpt>
      <trkpt lat="45.316634" lon="6.854412">
        <ele>2518.944</ele>
        <time>2018-07-19T16:22:38Z</time>
      </trkpt>
      <trkpt lat="45.316667" lon="6.854360">
        <ele>2518.499</ele>
        <time>2018-07-19T16:22:42Z</time>
      </trkpt>
      <trkpt lat="45.316700" lon="6.854309">
        <ele>2518.174</ele>
        <time>2018-07-19T16:22:46Z</time>
      </trkpt>
      <trkpt lat="45.316736" lon="6.854266">
        <ele>2517.599</ele>
        <time>2018-07-19T16:22:50Z</time>
      </trkpt>
      <trkpt lat="45.316777" lon="6.854226">
        <ele>2516.440</ele>
        <time>2018-07-19T16:22:54Z</time>
      </trkpt>
      <trkpt lat="45.316821" lon="6.854193">
        <ele>2516.118</ele>
        <time>2018-07-19T16:22:58Z</time>
      </trkpt>
      <trkpt lat="45.316866" lon="6.854164">
        <ele>2516.357</ele>
        <time>2018-07-19T16:23:02Z</time>
      </trkpt>
      <trkpt lat="45.316918" lon="6.854144">
        <ele>2516.026</ele>
        <time>2018-07-19T16:23:07Z</time>
      </trkpt>
      <trkpt lat="45.316961" lon="6.854120">
        <ele>2515.447</ele>
        <time>2018-07-19T16:23:11Z</time>
      </trkpt>
      <trkpt lat="45.317014" lon="6.854099">
        <ele>2515.111</ele>
        <time>2018-07-19T16:23:16Z</time>
      </trkpt>
      <trkpt lat="45.317060" lon="6.854086">
        <ele>2514.908</ele>
        <time>2018-07-19T16:23:20Z</time>
      </trkpt>
      <trkpt lat="45.317113" lon="6.854086">
        <ele>2514.864</ele>
        <time>2018-07-19T16:23:24Z</time>
      </trkpt>
      <trkpt lat="45.317167" lon="6.854081">
        <ele>2515.169</ele>
        <time>2018-07-19T16:23:28Z</time>
      </trkpt>
      <trkpt lat="45.317218" lon="6.854073">
        <ele>2514.914</ele>
        <time>2018-07-19T16:23:32Z</time>
      </trkpt>
      <trkpt lat="45.317265" lon="6.854065">
        <ele>2514.869</ele>
        <time>2018-07-19T16:23:36Z</time>
      </trkpt>
      <trkpt lat="45.317318" lon="6.854073">
        <ele>2515.184</ele>
        <time>2018-07-19T16:23:41Z</time>
      </trkpt>
      <trkpt lat="45.317367" lon="6.854071">
        <ele>2515.345</ele>
        <time>2018-07-19T16:23:45Z</time>
      </trkpt>
      <trkpt lat="45.317415" lon="6.854074">
        <ele>2514.623</ele>
        <time>2018-07-19T16:23:49Z</time>
      </trkpt>
      <trkpt lat="45.317465" lon="6.854101">
        <ele>2513.822</ele>
        <time>2018-07-19T16:23:54Z</time>
      </trkpt>
      <trkpt lat="45.317511" lon="6.854132">
        <ele>2514.511</ele>
        <time>2018-07-19T16:23:59Z</time>
      </trkpt>
      <trkpt lat="45.317552" lon="6.854168">
        <ele>2514.921</ele>
        <time>2018-07-19T16:24:06Z</time>
      </trkpt>
      <trkpt lat="45.317594" lon="6.854215">
        <ele>2515.603</ele>
        <time>2018-07-19T16:24:11Z</time>
      </trkpt>
      <trkpt lat="45.317630" lon="6.854255">
        <ele>2516.008</ele>
        <time>2018-07-19T16:24:16Z</time>
      </trkpt>
      <trkpt lat="45.317655" lon="6.854318">
        <ele>2517.473</ele>
        <time>2018-07-19T16:24:25Z</time>
      </trkpt>
      <trkpt lat="45.317667" lon="6.854383">
        <ele>2519.168</ele>
        <time>2018-07-19T16:24:36Z</time>
      </trkpt>
      <trkpt lat="45.317704" lon="6.854433">
        <ele>2520.523</ele>
        <time>2018-07-19T16:24:47Z</time>
      </trkpt>
      <trkpt lat="45.317751" lon="6.854469">
        <ele>2523.328</ele>
        <time>2018-07-19T16:24:53Z</time>
      </trkpt>
      <trkpt lat="45.317794" lon="6.854500">
        <ele>2524.253</ele>
        <time>2018-07-19T16:25:03Z</time>
      </trkpt>
      <trkpt lat="45.317838" lon="6.854475">
        <ele>2524.324</ele>
        <time>2018-07-19T16:25:08Z</time>
      </trkpt>
      <trkpt lat="45.317877" lon="6.854443">
        <ele>2523.642</ele>
        <time>2018-07-19T16:25:13Z</time>
      </trkpt>
      <trkpt lat="45.317920" lon="6.854402">
        <ele>2522.831</ele>
        <time>2018-07-19T16:25:19Z</time>
      </trkpt>
      <trkpt lat="45.317961" lon="6.854368">
        <ele>2522.351</ele>
        <time>2018-07-19T16:25:24Z</time>
      </trkpt>
      <trkpt lat="45.318003" lon="6.854330">
        <ele>2521.201</ele>
        <time>2018-07-19T16:25:29Z</time>
      </trkpt>
      <trkpt lat="45.318043" lon="6.854273">
        <ele>2520.511</ele>
        <time>2018-07-19T16:25:34Z</time>
      </trkpt>
      <trkpt lat="45.318075" lon="6.854216">
        <ele>2519.708</ele>
        <time>2018-07-19T16:25:39Z</time>
      </trkpt>
      <trkpt lat="45.318111" lon="6.854159">
        <ele>2518.487</ele>
        <time>2018-07-19T16:25:44Z</time>
      </trkpt>
      <trkpt lat="45.318144" lon="6.854114">
        <ele>2518.082</ele>
        <time>2018-07-19T16:25:48Z</time>
      </trkpt>
      <trkpt lat="45.318177" lon="6.854056">
        <ele>2518.297</ele>
        <time>2018-07-19T16:25:52Z</time>
      </trkpt>
      <trkpt lat="45.318216" lon="6.854006">
        <ele>2517.592</ele>
        <time>2018-07-19T16:25:57Z</time>
      </trkpt>
      <trkpt lat="45.318260" lon="6.853955">
        <ele>2516.777</ele>
        <time>2018-07-19T16:26:02Z</time>
      </trkpt>
      <trkpt lat="45.318305" lon="6.853910">
        <ele>2516.268</ele>
        <time>2018-07-19T16:26:07Z</time>
      </trkpt>
      <trkpt lat="45.318338" lon="6.853857">
        <ele>2515.126</ele>
        <time>2018-07-19T16:26:17Z</time>
      </trkpt>
      <trkpt lat="45.318377" lon="6.853817">
        <ele>2514.025</ele>
        <time>2018-07-19T16:26:23Z</time>
      </trkpt>
      <trkpt lat="45.318424" lon="6.853805">
        <ele>2514.293</ele>
        <time>2018-07-19T16:26:29Z</time>
      </trkpt>
      <trkpt lat="45.318472" lon="6.853791">
        <ele>2514.765</ele>
        <time>2018-07-19T16:26:34Z</time>
      </trkpt>
      <trkpt lat="45.318515" lon="6.853765">
        <ele>2515.421</ele>
        <time>2018-07-19T16:26:40Z</time>
      </trkpt>
      <trkpt lat="45.318582" lon="6.853740">
        <ele>2516.208</ele>
        <time>2018-07-19T16:26:52Z</time>
      </trkpt>
      <trkpt lat="45.318627" lon="6.853708">
        <ele>2516.751</ele>
        <time>2018-07-19T16:26:58Z</time>
      </trkpt>
      <trkpt lat="45.318672" lon="6.853688">
        <ele>2516.656</ele>
        <time>2018-07-19T16:27:03Z</time>
      </trkpt>
      <trkpt lat="45.318717" lon="6.853671">
        <ele>2516.531</ele>
        <time>2018-07-19T16:27:10Z</time>
      </trkpt>
      <trkpt lat="45.318768" lon="6.853677">
        <ele>2516.966</ele>
        <time>2018-07-19T16:27:15Z</time>
      </trkpt>
      <trkpt lat="45.318819" lon="6.853689">
        <ele>2518.351</ele>
        <time>2018-07-19T16:27:19Z</time>
      </trkpt>
      <trkpt lat="45.318863" lon="6.853701">
        <ele>2519.692</ele>
        <time>2018-07-19T16:27:23Z</time>
      </trkpt>
      <trkpt lat="45.318911" lon="6.853731">
        <ele>2520.420</ele>
        <time>2018-07-19T16:27:29Z</time>
      </trkpt>
      <trkpt lat="45.318955" lon="6.853743">
        <ele>2521.319</ele>
        <time>2018-07-19T16:27:33Z</time>
      </trkpt>
      <trkpt lat="45.319000" lon="6.853768">
        <ele>2521.893</ele>
        <time>2018-07-19T16:27:38Z</time>
      </trkpt>
      <trkpt lat="45.319048" lon="6.853791">
        <ele>2522.965</ele>
        <time>2018-07-19T16:27:44Z</time>
      </trkpt>
      <trkpt lat="45.319097" lon="6.853817">
        <ele>2523.621</ele>
        <time>2018-07-19T16:27:50Z</time>
      </trkpt>
      <trkpt lat="45.319143" lon="6.853831">
        <ele>2524.008</ele>
        <time>2018-07-19T16:27:54Z</time>
      </trkpt>
      <trkpt lat="45.319190" lon="6.853844">
        <ele>2524.641</ele>
        <time>2018-07-19T16:27:59Z</time>
      </trkpt>
      <trkpt lat="45.319236" lon="6.853860">
        <ele>2525.026</ele>
        <time>2018-07-19T16:28:04Z</time>
      </trkpt>
      <trkpt lat="45.319282" lon="6.853874">
        <ele>2525.221</ele>
        <time>2018-07-19T16:28:08Z</time>
      </trkpt>
      <trkpt lat="45.319331" lon="6.853885">
        <ele>2525.756</ele>
        <time>2018-07-19T16:28:13Z</time>
      </trkpt>
      <trkpt lat="45.319380" lon="6.853900">
        <ele>2526.011</ele>
        <time>2018-07-19T16:28:19Z</time>
      </trkpt>
      <trkpt lat="45.319425" lon="6.853936">
        <ele>2527.062</ele>
        <time>2018-07-19T16:28:25Z</time>
      </trkpt>
      <trkpt lat="45.319459" lon="6.853984">
        <ele>2527.630</ele>
        <time>2018-07-19T16:28:31Z</time>
      </trkpt>
      <trkpt lat="45.319457" lon="6.854010">
        <ele>2533.739</ele>
        <time>2018-07-19T16:51:51Z</time>
      </trkpt>
      <trkpt lat="45.319505" lon="6.853994">
        <ele>2535.191</ele>
        <time>2018-07-19T16:52:00Z</time>
      </trkpt>
      <trkpt lat="45.319551" lon="6.853966">
        <ele>2534.581</ele>
        <time>2018-07-19T16:52:06Z</time>
      </trkpt>
      <trkpt lat="45.319593" lon="6.853999">
        <ele>2533.719</ele>
        <time>2018-07-19T16:52:14Z</time>
      </trkpt>
      <trkpt lat="45.319641" lon="6.854002">
        <ele>2534.608</ele>
        <time>2018-07-19T16:52:21Z</time>
      </trkpt>
      <trkpt lat="45.319690" lon="6.853998">
        <ele>2534.711</ele>
        <time>2018-07-19T16:52:33Z</time>
      </trkpt>
      <trkpt lat="45.319741" lon="6.854019">
        <ele>2535.626</ele>
        <time>2018-07-19T16:52:44Z</time>
      </trkpt>
      <trkpt lat="45.319789" lon="6.854022">
        <ele>2536.111</ele>
        <time>2018-07-19T16:52:52Z</time>
      </trkpt>
      <trkpt lat="45.319830" lon="6.854061">
        <ele>2535.686</ele>
        <time>2018-07-19T16:52:55Z</time>
      </trkpt>
      <trkpt lat="45.319882" lon="6.854102">
        <ele>2535.351</ele>
        <time>2018-07-19T16:52:59Z</time>
      </trkpt>
      <trkpt lat="45.319931" lon="6.854127">
        <ele>2535.192</ele>
        <time>2018-07-19T16:53:03Z</time>
      </trkpt>
      <trkpt lat="45.319978" lon="6.854138">
        <ele>2535.430</ele>
        <time>2018-07-19T16:53:07Z</time>
      </trkpt>
      <trkpt lat="45.320028" lon="6.854119">
        <ele>2536.019</ele>
        <time>2018-07-19T16:53:11Z</time>
      </trkpt>
      <trkpt lat="45.320066" lon="6.854083">
        <ele>2536.381</ele>
        <time>2018-07-19T16:53:15Z</time>
      </trkpt>
      <trkpt lat="45.320095" lon="6.854017">
        <ele>2536.961</ele>
        <time>2018-07-19T16:53:20Z</time>
      </trkpt>
      <trkpt lat="45.320114" lon="6.853956">
        <ele>2537.317</ele>
        <time>2018-07-19T16:53:24Z</time>
      </trkpt>
      <trkpt lat="45.320126" lon="6.853887">
        <ele>2537.508</ele>
        <time>2018-07-19T16:53:28Z</time>
      </trkpt>
      <trkpt lat="45.320141" lon="6.853813">
        <ele>2537.680</ele>
        <time>2018-07-19T16:53:32Z</time>
      </trkpt>
      <trkpt lat="45.320160" lon="6.853738">
        <ele>2537.735</ele>
        <time>2018-07-19T16:53:37Z</time>
      </trkpt>
      <trkpt lat="45.320180" lon="6.853669">
        <ele>2537.790</ele>
        <time>2018-07-19T16:53:42Z</time>
      </trkpt>
      <trkpt lat="45.320208" lon="6.853599">
        <ele>2537.315</ele>
        <time>2018-07-19T16:53:47Z</time>
      </trkpt>
      <trkpt lat="45.320231" lon="6.853537">
        <ele>2536.770</ele>
        <time>2018-07-19T16:53:51Z</time>
      </trkpt>
      <trkpt lat="45.320251" lon="6.853478">
        <ele>2536.351</ele>
        <time>2018-07-19T16:53:55Z</time>
      </trkpt>
      <trkpt lat="45.320273" lon="6.853409">
        <ele>2536.129</ele>
        <time>2018-07-19T16:54:00Z</time>
      </trkpt>
      <trkpt lat="45.320295" lon="6.853352">
        <ele>2535.688</ele>
        <time>2018-07-19T16:54:04Z</time>
      </trkpt>
      <trkpt lat="45.320319" lon="6.853292">
        <ele>2534.941</ele>
        <time>2018-07-19T16:54:08Z</time>
      </trkpt>
      <trkpt lat="45.320346" lon="6.853232">
        <ele>2534.581</ele>
        <time>2018-07-19T16:54:12Z</time>
      </trkpt>
      <trkpt lat="45.320368" lon="6.853172">
        <ele>2534.209</ele>
        <time>2018-07-19T16:54:16Z</time>
      </trkpt>
      <trkpt lat="45.320387" lon="6.853110">
        <ele>2533.208</ele>
        <time>2018-07-19T16:54:20Z</time>
      </trkpt>
      <trkpt lat="45.320413" lon="6.853055">
        <ele>2532.696</ele>
        <time>2018-07-19T16:54:24Z</time>
      </trkpt>
      <trkpt lat="45.320444" lon="6.853005">
        <ele>2531.941</ele>
        <time>2018-07-19T16:54:28Z</time>
      </trkpt>
      <trkpt lat="45.320475" lon="6.852939">
        <ele>2531.516</ele>
        <time>2018-07-19T16:54:33Z</time>
      </trkpt>
      <trkpt lat="45.320491" lon="6.852871">
        <ele>2531.271</ele>
        <time>2018-07-19T16:54:38Z</time>
      </trkpt>
      <trkpt lat="45.320443" lon="6.852846">
        <ele>2530.676</ele>
        <time>2018-07-19T16:54:45Z</time>
      </trkpt>
      <trkpt lat="45.320393" lon="6.852854">
        <ele>2529.977</ele>
        <time>2018-07-19T16:54:50Z</time>
      </trkpt>
      <trkpt lat="45.320350" lon="6.852876">
        <ele>2529.185</ele>
        <time>2018-07-19T16:54:54Z</time>
      </trkpt>
      <trkpt lat="45.320300" lon="6.852887">
        <ele>2528.214</ele>
        <time>2018-07-19T16:54:59Z</time>
      </trkpt>
      <trkpt lat="45.320251" lon="6.852886">
        <ele>2526.951</ele>
        <time>2018-07-19T16:55:04Z</time>
      </trkpt>
      <trkpt lat="45.320223" lon="6.852834">
        <ele>2526.101</ele>
        <time>2018-07-19T16:55:09Z</time>
      </trkpt>
      <trkpt lat="45.320248" lon="6.852772">
        <ele>2525.211</ele>
        <time>2018-07-19T16:55:14Z</time>
      </trkpt>
      <trkpt lat="45.320285" lon="6.852725">
        <ele>2524.708</ele>
        <time>2018-07-19T16:55:18Z</time>
      </trkpt>
      <trkpt lat="45.320321" lon="6.852678">
        <ele>2524.097</ele>
        <time>2018-07-19T16:55:22Z</time>
      </trkpt>
      <trkpt lat="45.320361" lon="6.852629">
        <ele>2523.232</ele>
        <time>2018-07-19T16:55:26Z</time>
      </trkpt>
      <trkpt lat="45.320400" lon="6.852585">
        <ele>2522.777</ele>
        <time>2018-07-19T16:55:30Z</time>
      </trkpt>
      <trkpt lat="45.320438" lon="6.852538">
        <ele>2522.092</ele>
        <time>2018-07-19T16:55:34Z</time>
      </trkpt>
      <trkpt lat="45.320476" lon="6.852494">
        <ele>2521.627</ele>
        <time>2018-07-19T16:55:38Z</time>
      </trkpt>
      <trkpt lat="45.320521" lon="6.852457">
        <ele>2520.918</ele>
        <time>2018-07-19T16:55:42Z</time>
      </trkpt>
      <trkpt lat="45.320569" lon="6.852421">
        <ele>2519.726</ele>
        <time>2018-07-19T16:55:46Z</time>
      </trkpt>
      <trkpt lat="45.320622" lon="6.852409">
        <ele>2518.265</ele>
        <time>2018-07-19T16:55:50Z</time>
      </trkpt>
      <trkpt lat="45.320673" lon="6.852389">
        <ele>2516.986</ele>
        <time>2018-07-19T16:55:54Z</time>
      </trkpt>
      <trkpt lat="45.320721" lon="6.852366">
        <ele>2516.160</ele>
        <time>2018-07-19T16:55:58Z</time>
      </trkpt>
      <trkpt lat="45.320768" lon="6.852337">
        <ele>2515.226</ele>
        <time>2018-07-19T16:56:02Z</time>
      </trkpt>
      <trkpt lat="45.320816" lon="6.852317">
        <ele>2514.308</ele>
        <time>2018-07-19T16:56:06Z</time>
      </trkpt>
      <trkpt lat="45.320861" lon="6.852289">
        <ele>2513.790</ele>
        <time>2018-07-19T16:56:10Z</time>
      </trkpt>
      <trkpt lat="45.320909" lon="6.852268">
        <ele>2513.455</ele>
        <time>2018-07-19T16:56:14Z</time>
      </trkpt>
      <trkpt lat="45.320959" lon="6.852250">
        <ele>2513.210</ele>
        <time>2018-07-19T16:56:18Z</time>
      </trkpt>
      <trkpt lat="45.321008" lon="6.852236">
        <ele>2513.165</ele>
        <time>2018-07-19T16:56:22Z</time>
      </trkpt>
      <trkpt lat="45.321059" lon="6.852219">
        <ele>2512.620</ele>
        <time>2018-07-19T16:56:26Z</time>
      </trkpt>
      <trkpt lat="45.321111" lon="6.852198">
        <ele>2512.371</ele>
        <time>2018-07-19T16:56:30Z</time>
      </trkpt>
      <trkpt lat="45.321167" lon="6.852185">
        <ele>2511.349</ele>
        <time>2018-07-19T16:56:34Z</time>
      </trkpt>
      <trkpt lat="45.321217" lon="6.852170">
        <ele>2510.798</ele>
        <time>2018-07-19T16:56:38Z</time>
      </trkpt>
      <trkpt lat="45.321270" lon="6.852156">
        <ele>2510.023</ele>
        <time>2018-07-19T16:56:42Z</time>
      </trkpt>
      <trkpt lat="45.321321" lon="6.852135">
        <ele>2509.283</ele>
        <time>2018-07-19T16:56:46Z</time>
      </trkpt>
      <trkpt lat="45.321371" lon="6.852116">
        <ele>2508.711</ele>
        <time>2018-07-19T16:56:50Z</time>
      </trkpt>
      <trkpt lat="45.321422" lon="6.852095">
        <ele>2508.008</ele>
        <time>2018-07-19T16:56:54Z</time>
      </trkpt>
      <trkpt lat="45.321473" lon="6.852079">
        <ele>2506.894</ele>
        <time>2018-07-19T16:56:58Z</time>
      </trkpt>
      <trkpt lat="45.321523" lon="6.852080">
        <ele>2506.119</ele>
        <time>2018-07-19T16:57:02Z</time>
      </trkpt>
      <trkpt lat="45.321573" lon="6.852083">
        <ele>2505.364</ele>
        <time>2018-07-19T16:57:06Z</time>
      </trkpt>
      <trkpt lat="45.321621" lon="6.852052">
        <ele>2505.259</ele>
        <time>2018-07-19T16:57:10Z</time>
      </trkpt>
      <trkpt lat="45.321650" lon="6.851993">
        <ele>2505.134</ele>
        <time>2018-07-19T16:57:14Z</time>
      </trkpt>
      <trkpt lat="45.321667" lon="6.851926">
        <ele>2505.135</ele>
        <time>2018-07-19T16:57:18Z</time>
      </trkpt>
      <trkpt lat="45.321690" lon="6.851867">
        <ele>2505.173</ele>
        <time>2018-07-19T16:57:22Z</time>
      </trkpt>
      <trkpt lat="45.321720" lon="6.851814">
        <ele>2505.142</ele>
        <time>2018-07-19T16:57:26Z</time>
      </trkpt>
      <trkpt lat="45.321751" lon="6.851761">
        <ele>2504.349</ele>
        <time>2018-07-19T16:57:30Z</time>
      </trkpt>
      <trkpt lat="45.321773" lon="6.851701">
        <ele>2503.802</ele>
        <time>2018-07-19T16:57:34Z</time>
      </trkpt>
      <trkpt lat="45.321791" lon="6.851627">
        <ele>2503.922</ele>
        <time>2018-07-19T16:57:38Z</time>
      </trkpt>
      <trkpt lat="45.321821" lon="6.851560">
        <ele>2503.608</ele>
        <time>2018-07-19T16:57:42Z</time>
      </trkpt>
      <trkpt lat="45.321866" lon="6.851519">
        <ele>2503.096</ele>
        <time>2018-07-19T16:57:46Z</time>
      </trkpt>
      <trkpt lat="45.321918" lon="6.851492">
        <ele>2502.251</ele>
        <time>2018-07-19T16:57:50Z</time>
      </trkpt>
      <trkpt lat="45.321973" lon="6.851471">
        <ele>2501.736</ele>
        <time>2018-07-19T16:57:54Z</time>
      </trkpt>
      <trkpt lat="45.322027" lon="6.851452">
        <ele>2501.021</ele>
        <time>2018-07-19T16:57:58Z</time>
      </trkpt>
      <trkpt lat="45.322081" lon="6.851440">
        <ele>2500.656</ele>
        <time>2018-07-19T16:58:02Z</time>
      </trkpt>
      <trkpt lat="45.322136" lon="6.851440">
        <ele>2500.457</ele>
        <time>2018-07-19T16:58:06Z</time>
      </trkpt>
      <trkpt lat="45.322190" lon="6.851446">
        <ele>2499.985</ele>
        <time>2018-07-19T16:58:10Z</time>
      </trkpt>
      <trkpt lat="45.322240" lon="6.851461">
        <ele>2499.254</ele>
        <time>2018-07-19T16:58:14Z</time>
      </trkpt>
      <trkpt lat="45.322289" lon="6.851468">
        <ele>2498.448</ele>
        <time>2018-07-19T16:58:18Z</time>
      </trkpt>
      <trkpt lat="45.322341" lon="6.851462">
        <ele>2497.561</ele>
        <time>2018-07-19T16:58:22Z</time>
      </trkpt>
      <trkpt lat="45.322389" lon="6.851447">
        <ele>2496.217</ele>
        <time>2018-07-19T16:58:26Z</time>
      </trkpt>
      <trkpt lat="45.322431" lon="6.851415">
        <ele>2495.408</ele>
        <time>2018-07-19T16:58:30Z</time>
      </trkpt>
      <trkpt lat="45.322462" lon="6.851350">
        <ele>2493.786</ele>
        <time>2018-07-19T16:58:35Z</time>
      </trkpt>
      <trkpt lat="45.322475" lon="6.851283">
        <ele>2492.771</ele>
        <time>2018-07-19T16:58:39Z</time>
      </trkpt>
      <trkpt lat="45.322482" lon="6.851212">
        <ele>2491.766</ele>
        <time>2018-07-19T16:58:43Z</time>
      </trkpt>
      <trkpt lat="45.322499" lon="6.851147">
        <ele>2490.741</ele>
        <time>2018-07-19T16:58:47Z</time>
      </trkpt>
      <trkpt lat="45.322513" lon="6.851080">
        <ele>2489.726</ele>
        <time>2018-07-19T16:58:51Z</time>
      </trkpt>
      <trkpt lat="45.322524" lon="6.851008">
        <ele>2489.197</ele>
        <time>2018-07-19T16:58:55Z</time>
      </trkpt>
      <trkpt lat="45.322533" lon="6.850934">
        <ele>2488.325</ele>
        <time>2018-07-19T16:58:59Z</time>
      </trkpt>
      <trkpt lat="45.322540" lon="6.850857">
        <ele>2487.814</ele>
        <time>2018-07-19T16:59:03Z</time>
      </trkpt>
      <trkpt lat="45.322547" lon="6.850779">
        <ele>2487.157</ele>
        <time>2018-07-19T16:59:07Z</time>
      </trkpt>
      <trkpt lat="45.322557" lon="6.850704">
        <ele>2486.700</ele>
        <time>2018-07-19T16:59:11Z</time>
      </trkpt>
      <trkpt lat="45.322560" lon="6.850628">
        <ele>2486.520</ele>
        <time>2018-07-19T16:59:15Z</time>
      </trkpt>
      <trkpt lat="45.322561" lon="6.850554">
        <ele>2486.408</ele>
        <time>2018-07-19T16:59:19Z</time>
      </trkpt>
      <trkpt lat="45.322564" lon="6.850474">
        <ele>2485.977</ele>
        <time>2018-07-19T16:59:23Z</time>
      </trkpt>
      <trkpt lat="45.322581" lon="6.850397">
        <ele>2485.692</ele>
        <time>2018-07-19T16:59:27Z</time>
      </trkpt>
      <trkpt lat="45.322603" lon="6.850324">
        <ele>2485.037</ele>
        <time>2018-07-19T16:59:31Z</time>
      </trkpt>
      <trkpt lat="45.322633" lon="6.850257">
        <ele>2484.772</ele>
        <time>2018-07-19T16:59:35Z</time>
      </trkpt>
      <trkpt lat="45.322661" lon="6.850188">
        <ele>2483.787</ele>
        <time>2018-07-19T16:59:39Z</time>
      </trkpt>
      <trkpt lat="45.322682" lon="6.850116">
        <ele>2483.118</ele>
        <time>2018-07-19T16:59:43Z</time>
      </trkpt>
      <trkpt lat="45.322694" lon="6.850038">
        <ele>2482.396</ele>
        <time>2018-07-19T16:59:47Z</time>
      </trkpt>
      <trkpt lat="45.322709" lon="6.849961">
        <ele>2481.465</ele>
        <time>2018-07-19T16:59:51Z</time>
      </trkpt>
      <trkpt lat="45.322732" lon="6.849889">
        <ele>2480.941</ele>
        <time>2018-07-19T16:59:55Z</time>
      </trkpt>
      <trkpt lat="45.322762" lon="6.849823">
        <ele>2480.681</ele>
        <time>2018-07-19T16:59:59Z</time>
      </trkpt>
      <trkpt lat="45.322799" lon="6.849769">
        <ele>2480.409</ele>
        <time>2018-07-19T17:00:03Z</time>
      </trkpt>
      <trkpt lat="45.322843" lon="6.849720">
        <ele>2479.908</ele>
        <time>2018-07-19T17:00:07Z</time>
      </trkpt>
      <trkpt lat="45.322885" lon="6.849676">
        <ele>2479.646</ele>
        <time>2018-07-19T17:00:11Z</time>
      </trkpt>
      <trkpt lat="45.322928" lon="6.849626">
        <ele>2479.481</ele>
        <time>2018-07-19T17:00:15Z</time>
      </trkpt>
      <trkpt lat="45.322971" lon="6.849571">
        <ele>2479.366</ele>
        <time>2018-07-19T17:00:19Z</time>
      </trkpt>
      <trkpt lat="45.323014" lon="6.849518">
        <ele>2479.291</ele>
        <time>2018-07-19T17:00:23Z</time>
      </trkpt>
      <trkpt lat="45.323056" lon="6.849468">
        <ele>2479.266</ele>
        <time>2018-07-19T17:00:27Z</time>
      </trkpt>
      <trkpt lat="45.323101" lon="6.849421">
        <ele>2479.297</ele>
        <time>2018-07-19T17:00:31Z</time>
      </trkpt>
      <trkpt lat="45.323148" lon="6.849375">
        <ele>2478.845</ele>
        <time>2018-07-19T17:00:35Z</time>
      </trkpt>
      <trkpt lat="45.323192" lon="6.849324">
        <ele>2478.614</ele>
        <time>2018-07-19T17:00:39Z</time>
      </trkpt>
      <trkpt lat="45.323230" lon="6.849273">
        <ele>2478.176</ele>
        <time>2018-07-19T17:00:43Z</time>
      </trkpt>
      <trkpt lat="45.323269" lon="6.849223">
        <ele>2477.890</ele>
        <time>2018-07-19T17:00:47Z</time>
      </trkpt>
      <trkpt lat="45.323305" lon="6.849166">
        <ele>2477.619</ele>
        <time>2018-07-19T17:00:51Z</time>
      </trkpt>
      <trkpt lat="45.323335" lon="6.849103">
        <ele>2477.508</ele>
        <time>2018-07-19T17:00:55Z</time>
      </trkpt>
      <trkpt lat="45.323367" lon="6.849037">
        <ele>2477.049</ele>
        <time>2018-07-19T17:00:59Z</time>
      </trkpt>
      <trkpt lat="45.323402" lon="6.848978">
        <ele>2476.344</ele>
        <time>2018-07-19T17:01:03Z</time>
      </trkpt>
      <trkpt lat="45.323445" lon="6.848939">
        <ele>2475.919</ele>
        <time>2018-07-19T17:01:07Z</time>
      </trkpt>
      <trkpt lat="45.323494" lon="6.848940">
        <ele>2475.724</ele>
        <time>2018-07-19T17:01:11Z</time>
      </trkpt>
      <trkpt lat="45.323538" lon="6.848956">
        <ele>2475.229</ele>
        <time>2018-07-19T17:01:15Z</time>
      </trkpt>
      <trkpt lat="45.323590" lon="6.848986">
        <ele>2474.930</ele>
        <time>2018-07-19T17:01:19Z</time>
      </trkpt>
      <trkpt lat="45.323646" lon="6.848989">
        <ele>2474.788</ele>
        <time>2018-07-19T17:01:23Z</time>
      </trkpt>
      <trkpt lat="45.323699" lon="6.848974">
        <ele>2474.637</ele>
        <time>2018-07-19T17:01:27Z</time>
      </trkpt>
      <trkpt lat="45.323748" lon="6.848942">
        <ele>2474.594</ele>
        <time>2018-07-19T17:01:31Z</time>
      </trkpt>
      <trkpt lat="45.323788" lon="6.848897">
        <ele>2474.157</ele>
        <time>2018-07-19T17:01:35Z</time>
      </trkpt>
      <trkpt lat="45.323818" lon="6.848840">
        <ele>2473.822</ele>
        <time>2018-07-19T17:01:39Z</time>
      </trkpt>
      <trkpt lat="45.323840" lon="6.848768">
        <ele>2473.608</ele>
        <time>2018-07-19T17:01:43Z</time>
      </trkpt>
      <trkpt lat="45.323860" lon="6.848693">
        <ele>2473.161</ele>
        <time>2018-07-19T17:01:47Z</time>
      </trkpt>
      <trkpt lat="45.323886" lon="6.848625">
        <ele>2472.476</ele>
        <time>2018-07-19T17:01:51Z</time>
      </trkpt>
      <trkpt lat="45.323924" lon="6.848558">
        <ele>2472.011</ele>
        <time>2018-07-19T17:01:55Z</time>
      </trkpt>
      <trkpt lat="45.323956" lon="6.848511">
        <ele>2471.326</ele>
        <time>2018-07-19T17:01:58Z</time>
      </trkpt>
      <trkpt lat="45.323995" lon="6.848454">
        <ele>2470.581</ele>
        <time>2018-07-19T17:02:02Z</time>
      </trkpt>
      <trkpt lat="45.324037" lon="6.848402">
        <ele>2470.042</ele>
        <time>2018-07-19T17:02:06Z</time>
      </trkpt>
      <trkpt lat="45.324082" lon="6.848354">
        <ele>2469.380</ele>
        <time>2018-07-19T17:02:10Z</time>
      </trkpt>
      <trkpt lat="45.324131" lon="6.848318">
        <ele>2468.549</ele>
        <time>2018-07-19T17:02:14Z</time>
      </trkpt>
      <trkpt lat="45.324176" lon="6.848274">
        <ele>2467.223</ele>
        <time>2018-07-19T17:02:18Z</time>
      </trkpt>
      <trkpt lat="45.324224" lon="6.848233">
        <ele>2465.683</ele>
        <time>2018-07-19T17:02:22Z</time>
      </trkpt>
      <trkpt lat="45.324268" lon="6.848199">
        <ele>2464.711</ele>
        <time>2018-07-19T17:02:26Z</time>
      </trkpt>
      <trkpt lat="45.324313" lon="6.848159">
        <ele>2463.308</ele>
        <time>2018-07-19T17:02:30Z</time>
      </trkpt>
      <trkpt lat="45.324358" lon="6.848120">
        <ele>2462.154</ele>
        <time>2018-07-19T17:02:34Z</time>
      </trkpt>
      <trkpt lat="45.324407" lon="6.848078">
        <ele>2461.099</ele>
        <time>2018-07-19T17:02:38Z</time>
      </trkpt>
      <trkpt lat="45.324457" lon="6.848034">
        <ele>2459.944</ele>
        <time>2018-07-19T17:02:42Z</time>
      </trkpt>
      <trkpt lat="45.324507" lon="6.847992">
        <ele>2459.329</ele>
        <time>2018-07-19T17:02:46Z</time>
      </trkpt>
      <trkpt lat="45.324552" lon="6.847950">
        <ele>2458.594</ele>
        <time>2018-07-19T17:02:50Z</time>
      </trkpt>
      <trkpt lat="45.324594" lon="6.847903">
        <ele>2458.065</ele>
        <time>2018-07-19T17:02:54Z</time>
      </trkpt>
      <trkpt lat="45.324631" lon="6.847847">
        <ele>2457.723</ele>
        <time>2018-07-19T17:02:58Z</time>
      </trkpt>
      <trkpt lat="45.324671" lon="6.847796">
        <ele>2457.172</ele>
        <time>2018-07-19T17:03:02Z</time>
      </trkpt>
      <trkpt lat="45.324709" lon="6.847746">
        <ele>2456.828</ele>
        <time>2018-07-19T17:03:06Z</time>
      </trkpt>
      <trkpt lat="45.324747" lon="6.847693">
        <ele>2456.289</ele>
        <time>2018-07-19T17:03:10Z</time>
      </trkpt>
      <trkpt lat="45.324788" lon="6.847638">
        <ele>2455.417</ele>
        <time>2018-07-19T17:03:14Z</time>
      </trkpt>
      <trkpt lat="45.324824" lon="6.847584">
        <ele>2454.508</ele>
        <time>2018-07-19T17:03:18Z</time>
      </trkpt>
      <trkpt lat="45.324859" lon="6.847530">
        <ele>2454.064</ele>
        <time>2018-07-19T17:03:22Z</time>
      </trkpt>
      <trkpt lat="45.324896" lon="6.847471">
        <ele>2453.739</ele>
        <time>2018-07-19T17:03:26Z</time>
      </trkpt>
      <trkpt lat="45.324924" lon="6.847403">
        <ele>2453.154</ele>
        <time>2018-07-19T17:03:30Z</time>
      </trkpt>
      <trkpt lat="45.324944" lon="6.847327">
        <ele>2452.759</ele>
        <time>2018-07-19T17:03:34Z</time>
      </trkpt>
      <trkpt lat="45.324963" lon="6.847250">
        <ele>2452.144</ele>
        <time>2018-07-19T17:03:38Z</time>
      </trkpt>
      <trkpt lat="45.324981" lon="6.847178">
        <ele>2451.715</ele>
        <time>2018-07-19T17:03:42Z</time>
      </trkpt>
      <trkpt lat="45.325001" lon="6.847106">
        <ele>2451.193</ele>
        <time>2018-07-19T17:03:46Z</time>
      </trkpt>
      <trkpt lat="45.325019" lon="6.847034">
        <ele>2450.362</ele>
        <time>2018-07-19T17:03:50Z</time>
      </trkpt>
      <trkpt lat="45.325029" lon="6.846965">
        <ele>2449.445</ele>
        <time>2018-07-19T17:03:54Z</time>
      </trkpt>
      <trkpt lat="45.325035" lon="6.846895">
        <ele>2448.547</ele>
        <time>2018-07-19T17:03:58Z</time>
      </trkpt>
      <trkpt lat="45.325040" lon="6.846822">
        <ele>2447.511</ele>
        <time>2018-07-19T17:04:02Z</time>
      </trkpt>
      <trkpt lat="45.325049" lon="6.846750">
        <ele>2446.508</ele>
        <time>2018-07-19T17:04:06Z</time>
      </trkpt>
      <trkpt lat="45.325066" lon="6.846680">
        <ele>2445.936</ele>
        <time>2018-07-19T17:04:10Z</time>
      </trkpt>
      <trkpt lat="45.325084" lon="6.846612">
        <ele>2445.681</ele>
        <time>2018-07-19T17:04:14Z</time>
      </trkpt>
      <trkpt lat="45.325102" lon="6.846538">
        <ele>2445.026</ele>
        <time>2018-07-19T17:04:18Z</time>
      </trkpt>
      <trkpt lat="45.325121" lon="6.846463">
        <ele>2444.221</ele>
        <time>2018-07-19T17:04:22Z</time>
      </trkpt>
      <trkpt lat="45.325140" lon="6.846390">
        <ele>2443.746</ele>
        <time>2018-07-19T17:04:26Z</time>
      </trkpt>
      <trkpt lat="45.325160" lon="6.846320">
        <ele>2443.047</ele>
        <time>2018-07-19T17:04:30Z</time>
      </trkpt>
      <trkpt lat="45.325183" lon="6.846248">
        <ele>2442.285</ele>
        <time>2018-07-19T17:04:34Z</time>
      </trkpt>
      <trkpt lat="45.325199" lon="6.846172">
        <ele>2441.764</ele>
        <time>2018-07-19T17:04:38Z</time>
      </trkpt>
      <trkpt lat="45.325214" lon="6.846098">
        <ele>2441.434</ele>
        <time>2018-07-19T17:04:42Z</time>
      </trkpt>
      <trkpt lat="45.325231" lon="6.846022">
        <ele>2440.855</ele>
        <time>2018-07-19T17:04:46Z</time>
      </trkpt>
      <trkpt lat="45.325253" lon="6.845947">
        <ele>2440.110</ele>
        <time>2018-07-19T17:04:50Z</time>
      </trkpt>
      <trkpt lat="45.325280" lon="6.845877">
        <ele>2439.708</ele>
        <time>2018-07-19T17:04:54Z</time>
      </trkpt>
      <trkpt lat="45.325308" lon="6.845805">
        <ele>2439.425</ele>
        <time>2018-07-19T17:04:58Z</time>
      </trkpt>
      <trkpt lat="45.325339" lon="6.845738">
        <ele>2439.290</ele>
        <time>2018-07-19T17:05:02Z</time>
      </trkpt>
      <trkpt lat="45.325373" lon="6.845677">
        <ele>2438.735</ele>
        <time>2018-07-19T17:05:06Z</time>
      </trkpt>
      <trkpt lat="45.325404" lon="6.845615">
        <ele>2438.090</ele>
        <time>2018-07-19T17:05:10Z</time>
      </trkpt>
      <trkpt lat="45.325432" lon="6.845549">
        <ele>2437.655</ele>
        <time>2018-07-19T17:05:14Z</time>
      </trkpt>
      <trkpt lat="45.325459" lon="6.845480">
        <ele>2436.956</ele>
        <time>2018-07-19T17:05:18Z</time>
      </trkpt>
      <trkpt lat="45.325481" lon="6.845413">
        <ele>2436.554</ele>
        <time>2018-07-19T17:05:22Z</time>
      </trkpt>
      <trkpt lat="45.325498" lon="6.845343">
        <ele>2436.373</ele>
        <time>2018-07-19T17:05:26Z</time>
      </trkpt>
      <trkpt lat="45.325518" lon="6.845268">
        <ele>2436.249</ele>
        <time>2018-07-19T17:05:30Z</time>
      </trkpt>
      <trkpt lat="45.325539" lon="6.845191">
        <ele>2436.102</ele>
        <time>2018-07-19T17:05:34Z</time>
      </trkpt>
      <trkpt lat="45.325564" lon="6.845123">
        <ele>2436.022</ele>
        <time>2018-07-19T17:05:38Z</time>
      </trkpt>
      <trkpt lat="45.325595" lon="6.845056">
        <ele>2436.008</ele>
        <time>2018-07-19T17:05:42Z</time>
      </trkpt>
      <trkpt lat="45.325629" lon="6.844993">
        <ele>2436.026</ele>
        <time>2018-07-19T17:05:46Z</time>
      </trkpt>
      <trkpt lat="45.325666" lon="6.844928">
        <ele>2436.041</ele>
        <time>2018-07-19T17:05:50Z</time>
      </trkpt>
      <trkpt lat="45.325707" lon="6.844872">
        <ele>2436.456</ele>
        <time>2018-07-19T17:05:54Z</time>
      </trkpt>
      <trkpt lat="45.325749" lon="6.844817">
        <ele>2436.611</ele>
        <time>2018-07-19T17:05:58Z</time>
      </trkpt>
      <trkpt lat="45.325794" lon="6.844766">
        <ele>2436.776</ele>
        <time>2018-07-19T17:06:02Z</time>
      </trkpt>
      <trkpt lat="45.325837" lon="6.844718">
        <ele>2436.837</ele>
        <time>2018-07-19T17:06:06Z</time>
      </trkpt>
      <trkpt lat="45.325884" lon="6.844674">
        <ele>2436.535</ele>
        <time>2018-07-19T17:06:10Z</time>
      </trkpt>
      <trkpt lat="45.325929" lon="6.844630">
        <ele>2436.374</ele>
        <time>2018-07-19T17:06:14Z</time>
      </trkpt>
      <trkpt lat="45.325975" lon="6.844585">
        <ele>2436.253</ele>
        <time>2018-07-19T17:06:18Z</time>
      </trkpt>
      <trkpt lat="45.326019" lon="6.844537">
        <ele>2436.104</ele>
        <time>2018-07-19T17:06:22Z</time>
      </trkpt>
      <trkpt lat="45.326059" lon="6.844488">
        <ele>2436.114</ele>
        <time>2018-07-19T17:06:26Z</time>
      </trkpt>
      <trkpt lat="45.326100" lon="6.844437">
        <ele>2436.108</ele>
        <time>2018-07-19T17:06:30Z</time>
      </trkpt>
      <trkpt lat="45.326139" lon="6.844381">
        <ele>2436.167</ele>
        <time>2018-07-19T17:06:34Z</time>
      </trkpt>
      <trkpt lat="45.326176" lon="6.844321">
        <ele>2436.112</ele>
        <time>2018-07-19T17:06:38Z</time>
      </trkpt>
      <trkpt lat="45.326214" lon="6.844262">
        <ele>2436.177</ele>
        <time>2018-07-19T17:06:42Z</time>
      </trkpt>
      <trkpt lat="45.326243" lon="6.844211">
        <ele>2436.122</ele>
        <time>2018-07-19T17:06:45Z</time>
      </trkpt>
      <trkpt lat="45.326277" lon="6.844147">
        <ele>2435.757</ele>
        <time>2018-07-19T17:06:49Z</time>
      </trkpt>
      <trkpt lat="45.326317" lon="6.844089">
        <ele>2435.598</ele>
        <time>2018-07-19T17:06:53Z</time>
      </trkpt>
      <trkpt lat="45.326361" lon="6.844034">
        <ele>2435.476</ele>
        <time>2018-07-19T17:06:57Z</time>
      </trkpt>
      <trkpt lat="45.326407" lon="6.843987">
        <ele>2434.925</ele>
        <time>2018-07-19T17:07:01Z</time>
      </trkpt>
      <trkpt lat="45.326452" lon="6.843943">
        <ele>2434.237</ele>
        <time>2018-07-19T17:07:05Z</time>
      </trkpt>
      <trkpt lat="45.326499" lon="6.843898">
        <ele>2433.449</ele>
        <time>2018-07-19T17:07:09Z</time>
      </trkpt>
      <trkpt lat="45.326545" lon="6.843851">
        <ele>2432.513</ele>
        <time>2018-07-19T17:07:13Z</time>
      </trkpt>
      <trkpt lat="45.326590" lon="6.843802">
        <ele>2432.008</ele>
        <time>2018-07-19T17:07:17Z</time>
      </trkpt>
      <trkpt lat="45.326636" lon="6.843754">
        <ele>2432.145</ele>
        <time>2018-07-19T17:07:21Z</time>
      </trkpt>
      <trkpt lat="45.326681" lon="6.843708">
        <ele>2431.750</ele>
        <time>2018-07-19T17:07:25Z</time>
      </trkpt>
      <trkpt lat="45.326723" lon="6.843662">
        <ele>2431.525</ele>
        <time>2018-07-19T17:07:29Z</time>
      </trkpt>
      <trkpt lat="45.326769" lon="6.843616">
        <ele>2431.470</ele>
        <time>2018-07-19T17:07:33Z</time>
      </trkpt>
      <trkpt lat="45.326814" lon="6.843571">
        <ele>2431.325</ele>
        <time>2018-07-19T17:07:37Z</time>
      </trkpt>
      <trkpt lat="45.326858" lon="6.843528">
        <ele>2431.386</ele>
        <time>2018-07-19T17:07:41Z</time>
      </trkpt>
      <trkpt lat="45.326902" lon="6.843487">
        <ele>2431.364</ele>
        <time>2018-07-19T17:07:45Z</time>
      </trkpt>
      <trkpt lat="45.326951" lon="6.843456">
        <ele>2430.993</ele>
        <time>2018-07-19T17:07:49Z</time>
      </trkpt>
      <trkpt lat="45.327001" lon="6.843447">
        <ele>2429.993</ele>
        <time>2018-07-19T17:07:53Z</time>
      </trkpt>
      <trkpt lat="45.327050" lon="6.843457">
        <ele>2428.965</ele>
        <time>2018-07-19T17:07:57Z</time>
      </trkpt>
      <trkpt lat="45.327091" lon="6.843428">
        <ele>2428.321</ele>
        <time>2018-07-19T17:08:01Z</time>
      </trkpt>
      <trkpt lat="45.327124" lon="6.843372">
        <ele>2427.908</ele>
        <time>2018-07-19T17:08:05Z</time>
      </trkpt>
      <trkpt lat="45.327151" lon="6.843311">
        <ele>2427.391</ele>
        <time>2018-07-19T17:08:09Z</time>
      </trkpt>
      <trkpt lat="45.327174" lon="6.843244">
        <ele>2426.946</ele>
        <time>2018-07-19T17:08:13Z</time>
      </trkpt>
      <trkpt lat="45.327198" lon="6.843178">
        <ele>2426.381</ele>
        <time>2018-07-19T17:08:17Z</time>
      </trkpt>
      <trkpt lat="45.327219" lon="6.843110">
        <ele>2425.986</ele>
        <time>2018-07-19T17:08:21Z</time>
      </trkpt>
      <trkpt lat="45.327225" lon="6.843034">
        <ele>2425.721</ele>
        <time>2018-07-19T17:08:25Z</time>
      </trkpt>
      <trkpt lat="45.327225" lon="6.842955">
        <ele>2425.622</ele>
        <time>2018-07-19T17:08:29Z</time>
      </trkpt>
      <trkpt lat="45.327209" lon="6.842879">
        <ele>2425.520</ele>
        <time>2018-07-19T17:08:33Z</time>
      </trkpt>
      <trkpt lat="45.327191" lon="6.842804">
        <ele>2425.959</ele>
        <time>2018-07-19T17:08:37Z</time>
      </trkpt>
      <trkpt lat="45.327183" lon="6.842730">
        <ele>2425.739</ele>
        <time>2018-07-19T17:08:41Z</time>
      </trkpt>
      <trkpt lat="45.327183" lon="6.842656">
        <ele>2425.601</ele>
        <time>2018-07-19T17:08:45Z</time>
      </trkpt>
      <trkpt lat="45.327186" lon="6.842579">
        <ele>2425.521</ele>
        <time>2018-07-19T17:08:49Z</time>
      </trkpt>
      <trkpt lat="45.327183" lon="6.842506">
        <ele>2425.508</ele>
        <time>2018-07-19T17:08:53Z</time>
      </trkpt>
      <trkpt lat="45.327171" lon="6.842433">
        <ele>2425.915</ele>
        <time>2018-07-19T17:08:57Z</time>
      </trkpt>
      <trkpt lat="45.327157" lon="6.842354">
        <ele>2426.140</ele>
        <time>2018-07-19T17:09:01Z</time>
      </trkpt>
      <trkpt lat="45.327138" lon="6.842280">
        <ele>2426.275</ele>
        <time>2018-07-19T17:09:05Z</time>
      </trkpt>
      <trkpt lat="45.327113" lon="6.842209">
        <ele>2426.770</ele>
        <time>2018-07-19T17:09:09Z</time>
      </trkpt>
      <trkpt lat="45.327092" lon="6.842133">
        <ele>2427.065</ele>
        <time>2018-07-19T17:09:13Z</time>
      </trkpt>
      <trkpt lat="45.327072" lon="6.842063">
        <ele>2427.666</ele>
        <time>2018-07-19T17:09:17Z</time>
      </trkpt>
      <trkpt lat="45.327047" lon="6.842000">
        <ele>2427.974</ele>
        <time>2018-07-19T17:09:21Z</time>
      </trkpt>
      <trkpt lat="45.327015" lon="6.841938">
        <ele>2427.753</ele>
        <time>2018-07-19T17:09:25Z</time>
      </trkpt>
      <trkpt lat="45.326977" lon="6.841891">
        <ele>2427.211</ele>
        <time>2018-07-19T17:09:29Z</time>
      </trkpt>
      <trkpt lat="45.326935" lon="6.841844">
        <ele>2426.921</ele>
        <time>2018-07-19T17:09:33Z</time>
      </trkpt>
      <trkpt lat="45.326897" lon="6.841795">
        <ele>2426.303</ele>
        <time>2018-07-19T17:09:37Z</time>
      </trkpt>
      <trkpt lat="45.326875" lon="6.841732">
        <ele>2425.908</ele>
        <time>2018-07-19T17:09:41Z</time>
      </trkpt>
      <trkpt lat="45.326867" lon="6.841658">
        <ele>2425.773</ele>
        <time>2018-07-19T17:09:45Z</time>
      </trkpt>
      <trkpt lat="45.326870" lon="6.841583">
        <ele>2425.628</ele>
        <time>2018-07-19T17:09:49Z</time>
      </trkpt>
      <trkpt lat="45.326879" lon="6.841510">
        <ele>2425.193</ele>
        <time>2018-07-19T17:09:53Z</time>
      </trkpt>
      <trkpt lat="45.326886" lon="6.841435">
        <ele>2424.848</ele>
        <time>2018-07-19T17:09:57Z</time>
      </trkpt>
      <trkpt lat="45.326893" lon="6.841358">
        <ele>2424.643</ele>
        <time>2018-07-19T17:10:01Z</time>
      </trkpt>
      <trkpt lat="45.326898" lon="6.841280">
        <ele>2424.584</ele>
        <time>2018-07-19T17:10:05Z</time>
      </trkpt>
      <trkpt lat="45.326898" lon="6.841196">
        <ele>2424.492</ele>
        <time>2018-07-19T17:10:09Z</time>
      </trkpt>
      <trkpt lat="45.326897" lon="6.841114">
        <ele>2424.461</ele>
        <time>2018-07-19T17:10:13Z</time>
      </trkpt>
      <trkpt lat="45.326889" lon="6.841031">
        <ele>2424.475</ele>
        <time>2018-07-19T17:10:17Z</time>
      </trkpt>
      <trkpt lat="45.326877" lon="6.840956">
        <ele>2424.428</ele>
        <time>2018-07-19T17:10:21Z</time>
      </trkpt>
      <trkpt lat="45.326866" lon="6.840886">
        <ele>2424.820</ele>
        <time>2018-07-19T17:10:25Z</time>
      </trkpt>
      <trkpt lat="45.326862" lon="6.840813">
        <ele>2425.008</ele>
        <time>2018-07-19T17:10:29Z</time>
      </trkpt>
      <trkpt lat="45.326862" lon="6.840738">
        <ele>2425.189</ele>
        <time>2018-07-19T17:10:33Z</time>
      </trkpt>
      <trkpt lat="45.326865" lon="6.840668">
        <ele>2424.834</ele>
        <time>2018-07-19T17:10:37Z</time>
      </trkpt>
      <trkpt lat="45.326862" lon="6.840597">
        <ele>2424.279</ele>
        <time>2018-07-19T17:10:41Z</time>
      </trkpt>
      <trkpt lat="45.326858" lon="6.840528">
        <ele>2423.814</ele>
        <time>2018-07-19T17:10:45Z</time>
      </trkpt>
      <trkpt lat="45.326856" lon="6.840460">
        <ele>2423.689</ele>
        <time>2018-07-19T17:10:49Z</time>
      </trkpt>
      <trkpt lat="45.326856" lon="6.840388">
        <ele>2423.960</ele>
        <time>2018-07-19T17:10:53Z</time>
      </trkpt>
      <trkpt lat="45.326858" lon="6.840312">
        <ele>2424.158</ele>
        <time>2018-07-19T17:10:57Z</time>
      </trkpt>
      <trkpt lat="45.326856" lon="6.840244">
        <ele>2423.857</ele>
        <time>2018-07-19T17:11:01Z</time>
      </trkpt>
      <trkpt lat="45.326846" lon="6.840173">
        <ele>2423.681</ele>
        <time>2018-07-19T17:11:06Z</time>
      </trkpt>
      <trkpt lat="45.326828" lon="6.840113">
        <ele>2424.361</ele>
        <time>2018-07-19T17:11:11Z</time>
      </trkpt>
      <trkpt lat="45.326819" lon="6.840050">
        <ele>2424.717</ele>
        <time>2018-07-19T17:11:15Z</time>
      </trkpt>
      <trkpt lat="45.326813" lon="6.839980">
        <ele>2424.908</ele>
        <time>2018-07-19T17:11:19Z</time>
      </trkpt>
      <trkpt lat="45.326814" lon="6.839913">
        <ele>2425.040</ele>
        <time>2018-07-19T17:11:23Z</time>
      </trkpt>
      <trkpt lat="45.326822" lon="6.839845">
        <ele>2425.125</ele>
        <time>2018-07-19T17:11:27Z</time>
      </trkpt>
      <trkpt lat="45.326838" lon="6.839775">
        <ele>2425.240</ele>
        <time>2018-07-19T17:11:31Z</time>
      </trkpt>
      <trkpt lat="45.326865" lon="6.839709">
        <ele>2425.285</ele>
        <time>2018-07-19T17:11:35Z</time>
      </trkpt>
      <trkpt lat="45.326900" lon="6.839646">
        <ele>2425.280</ele>
        <time>2018-07-19T17:11:39Z</time>
      </trkpt>
      <trkpt lat="45.326937" lon="6.839585">
        <ele>2424.821</ele>
        <time>2018-07-19T17:11:43Z</time>
      </trkpt>
      <trkpt lat="45.326971" lon="6.839522">
        <ele>2424.689</ele>
        <time>2018-07-19T17:11:47Z</time>
      </trkpt>
      <trkpt lat="45.326996" lon="6.839454">
        <ele>2424.198</ele>
        <time>2018-07-19T17:11:51Z</time>
      </trkpt>
      <trkpt lat="45.326999" lon="6.839384">
        <ele>2423.026</ele>
        <time>2018-07-19T17:11:55Z</time>
      </trkpt>
      <trkpt lat="45.326976" lon="6.839317">
        <ele>2422.347</ele>
        <time>2018-07-19T17:11:59Z</time>
      </trkpt>
      <trkpt lat="45.326933" lon="6.839275">
        <ele>2421.911</ele>
        <time>2018-07-19T17:12:03Z</time>
      </trkpt>
      <trkpt lat="45.326881" lon="6.839245">
        <ele>2421.708</ele>
        <time>2018-07-19T17:12:07Z</time>
      </trkpt>
      <trkpt lat="45.326828" lon="6.839225">
        <ele>2422.034</ele>
        <time>2018-07-19T17:12:11Z</time>
      </trkpt>
      <trkpt lat="45.326773" lon="6.839196">
        <ele>2422.239</ele>
        <time>2018-07-19T17:12:15Z</time>
      </trkpt>
      <trkpt lat="45.326724" lon="6.839159">
        <ele>2422.394</ele>
        <time>2018-07-19T17:12:19Z</time>
      </trkpt>
      <trkpt lat="45.326691" lon="6.839100">
        <ele>2422.489</ele>
        <time>2018-07-19T17:12:23Z</time>
      </trkpt>
      <trkpt lat="45.326680" lon="6.839033">
        <ele>2422.434</ele>
        <time>2018-07-19T17:12:27Z</time>
      </trkpt>
      <trkpt lat="45.326672" lon="6.838961">
        <ele>2422.425</ele>
        <time>2018-07-19T17:12:31Z</time>
      </trkpt>
      <trkpt lat="45.326659" lon="6.838892">
        <ele>2422.443</ele>
        <time>2018-07-19T17:12:35Z</time>
      </trkpt>
      <trkpt lat="45.326640" lon="6.838831">
        <ele>2422.012</ele>
        <time>2018-07-19T17:12:39Z</time>
      </trkpt>
      <trkpt lat="45.326618" lon="6.838766">
        <ele>2421.818</ele>
        <time>2018-07-19T17:12:44Z</time>
      </trkpt>
      <trkpt lat="45.326593" lon="6.838703">
        <ele>2421.798</ele>
        <time>2018-07-19T17:12:49Z</time>
      </trkpt>
      <trkpt lat="45.326569" lon="6.838638">
        <ele>2422.017</ele>
        <time>2018-07-19T17:12:54Z</time>
      </trkpt>
      <trkpt lat="45.326547" lon="6.838575">
        <ele>2422.208</ele>
        <time>2018-07-19T17:12:59Z</time>
      </trkpt>
      <trkpt lat="45.326536" lon="6.838501">
        <ele>2422.323</ele>
        <time>2018-07-19T17:13:04Z</time>
      </trkpt>
      <trkpt lat="45.326536" lon="6.838423">
        <ele>2422.418</ele>
        <time>2018-07-19T17:13:09Z</time>
      </trkpt>
      <trkpt lat="45.326543" lon="6.838354">
        <ele>2422.413</ele>
        <time>2018-07-19T17:13:13Z</time>
      </trkpt>
      <trkpt lat="45.326545" lon="6.838280">
        <ele>2422.498</ele>
        <time>2018-07-19T17:13:17Z</time>
      </trkpt>
      <trkpt lat="45.326546" lon="6.838209">
        <ele>2422.453</ele>
        <time>2018-07-19T17:13:21Z</time>
      </trkpt>
      <trkpt lat="45.326540" lon="6.838142">
        <ele>2422.424</ele>
        <time>2018-07-19T17:13:25Z</time>
      </trkpt>
      <trkpt lat="45.326528" lon="6.838070">
        <ele>2422.462</ele>
        <time>2018-07-19T17:13:29Z</time>
      </trkpt>
      <trkpt lat="45.326511" lon="6.837998">
        <ele>2422.481</ele>
        <time>2018-07-19T17:13:33Z</time>
      </trkpt>
      <trkpt lat="45.326497" lon="6.837928">
        <ele>2422.447</ele>
        <time>2018-07-19T17:13:37Z</time>
      </trkpt>
      <trkpt lat="45.326482" lon="6.837854">
        <ele>2422.829</ele>
        <time>2018-07-19T17:13:41Z</time>
      </trkpt>
      <trkpt lat="45.326470" lon="6.837785">
        <ele>2423.021</ele>
        <time>2018-07-19T17:13:45Z</time>
      </trkpt>
      <trkpt lat="45.326460" lon="6.837712">
        <ele>2423.108</ele>
        <time>2018-07-19T17:13:49Z</time>
      </trkpt>
      <trkpt lat="45.326458" lon="6.837642">
        <ele>2423.266</ele>
        <time>2018-07-19T17:13:53Z</time>
      </trkpt>
      <trkpt lat="45.326457" lon="6.837572">
        <ele>2423.721</ele>
        <time>2018-07-19T17:13:57Z</time>
      </trkpt>
      <trkpt lat="45.326457" lon="6.837501">
        <ele>2424.066</ele>
        <time>2018-07-19T17:14:01Z</time>
      </trkpt>
      <trkpt lat="45.326463" lon="6.837428">
        <ele>2423.891</ele>
        <time>2018-07-19T17:14:05Z</time>
      </trkpt>
      <trkpt lat="45.326473" lon="6.837353">
        <ele>2423.776</ele>
        <time>2018-07-19T17:14:09Z</time>
      </trkpt>
      <trkpt lat="45.326490" lon="6.837278">
        <ele>2423.697</ele>
        <time>2018-07-19T17:14:13Z</time>
      </trkpt>
      <trkpt lat="45.326516" lon="6.837212">
        <ele>2423.595</ele>
        <time>2018-07-19T17:14:17Z</time>
      </trkpt>
      <trkpt lat="45.326545" lon="6.837154">
        <ele>2423.514</ele>
        <time>2018-07-19T17:14:21Z</time>
      </trkpt>
      <trkpt lat="45.326573" lon="6.837098">
        <ele>2423.921</ele>
        <time>2018-07-19T17:14:25Z</time>
      </trkpt>
      <trkpt lat="45.326605" lon="6.837046">
        <ele>2424.141</ele>
        <time>2018-07-19T17:14:29Z</time>
      </trkpt>
      <trkpt lat="45.326637" lon="6.836997">
        <ele>2424.205</ele>
        <time>2018-07-19T17:14:33Z</time>
      </trkpt>
      <trkpt lat="45.326671" lon="6.836935">
        <ele>2424.308</ele>
        <time>2018-07-19T17:14:38Z</time>
      </trkpt>
      <trkpt lat="45.326695" lon="6.836876">
        <ele>2424.344</ele>
        <time>2018-07-19T17:14:42Z</time>
      </trkpt>
      <trkpt lat="45.326719" lon="6.836813">
        <ele>2424.369</ele>
        <time>2018-07-19T17:14:46Z</time>
      </trkpt>
      <trkpt lat="45.326748" lon="6.836751">
        <ele>2424.334</ele>
        <time>2018-07-19T17:14:50Z</time>
      </trkpt>
      <trkpt lat="45.326782" lon="6.836696">
        <ele>2424.389</ele>
        <time>2018-07-19T17:14:54Z</time>
      </trkpt>
      <trkpt lat="45.326819" lon="6.836641">
        <ele>2424.344</ele>
        <time>2018-07-19T17:14:58Z</time>
      </trkpt>
      <trkpt lat="45.326856" lon="6.836593">
        <ele>2423.965</ele>
        <time>2018-07-19T17:15:02Z</time>
      </trkpt>
      <trkpt lat="45.326888" lon="6.836543">
        <ele>2423.393</ele>
        <time>2018-07-19T17:15:06Z</time>
      </trkpt>
      <trkpt lat="45.326918" lon="6.836484">
        <ele>2422.952</ele>
        <time>2018-07-19T17:15:10Z</time>
      </trkpt>
      <trkpt lat="45.326950" lon="6.836429">
        <ele>2422.369</ele>
        <time>2018-07-19T17:15:14Z</time>
      </trkpt>
      <trkpt lat="45.326984" lon="6.836376">
        <ele>2421.504</ele>
        <time>2018-07-19T17:15:18Z</time>
      </trkpt>
      <trkpt lat="45.327016" lon="6.836315">
        <ele>2421.024</ele>
        <time>2018-07-19T17:15:22Z</time>
      </trkpt>
      <trkpt lat="45.327050" lon="6.836258">
        <ele>2420.308</ele>
        <time>2018-07-19T17:15:26Z</time>
      </trkpt>
      <trkpt lat="45.327081" lon="6.836200">
        <ele>2419.988</ele>
        <time>2018-07-19T17:15:30Z</time>
      </trkpt>
      <trkpt lat="45.327111" lon="6.836147">
        <ele>2419.743</ele>
        <time>2018-07-19T17:15:34Z</time>
      </trkpt>
      <trkpt lat="45.327136" lon="6.836093">
        <ele>2419.268</ele>
        <time>2018-07-19T17:15:38Z</time>
      </trkpt>
      <trkpt lat="45.327165" lon="6.836040">
        <ele>2418.523</ele>
        <time>2018-07-19T17:15:42Z</time>
      </trkpt>
      <trkpt lat="45.327199" lon="6.835979">
        <ele>2417.318</ele>
        <time>2018-07-19T17:15:46Z</time>
      </trkpt>
      <trkpt lat="45.327230" lon="6.835914">
        <ele>2416.289</ele>
        <time>2018-07-19T17:15:50Z</time>
      </trkpt>
      <trkpt lat="45.327265" lon="6.835853">
        <ele>2415.137</ele>
        <time>2018-07-19T17:15:54Z</time>
      </trkpt>
      <trkpt lat="45.327296" lon="6.835791">
        <ele>2414.466</ele>
        <time>2018-07-19T17:15:58Z</time>
      </trkpt>
      <trkpt lat="45.327323" lon="6.835732">
        <ele>2414.078</ele>
        <time>2018-07-19T17:16:02Z</time>
      </trkpt>
      <trkpt lat="45.327348" lon="6.835675">
        <ele>2413.833</ele>
        <time>2018-07-19T17:16:06Z</time>
      </trkpt>
      <trkpt lat="45.327377" lon="6.835613">
        <ele>2413.326</ele>
        <time>2018-07-19T17:16:10Z</time>
      </trkpt>
      <trkpt lat="45.327404" lon="6.835551">
        <ele>2412.608</ele>
        <time>2018-07-19T17:16:14Z</time>
      </trkpt>
      <trkpt lat="45.327428" lon="6.835486">
        <ele>2412.669</ele>
        <time>2018-07-19T17:16:18Z</time>
      </trkpt>
      <trkpt lat="45.327450" lon="6.835417">
        <ele>2412.674</ele>
        <time>2018-07-19T17:16:22Z</time>
      </trkpt>
      <trkpt lat="45.327472" lon="6.835353">
        <ele>2411.879</ele>
        <time>2018-07-19T17:16:26Z</time>
      </trkpt>
      <trkpt lat="45.327494" lon="6.835294">
        <ele>2410.934</ele>
        <time>2018-07-19T17:16:30Z</time>
      </trkpt>
      <trkpt lat="45.327521" lon="6.835232">
        <ele>2409.649</ele>
        <time>2018-07-19T17:16:34Z</time>
      </trkpt>
      <trkpt lat="45.327539" lon="6.835168">
        <ele>2408.420</ele>
        <time>2018-07-19T17:16:38Z</time>
      </trkpt>
      <trkpt lat="45.327566" lon="6.835116">
        <ele>2406.558</ele>
        <time>2018-07-19T17:16:42Z</time>
      </trkpt>
      <trkpt lat="45.327597" lon="6.835048">
        <ele>2405.397</ele>
        <time>2018-07-19T17:16:47Z</time>
      </trkpt>
      <trkpt lat="45.327626" lon="6.834986">
        <ele>2404.675</ele>
        <time>2018-07-19T17:16:51Z</time>
      </trkpt>
      <trkpt lat="45.327657" lon="6.834930">
        <ele>2404.228</ele>
        <time>2018-07-19T17:16:55Z</time>
      </trkpt>
      <trkpt lat="45.327687" lon="6.834869">
        <ele>2404.020</ele>
        <time>2018-07-19T17:16:59Z</time>
      </trkpt>
      <trkpt lat="45.327719" lon="6.834813">
        <ele>2403.508</ele>
        <time>2018-07-19T17:17:03Z</time>
      </trkpt>
      <trkpt lat="45.327752" lon="6.834753">
        <ele>2403.249</ele>
        <time>2018-07-19T17:17:07Z</time>
      </trkpt>
      <trkpt lat="45.327779" lon="6.834681">
        <ele>2403.054</ele>
        <time>2018-07-19T17:17:11Z</time>
      </trkpt>
      <trkpt lat="45.327800" lon="6.834607">
        <ele>2402.579</ele>
        <time>2018-07-19T17:17:15Z</time>
      </trkpt>
      <trkpt lat="45.327820" lon="6.834543">
        <ele>2402.214</ele>
        <time>2018-07-19T17:17:19Z</time>
      </trkpt>
      <trkpt lat="45.327841" lon="6.834480">
        <ele>2401.689</ele>
        <time>2018-07-19T17:17:23Z</time>
      </trkpt>
      <trkpt lat="45.327866" lon="6.834417">
        <ele>2401.240</ele>
        <time>2018-07-19T17:17:27Z</time>
      </trkpt>
      <trkpt lat="45.327894" lon="6.834361">
        <ele>2401.038</ele>
        <time>2018-07-19T17:17:31Z</time>
      </trkpt>
      <trkpt lat="45.327919" lon="6.834293">
        <ele>2400.137</ele>
        <time>2018-07-19T17:17:36Z</time>
      </trkpt>
      <trkpt lat="45.327946" lon="6.834240">
        <ele>2399.569</ele>
        <time>2018-07-19T17:17:40Z</time>
      </trkpt>
      <trkpt lat="45.327971" lon="6.834177">
        <ele>2399.204</ele>
        <time>2018-07-19T17:17:44Z</time>
      </trkpt>
      <trkpt lat="45.327999" lon="6.834110">
        <ele>2398.624</ele>
        <time>2018-07-19T17:17:48Z</time>
      </trkpt>
      <trkpt lat="45.328034" lon="6.834052">
        <ele>2398.208</ele>
        <time>2018-07-19T17:17:52Z</time>
      </trkpt>
      <trkpt lat="45.328076" lon="6.834006">
        <ele>2397.668</ele>
        <time>2018-07-19T17:17:56Z</time>
      </trkpt>
      <trkpt lat="45.328119" lon="6.833969">
        <ele>2397.283</ele>
        <time>2018-07-19T17:18:00Z</time>
      </trkpt>
      <trkpt lat="45.328164" lon="6.833939">
        <ele>2396.648</ele>
        <time>2018-07-19T17:18:04Z</time>
      </trkpt>
      <trkpt lat="45.328209" lon="6.833911">
        <ele>2396.273</ele>
        <time>2018-07-19T17:18:08Z</time>
      </trkpt>
      <trkpt lat="45.328254" lon="6.833885">
        <ele>2396.028</ele>
        <time>2018-07-19T17:18:12Z</time>
      </trkpt>
      <trkpt lat="45.328298" lon="6.833867">
        <ele>2395.579</ele>
        <time>2018-07-19T17:18:16Z</time>
      </trkpt>
      <trkpt lat="45.328349" lon="6.833835">
        <ele>2394.827</ele>
        <time>2018-07-19T17:18:21Z</time>
      </trkpt>
      <trkpt lat="45.328394" lon="6.833812">
        <ele>2394.066</ele>
        <time>2018-07-19T17:18:25Z</time>
      </trkpt>
      <trkpt lat="45.328441" lon="6.833790">
        <ele>2393.573</ele>
        <time>2018-07-19T17:18:29Z</time>
      </trkpt>
      <trkpt lat="45.328489" lon="6.833772">
        <ele>2392.885</ele>
        <time>2018-07-19T17:18:33Z</time>
      </trkpt>
      <trkpt lat="45.328539" lon="6.833744">
        <ele>2392.413</ele>
        <time>2018-07-19T17:18:37Z</time>
      </trkpt>
      <trkpt lat="45.328592" lon="6.833714">
        <ele>2391.708</ele>
        <time>2018-07-19T17:18:41Z</time>
      </trkpt>
      <trkpt lat="45.328642" lon="6.833683">
        <ele>2390.949</ele>
        <time>2018-07-19T17:18:45Z</time>
      </trkpt>
      <trkpt lat="45.328690" lon="6.833646">
        <ele>2390.494</ele>
        <time>2018-07-19T17:18:49Z</time>
      </trkpt>
      <trkpt lat="45.328737" lon="6.833614">
        <ele>2390.179</ele>
        <time>2018-07-19T17:18:53Z</time>
      </trkpt>
      <trkpt lat="45.328788" lon="6.833583">
        <ele>2389.554</ele>
        <time>2018-07-19T17:18:57Z</time>
      </trkpt>
      <trkpt lat="45.328838" lon="6.833550">
        <ele>2388.859</ele>
        <time>2018-07-19T17:19:01Z</time>
      </trkpt>
      <trkpt lat="45.328890" lon="6.833515">
        <ele>2388.050</ele>
        <time>2018-07-19T17:19:05Z</time>
      </trkpt>
      <trkpt lat="45.328939" lon="6.833482">
        <ele>2387.598</ele>
        <time>2018-07-19T17:19:09Z</time>
      </trkpt>
      <trkpt lat="45.328984" lon="6.833450">
        <ele>2386.827</ele>
        <time>2018-07-19T17:19:13Z</time>
      </trkpt>
      <trkpt lat="45.329028" lon="6.833413">
        <ele>2386.466</ele>
        <time>2018-07-19T17:19:17Z</time>
      </trkpt>
      <trkpt lat="45.329075" lon="6.833383">
        <ele>2386.129</ele>
        <time>2018-07-19T17:19:21Z</time>
      </trkpt>
      <trkpt lat="45.329124" lon="6.833352">
        <ele>2385.521</ele>
        <time>2018-07-19T17:19:25Z</time>
      </trkpt>
      <trkpt lat="45.329179" lon="6.833320">
        <ele>2384.808</ele>
        <time>2018-07-19T17:19:29Z</time>
      </trkpt>
      <trkpt lat="45.329228" lon="6.833287">
        <ele>2384.448</ele>
        <time>2018-07-19T17:19:33Z</time>
      </trkpt>
      <trkpt lat="45.329273" lon="6.833247">
        <ele>2384.163</ele>
        <time>2018-07-19T17:19:37Z</time>
      </trkpt>
      <trkpt lat="45.329314" lon="6.833205">
        <ele>2383.578</ele>
        <time>2018-07-19T17:19:41Z</time>
      </trkpt>
      <trkpt lat="45.329355" lon="6.833155">
        <ele>2383.273</ele>
        <time>2018-07-19T17:19:45Z</time>
      </trkpt>
      <trkpt lat="45.329384" lon="6.833093">
        <ele>2383.068</ele>
        <time>2018-07-19T17:19:49Z</time>
      </trkpt>
      <trkpt lat="45.329398" lon="6.833020">
        <ele>2382.939</ele>
        <time>2018-07-19T17:19:53Z</time>
      </trkpt>
      <trkpt lat="45.329402" lon="6.832952">
        <ele>2383.217</ele>
        <time>2018-07-19T17:19:56Z</time>
      </trkpt>
      <trkpt lat="45.329404" lon="6.832883">
        <ele>2383.886</ele>
        <time>2018-07-19T17:19:59Z</time>
      </trkpt>
      <trkpt lat="45.329401" lon="6.832798">
        <ele>2384.674</ele>
        <time>2018-07-19T17:20:03Z</time>
      </trkpt>
      <trkpt lat="45.329396" lon="6.832715">
        <ele>2385.156</ele>
        <time>2018-07-19T17:20:07Z</time>
      </trkpt>
      <trkpt lat="45.329397" lon="6.832635">
        <ele>2385.421</ele>
        <time>2018-07-19T17:20:11Z</time>
      </trkpt>
      <trkpt lat="45.329389" lon="6.832563">
        <ele>2385.608</ele>
        <time>2018-07-19T17:20:15Z</time>
      </trkpt>
      <trkpt lat="45.329382" lon="6.832492">
        <ele>2386.199</ele>
        <time>2018-07-19T17:20:19Z</time>
      </trkpt>
      <trkpt lat="45.329374" lon="6.832417">
        <ele>2386.414</ele>
        <time>2018-07-19T17:20:23Z</time>
      </trkpt>
      <trkpt lat="45.329365" lon="6.832345">
        <ele>2386.679</ele>
        <time>2018-07-19T17:20:27Z</time>
      </trkpt>
      <trkpt lat="45.329354" lon="6.832273">
        <ele>2386.314</ele>
        <time>2018-07-19T17:20:31Z</time>
      </trkpt>
      <trkpt lat="45.329348" lon="6.832199">
        <ele>2386.129</ele>
        <time>2018-07-19T17:20:35Z</time>
      </trkpt>
      <trkpt lat="45.329345" lon="6.832118">
        <ele>2386.030</ele>
        <time>2018-07-19T17:20:39Z</time>
      </trkpt>
      <trkpt lat="45.329358" lon="6.832042">
        <ele>2385.978</ele>
        <time>2018-07-19T17:20:43Z</time>
      </trkpt>
      <trkpt lat="45.329398" lon="6.831990">
        <ele>2385.547</ele>
        <time>2018-07-19T17:20:47Z</time>
      </trkpt>
      <trkpt lat="45.329450" lon="6.831969">
        <ele>2384.428</ele>
        <time>2018-07-19T17:20:51Z</time>
      </trkpt>
      <trkpt lat="45.329505" lon="6.831962">
        <ele>2383.889</ele>
        <time>2018-07-19T17:20:55Z</time>
      </trkpt>
      <trkpt lat="45.329559" lon="6.831950">
        <ele>2382.617</ele>
        <time>2018-07-19T17:20:59Z</time>
      </trkpt>
      <trkpt lat="45.329609" lon="6.831926">
        <ele>2381.508</ele>
        <time>2018-07-19T17:21:03Z</time>
      </trkpt>
      <trkpt lat="45.329646" lon="6.831874">
        <ele>2380.484</ele>
        <time>2018-07-19T17:21:07Z</time>
      </trkpt>
      <trkpt lat="45.329668" lon="6.831804">
        <ele>2379.869</ele>
        <time>2018-07-19T17:21:11Z</time>
      </trkpt>
      <trkpt lat="45.329672" lon="6.831732">
        <ele>2379.474</ele>
        <time>2018-07-19T17:21:15Z</time>
      </trkpt>
      <trkpt lat="45.329664" lon="6.831656">
        <ele>2379.259</ele>
        <time>2018-07-19T17:21:19Z</time>
      </trkpt>
      <trkpt lat="45.329651" lon="6.831586">
        <ele>2378.774</ele>
        <time>2018-07-19T17:21:23Z</time>
      </trkpt>
      <trkpt lat="45.329644" lon="6.831518">
        <ele>2378.415</ele>
        <time>2018-07-19T17:21:27Z</time>
      </trkpt>
      <trkpt lat="45.329639" lon="6.831447">
        <ele>2378.223</ele>
        <time>2018-07-19T17:21:31Z</time>
      </trkpt>
      <trkpt lat="45.329640" lon="6.831373">
        <ele>2377.772</ele>
        <time>2018-07-19T17:21:35Z</time>
      </trkpt>
      <trkpt lat="45.329643" lon="6.831297">
        <ele>2377.438</ele>
        <time>2018-07-19T17:21:39Z</time>
      </trkpt>
      <trkpt lat="45.329651" lon="6.831219">
        <ele>2376.870</ele>
        <time>2018-07-19T17:21:43Z</time>
      </trkpt>
      <trkpt lat="45.329655" lon="6.831141">
        <ele>2376.017</ele>
        <time>2018-07-19T17:21:47Z</time>
      </trkpt>
      <trkpt lat="45.329660" lon="6.831062">
        <ele>2375.508</ele>
        <time>2018-07-19T17:21:51Z</time>
      </trkpt>
      <trkpt lat="45.329669" lon="6.830981">
        <ele>2374.835</ele>
        <time>2018-07-19T17:21:55Z</time>
      </trkpt>
      <trkpt lat="45.329672" lon="6.830905">
        <ele>2374.050</ele>
        <time>2018-07-19T17:21:59Z</time>
      </trkpt>
      <trkpt lat="45.329681" lon="6.830831">
        <ele>2373.155</ele>
        <time>2018-07-19T17:22:03Z</time>
      </trkpt>
      <trkpt lat="45.329697" lon="6.830755">
        <ele>2372.650</ele>
        <time>2018-07-19T17:22:07Z</time>
      </trkpt>
      <trkpt lat="45.329710" lon="6.830677">
        <ele>2372.735</ele>
        <time>2018-07-19T17:22:11Z</time>
      </trkpt>
      <trkpt lat="45.329719" lon="6.830603">
        <ele>2372.716</ele>
        <time>2018-07-19T17:22:15Z</time>
      </trkpt>
      <trkpt lat="45.329727" lon="6.830530">
        <ele>2372.744</ele>
        <time>2018-07-19T17:22:19Z</time>
      </trkpt>
      <trkpt lat="45.329731" lon="6.830457">
        <ele>2372.773</ele>
        <time>2018-07-19T17:22:23Z</time>
      </trkpt>
      <trkpt lat="45.329729" lon="6.830386">
        <ele>2372.378</ele>
        <time>2018-07-19T17:22:27Z</time>
      </trkpt>
      <trkpt lat="45.329723" lon="6.830315">
        <ele>2372.133</ele>
        <time>2018-07-19T17:22:31Z</time>
      </trkpt>
      <trkpt lat="45.329714" lon="6.830247">
        <ele>2371.626</ele>
        <time>2018-07-19T17:22:35Z</time>
      </trkpt>
      <trkpt lat="45.329696" lon="6.830179">
        <ele>2371.308</ele>
        <time>2018-07-19T17:22:39Z</time>
      </trkpt>
      <trkpt lat="45.329687" lon="6.830111">
        <ele>2371.139</ele>
        <time>2018-07-19T17:22:43Z</time>
      </trkpt>
      <trkpt lat="45.329679" lon="6.830040">
        <ele>2370.624</ele>
        <time>2018-07-19T17:22:47Z</time>
      </trkpt>
      <trkpt lat="45.329668" lon="6.829971">
        <ele>2370.749</ele>
        <time>2018-07-19T17:22:51Z</time>
      </trkpt>
      <trkpt lat="45.329655" lon="6.829906">
        <ele>2370.874</ele>
        <time>2018-07-19T17:22:55Z</time>
      </trkpt>
      <trkpt lat="45.329646" lon="6.829830">
        <ele>2370.829</ele>
        <time>2018-07-19T17:23:00Z</time>
      </trkpt>
      <trkpt lat="45.329637" lon="6.829758">
        <ele>2370.050</ele>
        <time>2018-07-19T17:23:11Z</time>
      </trkpt>
      <trkpt lat="45.329621" lon="6.829691">
        <ele>2369.978</ele>
        <time>2018-07-19T17:23:56Z</time>
      </trkpt>
      <trkpt lat="45.329624" lon="6.829620">
        <ele>2369.567</ele>
        <time>2018-07-19T17:24:01Z</time>
      </trkpt>
      <trkpt lat="45.329607" lon="6.829559">
        <ele>2370.012</ele>
        <time>2018-07-19T17:24:11Z</time>
      </trkpt>
      <trkpt lat="45.329612" lon="6.829480">
        <ele>2370.332</ele>
        <time>2018-07-19T17:24:17Z</time>
      </trkpt>
      <trkpt lat="45.329607" lon="6.829409">
        <ele>2370.105</ele>
        <time>2018-07-19T17:24:21Z</time>
      </trkpt>
      <trkpt lat="45.329608" lon="6.829341">
        <ele>2370.008</ele>
        <time>2018-07-19T17:24:25Z</time>
      </trkpt>
      <trkpt lat="45.329602" lon="6.829278">
        <ele>2369.513</ele>
        <time>2018-07-19T17:24:29Z</time>
      </trkpt>
      <trkpt lat="45.329521" lon="6.829177">
        <ele>2324.481</ele>
        <time>2018-07-20T08:45:46Z</time>
      </trkpt>
      <trkpt lat="45.329566" lon="6.829160">
        <ele>2324.461</ele>
        <time>2018-07-20T08:46:18Z</time>
      </trkpt>
      <trkpt lat="45.329606" lon="6.829205">
        <ele>2324.417</ele>
        <time>2018-07-20T08:46:25Z</time>
      </trkpt>
      <trkpt lat="45.329657" lon="6.829219">
        <ele>2324.408</ele>
        <time>2018-07-20T08:46:57Z</time>
      </trkpt>
      <trkpt lat="45.329698" lon="6.829248">
        <ele>2324.410</ele>
        <time>2018-07-20T08:47:02Z</time>
      </trkpt>
      <trkpt lat="45.329748" lon="6.829279">
        <ele>2324.445</ele>
        <time>2018-07-20T08:47:07Z</time>
      </trkpt>
      <trkpt lat="45.329795" lon="6.829313">
        <ele>2324.462</ele>
        <time>2018-07-20T08:47:13Z</time>
      </trkpt>
      <trkpt lat="45.329838" lon="6.829344">
        <ele>2324.457</ele>
        <time>2018-07-20T08:47:19Z</time>
      </trkpt>
      <trkpt lat="45.329882" lon="6.829377">
        <ele>2324.471</ele>
        <time>2018-07-20T08:47:25Z</time>
      </trkpt>
      <trkpt lat="45.329926" lon="6.829395">
        <ele>2324.414</ele>
        <time>2018-07-20T08:47:30Z</time>
      </trkpt>
      <trkpt lat="45.329970" lon="6.829410">
        <ele>2324.456</ele>
        <time>2018-07-20T08:47:35Z</time>
      </trkpt>
      <trkpt lat="45.330016" lon="6.829419">
        <ele>2324.440</ele>
        <time>2018-07-20T08:47:50Z</time>
      </trkpt>
      <trkpt lat="45.330063" lon="6.829424">
        <ele>2324.451</ele>
        <time>2018-07-20T08:47:59Z</time>
      </trkpt>
      <trkpt lat="45.330101" lon="6.829386">
        <ele>2324.401</ele>
        <time>2018-07-20T08:48:08Z</time>
      </trkpt>
      <trkpt lat="45.330147" lon="6.829370">
        <ele>2324.411</ele>
        <time>2018-07-20T08:48:29Z</time>
      </trkpt>
      <trkpt lat="45.330194" lon="6.829366">
        <ele>2325.508</ele>
        <time>2018-07-20T08:48:37Z</time>
      </trkpt>
      <trkpt lat="45.330241" lon="6.829361">
        <ele>2327.097</ele>
        <time>2018-07-20T08:48:46Z</time>
      </trkpt>
      <trkpt lat="45.330286" lon="6.829343">
        <ele>2327.752</ele>
        <time>2018-07-20T08:48:54Z</time>
      </trkpt>
      <trkpt lat="45.330331" lon="6.829319">
        <ele>2328.849</ele>
        <time>2018-07-20T08:49:02Z</time>
      </trkpt>
      <trkpt lat="45.330378" lon="6.829308">
        <ele>2329.354</ele>
        <time>2018-07-20T08:49:12Z</time>
      </trkpt>
      <trkpt lat="45.330426" lon="6.829302">
        <ele>2330.158</ele>
        <time>2018-07-20T08:49:21Z</time>
      </trkpt>
      <trkpt lat="45.330472" lon="6.829292">
        <ele>2331.251</ele>
        <time>2018-07-20T08:49:29Z</time>
      </trkpt>
      <trkpt lat="45.330520" lon="6.829291">
        <ele>2332.123</ele>
        <time>2018-07-20T08:49:37Z</time>
      </trkpt>
      <trkpt lat="45.330565" lon="6.829292">
        <ele>2332.487</ele>
        <time>2018-07-20T08:49:44Z</time>
      </trkpt>
      <trkpt lat="45.330614" lon="6.829298">
        <ele>2334.153</ele>
        <time>2018-07-20T08:49:52Z</time>
      </trkpt>
      <trkpt lat="45.330651" lon="6.829335">
        <ele>2334.504</ele>
        <time>2018-07-20T08:50:14Z</time>
      </trkpt>
      <trkpt lat="45.330696" lon="6.829359">
        <ele>2335.714</ele>
        <time>2018-07-20T08:50:22Z</time>
      </trkpt>
      <trkpt lat="45.330742" lon="6.829387">
        <ele>2336.508</ele>
        <time>2018-07-20T08:50:30Z</time>
      </trkpt>
      <trkpt lat="45.330791" lon="6.829411">
        <ele>2337.167</ele>
        <time>2018-07-20T08:50:38Z</time>
      </trkpt>
      <trkpt lat="45.330834" lon="6.829436">
        <ele>2337.662</ele>
        <time>2018-07-20T08:50:45Z</time>
      </trkpt>
      <trkpt lat="45.330877" lon="6.829460">
        <ele>2338.259</ele>
        <time>2018-07-20T08:50:51Z</time>
      </trkpt>
      <trkpt lat="45.330923" lon="6.829482">
        <ele>2339.184</ele>
        <time>2018-07-20T08:50:57Z</time>
      </trkpt>
      <trkpt lat="45.330970" lon="6.829505">
        <ele>2340.028</ele>
        <time>2018-07-20T08:51:04Z</time>
      </trkpt>
      <trkpt lat="45.331015" lon="6.829518">
        <ele>2340.341</ele>
        <time>2018-07-20T08:51:11Z</time>
      </trkpt>
      <trkpt lat="45.331057" lon="6.829542">
        <ele>2341.423</ele>
        <time>2018-07-20T08:51:18Z</time>
      </trkpt>
      <trkpt lat="45.331096" lon="6.829576">
        <ele>2342.687</ele>
        <time>2018-07-20T08:51:26Z</time>
      </trkpt>
      <trkpt lat="45.331138" lon="6.829604">
        <ele>2344.174</ele>
        <time>2018-07-20T08:51:35Z</time>
      </trkpt>
      <trkpt lat="45.331187" lon="6.829620">
        <ele>2345.056</ele>
        <time>2018-07-20T08:51:45Z</time>
      </trkpt>
      <trkpt lat="45.331233" lon="6.829628">
        <ele>2346.421</ele>
        <time>2018-07-20T08:51:53Z</time>
      </trkpt>
      <trkpt lat="45.331281" lon="6.829639">
        <ele>2346.908</ele>
        <time>2018-07-20T08:52:01Z</time>
      </trkpt>
      <trkpt lat="45.331331" lon="6.829648">
        <ele>2347.849</ele>
        <time>2018-07-20T08:52:10Z</time>
      </trkpt>
      <trkpt lat="45.331380" lon="6.829660">
        <ele>2348.744</ele>
        <time>2018-07-20T08:52:17Z</time>
      </trkpt>
      <trkpt lat="45.331430" lon="6.829673">
        <ele>2349.811</ele>
        <time>2018-07-20T08:52:23Z</time>
      </trkpt>
      <trkpt lat="45.331476" lon="6.829685">
        <ele>2350.846</ele>
        <time>2018-07-20T08:52:29Z</time>
      </trkpt>
      <trkpt lat="45.331526" lon="6.829701">
        <ele>2351.770</ele>
        <time>2018-07-20T08:52:37Z</time>
      </trkpt>
      <trkpt lat="45.331571" lon="6.829731">
        <ele>2352.893</ele>
        <time>2018-07-20T08:52:46Z</time>
      </trkpt>
      <trkpt lat="45.331618" lon="6.829754">
        <ele>2353.935</ele>
        <time>2018-07-20T08:53:00Z</time>
      </trkpt>
      <trkpt lat="45.331663" lon="6.829730">
        <ele>2354.979</ele>
        <time>2018-07-20T08:53:07Z</time>
      </trkpt>
      <trkpt lat="45.331705" lon="6.829688">
        <ele>2357.661</ele>
        <time>2018-07-20T08:53:14Z</time>
      </trkpt>
      <trkpt lat="45.331747" lon="6.829662">
        <ele>2355.921</ele>
        <time>2018-07-20T08:53:22Z</time>
      </trkpt>
      <trkpt lat="45.331795" lon="6.829691">
        <ele>2356.113</ele>
        <time>2018-07-20T08:53:28Z</time>
      </trkpt>
      <trkpt lat="45.331844" lon="6.829715">
        <ele>2356.708</ele>
        <time>2018-07-20T08:53:34Z</time>
      </trkpt>
      <trkpt lat="45.331885" lon="6.829749">
        <ele>2356.868</ele>
        <time>2018-07-20T08:53:39Z</time>
      </trkpt>
      <trkpt lat="45.331931" lon="6.829776">
        <ele>2357.083</ele>
        <time>2018-07-20T08:53:44Z</time>
      </trkpt>
      <trkpt lat="45.331975" lon="6.829804">
        <ele>2357.330</ele>
        <time>2018-07-20T08:53:49Z</time>
      </trkpt>
      <trkpt lat="45.332021" lon="6.829823">
        <ele>2357.645</ele>
        <time>2018-07-20T08:53:54Z</time>
      </trkpt>
      <trkpt lat="45.332063" lon="6.829853">
        <ele>2357.969</ele>
        <time>2018-07-20T08:53:59Z</time>
      </trkpt>
      <trkpt lat="45.332105" lon="6.829883">
        <ele>2358.582</ele>
        <time>2018-07-20T08:54:04Z</time>
      </trkpt>
      <trkpt lat="45.332154" lon="6.829915">
        <ele>2358.614</ele>
        <time>2018-07-20T08:54:09Z</time>
      </trkpt>
      <trkpt lat="45.332195" lon="6.829945">
        <ele>2358.388</ele>
        <time>2018-07-20T08:54:13Z</time>
      </trkpt>
      <trkpt lat="45.332241" lon="6.829971">
        <ele>2358.667</ele>
        <time>2018-07-20T08:54:18Z</time>
      </trkpt>
      <trkpt lat="45.332289" lon="6.830005">
        <ele>2359.581</ele>
        <time>2018-07-20T08:54:24Z</time>
      </trkpt>
      <trkpt lat="45.332339" lon="6.830039">
        <ele>2359.519</ele>
        <time>2018-07-20T08:54:29Z</time>
      </trkpt>
      <trkpt lat="45.332386" lon="6.830063">
        <ele>2360.608</ele>
        <time>2018-07-20T08:54:33Z</time>
      </trkpt>
      <trkpt lat="45.332435" lon="6.830082">
        <ele>2360.768</ele>
        <time>2018-07-20T08:54:38Z</time>
      </trkpt>
      <trkpt lat="45.332484" lon="6.830097">
        <ele>2361.433</ele>
        <time>2018-07-20T08:54:43Z</time>
      </trkpt>
      <trkpt lat="45.332530" lon="6.830125">
        <ele>2361.750</ele>
        <time>2018-07-20T08:54:48Z</time>
      </trkpt>
      <trkpt lat="45.332538" lon="6.830179">
        <ele>2365.915</ele>
        <time>2018-07-20T08:57:46Z</time>
      </trkpt>
      <trkpt lat="45.332575" lon="6.830217">
        <ele>2381.199</ele>
        <time>2018-07-20T08:57:50Z</time>
      </trkpt>
      <trkpt lat="45.332603" lon="6.830282">
        <ele>2399.062</ele>
        <time>2018-07-20T08:57:55Z</time>
      </trkpt>
      <trkpt lat="45.332642" lon="6.830321">
        <ele>2414.954</ele>
        <time>2018-07-20T08:58:00Z</time>
      </trkpt>
      <trkpt lat="45.332673" lon="6.830381">
        <ele>2416.178</ele>
        <time>2018-07-20T08:58:06Z</time>
      </trkpt>
      <trkpt lat="45.332703" lon="6.830434">
        <ele>2416.741</ele>
        <time>2018-07-20T08:58:11Z</time>
      </trkpt>
      <trkpt lat="45.332714" lon="6.830501">
        <ele>2416.781</ele>
        <time>2018-07-20T08:58:16Z</time>
      </trkpt>
      <trkpt lat="45.332729" lon="6.830578">
        <ele>2416.709</ele>
        <time>2018-07-20T08:58:21Z</time>
      </trkpt>
      <trkpt lat="45.332754" lon="6.830634">
        <ele>2417.108</ele>
        <time>2018-07-20T08:58:25Z</time>
      </trkpt>
      <trkpt lat="45.332790" lon="6.830692">
        <ele>2417.336</ele>
        <time>2018-07-20T08:58:30Z</time>
      </trkpt>
      <trkpt lat="45.332831" lon="6.830745">
        <ele>2417.831</ele>
        <time>2018-07-20T08:58:35Z</time>
      </trkpt>
      <trkpt lat="45.332869" lon="6.830792">
        <ele>2418.158</ele>
        <time>2018-07-20T08:58:40Z</time>
      </trkpt>
      <trkpt lat="45.332903" lon="6.830839">
        <ele>2418.363</ele>
        <time>2018-07-20T08:58:45Z</time>
      </trkpt>
      <trkpt lat="45.332944" lon="6.830884">
        <ele>2418.047</ele>
        <time>2018-07-20T08:58:50Z</time>
      </trkpt>
      <trkpt lat="45.332990" lon="6.830915">
        <ele>2417.880</ele>
        <time>2018-07-20T08:58:55Z</time>
      </trkpt>
      <trkpt lat="45.333035" lon="6.830940">
        <ele>2417.782</ele>
        <time>2018-07-20T08:59:00Z</time>
      </trkpt>
      <trkpt lat="45.333078" lon="6.830960">
        <ele>2417.286</ele>
        <time>2018-07-20T08:59:05Z</time>
      </trkpt>
      <trkpt lat="45.333127" lon="6.830981">
        <ele>2416.915</ele>
        <time>2018-07-20T08:59:10Z</time>
      </trkpt>
      <trkpt lat="45.333177" lon="6.831006">
        <ele>2416.365</ele>
        <time>2018-07-20T08:59:15Z</time>
      </trkpt>
      <trkpt lat="45.333225" lon="6.831029">
        <ele>2416.011</ele>
        <time>2018-07-20T08:59:20Z</time>
      </trkpt>
      <trkpt lat="45.333275" lon="6.831042">
        <ele>2415.808</ele>
        <time>2018-07-20T08:59:25Z</time>
      </trkpt>
      <trkpt lat="45.333321" lon="6.831060">
        <ele>2415.373</ele>
        <time>2018-07-20T08:59:30Z</time>
      </trkpt>
      <trkpt lat="45.333370" lon="6.831080">
        <ele>2415.418</ele>
        <time>2018-07-20T08:59:35Z</time>
      </trkpt>
      <trkpt lat="45.333419" lon="6.831106">
        <ele>2415.945</ele>
        <time>2018-07-20T08:59:40Z</time>
      </trkpt>
      <trkpt lat="45.333470" lon="6.831135">
        <ele>2416.270</ele>
        <time>2018-07-20T08:59:45Z</time>
      </trkpt>
      <trkpt lat="45.333515" lon="6.831151">
        <ele>2416.054</ele>
        <time>2018-07-20T08:59:49Z</time>
      </trkpt>
      <trkpt lat="45.333568" lon="6.831171">
        <ele>2416.377</ele>
        <time>2018-07-20T08:59:54Z</time>
      </trkpt>
      <trkpt lat="45.333618" lon="6.831183">
        <ele>2416.549</ele>
        <time>2018-07-20T08:59:59Z</time>
      </trkpt>
      <trkpt lat="45.333665" lon="6.831198">
        <ele>2416.693</ele>
        <time>2018-07-20T09:00:04Z</time>
      </trkpt>
      <trkpt lat="45.333712" lon="6.831215">
        <ele>2416.797</ele>
        <time>2018-07-20T09:00:09Z</time>
      </trkpt>
      <trkpt lat="45.333765" lon="6.831228">
        <ele>2416.723</ele>
        <time>2018-07-20T09:00:14Z</time>
      </trkpt>
      <trkpt lat="45.333810" lon="6.831240">
        <ele>2416.725</ele>
        <time>2018-07-20T09:00:18Z</time>
      </trkpt>
      <trkpt lat="45.333856" lon="6.831253">
        <ele>2416.708</ele>
        <time>2018-07-20T09:00:22Z</time>
      </trkpt>
      <trkpt lat="45.333901" lon="6.831262">
        <ele>2417.181</ele>
        <time>2018-07-20T09:00:26Z</time>
      </trkpt>
      <trkpt lat="45.333955" lon="6.831275">
        <ele>2416.986</ele>
        <time>2018-07-20T09:00:31Z</time>
      </trkpt>
      <trkpt lat="45.334007" lon="6.831292">
        <ele>2417.263</ele>
        <time>2018-07-20T09:00:36Z</time>
      </trkpt>
      <trkpt lat="45.334058" lon="6.831307">
        <ele>2417.058</ele>
        <time>2018-07-20T09:00:41Z</time>
      </trkpt>
      <trkpt lat="45.334111" lon="6.831311">
        <ele>2417.372</ele>
        <time>2018-07-20T09:00:46Z</time>
      </trkpt>
      <trkpt lat="45.334161" lon="6.831307">
        <ele>2417.565</ele>
        <time>2018-07-20T09:00:51Z</time>
      </trkpt>
      <trkpt lat="45.334217" lon="6.831300">
        <ele>2417.677</ele>
        <time>2018-07-20T09:00:56Z</time>
      </trkpt>
      <trkpt lat="45.334270" lon="6.831291">
        <ele>2417.721</ele>
        <time>2018-07-20T09:01:01Z</time>
      </trkpt>
      <trkpt lat="45.334322" lon="6.831294">
        <ele>2418.174</ele>
        <time>2018-07-20T09:01:06Z</time>
      </trkpt>
      <trkpt lat="45.334374" lon="6.831303">
        <ele>2418.856</ele>
        <time>2018-07-20T09:01:11Z</time>
      </trkpt>
      <trkpt lat="45.334426" lon="6.831314">
        <ele>2419.621</ele>
        <time>2018-07-20T09:01:16Z</time>
      </trkpt>
      <trkpt lat="45.334480" lon="6.831310">
        <ele>2420.508</ele>
        <time>2018-07-20T09:01:21Z</time>
      </trkpt>
      <trkpt lat="45.334525" lon="6.831315">
        <ele>2420.659</ele>
        <time>2018-07-20T09:01:25Z</time>
      </trkpt>
      <trkpt lat="45.334571" lon="6.831329">
        <ele>2420.784</ele>
        <time>2018-07-20T09:01:29Z</time>
      </trkpt>
      <trkpt lat="45.334627" lon="6.831342">
        <ele>2420.781</ele>
        <time>2018-07-20T09:01:34Z</time>
      </trkpt>
      <trkpt lat="45.334673" lon="6.831353">
        <ele>2420.786</ele>
        <time>2018-07-20T09:01:38Z</time>
      </trkpt>
      <trkpt lat="45.334724" lon="6.831364">
        <ele>2421.130</ele>
        <time>2018-07-20T09:01:43Z</time>
      </trkpt>
      <trkpt lat="45.334773" lon="6.831381">
        <ele>2421.373</ele>
        <time>2018-07-20T09:01:48Z</time>
      </trkpt>
      <trkpt lat="45.334825" lon="6.831395">
        <ele>2421.495</ele>
        <time>2018-07-20T09:01:53Z</time>
      </trkpt>
      <trkpt lat="45.334877" lon="6.831399">
        <ele>2421.989</ele>
        <time>2018-07-20T09:01:58Z</time>
      </trkpt>
      <trkpt lat="45.334927" lon="6.831406">
        <ele>2421.461</ele>
        <time>2018-07-20T09:02:03Z</time>
      </trkpt>
      <trkpt lat="45.334972" lon="6.831433">
        <ele>2421.521</ele>
        <time>2018-07-20T09:03:02Z</time>
      </trkpt>
      <trkpt lat="45.335013" lon="6.831463">
        <ele>2421.213</ele>
        <time>2018-07-20T09:03:07Z</time>
      </trkpt>
      <trkpt lat="45.335063" lon="6.831495">
        <ele>2421.008</ele>
        <time>2018-07-20T09:03:12Z</time>
      </trkpt>
      <trkpt lat="45.335110" lon="6.831495">
        <ele>2420.998</ele>
        <time>2018-07-20T09:03:16Z</time>
      </trkpt>
      <trkpt lat="45.335157" lon="6.831488">
        <ele>2420.873</ele>
        <time>2018-07-20T09:03:20Z</time>
      </trkpt>
      <trkpt lat="45.335206" lon="6.831481">
        <ele>2420.860</ele>
        <time>2018-07-20T09:03:24Z</time>
      </trkpt>
      <trkpt lat="45.335255" lon="6.831482">
        <ele>2420.835</ele>
        <time>2018-07-20T09:03:28Z</time>
      </trkpt>
      <trkpt lat="45.335300" lon="6.831480">
        <ele>2421.289</ele>
        <time>2018-07-20T09:03:32Z</time>
      </trkpt>
      <trkpt lat="45.335347" lon="6.831485">
        <ele>2421.892</ele>
        <time>2018-07-20T09:03:36Z</time>
      </trkpt>
      <trkpt lat="45.335399" lon="6.831513">
        <ele>2422.254</ele>
        <time>2018-07-20T09:03:41Z</time>
      </trkpt>
      <trkpt lat="45.335446" lon="6.831535">
        <ele>2422.458</ele>
        <time>2018-07-20T09:03:45Z</time>
      </trkpt>
      <trkpt lat="45.335492" lon="6.831562">
        <ele>2422.596</ele>
        <time>2018-07-20T09:03:49Z</time>
      </trkpt>
      <trkpt lat="45.335544" lon="6.831591">
        <ele>2422.631</ele>
        <time>2018-07-20T09:03:54Z</time>
      </trkpt>
      <trkpt lat="45.335589" lon="6.831616">
        <ele>2423.024</ele>
        <time>2018-07-20T09:04:11Z</time>
      </trkpt>
      <trkpt lat="45.335629" lon="6.831664">
        <ele>2422.908</ele>
        <time>2018-07-20T09:04:17Z</time>
      </trkpt>
      <trkpt lat="45.335666" lon="6.831709">
        <ele>2422.451</ele>
        <time>2018-07-20T09:04:21Z</time>
      </trkpt>
      <trkpt lat="45.335705" lon="6.831749">
        <ele>2422.136</ele>
        <time>2018-07-20T09:04:25Z</time>
      </trkpt>
      <trkpt lat="45.335747" lon="6.831778">
        <ele>2421.983</ele>
        <time>2018-07-20T09:04:29Z</time>
      </trkpt>
      <trkpt lat="45.335795" lon="6.831812">
        <ele>2421.868</ele>
        <time>2018-07-20T09:04:34Z</time>
      </trkpt>
      <trkpt lat="45.335838" lon="6.831836">
        <ele>2422.172</ele>
        <time>2018-07-20T09:04:38Z</time>
      </trkpt>
      <trkpt lat="45.335883" lon="6.831863">
        <ele>2422.335</ele>
        <time>2018-07-20T09:04:42Z</time>
      </trkpt>
      <trkpt lat="45.335927" lon="6.831893">
        <ele>2422.447</ele>
        <time>2018-07-20T09:04:46Z</time>
      </trkpt>
      <trkpt lat="45.335974" lon="6.831918">
        <ele>2422.521</ele>
        <time>2018-07-20T09:04:51Z</time>
      </trkpt>
      <trkpt lat="45.336023" lon="6.831944">
        <ele>2422.951</ele>
        <time>2018-07-20T09:04:58Z</time>
      </trkpt>
      <trkpt lat="45.336069" lon="6.831971">
        <ele>2422.801</ele>
        <time>2018-07-20T09:05:04Z</time>
      </trkpt>
      <trkpt lat="45.336116" lon="6.832004">
        <ele>2423.111</ele>
        <time>2018-07-20T09:05:10Z</time>
      </trkpt>
      <trkpt lat="45.336156" lon="6.832049">
        <ele>2423.708</ele>
        <time>2018-07-20T09:05:15Z</time>
      </trkpt>
      <trkpt lat="45.336193" lon="6.832096">
        <ele>2424.167</ele>
        <time>2018-07-20T09:05:20Z</time>
      </trkpt>
      <trkpt lat="45.336226" lon="6.832142">
        <ele>2424.732</ele>
        <time>2018-07-20T09:05:25Z</time>
      </trkpt>
      <trkpt lat="45.336266" lon="6.832177">
        <ele>2425.149</ele>
        <time>2018-07-20T09:05:30Z</time>
      </trkpt>
      <trkpt lat="45.336309" lon="6.832211">
        <ele>2425.734</ele>
        <time>2018-07-20T09:05:35Z</time>
      </trkpt>
      <trkpt lat="45.336348" lon="6.832246">
        <ele>2426.188</ele>
        <time>2018-07-20T09:05:45Z</time>
      </trkpt>
      <trkpt lat="45.336401" lon="6.832253">
        <ele>2426.321</ele>
        <time>2018-07-20T09:05:51Z</time>
      </trkpt>
      <trkpt lat="45.336453" lon="6.832248">
        <ele>2426.013</ele>
        <time>2018-07-20T09:05:56Z</time>
      </trkpt>
      <trkpt lat="45.336499" lon="6.832259">
        <ele>2425.467</ele>
        <time>2018-07-20T09:06:00Z</time>
      </trkpt>
      <trkpt lat="45.336542" lon="6.832280">
        <ele>2425.158</ele>
        <time>2018-07-20T09:06:04Z</time>
      </trkpt>
      <trkpt lat="45.336592" lon="6.832304">
        <ele>2424.552</ele>
        <time>2018-07-20T09:06:09Z</time>
      </trkpt>
      <trkpt lat="45.336643" lon="6.832334">
        <ele>2424.117</ele>
        <time>2018-07-20T09:06:14Z</time>
      </trkpt>
      <trkpt lat="45.336683" lon="6.832369">
        <ele>2423.508</ele>
        <time>2018-07-20T09:06:18Z</time>
      </trkpt>
      <trkpt lat="45.336721" lon="6.832409">
        <ele>2423.137</ele>
        <time>2018-07-20T09:06:22Z</time>
      </trkpt>
      <trkpt lat="45.336764" lon="6.832447">
        <ele>2422.582</ele>
        <time>2018-07-20T09:06:26Z</time>
      </trkpt>
      <trkpt lat="45.336808" lon="6.832476">
        <ele>2422.129</ele>
        <time>2018-07-20T09:06:30Z</time>
      </trkpt>
      <trkpt lat="45.336851" lon="6.832506">
        <ele>2422.394</ele>
        <time>2018-07-20T09:06:34Z</time>
      </trkpt>
      <trkpt lat="45.336895" lon="6.832531">
        <ele>2422.028</ele>
        <time>2018-07-20T09:06:38Z</time>
      </trkpt>
      <trkpt lat="45.336937" lon="6.832556">
        <ele>2421.831</ele>
        <time>2018-07-20T09:06:42Z</time>
      </trkpt>
      <trkpt lat="45.336987" lon="6.832585">
        <ele>2421.793</ele>
        <time>2018-07-20T09:06:47Z</time>
      </trkpt>
      <trkpt lat="45.337031" lon="6.832603">
        <ele>2421.687</ele>
        <time>2018-07-20T09:06:51Z</time>
      </trkpt>
      <trkpt lat="45.337075" lon="6.832630">
        <ele>2421.616</ele>
        <time>2018-07-20T09:06:55Z</time>
      </trkpt>
      <trkpt lat="45.337118" lon="6.832660">
        <ele>2421.676</ele>
        <time>2018-07-20T09:06:59Z</time>
      </trkpt>
      <trkpt lat="45.337161" lon="6.832691">
        <ele>2421.613</ele>
        <time>2018-07-20T09:07:03Z</time>
      </trkpt>
      <trkpt lat="45.337204" lon="6.832717">
        <ele>2421.608</ele>
        <time>2018-07-20T09:07:07Z</time>
      </trkpt>
      <trkpt lat="45.337249" lon="6.832747">
        <ele>2421.673</ele>
        <time>2018-07-20T09:07:11Z</time>
      </trkpt>
      <trkpt lat="45.337289" lon="6.832780">
        <ele>2421.228</ele>
        <time>2018-07-20T09:07:15Z</time>
      </trkpt>
      <trkpt lat="45.337329" lon="6.832810">
        <ele>2421.015</ele>
        <time>2018-07-20T09:07:19Z</time>
      </trkpt>
      <trkpt lat="45.337372" lon="6.832835">
        <ele>2420.920</ele>
        <time>2018-07-20T09:07:23Z</time>
      </trkpt>
      <trkpt lat="45.337418" lon="6.832856">
        <ele>2421.274</ele>
        <time>2018-07-20T09:07:27Z</time>
      </trkpt>
      <trkpt lat="45.337469" lon="6.832886">
        <ele>2421.817</ele>
        <time>2018-07-20T09:07:32Z</time>
      </trkpt>
      <trkpt lat="45.337517" lon="6.832901">
        <ele>2422.279</ele>
        <time>2018-07-20T09:07:38Z</time>
      </trkpt>
      <trkpt lat="45.337564" lon="6.832915">
        <ele>2422.423</ele>
        <time>2018-07-20T09:07:43Z</time>
      </trkpt>
      <trkpt lat="45.337611" lon="6.832937">
        <ele>2422.146</ele>
        <time>2018-07-20T09:07:49Z</time>
      </trkpt>
      <trkpt lat="45.337658" lon="6.832956">
        <ele>2422.388</ele>
        <time>2018-07-20T09:07:55Z</time>
      </trkpt>
      <trkpt lat="45.337705" lon="6.832963">
        <ele>2422.816</ele>
        <time>2018-07-20T09:08:01Z</time>
      </trkpt>
      <trkpt lat="45.337748" lon="6.832990">
        <ele>2423.108</ele>
        <time>2018-07-20T09:08:07Z</time>
      </trkpt>
      <trkpt lat="45.337790" lon="6.833019">
        <ele>2422.946</ele>
        <time>2018-07-20T09:08:12Z</time>
      </trkpt>
      <trkpt lat="45.337835" lon="6.833049">
        <ele>2422.831</ele>
        <time>2018-07-20T09:08:17Z</time>
      </trkpt>
      <trkpt lat="45.337878" lon="6.833092">
        <ele>2422.738</ele>
        <time>2018-07-20T09:08:22Z</time>
      </trkpt>
      <trkpt lat="45.337916" lon="6.833139">
        <ele>2422.743</ele>
        <time>2018-07-20T09:08:27Z</time>
      </trkpt>
      <trkpt lat="45.337956" lon="6.833191">
        <ele>2422.747</ele>
        <time>2018-07-20T09:08:32Z</time>
      </trkpt>
      <trkpt lat="45.338000" lon="6.833232">
        <ele>2421.910</ele>
        <time>2018-07-20T09:08:37Z</time>
      </trkpt>
      <trkpt lat="45.338044" lon="6.833272">
        <ele>2421.462</ele>
        <time>2018-07-20T09:08:42Z</time>
      </trkpt>
      <trkpt lat="45.338094" lon="6.833304">
        <ele>2421.566</ele>
        <time>2018-07-20T09:08:47Z</time>
      </trkpt>
      <trkpt lat="45.338143" lon="6.833340">
        <ele>2421.647</ele>
        <time>2018-07-20T09:08:52Z</time>
      </trkpt>
      <trkpt lat="45.338185" lon="6.833381">
        <ele>2421.629</ele>
        <time>2018-07-20T09:08:57Z</time>
      </trkpt>
      <trkpt lat="45.338232" lon="6.833415">
        <ele>2422.421</ele>
        <time>2018-07-20T09:09:03Z</time>
      </trkpt>
      <trkpt lat="45.338268" lon="6.833456">
        <ele>2422.908</ele>
        <time>2018-07-20T09:09:08Z</time>
      </trkpt>
      <trkpt lat="45.338318" lon="6.833484">
        <ele>2423.286</ele>
        <time>2018-07-20T09:09:14Z</time>
      </trkpt>
      <trkpt lat="45.338365" lon="6.833503">
        <ele>2423.471</ele>
        <time>2018-07-20T09:09:34Z</time>
      </trkpt>
      <trkpt lat="45.338416" lon="6.833518">
        <ele>2423.558</ele>
        <time>2018-07-20T09:09:40Z</time>
      </trkpt>
      <trkpt lat="45.338464" lon="6.833536">
        <ele>2423.623</ele>
        <time>2018-07-20T09:09:45Z</time>
      </trkpt>
      <trkpt lat="45.338516" lon="6.833562">
        <ele>2423.687</ele>
        <time>2018-07-20T09:09:50Z</time>
      </trkpt>
      <trkpt lat="45.338551" lon="6.833603">
        <ele>2423.640</ele>
        <time>2018-07-20T09:09:54Z</time>
      </trkpt>
      <trkpt lat="45.338583" lon="6.833650">
        <ele>2423.672</ele>
        <time>2018-07-20T09:09:58Z</time>
      </trkpt>
      <trkpt lat="45.338627" lon="6.833684">
        <ele>2423.286</ele>
        <time>2018-07-20T09:10:03Z</time>
      </trkpt>
      <trkpt lat="45.338681" lon="6.833691">
        <ele>2422.697</ele>
        <time>2018-07-20T09:10:08Z</time>
      </trkpt>
      <trkpt lat="45.338733" lon="6.833687">
        <ele>2422.223</ele>
        <time>2018-07-20T09:10:13Z</time>
      </trkpt>
      <trkpt lat="45.338786" lon="6.833688">
        <ele>2422.025</ele>
        <time>2018-07-20T09:10:18Z</time>
      </trkpt>
      <trkpt lat="45.338842" lon="6.833694">
        <ele>2421.508</ele>
        <time>2018-07-20T09:10:23Z</time>
      </trkpt>
      <trkpt lat="45.338890" lon="6.833698">
        <ele>2421.271</ele>
        <time>2018-07-20T09:10:27Z</time>
      </trkpt>
      <trkpt lat="45.338934" lon="6.833713">
        <ele>2421.486</ele>
        <time>2018-07-20T09:10:31Z</time>
      </trkpt>
      <trkpt lat="45.338979" lon="6.833727">
        <ele>2421.543</ele>
        <time>2018-07-20T09:10:35Z</time>
      </trkpt>
      <trkpt lat="45.339031" lon="6.833743">
        <ele>2422.068</ele>
        <time>2018-07-20T09:10:40Z</time>
      </trkpt>
      <trkpt lat="45.339075" lon="6.833770">
        <ele>2422.362</ele>
        <time>2018-07-20T09:10:45Z</time>
      </trkpt>
      <trkpt lat="45.339117" lon="6.833809">
        <ele>2422.515</ele>
        <time>2018-07-20T09:10:50Z</time>
      </trkpt>
      <trkpt lat="45.339154" lon="6.833859">
        <ele>2423.047</ele>
        <time>2018-07-20T09:10:55Z</time>
      </trkpt>
      <trkpt lat="45.339194" lon="6.833911">
        <ele>2422.931</ele>
        <time>2018-07-20T09:11:00Z</time>
      </trkpt>
      <trkpt lat="45.339241" lon="6.833948">
        <ele>2423.212</ele>
        <time>2018-07-20T09:11:05Z</time>
      </trkpt>
      <trkpt lat="45.339288" lon="6.833978">
        <ele>2423.432</ele>
        <time>2018-07-20T09:11:10Z</time>
      </trkpt>
      <trkpt lat="45.339335" lon="6.834011">
        <ele>2423.505</ele>
        <time>2018-07-20T09:11:15Z</time>
      </trkpt>
      <trkpt lat="45.339379" lon="6.834046">
        <ele>2424.008</ele>
        <time>2018-07-20T09:11:20Z</time>
      </trkpt>
      <trkpt lat="45.339422" lon="6.834082">
        <ele>2424.773</ele>
        <time>2018-07-20T09:11:25Z</time>
      </trkpt>
      <trkpt lat="45.339467" lon="6.834111">
        <ele>2425.138</ele>
        <time>2018-07-20T09:11:30Z</time>
      </trkpt>
      <trkpt lat="45.339516" lon="6.834133">
        <ele>2425.355</ele>
        <time>2018-07-20T09:11:35Z</time>
      </trkpt>
      <trkpt lat="45.339570" lon="6.834148">
        <ele>2425.080</ele>
        <time>2018-07-20T09:11:40Z</time>
      </trkpt>
      <trkpt lat="45.339623" lon="6.834164">
        <ele>2425.264</ele>
        <time>2018-07-20T09:11:45Z</time>
      </trkpt>
      <trkpt lat="45.339673" lon="6.834183">
        <ele>2425.377</ele>
        <time>2018-07-20T09:11:50Z</time>
      </trkpt>
      <trkpt lat="45.339723" lon="6.834203">
        <ele>2425.889</ele>
        <time>2018-07-20T09:11:55Z</time>
      </trkpt>
      <trkpt lat="45.339774" lon="6.834223">
        <ele>2426.143</ele>
        <time>2018-07-20T09:12:00Z</time>
      </trkpt>
      <trkpt lat="45.339826" lon="6.834228">
        <ele>2425.986</ele>
        <time>2018-07-20T09:12:05Z</time>
      </trkpt>
      <trkpt lat="45.339874" lon="6.834220">
        <ele>2425.860</ele>
        <time>2018-07-20T09:12:10Z</time>
      </trkpt>
      <trkpt lat="45.339923" lon="6.834221">
        <ele>2426.526</ele>
        <time>2018-07-20T09:12:16Z</time>
      </trkpt>
      <trkpt lat="45.339964" lon="6.834250">
        <ele>2426.508</ele>
        <time>2018-07-20T09:12:21Z</time>
      </trkpt>
      <trkpt lat="45.340004" lon="6.834285">
        <ele>2426.580</ele>
        <time>2018-07-20T09:12:26Z</time>
      </trkpt>
      <trkpt lat="45.340050" lon="6.834322">
        <ele>2426.925</ele>
        <time>2018-07-20T09:12:32Z</time>
      </trkpt>
      <trkpt lat="45.340093" lon="6.834353">
        <ele>2427.142</ele>
        <time>2018-07-20T09:12:37Z</time>
      </trkpt>
      <trkpt lat="45.340139" lon="6.834390">
        <ele>2427.647</ele>
        <time>2018-07-20T09:12:42Z</time>
      </trkpt>
      <trkpt lat="45.340186" lon="6.834424">
        <ele>2427.911</ele>
        <time>2018-07-20T09:12:47Z</time>
      </trkpt>
      <trkpt lat="45.340228" lon="6.834452">
        <ele>2428.554</ele>
        <time>2018-07-20T09:12:52Z</time>
      </trkpt>
      <trkpt lat="45.340267" lon="6.834490">
        <ele>2428.526</ele>
        <time>2018-07-20T09:12:57Z</time>
      </trkpt>
      <trkpt lat="45.340316" lon="6.834521">
        <ele>2428.530</ele>
        <time>2018-07-20T09:13:03Z</time>
      </trkpt>
      <trkpt lat="45.340360" lon="6.834545">
        <ele>2428.915</ele>
        <time>2018-07-20T09:13:08Z</time>
      </trkpt>
      <trkpt lat="45.340406" lon="6.834581">
        <ele>2429.565</ele>
        <time>2018-07-20T09:13:13Z</time>
      </trkpt>
      <trkpt lat="45.340453" lon="6.834613">
        <ele>2429.911</ele>
        <time>2018-07-20T09:13:18Z</time>
      </trkpt>
      <trkpt lat="45.340499" lon="6.834638">
        <ele>2430.108</ele>
        <time>2018-07-20T09:13:23Z</time>
      </trkpt>
      <trkpt lat="45.340549" lon="6.834663">
        <ele>2430.243</ele>
        <time>2018-07-20T09:13:28Z</time>
      </trkpt>
      <trkpt lat="45.340593" lon="6.834687">
        <ele>2430.738</ele>
        <time>2018-07-20T09:13:33Z</time>
      </trkpt>
      <trkpt lat="45.340639" lon="6.834699">
        <ele>2431.075</ele>
        <time>2018-07-20T09:13:38Z</time>
      </trkpt>
      <trkpt lat="45.340683" lon="6.834733">
        <ele>2431.240</ele>
        <time>2018-07-20T09:13:43Z</time>
      </trkpt>
      <trkpt lat="45.340726" lon="6.834770">
        <ele>2430.974</ele>
        <time>2018-07-20T09:13:48Z</time>
      </trkpt>
      <trkpt lat="45.340775" lon="6.834794">
        <ele>2430.777</ele>
        <time>2018-07-20T09:13:53Z</time>
      </trkpt>
      <trkpt lat="45.340815" lon="6.834828">
        <ele>2430.649</ele>
        <time>2018-07-20T09:13:58Z</time>
      </trkpt>
      <trkpt lat="45.340856" lon="6.834868">
        <ele>2430.953</ele>
        <time>2018-07-20T09:14:04Z</time>
      </trkpt>
      <trkpt lat="45.340898" lon="6.834905">
        <ele>2431.514</ele>
        <time>2018-07-20T09:14:10Z</time>
      </trkpt>
      <trkpt lat="45.340944" lon="6.834921">
        <ele>2432.354</ele>
        <time>2018-07-20T09:14:16Z</time>
      </trkpt>
      <trkpt lat="45.340989" lon="6.834953">
        <ele>2432.809</ele>
        <time>2018-07-20T09:14:23Z</time>
      </trkpt>
      <trkpt lat="45.341038" lon="6.834975">
        <ele>2433.108</ele>
        <time>2018-07-20T09:14:30Z</time>
      </trkpt>
      <trkpt lat="45.341083" lon="6.835003">
        <ele>2433.753</ele>
        <time>2018-07-20T09:14:36Z</time>
      </trkpt>
      <trkpt lat="45.341133" lon="6.835025">
        <ele>2434.448</ele>
        <time>2018-07-20T09:14:41Z</time>
      </trkpt>
      <trkpt lat="45.341179" lon="6.835049">
        <ele>2435.285</ele>
        <time>2018-07-20T09:14:46Z</time>
      </trkpt>
      <trkpt lat="45.341226" lon="6.835076">
        <ele>2435.350</ele>
        <time>2018-07-20T09:14:51Z</time>
      </trkpt>
      <trkpt lat="45.341274" lon="6.835109">
        <ele>2435.494</ele>
        <time>2018-07-20T09:14:56Z</time>
      </trkpt>
      <trkpt lat="45.341317" lon="6.835158">
        <ele>2435.897</ele>
        <time>2018-07-20T09:15:01Z</time>
      </trkpt>
      <trkpt lat="45.341357" lon="6.835210">
        <ele>2436.169</ele>
        <time>2018-07-20T09:15:06Z</time>
      </trkpt>
      <trkpt lat="45.341400" lon="6.835260">
        <ele>2435.993</ele>
        <time>2018-07-20T09:15:11Z</time>
      </trkpt>
      <trkpt lat="45.341445" lon="6.835307">
        <ele>2435.866</ele>
        <time>2018-07-20T09:15:16Z</time>
      </trkpt>
      <trkpt lat="45.341489" lon="6.835347">
        <ele>2435.729</ele>
        <time>2018-07-20T09:15:21Z</time>
      </trkpt>
      <trkpt lat="45.341534" lon="6.835374">
        <ele>2436.021</ele>
        <time>2018-07-20T09:15:35Z</time>
      </trkpt>
      <trkpt lat="45.341586" lon="6.835395">
        <ele>2436.208</ele>
        <time>2018-07-20T09:15:40Z</time>
      </trkpt>
      <trkpt lat="45.341635" lon="6.835424">
        <ele>2436.328</ele>
        <time>2018-07-20T09:15:45Z</time>
      </trkpt>
      <trkpt lat="45.341687" lon="6.835452">
        <ele>2436.013</ele>
        <time>2018-07-20T09:15:50Z</time>
      </trkpt>
      <trkpt lat="45.341729" lon="6.835477">
        <ele>2435.810</ele>
        <time>2018-07-20T09:15:54Z</time>
      </trkpt>
      <trkpt lat="45.341772" lon="6.835511">
        <ele>2435.785</ele>
        <time>2018-07-20T09:15:59Z</time>
      </trkpt>
      <trkpt lat="45.341817" lon="6.835538">
        <ele>2435.619</ele>
        <time>2018-07-20T09:16:04Z</time>
      </trkpt>
      <trkpt lat="45.341868" lon="6.835562">
        <ele>2436.032</ele>
        <time>2018-07-20T09:16:09Z</time>
      </trkpt>
      <trkpt lat="45.341919" lon="6.835584">
        <ele>2435.824</ele>
        <time>2018-07-20T09:16:14Z</time>
      </trkpt>
      <trkpt lat="45.341968" lon="6.835619">
        <ele>2435.728</ele>
        <time>2018-07-20T09:16:19Z</time>
      </trkpt>
      <trkpt lat="45.342013" lon="6.835634">
        <ele>2435.658</ele>
        <time>2018-07-20T09:16:23Z</time>
      </trkpt>
      <trkpt lat="45.342057" lon="6.835655">
        <ele>2435.652</ele>
        <time>2018-07-20T09:16:27Z</time>
      </trkpt>
      <trkpt lat="45.342109" lon="6.835682">
        <ele>2435.617</ele>
        <time>2018-07-20T09:16:32Z</time>
      </trkpt>
      <trkpt lat="45.342156" lon="6.835699">
        <ele>2435.608</ele>
        <time>2018-07-20T09:16:36Z</time>
      </trkpt>
      <trkpt lat="45.342198" lon="6.835726">
        <ele>2435.627</ele>
        <time>2018-07-20T09:16:40Z</time>
      </trkpt>
      <trkpt lat="45.342244" lon="6.835745">
        <ele>2435.642</ele>
        <time>2018-07-20T09:16:44Z</time>
      </trkpt>
      <trkpt lat="45.342291" lon="6.835760">
        <ele>2435.669</ele>
        <time>2018-07-20T09:16:48Z</time>
      </trkpt>
      <trkpt lat="45.342335" lon="6.835776">
        <ele>2435.694</ele>
        <time>2018-07-20T09:16:52Z</time>
      </trkpt>
      <trkpt lat="45.342388" lon="6.835799">
        <ele>2435.658</ele>
        <time>2018-07-20T09:16:57Z</time>
      </trkpt>
      <trkpt lat="45.342433" lon="6.835839">
        <ele>2435.641</ele>
        <time>2018-07-20T09:17:02Z</time>
      </trkpt>
      <trkpt lat="45.342479" lon="6.835870">
        <ele>2435.643</ele>
        <time>2018-07-20T09:17:07Z</time>
      </trkpt>
      <trkpt lat="45.342524" lon="6.835889">
        <ele>2435.657</ele>
        <time>2018-07-20T09:17:11Z</time>
      </trkpt>
      <trkpt lat="45.342569" lon="6.835901">
        <ele>2435.646</ele>
        <time>2018-07-20T09:17:15Z</time>
      </trkpt>
      <trkpt lat="45.342618" lon="6.835919">
        <ele>2435.688</ele>
        <time>2018-07-20T09:17:20Z</time>
      </trkpt>
      <trkpt lat="45.342661" lon="6.835943">
        <ele>2435.616</ele>
        <time>2018-07-20T09:17:35Z</time>
      </trkpt>
      <trkpt lat="45.342709" lon="6.835973">
        <ele>2435.608</ele>
        <time>2018-07-20T09:17:40Z</time>
      </trkpt>
      <trkpt lat="45.342763" lon="6.835986">
        <ele>2435.676</ele>
        <time>2018-07-20T09:17:45Z</time>
      </trkpt>
      <trkpt lat="45.342809" lon="6.835998">
        <ele>2435.671</ele>
        <time>2018-07-20T09:17:49Z</time>
      </trkpt>
      <trkpt lat="45.342858" lon="6.836002">
        <ele>2435.668</ele>
        <time>2018-07-20T09:17:54Z</time>
      </trkpt>
      <trkpt lat="45.342902" lon="6.835988">
        <ele>2436.063</ele>
        <time>2018-07-20T09:18:00Z</time>
      </trkpt>
      <trkpt lat="45.342955" lon="6.835998">
        <ele>2436.667</ele>
        <time>2018-07-20T09:18:10Z</time>
      </trkpt>
      <trkpt lat="45.342995" lon="6.835960">
        <ele>2437.050</ele>
        <time>2018-07-20T09:18:30Z</time>
      </trkpt>
      <trkpt lat="45.343034" lon="6.835919">
        <ele>2437.222</ele>
        <time>2018-07-20T09:18:36Z</time>
      </trkpt>
      <trkpt lat="45.343076" lon="6.835873">
        <ele>2437.396</ele>
        <time>2018-07-20T09:18:41Z</time>
      </trkpt>
      <trkpt lat="45.343118" lon="6.835839">
        <ele>2437.015</ele>
        <time>2018-07-20T09:18:46Z</time>
      </trkpt>
      <trkpt lat="45.343163" lon="6.835797">
        <ele>2437.265</ele>
        <time>2018-07-20T09:18:51Z</time>
      </trkpt>
      <trkpt lat="45.343207" lon="6.835775">
        <ele>2437.311</ele>
        <time>2018-07-20T09:18:55Z</time>
      </trkpt>
      <trkpt lat="45.343259" lon="6.835780">
        <ele>2437.008</ele>
        <time>2018-07-20T09:19:00Z</time>
      </trkpt>
      <trkpt lat="45.343308" lon="6.835800">
        <ele>2436.813</ele>
        <time>2018-07-20T09:19:05Z</time>
      </trkpt>
      <trkpt lat="45.343356" lon="6.835834">
        <ele>2436.798</ele>
        <time>2018-07-20T09:19:10Z</time>
      </trkpt>
      <trkpt lat="45.343406" lon="6.835865">
        <ele>2436.215</ele>
        <time>2018-07-20T09:19:15Z</time>
      </trkpt>
      <trkpt lat="45.343458" lon="6.835893">
        <ele>2435.940</ele>
        <time>2018-07-20T09:19:20Z</time>
      </trkpt>
      <trkpt lat="45.343500" lon="6.835916">
        <ele>2435.734</ele>
        <time>2018-07-20T09:19:24Z</time>
      </trkpt>
      <trkpt lat="45.343546" lon="6.835943">
        <ele>2435.257</ele>
        <time>2018-07-20T09:19:28Z</time>
      </trkpt>
      <trkpt lat="45.343589" lon="6.835967">
        <ele>2434.999</ele>
        <time>2018-07-20T09:19:32Z</time>
      </trkpt>
      <trkpt lat="45.343642" lon="6.835995">
        <ele>2434.763</ele>
        <time>2018-07-20T09:19:37Z</time>
      </trkpt>
      <trkpt lat="45.343687" lon="6.836019">
        <ele>2434.233</ele>
        <time>2018-07-20T09:19:41Z</time>
      </trkpt>
      <trkpt lat="45.343728" lon="6.836047">
        <ele>2433.923</ele>
        <time>2018-07-20T09:19:45Z</time>
      </trkpt>
      <trkpt lat="45.343771" lon="6.836073">
        <ele>2433.315</ele>
        <time>2018-07-20T09:19:49Z</time>
      </trkpt>
      <trkpt lat="45.343822" lon="6.836105">
        <ele>2433.008</ele>
        <time>2018-07-20T09:19:54Z</time>
      </trkpt>
      <trkpt lat="45.343866" lon="6.836124">
        <ele>2432.425</ele>
        <time>2018-07-20T09:19:58Z</time>
      </trkpt>
      <trkpt lat="45.343909" lon="6.836146">
        <ele>2432.020</ele>
        <time>2018-07-20T09:20:02Z</time>
      </trkpt>
      <trkpt lat="45.343958" lon="6.836174">
        <ele>2431.857</ele>
        <time>2018-07-20T09:20:07Z</time>
      </trkpt>
      <trkpt lat="45.344011" lon="6.836201">
        <ele>2431.752</ele>
        <time>2018-07-20T09:20:12Z</time>
      </trkpt>
      <trkpt lat="45.344059" lon="6.836231">
        <ele>2431.636</ele>
        <time>2018-07-20T09:20:17Z</time>
      </trkpt>
      <trkpt lat="45.344105" lon="6.836260">
        <ele>2431.269</ele>
        <time>2018-07-20T09:20:22Z</time>
      </trkpt>
      <trkpt lat="45.344148" lon="6.836283">
        <ele>2430.541</ele>
        <time>2018-07-20T09:20:26Z</time>
      </trkpt>
      <trkpt lat="45.344195" lon="6.836306">
        <ele>2429.795</ele>
        <time>2018-07-20T09:20:31Z</time>
      </trkpt>
      <trkpt lat="45.344237" lon="6.836333">
        <ele>2428.858</ele>
        <time>2018-07-20T09:20:36Z</time>
      </trkpt>
      <trkpt lat="45.344281" lon="6.836357">
        <ele>2427.952</ele>
        <time>2018-07-20T09:20:41Z</time>
      </trkpt>
      <trkpt lat="45.344332" lon="6.836391">
        <ele>2426.917</ele>
        <time>2018-07-20T09:20:46Z</time>
      </trkpt>
      <trkpt lat="45.344373" lon="6.836417">
        <ele>2426.308</ele>
        <time>2018-07-20T09:20:50Z</time>
      </trkpt>
      <trkpt lat="45.344422" lon="6.836450">
        <ele>2426.027</ele>
        <time>2018-07-20T09:20:55Z</time>
      </trkpt>
      <trkpt lat="45.344469" lon="6.836482">
        <ele>2425.832</ele>
        <time>2018-07-20T09:21:00Z</time>
      </trkpt>
      <trkpt lat="45.344515" lon="6.836505">
        <ele>2425.769</ele>
        <time>2018-07-20T09:21:05Z</time>
      </trkpt>
      <trkpt lat="45.344563" lon="6.836528">
        <ele>2426.424</ele>
        <time>2018-07-20T09:21:10Z</time>
      </trkpt>
      <trkpt lat="45.344606" lon="6.836549">
        <ele>2426.868</ele>
        <time>2018-07-20T09:21:14Z</time>
      </trkpt>
      <trkpt lat="45.344650" lon="6.836571">
        <ele>2426.731</ele>
        <time>2018-07-20T09:21:18Z</time>
      </trkpt>
      <trkpt lat="45.344695" lon="6.836596">
        <ele>2426.643</ele>
        <time>2018-07-20T09:21:22Z</time>
      </trkpt>
      <trkpt lat="45.344737" lon="6.836625">
        <ele>2426.697</ele>
        <time>2018-07-20T09:21:26Z</time>
      </trkpt>
      <trkpt lat="45.344783" lon="6.836651">
        <ele>2426.637</ele>
        <time>2018-07-20T09:21:30Z</time>
      </trkpt>
      <trkpt lat="45.344829" lon="6.836668">
        <ele>2426.649</ele>
        <time>2018-07-20T09:21:40Z</time>
      </trkpt>
      <trkpt lat="45.344872" lon="6.836711">
        <ele>2426.613</ele>
        <time>2018-07-20T09:21:47Z</time>
      </trkpt>
      <trkpt lat="45.344914" lon="6.836752">
        <ele>2426.208</ele>
        <time>2018-07-20T09:21:52Z</time>
      </trkpt>
      <trkpt lat="45.344960" lon="6.836790">
        <ele>2426.065</ele>
        <time>2018-07-20T09:21:57Z</time>
      </trkpt>
      <trkpt lat="45.345001" lon="6.836822">
        <ele>2425.940</ele>
        <time>2018-07-20T09:22:01Z</time>
      </trkpt>
      <trkpt lat="45.345040" lon="6.836858">
        <ele>2425.857</ele>
        <time>2018-07-20T09:22:05Z</time>
      </trkpt>
      <trkpt lat="45.345080" lon="6.836897">
        <ele>2425.752</ele>
        <time>2018-07-20T09:22:10Z</time>
      </trkpt>
      <trkpt lat="45.345122" lon="6.836927">
        <ele>2425.716</ele>
        <time>2018-07-20T09:22:15Z</time>
      </trkpt>
      <trkpt lat="45.345171" lon="6.836957">
        <ele>2426.179</ele>
        <time>2018-07-20T09:22:20Z</time>
      </trkpt>
      <trkpt lat="45.345215" lon="6.836995">
        <ele>2426.361</ele>
        <time>2018-07-20T09:22:25Z</time>
      </trkpt>
      <trkpt lat="45.345250" lon="6.837040">
        <ele>2426.035</ele>
        <time>2018-07-20T09:22:30Z</time>
      </trkpt>
      <trkpt lat="45.345285" lon="6.837082">
        <ele>2425.885</ele>
        <time>2018-07-20T09:22:35Z</time>
      </trkpt>
      <trkpt lat="45.345325" lon="6.837115">
        <ele>2425.789</ele>
        <time>2018-07-20T09:22:40Z</time>
      </trkpt>
      <trkpt lat="45.345369" lon="6.837155">
        <ele>2425.217</ele>
        <time>2018-07-20T09:22:45Z</time>
      </trkpt>
      <trkpt lat="45.345417" lon="6.837197">
        <ele>2424.908</ele>
        <time>2018-07-20T09:22:50Z</time>
      </trkpt>
      <trkpt lat="45.345462" lon="6.837222">
        <ele>2424.740</ele>
        <time>2018-07-20T09:22:55Z</time>
      </trkpt>
      <trkpt lat="45.345511" lon="6.837250">
        <ele>2424.695</ele>
        <time>2018-07-20T09:23:01Z</time>
      </trkpt>
      <trkpt lat="45.345561" lon="6.837255">
        <ele>2424.582</ele>
        <time>2018-07-20T09:23:07Z</time>
      </trkpt>
      <trkpt lat="45.345608" lon="6.837260">
        <ele>2424.557</ele>
        <time>2018-07-20T09:23:13Z</time>
      </trkpt>
      <trkpt lat="45.345663" lon="6.837266">
        <ele>2424.531</ele>
        <time>2018-07-20T09:23:27Z</time>
      </trkpt>
      <trkpt lat="45.345708" lon="6.837261">
        <ele>2423.724</ele>
        <time>2018-07-20T09:24:08Z</time>
      </trkpt>
      <trkpt lat="45.345754" lon="6.837266">
        <ele>2424.086</ele>
        <time>2018-07-20T09:24:13Z</time>
      </trkpt>
      <trkpt lat="45.345800" lon="6.837279">
        <ele>2424.640</ele>
        <time>2018-07-20T09:24:20Z</time>
      </trkpt>
      <trkpt lat="45.345844" lon="6.837261">
        <ele>2425.412</ele>
        <time>2018-07-20T09:24:27Z</time>
      </trkpt>
      <trkpt lat="45.345890" lon="6.837255">
        <ele>2425.532</ele>
        <time>2018-07-20T09:24:32Z</time>
      </trkpt>
      <trkpt lat="45.345937" lon="6.837265">
        <ele>2425.505</ele>
        <time>2018-07-20T09:24:37Z</time>
      </trkpt>
      <trkpt lat="45.345981" lon="6.837280">
        <ele>2425.508</ele>
        <time>2018-07-20T09:24:42Z</time>
      </trkpt>
      <trkpt lat="45.346031" lon="6.837267">
        <ele>2422.883</ele>
        <time>2018-07-20T09:39:50Z</time>
      </trkpt>
      <trkpt lat="45.346062" lon="6.837208">
        <ele>2423.418</ele>
        <time>2018-07-20T09:39:55Z</time>
      </trkpt>
      <trkpt lat="45.346114" lon="6.837198">
        <ele>2423.195</ele>
        <time>2018-07-20T09:40:01Z</time>
      </trkpt>
      <trkpt lat="45.346159" lon="6.837223">
        <ele>2423.730</ele>
        <time>2018-07-20T09:40:06Z</time>
      </trkpt>
      <trkpt lat="45.346204" lon="6.837234">
        <ele>2423.824</ele>
        <time>2018-07-20T09:40:11Z</time>
      </trkpt>
      <trkpt lat="45.346236" lon="6.837285">
        <ele>2424.027</ele>
        <time>2018-07-20T09:40:18Z</time>
      </trkpt>
      <trkpt lat="45.346283" lon="6.837299">
        <ele>2423.319</ele>
        <time>2018-07-20T09:40:25Z</time>
      </trkpt>
      <trkpt lat="45.346334" lon="6.837306">
        <ele>2422.523</ele>
        <time>2018-07-20T09:40:32Z</time>
      </trkpt>
      <trkpt lat="45.346387" lon="6.837307">
        <ele>2422.497</ele>
        <time>2018-07-20T09:40:37Z</time>
      </trkpt>
      <trkpt lat="45.346436" lon="6.837310">
        <ele>2422.023</ele>
        <time>2018-07-20T09:40:42Z</time>
      </trkpt>
      <trkpt lat="45.346488" lon="6.837319">
        <ele>2422.125</ele>
        <time>2018-07-20T09:40:47Z</time>
      </trkpt>
      <trkpt lat="45.346537" lon="6.837336">
        <ele>2423.008</ele>
        <time>2018-07-20T09:41:00Z</time>
      </trkpt>
      <trkpt lat="45.346573" lon="6.837384">
        <ele>2422.731</ele>
        <time>2018-07-20T09:41:38Z</time>
      </trkpt>
      <trkpt lat="45.346610" lon="6.837432">
        <ele>2422.126</ele>
        <time>2018-07-20T09:41:45Z</time>
      </trkpt>
      <trkpt lat="45.346630" lon="6.837502">
        <ele>2421.073</ele>
        <time>2018-07-20T09:41:51Z</time>
      </trkpt>
      <trkpt lat="45.346675" lon="6.837523">
        <ele>2420.388</ele>
        <time>2018-07-20T09:41:57Z</time>
      </trkpt>
      <trkpt lat="45.346716" lon="6.837556">
        <ele>2419.982</ele>
        <time>2018-07-20T09:42:01Z</time>
      </trkpt>
      <trkpt lat="45.346761" lon="6.837576">
        <ele>2419.315</ele>
        <time>2018-07-20T09:42:05Z</time>
      </trkpt>
      <trkpt lat="45.346814" lon="6.837571">
        <ele>2418.587</ele>
        <time>2018-07-20T09:42:10Z</time>
      </trkpt>
      <trkpt lat="45.346862" lon="6.837581">
        <ele>2417.641</ele>
        <time>2018-07-20T09:42:14Z</time>
      </trkpt>
      <trkpt lat="45.346895" lon="6.837629">
        <ele>2417.188</ele>
        <time>2018-07-20T09:42:19Z</time>
      </trkpt>
      <trkpt lat="45.346927" lon="6.837683">
        <ele>2416.824</ele>
        <time>2018-07-20T09:42:24Z</time>
      </trkpt>
      <trkpt lat="45.346966" lon="6.837737">
        <ele>2416.226</ele>
        <time>2018-07-20T09:42:29Z</time>
      </trkpt>
      <trkpt lat="45.347006" lon="6.837782">
        <ele>2415.408</ele>
        <time>2018-07-20T09:42:34Z</time>
      </trkpt>
      <trkpt lat="45.347045" lon="6.837826">
        <ele>2414.990</ele>
        <time>2018-07-20T09:42:38Z</time>
      </trkpt>
      <trkpt lat="45.347084" lon="6.837864">
        <ele>2413.835</ele>
        <time>2018-07-20T09:42:42Z</time>
      </trkpt>
      <trkpt lat="45.347125" lon="6.837896">
        <ele>2413.222</ele>
        <time>2018-07-20T09:42:46Z</time>
      </trkpt>
      <trkpt lat="45.347164" lon="6.837935">
        <ele>2412.837</ele>
        <time>2018-07-20T09:42:50Z</time>
      </trkpt>
      <trkpt lat="45.347208" lon="6.837978">
        <ele>2412.611</ele>
        <time>2018-07-20T09:42:55Z</time>
      </trkpt>
      <trkpt lat="45.347253" lon="6.838016">
        <ele>2411.724</ele>
        <time>2018-07-20T09:43:00Z</time>
      </trkpt>
      <trkpt lat="45.347302" lon="6.838057">
        <ele>2411.136</ele>
        <time>2018-07-20T09:43:05Z</time>
      </trkpt>
      <trkpt lat="45.347344" lon="6.838084">
        <ele>2410.460</ele>
        <time>2018-07-20T09:43:09Z</time>
      </trkpt>
      <trkpt lat="45.347396" lon="6.838114">
        <ele>2409.659</ele>
        <time>2018-07-20T09:43:14Z</time>
      </trkpt>
      <trkpt lat="45.347439" lon="6.838137">
        <ele>2408.303</ele>
        <time>2018-07-20T09:43:18Z</time>
      </trkpt>
      <trkpt lat="45.347491" lon="6.838161">
        <ele>2407.123</ele>
        <time>2018-07-20T09:43:23Z</time>
      </trkpt>
      <trkpt lat="45.347545" lon="6.838169">
        <ele>2406.008</ele>
        <time>2018-07-20T09:43:28Z</time>
      </trkpt>
      <trkpt lat="45.347590" lon="6.838180">
        <ele>2405.357</ele>
        <time>2018-07-20T09:43:32Z</time>
      </trkpt>
      <trkpt lat="45.347640" lon="6.838199">
        <ele>2404.552</ele>
        <time>2018-07-20T09:43:37Z</time>
      </trkpt>
      <trkpt lat="45.347693" lon="6.838212">
        <ele>2403.679</ele>
        <time>2018-07-20T09:43:42Z</time>
      </trkpt>
      <trkpt lat="45.347743" lon="6.838227">
        <ele>2403.154</ele>
        <time>2018-07-20T09:43:47Z</time>
      </trkpt>
      <trkpt lat="45.347791" lon="6.838251">
        <ele>2402.018</ele>
        <time>2018-07-20T09:43:52Z</time>
      </trkpt>
      <trkpt lat="45.347836" lon="6.838277">
        <ele>2401.321</ele>
        <time>2018-07-20T09:43:57Z</time>
      </trkpt>
      <trkpt lat="45.347881" lon="6.838296">
        <ele>2400.193</ele>
        <time>2018-07-20T09:44:02Z</time>
      </trkpt>
      <trkpt lat="45.347928" lon="6.838321">
        <ele>2398.677</ele>
        <time>2018-07-20T09:44:08Z</time>
      </trkpt>
      <trkpt lat="45.347969" lon="6.838357">
        <ele>2397.337</ele>
        <time>2018-07-20T09:44:13Z</time>
      </trkpt>
      <trkpt lat="45.348011" lon="6.838395">
        <ele>2395.749</ele>
        <time>2018-07-20T09:44:18Z</time>
      </trkpt>
      <trkpt lat="45.348054" lon="6.838414">
        <ele>2394.713</ele>
        <time>2018-07-20T09:44:23Z</time>
      </trkpt>
      <trkpt lat="45.348104" lon="6.838421">
        <ele>2393.308</ele>
        <time>2018-07-20T09:44:28Z</time>
      </trkpt>
      <trkpt lat="45.348154" lon="6.838428">
        <ele>2392.165</ele>
        <time>2018-07-20T09:44:33Z</time>
      </trkpt>
      <trkpt lat="45.348205" lon="6.838434">
        <ele>2391.470</ele>
        <time>2018-07-20T09:44:38Z</time>
      </trkpt>
      <trkpt lat="45.348256" lon="6.838442">
        <ele>2390.637</ele>
        <time>2018-07-20T09:44:43Z</time>
      </trkpt>
      <trkpt lat="45.348306" lon="6.838447">
        <ele>2389.322</ele>
        <time>2018-07-20T09:44:48Z</time>
      </trkpt>
      <trkpt lat="45.348356" lon="6.838451">
        <ele>2388.536</ele>
        <time>2018-07-20T09:44:53Z</time>
      </trkpt>
      <trkpt lat="45.348401" lon="6.838457">
        <ele>2387.699</ele>
        <time>2018-07-20T09:44:57Z</time>
      </trkpt>
      <trkpt lat="45.348445" lon="6.838469">
        <ele>2386.791</ele>
        <time>2018-07-20T09:45:02Z</time>
      </trkpt>
      <trkpt lat="45.348491" lon="6.838476">
        <ele>2385.745</ele>
        <time>2018-07-20T09:45:07Z</time>
      </trkpt>
      <trkpt lat="45.348542" lon="6.838494">
        <ele>2384.776</ele>
        <time>2018-07-20T09:45:13Z</time>
      </trkpt>
      <trkpt lat="45.348594" lon="6.838505">
        <ele>2383.390</ele>
        <time>2018-07-20T09:45:19Z</time>
      </trkpt>
      <trkpt lat="45.348637" lon="6.838522">
        <ele>2382.119</ele>
        <time>2018-07-20T09:45:24Z</time>
      </trkpt>
      <trkpt lat="45.348686" lon="6.838531">
        <ele>2381.408</ele>
        <time>2018-07-20T09:45:29Z</time>
      </trkpt>
      <trkpt lat="45.348732" lon="6.838538">
        <ele>2381.049</ele>
        <time>2018-07-20T09:45:34Z</time>
      </trkpt>
      <trkpt lat="45.348777" lon="6.838544">
        <ele>2380.324</ele>
        <time>2018-07-20T09:45:39Z</time>
      </trkpt>
      <trkpt lat="45.348830" lon="6.838547">
        <ele>2379.581</ele>
        <time>2018-07-20T09:45:44Z</time>
      </trkpt>
      <trkpt lat="45.348883" lon="6.838549">
        <ele>2378.696</ele>
        <time>2018-07-20T09:45:50Z</time>
      </trkpt>
      <trkpt lat="45.348928" lon="6.838557">
        <ele>2377.740</ele>
        <time>2018-07-20T09:45:56Z</time>
      </trkpt>
      <trkpt lat="45.348974" lon="6.838559">
        <ele>2376.743</ele>
        <time>2018-07-20T09:46:01Z</time>
      </trkpt>
      <trkpt lat="45.349025" lon="6.838566">
        <ele>2375.375</ele>
        <time>2018-07-20T09:46:07Z</time>
      </trkpt>
      <trkpt lat="45.349076" lon="6.838577">
        <ele>2373.739</ele>
        <time>2018-07-20T09:46:13Z</time>
      </trkpt>
      <trkpt lat="45.349121" lon="6.838582">
        <ele>2372.349</ele>
        <time>2018-07-20T09:46:19Z</time>
      </trkpt>
      <trkpt lat="45.349170" lon="6.838608">
        <ele>2371.102</ele>
        <time>2018-07-20T09:46:26Z</time>
      </trkpt>
      <trkpt lat="45.349212" lon="6.838637">
        <ele>2369.622</ele>
        <time>2018-07-20T09:46:42Z</time>
      </trkpt>
      <trkpt lat="45.349259" lon="6.838666">
        <ele>2367.908</ele>
        <time>2018-07-20T09:46:48Z</time>
      </trkpt>
      <trkpt lat="45.349310" lon="6.838698">
        <ele>2366.916</ele>
        <time>2018-07-20T09:46:53Z</time>
      </trkpt>
      <trkpt lat="45.349358" lon="6.838720">
        <ele>2366.311</ele>
        <time>2018-07-20T09:46:57Z</time>
      </trkpt>
      <trkpt lat="45.349401" lon="6.838741">
        <ele>2365.548</ele>
        <time>2018-07-20T09:47:01Z</time>
      </trkpt>
      <trkpt lat="45.349451" lon="6.838776">
        <ele>2364.663</ele>
        <time>2018-07-20T09:47:06Z</time>
      </trkpt>
      <trkpt lat="45.349490" lon="6.838809">
        <ele>2363.747</ele>
        <time>2018-07-20T09:47:10Z</time>
      </trkpt>
      <trkpt lat="45.349543" lon="6.838840">
        <ele>2362.780</ele>
        <time>2018-07-20T09:47:15Z</time>
      </trkpt>
      <trkpt lat="45.349590" lon="6.838862">
        <ele>2361.712</ele>
        <time>2018-07-20T09:47:19Z</time>
      </trkpt>
      <trkpt lat="45.349631" lon="6.838889">
        <ele>2361.126</ele>
        <time>2018-07-20T09:47:23Z</time>
      </trkpt>
      <trkpt lat="45.349679" lon="6.838918">
        <ele>2360.849</ele>
        <time>2018-07-20T09:47:27Z</time>
      </trkpt>
      <trkpt lat="45.349727" lon="6.838948">
        <ele>2360.202</ele>
        <time>2018-07-20T09:47:31Z</time>
      </trkpt>
      <trkpt lat="45.349768" lon="6.838990">
        <ele>2360.222</ele>
        <time>2018-07-20T09:47:35Z</time>
      </trkpt>
      <trkpt lat="45.349809" lon="6.839027">
        <ele>2359.808</ele>
        <time>2018-07-20T09:47:39Z</time>
      </trkpt>
      <trkpt lat="45.349850" lon="6.839078">
        <ele>2359.276</ele>
        <time>2018-07-20T09:47:44Z</time>
      </trkpt>
      <trkpt lat="45.349888" lon="6.839127">
        <ele>2358.411</ele>
        <time>2018-07-20T09:47:49Z</time>
      </trkpt>
      <trkpt lat="45.349935" lon="6.839171">
        <ele>2357.548</ele>
        <time>2018-07-20T09:47:54Z</time>
      </trkpt>
      <trkpt lat="45.349985" lon="6.839205">
        <ele>2356.653</ele>
        <time>2018-07-20T09:47:59Z</time>
      </trkpt>
      <trkpt lat="45.350033" lon="6.839246">
        <ele>2355.697</ele>
        <time>2018-07-20T09:48:04Z</time>
      </trkpt>
      <trkpt lat="45.350074" lon="6.839276">
        <ele>2355.020</ele>
        <time>2018-07-20T09:48:08Z</time>
      </trkpt>
      <trkpt lat="45.350119" lon="6.839298">
        <ele>2354.342</ele>
        <time>2018-07-20T09:48:12Z</time>
      </trkpt>
      <trkpt lat="45.350170" lon="6.839314">
        <ele>2353.916</ele>
        <time>2018-07-20T09:48:17Z</time>
      </trkpt>
      <trkpt lat="45.350218" lon="6.839331">
        <ele>2353.243</ele>
        <time>2018-07-20T09:48:21Z</time>
      </trkpt>
      <trkpt lat="45.350263" lon="6.839353">
        <ele>2352.464</ele>
        <time>2018-07-20T09:48:25Z</time>
      </trkpt>
      <trkpt lat="45.350306" lon="6.839382">
        <ele>2351.910</ele>
        <time>2018-07-20T09:48:29Z</time>
      </trkpt>
      <trkpt lat="45.350353" lon="6.839408">
        <ele>2351.208</ele>
        <time>2018-07-20T09:48:33Z</time>
      </trkpt>
      <trkpt lat="45.350395" lon="6.839433">
        <ele>2350.476</ele>
        <time>2018-07-20T09:48:37Z</time>
      </trkpt>
      <trkpt lat="45.350443" lon="6.839475">
        <ele>2350.391</ele>
        <time>2018-07-20T09:48:42Z</time>
      </trkpt>
      <trkpt lat="45.350486" lon="6.839512">
        <ele>2349.888</ele>
        <time>2018-07-20T09:48:46Z</time>
      </trkpt>
      <trkpt lat="45.350525" lon="6.839548">
        <ele>2349.933</ele>
        <time>2018-07-20T09:48:50Z</time>
      </trkpt>
      <trkpt lat="45.350563" lon="6.839583">
        <ele>2349.697</ele>
        <time>2018-07-20T09:48:54Z</time>
      </trkpt>
      <trkpt lat="45.350602" lon="6.839619">
        <ele>2349.430</ele>
        <time>2018-07-20T09:48:58Z</time>
      </trkpt>
      <trkpt lat="45.350641" lon="6.839653">
        <ele>2348.912</ele>
        <time>2018-07-20T09:49:02Z</time>
      </trkpt>
      <trkpt lat="45.350682" lon="6.839683">
        <ele>2348.636</ele>
        <time>2018-07-20T09:49:06Z</time>
      </trkpt>
      <trkpt lat="45.350726" lon="6.839706">
        <ele>2348.463</ele>
        <time>2018-07-20T09:49:10Z</time>
      </trkpt>
      <trkpt lat="45.350769" lon="6.839728">
        <ele>2348.344</ele>
        <time>2018-07-20T09:49:14Z</time>
      </trkpt>
      <trkpt lat="45.350821" lon="6.839758">
        <ele>2348.218</ele>
        <time>2018-07-20T09:49:19Z</time>
      </trkpt>
      <trkpt lat="45.350865" lon="6.839779">
        <ele>2348.208</ele>
        <time>2018-07-20T09:49:23Z</time>
      </trkpt>
      <trkpt lat="45.350912" lon="6.839818">
        <ele>2347.818</ele>
        <time>2018-07-20T09:49:28Z</time>
      </trkpt>
      <trkpt lat="45.350953" lon="6.839845">
        <ele>2347.133</ele>
        <time>2018-07-20T09:49:32Z</time>
      </trkpt>
      <trkpt lat="45.350998" lon="6.839863">
        <ele>2346.780</ele>
        <time>2018-07-20T09:49:36Z</time>
      </trkpt>
      <trkpt lat="45.351045" lon="6.839883">
        <ele>2346.165</ele>
        <time>2018-07-20T09:49:40Z</time>
      </trkpt>
      <trkpt lat="45.351090" lon="6.839914">
        <ele>2345.379</ele>
        <time>2018-07-20T09:49:44Z</time>
      </trkpt>
      <trkpt lat="45.351132" lon="6.839950">
        <ele>2344.812</ele>
        <time>2018-07-20T09:49:48Z</time>
      </trkpt>
      <trkpt lat="45.351173" lon="6.839982">
        <ele>2344.584</ele>
        <time>2018-07-20T09:49:52Z</time>
      </trkpt>
      <trkpt lat="45.351213" lon="6.840017">
        <ele>2344.328</ele>
        <time>2018-07-20T09:49:56Z</time>
      </trkpt>
      <trkpt lat="45.351259" lon="6.840051">
        <ele>2344.293</ele>
        <time>2018-07-20T09:50:00Z</time>
      </trkpt>
      <trkpt lat="45.351298" lon="6.840084">
        <ele>2343.765</ele>
        <time>2018-07-20T09:50:04Z</time>
      </trkpt>
      <trkpt lat="45.351338" lon="6.840118">
        <ele>2343.021</ele>
        <time>2018-07-20T09:50:08Z</time>
      </trkpt>
      <trkpt lat="45.351380" lon="6.840155">
        <ele>2342.608</ele>
        <time>2018-07-20T09:50:12Z</time>
      </trkpt>
      <trkpt lat="45.351424" lon="6.840194">
        <ele>2342.821</ele>
        <time>2018-07-20T09:50:16Z</time>
      </trkpt>
      <trkpt lat="45.351468" lon="6.840230">
        <ele>2342.576</ele>
        <time>2018-07-20T09:50:20Z</time>
      </trkpt>
      <trkpt lat="45.351511" lon="6.840263">
        <ele>2342.373</ele>
        <time>2018-07-20T09:50:24Z</time>
      </trkpt>
      <trkpt lat="45.351556" lon="6.840290">
        <ele>2342.228</ele>
        <time>2018-07-20T09:50:28Z</time>
      </trkpt>
      <trkpt lat="45.351599" lon="6.840324">
        <ele>2341.772</ele>
        <time>2018-07-20T09:50:32Z</time>
      </trkpt>
      <trkpt lat="45.351641" lon="6.840358">
        <ele>2341.475</ele>
        <time>2018-07-20T09:50:36Z</time>
      </trkpt>
      <trkpt lat="45.351679" lon="6.840395">
        <ele>2341.257</ele>
        <time>2018-07-20T09:50:40Z</time>
      </trkpt>
      <trkpt lat="45.351721" lon="6.840432">
        <ele>2340.721</ele>
        <time>2018-07-20T09:50:44Z</time>
      </trkpt>
      <trkpt lat="45.351760" lon="6.840474">
        <ele>2340.488</ele>
        <time>2018-07-20T09:50:48Z</time>
      </trkpt>
      <trkpt lat="45.351801" lon="6.840518">
        <ele>2340.224</ele>
        <time>2018-07-20T09:50:52Z</time>
      </trkpt>
      <trkpt lat="45.351845" lon="6.840559">
        <ele>2340.126</ele>
        <time>2018-07-20T09:50:56Z</time>
      </trkpt>
      <trkpt lat="45.351888" lon="6.840595">
        <ele>2339.608</ele>
        <time>2018-07-20T09:51:00Z</time>
      </trkpt>
      <trkpt lat="45.351930" lon="6.840631">
        <ele>2339.390</ele>
        <time>2018-07-20T09:51:04Z</time>
      </trkpt>
      <trkpt lat="45.351973" lon="6.840663">
        <ele>2339.175</ele>
        <time>2018-07-20T09:51:08Z</time>
      </trkpt>
      <trkpt lat="45.352024" lon="6.840700">
        <ele>2339.012</ele>
        <time>2018-07-20T09:51:13Z</time>
      </trkpt>
      <trkpt lat="45.352070" lon="6.840727">
        <ele>2338.587</ele>
        <time>2018-07-20T09:51:17Z</time>
      </trkpt>
      <trkpt lat="45.352117" lon="6.840752">
        <ele>2338.211</ele>
        <time>2018-07-20T09:51:21Z</time>
      </trkpt>
      <trkpt lat="45.352162" lon="6.840786">
        <ele>2338.064</ele>
        <time>2018-07-20T09:51:25Z</time>
      </trkpt>
      <trkpt lat="45.352207" lon="6.840832">
        <ele>2337.996</ele>
        <time>2018-07-20T09:51:30Z</time>
      </trkpt>
      <trkpt lat="45.352242" lon="6.840875">
        <ele>2337.820</ele>
        <time>2018-07-20T09:51:34Z</time>
      </trkpt>
      <trkpt lat="45.352276" lon="6.840920">
        <ele>2337.458</ele>
        <time>2018-07-20T09:51:38Z</time>
      </trkpt>
      <trkpt lat="45.352318" lon="6.840953">
        <ele>2336.752</ele>
        <time>2018-07-20T09:51:48Z</time>
      </trkpt>
      <trkpt lat="45.352367" lon="6.840967">
        <ele>2335.517</ele>
        <time>2018-07-20T09:52:56Z</time>
      </trkpt>
      <trkpt lat="45.352412" lon="6.840994">
        <ele>2334.808</ele>
        <time>2018-07-20T09:53:02Z</time>
      </trkpt>
      <trkpt lat="45.352462" lon="6.840978">
        <ele>2333.647</ele>
        <time>2018-07-20T09:53:10Z</time>
      </trkpt>
      <trkpt lat="45.352509" lon="6.840974">
        <ele>2332.992</ele>
        <time>2018-07-20T09:53:15Z</time>
      </trkpt>
      <trkpt lat="45.352558" lon="6.840971">
        <ele>2332.189</ele>
        <time>2018-07-20T09:53:20Z</time>
      </trkpt>
      <trkpt lat="45.352605" lon="6.840984">
        <ele>2331.664</ele>
        <time>2018-07-20T09:53:26Z</time>
      </trkpt>
      <trkpt lat="45.352649" lon="6.841010">
        <ele>2331.368</ele>
        <time>2018-07-20T09:53:34Z</time>
      </trkpt>
      <trkpt lat="45.352692" lon="6.841028">
        <ele>2331.181</ele>
        <time>2018-07-20T09:53:39Z</time>
      </trkpt>
      <trkpt lat="45.352741" lon="6.841055">
        <ele>2331.063</ele>
        <time>2018-07-20T09:53:44Z</time>
      </trkpt>
      <trkpt lat="45.352792" lon="6.841088">
        <ele>2330.537</ele>
        <time>2018-07-20T09:53:49Z</time>
      </trkpt>
      <trkpt lat="45.352838" lon="6.841103">
        <ele>2330.216</ele>
        <time>2018-07-20T09:53:53Z</time>
      </trkpt>
      <trkpt lat="45.352881" lon="6.841142">
        <ele>2329.676</ele>
        <time>2018-07-20T09:54:09Z</time>
      </trkpt>
      <trkpt lat="45.352922" lon="6.841173">
        <ele>2328.913</ele>
        <time>2018-07-20T09:54:14Z</time>
      </trkpt>
      <trkpt lat="45.352974" lon="6.841202">
        <ele>2328.108</ele>
        <time>2018-07-20T09:54:19Z</time>
      </trkpt>
      <trkpt lat="45.353019" lon="6.841233">
        <ele>2327.223</ele>
        <time>2018-07-20T09:54:24Z</time>
      </trkpt>
      <trkpt lat="45.353063" lon="6.841271">
        <ele>2326.778</ele>
        <time>2018-07-20T09:54:29Z</time>
      </trkpt>
      <trkpt lat="45.353111" lon="6.841311">
        <ele>2326.075</ele>
        <time>2018-07-20T09:54:34Z</time>
      </trkpt>
      <trkpt lat="45.353156" lon="6.841341">
        <ele>2325.250</ele>
        <time>2018-07-20T09:54:39Z</time>
      </trkpt>
      <trkpt lat="45.353202" lon="6.841374">
        <ele>2324.334</ele>
        <time>2018-07-20T09:54:44Z</time>
      </trkpt>
      <trkpt lat="45.353248" lon="6.841408">
        <ele>2323.077</ele>
        <time>2018-07-20T09:54:50Z</time>
      </trkpt>
      <trkpt lat="45.353292" lon="6.841448">
        <ele>2321.889</ele>
        <time>2018-07-20T09:54:55Z</time>
      </trkpt>
      <trkpt lat="45.353333" lon="6.841500">
        <ele>2320.713</ele>
        <time>2018-07-20T09:55:00Z</time>
      </trkpt>
      <trkpt lat="45.353373" lon="6.841532">
        <ele>2320.032</ele>
        <time>2018-07-20T09:55:04Z</time>
      </trkpt>
      <trkpt lat="45.353418" lon="6.841564">
        <ele>2319.292</ele>
        <time>2018-07-20T09:55:08Z</time>
      </trkpt>
      <trkpt lat="45.353457" lon="6.841599">
        <ele>2318.711</ele>
        <time>2018-07-20T09:55:12Z</time>
      </trkpt>
      <trkpt lat="45.353504" lon="6.841627">
        <ele>2317.608</ele>
        <time>2018-07-20T09:55:17Z</time>
      </trkpt>
      <trkpt lat="45.353558" lon="6.841639">
        <ele>2317.395</ele>
        <time>2018-07-20T09:55:22Z</time>
      </trkpt>
      <trkpt lat="45.353609" lon="6.841659">
        <ele>2316.370</ele>
        <time>2018-07-20T09:55:28Z</time>
      </trkpt>
      <trkpt lat="45.353656" lon="6.841663">
        <ele>2315.747</ele>
        <time>2018-07-20T09:55:33Z</time>
      </trkpt>
      <trkpt lat="45.353708" lon="6.841666">
        <ele>2315.452</ele>
        <time>2018-07-20T09:55:38Z</time>
      </trkpt>
      <trkpt lat="45.353761" lon="6.841684">
        <ele>2315.226</ele>
        <time>2018-07-20T09:55:44Z</time>
      </trkpt>
      <trkpt lat="45.353813" lon="6.841690">
        <ele>2314.739</ele>
        <time>2018-07-20T09:55:49Z</time>
      </trkpt>
      <trkpt lat="45.353863" lon="6.841692">
        <ele>2314.491</ele>
        <time>2018-07-20T09:55:53Z</time>
      </trkpt>
      <trkpt lat="45.353916" lon="6.841694">
        <ele>2313.895</ele>
        <time>2018-07-20T09:55:57Z</time>
      </trkpt>
      <trkpt lat="45.353964" lon="6.841703">
        <ele>2313.443</ele>
        <time>2018-07-20T09:56:01Z</time>
      </trkpt>
      <trkpt lat="45.354016" lon="6.841727">
        <ele>2312.864</ele>
        <time>2018-07-20T09:56:06Z</time>
      </trkpt>
      <trkpt lat="45.354069" lon="6.841749">
        <ele>2312.010</ele>
        <time>2018-07-20T09:56:11Z</time>
      </trkpt>
      <trkpt lat="45.354109" lon="6.841794">
        <ele>2311.108</ele>
        <time>2018-07-20T09:56:16Z</time>
      </trkpt>
      <trkpt lat="45.354155" lon="6.841831">
        <ele>2310.626</ele>
        <time>2018-07-20T09:56:21Z</time>
      </trkpt>
      <trkpt lat="45.354195" lon="6.841863">
        <ele>2310.331</ele>
        <time>2018-07-20T09:56:25Z</time>
      </trkpt>
      <trkpt lat="45.354243" lon="6.841894">
        <ele>2310.148</ele>
        <time>2018-07-20T09:56:30Z</time>
      </trkpt>
      <trkpt lat="45.354289" lon="6.841898">
        <ele>2309.293</ele>
        <time>2018-07-20T09:56:35Z</time>
      </trkpt>
      <trkpt lat="45.354336" lon="6.841879">
        <ele>2308.367</ele>
        <time>2018-07-20T09:56:40Z</time>
      </trkpt>
      <trkpt lat="45.354379" lon="6.841861">
        <ele>2307.710</ele>
        <time>2018-07-20T09:56:44Z</time>
      </trkpt>
      <trkpt lat="45.354429" lon="6.841851">
        <ele>2307.072</ele>
        <time>2018-07-20T09:56:49Z</time>
      </trkpt>
      <trkpt lat="45.354481" lon="6.841836">
        <ele>2306.286</ele>
        <time>2018-07-20T09:56:55Z</time>
      </trkpt>
      <trkpt lat="45.354526" lon="6.841819">
        <ele>2305.323</ele>
        <time>2018-07-20T09:57:00Z</time>
      </trkpt>
      <trkpt lat="45.354579" lon="6.841803">
        <ele>2304.483</ele>
        <time>2018-07-20T09:57:06Z</time>
      </trkpt>
      <trkpt lat="45.354626" lon="6.841781">
        <ele>2303.411</ele>
        <time>2018-07-20T09:57:12Z</time>
      </trkpt>
      <trkpt lat="45.354671" lon="6.841762">
        <ele>2302.408</ele>
        <time>2018-07-20T09:57:17Z</time>
      </trkpt>
      <trkpt lat="45.354720" lon="6.841741">
        <ele>2301.894</ele>
        <time>2018-07-20T09:57:23Z</time>
      </trkpt>
      <trkpt lat="45.354773" lon="6.841736">
        <ele>2300.619</ele>
        <time>2018-07-20T09:57:29Z</time>
      </trkpt>
      <trkpt lat="45.354813" lon="6.841770">
        <ele>2299.576</ele>
        <time>2018-07-20T09:57:39Z</time>
      </trkpt>
      <trkpt lat="45.354823" lon="6.841845">
        <ele>2298.491</ele>
        <time>2018-07-20T09:57:45Z</time>
      </trkpt>
      <trkpt lat="45.354833" lon="6.841918">
        <ele>2297.455</ele>
        <time>2018-07-20T09:57:50Z</time>
      </trkpt>
      <trkpt lat="45.354842" lon="6.841985">
        <ele>2296.488</ele>
        <time>2018-07-20T09:57:55Z</time>
      </trkpt>
      <trkpt lat="45.354871" lon="6.842046">
        <ele>2295.090</ele>
        <time>2018-07-20T09:58:01Z</time>
      </trkpt>
      <trkpt lat="45.354916" lon="6.842059">
        <ele>2293.844</ele>
        <time>2018-07-20T09:58:06Z</time>
      </trkpt>
      <trkpt lat="45.354967" lon="6.842057">
        <ele>2293.115</ele>
        <time>2018-07-20T09:58:12Z</time>
      </trkpt>
      <trkpt lat="45.355017" lon="6.842030">
        <ele>2292.365</ele>
        <time>2018-07-20T09:58:18Z</time>
      </trkpt>
      <trkpt lat="45.355055" lon="6.841984">
        <ele>2291.411</ele>
        <time>2018-07-20T09:58:23Z</time>
      </trkpt>
      <trkpt lat="45.355093" lon="6.841926">
        <ele>2290.908</ele>
        <time>2018-07-20T09:58:28Z</time>
      </trkpt>
      <trkpt lat="45.355122" lon="6.841874">
        <ele>2290.623</ele>
        <time>2018-07-20T09:58:32Z</time>
      </trkpt>
      <trkpt lat="45.355160" lon="6.841824">
        <ele>2290.068</ele>
        <time>2018-07-20T09:58:37Z</time>
      </trkpt>
      <trkpt lat="45.355202" lon="6.841795">
        <ele>2289.635</ele>
        <time>2018-07-20T09:58:42Z</time>
      </trkpt>
      <trkpt lat="45.355250" lon="6.841782">
        <ele>2288.620</ele>
        <time>2018-07-20T09:58:47Z</time>
      </trkpt>
      <trkpt lat="45.355300" lon="6.841778">
        <ele>2287.634</ele>
        <time>2018-07-20T09:58:52Z</time>
      </trkpt>
      <trkpt lat="45.355350" lon="6.841785">
        <ele>2286.617</ele>
        <time>2018-07-20T09:58:57Z</time>
      </trkpt>
      <trkpt lat="45.355402" lon="6.841801">
        <ele>2285.679</ele>
        <time>2018-07-20T09:59:02Z</time>
      </trkpt>
      <trkpt lat="45.355448" lon="6.841814">
        <ele>2285.063</ele>
        <time>2018-07-20T09:59:06Z</time>
      </trkpt>
      <trkpt lat="45.355502" lon="6.841835">
        <ele>2284.274</ele>
        <time>2018-07-20T09:59:11Z</time>
      </trkpt>
      <trkpt lat="45.355547" lon="6.841843">
        <ele>2283.356</ele>
        <time>2018-07-20T09:59:15Z</time>
      </trkpt>
      <trkpt lat="45.355593" lon="6.841852">
        <ele>2282.421</ele>
        <time>2018-07-20T09:59:19Z</time>
      </trkpt>
      <trkpt lat="45.355645" lon="6.841875">
        <ele>2281.508</ele>
        <time>2018-07-20T09:59:24Z</time>
      </trkpt>
      <trkpt lat="45.355694" lon="6.841898">
        <ele>2280.919</ele>
        <time>2018-07-20T09:59:29Z</time>
      </trkpt>
      <trkpt lat="45.355742" lon="6.841929">
        <ele>2280.634</ele>
        <time>2018-07-20T09:59:34Z</time>
      </trkpt>
      <trkpt lat="45.355794" lon="6.841954">
        <ele>2280.421</ele>
        <time>2018-07-20T09:59:39Z</time>
      </trkpt>
      <trkpt lat="45.355846" lon="6.841969">
        <ele>2279.916</ele>
        <time>2018-07-20T09:59:44Z</time>
      </trkpt>
      <trkpt lat="45.355893" lon="6.841977">
        <ele>2279.650</ele>
        <time>2018-07-20T09:59:48Z</time>
      </trkpt>
      <trkpt lat="45.355940" lon="6.841981">
        <ele>2279.453</ele>
        <time>2018-07-20T09:59:52Z</time>
      </trkpt>
      <trkpt lat="45.355988" lon="6.841985">
        <ele>2278.935</ele>
        <time>2018-07-20T09:59:56Z</time>
      </trkpt>
      <trkpt lat="45.356034" lon="6.841981">
        <ele>2278.299</ele>
        <time>2018-07-20T10:00:00Z</time>
      </trkpt>
      <trkpt lat="45.356086" lon="6.841982">
        <ele>2277.422</ele>
        <time>2018-07-20T10:00:05Z</time>
      </trkpt>
      <trkpt lat="45.356133" lon="6.841991">
        <ele>2276.562</ele>
        <time>2018-07-20T10:00:11Z</time>
      </trkpt>
      <trkpt lat="45.356184" lon="6.841981">
        <ele>2275.608</ele>
        <time>2018-07-20T10:00:17Z</time>
      </trkpt>
      <trkpt lat="45.356232" lon="6.841956">
        <ele>2274.608</ele>
        <time>2018-07-20T10:00:22Z</time>
      </trkpt>
      <trkpt lat="45.356280" lon="6.841920">
        <ele>2273.654</ele>
        <time>2018-07-20T10:00:27Z</time>
      </trkpt>
      <trkpt lat="45.356328" lon="6.841904">
        <ele>2272.689</ele>
        <time>2018-07-20T10:00:32Z</time>
      </trkpt>
      <trkpt lat="45.356377" lon="6.841905">
        <ele>2271.666</ele>
        <time>2018-07-20T10:00:37Z</time>
      </trkpt>
      <trkpt lat="45.356427" lon="6.841902">
        <ele>2270.651</ele>
        <time>2018-07-20T10:00:42Z</time>
      </trkpt>
      <trkpt lat="45.356473" lon="6.841895">
        <ele>2269.625</ele>
        <time>2018-07-20T10:00:47Z</time>
      </trkpt>
      <trkpt lat="45.356523" lon="6.841866">
        <ele>2268.628</ele>
        <time>2018-07-20T10:00:52Z</time>
      </trkpt>
      <trkpt lat="45.356565" lon="6.841816">
        <ele>2268.020</ele>
        <time>2018-07-20T10:00:57Z</time>
      </trkpt>
      <trkpt lat="45.356595" lon="6.841755">
        <ele>2267.624</ele>
        <time>2018-07-20T10:01:02Z</time>
      </trkpt>
      <trkpt lat="45.356629" lon="6.841695">
        <ele>2266.672</ele>
        <time>2018-07-20T10:01:07Z</time>
      </trkpt>
      <trkpt lat="45.356653" lon="6.841624">
        <ele>2266.413</ele>
        <time>2018-07-20T10:01:12Z</time>
      </trkpt>
      <trkpt lat="45.356656" lon="6.841547">
        <ele>2265.914</ele>
        <time>2018-07-20T10:01:17Z</time>
      </trkpt>
      <trkpt lat="45.356653" lon="6.841479">
        <ele>2265.208</ele>
        <time>2018-07-20T10:01:22Z</time>
      </trkpt>
      <trkpt lat="45.356654" lon="6.841403">
        <ele>2264.869</ele>
        <time>2018-07-20T10:01:28Z</time>
      </trkpt>
      <trkpt lat="45.356672" lon="6.841332">
        <ele>2264.564</ele>
        <time>2018-07-20T10:01:33Z</time>
      </trkpt>
      <trkpt lat="45.356692" lon="6.841263">
        <ele>2263.941</ele>
        <time>2018-07-20T10:01:38Z</time>
      </trkpt>
      <trkpt lat="45.356710" lon="6.841196">
        <ele>2263.616</ele>
        <time>2018-07-20T10:01:43Z</time>
      </trkpt>
      <trkpt lat="45.356727" lon="6.841128">
        <ele>2263.870</ele>
        <time>2018-07-20T10:01:49Z</time>
      </trkpt>
      <trkpt lat="45.356738" lon="6.841061">
        <ele>2263.173</ele>
        <time>2018-07-20T10:01:54Z</time>
      </trkpt>
      <trkpt lat="45.356778" lon="6.841022">
        <ele>2262.385</ele>
        <time>2018-07-20T10:02:00Z</time>
      </trkpt>
      <trkpt lat="45.356819" lon="6.841058">
        <ele>2261.899</ele>
        <time>2018-07-20T10:02:05Z</time>
      </trkpt>
      <trkpt lat="45.356836" lon="6.840999">
        <ele>2260.395</ele>
        <time>2018-07-20T10:02:14Z</time>
      </trkpt>
      <trkpt lat="45.356816" lon="6.840934">
        <ele>2259.049</ele>
        <time>2018-07-20T10:02:19Z</time>
      </trkpt>
      <trkpt lat="45.356801" lon="6.840860">
        <ele>2257.823</ele>
        <time>2018-07-20T10:02:25Z</time>
      </trkpt>
      <trkpt lat="45.356787" lon="6.840792">
        <ele>2256.708</ele>
        <time>2018-07-20T10:02:30Z</time>
      </trkpt>
      <trkpt lat="45.356765" lon="6.840732">
        <ele>2255.661</ele>
        <time>2018-07-20T10:02:35Z</time>
      </trkpt>
      <trkpt lat="45.356745" lon="6.840670">
        <ele>2255.026</ele>
        <time>2018-07-20T10:02:40Z</time>
      </trkpt>
      <trkpt lat="45.356727" lon="6.840603">
        <ele>2254.633</ele>
        <time>2018-07-20T10:02:46Z</time>
      </trkpt>
      <trkpt lat="45.356721" lon="6.840539">
        <ele>2253.628</ele>
        <time>2018-07-20T10:02:51Z</time>
      </trkpt>
      <trkpt lat="45.356713" lon="6.840475">
        <ele>2252.692</ele>
        <time>2018-07-20T10:02:57Z</time>
      </trkpt>
      <trkpt lat="45.356692" lon="6.840410">
        <ele>2251.645</ele>
        <time>2018-07-20T10:03:03Z</time>
      </trkpt>
      <trkpt lat="45.356661" lon="6.840356">
        <ele>2249.867</ele>
        <time>2018-07-20T10:03:08Z</time>
      </trkpt>
      <trkpt lat="45.356621" lon="6.840303">
        <ele>2248.381</ele>
        <time>2018-07-20T10:03:13Z</time>
      </trkpt>
      <trkpt lat="45.356578" lon="6.840254">
        <ele>2247.465</ele>
        <time>2018-07-20T10:03:18Z</time>
      </trkpt>
      <trkpt lat="45.356545" lon="6.840209">
        <ele>2246.968</ele>
        <time>2018-07-20T10:03:22Z</time>
      </trkpt>
      <trkpt lat="45.356516" lon="6.840146">
        <ele>2246.614</ele>
        <time>2018-07-20T10:03:27Z</time>
      </trkpt>
      <trkpt lat="45.356494" lon="6.840084">
        <ele>2246.008</ele>
        <time>2018-07-20T10:03:32Z</time>
      </trkpt>
      <trkpt lat="45.356460" lon="6.840025">
        <ele>2245.258</ele>
        <time>2018-07-20T10:03:37Z</time>
      </trkpt>
      <trkpt lat="45.356423" lon="6.839969">
        <ele>2244.313</ele>
        <time>2018-07-20T10:03:42Z</time>
      </trkpt>
      <trkpt lat="45.356389" lon="6.839906">
        <ele>2243.440</ele>
        <time>2018-07-20T10:03:47Z</time>
      </trkpt>
      <trkpt lat="45.356353" lon="6.839845">
        <ele>2242.575</ele>
        <time>2018-07-20T10:03:52Z</time>
      </trkpt>
      <trkpt lat="45.356318" lon="6.839782">
        <ele>2241.529</ele>
        <time>2018-07-20T10:03:57Z</time>
      </trkpt>
      <trkpt lat="45.356287" lon="6.839733">
        <ele>2240.552</ele>
        <time>2018-07-20T10:04:01Z</time>
      </trkpt>
      <trkpt lat="45.356262" lon="6.839677">
        <ele>2239.934</ele>
        <time>2018-07-20T10:04:05Z</time>
      </trkpt>
      <trkpt lat="45.356240" lon="6.839618">
        <ele>2239.568</ele>
        <time>2018-07-20T10:04:09Z</time>
      </trkpt>
      <trkpt lat="45.356225" lon="6.839557">
        <ele>2239.772</ele>
        <time>2018-07-20T10:04:13Z</time>
      </trkpt>
      <trkpt lat="45.356218" lon="6.839486">
        <ele>2239.413</ele>
        <time>2018-07-20T10:04:22Z</time>
      </trkpt>
      <trkpt lat="45.356216" lon="6.839397">
        <ele>2239.214</ele>
        <time>2018-07-20T10:05:08Z</time>
      </trkpt>
      <trkpt lat="45.356198" lon="6.839326">
        <ele>2238.708</ele>
        <time>2018-07-20T10:05:17Z</time>
      </trkpt>
      <trkpt lat="45.356170" lon="6.839273">
        <ele>2238.419</ele>
        <time>2018-07-20T10:05:23Z</time>
      </trkpt>
      <trkpt lat="45.356214" lon="6.839247">
        <ele>2237.024</ele>
        <time>2018-07-20T10:05:32Z</time>
      </trkpt>
      <trkpt lat="45.356257" lon="6.839284">
        <ele>2235.871</ele>
        <time>2018-07-20T10:05:39Z</time>
      </trkpt>
      <trkpt lat="45.356304" lon="6.839316">
        <ele>2235.176</ele>
        <time>2018-07-20T10:05:45Z</time>
      </trkpt>
      <trkpt lat="45.356347" lon="6.839348">
        <ele>2233.910</ele>
        <time>2018-07-20T10:05:50Z</time>
      </trkpt>
      <trkpt lat="45.356379" lon="6.839398">
        <ele>2233.223</ele>
        <time>2018-07-20T10:05:55Z</time>
      </trkpt>
      <trkpt lat="45.356404" lon="6.839464">
        <ele>2232.875</ele>
        <time>2018-07-20T10:06:00Z</time>
      </trkpt>
      <trkpt lat="45.356425" lon="6.839524">
        <ele>2232.189</ele>
        <time>2018-07-20T10:06:05Z</time>
      </trkpt>
      <trkpt lat="45.356457" lon="6.839476">
        <ele>2231.774</ele>
        <time>2018-07-20T10:06:14Z</time>
      </trkpt>
      <trkpt lat="45.356458" lon="6.839401">
        <ele>2230.756</ele>
        <time>2018-07-20T10:06:20Z</time>
      </trkpt>
      <trkpt lat="45.356454" lon="6.839335">
        <ele>2230.121</ele>
        <time>2018-07-20T10:06:26Z</time>
      </trkpt>
      <trkpt lat="45.356455" lon="6.839267">
        <ele>2229.708</ele>
        <time>2018-07-20T10:06:32Z</time>
      </trkpt>
      <trkpt lat="45.356457" lon="6.839200">
        <ele>2228.379</ele>
        <time>2018-07-20T10:06:37Z</time>
      </trkpt>
      <trkpt lat="45.356460" lon="6.839135">
        <ele>2227.014</ele>
        <time>2018-07-20T10:06:42Z</time>
      </trkpt>
      <trkpt lat="45.356469" lon="6.839063">
        <ele>2225.861</ele>
        <time>2018-07-20T10:06:48Z</time>
      </trkpt>
      <trkpt lat="45.356491" lon="6.839006">
        <ele>2224.326</ele>
        <time>2018-07-20T10:06:53Z</time>
      </trkpt>
      <trkpt lat="45.356484" lon="6.838934">
        <ele>2223.430</ele>
        <time>2018-07-20T10:06:58Z</time>
      </trkpt>
      <trkpt lat="45.356470" lon="6.838873">
        <ele>2223.393</ele>
        <time>2018-07-20T10:07:03Z</time>
      </trkpt>
      <trkpt lat="45.356460" lon="6.838798">
        <ele>2222.895</ele>
        <time>2018-07-20T10:07:10Z</time>
      </trkpt>
      <trkpt lat="45.356468" lon="6.838722">
        <ele>2222.549</ele>
        <time>2018-07-20T10:07:16Z</time>
      </trkpt>
      <trkpt lat="45.356473" lon="6.838656">
        <ele>2222.366</ele>
        <time>2018-07-20T10:07:21Z</time>
      </trkpt>
      <trkpt lat="45.356473" lon="6.838584">
        <ele>2221.829</ele>
        <time>2018-07-20T10:07:27Z</time>
      </trkpt>
      <trkpt lat="45.356516" lon="6.838563">
        <ele>2221.121</ele>
        <time>2018-07-20T10:07:34Z</time>
      </trkpt>
      <trkpt lat="45.356552" lon="6.838605">
        <ele>2220.708</ele>
        <time>2018-07-20T10:07:39Z</time>
      </trkpt>
      <trkpt lat="45.356580" lon="6.838662">
        <ele>2219.658</ele>
        <time>2018-07-20T10:07:44Z</time>
      </trkpt>
      <trkpt lat="45.356609" lon="6.838721">
        <ele>2218.253</ele>
        <time>2018-07-20T10:07:49Z</time>
      </trkpt>
      <trkpt lat="45.356643" lon="6.838776">
        <ele>2216.910</ele>
        <time>2018-07-20T10:07:54Z</time>
      </trkpt>
      <trkpt lat="45.356663" lon="6.838841">
        <ele>2215.725</ele>
        <time>2018-07-20T10:07:59Z</time>
      </trkpt>
      <trkpt lat="45.356683" lon="6.838899">
        <ele>2214.639</ele>
        <time>2018-07-20T10:08:04Z</time>
      </trkpt>
      <trkpt lat="45.356716" lon="6.838853">
        <ele>2213.982</ele>
        <time>2018-07-20T10:08:13Z</time>
      </trkpt>
      <trkpt lat="45.356750" lon="6.838805">
        <ele>2213.124</ele>
        <time>2018-07-20T10:08:20Z</time>
      </trkpt>
      <trkpt lat="45.356778" lon="6.838860">
        <ele>2211.868</ele>
        <time>2018-07-20T10:08:26Z</time>
      </trkpt>
      <trkpt lat="45.356791" lon="6.838926">
        <ele>2211.037</ele>
        <time>2018-07-20T10:08:31Z</time>
      </trkpt>
      <trkpt lat="45.356817" lon="6.838991">
        <ele>2210.149</ele>
        <time>2018-07-20T10:08:37Z</time>
      </trkpt>
      <trkpt lat="45.356847" lon="6.839055">
        <ele>2209.213</ele>
        <time>2018-07-20T10:08:43Z</time>
      </trkpt>
      <trkpt lat="45.356879" lon="6.839110">
        <ele>2208.708</ele>
        <time>2018-07-20T10:08:48Z</time>
      </trkpt>
      <trkpt lat="45.356906" lon="6.839162">
        <ele>2208.055</ele>
        <time>2018-07-20T10:08:52Z</time>
      </trkpt>
      <trkpt lat="45.356928" lon="6.839224">
        <ele>2208.410</ele>
        <time>2018-07-20T10:08:57Z</time>
      </trkpt>
      <trkpt lat="45.356949" lon="6.839289">
        <ele>2207.897</ele>
        <time>2018-07-20T10:09:02Z</time>
      </trkpt>
      <trkpt lat="45.356975" lon="6.839350">
        <ele>2207.562</ele>
        <time>2018-07-20T10:09:08Z</time>
      </trkpt>
      <trkpt lat="45.357010" lon="6.839400">
        <ele>2206.976</ele>
        <time>2018-07-20T10:09:15Z</time>
      </trkpt>
      <trkpt lat="45.357049" lon="6.839451">
        <ele>2205.389</ele>
        <time>2018-07-20T10:09:21Z</time>
      </trkpt>
      <trkpt lat="45.357090" lon="6.839495">
        <ele>2203.611</ele>
        <time>2018-07-20T10:09:26Z</time>
      </trkpt>
      <trkpt lat="45.357133" lon="6.839527">
        <ele>2201.825</ele>
        <time>2018-07-20T10:09:31Z</time>
      </trkpt>
      <trkpt lat="45.357171" lon="6.839563">
        <ele>2200.384</ele>
        <time>2018-07-20T10:09:36Z</time>
      </trkpt>
      <trkpt lat="45.357210" lon="6.839597">
        <ele>2199.407</ele>
        <time>2018-07-20T10:09:41Z</time>
      </trkpt>
      <trkpt lat="45.357260" lon="6.839624">
        <ele>2198.917</ele>
        <time>2018-07-20T10:09:46Z</time>
      </trkpt>
      <trkpt lat="45.357304" lon="6.839647">
        <ele>2198.208</ele>
        <time>2018-07-20T10:09:51Z</time>
      </trkpt>
      <trkpt lat="45.357353" lon="6.839663">
        <ele>2198.280</ele>
        <time>2018-07-20T10:09:56Z</time>
      </trkpt>
      <trkpt lat="45.357404" lon="6.839662">
        <ele>2197.045</ele>
        <time>2018-07-20T10:10:02Z</time>
      </trkpt>
      <trkpt lat="45.357393" lon="6.839600">
        <ele>2195.972</ele>
        <time>2018-07-20T10:10:09Z</time>
      </trkpt>
      <trkpt lat="45.357361" lon="6.839555">
        <ele>2194.427</ele>
        <time>2018-07-20T10:10:14Z</time>
      </trkpt>
      <trkpt lat="45.357317" lon="6.839515">
        <ele>2193.171</ele>
        <time>2018-07-20T10:10:19Z</time>
      </trkpt>
      <trkpt lat="45.357280" lon="6.839466">
        <ele>2191.924</ele>
        <time>2018-07-20T10:10:24Z</time>
      </trkpt>
      <trkpt lat="45.357327" lon="6.839445">
        <ele>2190.836</ele>
        <time>2018-07-20T10:10:34Z</time>
      </trkpt>
      <trkpt lat="45.357375" lon="6.839470">
        <ele>2190.580</ele>
        <time>2018-07-20T10:10:40Z</time>
      </trkpt>
      <trkpt lat="45.357419" lon="6.839483">
        <ele>2190.383</ele>
        <time>2018-07-20T10:10:45Z</time>
      </trkpt>
      <trkpt lat="45.357467" lon="6.839494">
        <ele>2190.625</ele>
        <time>2018-07-20T10:10:50Z</time>
      </trkpt>
      <trkpt lat="45.357520" lon="6.839513">
        <ele>2190.417</ele>
        <time>2018-07-20T10:10:55Z</time>
      </trkpt>
      <trkpt lat="45.357565" lon="6.839538">
        <ele>2190.308</ele>
        <time>2018-07-20T10:11:00Z</time>
      </trkpt>
      <trkpt lat="45.357611" lon="6.839575">
        <ele>2189.470</ele>
        <time>2018-07-20T10:11:05Z</time>
      </trkpt>
      <trkpt lat="45.357653" lon="6.839599">
        <ele>2188.925</ele>
        <time>2018-07-20T10:11:09Z</time>
      </trkpt>
      <trkpt lat="45.357704" lon="6.839628">
        <ele>2187.822</ele>
        <time>2018-07-20T10:11:14Z</time>
      </trkpt>
      <trkpt lat="45.357753" lon="6.839670">
        <ele>2186.777</ele>
        <time>2018-07-20T10:11:19Z</time>
      </trkpt>
      <trkpt lat="45.357797" lon="6.839692">
        <ele>2185.731</ele>
        <time>2018-07-20T10:11:23Z</time>
      </trkpt>
      <trkpt lat="45.357835" lon="6.839727">
        <ele>2185.534</ele>
        <time>2018-07-20T10:11:27Z</time>
      </trkpt>
      <trkpt lat="45.357869" lon="6.839773">
        <ele>2185.456</ele>
        <time>2018-07-20T10:11:31Z</time>
      </trkpt>
      <trkpt lat="45.357900" lon="6.839823">
        <ele>2184.940</ele>
        <time>2018-07-20T10:11:35Z</time>
      </trkpt>
      <trkpt lat="45.357933" lon="6.839874">
        <ele>2184.236</ele>
        <time>2018-07-20T10:11:39Z</time>
      </trkpt>
      <trkpt lat="45.357963" lon="6.839941">
        <ele>2183.817</ele>
        <time>2018-07-20T10:11:44Z</time>
      </trkpt>
      <trkpt lat="45.357996" lon="6.839999">
        <ele>2183.218</ele>
        <time>2018-07-20T10:11:49Z</time>
      </trkpt>
      <trkpt lat="45.358036" lon="6.840052">
        <ele>2182.408</ele>
        <time>2018-07-20T10:11:54Z</time>
      </trkpt>
      <trkpt lat="45.358072" lon="6.840096">
        <ele>2181.535</ele>
        <time>2018-07-20T10:11:58Z</time>
      </trkpt>
      <trkpt lat="45.358108" lon="6.840140">
        <ele>2180.670</ele>
        <time>2018-07-20T10:12:02Z</time>
      </trkpt>
      <trkpt lat="45.358140" lon="6.840188">
        <ele>2180.067</ele>
        <time>2018-07-20T10:12:06Z</time>
      </trkpt>
      <trkpt lat="45.358175" lon="6.840231">
        <ele>2179.362</ele>
        <time>2018-07-20T10:12:10Z</time>
      </trkpt>
      <trkpt lat="45.358214" lon="6.840290">
        <ele>2178.576</ele>
        <time>2018-07-20T10:12:15Z</time>
      </trkpt>
      <trkpt lat="45.358247" lon="6.840341">
        <ele>2178.049</ele>
        <time>2018-07-20T10:12:19Z</time>
      </trkpt>
      <trkpt lat="45.358286" lon="6.840382">
        <ele>2177.391</ele>
        <time>2018-07-20T10:12:23Z</time>
      </trkpt>
      <trkpt lat="45.358327" lon="6.840433">
        <ele>2176.575</ele>
        <time>2018-07-20T10:12:28Z</time>
      </trkpt>
      <trkpt lat="45.358367" lon="6.840487">
        <ele>2175.696</ele>
        <time>2018-07-20T10:12:33Z</time>
      </trkpt>
      <trkpt lat="45.358399" lon="6.840532">
        <ele>2174.731</ele>
        <time>2018-07-20T10:12:37Z</time>
      </trkpt>
      <trkpt lat="45.358433" lon="6.840596">
        <ele>2174.124</ele>
        <time>2018-07-20T10:12:42Z</time>
      </trkpt>
      <trkpt lat="45.358466" lon="6.840655">
        <ele>2173.808</ele>
        <time>2018-07-20T10:12:47Z</time>
      </trkpt>
      <trkpt lat="45.358504" lon="6.840691">
        <ele>2174.051</ele>
        <time>2018-07-20T10:12:52Z</time>
      </trkpt>
      <trkpt lat="45.358542" lon="6.840734">
        <ele>2173.776</ele>
        <time>2018-07-20T10:13:00Z</time>
      </trkpt>
      <trkpt lat="45.358591" lon="6.840771">
        <ele>2173.193</ele>
        <time>2018-07-20T10:13:07Z</time>
      </trkpt>
      <trkpt lat="45.358635" lon="6.840803">
        <ele>2172.838</ele>
        <time>2018-07-20T10:13:12Z</time>
      </trkpt>
      <trkpt lat="45.358677" lon="6.840834">
        <ele>2172.642</ele>
        <time>2018-07-20T10:13:17Z</time>
      </trkpt>
      <trkpt lat="45.358728" lon="6.840863">
        <ele>2172.565</ele>
        <time>2018-07-20T10:13:23Z</time>
      </trkpt>
      <trkpt lat="45.358779" lon="6.840887">
        <ele>2171.637</ele>
        <time>2018-07-20T10:13:28Z</time>
      </trkpt>
      <trkpt lat="45.358827" lon="6.840911">
        <ele>2171.131</ele>
        <time>2018-07-20T10:13:33Z</time>
      </trkpt>
      <trkpt lat="45.358877" lon="6.840928">
        <ele>2170.487</ele>
        <time>2018-07-20T10:13:38Z</time>
      </trkpt>
      <trkpt lat="45.358922" lon="6.840949">
        <ele>2170.042</ele>
        <time>2018-07-20T10:13:42Z</time>
      </trkpt>
      <trkpt lat="45.358968" lon="6.840987">
        <ele>2169.326</ele>
        <time>2018-07-20T10:13:47Z</time>
      </trkpt>
      <trkpt lat="45.359017" lon="6.841020">
        <ele>2168.908</ele>
        <time>2018-07-20T10:13:52Z</time>
      </trkpt>
      <trkpt lat="45.359062" lon="6.841043">
        <ele>2168.710</ele>
        <time>2018-07-20T10:13:56Z</time>
      </trkpt>
      <trkpt lat="45.359109" lon="6.841088">
        <ele>2168.245</ele>
        <time>2018-07-20T10:14:01Z</time>
      </trkpt>
      <trkpt lat="45.359145" lon="6.841129">
        <ele>2167.922</ele>
        <time>2018-07-20T10:14:05Z</time>
      </trkpt>
      <trkpt lat="45.359185" lon="6.841164">
        <ele>2167.337</ele>
        <time>2018-07-20T10:14:09Z</time>
      </trkpt>
      <trkpt lat="45.359231" lon="6.841186">
        <ele>2166.951</ele>
        <time>2018-07-20T10:14:13Z</time>
      </trkpt>
      <trkpt lat="45.359276" lon="6.841209">
        <ele>2166.394</ele>
        <time>2018-07-20T10:14:18Z</time>
      </trkpt>
      <trkpt lat="45.359313" lon="6.841263">
        <ele>2165.936</ele>
        <time>2018-07-20T10:14:23Z</time>
      </trkpt>
      <trkpt lat="45.359355" lon="6.841312">
        <ele>2165.790</ele>
        <time>2018-07-20T10:14:28Z</time>
      </trkpt>
      <trkpt lat="45.359401" lon="6.841356">
        <ele>2165.211</ele>
        <time>2018-07-20T10:14:33Z</time>
      </trkpt>
      <trkpt lat="45.359443" lon="6.841401">
        <ele>2164.921</ele>
        <time>2018-07-20T10:14:38Z</time>
      </trkpt>
      <trkpt lat="45.359483" lon="6.841452">
        <ele>2164.703</ele>
        <time>2018-07-20T10:14:43Z</time>
      </trkpt>
      <trkpt lat="45.359523" lon="6.841495">
        <ele>2164.608</ele>
        <time>2018-07-20T10:14:48Z</time>
      </trkpt>
      <trkpt lat="45.359560" lon="6.841533">
        <ele>2164.593</ele>
        <time>2018-07-20T10:14:53Z</time>
      </trkpt>
      <trkpt lat="45.359606" lon="6.841553">
        <ele>2164.568</ele>
        <time>2018-07-20T10:14:58Z</time>
      </trkpt>
      <trkpt lat="45.359658" lon="6.841573">
        <ele>2164.155</ele>
        <time>2018-07-20T10:15:04Z</time>
      </trkpt>
      <trkpt lat="45.359703" lon="6.841615">
        <ele>2163.080</ele>
        <time>2018-07-20T10:15:10Z</time>
      </trkpt>
      <trkpt lat="45.359748" lon="6.841657">
        <ele>2162.424</ele>
        <time>2018-07-20T10:15:15Z</time>
      </trkpt>
      <trkpt lat="45.359786" lon="6.841707">
        <ele>2161.637</ele>
        <time>2018-07-20T10:15:20Z</time>
      </trkpt>
      <trkpt lat="45.359820" lon="6.841754">
        <ele>2160.759</ele>
        <time>2018-07-20T10:15:25Z</time>
      </trkpt>
      <trkpt lat="45.359863" lon="6.841803">
        <ele>2159.833</ele>
        <time>2018-07-20T10:15:30Z</time>
      </trkpt>
      <trkpt lat="45.359901" lon="6.841858">
        <ele>2158.464</ele>
        <time>2018-07-20T10:15:35Z</time>
      </trkpt>
      <trkpt lat="45.359940" lon="6.841913">
        <ele>2158.006</ele>
        <time>2018-07-20T10:15:40Z</time>
      </trkpt>
      <trkpt lat="45.359977" lon="6.841956">
        <ele>2157.416</ele>
        <time>2018-07-20T10:15:45Z</time>
      </trkpt>
      <trkpt lat="45.360011" lon="6.842001">
        <ele>2156.608</ele>
        <time>2018-07-20T10:15:50Z</time>
      </trkpt>
      <trkpt lat="45.360041" lon="6.842053">
        <ele>2156.138</ele>
        <time>2018-07-20T10:15:55Z</time>
      </trkpt>
      <trkpt lat="45.360074" lon="6.842114">
        <ele>2155.433</ele>
        <time>2018-07-20T10:16:01Z</time>
      </trkpt>
      <trkpt lat="45.360107" lon="6.842160">
        <ele>2155.080</ele>
        <time>2018-07-20T10:16:06Z</time>
      </trkpt>
      <trkpt lat="45.360151" lon="6.842202">
        <ele>2154.895</ele>
        <time>2018-07-20T10:16:11Z</time>
      </trkpt>
      <trkpt lat="45.360191" lon="6.842239">
        <ele>2154.399</ele>
        <time>2018-07-20T10:16:16Z</time>
      </trkpt>
      <trkpt lat="45.360224" lon="6.842296">
        <ele>2153.692</ele>
        <time>2018-07-20T10:16:22Z</time>
      </trkpt>
      <trkpt lat="45.360259" lon="6.842353">
        <ele>2152.814</ele>
        <time>2018-07-20T10:16:28Z</time>
      </trkpt>
      <trkpt lat="45.360286" lon="6.842410">
        <ele>2152.368</ele>
        <time>2018-07-20T10:16:33Z</time>
      </trkpt>
      <trkpt lat="45.360323" lon="6.842463">
        <ele>2151.661</ele>
        <time>2018-07-20T10:16:39Z</time>
      </trkpt>
      <trkpt lat="45.360360" lon="6.842504">
        <ele>2150.421</ele>
        <time>2018-07-20T10:16:45Z</time>
      </trkpt>
      <trkpt lat="45.360401" lon="6.842535">
        <ele>2149.313</ele>
        <time>2018-07-20T10:16:52Z</time>
      </trkpt>
      <trkpt lat="45.360443" lon="6.842497">
        <ele>2148.208</ele>
        <time>2018-07-20T10:17:00Z</time>
      </trkpt>
      <trkpt lat="45.360433" lon="6.842423">
        <ele>2146.868</ele>
        <time>2018-07-20T10:17:06Z</time>
      </trkpt>
      <trkpt lat="45.360427" lon="6.842349">
        <ele>2145.913</ele>
        <time>2018-07-20T10:17:11Z</time>
      </trkpt>
      <trkpt lat="45.360427" lon="6.842279">
        <ele>2145.010</ele>
        <time>2018-07-20T10:17:16Z</time>
      </trkpt>
      <trkpt lat="45.360419" lon="6.842213">
        <ele>2144.425</ele>
        <time>2018-07-20T10:17:21Z</time>
      </trkpt>
      <trkpt lat="45.360412" lon="6.842143">
        <ele>2144.159</ele>
        <time>2018-07-20T10:17:26Z</time>
      </trkpt>
      <trkpt lat="45.360413" lon="6.842073">
        <ele>2144.372</ele>
        <time>2018-07-20T10:17:31Z</time>
      </trkpt>
      <trkpt lat="45.360409" lon="6.842001">
        <ele>2144.054</ele>
        <time>2018-07-20T10:17:36Z</time>
      </trkpt>
      <trkpt lat="45.360390" lon="6.841926">
        <ele>2143.428</ele>
        <time>2018-07-20T10:17:41Z</time>
      </trkpt>
      <trkpt lat="45.360375" lon="6.841863">
        <ele>2142.792</ele>
        <time>2018-07-20T10:17:45Z</time>
      </trkpt>
      <trkpt lat="45.360365" lon="6.841794">
        <ele>2142.373</ele>
        <time>2018-07-20T10:17:49Z</time>
      </trkpt>
      <trkpt lat="45.360361" lon="6.841727">
        <ele>2142.020</ele>
        <time>2018-07-20T10:17:53Z</time>
      </trkpt>
      <trkpt lat="45.360363" lon="6.841662">
        <ele>2141.408</ele>
        <time>2018-07-20T10:17:57Z</time>
      </trkpt>
      <trkpt lat="45.360363" lon="6.841597">
        <ele>2141.131</ele>
        <time>2018-07-20T10:18:01Z</time>
      </trkpt>
      <trkpt lat="45.360359" lon="6.841531">
        <ele>2140.976</ele>
        <time>2018-07-20T10:18:05Z</time>
      </trkpt>
      <trkpt lat="45.360349" lon="6.841461">
        <ele>2140.473</ele>
        <time>2018-07-20T10:18:09Z</time>
      </trkpt>
      <trkpt lat="45.360345" lon="6.841393">
        <ele>2139.728</ele>
        <time>2018-07-20T10:18:13Z</time>
      </trkpt>
      <trkpt lat="45.360342" lon="6.841327">
        <ele>2139.322</ele>
        <time>2018-07-20T10:18:17Z</time>
      </trkpt>
      <trkpt lat="45.360339" lon="6.841262">
        <ele>2138.665</ele>
        <time>2018-07-20T10:18:21Z</time>
      </trkpt>
      <trkpt lat="45.360333" lon="6.841196">
        <ele>2137.877</ele>
        <time>2018-07-20T10:18:25Z</time>
      </trkpt>
      <trkpt lat="45.360323" lon="6.841132">
        <ele>2136.971</ele>
        <time>2018-07-20T10:18:29Z</time>
      </trkpt>
      <trkpt lat="45.360311" lon="6.841063">
        <ele>2136.485</ele>
        <time>2018-07-20T10:18:33Z</time>
      </trkpt>
      <trkpt lat="45.360300" lon="6.841001">
        <ele>2135.789</ele>
        <time>2018-07-20T10:18:37Z</time>
      </trkpt>
      <trkpt lat="45.360285" lon="6.840927">
        <ele>2134.917</ele>
        <time>2018-07-20T10:18:42Z</time>
      </trkpt>
      <trkpt lat="45.360264" lon="6.840855">
        <ele>2133.608</ele>
        <time>2018-07-20T10:18:47Z</time>
      </trkpt>
      <trkpt lat="45.360241" lon="6.840795">
        <ele>2132.810</ele>
        <time>2018-07-20T10:18:52Z</time>
      </trkpt>
      <trkpt lat="45.360211" lon="6.840734">
        <ele>2131.995</ele>
        <time>2018-07-20T10:18:58Z</time>
      </trkpt>
      <trkpt lat="45.360186" lon="6.840669">
        <ele>2130.692</ele>
        <time>2018-07-20T10:19:04Z</time>
      </trkpt>
      <trkpt lat="45.360221" lon="6.840619">
        <ele>2129.447</ele>
        <time>2018-07-20T10:19:10Z</time>
      </trkpt>
      <trkpt lat="45.360274" lon="6.840644">
        <ele>2128.761</ele>
        <time>2018-07-20T10:19:16Z</time>
      </trkpt>
      <trkpt lat="45.360324" lon="6.840673">
        <ele>2128.354</ele>
        <time>2018-07-20T10:19:21Z</time>
      </trkpt>
      <trkpt lat="45.360368" lon="6.840690">
        <ele>2127.666</ele>
        <time>2018-07-20T10:19:25Z</time>
      </trkpt>
      <trkpt lat="45.360424" lon="6.840699">
        <ele>2127.240</ele>
        <time>2018-07-20T10:19:30Z</time>
      </trkpt>
      <trkpt lat="45.360473" lon="6.840720">
        <ele>2126.269</ele>
        <time>2018-07-20T10:19:35Z</time>
      </trkpt>
      <trkpt lat="45.360524" lon="6.840745">
        <ele>2125.204</ele>
        <time>2018-07-20T10:19:40Z</time>
      </trkpt>
      <trkpt lat="45.360568" lon="6.840773">
        <ele>2124.224</ele>
        <time>2018-07-20T10:19:45Z</time>
      </trkpt>
      <trkpt lat="45.360616" lon="6.840797">
        <ele>2123.208</ele>
        <time>2018-07-20T10:19:50Z</time>
      </trkpt>
      <trkpt lat="45.360656" lon="6.840840">
        <ele>2122.278</ele>
        <time>2018-07-20T10:19:55Z</time>
      </trkpt>
      <trkpt lat="45.360696" lon="6.840887">
        <ele>2121.233</ele>
        <time>2018-07-20T10:20:00Z</time>
      </trkpt>
      <trkpt lat="45.360733" lon="6.840931">
        <ele>2120.250</ele>
        <time>2018-07-20T10:20:05Z</time>
      </trkpt>
      <trkpt lat="45.360752" lon="6.840997">
        <ele>2118.865</ele>
        <time>2018-07-20T10:20:10Z</time>
      </trkpt>
      <trkpt lat="45.360773" lon="6.841055">
        <ele>2117.649</ele>
        <time>2018-07-20T10:20:15Z</time>
      </trkpt>
      <trkpt lat="45.360805" lon="6.841116">
        <ele>2116.142</ele>
        <time>2018-07-20T10:20:21Z</time>
      </trkpt>
      <trkpt lat="45.360835" lon="6.841168">
        <ele>2115.264</ele>
        <time>2018-07-20T10:20:26Z</time>
      </trkpt>
      <trkpt lat="45.360868" lon="6.841222">
        <ele>2114.228</ele>
        <time>2018-07-20T10:20:31Z</time>
      </trkpt>
      <trkpt lat="45.360891" lon="6.841288">
        <ele>2113.274</ele>
        <time>2018-07-20T10:20:36Z</time>
      </trkpt>
      <trkpt lat="45.360900" lon="6.841358">
        <ele>2112.656</ele>
        <time>2018-07-20T10:20:41Z</time>
      </trkpt>
      <trkpt lat="45.360932" lon="6.841416">
        <ele>2112.621</ele>
        <time>2018-07-20T10:20:46Z</time>
      </trkpt>
      <trkpt lat="45.360958" lon="6.841471">
        <ele>2112.608</ele>
        <time>2018-07-20T10:20:51Z</time>
      </trkpt>
      <trkpt lat="45.360985" lon="6.841528">
        <ele>2111.859</ele>
        <time>2018-07-20T10:20:58Z</time>
      </trkpt>
      <trkpt lat="45.360999" lon="6.841590">
        <ele>2110.584</ele>
        <time>2018-07-20T10:21:04Z</time>
      </trkpt>
      <trkpt lat="45.361007" lon="6.841659">
        <ele>2108.911</ele>
        <time>2018-07-20T10:21:11Z</time>
      </trkpt>
      <trkpt lat="45.361045" lon="6.841619">
        <ele>2107.646</ele>
        <time>2018-07-20T10:21:34Z</time>
      </trkpt>
      <trkpt lat="45.361075" lon="6.841561">
        <ele>2106.440</ele>
        <time>2018-07-20T10:21:41Z</time>
      </trkpt>
      <trkpt lat="45.361067" lon="6.841493">
        <ele>2105.763</ele>
        <time>2018-07-20T10:21:55Z</time>
      </trkpt>
      <trkpt lat="45.361055" lon="6.841412">
        <ele>2103.315</ele>
        <time>2018-07-20T10:22:45Z</time>
      </trkpt>
      <trkpt lat="45.361072" lon="6.841342">
        <ele>2101.899</ele>
        <time>2018-07-20T10:22:56Z</time>
      </trkpt>
      <trkpt lat="45.361063" lon="6.841278">
        <ele>2100.946</ele>
        <time>2018-07-20T10:23:12Z</time>
      </trkpt>
      <trkpt lat="45.361056" lon="6.841209">
        <ele>2100.488</ele>
        <time>2018-07-20T10:23:17Z</time>
      </trkpt>
      <trkpt lat="45.361049" lon="6.841132">
        <ele>2100.516</ele>
        <time>2018-07-20T10:23:22Z</time>
      </trkpt>
      <trkpt lat="45.361042" lon="6.841063">
        <ele>2100.608</ele>
        <time>2018-07-20T10:23:34Z</time>
      </trkpt>
      <trkpt lat="45.361041" lon="6.840996">
        <ele>2100.666</ele>
        <time>2018-07-20T10:23:39Z</time>
      </trkpt>
      <trkpt lat="45.361041" lon="6.840917">
        <ele>2100.621</ele>
        <time>2018-07-20T10:23:44Z</time>
      </trkpt>
      <trkpt lat="45.361038" lon="6.840840">
        <ele>2100.248</ele>
        <time>2018-07-20T10:23:49Z</time>
      </trkpt>
      <trkpt lat="45.361031" lon="6.840777">
        <ele>2100.013</ele>
        <time>2018-07-20T10:23:53Z</time>
      </trkpt>
      <trkpt lat="45.361027" lon="6.840713">
        <ele>2099.527</ele>
        <time>2018-07-20T10:23:57Z</time>
      </trkpt>
      <trkpt lat="45.361024" lon="6.840634">
        <ele>2098.880</ele>
        <time>2018-07-20T10:24:02Z</time>
      </trkpt>
      <trkpt lat="45.361022" lon="6.840567">
        <ele>2098.012</ele>
        <time>2018-07-20T10:24:06Z</time>
      </trkpt>
      <trkpt lat="45.361022" lon="6.840503">
        <ele>2097.526</ele>
        <time>2018-07-20T10:24:10Z</time>
      </trkpt>
      <trkpt lat="45.361019" lon="6.840428">
        <ele>2097.232</ele>
        <time>2018-07-20T10:24:15Z</time>
      </trkpt>
      <trkpt lat="45.361008" lon="6.840365">
        <ele>2096.692</ele>
        <time>2018-07-20T10:24:19Z</time>
      </trkpt>
      <trkpt lat="45.360999" lon="6.840297">
        <ele>2095.911</ele>
        <time>2018-07-20T10:24:23Z</time>
      </trkpt>
      <trkpt lat="45.360989" lon="6.840223">
        <ele>2095.908</ele>
        <time>2018-07-20T10:24:28Z</time>
      </trkpt>
      <trkpt lat="45.360974" lon="6.840157">
        <ele>2095.535</ele>
        <time>2018-07-20T10:24:32Z</time>
      </trkpt>
      <trkpt lat="45.360961" lon="6.840091">
        <ele>2094.820</ele>
        <time>2018-07-20T10:24:36Z</time>
      </trkpt>
      <trkpt lat="45.360947" lon="6.840016">
        <ele>2094.417</ele>
        <time>2018-07-20T10:24:41Z</time>
      </trkpt>
      <trkpt lat="45.360932" lon="6.839942">
        <ele>2094.292</ele>
        <time>2018-07-20T10:24:46Z</time>
      </trkpt>
      <trkpt lat="45.360917" lon="6.839881">
        <ele>2093.726</ele>
        <time>2018-07-20T10:24:50Z</time>
      </trkpt>
      <trkpt lat="45.360897" lon="6.839818">
        <ele>2093.089</ele>
        <time>2018-07-20T10:24:54Z</time>
      </trkpt>
      <trkpt lat="45.360886" lon="6.839747">
        <ele>2091.841</ele>
        <time>2018-07-20T10:25:13Z</time>
      </trkpt>
      <trkpt lat="45.360864" lon="6.839683">
        <ele>2090.755</ele>
        <time>2018-07-20T10:25:18Z</time>
      </trkpt>
      <trkpt lat="45.360840" lon="6.839613">
        <ele>2089.696</ele>
        <time>2018-07-20T10:25:23Z</time>
      </trkpt>
      <trkpt lat="45.360821" lon="6.839542">
        <ele>2088.531</ele>
        <time>2018-07-20T10:25:28Z</time>
      </trkpt>
      <trkpt lat="45.360804" lon="6.839474">
        <ele>2087.924</ele>
        <time>2018-07-20T10:25:33Z</time>
      </trkpt>
      <trkpt lat="45.360785" lon="6.839415">
        <ele>2087.108</ele>
        <time>2018-07-20T10:25:37Z</time>
      </trkpt>
      <trkpt lat="45.360769" lon="6.839347">
        <ele>2085.811</ele>
        <time>2018-07-20T10:25:42Z</time>
      </trkpt>
      <trkpt lat="45.360757" lon="6.839271">
        <ele>2085.016</ele>
        <time>2018-07-20T10:25:56Z</time>
      </trkpt>
      <trkpt lat="45.360735" lon="6.839204">
        <ele>2084.533</ele>
        <time>2018-07-20T10:26:01Z</time>
      </trkpt>
      <trkpt lat="45.360715" lon="6.839130">
        <ele>2084.298</ele>
        <time>2018-07-20T10:26:06Z</time>
      </trkpt>
      <trkpt lat="45.360700" lon="6.839054">
        <ele>2083.672</ele>
        <time>2018-07-20T10:26:11Z</time>
      </trkpt>
      <trkpt lat="45.360686" lon="6.838988">
        <ele>2082.915</ele>
        <time>2018-07-20T10:26:15Z</time>
      </trkpt>
      <trkpt lat="45.360674" lon="6.838912">
        <ele>2082.127</ele>
        <time>2018-07-20T10:26:20Z</time>
      </trkpt>
      <trkpt lat="45.360662" lon="6.838841">
        <ele>2081.661</ele>
        <time>2018-07-20T10:26:25Z</time>
      </trkpt>
      <trkpt lat="45.360649" lon="6.838765">
        <ele>2080.997</ele>
        <time>2018-07-20T10:26:30Z</time>
      </trkpt>
      <trkpt lat="45.360637" lon="6.838690">
        <ele>2080.123</ele>
        <time>2018-07-20T10:26:35Z</time>
      </trkpt>
      <trkpt lat="45.360624" lon="6.838623">
        <ele>2080.025</ele>
        <time>2018-07-20T10:26:41Z</time>
      </trkpt>
      <trkpt lat="45.360613" lon="6.838561">
        <ele>2079.508</ele>
        <time>2018-07-20T10:26:45Z</time>
      </trkpt>
      <trkpt lat="45.360597" lon="6.838485">
        <ele>2079.261</ele>
        <time>2018-07-20T10:26:50Z</time>
      </trkpt>
      <trkpt lat="45.360586" lon="6.838421">
        <ele>2078.696</ele>
        <time>2018-07-20T10:26:54Z</time>
      </trkpt>
      <trkpt lat="45.360573" lon="6.838356">
        <ele>2078.793</ele>
        <time>2018-07-20T10:26:58Z</time>
      </trkpt>
      <trkpt lat="45.360559" lon="6.838292">
        <ele>2078.778</ele>
        <time>2018-07-20T10:27:02Z</time>
      </trkpt>
      <trkpt lat="45.360544" lon="6.838225">
        <ele>2078.322</ele>
        <time>2018-07-20T10:27:06Z</time>
      </trkpt>
      <trkpt lat="45.360527" lon="6.838159">
        <ele>2077.775</ele>
        <time>2018-07-20T10:27:10Z</time>
      </trkpt>
      <trkpt lat="45.360509" lon="6.838095">
        <ele>2077.337</ele>
        <time>2018-07-20T10:27:14Z</time>
      </trkpt>
      <trkpt lat="45.360488" lon="6.838032">
        <ele>2076.741</ele>
        <time>2018-07-20T10:27:18Z</time>
      </trkpt>
      <trkpt lat="45.360467" lon="6.837964">
        <ele>2075.968</ele>
        <time>2018-07-20T10:27:22Z</time>
      </trkpt>
      <trkpt lat="45.360448" lon="6.837900">
        <ele>2075.442</ele>
        <time>2018-07-20T10:27:26Z</time>
      </trkpt>
      <trkpt lat="45.360427" lon="6.837836">
        <ele>2074.726</ele>
        <time>2018-07-20T10:27:30Z</time>
      </trkpt>
      <trkpt lat="45.360408" lon="6.837771">
        <ele>2073.908</ele>
        <time>2018-07-20T10:27:34Z</time>
      </trkpt>
      <trkpt lat="45.360388" lon="6.837706">
        <ele>2073.078</ele>
        <time>2018-07-20T10:27:38Z</time>
      </trkpt>
      <trkpt lat="45.360370" lon="6.837643">
        <ele>2072.173</ele>
        <time>2018-07-20T10:27:42Z</time>
      </trkpt>
      <trkpt lat="45.360357" lon="6.837571">
        <ele>2070.760</ele>
        <time>2018-07-20T10:27:48Z</time>
      </trkpt>
      <trkpt lat="45.360346" lon="6.837497">
        <ele>2069.955</ele>
        <time>2018-07-20T10:27:54Z</time>
      </trkpt>
      <trkpt lat="45.360336" lon="6.837432">
        <ele>2069.079</ele>
        <time>2018-07-20T10:27:58Z</time>
      </trkpt>
      <trkpt lat="45.360327" lon="6.837365">
        <ele>2068.522</ele>
        <time>2018-07-20T10:28:02Z</time>
      </trkpt>
      <trkpt lat="45.360321" lon="6.837299">
        <ele>2068.274</ele>
        <time>2018-07-20T10:28:06Z</time>
      </trkpt>
      <trkpt lat="45.360315" lon="6.837232">
        <ele>2067.668</ele>
        <time>2018-07-20T10:28:10Z</time>
      </trkpt>
      <trkpt lat="45.360303" lon="6.837167">
        <ele>2067.295</ele>
        <time>2018-07-20T10:28:14Z</time>
      </trkpt>
      <trkpt lat="45.360286" lon="6.837093">
        <ele>2067.049</ele>
        <time>2018-07-20T10:28:19Z</time>
      </trkpt>
      <trkpt lat="45.360275" lon="6.837030">
        <ele>2066.923</ele>
        <time>2018-07-20T10:28:23Z</time>
      </trkpt>
      <trkpt lat="45.360261" lon="6.836968">
        <ele>2066.808</ele>
        <time>2018-07-20T10:28:27Z</time>
      </trkpt>
      <trkpt lat="45.360250" lon="6.836902">
        <ele>2066.051</ele>
        <time>2018-07-20T10:28:31Z</time>
      </trkpt>
      <trkpt lat="45.360247" lon="6.836836">
        <ele>2065.576</ele>
        <time>2018-07-20T10:28:35Z</time>
      </trkpt>
      <trkpt lat="45.360256" lon="6.836770">
        <ele>2064.813</ele>
        <time>2018-07-20T10:28:39Z</time>
      </trkpt>
      <trkpt lat="45.360267" lon="6.836700">
        <ele>2064.058</ele>
        <time>2018-07-20T10:28:43Z</time>
      </trkpt>
      <trkpt lat="45.360284" lon="6.836637">
        <ele>2063.562</ele>
        <time>2018-07-20T10:28:47Z</time>
      </trkpt>
      <trkpt lat="45.360321" lon="6.836576">
        <ele>2063.235</ele>
        <time>2018-07-20T10:28:52Z</time>
      </trkpt>
      <trkpt lat="45.360357" lon="6.836531">
        <ele>2062.617</ele>
        <time>2018-07-20T10:28:56Z</time>
      </trkpt>
      <trkpt lat="45.360385" lon="6.836465">
        <ele>2062.361</ele>
        <time>2018-07-20T10:29:01Z</time>
      </trkpt>
      <trkpt lat="45.360389" lon="6.836385">
        <ele>2061.733</ele>
        <time>2018-07-20T10:29:06Z</time>
      </trkpt>
      <trkpt lat="45.360402" lon="6.836321">
        <ele>2062.123</ele>
        <time>2018-07-20T10:29:10Z</time>
      </trkpt>
      <trkpt lat="45.360429" lon="6.836263">
        <ele>2062.815</ele>
        <time>2018-07-20T10:29:14Z</time>
      </trkpt>
      <trkpt lat="45.360460" lon="6.836211">
        <ele>2063.208</ele>
        <time>2018-07-20T10:29:24Z</time>
      </trkpt>
      <trkpt lat="45.360468" lon="6.836145">
        <ele>2063.875</ele>
        <time>2018-07-20T10:30:06Z</time>
      </trkpt>
      <trkpt lat="45.360504" lon="6.836093">
        <ele>2064.610</ele>
        <time>2018-07-20T10:30:14Z</time>
      </trkpt>
      <trkpt lat="45.360547" lon="6.836050">
        <ele>2064.747</ele>
        <time>2018-07-20T10:30:19Z</time>
      </trkpt>
      <trkpt lat="45.360591" lon="6.836000">
        <ele>2063.932</ele>
        <time>2018-07-20T10:30:24Z</time>
      </trkpt>
      <trkpt lat="45.360625" lon="6.835957">
        <ele>2063.856</ele>
        <time>2018-07-20T10:30:28Z</time>
      </trkpt>
      <trkpt lat="45.360666" lon="6.835917">
        <ele>2063.459</ele>
        <time>2018-07-20T10:30:33Z</time>
      </trkpt>
      <trkpt lat="45.360703" lon="6.835860">
        <ele>2062.351</ele>
        <time>2018-07-20T10:30:38Z</time>
      </trkpt>
      <trkpt lat="45.360733" lon="6.835800">
        <ele>2062.115</ele>
        <time>2018-07-20T10:30:43Z</time>
      </trkpt>
      <trkpt lat="45.360754" lon="6.835743">
        <ele>2063.235</ele>
        <time>2018-07-20T10:30:47Z</time>
      </trkpt>
      <trkpt lat="45.360772" lon="6.835680">
        <ele>2064.286</ele>
        <time>2018-07-20T10:30:52Z</time>
      </trkpt>
      <trkpt lat="45.360777" lon="6.835605">
        <ele>2065.614</ele>
        <time>2018-07-20T10:31:09Z</time>
      </trkpt>
      <trkpt lat="45.360765" lon="6.835539">
        <ele>2066.108</ele>
        <time>2018-07-20T10:31:20Z</time>
      </trkpt>
      <trkpt lat="45.360734" lon="6.835492">
        <ele>2066.065</ele>
        <time>2018-07-20T10:31:26Z</time>
      </trkpt>
      <trkpt lat="45.360688" lon="6.835495">
        <ele>2065.980</ele>
        <time>2018-07-20T10:31:31Z</time>
      </trkpt>
      <trkpt lat="45.360649" lon="6.835529">
        <ele>2065.947</ele>
        <time>2018-07-20T10:32:00Z</time>
      </trkpt>
      <trkpt lat="45.360607" lon="6.835562">
        <ele>2065.952</ele>
        <time>2018-07-20T10:32:05Z</time>
      </trkpt>
      <trkpt lat="45.360562" lon="6.835587">
        <ele>2066.376</ele>
        <time>2018-07-20T10:32:08Z</time>
      </trkpt>
      <trkpt lat="45.360527" lon="6.835627">
        <ele>2066.569</ele>
        <time>2018-07-20T10:32:11Z</time>
      </trkpt>
      <trkpt lat="45.360488" lon="6.835680">
        <ele>2067.051</ele>
        <time>2018-07-20T10:32:15Z</time>
      </trkpt>
      <trkpt lat="45.360448" lon="6.835736">
        <ele>2066.915</ele>
        <time>2018-07-20T10:32:19Z</time>
      </trkpt>
      <trkpt lat="45.360407" lon="6.835769">
        <ele>2066.961</ele>
        <time>2018-07-20T10:32:23Z</time>
      </trkpt>
      <trkpt lat="45.360357" lon="6.835781">
        <ele>2067.721</ele>
        <time>2018-07-20T10:32:27Z</time>
      </trkpt>
      <trkpt lat="45.360306" lon="6.835762">
        <ele>2067.813</ele>
        <time>2018-07-20T10:32:31Z</time>
      </trkpt>
      <trkpt lat="45.360259" lon="6.835730">
        <ele>2067.408</ele>
        <time>2018-07-20T10:32:35Z</time>
      </trkpt>
      <trkpt lat="45.360216" lon="6.835686">
        <ele>2066.488</ele>
        <time>2018-07-20T10:32:39Z</time>
      </trkpt>
      <trkpt lat="45.360175" lon="6.835643">
        <ele>2065.083</ele>
        <time>2018-07-20T10:32:43Z</time>
      </trkpt>
      <trkpt lat="45.360137" lon="6.835599">
        <ele>2063.810</ele>
        <time>2018-07-20T10:32:47Z</time>
      </trkpt>
      <trkpt lat="45.360099" lon="6.835554">
        <ele>2062.725</ele>
        <time>2018-07-20T10:32:51Z</time>
      </trkpt>
      <trkpt lat="45.360066" lon="6.835504">
        <ele>2062.099</ele>
        <time>2018-07-20T10:32:55Z</time>
      </trkpt>
      <trkpt lat="45.360030" lon="6.835453">
        <ele>2061.252</ele>
        <time>2018-07-20T10:32:59Z</time>
      </trkpt>
      <trkpt lat="45.359993" lon="6.835407">
        <ele>2060.744</ele>
        <time>2018-07-20T10:33:03Z</time>
      </trkpt>
      <trkpt lat="45.359959" lon="6.835355">
        <ele>2059.638</ele>
        <time>2018-07-20T10:33:07Z</time>
      </trkpt>
      <trkpt lat="45.359925" lon="6.835306">
        <ele>2059.332</ele>
        <time>2018-07-20T10:33:11Z</time>
      </trkpt>
      <trkpt lat="45.359884" lon="6.835253">
        <ele>2059.592</ele>
        <time>2018-07-20T10:33:16Z</time>
      </trkpt>
      <trkpt lat="45.359847" lon="6.835215">
        <ele>2060.011</ele>
        <time>2018-07-20T10:33:24Z</time>
      </trkpt>
      <trkpt lat="45.359835" lon="6.835143">
        <ele>2059.908</ele>
        <time>2018-07-20T10:33:31Z</time>
      </trkpt>
      <trkpt lat="45.359823" lon="6.835071">
        <ele>2059.985</ele>
        <time>2018-07-20T10:33:36Z</time>
      </trkpt>
      <trkpt lat="45.359818" lon="6.835006">
        <ele>2058.710</ele>
        <time>2018-07-20T10:33:40Z</time>
      </trkpt>
      <trkpt lat="45.359808" lon="6.834940">
        <ele>2057.277</ele>
        <time>2018-07-20T10:33:44Z</time>
      </trkpt>
      <trkpt lat="45.359791" lon="6.834877">
        <ele>2056.322</ele>
        <time>2018-07-20T10:33:48Z</time>
      </trkpt>
      <trkpt lat="45.359767" lon="6.834806">
        <ele>2055.776</ele>
        <time>2018-07-20T10:33:53Z</time>
      </trkpt>
      <trkpt lat="45.359752" lon="6.834744">
        <ele>2055.089</ele>
        <time>2018-07-20T10:33:57Z</time>
      </trkpt>
      <trkpt lat="45.359737" lon="6.834683">
        <ele>2055.051</ele>
        <time>2018-07-20T10:34:01Z</time>
      </trkpt>
      <trkpt lat="45.359726" lon="6.834613">
        <ele>2055.045</ele>
        <time>2018-07-20T10:34:06Z</time>
      </trkpt>
      <trkpt lat="45.359711" lon="6.834546">
        <ele>2055.414</ele>
        <time>2018-07-20T10:34:11Z</time>
      </trkpt>
      <trkpt lat="45.359699" lon="6.834480">
        <ele>2055.654</ele>
        <time>2018-07-20T10:34:16Z</time>
      </trkpt>
      <trkpt lat="45.359684" lon="6.834415">
        <ele>2056.509</ele>
        <time>2018-07-20T10:34:22Z</time>
      </trkpt>
      <trkpt lat="45.359670" lon="6.834350">
        <ele>2057.108</ele>
        <time>2018-07-20T10:34:29Z</time>
      </trkpt>
      <trkpt lat="45.359639" lon="6.834289">
        <ele>2057.813</ele>
        <time>2018-07-20T10:34:36Z</time>
      </trkpt>
      <trkpt lat="45.359614" lon="6.834235">
        <ele>2058.698</ele>
        <time>2018-07-20T10:34:42Z</time>
      </trkpt>
      <trkpt lat="45.359581" lon="6.834183">
        <ele>2059.595</ele>
        <time>2018-07-20T10:34:50Z</time>
      </trkpt>
      <trkpt lat="45.359551" lon="6.834132">
        <ele>2060.470</ele>
        <time>2018-07-20T10:34:57Z</time>
      </trkpt>
      <trkpt lat="45.359522" lon="6.834074">
        <ele>2061.054</ele>
        <time>2018-07-20T10:35:03Z</time>
      </trkpt>
      <trkpt lat="45.359488" lon="6.834018">
        <ele>2061.767</ele>
        <time>2018-07-20T10:35:09Z</time>
      </trkpt>
      <trkpt lat="45.359454" lon="6.833959">
        <ele>2062.199</ele>
        <time>2018-07-20T10:35:15Z</time>
      </trkpt>
      <trkpt lat="45.359427" lon="6.833905">
        <ele>2062.873</ele>
        <time>2018-07-20T10:35:20Z</time>
      </trkpt>
      <trkpt lat="45.359413" lon="6.833839">
        <ele>2062.875</ele>
        <time>2018-07-20T10:35:25Z</time>
      </trkpt>
      <trkpt lat="45.359405" lon="6.833769">
        <ele>2063.628</ele>
        <time>2018-07-20T10:35:30Z</time>
      </trkpt>
      <trkpt lat="45.359414" lon="6.833696">
        <ele>2064.520</ele>
        <time>2018-07-20T10:35:35Z</time>
      </trkpt>
      <trkpt lat="45.359433" lon="6.833623">
        <ele>2064.608</ele>
        <time>2018-07-20T10:35:40Z</time>
      </trkpt>
      <trkpt lat="45.359472" lon="6.833575">
        <ele>2064.739</ele>
        <time>2018-07-20T10:35:45Z</time>
      </trkpt>
      <trkpt lat="45.359522" lon="6.833543">
        <ele>2065.534</ele>
        <time>2018-07-20T10:35:50Z</time>
      </trkpt>
      <trkpt lat="45.359576" lon="6.833530">
        <ele>2066.021</ele>
        <time>2018-07-20T10:35:55Z</time>
      </trkpt>
      <trkpt lat="45.359622" lon="6.833533">
        <ele>2067.116</ele>
        <time>2018-07-20T10:35:59Z</time>
      </trkpt>
      <trkpt lat="45.359677" lon="6.833546">
        <ele>2068.210</ele>
        <time>2018-07-20T10:36:04Z</time>
      </trkpt>
      <trkpt lat="45.359726" lon="6.833564">
        <ele>2069.693</ele>
        <time>2018-07-20T10:36:09Z</time>
      </trkpt>
      <trkpt lat="45.359773" lon="6.833593">
        <ele>2070.595</ele>
        <time>2018-07-20T10:36:14Z</time>
      </trkpt>
      <trkpt lat="45.359815" lon="6.833634">
        <ele>2071.429</ele>
        <time>2018-07-20T10:36:21Z</time>
      </trkpt>
      <trkpt lat="45.359863" lon="6.833653">
        <ele>2068.884</ele>
        <time>2018-07-20T10:36:57Z</time>
      </trkpt>
      <trkpt lat="45.359904" lon="6.833623">
        <ele>2066.807</ele>
        <time>2018-07-20T10:37:01Z</time>
      </trkpt>
      <trkpt lat="45.359944" lon="6.833590">
        <ele>2065.617</ele>
        <time>2018-07-20T10:37:05Z</time>
      </trkpt>
      <trkpt lat="45.359991" lon="6.833558">
        <ele>2065.308</ele>
        <time>2018-07-20T10:37:10Z</time>
      </trkpt>
      <trkpt lat="45.360040" lon="6.833539">
        <ele>2065.970</ele>
        <time>2018-07-20T10:37:16Z</time>
      </trkpt>
      <trkpt lat="45.360088" lon="6.833546">
        <ele>2067.175</ele>
        <time>2018-07-20T10:37:24Z</time>
      </trkpt>
      <trkpt lat="45.360133" lon="6.833534">
        <ele>2068.622</ele>
        <time>2018-07-20T10:37:33Z</time>
      </trkpt>
      <trkpt lat="45.360183" lon="6.833524">
        <ele>2070.367</ele>
        <time>2018-07-20T10:37:41Z</time>
      </trkpt>
      <trkpt lat="45.360231" lon="6.833520">
        <ele>2071.781</ele>
        <time>2018-07-20T10:37:46Z</time>
      </trkpt>
      <trkpt lat="45.360277" lon="6.833520">
        <ele>2073.084</ele>
        <time>2018-07-20T10:37:51Z</time>
      </trkpt>
      <trkpt lat="45.360323" lon="6.833509">
        <ele>2073.466</ele>
        <time>2018-07-20T10:37:59Z</time>
      </trkpt>
      <trkpt lat="45.360364" lon="6.833470">
        <ele>2073.240</ele>
        <time>2018-07-20T10:38:09Z</time>
      </trkpt>
      <trkpt lat="45.360404" lon="6.833430">
        <ele>2074.361</ele>
        <time>2018-07-20T10:38:16Z</time>
      </trkpt>
      <trkpt lat="45.360446" lon="6.833402">
        <ele>2075.421</ele>
        <time>2018-07-20T10:38:23Z</time>
      </trkpt>
      <trkpt lat="45.360473" lon="6.833348">
        <ele>2076.413</ele>
        <time>2018-07-20T10:38:31Z</time>
      </trkpt>
      <trkpt lat="45.360481" lon="6.833281">
        <ele>2077.408</ele>
        <time>2018-07-20T10:38:42Z</time>
      </trkpt>
      <trkpt lat="45.360501" lon="6.833219">
        <ele>2077.678</ele>
        <time>2018-07-20T10:38:53Z</time>
      </trkpt>
      <trkpt lat="45.360535" lon="6.833172">
        <ele>2078.153</ele>
        <time>2018-07-20T10:39:03Z</time>
      </trkpt>
      <trkpt lat="45.360571" lon="6.833133">
        <ele>2078.830</ele>
        <time>2018-07-20T10:39:11Z</time>
      </trkpt>
      <trkpt lat="45.360605" lon="6.833080">
        <ele>2078.865</ele>
        <time>2018-07-20T10:39:20Z</time>
      </trkpt>
      <trkpt lat="45.360628" lon="6.833024">
        <ele>2079.279</ele>
        <time>2018-07-20T10:39:30Z</time>
      </trkpt>
      <trkpt lat="45.360651" lon="6.832965">
        <ele>2081.142</ele>
        <time>2018-07-20T10:39:40Z</time>
      </trkpt>
      <trkpt lat="45.360681" lon="6.832912">
        <ele>2082.654</ele>
        <time>2018-07-20T10:39:54Z</time>
      </trkpt>
      <trkpt lat="45.360712" lon="6.832859">
        <ele>2084.748</ele>
        <time>2018-07-20T10:40:04Z</time>
      </trkpt>
      <trkpt lat="45.360736" lon="6.832802">
        <ele>2086.818</ele>
        <time>2018-07-20T10:40:27Z</time>
      </trkpt>
      <trkpt lat="45.360754" lon="6.832739">
        <ele>2089.298</ele>
        <time>2018-07-20T10:40:48Z</time>
      </trkpt>
      <trkpt lat="45.360765" lon="6.832673">
        <ele>2091.117</ele>
        <time>2018-07-20T10:41:04Z</time>
      </trkpt>
      <trkpt lat="45.360794" lon="6.832622">
        <ele>2092.608</ele>
        <time>2018-07-20T10:41:18Z</time>
      </trkpt>
      <trkpt lat="45.360840" lon="6.832591">
        <ele>2093.563</ele>
        <time>2018-07-20T10:41:27Z</time>
      </trkpt>
      <trkpt lat="45.360886" lon="6.832572">
        <ele>2095.228</ele>
        <time>2018-07-20T10:41:45Z</time>
      </trkpt>
      <trkpt lat="45.360926" lon="6.832534">
        <ele>2096.665</ele>
        <time>2018-07-20T10:41:54Z</time>
      </trkpt>
      <trkpt lat="45.360944" lon="6.832473">
        <ele>2097.540</ele>
        <time>2018-07-20T10:42:04Z</time>
      </trkpt>
      <trkpt lat="45.360942" lon="6.832406">
        <ele>2098.464</ele>
        <time>2018-07-20T10:42:15Z</time>
      </trkpt>
      <trkpt lat="45.360918" lon="6.832350">
        <ele>2099.447</ele>
        <time>2018-07-20T10:42:29Z</time>
      </trkpt>
      <trkpt lat="45.360901" lon="6.832289">
        <ele>2100.429</ele>
        <time>2018-07-20T10:42:39Z</time>
      </trkpt>
      <trkpt lat="45.360893" lon="6.832226">
        <ele>2101.443</ele>
        <time>2018-07-20T10:42:51Z</time>
      </trkpt>
      <trkpt lat="45.360860" lon="6.832182">
        <ele>2102.447</ele>
        <time>2018-07-20T10:43:02Z</time>
      </trkpt>
      <trkpt lat="45.360849" lon="6.832117">
        <ele>2104.229</ele>
        <time>2018-07-20T10:43:14Z</time>
      </trkpt>
      <trkpt lat="45.360869" lon="6.832053">
        <ele>2105.721</ele>
        <time>2018-07-20T10:43:29Z</time>
      </trkpt>
      <trkpt lat="45.360862" lon="6.831988">
        <ele>2108.208</ele>
        <time>2018-07-20T10:43:48Z</time>
      </trkpt>
      <trkpt lat="45.360856" lon="6.831920">
        <ele>2110.196</ele>
        <time>2018-07-20T10:44:21Z</time>
      </trkpt>
      <trkpt lat="45.360812" lon="6.831896">
        <ele>2112.491</ele>
        <time>2018-07-20T10:44:37Z</time>
      </trkpt>
      <trkpt lat="45.360765" lon="6.831884">
        <ele>2114.248</ele>
        <time>2018-07-20T10:44:48Z</time>
      </trkpt>
      <trkpt lat="45.360720" lon="6.831860">
        <ele>2115.763</ele>
        <time>2018-07-20T10:44:58Z</time>
      </trkpt>
      <trkpt lat="45.360739" lon="6.831801">
        <ele>2117.087</ele>
        <time>2018-07-20T10:45:14Z</time>
      </trkpt>
      <trkpt lat="45.360742" lon="6.831734">
        <ele>2117.490</ele>
        <time>2018-07-20T10:45:37Z</time>
      </trkpt>
      <trkpt lat="45.360704" lon="6.831694">
        <ele>2118.812</ele>
        <time>2018-07-20T10:45:51Z</time>
      </trkpt>
      <trkpt lat="45.360671" lon="6.831649">
        <ele>2119.376</ele>
        <time>2018-07-20T10:46:08Z</time>
      </trkpt>
      <trkpt lat="45.360633" lon="6.831604">
        <ele>2120.828</ele>
        <time>2018-07-20T10:46:19Z</time>
      </trkpt>
      <trkpt lat="45.360623" lon="6.831539">
        <ele>2122.189</ele>
        <time>2018-07-20T10:46:29Z</time>
      </trkpt>
      <trkpt lat="45.360644" lon="6.831477">
        <ele>2123.717</ele>
        <time>2018-07-20T10:46:39Z</time>
      </trkpt>
      <trkpt lat="45.360685" lon="6.831441">
        <ele>2124.608</ele>
        <time>2018-07-20T10:46:50Z</time>
      </trkpt>
      <trkpt lat="45.360725" lon="6.831410">
        <ele>2125.664</ele>
        <time>2018-07-20T10:47:00Z</time>
      </trkpt>
      <trkpt lat="45.360771" lon="6.831399">
        <ele>2126.669</ele>
        <time>2018-07-20T10:47:08Z</time>
      </trkpt>
      <trkpt lat="45.360818" lon="6.831386">
        <ele>2127.656</ele>
        <time>2018-07-20T10:47:16Z</time>
      </trkpt>
      <trkpt lat="45.360864" lon="6.831360">
        <ele>2128.681</ele>
        <time>2018-07-20T10:47:23Z</time>
      </trkpt>
      <trkpt lat="45.360908" lon="6.831335">
        <ele>2129.255</ele>
        <time>2018-07-20T10:47:31Z</time>
      </trkpt>
      <trkpt lat="45.360954" lon="6.831314">
        <ele>2130.498</ele>
        <time>2018-07-20T10:47:38Z</time>
      </trkpt>
      <trkpt lat="45.361000" lon="6.831281">
        <ele>2131.140</ele>
        <time>2018-07-20T10:47:45Z</time>
      </trkpt>
      <trkpt lat="45.361044" lon="6.831252">
        <ele>2131.524</ele>
        <time>2018-07-20T10:47:52Z</time>
      </trkpt>
      <trkpt lat="45.361088" lon="6.831222">
        <ele>2132.132</ele>
        <time>2018-07-20T10:48:00Z</time>
      </trkpt>
      <trkpt lat="45.361137" lon="6.831200">
        <ele>2132.992</ele>
        <time>2018-07-20T10:48:08Z</time>
      </trkpt>
      <trkpt lat="45.361183" lon="6.831193">
        <ele>2133.411</ele>
        <time>2018-07-20T10:48:14Z</time>
      </trkpt>
      <trkpt lat="45.361234" lon="6.831191">
        <ele>2134.508</ele>
        <time>2018-07-20T10:48:21Z</time>
      </trkpt>
      <trkpt lat="45.361281" lon="6.831186">
        <ele>2135.645</ele>
        <time>2018-07-20T10:48:27Z</time>
      </trkpt>
      <trkpt lat="45.361333" lon="6.831187">
        <ele>2136.210</ele>
        <time>2018-07-20T10:48:33Z</time>
      </trkpt>
      <trkpt lat="45.361378" lon="6.831169">
        <ele>2137.877</ele>
        <time>2018-07-20T10:49:14Z</time>
      </trkpt>
      <trkpt lat="45.361354" lon="6.831111">
        <ele>2139.522</ele>
        <time>2018-07-20T10:49:26Z</time>
      </trkpt>
      <trkpt lat="45.361320" lon="6.831062">
        <ele>2141.336</ele>
        <time>2018-07-20T10:49:39Z</time>
      </trkpt>
      <trkpt lat="45.361299" lon="6.831004">
        <ele>2142.439</ele>
        <time>2018-07-20T10:49:53Z</time>
      </trkpt>
      <trkpt lat="45.361275" lon="6.830944">
        <ele>2143.961</ele>
        <time>2018-07-20T10:50:13Z</time>
      </trkpt>
      <trkpt lat="45.361227" lon="6.830931">
        <ele>2145.655</ele>
        <time>2018-07-20T10:50:25Z</time>
      </trkpt>
      <trkpt lat="45.361182" lon="6.830924">
        <ele>2146.265</ele>
        <time>2018-07-20T10:50:33Z</time>
      </trkpt>
      <trkpt lat="45.361140" lon="6.830892">
        <ele>2147.068</ele>
        <time>2018-07-20T10:50:44Z</time>
      </trkpt>
      <trkpt lat="45.361096" lon="6.830869">
        <ele>2146.714</ele>
        <time>2018-07-20T10:50:57Z</time>
      </trkpt>
      <trkpt lat="45.361050" lon="6.830862">
        <ele>2146.508</ele>
        <time>2018-07-20T10:51:06Z</time>
      </trkpt>
      <trkpt lat="45.361003" lon="6.830843">
        <ele>2147.278</ele>
        <time>2018-07-20T10:51:18Z</time>
      </trkpt>
      <trkpt lat="45.360957" lon="6.830828">
        <ele>2148.023</ele>
        <time>2018-07-20T10:51:29Z</time>
      </trkpt>
      <trkpt lat="45.360911" lon="6.830817">
        <ele>2149.360</ele>
        <time>2018-07-20T10:51:40Z</time>
      </trkpt>
      <trkpt lat="45.360864" lon="6.830799">
        <ele>2150.955</ele>
        <time>2018-07-20T10:51:51Z</time>
      </trkpt>
      <trkpt lat="45.360817" lon="6.830782">
        <ele>2152.639</ele>
        <time>2018-07-20T10:52:04Z</time>
      </trkpt>
      <trkpt lat="45.360773" lon="6.830756">
        <ele>2154.042</ele>
        <time>2018-07-20T10:52:14Z</time>
      </trkpt>
      <trkpt lat="45.360723" lon="6.830743">
        <ele>2155.354</ele>
        <time>2018-07-20T10:52:26Z</time>
      </trkpt>
      <trkpt lat="45.360718" lon="6.830678">
        <ele>2156.988</ele>
        <time>2018-07-20T10:52:40Z</time>
      </trkpt>
      <trkpt lat="45.360758" lon="6.830640">
        <ele>2158.263</ele>
        <time>2018-07-20T10:52:50Z</time>
      </trkpt>
      <trkpt lat="45.360800" lon="6.830609">
        <ele>2159.844</ele>
        <time>2018-07-20T10:52:59Z</time>
      </trkpt>
      <trkpt lat="45.360842" lon="6.830577">
        <ele>2160.418</ele>
        <time>2018-07-20T10:53:09Z</time>
      </trkpt>
      <trkpt lat="45.360865" lon="6.830520">
        <ele>2161.508</ele>
        <time>2018-07-20T10:53:18Z</time>
      </trkpt>
      <trkpt lat="45.360894" lon="6.830471">
        <ele>2163.048</ele>
        <time>2018-07-20T10:53:25Z</time>
      </trkpt>
      <trkpt lat="45.360922" lon="6.830420">
        <ele>2165.193</ele>
        <time>2018-07-20T10:53:33Z</time>
      </trkpt>
      <trkpt lat="45.360965" lon="6.830387">
        <ele>2166.410</ele>
        <time>2018-07-20T10:53:44Z</time>
      </trkpt>
      <trkpt lat="45.360996" lon="6.830340">
        <ele>2168.035</ele>
        <time>2018-07-20T10:53:55Z</time>
      </trkpt>
      <trkpt lat="45.361032" lon="6.830300">
        <ele>2168.529</ele>
        <time>2018-07-20T10:54:07Z</time>
      </trkpt>
      <trkpt lat="45.361057" lon="6.830247">
        <ele>2169.252</ele>
        <time>2018-07-20T10:54:16Z</time>
      </trkpt>
      <trkpt lat="45.361082" lon="6.830194">
        <ele>2169.254</ele>
        <time>2018-07-20T10:54:25Z</time>
      </trkpt>
      <trkpt lat="45.361119" lon="6.830148">
        <ele>2170.088</ele>
        <time>2018-07-20T10:54:34Z</time>
      </trkpt>
      <trkpt lat="45.361155" lon="6.830109">
        <ele>2171.364</ele>
        <time>2018-07-20T10:54:43Z</time>
      </trkpt>
      <trkpt lat="45.361199" lon="6.830077">
        <ele>2172.106</ele>
        <time>2018-07-20T10:54:53Z</time>
      </trkpt>
      <trkpt lat="45.361234" lon="6.830031">
        <ele>2172.616</ele>
        <time>2018-07-20T10:55:01Z</time>
      </trkpt>
      <trkpt lat="45.361268" lon="6.829987">
        <ele>2173.708</ele>
        <time>2018-07-20T10:55:11Z</time>
      </trkpt>
      <trkpt lat="45.361294" lon="6.829932">
        <ele>2175.138</ele>
        <time>2018-07-20T10:55:25Z</time>
      </trkpt>
      <trkpt lat="45.361259" lon="6.829888">
        <ele>2176.813</ele>
        <time>2018-07-20T10:55:43Z</time>
      </trkpt>
      <trkpt lat="45.361235" lon="6.829829">
        <ele>2177.890</ele>
        <time>2018-07-20T10:55:54Z</time>
      </trkpt>
      <trkpt lat="45.361210" lon="6.829774">
        <ele>2178.435</ele>
        <time>2018-07-20T10:56:05Z</time>
      </trkpt>
      <trkpt lat="45.361171" lon="6.829733">
        <ele>2179.269</ele>
        <time>2018-07-20T10:56:17Z</time>
      </trkpt>
      <trkpt lat="45.361122" lon="6.829723">
        <ele>2180.172</ele>
        <time>2018-07-20T10:56:30Z</time>
      </trkpt>
      <trkpt lat="45.361076" lon="6.829712">
        <ele>2181.044</ele>
        <time>2018-07-20T10:56:40Z</time>
      </trkpt>
      <trkpt lat="45.361030" lon="6.829694">
        <ele>2181.588</ele>
        <time>2018-07-20T10:56:49Z</time>
      </trkpt>
      <trkpt lat="45.360984" lon="6.829680">
        <ele>2182.217</ele>
        <time>2018-07-20T10:56:57Z</time>
      </trkpt>
      <trkpt lat="45.360936" lon="6.829674">
        <ele>2182.687</ele>
        <time>2018-07-20T10:57:05Z</time>
      </trkpt>
      <trkpt lat="45.360891" lon="6.829672">
        <ele>2183.315</ele>
        <time>2018-07-20T10:57:12Z</time>
      </trkpt>
      <trkpt lat="45.360843" lon="6.829683">
        <ele>2184.108</ele>
        <time>2018-07-20T10:57:19Z</time>
      </trkpt>
      <trkpt lat="45.360795" lon="6.829677">
        <ele>2184.273</ele>
        <time>2018-07-20T10:57:28Z</time>
      </trkpt>
      <trkpt lat="45.360751" lon="6.829691">
        <ele>2185.438</ele>
        <time>2018-07-20T10:57:38Z</time>
      </trkpt>
      <trkpt lat="45.360701" lon="6.829701">
        <ele>2186.525</ele>
        <time>2018-07-20T10:57:49Z</time>
      </trkpt>
      <trkpt lat="45.360653" lon="6.829715">
        <ele>2187.250</ele>
        <time>2018-07-20T10:58:01Z</time>
      </trkpt>
      <trkpt lat="45.360606" lon="6.829730">
        <ele>2188.084</ele>
        <time>2018-07-20T10:58:11Z</time>
      </trkpt>
      <trkpt lat="45.360557" lon="6.829731">
        <ele>2188.957</ele>
        <time>2018-07-20T10:58:20Z</time>
      </trkpt>
      <trkpt lat="45.360507" lon="6.829731">
        <ele>2190.249</ele>
        <time>2018-07-20T10:58:28Z</time>
      </trkpt>
      <trkpt lat="45.360462" lon="6.829747">
        <ele>2191.463</ele>
        <time>2018-07-20T10:58:39Z</time>
      </trkpt>
      <trkpt lat="45.360414" lon="6.829738">
        <ele>2192.563</ele>
        <time>2018-07-20T10:58:49Z</time>
      </trkpt>
      <trkpt lat="45.360370" lon="6.829714">
        <ele>2193.644</ele>
        <time>2018-07-20T10:58:59Z</time>
      </trkpt>
      <trkpt lat="45.360325" lon="6.829693">
        <ele>2194.618</ele>
        <time>2018-07-20T10:59:10Z</time>
      </trkpt>
      <trkpt lat="45.360282" lon="6.829671">
        <ele>2195.608</ele>
        <time>2018-07-20T10:59:19Z</time>
      </trkpt>
      <trkpt lat="45.360239" lon="6.829639">
        <ele>2197.038</ele>
        <time>2018-07-20T10:59:28Z</time>
      </trkpt>
      <trkpt lat="45.360220" lon="6.829581">
        <ele>2198.673</ele>
        <time>2018-07-20T10:59:38Z</time>
      </trkpt>
      <trkpt lat="45.360262" lon="6.829551">
        <ele>2200.470</ele>
        <time>2018-07-20T10:59:49Z</time>
      </trkpt>
      <trkpt lat="45.360308" lon="6.829553">
        <ele>2201.935</ele>
        <time>2018-07-20T11:00:01Z</time>
      </trkpt>
      <trkpt lat="45.360351" lon="6.829529">
        <ele>2203.269</ele>
        <time>2018-07-20T11:00:11Z</time>
      </trkpt>
      <trkpt lat="45.360384" lon="6.829479">
        <ele>2204.422</ele>
        <time>2018-07-20T11:00:20Z</time>
      </trkpt>
      <trkpt lat="45.360428" lon="6.829445">
        <ele>2205.974</ele>
        <time>2018-07-20T11:00:31Z</time>
      </trkpt>
      <trkpt lat="45.360460" lon="6.829396">
        <ele>2206.868</ele>
        <time>2018-07-20T11:00:39Z</time>
      </trkpt>
      <trkpt lat="45.360486" lon="6.829343">
        <ele>2207.398</ele>
        <time>2018-07-20T11:00:47Z</time>
      </trkpt>
      <trkpt lat="45.360526" lon="6.829302">
        <ele>2207.215</ele>
        <time>2018-07-20T11:00:55Z</time>
      </trkpt>
      <trkpt lat="45.360561" lon="6.829249">
        <ele>2207.626</ele>
        <time>2018-07-20T11:01:02Z</time>
      </trkpt>
      <trkpt lat="45.360587" lon="6.829194">
        <ele>2208.208</ele>
        <time>2018-07-20T11:01:09Z</time>
      </trkpt>
      <trkpt lat="45.360625" lon="6.829150">
        <ele>2209.481</ele>
        <time>2018-07-20T11:01:16Z</time>
      </trkpt>
      <trkpt lat="45.360663" lon="6.829112">
        <ele>2210.556</ele>
        <time>2018-07-20T11:01:24Z</time>
      </trkpt>
      <trkpt lat="45.360698" lon="6.829062">
        <ele>2210.843</ele>
        <time>2018-07-20T11:01:31Z</time>
      </trkpt>
      <trkpt lat="45.360732" lon="6.829008">
        <ele>2211.428</ele>
        <time>2018-07-20T11:01:39Z</time>
      </trkpt>
      <trkpt lat="45.360766" lon="6.828956">
        <ele>2212.552</ele>
        <time>2018-07-20T11:01:48Z</time>
      </trkpt>
      <trkpt lat="45.360802" lon="6.828908">
        <ele>2213.635</ele>
        <time>2018-07-20T11:01:58Z</time>
      </trkpt>
      <trkpt lat="45.360822" lon="6.828850">
        <ele>2215.057</ele>
        <time>2018-07-20T11:02:05Z</time>
      </trkpt>
      <trkpt lat="45.360842" lon="6.828785">
        <ele>2216.371</ele>
        <time>2018-07-20T11:02:15Z</time>
      </trkpt>
      <trkpt lat="45.360861" lon="6.828721">
        <ele>2217.136</ele>
        <time>2018-07-20T11:02:24Z</time>
      </trkpt>
      <trkpt lat="45.360899" lon="6.828687">
        <ele>2217.617</ele>
        <time>2018-07-20T11:02:32Z</time>
      </trkpt>
      <trkpt lat="45.360943" lon="6.828663">
        <ele>2218.718</ele>
        <time>2018-07-20T11:02:42Z</time>
      </trkpt>
      <trkpt lat="45.360987" lon="6.828644">
        <ele>2219.308</ele>
        <time>2018-07-20T11:02:51Z</time>
      </trkpt>
      <trkpt lat="45.361028" lon="6.828605">
        <ele>2220.185</ele>
        <time>2018-07-20T11:03:01Z</time>
      </trkpt>
      <trkpt lat="45.361080" lon="6.828601">
        <ele>2222.220</ele>
        <time>2018-07-20T11:03:20Z</time>
      </trkpt>
      <trkpt lat="45.361101" lon="6.828543">
        <ele>2223.487</ele>
        <time>2018-07-20T11:04:27Z</time>
      </trkpt>
      <trkpt lat="45.361144" lon="6.828504">
        <ele>2224.562</ele>
        <time>2018-07-20T11:04:36Z</time>
      </trkpt>
      <trkpt lat="45.361167" lon="6.828439">
        <ele>2226.086</ele>
        <time>2018-07-20T11:04:53Z</time>
      </trkpt>
      <trkpt lat="45.361121" lon="6.828442">
        <ele>2226.959</ele>
        <time>2018-07-20T11:05:07Z</time>
      </trkpt>
      <trkpt lat="45.361079" lon="6.828417">
        <ele>2227.861</ele>
        <time>2018-07-20T11:05:14Z</time>
      </trkpt>
      <trkpt lat="45.361033" lon="6.828398">
        <ele>2228.845</ele>
        <time>2018-07-20T11:05:22Z</time>
      </trkpt>
      <trkpt lat="45.360992" lon="6.828359">
        <ele>2229.479</ele>
        <time>2018-07-20T11:05:30Z</time>
      </trkpt>
      <trkpt lat="45.360945" lon="6.828343">
        <ele>2230.105</ele>
        <time>2018-07-20T11:05:39Z</time>
      </trkpt>
      <trkpt lat="45.360899" lon="6.828339">
        <ele>2230.525</ele>
        <time>2018-07-20T11:05:50Z</time>
      </trkpt>
      <trkpt lat="45.360851" lon="6.828349">
        <ele>2230.808</ele>
        <time>2018-07-20T11:06:02Z</time>
      </trkpt>
      <trkpt lat="45.360802" lon="6.828331">
        <ele>2230.699</ele>
        <time>2018-07-20T11:06:12Z</time>
      </trkpt>
      <trkpt lat="45.360750" lon="6.828328">
        <ele>2230.544</ele>
        <time>2018-07-20T11:06:18Z</time>
      </trkpt>
      <trkpt lat="45.360702" lon="6.828331">
        <ele>2230.441</ele>
        <time>2018-07-20T11:06:24Z</time>
      </trkpt>
      <trkpt lat="45.360665" lon="6.828376">
        <ele>2230.776</ele>
        <time>2018-07-20T11:06:30Z</time>
      </trkpt>
      <trkpt lat="45.360640" lon="6.828431">
        <ele>2231.760</ele>
        <time>2018-07-20T11:06:36Z</time>
      </trkpt>
      <trkpt lat="45.360601" lon="6.828473">
        <ele>2232.793</ele>
        <time>2018-07-20T11:06:44Z</time>
      </trkpt>
      <trkpt lat="45.360557" lon="6.828499">
        <ele>2233.385</ele>
        <time>2018-07-20T11:06:58Z</time>
      </trkpt>
      <trkpt lat="45.360519" lon="6.828540">
        <ele>2234.939</ele>
        <time>2018-07-20T11:07:06Z</time>
      </trkpt>
      <trkpt lat="45.360478" lon="6.828509">
        <ele>2236.616</ele>
        <time>2018-07-20T11:07:22Z</time>
      </trkpt>
      <trkpt lat="45.360438" lon="6.828477">
        <ele>2238.076</ele>
        <time>2018-07-20T11:07:36Z</time>
      </trkpt>
      <trkpt lat="45.360392" lon="6.828470">
        <ele>2239.313</ele>
        <time>2018-07-20T11:07:46Z</time>
      </trkpt>
      <trkpt lat="45.360346" lon="6.828458">
        <ele>2241.308</ele>
        <time>2018-07-20T11:07:58Z</time>
      </trkpt>
      <trkpt lat="45.360302" lon="6.828430">
        <ele>2242.923</ele>
        <time>2018-07-20T11:08:10Z</time>
      </trkpt>
      <trkpt lat="45.360297" lon="6.828366">
        <ele>2244.618</ele>
        <time>2018-07-20T11:08:22Z</time>
      </trkpt>
      <trkpt lat="45.360283" lon="6.828301">
        <ele>2246.035</ele>
        <time>2018-07-20T11:08:34Z</time>
      </trkpt>
      <trkpt lat="45.360271" lon="6.828237">
        <ele>2246.970</ele>
        <time>2018-07-20T11:08:44Z</time>
      </trkpt>
      <trkpt lat="45.360249" lon="6.828179">
        <ele>2247.884</ele>
        <time>2018-07-20T11:08:55Z</time>
      </trkpt>
      <trkpt lat="45.360235" lon="6.828114">
        <ele>2249.247</ele>
        <time>2018-07-20T11:09:11Z</time>
      </trkpt>
      <trkpt lat="45.360228" lon="6.828045">
        <ele>2251.249</ele>
        <time>2018-07-20T11:09:22Z</time>
      </trkpt>
      <trkpt lat="45.360233" lon="6.827981">
        <ele>2252.473</ele>
        <time>2018-07-20T11:09:29Z</time>
      </trkpt>
      <trkpt lat="45.360207" lon="6.827924">
        <ele>2253.987</ele>
        <time>2018-07-20T11:09:41Z</time>
      </trkpt>
      <trkpt lat="45.360207" lon="6.827854">
        <ele>2255.242</ele>
        <time>2018-07-20T11:10:02Z</time>
      </trkpt>
      <trkpt lat="45.360213" lon="6.827788">
        <ele>2256.426</ele>
        <time>2018-07-20T11:10:09Z</time>
      </trkpt>
      <trkpt lat="45.360244" lon="6.827737">
        <ele>2257.108</ele>
        <time>2018-07-20T11:10:16Z</time>
      </trkpt>
      <trkpt lat="45.360289" lon="6.827716">
        <ele>2257.590</ele>
        <time>2018-07-20T11:10:25Z</time>
      </trkpt>
      <trkpt lat="45.360283" lon="6.827649">
        <ele>2259.035</ele>
        <time>2018-07-20T11:10:37Z</time>
      </trkpt>
      <trkpt lat="45.360273" lon="6.827586">
        <ele>2260.372</ele>
        <time>2018-07-20T11:10:49Z</time>
      </trkpt>
      <trkpt lat="45.360267" lon="6.827519">
        <ele>2262.787</ele>
        <time>2018-07-20T11:11:08Z</time>
      </trkpt>
      <trkpt lat="45.360263" lon="6.827453">
        <ele>2264.151</ele>
        <time>2018-07-20T11:11:20Z</time>
      </trkpt>
      <trkpt lat="45.360266" lon="6.827387">
        <ele>2265.834</ele>
        <time>2018-07-20T11:11:36Z</time>
      </trkpt>
      <trkpt lat="45.360300" lon="6.827339">
        <ele>2267.226</ele>
        <time>2018-07-20T11:11:47Z</time>
      </trkpt>
      <trkpt lat="45.360316" lon="6.827275">
        <ele>2268.060</ele>
        <time>2018-07-20T11:11:55Z</time>
      </trkpt>
      <trkpt lat="45.360287" lon="6.827226">
        <ele>2269.316</ele>
        <time>2018-07-20T11:12:07Z</time>
      </trkpt>
      <trkpt lat="45.360257" lon="6.827177">
        <ele>2270.576</ele>
        <time>2018-07-20T11:12:23Z</time>
      </trkpt>
      <trkpt lat="45.360234" lon="6.827121">
        <ele>2272.413</ele>
        <time>2018-07-20T11:12:40Z</time>
      </trkpt>
      <trkpt lat="45.360222" lon="6.827059">
        <ele>2273.908</ele>
        <time>2018-07-20T11:12:50Z</time>
      </trkpt>
      <trkpt lat="45.360231" lon="6.826995">
        <ele>2275.673</ele>
        <time>2018-07-20T11:13:03Z</time>
      </trkpt>
      <trkpt lat="45.360216" lon="6.826934">
        <ele>2277.848</ele>
        <time>2018-07-20T11:13:15Z</time>
      </trkpt>
      <trkpt lat="45.360212" lon="6.826869">
        <ele>2279.565</ele>
        <time>2018-07-20T11:13:29Z</time>
      </trkpt>
      <trkpt lat="45.360187" lon="6.826810">
        <ele>2280.920</ele>
        <time>2018-07-20T11:13:39Z</time>
      </trkpt>
      <trkpt lat="45.360209" lon="6.826750">
        <ele>2282.224</ele>
        <time>2018-07-20T11:13:47Z</time>
      </trkpt>
      <trkpt lat="45.360234" lon="6.826690">
        <ele>2282.677</ele>
        <time>2018-07-20T11:13:55Z</time>
      </trkpt>
      <trkpt lat="45.360256" lon="6.826628">
        <ele>2283.249</ele>
        <time>2018-07-20T11:14:06Z</time>
      </trkpt>
      <trkpt lat="45.360297" lon="6.826579">
        <ele>2284.423</ele>
        <time>2018-07-20T11:14:17Z</time>
      </trkpt>
      <trkpt lat="45.360341" lon="6.826560">
        <ele>2286.717</ele>
        <time>2018-07-20T11:16:27Z</time>
      </trkpt>
      <trkpt lat="45.360363" lon="6.826497">
        <ele>2288.587</ele>
        <time>2018-07-20T11:16:38Z</time>
      </trkpt>
      <trkpt lat="45.360393" lon="6.826443">
        <ele>2289.615</ele>
        <time>2018-07-20T11:16:48Z</time>
      </trkpt>
      <trkpt lat="45.360430" lon="6.826405">
        <ele>2290.608</ele>
        <time>2018-07-20T11:16:57Z</time>
      </trkpt>
      <trkpt lat="45.360466" lon="6.826364">
        <ele>2292.023</ele>
        <time>2018-07-20T11:17:08Z</time>
      </trkpt>
      <trkpt lat="45.360507" lon="6.826332">
        <ele>2293.798</ele>
        <time>2018-07-20T11:17:30Z</time>
      </trkpt>
      <trkpt lat="45.360550" lon="6.826303">
        <ele>2295.185</ele>
        <time>2018-07-20T11:17:41Z</time>
      </trkpt>
      <trkpt lat="45.360574" lon="6.826243">
        <ele>2296.370</ele>
        <time>2018-07-20T11:17:58Z</time>
      </trkpt>
      <trkpt lat="45.360548" lon="6.826188">
        <ele>2297.474</ele>
        <time>2018-07-20T11:18:31Z</time>
      </trkpt>
      <trkpt lat="45.360555" lon="6.826122">
        <ele>2298.597</ele>
        <time>2018-07-20T11:18:46Z</time>
      </trkpt>
      <trkpt lat="45.360577" lon="6.826060">
        <ele>2299.679</ele>
        <time>2018-07-20T11:18:59Z</time>
      </trkpt>
      <trkpt lat="45.360612" lon="6.826006">
        <ele>2300.273</ele>
        <time>2018-07-20T11:19:07Z</time>
      </trkpt>
      <trkpt lat="45.360633" lon="6.825945">
        <ele>2301.056</ele>
        <time>2018-07-20T11:19:18Z</time>
      </trkpt>
      <trkpt lat="45.360674" lon="6.825908">
        <ele>2302.359</ele>
        <time>2018-07-20T11:19:26Z</time>
      </trkpt>
      <trkpt lat="45.360716" lon="6.825886">
        <ele>2303.514</ele>
        <time>2018-07-20T11:19:34Z</time>
      </trkpt>
      <trkpt lat="45.360701" lon="6.825821">
        <ele>2305.408</ele>
        <time>2018-07-20T11:19:53Z</time>
      </trkpt>
      <trkpt lat="45.360732" lon="6.825771">
        <ele>2306.557</ele>
        <time>2018-07-20T11:20:05Z</time>
      </trkpt>
      <trkpt lat="45.360776" lon="6.825740">
        <ele>2307.642</ele>
        <time>2018-07-20T11:20:24Z</time>
      </trkpt>
      <trkpt lat="45.360821" lon="6.825722">
        <ele>2308.669</ele>
        <time>2018-07-20T11:20:34Z</time>
      </trkpt>
      <trkpt lat="45.360869" lon="6.825723">
        <ele>2309.294</ele>
        <time>2018-07-20T11:20:42Z</time>
      </trkpt>
      <trkpt lat="45.360902" lon="6.825674">
        <ele>2310.058</ele>
        <time>2018-07-20T11:20:54Z</time>
      </trkpt>
      <trkpt lat="45.360944" lon="6.825639">
        <ele>2310.561</ele>
        <time>2018-07-20T11:21:09Z</time>
      </trkpt>
      <trkpt lat="45.360988" lon="6.825612">
        <ele>2311.243</ele>
        <time>2018-07-20T11:21:23Z</time>
      </trkpt>
      <trkpt lat="45.361035" lon="6.825627">
        <ele>2311.267</ele>
        <time>2018-07-20T11:21:32Z</time>
      </trkpt>
      <trkpt lat="45.361075" lon="6.825598">
        <ele>2312.088</ele>
        <time>2018-07-20T11:21:43Z</time>
      </trkpt>
      <trkpt lat="45.361115" lon="6.825563">
        <ele>2314.524</ele>
        <time>2018-07-20T11:22:02Z</time>
      </trkpt>
      <trkpt lat="45.361155" lon="6.825531">
        <ele>2317.226</ele>
        <time>2018-07-20T11:22:16Z</time>
      </trkpt>
      <trkpt lat="45.361198" lon="6.825506">
        <ele>2319.208</ele>
        <time>2018-07-20T11:22:30Z</time>
      </trkpt>
      <trkpt lat="45.361242" lon="6.825481">
        <ele>2320.440</ele>
        <time>2018-07-20T11:22:39Z</time>
      </trkpt>
      <trkpt lat="45.361275" lon="6.825433">
        <ele>2321.515</ele>
        <time>2018-07-20T11:22:50Z</time>
      </trkpt>
      <trkpt lat="45.361320" lon="6.825415">
        <ele>2322.682</ele>
        <time>2018-07-20T11:23:30Z</time>
      </trkpt>
      <trkpt lat="45.361363" lon="6.825384">
        <ele>2324.487</ele>
        <time>2018-07-20T11:23:46Z</time>
      </trkpt>
      <trkpt lat="45.361404" lon="6.825352">
        <ele>2326.371</ele>
        <time>2018-07-20T11:24:00Z</time>
      </trkpt>
      <trkpt lat="45.361451" lon="6.825349">
        <ele>2327.824</ele>
        <time>2018-07-20T11:24:10Z</time>
      </trkpt>
      <trkpt lat="45.361496" lon="6.825327">
        <ele>2329.146</ele>
        <time>2018-07-20T11:24:22Z</time>
      </trkpt>
      <trkpt lat="45.361535" lon="6.825293">
        <ele>2330.350</ele>
        <time>2018-07-20T11:24:34Z</time>
      </trkpt>
      <trkpt lat="45.361578" lon="6.825272">
        <ele>2331.845</ele>
        <time>2018-07-20T11:24:48Z</time>
      </trkpt>
      <trkpt lat="45.361622" lon="6.825299">
        <ele>2333.947</ele>
        <time>2018-07-20T11:25:19Z</time>
      </trkpt>
      <trkpt lat="45.361667" lon="6.825278">
        <ele>2336.411</ele>
        <time>2018-07-20T11:25:31Z</time>
      </trkpt>
      <trkpt lat="45.361713" lon="6.825242">
        <ele>2338.708</ele>
        <time>2018-07-20T11:25:47Z</time>
      </trkpt>
      <trkpt lat="45.361764" lon="6.825245">
        <ele>2340.156</ele>
        <time>2018-07-20T11:26:18Z</time>
      </trkpt>
      <trkpt lat="45.361809" lon="6.825242">
        <ele>2341.351</ele>
        <time>2018-07-20T11:26:29Z</time>
      </trkpt>
      <trkpt lat="45.361812" lon="6.825176">
        <ele>2343.648</ele>
        <time>2018-07-20T11:26:42Z</time>
      </trkpt>
      <trkpt lat="45.361861" lon="6.825178">
        <ele>2345.463</ele>
        <time>2018-07-20T11:26:58Z</time>
      </trkpt>
      <trkpt lat="45.361903" lon="6.825211">
        <ele>2348.137</ele>
        <time>2018-07-20T11:27:15Z</time>
      </trkpt>
      <trkpt lat="45.361949" lon="6.825209">
        <ele>2350.140</ele>
        <time>2018-07-20T11:27:25Z</time>
      </trkpt>
      <trkpt lat="45.361994" lon="6.825225">
        <ele>2351.752</ele>
        <time>2018-07-20T11:27:38Z</time>
      </trkpt>
      <trkpt lat="45.362035" lon="6.825197">
        <ele>2353.576</ele>
        <time>2018-07-20T11:28:11Z</time>
      </trkpt>
      <trkpt lat="45.362079" lon="6.825171">
        <ele>2356.298</ele>
        <time>2018-07-20T11:28:32Z</time>
      </trkpt>
      <trkpt lat="45.362126" lon="6.825175">
        <ele>2359.415</ele>
        <time>2018-07-20T11:28:51Z</time>
      </trkpt>
      <trkpt lat="45.362171" lon="6.825171">
        <ele>2361.726</ele>
        <time>2018-07-20T11:28:59Z</time>
      </trkpt>
      <trkpt lat="45.362217" lon="6.825154">
        <ele>2363.108</ele>
        <time>2018-07-20T11:29:09Z</time>
      </trkpt>
      <trkpt lat="45.362245" lon="6.825103">
        <ele>2364.311</ele>
        <time>2018-07-20T11:29:17Z</time>
      </trkpt>
      <trkpt lat="45.362289" lon="6.825078">
        <ele>2365.036</ele>
        <time>2018-07-20T11:29:29Z</time>
      </trkpt>
      <trkpt lat="45.362338" lon="6.825070">
        <ele>2365.013</ele>
        <time>2018-07-20T11:29:37Z</time>
      </trkpt>
      <trkpt lat="45.362364" lon="6.825010">
        <ele>2367.078</ele>
        <time>2018-07-20T11:30:08Z</time>
      </trkpt>
      <trkpt lat="45.362391" lon="6.824955">
        <ele>2369.062</ele>
        <time>2018-07-20T11:30:21Z</time>
      </trkpt>
      <trkpt lat="45.362389" lon="6.824881">
        <ele>2371.485</ele>
        <time>2018-07-20T11:31:01Z</time>
      </trkpt>
      <trkpt lat="45.362422" lon="6.824835">
        <ele>2372.817</ele>
        <time>2018-07-20T11:31:11Z</time>
      </trkpt>
      <trkpt lat="45.362457" lon="6.824788">
        <ele>2375.391</ele>
        <time>2018-07-20T11:31:38Z</time>
      </trkpt>
      <trkpt lat="45.362494" lon="6.824743">
        <ele>2377.298</ele>
        <time>2018-07-20T11:31:56Z</time>
      </trkpt>
      <trkpt lat="45.362528" lon="6.824692">
        <ele>2378.715</ele>
        <time>2018-07-20T11:32:12Z</time>
      </trkpt>
      <trkpt lat="45.362514" lon="6.824628">
        <ele>2381.226</ele>
        <time>2018-07-20T11:32:28Z</time>
      </trkpt>
      <trkpt lat="45.362498" lon="6.824568">
        <ele>2383.508</ele>
        <time>2018-07-20T11:32:37Z</time>
      </trkpt>
      <trkpt lat="45.362450" lon="6.824555">
        <ele>2384.941</ele>
        <time>2018-07-20T11:35:00Z</time>
      </trkpt>
      <trkpt lat="45.362406" lon="6.824524">
        <ele>2384.556</ele>
        <time>2018-07-20T11:35:10Z</time>
      </trkpt>
      <trkpt lat="45.362361" lon="6.824523">
        <ele>2384.313</ele>
        <time>2018-07-20T11:35:16Z</time>
      </trkpt>
      <trkpt lat="45.362316" lon="6.824566">
        <ele>2387.068</ele>
        <time>2018-07-20T11:35:31Z</time>
      </trkpt>
      <trkpt lat="45.362263" lon="6.824558">
        <ele>2391.022</ele>
        <time>2018-07-20T11:35:34Z</time>
      </trkpt>
      <trkpt lat="45.362216" lon="6.824542">
        <ele>2393.845</ele>
        <time>2018-07-20T11:35:38Z</time>
      </trkpt>
      <trkpt lat="45.362169" lon="6.824516">
        <ele>2397.167</ele>
        <time>2018-07-20T11:35:42Z</time>
      </trkpt>
      <trkpt lat="45.362154" lon="6.824442">
        <ele>2399.121</ele>
        <time>2018-07-20T11:36:30Z</time>
      </trkpt>
      <trkpt lat="45.362121" lon="6.824383">
        <ele>2400.722</ele>
        <time>2018-07-20T11:36:34Z</time>
      </trkpt>
      <trkpt lat="45.362102" lon="6.824317">
        <ele>2402.062</ele>
        <time>2018-07-20T11:36:37Z</time>
      </trkpt>
      <trkpt lat="45.362067" lon="6.824274">
        <ele>2402.008</ele>
        <time>2018-07-20T11:36:43Z</time>
      </trkpt>
      <trkpt lat="45.362063" lon="6.824179">
        <ele>2403.208</ele>
        <time>2018-07-20T11:37:48Z</time>
      </trkpt>
      <trkpt lat="45.362067" lon="6.824114">
        <ele>2401.914</ele>
        <time>2018-07-20T11:37:51Z</time>
      </trkpt>
      <trkpt lat="45.362049" lon="6.824054">
        <ele>2401.139</ele>
        <time>2018-07-20T11:37:54Z</time>
      </trkpt>
      <trkpt lat="45.362026" lon="6.823993">
        <ele>2400.226</ele>
        <time>2018-07-20T11:37:59Z</time>
      </trkpt>
      <trkpt lat="45.361990" lon="6.823939">
        <ele>2400.561</ele>
        <time>2018-07-20T11:38:06Z</time>
      </trkpt>
      <trkpt lat="45.361949" lon="6.823894">
        <ele>2401.555</ele>
        <time>2018-07-20T11:38:11Z</time>
      </trkpt>
      <trkpt lat="45.361900" lon="6.823885">
        <ele>2401.318</ele>
        <time>2018-07-20T11:38:17Z</time>
      </trkpt>
      <trkpt lat="45.361853" lon="6.823881">
        <ele>2403.250</ele>
        <time>2018-07-20T11:38:21Z</time>
      </trkpt>
      <trkpt lat="45.361807" lon="6.823865">
        <ele>2405.964</ele>
        <time>2018-07-20T11:38:25Z</time>
      </trkpt>
      <trkpt lat="45.361751" lon="6.823820">
        <ele>2408.389</ele>
        <time>2018-07-20T11:39:27Z</time>
      </trkpt>
      <trkpt lat="45.361757" lon="6.823748">
        <ele>2409.806</ele>
        <time>2018-07-20T11:39:30Z</time>
      </trkpt>
      <trkpt lat="45.361769" lon="6.823671">
        <ele>2411.126</ele>
        <time>2018-07-20T11:39:32Z</time>
      </trkpt>
      <trkpt lat="45.361784" lon="6.823596">
        <ele>2410.708</ele>
        <time>2018-07-20T11:39:35Z</time>
      </trkpt>
      <trkpt lat="45.361777" lon="6.823519">
        <ele>2411.640</ele>
        <time>2018-07-20T11:39:39Z</time>
      </trkpt>
      <trkpt lat="45.361753" lon="6.823463">
        <ele>2414.675</ele>
        <time>2018-07-20T11:39:45Z</time>
      </trkpt>
      <trkpt lat="45.361749" lon="6.823390">
        <ele>2416.882</ele>
        <time>2018-07-20T11:39:51Z</time>
      </trkpt>
      <trkpt lat="45.361737" lon="6.823322">
        <ele>2420.527</ele>
        <time>2018-07-20T11:39:57Z</time>
      </trkpt>
      <trkpt lat="45.361699" lon="6.823286">
        <ele>2422.311</ele>
        <time>2018-07-20T11:40:03Z</time>
      </trkpt>
      <trkpt lat="45.361693" lon="6.823373">
        <ele>2421.494</ele>
        <time>2018-07-20T11:40:08Z</time>
      </trkpt>
      <trkpt lat="45.361629" lon="6.823377">
        <ele>2420.176</ele>
        <time>2018-07-20T11:40:48Z</time>
      </trkpt>
      <trkpt lat="45.361588" lon="6.823411">
        <ele>2420.140</ele>
        <time>2018-07-20T11:40:52Z</time>
      </trkpt>
      <trkpt lat="45.361539" lon="6.823427">
        <ele>2420.978</ele>
        <time>2018-07-20T11:40:58Z</time>
      </trkpt>
      <trkpt lat="45.361492" lon="6.823411">
        <ele>2422.233</ele>
        <time>2018-07-20T11:41:07Z</time>
      </trkpt>
      <trkpt lat="45.361451" lon="6.823373">
        <ele>2424.226</ele>
        <time>2018-07-20T11:41:11Z</time>
      </trkpt>
      <trkpt lat="45.361403" lon="6.823369">
        <ele>2424.208</ele>
        <time>2018-07-20T11:41:18Z</time>
      </trkpt>
      <trkpt lat="45.361356" lon="6.823380">
        <ele>2426.699</ele>
        <time>2018-07-20T11:41:22Z</time>
      </trkpt>
      <trkpt lat="45.361321" lon="6.823330">
        <ele>2428.414</ele>
        <time>2018-07-20T11:41:30Z</time>
      </trkpt>
      <trkpt lat="45.361273" lon="6.823314">
        <ele>2430.791</ele>
        <time>2018-07-20T11:41:36Z</time>
      </trkpt>
      <trkpt lat="45.361226" lon="6.823279">
        <ele>2431.376</ele>
        <time>2018-07-20T11:43:07Z</time>
      </trkpt>
      <trkpt lat="45.361218" lon="6.823184">
        <ele>2432.480</ele>
        <time>2018-07-20T11:43:09Z</time>
      </trkpt>
      <trkpt lat="45.361202" lon="6.823097">
        <ele>2433.973</ele>
        <time>2018-07-20T11:43:11Z</time>
      </trkpt>
      <trkpt lat="45.361188" lon="6.823033">
        <ele>2436.435</ele>
        <time>2018-07-20T11:43:13Z</time>
      </trkpt>
      <trkpt lat="45.361185" lon="6.822957">
        <ele>2438.329</ele>
        <time>2018-07-20T11:43:16Z</time>
      </trkpt>
      <trkpt lat="45.361130" lon="6.822777">
        <ele>2442.224</ele>
        <time>2018-07-20T11:43:44Z</time>
      </trkpt>
      <trkpt lat="45.361133" lon="6.822702">
        <ele>2445.004</ele>
        <time>2018-07-20T11:43:50Z</time>
      </trkpt>
      <trkpt lat="45.361100" lon="6.822647">
        <ele>2446.314</ele>
        <time>2018-07-20T11:43:55Z</time>
      </trkpt>
      <trkpt lat="45.361115" lon="6.822573">
        <ele>2445.908</ele>
        <time>2018-07-20T11:44:02Z</time>
      </trkpt>
      <trkpt lat="45.361117" lon="6.822509">
        <ele>2446.444</ele>
        <time>2018-07-20T11:44:05Z</time>
      </trkpt>
      <trkpt lat="45.361160" lon="6.822471">
        <ele>2446.719</ele>
        <time>2018-07-20T11:44:12Z</time>
      </trkpt>
      <trkpt lat="45.361152" lon="6.822405">
        <ele>2447.736</ele>
        <time>2018-07-20T11:44:16Z</time>
      </trkpt>
      <trkpt lat="45.361164" lon="6.822343">
        <ele>2447.581</ele>
        <time>2018-07-20T11:44:46Z</time>
      </trkpt>
      <trkpt lat="45.361185" lon="6.822283">
        <ele>2446.295</ele>
        <time>2018-07-20T11:44:52Z</time>
      </trkpt>
      <trkpt lat="45.361208" lon="6.822225">
        <ele>2445.898</ele>
        <time>2018-07-20T11:45:00Z</time>
      </trkpt>
      <trkpt lat="45.361159" lon="6.822189">
        <ele>2446.020</ele>
        <time>2018-07-20T11:45:48Z</time>
      </trkpt>
      <trkpt lat="45.361113" lon="6.822165">
        <ele>2444.924</ele>
        <time>2018-07-20T11:45:54Z</time>
      </trkpt>
      <trkpt lat="45.361067" lon="6.822153">
        <ele>2444.265</ele>
        <time>2018-07-20T11:45:59Z</time>
      </trkpt>
      <trkpt lat="45.360966" lon="6.822175">
        <ele>2446.668</ele>
        <time>2018-07-20T11:46:32Z</time>
      </trkpt>
      <trkpt lat="45.360910" lon="6.822160">
        <ele>2450.014</ele>
        <time>2018-07-20T11:46:37Z</time>
      </trkpt>
      <trkpt lat="45.360858" lon="6.822145">
        <ele>2452.908</ele>
        <time>2018-07-20T11:46:41Z</time>
      </trkpt>
      <trkpt lat="45.360807" lon="6.822125">
        <ele>2456.618</ele>
        <time>2018-07-20T11:46:45Z</time>
      </trkpt>
      <trkpt lat="45.360808" lon="6.822058">
        <ele>2458.833</ele>
        <time>2018-07-20T11:46:59Z</time>
      </trkpt>
      <trkpt lat="45.360755" lon="6.822048">
        <ele>2462.840</ele>
        <time>2018-07-20T11:47:32Z</time>
      </trkpt>
      <trkpt lat="45.360710" lon="6.822046">
        <ele>2466.525</ele>
        <time>2018-07-20T11:47:35Z</time>
      </trkpt>
      <trkpt lat="45.360660" lon="6.822043">
        <ele>2468.799</ele>
        <time>2018-07-20T11:47:40Z</time>
      </trkpt>
      <trkpt lat="45.360618" lon="6.822012">
        <ele>2470.482</ele>
        <time>2018-07-20T11:47:44Z</time>
      </trkpt>
      <trkpt lat="45.360575" lon="6.821971">
        <ele>2471.084</ele>
        <time>2018-07-20T11:47:54Z</time>
      </trkpt>
      <trkpt lat="45.360515" lon="6.821896">
        <ele>2473.068</ele>
        <time>2018-07-20T11:48:14Z</time>
      </trkpt>
      <trkpt lat="45.360472" lon="6.821876">
        <ele>2473.059</ele>
        <time>2018-07-20T11:48:41Z</time>
      </trkpt>
      <trkpt lat="45.360435" lon="6.821837">
        <ele>2474.603</ele>
        <time>2018-07-20T11:48:44Z</time>
      </trkpt>
      <trkpt lat="45.360384" lon="6.821823">
        <ele>2474.823</ele>
        <time>2018-07-20T11:48:49Z</time>
      </trkpt>
      <trkpt lat="45.360338" lon="6.821807">
        <ele>2476.908</ele>
        <time>2018-07-20T11:48:53Z</time>
      </trkpt>
      <trkpt lat="45.360293" lon="6.821785">
        <ele>2476.677</ele>
        <time>2018-07-20T11:48:59Z</time>
      </trkpt>
      <trkpt lat="45.360248" lon="6.821729">
        <ele>2478.422</ele>
        <time>2018-07-20T11:49:06Z</time>
      </trkpt>
      <trkpt lat="45.360200" lon="6.821713">
        <ele>2480.349</ele>
        <time>2018-07-20T11:49:26Z</time>
      </trkpt>
      <trkpt lat="45.360160" lon="6.821683">
        <ele>2482.254</ele>
        <time>2018-07-20T11:49:30Z</time>
      </trkpt>
      <trkpt lat="45.360121" lon="6.821645">
        <ele>2483.038</ele>
        <time>2018-07-20T11:49:35Z</time>
      </trkpt>
      <trkpt lat="45.360081" lon="6.821603">
        <ele>2483.561</ele>
        <time>2018-07-20T11:49:41Z</time>
      </trkpt>
      <trkpt lat="45.360032" lon="6.821595">
        <ele>2484.233</ele>
        <time>2018-07-20T11:49:49Z</time>
      </trkpt>
      <trkpt lat="45.359981" lon="6.821583">
        <ele>2484.667</ele>
        <time>2018-07-20T11:49:54Z</time>
      </trkpt>
      <trkpt lat="45.359930" lon="6.821592">
        <ele>2485.214</ele>
        <time>2018-07-20T11:49:58Z</time>
      </trkpt>
      <trkpt lat="45.359892" lon="6.821542">
        <ele>2484.454</ele>
        <time>2018-07-20T11:50:08Z</time>
      </trkpt>
      <trkpt lat="45.359846" lon="6.821537">
        <ele>2483.109</ele>
        <time>2018-07-20T11:50:16Z</time>
      </trkpt>
      <trkpt lat="45.359805" lon="6.821510">
        <ele>2482.708</ele>
        <time>2018-07-20T11:50:23Z</time>
      </trkpt>
      <trkpt lat="45.359806" lon="6.821404">
        <ele>2483.933</ele>
        <time>2018-07-20T12:03:26Z</time>
      </trkpt>
      <trkpt lat="45.359810" lon="6.821337">
        <ele>2483.528</ele>
        <time>2018-07-20T12:03:41Z</time>
      </trkpt>
      <trkpt lat="45.359766" lon="6.821307">
        <ele>2483.535</ele>
        <time>2018-07-20T12:03:52Z</time>
      </trkpt>
      <trkpt lat="45.359729" lon="6.821260">
        <ele>2484.320</ele>
        <time>2018-07-20T12:03:59Z</time>
      </trkpt>
      <trkpt lat="45.359701" lon="6.821202">
        <ele>2485.274</ele>
        <time>2018-07-20T12:04:06Z</time>
      </trkpt>
      <trkpt lat="45.359667" lon="6.821151">
        <ele>2485.787</ele>
        <time>2018-07-20T12:04:15Z</time>
      </trkpt>
      <trkpt lat="45.359639" lon="6.821095">
        <ele>2486.019</ele>
        <time>2018-07-20T12:04:21Z</time>
      </trkpt>
      <trkpt lat="45.359624" lon="6.821024">
        <ele>2485.053</ele>
        <time>2018-07-20T12:04:34Z</time>
      </trkpt>
      <trkpt lat="45.359606" lon="6.820960">
        <ele>2486.481</ele>
        <time>2018-07-20T12:04:41Z</time>
      </trkpt>
      <trkpt lat="45.359603" lon="6.820861">
        <ele>2488.061</ele>
        <time>2018-07-20T12:05:17Z</time>
      </trkpt>
      <trkpt lat="45.359594" lon="6.820793">
        <ele>2489.017</ele>
        <time>2018-07-20T12:05:22Z</time>
      </trkpt>
      <trkpt lat="45.359570" lon="6.820723">
        <ele>2488.408</ele>
        <time>2018-07-20T12:05:30Z</time>
      </trkpt>
      <trkpt lat="45.359560" lon="6.820652">
        <ele>2488.460</ele>
        <time>2018-07-20T12:05:37Z</time>
      </trkpt>
      <trkpt lat="45.359531" lon="6.820587">
        <ele>2490.045</ele>
        <time>2018-07-20T12:05:47Z</time>
      </trkpt>
      <trkpt lat="45.359537" lon="6.820522">
        <ele>2490.692</ele>
        <time>2018-07-20T12:05:56Z</time>
      </trkpt>
      <trkpt lat="45.359539" lon="6.820454">
        <ele>2491.317</ele>
        <time>2018-07-20T12:06:02Z</time>
      </trkpt>
      <trkpt lat="45.359525" lon="6.820380">
        <ele>2493.321</ele>
        <time>2018-07-20T12:06:07Z</time>
      </trkpt>
      <trkpt lat="45.359513" lon="6.820316">
        <ele>2495.394</ele>
        <time>2018-07-20T12:06:11Z</time>
      </trkpt>
      <trkpt lat="45.359517" lon="6.820244">
        <ele>2496.576</ele>
        <time>2018-07-20T12:06:18Z</time>
      </trkpt>
      <trkpt lat="45.359512" lon="6.820178">
        <ele>2497.240</ele>
        <time>2018-07-20T12:06:33Z</time>
      </trkpt>
      <trkpt lat="45.359560" lon="6.820155">
        <ele>2494.439</ele>
        <time>2018-07-20T12:06:48Z</time>
      </trkpt>
      <trkpt lat="45.359548" lon="6.820093">
        <ele>2494.301</ele>
        <time>2018-07-20T12:06:53Z</time>
      </trkpt>
      <trkpt lat="45.359539" lon="6.820021">
        <ele>2495.121</ele>
        <time>2018-07-20T12:06:58Z</time>
      </trkpt>
      <trkpt lat="45.359541" lon="6.819950">
        <ele>2496.008</ele>
        <time>2018-07-20T12:07:07Z</time>
      </trkpt>
      <trkpt lat="45.359537" lon="6.819881">
        <ele>2497.755</ele>
        <time>2018-07-20T12:07:13Z</time>
      </trkpt>
      <trkpt lat="45.359543" lon="6.819809">
        <ele>2499.910</ele>
        <time>2018-07-20T12:07:22Z</time>
      </trkpt>
      <trkpt lat="45.359553" lon="6.819746">
        <ele>2499.657</ele>
        <time>2018-07-20T12:07:47Z</time>
      </trkpt>
      <trkpt lat="45.359531" lon="6.819681">
        <ele>2501.492</ele>
        <time>2018-07-20T12:07:53Z</time>
      </trkpt>
      <trkpt lat="45.359501" lon="6.819629">
        <ele>2502.136</ele>
        <time>2018-07-20T12:07:57Z</time>
      </trkpt>
      <trkpt lat="45.359454" lon="6.819598">
        <ele>2503.769</ele>
        <time>2018-07-20T12:08:04Z</time>
      </trkpt>
      <trkpt lat="45.359412" lon="6.819565">
        <ele>2504.721</ele>
        <time>2018-07-20T12:08:11Z</time>
      </trkpt>
      <trkpt lat="45.359378" lon="6.819519">
        <ele>2506.135</ele>
        <time>2018-07-20T12:08:22Z</time>
      </trkpt>
      <trkpt lat="45.359345" lon="6.819471">
        <ele>2507.366</ele>
        <time>2018-07-20T12:08:36Z</time>
      </trkpt>
      <trkpt lat="45.359308" lon="6.819425">
        <ele>2508.429</ele>
        <time>2018-07-20T12:08:43Z</time>
      </trkpt>
      <trkpt lat="45.359274" lon="6.819381">
        <ele>2509.121</ele>
        <time>2018-07-20T12:08:57Z</time>
      </trkpt>
      <trkpt lat="45.359246" lon="6.819326">
        <ele>2509.508</ele>
        <time>2018-07-20T12:09:07Z</time>
      </trkpt>
      <trkpt lat="45.359210" lon="6.819276">
        <ele>2510.138</ele>
        <time>2018-07-20T12:09:17Z</time>
      </trkpt>
      <trkpt lat="45.359173" lon="6.819230">
        <ele>2510.953</ele>
        <time>2018-07-20T12:09:25Z</time>
      </trkpt>
      <trkpt lat="45.359141" lon="6.819177">
        <ele>2511.840</ele>
        <time>2018-07-20T12:09:33Z</time>
      </trkpt>
      <trkpt lat="45.359111" lon="6.819126">
        <ele>2512.755</ele>
        <time>2018-07-20T12:09:38Z</time>
      </trkpt>
      <trkpt lat="45.359078" lon="6.819073">
        <ele>2514.149</ele>
        <time>2018-07-20T12:09:43Z</time>
      </trkpt>
      <trkpt lat="45.359053" lon="6.819019">
        <ele>2514.552</ele>
        <time>2018-07-20T12:09:49Z</time>
      </trkpt>
      <trkpt lat="45.359023" lon="6.818967">
        <ele>2514.724</ele>
        <time>2018-07-20T12:09:56Z</time>
      </trkpt>
      <trkpt lat="45.358995" lon="6.818909">
        <ele>2514.428</ele>
        <time>2018-07-20T12:10:04Z</time>
      </trkpt>
      <trkpt lat="45.358967" lon="6.818853">
        <ele>2515.065</ele>
        <time>2018-07-20T12:10:11Z</time>
      </trkpt>
      <trkpt lat="45.358938" lon="6.818802">
        <ele>2515.868</ele>
        <time>2018-07-20T12:10:18Z</time>
      </trkpt>
      <trkpt lat="45.358924" lon="6.818738">
        <ele>2516.314</ele>
        <time>2018-07-20T12:10:26Z</time>
      </trkpt>
      <trkpt lat="45.358906" lon="6.818671">
        <ele>2517.408</ele>
        <time>2018-07-20T12:10:36Z</time>
      </trkpt>
      <trkpt lat="45.358858" lon="6.818636">
        <ele>2518.138</ele>
        <time>2018-07-20T12:10:47Z</time>
      </trkpt>
      <trkpt lat="45.358813" lon="6.818610">
        <ele>2518.923</ele>
        <time>2018-07-20T12:10:55Z</time>
      </trkpt>
      <trkpt lat="45.358769" lon="6.818576">
        <ele>2519.060</ele>
        <time>2018-07-20T12:11:03Z</time>
      </trkpt>
      <trkpt lat="45.358748" lon="6.818507">
        <ele>2519.885</ele>
        <time>2018-07-20T12:11:10Z</time>
      </trkpt>
      <trkpt lat="45.358735" lon="6.818438">
        <ele>2519.969</ele>
        <time>2018-07-20T12:11:16Z</time>
      </trkpt>
      <trkpt lat="45.358722" lon="6.818374">
        <ele>2520.482</ele>
        <time>2018-07-20T12:11:23Z</time>
      </trkpt>
      <trkpt lat="45.358693" lon="6.818321">
        <ele>2520.724</ele>
        <time>2018-07-20T12:12:22Z</time>
      </trkpt>
      <trkpt lat="45.358662" lon="6.818272">
        <ele>2520.988</ele>
        <time>2018-07-20T12:12:28Z</time>
      </trkpt>
      <trkpt lat="45.358628" lon="6.818220">
        <ele>2520.654</ele>
        <time>2018-07-20T12:12:33Z</time>
      </trkpt>
      <trkpt lat="45.358590" lon="6.818179">
        <ele>2520.456</ele>
        <time>2018-07-20T12:12:37Z</time>
      </trkpt>
      <trkpt lat="45.358550" lon="6.818149">
        <ele>2519.911</ele>
        <time>2018-07-20T12:12:43Z</time>
      </trkpt>
      <trkpt lat="45.358523" lon="6.818088">
        <ele>2519.208</ele>
        <time>2018-07-20T12:12:49Z</time>
      </trkpt>
      <trkpt lat="45.358517" lon="6.818021">
        <ele>2518.467</ele>
        <time>2018-07-20T12:12:57Z</time>
      </trkpt>
      <trkpt lat="45.358475" lon="6.817992">
        <ele>2517.552</ele>
        <time>2018-07-20T12:13:03Z</time>
      </trkpt>
      <trkpt lat="45.358463" lon="6.817924">
        <ele>2516.629</ele>
        <time>2018-07-20T12:13:13Z</time>
      </trkpt>
      <trkpt lat="45.358423" lon="6.817889">
        <ele>2515.614</ele>
        <time>2018-07-20T12:13:21Z</time>
      </trkpt>
      <trkpt lat="45.358385" lon="6.817840">
        <ele>2516.248</ele>
        <time>2018-07-20T12:13:33Z</time>
      </trkpt>
      <trkpt lat="45.358356" lon="6.817778">
        <ele>2515.851</ele>
        <time>2018-07-20T12:13:40Z</time>
      </trkpt>
      <trkpt lat="45.358326" lon="6.817715">
        <ele>2514.783</ele>
        <time>2018-07-20T12:13:46Z</time>
      </trkpt>
      <trkpt lat="45.358299" lon="6.817656">
        <ele>2513.727</ele>
        <time>2018-07-20T12:13:51Z</time>
      </trkpt>
      <trkpt lat="45.358256" lon="6.817615">
        <ele>2513.544</ele>
        <time>2018-07-20T12:13:55Z</time>
      </trkpt>
      <trkpt lat="45.358221" lon="6.817567">
        <ele>2513.805</ele>
        <time>2018-07-20T12:13:59Z</time>
      </trkpt>
      <trkpt lat="45.358182" lon="6.817522">
        <ele>2513.215</ele>
        <time>2018-07-20T12:14:04Z</time>
      </trkpt>
      <trkpt lat="45.358146" lon="6.817479">
        <ele>2512.008</ele>
        <time>2018-07-20T12:14:10Z</time>
      </trkpt>
      <trkpt lat="45.358105" lon="6.817434">
        <ele>2511.746</ele>
        <time>2018-07-20T12:14:15Z</time>
      </trkpt>
      <trkpt lat="45.358069" lon="6.817384">
        <ele>2511.971</ele>
        <time>2018-07-20T12:14:20Z</time>
      </trkpt>
      <trkpt lat="45.358036" lon="6.817338">
        <ele>2511.648</ele>
        <time>2018-07-20T12:14:25Z</time>
      </trkpt>
      <trkpt lat="45.357995" lon="6.817302">
        <ele>2511.033</ele>
        <time>2018-07-20T12:14:31Z</time>
      </trkpt>
      <trkpt lat="45.357957" lon="6.817264">
        <ele>2510.787</ele>
        <time>2018-07-20T12:14:35Z</time>
      </trkpt>
      <trkpt lat="45.357920" lon="6.817217">
        <ele>2510.580</ele>
        <time>2018-07-20T12:14:41Z</time>
      </trkpt>
      <trkpt lat="45.357882" lon="6.817167">
        <ele>2510.032</ele>
        <time>2018-07-20T12:14:48Z</time>
      </trkpt>
      <trkpt lat="45.357848" lon="6.817123">
        <ele>2510.156</ele>
        <time>2018-07-20T12:14:53Z</time>
      </trkpt>
      <trkpt lat="45.357807" lon="6.817081">
        <ele>2510.665</ele>
        <time>2018-07-20T12:14:58Z</time>
      </trkpt>
      <trkpt lat="45.357766" lon="6.817042">
        <ele>2510.968</ele>
        <time>2018-07-20T12:15:03Z</time>
      </trkpt>
      <trkpt lat="45.357727" lon="6.817007">
        <ele>2511.914</ele>
        <time>2018-07-20T12:15:10Z</time>
      </trkpt>
      <trkpt lat="45.357677" lon="6.816971">
        <ele>2512.508</ele>
        <time>2018-07-20T12:15:16Z</time>
      </trkpt>
      <trkpt lat="45.357640" lon="6.816918">
        <ele>2512.458</ele>
        <time>2018-07-20T12:15:23Z</time>
      </trkpt>
      <trkpt lat="45.357599" lon="6.816882">
        <ele>2512.853</ele>
        <time>2018-07-20T12:15:27Z</time>
      </trkpt>
      <trkpt lat="45.357556" lon="6.816848">
        <ele>2513.030</ele>
        <time>2018-07-20T12:15:31Z</time>
      </trkpt>
      <trkpt lat="45.357514" lon="6.816815">
        <ele>2512.775</ele>
        <time>2018-07-20T12:15:35Z</time>
      </trkpt>
      <trkpt lat="45.357465" lon="6.816782">
        <ele>2512.979</ele>
        <time>2018-07-20T12:15:40Z</time>
      </trkpt>
      <trkpt lat="45.357432" lon="6.816735">
        <ele>2513.052</ele>
        <time>2018-07-20T12:15:45Z</time>
      </trkpt>
      <trkpt lat="45.357393" lon="6.816700">
        <ele>2512.734</ele>
        <time>2018-07-20T12:15:51Z</time>
      </trkpt>
      <trkpt lat="45.357354" lon="6.816659">
        <ele>2512.568</ele>
        <time>2018-07-20T12:15:57Z</time>
      </trkpt>
      <trkpt lat="45.357314" lon="6.816621">
        <ele>2512.016</ele>
        <time>2018-07-20T12:16:06Z</time>
      </trkpt>
      <trkpt lat="45.357289" lon="6.816560">
        <ele>2512.176</ele>
        <time>2018-07-20T12:16:15Z</time>
      </trkpt>
      <trkpt lat="45.357252" lon="6.816524">
        <ele>2513.013</ele>
        <time>2018-07-20T12:16:22Z</time>
      </trkpt>
      <trkpt lat="45.357223" lon="6.816467">
        <ele>2513.508</ele>
        <time>2018-07-20T12:16:34Z</time>
      </trkpt>
      <trkpt lat="45.357187" lon="6.816419">
        <ele>2514.623</ele>
        <time>2018-07-20T12:16:41Z</time>
      </trkpt>
      <trkpt lat="45.357151" lon="6.816369">
        <ele>2516.138</ele>
        <time>2018-07-20T12:16:50Z</time>
      </trkpt>
      <trkpt lat="45.357124" lon="6.816313">
        <ele>2517.485</ele>
        <time>2018-07-20T12:16:58Z</time>
      </trkpt>
      <trkpt lat="45.357087" lon="6.816270">
        <ele>2518.620</ele>
        <time>2018-07-20T12:17:10Z</time>
      </trkpt>
      <trkpt lat="45.357060" lon="6.816216">
        <ele>2519.724</ele>
        <time>2018-07-20T12:17:25Z</time>
      </trkpt>
      <trkpt lat="45.357038" lon="6.816156">
        <ele>2520.447</ele>
        <time>2018-07-20T12:17:47Z</time>
      </trkpt>
      <trkpt lat="45.357019" lon="6.816090">
        <ele>2520.479</ele>
        <time>2018-07-20T12:18:00Z</time>
      </trkpt>
      <trkpt lat="45.357009" lon="6.816023">
        <ele>2520.853</ele>
        <time>2018-07-20T12:18:06Z</time>
      </trkpt>
      <trkpt lat="45.357002" lon="6.815946">
        <ele>2522.284</ele>
        <time>2018-07-20T12:18:13Z</time>
      </trkpt>
      <trkpt lat="45.357006" lon="6.815875">
        <ele>2523.107</ele>
        <time>2018-07-20T12:18:22Z</time>
      </trkpt>
      <trkpt lat="45.357002" lon="6.815811">
        <ele>2524.417</ele>
        <time>2018-07-20T12:18:31Z</time>
      </trkpt>
      <trkpt lat="45.356990" lon="6.815737">
        <ele>2525.608</ele>
        <time>2018-07-20T12:18:40Z</time>
      </trkpt>
      <trkpt lat="45.356979" lon="6.815672">
        <ele>2525.970</ele>
        <time>2018-07-20T12:18:47Z</time>
      </trkpt>
      <trkpt lat="45.356970" lon="6.815607">
        <ele>2526.915</ele>
        <time>2018-07-20T12:18:53Z</time>
      </trkpt>
      <trkpt lat="45.356944" lon="6.815544">
        <ele>2527.962</ele>
        <time>2018-07-20T12:18:58Z</time>
      </trkpt>
      <trkpt lat="45.356908" lon="6.815490">
        <ele>2528.537</ele>
        <time>2018-07-20T12:19:03Z</time>
      </trkpt>
      <trkpt lat="45.356878" lon="6.815438">
        <ele>2528.971</ele>
        <time>2018-07-20T12:19:08Z</time>
      </trkpt>
      <trkpt lat="45.356839" lon="6.815392">
        <ele>2528.384</ele>
        <time>2018-07-20T12:19:14Z</time>
      </trkpt>
      <trkpt lat="45.356811" lon="6.815337">
        <ele>2527.936</ele>
        <time>2018-07-20T12:19:19Z</time>
      </trkpt>
      <trkpt lat="45.356777" lon="6.815289">
        <ele>2527.360</ele>
        <time>2018-07-20T12:19:24Z</time>
      </trkpt>
      <trkpt lat="45.356730" lon="6.815249">
        <ele>2526.918</ele>
        <time>2018-07-20T12:19:29Z</time>
      </trkpt>
      <trkpt lat="45.356710" lon="6.815191">
        <ele>2526.398</ele>
        <time>2018-07-20T12:19:34Z</time>
      </trkpt>
      <trkpt lat="45.356689" lon="6.815133">
        <ele>2526.317</ele>
        <time>2018-07-20T12:19:38Z</time>
      </trkpt>
      <trkpt lat="45.356678" lon="6.815071">
        <ele>2526.708</ele>
        <time>2018-07-20T12:19:42Z</time>
      </trkpt>
      <trkpt lat="45.356678" lon="6.815001">
        <ele>2527.463</ele>
        <time>2018-07-20T12:19:47Z</time>
      </trkpt>
      <trkpt lat="45.356691" lon="6.814933">
        <ele>2528.218</ele>
        <time>2018-07-20T12:19:53Z</time>
      </trkpt>
      <trkpt lat="45.356665" lon="6.814860">
        <ele>2529.145</ele>
        <time>2018-07-20T12:20:09Z</time>
      </trkpt>
      <trkpt lat="45.356636" lon="6.814799">
        <ele>2530.450</ele>
        <time>2018-07-20T12:20:19Z</time>
      </trkpt>
      <trkpt lat="45.356604" lon="6.814744">
        <ele>2531.694</ele>
        <time>2018-07-20T12:20:28Z</time>
      </trkpt>
      <trkpt lat="45.356591" lon="6.814679">
        <ele>2530.737</ele>
        <time>2018-07-20T12:20:39Z</time>
      </trkpt>
      <trkpt lat="45.356570" lon="6.814595">
        <ele>2530.679</ele>
        <time>2018-07-20T12:20:57Z</time>
      </trkpt>
      <trkpt lat="45.356296" lon="6.814308">
        <ele>2529.743</ele>
        <time>2018-07-20T12:21:18Z</time>
      </trkpt>
      <trkpt lat="45.356347" lon="6.814331">
        <ele>2531.242</ele>
        <time>2018-07-20T12:21:20Z</time>
      </trkpt>
      <trkpt lat="45.356396" lon="6.814337">
        <ele>2532.922</ele>
        <time>2018-07-20T12:21:23Z</time>
      </trkpt>
      <trkpt lat="45.356425" lon="6.814285">
        <ele>2536.914</ele>
        <time>2018-07-20T12:21:35Z</time>
      </trkpt>
      <trkpt lat="45.356446" lon="6.814211">
        <ele>2539.908</ele>
        <time>2018-07-20T12:21:54Z</time>
      </trkpt>
      <trkpt lat="45.356453" lon="6.814146">
        <ele>2542.176</ele>
        <time>2018-07-20T12:22:03Z</time>
      </trkpt>
      <trkpt lat="45.356469" lon="6.814082">
        <ele>2541.871</ele>
        <time>2018-07-20T12:22:09Z</time>
      </trkpt>
      <trkpt lat="45.356464" lon="6.814017">
        <ele>2542.468</ele>
        <time>2018-07-20T12:22:13Z</time>
      </trkpt>
      <trkpt lat="45.356462" lon="6.813945">
        <ele>2542.443</ele>
        <time>2018-07-20T12:22:18Z</time>
      </trkpt>
      <trkpt lat="45.356466" lon="6.813872">
        <ele>2542.097</ele>
        <time>2018-07-20T12:22:24Z</time>
      </trkpt>
      <trkpt lat="45.356441" lon="6.813814">
        <ele>2541.470</ele>
        <time>2018-07-20T12:22:27Z</time>
      </trkpt>
      <trkpt lat="45.356447" lon="6.813740">
        <ele>2540.222</ele>
        <time>2018-07-20T12:22:32Z</time>
      </trkpt>
      <trkpt lat="45.356448" lon="6.813663">
        <ele>2539.556</ele>
        <time>2018-07-20T12:22:37Z</time>
      </trkpt>
      <trkpt lat="45.356451" lon="6.813587">
        <ele>2539.139</ele>
        <time>2018-07-20T12:22:42Z</time>
      </trkpt>
      <trkpt lat="45.356466" lon="6.813517">
        <ele>2539.201</ele>
        <time>2018-07-20T12:22:47Z</time>
      </trkpt>
      <trkpt lat="45.356476" lon="6.813449">
        <ele>2539.721</ele>
        <time>2018-07-20T12:22:52Z</time>
      </trkpt>
      <trkpt lat="45.356511" lon="6.813406">
        <ele>2539.208</ele>
        <time>2018-07-20T12:22:56Z</time>
      </trkpt>
      <trkpt lat="45.356544" lon="6.813361">
        <ele>2538.985</ele>
        <time>2018-07-20T12:23:01Z</time>
      </trkpt>
      <trkpt lat="45.356578" lon="6.813313">
        <ele>2539.110</ele>
        <time>2018-07-20T12:23:06Z</time>
      </trkpt>
      <trkpt lat="45.356597" lon="6.813251">
        <ele>2538.837</ele>
        <time>2018-07-20T12:23:12Z</time>
      </trkpt>
      <trkpt lat="45.356620" lon="6.813193">
        <ele>2538.242</ele>
        <time>2018-07-20T12:23:17Z</time>
      </trkpt>
      <trkpt lat="45.356656" lon="6.813146">
        <ele>2539.196</ele>
        <time>2018-07-20T12:23:22Z</time>
      </trkpt>
      <trkpt lat="45.356671" lon="6.813082">
        <ele>2539.279</ele>
        <time>2018-07-20T12:23:26Z</time>
      </trkpt>
      <trkpt lat="45.356673" lon="6.813002">
        <ele>2540.171</ele>
        <time>2018-07-20T12:23:30Z</time>
      </trkpt>
      <trkpt lat="45.356685" lon="6.812939">
        <ele>2541.055</ele>
        <time>2018-07-20T12:23:34Z</time>
      </trkpt>
      <trkpt lat="45.356707" lon="6.812874">
        <ele>2542.036</ele>
        <time>2018-07-20T12:23:39Z</time>
      </trkpt>
      <trkpt lat="45.356716" lon="6.812811">
        <ele>2543.017</ele>
        <time>2018-07-20T12:23:44Z</time>
      </trkpt>
      <trkpt lat="45.356720" lon="6.812738">
        <ele>2543.218</ele>
        <time>2018-07-20T12:23:49Z</time>
      </trkpt>
      <trkpt lat="45.356728" lon="6.812674">
        <ele>2543.308</ele>
        <time>2018-07-20T12:23:53Z</time>
      </trkpt>
      <trkpt lat="45.356737" lon="6.812601">
        <ele>2544.615</ele>
        <time>2018-07-20T12:23:58Z</time>
      </trkpt>
      <trkpt lat="45.356765" lon="6.812546">
        <ele>2544.670</ele>
        <time>2018-07-20T12:24:05Z</time>
      </trkpt>
      <trkpt lat="45.356797" lon="6.812499">
        <ele>2544.277</ele>
        <time>2018-07-20T12:24:10Z</time>
      </trkpt>
      <trkpt lat="45.356829" lon="6.812452">
        <ele>2543.142</ele>
        <time>2018-07-20T12:24:15Z</time>
      </trkpt>
      <trkpt lat="45.356824" lon="6.812380">
        <ele>2542.976</ele>
        <time>2018-07-20T12:24:21Z</time>
      </trkpt>
      <trkpt lat="45.356785" lon="6.812317">
        <ele>2541.219</ele>
        <time>2018-07-20T12:24:26Z</time>
      </trkpt>
      <trkpt lat="45.356757" lon="6.812259">
        <ele>2539.811</ele>
        <time>2018-07-20T12:24:30Z</time>
      </trkpt>
      <trkpt lat="45.356757" lon="6.812194">
        <ele>2538.195</ele>
        <time>2018-07-20T12:24:35Z</time>
      </trkpt>
      <trkpt lat="45.356786" lon="6.812136">
        <ele>2535.583</ele>
        <time>2018-07-20T12:24:41Z</time>
      </trkpt>
      <trkpt lat="45.356807" lon="6.812076">
        <ele>2534.725</ele>
        <time>2018-07-20T12:24:46Z</time>
      </trkpt>
      <trkpt lat="45.356827" lon="6.812012">
        <ele>2534.217</ele>
        <time>2018-07-20T12:24:51Z</time>
      </trkpt>
      <trkpt lat="45.356838" lon="6.811940">
        <ele>2534.308</ele>
        <time>2018-07-20T12:24:55Z</time>
      </trkpt>
      <trkpt lat="45.356854" lon="6.811876">
        <ele>2533.650</ele>
        <time>2018-07-20T12:24:59Z</time>
      </trkpt>
      <trkpt lat="45.356897" lon="6.811829">
        <ele>2532.025</ele>
        <time>2018-07-20T12:25:04Z</time>
      </trkpt>
      <trkpt lat="45.356925" lon="6.811767">
        <ele>2530.292</ele>
        <time>2018-07-20T12:25:09Z</time>
      </trkpt>
      <trkpt lat="45.356942" lon="6.811700">
        <ele>2529.157</ele>
        <time>2018-07-20T12:25:13Z</time>
      </trkpt>
      <trkpt lat="45.356951" lon="6.811624">
        <ele>2528.521</ele>
        <time>2018-07-20T12:25:17Z</time>
      </trkpt>
      <trkpt lat="45.356969" lon="6.811550">
        <ele>2527.734</ele>
        <time>2018-07-20T12:25:22Z</time>
      </trkpt>
      <trkpt lat="45.356992" lon="6.811493">
        <ele>2526.486</ele>
        <time>2018-07-20T12:25:26Z</time>
      </trkpt>
      <trkpt lat="45.357020" lon="6.811426">
        <ele>2525.290</ele>
        <time>2018-07-20T12:25:31Z</time>
      </trkpt>
      <trkpt lat="45.357038" lon="6.811365">
        <ele>2524.559</ele>
        <time>2018-07-20T12:25:36Z</time>
      </trkpt>
      <trkpt lat="45.357044" lon="6.811289">
        <ele>2524.503</ele>
        <time>2018-07-20T12:25:41Z</time>
      </trkpt>
      <trkpt lat="45.357039" lon="6.811212">
        <ele>2524.923</ele>
        <time>2018-07-20T12:25:45Z</time>
      </trkpt>
      <trkpt lat="45.357028" lon="6.811140">
        <ele>2525.108</ele>
        <time>2018-07-20T12:25:49Z</time>
      </trkpt>
      <trkpt lat="45.357011" lon="6.811081">
        <ele>2526.477</ele>
        <time>2018-07-20T12:25:53Z</time>
      </trkpt>
      <trkpt lat="45.356991" lon="6.811006">
        <ele>2528.092</ele>
        <time>2018-07-20T12:25:58Z</time>
      </trkpt>
      <trkpt lat="45.357010" lon="6.810940">
        <ele>2529.079</ele>
        <time>2018-07-20T12:26:03Z</time>
      </trkpt>
      <trkpt lat="45.357023" lon="6.810871">
        <ele>2529.264</ele>
        <time>2018-07-20T12:26:11Z</time>
      </trkpt>
      <trkpt lat="45.357030" lon="6.810800">
        <ele>2528.918</ele>
        <time>2018-07-20T12:26:18Z</time>
      </trkpt>
      <trkpt lat="45.357005" lon="6.810742">
        <ele>2527.921</ele>
        <time>2018-07-20T12:26:24Z</time>
      </trkpt>
      <trkpt lat="45.356986" lon="6.810674">
        <ele>2526.523</ele>
        <time>2018-07-20T12:26:31Z</time>
      </trkpt>
      <trkpt lat="45.356972" lon="6.810612">
        <ele>2526.167</ele>
        <time>2018-07-20T12:26:37Z</time>
      </trkpt>
      <trkpt lat="45.356957" lon="6.810548">
        <ele>2525.499</ele>
        <time>2018-07-20T12:26:44Z</time>
      </trkpt>
      <trkpt lat="45.356925" lon="6.810494">
        <ele>2525.407</ele>
        <time>2018-07-20T12:26:51Z</time>
      </trkpt>
      <trkpt lat="45.356894" lon="6.810443">
        <ele>2525.827</ele>
        <time>2018-07-20T12:26:58Z</time>
      </trkpt>
      <trkpt lat="45.356879" lon="6.810377">
        <ele>2526.008</ele>
        <time>2018-07-20T12:27:05Z</time>
      </trkpt>
      <trkpt lat="45.356898" lon="6.810310">
        <ele>2526.921</ele>
        <time>2018-07-20T12:27:12Z</time>
      </trkpt>
      <trkpt lat="45.356927" lon="6.810253">
        <ele>2527.966</ele>
        <time>2018-07-20T12:27:19Z</time>
      </trkpt>
      <trkpt lat="45.356935" lon="6.810179">
        <ele>2529.363</ele>
        <time>2018-07-20T12:27:26Z</time>
      </trkpt>
      <trkpt lat="45.356958" lon="6.810113">
        <ele>2530.148</ele>
        <time>2018-07-20T12:27:32Z</time>
      </trkpt>
      <trkpt lat="45.356987" lon="6.810057">
        <ele>2530.272</ele>
        <time>2018-07-20T12:27:38Z</time>
      </trkpt>
      <trkpt lat="45.357006" lon="6.809998">
        <ele>2530.365</ele>
        <time>2018-07-20T12:27:43Z</time>
      </trkpt>
      <trkpt lat="45.357022" lon="6.809934">
        <ele>2531.147</ele>
        <time>2018-07-20T12:27:48Z</time>
      </trkpt>
      <trkpt lat="45.357050" lon="6.809870">
        <ele>2532.451</ele>
        <time>2018-07-20T12:27:54Z</time>
      </trkpt>
      <trkpt lat="45.357081" lon="6.809823">
        <ele>2533.697</ele>
        <time>2018-07-20T12:28:00Z</time>
      </trkpt>
      <trkpt lat="45.357113" lon="6.809774">
        <ele>2535.123</ele>
        <time>2018-07-20T12:28:07Z</time>
      </trkpt>
      <trkpt lat="45.357130" lon="6.809706">
        <ele>2536.425</ele>
        <time>2018-07-20T12:28:13Z</time>
      </trkpt>
      <trkpt lat="45.357160" lon="6.809646">
        <ele>2535.608</ele>
        <time>2018-07-20T12:28:20Z</time>
      </trkpt>
      <trkpt lat="45.357186" lon="6.809585">
        <ele>2534.321</ele>
        <time>2018-07-20T12:28:26Z</time>
      </trkpt>
      <trkpt lat="45.357192" lon="6.809511">
        <ele>2532.716</ele>
        <time>2018-07-20T12:28:31Z</time>
      </trkpt>
      <trkpt lat="45.357193" lon="6.809438">
        <ele>2532.243</ele>
        <time>2018-07-20T12:28:36Z</time>
      </trkpt>
      <trkpt lat="45.357201" lon="6.809371">
        <ele>2532.398</ele>
        <time>2018-07-20T12:28:41Z</time>
      </trkpt>
      <trkpt lat="45.357208" lon="6.809305">
        <ele>2532.782</ele>
        <time>2018-07-20T12:28:47Z</time>
      </trkpt>
      <trkpt lat="45.357211" lon="6.809234">
        <ele>2533.465</ele>
        <time>2018-07-20T12:28:52Z</time>
      </trkpt>
      <trkpt lat="45.357216" lon="6.809167">
        <ele>2533.417</ele>
        <time>2018-07-20T12:29:01Z</time>
      </trkpt>
      <trkpt lat="45.357226" lon="6.809097">
        <ele>2533.031</ele>
        <time>2018-07-20T12:29:08Z</time>
      </trkpt>
      <trkpt lat="45.357217" lon="6.809023">
        <ele>2532.072</ele>
        <time>2018-07-20T12:29:15Z</time>
      </trkpt>
      <trkpt lat="45.357196" lon="6.808965">
        <ele>2531.813</ele>
        <time>2018-07-20T12:29:23Z</time>
      </trkpt>
      <trkpt lat="45.357200" lon="6.808899">
        <ele>2530.514</ele>
        <time>2018-07-20T12:29:31Z</time>
      </trkpt>
      <trkpt lat="45.357232" lon="6.808847">
        <ele>2530.908</ele>
        <time>2018-07-20T12:29:40Z</time>
      </trkpt>
      <trkpt lat="45.357236" lon="6.808781">
        <ele>2529.979</ele>
        <time>2018-07-20T12:29:46Z</time>
      </trkpt>
      <trkpt lat="45.357229" lon="6.808711">
        <ele>2529.374</ele>
        <time>2018-07-20T12:29:52Z</time>
      </trkpt>
      <trkpt lat="45.357237" lon="6.808645">
        <ele>2529.081</ele>
        <time>2018-07-20T12:29:57Z</time>
      </trkpt>
      <trkpt lat="45.357250" lon="6.808580">
        <ele>2528.876</ele>
        <time>2018-07-20T12:30:02Z</time>
      </trkpt>
      <trkpt lat="45.357254" lon="6.808511">
        <ele>2527.540</ele>
        <time>2018-07-20T12:30:08Z</time>
      </trkpt>
      <trkpt lat="45.357245" lon="6.808442">
        <ele>2527.123</ele>
        <time>2018-07-20T12:30:12Z</time>
      </trkpt>
      <trkpt lat="45.357245" lon="6.808369">
        <ele>2526.945</ele>
        <time>2018-07-20T12:30:18Z</time>
      </trkpt>
      <trkpt lat="45.357252" lon="6.808295">
        <ele>2527.629</ele>
        <time>2018-07-20T12:30:25Z</time>
      </trkpt>
      <trkpt lat="45.357248" lon="6.808224">
        <ele>2528.414</ele>
        <time>2018-07-20T12:30:30Z</time>
      </trkpt>
      <trkpt lat="45.357254" lon="6.808154">
        <ele>2528.554</ele>
        <time>2018-07-20T12:30:36Z</time>
      </trkpt>
      <trkpt lat="45.357235" lon="6.808080">
        <ele>2528.109</ele>
        <time>2018-07-20T12:30:41Z</time>
      </trkpt>
      <trkpt lat="45.357213" lon="6.808012">
        <ele>2527.908</ele>
        <time>2018-07-20T12:30:46Z</time>
      </trkpt>
      <trkpt lat="45.357194" lon="6.807950">
        <ele>2528.653</ele>
        <time>2018-07-20T12:30:53Z</time>
      </trkpt>
      <trkpt lat="45.357160" lon="6.807893">
        <ele>2526.638</ele>
        <time>2018-07-20T12:30:58Z</time>
      </trkpt>
      <trkpt lat="45.357148" lon="6.807820">
        <ele>2525.455</ele>
        <time>2018-07-20T12:31:03Z</time>
      </trkpt>
      <trkpt lat="45.357130" lon="6.807757">
        <ele>2525.120</ele>
        <time>2018-07-20T12:31:09Z</time>
      </trkpt>
      <trkpt lat="45.357113" lon="6.807692">
        <ele>2525.384</ele>
        <time>2018-07-20T12:31:15Z</time>
      </trkpt>
      <trkpt lat="45.357083" lon="6.807637">
        <ele>2525.447</ele>
        <time>2018-07-20T12:31:20Z</time>
      </trkpt>
      <trkpt lat="45.357054" lon="6.807585">
        <ele>2525.599</ele>
        <time>2018-07-20T12:31:25Z</time>
      </trkpt>
      <trkpt lat="45.357032" lon="6.807526">
        <ele>2525.913</ele>
        <time>2018-07-20T12:31:32Z</time>
      </trkpt>
      <trkpt lat="45.357028" lon="6.807456">
        <ele>2525.839</ele>
        <time>2018-07-20T12:31:55Z</time>
      </trkpt>
      <trkpt lat="45.357008" lon="6.807391">
        <ele>2524.901</ele>
        <time>2018-07-20T12:31:59Z</time>
      </trkpt>
      <trkpt lat="45.356997" lon="6.807328">
        <ele>2524.421</ele>
        <time>2018-07-20T12:32:04Z</time>
      </trkpt>
      <trkpt lat="45.356994" lon="6.807259">
        <ele>2524.108</ele>
        <time>2018-07-20T12:32:11Z</time>
      </trkpt>
      <trkpt lat="45.356986" lon="6.807188">
        <ele>2524.315</ele>
        <time>2018-07-20T12:32:18Z</time>
      </trkpt>
      <trkpt lat="45.356963" lon="6.807128">
        <ele>2524.030</ele>
        <time>2018-07-20T12:32:23Z</time>
      </trkpt>
      <trkpt lat="45.356934" lon="6.807077">
        <ele>2523.847</ele>
        <time>2018-07-20T12:32:27Z</time>
      </trkpt>
      <trkpt lat="45.356928" lon="6.807005">
        <ele>2524.922</ele>
        <time>2018-07-20T12:32:33Z</time>
      </trkpt>
      <trkpt lat="45.356911" lon="6.806944">
        <ele>2525.226</ele>
        <time>2018-07-20T12:32:37Z</time>
      </trkpt>
      <trkpt lat="45.356901" lon="6.806874">
        <ele>2525.819</ele>
        <time>2018-07-20T12:32:45Z</time>
      </trkpt>
      <trkpt lat="45.356905" lon="6.806809">
        <ele>2526.951</ele>
        <time>2018-07-20T12:32:55Z</time>
      </trkpt>
      <trkpt lat="45.356895" lon="6.806738">
        <ele>2528.065</ele>
        <time>2018-07-20T12:33:01Z</time>
      </trkpt>
      <trkpt lat="45.356899" lon="6.806667">
        <ele>2528.692</ele>
        <time>2018-07-20T12:33:06Z</time>
      </trkpt>
      <trkpt lat="45.356898" lon="6.806590">
        <ele>2529.473</ele>
        <time>2018-07-20T12:33:12Z</time>
      </trkpt>
      <trkpt lat="45.356905" lon="6.806519">
        <ele>2530.320</ele>
        <time>2018-07-20T12:33:17Z</time>
      </trkpt>
      <trkpt lat="45.356914" lon="6.806451">
        <ele>2531.608</ele>
        <time>2018-07-20T12:33:22Z</time>
      </trkpt>
      <trkpt lat="45.356914" lon="6.806383">
        <ele>2532.871</ele>
        <time>2018-07-20T12:33:26Z</time>
      </trkpt>
      <trkpt lat="45.356935" lon="6.806324">
        <ele>2533.516</ele>
        <time>2018-07-20T12:33:32Z</time>
      </trkpt>
      <trkpt lat="45.356929" lon="6.806260">
        <ele>2533.923</ele>
        <time>2018-07-20T12:33:37Z</time>
      </trkpt>
      <trkpt lat="45.356947" lon="6.806195">
        <ele>2533.078</ele>
        <time>2018-07-20T12:33:43Z</time>
      </trkpt>
      <trkpt lat="45.356940" lon="6.806125">
        <ele>2532.472</ele>
        <time>2018-07-20T12:33:48Z</time>
      </trkpt>
      <trkpt lat="45.356921" lon="6.806065">
        <ele>2530.575</ele>
        <time>2018-07-20T12:33:52Z</time>
      </trkpt>
      <trkpt lat="45.356908" lon="6.805992">
        <ele>2528.517</ele>
        <time>2018-07-20T12:33:57Z</time>
      </trkpt>
      <trkpt lat="45.356896" lon="6.805917">
        <ele>2527.361</ele>
        <time>2018-07-20T12:34:02Z</time>
      </trkpt>
      <trkpt lat="45.356890" lon="6.805843">
        <ele>2526.217</ele>
        <time>2018-07-20T12:34:07Z</time>
      </trkpt>
      <trkpt lat="45.356868" lon="6.805782">
        <ele>2527.187</ele>
        <time>2018-07-20T12:34:12Z</time>
      </trkpt>
      <trkpt lat="45.356843" lon="6.805726">
        <ele>2527.715</ele>
        <time>2018-07-20T12:34:17Z</time>
      </trkpt>
      <trkpt lat="45.356813" lon="6.805674">
        <ele>2528.408</ele>
        <time>2018-07-20T12:34:22Z</time>
      </trkpt>
      <trkpt lat="45.356784" lon="6.805625">
        <ele>2529.233</ele>
        <time>2018-07-20T12:34:27Z</time>
      </trkpt>
      <trkpt lat="45.356760" lon="6.805569">
        <ele>2529.328</ele>
        <time>2018-07-20T12:34:32Z</time>
      </trkpt>
      <trkpt lat="45.356752" lon="6.805496">
        <ele>2528.645</ele>
        <time>2018-07-20T12:34:38Z</time>
      </trkpt>
      <trkpt lat="45.356728" lon="6.805431">
        <ele>2528.220</ele>
        <time>2018-07-20T12:34:44Z</time>
      </trkpt>
      <trkpt lat="45.356700" lon="6.805378">
        <ele>2528.314</ele>
        <time>2018-07-20T12:34:50Z</time>
      </trkpt>
      <trkpt lat="45.356663" lon="6.805323">
        <ele>2529.657</ele>
        <time>2018-07-20T12:35:07Z</time>
      </trkpt>
      <trkpt lat="45.356651" lon="6.805257">
        <ele>2530.859</ele>
        <time>2018-07-20T12:35:16Z</time>
      </trkpt>
      <trkpt lat="45.356648" lon="6.805191">
        <ele>2532.333</ele>
        <time>2018-07-20T12:35:26Z</time>
      </trkpt>
      <trkpt lat="45.356618" lon="6.805142">
        <ele>2532.869</ele>
        <time>2018-07-20T12:35:32Z</time>
      </trkpt>
      <trkpt lat="45.356596" lon="6.805085">
        <ele>2531.504</ele>
        <time>2018-07-20T12:35:43Z</time>
      </trkpt>
      <trkpt lat="45.356590" lon="6.805013">
        <ele>2530.324</ele>
        <time>2018-07-20T12:35:48Z</time>
      </trkpt>
      <trkpt lat="45.356581" lon="6.804936">
        <ele>2528.808</ele>
        <time>2018-07-20T12:35:54Z</time>
      </trkpt>
      <trkpt lat="45.356563" lon="6.804873">
        <ele>2528.778</ele>
        <time>2018-07-20T12:35:58Z</time>
      </trkpt>
      <trkpt lat="45.356569" lon="6.804803">
        <ele>2529.443</ele>
        <time>2018-07-20T12:36:05Z</time>
      </trkpt>
      <trkpt lat="45.356577" lon="6.804737">
        <ele>2529.830</ele>
        <time>2018-07-20T12:36:12Z</time>
      </trkpt>
      <trkpt lat="45.356599" lon="6.804677">
        <ele>2528.945</ele>
        <time>2018-07-20T12:36:20Z</time>
      </trkpt>
      <trkpt lat="45.356616" lon="6.804614">
        <ele>2528.759</ele>
        <time>2018-07-20T12:36:28Z</time>
      </trkpt>
      <trkpt lat="45.356623" lon="6.804540">
        <ele>2528.292</ele>
        <time>2018-07-20T12:36:34Z</time>
      </trkpt>
      <trkpt lat="45.356650" lon="6.804489">
        <ele>2528.334</ele>
        <time>2018-07-20T12:36:40Z</time>
      </trkpt>
      <trkpt lat="45.356666" lon="6.804428">
        <ele>2528.098</ele>
        <time>2018-07-20T12:36:47Z</time>
      </trkpt>
      <trkpt lat="45.356688" lon="6.804368">
        <ele>2527.828</ele>
        <time>2018-07-20T12:36:53Z</time>
      </trkpt>
      <trkpt lat="45.356694" lon="6.804300">
        <ele>2525.789</ele>
        <time>2018-07-20T12:37:00Z</time>
      </trkpt>
      <trkpt lat="45.356696" lon="6.804221">
        <ele>2524.817</ele>
        <time>2018-07-20T12:37:06Z</time>
      </trkpt>
      <trkpt lat="45.356693" lon="6.804151">
        <ele>2523.508</ele>
        <time>2018-07-20T12:37:12Z</time>
      </trkpt>
      <trkpt lat="45.356693" lon="6.804087">
        <ele>2522.754</ele>
        <time>2018-07-20T12:37:18Z</time>
      </trkpt>
      <trkpt lat="45.356686" lon="6.804023">
        <ele>2520.619</ele>
        <time>2018-07-20T12:37:23Z</time>
      </trkpt>
      <trkpt lat="45.356682" lon="6.803954">
        <ele>2520.696</ele>
        <time>2018-07-20T12:37:29Z</time>
      </trkpt>
      <trkpt lat="45.356688" lon="6.803883">
        <ele>2520.621</ele>
        <time>2018-07-20T12:37:34Z</time>
      </trkpt>
      <trkpt lat="45.356696" lon="6.803817">
        <ele>2520.235</ele>
        <time>2018-07-20T12:37:39Z</time>
      </trkpt>
      <trkpt lat="45.356696" lon="6.803747">
        <ele>2520.468</ele>
        <time>2018-07-20T12:37:46Z</time>
      </trkpt>
      <trkpt lat="45.356705" lon="6.803680">
        <ele>2520.180</ele>
        <time>2018-07-20T12:37:51Z</time>
      </trkpt>
      <trkpt lat="45.356701" lon="6.803604">
        <ele>2519.934</ele>
        <time>2018-07-20T12:37:57Z</time>
      </trkpt>
      <trkpt lat="45.356694" lon="6.803537">
        <ele>2519.889</ele>
        <time>2018-07-20T12:38:03Z</time>
      </trkpt>
      <trkpt lat="45.356662" lon="6.803446">
        <ele>2520.506</ele>
        <time>2018-07-20T12:38:55Z</time>
      </trkpt>
      <trkpt lat="45.356663" lon="6.803371">
        <ele>2520.926</ele>
        <time>2018-07-20T12:39:05Z</time>
      </trkpt>
      <trkpt lat="45.356665" lon="6.803300">
        <ele>2519.208</ele>
        <time>2018-07-20T12:39:11Z</time>
      </trkpt>
      <trkpt lat="45.356697" lon="6.803249">
        <ele>2517.490</ele>
        <time>2018-07-20T12:39:27Z</time>
      </trkpt>
      <trkpt lat="45.356720" lon="6.803193">
        <ele>2516.365</ele>
        <time>2018-07-20T12:39:32Z</time>
      </trkpt>
      <trkpt lat="45.356761" lon="6.803145">
        <ele>2515.632</ele>
        <time>2018-07-20T12:39:37Z</time>
      </trkpt>
      <trkpt lat="45.356792" lon="6.803086">
        <ele>2515.297</ele>
        <time>2018-07-20T12:39:43Z</time>
      </trkpt>
      <trkpt lat="45.356815" lon="6.803028">
        <ele>2515.051</ele>
        <time>2018-07-20T12:39:50Z</time>
      </trkpt>
      <trkpt lat="45.356827" lon="6.802959">
        <ele>2514.594</ele>
        <time>2018-07-20T12:39:57Z</time>
      </trkpt>
      <trkpt lat="45.356807" lon="6.802894">
        <ele>2513.436</ele>
        <time>2018-07-20T12:40:08Z</time>
      </trkpt>
      <trkpt lat="45.356803" lon="6.802830">
        <ele>2513.160</ele>
        <time>2018-07-20T12:40:14Z</time>
      </trkpt>
      <trkpt lat="45.356787" lon="6.802741">
        <ele>2514.922</ele>
        <time>2018-07-20T12:40:27Z</time>
      </trkpt>
      <trkpt lat="45.356813" lon="6.802678">
        <ele>2515.662</ele>
        <time>2018-07-20T12:40:35Z</time>
      </trkpt>
      <trkpt lat="45.356832" lon="6.802604">
        <ele>2516.008</ele>
        <time>2018-07-20T12:40:41Z</time>
      </trkpt>
      <trkpt lat="45.356856" lon="6.802540">
        <ele>2515.908</ele>
        <time>2018-07-20T12:40:46Z</time>
      </trkpt>
      <trkpt lat="45.356874" lon="6.802466">
        <ele>2515.824</ele>
        <time>2018-07-20T12:40:51Z</time>
      </trkpt>
      <trkpt lat="45.356886" lon="6.802395">
        <ele>2516.159</ele>
        <time>2018-07-20T12:40:56Z</time>
      </trkpt>
      <trkpt lat="45.356906" lon="6.802327">
        <ele>2516.726</ele>
        <time>2018-07-20T12:41:01Z</time>
      </trkpt>
      <trkpt lat="45.356917" lon="6.802253">
        <ele>2517.181</ele>
        <time>2018-07-20T12:41:06Z</time>
      </trkpt>
      <trkpt lat="45.356920" lon="6.802176">
        <ele>2517.335</ele>
        <time>2018-07-20T12:41:11Z</time>
      </trkpt>
      <trkpt lat="45.356923" lon="6.802104">
        <ele>2517.068</ele>
        <time>2018-07-20T12:41:16Z</time>
      </trkpt>
      <trkpt lat="45.356913" lon="6.802026">
        <ele>2516.050</ele>
        <time>2018-07-20T12:41:21Z</time>
      </trkpt>
      <trkpt lat="45.356885" lon="6.801972">
        <ele>2515.054</ele>
        <time>2018-07-20T12:41:26Z</time>
      </trkpt>
      <trkpt lat="45.356855" lon="6.801891">
        <ele>2515.694</ele>
        <time>2018-07-20T12:41:37Z</time>
      </trkpt>
      <trkpt lat="45.356873" lon="6.801828">
        <ele>2515.657</ele>
        <time>2018-07-20T12:41:46Z</time>
      </trkpt>
      <trkpt lat="45.356891" lon="6.801767">
        <ele>2516.022</ele>
        <time>2018-07-20T12:41:51Z</time>
      </trkpt>
      <trkpt lat="45.356890" lon="6.801701">
        <ele>2515.808</ele>
        <time>2018-07-20T12:41:57Z</time>
      </trkpt>
      <trkpt lat="45.356893" lon="6.801630">
        <ele>2514.921</ele>
        <time>2018-07-20T12:42:02Z</time>
      </trkpt>
      <trkpt lat="45.356886" lon="6.801554">
        <ele>2514.036</ele>
        <time>2018-07-20T12:42:08Z</time>
      </trkpt>
      <trkpt lat="45.356861" lon="6.801495">
        <ele>2513.473</ele>
        <time>2018-07-20T12:42:13Z</time>
      </trkpt>
      <trkpt lat="45.356830" lon="6.801442">
        <ele>2512.718</ele>
        <time>2018-07-20T12:42:18Z</time>
      </trkpt>
      <trkpt lat="45.356813" lon="6.801377">
        <ele>2511.962</ele>
        <time>2018-07-20T12:42:23Z</time>
      </trkpt>
      <trkpt lat="45.356810" lon="6.801305">
        <ele>2510.295</ele>
        <time>2018-07-20T12:42:29Z</time>
      </trkpt>
      <trkpt lat="45.356790" lon="6.801243">
        <ele>2508.887</ele>
        <time>2018-07-20T12:42:35Z</time>
      </trkpt>
      <trkpt lat="45.356781" lon="6.801180">
        <ele>2507.991</ele>
        <time>2018-07-20T12:42:40Z</time>
      </trkpt>
      <trkpt lat="45.356786" lon="6.801115">
        <ele>2507.038</ele>
        <time>2018-07-20T12:42:46Z</time>
      </trkpt>
      <trkpt lat="45.356760" lon="6.801047">
        <ele>2506.570</ele>
        <time>2018-07-20T12:42:52Z</time>
      </trkpt>
      <trkpt lat="45.356730" lon="6.800991">
        <ele>2506.217</ele>
        <time>2018-07-20T12:42:57Z</time>
      </trkpt>
      <trkpt lat="45.356705" lon="6.800936">
        <ele>2505.608</ele>
        <time>2018-07-20T12:43:02Z</time>
      </trkpt>
      <trkpt lat="45.356686" lon="6.800877">
        <ele>2505.695</ele>
        <time>2018-07-20T12:43:07Z</time>
      </trkpt>
      <trkpt lat="45.356688" lon="6.800807">
        <ele>2504.430</ele>
        <time>2018-07-20T12:43:12Z</time>
      </trkpt>
      <trkpt lat="45.356703" lon="6.800741">
        <ele>2502.967</ele>
        <time>2018-07-20T12:43:17Z</time>
      </trkpt>
      <trkpt lat="45.356717" lon="6.800665">
        <ele>2501.222</ele>
        <time>2018-07-20T12:43:23Z</time>
      </trkpt>
      <trkpt lat="45.356743" lon="6.800605">
        <ele>2499.826</ele>
        <time>2018-07-20T12:43:28Z</time>
      </trkpt>
      <trkpt lat="45.356778" lon="6.800553">
        <ele>2499.399</ele>
        <time>2018-07-20T12:43:35Z</time>
      </trkpt>
      <trkpt lat="45.356792" lon="6.800486">
        <ele>2499.071</ele>
        <time>2018-07-20T12:43:42Z</time>
      </trkpt>
      <trkpt lat="45.356792" lon="6.800418">
        <ele>2498.415</ele>
        <time>2018-07-20T12:43:49Z</time>
      </trkpt>
      <trkpt lat="45.356766" lon="6.800359">
        <ele>2496.533</ele>
        <time>2018-07-20T12:43:57Z</time>
      </trkpt>
      <trkpt lat="45.356720" lon="6.800349">
        <ele>2494.923</ele>
        <time>2018-07-20T12:44:03Z</time>
      </trkpt>
      <trkpt lat="45.356669" lon="6.800358">
        <ele>2493.215</ele>
        <time>2018-07-20T12:44:09Z</time>
      </trkpt>
      <trkpt lat="45.356625" lon="6.800328">
        <ele>2491.408</ele>
        <time>2018-07-20T12:44:18Z</time>
      </trkpt>
      <trkpt lat="45.356629" lon="6.800263">
        <ele>2489.185</ele>
        <time>2018-07-20T12:44:33Z</time>
      </trkpt>
      <trkpt lat="45.356672" lon="6.800236">
        <ele>2487.780</ele>
        <time>2018-07-20T12:44:39Z</time>
      </trkpt>
      <trkpt lat="45.356709" lon="6.800195">
        <ele>2487.317</ele>
        <time>2018-07-20T12:44:45Z</time>
      </trkpt>
      <trkpt lat="45.356734" lon="6.800139">
        <ele>2486.212</ele>
        <time>2018-07-20T12:44:52Z</time>
      </trkpt>
      <trkpt lat="45.356697" lon="6.800098">
        <ele>2486.086</ele>
        <time>2018-07-20T12:45:07Z</time>
      </trkpt>
      <trkpt lat="45.356651" lon="6.800081">
        <ele>2485.599</ele>
        <time>2018-07-20T12:45:15Z</time>
      </trkpt>
      <trkpt lat="45.356609" lon="6.800057">
        <ele>2484.481</ele>
        <time>2018-07-20T12:45:23Z</time>
      </trkpt>
      <trkpt lat="45.356570" lon="6.800008">
        <ele>2483.315</ele>
        <time>2018-07-20T12:45:30Z</time>
      </trkpt>
      <trkpt lat="45.356539" lon="6.799951">
        <ele>2482.397</ele>
        <time>2018-07-20T12:45:37Z</time>
      </trkpt>
      <trkpt lat="45.356494" lon="6.799931">
        <ele>2481.323</ele>
        <time>2018-07-20T12:45:44Z</time>
      </trkpt>
      <trkpt lat="45.356448" lon="6.799938">
        <ele>2479.925</ele>
        <time>2018-07-20T12:45:51Z</time>
      </trkpt>
      <trkpt lat="45.356398" lon="6.799943">
        <ele>2478.708</ele>
        <time>2018-07-20T12:45:57Z</time>
      </trkpt>
      <trkpt lat="45.356350" lon="6.799943">
        <ele>2478.891</ele>
        <time>2018-07-20T12:46:20Z</time>
      </trkpt>
      <trkpt lat="45.356308" lon="6.799966">
        <ele>2477.296</ele>
        <time>2018-07-20T12:46:29Z</time>
      </trkpt>
      <trkpt lat="45.356260" lon="6.799987">
        <ele>2475.553</ele>
        <time>2018-07-20T12:46:35Z</time>
      </trkpt>
      <trkpt lat="45.356208" lon="6.800010">
        <ele>2474.958</ele>
        <time>2018-07-20T12:46:41Z</time>
      </trkpt>
      <trkpt lat="45.356162" lon="6.800026">
        <ele>2473.382</ele>
        <time>2018-07-20T12:46:46Z</time>
      </trkpt>
      <trkpt lat="45.356117" lon="6.800016">
        <ele>2473.965</ele>
        <time>2018-07-20T12:46:52Z</time>
      </trkpt>
      <trkpt lat="45.356069" lon="6.800012">
        <ele>2475.117</ele>
        <time>2018-07-20T12:46:59Z</time>
      </trkpt>
      <trkpt lat="45.356018" lon="6.800029">
        <ele>2475.891</ele>
        <time>2018-07-20T12:47:05Z</time>
      </trkpt>
      <trkpt lat="45.355970" lon="6.800027">
        <ele>2475.881</ele>
        <time>2018-07-20T12:47:11Z</time>
      </trkpt>
      <trkpt lat="45.355928" lon="6.799993">
        <ele>2476.261</ele>
        <time>2018-07-20T12:47:27Z</time>
      </trkpt>
      <trkpt lat="45.355885" lon="6.799960">
        <ele>2476.517</ele>
        <time>2018-07-20T12:47:34Z</time>
      </trkpt>
      <trkpt lat="45.355849" lon="6.799911">
        <ele>2476.708</ele>
        <time>2018-07-20T12:47:42Z</time>
      </trkpt>
      <trkpt lat="45.355807" lon="6.799936">
        <ele>2476.490</ele>
        <time>2018-07-20T12:47:48Z</time>
      </trkpt>
      <trkpt lat="45.355760" lon="6.799965">
        <ele>2475.855</ele>
        <time>2018-07-20T12:47:54Z</time>
      </trkpt>
      <trkpt lat="45.355712" lon="6.799986">
        <ele>2475.852</ele>
        <time>2018-07-20T12:48:00Z</time>
      </trkpt>
      <trkpt lat="45.355678" lon="6.800030">
        <ele>2476.267</ele>
        <time>2018-07-20T12:48:07Z</time>
      </trkpt>
      <trkpt lat="45.355648" lon="6.800089">
        <ele>2476.541</ele>
        <time>2018-07-20T12:48:14Z</time>
      </trkpt>
      <trkpt lat="45.355600" lon="6.800108">
        <ele>2476.734</ele>
        <time>2018-07-20T12:48:21Z</time>
      </trkpt>
      <trkpt lat="45.355550" lon="6.800093">
        <ele>2476.886</ele>
        <time>2018-07-20T12:48:27Z</time>
      </trkpt>
      <trkpt lat="45.355499" lon="6.800092">
        <ele>2477.370</ele>
        <time>2018-07-20T12:48:34Z</time>
      </trkpt>
      <trkpt lat="45.355451" lon="6.800105">
        <ele>2477.698</ele>
        <time>2018-07-20T12:48:39Z</time>
      </trkpt>
      <trkpt lat="45.355404" lon="6.800126">
        <ele>2477.415</ele>
        <time>2018-07-20T12:48:45Z</time>
      </trkpt>
      <trkpt lat="45.355357" lon="6.800135">
        <ele>2477.726</ele>
        <time>2018-07-20T12:48:51Z</time>
      </trkpt>
      <trkpt lat="45.355307" lon="6.800113">
        <ele>2478.708</ele>
        <time>2018-07-20T12:48:58Z</time>
      </trkpt>
      <trkpt lat="45.355282" lon="6.800058">
        <ele>2478.141</ele>
        <time>2018-07-20T12:49:04Z</time>
      </trkpt>
      <trkpt lat="45.355251" lon="6.800004">
        <ele>2478.986</ele>
        <time>2018-07-20T12:49:10Z</time>
      </trkpt>
      <trkpt lat="45.355237" lon="6.799935">
        <ele>2479.453</ele>
        <time>2018-07-20T12:49:16Z</time>
      </trkpt>
      <trkpt lat="45.355231" lon="6.799861">
        <ele>2479.798</ele>
        <time>2018-07-20T12:49:22Z</time>
      </trkpt>
      <trkpt lat="45.355207" lon="6.799794">
        <ele>2479.922</ele>
        <time>2018-07-20T12:49:27Z</time>
      </trkpt>
      <trkpt lat="45.355186" lon="6.799729">
        <ele>2479.275</ele>
        <time>2018-07-20T12:49:33Z</time>
      </trkpt>
      <trkpt lat="45.355159" lon="6.799671">
        <ele>2478.827</ele>
        <time>2018-07-20T12:49:39Z</time>
      </trkpt>
      <trkpt lat="45.355131" lon="6.799612">
        <ele>2478.661</ele>
        <time>2018-07-20T12:49:44Z</time>
      </trkpt>
      <trkpt lat="45.355101" lon="6.799554">
        <ele>2477.349</ele>
        <time>2018-07-20T12:49:50Z</time>
      </trkpt>
      <trkpt lat="45.355061" lon="6.799514">
        <ele>2475.702</ele>
        <time>2018-07-20T12:49:56Z</time>
      </trkpt>
      <trkpt lat="45.355013" lon="6.799478">
        <ele>2474.722</ele>
        <time>2018-07-20T12:50:01Z</time>
      </trkpt>
      <trkpt lat="45.354978" lon="6.799427">
        <ele>2474.108</ele>
        <time>2018-07-20T12:50:06Z</time>
      </trkpt>
      <trkpt lat="45.354943" lon="6.799370">
        <ele>2473.446</ele>
        <time>2018-07-20T12:50:12Z</time>
      </trkpt>
      <trkpt lat="45.354894" lon="6.799350">
        <ele>2473.411</ele>
        <time>2018-07-20T12:50:18Z</time>
      </trkpt>
      <trkpt lat="45.354848" lon="6.799345">
        <ele>2473.818</ele>
        <time>2018-07-20T12:50:23Z</time>
      </trkpt>
      <trkpt lat="45.354809" lon="6.799308">
        <ele>2473.633</ele>
        <time>2018-07-20T12:50:30Z</time>
      </trkpt>
      <trkpt lat="45.354786" lon="6.799250">
        <ele>2472.787</ele>
        <time>2018-07-20T12:51:07Z</time>
      </trkpt>
      <trkpt lat="45.354750" lon="6.799204">
        <ele>2471.850</ele>
        <time>2018-07-20T12:51:13Z</time>
      </trkpt>
      <trkpt lat="45.354713" lon="6.799164">
        <ele>2470.892</ele>
        <time>2018-07-20T12:51:18Z</time>
      </trkpt>
      <trkpt lat="45.354689" lon="6.799104">
        <ele>2470.616</ele>
        <time>2018-07-20T12:51:28Z</time>
      </trkpt>
      <trkpt lat="45.354681" lon="6.799038">
        <ele>2471.312</ele>
        <time>2018-07-20T12:51:35Z</time>
      </trkpt>
      <trkpt lat="45.354639" lon="6.799004">
        <ele>2472.532</ele>
        <time>2018-07-20T12:51:41Z</time>
      </trkpt>
      <trkpt lat="45.354602" lon="6.799042">
        <ele>2473.605</ele>
        <time>2018-07-20T12:51:55Z</time>
      </trkpt>
      <trkpt lat="45.354582" lon="6.799107">
        <ele>2473.908</ele>
        <time>2018-07-20T12:52:05Z</time>
      </trkpt>
      <trkpt lat="45.354572" lon="6.799180">
        <ele>2473.763</ele>
        <time>2018-07-20T12:52:11Z</time>
      </trkpt>
      <trkpt lat="45.354567" lon="6.799248">
        <ele>2472.838</ele>
        <time>2018-07-20T12:52:17Z</time>
      </trkpt>
      <trkpt lat="45.354543" lon="6.799313">
        <ele>2472.285</ele>
        <time>2018-07-20T12:52:23Z</time>
      </trkpt>
      <trkpt lat="45.354501" lon="6.799358">
        <ele>2471.910</ele>
        <time>2018-07-20T12:52:29Z</time>
      </trkpt>
      <trkpt lat="45.354457" lon="6.799377">
        <ele>2472.144</ele>
        <time>2018-07-20T12:52:34Z</time>
      </trkpt>
      <trkpt lat="45.354409" lon="6.799402">
        <ele>2472.287</ele>
        <time>2018-07-20T12:52:39Z</time>
      </trkpt>
      <trkpt lat="45.354366" lon="6.799438">
        <ele>2472.779</ele>
        <time>2018-07-20T12:52:45Z</time>
      </trkpt>
      <trkpt lat="45.354323" lon="6.799476">
        <ele>2473.493</ele>
        <time>2018-07-20T12:52:52Z</time>
      </trkpt>
      <trkpt lat="45.354280" lon="6.799513">
        <ele>2474.262</ele>
        <time>2018-07-20T12:52:59Z</time>
      </trkpt>
      <trkpt lat="45.354237" lon="6.799532">
        <ele>2474.783</ele>
        <time>2018-07-20T12:53:05Z</time>
      </trkpt>
      <trkpt lat="45.354188" lon="6.799541">
        <ele>2475.411</ele>
        <time>2018-07-20T12:53:11Z</time>
      </trkpt>
      <trkpt lat="45.354151" lon="6.799588">
        <ele>2475.408</ele>
        <time>2018-07-20T12:53:17Z</time>
      </trkpt>
      <trkpt lat="45.354124" lon="6.799643">
        <ele>2475.838</ele>
        <time>2018-07-20T12:53:23Z</time>
      </trkpt>
      <trkpt lat="45.354098" lon="6.799697">
        <ele>2475.653</ele>
        <time>2018-07-20T12:53:32Z</time>
      </trkpt>
      <trkpt lat="45.354068" lon="6.799746">
        <ele>2475.940</ele>
        <time>2018-07-20T12:53:40Z</time>
      </trkpt>
      <trkpt lat="45.354032" lon="6.799785">
        <ele>2476.185</ele>
        <time>2018-07-20T12:53:46Z</time>
      </trkpt>
      <trkpt lat="45.353978" lon="6.799799">
        <ele>2477.099</ele>
        <time>2018-07-20T12:53:52Z</time>
      </trkpt>
      <trkpt lat="45.353928" lon="6.799795">
        <ele>2477.182</ele>
        <time>2018-07-20T12:53:58Z</time>
      </trkpt>
      <trkpt lat="45.353880" lon="6.799790">
        <ele>2477.254</ele>
        <time>2018-07-20T12:54:04Z</time>
      </trkpt>
      <trkpt lat="45.353832" lon="6.799791">
        <ele>2477.328</ele>
        <time>2018-07-20T12:54:10Z</time>
      </trkpt>
      <trkpt lat="45.353778" lon="6.799791">
        <ele>2476.564</ele>
        <time>2018-07-20T12:54:16Z</time>
      </trkpt>
      <trkpt lat="45.353729" lon="6.799797">
        <ele>2476.406</ele>
        <time>2018-07-20T12:54:21Z</time>
      </trkpt>
      <trkpt lat="45.353680" lon="6.799805">
        <ele>2476.416</ele>
        <time>2018-07-20T12:54:27Z</time>
      </trkpt>
      <trkpt lat="45.353634" lon="6.799813">
        <ele>2476.408</ele>
        <time>2018-07-20T12:54:33Z</time>
      </trkpt>
      <trkpt lat="45.353583" lon="6.799825">
        <ele>2477.238</ele>
        <time>2018-07-20T12:54:40Z</time>
      </trkpt>
      <trkpt lat="45.353534" lon="6.799838">
        <ele>2477.793</ele>
        <time>2018-07-20T12:54:46Z</time>
      </trkpt>
      <trkpt lat="45.353479" lon="6.799841">
        <ele>2478.440</ele>
        <time>2018-07-20T12:54:52Z</time>
      </trkpt>
      <trkpt lat="45.353433" lon="6.799833">
        <ele>2478.825</ele>
        <time>2018-07-20T12:54:57Z</time>
      </trkpt>
      <trkpt lat="45.353387" lon="6.799824">
        <ele>2479.489</ele>
        <time>2018-07-20T12:55:02Z</time>
      </trkpt>
      <trkpt lat="45.353341" lon="6.799801">
        <ele>2479.092</ele>
        <time>2018-07-20T12:55:08Z</time>
      </trkpt>
      <trkpt lat="45.353296" lon="6.799759">
        <ele>2479.244</ele>
        <time>2018-07-20T12:55:14Z</time>
      </trkpt>
      <trkpt lat="45.353255" lon="6.799729">
        <ele>2478.578</ele>
        <time>2018-07-20T12:55:19Z</time>
      </trkpt>
      <trkpt lat="45.353208" lon="6.799701">
        <ele>2478.957</ele>
        <time>2018-07-20T12:55:25Z</time>
      </trkpt>
      <trkpt lat="45.353170" lon="6.799660">
        <ele>2479.500</ele>
        <time>2018-07-20T12:55:32Z</time>
      </trkpt>
      <trkpt lat="45.353135" lon="6.799620">
        <ele>2479.920</ele>
        <time>2018-07-20T12:55:38Z</time>
      </trkpt>
      <trkpt lat="45.353089" lon="6.799584">
        <ele>2480.108</ele>
        <time>2018-07-20T12:55:44Z</time>
      </trkpt>
      <trkpt lat="45.353049" lon="6.799551">
        <ele>2479.467</ele>
        <time>2018-07-20T12:55:49Z</time>
      </trkpt>
      <trkpt lat="45.353009" lon="6.799504">
        <ele>2479.082</ele>
        <time>2018-07-20T12:55:55Z</time>
      </trkpt>
      <trkpt lat="45.352978" lon="6.799453">
        <ele>2479.279</ele>
        <time>2018-07-20T12:56:00Z</time>
      </trkpt>
      <trkpt lat="45.352947" lon="6.799396">
        <ele>2479.794</ele>
        <time>2018-07-20T12:56:05Z</time>
      </trkpt>
      <trkpt lat="45.352905" lon="6.799352">
        <ele>2480.038</ele>
        <time>2018-07-20T12:56:10Z</time>
      </trkpt>
      <trkpt lat="45.352864" lon="6.799314">
        <ele>2479.821</ele>
        <time>2018-07-20T12:56:15Z</time>
      </trkpt>
      <trkpt lat="45.352829" lon="6.799271">
        <ele>2479.363</ele>
        <time>2018-07-20T12:56:20Z</time>
      </trkpt>
      <trkpt lat="45.352799" lon="6.799217">
        <ele>2479.427</ele>
        <time>2018-07-20T12:56:25Z</time>
      </trkpt>
      <trkpt lat="45.352766" lon="6.799160">
        <ele>2479.424</ele>
        <time>2018-07-20T12:56:30Z</time>
      </trkpt>
      <trkpt lat="45.352735" lon="6.799105">
        <ele>2479.404</ele>
        <time>2018-07-20T12:56:35Z</time>
      </trkpt>
      <trkpt lat="45.352705" lon="6.799045">
        <ele>2479.814</ele>
        <time>2018-07-20T12:56:41Z</time>
      </trkpt>
      <trkpt lat="45.352675" lon="6.798984">
        <ele>2479.308</ele>
        <time>2018-07-20T12:56:47Z</time>
      </trkpt>
      <trkpt lat="45.352647" lon="6.798930">
        <ele>2479.054</ele>
        <time>2018-07-20T12:56:52Z</time>
      </trkpt>
      <trkpt lat="45.352623" lon="6.798871">
        <ele>2478.899</ele>
        <time>2018-07-20T12:56:57Z</time>
      </trkpt>
      <trkpt lat="45.352596" lon="6.798809">
        <ele>2479.946</ele>
        <time>2018-07-20T12:57:03Z</time>
      </trkpt>
      <trkpt lat="45.352565" lon="6.798757">
        <ele>2480.981</ele>
        <time>2018-07-20T12:57:09Z</time>
      </trkpt>
      <trkpt lat="45.352536" lon="6.798704">
        <ele>2482.335</ele>
        <time>2018-07-20T12:57:14Z</time>
      </trkpt>
      <trkpt lat="45.352510" lon="6.798650">
        <ele>2483.278</ele>
        <time>2018-07-20T12:57:19Z</time>
      </trkpt>
      <trkpt lat="45.352486" lon="6.798585">
        <ele>2484.130</ele>
        <time>2018-07-20T12:57:25Z</time>
      </trkpt>
      <trkpt lat="45.352462" lon="6.798528">
        <ele>2484.244</ele>
        <time>2018-07-20T12:57:30Z</time>
      </trkpt>
      <trkpt lat="45.352447" lon="6.798455">
        <ele>2483.938</ele>
        <time>2018-07-20T12:57:36Z</time>
      </trkpt>
      <trkpt lat="45.352425" lon="6.798397">
        <ele>2483.370</ele>
        <time>2018-07-20T12:57:41Z</time>
      </trkpt>
      <trkpt lat="45.352408" lon="6.798337">
        <ele>2482.917</ele>
        <time>2018-07-20T12:57:46Z</time>
      </trkpt>
      <trkpt lat="45.352383" lon="6.798268">
        <ele>2482.708</ele>
        <time>2018-07-20T12:57:53Z</time>
      </trkpt>
      <trkpt lat="45.352360" lon="6.798206">
        <ele>2482.645</ele>
        <time>2018-07-20T12:57:58Z</time>
      </trkpt>
      <trkpt lat="45.352341" lon="6.798144">
        <ele>2482.510</ele>
        <time>2018-07-20T12:58:03Z</time>
      </trkpt>
      <trkpt lat="45.352324" lon="6.798081">
        <ele>2482.517</ele>
        <time>2018-07-20T12:58:08Z</time>
      </trkpt>
      <trkpt lat="45.352299" lon="6.798023">
        <ele>2482.172</ele>
        <time>2018-07-20T12:58:13Z</time>
      </trkpt>
      <trkpt lat="45.352276" lon="6.797965">
        <ele>2482.676</ele>
        <time>2018-07-20T12:58:20Z</time>
      </trkpt>
      <trkpt lat="45.352261" lon="6.797904">
        <ele>2482.519</ele>
        <time>2018-07-20T12:58:26Z</time>
      </trkpt>
      <trkpt lat="45.352259" lon="6.797837">
        <ele>2482.571</ele>
        <time>2018-07-20T12:58:32Z</time>
      </trkpt>
      <trkpt lat="45.352245" lon="6.797772">
        <ele>2482.515</ele>
        <time>2018-07-20T12:58:39Z</time>
      </trkpt>
      <trkpt lat="45.352223" lon="6.797707">
        <ele>2482.971</ele>
        <time>2018-07-20T12:58:45Z</time>
      </trkpt>
      <trkpt lat="45.352206" lon="6.797637">
        <ele>2483.141</ele>
        <time>2018-07-20T12:58:51Z</time>
      </trkpt>
      <trkpt lat="45.352189" lon="6.797574">
        <ele>2483.615</ele>
        <time>2018-07-20T12:58:56Z</time>
      </trkpt>
      <trkpt lat="45.352172" lon="6.797505">
        <ele>2484.308</ele>
        <time>2018-07-20T12:59:01Z</time>
      </trkpt>
      <trkpt lat="45.352160" lon="6.797439">
        <ele>2485.579</ele>
        <time>2018-07-20T12:59:07Z</time>
      </trkpt>
      <trkpt lat="45.352142" lon="6.797374">
        <ele>2487.044</ele>
        <time>2018-07-20T12:59:14Z</time>
      </trkpt>
      <trkpt lat="45.352117" lon="6.797306">
        <ele>2487.581</ele>
        <time>2018-07-20T12:59:20Z</time>
      </trkpt>
      <trkpt lat="45.352094" lon="6.797245">
        <ele>2487.826</ele>
        <time>2018-07-20T12:59:25Z</time>
      </trkpt>
      <trkpt lat="45.352073" lon="6.797183">
        <ele>2488.480</ele>
        <time>2018-07-20T12:59:30Z</time>
      </trkpt>
      <trkpt lat="45.352052" lon="6.797123">
        <ele>2489.223</ele>
        <time>2018-07-20T12:59:35Z</time>
      </trkpt>
      <trkpt lat="45.352042" lon="6.797058">
        <ele>2489.365</ele>
        <time>2018-07-20T12:59:40Z</time>
      </trkpt>
      <trkpt lat="45.352042" lon="6.796983">
        <ele>2488.579</ele>
        <time>2018-07-20T12:59:46Z</time>
      </trkpt>
      <trkpt lat="45.352045" lon="6.796918">
        <ele>2488.084</ele>
        <time>2018-07-20T12:59:51Z</time>
      </trkpt>
      <trkpt lat="45.352029" lon="6.796854">
        <ele>2487.707</ele>
        <time>2018-07-20T12:59:56Z</time>
      </trkpt>
      <trkpt lat="45.352011" lon="6.796781">
        <ele>2487.517</ele>
        <time>2018-07-20T13:00:01Z</time>
      </trkpt>
      <trkpt lat="45.352009" lon="6.796716">
        <ele>2487.008</ele>
        <time>2018-07-20T13:00:07Z</time>
      </trkpt>
      <trkpt lat="45.351982" lon="6.796659">
        <ele>2487.560</ele>
        <time>2018-07-20T13:00:12Z</time>
      </trkpt>
      <trkpt lat="45.351953" lon="6.796595">
        <ele>2487.855</ele>
        <time>2018-07-20T13:00:17Z</time>
      </trkpt>
      <trkpt lat="45.351922" lon="6.796534">
        <ele>2488.872</ele>
        <time>2018-07-20T13:00:22Z</time>
      </trkpt>
      <trkpt lat="45.351908" lon="6.796461">
        <ele>2489.057</ele>
        <time>2018-07-20T13:00:28Z</time>
      </trkpt>
      <trkpt lat="45.351890" lon="6.796397">
        <ele>2489.161</ele>
        <time>2018-07-20T13:00:33Z</time>
      </trkpt>
      <trkpt lat="45.351875" lon="6.796329">
        <ele>2489.614</ele>
        <time>2018-07-20T13:00:39Z</time>
      </trkpt>
      <trkpt lat="45.351867" lon="6.796263">
        <ele>2489.996</ele>
        <time>2018-07-20T13:00:44Z</time>
      </trkpt>
      <trkpt lat="45.351854" lon="6.796192">
        <ele>2490.570</ele>
        <time>2018-07-20T13:00:49Z</time>
      </trkpt>
      <trkpt lat="45.351843" lon="6.796127">
        <ele>2490.895</ele>
        <time>2018-07-20T13:00:54Z</time>
      </trkpt>
      <trkpt lat="45.351832" lon="6.796058">
        <ele>2491.049</ele>
        <time>2018-07-20T13:01:00Z</time>
      </trkpt>
      <trkpt lat="45.351812" lon="6.795994">
        <ele>2490.723</ele>
        <time>2018-07-20T13:01:06Z</time>
      </trkpt>
      <trkpt lat="45.351786" lon="6.795929">
        <ele>2491.708</ele>
        <time>2018-07-20T13:01:12Z</time>
      </trkpt>
      <trkpt lat="45.351761" lon="6.795875">
        <ele>2492.721</ele>
        <time>2018-07-20T13:01:17Z</time>
      </trkpt>
      <trkpt lat="45.351729" lon="6.795819">
        <ele>2494.156</ele>
        <time>2018-07-20T13:01:23Z</time>
      </trkpt>
      <trkpt lat="45.351701" lon="6.795758">
        <ele>2494.913</ele>
        <time>2018-07-20T13:01:29Z</time>
      </trkpt>
      <trkpt lat="45.351677" lon="6.795702">
        <ele>2496.288</ele>
        <time>2018-07-20T13:01:34Z</time>
      </trkpt>
      <trkpt lat="45.351652" lon="6.795647">
        <ele>2497.022</ele>
        <time>2018-07-20T13:01:39Z</time>
      </trkpt>
      <trkpt lat="45.351618" lon="6.795597">
        <ele>2497.595</ele>
        <time>2018-07-20T13:01:45Z</time>
      </trkpt>
      <trkpt lat="45.351584" lon="6.795543">
        <ele>2498.247</ele>
        <time>2018-07-20T13:01:51Z</time>
      </trkpt>
      <trkpt lat="45.351540" lon="6.795499">
        <ele>2499.061</ele>
        <time>2018-07-20T13:01:57Z</time>
      </trkpt>
      <trkpt lat="45.351497" lon="6.795460">
        <ele>2500.735</ele>
        <time>2018-07-20T13:02:04Z</time>
      </trkpt>
      <trkpt lat="45.351457" lon="6.795413">
        <ele>2501.386</ele>
        <time>2018-07-20T13:02:10Z</time>
      </trkpt>
      <trkpt lat="45.351421" lon="6.795358">
        <ele>2501.714</ele>
        <time>2018-07-20T13:02:16Z</time>
      </trkpt>
      <trkpt lat="45.351395" lon="6.795302">
        <ele>2501.108</ele>
        <time>2018-07-20T13:02:23Z</time>
      </trkpt>
      <trkpt lat="45.351386" lon="6.795239">
        <ele>2500.875</ele>
        <time>2018-07-20T13:02:30Z</time>
      </trkpt>
      <trkpt lat="45.351383" lon="6.795170">
        <ele>2499.810</ele>
        <time>2018-07-20T13:02:38Z</time>
      </trkpt>
      <trkpt lat="45.351361" lon="6.795109">
        <ele>2499.297</ele>
        <time>2018-07-20T13:02:45Z</time>
      </trkpt>
      <trkpt lat="45.351323" lon="6.795071">
        <ele>2500.462</ele>
        <time>2018-07-20T13:02:52Z</time>
      </trkpt>
      <trkpt lat="45.351294" lon="6.795022">
        <ele>2500.346</ele>
        <time>2018-07-20T13:04:15Z</time>
      </trkpt>
      <trkpt lat="45.351269" lon="6.794960">
        <ele>2499.949</ele>
        <time>2018-07-20T13:04:24Z</time>
      </trkpt>
      <trkpt lat="45.351224" lon="6.794922">
        <ele>2500.441</ele>
        <time>2018-07-20T13:04:56Z</time>
      </trkpt>
      <trkpt lat="45.351186" lon="6.794960">
        <ele>2501.195</ele>
        <time>2018-07-20T13:05:04Z</time>
      </trkpt>
      <trkpt lat="45.351162" lon="6.795021">
        <ele>2502.343</ele>
        <time>2018-07-20T13:05:12Z</time>
      </trkpt>
      <trkpt lat="45.351119" lon="6.795045">
        <ele>2504.264</ele>
        <time>2018-07-20T13:05:35Z</time>
      </trkpt>
      <trkpt lat="45.351070" lon="6.795059">
        <ele>2505.410</ele>
        <time>2018-07-20T13:05:42Z</time>
      </trkpt>
      <trkpt lat="45.351022" lon="6.795095">
        <ele>2506.108</ele>
        <time>2018-07-20T13:05:48Z</time>
      </trkpt>
      <trkpt lat="45.350988" lon="6.795137">
        <ele>2506.916</ele>
        <time>2018-07-20T13:05:53Z</time>
      </trkpt>
      <trkpt lat="45.350937" lon="6.795159">
        <ele>2507.071</ele>
        <time>2018-07-20T13:05:59Z</time>
      </trkpt>
      <trkpt lat="45.350887" lon="6.795173">
        <ele>2507.168</ele>
        <time>2018-07-20T13:06:05Z</time>
      </trkpt>
      <trkpt lat="45.350835" lon="6.795182">
        <ele>2507.513</ele>
        <time>2018-07-20T13:06:11Z</time>
      </trkpt>
      <trkpt lat="45.350794" lon="6.795218">
        <ele>2508.227</ele>
        <time>2018-07-20T13:06:17Z</time>
      </trkpt>
      <trkpt lat="45.350745" lon="6.795235">
        <ele>2507.860</ele>
        <time>2018-07-20T13:06:25Z</time>
      </trkpt>
      <trkpt lat="45.350712" lon="6.795284">
        <ele>2508.062</ele>
        <time>2018-07-20T13:06:34Z</time>
      </trkpt>
      <trkpt lat="45.350687" lon="6.795339">
        <ele>2508.146</ele>
        <time>2018-07-20T13:06:42Z</time>
      </trkpt>
      <trkpt lat="45.350659" lon="6.795392">
        <ele>2508.291</ele>
        <time>2018-07-20T13:06:51Z</time>
      </trkpt>
      <trkpt lat="45.350632" lon="6.795443">
        <ele>2509.481</ele>
        <time>2018-07-20T13:07:00Z</time>
      </trkpt>
      <trkpt lat="45.350599" lon="6.795492">
        <ele>2510.919</ele>
        <time>2018-07-20T13:07:10Z</time>
      </trkpt>
      <trkpt lat="45.350573" lon="6.795547">
        <ele>2512.608</ele>
        <time>2018-07-20T13:07:17Z</time>
      </trkpt>
      <trkpt lat="45.350543" lon="6.795604">
        <ele>2514.011</ele>
        <time>2018-07-20T13:07:28Z</time>
      </trkpt>
      <trkpt lat="45.350504" lon="6.795635">
        <ele>2516.136</ele>
        <time>2018-07-20T13:07:37Z</time>
      </trkpt>
      <trkpt lat="45.350464" lon="6.795671">
        <ele>2517.363</ele>
        <time>2018-07-20T13:07:50Z</time>
      </trkpt>
      <trkpt lat="45.350425" lon="6.795712">
        <ele>2518.828</ele>
        <time>2018-07-20T13:07:59Z</time>
      </trkpt>
      <trkpt lat="45.350379" lon="6.795706">
        <ele>2519.352</ele>
        <time>2018-07-20T13:08:15Z</time>
      </trkpt>
      <trkpt lat="45.350333" lon="6.795733">
        <ele>2519.695</ele>
        <time>2018-07-20T13:08:23Z</time>
      </trkpt>
      <trkpt lat="45.350290" lon="6.795715">
        <ele>2520.697</ele>
        <time>2018-07-20T13:08:32Z</time>
      </trkpt>
      <trkpt lat="45.350261" lon="6.795665">
        <ele>2522.411</ele>
        <time>2018-07-20T13:08:45Z</time>
      </trkpt>
      <trkpt lat="45.350280" lon="6.795605">
        <ele>2524.395</ele>
        <time>2018-07-20T13:08:56Z</time>
      </trkpt>
      <trkpt lat="45.350302" lon="6.795537">
        <ele>2525.849</ele>
        <time>2018-07-20T13:09:04Z</time>
      </trkpt>
      <trkpt lat="45.350324" lon="6.795472">
        <ele>2526.323</ele>
        <time>2018-07-20T13:09:13Z</time>
      </trkpt>
      <trkpt lat="45.350329" lon="6.795407">
        <ele>2527.008</ele>
        <time>2018-07-20T13:09:21Z</time>
      </trkpt>
      <trkpt lat="45.350324" lon="6.795336">
        <ele>2527.861</ele>
        <time>2018-07-20T13:09:30Z</time>
      </trkpt>
      <trkpt lat="45.350332" lon="6.795270">
        <ele>2528.316</ele>
        <time>2018-07-20T13:09:37Z</time>
      </trkpt>
      <trkpt lat="45.350336" lon="6.795204">
        <ele>2529.043</ele>
        <time>2018-07-20T13:09:45Z</time>
      </trkpt>
      <trkpt lat="45.350292" lon="6.795188">
        <ele>2529.078</ele>
        <time>2018-07-20T13:09:58Z</time>
      </trkpt>
      <trkpt lat="45.350248" lon="6.795199">
        <ele>2529.092</ele>
        <time>2018-07-20T13:10:05Z</time>
      </trkpt>
      <trkpt lat="45.350204" lon="6.795218">
        <ele>2528.645</ele>
        <time>2018-07-20T13:10:12Z</time>
      </trkpt>
      <trkpt lat="45.350156" lon="6.795243">
        <ele>2528.887</ele>
        <time>2018-07-20T13:10:20Z</time>
      </trkpt>
      <trkpt lat="45.350110" lon="6.795247">
        <ele>2529.721</ele>
        <time>2018-07-20T13:10:26Z</time>
      </trkpt>
      <trkpt lat="45.350061" lon="6.795253">
        <ele>2530.225</ele>
        <time>2018-07-20T13:10:32Z</time>
      </trkpt>
      <trkpt lat="45.350018" lon="6.795216">
        <ele>2530.126</ele>
        <time>2018-07-20T13:10:40Z</time>
      </trkpt>
      <trkpt lat="45.350034" lon="6.795153">
        <ele>2530.508</ele>
        <time>2018-07-20T13:10:47Z</time>
      </trkpt>
      <trkpt lat="45.350066" lon="6.795100">
        <ele>2530.308</ele>
        <time>2018-07-20T13:10:53Z</time>
      </trkpt>
      <trkpt lat="45.350096" lon="6.795051">
        <ele>2530.294</ele>
        <time>2018-07-20T13:11:00Z</time>
      </trkpt>
      <trkpt lat="45.350118" lon="6.794991">
        <ele>2530.529</ele>
        <time>2018-07-20T13:11:07Z</time>
      </trkpt>
      <trkpt lat="45.350128" lon="6.794922">
        <ele>2530.796</ele>
        <time>2018-07-20T13:11:14Z</time>
      </trkpt>
      <trkpt lat="45.350160" lon="6.794868">
        <ele>2531.291</ele>
        <time>2018-07-20T13:11:25Z</time>
      </trkpt>
      <trkpt lat="45.350181" lon="6.794803">
        <ele>2531.935</ele>
        <time>2018-07-20T13:11:35Z</time>
      </trkpt>
      <trkpt lat="45.350202" lon="6.794742">
        <ele>2532.398</ele>
        <time>2018-07-20T13:11:42Z</time>
      </trkpt>
      <trkpt lat="45.350224" lon="6.794678">
        <ele>2532.610</ele>
        <time>2018-07-20T13:11:49Z</time>
      </trkpt>
      <trkpt lat="45.350243" lon="6.794613">
        <ele>2533.264</ele>
        <time>2018-07-20T13:11:59Z</time>
      </trkpt>
      <trkpt lat="45.350195" lon="6.794585">
        <ele>2534.337</ele>
        <time>2018-07-20T13:12:09Z</time>
      </trkpt>
      <trkpt lat="45.350147" lon="6.794578">
        <ele>2535.849</ele>
        <time>2018-07-20T13:12:15Z</time>
      </trkpt>
      <trkpt lat="45.350094" lon="6.794586">
        <ele>2536.313</ele>
        <time>2018-07-20T13:12:22Z</time>
      </trkpt>
      <trkpt lat="45.350049" lon="6.794590">
        <ele>2536.208</ele>
        <time>2018-07-20T13:12:27Z</time>
      </trkpt>
      <trkpt lat="45.350004" lon="6.794607">
        <ele>2536.915</ele>
        <time>2018-07-20T13:12:32Z</time>
      </trkpt>
      <trkpt lat="45.349955" lon="6.794622">
        <ele>2537.760</ele>
        <time>2018-07-20T13:12:37Z</time>
      </trkpt>
      <trkpt lat="45.349913" lon="6.794646">
        <ele>2538.247</ele>
        <time>2018-07-20T13:12:42Z</time>
      </trkpt>
      <trkpt lat="45.349868" lon="6.794631">
        <ele>2538.162</ele>
        <time>2018-07-20T13:12:48Z</time>
      </trkpt>
      <trkpt lat="45.349860" lon="6.794560">
        <ele>2538.046</ele>
        <time>2018-07-20T13:12:55Z</time>
      </trkpt>
      <trkpt lat="45.349865" lon="6.794495">
        <ele>2538.879</ele>
        <time>2018-07-20T13:13:01Z</time>
      </trkpt>
      <trkpt lat="45.349853" lon="6.794423">
        <ele>2538.991</ele>
        <time>2018-07-20T13:13:07Z</time>
      </trkpt>
      <trkpt lat="45.349815" lon="6.794379">
        <ele>2539.785</ele>
        <time>2018-07-20T13:13:13Z</time>
      </trkpt>
      <trkpt lat="45.349768" lon="6.794371">
        <ele>2540.276</ele>
        <time>2018-07-20T13:13:18Z</time>
      </trkpt>
      <trkpt lat="45.349718" lon="6.794366">
        <ele>2540.990</ele>
        <time>2018-07-20T13:13:24Z</time>
      </trkpt>
      <trkpt lat="45.349673" lon="6.794370">
        <ele>2541.719</ele>
        <time>2018-07-20T13:13:32Z</time>
      </trkpt>
      <trkpt lat="45.349628" lon="6.794375">
        <ele>2543.008</ele>
        <time>2018-07-20T13:13:39Z</time>
      </trkpt>
      <trkpt lat="45.349582" lon="6.794385">
        <ele>2544.299</ele>
        <time>2018-07-20T13:13:45Z</time>
      </trkpt>
      <trkpt lat="45.349538" lon="6.794404">
        <ele>2544.514</ele>
        <time>2018-07-20T13:13:51Z</time>
      </trkpt>
      <trkpt lat="45.349492" lon="6.794414">
        <ele>2544.771</ele>
        <time>2018-07-20T13:13:57Z</time>
      </trkpt>
      <trkpt lat="45.349445" lon="6.794444">
        <ele>2546.096</ele>
        <time>2018-07-20T13:14:04Z</time>
      </trkpt>
      <trkpt lat="45.349414" lon="6.794491">
        <ele>2546.870</ele>
        <time>2018-07-20T13:14:10Z</time>
      </trkpt>
      <trkpt lat="45.349380" lon="6.794544">
        <ele>2547.793</ele>
        <time>2018-07-20T13:14:16Z</time>
      </trkpt>
      <trkpt lat="45.349335" lon="6.794573">
        <ele>2548.225</ele>
        <time>2018-07-20T13:14:24Z</time>
      </trkpt>
      <trkpt lat="45.349288" lon="6.794570">
        <ele>2548.589</ele>
        <time>2018-07-20T13:14:31Z</time>
      </trkpt>
      <trkpt lat="45.349239" lon="6.794553">
        <ele>2548.771</ele>
        <time>2018-07-20T13:14:39Z</time>
      </trkpt>
      <trkpt lat="45.349198" lon="6.794503">
        <ele>2548.041</ele>
        <time>2018-07-20T13:14:52Z</time>
      </trkpt>
      <trkpt lat="45.349154" lon="6.794468">
        <ele>2548.015</ele>
        <time>2018-07-20T13:15:03Z</time>
      </trkpt>
      <trkpt lat="45.349120" lon="6.794425">
        <ele>2548.808</ele>
        <time>2018-07-20T13:15:13Z</time>
      </trkpt>
      <trkpt lat="45.349090" lon="6.794377">
        <ele>2549.339</ele>
        <time>2018-07-20T13:15:22Z</time>
      </trkpt>
      <trkpt lat="45.349060" lon="6.794323">
        <ele>2550.424</ele>
        <time>2018-07-20T13:15:29Z</time>
      </trkpt>
      <trkpt lat="45.349025" lon="6.794276">
        <ele>2551.181</ele>
        <time>2018-07-20T13:15:35Z</time>
      </trkpt>
      <trkpt lat="45.348982" lon="6.794249">
        <ele>2551.526</ele>
        <time>2018-07-20T13:15:42Z</time>
      </trkpt>
      <trkpt lat="45.348935" lon="6.794242">
        <ele>2551.730</ele>
        <time>2018-07-20T13:15:50Z</time>
      </trkpt>
      <trkpt lat="45.348887" lon="6.794241">
        <ele>2552.263</ele>
        <time>2018-07-20T13:15:58Z</time>
      </trkpt>
      <trkpt lat="45.348837" lon="6.794244">
        <ele>2552.135</ele>
        <time>2018-07-20T13:16:06Z</time>
      </trkpt>
      <trkpt lat="45.348788" lon="6.794261">
        <ele>2552.169</ele>
        <time>2018-07-20T13:16:13Z</time>
      </trkpt>
      <trkpt lat="45.348739" lon="6.794269">
        <ele>2552.122</ele>
        <time>2018-07-20T13:16:20Z</time>
      </trkpt>
      <trkpt lat="45.348687" lon="6.794276">
        <ele>2552.162</ele>
        <time>2018-07-20T13:16:27Z</time>
      </trkpt>
      <trkpt lat="45.348638" lon="6.794285">
        <ele>2552.508</ele>
        <time>2018-07-20T13:16:33Z</time>
      </trkpt>
      <trkpt lat="45.348590" lon="6.794304">
        <ele>2553.108</ele>
        <time>2018-07-20T13:16:40Z</time>
      </trkpt>
      <trkpt lat="45.348545" lon="6.794305">
        <ele>2553.934</ele>
        <time>2018-07-20T13:16:46Z</time>
      </trkpt>
      <trkpt lat="45.348502" lon="6.794275">
        <ele>2554.469</ele>
        <time>2018-07-20T13:16:53Z</time>
      </trkpt>
      <trkpt lat="45.348463" lon="6.794242">
        <ele>2555.176</ele>
        <time>2018-07-20T13:16:59Z</time>
      </trkpt>
      <trkpt lat="45.348418" lon="6.794207">
        <ele>2555.591</ele>
        <time>2018-07-20T13:17:05Z</time>
      </trkpt>
      <trkpt lat="45.348376" lon="6.794166">
        <ele>2555.735</ele>
        <time>2018-07-20T13:17:11Z</time>
      </trkpt>
      <trkpt lat="45.348337" lon="6.794115">
        <ele>2556.668</ele>
        <time>2018-07-20T13:17:17Z</time>
      </trkpt>
      <trkpt lat="45.348298" lon="6.794069">
        <ele>2557.280</ele>
        <time>2018-07-20T13:17:23Z</time>
      </trkpt>
      <trkpt lat="45.348259" lon="6.794036">
        <ele>2557.924</ele>
        <time>2018-07-20T13:19:05Z</time>
      </trkpt>
      <trkpt lat="45.348208" lon="6.794009">
        <ele>2558.342</ele>
        <time>2018-07-20T13:19:11Z</time>
      </trkpt>
      <trkpt lat="45.348162" lon="6.794015">
        <ele>2559.022</ele>
        <time>2018-07-20T13:19:18Z</time>
      </trkpt>
      <trkpt lat="45.348134" lon="6.794068">
        <ele>2560.614</ele>
        <time>2018-07-20T13:19:22Z</time>
      </trkpt>
      <trkpt lat="45.348103" lon="6.794120">
        <ele>2561.208</ele>
        <time>2018-07-20T13:19:27Z</time>
      </trkpt>
      <trkpt lat="45.348075" lon="6.794179">
        <ele>2562.356</ele>
        <time>2018-07-20T13:19:46Z</time>
      </trkpt>
      <trkpt lat="45.348059" lon="6.794247">
        <ele>2562.691</ele>
        <time>2018-07-20T13:19:55Z</time>
      </trkpt>
      <trkpt lat="45.348037" lon="6.794308">
        <ele>2562.868</ele>
        <time>2018-07-20T13:20:01Z</time>
      </trkpt>
      <trkpt lat="45.348024" lon="6.794375">
        <ele>2563.393</ele>
        <time>2018-07-20T13:20:07Z</time>
      </trkpt>
      <trkpt lat="45.348018" lon="6.794443">
        <ele>2563.677</ele>
        <time>2018-07-20T13:20:13Z</time>
      </trkpt>
      <trkpt lat="45.348015" lon="6.794513">
        <ele>2563.480</ele>
        <time>2018-07-20T13:20:19Z</time>
      </trkpt>
      <trkpt lat="45.348006" lon="6.794587">
        <ele>2563.722</ele>
        <time>2018-07-20T13:20:25Z</time>
      </trkpt>
      <trkpt lat="45.347994" lon="6.794652">
        <ele>2564.316</ele>
        <time>2018-07-20T13:20:31Z</time>
      </trkpt>
      <trkpt lat="45.347976" lon="6.794712">
        <ele>2565.027</ele>
        <time>2018-07-20T13:20:37Z</time>
      </trkpt>
      <trkpt lat="45.347961" lon="6.794781">
        <ele>2565.868</ele>
        <time>2018-07-20T13:20:44Z</time>
      </trkpt>
      <trkpt lat="45.347958" lon="6.794848">
        <ele>2566.714</ele>
        <time>2018-07-20T13:20:51Z</time>
      </trkpt>
      <trkpt lat="45.347963" lon="6.794913">
        <ele>2567.208</ele>
        <time>2018-07-20T13:20:57Z</time>
      </trkpt>
      <trkpt lat="45.347957" lon="6.794983">
        <ele>2567.924</ele>
        <time>2018-07-20T13:21:03Z</time>
      </trkpt>
      <trkpt lat="45.347945" lon="6.795045">
        <ele>2567.979</ele>
        <time>2018-07-20T13:21:08Z</time>
      </trkpt>
      <trkpt lat="45.347939" lon="6.795111">
        <ele>2568.376</ele>
        <time>2018-07-20T13:21:13Z</time>
      </trkpt>
      <trkpt lat="45.347926" lon="6.795179">
        <ele>2568.681</ele>
        <time>2018-07-20T13:21:18Z</time>
      </trkpt>
      <trkpt lat="45.347908" lon="6.795246">
        <ele>2568.485</ele>
        <time>2018-07-20T13:21:23Z</time>
      </trkpt>
      <trkpt lat="45.347880" lon="6.795311">
        <ele>2568.348</ele>
        <time>2018-07-20T13:21:28Z</time>
      </trkpt>
      <trkpt lat="45.347861" lon="6.795373">
        <ele>2568.260</ele>
        <time>2018-07-20T13:21:33Z</time>
      </trkpt>
      <trkpt lat="45.347841" lon="6.795433">
        <ele>2568.114</ele>
        <time>2018-07-20T13:21:39Z</time>
      </trkpt>
      <trkpt lat="45.347813" lon="6.795497">
        <ele>2568.128</ele>
        <time>2018-07-20T13:21:44Z</time>
      </trkpt>
      <trkpt lat="45.347794" lon="6.795565">
        <ele>2568.989</ele>
        <time>2018-07-20T13:21:50Z</time>
      </trkpt>
      <trkpt lat="45.347787" lon="6.795634">
        <ele>2569.417</ele>
        <time>2018-07-20T13:21:55Z</time>
      </trkpt>
      <trkpt lat="45.347782" lon="6.795709">
        <ele>2569.708</ele>
        <time>2018-07-20T13:22:01Z</time>
      </trkpt>
      <trkpt lat="45.347780" lon="6.795783">
        <ele>2570.394</ele>
        <time>2018-07-20T13:22:07Z</time>
      </trkpt>
      <trkpt lat="45.347792" lon="6.795848">
        <ele>2570.639</ele>
        <time>2018-07-20T13:22:13Z</time>
      </trkpt>
      <trkpt lat="45.347793" lon="6.795920">
        <ele>2571.626</ele>
        <time>2018-07-20T13:22:20Z</time>
      </trkpt>
      <trkpt lat="45.347792" lon="6.795993">
        <ele>2572.221</ele>
        <time>2018-07-20T13:22:26Z</time>
      </trkpt>
      <trkpt lat="45.347795" lon="6.796067">
        <ele>2573.085</ele>
        <time>2018-07-20T13:22:31Z</time>
      </trkpt>
      <trkpt lat="45.347801" lon="6.796134">
        <ele>2573.948</ele>
        <time>2018-07-20T13:22:36Z</time>
      </trkpt>
      <trkpt lat="45.347802" lon="6.796209">
        <ele>2574.070</ele>
        <time>2018-07-20T13:22:42Z</time>
      </trkpt>
      <trkpt lat="45.347795" lon="6.796279">
        <ele>2574.544</ele>
        <time>2018-07-20T13:22:47Z</time>
      </trkpt>
      <trkpt lat="45.347797" lon="6.796353">
        <ele>2574.894</ele>
        <time>2018-07-20T13:22:52Z</time>
      </trkpt>
      <trkpt lat="45.347797" lon="6.796421">
        <ele>2575.057</ele>
        <time>2018-07-20T13:22:57Z</time>
      </trkpt>
      <trkpt lat="45.347793" lon="6.796485">
        <ele>2575.122</ele>
        <time>2018-07-20T13:23:02Z</time>
      </trkpt>
      <trkpt lat="45.347781" lon="6.796550">
        <ele>2575.208</ele>
        <time>2018-07-20T13:23:07Z</time>
      </trkpt>
      <trkpt lat="45.347773" lon="6.796622">
        <ele>2575.611</ele>
        <time>2018-07-20T13:23:13Z</time>
      </trkpt>
      <trkpt lat="45.347768" lon="6.796695">
        <ele>2575.936</ele>
        <time>2018-07-20T13:23:19Z</time>
      </trkpt>
      <trkpt lat="45.347768" lon="6.796767">
        <ele>2576.183</ele>
        <time>2018-07-20T13:23:24Z</time>
      </trkpt>
      <trkpt lat="45.347776" lon="6.796835">
        <ele>2576.688</ele>
        <time>2018-07-20T13:23:29Z</time>
      </trkpt>
      <trkpt lat="45.347785" lon="6.796901">
        <ele>2576.952</ele>
        <time>2018-07-20T13:23:34Z</time>
      </trkpt>
      <trkpt lat="45.347790" lon="6.796973">
        <ele>2577.145</ele>
        <time>2018-07-20T13:23:40Z</time>
      </trkpt>
      <trkpt lat="45.347808" lon="6.797045">
        <ele>2577.297</ele>
        <time>2018-07-20T13:23:45Z</time>
      </trkpt>
      <trkpt lat="45.347818" lon="6.797111">
        <ele>2577.381</ele>
        <time>2018-07-20T13:23:50Z</time>
      </trkpt>
      <trkpt lat="45.347833" lon="6.797181">
        <ele>2577.746</ele>
        <time>2018-07-20T13:23:57Z</time>
      </trkpt>
      <trkpt lat="45.347839" lon="6.797256">
        <ele>2578.488</ele>
        <time>2018-07-20T13:24:03Z</time>
      </trkpt>
      <trkpt lat="45.347849" lon="6.797327">
        <ele>2579.216</ele>
        <time>2018-07-20T13:24:09Z</time>
      </trkpt>
      <trkpt lat="45.347871" lon="6.797384">
        <ele>2580.508</ele>
        <time>2018-07-20T13:24:14Z</time>
      </trkpt>
      <trkpt lat="45.347898" lon="6.797449">
        <ele>2581.746</ele>
        <time>2018-07-20T13:24:20Z</time>
      </trkpt>
      <trkpt lat="45.347917" lon="6.797520">
        <ele>2582.421</ele>
        <time>2018-07-20T13:24:26Z</time>
      </trkpt>
      <trkpt lat="45.347912" lon="6.797590">
        <ele>2582.828</ele>
        <time>2018-07-20T13:24:33Z</time>
      </trkpt>
      <trkpt lat="45.347910" lon="6.797655">
        <ele>2583.113</ele>
        <time>2018-07-20T13:24:41Z</time>
      </trkpt>
      <trkpt lat="45.347911" lon="6.797726">
        <ele>2583.737</ele>
        <time>2018-07-20T13:24:52Z</time>
      </trkpt>
      <trkpt lat="45.347934" lon="6.797781">
        <ele>2584.860</ele>
        <time>2018-07-20T13:24:57Z</time>
      </trkpt>
      <trkpt lat="45.347958" lon="6.797848">
        <ele>2585.582</ele>
        <time>2018-07-20T13:25:02Z</time>
      </trkpt>
      <trkpt lat="45.347980" lon="6.797904">
        <ele>2586.376</ele>
        <time>2018-07-20T13:25:06Z</time>
      </trkpt>
      <trkpt lat="45.348011" lon="6.797966">
        <ele>2587.283</ele>
        <time>2018-07-20T13:25:11Z</time>
      </trkpt>
      <trkpt lat="45.348030" lon="6.798025">
        <ele>2588.125</ele>
        <time>2018-07-20T13:25:16Z</time>
      </trkpt>
      <trkpt lat="45.348045" lon="6.798090">
        <ele>2589.117</ele>
        <time>2018-07-20T13:25:22Z</time>
      </trkpt>
      <trkpt lat="45.348058" lon="6.798157">
        <ele>2588.908</ele>
        <time>2018-07-20T13:25:29Z</time>
      </trkpt>
      <trkpt lat="45.348074" lon="6.798227">
        <ele>2588.840</ele>
        <time>2018-07-20T13:25:37Z</time>
      </trkpt>
      <trkpt lat="45.348108" lon="6.798285">
        <ele>2590.335</ele>
        <time>2018-07-20T13:25:43Z</time>
      </trkpt>
      <trkpt lat="45.348137" lon="6.798338">
        <ele>2591.662</ele>
        <time>2018-07-20T13:25:48Z</time>
      </trkpt>
      <trkpt lat="45.348162" lon="6.798399">
        <ele>2592.017</ele>
        <time>2018-07-20T13:25:55Z</time>
      </trkpt>
      <trkpt lat="45.348192" lon="6.798458">
        <ele>2592.641</ele>
        <time>2018-07-20T13:26:01Z</time>
      </trkpt>
      <trkpt lat="45.348203" lon="6.798527">
        <ele>2592.224</ele>
        <time>2018-07-20T13:26:08Z</time>
      </trkpt>
      <trkpt lat="45.348158" lon="6.798547">
        <ele>2592.746</ele>
        <time>2018-07-20T13:26:14Z</time>
      </trkpt>
      <trkpt lat="45.348106" lon="6.798534">
        <ele>2592.640</ele>
        <time>2018-07-20T13:26:20Z</time>
      </trkpt>
      <trkpt lat="45.348060" lon="6.798529">
        <ele>2592.683</ele>
        <time>2018-07-20T13:26:26Z</time>
      </trkpt>
      <trkpt lat="45.348011" lon="6.798516">
        <ele>2592.625</ele>
        <time>2018-07-20T13:26:32Z</time>
      </trkpt>
      <trkpt lat="45.347964" lon="6.798498">
        <ele>2592.217</ele>
        <time>2018-07-20T13:26:47Z</time>
      </trkpt>
      <trkpt lat="45.347921" lon="6.798479">
        <ele>2591.608</ele>
        <time>2018-07-20T13:28:26Z</time>
      </trkpt>
      <trkpt lat="45.347883" lon="6.798434">
        <ele>2591.230</ele>
        <time>2018-07-20T13:28:34Z</time>
      </trkpt>
      <trkpt lat="45.347835" lon="6.798406">
        <ele>2591.465</ele>
        <time>2018-07-20T13:28:42Z</time>
      </trkpt>
      <trkpt lat="45.347790" lon="6.798374">
        <ele>2591.932</ele>
        <time>2018-07-20T13:28:49Z</time>
      </trkpt>
      <trkpt lat="45.347746" lon="6.798347">
        <ele>2592.647</ele>
        <time>2018-07-20T13:28:55Z</time>
      </trkpt>
      <trkpt lat="45.347703" lon="6.798327">
        <ele>2593.421</ele>
        <time>2018-07-20T13:29:01Z</time>
      </trkpt>
      <trkpt lat="45.347656" lon="6.798353">
        <ele>2593.924</ele>
        <time>2018-07-20T13:29:07Z</time>
      </trkpt>
      <trkpt lat="45.347612" lon="6.798384">
        <ele>2593.896</ele>
        <time>2018-07-20T13:29:12Z</time>
      </trkpt>
      <trkpt lat="45.347563" lon="6.798414">
        <ele>2594.120</ele>
        <time>2018-07-20T13:29:17Z</time>
      </trkpt>
      <trkpt lat="45.347515" lon="6.798453">
        <ele>2594.315</ele>
        <time>2018-07-20T13:29:22Z</time>
      </trkpt>
      <trkpt lat="45.347474" lon="6.798492">
        <ele>2594.465</ele>
        <time>2018-07-20T13:29:26Z</time>
      </trkpt>
      <trkpt lat="45.347439" lon="6.798544">
        <ele>2594.111</ele>
        <time>2018-07-20T13:29:31Z</time>
      </trkpt>
      <trkpt lat="45.347407" lon="6.798603">
        <ele>2593.908</ele>
        <time>2018-07-20T13:29:37Z</time>
      </trkpt>
      <trkpt lat="45.347369" lon="6.798644">
        <ele>2593.873</ele>
        <time>2018-07-20T13:29:42Z</time>
      </trkpt>
      <trkpt lat="45.347314" lon="6.798669">
        <ele>2593.748</ele>
        <time>2018-07-20T13:29:56Z</time>
      </trkpt>
      <trkpt lat="45.347279" lon="6.798624">
        <ele>2594.165</ele>
        <time>2018-07-20T13:30:09Z</time>
      </trkpt>
      <trkpt lat="45.347242" lon="6.798574">
        <ele>2593.930</ele>
        <time>2018-07-20T13:30:16Z</time>
      </trkpt>
      <trkpt lat="45.347206" lon="6.798522">
        <ele>2593.414</ele>
        <time>2018-07-20T13:30:22Z</time>
      </trkpt>
      <trkpt lat="45.347172" lon="6.798479">
        <ele>2593.167</ele>
        <time>2018-07-20T13:30:26Z</time>
      </trkpt>
      <trkpt lat="45.347127" lon="6.798435">
        <ele>2592.929</ele>
        <time>2018-07-20T13:30:31Z</time>
      </trkpt>
      <trkpt lat="45.347085" lon="6.798402">
        <ele>2592.413</ele>
        <time>2018-07-20T13:30:35Z</time>
      </trkpt>
      <trkpt lat="45.347043" lon="6.798367">
        <ele>2591.727</ele>
        <time>2018-07-20T13:30:39Z</time>
      </trkpt>
      <trkpt lat="45.347007" lon="6.798317">
        <ele>2590.968</ele>
        <time>2018-07-20T13:30:43Z</time>
      </trkpt>
      <trkpt lat="45.346978" lon="6.798263">
        <ele>2590.414</ele>
        <time>2018-07-20T13:30:47Z</time>
      </trkpt>
      <trkpt lat="45.346936" lon="6.798227">
        <ele>2590.108</ele>
        <time>2018-07-20T13:30:52Z</time>
      </trkpt>
      <trkpt lat="45.346888" lon="6.798232">
        <ele>2589.934</ele>
        <time>2018-07-20T13:30:57Z</time>
      </trkpt>
      <trkpt lat="45.346837" lon="6.798243">
        <ele>2589.419</ele>
        <time>2018-07-20T13:31:03Z</time>
      </trkpt>
      <trkpt lat="45.346787" lon="6.798258">
        <ele>2589.556</ele>
        <time>2018-07-20T13:31:10Z</time>
      </trkpt>
      <trkpt lat="45.346741" lon="6.798268">
        <ele>2590.051</ele>
        <time>2018-07-20T13:31:16Z</time>
      </trkpt>
      <trkpt lat="45.346693" lon="6.798284">
        <ele>2590.375</ele>
        <time>2018-07-20T13:31:23Z</time>
      </trkpt>
      <trkpt lat="45.346646" lon="6.798314">
        <ele>2590.968</ele>
        <time>2018-07-20T13:31:30Z</time>
      </trkpt>
      <trkpt lat="45.346601" lon="6.798333">
        <ele>2590.490</ele>
        <time>2018-07-20T13:31:37Z</time>
      </trkpt>
      <trkpt lat="45.346568" lon="6.798386">
        <ele>2590.554</ele>
        <time>2018-07-20T13:31:44Z</time>
      </trkpt>
      <trkpt lat="45.346521" lon="6.798407">
        <ele>2590.621</ele>
        <time>2018-07-20T13:31:52Z</time>
      </trkpt>
      <trkpt lat="45.346474" lon="6.798429">
        <ele>2591.041</ele>
        <time>2018-07-20T13:32:00Z</time>
      </trkpt>
      <trkpt lat="45.346429" lon="6.798433">
        <ele>2592.105</ele>
        <time>2018-07-20T13:32:07Z</time>
      </trkpt>
      <trkpt lat="45.346381" lon="6.798421">
        <ele>2592.708</ele>
        <time>2018-07-20T13:32:20Z</time>
      </trkpt>
      <trkpt lat="45.346333" lon="6.798419">
        <ele>2593.924</ele>
        <time>2018-07-20T13:32:32Z</time>
      </trkpt>
      <trkpt lat="45.346295" lon="6.798373">
        <ele>2594.269</ele>
        <time>2018-07-20T13:32:42Z</time>
      </trkpt>
      <trkpt lat="45.346246" lon="6.798372">
        <ele>2594.896</ele>
        <time>2018-07-20T13:32:54Z</time>
      </trkpt>
      <trkpt lat="45.346199" lon="6.798361">
        <ele>2596.051</ele>
        <time>2018-07-20T13:33:05Z</time>
      </trkpt>
      <trkpt lat="45.346153" lon="6.798383">
        <ele>2596.785</ele>
        <time>2018-07-20T13:33:18Z</time>
      </trkpt>
      <trkpt lat="45.346108" lon="6.798407">
        <ele>2596.718</ele>
        <time>2018-07-20T13:33:27Z</time>
      </trkpt>
      <trkpt lat="45.346063" lon="6.798397">
        <ele>2596.380</ele>
        <time>2018-07-20T13:33:38Z</time>
      </trkpt>
      <trkpt lat="45.346016" lon="6.798414">
        <ele>2596.564</ele>
        <time>2018-07-20T13:34:03Z</time>
      </trkpt>
      <trkpt lat="45.345964" lon="6.798403">
        <ele>2596.622</ele>
        <time>2018-07-20T13:34:09Z</time>
      </trkpt>
      <trkpt lat="45.345915" lon="6.798402">
        <ele>2596.362</ele>
        <time>2018-07-20T13:34:15Z</time>
      </trkpt>
      <trkpt lat="45.345865" lon="6.798414">
        <ele>2596.108</ele>
        <time>2018-07-20T13:34:20Z</time>
      </trkpt>
      <trkpt lat="45.345820" lon="6.798410">
        <ele>2594.808</ele>
        <time>2018-07-20T13:34:25Z</time>
      </trkpt>
      <trkpt lat="45.345774" lon="6.798397">
        <ele>2594.444</ele>
        <time>2018-07-20T13:34:30Z</time>
      </trkpt>
      <trkpt lat="45.345720" lon="6.798407">
        <ele>2594.699</ele>
        <time>2018-07-20T13:34:35Z</time>
      </trkpt>
      <trkpt lat="45.345669" lon="6.798401">
        <ele>2595.136</ele>
        <time>2018-07-20T13:34:40Z</time>
      </trkpt>
      <trkpt lat="45.345622" lon="6.798404">
        <ele>2596.221</ele>
        <time>2018-07-20T13:34:45Z</time>
      </trkpt>
      <trkpt lat="45.345579" lon="6.798428">
        <ele>2596.125</ele>
        <time>2018-07-20T13:34:57Z</time>
      </trkpt>
      <trkpt lat="45.345532" lon="6.798441">
        <ele>2596.418</ele>
        <time>2018-07-20T13:35:06Z</time>
      </trkpt>
      <trkpt lat="45.345484" lon="6.798426">
        <ele>2597.080</ele>
        <time>2018-07-20T13:35:13Z</time>
      </trkpt>
      <trkpt lat="45.345441" lon="6.798408">
        <ele>2597.814</ele>
        <time>2018-07-20T13:35:18Z</time>
      </trkpt>
      <trkpt lat="45.345393" lon="6.798386">
        <ele>2598.355</ele>
        <time>2018-07-20T13:35:23Z</time>
      </trkpt>
      <trkpt lat="45.345347" lon="6.798362">
        <ele>2599.007</ele>
        <time>2018-07-20T13:35:28Z</time>
      </trkpt>
      <trkpt lat="45.345297" lon="6.798345">
        <ele>2599.417</ele>
        <time>2018-07-20T13:35:33Z</time>
      </trkpt>
      <trkpt lat="45.345246" lon="6.798334">
        <ele>2600.008</ele>
        <time>2018-07-20T13:35:38Z</time>
      </trkpt>
      <trkpt lat="45.345192" lon="6.798316">
        <ele>2600.857</ele>
        <time>2018-07-20T13:35:43Z</time>
      </trkpt>
      <trkpt lat="45.345141" lon="6.798305">
        <ele>2601.352</ele>
        <time>2018-07-20T13:35:48Z</time>
      </trkpt>
      <trkpt lat="45.345096" lon="6.798312">
        <ele>2602.049</ele>
        <time>2018-07-20T13:35:52Z</time>
      </trkpt>
      <trkpt lat="45.345043" lon="6.798313">
        <ele>2602.074</ele>
        <time>2018-07-20T13:35:57Z</time>
      </trkpt>
      <trkpt lat="45.345003" lon="6.798282">
        <ele>2601.658</ele>
        <time>2018-07-20T13:36:02Z</time>
      </trkpt>
      <trkpt lat="45.344957" lon="6.798258">
        <ele>2601.051</ele>
        <time>2018-07-20T13:36:07Z</time>
      </trkpt>
      <trkpt lat="45.344903" lon="6.798247">
        <ele>2600.283</ele>
        <time>2018-07-20T13:36:12Z</time>
      </trkpt>
      <trkpt lat="45.344857" lon="6.798241">
        <ele>2599.727</ele>
        <time>2018-07-20T13:36:16Z</time>
      </trkpt>
      <trkpt lat="45.344805" lon="6.798257">
        <ele>2599.817</ele>
        <time>2018-07-20T13:36:21Z</time>
      </trkpt>
      <trkpt lat="45.344752" lon="6.798273">
        <ele>2600.387</ele>
        <time>2018-07-20T13:36:26Z</time>
      </trkpt>
      <trkpt lat="45.344698" lon="6.798293">
        <ele>2601.015</ele>
        <time>2018-07-20T13:36:31Z</time>
      </trkpt>
      <trkpt lat="45.344647" lon="6.798309">
        <ele>2601.408</ele>
        <time>2018-07-20T13:36:35Z</time>
      </trkpt>
      <trkpt lat="45.344594" lon="6.798323">
        <ele>2601.613</ele>
        <time>2018-07-20T13:36:40Z</time>
      </trkpt>
      <trkpt lat="45.344543" lon="6.798349">
        <ele>2601.328</ele>
        <time>2018-07-20T13:36:45Z</time>
      </trkpt>
      <trkpt lat="45.344493" lon="6.798369">
        <ele>2601.115</ele>
        <time>2018-07-20T13:36:50Z</time>
      </trkpt>
      <trkpt lat="45.344448" lon="6.798386">
        <ele>2601.040</ele>
        <time>2018-07-20T13:36:55Z</time>
      </trkpt>
      <trkpt lat="45.344403" lon="6.798391">
        <ele>2601.334</ele>
        <time>2018-07-20T13:36:59Z</time>
      </trkpt>
      <trkpt lat="45.344350" lon="6.798378">
        <ele>2601.937</ele>
        <time>2018-07-20T13:37:04Z</time>
      </trkpt>
      <trkpt lat="45.344295" lon="6.798365">
        <ele>2601.919</ele>
        <time>2018-07-20T13:37:09Z</time>
      </trkpt>
      <trkpt lat="45.344246" lon="6.798359">
        <ele>2601.593</ele>
        <time>2018-07-20T13:37:14Z</time>
      </trkpt>
      <trkpt lat="45.344198" lon="6.798372">
        <ele>2601.296</ele>
        <time>2018-07-20T13:37:20Z</time>
      </trkpt>
      <trkpt lat="45.344151" lon="6.798404">
        <ele>2600.231</ele>
        <time>2018-07-20T13:37:27Z</time>
      </trkpt>
      <trkpt lat="45.344099" lon="6.798415">
        <ele>2599.224</ele>
        <time>2018-07-20T13:37:32Z</time>
      </trkpt>
      <trkpt lat="45.344055" lon="6.798389">
        <ele>2598.608</ele>
        <time>2018-07-20T13:37:37Z</time>
      </trkpt>
      <trkpt lat="45.344010" lon="6.798370">
        <ele>2596.761</ele>
        <time>2018-07-20T13:37:45Z</time>
      </trkpt>
      <trkpt lat="45.343960" lon="6.798364">
        <ele>2594.766</ele>
        <time>2018-07-20T13:38:03Z</time>
      </trkpt>
      <trkpt lat="45.343913" lon="6.798377">
        <ele>2593.113</ele>
        <time>2018-07-20T13:38:09Z</time>
      </trkpt>
      <trkpt lat="45.343860" lon="6.798362">
        <ele>2591.418</ele>
        <time>2018-07-20T13:38:15Z</time>
      </trkpt>
      <trkpt lat="45.343808" lon="6.798382">
        <ele>2590.492</ele>
        <time>2018-07-20T13:38:18Z</time>
      </trkpt>
      <trkpt lat="45.343747" lon="6.798376">
        <ele>2589.485</ele>
        <time>2018-07-20T13:38:21Z</time>
      </trkpt>
      <trkpt lat="45.343723" lon="6.798433">
        <ele>2588.867</ele>
        <time>2018-07-20T13:38:26Z</time>
      </trkpt>
      <trkpt lat="45.343688" lon="6.798487">
        <ele>2587.221</ele>
        <time>2018-07-20T13:38:33Z</time>
      </trkpt>
      <trkpt lat="45.343650" lon="6.798540">
        <ele>2587.131</ele>
        <time>2018-07-20T13:38:38Z</time>
      </trkpt>
      <trkpt lat="45.343627" lon="6.798615">
        <ele>2587.461</ele>
        <time>2018-07-20T13:38:41Z</time>
      </trkpt>
      <trkpt lat="45.343606" lon="6.798680">
        <ele>2587.607</ele>
        <time>2018-07-20T13:38:44Z</time>
      </trkpt>
      <trkpt lat="45.343566" lon="6.798726">
        <ele>2587.308</ele>
        <time>2018-07-20T13:38:48Z</time>
      </trkpt>
      <trkpt lat="45.343524" lon="6.798774">
        <ele>2587.545</ele>
        <time>2018-07-20T13:38:52Z</time>
      </trkpt>
      <trkpt lat="45.343476" lon="6.798771">
        <ele>2587.250</ele>
        <time>2018-07-20T13:38:56Z</time>
      </trkpt>
      <trkpt lat="45.343433" lon="6.798727">
        <ele>2585.817</ele>
        <time>2018-07-20T13:38:59Z</time>
      </trkpt>
      <trkpt lat="45.343376" lon="6.798733">
        <ele>2584.672</ele>
        <time>2018-07-20T13:39:03Z</time>
      </trkpt>
      <trkpt lat="45.343325" lon="6.798744">
        <ele>2584.766</ele>
        <time>2018-07-20T13:39:07Z</time>
      </trkpt>
      <trkpt lat="45.343277" lon="6.798761">
        <ele>2584.739</ele>
        <time>2018-07-20T13:39:12Z</time>
      </trkpt>
      <trkpt lat="45.343247" lon="6.798818">
        <ele>2584.791</ele>
        <time>2018-07-20T13:39:15Z</time>
      </trkpt>
      <trkpt lat="45.343202" lon="6.798849">
        <ele>2585.975</ele>
        <time>2018-07-20T13:39:18Z</time>
      </trkpt>
      <trkpt lat="45.343154" lon="6.798889">
        <ele>2586.657</ele>
        <time>2018-07-20T13:39:22Z</time>
      </trkpt>
      <trkpt lat="45.343108" lon="6.798885">
        <ele>2587.800</ele>
        <time>2018-07-20T13:39:26Z</time>
      </trkpt>
      <trkpt lat="45.343064" lon="6.798847">
        <ele>2588.120</ele>
        <time>2018-07-20T13:39:31Z</time>
      </trkpt>
      <trkpt lat="45.343029" lon="6.798893">
        <ele>2587.508</ele>
        <time>2018-07-20T13:39:35Z</time>
      </trkpt>
      <trkpt lat="45.342978" lon="6.798910">
        <ele>2586.327</ele>
        <time>2018-07-20T13:39:39Z</time>
      </trkpt>
      <trkpt lat="45.342929" lon="6.798907">
        <ele>2584.422</ele>
        <time>2018-07-20T13:39:46Z</time>
      </trkpt>
      <trkpt lat="45.342886" lon="6.798929">
        <ele>2582.999</ele>
        <time>2018-07-20T13:39:54Z</time>
      </trkpt>
      <trkpt lat="45.342861" lon="6.798983">
        <ele>2582.034</ele>
        <time>2018-07-20T13:39:59Z</time>
      </trkpt>
      <trkpt lat="45.342836" lon="6.799038">
        <ele>2581.028</ele>
        <time>2018-07-20T13:40:05Z</time>
      </trkpt>
      <trkpt lat="45.342794" lon="6.799066">
        <ele>2580.441</ele>
        <time>2018-07-20T13:40:17Z</time>
      </trkpt>
      <trkpt lat="45.342777" lon="6.799127">
        <ele>2581.353</ele>
        <time>2018-07-20T13:40:22Z</time>
      </trkpt>
      <trkpt lat="45.342738" lon="6.799194">
        <ele>2581.837</ele>
        <time>2018-07-20T13:40:34Z</time>
      </trkpt>
      <trkpt lat="45.342728" lon="6.799262">
        <ele>2581.792</ele>
        <time>2018-07-20T13:40:40Z</time>
      </trkpt>
      <trkpt lat="45.342726" lon="6.799336">
        <ele>2582.473</ele>
        <time>2018-07-20T13:40:45Z</time>
      </trkpt>
      <trkpt lat="45.342723" lon="6.799402">
        <ele>2583.220</ele>
        <time>2018-07-20T13:40:50Z</time>
      </trkpt>
      <trkpt lat="45.342739" lon="6.799467">
        <ele>2583.708</ele>
        <time>2018-07-20T13:40:57Z</time>
      </trkpt>
      <trkpt lat="45.342770" lon="6.799516">
        <ele>2584.831</ele>
        <time>2018-07-20T13:41:02Z</time>
      </trkpt>
      <trkpt lat="45.342772" lon="6.799592">
        <ele>2586.316</ele>
        <time>2018-07-20T13:41:08Z</time>
      </trkpt>
      <trkpt lat="45.342761" lon="6.799658">
        <ele>2587.643</ele>
        <time>2018-07-20T13:41:14Z</time>
      </trkpt>
      <trkpt lat="45.342723" lon="6.799721">
        <ele>2587.668</ele>
        <time>2018-07-20T13:42:07Z</time>
      </trkpt>
      <trkpt lat="45.342680" lon="6.799870">
        <ele>2589.642</ele>
        <time>2018-07-20T13:42:29Z</time>
      </trkpt>
      <trkpt lat="45.342661" lon="6.799936">
        <ele>2590.485</ele>
        <time>2018-07-20T13:42:33Z</time>
      </trkpt>
      <trkpt lat="45.342644" lon="6.799995">
        <ele>2591.337</ele>
        <time>2018-07-20T13:42:36Z</time>
      </trkpt>
      <trkpt lat="45.342615" lon="6.800051">
        <ele>2591.461</ele>
        <time>2018-07-20T13:42:39Z</time>
      </trkpt>
      <trkpt lat="45.342575" lon="6.800089">
        <ele>2590.376</ele>
        <time>2018-07-20T13:42:44Z</time>
      </trkpt>
      <trkpt lat="45.342547" lon="6.800139">
        <ele>2589.690</ele>
        <time>2018-07-20T13:42:48Z</time>
      </trkpt>
      <trkpt lat="45.342514" lon="6.800201">
        <ele>2589.619</ele>
        <time>2018-07-20T13:42:53Z</time>
      </trkpt>
      <trkpt lat="45.342479" lon="6.800265">
        <ele>2590.408</ele>
        <time>2018-07-20T13:42:57Z</time>
      </trkpt>
      <trkpt lat="45.342455" lon="6.800336">
        <ele>2589.779</ele>
        <time>2018-07-20T13:43:01Z</time>
      </trkpt>
      <trkpt lat="45.342438" lon="6.800400">
        <ele>2590.514</ele>
        <time>2018-07-20T13:43:04Z</time>
      </trkpt>
      <trkpt lat="45.342424" lon="6.800464">
        <ele>2593.021</ele>
        <time>2018-07-20T13:43:15Z</time>
      </trkpt>
      <trkpt lat="45.342375" lon="6.800509">
        <ele>2593.326</ele>
        <time>2018-07-20T13:43:21Z</time>
      </trkpt>
      <trkpt lat="45.342358" lon="6.800582">
        <ele>2594.750</ele>
        <time>2018-07-20T13:43:26Z</time>
      </trkpt>
      <trkpt lat="45.342355" lon="6.800652">
        <ele>2595.563</ele>
        <time>2018-07-20T13:43:29Z</time>
      </trkpt>
      <trkpt lat="45.342370" lon="6.800713">
        <ele>2596.435</ele>
        <time>2018-07-20T13:43:33Z</time>
      </trkpt>
      <trkpt lat="45.342370" lon="6.800792">
        <ele>2596.119</ele>
        <time>2018-07-20T13:43:38Z</time>
      </trkpt>
      <trkpt lat="45.342355" lon="6.800857">
        <ele>2595.168</ele>
        <time>2018-07-20T13:43:44Z</time>
      </trkpt>
      <trkpt lat="45.342320" lon="6.800908">
        <ele>2594.542</ele>
        <time>2018-07-20T13:43:49Z</time>
      </trkpt>
      <trkpt lat="45.342286" lon="6.800962">
        <ele>2594.626</ele>
        <time>2018-07-20T13:43:55Z</time>
      </trkpt>
      <trkpt lat="45.342240" lon="6.801000">
        <ele>2594.608</ele>
        <time>2018-07-20T13:44:01Z</time>
      </trkpt>
      <trkpt lat="45.342209" lon="6.801055">
        <ele>2595.088</ele>
        <time>2018-07-20T13:44:05Z</time>
      </trkpt>
      <trkpt lat="45.342160" lon="6.801107">
        <ele>2594.993</ele>
        <time>2018-07-20T13:44:09Z</time>
      </trkpt>
      <trkpt lat="45.342133" lon="6.801165">
        <ele>2595.290</ele>
        <time>2018-07-20T13:44:12Z</time>
      </trkpt>
      <trkpt lat="45.342121" lon="6.801228">
        <ele>2593.845</ele>
        <time>2018-07-20T13:44:26Z</time>
      </trkpt>
      <trkpt lat="45.342093" lon="6.801286">
        <ele>2593.079</ele>
        <time>2018-07-20T13:44:31Z</time>
      </trkpt>
      <trkpt lat="45.342075" lon="6.801348">
        <ele>2593.352</ele>
        <time>2018-07-20T13:44:35Z</time>
      </trkpt>
      <trkpt lat="45.342064" lon="6.801421">
        <ele>2593.954</ele>
        <time>2018-07-20T13:44:39Z</time>
      </trkpt>
      <trkpt lat="45.342060" lon="6.801497">
        <ele>2593.488</ele>
        <time>2018-07-20T13:44:47Z</time>
      </trkpt>
      <trkpt lat="45.342032" lon="6.801558">
        <ele>2592.345</ele>
        <time>2018-07-20T13:44:54Z</time>
      </trkpt>
      <trkpt lat="45.342001" lon="6.801614">
        <ele>2591.747</ele>
        <time>2018-07-20T13:44:59Z</time>
      </trkpt>
      <trkpt lat="45.341998" lon="6.801681">
        <ele>2592.511</ele>
        <time>2018-07-20T13:45:09Z</time>
      </trkpt>
      <trkpt lat="45.342014" lon="6.801745">
        <ele>2594.208</ele>
        <time>2018-07-20T13:45:12Z</time>
      </trkpt>
      <trkpt lat="45.341978" lon="6.801786">
        <ele>2594.816</ele>
        <time>2018-07-20T13:45:15Z</time>
      </trkpt>
      <trkpt lat="45.341933" lon="6.801832">
        <ele>2595.631</ele>
        <time>2018-07-20T13:45:19Z</time>
      </trkpt>
      <trkpt lat="45.341903" lon="6.801894">
        <ele>2596.928</ele>
        <time>2018-07-20T13:45:22Z</time>
      </trkpt>
      <trkpt lat="45.341884" lon="6.801954">
        <ele>2597.333</ele>
        <time>2018-07-20T13:45:29Z</time>
      </trkpt>
      <trkpt lat="45.341885" lon="6.802026">
        <ele>2597.547</ele>
        <time>2018-07-20T13:45:35Z</time>
      </trkpt>
      <trkpt lat="45.341847" lon="6.802062">
        <ele>2597.610</ele>
        <time>2018-07-20T13:45:39Z</time>
      </trkpt>
      <trkpt lat="45.341817" lon="6.802120">
        <ele>2596.532</ele>
        <time>2018-07-20T13:45:47Z</time>
      </trkpt>
      <trkpt lat="45.341822" lon="6.802188">
        <ele>2596.296</ele>
        <time>2018-07-20T13:45:51Z</time>
      </trkpt>
      <trkpt lat="45.341835" lon="6.802267">
        <ele>2596.822</ele>
        <time>2018-07-20T13:45:55Z</time>
      </trkpt>
      <trkpt lat="45.341805" lon="6.802333">
        <ele>2596.862</ele>
        <time>2018-07-20T13:45:59Z</time>
      </trkpt>
      <trkpt lat="45.341760" lon="6.802371">
        <ele>2595.208</ele>
        <time>2018-07-20T13:46:03Z</time>
      </trkpt>
      <trkpt lat="45.341710" lon="6.802399">
        <ele>2593.008</ele>
        <time>2018-07-20T13:46:11Z</time>
      </trkpt>
      <trkpt lat="45.341684" lon="6.802457">
        <ele>2592.964</ele>
        <time>2018-07-20T13:46:15Z</time>
      </trkpt>
      <trkpt lat="45.341659" lon="6.802517">
        <ele>2592.089</ele>
        <time>2018-07-20T13:46:18Z</time>
      </trkpt>
      <trkpt lat="45.341620" lon="6.802472">
        <ele>2591.966</ele>
        <time>2018-07-20T13:46:28Z</time>
      </trkpt>
      <trkpt lat="45.341572" lon="6.802455">
        <ele>2591.081</ele>
        <time>2018-07-20T13:46:37Z</time>
      </trkpt>
      <trkpt lat="45.341525" lon="6.802422">
        <ele>2589.395</ele>
        <time>2018-07-20T13:46:45Z</time>
      </trkpt>
      <trkpt lat="45.341506" lon="6.802362">
        <ele>2589.128</ele>
        <time>2018-07-20T13:46:53Z</time>
      </trkpt>
      <trkpt lat="45.341498" lon="6.802293">
        <ele>2587.820</ele>
        <time>2018-07-20T13:47:00Z</time>
      </trkpt>
      <trkpt lat="45.341465" lon="6.802237">
        <ele>2588.214</ele>
        <time>2018-07-20T13:47:08Z</time>
      </trkpt>
      <trkpt lat="45.341420" lon="6.802210">
        <ele>2589.268</ele>
        <time>2018-07-20T13:47:14Z</time>
      </trkpt>
      <trkpt lat="45.341387" lon="6.802159">
        <ele>2590.242</ele>
        <time>2018-07-20T13:47:21Z</time>
      </trkpt>
      <trkpt lat="45.341363" lon="6.802103">
        <ele>2591.626</ele>
        <time>2018-07-20T13:47:27Z</time>
      </trkpt>
      <trkpt lat="45.341367" lon="6.802033">
        <ele>2589.208</ele>
        <time>2018-07-20T13:47:33Z</time>
      </trkpt>
      <trkpt lat="45.341319" lon="6.802021">
        <ele>2589.478</ele>
        <time>2018-07-20T13:47:37Z</time>
      </trkpt>
      <trkpt lat="45.341273" lon="6.801988">
        <ele>2590.783</ele>
        <time>2018-07-20T13:47:42Z</time>
      </trkpt>
      <trkpt lat="45.341222" lon="6.801981">
        <ele>2592.330</ele>
        <time>2018-07-20T13:47:48Z</time>
      </trkpt>
      <trkpt lat="45.341179" lon="6.801949">
        <ele>2593.375</ele>
        <time>2018-07-20T13:47:55Z</time>
      </trkpt>
      <trkpt lat="45.341132" lon="6.801930">
        <ele>2594.719</ele>
        <time>2018-07-20T13:48:07Z</time>
      </trkpt>
      <trkpt lat="45.341087" lon="6.801902">
        <ele>2595.992</ele>
        <time>2018-07-20T13:48:14Z</time>
      </trkpt>
      <trkpt lat="45.341042" lon="6.801878">
        <ele>2596.644</ele>
        <time>2018-07-20T13:48:21Z</time>
      </trkpt>
      <trkpt lat="45.340995" lon="6.801881">
        <ele>2597.818</ele>
        <time>2018-07-20T13:48:28Z</time>
      </trkpt>
      <trkpt lat="45.340978" lon="6.801814">
        <ele>2598.186</ele>
        <time>2018-07-20T13:48:35Z</time>
      </trkpt>
      <trkpt lat="45.340963" lon="6.801749">
        <ele>2597.960</ele>
        <time>2018-07-20T13:48:43Z</time>
      </trkpt>
      <trkpt lat="45.340923" lon="6.801715">
        <ele>2597.426</ele>
        <time>2018-07-20T13:48:51Z</time>
      </trkpt>
      <trkpt lat="45.340877" lon="6.801716">
        <ele>2597.108</ele>
        <time>2018-07-20T13:48:58Z</time>
      </trkpt>
      <trkpt lat="45.340833" lon="6.801699">
        <ele>2597.390</ele>
        <time>2018-07-20T13:49:04Z</time>
      </trkpt>
      <trkpt lat="45.340804" lon="6.801644">
        <ele>2598.685</ele>
        <time>2018-07-20T13:49:12Z</time>
      </trkpt>
      <trkpt lat="45.340785" lon="6.801581">
        <ele>2600.252</ele>
        <time>2018-07-20T13:49:20Z</time>
      </trkpt>
      <trkpt lat="45.340767" lon="6.801520">
        <ele>2601.267</ele>
        <time>2018-07-20T13:49:26Z</time>
      </trkpt>
      <trkpt lat="45.340758" lon="6.801446">
        <ele>2601.041</ele>
        <time>2018-07-20T13:49:32Z</time>
      </trkpt>
      <trkpt lat="45.340750" lon="6.801378">
        <ele>2600.964</ele>
        <time>2018-07-20T13:49:37Z</time>
      </trkpt>
      <trkpt lat="45.340749" lon="6.801313">
        <ele>2600.066</ele>
        <time>2018-07-20T13:49:41Z</time>
      </trkpt>
      <trkpt lat="45.340746" lon="6.801239">
        <ele>2599.950</ele>
        <time>2018-07-20T13:49:48Z</time>
      </trkpt>
      <trkpt lat="45.340740" lon="6.801175">
        <ele>2600.662</ele>
        <time>2018-07-20T13:49:53Z</time>
      </trkpt>
      <trkpt lat="45.340726" lon="6.801107">
        <ele>2601.083</ele>
        <time>2018-07-20T13:49:59Z</time>
      </trkpt>
      <trkpt lat="45.340711" lon="6.801040">
        <ele>2600.911</ele>
        <time>2018-07-20T13:50:06Z</time>
      </trkpt>
      <trkpt lat="45.340674" lon="6.800993">
        <ele>2601.208</ele>
        <time>2018-07-20T13:50:14Z</time>
      </trkpt>
      <trkpt lat="45.340636" lon="6.800957">
        <ele>2600.678</ele>
        <time>2018-07-20T13:50:21Z</time>
      </trkpt>
      <trkpt lat="45.340596" lon="6.800921">
        <ele>2600.623</ele>
        <time>2018-07-20T13:50:27Z</time>
      </trkpt>
      <trkpt lat="45.340550" lon="6.800911">
        <ele>2601.470</ele>
        <time>2018-07-20T13:50:33Z</time>
      </trkpt>
      <trkpt lat="45.340498" lon="6.800898">
        <ele>2601.955</ele>
        <time>2018-07-20T13:50:39Z</time>
      </trkpt>
      <trkpt lat="45.340453" lon="6.800885">
        <ele>2602.289</ele>
        <time>2018-07-20T13:50:50Z</time>
      </trkpt>
      <trkpt lat="45.340404" lon="6.800864">
        <ele>2601.642</ele>
        <time>2018-07-20T13:51:53Z</time>
      </trkpt>
      <trkpt lat="45.340362" lon="6.800837">
        <ele>2600.834</ele>
        <time>2018-07-20T13:51:59Z</time>
      </trkpt>
      <trkpt lat="45.340312" lon="6.800810">
        <ele>2599.938</ele>
        <time>2018-07-20T13:52:05Z</time>
      </trkpt>
      <trkpt lat="45.340262" lon="6.800788">
        <ele>2599.864</ele>
        <time>2018-07-20T13:52:11Z</time>
      </trkpt>
      <trkpt lat="45.340211" lon="6.800749">
        <ele>2600.506</ele>
        <time>2018-07-20T13:52:35Z</time>
      </trkpt>
      <trkpt lat="45.340173" lon="6.800708">
        <ele>2600.116</ele>
        <time>2018-07-20T13:52:42Z</time>
      </trkpt>
      <trkpt lat="45.340133" lon="6.800667">
        <ele>2599.508</ele>
        <time>2018-07-20T13:52:48Z</time>
      </trkpt>
      <trkpt lat="45.340045" lon="6.800597">
        <ele>2600.698</ele>
        <time>2018-07-20T14:11:11Z</time>
      </trkpt>
      <trkpt lat="45.340007" lon="6.800554">
        <ele>2600.693</ele>
        <time>2018-07-20T14:11:21Z</time>
      </trkpt>
      <trkpt lat="45.339963" lon="6.800538">
        <ele>2599.850</ele>
        <time>2018-07-20T14:11:28Z</time>
      </trkpt>
      <trkpt lat="45.339913" lon="6.800520">
        <ele>2598.915</ele>
        <time>2018-07-20T14:11:36Z</time>
      </trkpt>
      <trkpt lat="45.339867" lon="6.800491">
        <ele>2599.399</ele>
        <time>2018-07-20T14:11:42Z</time>
      </trkpt>
      <trkpt lat="45.339851" lon="6.800426">
        <ele>2597.712</ele>
        <time>2018-07-20T14:11:48Z</time>
      </trkpt>
      <trkpt lat="45.339823" lon="6.800376">
        <ele>2597.174</ele>
        <time>2018-07-20T14:11:54Z</time>
      </trkpt>
      <trkpt lat="45.339778" lon="6.800344">
        <ele>2596.868</ele>
        <time>2018-07-20T14:12:00Z</time>
      </trkpt>
      <trkpt lat="45.339745" lon="6.800291">
        <ele>2597.094</ele>
        <time>2018-07-20T14:12:06Z</time>
      </trkpt>
      <trkpt lat="45.339707" lon="6.800256">
        <ele>2597.157</ele>
        <time>2018-07-20T14:12:11Z</time>
      </trkpt>
      <trkpt lat="45.339666" lon="6.800224">
        <ele>2596.422</ele>
        <time>2018-07-20T14:12:17Z</time>
      </trkpt>
      <trkpt lat="45.339637" lon="6.800174">
        <ele>2596.008</ele>
        <time>2018-07-20T14:12:23Z</time>
      </trkpt>
      <trkpt lat="45.339605" lon="6.800113">
        <ele>2595.741</ele>
        <time>2018-07-20T14:12:29Z</time>
      </trkpt>
      <trkpt lat="45.339569" lon="6.800056">
        <ele>2595.166</ele>
        <time>2018-07-20T14:12:35Z</time>
      </trkpt>
      <trkpt lat="45.339546" lon="6.799999">
        <ele>2594.883</ele>
        <time>2018-07-20T14:12:40Z</time>
      </trkpt>
      <trkpt lat="45.339522" lon="6.799944">
        <ele>2595.048</ele>
        <time>2018-07-20T14:12:45Z</time>
      </trkpt>
      <trkpt lat="45.339501" lon="6.799887">
        <ele>2594.762</ele>
        <time>2018-07-20T14:12:50Z</time>
      </trkpt>
      <trkpt lat="45.339478" lon="6.799827">
        <ele>2594.195</ele>
        <time>2018-07-20T14:12:57Z</time>
      </trkpt>
      <trkpt lat="45.339441" lon="6.799776">
        <ele>2593.467</ele>
        <time>2018-07-20T14:13:03Z</time>
      </trkpt>
      <trkpt lat="45.339421" lon="6.799706">
        <ele>2592.211</ele>
        <time>2018-07-20T14:13:09Z</time>
      </trkpt>
      <trkpt lat="45.339421" lon="6.799642">
        <ele>2591.182</ele>
        <time>2018-07-20T14:13:14Z</time>
      </trkpt>
      <trkpt lat="45.339404" lon="6.799580">
        <ele>2590.843</ele>
        <time>2018-07-20T14:13:19Z</time>
      </trkpt>
      <trkpt lat="45.339375" lon="6.799525">
        <ele>2591.017</ele>
        <time>2018-07-20T14:13:24Z</time>
      </trkpt>
      <trkpt lat="45.339340" lon="6.799470">
        <ele>2591.508</ele>
        <time>2018-07-20T14:13:29Z</time>
      </trkpt>
      <trkpt lat="45.339317" lon="6.799412">
        <ele>2592.210</ele>
        <time>2018-07-20T14:13:35Z</time>
      </trkpt>
      <trkpt lat="45.339305" lon="6.799341">
        <ele>2591.455</ele>
        <time>2018-07-20T14:13:45Z</time>
      </trkpt>
      <trkpt lat="45.339263" lon="6.799303">
        <ele>2590.912</ele>
        <time>2018-07-20T14:13:52Z</time>
      </trkpt>
      <trkpt lat="45.339225" lon="6.799249">
        <ele>2590.257</ele>
        <time>2018-07-20T14:13:59Z</time>
      </trkpt>
      <trkpt lat="45.339184" lon="6.799205">
        <ele>2589.871</ele>
        <time>2018-07-20T14:14:05Z</time>
      </trkpt>
      <trkpt lat="45.339143" lon="6.799165">
        <ele>2588.814</ele>
        <time>2018-07-20T14:14:12Z</time>
      </trkpt>
      <trkpt lat="45.339113" lon="6.799115">
        <ele>2588.696</ele>
        <time>2018-07-20T14:14:18Z</time>
      </trkpt>
      <trkpt lat="45.339072" lon="6.799078">
        <ele>2588.110</ele>
        <time>2018-07-20T14:14:25Z</time>
      </trkpt>
      <trkpt lat="45.339030" lon="6.799039">
        <ele>2587.818</ele>
        <time>2018-07-20T14:14:31Z</time>
      </trkpt>
      <trkpt lat="45.338993" lon="6.799000">
        <ele>2588.098</ele>
        <time>2018-07-20T14:14:36Z</time>
      </trkpt>
      <trkpt lat="45.338950" lon="6.798978">
        <ele>2588.517</ele>
        <time>2018-07-20T14:14:42Z</time>
      </trkpt>
      <trkpt lat="45.338906" lon="6.798950">
        <ele>2588.408</ele>
        <time>2018-07-20T14:14:49Z</time>
      </trkpt>
      <trkpt lat="45.338866" lon="6.798917">
        <ele>2588.393</ele>
        <time>2018-07-20T14:14:57Z</time>
      </trkpt>
      <trkpt lat="45.338825" lon="6.798887">
        <ele>2587.528</ele>
        <time>2018-07-20T14:15:04Z</time>
      </trkpt>
      <trkpt lat="45.338787" lon="6.798848">
        <ele>2587.075</ele>
        <time>2018-07-20T14:15:10Z</time>
      </trkpt>
      <trkpt lat="45.338753" lon="6.798789">
        <ele>2586.780</ele>
        <time>2018-07-20T14:15:16Z</time>
      </trkpt>
      <trkpt lat="45.338713" lon="6.798745">
        <ele>2586.184</ele>
        <time>2018-07-20T14:15:23Z</time>
      </trkpt>
      <trkpt lat="45.338666" lon="6.798717">
        <ele>2585.877</ele>
        <time>2018-07-20T14:15:29Z</time>
      </trkpt>
      <trkpt lat="45.338639" lon="6.798663">
        <ele>2586.089</ele>
        <time>2018-07-20T14:15:35Z</time>
      </trkpt>
      <trkpt lat="45.338607" lon="6.798609">
        <ele>2586.543</ele>
        <time>2018-07-20T14:15:40Z</time>
      </trkpt>
      <trkpt lat="45.338576" lon="6.798558">
        <ele>2586.475</ele>
        <time>2018-07-20T14:15:46Z</time>
      </trkpt>
      <trkpt lat="45.338539" lon="6.798511">
        <ele>2586.328</ele>
        <time>2018-07-20T14:15:52Z</time>
      </trkpt>
      <trkpt lat="45.338502" lon="6.798465">
        <ele>2585.920</ele>
        <time>2018-07-20T14:15:58Z</time>
      </trkpt>
      <trkpt lat="45.338461" lon="6.798435">
        <ele>2584.808</ele>
        <time>2018-07-20T14:16:06Z</time>
      </trkpt>
      <trkpt lat="45.338413" lon="6.798410">
        <ele>2584.689</ele>
        <time>2018-07-20T14:16:13Z</time>
      </trkpt>
      <trkpt lat="45.338381" lon="6.798355">
        <ele>2584.944</ele>
        <time>2018-07-20T14:16:19Z</time>
      </trkpt>
      <trkpt lat="45.338346" lon="6.798302">
        <ele>2585.151</ele>
        <time>2018-07-20T14:16:24Z</time>
      </trkpt>
      <trkpt lat="45.338318" lon="6.798245">
        <ele>2585.226</ele>
        <time>2018-07-20T14:16:29Z</time>
      </trkpt>
      <trkpt lat="45.338289" lon="6.798194">
        <ele>2584.130</ele>
        <time>2018-07-20T14:16:38Z</time>
      </trkpt>
      <trkpt lat="45.338282" lon="6.798124">
        <ele>2583.443</ele>
        <time>2018-07-20T14:16:44Z</time>
      </trkpt>
      <trkpt lat="45.338231" lon="6.798131">
        <ele>2584.255</ele>
        <time>2018-07-20T14:16:55Z</time>
      </trkpt>
      <trkpt lat="45.338197" lon="6.798183">
        <ele>2584.399</ele>
        <time>2018-07-20T14:17:02Z</time>
      </trkpt>
      <trkpt lat="45.338154" lon="6.798217">
        <ele>2583.911</ele>
        <time>2018-07-20T14:17:09Z</time>
      </trkpt>
      <trkpt lat="45.338110" lon="6.798202">
        <ele>2583.321</ele>
        <time>2018-07-20T14:17:15Z</time>
      </trkpt>
      <trkpt lat="45.338063" lon="6.798176">
        <ele>2582.503</ele>
        <time>2018-07-20T14:17:22Z</time>
      </trkpt>
      <trkpt lat="45.338017" lon="6.798157">
        <ele>2580.808</ele>
        <time>2018-07-20T14:17:30Z</time>
      </trkpt>
      <trkpt lat="45.337974" lon="6.798179">
        <ele>2580.243</ele>
        <time>2018-07-20T14:17:36Z</time>
      </trkpt>
      <trkpt lat="45.337927" lon="6.798184">
        <ele>2579.438</ele>
        <time>2018-07-20T14:17:41Z</time>
      </trkpt>
      <trkpt lat="45.337880" lon="6.798201">
        <ele>2579.375</ele>
        <time>2018-07-20T14:17:48Z</time>
      </trkpt>
      <trkpt lat="45.337840" lon="6.798168">
        <ele>2579.370</ele>
        <time>2018-07-20T14:18:04Z</time>
      </trkpt>
      <trkpt lat="45.337791" lon="6.798160">
        <ele>2580.164</ele>
        <time>2018-07-20T14:18:15Z</time>
      </trkpt>
      <trkpt lat="45.337745" lon="6.798147">
        <ele>2582.247</ele>
        <time>2018-07-20T14:18:27Z</time>
      </trkpt>
      <trkpt lat="45.337696" lon="6.798153">
        <ele>2583.819</ele>
        <time>2018-07-20T14:18:35Z</time>
      </trkpt>
      <trkpt lat="45.337654" lon="6.798187">
        <ele>2584.853</ele>
        <time>2018-07-20T14:18:44Z</time>
      </trkpt>
      <trkpt lat="45.337609" lon="6.798189">
        <ele>2585.431</ele>
        <time>2018-07-20T14:18:52Z</time>
      </trkpt>
      <trkpt lat="45.337564" lon="6.798195">
        <ele>2585.861</ele>
        <time>2018-07-20T14:19:04Z</time>
      </trkpt>
      <trkpt lat="45.337517" lon="6.798192">
        <ele>2586.807</ele>
        <time>2018-07-20T14:19:18Z</time>
      </trkpt>
      <trkpt lat="45.337480" lon="6.798247">
        <ele>2587.808</ele>
        <time>2018-07-20T14:19:29Z</time>
      </trkpt>
      <trkpt lat="45.337445" lon="6.798288">
        <ele>2588.825</ele>
        <time>2018-07-20T14:19:39Z</time>
      </trkpt>
      <trkpt lat="45.337401" lon="6.798319">
        <ele>2589.060</ele>
        <time>2018-07-20T14:19:59Z</time>
      </trkpt>
      <trkpt lat="45.337371" lon="6.798370">
        <ele>2589.537</ele>
        <time>2018-07-20T14:20:07Z</time>
      </trkpt>
      <trkpt lat="45.337333" lon="6.798417">
        <ele>2591.472</ele>
        <time>2018-07-20T14:20:21Z</time>
      </trkpt>
      <trkpt lat="45.337292" lon="6.798390">
        <ele>2592.536</ele>
        <time>2018-07-20T14:20:43Z</time>
      </trkpt>
      <trkpt lat="45.337253" lon="6.798352">
        <ele>2594.099</ele>
        <time>2018-07-20T14:22:46Z</time>
      </trkpt>
      <trkpt lat="45.337209" lon="6.798324">
        <ele>2594.981</ele>
        <time>2018-07-20T14:22:59Z</time>
      </trkpt>
      <trkpt lat="45.337158" lon="6.798351">
        <ele>2595.495</ele>
        <time>2018-07-20T14:23:26Z</time>
      </trkpt>
      <trkpt lat="45.337124" lon="6.798403">
        <ele>2596.113</ele>
        <time>2018-07-20T14:23:32Z</time>
      </trkpt>
      <trkpt lat="45.337094" lon="6.798466">
        <ele>2596.543</ele>
        <time>2018-07-20T14:23:39Z</time>
      </trkpt>
      <trkpt lat="45.337082" lon="6.798532">
        <ele>2596.807</ele>
        <time>2018-07-20T14:23:45Z</time>
      </trkpt>
      <trkpt lat="45.337074" lon="6.798595">
        <ele>2597.008</ele>
        <time>2018-07-20T14:23:52Z</time>
      </trkpt>
      <trkpt lat="45.337048" lon="6.798652">
        <ele>2597.533</ele>
        <time>2018-07-20T14:24:01Z</time>
      </trkpt>
      <trkpt lat="45.337007" lon="6.798684">
        <ele>2598.278</ele>
        <time>2018-07-20T14:24:20Z</time>
      </trkpt>
      <trkpt lat="45.336967" lon="6.798719">
        <ele>2599.075</ele>
        <time>2018-07-20T14:24:27Z</time>
      </trkpt>
      <trkpt lat="45.336930" lon="6.798756">
        <ele>2599.940</ele>
        <time>2018-07-20T14:24:33Z</time>
      </trkpt>
      <trkpt lat="45.336890" lon="6.798794">
        <ele>2600.494</ele>
        <time>2018-07-20T14:24:41Z</time>
      </trkpt>
      <trkpt lat="45.336845" lon="6.798831">
        <ele>2601.197</ele>
        <time>2018-07-20T14:25:10Z</time>
      </trkpt>
      <trkpt lat="45.336794" lon="6.798863">
        <ele>2601.579</ele>
        <time>2018-07-20T14:25:14Z</time>
      </trkpt>
      <trkpt lat="45.336753" lon="6.798891">
        <ele>2602.223</ele>
        <time>2018-07-20T14:25:18Z</time>
      </trkpt>
      <trkpt lat="45.336691" lon="6.798922">
        <ele>2603.034</ele>
        <time>2018-07-20T14:25:30Z</time>
      </trkpt>
      <trkpt lat="45.336656" lon="6.798964">
        <ele>2604.755</ele>
        <time>2018-07-20T14:25:39Z</time>
      </trkpt>
      <trkpt lat="45.336624" lon="6.799019">
        <ele>2605.710</ele>
        <time>2018-07-20T14:25:47Z</time>
      </trkpt>
      <trkpt lat="45.336595" lon="6.799085">
        <ele>2606.708</ele>
        <time>2018-07-20T14:25:53Z</time>
      </trkpt>
      <trkpt lat="45.336568" lon="6.799139">
        <ele>2606.945</ele>
        <time>2018-07-20T14:25:57Z</time>
      </trkpt>
      <trkpt lat="45.336541" lon="6.799193">
        <ele>2607.070</ele>
        <time>2018-07-20T14:26:01Z</time>
      </trkpt>
      <trkpt lat="45.336509" lon="6.799248">
        <ele>2607.127</ele>
        <time>2018-07-20T14:26:06Z</time>
      </trkpt>
      <trkpt lat="45.336477" lon="6.799296">
        <ele>2607.562</ele>
        <time>2018-07-20T14:26:11Z</time>
      </trkpt>
      <trkpt lat="45.336437" lon="6.799331">
        <ele>2608.256</ele>
        <time>2018-07-20T14:26:16Z</time>
      </trkpt>
      <trkpt lat="45.336412" lon="6.799386">
        <ele>2609.089</ele>
        <time>2018-07-20T14:26:22Z</time>
      </trkpt>
      <trkpt lat="45.336379" lon="6.799433">
        <ele>2608.341</ele>
        <time>2018-07-20T14:26:27Z</time>
      </trkpt>
      <trkpt lat="45.336356" lon="6.799492">
        <ele>2608.745</ele>
        <time>2018-07-20T14:26:32Z</time>
      </trkpt>
      <trkpt lat="45.336331" lon="6.799546">
        <ele>2607.746</ele>
        <time>2018-07-20T14:26:37Z</time>
      </trkpt>
      <trkpt lat="45.336291" lon="6.799589">
        <ele>2607.588</ele>
        <time>2018-07-20T14:26:42Z</time>
      </trkpt>
      <trkpt lat="45.336283" lon="6.799656">
        <ele>2608.216</ele>
        <time>2018-07-20T14:26:48Z</time>
      </trkpt>
      <trkpt lat="45.336261" lon="6.799718">
        <ele>2608.208</ele>
        <time>2018-07-20T14:26:55Z</time>
      </trkpt>
      <trkpt lat="45.336224" lon="6.799776">
        <ele>2608.626</ele>
        <time>2018-07-20T14:27:00Z</time>
      </trkpt>
      <trkpt lat="45.336188" lon="6.799830">
        <ele>2608.851</ele>
        <time>2018-07-20T14:27:04Z</time>
      </trkpt>
      <trkpt lat="45.336156" lon="6.799885">
        <ele>2607.728</ele>
        <time>2018-07-20T14:27:10Z</time>
      </trkpt>
      <trkpt lat="45.336129" lon="6.799940">
        <ele>2606.733</ele>
        <time>2018-07-20T14:27:18Z</time>
      </trkpt>
      <trkpt lat="45.336110" lon="6.800007">
        <ele>2606.587</ele>
        <time>2018-07-20T14:27:27Z</time>
      </trkpt>
      <trkpt lat="45.336093" lon="6.800074">
        <ele>2607.260</ele>
        <time>2018-07-20T14:27:34Z</time>
      </trkpt>
      <trkpt lat="45.336072" lon="6.800145">
        <ele>2608.842</ele>
        <time>2018-07-20T14:27:41Z</time>
      </trkpt>
      <trkpt lat="45.336059" lon="6.800209">
        <ele>2610.216</ele>
        <time>2018-07-20T14:27:46Z</time>
      </trkpt>
      <trkpt lat="45.336036" lon="6.800265">
        <ele>2611.013</ele>
        <time>2018-07-20T14:27:53Z</time>
      </trkpt>
      <trkpt lat="45.336010" lon="6.800328">
        <ele>2612.343</ele>
        <time>2018-07-20T14:28:00Z</time>
      </trkpt>
      <trkpt lat="45.335991" lon="6.800396">
        <ele>2613.907</ele>
        <time>2018-07-20T14:28:06Z</time>
      </trkpt>
      <trkpt lat="45.335988" lon="6.800460">
        <ele>2614.808</ele>
        <time>2018-07-20T14:28:12Z</time>
      </trkpt>
      <trkpt lat="45.335962" lon="6.800514">
        <ele>2614.633</ele>
        <time>2018-07-20T14:28:18Z</time>
      </trkpt>
      <trkpt lat="45.335938" lon="6.800568">
        <ele>2614.948</ele>
        <time>2018-07-20T14:28:23Z</time>
      </trkpt>
      <trkpt lat="45.335903" lon="6.800615">
        <ele>2615.135</ele>
        <time>2018-07-20T14:28:29Z</time>
      </trkpt>
      <trkpt lat="45.335857" lon="6.800643">
        <ele>2614.020</ele>
        <time>2018-07-20T14:28:37Z</time>
      </trkpt>
      <trkpt lat="45.335810" lon="6.800667">
        <ele>2613.324</ele>
        <time>2018-07-20T14:28:42Z</time>
      </trkpt>
      <trkpt lat="45.335765" lon="6.800689">
        <ele>2614.187</ele>
        <time>2018-07-20T14:28:46Z</time>
      </trkpt>
      <trkpt lat="45.335723" lon="6.800710">
        <ele>2615.449</ele>
        <time>2018-07-20T14:28:50Z</time>
      </trkpt>
      <trkpt lat="45.335673" lon="6.800741">
        <ele>2616.223</ele>
        <time>2018-07-20T14:28:55Z</time>
      </trkpt>
      <trkpt lat="45.335631" lon="6.800765">
        <ele>2617.135</ele>
        <time>2018-07-20T14:28:59Z</time>
      </trkpt>
      <trkpt lat="45.335589" lon="6.800789">
        <ele>2617.686</ele>
        <time>2018-07-20T14:29:03Z</time>
      </trkpt>
      <trkpt lat="45.335543" lon="6.800817">
        <ele>2617.914</ele>
        <time>2018-07-20T14:29:08Z</time>
      </trkpt>
      <trkpt lat="45.335498" lon="6.800851">
        <ele>2618.508</ele>
        <time>2018-07-20T14:29:13Z</time>
      </trkpt>
      <trkpt lat="45.335456" lon="6.800880">
        <ele>2618.935</ele>
        <time>2018-07-20T14:29:18Z</time>
      </trkpt>
      <trkpt lat="45.335409" lon="6.800900">
        <ele>2619.170</ele>
        <time>2018-07-20T14:29:24Z</time>
      </trkpt>
      <trkpt lat="45.335365" lon="6.800920">
        <ele>2619.617</ele>
        <time>2018-07-20T14:29:30Z</time>
      </trkpt>
      <trkpt lat="45.335318" lon="6.800936">
        <ele>2620.742</ele>
        <time>2018-07-20T14:29:37Z</time>
      </trkpt>
      <trkpt lat="45.335271" lon="6.800960">
        <ele>2621.866</ele>
        <time>2018-07-20T14:29:45Z</time>
      </trkpt>
      <trkpt lat="45.335223" lon="6.800968">
        <ele>2622.829</ele>
        <time>2018-07-20T14:29:52Z</time>
      </trkpt>
      <trkpt lat="45.335176" lon="6.800979">
        <ele>2623.821</ele>
        <time>2018-07-20T14:30:00Z</time>
      </trkpt>
      <trkpt lat="45.335130" lon="6.800984">
        <ele>2624.875</ele>
        <time>2018-07-20T14:30:07Z</time>
      </trkpt>
      <trkpt lat="45.335078" lon="6.800997">
        <ele>2625.458</ele>
        <time>2018-07-20T14:30:14Z</time>
      </trkpt>
      <trkpt lat="45.335025" lon="6.801006">
        <ele>2626.252</ele>
        <time>2018-07-20T14:30:20Z</time>
      </trkpt>
      <trkpt lat="45.334974" lon="6.801012">
        <ele>2626.717</ele>
        <time>2018-07-20T14:30:27Z</time>
      </trkpt>
      <trkpt lat="45.334928" lon="6.800999">
        <ele>2627.008</ele>
        <time>2018-07-20T14:30:34Z</time>
      </trkpt>
      <trkpt lat="45.334878" lon="6.800976">
        <ele>2627.687</ele>
        <time>2018-07-20T14:30:41Z</time>
      </trkpt>
      <trkpt lat="45.334835" lon="6.800951">
        <ele>2628.312</ele>
        <time>2018-07-20T14:30:47Z</time>
      </trkpt>
      <trkpt lat="45.334788" lon="6.800933">
        <ele>2628.769</ele>
        <time>2018-07-20T14:30:53Z</time>
      </trkpt>
      <trkpt lat="45.334741" lon="6.800919">
        <ele>2628.654</ele>
        <time>2018-07-20T14:31:00Z</time>
      </trkpt>
      <trkpt lat="45.334693" lon="6.800907">
        <ele>2628.518</ele>
        <time>2018-07-20T14:31:08Z</time>
      </trkpt>
      <trkpt lat="45.334641" lon="6.800896">
        <ele>2628.991</ele>
        <time>2018-07-20T14:31:15Z</time>
      </trkpt>
      <trkpt lat="45.334597" lon="6.800872">
        <ele>2629.133</ele>
        <time>2018-07-20T14:31:20Z</time>
      </trkpt>
      <trkpt lat="45.334552" lon="6.800834">
        <ele>2629.657</ele>
        <time>2018-07-20T14:31:25Z</time>
      </trkpt>
      <trkpt lat="45.334507" lon="6.800809">
        <ele>2629.925</ele>
        <time>2018-07-20T14:31:30Z</time>
      </trkpt>
      <trkpt lat="45.334455" lon="6.800793">
        <ele>2629.726</ele>
        <time>2018-07-20T14:31:36Z</time>
      </trkpt>
      <trkpt lat="45.334409" lon="6.800760">
        <ele>2630.008</ele>
        <time>2018-07-20T14:31:42Z</time>
      </trkpt>
      <trkpt lat="45.334356" lon="6.800741">
        <ele>2630.608</ele>
        <time>2018-07-20T14:31:48Z</time>
      </trkpt>
      <trkpt lat="45.334305" lon="6.800731">
        <ele>2630.984</ele>
        <time>2018-07-20T14:31:53Z</time>
      </trkpt>
      <trkpt lat="45.334262" lon="6.800706">
        <ele>2631.569</ele>
        <time>2018-07-20T14:31:58Z</time>
      </trkpt>
      <trkpt lat="45.334220" lon="6.800681">
        <ele>2631.956</ele>
        <time>2018-07-20T14:32:04Z</time>
      </trkpt>
      <trkpt lat="45.334175" lon="6.800679">
        <ele>2632.591</ele>
        <time>2018-07-20T14:32:09Z</time>
      </trkpt>
      <trkpt lat="45.334135" lon="6.800648">
        <ele>2632.115</ele>
        <time>2018-07-20T14:32:15Z</time>
      </trkpt>
      <trkpt lat="45.334091" lon="6.800619">
        <ele>2632.668</ele>
        <time>2018-07-20T14:32:21Z</time>
      </trkpt>
      <trkpt lat="45.334042" lon="6.800612">
        <ele>2632.520</ele>
        <time>2018-07-20T14:32:27Z</time>
      </trkpt>
      <trkpt lat="45.333997" lon="6.800595">
        <ele>2632.554</ele>
        <time>2018-07-20T14:32:32Z</time>
      </trkpt>
      <trkpt lat="45.333948" lon="6.800578">
        <ele>2632.177</ele>
        <time>2018-07-20T14:32:39Z</time>
      </trkpt>
      <trkpt lat="45.333901" lon="6.800590">
        <ele>2632.661</ele>
        <time>2018-07-20T14:32:46Z</time>
      </trkpt>
      <trkpt lat="45.333851" lon="6.800585">
        <ele>2632.927</ele>
        <time>2018-07-20T14:32:53Z</time>
      </trkpt>
      <trkpt lat="45.333807" lon="6.800554">
        <ele>2632.708</ele>
        <time>2018-07-20T14:33:00Z</time>
      </trkpt>
      <trkpt lat="45.333764" lon="6.800525">
        <ele>2632.699</ele>
        <time>2018-07-20T14:33:06Z</time>
      </trkpt>
      <trkpt lat="45.333721" lon="6.800501">
        <ele>2632.554</ele>
        <time>2018-07-20T14:33:12Z</time>
      </trkpt>
      <trkpt lat="45.333676" lon="6.800484">
        <ele>2632.111</ele>
        <time>2018-07-20T14:33:18Z</time>
      </trkpt>
      <trkpt lat="45.333631" lon="6.800471">
        <ele>2631.446</ele>
        <time>2018-07-20T14:33:23Z</time>
      </trkpt>
      <trkpt lat="45.333586" lon="6.800440">
        <ele>2631.010</ele>
        <time>2018-07-20T14:33:29Z</time>
      </trkpt>
      <trkpt lat="45.333543" lon="6.800411">
        <ele>2630.843</ele>
        <time>2018-07-20T14:33:35Z</time>
      </trkpt>
      <trkpt lat="45.333495" lon="6.800406">
        <ele>2630.725</ele>
        <time>2018-07-20T14:33:40Z</time>
      </trkpt>
      <trkpt lat="45.333446" lon="6.800403">
        <ele>2631.429</ele>
        <time>2018-07-20T14:33:48Z</time>
      </trkpt>
      <trkpt lat="45.333403" lon="6.800377">
        <ele>2631.822</ele>
        <time>2018-07-20T14:33:54Z</time>
      </trkpt>
      <trkpt lat="45.333358" lon="6.800347">
        <ele>2632.562</ele>
        <time>2018-07-20T14:34:00Z</time>
      </trkpt>
      <trkpt lat="45.333310" lon="6.800334">
        <ele>2632.508</ele>
        <time>2018-07-20T14:34:08Z</time>
      </trkpt>
      <trkpt lat="45.333268" lon="6.800298">
        <ele>2631.708</ele>
        <time>2018-07-20T14:34:14Z</time>
      </trkpt>
      <trkpt lat="45.333223" lon="6.800270">
        <ele>2631.284</ele>
        <time>2018-07-20T14:35:16Z</time>
      </trkpt>
      <trkpt lat="45.333184" lon="6.800222">
        <ele>2630.969</ele>
        <time>2018-07-20T14:35:22Z</time>
      </trkpt>
      <trkpt lat="45.333140" lon="6.800202">
        <ele>2630.776</ele>
        <time>2018-07-20T14:35:27Z</time>
      </trkpt>
      <trkpt lat="45.333103" lon="6.800155">
        <ele>2630.231</ele>
        <time>2018-07-20T14:35:33Z</time>
      </trkpt>
      <trkpt lat="45.333065" lon="6.800116">
        <ele>2629.575</ele>
        <time>2018-07-20T14:35:38Z</time>
      </trkpt>
      <trkpt lat="45.333018" lon="6.800105">
        <ele>2628.798</ele>
        <time>2018-07-20T14:35:43Z</time>
      </trkpt>
      <trkpt lat="45.332971" lon="6.800093">
        <ele>2627.820</ele>
        <time>2018-07-20T14:35:48Z</time>
      </trkpt>
      <trkpt lat="45.332927" lon="6.800075">
        <ele>2627.354</ele>
        <time>2018-07-20T14:35:53Z</time>
      </trkpt>
      <trkpt lat="45.332886" lon="6.800038">
        <ele>2626.631</ele>
        <time>2018-07-20T14:35:58Z</time>
      </trkpt>
      <trkpt lat="45.332846" lon="6.800005">
        <ele>2626.261</ele>
        <time>2018-07-20T14:36:03Z</time>
      </trkpt>
      <trkpt lat="45.332800" lon="6.799984">
        <ele>2625.907</ele>
        <time>2018-07-20T14:36:08Z</time>
      </trkpt>
      <trkpt lat="45.332756" lon="6.799966">
        <ele>2625.708</ele>
        <time>2018-07-20T14:36:13Z</time>
      </trkpt>
      <trkpt lat="45.332712" lon="6.799941">
        <ele>2625.615</ele>
        <time>2018-07-20T14:36:18Z</time>
      </trkpt>
      <trkpt lat="45.332668" lon="6.799923">
        <ele>2625.590</ele>
        <time>2018-07-20T14:36:23Z</time>
      </trkpt>
      <trkpt lat="45.332620" lon="6.799914">
        <ele>2624.727</ele>
        <time>2018-07-20T14:36:29Z</time>
      </trkpt>
      <trkpt lat="45.332567" lon="6.799905">
        <ele>2623.862</ele>
        <time>2018-07-20T14:36:35Z</time>
      </trkpt>
      <trkpt lat="45.332518" lon="6.799886">
        <ele>2622.966</ele>
        <time>2018-07-20T14:36:40Z</time>
      </trkpt>
      <trkpt lat="45.332465" lon="6.799870">
        <ele>2622.799</ele>
        <time>2018-07-20T14:36:45Z</time>
      </trkpt>
      <trkpt lat="45.332413" lon="6.799850">
        <ele>2622.221</ele>
        <time>2018-07-20T14:36:50Z</time>
      </trkpt>
      <trkpt lat="45.332363" lon="6.799821">
        <ele>2621.995</ele>
        <time>2018-07-20T14:36:55Z</time>
      </trkpt>
      <trkpt lat="45.332316" lon="6.799785">
        <ele>2621.714</ele>
        <time>2018-07-20T14:37:00Z</time>
      </trkpt>
      <trkpt lat="45.332270" lon="6.799759">
        <ele>2621.654</ele>
        <time>2018-07-20T14:37:05Z</time>
      </trkpt>
      <trkpt lat="45.332218" lon="6.799753">
        <ele>2621.109</ele>
        <time>2018-07-20T14:37:10Z</time>
      </trkpt>
      <trkpt lat="45.332167" lon="6.799762">
        <ele>2620.808</ele>
        <time>2018-07-20T14:37:15Z</time>
      </trkpt>
      <trkpt lat="45.332118" lon="6.799766">
        <ele>2620.623</ele>
        <time>2018-07-20T14:37:20Z</time>
      </trkpt>
      <trkpt lat="45.332069" lon="6.799756">
        <ele>2620.138</ele>
        <time>2018-07-20T14:37:25Z</time>
      </trkpt>
      <trkpt lat="45.332017" lon="6.799740">
        <ele>2619.895</ele>
        <time>2018-07-20T14:37:30Z</time>
      </trkpt>
      <trkpt lat="45.331968" lon="6.799722">
        <ele>2619.670</ele>
        <time>2018-07-20T14:37:36Z</time>
      </trkpt>
      <trkpt lat="45.331929" lon="6.799690">
        <ele>2619.944</ele>
        <time>2018-07-20T14:37:52Z</time>
      </trkpt>
      <trkpt lat="45.331885" lon="6.799651">
        <ele>2620.547</ele>
        <time>2018-07-20T14:37:59Z</time>
      </trkpt>
      <trkpt lat="45.331835" lon="6.799626">
        <ele>2620.429</ele>
        <time>2018-07-20T14:38:05Z</time>
      </trkpt>
      <trkpt lat="45.331786" lon="6.799609">
        <ele>2620.473</ele>
        <time>2018-07-20T14:38:10Z</time>
      </trkpt>
      <trkpt lat="45.331735" lon="6.799594">
        <ele>2620.094</ele>
        <time>2018-07-20T14:38:16Z</time>
      </trkpt>
      <trkpt lat="45.331689" lon="6.799602">
        <ele>2619.757</ele>
        <time>2018-07-20T14:38:22Z</time>
      </trkpt>
      <trkpt lat="45.331642" lon="6.799605">
        <ele>2619.922</ele>
        <time>2018-07-20T14:38:35Z</time>
      </trkpt>
      <trkpt lat="45.331596" lon="6.799589">
        <ele>2619.608</ele>
        <time>2018-07-20T14:38:40Z</time>
      </trkpt>
      <trkpt lat="45.331548" lon="6.799580">
        <ele>2619.481</ele>
        <time>2018-07-20T14:38:45Z</time>
      </trkpt>
      <trkpt lat="45.331503" lon="6.799559">
        <ele>2619.716</ele>
        <time>2018-07-20T14:38:50Z</time>
      </trkpt>
      <trkpt lat="45.331457" lon="6.799550">
        <ele>2620.363</ele>
        <time>2018-07-20T14:38:57Z</time>
      </trkpt>
      <trkpt lat="45.331410" lon="6.799560">
        <ele>2620.718</ele>
        <time>2018-07-20T14:39:05Z</time>
      </trkpt>
      <trkpt lat="45.331356" lon="6.799553">
        <ele>2621.362</ele>
        <time>2018-07-20T14:39:11Z</time>
      </trkpt>
      <trkpt lat="45.331311" lon="6.799544">
        <ele>2621.745</ele>
        <time>2018-07-20T14:39:16Z</time>
      </trkpt>
      <trkpt lat="45.331267" lon="6.799505">
        <ele>2621.537</ele>
        <time>2018-07-20T14:39:23Z</time>
      </trkpt>
      <trkpt lat="45.331223" lon="6.799474">
        <ele>2621.831</ele>
        <time>2018-07-20T14:39:40Z</time>
      </trkpt>
      <trkpt lat="45.331193" lon="6.799421">
        <ele>2622.497</ele>
        <time>2018-07-20T14:39:49Z</time>
      </trkpt>
      <trkpt lat="45.331154" lon="6.799385">
        <ele>2622.723</ele>
        <time>2018-07-20T14:39:57Z</time>
      </trkpt>
      <trkpt lat="45.331118" lon="6.799341">
        <ele>2622.525</ele>
        <time>2018-07-20T14:40:06Z</time>
      </trkpt>
      <trkpt lat="45.331087" lon="6.799289">
        <ele>2622.008</ele>
        <time>2018-07-20T14:40:12Z</time>
      </trkpt>
      <trkpt lat="45.331053" lon="6.799244">
        <ele>2621.341</ele>
        <time>2018-07-20T14:40:19Z</time>
      </trkpt>
      <trkpt lat="45.331009" lon="6.799216">
        <ele>2620.586</ele>
        <time>2018-07-20T14:40:27Z</time>
      </trkpt>
      <trkpt lat="45.330966" lon="6.799176">
        <ele>2620.033</ele>
        <time>2018-07-20T14:40:34Z</time>
      </trkpt>
      <trkpt lat="45.330921" lon="6.799151">
        <ele>2619.398</ele>
        <time>2018-07-20T14:40:40Z</time>
      </trkpt>
      <trkpt lat="45.330869" lon="6.799150">
        <ele>2618.582</ele>
        <time>2018-07-20T14:40:46Z</time>
      </trkpt>
      <trkpt lat="45.330820" lon="6.799135">
        <ele>2617.655</ele>
        <time>2018-07-20T14:40:52Z</time>
      </trkpt>
      <trkpt lat="45.330776" lon="6.799111">
        <ele>2617.147</ele>
        <time>2018-07-20T14:40:57Z</time>
      </trkpt>
      <trkpt lat="45.330734" lon="6.799082">
        <ele>2616.831</ele>
        <time>2018-07-20T14:41:02Z</time>
      </trkpt>
      <trkpt lat="45.330690" lon="6.799060">
        <ele>2616.275</ele>
        <time>2018-07-20T14:41:08Z</time>
      </trkpt>
      <trkpt lat="45.330641" lon="6.799064">
        <ele>2615.428</ele>
        <time>2018-07-20T14:41:14Z</time>
      </trkpt>
      <trkpt lat="45.330589" lon="6.799078">
        <ele>2614.920</ele>
        <time>2018-07-20T14:41:19Z</time>
      </trkpt>
      <trkpt lat="45.330544" lon="6.799070">
        <ele>2614.608</ele>
        <time>2018-07-20T14:41:24Z</time>
      </trkpt>
      <trkpt lat="45.330503" lon="6.799035">
        <ele>2614.449</ele>
        <time>2018-07-20T14:41:30Z</time>
      </trkpt>
      <trkpt lat="45.330457" lon="6.799045">
        <ele>2614.754</ele>
        <time>2018-07-20T14:41:36Z</time>
      </trkpt>
      <trkpt lat="45.330407" lon="6.799028">
        <ele>2614.931</ele>
        <time>2018-07-20T14:41:43Z</time>
      </trkpt>
      <trkpt lat="45.330360" lon="6.799002">
        <ele>2615.036</ele>
        <time>2018-07-20T14:41:48Z</time>
      </trkpt>
      <trkpt lat="45.330316" lon="6.798973">
        <ele>2614.760</ele>
        <time>2018-07-20T14:41:53Z</time>
      </trkpt>
      <trkpt lat="45.330272" lon="6.798935">
        <ele>2614.543</ele>
        <time>2018-07-20T14:41:58Z</time>
      </trkpt>
      <trkpt lat="45.330227" lon="6.798897">
        <ele>2614.475</ele>
        <time>2018-07-20T14:42:04Z</time>
      </trkpt>
      <trkpt lat="45.330199" lon="6.798840">
        <ele>2615.119</ele>
        <time>2018-07-20T14:42:12Z</time>
      </trkpt>
      <trkpt lat="45.330171" lon="6.798781">
        <ele>2615.166</ele>
        <time>2018-07-20T14:42:19Z</time>
      </trkpt>
      <trkpt lat="45.330132" lon="6.798740">
        <ele>2615.129</ele>
        <time>2018-07-20T14:42:26Z</time>
      </trkpt>
      <trkpt lat="45.330085" lon="6.798725">
        <ele>2614.721</ele>
        <time>2018-07-20T14:42:34Z</time>
      </trkpt>
      <trkpt lat="45.330040" lon="6.798758">
        <ele>2614.908</ele>
        <time>2018-07-20T14:42:47Z</time>
      </trkpt>
      <trkpt lat="45.329994" lon="6.798748">
        <ele>2614.648</ele>
        <time>2018-07-20T14:42:53Z</time>
      </trkpt>
      <trkpt lat="45.329947" lon="6.798737">
        <ele>2613.273</ele>
        <time>2018-07-20T14:43:03Z</time>
      </trkpt>
      <trkpt lat="45.329900" lon="6.798722">
        <ele>2612.430</ele>
        <time>2018-07-20T14:43:11Z</time>
      </trkpt>
      <trkpt lat="45.329853" lon="6.798698">
        <ele>2611.925</ele>
        <time>2018-07-20T14:43:19Z</time>
      </trkpt>
      <trkpt lat="45.329807" lon="6.798674">
        <ele>2611.219</ele>
        <time>2018-07-20T14:43:25Z</time>
      </trkpt>
      <trkpt lat="45.329756" lon="6.798666">
        <ele>2610.882</ele>
        <time>2018-07-20T14:43:32Z</time>
      </trkpt>
      <trkpt lat="45.329715" lon="6.798629">
        <ele>2610.974</ele>
        <time>2018-07-20T14:43:38Z</time>
      </trkpt>
      <trkpt lat="45.329669" lon="6.798601">
        <ele>2610.228</ele>
        <time>2018-07-20T14:43:50Z</time>
      </trkpt>
      <trkpt lat="45.329633" lon="6.798561">
        <ele>2610.283</ele>
        <time>2018-07-20T14:43:57Z</time>
      </trkpt>
      <trkpt lat="45.329625" lon="6.798496">
        <ele>2610.625</ele>
        <time>2018-07-20T14:44:07Z</time>
      </trkpt>
      <trkpt lat="45.329596" lon="6.798440">
        <ele>2610.817</ele>
        <time>2018-07-20T14:44:15Z</time>
      </trkpt>
      <trkpt lat="45.329546" lon="6.798419">
        <ele>2610.908</ele>
        <time>2018-07-20T14:44:23Z</time>
      </trkpt>
      <trkpt lat="45.329497" lon="6.798426">
        <ele>2611.490</ele>
        <time>2018-07-20T14:44:31Z</time>
      </trkpt>
      <trkpt lat="45.329458" lon="6.798472">
        <ele>2611.755</ele>
        <time>2018-07-20T14:44:39Z</time>
      </trkpt>
      <trkpt lat="45.329422" lon="6.798518">
        <ele>2610.752</ele>
        <time>2018-07-20T14:44:50Z</time>
      </trkpt>
      <trkpt lat="45.329381" lon="6.798478">
        <ele>2610.567</ele>
        <time>2018-07-20T14:45:00Z</time>
      </trkpt>
      <trkpt lat="45.329367" lon="6.798408">
        <ele>2610.051</ele>
        <time>2018-07-20T14:45:09Z</time>
      </trkpt>
      <trkpt lat="45.329339" lon="6.798351">
        <ele>2609.344</ele>
        <time>2018-07-20T14:45:15Z</time>
      </trkpt>
      <trkpt lat="45.329296" lon="6.798321">
        <ele>2609.316</ele>
        <time>2018-07-20T14:45:24Z</time>
      </trkpt>
      <trkpt lat="45.329256" lon="6.798283">
        <ele>2609.320</ele>
        <time>2018-07-20T14:45:34Z</time>
      </trkpt>
      <trkpt lat="45.329214" lon="6.798252">
        <ele>2608.134</ele>
        <time>2018-07-20T14:45:45Z</time>
      </trkpt>
      <trkpt lat="45.329169" lon="6.798239">
        <ele>2607.055</ele>
        <time>2018-07-20T14:45:55Z</time>
      </trkpt>
      <trkpt lat="45.329127" lon="6.798208">
        <ele>2605.910</ele>
        <time>2018-07-20T14:46:03Z</time>
      </trkpt>
      <trkpt lat="45.329090" lon="6.798168">
        <ele>2604.908</ele>
        <time>2018-07-20T14:46:10Z</time>
      </trkpt>
      <trkpt lat="45.329062" lon="6.798115">
        <ele>2604.795</ele>
        <time>2018-07-20T14:46:16Z</time>
      </trkpt>
      <trkpt lat="45.329025" lon="6.798070">
        <ele>2605.050</ele>
        <time>2018-07-20T14:46:22Z</time>
      </trkpt>
      <trkpt lat="45.328998" lon="6.798016">
        <ele>2604.497</ele>
        <time>2018-07-20T14:46:29Z</time>
      </trkpt>
      <trkpt lat="45.328973" lon="6.797950">
        <ele>2603.222</ele>
        <time>2018-07-20T14:46:35Z</time>
      </trkpt>
      <trkpt lat="45.328949" lon="6.797894">
        <ele>2602.536</ele>
        <time>2018-07-20T14:46:40Z</time>
      </trkpt>
      <trkpt lat="45.328913" lon="6.797845">
        <ele>2602.129</ele>
        <time>2018-07-20T14:46:46Z</time>
      </trkpt>
      <trkpt lat="45.328902" lon="6.797777">
        <ele>2601.471</ele>
        <time>2018-07-20T14:46:56Z</time>
      </trkpt>
      <trkpt lat="45.328868" lon="6.797728">
        <ele>2602.235</ele>
        <time>2018-07-20T14:47:06Z</time>
      </trkpt>
      <trkpt lat="45.328833" lon="6.797683">
        <ele>2602.791</ele>
        <time>2018-07-20T14:47:14Z</time>
      </trkpt>
      <trkpt lat="45.328805" lon="6.797630">
        <ele>2602.681</ele>
        <time>2018-07-20T14:47:28Z</time>
      </trkpt>
      <trkpt lat="45.328791" lon="6.797569">
        <ele>2603.319</ele>
        <time>2018-07-20T14:47:40Z</time>
      </trkpt>
      <trkpt lat="45.328752" lon="6.797526">
        <ele>2604.108</ele>
        <time>2018-07-20T14:47:49Z</time>
      </trkpt>
      <trkpt lat="45.328704" lon="6.797532">
        <ele>2603.451</ele>
        <time>2018-07-20T14:48:03Z</time>
      </trkpt>
      <trkpt lat="45.328661" lon="6.797512">
        <ele>2603.476</ele>
        <time>2018-07-20T14:48:10Z</time>
      </trkpt>
      <trkpt lat="45.328636" lon="6.797450">
        <ele>2603.863</ele>
        <time>2018-07-20T14:48:17Z</time>
      </trkpt>
      <trkpt lat="45.328628" lon="6.797386">
        <ele>2605.658</ele>
        <time>2018-07-20T14:48:45Z</time>
      </trkpt>
      <trkpt lat="45.328588" lon="6.797352">
        <ele>2607.512</ele>
        <time>2018-07-20T14:48:57Z</time>
      </trkpt>
      <trkpt lat="45.328543" lon="6.797324">
        <ele>2609.085</ele>
        <time>2018-07-20T14:49:05Z</time>
      </trkpt>
      <trkpt lat="45.328500" lon="6.797287">
        <ele>2610.367</ele>
        <time>2018-07-20T14:49:12Z</time>
      </trkpt>
      <trkpt lat="45.328458" lon="6.797264">
        <ele>2611.161</ele>
        <time>2018-07-20T14:49:19Z</time>
      </trkpt>
      <trkpt lat="45.328413" lon="6.797244">
        <ele>2611.216</ele>
        <time>2018-07-20T14:49:26Z</time>
      </trkpt>
      <trkpt lat="45.328369" lon="6.797205">
        <ele>2610.476</ele>
        <time>2018-07-20T14:49:33Z</time>
      </trkpt>
      <trkpt lat="45.328347" lon="6.797265">
        <ele>2608.313</ele>
        <time>2018-07-20T14:49:57Z</time>
      </trkpt>
      <trkpt lat="45.328367" lon="6.797324">
        <ele>2606.308</ele>
        <time>2018-07-20T14:50:08Z</time>
      </trkpt>
      <trkpt lat="45.328322" lon="6.797313">
        <ele>2605.183</ele>
        <time>2018-07-20T14:50:19Z</time>
      </trkpt>
      <trkpt lat="45.328278" lon="6.797275">
        <ele>2604.438</ele>
        <time>2018-07-20T14:50:26Z</time>
      </trkpt>
      <trkpt lat="45.328232" lon="6.797251">
        <ele>2603.215</ele>
        <time>2018-07-20T14:50:34Z</time>
      </trkpt>
      <trkpt lat="45.328185" lon="6.797236">
        <ele>2602.180</ele>
        <time>2018-07-20T14:50:43Z</time>
      </trkpt>
      <trkpt lat="45.328135" lon="6.797225">
        <ele>2600.674</ele>
        <time>2018-07-20T14:50:52Z</time>
      </trkpt>
      <trkpt lat="45.328093" lon="6.797190">
        <ele>2599.337</ele>
        <time>2018-07-20T14:50:59Z</time>
      </trkpt>
      <trkpt lat="45.328048" lon="6.797183">
        <ele>2598.129</ele>
        <time>2018-07-20T14:51:08Z</time>
      </trkpt>
      <trkpt lat="45.328003" lon="6.797172">
        <ele>2597.043</ele>
        <time>2018-07-20T14:51:15Z</time>
      </trkpt>
      <trkpt lat="45.327958" lon="6.797165">
        <ele>2596.357</ele>
        <time>2018-07-20T14:51:23Z</time>
      </trkpt>
      <trkpt lat="45.327912" lon="6.797169">
        <ele>2595.500</ele>
        <time>2018-07-20T14:51:30Z</time>
      </trkpt>
      <trkpt lat="45.327865" lon="6.797158">
        <ele>2594.620</ele>
        <time>2018-07-20T14:51:37Z</time>
      </trkpt>
      <trkpt lat="45.327819" lon="6.797149">
        <ele>2593.308</ele>
        <time>2018-07-20T14:51:43Z</time>
      </trkpt>
      <trkpt lat="45.327770" lon="6.797144">
        <ele>2591.717</ele>
        <time>2018-07-20T14:51:49Z</time>
      </trkpt>
      <trkpt lat="45.327722" lon="6.797156">
        <ele>2590.312</ele>
        <time>2018-07-20T14:51:58Z</time>
      </trkpt>
      <trkpt lat="45.327674" lon="6.797156">
        <ele>2589.179</ele>
        <time>2018-07-20T14:52:06Z</time>
      </trkpt>
      <trkpt lat="45.327626" lon="6.797146">
        <ele>2587.614</ele>
        <time>2018-07-20T14:52:13Z</time>
      </trkpt>
      <trkpt lat="45.327579" lon="6.797142">
        <ele>2586.758</ele>
        <time>2018-07-20T14:52:28Z</time>
      </trkpt>
      <trkpt lat="45.327529" lon="6.797142">
        <ele>2585.771</ele>
        <time>2018-07-20T14:52:38Z</time>
      </trkpt>
      <trkpt lat="45.327478" lon="6.797139">
        <ele>2584.333</ele>
        <time>2018-07-20T14:52:46Z</time>
      </trkpt>
      <trkpt lat="45.327428" lon="6.797127">
        <ele>2583.547</ele>
        <time>2018-07-20T14:52:53Z</time>
      </trkpt>
      <trkpt lat="45.327381" lon="6.797140">
        <ele>2582.618</ele>
        <time>2018-07-20T14:52:59Z</time>
      </trkpt>
      <trkpt lat="45.327333" lon="6.797135">
        <ele>2581.798</ele>
        <time>2018-07-20T14:53:06Z</time>
      </trkpt>
      <trkpt lat="45.327282" lon="6.797123">
        <ele>2581.117</ele>
        <time>2018-07-20T14:53:13Z</time>
      </trkpt>
      <trkpt lat="45.327234" lon="6.797109">
        <ele>2580.008</ele>
        <time>2018-07-20T14:53:20Z</time>
      </trkpt>
      <trkpt lat="45.327187" lon="6.797092">
        <ele>2578.973</ele>
        <time>2018-07-20T14:53:28Z</time>
      </trkpt>
      <trkpt lat="45.327142" lon="6.797104">
        <ele>2577.588</ele>
        <time>2018-07-20T14:53:37Z</time>
      </trkpt>
      <trkpt lat="45.327092" lon="6.797105">
        <ele>2576.225</ele>
        <time>2018-07-20T14:53:44Z</time>
      </trkpt>
      <trkpt lat="45.327045" lon="6.797118">
        <ele>2575.050</ele>
        <time>2018-07-20T14:53:50Z</time>
      </trkpt>
      <trkpt lat="45.326998" lon="6.797106">
        <ele>2573.974</ele>
        <time>2018-07-20T14:53:56Z</time>
      </trkpt>
      <trkpt lat="45.326948" lon="6.797087">
        <ele>2572.497</ele>
        <time>2018-07-20T14:54:03Z</time>
      </trkpt>
      <trkpt lat="45.326905" lon="6.797064">
        <ele>2571.199</ele>
        <time>2018-07-20T14:54:10Z</time>
      </trkpt>
      <trkpt lat="45.326861" lon="6.797043">
        <ele>2569.963</ele>
        <time>2018-07-20T14:54:16Z</time>
      </trkpt>
      <trkpt lat="45.326812" lon="6.797029">
        <ele>2569.212</ele>
        <time>2018-07-20T14:54:24Z</time>
      </trkpt>
      <trkpt lat="45.326766" lon="6.797045">
        <ele>2568.832</ele>
        <time>2018-07-20T14:54:36Z</time>
      </trkpt>
      <trkpt lat="45.326717" lon="6.797051">
        <ele>2568.105</ele>
        <time>2018-07-20T14:54:43Z</time>
      </trkpt>
      <trkpt lat="45.326670" lon="6.797050">
        <ele>2567.708</ele>
        <time>2018-07-20T14:54:50Z</time>
      </trkpt>
      <trkpt lat="45.326634" lon="6.797089">
        <ele>2567.173</ele>
        <time>2018-07-20T14:55:03Z</time>
      </trkpt>
      <trkpt lat="45.326587" lon="6.797076">
        <ele>2565.998</ele>
        <time>2018-07-20T14:55:13Z</time>
      </trkpt>
      <trkpt lat="45.326537" lon="6.797079">
        <ele>2564.075</ele>
        <time>2018-07-20T14:55:29Z</time>
      </trkpt>
      <trkpt lat="45.326487" lon="6.797063">
        <ele>2562.510</ele>
        <time>2018-07-20T14:55:36Z</time>
      </trkpt>
      <trkpt lat="45.326442" lon="6.797046">
        <ele>2561.614</ele>
        <time>2018-07-20T14:55:44Z</time>
      </trkpt>
      <trkpt lat="45.326401" lon="6.797014">
        <ele>2561.097</ele>
        <time>2018-07-20T14:55:50Z</time>
      </trkpt>
      <trkpt lat="45.326354" lon="6.797005">
        <ele>2560.359</ele>
        <time>2018-07-20T14:55:58Z</time>
      </trkpt>
      <trkpt lat="45.326307" lon="6.797005">
        <ele>2559.153</ele>
        <time>2018-07-20T14:56:07Z</time>
      </trkpt>
      <trkpt lat="45.326257" lon="6.797009">
        <ele>2558.425</ele>
        <time>2018-07-20T14:56:13Z</time>
      </trkpt>
      <trkpt lat="45.326216" lon="6.796961">
        <ele>2558.026</ele>
        <time>2018-07-20T14:56:19Z</time>
      </trkpt>
      <trkpt lat="45.326176" lon="6.796914">
        <ele>2557.708</ele>
        <time>2018-07-20T14:56:25Z</time>
      </trkpt>
      <trkpt lat="45.326132" lon="6.796891">
        <ele>2556.708</ele>
        <time>2018-07-20T14:56:32Z</time>
      </trkpt>
      <trkpt lat="45.326084" lon="6.796872">
        <ele>2556.144</ele>
        <time>2018-07-20T14:56:40Z</time>
      </trkpt>
      <trkpt lat="45.326055" lon="6.796821">
        <ele>2555.889</ele>
        <time>2018-07-20T14:56:45Z</time>
      </trkpt>
      <trkpt lat="45.326018" lon="6.796783">
        <ele>2555.686</ele>
        <time>2018-07-20T14:56:51Z</time>
      </trkpt>
      <trkpt lat="45.325973" lon="6.796783">
        <ele>2555.981</ele>
        <time>2018-07-20T14:57:13Z</time>
      </trkpt>
      <trkpt lat="45.325926" lon="6.796798">
        <ele>2555.365</ele>
        <time>2018-07-20T14:57:24Z</time>
      </trkpt>
      <trkpt lat="45.325888" lon="6.796850">
        <ele>2554.158</ele>
        <time>2018-07-20T14:57:46Z</time>
      </trkpt>
      <trkpt lat="45.325846" lon="6.796875">
        <ele>2553.470</ele>
        <time>2018-07-20T14:57:51Z</time>
      </trkpt>
      <trkpt lat="45.325797" lon="6.796896">
        <ele>2552.634</ele>
        <time>2018-07-20T14:57:57Z</time>
      </trkpt>
      <trkpt lat="45.325750" lon="6.796886">
        <ele>2550.945</ele>
        <time>2018-07-20T14:59:33Z</time>
      </trkpt>
      <trkpt lat="45.325704" lon="6.796879">
        <ele>2549.547</ele>
        <time>2018-07-20T14:59:39Z</time>
      </trkpt>
      <trkpt lat="45.325659" lon="6.796884">
        <ele>2548.211</ele>
        <time>2018-07-20T14:59:46Z</time>
      </trkpt>
      <trkpt lat="45.325613" lon="6.796890">
        <ele>2547.008</ele>
        <time>2018-07-20T14:59:57Z</time>
      </trkpt>
      <trkpt lat="45.325567" lon="6.796913">
        <ele>2546.376</ele>
        <time>2018-07-20T15:00:06Z</time>
      </trkpt>
      <trkpt lat="45.325524" lon="6.796934">
        <ele>2545.171</ele>
        <time>2018-07-20T15:00:21Z</time>
      </trkpt>
      <trkpt lat="45.325474" lon="6.796938">
        <ele>2544.048</ele>
        <time>2018-07-20T15:00:30Z</time>
      </trkpt>
      <trkpt lat="45.325433" lon="6.796965">
        <ele>2542.953</ele>
        <time>2018-07-20T15:00:50Z</time>
      </trkpt>
      <trkpt lat="45.325388" lon="6.796980">
        <ele>2541.137</ele>
        <time>2018-07-20T15:01:23Z</time>
      </trkpt>
      <trkpt lat="45.325340" lon="6.796973">
        <ele>2540.070</ele>
        <time>2018-07-20T15:01:36Z</time>
      </trkpt>
      <trkpt lat="45.325290" lon="6.796973">
        <ele>2538.972</ele>
        <time>2018-07-20T15:01:55Z</time>
      </trkpt>
      <trkpt lat="45.325242" lon="6.796987">
        <ele>2537.976</ele>
        <time>2018-07-20T15:02:04Z</time>
      </trkpt>
      <trkpt lat="45.325194" lon="6.796991">
        <ele>2537.315</ele>
        <time>2018-07-20T15:02:09Z</time>
      </trkpt>
      <trkpt lat="45.325145" lon="6.797004">
        <ele>2536.565</ele>
        <time>2018-07-20T15:02:14Z</time>
      </trkpt>
      <trkpt lat="45.325094" lon="6.797014">
        <ele>2536.011</ele>
        <time>2018-07-20T15:02:19Z</time>
      </trkpt>
      <trkpt lat="45.325041" lon="6.797013">
        <ele>2534.908</ele>
        <time>2018-07-20T15:02:25Z</time>
      </trkpt>
      <trkpt lat="45.324992" lon="6.796992">
        <ele>2534.323</ele>
        <time>2018-07-20T15:02:30Z</time>
      </trkpt>
      <trkpt lat="45.324937" lon="6.796982">
        <ele>2533.948</ele>
        <time>2018-07-20T15:02:35Z</time>
      </trkpt>
      <trkpt lat="45.324886" lon="6.796975">
        <ele>2534.155</ele>
        <time>2018-07-20T15:02:40Z</time>
      </trkpt>
      <trkpt lat="45.324838" lon="6.796971">
        <ele>2533.810</ele>
        <time>2018-07-20T15:02:45Z</time>
      </trkpt>
      <trkpt lat="45.324792" lon="6.796966">
        <ele>2533.654</ele>
        <time>2018-07-20T15:02:50Z</time>
      </trkpt>
      <trkpt lat="45.324744" lon="6.796958">
        <ele>2533.597</ele>
        <time>2018-07-20T15:02:55Z</time>
      </trkpt>
      <trkpt lat="45.324698" lon="6.796959">
        <ele>2533.469</ele>
        <time>2018-07-20T15:03:01Z</time>
      </trkpt>
      <trkpt lat="45.324647" lon="6.796936">
        <ele>2533.473</ele>
        <time>2018-07-20T15:03:09Z</time>
      </trkpt>
      <trkpt lat="45.324603" lon="6.796923">
        <ele>2533.495</ele>
        <time>2018-07-20T15:03:15Z</time>
      </trkpt>
      <trkpt lat="45.324557" lon="6.796914">
        <ele>2533.449</ele>
        <time>2018-07-20T15:03:25Z</time>
      </trkpt>
      <trkpt lat="45.324509" lon="6.796904">
        <ele>2532.223</ele>
        <time>2018-07-20T15:03:40Z</time>
      </trkpt>
      <trkpt lat="45.324462" lon="6.796900">
        <ele>2531.108</ele>
        <time>2018-07-20T15:03:46Z</time>
      </trkpt>
      <trkpt lat="45.324419" lon="6.796874">
        <ele>2530.021</ele>
        <time>2018-07-20T15:03:52Z</time>
      </trkpt>
      <trkpt lat="45.324375" lon="6.796857">
        <ele>2529.456</ele>
        <time>2018-07-20T15:04:00Z</time>
      </trkpt>
      <trkpt lat="45.324325" lon="6.796848">
        <ele>2528.613</ele>
        <time>2018-07-20T15:04:07Z</time>
      </trkpt>
      <trkpt lat="45.324280" lon="6.796837">
        <ele>2528.178</ele>
        <time>2018-07-20T15:04:12Z</time>
      </trkpt>
      <trkpt lat="45.324229" lon="6.796830">
        <ele>2527.832</ele>
        <time>2018-07-20T15:04:18Z</time>
      </trkpt>
      <trkpt lat="45.324182" lon="6.796807">
        <ele>2527.615</ele>
        <time>2018-07-20T15:04:25Z</time>
      </trkpt>
      <trkpt lat="45.324137" lon="6.796800">
        <ele>2526.767</ele>
        <time>2018-07-20T15:04:37Z</time>
      </trkpt>
      <trkpt lat="45.324092" lon="6.796819">
        <ele>2525.471</ele>
        <time>2018-07-20T15:04:45Z</time>
      </trkpt>
      <trkpt lat="45.324054" lon="6.796865">
        <ele>2524.236</ele>
        <time>2018-07-20T15:04:54Z</time>
      </trkpt>
      <trkpt lat="45.324008" lon="6.796877">
        <ele>2522.717</ele>
        <time>2018-07-20T15:05:02Z</time>
      </trkpt>
      <trkpt lat="45.323965" lon="6.796903">
        <ele>2520.618</ele>
        <time>2018-07-20T15:05:12Z</time>
      </trkpt>
      <trkpt lat="45.323917" lon="6.796895">
        <ele>2518.908</ele>
        <time>2018-07-20T15:05:21Z</time>
      </trkpt>
      <trkpt lat="45.323867" lon="6.796906">
        <ele>2517.175</ele>
        <time>2018-07-20T15:05:32Z</time>
      </trkpt>
      <trkpt lat="45.323819" lon="6.796907">
        <ele>2515.270</ele>
        <time>2018-07-20T15:05:42Z</time>
      </trkpt>
      <trkpt lat="45.323773" lon="6.796911">
        <ele>2513.317</ele>
        <time>2018-07-20T15:05:49Z</time>
      </trkpt>
      <trkpt lat="45.323726" lon="6.796895">
        <ele>2512.142</ele>
        <time>2018-07-20T15:05:55Z</time>
      </trkpt>
      <trkpt lat="45.323677" lon="6.796868">
        <ele>2511.026</ele>
        <time>2018-07-20T15:06:01Z</time>
      </trkpt>
      <trkpt lat="45.323633" lon="6.796850">
        <ele>2509.989</ele>
        <time>2018-07-20T15:06:07Z</time>
      </trkpt>
      <trkpt lat="45.323590" lon="6.796819">
        <ele>2508.971</ele>
        <time>2018-07-20T15:06:12Z</time>
      </trkpt>
      <trkpt lat="45.323547" lon="6.796790">
        <ele>2508.325</ele>
        <time>2018-07-20T15:06:17Z</time>
      </trkpt>
      <trkpt lat="45.323501" lon="6.796754">
        <ele>2507.127</ele>
        <time>2018-07-20T15:06:23Z</time>
      </trkpt>
      <trkpt lat="45.323459" lon="6.796728">
        <ele>2506.068</ele>
        <time>2018-07-20T15:06:29Z</time>
      </trkpt>
      <trkpt lat="45.323419" lon="6.796694">
        <ele>2504.514</ele>
        <time>2018-07-20T15:06:37Z</time>
      </trkpt>
      <trkpt lat="45.323377" lon="6.796659">
        <ele>2502.808</ele>
        <time>2018-07-20T15:06:46Z</time>
      </trkpt>
      <trkpt lat="45.323335" lon="6.796635">
        <ele>2501.084</ele>
        <time>2018-07-20T15:06:54Z</time>
      </trkpt>
      <trkpt lat="45.323295" lon="6.796599">
        <ele>2499.989</ele>
        <time>2018-07-20T15:07:00Z</time>
      </trkpt>
      <trkpt lat="45.323255" lon="6.796555">
        <ele>2498.856</ele>
        <time>2018-07-20T15:07:07Z</time>
      </trkpt>
      <trkpt lat="45.323217" lon="6.796521">
        <ele>2497.481</ele>
        <time>2018-07-20T15:07:13Z</time>
      </trkpt>
      <trkpt lat="45.323176" lon="6.796485">
        <ele>2496.155</ele>
        <time>2018-07-20T15:07:19Z</time>
      </trkpt>
      <trkpt lat="45.323147" lon="6.796432">
        <ele>2494.968</ele>
        <time>2018-07-20T15:07:25Z</time>
      </trkpt>
      <trkpt lat="45.323116" lon="6.796372">
        <ele>2494.230</ele>
        <time>2018-07-20T15:07:31Z</time>
      </trkpt>
      <trkpt lat="45.323082" lon="6.796323">
        <ele>2493.424</ele>
        <time>2018-07-20T15:07:37Z</time>
      </trkpt>
      <trkpt lat="45.323048" lon="6.796270">
        <ele>2492.543</ele>
        <time>2018-07-20T15:07:43Z</time>
      </trkpt>
      <trkpt lat="45.323013" lon="6.796226">
        <ele>2491.664</ele>
        <time>2018-07-20T15:07:50Z</time>
      </trkpt>
      <trkpt lat="45.322970" lon="6.796186">
        <ele>2490.610</ele>
        <time>2018-07-20T15:07:57Z</time>
      </trkpt>
      <trkpt lat="45.322938" lon="6.796128">
        <ele>2489.608</ele>
        <time>2018-07-20T15:08:03Z</time>
      </trkpt>
      <trkpt lat="45.322899" lon="6.796078">
        <ele>2487.876</ele>
        <time>2018-07-20T15:08:23Z</time>
      </trkpt>
      <trkpt lat="45.322871" lon="6.796017">
        <ele>2486.311</ele>
        <time>2018-07-20T15:08:33Z</time>
      </trkpt>
      <trkpt lat="45.322829" lon="6.795971">
        <ele>2485.828</ele>
        <time>2018-07-20T15:08:39Z</time>
      </trkpt>
      <trkpt lat="45.322784" lon="6.795948">
        <ele>2485.143</ele>
        <time>2018-07-20T15:08:45Z</time>
      </trkpt>
      <trkpt lat="45.322739" lon="6.795930">
        <ele>2484.797</ele>
        <time>2018-07-20T15:08:52Z</time>
      </trkpt>
      <trkpt lat="45.322693" lon="6.795927">
        <ele>2483.750</ele>
        <time>2018-07-20T15:09:01Z</time>
      </trkpt>
      <trkpt lat="45.322645" lon="6.795919">
        <ele>2481.932</ele>
        <time>2018-07-20T15:09:12Z</time>
      </trkpt>
      <trkpt lat="45.322600" lon="6.795927">
        <ele>2480.036</ele>
        <time>2018-07-20T15:09:21Z</time>
      </trkpt>
      <trkpt lat="45.322570" lon="6.795978">
        <ele>2478.557</ele>
        <time>2018-07-20T15:09:32Z</time>
      </trkpt>
      <trkpt lat="45.322553" lon="6.796039">
        <ele>2476.800</ele>
        <time>2018-07-20T15:09:48Z</time>
      </trkpt>
      <trkpt lat="45.322508" lon="6.796044">
        <ele>2475.420</ele>
        <time>2018-07-20T15:09:57Z</time>
      </trkpt>
      <trkpt lat="45.322471" lon="6.796005">
        <ele>2474.108</ele>
        <time>2018-07-20T15:10:04Z</time>
      </trkpt>
      <trkpt lat="45.322426" lon="6.795990">
        <ele>2471.777</ele>
        <time>2018-07-20T15:10:24Z</time>
      </trkpt>
      <trkpt lat="45.322381" lon="6.795993">
        <ele>2469.532</ele>
        <time>2018-07-20T15:10:35Z</time>
      </trkpt>
      <trkpt lat="45.322356" lon="6.796052">
        <ele>2467.819</ele>
        <time>2018-07-20T15:10:57Z</time>
      </trkpt>
      <trkpt lat="45.322346" lon="6.796116">
        <ele>2466.064</ele>
        <time>2018-07-20T15:11:05Z</time>
      </trkpt>
      <trkpt lat="45.322303" lon="6.796091">
        <ele>2463.788</ele>
        <time>2018-07-20T15:11:15Z</time>
      </trkpt>
      <trkpt lat="45.322258" lon="6.796073">
        <ele>2461.991</ele>
        <time>2018-07-20T15:11:23Z</time>
      </trkpt>
      <trkpt lat="45.322238" lon="6.796138">
        <ele>2460.423</ele>
        <time>2018-07-20T15:11:33Z</time>
      </trkpt>
      <trkpt lat="45.322190" lon="6.796134">
        <ele>2458.367</ele>
        <time>2018-07-20T15:11:47Z</time>
      </trkpt>
      <trkpt lat="45.322151" lon="6.796091">
        <ele>2455.175</ele>
        <time>2018-07-20T15:13:20Z</time>
      </trkpt>
      <trkpt lat="45.322103" lon="6.796093">
        <ele>2452.828</ele>
        <time>2018-07-20T15:13:33Z</time>
      </trkpt>
      <trkpt lat="45.322062" lon="6.796065">
        <ele>2450.620</ele>
        <time>2018-07-20T15:13:41Z</time>
      </trkpt>
      <trkpt lat="45.322051" lon="6.796129">
        <ele>2448.908</ele>
        <time>2018-07-20T15:13:50Z</time>
      </trkpt>
      <trkpt lat="45.322055" lon="6.796195">
        <ele>2447.549</ele>
        <time>2018-07-20T15:13:56Z</time>
      </trkpt>
      <trkpt lat="45.322065" lon="6.796267">
        <ele>2445.854</ele>
        <time>2018-07-20T15:14:05Z</time>
      </trkpt>
      <trkpt lat="45.322018" lon="6.796285">
        <ele>2444.061</ele>
        <time>2018-07-20T15:14:17Z</time>
      </trkpt>
      <trkpt lat="45.321971" lon="6.796273">
        <ele>2442.516</ele>
        <time>2018-07-20T15:14:28Z</time>
      </trkpt>
      <trkpt lat="45.321924" lon="6.796285">
        <ele>2441.620</ele>
        <time>2018-07-20T15:14:37Z</time>
      </trkpt>
      <trkpt lat="45.321879" lon="6.796308">
        <ele>2440.363</ele>
        <time>2018-07-20T15:14:44Z</time>
      </trkpt>
      <trkpt lat="45.321836" lon="6.796292">
        <ele>2439.545</ele>
        <time>2018-07-20T15:14:50Z</time>
      </trkpt>
      <trkpt lat="45.321789" lon="6.796294">
        <ele>2439.059</ele>
        <time>2018-07-20T15:14:56Z</time>
      </trkpt>
      <trkpt lat="45.321744" lon="6.796272">
        <ele>2437.981</ele>
        <time>2018-07-20T15:15:04Z</time>
      </trkpt>
      <trkpt lat="45.321700" lon="6.796248">
        <ele>2437.261</ele>
        <time>2018-07-20T15:15:11Z</time>
      </trkpt>
      <trkpt lat="45.321658" lon="6.796216">
        <ele>2436.017</ele>
        <time>2018-07-20T15:15:59Z</time>
      </trkpt>
      <trkpt lat="45.321614" lon="6.796197">
        <ele>2435.308</ele>
        <time>2018-07-20T15:16:08Z</time>
      </trkpt>
      <trkpt lat="45.321568" lon="6.796191">
        <ele>2434.590</ele>
        <time>2018-07-20T15:16:15Z</time>
      </trkpt>
      <trkpt lat="45.321523" lon="6.796174">
        <ele>2433.615</ele>
        <time>2018-07-20T15:16:21Z</time>
      </trkpt>
      <trkpt lat="45.321477" lon="6.796179">
        <ele>2433.162</ele>
        <time>2018-07-20T15:16:28Z</time>
      </trkpt>
      <trkpt lat="45.321432" lon="6.796167">
        <ele>2432.457</ele>
        <time>2018-07-20T15:16:35Z</time>
      </trkpt>
      <trkpt lat="45.321387" lon="6.796151">
        <ele>2431.641</ele>
        <time>2018-07-20T15:16:43Z</time>
      </trkpt>
      <trkpt lat="45.321346" lon="6.796123">
        <ele>2430.764</ele>
        <time>2018-07-20T15:16:51Z</time>
      </trkpt>
      <trkpt lat="45.321298" lon="6.796105">
        <ele>2429.446</ele>
        <time>2018-07-20T15:17:01Z</time>
      </trkpt>
      <trkpt lat="45.321251" lon="6.796095">
        <ele>2427.890</ele>
        <time>2018-07-20T15:17:08Z</time>
      </trkpt>
      <trkpt lat="45.321204" lon="6.796106">
        <ele>2426.462</ele>
        <time>2018-07-20T15:17:14Z</time>
      </trkpt>
      <trkpt lat="45.321154" lon="6.796107">
        <ele>2425.683</ele>
        <time>2018-07-20T15:17:23Z</time>
      </trkpt>
      <trkpt lat="45.321114" lon="6.796069">
        <ele>2424.711</ele>
        <time>2018-07-20T15:17:32Z</time>
      </trkpt>
      <trkpt lat="45.321079" lon="6.796021">
        <ele>2423.808</ele>
        <time>2018-07-20T15:17:41Z</time>
      </trkpt>
      <trkpt lat="45.321056" lon="6.795964">
        <ele>2422.868</ele>
        <time>2018-07-20T15:17:49Z</time>
      </trkpt>
      <trkpt lat="45.321017" lon="6.795919">
        <ele>2420.653</ele>
        <time>2018-07-20T15:18:00Z</time>
      </trkpt>
      <trkpt lat="45.320983" lon="6.795875">
        <ele>2418.970</ele>
        <time>2018-07-20T15:18:07Z</time>
      </trkpt>
      <trkpt lat="45.320940" lon="6.795848">
        <ele>2417.555</ele>
        <time>2018-07-20T15:18:14Z</time>
      </trkpt>
      <trkpt lat="45.320888" lon="6.795833">
        <ele>2416.659</ele>
        <time>2018-07-20T15:18:21Z</time>
      </trkpt>
      <trkpt lat="45.320841" lon="6.795796">
        <ele>2416.142</ele>
        <time>2018-07-20T15:18:27Z</time>
      </trkpt>
      <trkpt lat="45.320816" lon="6.795742">
        <ele>2415.874</ele>
        <time>2018-07-20T15:18:32Z</time>
      </trkpt>
      <trkpt lat="45.320793" lon="6.795675">
        <ele>2415.648</ele>
        <time>2018-07-20T15:18:38Z</time>
      </trkpt>
      <trkpt lat="45.320758" lon="6.795625">
        <ele>2415.184</ele>
        <time>2018-07-20T15:18:45Z</time>
      </trkpt>
      <trkpt lat="45.320713" lon="6.795608">
        <ele>2414.407</ele>
        <time>2018-07-20T15:19:01Z</time>
      </trkpt>
      <trkpt lat="45.320670" lon="6.795589">
        <ele>2412.817</ele>
        <time>2018-07-20T15:19:17Z</time>
      </trkpt>
      <trkpt lat="45.320622" lon="6.795594">
        <ele>2411.008</ele>
        <time>2018-07-20T15:19:29Z</time>
      </trkpt>
      <trkpt lat="45.320572" lon="6.795587">
        <ele>2409.170</ele>
        <time>2018-07-20T15:19:43Z</time>
      </trkpt>
      <trkpt lat="45.320528" lon="6.795560">
        <ele>2407.265</ele>
        <time>2018-07-20T15:19:52Z</time>
      </trkpt>
      <trkpt lat="45.320484" lon="6.795545">
        <ele>2405.292</ele>
        <time>2018-07-20T15:20:02Z</time>
      </trkpt>
      <trkpt lat="45.320440" lon="6.795525">
        <ele>2403.667</ele>
        <time>2018-07-20T15:20:15Z</time>
      </trkpt>
      <trkpt lat="45.320393" lon="6.795540">
        <ele>2401.961</ele>
        <time>2018-07-20T15:20:23Z</time>
      </trkpt>
      <trkpt lat="45.320348" lon="6.795546">
        <ele>2400.944</ele>
        <time>2018-07-20T15:20:30Z</time>
      </trkpt>
      <trkpt lat="45.320297" lon="6.795551">
        <ele>2399.926</ele>
        <time>2018-07-20T15:20:36Z</time>
      </trkpt>
      <trkpt lat="45.320249" lon="6.795552">
        <ele>2398.930</ele>
        <time>2018-07-20T15:20:42Z</time>
      </trkpt>
      <trkpt lat="45.320200" lon="6.795553">
        <ele>2397.979</ele>
        <time>2018-07-20T15:20:49Z</time>
      </trkpt>
      <trkpt lat="45.320150" lon="6.795536">
        <ele>2396.905</ele>
        <time>2018-07-20T15:20:56Z</time>
      </trkpt>
      <trkpt lat="45.320106" lon="6.795506">
        <ele>2395.525</ele>
        <time>2018-07-20T15:21:03Z</time>
      </trkpt>
      <trkpt lat="45.320081" lon="6.795444">
        <ele>2394.708</ele>
        <time>2018-07-20T15:21:11Z</time>
      </trkpt>
      <trkpt lat="45.320050" lon="6.795396">
        <ele>2393.819</ele>
        <time>2018-07-20T15:21:18Z</time>
      </trkpt>
      <trkpt lat="45.320026" lon="6.795342">
        <ele>2392.954</ele>
        <time>2018-07-20T15:21:23Z</time>
      </trkpt>
      <trkpt lat="45.319998" lon="6.795287">
        <ele>2391.151</ele>
        <time>2018-07-20T15:22:19Z</time>
      </trkpt>
      <trkpt lat="45.320015" lon="6.795226">
        <ele>2388.876</ele>
        <time>2018-07-20T15:22:26Z</time>
      </trkpt>
      <trkpt lat="45.319991" lon="6.795171">
        <ele>2387.420</ele>
        <time>2018-07-20T15:22:33Z</time>
      </trkpt>
      <trkpt lat="45.319969" lon="6.795099">
        <ele>2386.653</ele>
        <time>2018-07-20T15:22:40Z</time>
      </trkpt>
      <trkpt lat="45.319962" lon="6.795035">
        <ele>2386.115</ele>
        <time>2018-07-20T15:22:45Z</time>
      </trkpt>
      <trkpt lat="45.319948" lon="6.794963">
        <ele>2385.869</ele>
        <time>2018-07-20T15:22:52Z</time>
      </trkpt>
      <trkpt lat="45.319933" lon="6.794902">
        <ele>2385.655</ele>
        <time>2018-07-20T15:22:57Z</time>
      </trkpt>
      <trkpt lat="45.319911" lon="6.794838">
        <ele>2385.507</ele>
        <time>2018-07-20T15:23:02Z</time>
      </trkpt>
      <trkpt lat="45.319891" lon="6.794778">
        <ele>2385.417</ele>
        <time>2018-07-20T15:23:08Z</time>
      </trkpt>
      <trkpt lat="45.319851" lon="6.794740">
        <ele>2385.008</ele>
        <time>2018-07-20T15:23:18Z</time>
      </trkpt>
      <trkpt lat="45.319806" lon="6.794712">
        <ele>2383.937</ele>
        <time>2018-07-20T15:23:26Z</time>
      </trkpt>
      <trkpt lat="45.319773" lon="6.794660">
        <ele>2382.992</ele>
        <time>2018-07-20T15:23:36Z</time>
      </trkpt>
      <trkpt lat="45.319735" lon="6.794622">
        <ele>2381.989</ele>
        <time>2018-07-20T15:23:45Z</time>
      </trkpt>
      <trkpt lat="45.319694" lon="6.794588">
        <ele>2380.554</ele>
        <time>2018-07-20T15:23:52Z</time>
      </trkpt>
      <trkpt lat="45.319657" lon="6.794536">
        <ele>2379.348</ele>
        <time>2018-07-20T15:23:59Z</time>
      </trkpt>
      <trkpt lat="45.319638" lon="6.794471">
        <ele>2378.241</ele>
        <time>2018-07-20T15:24:05Z</time>
      </trkpt>
      <trkpt lat="45.319628" lon="6.794399">
        <ele>2377.573</ele>
        <time>2018-07-20T15:24:12Z</time>
      </trkpt>
      <trkpt lat="45.319610" lon="6.794335">
        <ele>2376.727</ele>
        <time>2018-07-20T15:24:18Z</time>
      </trkpt>
      <trkpt lat="45.319627" lon="6.794266">
        <ele>2375.027</ele>
        <time>2018-07-20T15:24:26Z</time>
      </trkpt>
      <trkpt lat="45.319586" lon="6.794239">
        <ele>2373.268</ele>
        <time>2018-07-20T15:24:41Z</time>
      </trkpt>
      <trkpt lat="45.319582" lon="6.794173">
        <ele>2371.714</ele>
        <time>2018-07-20T15:24:48Z</time>
      </trkpt>
      <trkpt lat="45.319593" lon="6.794102">
        <ele>2370.408</ele>
        <time>2018-07-20T15:24:55Z</time>
      </trkpt>
      <trkpt lat="45.319593" lon="6.794037">
        <ele>2369.244</ele>
        <time>2018-07-20T15:25:04Z</time>
      </trkpt>
      <trkpt lat="45.319572" lon="6.793979">
        <ele>2368.989</ele>
        <time>2018-07-20T15:25:21Z</time>
      </trkpt>
      <trkpt lat="45.319567" lon="6.793907">
        <ele>2367.936</ele>
        <time>2018-07-20T15:25:30Z</time>
      </trkpt>
      <trkpt lat="45.319558" lon="6.793844">
        <ele>2366.931</ele>
        <time>2018-07-20T15:25:40Z</time>
      </trkpt>
      <trkpt lat="45.319534" lon="6.793778">
        <ele>2366.385</ele>
        <time>2018-07-20T15:25:46Z</time>
      </trkpt>
      <trkpt lat="45.319505" lon="6.793713">
        <ele>2366.398</ele>
        <time>2018-07-20T15:25:51Z</time>
      </trkpt>
      <trkpt lat="45.319482" lon="6.793653">
        <ele>2366.340</ele>
        <time>2018-07-20T15:25:56Z</time>
      </trkpt>
      <trkpt lat="45.319456" lon="6.793591">
        <ele>2366.764</ele>
        <time>2018-07-20T15:26:01Z</time>
      </trkpt>
      <trkpt lat="45.319440" lon="6.793531">
        <ele>2366.995</ele>
        <time>2018-07-20T15:26:06Z</time>
      </trkpt>
      <trkpt lat="45.319424" lon="6.793471">
        <ele>2366.649</ele>
        <time>2018-07-20T15:26:21Z</time>
      </trkpt>
      <trkpt lat="45.319395" lon="6.793422">
        <ele>2366.023</ele>
        <time>2018-07-20T15:26:26Z</time>
      </trkpt>
      <trkpt lat="45.319347" lon="6.793401">
        <ele>2366.108</ele>
        <time>2018-07-20T15:26:33Z</time>
      </trkpt>
      <trkpt lat="45.319307" lon="6.793436">
        <ele>2365.391</ele>
        <time>2018-07-20T15:26:40Z</time>
      </trkpt>
      <trkpt lat="45.319145" lon="6.793226">
        <ele>2300.951</ele>
        <time>2018-07-21T06:41:58Z</time>
      </trkpt>
      <trkpt lat="45.319157" lon="6.793159">
        <ele>2300.901</ele>
        <time>2018-07-21T06:42:47Z</time>
      </trkpt>
      <trkpt lat="45.319173" lon="6.793093">
        <ele>2300.911</ele>
        <time>2018-07-21T06:42:53Z</time>
      </trkpt>
      <trkpt lat="45.319160" lon="6.793030">
        <ele>2300.908</ele>
        <time>2018-07-21T06:43:03Z</time>
      </trkpt>
      <trkpt lat="45.319139" lon="6.792969">
        <ele>2300.917</ele>
        <time>2018-07-21T06:43:09Z</time>
      </trkpt>
      <trkpt lat="45.319119" lon="6.792904">
        <ele>2300.912</ele>
        <time>2018-07-21T06:43:14Z</time>
      </trkpt>
      <trkpt lat="45.319099" lon="6.792844">
        <ele>2300.919</ele>
        <time>2018-07-21T06:43:19Z</time>
      </trkpt>
      <trkpt lat="45.319083" lon="6.792777">
        <ele>2300.954</ele>
        <time>2018-07-21T06:43:24Z</time>
      </trkpt>
      <trkpt lat="45.319069" lon="6.792699">
        <ele>2300.923</ele>
        <time>2018-07-21T06:43:29Z</time>
      </trkpt>
      <trkpt lat="45.319064" lon="6.792629">
        <ele>2300.985</ele>
        <time>2018-07-21T06:43:33Z</time>
      </trkpt>
      <trkpt lat="45.319065" lon="6.792561">
        <ele>2300.953</ele>
        <time>2018-07-21T06:43:37Z</time>
      </trkpt>
      <trkpt lat="45.319061" lon="6.792493">
        <ele>2300.929</ele>
        <time>2018-07-21T06:43:41Z</time>
      </trkpt>
      <trkpt lat="45.319056" lon="6.792423">
        <ele>2300.987</ele>
        <time>2018-07-21T06:43:45Z</time>
      </trkpt>
      <trkpt lat="45.319044" lon="6.792355">
        <ele>2300.942</ele>
        <time>2018-07-21T06:43:49Z</time>
      </trkpt>
      <trkpt lat="45.319029" lon="6.792287">
        <ele>2300.926</ele>
        <time>2018-07-21T06:43:53Z</time>
      </trkpt>
      <trkpt lat="45.319006" lon="6.792226">
        <ele>2300.308</ele>
        <time>2018-07-21T06:43:57Z</time>
      </trkpt>
      <trkpt lat="45.318979" lon="6.792168">
        <ele>2299.830</ele>
        <time>2018-07-21T06:44:01Z</time>
      </trkpt>
      <trkpt lat="45.318967" lon="6.792103">
        <ele>2299.625</ele>
        <time>2018-07-21T06:44:05Z</time>
      </trkpt>
      <trkpt lat="45.318932" lon="6.792053">
        <ele>2298.442</ele>
        <time>2018-07-21T06:44:11Z</time>
      </trkpt>
      <trkpt lat="45.318880" lon="6.792030">
        <ele>2297.677</ele>
        <time>2018-07-21T06:44:18Z</time>
      </trkpt>
      <trkpt lat="45.318834" lon="6.792009">
        <ele>2296.136</ele>
        <time>2018-07-21T06:44:30Z</time>
      </trkpt>
      <trkpt lat="45.318796" lon="6.791963">
        <ele>2295.668</ele>
        <time>2018-07-21T06:44:35Z</time>
      </trkpt>
      <trkpt lat="45.318765" lon="6.791902">
        <ele>2295.566</ele>
        <time>2018-07-21T06:44:40Z</time>
      </trkpt>
      <trkpt lat="45.318730" lon="6.791844">
        <ele>2294.192</ele>
        <time>2018-07-21T06:44:45Z</time>
      </trkpt>
      <trkpt lat="45.318688" lon="6.791801">
        <ele>2293.293</ele>
        <time>2018-07-21T06:44:53Z</time>
      </trkpt>
      <trkpt lat="45.318646" lon="6.791762">
        <ele>2292.465</ele>
        <time>2018-07-21T06:44:58Z</time>
      </trkpt>
      <trkpt lat="45.318604" lon="6.791710">
        <ele>2292.021</ele>
        <time>2018-07-21T06:45:03Z</time>
      </trkpt>
      <trkpt lat="45.318555" lon="6.791688">
        <ele>2290.608</ele>
        <time>2018-07-21T06:45:09Z</time>
      </trkpt>
      <trkpt lat="45.318503" lon="6.791681">
        <ele>2289.491</ele>
        <time>2018-07-21T06:45:14Z</time>
      </trkpt>
      <trkpt lat="45.318459" lon="6.791664">
        <ele>2289.066</ele>
        <time>2018-07-21T06:45:18Z</time>
      </trkpt>
      <trkpt lat="45.318414" lon="6.791638">
        <ele>2288.243</ele>
        <time>2018-07-21T06:45:23Z</time>
      </trkpt>
      <trkpt lat="45.318374" lon="6.791605">
        <ele>2287.418</ele>
        <time>2018-07-21T06:45:28Z</time>
      </trkpt>
      <trkpt lat="45.318324" lon="6.791602">
        <ele>2286.627</ele>
        <time>2018-07-21T06:45:34Z</time>
      </trkpt>
      <trkpt lat="45.318273" lon="6.791596">
        <ele>2285.979</ele>
        <time>2018-07-21T06:45:54Z</time>
      </trkpt>
      <trkpt lat="45.318224" lon="6.791599">
        <ele>2284.177</ele>
        <time>2018-07-21T06:46:02Z</time>
      </trkpt>
      <trkpt lat="45.318182" lon="6.791570">
        <ele>2282.923</ele>
        <time>2018-07-21T06:46:09Z</time>
      </trkpt>
      <trkpt lat="45.318135" lon="6.791553">
        <ele>2281.359</ele>
        <time>2018-07-21T06:46:19Z</time>
      </trkpt>
      <trkpt lat="45.318090" lon="6.791538">
        <ele>2279.703</ele>
        <time>2018-07-21T06:46:29Z</time>
      </trkpt>
      <trkpt lat="45.318049" lon="6.791505">
        <ele>2278.123</ele>
        <time>2018-07-21T06:46:36Z</time>
      </trkpt>
      <trkpt lat="45.317998" lon="6.791517">
        <ele>2278.008</ele>
        <time>2018-07-21T06:46:41Z</time>
      </trkpt>
      <trkpt lat="45.317955" lon="6.791555">
        <ele>2277.297</ele>
        <time>2018-07-21T06:46:47Z</time>
      </trkpt>
      <trkpt lat="45.317920" lon="6.791605">
        <ele>2276.492</ele>
        <time>2018-07-21T06:46:52Z</time>
      </trkpt>
      <trkpt lat="45.317876" lon="6.791637">
        <ele>2274.569</ele>
        <time>2018-07-21T06:47:02Z</time>
      </trkpt>
      <trkpt lat="45.317837" lon="6.791670">
        <ele>2272.914</ele>
        <time>2018-07-21T06:47:08Z</time>
      </trkpt>
      <trkpt lat="45.317795" lon="6.791699">
        <ele>2271.383</ele>
        <time>2018-07-21T06:47:13Z</time>
      </trkpt>
      <trkpt lat="45.317759" lon="6.791746">
        <ele>2269.995</ele>
        <time>2018-07-21T06:47:19Z</time>
      </trkpt>
      <trkpt lat="45.317714" lon="6.791758">
        <ele>2268.823</ele>
        <time>2018-07-21T06:47:25Z</time>
      </trkpt>
      <trkpt lat="45.317664" lon="6.791723">
        <ele>2267.859</ele>
        <time>2018-07-21T06:47:31Z</time>
      </trkpt>
      <trkpt lat="45.317616" lon="6.791687">
        <ele>2267.759</ele>
        <time>2018-07-21T06:47:36Z</time>
      </trkpt>
      <trkpt lat="45.317567" lon="6.791699">
        <ele>2267.903</ele>
        <time>2018-07-21T06:47:41Z</time>
      </trkpt>
      <trkpt lat="45.317531" lon="6.791757">
        <ele>2266.323</ele>
        <time>2018-07-21T06:47:48Z</time>
      </trkpt>
      <trkpt lat="45.317484" lon="6.791779">
        <ele>2265.608</ele>
        <time>2018-07-21T06:47:53Z</time>
      </trkpt>
      <trkpt lat="45.317442" lon="6.791817">
        <ele>2264.767</ele>
        <time>2018-07-21T06:47:59Z</time>
      </trkpt>
      <trkpt lat="45.317407" lon="6.791861">
        <ele>2263.292</ele>
        <time>2018-07-21T06:48:04Z</time>
      </trkpt>
      <trkpt lat="45.317367" lon="6.791893">
        <ele>2260.699</ele>
        <time>2018-07-21T06:48:08Z</time>
      </trkpt>
      <trkpt lat="45.317318" lon="6.791916">
        <ele>2260.194</ele>
        <time>2018-07-21T06:48:12Z</time>
      </trkpt>
      <trkpt lat="45.317266" lon="6.791938">
        <ele>2258.553</ele>
        <time>2018-07-21T06:48:16Z</time>
      </trkpt>
      <trkpt lat="45.317213" lon="6.791957">
        <ele>2258.245</ele>
        <time>2018-07-21T06:48:20Z</time>
      </trkpt>
      <trkpt lat="45.317160" lon="6.791975">
        <ele>2260.043</ele>
        <time>2018-07-21T06:48:24Z</time>
      </trkpt>
      <trkpt lat="45.317107" lon="6.791993">
        <ele>2259.439</ele>
        <time>2018-07-21T06:48:28Z</time>
      </trkpt>
      <trkpt lat="45.317052" lon="6.792006">
        <ele>2258.935</ele>
        <time>2018-07-21T06:48:32Z</time>
      </trkpt>
      <trkpt lat="45.317000" lon="6.792014">
        <ele>2255.986</ele>
        <time>2018-07-21T06:48:36Z</time>
      </trkpt>
      <trkpt lat="45.316952" lon="6.792023">
        <ele>2258.314</ele>
        <time>2018-07-21T06:48:40Z</time>
      </trkpt>
      <trkpt lat="45.316902" lon="6.792045">
        <ele>2257.508</ele>
        <time>2018-07-21T06:48:45Z</time>
      </trkpt>
      <trkpt lat="45.316854" lon="6.792080">
        <ele>2254.225</ele>
        <time>2018-07-21T06:48:50Z</time>
      </trkpt>
      <trkpt lat="45.316808" lon="6.792111">
        <ele>2254.140</ele>
        <time>2018-07-21T06:48:54Z</time>
      </trkpt>
      <trkpt lat="45.316761" lon="6.792083">
        <ele>2253.547</ele>
        <time>2018-07-21T06:48:59Z</time>
      </trkpt>
      <trkpt lat="45.316721" lon="6.792034">
        <ele>2253.192</ele>
        <time>2018-07-21T06:49:04Z</time>
      </trkpt>
      <trkpt lat="45.316667" lon="6.792021">
        <ele>2253.751</ele>
        <time>2018-07-21T06:49:09Z</time>
      </trkpt>
      <trkpt lat="45.316615" lon="6.792009">
        <ele>2254.453</ele>
        <time>2018-07-21T06:49:14Z</time>
      </trkpt>
      <trkpt lat="45.316569" lon="6.791998">
        <ele>2255.621</ele>
        <time>2018-07-21T06:49:19Z</time>
      </trkpt>
      <trkpt lat="45.316517" lon="6.791995">
        <ele>2255.447</ele>
        <time>2018-07-21T06:49:24Z</time>
      </trkpt>
      <trkpt lat="45.316468" lon="6.791996">
        <ele>2255.224</ele>
        <time>2018-07-21T06:49:28Z</time>
      </trkpt>
      <trkpt lat="45.316417" lon="6.791996">
        <ele>2255.604</ele>
        <time>2018-07-21T06:49:32Z</time>
      </trkpt>
      <trkpt lat="45.316364" lon="6.791999">
        <ele>2255.814</ele>
        <time>2018-07-21T06:49:36Z</time>
      </trkpt>
      <trkpt lat="45.316316" lon="6.792001">
        <ele>2255.308</ele>
        <time>2018-07-21T06:49:40Z</time>
      </trkpt>
      <trkpt lat="45.316271" lon="6.791988">
        <ele>2256.324</ele>
        <time>2018-07-21T06:49:44Z</time>
      </trkpt>
      <trkpt lat="45.316227" lon="6.791961">
        <ele>2254.659</ele>
        <time>2018-07-21T06:49:48Z</time>
      </trkpt>
      <trkpt lat="45.316204" lon="6.791904">
        <ele>2253.656</ele>
        <time>2018-07-21T06:49:52Z</time>
      </trkpt>
      <trkpt lat="45.316167" lon="6.791868">
        <ele>2255.381</ele>
        <time>2018-07-21T06:49:57Z</time>
      </trkpt>
      <trkpt lat="45.316119" lon="6.791884">
        <ele>2255.460</ele>
        <time>2018-07-21T06:50:03Z</time>
      </trkpt>
      <trkpt lat="45.316080" lon="6.791921">
        <ele>2255.082</ele>
        <time>2018-07-21T06:50:08Z</time>
      </trkpt>
      <trkpt lat="45.316029" lon="6.791937">
        <ele>2252.250</ele>
        <time>2018-07-21T06:50:13Z</time>
      </trkpt>
      <trkpt lat="45.315989" lon="6.791971">
        <ele>2253.366</ele>
        <time>2018-07-21T06:50:21Z</time>
      </trkpt>
      <trkpt lat="45.315962" lon="6.792032">
        <ele>2252.786</ele>
        <time>2018-07-21T06:50:27Z</time>
      </trkpt>
      <trkpt lat="45.315928" lon="6.792091">
        <ele>2250.160</ele>
        <time>2018-07-21T06:50:32Z</time>
      </trkpt>
      <trkpt lat="45.315893" lon="6.792132">
        <ele>2249.726</ele>
        <time>2018-07-21T06:50:36Z</time>
      </trkpt>
      <trkpt lat="45.315861" lon="6.792182">
        <ele>2251.308</ele>
        <time>2018-07-21T06:50:41Z</time>
      </trkpt>
      <trkpt lat="45.315820" lon="6.792213">
        <ele>2250.530</ele>
        <time>2018-07-21T06:50:46Z</time>
      </trkpt>
      <trkpt lat="45.315776" lon="6.792246">
        <ele>2250.525</ele>
        <time>2018-07-21T06:50:51Z</time>
      </trkpt>
      <trkpt lat="45.315752" lon="6.792308">
        <ele>2249.072</ele>
        <time>2018-07-21T06:50:59Z</time>
      </trkpt>
      <trkpt lat="45.315720" lon="6.792353">
        <ele>2248.287</ele>
        <time>2018-07-21T06:51:11Z</time>
      </trkpt>
      <trkpt lat="45.315675" lon="6.792391">
        <ele>2247.786</ele>
        <time>2018-07-21T06:51:32Z</time>
      </trkpt>
      <trkpt lat="45.315630" lon="6.792416">
        <ele>2247.568</ele>
        <time>2018-07-21T06:51:36Z</time>
      </trkpt>
      <trkpt lat="45.315591" lon="6.792455">
        <ele>2247.276</ele>
        <time>2018-07-21T06:51:40Z</time>
      </trkpt>
      <trkpt lat="45.315560" lon="6.792509">
        <ele>2247.492</ele>
        <time>2018-07-21T06:51:44Z</time>
      </trkpt>
      <trkpt lat="45.315531" lon="6.792564">
        <ele>2247.031</ele>
        <time>2018-07-21T06:51:48Z</time>
      </trkpt>
      <trkpt lat="45.315498" lon="6.792610">
        <ele>2246.561</ele>
        <time>2018-07-21T06:51:52Z</time>
      </trkpt>
      <trkpt lat="45.315454" lon="6.792648">
        <ele>2245.707</ele>
        <time>2018-07-21T06:51:57Z</time>
      </trkpt>
      <trkpt lat="45.315405" lon="6.792654">
        <ele>2245.208</ele>
        <time>2018-07-21T06:52:01Z</time>
      </trkpt>
      <trkpt lat="45.315358" lon="6.792642">
        <ele>2245.365</ele>
        <time>2018-07-21T06:52:05Z</time>
      </trkpt>
      <trkpt lat="45.315311" lon="6.792631">
        <ele>2242.760</ele>
        <time>2018-07-21T06:52:09Z</time>
      </trkpt>
      <trkpt lat="45.315263" lon="6.792625">
        <ele>2243.997</ele>
        <time>2018-07-21T06:52:13Z</time>
      </trkpt>
      <trkpt lat="45.315216" lon="6.792622">
        <ele>2242.482</ele>
        <time>2018-07-21T06:52:19Z</time>
      </trkpt>
      <trkpt lat="45.315176" lon="6.792663">
        <ele>2240.691</ele>
        <time>2018-07-21T06:52:29Z</time>
      </trkpt>
      <trkpt lat="45.315149" lon="6.792718">
        <ele>2241.413</ele>
        <time>2018-07-21T06:52:37Z</time>
      </trkpt>
      <trkpt lat="45.315109" lon="6.792750">
        <ele>2239.551</ele>
        <time>2018-07-21T06:52:47Z</time>
      </trkpt>
      <trkpt lat="45.315061" lon="6.792765">
        <ele>2238.597</ele>
        <time>2018-07-21T06:52:56Z</time>
      </trkpt>
      <trkpt lat="45.315015" lon="6.792774">
        <ele>2235.514</ele>
        <time>2018-07-21T06:53:01Z</time>
      </trkpt>
      <trkpt lat="45.314965" lon="6.792778">
        <ele>2234.354</ele>
        <time>2018-07-21T06:53:07Z</time>
      </trkpt>
      <trkpt lat="45.314916" lon="6.792781">
        <ele>2233.309</ele>
        <time>2018-07-21T06:53:14Z</time>
      </trkpt>
      <trkpt lat="45.314885" lon="6.792833">
        <ele>2230.308</ele>
        <time>2018-07-21T06:53:32Z</time>
      </trkpt>
      <trkpt lat="45.314841" lon="6.792862">
        <ele>2228.873</ele>
        <time>2018-07-21T06:53:41Z</time>
      </trkpt>
      <trkpt lat="45.314791" lon="6.792875">
        <ele>2227.728</ele>
        <time>2018-07-21T06:53:47Z</time>
      </trkpt>
      <trkpt lat="45.314743" lon="6.792871">
        <ele>2226.595</ele>
        <time>2018-07-21T06:53:54Z</time>
      </trkpt>
      <trkpt lat="45.314707" lon="6.792916">
        <ele>2224.810</ele>
        <time>2018-07-21T06:54:05Z</time>
      </trkpt>
      <trkpt lat="45.314681" lon="6.792971">
        <ele>2222.789</ele>
        <time>2018-07-21T06:54:13Z</time>
      </trkpt>
      <trkpt lat="45.314639" lon="6.793018">
        <ele>2221.881</ele>
        <time>2018-07-21T06:54:19Z</time>
      </trkpt>
      <trkpt lat="45.314599" lon="6.793066">
        <ele>2221.299</ele>
        <time>2018-07-21T06:54:25Z</time>
      </trkpt>
      <trkpt lat="45.314561" lon="6.793115">
        <ele>2220.065</ele>
        <time>2018-07-21T06:54:31Z</time>
      </trkpt>
      <trkpt lat="45.314519" lon="6.793147">
        <ele>2219.851</ele>
        <time>2018-07-21T06:54:36Z</time>
      </trkpt>
      <trkpt lat="45.314483" lon="6.793198">
        <ele>2218.001</ele>
        <time>2018-07-21T06:54:44Z</time>
      </trkpt>
      <trkpt lat="45.314458" lon="6.793252">
        <ele>2216.811</ele>
        <time>2018-07-21T06:54:50Z</time>
      </trkpt>
      <trkpt lat="45.314420" lon="6.793303">
        <ele>2215.608</ele>
        <time>2018-07-21T06:54:55Z</time>
      </trkpt>
      <trkpt lat="45.314380" lon="6.793345">
        <ele>2217.547</ele>
        <time>2018-07-21T06:54:59Z</time>
      </trkpt>
      <trkpt lat="45.314343" lon="6.793387">
        <ele>2215.472</ele>
        <time>2018-07-21T06:55:03Z</time>
      </trkpt>
      <trkpt lat="45.314303" lon="6.793419">
        <ele>2214.679</ele>
        <time>2018-07-21T06:55:07Z</time>
      </trkpt>
      <trkpt lat="45.314258" lon="6.793451">
        <ele>2213.824</ele>
        <time>2018-07-21T06:55:12Z</time>
      </trkpt>
      <trkpt lat="45.314227" lon="6.793498">
        <ele>2212.823</ele>
        <time>2018-07-21T06:55:17Z</time>
      </trkpt>
      <trkpt lat="45.314193" lon="6.793548">
        <ele>2211.755</ele>
        <time>2018-07-21T06:55:22Z</time>
      </trkpt>
      <trkpt lat="45.314156" lon="6.793594">
        <ele>2210.683</ele>
        <time>2018-07-21T06:55:27Z</time>
      </trkpt>
      <trkpt lat="45.314111" lon="6.793604">
        <ele>2211.769</ele>
        <time>2018-07-21T06:55:32Z</time>
      </trkpt>
      <trkpt lat="45.314074" lon="6.793563">
        <ele>2211.773</ele>
        <time>2018-07-21T06:55:37Z</time>
      </trkpt>
      <trkpt lat="45.314031" lon="6.793581">
        <ele>2209.485</ele>
        <time>2018-07-21T06:55:42Z</time>
      </trkpt>
      <trkpt lat="45.313995" lon="6.793629">
        <ele>2211.013</ele>
        <time>2018-07-21T06:55:46Z</time>
      </trkpt>
      <trkpt lat="45.313965" lon="6.793681">
        <ele>2210.708</ele>
        <time>2018-07-21T06:55:51Z</time>
      </trkpt>
      <trkpt lat="45.313938" lon="6.793742">
        <ele>2210.049</ele>
        <time>2018-07-21T06:55:56Z</time>
      </trkpt>
      <trkpt lat="45.313909" lon="6.793805">
        <ele>2209.354</ele>
        <time>2018-07-21T06:56:01Z</time>
      </trkpt>
      <trkpt lat="45.313875" lon="6.793865">
        <ele>2208.981</ele>
        <time>2018-07-21T06:56:06Z</time>
      </trkpt>
      <trkpt lat="45.313836" lon="6.793915">
        <ele>2208.676</ele>
        <time>2018-07-21T06:56:10Z</time>
      </trkpt>
      <trkpt lat="45.313794" lon="6.793959">
        <ele>2208.025</ele>
        <time>2018-07-21T06:56:14Z</time>
      </trkpt>
      <trkpt lat="45.313749" lon="6.794003">
        <ele>2207.767</ele>
        <time>2018-07-21T06:56:18Z</time>
      </trkpt>
      <trkpt lat="45.313707" lon="6.794049">
        <ele>2207.485</ele>
        <time>2018-07-21T06:56:22Z</time>
      </trkpt>
      <trkpt lat="45.313669" lon="6.794087">
        <ele>2207.111</ele>
        <time>2018-07-21T06:56:26Z</time>
      </trkpt>
      <trkpt lat="45.313629" lon="6.794123">
        <ele>2206.865</ele>
        <time>2018-07-21T06:56:30Z</time>
      </trkpt>
      <trkpt lat="45.313587" lon="6.794150">
        <ele>2206.468</ele>
        <time>2018-07-21T06:56:34Z</time>
      </trkpt>
      <trkpt lat="45.313541" lon="6.794148">
        <ele>2206.914</ele>
        <time>2018-07-21T06:56:48Z</time>
      </trkpt>
      <trkpt lat="45.313499" lon="6.794123">
        <ele>2207.208</ele>
        <time>2018-07-21T06:57:17Z</time>
      </trkpt>
      <trkpt lat="45.313467" lon="6.794073">
        <ele>2206.968</ele>
        <time>2018-07-21T06:57:22Z</time>
      </trkpt>
      <trkpt lat="45.313422" lon="6.794031">
        <ele>2207.463</ele>
        <time>2018-07-21T06:57:27Z</time>
      </trkpt>
      <trkpt lat="45.313381" lon="6.794001">
        <ele>2207.840</ele>
        <time>2018-07-21T06:57:31Z</time>
      </trkpt>
      <trkpt lat="45.313329" lon="6.793987">
        <ele>2208.115</ele>
        <time>2018-07-21T06:57:36Z</time>
      </trkpt>
      <trkpt lat="45.313281" lon="6.794011">
        <ele>2208.444</ele>
        <time>2018-07-21T06:57:41Z</time>
      </trkpt>
      <trkpt lat="45.313232" lon="6.794048">
        <ele>2208.786</ele>
        <time>2018-07-21T06:57:46Z</time>
      </trkpt>
      <trkpt lat="45.313183" lon="6.794070">
        <ele>2207.854</ele>
        <time>2018-07-21T06:57:51Z</time>
      </trkpt>
      <trkpt lat="45.313139" lon="6.794098">
        <ele>2207.930</ele>
        <time>2018-07-21T06:57:56Z</time>
      </trkpt>
      <trkpt lat="45.313095" lon="6.794113">
        <ele>2208.753</ele>
        <time>2018-07-21T06:58:01Z</time>
      </trkpt>
      <trkpt lat="45.313049" lon="6.794132">
        <ele>2209.004</ele>
        <time>2018-07-21T06:58:06Z</time>
      </trkpt>
      <trkpt lat="45.312998" lon="6.794159">
        <ele>2208.214</ele>
        <time>2018-07-21T06:58:11Z</time>
      </trkpt>
      <trkpt lat="45.312953" lon="6.794176">
        <ele>2207.708</ele>
        <time>2018-07-21T06:58:15Z</time>
      </trkpt>
      <trkpt lat="45.312903" lon="6.794182">
        <ele>2207.917</ele>
        <time>2018-07-21T06:58:20Z</time>
      </trkpt>
      <trkpt lat="45.312859" lon="6.794198">
        <ele>2209.962</ele>
        <time>2018-07-21T06:58:30Z</time>
      </trkpt>
      <trkpt lat="45.312809" lon="6.794203">
        <ele>2208.769</ele>
        <time>2018-07-21T06:58:41Z</time>
      </trkpt>
      <trkpt lat="45.312760" lon="6.794219">
        <ele>2208.864</ele>
        <time>2018-07-21T06:58:47Z</time>
      </trkpt>
      <trkpt lat="45.312735" lon="6.794274">
        <ele>2208.143</ele>
        <time>2018-07-21T06:58:52Z</time>
      </trkpt>
      <trkpt lat="45.312715" lon="6.794333">
        <ele>2207.275</ele>
        <time>2018-07-21T06:58:56Z</time>
      </trkpt>
      <trkpt lat="45.312690" lon="6.794392">
        <ele>2206.653</ele>
        <time>2018-07-21T06:59:01Z</time>
      </trkpt>
      <trkpt lat="45.312655" lon="6.794449">
        <ele>2205.929</ele>
        <time>2018-07-21T06:59:06Z</time>
      </trkpt>
      <trkpt lat="45.312626" lon="6.794500">
        <ele>2206.711</ele>
        <time>2018-07-21T06:59:11Z</time>
      </trkpt>
      <trkpt lat="45.312585" lon="6.794550">
        <ele>2207.521</ele>
        <time>2018-07-21T06:59:17Z</time>
      </trkpt>
      <trkpt lat="45.312533" lon="6.794574">
        <ele>2207.403</ele>
        <time>2018-07-21T06:59:22Z</time>
      </trkpt>
      <trkpt lat="45.312488" lon="6.794583">
        <ele>2207.008</ele>
        <time>2018-07-21T06:59:26Z</time>
      </trkpt>
      <trkpt lat="45.312440" lon="6.794587">
        <ele>2206.163</ele>
        <time>2018-07-21T06:59:30Z</time>
      </trkpt>
      <trkpt lat="45.312389" lon="6.794598">
        <ele>2205.648</ele>
        <time>2018-07-21T06:59:34Z</time>
      </trkpt>
      <trkpt lat="45.312338" lon="6.794599">
        <ele>2205.325</ele>
        <time>2018-07-21T06:59:38Z</time>
      </trkpt>
      <trkpt lat="45.312289" lon="6.794591">
        <ele>2205.450</ele>
        <time>2018-07-21T06:59:42Z</time>
      </trkpt>
      <trkpt lat="45.312239" lon="6.794585">
        <ele>2205.659</ele>
        <time>2018-07-21T06:59:47Z</time>
      </trkpt>
      <trkpt lat="45.312193" lon="6.794597">
        <ele>2205.621</ele>
        <time>2018-07-21T06:59:52Z</time>
      </trkpt>
      <trkpt lat="45.312145" lon="6.794623">
        <ele>2205.639</ele>
        <time>2018-07-21T06:59:57Z</time>
      </trkpt>
      <trkpt lat="45.312096" lon="6.794653">
        <ele>2205.485</ele>
        <time>2018-07-21T07:00:02Z</time>
      </trkpt>
      <trkpt lat="45.312052" lon="6.794681">
        <ele>2205.793</ele>
        <time>2018-07-21T07:00:06Z</time>
      </trkpt>
      <trkpt lat="45.312004" lon="6.794705">
        <ele>2205.265</ele>
        <time>2018-07-21T07:00:11Z</time>
      </trkpt>
      <trkpt lat="45.311953" lon="6.794705">
        <ele>2204.621</ele>
        <time>2018-07-21T07:00:17Z</time>
      </trkpt>
      <trkpt lat="45.311907" lon="6.794696">
        <ele>2203.408</ele>
        <time>2018-07-21T07:00:24Z</time>
      </trkpt>
      <trkpt lat="45.311854" lon="6.794702">
        <ele>2202.551</ele>
        <time>2018-07-21T07:00:31Z</time>
      </trkpt>
      <trkpt lat="45.311805" lon="6.794697">
        <ele>2201.726</ele>
        <time>2018-07-21T07:00:36Z</time>
      </trkpt>
      <trkpt lat="45.311759" lon="6.794699">
        <ele>2200.573</ele>
        <time>2018-07-21T07:00:41Z</time>
      </trkpt>
      <trkpt lat="45.311719" lon="6.794661">
        <ele>2199.798</ele>
        <time>2018-07-21T07:00:46Z</time>
      </trkpt>
      <trkpt lat="45.311680" lon="6.794618">
        <ele>2198.747</ele>
        <time>2018-07-21T07:00:51Z</time>
      </trkpt>
      <trkpt lat="45.311650" lon="6.794568">
        <ele>2198.979</ele>
        <time>2018-07-21T07:00:55Z</time>
      </trkpt>
      <trkpt lat="45.311628" lon="6.794498">
        <ele>2198.767</ele>
        <time>2018-07-21T07:01:02Z</time>
      </trkpt>
      <trkpt lat="45.311614" lon="6.794434">
        <ele>2198.753</ele>
        <time>2018-07-21T07:01:07Z</time>
      </trkpt>
      <trkpt lat="45.311611" lon="6.794370">
        <ele>2198.911</ele>
        <time>2018-07-21T07:01:11Z</time>
      </trkpt>
      <trkpt lat="45.311577" lon="6.794322">
        <ele>2199.721</ele>
        <time>2018-07-21T07:01:18Z</time>
      </trkpt>
      <trkpt lat="45.311527" lon="6.794308">
        <ele>2199.703</ele>
        <time>2018-07-21T07:01:23Z</time>
      </trkpt>
      <trkpt lat="45.311481" lon="6.794303">
        <ele>2199.108</ele>
        <time>2018-07-21T07:01:28Z</time>
      </trkpt>
      <trkpt lat="45.311436" lon="6.794311">
        <ele>2198.153</ele>
        <time>2018-07-21T07:01:33Z</time>
      </trkpt>
      <trkpt lat="45.311389" lon="6.794324">
        <ele>2197.348</ele>
        <time>2018-07-21T07:01:39Z</time>
      </trkpt>
      <trkpt lat="45.311359" lon="6.794381">
        <ele>2196.175</ele>
        <time>2018-07-21T07:01:45Z</time>
      </trkpt>
      <trkpt lat="45.311326" lon="6.794443">
        <ele>2196.130</ele>
        <time>2018-07-21T07:01:50Z</time>
      </trkpt>
      <trkpt lat="45.311292" lon="6.794500">
        <ele>2197.059</ele>
        <time>2018-07-21T07:01:56Z</time>
      </trkpt>
      <trkpt lat="45.311254" lon="6.794543">
        <ele>2198.471</ele>
        <time>2018-07-21T07:02:05Z</time>
      </trkpt>
      <trkpt lat="45.311211" lon="6.794589">
        <ele>2198.779</ele>
        <time>2018-07-21T07:02:11Z</time>
      </trkpt>
      <trkpt lat="45.311174" lon="6.794643">
        <ele>2198.785</ele>
        <time>2018-07-21T07:02:16Z</time>
      </trkpt>
      <trkpt lat="45.311145" lon="6.794699">
        <ele>2198.393</ele>
        <time>2018-07-21T07:02:21Z</time>
      </trkpt>
      <trkpt lat="45.311116" lon="6.794760">
        <ele>2197.565</ele>
        <time>2018-07-21T07:02:26Z</time>
      </trkpt>
      <trkpt lat="45.311088" lon="6.794822">
        <ele>2197.621</ele>
        <time>2018-07-21T07:02:32Z</time>
      </trkpt>
      <trkpt lat="45.311050" lon="6.794865">
        <ele>2198.308</ele>
        <time>2018-07-21T07:02:38Z</time>
      </trkpt>
      <trkpt lat="45.311020" lon="6.794928">
        <ele>2197.841</ele>
        <time>2018-07-21T07:02:44Z</time>
      </trkpt>
      <trkpt lat="45.310993" lon="6.794983">
        <ele>2198.036</ele>
        <time>2018-07-21T07:02:49Z</time>
      </trkpt>
      <trkpt lat="45.310955" lon="6.795027">
        <ele>2198.663</ele>
        <time>2018-07-21T07:02:54Z</time>
      </trkpt>
      <trkpt lat="45.310908" lon="6.795061">
        <ele>2198.788</ele>
        <time>2018-07-21T07:02:59Z</time>
      </trkpt>
      <trkpt lat="45.310861" lon="6.795074">
        <ele>2198.097</ele>
        <time>2018-07-21T07:03:03Z</time>
      </trkpt>
      <trkpt lat="45.310817" lon="6.795033">
        <ele>2197.619</ele>
        <time>2018-07-21T07:03:08Z</time>
      </trkpt>
      <trkpt lat="45.310775" lon="6.794988">
        <ele>2196.957</ele>
        <time>2018-07-21T07:03:13Z</time>
      </trkpt>
      <trkpt lat="45.310737" lon="6.794944">
        <ele>2195.843</ele>
        <time>2018-07-21T07:03:18Z</time>
      </trkpt>
      <trkpt lat="45.310718" lon="6.794877">
        <ele>2195.361</ele>
        <time>2018-07-21T07:03:23Z</time>
      </trkpt>
      <trkpt lat="45.310715" lon="6.794806">
        <ele>2194.821</ele>
        <time>2018-07-21T07:03:28Z</time>
      </trkpt>
      <trkpt lat="45.310680" lon="6.794757">
        <ele>2193.913</ele>
        <time>2018-07-21T07:03:33Z</time>
      </trkpt>
      <trkpt lat="45.310627" lon="6.794744">
        <ele>2194.208</ele>
        <time>2018-07-21T07:03:38Z</time>
      </trkpt>
      <trkpt lat="45.310575" lon="6.794749">
        <ele>2193.468</ele>
        <time>2018-07-21T07:03:44Z</time>
      </trkpt>
      <trkpt lat="45.310544" lon="6.794802">
        <ele>2192.433</ele>
        <time>2018-07-21T07:03:50Z</time>
      </trkpt>
      <trkpt lat="45.310519" lon="6.794860">
        <ele>2192.340</ele>
        <time>2018-07-21T07:03:55Z</time>
      </trkpt>
      <trkpt lat="45.310492" lon="6.794918">
        <ele>2191.465</ele>
        <time>2018-07-21T07:04:00Z</time>
      </trkpt>
      <trkpt lat="45.310474" lon="6.794989">
        <ele>2190.934</ele>
        <time>2018-07-21T07:04:05Z</time>
      </trkpt>
      <trkpt lat="45.310458" lon="6.795049">
        <ele>2190.646</ele>
        <time>2018-07-21T07:04:09Z</time>
      </trkpt>
      <trkpt lat="45.310439" lon="6.795114">
        <ele>2190.284</ele>
        <time>2018-07-21T07:04:13Z</time>
      </trkpt>
      <trkpt lat="45.310408" lon="6.795167">
        <ele>2189.780</ele>
        <time>2018-07-21T07:04:17Z</time>
      </trkpt>
      <trkpt lat="45.310369" lon="6.795206">
        <ele>2189.938</ele>
        <time>2018-07-21T07:04:21Z</time>
      </trkpt>
      <trkpt lat="45.310332" lon="6.795244">
        <ele>2189.370</ele>
        <time>2018-07-21T07:04:25Z</time>
      </trkpt>
      <trkpt lat="45.310289" lon="6.795276">
        <ele>2189.717</ele>
        <time>2018-07-21T07:04:30Z</time>
      </trkpt>
      <trkpt lat="45.310256" lon="6.795322">
        <ele>2188.808</ele>
        <time>2018-07-21T07:04:36Z</time>
      </trkpt>
      <trkpt lat="45.310231" lon="6.795378">
        <ele>2187.345</ele>
        <time>2018-07-21T07:04:45Z</time>
      </trkpt>
      <trkpt lat="45.310205" lon="6.795431">
        <ele>2186.450</ele>
        <time>2018-07-21T07:04:53Z</time>
      </trkpt>
      <trkpt lat="45.310167" lon="6.795477">
        <ele>2185.957</ele>
        <time>2018-07-21T07:04:58Z</time>
      </trkpt>
      <trkpt lat="45.310129" lon="6.795524">
        <ele>2185.292</ele>
        <time>2018-07-21T07:05:04Z</time>
      </trkpt>
      <trkpt lat="45.310109" lon="6.795590">
        <ele>2184.251</ele>
        <time>2018-07-21T07:05:10Z</time>
      </trkpt>
      <trkpt lat="45.310074" lon="6.795641">
        <ele>2184.143</ele>
        <time>2018-07-21T07:05:15Z</time>
      </trkpt>
      <trkpt lat="45.310026" lon="6.795673">
        <ele>2184.821</ele>
        <time>2018-07-21T07:05:21Z</time>
      </trkpt>
      <trkpt lat="45.309983" lon="6.795700">
        <ele>2184.027</ele>
        <time>2018-07-21T07:05:28Z</time>
      </trkpt>
      <trkpt lat="45.309934" lon="6.795703">
        <ele>2183.741</ele>
        <time>2018-07-21T07:05:35Z</time>
      </trkpt>
      <trkpt lat="45.309880" lon="6.795713">
        <ele>2183.781</ele>
        <time>2018-07-21T07:05:40Z</time>
      </trkpt>
      <trkpt lat="45.309829" lon="6.795729">
        <ele>2185.709</ele>
        <time>2018-07-21T07:05:45Z</time>
      </trkpt>
      <trkpt lat="45.309784" lon="6.795779">
        <ele>2185.108</ele>
        <time>2018-07-21T07:05:50Z</time>
      </trkpt>
      <trkpt lat="45.309748" lon="6.795826">
        <ele>2182.496</ele>
        <time>2018-07-21T07:05:54Z</time>
      </trkpt>
      <trkpt lat="45.309702" lon="6.795873">
        <ele>2182.311</ele>
        <time>2018-07-21T07:05:59Z</time>
      </trkpt>
      <trkpt lat="45.309660" lon="6.795910">
        <ele>2182.348</ele>
        <time>2018-07-21T07:06:03Z</time>
      </trkpt>
      <trkpt lat="45.309619" lon="6.795943">
        <ele>2184.313</ele>
        <time>2018-07-21T07:06:07Z</time>
      </trkpt>
      <trkpt lat="45.309574" lon="6.795968">
        <ele>2183.622</ele>
        <time>2018-07-21T07:06:12Z</time>
      </trkpt>
      <trkpt lat="45.309539" lon="6.796012">
        <ele>2182.794</ele>
        <time>2018-07-21T07:06:17Z</time>
      </trkpt>
      <trkpt lat="45.309511" lon="6.796072">
        <ele>2182.082</ele>
        <time>2018-07-21T07:06:22Z</time>
      </trkpt>
      <trkpt lat="45.309483" lon="6.796130">
        <ele>2181.068</ele>
        <time>2018-07-21T07:06:27Z</time>
      </trkpt>
      <trkpt lat="45.309443" lon="6.796177">
        <ele>2180.359</ele>
        <time>2018-07-21T07:06:32Z</time>
      </trkpt>
      <trkpt lat="45.309405" lon="6.796217">
        <ele>2179.403</ele>
        <time>2018-07-21T07:06:36Z</time>
      </trkpt>
      <trkpt lat="45.309361" lon="6.796245">
        <ele>2178.623</ele>
        <time>2018-07-21T07:06:40Z</time>
      </trkpt>
      <trkpt lat="45.309320" lon="6.796279">
        <ele>2178.808</ele>
        <time>2018-07-21T07:06:44Z</time>
      </trkpt>
      <trkpt lat="45.309282" lon="6.796318">
        <ele>2179.047</ele>
        <time>2018-07-21T07:06:48Z</time>
      </trkpt>
      <trkpt lat="45.309240" lon="6.796353">
        <ele>2179.072</ele>
        <time>2018-07-21T07:06:52Z</time>
      </trkpt>
      <trkpt lat="45.309198" lon="6.796398">
        <ele>2179.349</ele>
        <time>2018-07-21T07:06:56Z</time>
      </trkpt>
      <trkpt lat="45.309151" lon="6.796437">
        <ele>2177.254</ele>
        <time>2018-07-21T07:07:01Z</time>
      </trkpt>
      <trkpt lat="45.309107" lon="6.796472">
        <ele>2177.183</ele>
        <time>2018-07-21T07:07:06Z</time>
      </trkpt>
      <trkpt lat="45.309063" lon="6.796487">
        <ele>2180.685</ele>
        <time>2018-07-21T07:07:11Z</time>
      </trkpt>
      <trkpt lat="45.309014" lon="6.796501">
        <ele>2177.873</ele>
        <time>2018-07-21T07:07:18Z</time>
      </trkpt>
      <trkpt lat="45.308977" lon="6.796545">
        <ele>2178.449</ele>
        <time>2018-07-21T07:07:24Z</time>
      </trkpt>
      <trkpt lat="45.308937" lon="6.796591">
        <ele>2176.383</ele>
        <time>2018-07-21T07:07:29Z</time>
      </trkpt>
      <trkpt lat="45.308892" lon="6.796631">
        <ele>2175.325</ele>
        <time>2018-07-21T07:07:36Z</time>
      </trkpt>
      <trkpt lat="45.308846" lon="6.796670">
        <ele>2175.817</ele>
        <time>2018-07-21T07:07:41Z</time>
      </trkpt>
      <trkpt lat="45.308804" lon="6.796695">
        <ele>2175.508</ele>
        <time>2018-07-21T07:07:45Z</time>
      </trkpt>
      <trkpt lat="45.308759" lon="6.796711">
        <ele>2174.760</ele>
        <time>2018-07-21T07:07:49Z</time>
      </trkpt>
      <trkpt lat="45.308711" lon="6.796721">
        <ele>2174.245</ele>
        <time>2018-07-21T07:07:53Z</time>
      </trkpt>
      <trkpt lat="45.308666" lon="6.796737">
        <ele>2174.182</ele>
        <time>2018-07-21T07:07:57Z</time>
      </trkpt>
      <trkpt lat="45.308617" lon="6.796758">
        <ele>2173.237</ele>
        <time>2018-07-21T07:08:03Z</time>
      </trkpt>
      <trkpt lat="45.308574" lon="6.796783">
        <ele>2172.226</ele>
        <time>2018-07-21T07:08:08Z</time>
      </trkpt>
      <trkpt lat="45.308521" lon="6.796785">
        <ele>2171.688</ele>
        <time>2018-07-21T07:08:13Z</time>
      </trkpt>
      <trkpt lat="45.308469" lon="6.796786">
        <ele>2167.886</ele>
        <time>2018-07-21T07:08:18Z</time>
      </trkpt>
      <trkpt lat="45.308422" lon="6.796784">
        <ele>2169.672</ele>
        <time>2018-07-21T07:08:22Z</time>
      </trkpt>
      <trkpt lat="45.308376" lon="6.796787">
        <ele>2169.628</ele>
        <time>2018-07-21T07:08:26Z</time>
      </trkpt>
      <trkpt lat="45.308331" lon="6.796787">
        <ele>2169.989</ele>
        <time>2018-07-21T07:08:30Z</time>
      </trkpt>
      <trkpt lat="45.308284" lon="6.796803">
        <ele>2169.217</ele>
        <time>2018-07-21T07:08:35Z</time>
      </trkpt>
      <trkpt lat="45.308233" lon="6.796826">
        <ele>2169.008</ele>
        <time>2018-07-21T07:08:41Z</time>
      </trkpt>
      <trkpt lat="45.308184" lon="6.796846">
        <ele>2168.754</ele>
        <time>2018-07-21T07:08:46Z</time>
      </trkpt>
      <trkpt lat="45.308138" lon="6.796854">
        <ele>2167.839</ele>
        <time>2018-07-21T07:08:51Z</time>
      </trkpt>
      <trkpt lat="45.308087" lon="6.796854">
        <ele>2167.346</ele>
        <time>2018-07-21T07:08:57Z</time>
      </trkpt>
      <trkpt lat="45.308038" lon="6.796873">
        <ele>2166.111</ele>
        <time>2018-07-21T07:09:03Z</time>
      </trkpt>
      <trkpt lat="45.307990" lon="6.796902">
        <ele>2165.190</ele>
        <time>2018-07-21T07:09:10Z</time>
      </trkpt>
      <trkpt lat="45.307947" lon="6.796926">
        <ele>2164.582</ele>
        <time>2018-07-21T07:09:15Z</time>
      </trkpt>
      <trkpt lat="45.307901" lon="6.796934">
        <ele>2164.840</ele>
        <time>2018-07-21T07:09:20Z</time>
      </trkpt>
      <trkpt lat="45.307852" lon="6.796943">
        <ele>2165.526</ele>
        <time>2018-07-21T07:09:26Z</time>
      </trkpt>
      <trkpt lat="45.307807" lon="6.796951">
        <ele>2165.619</ele>
        <time>2018-07-21T07:09:31Z</time>
      </trkpt>
      <trkpt lat="45.307759" lon="6.796978">
        <ele>2164.409</ele>
        <time>2018-07-21T07:09:37Z</time>
      </trkpt>
      <trkpt lat="45.307716" lon="6.797010">
        <ele>2164.619</ele>
        <time>2018-07-21T07:09:42Z</time>
      </trkpt>
      <trkpt lat="45.307669" lon="6.797043">
        <ele>2163.608</ele>
        <time>2018-07-21T07:09:48Z</time>
      </trkpt>
      <trkpt lat="45.307615" lon="6.797054">
        <ele>2162.993</ele>
        <time>2018-07-21T07:09:54Z</time>
      </trkpt>
      <trkpt lat="45.307566" lon="6.797050">
        <ele>2162.178</ele>
        <time>2018-07-21T07:10:00Z</time>
      </trkpt>
      <trkpt lat="45.307521" lon="6.797067">
        <ele>2161.685</ele>
        <time>2018-07-21T07:10:05Z</time>
      </trkpt>
      <trkpt lat="45.307476" lon="6.797080">
        <ele>2162.530</ele>
        <time>2018-07-21T07:10:11Z</time>
      </trkpt>
      <trkpt lat="45.307438" lon="6.797118">
        <ele>2164.119</ele>
        <time>2018-07-21T07:10:21Z</time>
      </trkpt>
      <trkpt lat="45.307394" lon="6.797171">
        <ele>2165.641</ele>
        <time>2018-07-21T07:10:45Z</time>
      </trkpt>
      <trkpt lat="45.307353" lon="6.797219">
        <ele>2164.669</ele>
        <time>2018-07-21T07:11:37Z</time>
      </trkpt>
      <trkpt lat="45.307313" lon="6.797263">
        <ele>2163.865</ele>
        <time>2018-07-21T07:11:44Z</time>
      </trkpt>
      <trkpt lat="45.307273" lon="6.797296">
        <ele>2162.662</ele>
        <time>2018-07-21T07:12:01Z</time>
      </trkpt>
      <trkpt lat="45.307237" lon="6.797336">
        <ele>2160.283</ele>
        <time>2018-07-21T07:12:15Z</time>
      </trkpt>
      <trkpt lat="45.307192" lon="6.797357">
        <ele>2158.811</ele>
        <time>2018-07-21T07:12:22Z</time>
      </trkpt>
      <trkpt lat="45.307148" lon="6.797377">
        <ele>2157.508</ele>
        <time>2018-07-21T07:12:30Z</time>
      </trkpt>
      <trkpt lat="45.307103" lon="6.797410">
        <ele>2155.878</ele>
        <time>2018-07-21T07:12:39Z</time>
      </trkpt>
      <trkpt lat="45.307059" lon="6.797441">
        <ele>2154.963</ele>
        <time>2018-07-21T07:12:45Z</time>
      </trkpt>
      <trkpt lat="45.307014" lon="6.797445">
        <ele>2154.010</ele>
        <time>2018-07-21T07:12:50Z</time>
      </trkpt>
      <trkpt lat="45.306967" lon="6.797455">
        <ele>2153.815</ele>
        <time>2018-07-21T07:12:55Z</time>
      </trkpt>
      <trkpt lat="45.306916" lon="6.797472">
        <ele>2152.514</ele>
        <time>2018-07-21T07:13:02Z</time>
      </trkpt>
      <trkpt lat="45.306873" lon="6.797497">
        <ele>2151.796</ele>
        <time>2018-07-21T07:13:19Z</time>
      </trkpt>
      <trkpt lat="45.306828" lon="6.797528">
        <ele>2150.444</ele>
        <time>2018-07-21T07:13:29Z</time>
      </trkpt>
      <trkpt lat="45.306782" lon="6.797533">
        <ele>2148.170</ele>
        <time>2018-07-21T07:13:42Z</time>
      </trkpt>
      <trkpt lat="45.306749" lon="6.797581">
        <ele>2146.517</ele>
        <time>2018-07-21T07:13:52Z</time>
      </trkpt>
      <trkpt lat="45.306710" lon="6.797628">
        <ele>2144.387</ele>
        <time>2018-07-21T07:14:01Z</time>
      </trkpt>
      <trkpt lat="45.306678" lon="6.797682">
        <ele>2143.015</ele>
        <time>2018-07-21T07:14:08Z</time>
      </trkpt>
      <trkpt lat="45.306644" lon="6.797737">
        <ele>2142.208</ele>
        <time>2018-07-21T07:14:13Z</time>
      </trkpt>
      <trkpt lat="45.306608" lon="6.797783">
        <ele>2141.313</ele>
        <time>2018-07-21T07:14:19Z</time>
      </trkpt>
      <trkpt lat="45.306577" lon="6.797833">
        <ele>2139.488</ele>
        <time>2018-07-21T07:14:26Z</time>
      </trkpt>
      <trkpt lat="45.306544" lon="6.797888">
        <ele>2138.465</ele>
        <time>2018-07-21T07:14:31Z</time>
      </trkpt>
      <trkpt lat="45.306514" lon="6.797945">
        <ele>2137.940</ele>
        <time>2018-07-21T07:14:36Z</time>
      </trkpt>
      <trkpt lat="45.306474" lon="6.797978">
        <ele>2136.839</ele>
        <time>2018-07-21T07:14:41Z</time>
      </trkpt>
      <trkpt lat="45.306435" lon="6.798013">
        <ele>2135.921</ele>
        <time>2018-07-21T07:14:48Z</time>
      </trkpt>
      <trkpt lat="45.306399" lon="6.798064">
        <ele>2134.319</ele>
        <time>2018-07-21T07:14:54Z</time>
      </trkpt>
      <trkpt lat="45.306360" lon="6.798112">
        <ele>2133.045</ele>
        <time>2018-07-21T07:15:00Z</time>
      </trkpt>
      <trkpt lat="45.306314" lon="6.798141">
        <ele>2131.422</ele>
        <time>2018-07-21T07:15:07Z</time>
      </trkpt>
      <trkpt lat="45.306283" lon="6.798195">
        <ele>2129.862</ele>
        <time>2018-07-21T07:15:13Z</time>
      </trkpt>
      <trkpt lat="45.306249" lon="6.798237">
        <ele>2128.508</ele>
        <time>2018-07-21T07:15:19Z</time>
      </trkpt>
      <trkpt lat="45.306205" lon="6.798281">
        <ele>2127.808</ele>
        <time>2018-07-21T07:15:25Z</time>
      </trkpt>
      <trkpt lat="45.306161" lon="6.798312">
        <ele>2127.324</ele>
        <time>2018-07-21T07:15:30Z</time>
      </trkpt>
      <trkpt lat="45.306117" lon="6.798344">
        <ele>2126.619</ele>
        <time>2018-07-21T07:15:35Z</time>
      </trkpt>
      <trkpt lat="45.306078" lon="6.798378">
        <ele>2126.046</ele>
        <time>2018-07-21T07:15:40Z</time>
      </trkpt>
      <trkpt lat="45.306039" lon="6.798417">
        <ele>2124.761</ele>
        <time>2018-07-21T07:15:46Z</time>
      </trkpt>
      <trkpt lat="45.305989" lon="6.798431">
        <ele>2124.130</ele>
        <time>2018-07-21T07:15:53Z</time>
      </trkpt>
      <trkpt lat="45.305943" lon="6.798441">
        <ele>2123.252</ele>
        <time>2018-07-21T07:15:59Z</time>
      </trkpt>
      <trkpt lat="45.305895" lon="6.798463">
        <ele>2121.970</ele>
        <time>2018-07-21T07:16:07Z</time>
      </trkpt>
      <trkpt lat="45.305856" lon="6.798499">
        <ele>2120.686</ele>
        <time>2018-07-21T07:16:14Z</time>
      </trkpt>
      <trkpt lat="45.305819" lon="6.798548">
        <ele>2119.292</ele>
        <time>2018-07-21T07:16:22Z</time>
      </trkpt>
      <trkpt lat="45.305777" lon="6.798578">
        <ele>2118.373</ele>
        <time>2018-07-21T07:16:27Z</time>
      </trkpt>
      <trkpt lat="45.305727" lon="6.798601">
        <ele>2118.320</ele>
        <time>2018-07-21T07:16:33Z</time>
      </trkpt>
      <trkpt lat="45.305682" lon="6.798635">
        <ele>2119.208</ele>
        <time>2018-07-21T07:16:41Z</time>
      </trkpt>
      <trkpt lat="45.305638" lon="6.798658">
        <ele>2118.821</ele>
        <time>2018-07-21T07:16:47Z</time>
      </trkpt>
      <trkpt lat="45.305596" lon="6.798691">
        <ele>2118.976</ele>
        <time>2018-07-21T07:16:52Z</time>
      </trkpt>
      <trkpt lat="45.305555" lon="6.798741">
        <ele>2119.073</ele>
        <time>2018-07-21T07:16:57Z</time>
      </trkpt>
      <trkpt lat="45.305509" lon="6.798773">
        <ele>2119.338</ele>
        <time>2018-07-21T07:17:02Z</time>
      </trkpt>
      <trkpt lat="45.305463" lon="6.798785">
        <ele>2119.757</ele>
        <time>2018-07-21T07:17:08Z</time>
      </trkpt>
      <trkpt lat="45.305412" lon="6.798788">
        <ele>2120.119</ele>
        <time>2018-07-21T07:17:15Z</time>
      </trkpt>
      <trkpt lat="45.305366" lon="6.798800">
        <ele>2119.057</ele>
        <time>2018-07-21T07:17:24Z</time>
      </trkpt>
      <trkpt lat="45.305322" lon="6.798839">
        <ele>2117.633</ele>
        <time>2018-07-21T07:17:35Z</time>
      </trkpt>
      <trkpt lat="45.305277" lon="6.798851">
        <ele>2117.974</ele>
        <time>2018-07-21T07:17:40Z</time>
      </trkpt>
      <trkpt lat="45.305227" lon="6.798866">
        <ele>2117.456</ele>
        <time>2018-07-21T07:17:45Z</time>
      </trkpt>
      <trkpt lat="45.305187" lon="6.798898">
        <ele>2116.721</ele>
        <time>2018-07-21T07:17:50Z</time>
      </trkpt>
      <trkpt lat="45.305138" lon="6.798903">
        <ele>2116.308</ele>
        <time>2018-07-21T07:17:55Z</time>
      </trkpt>
      <trkpt lat="45.305093" lon="6.798871">
        <ele>2117.689</ele>
        <time>2018-07-21T07:18:02Z</time>
      </trkpt>
      <trkpt lat="45.305046" lon="6.798848">
        <ele>2117.894</ele>
        <time>2018-07-21T07:18:09Z</time>
      </trkpt>
      <trkpt lat="45.304999" lon="6.798830">
        <ele>2117.331</ele>
        <time>2018-07-21T07:18:15Z</time>
      </trkpt>
      <trkpt lat="45.304949" lon="6.798824">
        <ele>2117.426</ele>
        <time>2018-07-21T07:18:20Z</time>
      </trkpt>
      <trkpt lat="45.304901" lon="6.798820">
        <ele>2116.935</ele>
        <time>2018-07-21T07:18:26Z</time>
      </trkpt>
      <trkpt lat="45.304851" lon="6.798826">
        <ele>2116.647</ele>
        <time>2018-07-21T07:18:31Z</time>
      </trkpt>
      <trkpt lat="45.304803" lon="6.798819">
        <ele>2117.275</ele>
        <time>2018-07-21T07:18:37Z</time>
      </trkpt>
      <trkpt lat="45.304755" lon="6.798824">
        <ele>2117.471</ele>
        <time>2018-07-21T07:18:43Z</time>
      </trkpt>
      <trkpt lat="45.304708" lon="6.798834">
        <ele>2118.639</ele>
        <time>2018-07-21T07:18:52Z</time>
      </trkpt>
      <trkpt lat="45.304658" lon="6.798834">
        <ele>2118.101</ele>
        <time>2018-07-21T07:18:58Z</time>
      </trkpt>
      <trkpt lat="45.304610" lon="6.798807">
        <ele>2117.821</ele>
        <time>2018-07-21T07:19:03Z</time>
      </trkpt>
      <trkpt lat="45.304567" lon="6.798787">
        <ele>2117.008</ele>
        <time>2018-07-21T07:19:08Z</time>
      </trkpt>
      <trkpt lat="45.304520" lon="6.798780">
        <ele>2116.525</ele>
        <time>2018-07-21T07:19:14Z</time>
      </trkpt>
      <trkpt lat="45.304468" lon="6.798782">
        <ele>2116.290</ele>
        <time>2018-07-21T07:19:19Z</time>
      </trkpt>
      <trkpt lat="45.304423" lon="6.798792">
        <ele>2115.437</ele>
        <time>2018-07-21T07:19:25Z</time>
      </trkpt>
      <trkpt lat="45.304381" lon="6.798828">
        <ele>2114.442</ele>
        <time>2018-07-21T07:19:33Z</time>
      </trkpt>
      <trkpt lat="45.304343" lon="6.798865">
        <ele>2113.111</ele>
        <time>2018-07-21T07:19:39Z</time>
      </trkpt>
      <trkpt lat="45.304299" lon="6.798904">
        <ele>2112.133</ele>
        <time>2018-07-21T07:19:45Z</time>
      </trkpt>
      <trkpt lat="45.304247" lon="6.798933">
        <ele>2112.041</ele>
        <time>2018-07-21T07:19:50Z</time>
      </trkpt>
      <trkpt lat="45.304203" lon="6.798956">
        <ele>2111.867</ele>
        <time>2018-07-21T07:19:55Z</time>
      </trkpt>
      <trkpt lat="45.304169" lon="6.799018">
        <ele>2111.174</ele>
        <time>2018-07-21T07:20:01Z</time>
      </trkpt>
      <trkpt lat="45.304122" lon="6.799053">
        <ele>2111.856</ele>
        <time>2018-07-21T07:20:07Z</time>
      </trkpt>
      <trkpt lat="45.304072" lon="6.799048">
        <ele>2111.621</ele>
        <time>2018-07-21T07:20:12Z</time>
      </trkpt>
      <trkpt lat="45.304021" lon="6.799044">
        <ele>2111.608</ele>
        <time>2018-07-21T07:20:17Z</time>
      </trkpt>
      <trkpt lat="45.303968" lon="6.799032">
        <ele>2111.149</ele>
        <time>2018-07-21T07:20:22Z</time>
      </trkpt>
      <trkpt lat="45.303920" lon="6.799024">
        <ele>2111.024</ele>
        <time>2018-07-21T07:20:28Z</time>
      </trkpt>
      <trkpt lat="45.303870" lon="6.799036">
        <ele>2111.081</ele>
        <time>2018-07-21T07:20:34Z</time>
      </trkpt>
      <trkpt lat="45.303821" lon="6.799052">
        <ele>2110.196</ele>
        <time>2018-07-21T07:20:40Z</time>
      </trkpt>
      <trkpt lat="45.303776" lon="6.799063">
        <ele>2109.385</ele>
        <time>2018-07-21T07:20:45Z</time>
      </trkpt>
      <trkpt lat="45.303734" lon="6.799094">
        <ele>2109.797</ele>
        <time>2018-07-21T07:20:50Z</time>
      </trkpt>
      <trkpt lat="45.303692" lon="6.799117">
        <ele>2109.325</ele>
        <time>2018-07-21T07:20:55Z</time>
      </trkpt>
      <trkpt lat="45.303655" lon="6.799155">
        <ele>2108.631</ele>
        <time>2018-07-21T07:21:00Z</time>
      </trkpt>
      <trkpt lat="45.303615" lon="6.799190">
        <ele>2108.234</ele>
        <time>2018-07-21T07:21:05Z</time>
      </trkpt>
      <trkpt lat="45.303563" lon="6.799216">
        <ele>2107.955</ele>
        <time>2018-07-21T07:21:10Z</time>
      </trkpt>
      <trkpt lat="45.303518" lon="6.799220">
        <ele>2108.410</ele>
        <time>2018-07-21T07:21:14Z</time>
      </trkpt>
      <trkpt lat="45.303462" lon="6.799226">
        <ele>2109.208</ele>
        <time>2018-07-21T07:21:19Z</time>
      </trkpt>
      <trkpt lat="45.303413" lon="6.799239">
        <ele>2109.525</ele>
        <time>2018-07-21T07:21:24Z</time>
      </trkpt>
      <trkpt lat="45.303364" lon="6.799239">
        <ele>2109.310</ele>
        <time>2018-07-21T07:21:29Z</time>
      </trkpt>
      <trkpt lat="45.303319" lon="6.799229">
        <ele>2109.317</ele>
        <time>2018-07-21T07:21:33Z</time>
      </trkpt>
      <trkpt lat="45.303268" lon="6.799227">
        <ele>2109.862</ele>
        <time>2018-07-21T07:21:38Z</time>
      </trkpt>
      <trkpt lat="45.303223" lon="6.799212">
        <ele>2109.631</ele>
        <time>2018-07-21T07:21:43Z</time>
      </trkpt>
      <trkpt lat="45.303176" lon="6.799195">
        <ele>2109.443</ele>
        <time>2018-07-21T07:21:53Z</time>
      </trkpt>
      <trkpt lat="45.303141" lon="6.799148">
        <ele>2108.051</ele>
        <time>2018-07-21T07:22:01Z</time>
      </trkpt>
      <trkpt lat="45.303114" lon="6.799093">
        <ele>2107.897</ele>
        <time>2018-07-21T07:22:06Z</time>
      </trkpt>
      <trkpt lat="45.303088" lon="6.799034">
        <ele>2107.826</ele>
        <time>2018-07-21T07:22:11Z</time>
      </trkpt>
      <trkpt lat="45.303062" lon="6.798975">
        <ele>2107.947</ele>
        <time>2018-07-21T07:22:16Z</time>
      </trkpt>
      <trkpt lat="45.303049" lon="6.798909">
        <ele>2109.011</ele>
        <time>2018-07-21T07:22:22Z</time>
      </trkpt>
      <trkpt lat="45.303010" lon="6.798872">
        <ele>2110.408</ele>
        <time>2018-07-21T07:22:30Z</time>
      </trkpt>
      <trkpt lat="45.302962" lon="6.798886">
        <ele>2107.214</ele>
        <time>2018-07-21T07:22:37Z</time>
      </trkpt>
      <trkpt lat="45.302916" lon="6.798863">
        <ele>2108.789</ele>
        <time>2018-07-21T07:22:43Z</time>
      </trkpt>
      <trkpt lat="45.302883" lon="6.798809">
        <ele>2108.296</ele>
        <time>2018-07-21T07:22:48Z</time>
      </trkpt>
      <trkpt lat="45.302848" lon="6.798759">
        <ele>2107.541</ele>
        <time>2018-07-21T07:22:53Z</time>
      </trkpt>
      <trkpt lat="45.302816" lon="6.798705">
        <ele>2105.990</ele>
        <time>2018-07-21T07:23:02Z</time>
      </trkpt>
      <trkpt lat="45.302796" lon="6.798646">
        <ele>2105.542</ele>
        <time>2018-07-21T07:23:08Z</time>
      </trkpt>
      <trkpt lat="45.302759" lon="6.798602">
        <ele>2104.510</ele>
        <time>2018-07-21T07:23:16Z</time>
      </trkpt>
      <trkpt lat="45.302713" lon="6.798592">
        <ele>2103.486</ele>
        <time>2018-07-21T07:23:24Z</time>
      </trkpt>
      <trkpt lat="45.302665" lon="6.798609">
        <ele>2102.368</ele>
        <time>2018-07-21T07:23:31Z</time>
      </trkpt>
      <trkpt lat="45.302615" lon="6.798613">
        <ele>2102.142</ele>
        <time>2018-07-21T07:23:37Z</time>
      </trkpt>
      <trkpt lat="45.302569" lon="6.798594">
        <ele>2101.126</ele>
        <time>2018-07-21T07:23:45Z</time>
      </trkpt>
      <trkpt lat="45.302528" lon="6.798564">
        <ele>2103.008</ele>
        <time>2018-07-21T07:24:59Z</time>
      </trkpt>
      <trkpt lat="45.302485" lon="6.798531">
        <ele>2098.468</ele>
        <time>2018-07-21T07:25:27Z</time>
      </trkpt>
      <trkpt lat="45.302445" lon="6.798485">
        <ele>2098.023</ele>
        <time>2018-07-21T07:25:34Z</time>
      </trkpt>
      <trkpt lat="45.302412" lon="6.798428">
        <ele>2099.770</ele>
        <time>2018-07-21T07:25:39Z</time>
      </trkpt>
      <trkpt lat="45.302381" lon="6.798378">
        <ele>2096.235</ele>
        <time>2018-07-21T07:25:45Z</time>
      </trkpt>
      <trkpt lat="45.302347" lon="6.798327">
        <ele>2096.774</ele>
        <time>2018-07-21T07:25:52Z</time>
      </trkpt>
      <trkpt lat="45.302337" lon="6.798261">
        <ele>2093.266</ele>
        <time>2018-07-21T07:26:26Z</time>
      </trkpt>
      <trkpt lat="45.302334" lon="6.798189">
        <ele>2092.574</ele>
        <time>2018-07-21T07:26:32Z</time>
      </trkpt>
      <trkpt lat="45.302322" lon="6.798126">
        <ele>2091.220</ele>
        <time>2018-07-21T07:26:38Z</time>
      </trkpt>
      <trkpt lat="45.302315" lon="6.798049">
        <ele>2090.838</ele>
        <time>2018-07-21T07:26:44Z</time>
      </trkpt>
      <trkpt lat="45.302305" lon="6.797973">
        <ele>2089.870</ele>
        <time>2018-07-21T07:26:50Z</time>
      </trkpt>
      <trkpt lat="45.302294" lon="6.797908">
        <ele>2088.917</ele>
        <time>2018-07-21T07:26:55Z</time>
      </trkpt>
      <trkpt lat="45.302259" lon="6.797851">
        <ele>2088.208</ele>
        <time>2018-07-21T07:27:00Z</time>
      </trkpt>
      <trkpt lat="45.302212" lon="6.797824">
        <ele>2090.015</ele>
        <time>2018-07-21T07:27:05Z</time>
      </trkpt>
      <trkpt lat="45.302164" lon="6.797788">
        <ele>2087.140</ele>
        <time>2018-07-21T07:27:13Z</time>
      </trkpt>
      <trkpt lat="45.302126" lon="6.797742">
        <ele>2087.837</ele>
        <time>2018-07-21T07:27:23Z</time>
      </trkpt>
      <trkpt lat="45.302079" lon="6.797727">
        <ele>2089.782</ele>
        <time>2018-07-21T07:27:29Z</time>
      </trkpt>
      <trkpt lat="45.302057" lon="6.797671">
        <ele>2090.031</ele>
        <time>2018-07-21T07:27:34Z</time>
      </trkpt>
      <trkpt lat="45.302041" lon="6.797610">
        <ele>2089.363</ele>
        <time>2018-07-21T07:27:38Z</time>
      </trkpt>
      <trkpt lat="45.302021" lon="6.797551">
        <ele>2087.571</ele>
        <time>2018-07-21T07:27:42Z</time>
      </trkpt>
      <trkpt lat="45.301994" lon="6.797497">
        <ele>2087.367</ele>
        <time>2018-07-21T07:27:46Z</time>
      </trkpt>
      <trkpt lat="45.301968" lon="6.797433">
        <ele>2086.642</ele>
        <time>2018-07-21T07:27:51Z</time>
      </trkpt>
      <trkpt lat="45.301955" lon="6.797361">
        <ele>2085.722</ele>
        <time>2018-07-21T07:27:56Z</time>
      </trkpt>
      <trkpt lat="45.301930" lon="6.797307">
        <ele>2084.914</ele>
        <time>2018-07-21T07:28:00Z</time>
      </trkpt>
      <trkpt lat="45.301901" lon="6.797251">
        <ele>2084.508</ele>
        <time>2018-07-21T07:28:04Z</time>
      </trkpt>
      <trkpt lat="45.301867" lon="6.797198">
        <ele>2083.926</ele>
        <time>2018-07-21T07:28:09Z</time>
      </trkpt>
      <trkpt lat="45.301836" lon="6.797147">
        <ele>2083.491</ele>
        <time>2018-07-21T07:28:13Z</time>
      </trkpt>
      <trkpt lat="45.301806" lon="6.797088">
        <ele>2083.128</ele>
        <time>2018-07-21T07:28:17Z</time>
      </trkpt>
      <trkpt lat="45.301777" lon="6.797029">
        <ele>2083.613</ele>
        <time>2018-07-21T07:28:21Z</time>
      </trkpt>
      <trkpt lat="45.301745" lon="6.796974">
        <ele>2083.182</ele>
        <time>2018-07-21T07:28:25Z</time>
      </trkpt>
      <trkpt lat="45.301713" lon="6.796914">
        <ele>2082.954</ele>
        <time>2018-07-21T07:28:29Z</time>
      </trkpt>
      <trkpt lat="45.301682" lon="6.796854">
        <ele>2082.842</ele>
        <time>2018-07-21T07:28:33Z</time>
      </trkpt>
      <trkpt lat="45.301660" lon="6.796794">
        <ele>2083.598</ele>
        <time>2018-07-21T07:28:37Z</time>
      </trkpt>
      <trkpt lat="45.301638" lon="6.796737">
        <ele>2083.723</ele>
        <time>2018-07-21T07:28:41Z</time>
      </trkpt>
      <trkpt lat="45.301609" lon="6.796682">
        <ele>2083.983</ele>
        <time>2018-07-21T07:28:45Z</time>
      </trkpt>
      <trkpt lat="45.301578" lon="6.796630">
        <ele>2085.811</ele>
        <time>2018-07-21T07:28:49Z</time>
      </trkpt>
      <trkpt lat="45.301554" lon="6.796569">
        <ele>2086.208</ele>
        <time>2018-07-21T07:28:55Z</time>
      </trkpt>
      <trkpt lat="45.301545" lon="6.796501">
        <ele>2085.354</ele>
        <time>2018-07-21T07:29:01Z</time>
      </trkpt>
      <trkpt lat="45.301543" lon="6.796433">
        <ele>2087.319</ele>
        <time>2018-07-21T07:29:08Z</time>
      </trkpt>
      <trkpt lat="45.301531" lon="6.796364">
        <ele>2089.376</ele>
        <time>2018-07-21T07:29:15Z</time>
      </trkpt>
      <trkpt lat="45.301511" lon="6.796292">
        <ele>2087.511</ele>
        <time>2018-07-21T07:29:25Z</time>
      </trkpt>
      <trkpt lat="45.301489" lon="6.796224">
        <ele>2087.820</ele>
        <time>2018-07-21T07:29:32Z</time>
      </trkpt>
      <trkpt lat="45.301472" lon="6.796163">
        <ele>2088.232</ele>
        <time>2018-07-21T07:29:37Z</time>
      </trkpt>
      <trkpt lat="45.301455" lon="6.796095">
        <ele>2090.520</ele>
        <time>2018-07-21T07:29:42Z</time>
      </trkpt>
      <trkpt lat="45.301434" lon="6.796033">
        <ele>2091.236</ele>
        <time>2018-07-21T07:29:47Z</time>
      </trkpt>
      <trkpt lat="45.301411" lon="6.795972">
        <ele>2092.047</ele>
        <time>2018-07-21T07:29:52Z</time>
      </trkpt>
      <trkpt lat="45.301398" lon="6.795909">
        <ele>2091.529</ele>
        <time>2018-07-21T07:29:57Z</time>
      </trkpt>
      <trkpt lat="45.301400" lon="6.795840">
        <ele>2092.821</ele>
        <time>2018-07-21T07:30:03Z</time>
      </trkpt>
      <trkpt lat="45.301394" lon="6.795771">
        <ele>2093.708</ele>
        <time>2018-07-21T07:30:11Z</time>
      </trkpt>
      <trkpt lat="45.301385" lon="6.795699">
        <ele>2094.596</ele>
        <time>2018-07-21T07:30:18Z</time>
      </trkpt>
      <trkpt lat="45.301370" lon="6.795631">
        <ele>2095.381</ele>
        <time>2018-07-21T07:30:24Z</time>
      </trkpt>
      <trkpt lat="45.301368" lon="6.795566">
        <ele>2094.418</ele>
        <time>2018-07-21T07:30:29Z</time>
      </trkpt>
      <trkpt lat="45.301371" lon="6.795499">
        <ele>2094.973</ele>
        <time>2018-07-21T07:30:34Z</time>
      </trkpt>
      <trkpt lat="45.301380" lon="6.795433">
        <ele>2095.442</ele>
        <time>2018-07-21T07:30:39Z</time>
      </trkpt>
      <trkpt lat="45.301392" lon="6.795361">
        <ele>2095.784</ele>
        <time>2018-07-21T07:30:45Z</time>
      </trkpt>
      <trkpt lat="45.301375" lon="6.795298">
        <ele>2096.122</ele>
        <time>2018-07-21T07:30:50Z</time>
      </trkpt>
      <trkpt lat="45.301355" lon="6.795235">
        <ele>2096.448</ele>
        <time>2018-07-21T07:30:55Z</time>
      </trkpt>
      <trkpt lat="45.301344" lon="6.795158">
        <ele>2096.537</ele>
        <time>2018-07-21T07:31:00Z</time>
      </trkpt>
      <trkpt lat="45.301341" lon="6.795081">
        <ele>2096.249</ele>
        <time>2018-07-21T07:31:05Z</time>
      </trkpt>
      <trkpt lat="45.301348" lon="6.795008">
        <ele>2095.913</ele>
        <time>2018-07-21T07:31:10Z</time>
      </trkpt>
      <trkpt lat="45.301363" lon="6.794941">
        <ele>2096.408</ele>
        <time>2018-07-21T07:31:15Z</time>
      </trkpt>
      <trkpt lat="45.301382" lon="6.794868">
        <ele>2096.625</ele>
        <time>2018-07-21T07:31:20Z</time>
      </trkpt>
      <trkpt lat="45.301391" lon="6.794795">
        <ele>2096.720</ele>
        <time>2018-07-21T07:31:25Z</time>
      </trkpt>
      <trkpt lat="45.301412" lon="6.794732">
        <ele>2097.177</ele>
        <time>2018-07-21T07:31:30Z</time>
      </trkpt>
      <trkpt lat="45.301437" lon="6.794676">
        <ele>2097.292</ele>
        <time>2018-07-21T07:31:34Z</time>
      </trkpt>
      <trkpt lat="45.301456" lon="6.794617">
        <ele>2097.931</ele>
        <time>2018-07-21T07:31:38Z</time>
      </trkpt>
      <trkpt lat="45.301482" lon="6.794551">
        <ele>2099.273</ele>
        <time>2018-07-21T07:31:44Z</time>
      </trkpt>
      <trkpt lat="45.301505" lon="6.794485">
        <ele>2099.571</ele>
        <time>2018-07-21T07:31:50Z</time>
      </trkpt>
      <trkpt lat="45.301506" lon="6.794412">
        <ele>2100.187</ele>
        <time>2018-07-21T07:31:57Z</time>
      </trkpt>
      <trkpt lat="45.301510" lon="6.794348">
        <ele>2100.063</ele>
        <time>2018-07-21T07:32:02Z</time>
      </trkpt>
      <trkpt lat="45.301534" lon="6.794289">
        <ele>2101.344</ele>
        <time>2018-07-21T07:32:10Z</time>
      </trkpt>
      <trkpt lat="45.301545" lon="6.794220">
        <ele>2102.018</ele>
        <time>2018-07-21T07:32:17Z</time>
      </trkpt>
      <trkpt lat="45.301560" lon="6.794157">
        <ele>2102.408</ele>
        <time>2018-07-21T07:32:23Z</time>
      </trkpt>
      <trkpt lat="45.301576" lon="6.794094">
        <ele>2103.438</ele>
        <time>2018-07-21T07:32:37Z</time>
      </trkpt>
      <trkpt lat="45.301598" lon="6.794033">
        <ele>2104.673</ele>
        <time>2018-07-21T07:32:45Z</time>
      </trkpt>
      <trkpt lat="45.301610" lon="6.793967">
        <ele>2105.710</ele>
        <time>2018-07-21T07:32:56Z</time>
      </trkpt>
      <trkpt lat="45.301619" lon="6.793904">
        <ele>2107.225</ele>
        <time>2018-07-21T07:33:07Z</time>
      </trkpt>
      <trkpt lat="45.301644" lon="6.793843">
        <ele>2108.354</ele>
        <time>2018-07-21T07:33:18Z</time>
      </trkpt>
      <trkpt lat="45.301670" lon="6.793785">
        <ele>2109.326</ele>
        <time>2018-07-21T07:33:27Z</time>
      </trkpt>
      <trkpt lat="45.301697" lon="6.793732">
        <ele>2110.854</ele>
        <time>2018-07-21T07:33:41Z</time>
      </trkpt>
      <trkpt lat="45.301723" lon="6.793670">
        <ele>2113.520</ele>
        <time>2018-07-21T07:33:52Z</time>
      </trkpt>
      <trkpt lat="45.301749" lon="6.793615">
        <ele>2113.351</ele>
        <time>2018-07-21T07:33:59Z</time>
      </trkpt>
      <trkpt lat="45.301763" lon="6.793547">
        <ele>2114.001</ele>
        <time>2018-07-21T07:34:09Z</time>
      </trkpt>
      <trkpt lat="45.301790" lon="6.793495">
        <ele>2116.011</ele>
        <time>2018-07-21T07:34:20Z</time>
      </trkpt>
      <trkpt lat="45.301812" lon="6.793434">
        <ele>2116.708</ele>
        <time>2018-07-21T07:34:29Z</time>
      </trkpt>
      <trkpt lat="45.301836" lon="6.793379">
        <ele>2118.297</ele>
        <time>2018-07-21T07:34:39Z</time>
      </trkpt>
      <trkpt lat="45.301846" lon="6.793314">
        <ele>2118.562</ele>
        <time>2018-07-21T07:34:47Z</time>
      </trkpt>
      <trkpt lat="45.301860" lon="6.793251">
        <ele>2119.419</ele>
        <time>2018-07-21T07:34:55Z</time>
      </trkpt>
      <trkpt lat="45.301885" lon="6.793193">
        <ele>2121.284</ele>
        <time>2018-07-21T07:35:05Z</time>
      </trkpt>
      <trkpt lat="45.301885" lon="6.793124">
        <ele>2123.893</ele>
        <time>2018-07-21T07:35:18Z</time>
      </trkpt>
      <trkpt lat="45.301907" lon="6.793065">
        <ele>2126.615</ele>
        <time>2018-07-21T07:35:31Z</time>
      </trkpt>
      <trkpt lat="45.301912" lon="6.793001">
        <ele>2125.863</ele>
        <time>2018-07-21T07:35:39Z</time>
      </trkpt>
      <trkpt lat="45.301912" lon="6.792936">
        <ele>2127.089</ele>
        <time>2018-07-21T07:35:46Z</time>
      </trkpt>
      <trkpt lat="45.301918" lon="6.792864">
        <ele>2126.486</ele>
        <time>2018-07-21T07:37:23Z</time>
      </trkpt>
      <trkpt lat="45.301892" lon="6.792802">
        <ele>2126.460</ele>
        <time>2018-07-21T07:37:29Z</time>
      </trkpt>
      <trkpt lat="45.301873" lon="6.792742">
        <ele>2129.226</ele>
        <time>2018-07-21T07:37:35Z</time>
      </trkpt>
      <trkpt lat="45.301853" lon="6.792679">
        <ele>2128.508</ele>
        <time>2018-07-21T07:37:44Z</time>
      </trkpt>
      <trkpt lat="45.301832" lon="6.792617">
        <ele>2130.430</ele>
        <time>2018-07-21T07:37:54Z</time>
      </trkpt>
      <trkpt lat="45.301817" lon="6.792554">
        <ele>2130.865</ele>
        <time>2018-07-21T07:38:05Z</time>
      </trkpt>
      <trkpt lat="45.301814" lon="6.792486">
        <ele>2132.992</ele>
        <time>2018-07-21T07:38:21Z</time>
      </trkpt>
      <trkpt lat="45.301791" lon="6.792425">
        <ele>2132.997</ele>
        <time>2018-07-21T07:38:28Z</time>
      </trkpt>
      <trkpt lat="45.301799" lon="6.792358">
        <ele>2134.376</ele>
        <time>2018-07-21T07:38:37Z</time>
      </trkpt>
      <trkpt lat="45.301783" lon="6.792294">
        <ele>2136.178</ele>
        <time>2018-07-21T07:38:49Z</time>
      </trkpt>
      <trkpt lat="45.301761" lon="6.792235">
        <ele>2137.176</ele>
        <time>2018-07-21T07:38:58Z</time>
      </trkpt>
      <trkpt lat="45.301745" lon="6.792172">
        <ele>2138.562</ele>
        <time>2018-07-21T07:39:08Z</time>
      </trkpt>
      <trkpt lat="45.301740" lon="6.792104">
        <ele>2139.553</ele>
        <time>2018-07-21T07:39:18Z</time>
      </trkpt>
      <trkpt lat="45.301719" lon="6.792042">
        <ele>2142.604</ele>
        <time>2018-07-21T07:39:27Z</time>
      </trkpt>
      <trkpt lat="45.301709" lon="6.791979">
        <ele>2141.414</ele>
        <time>2018-07-21T07:39:36Z</time>
      </trkpt>
      <trkpt lat="45.301701" lon="6.791912">
        <ele>2143.908</ele>
        <time>2018-07-21T07:39:47Z</time>
      </trkpt>
      <trkpt lat="45.301687" lon="6.791844">
        <ele>2145.997</ele>
        <time>2018-07-21T07:39:56Z</time>
      </trkpt>
      <trkpt lat="45.301690" lon="6.791778">
        <ele>2144.132</ele>
        <time>2018-07-21T07:40:03Z</time>
      </trkpt>
      <trkpt lat="45.301672" lon="6.791714">
        <ele>2146.459</ele>
        <time>2018-07-21T07:40:20Z</time>
      </trkpt>
      <trkpt lat="45.301665" lon="6.791648">
        <ele>2150.824</ele>
        <time>2018-07-21T07:40:32Z</time>
      </trkpt>
      <trkpt lat="45.301673" lon="6.791582">
        <ele>2150.623</ele>
        <time>2018-07-21T07:40:50Z</time>
      </trkpt>
      <trkpt lat="45.301662" lon="6.791515">
        <ele>2153.295</ele>
        <time>2018-07-21T07:41:02Z</time>
      </trkpt>
      <trkpt lat="45.301638" lon="6.791459">
        <ele>2155.213</ele>
        <time>2018-07-21T07:41:18Z</time>
      </trkpt>
      <trkpt lat="45.301613" lon="6.791399">
        <ele>2156.369</ele>
        <time>2018-07-21T07:41:34Z</time>
      </trkpt>
      <trkpt lat="45.301590" lon="6.791342">
        <ele>2159.373</ele>
        <time>2018-07-21T07:42:02Z</time>
      </trkpt>
      <trkpt lat="45.301555" lon="6.791298">
        <ele>2163.485</ele>
        <time>2018-07-21T07:42:22Z</time>
      </trkpt>
      <trkpt lat="45.301516" lon="6.791262">
        <ele>2162.913</ele>
        <time>2018-07-21T07:42:34Z</time>
      </trkpt>
      <trkpt lat="45.301476" lon="6.791220">
        <ele>2163.808</ele>
        <time>2018-07-21T07:42:42Z</time>
      </trkpt>
      <trkpt lat="45.301443" lon="6.791166">
        <ele>2163.879</ele>
        <time>2018-07-21T07:42:49Z</time>
      </trkpt>
      <trkpt lat="45.301411" lon="6.791113">
        <ele>2165.584</ele>
        <time>2018-07-21T07:43:00Z</time>
      </trkpt>
      <trkpt lat="45.301374" lon="6.791075">
        <ele>2165.521</ele>
        <time>2018-07-21T07:44:11Z</time>
      </trkpt>
      <trkpt lat="45.301329" lon="6.791047">
        <ele>2166.686</ele>
        <time>2018-07-21T07:44:19Z</time>
      </trkpt>
      <trkpt lat="45.301277" lon="6.791040">
        <ele>2166.355</ele>
        <time>2018-07-21T07:44:25Z</time>
      </trkpt>
      <trkpt lat="45.301234" lon="6.791065">
        <ele>2166.837</ele>
        <time>2018-07-21T07:44:31Z</time>
      </trkpt>
      <trkpt lat="45.301188" lon="6.791101">
        <ele>2167.545</ele>
        <time>2018-07-21T07:44:38Z</time>
      </trkpt>
      <trkpt lat="45.301151" lon="6.791145">
        <ele>2167.711</ele>
        <time>2018-07-21T07:44:44Z</time>
      </trkpt>
      <trkpt lat="45.301115" lon="6.791189">
        <ele>2167.793</ele>
        <time>2018-07-21T07:44:49Z</time>
      </trkpt>
      <trkpt lat="45.301073" lon="6.791231">
        <ele>2168.565</ele>
        <time>2018-07-21T07:44:55Z</time>
      </trkpt>
      <trkpt lat="45.301025" lon="6.791271">
        <ele>2171.621</ele>
        <time>2018-07-21T07:45:01Z</time>
      </trkpt>
      <trkpt lat="45.300984" lon="6.791320">
        <ele>2169.408</ele>
        <time>2018-07-21T07:45:06Z</time>
      </trkpt>
      <trkpt lat="45.300944" lon="6.791354">
        <ele>2169.511</ele>
        <time>2018-07-21T07:45:11Z</time>
      </trkpt>
      <trkpt lat="45.300897" lon="6.791379">
        <ele>2170.346</ele>
        <time>2018-07-21T07:45:17Z</time>
      </trkpt>
      <trkpt lat="45.300852" lon="6.791351">
        <ele>2173.343</ele>
        <time>2018-07-21T07:45:26Z</time>
      </trkpt>
      <trkpt lat="45.300821" lon="6.791299">
        <ele>2175.868</ele>
        <time>2018-07-21T07:45:35Z</time>
      </trkpt>
      <trkpt lat="45.300856" lon="6.791259">
        <ele>2175.547</ele>
        <time>2018-07-21T07:45:51Z</time>
      </trkpt>
      <trkpt lat="45.300897" lon="6.791230">
        <ele>2176.889</ele>
        <time>2018-07-21T07:46:00Z</time>
      </trkpt>
      <trkpt lat="45.300928" lon="6.791179">
        <ele>2177.947</ele>
        <time>2018-07-21T07:46:10Z</time>
      </trkpt>
      <trkpt lat="45.300954" lon="6.791125">
        <ele>2179.343</ele>
        <time>2018-07-21T07:46:20Z</time>
      </trkpt>
      <trkpt lat="45.300950" lon="6.791056">
        <ele>2181.713</ele>
        <time>2018-07-21T07:46:40Z</time>
      </trkpt>
      <trkpt lat="45.300954" lon="6.790979">
        <ele>2183.743</ele>
        <time>2018-07-21T07:46:57Z</time>
      </trkpt>
      <trkpt lat="45.300974" lon="6.790913">
        <ele>2184.907</ele>
        <time>2018-07-21T07:47:07Z</time>
      </trkpt>
      <trkpt lat="45.300939" lon="6.790870">
        <ele>2187.108</ele>
        <time>2018-07-21T07:47:28Z</time>
      </trkpt>
      <trkpt lat="45.300914" lon="6.790810">
        <ele>2188.733</ele>
        <time>2018-07-21T07:47:41Z</time>
      </trkpt>
      <trkpt lat="45.300916" lon="6.790745">
        <ele>2189.428</ele>
        <time>2018-07-21T07:47:50Z</time>
      </trkpt>
      <trkpt lat="45.300914" lon="6.790677">
        <ele>2190.855</ele>
        <time>2018-07-21T07:47:59Z</time>
      </trkpt>
      <trkpt lat="45.300922" lon="6.790609">
        <ele>2191.940</ele>
        <time>2018-07-21T07:48:11Z</time>
      </trkpt>
      <trkpt lat="45.300908" lon="6.790548">
        <ele>2192.669</ele>
        <time>2018-07-21T07:48:21Z</time>
      </trkpt>
      <trkpt lat="45.300899" lon="6.790483">
        <ele>2193.961</ele>
        <time>2018-07-21T07:48:32Z</time>
      </trkpt>
      <trkpt lat="45.300902" lon="6.790417">
        <ele>2195.159</ele>
        <time>2018-07-21T07:48:42Z</time>
      </trkpt>
      <trkpt lat="45.300909" lon="6.790349">
        <ele>2195.975</ele>
        <time>2018-07-21T07:48:52Z</time>
      </trkpt>
      <trkpt lat="45.300906" lon="6.790284">
        <ele>2197.255</ele>
        <time>2018-07-21T07:49:01Z</time>
      </trkpt>
      <trkpt lat="45.300889" lon="6.790221">
        <ele>2197.807</ele>
        <time>2018-07-21T07:49:09Z</time>
      </trkpt>
      <trkpt lat="45.300873" lon="6.790159">
        <ele>2198.617</ele>
        <time>2018-07-21T07:49:19Z</time>
      </trkpt>
      <trkpt lat="45.300882" lon="6.790095">
        <ele>2200.808</ele>
        <time>2018-07-21T07:49:31Z</time>
      </trkpt>
      <trkpt lat="45.300892" lon="6.790032">
        <ele>2201.757</ele>
        <time>2018-07-21T07:49:45Z</time>
      </trkpt>
      <trkpt lat="45.300891" lon="6.789965">
        <ele>2203.022</ele>
        <time>2018-07-21T07:49:55Z</time>
      </trkpt>
      <trkpt lat="45.300874" lon="6.789903">
        <ele>2205.869</ele>
        <time>2018-07-21T07:50:02Z</time>
      </trkpt>
      <trkpt lat="45.300846" lon="6.789850">
        <ele>2203.884</ele>
        <time>2018-07-21T07:50:08Z</time>
      </trkpt>
      <trkpt lat="45.300794" lon="6.789850">
        <ele>2204.143</ele>
        <time>2018-07-21T07:50:15Z</time>
      </trkpt>
      <trkpt lat="45.300747" lon="6.789856">
        <ele>2205.075</ele>
        <time>2018-07-21T07:50:22Z</time>
      </trkpt>
      <trkpt lat="45.300700" lon="6.789879">
        <ele>2205.833</ele>
        <time>2018-07-21T07:50:29Z</time>
      </trkpt>
      <trkpt lat="45.300654" lon="6.789854">
        <ele>2206.519</ele>
        <time>2018-07-21T07:50:38Z</time>
      </trkpt>
      <trkpt lat="45.300606" lon="6.789845">
        <ele>2207.261</ele>
        <time>2018-07-21T07:50:48Z</time>
      </trkpt>
      <trkpt lat="45.300565" lon="6.789820">
        <ele>2208.221</ele>
        <time>2018-07-21T07:50:57Z</time>
      </trkpt>
      <trkpt lat="45.300515" lon="6.789825">
        <ele>2209.013</ele>
        <time>2018-07-21T07:51:05Z</time>
      </trkpt>
      <trkpt lat="45.300467" lon="6.789817">
        <ele>2209.708</ele>
        <time>2018-07-21T07:51:12Z</time>
      </trkpt>
      <trkpt lat="45.300421" lon="6.789825">
        <ele>2209.928</ele>
        <time>2018-07-21T07:51:20Z</time>
      </trkpt>
      <trkpt lat="45.300375" lon="6.789835">
        <ele>2211.333</ele>
        <time>2018-07-21T07:51:28Z</time>
      </trkpt>
      <trkpt lat="45.300340" lon="6.789792">
        <ele>2213.430</ele>
        <time>2018-07-21T07:51:42Z</time>
      </trkpt>
      <trkpt lat="45.300291" lon="6.789802">
        <ele>2215.975</ele>
        <time>2018-07-21T07:51:49Z</time>
      </trkpt>
      <trkpt lat="45.300246" lon="6.789781">
        <ele>2217.044</ele>
        <time>2018-07-21T07:51:58Z</time>
      </trkpt>
      <trkpt lat="45.300204" lon="6.789754">
        <ele>2216.076</ele>
        <time>2018-07-21T07:52:10Z</time>
      </trkpt>
      <trkpt lat="45.300161" lon="6.789733">
        <ele>2217.764</ele>
        <time>2018-07-21T07:52:25Z</time>
      </trkpt>
      <trkpt lat="45.300150" lon="6.789664">
        <ele>2218.650</ele>
        <time>2018-07-21T07:52:39Z</time>
      </trkpt>
      <trkpt lat="45.300167" lon="6.789602">
        <ele>2219.686</ele>
        <time>2018-07-21T07:52:48Z</time>
      </trkpt>
      <trkpt lat="45.300173" lon="6.789538">
        <ele>2221.560</ele>
        <time>2018-07-21T07:53:04Z</time>
      </trkpt>
      <trkpt lat="45.300141" lon="6.789490">
        <ele>2222.426</ele>
        <time>2018-07-21T07:53:15Z</time>
      </trkpt>
      <trkpt lat="45.300099" lon="6.789451">
        <ele>2223.108</ele>
        <time>2018-07-21T07:53:24Z</time>
      </trkpt>
      <trkpt lat="45.300059" lon="6.789413">
        <ele>2224.230</ele>
        <time>2018-07-21T07:53:33Z</time>
      </trkpt>
      <trkpt lat="45.300012" lon="6.789401">
        <ele>2224.155</ele>
        <time>2018-07-21T07:53:40Z</time>
      </trkpt>
      <trkpt lat="45.299963" lon="6.789389">
        <ele>2223.672</ele>
        <time>2018-07-21T07:53:47Z</time>
      </trkpt>
      <trkpt lat="45.299916" lon="6.789382">
        <ele>2223.227</ele>
        <time>2018-07-21T07:53:53Z</time>
      </trkpt>
      <trkpt lat="45.299872" lon="6.789366">
        <ele>2224.046</ele>
        <time>2018-07-21T07:54:01Z</time>
      </trkpt>
      <trkpt lat="45.299854" lon="6.789304">
        <ele>2225.538</ele>
        <time>2018-07-21T07:54:12Z</time>
      </trkpt>
      <trkpt lat="45.299840" lon="6.789239">
        <ele>2227.726</ele>
        <time>2018-07-21T07:54:25Z</time>
      </trkpt>
      <trkpt lat="45.299804" lon="6.789188">
        <ele>2227.942</ele>
        <time>2018-07-21T07:54:33Z</time>
      </trkpt>
      <trkpt lat="45.299770" lon="6.789132">
        <ele>2228.198</ele>
        <time>2018-07-21T07:54:40Z</time>
      </trkpt>
      <trkpt lat="45.299748" lon="6.789067">
        <ele>2228.915</ele>
        <time>2018-07-21T07:54:48Z</time>
      </trkpt>
      <trkpt lat="45.299729" lon="6.789000">
        <ele>2229.126</ele>
        <time>2018-07-21T07:54:55Z</time>
      </trkpt>
      <trkpt lat="45.299706" lon="6.788936">
        <ele>2231.208</ele>
        <time>2018-07-21T07:55:01Z</time>
      </trkpt>
      <trkpt lat="45.299689" lon="6.788867">
        <ele>2228.851</ele>
        <time>2018-07-21T07:55:06Z</time>
      </trkpt>
      <trkpt lat="45.299678" lon="6.788795">
        <ele>2229.356</ele>
        <time>2018-07-21T07:55:11Z</time>
      </trkpt>
      <trkpt lat="45.299653" lon="6.788734">
        <ele>2228.843</ele>
        <time>2018-07-21T07:55:16Z</time>
      </trkpt>
      <trkpt lat="45.299625" lon="6.788676">
        <ele>2229.058</ele>
        <time>2018-07-21T07:55:21Z</time>
      </trkpt>
      <trkpt lat="45.299598" lon="6.788618">
        <ele>2228.627</ele>
        <time>2018-07-21T07:55:27Z</time>
      </trkpt>
      <trkpt lat="45.299565" lon="6.788568">
        <ele>2228.559</ele>
        <time>2018-07-21T07:55:34Z</time>
      </trkpt>
      <trkpt lat="45.299523" lon="6.788540">
        <ele>2226.527</ele>
        <time>2018-07-21T07:55:41Z</time>
      </trkpt>
      <trkpt lat="45.299482" lon="6.788514">
        <ele>2225.463</ele>
        <time>2018-07-21T07:56:45Z</time>
      </trkpt>
      <trkpt lat="45.299455" lon="6.788463">
        <ele>2225.533</ele>
        <time>2018-07-21T07:56:51Z</time>
      </trkpt>
      <trkpt lat="45.299415" lon="6.788430">
        <ele>2224.323</ele>
        <time>2018-07-21T07:57:02Z</time>
      </trkpt>
      <trkpt lat="45.299368" lon="6.788450">
        <ele>2224.115</ele>
        <time>2018-07-21T07:57:09Z</time>
      </trkpt>
      <trkpt lat="45.299313" lon="6.788451">
        <ele>2223.608</ele>
        <time>2018-07-21T07:57:21Z</time>
      </trkpt>
      <trkpt lat="45.299281" lon="6.788496">
        <ele>2224.915</ele>
        <time>2018-07-21T07:57:47Z</time>
      </trkpt>
      <trkpt lat="45.299248" lon="6.788547">
        <ele>2226.210</ele>
        <time>2018-07-21T07:57:57Z</time>
      </trkpt>
      <trkpt lat="45.299214" lon="6.788596">
        <ele>2227.937</ele>
        <time>2018-07-21T07:58:06Z</time>
      </trkpt>
      <trkpt lat="45.299173" lon="6.788627">
        <ele>2228.892</ele>
        <time>2018-07-21T07:58:18Z</time>
      </trkpt>
      <trkpt lat="45.299144" lon="6.788676">
        <ele>2230.341</ele>
        <time>2018-07-21T07:58:35Z</time>
      </trkpt>
      <trkpt lat="45.299106" lon="6.788712">
        <ele>2231.243</ele>
        <time>2018-07-21T07:58:44Z</time>
      </trkpt>
      <trkpt lat="45.299063" lon="6.788741">
        <ele>2232.721</ele>
        <time>2018-07-21T07:58:54Z</time>
      </trkpt>
      <trkpt lat="45.299034" lon="6.788794">
        <ele>2235.447</ele>
        <time>2018-07-21T07:59:35Z</time>
      </trkpt>
      <trkpt lat="45.299010" lon="6.788738">
        <ele>2237.176</ele>
        <time>2018-07-21T07:59:49Z</time>
      </trkpt>
      <trkpt lat="45.299000" lon="6.788671">
        <ele>2241.290</ele>
        <time>2018-07-21T08:00:01Z</time>
      </trkpt>
      <trkpt lat="45.298998" lon="6.788606">
        <ele>2239.719</ele>
        <time>2018-07-21T08:00:12Z</time>
      </trkpt>
      <trkpt lat="45.299004" lon="6.788542">
        <ele>2242.708</ele>
        <time>2018-07-21T08:00:29Z</time>
      </trkpt>
      <trkpt lat="45.298959" lon="6.788531">
        <ele>2244.599</ele>
        <time>2018-07-21T08:00:49Z</time>
      </trkpt>
      <trkpt lat="45.298921" lon="6.788568">
        <ele>2247.444</ele>
        <time>2018-07-21T08:01:17Z</time>
      </trkpt>
      <trkpt lat="45.298916" lon="6.788633">
        <ele>2248.991</ele>
        <time>2018-07-21T08:01:27Z</time>
      </trkpt>
      <trkpt lat="45.298895" lon="6.788692">
        <ele>2252.286</ele>
        <time>2018-07-21T08:01:42Z</time>
      </trkpt>
      <trkpt lat="45.298888" lon="6.788763">
        <ele>2249.375</ele>
        <time>2018-07-21T08:02:00Z</time>
      </trkpt>
      <trkpt lat="45.298869" lon="6.788830">
        <ele>2249.657</ele>
        <time>2018-07-21T08:02:11Z</time>
      </trkpt>
      <trkpt lat="45.298863" lon="6.788895">
        <ele>2250.945</ele>
        <time>2018-07-21T08:02:23Z</time>
      </trkpt>
      <trkpt lat="45.298826" lon="6.788937">
        <ele>2252.071</ele>
        <time>2018-07-21T08:02:31Z</time>
      </trkpt>
      <trkpt lat="45.298799" lon="6.788994">
        <ele>2252.522</ele>
        <time>2018-07-21T08:02:40Z</time>
      </trkpt>
      <trkpt lat="45.298771" lon="6.789045">
        <ele>2253.262</ele>
        <time>2018-07-21T08:02:47Z</time>
      </trkpt>
      <trkpt lat="45.298738" lon="6.789091">
        <ele>2254.608</ele>
        <time>2018-07-21T08:02:57Z</time>
      </trkpt>
      <trkpt lat="45.298706" lon="6.789141">
        <ele>2255.708</ele>
        <time>2018-07-21T08:03:08Z</time>
      </trkpt>
      <trkpt lat="45.298674" lon="6.789090">
        <ele>2258.554</ele>
        <time>2018-07-21T08:03:25Z</time>
      </trkpt>
      <trkpt lat="45.298630" lon="6.789067">
        <ele>2259.979</ele>
        <time>2018-07-21T08:03:40Z</time>
      </trkpt>
      <trkpt lat="45.298587" lon="6.789103">
        <ele>2260.156</ele>
        <time>2018-07-21T08:03:46Z</time>
      </trkpt>
      <trkpt lat="45.298538" lon="6.789095">
        <ele>2260.041</ele>
        <time>2018-07-21T08:03:52Z</time>
      </trkpt>
      <trkpt lat="45.298491" lon="6.789101">
        <ele>2260.420</ele>
        <time>2018-07-21T08:03:57Z</time>
      </trkpt>
      <trkpt lat="45.298438" lon="6.789094">
        <ele>2259.792</ele>
        <time>2018-07-21T08:04:03Z</time>
      </trkpt>
      <trkpt lat="45.298388" lon="6.789090">
        <ele>2259.190</ele>
        <time>2018-07-21T08:04:09Z</time>
      </trkpt>
      <trkpt lat="45.298340" lon="6.789080">
        <ele>2259.556</ele>
        <time>2018-07-21T08:04:16Z</time>
      </trkpt>
      <trkpt lat="45.298292" lon="6.789103">
        <ele>2259.312</ele>
        <time>2018-07-21T08:04:22Z</time>
      </trkpt>
      <trkpt lat="45.298250" lon="6.789126">
        <ele>2259.632</ele>
        <time>2018-07-21T08:04:27Z</time>
      </trkpt>
      <trkpt lat="45.298206" lon="6.789167">
        <ele>2259.805</ele>
        <time>2018-07-21T08:04:32Z</time>
      </trkpt>
      <trkpt lat="45.298163" lon="6.789213">
        <ele>2259.008</ele>
        <time>2018-07-21T08:04:37Z</time>
      </trkpt>
      <trkpt lat="45.298121" lon="6.789253">
        <ele>2257.693</ele>
        <time>2018-07-21T08:04:43Z</time>
      </trkpt>
      <trkpt lat="45.298076" lon="6.789278">
        <ele>2258.168</ele>
        <time>2018-07-21T08:04:48Z</time>
      </trkpt>
      <trkpt lat="45.298025" lon="6.789289">
        <ele>2258.445</ele>
        <time>2018-07-21T08:04:54Z</time>
      </trkpt>
      <trkpt lat="45.297987" lon="6.789248">
        <ele>2262.470</ele>
        <time>2018-07-21T08:05:02Z</time>
      </trkpt>
      <trkpt lat="45.297954" lon="6.789201">
        <ele>2260.799</ele>
        <time>2018-07-21T08:05:09Z</time>
      </trkpt>
      <trkpt lat="45.297932" lon="6.789139">
        <ele>2262.821</ele>
        <time>2018-07-21T08:05:20Z</time>
      </trkpt>
      <trkpt lat="45.297948" lon="6.789078">
        <ele>2264.039</ele>
        <time>2018-07-21T08:05:28Z</time>
      </trkpt>
      <trkpt lat="45.297942" lon="6.789010">
        <ele>2263.985</ele>
        <time>2018-07-21T08:05:34Z</time>
      </trkpt>
      <trkpt lat="45.297933" lon="6.788942">
        <ele>2263.993</ele>
        <time>2018-07-21T08:05:39Z</time>
      </trkpt>
      <trkpt lat="45.297911" lon="6.788881">
        <ele>2264.165</ele>
        <time>2018-07-21T08:05:45Z</time>
      </trkpt>
      <trkpt lat="45.297884" lon="6.788819">
        <ele>2263.621</ele>
        <time>2018-07-21T08:05:52Z</time>
      </trkpt>
      <trkpt lat="45.297853" lon="6.788767">
        <ele>2264.408</ele>
        <time>2018-07-21T08:05:59Z</time>
      </trkpt>
      <trkpt lat="45.297811" lon="6.788739">
        <ele>2263.981</ele>
        <time>2018-07-21T08:06:08Z</time>
      </trkpt>
      <trkpt lat="45.297766" lon="6.788730">
        <ele>2263.536</ele>
        <time>2018-07-21T08:06:13Z</time>
      </trkpt>
      <trkpt lat="45.297716" lon="6.788728">
        <ele>2263.693</ele>
        <time>2018-07-21T08:06:19Z</time>
      </trkpt>
      <trkpt lat="45.297682" lon="6.788679">
        <ele>2264.928</ele>
        <time>2018-07-21T08:06:25Z</time>
      </trkpt>
      <trkpt lat="45.297666" lon="6.788610">
        <ele>2262.697</ele>
        <time>2018-07-21T08:06:31Z</time>
      </trkpt>
      <trkpt lat="45.297619" lon="6.788604">
        <ele>2261.249</ele>
        <time>2018-07-21T08:06:37Z</time>
      </trkpt>
      <trkpt lat="45.297574" lon="6.788631">
        <ele>2260.797</ele>
        <time>2018-07-21T08:06:43Z</time>
      </trkpt>
      <trkpt lat="45.297539" lon="6.788674">
        <ele>2260.523</ele>
        <time>2018-07-21T08:06:48Z</time>
      </trkpt>
      <trkpt lat="45.297499" lon="6.788722">
        <ele>2260.788</ele>
        <time>2018-07-21T08:06:54Z</time>
      </trkpt>
      <trkpt lat="45.297456" lon="6.788769">
        <ele>2260.824</ele>
        <time>2018-07-21T08:07:00Z</time>
      </trkpt>
      <trkpt lat="45.297419" lon="6.788810">
        <ele>2259.726</ele>
        <time>2018-07-21T08:07:09Z</time>
      </trkpt>
      <trkpt lat="45.297376" lon="6.788854">
        <ele>2258.508</ele>
        <time>2018-07-21T08:07:16Z</time>
      </trkpt>
      <trkpt lat="45.297341" lon="6.788901">
        <ele>2257.980</ele>
        <time>2018-07-21T08:07:23Z</time>
      </trkpt>
      <trkpt lat="45.297312" lon="6.788955">
        <ele>2256.725</ele>
        <time>2018-07-21T08:07:29Z</time>
      </trkpt>
      <trkpt lat="45.297266" lon="6.788992">
        <ele>2255.612</ele>
        <time>2018-07-21T08:07:35Z</time>
      </trkpt>
      <trkpt lat="45.297221" lon="6.789027">
        <ele>2254.197</ele>
        <time>2018-07-21T08:08:08Z</time>
      </trkpt>
      <trkpt lat="45.297168" lon="6.789058">
        <ele>2253.896</ele>
        <time>2018-07-21T08:08:13Z</time>
      </trkpt>
      <trkpt lat="45.297123" lon="6.789071">
        <ele>2254.148</ele>
        <time>2018-07-21T08:08:18Z</time>
      </trkpt>
      <trkpt lat="45.297072" lon="6.789094">
        <ele>2255.386</ele>
        <time>2018-07-21T08:08:25Z</time>
      </trkpt>
      <trkpt lat="45.297032" lon="6.789129">
        <ele>2256.722</ele>
        <time>2018-07-21T08:08:33Z</time>
      </trkpt>
      <trkpt lat="45.297007" lon="6.789193">
        <ele>2257.575</ele>
        <time>2018-07-21T08:08:41Z</time>
      </trkpt>
      <trkpt lat="45.296981" lon="6.789257">
        <ele>2258.128</ele>
        <time>2018-07-21T08:08:47Z</time>
      </trkpt>
      <trkpt lat="45.296955" lon="6.789310">
        <ele>2258.320</ele>
        <time>2018-07-21T08:08:52Z</time>
      </trkpt>
      <trkpt lat="45.296917" lon="6.789362">
        <ele>2258.508</ele>
        <time>2018-07-21T08:08:58Z</time>
      </trkpt>
      <trkpt lat="45.296882" lon="6.789405">
        <ele>2259.339</ele>
        <time>2018-07-21T08:09:05Z</time>
      </trkpt>
      <trkpt lat="45.296868" lon="6.789471">
        <ele>2261.324</ele>
        <time>2018-07-21T08:09:19Z</time>
      </trkpt>
      <trkpt lat="45.296847" lon="6.789534">
        <ele>2261.291</ele>
        <time>2018-07-21T08:09:27Z</time>
      </trkpt>
      <trkpt lat="45.296826" lon="6.789599">
        <ele>2261.616</ele>
        <time>2018-07-21T08:09:32Z</time>
      </trkpt>
      <trkpt lat="45.296823" lon="6.789663">
        <ele>2262.235</ele>
        <time>2018-07-21T08:09:38Z</time>
      </trkpt>
      <trkpt lat="45.296805" lon="6.789723">
        <ele>2263.827</ele>
        <time>2018-07-21T08:09:47Z</time>
      </trkpt>
      <trkpt lat="45.296776" lon="6.789778">
        <ele>2265.935</ele>
        <time>2018-07-21T08:09:58Z</time>
      </trkpt>
      <trkpt lat="45.296748" lon="6.789830">
        <ele>2265.951</ele>
        <time>2018-07-21T08:10:03Z</time>
      </trkpt>
      <trkpt lat="45.296722" lon="6.789889">
        <ele>2265.742</ele>
        <time>2018-07-21T08:10:08Z</time>
      </trkpt>
      <trkpt lat="45.296695" lon="6.789950">
        <ele>2265.222</ele>
        <time>2018-07-21T08:10:13Z</time>
      </trkpt>
      <trkpt lat="45.296665" lon="6.790005">
        <ele>2265.714</ele>
        <time>2018-07-21T08:10:18Z</time>
      </trkpt>
      <trkpt lat="45.296622" lon="6.790042">
        <ele>2265.508</ele>
        <time>2018-07-21T08:10:23Z</time>
      </trkpt>
      <trkpt lat="45.296572" lon="6.790075">
        <ele>2265.116</ele>
        <time>2018-07-21T08:10:28Z</time>
      </trkpt>
      <trkpt lat="45.296536" lon="6.790118">
        <ele>2265.421</ele>
        <time>2018-07-21T08:10:33Z</time>
      </trkpt>
      <trkpt lat="45.296509" lon="6.790169">
        <ele>2265.578</ele>
        <time>2018-07-21T08:10:38Z</time>
      </trkpt>
      <trkpt lat="45.296480" lon="6.790225">
        <ele>2265.453</ele>
        <time>2018-07-21T08:10:43Z</time>
      </trkpt>
      <trkpt lat="45.296454" lon="6.790285">
        <ele>2265.472</ele>
        <time>2018-07-21T08:10:48Z</time>
      </trkpt>
      <trkpt lat="45.296434" lon="6.790346">
        <ele>2265.674</ele>
        <time>2018-07-21T08:10:53Z</time>
      </trkpt>
      <trkpt lat="45.296414" lon="6.790408">
        <ele>2264.722</ele>
        <time>2018-07-21T08:11:00Z</time>
      </trkpt>
      <trkpt lat="45.296393" lon="6.790471">
        <ele>2264.648</ele>
        <time>2018-07-21T08:11:04Z</time>
      </trkpt>
      <trkpt lat="45.296377" lon="6.790534">
        <ele>2264.769</ele>
        <time>2018-07-21T08:11:08Z</time>
      </trkpt>
      <trkpt lat="45.296357" lon="6.790596">
        <ele>2264.204</ele>
        <time>2018-07-21T08:11:12Z</time>
      </trkpt>
      <trkpt lat="45.296332" lon="6.790663">
        <ele>2264.024</ele>
        <time>2018-07-21T08:11:16Z</time>
      </trkpt>
      <trkpt lat="45.296310" lon="6.790725">
        <ele>2263.508</ele>
        <time>2018-07-21T08:11:20Z</time>
      </trkpt>
      <trkpt lat="45.296284" lon="6.790785">
        <ele>2263.378</ele>
        <time>2018-07-21T08:11:24Z</time>
      </trkpt>
      <trkpt lat="45.296256" lon="6.790840">
        <ele>2263.983</ele>
        <time>2018-07-21T08:11:28Z</time>
      </trkpt>
      <trkpt lat="45.296230" lon="6.790901">
        <ele>2263.050</ele>
        <time>2018-07-21T08:11:32Z</time>
      </trkpt>
      <trkpt lat="45.296207" lon="6.790960">
        <ele>2262.625</ele>
        <time>2018-07-21T08:11:36Z</time>
      </trkpt>
      <trkpt lat="45.296188" lon="6.791026">
        <ele>2262.874</ele>
        <time>2018-07-21T08:11:40Z</time>
      </trkpt>
      <trkpt lat="45.296174" lon="6.791092">
        <ele>2261.816</ele>
        <time>2018-07-21T08:11:44Z</time>
      </trkpt>
      <trkpt lat="45.296151" lon="6.791151">
        <ele>2261.344</ele>
        <time>2018-07-21T08:11:49Z</time>
      </trkpt>
      <trkpt lat="45.296123" lon="6.791207">
        <ele>2260.080</ele>
        <time>2018-07-21T08:11:54Z</time>
      </trkpt>
      <trkpt lat="45.296084" lon="6.791263">
        <ele>2258.816</ele>
        <time>2018-07-21T08:11:59Z</time>
      </trkpt>
      <trkpt lat="45.296040" lon="6.791308">
        <ele>2258.776</ele>
        <time>2018-07-21T08:12:04Z</time>
      </trkpt>
      <trkpt lat="45.296010" lon="6.791367">
        <ele>2257.513</ele>
        <time>2018-07-21T08:12:09Z</time>
      </trkpt>
      <trkpt lat="45.295974" lon="6.791427">
        <ele>2256.808</ele>
        <time>2018-07-21T08:12:14Z</time>
      </trkpt>
      <trkpt lat="45.295941" lon="6.791489">
        <ele>2256.093</ele>
        <time>2018-07-21T08:12:19Z</time>
      </trkpt>
      <trkpt lat="45.295915" lon="6.791555">
        <ele>2255.048</ele>
        <time>2018-07-21T08:12:24Z</time>
      </trkpt>
      <trkpt lat="45.295889" lon="6.791611">
        <ele>2254.945</ele>
        <time>2018-07-21T08:12:28Z</time>
      </trkpt>
      <trkpt lat="45.295874" lon="6.791677">
        <ele>2254.810</ele>
        <time>2018-07-21T08:12:32Z</time>
      </trkpt>
      <trkpt lat="45.295861" lon="6.791744">
        <ele>2255.139</ele>
        <time>2018-07-21T08:12:36Z</time>
      </trkpt>
      <trkpt lat="45.295848" lon="6.791815">
        <ele>2255.731</ele>
        <time>2018-07-21T08:12:41Z</time>
      </trkpt>
      <trkpt lat="45.295841" lon="6.791883">
        <ele>2256.029</ele>
        <time>2018-07-21T08:12:46Z</time>
      </trkpt>
      <trkpt lat="45.295834" lon="6.791954">
        <ele>2256.125</ele>
        <time>2018-07-21T08:12:51Z</time>
      </trkpt>
      <trkpt lat="45.295820" lon="6.792028">
        <ele>2257.044</ele>
        <time>2018-07-21T08:12:57Z</time>
      </trkpt>
      <trkpt lat="45.295809" lon="6.792091">
        <ele>2257.805</ele>
        <time>2018-07-21T08:13:05Z</time>
      </trkpt>
      <trkpt lat="45.295791" lon="6.792162">
        <ele>2258.215</ele>
        <time>2018-07-21T08:13:11Z</time>
      </trkpt>
      <trkpt lat="45.295777" lon="6.792225">
        <ele>2257.708</ele>
        <time>2018-07-21T08:13:16Z</time>
      </trkpt>
      <trkpt lat="45.295765" lon="6.792288">
        <ele>2257.716</ele>
        <time>2018-07-21T08:13:20Z</time>
      </trkpt>
      <trkpt lat="45.295753" lon="6.792351">
        <ele>2257.051</ele>
        <time>2018-07-21T08:13:24Z</time>
      </trkpt>
      <trkpt lat="45.295743" lon="6.792417">
        <ele>2257.988</ele>
        <time>2018-07-21T08:13:28Z</time>
      </trkpt>
      <trkpt lat="45.295734" lon="6.792489">
        <ele>2257.193</ele>
        <time>2018-07-21T08:13:33Z</time>
      </trkpt>
      <trkpt lat="45.295722" lon="6.792557">
        <ele>2255.372</ele>
        <time>2018-07-21T08:13:39Z</time>
      </trkpt>
      <trkpt lat="45.295708" lon="6.792627">
        <ele>2254.184</ele>
        <time>2018-07-21T08:13:45Z</time>
      </trkpt>
      <trkpt lat="45.295693" lon="6.792695">
        <ele>2252.982</ele>
        <time>2018-07-21T08:13:51Z</time>
      </trkpt>
      <trkpt lat="45.295677" lon="6.792759">
        <ele>2251.218</ele>
        <time>2018-07-21T08:13:57Z</time>
      </trkpt>
      <trkpt lat="45.295667" lon="6.792830">
        <ele>2249.991</ele>
        <time>2018-07-21T08:14:03Z</time>
      </trkpt>
      <trkpt lat="45.295641" lon="6.792884">
        <ele>2249.181</ele>
        <time>2018-07-21T08:14:09Z</time>
      </trkpt>
      <trkpt lat="45.295620" lon="6.792943">
        <ele>2247.519</ele>
        <time>2018-07-21T08:14:17Z</time>
      </trkpt>
      <trkpt lat="45.295588" lon="6.792990">
        <ele>2245.308</ele>
        <time>2018-07-21T08:14:30Z</time>
      </trkpt>
      <trkpt lat="45.295547" lon="6.793025">
        <ele>2244.321</ele>
        <time>2018-07-21T08:14:38Z</time>
      </trkpt>
      <trkpt lat="45.295510" lon="6.793063">
        <ele>2242.256</ele>
        <time>2018-07-21T08:14:45Z</time>
      </trkpt>
      <trkpt lat="45.295539" lon="6.793115">
        <ele>2240.693</ele>
        <time>2018-07-21T08:14:54Z</time>
      </trkpt>
      <trkpt lat="45.295505" lon="6.793160">
        <ele>2241.768</ele>
        <time>2018-07-21T08:15:02Z</time>
      </trkpt>
      <trkpt lat="45.295460" lon="6.793150">
        <ele>2237.927</ele>
        <time>2018-07-21T08:15:08Z</time>
      </trkpt>
      <trkpt lat="45.295473" lon="6.793217">
        <ele>2235.899</ele>
        <time>2018-07-21T08:15:19Z</time>
      </trkpt>
      <trkpt lat="45.295506" lon="6.793262">
        <ele>2235.077</ele>
        <time>2018-07-21T08:15:25Z</time>
      </trkpt>
      <trkpt lat="45.295545" lon="6.793306">
        <ele>2233.463</ele>
        <time>2018-07-21T08:15:31Z</time>
      </trkpt>
      <trkpt lat="45.295583" lon="6.793345">
        <ele>2232.421</ele>
        <time>2018-07-21T08:15:37Z</time>
      </trkpt>
      <trkpt lat="45.295604" lon="6.793403">
        <ele>2230.841</ele>
        <time>2018-07-21T08:15:47Z</time>
      </trkpt>
      <trkpt lat="45.295569" lon="6.793445">
        <ele>2228.905</ele>
        <time>2018-07-21T08:16:01Z</time>
      </trkpt>
      <trkpt lat="45.295544" lon="6.793499">
        <ele>2226.808</ele>
        <time>2018-07-21T08:16:15Z</time>
      </trkpt>
      <trkpt lat="45.295496" lon="6.793491">
        <ele>2225.494</ele>
        <time>2018-07-21T08:16:22Z</time>
      </trkpt>
      <trkpt lat="45.295447" lon="6.793484">
        <ele>2224.639</ele>
        <time>2018-07-21T08:16:29Z</time>
      </trkpt>
      <trkpt lat="45.295401" lon="6.793505">
        <ele>2222.676</ele>
        <time>2018-07-21T08:16:40Z</time>
      </trkpt>
      <trkpt lat="45.295351" lon="6.793510">
        <ele>2221.031</ele>
        <time>2018-07-21T08:16:49Z</time>
      </trkpt>
      <trkpt lat="45.295307" lon="6.793534">
        <ele>2219.460</ele>
        <time>2018-07-21T08:16:59Z</time>
      </trkpt>
      <trkpt lat="45.295260" lon="6.793554">
        <ele>2217.312</ele>
        <time>2018-07-21T08:17:06Z</time>
      </trkpt>
      <trkpt lat="45.295218" lon="6.793584">
        <ele>2218.510</ele>
        <time>2018-07-21T08:17:12Z</time>
      </trkpt>
      <trkpt lat="45.295174" lon="6.793599">
        <ele>2217.586</ele>
        <time>2018-07-21T08:17:17Z</time>
      </trkpt>
      <trkpt lat="45.295125" lon="6.793620">
        <ele>2216.428</ele>
        <time>2018-07-21T08:17:23Z</time>
      </trkpt>
      <trkpt lat="45.295080" lon="6.793634">
        <ele>2212.789</ele>
        <time>2018-07-21T08:17:29Z</time>
      </trkpt>
      <trkpt lat="45.295037" lon="6.793669">
        <ele>2212.317</ele>
        <time>2018-07-21T08:17:37Z</time>
      </trkpt>
      <trkpt lat="45.294991" lon="6.793683">
        <ele>2210.108</ele>
        <time>2018-07-21T08:17:43Z</time>
      </trkpt>
      <trkpt lat="45.294948" lon="6.793704">
        <ele>2208.654</ele>
        <time>2018-07-21T08:17:50Z</time>
      </trkpt>
      <trkpt lat="45.294899" lon="6.793727">
        <ele>2207.679</ele>
        <time>2018-07-21T08:17:57Z</time>
      </trkpt>
      <trkpt lat="45.294850" lon="6.793752">
        <ele>2205.816</ele>
        <time>2018-07-21T08:18:03Z</time>
      </trkpt>
      <trkpt lat="45.294803" lon="6.793772">
        <ele>2205.271</ele>
        <time>2018-07-21T08:18:08Z</time>
      </trkpt>
      <trkpt lat="45.294758" lon="6.793786">
        <ele>2204.420</ele>
        <time>2018-07-21T08:18:12Z</time>
      </trkpt>
      <trkpt lat="45.294704" lon="6.793797">
        <ele>2204.022</ele>
        <time>2018-07-21T08:18:17Z</time>
      </trkpt>
      <trkpt lat="45.294657" lon="6.793790">
        <ele>2203.650</ele>
        <time>2018-07-21T08:18:21Z</time>
      </trkpt>
      <trkpt lat="45.294611" lon="6.793788">
        <ele>2202.156</ele>
        <time>2018-07-21T08:18:28Z</time>
      </trkpt>
      <trkpt lat="45.294565" lon="6.793769">
        <ele>2200.662</ele>
        <time>2018-07-21T08:18:39Z</time>
      </trkpt>
      <trkpt lat="45.294517" lon="6.793762">
        <ele>2199.383</ele>
        <time>2018-07-21T08:18:45Z</time>
      </trkpt>
      <trkpt lat="45.294468" lon="6.793757">
        <ele>2198.611</ele>
        <time>2018-07-21T08:18:50Z</time>
      </trkpt>
      <trkpt lat="45.294421" lon="6.793742">
        <ele>2197.608</ele>
        <time>2018-07-21T08:18:55Z</time>
      </trkpt>
      <trkpt lat="45.294371" lon="6.793739">
        <ele>2197.018</ele>
        <time>2018-07-21T08:19:00Z</time>
      </trkpt>
      <trkpt lat="45.294318" lon="6.793748">
        <ele>2195.953</ele>
        <time>2018-07-21T08:19:05Z</time>
      </trkpt>
      <trkpt lat="45.294270" lon="6.793745">
        <ele>2195.620</ele>
        <time>2018-07-21T08:19:11Z</time>
      </trkpt>
      <trkpt lat="45.294230" lon="6.793703">
        <ele>2192.935</ele>
        <time>2018-07-21T08:20:36Z</time>
      </trkpt>
      <trkpt lat="45.294187" lon="6.793661">
        <ele>2190.774</ele>
        <time>2018-07-21T08:20:44Z</time>
      </trkpt>
      <trkpt lat="45.294172" lon="6.793600">
        <ele>2190.076</ele>
        <time>2018-07-21T08:20:50Z</time>
      </trkpt>
      <trkpt lat="45.294157" lon="6.793539">
        <ele>2188.964</ele>
        <time>2018-07-21T08:20:56Z</time>
      </trkpt>
      <trkpt lat="45.294137" lon="6.793475">
        <ele>2187.910</ele>
        <time>2018-07-21T08:21:04Z</time>
      </trkpt>
      <trkpt lat="45.294131" lon="6.793398">
        <ele>2187.073</ele>
        <time>2018-07-21T08:21:17Z</time>
      </trkpt>
      <trkpt lat="45.294120" lon="6.793330">
        <ele>2188.585</ele>
        <time>2018-07-21T08:21:23Z</time>
      </trkpt>
      <trkpt lat="45.294116" lon="6.793257">
        <ele>2187.813</ele>
        <time>2018-07-21T08:21:28Z</time>
      </trkpt>
      <trkpt lat="45.294116" lon="6.793186">
        <ele>2188.008</ele>
        <time>2018-07-21T08:21:34Z</time>
      </trkpt>
      <trkpt lat="45.294121" lon="6.793113">
        <ele>2189.029</ele>
        <time>2018-07-21T08:21:40Z</time>
      </trkpt>
      <trkpt lat="45.294124" lon="6.793039">
        <ele>2189.494</ele>
        <time>2018-07-21T08:21:46Z</time>
      </trkpt>
      <trkpt lat="45.294123" lon="6.792960">
        <ele>2189.351</ele>
        <time>2018-07-21T08:21:51Z</time>
      </trkpt>
      <trkpt lat="45.294104" lon="6.792888">
        <ele>2188.586</ele>
        <time>2018-07-21T08:21:56Z</time>
      </trkpt>
      <trkpt lat="45.294082" lon="6.792830">
        <ele>2189.045</ele>
        <time>2018-07-21T08:22:04Z</time>
      </trkpt>
      <trkpt lat="45.294053" lon="6.792767">
        <ele>2188.317</ele>
        <time>2018-07-21T08:22:10Z</time>
      </trkpt>
      <trkpt lat="45.294024" lon="6.792709">
        <ele>2188.525</ele>
        <time>2018-07-21T08:22:15Z</time>
      </trkpt>
      <trkpt lat="45.293995" lon="6.792650">
        <ele>2190.371</ele>
        <time>2018-07-21T08:22:20Z</time>
      </trkpt>
      <trkpt lat="45.293965" lon="6.792594">
        <ele>2187.386</ele>
        <time>2018-07-21T08:22:26Z</time>
      </trkpt>
      <trkpt lat="45.293924" lon="6.792546">
        <ele>2186.160</ele>
        <time>2018-07-21T08:22:31Z</time>
      </trkpt>
      <trkpt lat="45.293891" lon="6.792497">
        <ele>2186.926</ele>
        <time>2018-07-21T08:22:37Z</time>
      </trkpt>
      <trkpt lat="45.293871" lon="6.792433">
        <ele>2188.008</ele>
        <time>2018-07-21T08:22:44Z</time>
      </trkpt>
      <trkpt lat="45.293854" lon="6.792369">
        <ele>2188.260</ele>
        <time>2018-07-21T08:22:49Z</time>
      </trkpt>
      <trkpt lat="45.293854" lon="6.792302">
        <ele>2189.845</ele>
        <time>2018-07-21T08:22:58Z</time>
      </trkpt>
      <trkpt lat="45.293839" lon="6.792238">
        <ele>2189.572</ele>
        <time>2018-07-21T08:23:05Z</time>
      </trkpt>
      <trkpt lat="45.293834" lon="6.792168">
        <ele>2190.757</ele>
        <time>2018-07-21T08:23:14Z</time>
      </trkpt>
      <trkpt lat="45.293804" lon="6.792115">
        <ele>2192.246</ele>
        <time>2018-07-21T08:23:20Z</time>
      </trkpt>
      <trkpt lat="45.293777" lon="6.792053">
        <ele>2193.988</ele>
        <time>2018-07-21T08:23:38Z</time>
      </trkpt>
      <trkpt lat="45.293745" lon="6.792005">
        <ele>2195.096</ele>
        <time>2018-07-21T08:23:45Z</time>
      </trkpt>
      <trkpt lat="45.293713" lon="6.791958">
        <ele>2196.362</ele>
        <time>2018-07-21T08:23:54Z</time>
      </trkpt>
      <trkpt lat="45.293691" lon="6.791900">
        <ele>2197.844</ele>
        <time>2018-07-21T08:24:07Z</time>
      </trkpt>
      <trkpt lat="45.293659" lon="6.791849">
        <ele>2198.505</ele>
        <time>2018-07-21T08:24:13Z</time>
      </trkpt>
      <trkpt lat="45.293638" lon="6.791792">
        <ele>2199.015</ele>
        <time>2018-07-21T08:24:19Z</time>
      </trkpt>
      <trkpt lat="45.293595" lon="6.791760">
        <ele>2198.608</ele>
        <time>2018-07-21T08:24:29Z</time>
      </trkpt>
      <trkpt lat="45.293547" lon="6.791752">
        <ele>2197.546</ele>
        <time>2018-07-21T08:24:35Z</time>
      </trkpt>
      <trkpt lat="45.293495" lon="6.791737">
        <ele>2196.081</ele>
        <time>2018-07-21T08:24:42Z</time>
      </trkpt>
      <trkpt lat="45.293446" lon="6.791710">
        <ele>2197.058</ele>
        <time>2018-07-21T08:24:48Z</time>
      </trkpt>
      <trkpt lat="45.293399" lon="6.791676">
        <ele>2193.963</ele>
        <time>2018-07-21T08:24:55Z</time>
      </trkpt>
      <trkpt lat="45.293369" lon="6.791620">
        <ele>2194.982</ele>
        <time>2018-07-21T08:25:01Z</time>
      </trkpt>
      <trkpt lat="45.293343" lon="6.791564">
        <ele>2191.884</ele>
        <time>2018-07-21T08:25:06Z</time>
      </trkpt>
      <trkpt lat="45.293308" lon="6.791521">
        <ele>2190.072</ele>
        <time>2018-07-21T08:25:12Z</time>
      </trkpt>
      <trkpt lat="45.293280" lon="6.791468">
        <ele>2189.068</ele>
        <time>2018-07-21T08:25:17Z</time>
      </trkpt>
      <trkpt lat="45.293250" lon="6.791411">
        <ele>2188.759</ele>
        <time>2018-07-21T08:25:22Z</time>
      </trkpt>
      <trkpt lat="45.293207" lon="6.791377">
        <ele>2187.903</ele>
        <time>2018-07-21T08:25:27Z</time>
      </trkpt>
      <trkpt lat="45.293152" lon="6.791371">
        <ele>2186.823</ele>
        <time>2018-07-21T08:25:32Z</time>
      </trkpt>
      <trkpt lat="45.293107" lon="6.791371">
        <ele>2186.908</ele>
        <time>2018-07-21T08:25:36Z</time>
      </trkpt>
      <trkpt lat="45.293060" lon="6.791372">
        <ele>2185.817</ele>
        <time>2018-07-21T08:25:40Z</time>
      </trkpt>
      <trkpt lat="45.293013" lon="6.791365">
        <ele>2185.892</ele>
        <time>2018-07-21T08:25:44Z</time>
      </trkpt>
      <trkpt lat="45.292970" lon="6.791336">
        <ele>2185.549</ele>
        <time>2018-07-21T08:25:49Z</time>
      </trkpt>
      <trkpt lat="45.292927" lon="6.791292">
        <ele>2184.444</ele>
        <time>2018-07-21T08:25:54Z</time>
      </trkpt>
      <trkpt lat="45.292899" lon="6.791232">
        <ele>2184.423</ele>
        <time>2018-07-21T08:25:58Z</time>
      </trkpt>
      <trkpt lat="45.292874" lon="6.791165">
        <ele>2184.225</ele>
        <time>2018-07-21T08:26:03Z</time>
      </trkpt>
      <trkpt lat="45.292851" lon="6.791109">
        <ele>2183.133</ele>
        <time>2018-07-21T08:26:08Z</time>
      </trkpt>
      <trkpt lat="45.292821" lon="6.791049">
        <ele>2182.619</ele>
        <time>2018-07-21T08:26:13Z</time>
      </trkpt>
      <trkpt lat="45.292798" lon="6.790983">
        <ele>2183.331</ele>
        <time>2018-07-21T08:26:20Z</time>
      </trkpt>
      <trkpt lat="45.292757" lon="6.790953">
        <ele>2181.761</ele>
        <time>2018-07-21T08:26:27Z</time>
      </trkpt>
      <trkpt lat="45.292714" lon="6.790976">
        <ele>2180.907</ele>
        <time>2018-07-21T08:26:32Z</time>
      </trkpt>
      <trkpt lat="45.292668" lon="6.790997">
        <ele>2181.208</ele>
        <time>2018-07-21T08:26:39Z</time>
      </trkpt>
      <trkpt lat="45.292621" lon="6.791008">
        <ele>2181.645</ele>
        <time>2018-07-21T08:26:45Z</time>
      </trkpt>
      <trkpt lat="45.292571" lon="6.791015">
        <ele>2182.630</ele>
        <time>2018-07-21T08:26:51Z</time>
      </trkpt>
      <trkpt lat="45.292523" lon="6.791016">
        <ele>2183.627</ele>
        <time>2018-07-21T08:26:56Z</time>
      </trkpt>
      <trkpt lat="45.292474" lon="6.791018">
        <ele>2183.812</ele>
        <time>2018-07-21T08:27:02Z</time>
      </trkpt>
      <trkpt lat="45.292432" lon="6.790991">
        <ele>2184.111</ele>
        <time>2018-07-21T08:27:07Z</time>
      </trkpt>
      <trkpt lat="45.292392" lon="6.790950">
        <ele>2183.233</ele>
        <time>2018-07-21T08:27:12Z</time>
      </trkpt>
      <trkpt lat="45.292355" lon="6.790901">
        <ele>2184.011</ele>
        <time>2018-07-21T08:27:17Z</time>
      </trkpt>
      <trkpt lat="45.292330" lon="6.790829">
        <ele>2183.917</ele>
        <time>2018-07-21T08:27:22Z</time>
      </trkpt>
      <trkpt lat="45.292312" lon="6.790764">
        <ele>2185.175</ele>
        <time>2018-07-21T08:27:26Z</time>
      </trkpt>
      <trkpt lat="45.292289" lon="6.790699">
        <ele>2183.928</ele>
        <time>2018-07-21T08:27:30Z</time>
      </trkpt>
      <trkpt lat="45.292261" lon="6.790643">
        <ele>2184.020</ele>
        <time>2018-07-21T08:27:34Z</time>
      </trkpt>
      <trkpt lat="45.292236" lon="6.790588">
        <ele>2182.608</ele>
        <time>2018-07-21T08:27:38Z</time>
      </trkpt>
      <trkpt lat="45.292200" lon="6.790539">
        <ele>2181.199</ele>
        <time>2018-07-21T08:27:44Z</time>
      </trkpt>
      <trkpt lat="45.292159" lon="6.790496">
        <ele>2181.074</ele>
        <time>2018-07-21T08:27:49Z</time>
      </trkpt>
      <trkpt lat="45.292116" lon="6.790450">
        <ele>2181.081</ele>
        <time>2018-07-21T08:27:54Z</time>
      </trkpt>
      <trkpt lat="45.292077" lon="6.790398">
        <ele>2181.346</ele>
        <time>2018-07-21T08:27:59Z</time>
      </trkpt>
      <trkpt lat="45.292045" lon="6.790347">
        <ele>2182.445</ele>
        <time>2018-07-21T08:28:04Z</time>
      </trkpt>
      <trkpt lat="45.292011" lon="6.790288">
        <ele>2180.947</ele>
        <time>2018-07-21T08:28:10Z</time>
      </trkpt>
      <trkpt lat="45.291980" lon="6.790226">
        <ele>2181.785</ele>
        <time>2018-07-21T08:28:16Z</time>
      </trkpt>
      <trkpt lat="45.291960" lon="6.790165">
        <ele>2182.041</ele>
        <time>2018-07-21T08:28:21Z</time>
      </trkpt>
      <trkpt lat="45.291943" lon="6.790089">
        <ele>2183.552</ele>
        <time>2018-07-21T08:28:26Z</time>
      </trkpt>
      <trkpt lat="45.291932" lon="6.790023">
        <ele>2185.153</ele>
        <time>2018-07-21T08:28:30Z</time>
      </trkpt>
      <trkpt lat="45.291925" lon="6.789950">
        <ele>2185.008</ele>
        <time>2018-07-21T08:28:36Z</time>
      </trkpt>
      <trkpt lat="45.291903" lon="6.789891">
        <ele>2186.308</ele>
        <time>2018-07-21T08:28:42Z</time>
      </trkpt>
      <trkpt lat="45.291859" lon="6.789864">
        <ele>2184.757</ele>
        <time>2018-07-21T08:28:47Z</time>
      </trkpt>
      <trkpt lat="45.291813" lon="6.789859">
        <ele>2185.752</ele>
        <time>2018-07-21T08:28:53Z</time>
      </trkpt>
      <trkpt lat="45.291764" lon="6.789827">
        <ele>2185.749</ele>
        <time>2018-07-21T08:28:59Z</time>
      </trkpt>
      <trkpt lat="45.291736" lon="6.789776">
        <ele>2185.154</ele>
        <time>2018-07-21T08:29:03Z</time>
      </trkpt>
      <trkpt lat="45.291702" lon="6.789731">
        <ele>2184.983</ele>
        <time>2018-07-21T08:29:07Z</time>
      </trkpt>
      <trkpt lat="45.291671" lon="6.789680">
        <ele>2185.135</ele>
        <time>2018-07-21T08:29:11Z</time>
      </trkpt>
      <trkpt lat="45.291640" lon="6.789631">
        <ele>2185.283</ele>
        <time>2018-07-21T08:29:15Z</time>
      </trkpt>
      <trkpt lat="45.291604" lon="6.789593">
        <ele>2185.369</ele>
        <time>2018-07-21T08:29:19Z</time>
      </trkpt>
      <trkpt lat="45.291570" lon="6.789549">
        <ele>2185.386</ele>
        <time>2018-07-21T08:29:23Z</time>
      </trkpt>
      <trkpt lat="45.291545" lon="6.789485">
        <ele>2186.060</ele>
        <time>2018-07-21T08:29:29Z</time>
      </trkpt>
      <trkpt lat="45.291525" lon="6.789416">
        <ele>2185.626</ele>
        <time>2018-07-21T08:29:34Z</time>
      </trkpt>
      <trkpt lat="45.291516" lon="6.789343">
        <ele>2187.208</ele>
        <time>2018-07-21T08:29:39Z</time>
      </trkpt>
      <trkpt lat="45.291521" lon="6.789277">
        <ele>2184.820</ele>
        <time>2018-07-21T08:29:44Z</time>
      </trkpt>
      <trkpt lat="45.291505" lon="6.789214">
        <ele>2184.985</ele>
        <time>2018-07-21T08:29:54Z</time>
      </trkpt>
      <trkpt lat="45.291472" lon="6.789168">
        <ele>2186.952</ele>
        <time>2018-07-21T08:30:42Z</time>
      </trkpt>
      <trkpt lat="45.291428" lon="6.789185">
        <ele>2186.017</ele>
        <time>2018-07-21T08:30:48Z</time>
      </trkpt>
      <trkpt lat="45.291391" lon="6.789146">
        <ele>2187.456</ele>
        <time>2018-07-21T08:31:02Z</time>
      </trkpt>
      <trkpt lat="45.291405" lon="6.789083">
        <ele>2189.098</ele>
        <time>2018-07-21T08:31:16Z</time>
      </trkpt>
      <trkpt lat="45.291408" lon="6.789019">
        <ele>2190.226</ele>
        <time>2018-07-21T08:31:29Z</time>
      </trkpt>
      <trkpt lat="45.291374" lon="6.788974">
        <ele>2193.712</ele>
        <time>2018-07-21T08:31:41Z</time>
      </trkpt>
      <trkpt lat="45.291327" lon="6.788950">
        <ele>2192.689</ele>
        <time>2018-07-21T08:31:49Z</time>
      </trkpt>
      <trkpt lat="45.291288" lon="6.788907">
        <ele>2193.806</ele>
        <time>2018-07-21T08:32:00Z</time>
      </trkpt>
      <trkpt lat="45.291246" lon="6.788878">
        <ele>2194.126</ele>
        <time>2018-07-21T08:32:07Z</time>
      </trkpt>
      <trkpt lat="45.291207" lon="6.788836">
        <ele>2194.708</ele>
        <time>2018-07-21T08:32:14Z</time>
      </trkpt>
      <trkpt lat="45.291174" lon="6.788788">
        <ele>2195.570</ele>
        <time>2018-07-21T08:32:21Z</time>
      </trkpt>
      <trkpt lat="45.291156" lon="6.788729">
        <ele>2196.635</ele>
        <time>2018-07-21T08:32:28Z</time>
      </trkpt>
      <trkpt lat="45.291120" lon="6.788681">
        <ele>2199.542</ele>
        <time>2018-07-21T08:32:39Z</time>
      </trkpt>
      <trkpt lat="45.291074" lon="6.788683">
        <ele>2200.527</ele>
        <time>2018-07-21T08:33:02Z</time>
      </trkpt>
      <trkpt lat="45.291029" lon="6.788678">
        <ele>2199.876</ele>
        <time>2018-07-21T08:33:12Z</time>
      </trkpt>
      <trkpt lat="45.290982" lon="6.788685">
        <ele>2200.918</ele>
        <time>2018-07-21T08:33:21Z</time>
      </trkpt>
      <trkpt lat="45.290934" lon="6.788678">
        <ele>2202.496</ele>
        <time>2018-07-21T08:33:29Z</time>
      </trkpt>
      <trkpt lat="45.290885" lon="6.788652">
        <ele>2204.212</ele>
        <time>2018-07-21T08:33:39Z</time>
      </trkpt>
      <trkpt lat="45.290869" lon="6.788592">
        <ele>2203.464</ele>
        <time>2018-07-21T08:33:52Z</time>
      </trkpt>
      <trkpt lat="45.290910" lon="6.788548">
        <ele>2204.106</ele>
        <time>2018-07-21T08:33:58Z</time>
      </trkpt>
      <trkpt lat="45.290948" lon="6.788504">
        <ele>2205.116</ele>
        <time>2018-07-21T08:34:06Z</time>
      </trkpt>
      <trkpt lat="45.290938" lon="6.788438">
        <ele>2208.208</ele>
        <time>2018-07-21T08:34:19Z</time>
      </trkpt>
      <trkpt lat="45.290893" lon="6.788405">
        <ele>2209.478</ele>
        <time>2018-07-21T08:34:27Z</time>
      </trkpt>
      <trkpt lat="45.290857" lon="6.788366">
        <ele>2208.073</ele>
        <time>2018-07-21T08:34:34Z</time>
      </trkpt>
      <trkpt lat="45.290814" lon="6.788330">
        <ele>2210.180</ele>
        <time>2018-07-21T08:34:40Z</time>
      </trkpt>
      <trkpt lat="45.290774" lon="6.788300">
        <ele>2210.695</ele>
        <time>2018-07-21T08:34:45Z</time>
      </trkpt>
      <trkpt lat="45.290726" lon="6.788266">
        <ele>2209.424</ele>
        <time>2018-07-21T08:34:51Z</time>
      </trkpt>
      <trkpt lat="45.290676" lon="6.788251">
        <ele>2209.766</ele>
        <time>2018-07-21T08:34:57Z</time>
      </trkpt>
      <trkpt lat="45.290624" lon="6.788254">
        <ele>2211.744</ele>
        <time>2018-07-21T08:35:03Z</time>
      </trkpt>
      <trkpt lat="45.290580" lon="6.788234">
        <ele>2213.320</ele>
        <time>2018-07-21T08:35:11Z</time>
      </trkpt>
      <trkpt lat="45.290529" lon="6.788242">
        <ele>2212.074</ele>
        <time>2018-07-21T08:35:20Z</time>
      </trkpt>
      <trkpt lat="45.290483" lon="6.788251">
        <ele>2213.456</ele>
        <time>2018-07-21T08:35:29Z</time>
      </trkpt>
      <trkpt lat="45.290446" lon="6.788288">
        <ele>2215.021</ele>
        <time>2018-07-21T08:35:42Z</time>
      </trkpt>
      <trkpt lat="45.290402" lon="6.788312">
        <ele>2216.108</ele>
        <time>2018-07-21T08:35:52Z</time>
      </trkpt>
      <trkpt lat="45.290362" lon="6.788349">
        <ele>2218.569</ele>
        <time>2018-07-21T08:36:05Z</time>
      </trkpt>
      <trkpt lat="45.290325" lon="6.788389">
        <ele>2219.684</ele>
        <time>2018-07-21T08:36:16Z</time>
      </trkpt>
      <trkpt lat="45.290280" lon="6.788397">
        <ele>2221.561</ele>
        <time>2018-07-21T08:36:40Z</time>
      </trkpt>
      <trkpt lat="45.290253" lon="6.788343">
        <ele>2223.716</ele>
        <time>2018-07-21T08:36:57Z</time>
      </trkpt>
      <trkpt lat="45.290203" lon="6.788348">
        <ele>2226.115</ele>
        <time>2018-07-21T08:37:13Z</time>
      </trkpt>
      <trkpt lat="45.290163" lon="6.788388">
        <ele>2226.477</ele>
        <time>2018-07-21T08:37:25Z</time>
      </trkpt>
      <trkpt lat="45.290116" lon="6.788414">
        <ele>2227.765</ele>
        <time>2018-07-21T08:37:34Z</time>
      </trkpt>
      <trkpt lat="45.290071" lon="6.788433">
        <ele>2228.771</ele>
        <time>2018-07-21T08:37:43Z</time>
      </trkpt>
      <trkpt lat="45.290024" lon="6.788456">
        <ele>2231.849</ele>
        <time>2018-07-21T08:37:52Z</time>
      </trkpt>
      <trkpt lat="45.289997" lon="6.788399">
        <ele>2232.802</ele>
        <time>2018-07-21T08:38:14Z</time>
      </trkpt>
      <trkpt lat="45.290018" lon="6.788332">
        <ele>2234.022</ele>
        <time>2018-07-21T08:38:21Z</time>
      </trkpt>
      <trkpt lat="45.290049" lon="6.788274">
        <ele>2234.908</ele>
        <time>2018-07-21T08:38:29Z</time>
      </trkpt>
      <trkpt lat="45.290061" lon="6.788206">
        <ele>2236.176</ele>
        <time>2018-07-21T08:38:39Z</time>
      </trkpt>
      <trkpt lat="45.290068" lon="6.788142">
        <ele>2237.011</ele>
        <time>2018-07-21T08:38:48Z</time>
      </trkpt>
      <trkpt lat="45.290022" lon="6.788134">
        <ele>2242.078</ele>
        <time>2018-07-21T08:39:13Z</time>
      </trkpt>
      <trkpt lat="45.289979" lon="6.788168">
        <ele>2241.983</ele>
        <time>2018-07-21T08:39:24Z</time>
      </trkpt>
      <trkpt lat="45.289938" lon="6.788203">
        <ele>2242.762</ele>
        <time>2018-07-21T08:39:35Z</time>
      </trkpt>
      <trkpt lat="45.289896" lon="6.788230">
        <ele>2243.774</ele>
        <time>2018-07-21T08:39:45Z</time>
      </trkpt>
      <trkpt lat="45.289855" lon="6.788263">
        <ele>2247.762</ele>
        <time>2018-07-21T08:39:57Z</time>
      </trkpt>
      <trkpt lat="45.289816" lon="6.788295">
        <ele>2247.388</ele>
        <time>2018-07-21T08:40:08Z</time>
      </trkpt>
      <trkpt lat="45.289769" lon="6.788299">
        <ele>2248.891</ele>
        <time>2018-07-21T08:40:17Z</time>
      </trkpt>
      <trkpt lat="45.289724" lon="6.788303">
        <ele>2248.281</ele>
        <time>2018-07-21T08:40:25Z</time>
      </trkpt>
      <trkpt lat="45.289677" lon="6.788302">
        <ele>2248.619</ele>
        <time>2018-07-21T08:40:33Z</time>
      </trkpt>
      <trkpt lat="45.289631" lon="6.788286">
        <ele>2249.008</ele>
        <time>2018-07-21T08:40:41Z</time>
      </trkpt>
      <trkpt lat="45.289589" lon="6.788263">
        <ele>2249.661</ele>
        <time>2018-07-21T08:40:50Z</time>
      </trkpt>
      <trkpt lat="45.289594" lon="6.788193">
        <ele>2251.896</ele>
        <time>2018-07-21T08:41:10Z</time>
      </trkpt>
      <trkpt lat="45.289638" lon="6.788157">
        <ele>2252.993</ele>
        <time>2018-07-21T08:41:19Z</time>
      </trkpt>
      <trkpt lat="45.289683" lon="6.788120">
        <ele>2253.598</ele>
        <time>2018-07-21T08:41:29Z</time>
      </trkpt>
      <trkpt lat="45.289720" lon="6.788078">
        <ele>2254.637</ele>
        <time>2018-07-21T08:41:42Z</time>
      </trkpt>
      <trkpt lat="45.289759" lon="6.788035">
        <ele>2255.859</ele>
        <time>2018-07-21T08:41:52Z</time>
      </trkpt>
      <trkpt lat="45.289723" lon="6.787988">
        <ele>2260.287</ele>
        <time>2018-07-21T08:42:17Z</time>
      </trkpt>
      <trkpt lat="45.289676" lon="6.787970">
        <ele>2261.423</ele>
        <time>2018-07-21T08:42:26Z</time>
      </trkpt>
      <trkpt lat="45.289630" lon="6.787950">
        <ele>2263.069</ele>
        <time>2018-07-21T08:42:35Z</time>
      </trkpt>
      <trkpt lat="45.289668" lon="6.787900">
        <ele>2262.304</ele>
        <time>2018-07-21T08:42:46Z</time>
      </trkpt>
      <trkpt lat="45.289703" lon="6.787846">
        <ele>2262.924</ele>
        <time>2018-07-21T08:42:54Z</time>
      </trkpt>
      <trkpt lat="45.289742" lon="6.787802">
        <ele>2266.108</ele>
        <time>2018-07-21T08:43:07Z</time>
      </trkpt>
      <trkpt lat="45.289779" lon="6.787761">
        <ele>2268.058</ele>
        <time>2018-07-21T08:43:15Z</time>
      </trkpt>
      <trkpt lat="45.289819" lon="6.787714">
        <ele>2266.373</ele>
        <time>2018-07-21T08:43:22Z</time>
      </trkpt>
      <trkpt lat="45.289856" lon="6.787675">
        <ele>2266.310</ele>
        <time>2018-07-21T08:43:27Z</time>
      </trkpt>
      <trkpt lat="45.289900" lon="6.787640">
        <ele>2267.495</ele>
        <time>2018-07-21T08:43:34Z</time>
      </trkpt>
      <trkpt lat="45.289942" lon="6.787607">
        <ele>2267.944</ele>
        <time>2018-07-21T08:43:42Z</time>
      </trkpt>
      <trkpt lat="45.289903" lon="6.787576">
        <ele>2272.286</ele>
        <time>2018-07-21T08:44:04Z</time>
      </trkpt>
      <trkpt lat="45.289853" lon="6.787581">
        <ele>2271.444</ele>
        <time>2018-07-21T08:44:14Z</time>
      </trkpt>
      <trkpt lat="45.289806" lon="6.787575">
        <ele>2272.460</ele>
        <time>2018-07-21T08:44:24Z</time>
      </trkpt>
      <trkpt lat="45.289760" lon="6.787555">
        <ele>2273.851</ele>
        <time>2018-07-21T08:44:37Z</time>
      </trkpt>
      <trkpt lat="45.289719" lon="6.787528">
        <ele>2274.901</ele>
        <time>2018-07-21T08:44:45Z</time>
      </trkpt>
      <trkpt lat="45.289679" lon="6.787494">
        <ele>2277.211</ele>
        <time>2018-07-21T08:44:54Z</time>
      </trkpt>
      <trkpt lat="45.289638" lon="6.787463">
        <ele>2279.008</ele>
        <time>2018-07-21T08:45:03Z</time>
      </trkpt>
      <trkpt lat="45.289593" lon="6.787446">
        <ele>2278.357</ele>
        <time>2018-07-21T08:45:11Z</time>
      </trkpt>
      <trkpt lat="45.289545" lon="6.787458">
        <ele>2278.352</ele>
        <time>2018-07-21T08:45:19Z</time>
      </trkpt>
      <trkpt lat="45.289497" lon="6.787460">
        <ele>2278.999</ele>
        <time>2018-07-21T08:45:28Z</time>
      </trkpt>
      <trkpt lat="45.289450" lon="6.787455">
        <ele>2280.474</ele>
        <time>2018-07-21T08:45:38Z</time>
      </trkpt>
      <trkpt lat="45.289404" lon="6.787465">
        <ele>2282.223</ele>
        <time>2018-07-21T08:45:51Z</time>
      </trkpt>
      <trkpt lat="45.289357" lon="6.787471">
        <ele>2282.875</ele>
        <time>2018-07-21T08:46:01Z</time>
      </trkpt>
      <trkpt lat="45.289310" lon="6.787465">
        <ele>2284.263</ele>
        <time>2018-07-21T08:46:13Z</time>
      </trkpt>
      <trkpt lat="45.289264" lon="6.787462">
        <ele>2285.589</ele>
        <time>2018-07-21T08:46:23Z</time>
      </trkpt>
      <trkpt lat="45.289217" lon="6.787473">
        <ele>2287.085</ele>
        <time>2018-07-21T08:46:47Z</time>
      </trkpt>
      <trkpt lat="45.289233" lon="6.787407">
        <ele>2289.789</ele>
        <time>2018-07-21T08:47:06Z</time>
      </trkpt>
      <trkpt lat="45.289267" lon="6.787349">
        <ele>2290.617</ele>
        <time>2018-07-21T08:47:17Z</time>
      </trkpt>
      <trkpt lat="45.289301" lon="6.787304">
        <ele>2292.108</ele>
        <time>2018-07-21T08:47:27Z</time>
      </trkpt>
      <trkpt lat="45.289338" lon="6.787257">
        <ele>2292.310</ele>
        <time>2018-07-21T08:47:34Z</time>
      </trkpt>
      <trkpt lat="45.289371" lon="6.787208">
        <ele>2292.625</ele>
        <time>2018-07-21T08:47:41Z</time>
      </trkpt>
      <trkpt lat="45.289404" lon="6.787158">
        <ele>2293.582</ele>
        <time>2018-07-21T08:47:48Z</time>
      </trkpt>
      <trkpt lat="45.289443" lon="6.787113">
        <ele>2294.467</ele>
        <time>2018-07-21T08:47:56Z</time>
      </trkpt>
      <trkpt lat="45.289486" lon="6.787070">
        <ele>2295.186</ele>
        <time>2018-07-21T08:48:03Z</time>
      </trkpt>
      <trkpt lat="45.289459" lon="6.787016">
        <ele>2297.488</ele>
        <time>2018-07-21T08:48:19Z</time>
      </trkpt>
      <trkpt lat="45.289411" lon="6.787020">
        <ele>2298.846</ele>
        <time>2018-07-21T08:48:27Z</time>
      </trkpt>
      <trkpt lat="45.289365" lon="6.787038">
        <ele>2298.682</ele>
        <time>2018-07-21T08:48:36Z</time>
      </trkpt>
      <trkpt lat="45.289319" lon="6.787041">
        <ele>2299.064</ele>
        <time>2018-07-21T08:48:44Z</time>
      </trkpt>
      <trkpt lat="45.289272" lon="6.787052">
        <ele>2300.706</ele>
        <time>2018-07-21T08:48:55Z</time>
      </trkpt>
      <trkpt lat="45.289228" lon="6.787081">
        <ele>2303.516</ele>
        <time>2018-07-21T08:49:04Z</time>
      </trkpt>
      <trkpt lat="45.289186" lon="6.787104">
        <ele>2305.108</ele>
        <time>2018-07-21T08:49:18Z</time>
      </trkpt>
      <trkpt lat="45.289141" lon="6.787116">
        <ele>2305.218</ele>
        <time>2018-07-21T08:49:29Z</time>
      </trkpt>
      <trkpt lat="45.289094" lon="6.787134">
        <ele>2306.473</ele>
        <time>2018-07-21T08:49:38Z</time>
      </trkpt>
      <trkpt lat="45.289047" lon="6.787147">
        <ele>2309.690</ele>
        <time>2018-07-21T08:49:49Z</time>
      </trkpt>
      <trkpt lat="45.289000" lon="6.787168">
        <ele>2311.125</ele>
        <time>2018-07-21T08:49:59Z</time>
      </trkpt>
      <trkpt lat="45.288954" lon="6.787204">
        <ele>2308.554</ele>
        <time>2018-07-21T08:51:07Z</time>
      </trkpt>
      <trkpt lat="45.288932" lon="6.787140">
        <ele>2308.466</ele>
        <time>2018-07-21T08:51:26Z</time>
      </trkpt>
      <trkpt lat="45.288891" lon="6.787108">
        <ele>2308.864</ele>
        <time>2018-07-21T08:51:31Z</time>
      </trkpt>
      <trkpt lat="45.288842" lon="6.787082">
        <ele>2308.420</ele>
        <time>2018-07-21T08:51:36Z</time>
      </trkpt>
      <trkpt lat="45.288793" lon="6.787050">
        <ele>2309.567</ele>
        <time>2018-07-21T08:51:41Z</time>
      </trkpt>
      <trkpt lat="45.288755" lon="6.787015">
        <ele>2307.781</ele>
        <time>2018-07-21T08:51:54Z</time>
      </trkpt>
      <trkpt lat="45.288720" lon="6.786963">
        <ele>2305.719</ele>
        <time>2018-07-21T08:52:03Z</time>
      </trkpt>
      <trkpt lat="45.288681" lon="6.786920">
        <ele>2305.808</ele>
        <time>2018-07-21T08:52:17Z</time>
      </trkpt>
      <trkpt lat="45.288637" lon="6.786883">
        <ele>2307.368</ele>
        <time>2018-07-21T08:52:25Z</time>
      </trkpt>
      <trkpt lat="45.288593" lon="6.786866">
        <ele>2308.443</ele>
        <time>2018-07-21T08:52:33Z</time>
      </trkpt>
      <trkpt lat="45.288550" lon="6.786846">
        <ele>2311.220</ele>
        <time>2018-07-21T08:52:44Z</time>
      </trkpt>
      <trkpt lat="45.288499" lon="6.786849">
        <ele>2312.885</ele>
        <time>2018-07-21T08:53:07Z</time>
      </trkpt>
      <trkpt lat="45.288445" lon="6.786849">
        <ele>2313.464</ele>
        <time>2018-07-21T08:53:13Z</time>
      </trkpt>
      <trkpt lat="45.288404" lon="6.786819">
        <ele>2313.876</ele>
        <time>2018-07-21T08:53:18Z</time>
      </trkpt>
      <trkpt lat="45.288436" lon="6.786771">
        <ele>2313.254</ele>
        <time>2018-07-21T08:53:20Z</time>
      </trkpt>
      <trkpt lat="45.288466" lon="6.786687">
        <ele>2314.410</ele>
        <time>2018-07-21T08:53:37Z</time>
      </trkpt>
      <trkpt lat="45.288512" lon="6.786666">
        <ele>2314.758</ele>
        <time>2018-07-21T08:53:42Z</time>
      </trkpt>
      <trkpt lat="45.288549" lon="6.786615">
        <ele>2318.052</ele>
        <time>2018-07-21T08:53:51Z</time>
      </trkpt>
      <trkpt lat="45.288601" lon="6.786604">
        <ele>2316.017</ele>
        <time>2018-07-21T08:53:56Z</time>
      </trkpt>
      <trkpt lat="45.288655" lon="6.786538">
        <ele>2320.208</ele>
        <time>2018-07-21T08:54:37Z</time>
      </trkpt>
      <trkpt lat="45.288664" lon="6.786471">
        <ele>2322.097</ele>
        <time>2018-07-21T08:54:43Z</time>
      </trkpt>
      <trkpt lat="45.288632" lon="6.786416">
        <ele>2323.362</ele>
        <time>2018-07-21T08:54:49Z</time>
      </trkpt>
      <trkpt lat="45.288584" lon="6.786414">
        <ele>2324.969</ele>
        <time>2018-07-21T08:54:59Z</time>
      </trkpt>
      <trkpt lat="45.288535" lon="6.786413">
        <ele>2325.284</ele>
        <time>2018-07-21T08:55:05Z</time>
      </trkpt>
      <trkpt lat="45.288503" lon="6.786367">
        <ele>2323.893</ele>
        <time>2018-07-21T08:55:12Z</time>
      </trkpt>
      <trkpt lat="45.288449" lon="6.786356">
        <ele>2324.275</ele>
        <time>2018-07-21T08:55:17Z</time>
      </trkpt>
      <trkpt lat="45.288438" lon="6.786292">
        <ele>2325.033</ele>
        <time>2018-07-21T08:55:25Z</time>
      </trkpt>
      <trkpt lat="45.288392" lon="6.786300">
        <ele>2326.189</ele>
        <time>2018-07-21T08:55:32Z</time>
      </trkpt>
      <trkpt lat="45.288340" lon="6.786285">
        <ele>2325.987</ele>
        <time>2018-07-21T08:55:37Z</time>
      </trkpt>
      <trkpt lat="45.288300" lon="6.786254">
        <ele>2327.642</ele>
        <time>2018-07-21T08:55:43Z</time>
      </trkpt>
      <trkpt lat="45.288267" lon="6.786210">
        <ele>2327.926</ele>
        <time>2018-07-21T08:55:54Z</time>
      </trkpt>
      <trkpt lat="45.288267" lon="6.786132">
        <ele>2331.008</ele>
        <time>2018-07-21T08:56:26Z</time>
      </trkpt>
      <trkpt lat="45.288256" lon="6.786063">
        <ele>2334.020</ele>
        <time>2018-07-21T08:56:29Z</time>
      </trkpt>
      <trkpt lat="45.288237" lon="6.785987">
        <ele>2333.575</ele>
        <time>2018-07-21T08:56:31Z</time>
      </trkpt>
      <trkpt lat="45.288189" lon="6.785950">
        <ele>2334.032</ele>
        <time>2018-07-21T08:56:34Z</time>
      </trkpt>
      <trkpt lat="45.288154" lon="6.785904">
        <ele>2334.217</ele>
        <time>2018-07-21T08:56:37Z</time>
      </trkpt>
      <trkpt lat="45.288142" lon="6.785841">
        <ele>2334.816</ele>
        <time>2018-07-21T08:56:41Z</time>
      </trkpt>
      <trkpt lat="45.288118" lon="6.785775">
        <ele>2336.288</ele>
        <time>2018-07-21T08:57:10Z</time>
      </trkpt>
      <trkpt lat="45.288091" lon="6.785722">
        <ele>2336.886</ele>
        <time>2018-07-21T08:57:12Z</time>
      </trkpt>
      <trkpt lat="45.288059" lon="6.785675">
        <ele>2337.182</ele>
        <time>2018-07-21T08:57:15Z</time>
      </trkpt>
      <trkpt lat="45.288018" lon="6.785647">
        <ele>2338.354</ele>
        <time>2018-07-21T08:57:19Z</time>
      </trkpt>
      <trkpt lat="45.287928" lon="6.785635">
        <ele>2338.456</ele>
        <time>2018-07-21T08:57:31Z</time>
      </trkpt>
      <trkpt lat="45.287860" lon="6.785618">
        <ele>2340.911</ele>
        <time>2018-07-21T08:57:50Z</time>
      </trkpt>
      <trkpt lat="45.287805" lon="6.785648">
        <ele>2342.308</ele>
        <time>2018-07-21T08:58:03Z</time>
      </trkpt>
      <trkpt lat="45.287762" lon="6.785616">
        <ele>2343.147</ele>
        <time>2018-07-21T08:58:10Z</time>
      </trkpt>
      <trkpt lat="45.287736" lon="6.785558">
        <ele>2344.142</ele>
        <time>2018-07-21T08:58:15Z</time>
      </trkpt>
      <trkpt lat="45.287654" lon="6.785592">
        <ele>2345.729</ele>
        <time>2018-07-21T08:58:36Z</time>
      </trkpt>
      <trkpt lat="45.287633" lon="6.785533">
        <ele>2346.424</ele>
        <time>2018-07-21T08:58:44Z</time>
      </trkpt>
      <trkpt lat="45.287593" lon="6.785497">
        <ele>2346.713</ele>
        <time>2018-07-21T08:58:47Z</time>
      </trkpt>
      <trkpt lat="45.287593" lon="6.785417">
        <ele>2347.435</ele>
        <time>2018-07-21T08:58:52Z</time>
      </trkpt>
      <trkpt lat="45.287568" lon="6.785363">
        <ele>2346.253</ele>
        <time>2018-07-21T08:58:57Z</time>
      </trkpt>
      <trkpt lat="45.287523" lon="6.785309">
        <ele>2347.889</ele>
        <time>2018-07-21T08:59:02Z</time>
      </trkpt>
      <trkpt lat="45.287480" lon="6.785267">
        <ele>2349.098</ele>
        <time>2018-07-21T08:59:07Z</time>
      </trkpt>
      <trkpt lat="45.287460" lon="6.785200">
        <ele>2348.115</ele>
        <time>2018-07-21T08:59:12Z</time>
      </trkpt>
      <trkpt lat="45.287417" lon="6.785172">
        <ele>2348.626</ele>
        <time>2018-07-21T08:59:19Z</time>
      </trkpt>
      <trkpt lat="45.287402" lon="6.785109">
        <ele>2349.208</ele>
        <time>2018-07-21T08:59:26Z</time>
      </trkpt>
      <trkpt lat="45.287389" lon="6.785044">
        <ele>2349.041</ele>
        <time>2018-07-21T08:59:31Z</time>
      </trkpt>
      <trkpt lat="45.287348" lon="6.785078">
        <ele>2350.896</ele>
        <time>2018-07-21T08:59:37Z</time>
      </trkpt>
      <trkpt lat="45.287300" lon="6.785059">
        <ele>2351.073</ele>
        <time>2018-07-21T08:59:43Z</time>
      </trkpt>
      <trkpt lat="45.287263" lon="6.785019">
        <ele>2353.148</ele>
        <time>2018-07-21T08:59:48Z</time>
      </trkpt>
      <trkpt lat="45.287216" lon="6.785032">
        <ele>2352.987</ele>
        <time>2018-07-21T08:59:55Z</time>
      </trkpt>
      <trkpt lat="45.287176" lon="6.784988">
        <ele>2354.059</ele>
        <time>2018-07-21T08:59:58Z</time>
      </trkpt>
      <trkpt lat="45.287135" lon="6.784946">
        <ele>2355.237</ele>
        <time>2018-07-21T09:00:24Z</time>
      </trkpt>
      <trkpt lat="45.287089" lon="6.784940">
        <ele>2355.963</ele>
        <time>2018-07-21T09:00:27Z</time>
      </trkpt>
      <trkpt lat="45.287033" lon="6.784945">
        <ele>2355.055</ele>
        <time>2018-07-21T09:00:30Z</time>
      </trkpt>
      <trkpt lat="45.286970" lon="6.784962">
        <ele>2355.907</ele>
        <time>2018-07-21T09:00:33Z</time>
      </trkpt>
      <trkpt lat="45.286916" lon="6.784993">
        <ele>2356.417</ele>
        <time>2018-07-21T09:00:37Z</time>
      </trkpt>
      <trkpt lat="45.286878" lon="6.784928">
        <ele>2356.108</ele>
        <time>2018-07-21T09:00:43Z</time>
      </trkpt>
      <trkpt lat="45.286832" lon="6.784943">
        <ele>2356.817</ele>
        <time>2018-07-21T09:00:52Z</time>
      </trkpt>
      <trkpt lat="45.286784" lon="6.784912">
        <ele>2356.952</ele>
        <time>2018-07-21T09:00:57Z</time>
      </trkpt>
      <trkpt lat="45.286738" lon="6.784877">
        <ele>2357.799</ele>
        <time>2018-07-21T09:01:02Z</time>
      </trkpt>
      <trkpt lat="45.286690" lon="6.784852">
        <ele>2357.594</ele>
        <time>2018-07-21T09:01:06Z</time>
      </trkpt>
      <trkpt lat="45.286648" lon="6.784824">
        <ele>2357.763</ele>
        <time>2018-07-21T09:01:12Z</time>
      </trkpt>
      <trkpt lat="45.286598" lon="6.784795">
        <ele>2358.825</ele>
        <time>2018-07-21T09:01:19Z</time>
      </trkpt>
      <trkpt lat="45.286595" lon="6.784714">
        <ele>2359.083</ele>
        <time>2018-07-21T09:01:24Z</time>
      </trkpt>
      <trkpt lat="45.286580" lon="6.784650">
        <ele>2359.599</ele>
        <time>2018-07-21T09:01:28Z</time>
      </trkpt>
      <trkpt lat="45.286546" lon="6.784589">
        <ele>2360.597</ele>
        <time>2018-07-21T09:01:34Z</time>
      </trkpt>
      <trkpt lat="45.286507" lon="6.784548">
        <ele>2361.223</ele>
        <time>2018-07-21T09:01:42Z</time>
      </trkpt>
      <trkpt lat="45.286477" lon="6.784491">
        <ele>2361.725</ele>
        <time>2018-07-21T09:01:48Z</time>
      </trkpt>
      <trkpt lat="45.286457" lon="6.784413">
        <ele>2361.408</ele>
        <time>2018-07-21T09:01:54Z</time>
      </trkpt>
      <trkpt lat="45.286429" lon="6.784345">
        <ele>2362.581</ele>
        <time>2018-07-21T09:02:03Z</time>
      </trkpt>
      <trkpt lat="45.286385" lon="6.784362">
        <ele>2362.696</ele>
        <time>2018-07-21T09:02:11Z</time>
      </trkpt>
      <trkpt lat="45.286348" lon="6.784316">
        <ele>2362.683</ele>
        <time>2018-07-21T09:02:15Z</time>
      </trkpt>
      <trkpt lat="45.286318" lon="6.784256">
        <ele>2362.988</ele>
        <time>2018-07-21T09:02:20Z</time>
      </trkpt>
      <trkpt lat="45.286291" lon="6.784184">
        <ele>2363.667</ele>
        <time>2018-07-21T09:02:25Z</time>
      </trkpt>
      <trkpt lat="45.286243" lon="6.784222">
        <ele>2366.289</ele>
        <time>2018-07-21T09:02:29Z</time>
      </trkpt>
      <trkpt lat="45.286201" lon="6.784191">
        <ele>2365.917</ele>
        <time>2018-07-21T09:02:35Z</time>
      </trkpt>
      <trkpt lat="45.286135" lon="6.784181">
        <ele>2366.473</ele>
        <time>2018-07-21T09:02:40Z</time>
      </trkpt>
      <trkpt lat="45.286107" lon="6.784125">
        <ele>2368.294</ele>
        <time>2018-07-21T09:02:44Z</time>
      </trkpt>
      <trkpt lat="45.286107" lon="6.784061">
        <ele>2368.457</ele>
        <time>2018-07-21T09:02:47Z</time>
      </trkpt>
      <trkpt lat="45.286065" lon="6.784110">
        <ele>2368.022</ele>
        <time>2018-07-21T09:02:55Z</time>
      </trkpt>
      <trkpt lat="45.286015" lon="6.784134">
        <ele>2369.408</ele>
        <time>2018-07-21T09:03:01Z</time>
      </trkpt>
      <trkpt lat="45.285976" lon="6.784101">
        <ele>2370.861</ele>
        <time>2018-07-21T09:03:09Z</time>
      </trkpt>
      <trkpt lat="45.285922" lon="6.784096">
        <ele>2370.556</ele>
        <time>2018-07-21T09:03:14Z</time>
      </trkpt>
      <trkpt lat="45.285894" lon="6.784015">
        <ele>2372.633</ele>
        <time>2018-07-21T09:03:49Z</time>
      </trkpt>
      <trkpt lat="45.285855" lon="6.783977">
        <ele>2372.768</ele>
        <time>2018-07-21T09:03:54Z</time>
      </trkpt>
      <trkpt lat="45.285808" lon="6.783965">
        <ele>2373.197</ele>
        <time>2018-07-21T09:03:57Z</time>
      </trkpt>
      <trkpt lat="45.285754" lon="6.783986">
        <ele>2373.439</ele>
        <time>2018-07-21T09:04:01Z</time>
      </trkpt>
      <trkpt lat="45.285703" lon="6.783993">
        <ele>2373.757</ele>
        <time>2018-07-21T09:04:06Z</time>
      </trkpt>
      <trkpt lat="45.285653" lon="6.783962">
        <ele>2373.793</ele>
        <time>2018-07-21T09:04:11Z</time>
      </trkpt>
      <trkpt lat="45.285612" lon="6.783928">
        <ele>2374.548</ele>
        <time>2018-07-21T09:04:17Z</time>
      </trkpt>
      <trkpt lat="45.285594" lon="6.783857">
        <ele>2380.161</ele>
        <time>2018-07-21T09:04:51Z</time>
      </trkpt>
      <trkpt lat="45.285541" lon="6.783735">
        <ele>2382.517</ele>
        <time>2018-07-21T09:05:22Z</time>
      </trkpt>
      <trkpt lat="45.285498" lon="6.783711">
        <ele>2382.908</ele>
        <time>2018-07-21T09:05:26Z</time>
      </trkpt>
      <trkpt lat="45.285472" lon="6.783651">
        <ele>2381.716</ele>
        <time>2018-07-21T09:05:30Z</time>
      </trkpt>
      <trkpt lat="45.285439" lon="6.783579">
        <ele>2382.061</ele>
        <time>2018-07-21T09:05:34Z</time>
      </trkpt>
      <trkpt lat="45.285400" lon="6.783544">
        <ele>2382.398</ele>
        <time>2018-07-21T09:05:37Z</time>
      </trkpt>
      <trkpt lat="45.285343" lon="6.783531">
        <ele>2384.443</ele>
        <time>2018-07-21T09:05:42Z</time>
      </trkpt>
      <trkpt lat="45.285293" lon="6.783523">
        <ele>2384.722</ele>
        <time>2018-07-21T09:05:46Z</time>
      </trkpt>
      <trkpt lat="45.285245" lon="6.783524">
        <ele>2384.664</ele>
        <time>2018-07-21T09:05:50Z</time>
      </trkpt>
      <trkpt lat="45.285190" lon="6.783525">
        <ele>2390.782</ele>
        <time>2018-07-21T09:07:28Z</time>
      </trkpt>
      <trkpt lat="45.285139" lon="6.783540">
        <ele>2390.128</ele>
        <time>2018-07-21T09:07:32Z</time>
      </trkpt>
      <trkpt lat="45.285126" lon="6.783476">
        <ele>2390.081</ele>
        <time>2018-07-21T09:07:38Z</time>
      </trkpt>
      <trkpt lat="45.285086" lon="6.783438">
        <ele>2390.761</ele>
        <time>2018-07-21T09:07:43Z</time>
      </trkpt>
      <trkpt lat="45.285041" lon="6.783409">
        <ele>2390.817</ele>
        <time>2018-07-21T09:07:46Z</time>
      </trkpt>
      <trkpt lat="45.284992" lon="6.783371">
        <ele>2391.808</ele>
        <time>2018-07-21T09:07:50Z</time>
      </trkpt>
      <trkpt lat="45.284956" lon="6.783326">
        <ele>2392.160</ele>
        <time>2018-07-21T09:07:55Z</time>
      </trkpt>
      <trkpt lat="45.284919" lon="6.783276">
        <ele>2392.665</ele>
        <time>2018-07-21T09:08:03Z</time>
      </trkpt>
      <trkpt lat="45.284868" lon="6.783249">
        <ele>2393.152</ele>
        <time>2018-07-21T09:08:07Z</time>
      </trkpt>
      <trkpt lat="45.284823" lon="6.783210">
        <ele>2393.527</ele>
        <time>2018-07-21T09:08:12Z</time>
      </trkpt>
      <trkpt lat="45.284792" lon="6.783150">
        <ele>2395.636</ele>
        <time>2018-07-21T09:08:16Z</time>
      </trkpt>
      <trkpt lat="45.284759" lon="6.783103">
        <ele>2395.888</ele>
        <time>2018-07-21T09:08:21Z</time>
      </trkpt>
      <trkpt lat="45.284700" lon="6.783128">
        <ele>2395.966</ele>
        <time>2018-07-21T09:08:26Z</time>
      </trkpt>
      <trkpt lat="45.284654" lon="6.783135">
        <ele>2395.142</ele>
        <time>2018-07-21T09:08:30Z</time>
      </trkpt>
      <trkpt lat="45.284604" lon="6.783152">
        <ele>2395.597</ele>
        <time>2018-07-21T09:08:34Z</time>
      </trkpt>
      <trkpt lat="45.284572" lon="6.783103">
        <ele>2395.423</ele>
        <time>2018-07-21T09:08:39Z</time>
      </trkpt>
      <trkpt lat="45.284544" lon="6.783041">
        <ele>2397.825</ele>
        <time>2018-07-21T09:08:47Z</time>
      </trkpt>
      <trkpt lat="45.284513" lon="6.782983">
        <ele>2398.308</ele>
        <time>2018-07-21T09:08:54Z</time>
      </trkpt>
      <trkpt lat="45.284463" lon="6.782958">
        <ele>2397.311</ele>
        <time>2018-07-21T09:09:00Z</time>
      </trkpt>
      <trkpt lat="45.284420" lon="6.782982">
        <ele>2397.646</ele>
        <time>2018-07-21T09:09:03Z</time>
      </trkpt>
      <trkpt lat="45.284384" lon="6.782940">
        <ele>2398.983</ele>
        <time>2018-07-21T09:09:12Z</time>
      </trkpt>
      <trkpt lat="45.284338" lon="6.782935">
        <ele>2400.718</ele>
        <time>2018-07-21T09:09:17Z</time>
      </trkpt>
      <trkpt lat="45.284303" lon="6.782895">
        <ele>2405.877</ele>
        <time>2018-07-21T09:10:10Z</time>
      </trkpt>
      <trkpt lat="45.284280" lon="6.782828">
        <ele>2406.359</ele>
        <time>2018-07-21T09:10:15Z</time>
      </trkpt>
      <trkpt lat="45.284234" lon="6.782801">
        <ele>2406.917</ele>
        <time>2018-07-21T09:10:20Z</time>
      </trkpt>
      <trkpt lat="45.284206" lon="6.782743">
        <ele>2408.113</ele>
        <time>2018-07-21T09:10:30Z</time>
      </trkpt>
      <trkpt lat="45.284162" lon="6.782699">
        <ele>2409.014</ele>
        <time>2018-07-21T09:10:38Z</time>
      </trkpt>
      <trkpt lat="45.284151" lon="6.782635">
        <ele>2409.554</ele>
        <time>2018-07-21T09:10:49Z</time>
      </trkpt>
      <trkpt lat="45.284125" lon="6.782578">
        <ele>2410.309</ele>
        <time>2018-07-21T09:10:54Z</time>
      </trkpt>
      <trkpt lat="45.284092" lon="6.782525">
        <ele>2411.208</ele>
        <time>2018-07-21T09:11:02Z</time>
      </trkpt>
      <trkpt lat="45.284042" lon="6.782531">
        <ele>2412.033</ele>
        <time>2018-07-21T09:11:07Z</time>
      </trkpt>
      <trkpt lat="45.283995" lon="6.782539">
        <ele>2412.428</ele>
        <time>2018-07-21T09:11:14Z</time>
      </trkpt>
      <trkpt lat="45.283952" lon="6.782485">
        <ele>2418.425</ele>
        <time>2018-07-21T09:12:06Z</time>
      </trkpt>
      <trkpt lat="45.283927" lon="6.782431">
        <ele>2417.990</ele>
        <time>2018-07-21T09:12:10Z</time>
      </trkpt>
      <trkpt lat="45.283886" lon="6.782389">
        <ele>2419.299</ele>
        <time>2018-07-21T09:12:13Z</time>
      </trkpt>
      <trkpt lat="45.283847" lon="6.782357">
        <ele>2418.771</ele>
        <time>2018-07-21T09:12:16Z</time>
      </trkpt>
      <trkpt lat="45.283799" lon="6.782347">
        <ele>2419.069</ele>
        <time>2018-07-21T09:12:19Z</time>
      </trkpt>
      <trkpt lat="45.283756" lon="6.782305">
        <ele>2420.215</ele>
        <time>2018-07-21T09:12:26Z</time>
      </trkpt>
      <trkpt lat="45.283748" lon="6.782233">
        <ele>2422.089</ele>
        <time>2018-07-21T09:12:34Z</time>
      </trkpt>
      <trkpt lat="45.283703" lon="6.782197">
        <ele>2422.906</ele>
        <time>2018-07-21T09:12:39Z</time>
      </trkpt>
      <trkpt lat="45.283675" lon="6.782142">
        <ele>2423.326</ele>
        <time>2018-07-21T09:12:46Z</time>
      </trkpt>
      <trkpt lat="45.283631" lon="6.782103">
        <ele>2421.008</ele>
        <time>2018-07-21T09:12:51Z</time>
      </trkpt>
      <trkpt lat="45.283603" lon="6.782048">
        <ele>2421.770</ele>
        <time>2018-07-21T09:12:55Z</time>
      </trkpt>
      <trkpt lat="45.283581" lon="6.781978">
        <ele>2421.895</ele>
        <time>2018-07-21T09:13:02Z</time>
      </trkpt>
      <trkpt lat="45.283540" lon="6.781938">
        <ele>2422.352</ele>
        <time>2018-07-21T09:13:07Z</time>
      </trkpt>
      <trkpt lat="45.283488" lon="6.781913">
        <ele>2422.167</ele>
        <time>2018-07-21T09:13:12Z</time>
      </trkpt>
      <trkpt lat="45.283437" lon="6.781929">
        <ele>2422.526</ele>
        <time>2018-07-21T09:13:15Z</time>
      </trkpt>
      <trkpt lat="45.283381" lon="6.781907">
        <ele>2422.178</ele>
        <time>2018-07-21T09:13:19Z</time>
      </trkpt>
      <trkpt lat="45.283329" lon="6.781890">
        <ele>2423.136</ele>
        <time>2018-07-21T09:13:24Z</time>
      </trkpt>
      <trkpt lat="45.283278" lon="6.781878">
        <ele>2423.542</ele>
        <time>2018-07-21T09:13:29Z</time>
      </trkpt>
      <trkpt lat="45.283256" lon="6.781814">
        <ele>2422.493</ele>
        <time>2018-07-21T09:13:34Z</time>
      </trkpt>
      <trkpt lat="45.283230" lon="6.781751">
        <ele>2422.565</ele>
        <time>2018-07-21T09:13:39Z</time>
      </trkpt>
      <trkpt lat="45.283184" lon="6.781711">
        <ele>2423.221</ele>
        <time>2018-07-21T09:13:44Z</time>
      </trkpt>
      <trkpt lat="45.283143" lon="6.781673">
        <ele>2423.608</ele>
        <time>2018-07-21T09:13:52Z</time>
      </trkpt>
      <trkpt lat="45.283099" lon="6.781629">
        <ele>2424.311</ele>
        <time>2018-07-21T09:13:56Z</time>
      </trkpt>
      <trkpt lat="45.283111" lon="6.781566">
        <ele>2425.166</ele>
        <time>2018-07-21T09:14:00Z</time>
      </trkpt>
      <trkpt lat="45.283068" lon="6.781594">
        <ele>2425.373</ele>
        <time>2018-07-21T09:14:07Z</time>
      </trkpt>
      <trkpt lat="45.283028" lon="6.781645">
        <ele>2425.778</ele>
        <time>2018-07-21T09:14:10Z</time>
      </trkpt>
      <trkpt lat="45.282978" lon="6.781659">
        <ele>2426.197</ele>
        <time>2018-07-21T09:14:16Z</time>
      </trkpt>
      <trkpt lat="45.282933" lon="6.781652">
        <ele>2426.649</ele>
        <time>2018-07-21T09:14:20Z</time>
      </trkpt>
      <trkpt lat="45.282894" lon="6.781607">
        <ele>2426.417</ele>
        <time>2018-07-21T09:14:25Z</time>
      </trkpt>
      <trkpt lat="45.282841" lon="6.781581">
        <ele>2425.793</ele>
        <time>2018-07-21T09:14:30Z</time>
      </trkpt>
      <trkpt lat="45.282801" lon="6.781530">
        <ele>2426.294</ele>
        <time>2018-07-21T09:14:37Z</time>
      </trkpt>
      <trkpt lat="45.282753" lon="6.781540">
        <ele>2426.257</ele>
        <time>2018-07-21T09:14:41Z</time>
      </trkpt>
      <trkpt lat="45.282704" lon="6.781532">
        <ele>2426.622</ele>
        <time>2018-07-21T09:14:48Z</time>
      </trkpt>
      <trkpt lat="45.282651" lon="6.781516">
        <ele>2426.708</ele>
        <time>2018-07-21T09:14:53Z</time>
      </trkpt>
      <trkpt lat="45.282612" lon="6.781476">
        <ele>2427.221</ele>
        <time>2018-07-21T09:14:58Z</time>
      </trkpt>
      <trkpt lat="45.282572" lon="6.781429">
        <ele>2429.156</ele>
        <time>2018-07-21T09:15:03Z</time>
      </trkpt>
      <trkpt lat="45.282527" lon="6.781412">
        <ele>2428.033</ele>
        <time>2018-07-21T09:15:09Z</time>
      </trkpt>
      <trkpt lat="45.282486" lon="6.781377">
        <ele>2427.018</ele>
        <time>2018-07-21T09:15:14Z</time>
      </trkpt>
      <trkpt lat="45.282455" lon="6.781304">
        <ele>2427.537</ele>
        <time>2018-07-21T09:15:20Z</time>
      </trkpt>
      <trkpt lat="45.282404" lon="6.781306">
        <ele>2427.169</ele>
        <time>2018-07-21T09:15:25Z</time>
      </trkpt>
      <trkpt lat="45.282361" lon="6.781261">
        <ele>2429.557</ele>
        <time>2018-07-21T09:15:30Z</time>
      </trkpt>
      <trkpt lat="45.282385" lon="6.781199">
        <ele>2430.513</ele>
        <time>2018-07-21T09:15:41Z</time>
      </trkpt>
      <trkpt lat="45.282338" lon="6.781179">
        <ele>2429.866</ele>
        <time>2018-07-21T09:15:47Z</time>
      </trkpt>
      <trkpt lat="45.282298" lon="6.781149">
        <ele>2430.329</ele>
        <time>2018-07-21T09:15:55Z</time>
      </trkpt>
      <trkpt lat="45.282287" lon="6.781084">
        <ele>2431.021</ele>
        <time>2018-07-21T09:16:02Z</time>
      </trkpt>
      <trkpt lat="45.282260" lon="6.781030">
        <ele>2432.208</ele>
        <time>2018-07-21T09:16:10Z</time>
      </trkpt>
      <trkpt lat="45.282222" lon="6.780989">
        <ele>2432.588</ele>
        <time>2018-07-21T09:16:16Z</time>
      </trkpt>
      <trkpt lat="45.282212" lon="6.780919">
        <ele>2434.963</ele>
        <time>2018-07-21T09:16:25Z</time>
      </trkpt>
      <trkpt lat="45.282209" lon="6.780854">
        <ele>2433.060</ele>
        <time>2018-07-21T09:16:34Z</time>
      </trkpt>
      <trkpt lat="45.282251" lon="6.780882">
        <ele>2435.555</ele>
        <time>2018-07-21T09:16:41Z</time>
      </trkpt>
      <trkpt lat="45.282280" lon="6.780825">
        <ele>2434.764</ele>
        <time>2018-07-21T09:16:54Z</time>
      </trkpt>
      <trkpt lat="45.282308" lon="6.780763">
        <ele>2435.176</ele>
        <time>2018-07-21T09:17:00Z</time>
      </trkpt>
      <trkpt lat="45.282349" lon="6.780724">
        <ele>2436.454</ele>
        <time>2018-07-21T09:17:12Z</time>
      </trkpt>
      <trkpt lat="45.282303" lon="6.780691">
        <ele>2438.650</ele>
        <time>2018-07-21T09:17:32Z</time>
      </trkpt>
      <trkpt lat="45.282287" lon="6.780623">
        <ele>2441.934</ele>
        <time>2018-07-21T09:17:55Z</time>
      </trkpt>
      <trkpt lat="45.282340" lon="6.780569">
        <ele>2443.355</ele>
        <time>2018-07-21T09:18:22Z</time>
      </trkpt>
      <trkpt lat="45.282394" lon="6.780511">
        <ele>2442.710</ele>
        <time>2018-07-21T09:18:23Z</time>
      </trkpt>
      <trkpt lat="45.282443" lon="6.780490">
        <ele>2443.108</ele>
        <time>2018-07-21T09:18:26Z</time>
      </trkpt>
      <trkpt lat="45.282451" lon="6.780423">
        <ele>2442.945</ele>
        <time>2018-07-21T09:18:29Z</time>
      </trkpt>
      <trkpt lat="45.282454" lon="6.780353">
        <ele>2443.840</ele>
        <time>2018-07-21T09:18:33Z</time>
      </trkpt>
      <trkpt lat="45.282449" lon="6.780287">
        <ele>2443.677</ele>
        <time>2018-07-21T09:18:36Z</time>
      </trkpt>
      <trkpt lat="45.282439" lon="6.780213">
        <ele>2443.662</ele>
        <time>2018-07-21T09:18:39Z</time>
      </trkpt>
      <trkpt lat="45.282445" lon="6.780142">
        <ele>2444.231</ele>
        <time>2018-07-21T09:18:43Z</time>
      </trkpt>
      <trkpt lat="45.282443" lon="6.780075">
        <ele>2445.133</ele>
        <time>2018-07-21T09:18:54Z</time>
      </trkpt>
      <trkpt lat="45.282426" lon="6.780001">
        <ele>2446.131</ele>
        <time>2018-07-21T09:19:05Z</time>
      </trkpt>
      <trkpt lat="45.282416" lon="6.779923">
        <ele>2447.037</ele>
        <time>2018-07-21T09:19:10Z</time>
      </trkpt>
      <trkpt lat="45.282425" lon="6.779857">
        <ele>2447.577</ele>
        <time>2018-07-21T09:19:16Z</time>
      </trkpt>
      <trkpt lat="45.282412" lon="6.779789">
        <ele>2447.861</ele>
        <time>2018-07-21T09:19:19Z</time>
      </trkpt>
      <trkpt lat="45.282383" lon="6.779722">
        <ele>2448.827</ele>
        <time>2018-07-21T09:19:33Z</time>
      </trkpt>
      <trkpt lat="45.282388" lon="6.779642">
        <ele>2450.008</ele>
        <time>2018-07-21T09:19:43Z</time>
      </trkpt>
      <trkpt lat="45.282403" lon="6.779577">
        <ele>2450.419</ele>
        <time>2018-07-21T09:19:48Z</time>
      </trkpt>
      <trkpt lat="45.282380" lon="6.779515">
        <ele>2451.554</ele>
        <time>2018-07-21T09:19:54Z</time>
      </trkpt>
      <trkpt lat="45.282358" lon="6.779439">
        <ele>2452.921</ele>
        <time>2018-07-21T09:19:59Z</time>
      </trkpt>
      <trkpt lat="45.282316" lon="6.779415">
        <ele>2451.996</ele>
        <time>2018-07-21T09:20:04Z</time>
      </trkpt>
      <trkpt lat="45.282290" lon="6.779472">
        <ele>2453.965</ele>
        <time>2018-07-21T09:20:09Z</time>
      </trkpt>
      <trkpt lat="45.282250" lon="6.779414">
        <ele>2451.577</ele>
        <time>2018-07-21T09:20:21Z</time>
      </trkpt>
      <trkpt lat="45.282232" lon="6.779341">
        <ele>2451.135</ele>
        <time>2018-07-21T09:20:27Z</time>
      </trkpt>
      <trkpt lat="45.282245" lon="6.779271">
        <ele>2451.551</ele>
        <time>2018-07-21T09:20:31Z</time>
      </trkpt>
      <trkpt lat="45.282200" lon="6.779223">
        <ele>2451.064</ele>
        <time>2018-07-21T09:20:41Z</time>
      </trkpt>
      <trkpt lat="45.282176" lon="6.779168">
        <ele>2449.806</ele>
        <time>2018-07-21T09:20:48Z</time>
      </trkpt>
      <trkpt lat="45.282198" lon="6.779109">
        <ele>2449.216</ele>
        <time>2018-07-21T09:20:55Z</time>
      </trkpt>
      <trkpt lat="45.282144" lon="6.779125">
        <ele>2448.208</ele>
        <time>2018-07-21T09:21:06Z</time>
      </trkpt>
      <trkpt lat="45.282104" lon="6.779078">
        <ele>2446.928</ele>
        <time>2018-07-21T09:21:11Z</time>
      </trkpt>
      <trkpt lat="45.282048" lon="6.779048">
        <ele>2446.483</ele>
        <time>2018-07-21T09:21:16Z</time>
      </trkpt>
      <trkpt lat="45.282028" lon="6.778985">
        <ele>2446.370</ele>
        <time>2018-07-21T09:21:20Z</time>
      </trkpt>
      <trkpt lat="45.282019" lon="6.778921">
        <ele>2444.965</ele>
        <time>2018-07-21T09:21:26Z</time>
      </trkpt>
      <trkpt lat="45.281999" lon="6.778861">
        <ele>2444.364</ele>
        <time>2018-07-21T09:21:30Z</time>
      </trkpt>
      <trkpt lat="45.281960" lon="6.778826">
        <ele>2443.526</ele>
        <time>2018-07-21T09:21:34Z</time>
      </trkpt>
      <trkpt lat="45.281915" lon="6.778779">
        <ele>2442.634</ele>
        <time>2018-07-21T09:21:38Z</time>
      </trkpt>
      <trkpt lat="45.281863" lon="6.778753">
        <ele>2442.550</ele>
        <time>2018-07-21T09:21:42Z</time>
      </trkpt>
      <trkpt lat="45.281826" lon="6.778715">
        <ele>2442.297</ele>
        <time>2018-07-21T09:21:45Z</time>
      </trkpt>
      <trkpt lat="45.281773" lon="6.778686">
        <ele>2442.123</ele>
        <time>2018-07-21T09:21:50Z</time>
      </trkpt>
      <trkpt lat="45.281724" lon="6.778690">
        <ele>2441.825</ele>
        <time>2018-07-21T09:21:54Z</time>
      </trkpt>
      <trkpt lat="45.281682" lon="6.778663">
        <ele>2442.308</ele>
        <time>2018-07-21T09:21:59Z</time>
      </trkpt>
      <trkpt lat="45.281659" lon="6.778605">
        <ele>2442.331</ele>
        <time>2018-07-21T09:22:03Z</time>
      </trkpt>
      <trkpt lat="45.281620" lon="6.778548">
        <ele>2442.656</ele>
        <time>2018-07-21T09:22:07Z</time>
      </trkpt>
      <trkpt lat="45.281575" lon="6.778510">
        <ele>2442.883</ele>
        <time>2018-07-21T09:22:11Z</time>
      </trkpt>
      <trkpt lat="45.281568" lon="6.778436">
        <ele>2442.998</ele>
        <time>2018-07-21T09:22:16Z</time>
      </trkpt>
      <trkpt lat="45.281544" lon="6.778376">
        <ele>2443.777</ele>
        <time>2018-07-21T09:22:22Z</time>
      </trkpt>
      <trkpt lat="45.281512" lon="6.778319">
        <ele>2444.149</ele>
        <time>2018-07-21T09:22:27Z</time>
      </trkpt>
      <trkpt lat="45.281508" lon="6.778251">
        <ele>2444.767</ele>
        <time>2018-07-21T09:22:34Z</time>
      </trkpt>
      <trkpt lat="45.281463" lon="6.778242">
        <ele>2446.253</ele>
        <time>2018-07-21T09:22:41Z</time>
      </trkpt>
      <trkpt lat="45.281448" lon="6.778181">
        <ele>2446.258</ele>
        <time>2018-07-21T09:22:45Z</time>
      </trkpt>
      <trkpt lat="45.281421" lon="6.778127">
        <ele>2446.552</ele>
        <time>2018-07-21T09:22:50Z</time>
      </trkpt>
      <trkpt lat="45.281376" lon="6.778110">
        <ele>2448.017</ele>
        <time>2018-07-21T09:23:03Z</time>
      </trkpt>
      <trkpt lat="45.281358" lon="6.778046">
        <ele>2449.208</ele>
        <time>2018-07-21T09:23:10Z</time>
      </trkpt>
      <trkpt lat="45.281308" lon="6.778025">
        <ele>2450.077</ele>
        <time>2018-07-21T09:23:17Z</time>
      </trkpt>
      <trkpt lat="45.281261" lon="6.778003">
        <ele>2450.522</ele>
        <time>2018-07-21T09:23:22Z</time>
      </trkpt>
      <trkpt lat="45.281227" lon="6.777950">
        <ele>2452.619</ele>
        <time>2018-07-21T09:23:28Z</time>
      </trkpt>
      <trkpt lat="45.281195" lon="6.777903">
        <ele>2452.514</ele>
        <time>2018-07-21T09:23:36Z</time>
      </trkpt>
      <trkpt lat="45.281163" lon="6.777850">
        <ele>2453.143</ele>
        <time>2018-07-21T09:23:48Z</time>
      </trkpt>
      <trkpt lat="45.281139" lon="6.777788">
        <ele>2451.885</ele>
        <time>2018-07-21T09:23:52Z</time>
      </trkpt>
      <trkpt lat="45.281105" lon="6.777743">
        <ele>2451.133</ele>
        <time>2018-07-21T09:23:59Z</time>
      </trkpt>
      <trkpt lat="45.281059" lon="6.777719">
        <ele>2451.629</ele>
        <time>2018-07-21T09:24:05Z</time>
      </trkpt>
      <trkpt lat="45.281054" lon="6.777651">
        <ele>2451.825</ele>
        <time>2018-07-21T09:24:10Z</time>
      </trkpt>
      <trkpt lat="45.281049" lon="6.777585">
        <ele>2452.826</ele>
        <time>2018-07-21T09:24:15Z</time>
      </trkpt>
      <trkpt lat="45.281024" lon="6.777529">
        <ele>2454.008</ele>
        <time>2018-07-21T09:24:19Z</time>
      </trkpt>
      <trkpt lat="45.281009" lon="6.777458">
        <ele>2454.508</ele>
        <time>2018-07-21T09:24:25Z</time>
      </trkpt>
      <trkpt lat="45.281001" lon="6.777393">
        <ele>2454.294</ele>
        <time>2018-07-21T09:24:30Z</time>
      </trkpt>
      <trkpt lat="45.280977" lon="6.777338">
        <ele>2454.269</ele>
        <time>2018-07-21T09:24:37Z</time>
      </trkpt>
      <trkpt lat="45.280952" lon="6.777277">
        <ele>2455.386</ele>
        <time>2018-07-21T09:24:46Z</time>
      </trkpt>
      <trkpt lat="45.280933" lon="6.777219">
        <ele>2456.451</ele>
        <time>2018-07-21T09:24:54Z</time>
      </trkpt>
      <trkpt lat="45.280895" lon="6.777180">
        <ele>2458.570</ele>
        <time>2018-07-21T09:25:01Z</time>
      </trkpt>
      <trkpt lat="45.280849" lon="6.777176">
        <ele>2457.272</ele>
        <time>2018-07-21T09:25:07Z</time>
      </trkpt>
      <trkpt lat="45.280815" lon="6.777133">
        <ele>2459.290</ele>
        <time>2018-07-21T09:25:15Z</time>
      </trkpt>
      <trkpt lat="45.280768" lon="6.777116">
        <ele>2458.826</ele>
        <time>2018-07-21T09:25:21Z</time>
      </trkpt>
      <trkpt lat="45.280728" lon="6.777082">
        <ele>2458.998</ele>
        <time>2018-07-21T09:25:29Z</time>
      </trkpt>
      <trkpt lat="45.280691" lon="6.777040">
        <ele>2461.315</ele>
        <time>2018-07-21T09:25:35Z</time>
      </trkpt>
      <trkpt lat="45.280649" lon="6.777007">
        <ele>2461.926</ele>
        <time>2018-07-21T09:25:39Z</time>
      </trkpt>
      <trkpt lat="45.280658" lon="6.776940">
        <ele>2461.208</ele>
        <time>2018-07-21T09:25:45Z</time>
      </trkpt>
      <trkpt lat="45.280612" lon="6.776914">
        <ele>2461.761</ele>
        <time>2018-07-21T09:25:50Z</time>
      </trkpt>
      <trkpt lat="45.280563" lon="6.776880">
        <ele>2461.616</ele>
        <time>2018-07-21T09:25:54Z</time>
      </trkpt>
      <trkpt lat="45.280529" lon="6.776823">
        <ele>2461.273</ele>
        <time>2018-07-21T09:25:59Z</time>
      </trkpt>
      <trkpt lat="45.280499" lon="6.776770">
        <ele>2458.738</ele>
        <time>2018-07-21T09:26:02Z</time>
      </trkpt>
      <trkpt lat="45.280474" lon="6.776710">
        <ele>2459.437</ele>
        <time>2018-07-21T09:26:05Z</time>
      </trkpt>
      <trkpt lat="45.280437" lon="6.776658">
        <ele>2459.069</ele>
        <time>2018-07-21T09:26:10Z</time>
      </trkpt>
      <trkpt lat="45.280393" lon="6.776633">
        <ele>2458.567</ele>
        <time>2018-07-21T09:26:14Z</time>
      </trkpt>
      <trkpt lat="45.280389" lon="6.776569">
        <ele>2458.023</ele>
        <time>2018-07-21T09:26:20Z</time>
      </trkpt>
      <trkpt lat="45.280362" lon="6.776512">
        <ele>2459.668</ele>
        <time>2018-07-21T09:26:23Z</time>
      </trkpt>
      <trkpt lat="45.280325" lon="6.776452">
        <ele>2458.642</ele>
        <time>2018-07-21T09:26:30Z</time>
      </trkpt>
      <trkpt lat="45.280269" lon="6.776434">
        <ele>2457.926</ele>
        <time>2018-07-21T09:26:35Z</time>
      </trkpt>
      <trkpt lat="45.280229" lon="6.776392">
        <ele>2457.608</ele>
        <time>2018-07-21T09:26:38Z</time>
      </trkpt>
      <trkpt lat="45.280188" lon="6.776357">
        <ele>2458.798</ele>
        <time>2018-07-21T09:26:42Z</time>
      </trkpt>
      <trkpt lat="45.280139" lon="6.776325">
        <ele>2458.633</ele>
        <time>2018-07-21T09:26:50Z</time>
      </trkpt>
      <trkpt lat="45.280100" lon="6.776283">
        <ele>2457.810</ele>
        <time>2018-07-21T09:26:55Z</time>
      </trkpt>
      <trkpt lat="45.280050" lon="6.776248">
        <ele>2457.715</ele>
        <time>2018-07-21T09:27:00Z</time>
      </trkpt>
      <trkpt lat="45.280011" lon="6.776202">
        <ele>2457.534</ele>
        <time>2018-07-21T09:27:04Z</time>
      </trkpt>
      <trkpt lat="45.279971" lon="6.776169">
        <ele>2458.066</ele>
        <time>2018-07-21T09:27:10Z</time>
      </trkpt>
      <trkpt lat="45.279932" lon="6.776128">
        <ele>2459.744</ele>
        <time>2018-07-21T09:27:14Z</time>
      </trkpt>
      <trkpt lat="45.279893" lon="6.776093">
        <ele>2460.120</ele>
        <time>2018-07-21T09:27:17Z</time>
      </trkpt>
      <trkpt lat="45.279853" lon="6.776050">
        <ele>2460.586</ele>
        <time>2018-07-21T09:27:21Z</time>
      </trkpt>
      <trkpt lat="45.279812" lon="6.775984">
        <ele>2457.960</ele>
        <time>2018-07-21T09:27:26Z</time>
      </trkpt>
      <trkpt lat="45.279765" lon="6.775957">
        <ele>2457.726</ele>
        <time>2018-07-21T09:27:32Z</time>
      </trkpt>
      <trkpt lat="45.279731" lon="6.775909">
        <ele>2459.908</ele>
        <time>2018-07-21T09:27:37Z</time>
      </trkpt>
      <trkpt lat="45.279689" lon="6.775879">
        <ele>2459.420</ele>
        <time>2018-07-21T09:27:43Z</time>
      </trkpt>
      <trkpt lat="45.279663" lon="6.775808">
        <ele>2457.075</ele>
        <time>2018-07-21T09:27:47Z</time>
      </trkpt>
      <trkpt lat="45.279629" lon="6.775759">
        <ele>2459.032</ele>
        <time>2018-07-21T09:27:51Z</time>
      </trkpt>
      <trkpt lat="45.279604" lon="6.775696">
        <ele>2458.587</ele>
        <time>2018-07-21T09:27:57Z</time>
      </trkpt>
      <trkpt lat="45.279551" lon="6.775704">
        <ele>2458.636</ele>
        <time>2018-07-21T09:28:00Z</time>
      </trkpt>
      <trkpt lat="45.279506" lon="6.775694">
        <ele>2456.288</ele>
        <time>2018-07-21T09:28:02Z</time>
      </trkpt>
      <trkpt lat="45.279458" lon="6.775655">
        <ele>2457.036</ele>
        <time>2018-07-21T09:28:06Z</time>
      </trkpt>
      <trkpt lat="45.279417" lon="6.775622">
        <ele>2457.692</ele>
        <time>2018-07-21T09:28:10Z</time>
      </trkpt>
      <trkpt lat="45.279358" lon="6.775602">
        <ele>2455.978</ele>
        <time>2018-07-21T09:28:16Z</time>
      </trkpt>
      <trkpt lat="45.279306" lon="6.775613">
        <ele>2457.933</ele>
        <time>2018-07-21T09:28:19Z</time>
      </trkpt>
      <trkpt lat="45.279256" lon="6.775611">
        <ele>2457.726</ele>
        <time>2018-07-21T09:28:23Z</time>
      </trkpt>
      <trkpt lat="45.279211" lon="6.775580">
        <ele>2457.508</ele>
        <time>2018-07-21T09:28:26Z</time>
      </trkpt>
      <trkpt lat="45.279182" lon="6.775515">
        <ele>2457.389</ele>
        <time>2018-07-21T09:28:30Z</time>
      </trkpt>
      <trkpt lat="45.279146" lon="6.775459">
        <ele>2454.534</ele>
        <time>2018-07-21T09:28:34Z</time>
      </trkpt>
      <trkpt lat="45.279083" lon="6.775436">
        <ele>2454.651</ele>
        <time>2018-07-21T09:28:37Z</time>
      </trkpt>
      <trkpt lat="45.279037" lon="6.775395">
        <ele>2454.026</ele>
        <time>2018-07-21T09:28:41Z</time>
      </trkpt>
      <trkpt lat="45.279022" lon="6.775327">
        <ele>2454.615</ele>
        <time>2018-07-21T09:28:45Z</time>
      </trkpt>
      <trkpt lat="45.278992" lon="6.775265">
        <ele>2456.647</ele>
        <time>2018-07-21T09:28:51Z</time>
      </trkpt>
      <trkpt lat="45.278964" lon="6.775203">
        <ele>2455.945</ele>
        <time>2018-07-21T09:29:00Z</time>
      </trkpt>
      <trkpt lat="45.278910" lon="6.775199">
        <ele>2453.151</ele>
        <time>2018-07-21T09:29:04Z</time>
      </trkpt>
      <trkpt lat="45.278862" lon="6.775205">
        <ele>2453.155</ele>
        <time>2018-07-21T09:29:07Z</time>
      </trkpt>
      <trkpt lat="45.278810" lon="6.775160">
        <ele>2453.107</ele>
        <time>2018-07-21T09:29:12Z</time>
      </trkpt>
      <trkpt lat="45.278753" lon="6.775155">
        <ele>2453.517</ele>
        <time>2018-07-21T09:29:17Z</time>
      </trkpt>
      <trkpt lat="45.278742" lon="6.775091">
        <ele>2453.108</ele>
        <time>2018-07-21T09:29:21Z</time>
      </trkpt>
      <trkpt lat="45.278704" lon="6.775047">
        <ele>2452.637</ele>
        <time>2018-07-21T09:29:26Z</time>
      </trkpt>
      <trkpt lat="45.278659" lon="6.775054">
        <ele>2452.062</ele>
        <time>2018-07-21T09:29:30Z</time>
      </trkpt>
      <trkpt lat="45.278621" lon="6.775088">
        <ele>2452.219</ele>
        <time>2018-07-21T09:29:34Z</time>
      </trkpt>
      <trkpt lat="45.278597" lon="6.775025">
        <ele>2453.484</ele>
        <time>2018-07-21T09:29:37Z</time>
      </trkpt>
      <trkpt lat="45.278582" lon="6.774944">
        <ele>2455.053</ele>
        <time>2018-07-21T09:29:43Z</time>
      </trkpt>
      <trkpt lat="45.278559" lon="6.774887">
        <ele>2452.785</ele>
        <time>2018-07-21T09:29:49Z</time>
      </trkpt>
      <trkpt lat="45.278590" lon="6.774836">
        <ele>2452.213</ele>
        <time>2018-07-21T09:29:55Z</time>
      </trkpt>
      <trkpt lat="45.278620" lon="6.774784">
        <ele>2453.119</ele>
        <time>2018-07-21T09:30:00Z</time>
      </trkpt>
      <trkpt lat="45.278633" lon="6.774719">
        <ele>2449.989</ele>
        <time>2018-07-21T09:30:09Z</time>
      </trkpt>
      <trkpt lat="45.278637" lon="6.774639">
        <ele>2449.606</ele>
        <time>2018-07-21T09:30:13Z</time>
      </trkpt>
      <trkpt lat="45.278624" lon="6.774561">
        <ele>2449.126</ele>
        <time>2018-07-21T09:30:17Z</time>
      </trkpt>
      <trkpt lat="45.278601" lon="6.774506">
        <ele>2449.108</ele>
        <time>2018-07-21T09:30:25Z</time>
      </trkpt>
      <trkpt lat="45.278559" lon="6.774480">
        <ele>2449.220</ele>
        <time>2018-07-21T09:30:27Z</time>
      </trkpt>
      <trkpt lat="45.278519" lon="6.774431">
        <ele>2449.035</ele>
        <time>2018-07-21T09:30:31Z</time>
      </trkpt>
      <trkpt lat="45.278471" lon="6.774424">
        <ele>2449.012</ele>
        <time>2018-07-21T09:30:34Z</time>
      </trkpt>
      <trkpt lat="45.278416" lon="6.774397">
        <ele>2449.067</ele>
        <time>2018-07-21T09:30:38Z</time>
      </trkpt>
      <trkpt lat="45.278388" lon="6.774344">
        <ele>2449.556</ele>
        <time>2018-07-21T09:30:44Z</time>
      </trkpt>
      <trkpt lat="45.278339" lon="6.774330">
        <ele>2449.928</ele>
        <time>2018-07-21T09:30:48Z</time>
      </trkpt>
      <trkpt lat="45.278300" lon="6.774373">
        <ele>2450.026</ele>
        <time>2018-07-21T09:30:52Z</time>
      </trkpt>
      <trkpt lat="45.278252" lon="6.774335">
        <ele>2449.912</ele>
        <time>2018-07-21T09:30:57Z</time>
      </trkpt>
      <trkpt lat="45.278266" lon="6.774269">
        <ele>2449.382</ele>
        <time>2018-07-21T09:31:00Z</time>
      </trkpt>
      <trkpt lat="45.278236" lon="6.774210">
        <ele>2449.143</ele>
        <time>2018-07-21T09:31:04Z</time>
      </trkpt>
      <trkpt lat="45.278234" lon="6.774142">
        <ele>2450.917</ele>
        <time>2018-07-21T09:31:08Z</time>
      </trkpt>
      <trkpt lat="45.278182" lon="6.774140">
        <ele>2451.108</ele>
        <time>2018-07-21T09:31:15Z</time>
      </trkpt>
      <trkpt lat="45.278179" lon="6.774073">
        <ele>2449.780</ele>
        <time>2018-07-21T09:31:18Z</time>
      </trkpt>
      <trkpt lat="45.278127" lon="6.774078">
        <ele>2448.995</ele>
        <time>2018-07-21T09:31:23Z</time>
      </trkpt>
      <trkpt lat="45.278064" lon="6.774075">
        <ele>2448.692</ele>
        <time>2018-07-21T09:31:26Z</time>
      </trkpt>
      <trkpt lat="45.278001" lon="6.774071">
        <ele>2449.017</ele>
        <time>2018-07-21T09:31:29Z</time>
      </trkpt>
      <trkpt lat="45.277955" lon="6.774094">
        <ele>2448.316</ele>
        <time>2018-07-21T09:31:34Z</time>
      </trkpt>
      <trkpt lat="45.277967" lon="6.774016">
        <ele>2447.788</ele>
        <time>2018-07-21T09:31:37Z</time>
      </trkpt>
      <trkpt lat="45.277963" lon="6.773929">
        <ele>2447.696</ele>
        <time>2018-07-21T09:31:39Z</time>
      </trkpt>
      <trkpt lat="45.277926" lon="6.773879">
        <ele>2447.292</ele>
        <time>2018-07-21T09:31:44Z</time>
      </trkpt>
      <trkpt lat="45.277864" lon="6.773897">
        <ele>2446.021</ele>
        <time>2018-07-21T09:31:49Z</time>
      </trkpt>
      <trkpt lat="45.277820" lon="6.773861">
        <ele>2445.741</ele>
        <time>2018-07-21T09:31:53Z</time>
      </trkpt>
      <trkpt lat="45.277818" lon="6.773797">
        <ele>2445.205</ele>
        <time>2018-07-21T09:31:56Z</time>
      </trkpt>
      <trkpt lat="45.277819" lon="6.773668">
        <ele>2444.908</ele>
        <time>2018-07-21T09:31:59Z</time>
      </trkpt>
      <trkpt lat="45.277787" lon="6.773622">
        <ele>2443.474</ele>
        <time>2018-07-21T09:32:06Z</time>
      </trkpt>
      <trkpt lat="45.277736" lon="6.773621">
        <ele>2443.489</ele>
        <time>2018-07-21T09:32:09Z</time>
      </trkpt>
      <trkpt lat="45.277687" lon="6.773587">
        <ele>2442.576</ele>
        <time>2018-07-21T09:32:15Z</time>
      </trkpt>
      <trkpt lat="45.277666" lon="6.773507">
        <ele>2443.721</ele>
        <time>2018-07-21T09:32:19Z</time>
      </trkpt>
      <trkpt lat="45.277659" lon="6.773443">
        <ele>2442.480</ele>
        <time>2018-07-21T09:32:26Z</time>
      </trkpt>
      <trkpt lat="45.277659" lon="6.773369">
        <ele>2442.122</ele>
        <time>2018-07-21T09:32:28Z</time>
      </trkpt>
      <trkpt lat="45.277647" lon="6.773278">
        <ele>2441.780</ele>
        <time>2018-07-21T09:32:30Z</time>
      </trkpt>
      <trkpt lat="45.277597" lon="6.773249">
        <ele>2441.066</ele>
        <time>2018-07-21T09:32:34Z</time>
      </trkpt>
      <trkpt lat="45.277546" lon="6.773244">
        <ele>2437.465</ele>
        <time>2018-07-21T09:32:41Z</time>
      </trkpt>
      <trkpt lat="45.277509" lon="6.773298">
        <ele>2437.168</ele>
        <time>2018-07-21T09:32:46Z</time>
      </trkpt>
      <trkpt lat="45.277481" lon="6.773378">
        <ele>2435.714</ele>
        <time>2018-07-21T09:32:51Z</time>
      </trkpt>
      <trkpt lat="45.277479" lon="6.773455">
        <ele>2434.908</ele>
        <time>2018-07-21T09:32:58Z</time>
      </trkpt>
      <trkpt lat="45.277431" lon="6.773497">
        <ele>2433.168</ele>
        <time>2018-07-21T09:33:10Z</time>
      </trkpt>
      <trkpt lat="45.277443" lon="6.773405">
        <ele>2430.343</ele>
        <time>2018-07-21T09:33:26Z</time>
      </trkpt>
      <trkpt lat="45.277420" lon="6.773347">
        <ele>2430.340</ele>
        <time>2018-07-21T09:33:28Z</time>
      </trkpt>
      <trkpt lat="45.277374" lon="6.773319">
        <ele>2431.375</ele>
        <time>2018-07-21T09:33:31Z</time>
      </trkpt>
      <trkpt lat="45.277354" lon="6.773251">
        <ele>2427.834</ele>
        <time>2018-07-21T09:33:44Z</time>
      </trkpt>
      <trkpt lat="45.277381" lon="6.773189">
        <ele>2427.426</ele>
        <time>2018-07-21T09:33:51Z</time>
      </trkpt>
      <trkpt lat="45.277405" lon="6.773132">
        <ele>2426.854</ele>
        <time>2018-07-21T09:33:58Z</time>
      </trkpt>
      <trkpt lat="45.277373" lon="6.773081">
        <ele>2424.140</ele>
        <time>2018-07-21T09:34:03Z</time>
      </trkpt>
      <trkpt lat="45.277329" lon="6.773034">
        <ele>2422.894</ele>
        <time>2018-07-21T09:34:08Z</time>
      </trkpt>
      <trkpt lat="45.277292" lon="6.772987">
        <ele>2422.957</ele>
        <time>2018-07-21T09:34:11Z</time>
      </trkpt>
      <trkpt lat="45.277244" lon="6.772957">
        <ele>2422.022</ele>
        <time>2018-07-21T09:34:13Z</time>
      </trkpt>
      <trkpt lat="45.277213" lon="6.772910">
        <ele>2423.108</ele>
        <time>2018-07-21T09:34:18Z</time>
      </trkpt>
      <trkpt lat="45.277174" lon="6.772850">
        <ele>2422.041</ele>
        <time>2018-07-21T09:34:26Z</time>
      </trkpt>
      <trkpt lat="45.277129" lon="6.772803">
        <ele>2421.686</ele>
        <time>2018-07-21T09:34:29Z</time>
      </trkpt>
      <trkpt lat="45.277116" lon="6.772739">
        <ele>2418.513</ele>
        <time>2018-07-21T09:34:34Z</time>
      </trkpt>
      <trkpt lat="45.277078" lon="6.772704">
        <ele>2418.738</ele>
        <time>2018-07-21T09:34:38Z</time>
      </trkpt>
      <trkpt lat="45.277032" lon="6.772678">
        <ele>2418.737</ele>
        <time>2018-07-21T09:34:42Z</time>
      </trkpt>
      <trkpt lat="45.277003" lon="6.772764">
        <ele>2418.599</ele>
        <time>2018-07-21T09:34:46Z</time>
      </trkpt>
      <trkpt lat="45.276981" lon="6.772694">
        <ele>2418.637</ele>
        <time>2018-07-21T09:34:51Z</time>
      </trkpt>
      <trkpt lat="45.276959" lon="6.772628">
        <ele>2419.643</ele>
        <time>2018-07-21T09:34:54Z</time>
      </trkpt>
      <trkpt lat="45.276936" lon="6.772557">
        <ele>2417.717</ele>
        <time>2018-07-21T09:34:57Z</time>
      </trkpt>
      <trkpt lat="45.276908" lon="6.772498">
        <ele>2420.287</ele>
        <time>2018-07-21T09:34:59Z</time>
      </trkpt>
      <trkpt lat="45.276915" lon="6.772430">
        <ele>2420.115</ele>
        <time>2018-07-21T09:35:01Z</time>
      </trkpt>
      <trkpt lat="45.276876" lon="6.772374">
        <ele>2417.308</ele>
        <time>2018-07-21T09:35:05Z</time>
      </trkpt>
      <trkpt lat="45.276825" lon="6.772380">
        <ele>2416.833</ele>
        <time>2018-07-21T09:35:09Z</time>
      </trkpt>
      <trkpt lat="45.276780" lon="6.772377">
        <ele>2416.688</ele>
        <time>2018-07-21T09:35:12Z</time>
      </trkpt>
      <trkpt lat="45.276734" lon="6.772322">
        <ele>2416.625</ele>
        <time>2018-07-21T09:35:17Z</time>
      </trkpt>
      <trkpt lat="45.276700" lon="6.772254">
        <ele>2416.530</ele>
        <time>2018-07-21T09:35:22Z</time>
      </trkpt>
      <trkpt lat="45.276690" lon="6.772180">
        <ele>2415.479</ele>
        <time>2018-07-21T09:35:27Z</time>
      </trkpt>
      <trkpt lat="45.276667" lon="6.772120">
        <ele>2415.651</ele>
        <time>2018-07-21T09:35:31Z</time>
      </trkpt>
      <trkpt lat="45.276617" lon="6.772113">
        <ele>2414.879</ele>
        <time>2018-07-21T09:35:36Z</time>
      </trkpt>
      <trkpt lat="45.276577" lon="6.772074">
        <ele>2414.685</ele>
        <time>2018-07-21T09:35:41Z</time>
      </trkpt>
      <trkpt lat="45.276587" lon="6.772002">
        <ele>2414.083</ele>
        <time>2018-07-21T09:35:52Z</time>
      </trkpt>
      <trkpt lat="45.276546" lon="6.771945">
        <ele>2413.325</ele>
        <time>2018-07-21T09:35:57Z</time>
      </trkpt>
      <trkpt lat="45.276541" lon="6.771874">
        <ele>2412.917</ele>
        <time>2018-07-21T09:36:02Z</time>
      </trkpt>
      <trkpt lat="45.276505" lon="6.771825">
        <ele>2411.008</ele>
        <time>2018-07-21T09:36:13Z</time>
      </trkpt>
      <trkpt lat="45.276475" lon="6.771769">
        <ele>2409.550</ele>
        <time>2018-07-21T09:36:20Z</time>
      </trkpt>
      <trkpt lat="45.276426" lon="6.771769">
        <ele>2408.825</ele>
        <time>2018-07-21T09:36:23Z</time>
      </trkpt>
      <trkpt lat="45.276399" lon="6.771714">
        <ele>2408.582</ele>
        <time>2018-07-21T09:36:26Z</time>
      </trkpt>
      <trkpt lat="45.276361" lon="6.771670">
        <ele>2410.857</ele>
        <time>2018-07-21T09:36:30Z</time>
      </trkpt>
      <trkpt lat="45.276319" lon="6.771612">
        <ele>2405.376</ele>
        <time>2018-07-21T09:37:35Z</time>
      </trkpt>
      <trkpt lat="45.276303" lon="6.771540">
        <ele>2403.898</ele>
        <time>2018-07-21T09:37:42Z</time>
      </trkpt>
      <trkpt lat="45.276246" lon="6.771516">
        <ele>2403.476</ele>
        <time>2018-07-21T09:37:46Z</time>
      </trkpt>
      <trkpt lat="45.276208" lon="6.771465">
        <ele>2402.712</ele>
        <time>2018-07-21T09:37:50Z</time>
      </trkpt>
      <trkpt lat="45.276180" lon="6.771405">
        <ele>2403.052</ele>
        <time>2018-07-21T09:37:54Z</time>
      </trkpt>
      <trkpt lat="45.276148" lon="6.771335">
        <ele>2401.953</ele>
        <time>2018-07-21T09:37:58Z</time>
      </trkpt>
      <trkpt lat="45.276113" lon="6.771290">
        <ele>2401.908</ele>
        <time>2018-07-21T09:38:01Z</time>
      </trkpt>
      <trkpt lat="45.276070" lon="6.771246">
        <ele>2401.108</ele>
        <time>2018-07-21T09:38:05Z</time>
      </trkpt>
      <trkpt lat="45.276026" lon="6.771232">
        <ele>2401.427</ele>
        <time>2018-07-21T09:38:08Z</time>
      </trkpt>
      <trkpt lat="45.275981" lon="6.771223">
        <ele>2401.542</ele>
        <time>2018-07-21T09:38:11Z</time>
      </trkpt>
      <trkpt lat="45.275951" lon="6.771169">
        <ele>2401.169</ele>
        <time>2018-07-21T09:38:16Z</time>
      </trkpt>
      <trkpt lat="45.275918" lon="6.771116">
        <ele>2400.424</ele>
        <time>2018-07-21T09:38:21Z</time>
      </trkpt>
      <trkpt lat="45.275887" lon="6.771045">
        <ele>2399.283</ele>
        <time>2018-07-21T09:38:27Z</time>
      </trkpt>
      <trkpt lat="45.275857" lon="6.770995">
        <ele>2399.075</ele>
        <time>2018-07-21T09:38:30Z</time>
      </trkpt>
      <trkpt lat="45.275818" lon="6.770945">
        <ele>2401.563</ele>
        <time>2018-07-21T09:38:34Z</time>
      </trkpt>
      <trkpt lat="45.275798" lon="6.770885">
        <ele>2398.429</ele>
        <time>2018-07-21T09:38:38Z</time>
      </trkpt>
      <trkpt lat="45.275765" lon="6.770825">
        <ele>2398.263</ele>
        <time>2018-07-21T09:38:46Z</time>
      </trkpt>
      <trkpt lat="45.275736" lon="6.770774">
        <ele>2397.844</ele>
        <time>2018-07-21T09:38:49Z</time>
      </trkpt>
      <trkpt lat="45.275707" lon="6.770720">
        <ele>2397.718</ele>
        <time>2018-07-21T09:38:52Z</time>
      </trkpt>
      <trkpt lat="45.275661" lon="6.770684">
        <ele>2397.508</ele>
        <time>2018-07-21T09:38:57Z</time>
      </trkpt>
      <trkpt lat="45.275618" lon="6.770662">
        <ele>2397.398</ele>
        <time>2018-07-21T09:39:01Z</time>
      </trkpt>
      <trkpt lat="45.275571" lon="6.770631">
        <ele>2397.223</ele>
        <time>2018-07-21T09:39:06Z</time>
      </trkpt>
      <trkpt lat="45.275528" lon="6.770610">
        <ele>2396.690</ele>
        <time>2018-07-21T09:39:09Z</time>
      </trkpt>
      <trkpt lat="45.275492" lon="6.770562">
        <ele>2396.835</ele>
        <time>2018-07-21T09:39:13Z</time>
      </trkpt>
      <trkpt lat="45.275449" lon="6.770507">
        <ele>2396.874</ele>
        <time>2018-07-21T09:39:16Z</time>
      </trkpt>
      <trkpt lat="45.275409" lon="6.770405">
        <ele>2397.196</ele>
        <time>2018-07-21T09:39:21Z</time>
      </trkpt>
      <trkpt lat="45.275368" lon="6.770366">
        <ele>2396.864</ele>
        <time>2018-07-21T09:39:28Z</time>
      </trkpt>
      <trkpt lat="45.275369" lon="6.770289">
        <ele>2396.940</ele>
        <time>2018-07-21T09:39:35Z</time>
      </trkpt>
      <trkpt lat="45.275322" lon="6.770257">
        <ele>2398.814</ele>
        <time>2018-07-21T09:40:01Z</time>
      </trkpt>
      <trkpt lat="45.275255" lon="6.770227">
        <ele>2396.254</ele>
        <time>2018-07-21T09:40:04Z</time>
      </trkpt>
      <trkpt lat="45.275195" lon="6.770196">
        <ele>2398.009</ele>
        <time>2018-07-21T09:40:07Z</time>
      </trkpt>
      <trkpt lat="45.275162" lon="6.770139">
        <ele>2396.408</ele>
        <time>2018-07-21T09:40:10Z</time>
      </trkpt>
      <trkpt lat="45.275107" lon="6.770098">
        <ele>2395.773</ele>
        <time>2018-07-21T09:40:15Z</time>
      </trkpt>
      <trkpt lat="45.275083" lon="6.770040">
        <ele>2395.828</ele>
        <time>2018-07-21T09:40:18Z</time>
      </trkpt>
      <trkpt lat="45.275049" lon="6.769993">
        <ele>2395.515</ele>
        <time>2018-07-21T09:40:21Z</time>
      </trkpt>
      <trkpt lat="45.275011" lon="6.769953">
        <ele>2396.050</ele>
        <time>2018-07-21T09:40:24Z</time>
      </trkpt>
      <trkpt lat="45.274970" lon="6.769910">
        <ele>2396.369</ele>
        <time>2018-07-21T09:40:42Z</time>
      </trkpt>
      <trkpt lat="45.274923" lon="6.769879">
        <ele>2396.721</ele>
        <time>2018-07-21T09:40:46Z</time>
      </trkpt>
      <trkpt lat="45.274887" lon="6.769820">
        <ele>2396.579</ele>
        <time>2018-07-21T09:40:49Z</time>
      </trkpt>
      <trkpt lat="45.274854" lon="6.769766">
        <ele>2396.575</ele>
        <time>2018-07-21T09:40:52Z</time>
      </trkpt>
      <trkpt lat="45.274818" lon="6.769712">
        <ele>2396.844</ele>
        <time>2018-07-21T09:40:56Z</time>
      </trkpt>
      <trkpt lat="45.274781" lon="6.769669">
        <ele>2396.105</ele>
        <time>2018-07-21T09:41:00Z</time>
      </trkpt>
      <trkpt lat="45.274743" lon="6.769622">
        <ele>2396.415</ele>
        <time>2018-07-21T09:41:04Z</time>
      </trkpt>
      <trkpt lat="45.274696" lon="6.769592">
        <ele>2395.508</ele>
        <time>2018-07-21T09:41:08Z</time>
      </trkpt>
      <trkpt lat="45.274642" lon="6.769587">
        <ele>2394.776</ele>
        <time>2018-07-21T09:41:13Z</time>
      </trkpt>
      <trkpt lat="45.274597" lon="6.769567">
        <ele>2393.871</ele>
        <time>2018-07-21T09:41:17Z</time>
      </trkpt>
      <trkpt lat="45.274547" lon="6.769549">
        <ele>2393.548</ele>
        <time>2018-07-21T09:41:21Z</time>
      </trkpt>
      <trkpt lat="45.274508" lon="6.769506">
        <ele>2393.383</ele>
        <time>2018-07-21T09:41:26Z</time>
      </trkpt>
      <trkpt lat="45.274473" lon="6.769456">
        <ele>2393.242</ele>
        <time>2018-07-21T09:41:30Z</time>
      </trkpt>
      <trkpt lat="45.274425" lon="6.769425">
        <ele>2393.444</ele>
        <time>2018-07-21T09:41:35Z</time>
      </trkpt>
      <trkpt lat="45.274389" lon="6.769382">
        <ele>2392.812</ele>
        <time>2018-07-21T09:41:40Z</time>
      </trkpt>
      <trkpt lat="45.274343" lon="6.769351">
        <ele>2392.578</ele>
        <time>2018-07-21T09:41:45Z</time>
      </trkpt>
      <trkpt lat="45.274294" lon="6.769327">
        <ele>2392.142</ele>
        <time>2018-07-21T09:41:48Z</time>
      </trkpt>
      <trkpt lat="45.274247" lon="6.769300">
        <ele>2391.622</ele>
        <time>2018-07-21T09:41:52Z</time>
      </trkpt>
      <trkpt lat="45.274205" lon="6.769272">
        <ele>2390.114</ele>
        <time>2018-07-21T09:41:58Z</time>
      </trkpt>
      <trkpt lat="45.274159" lon="6.769262">
        <ele>2389.208</ele>
        <time>2018-07-21T09:42:04Z</time>
      </trkpt>
      <trkpt lat="45.274110" lon="6.769233">
        <ele>2388.026</ele>
        <time>2018-07-21T09:42:12Z</time>
      </trkpt>
      <trkpt lat="45.274066" lon="6.769202">
        <ele>2386.511</ele>
        <time>2018-07-21T09:42:19Z</time>
      </trkpt>
      <trkpt lat="45.274029" lon="6.769251">
        <ele>2385.268</ele>
        <time>2018-07-21T09:42:26Z</time>
      </trkpt>
      <trkpt lat="45.273989" lon="6.769283">
        <ele>2383.653</ele>
        <time>2018-07-21T09:42:32Z</time>
      </trkpt>
      <trkpt lat="45.273951" lon="6.769331">
        <ele>2382.292</ele>
        <time>2018-07-21T09:42:44Z</time>
      </trkpt>
      <trkpt lat="45.273925" lon="6.769389">
        <ele>2379.814</ele>
        <time>2018-07-21T09:42:58Z</time>
      </trkpt>
      <trkpt lat="45.273893" lon="6.769446">
        <ele>2378.742</ele>
        <time>2018-07-21T09:43:08Z</time>
      </trkpt>
      <trkpt lat="45.273849" lon="6.769485">
        <ele>2376.128</ele>
        <time>2018-07-21T09:43:15Z</time>
      </trkpt>
      <trkpt lat="45.273803" lon="6.769496">
        <ele>2375.227</ele>
        <time>2018-07-21T09:43:20Z</time>
      </trkpt>
      <trkpt lat="45.273761" lon="6.769537">
        <ele>2374.568</ele>
        <time>2018-07-21T09:43:32Z</time>
      </trkpt>
      <trkpt lat="45.273719" lon="6.769581">
        <ele>2373.114</ele>
        <time>2018-07-21T09:43:40Z</time>
      </trkpt>
      <trkpt lat="45.273672" lon="6.769604">
        <ele>2374.908</ele>
        <time>2018-07-21T09:43:44Z</time>
      </trkpt>
      <trkpt lat="45.273627" lon="6.769637">
        <ele>2372.314</ele>
        <time>2018-07-21T09:43:48Z</time>
      </trkpt>
      <trkpt lat="45.273580" lon="6.769666">
        <ele>2372.679</ele>
        <time>2018-07-21T09:43:52Z</time>
      </trkpt>
      <trkpt lat="45.273531" lon="6.769699">
        <ele>2373.236</ele>
        <time>2018-07-21T09:43:56Z</time>
      </trkpt>
      <trkpt lat="45.273480" lon="6.769726">
        <ele>2372.291</ele>
        <time>2018-07-21T09:44:00Z</time>
      </trkpt>
      <trkpt lat="45.273435" lon="6.769763">
        <ele>2371.890</ele>
        <time>2018-07-21T09:44:04Z</time>
      </trkpt>
      <trkpt lat="45.273395" lon="6.769813">
        <ele>2371.752</ele>
        <time>2018-07-21T09:44:08Z</time>
      </trkpt>
      <trkpt lat="45.273357" lon="6.769863">
        <ele>2370.610</ele>
        <time>2018-07-21T09:44:12Z</time>
      </trkpt>
      <trkpt lat="45.273319" lon="6.769911">
        <ele>2370.146</ele>
        <time>2018-07-21T09:44:16Z</time>
      </trkpt>
      <trkpt lat="45.273276" lon="6.769934">
        <ele>2370.028</ele>
        <time>2018-07-21T09:44:19Z</time>
      </trkpt>
      <trkpt lat="45.273235" lon="6.769968">
        <ele>2369.889</ele>
        <time>2018-07-21T09:44:22Z</time>
      </trkpt>
      <trkpt lat="45.273193" lon="6.770013">
        <ele>2369.717</ele>
        <time>2018-07-21T09:44:26Z</time>
      </trkpt>
      <trkpt lat="45.273152" lon="6.770050">
        <ele>2369.108</ele>
        <time>2018-07-21T09:44:30Z</time>
      </trkpt>
      <trkpt lat="45.273109" lon="6.770080">
        <ele>2368.484</ele>
        <time>2018-07-21T09:44:34Z</time>
      </trkpt>
      <trkpt lat="45.273064" lon="6.770119">
        <ele>2368.449</ele>
        <time>2018-07-21T09:44:38Z</time>
      </trkpt>
      <trkpt lat="45.273015" lon="6.770161">
        <ele>2367.696</ele>
        <time>2018-07-21T09:44:43Z</time>
      </trkpt>
      <trkpt lat="45.272978" lon="6.770197">
        <ele>2367.311</ele>
        <time>2018-07-21T09:44:47Z</time>
      </trkpt>
      <trkpt lat="45.272928" lon="6.770241">
        <ele>2366.870</ele>
        <time>2018-07-21T09:44:52Z</time>
      </trkpt>
      <trkpt lat="45.272887" lon="6.770279">
        <ele>2366.452</ele>
        <time>2018-07-21T09:44:56Z</time>
      </trkpt>
      <trkpt lat="45.272843" lon="6.770309">
        <ele>2367.810</ele>
        <time>2018-07-21T09:45:01Z</time>
      </trkpt>
      <trkpt lat="45.272808" lon="6.770371">
        <ele>2365.126</ele>
        <time>2018-07-21T09:45:06Z</time>
      </trkpt>
      <trkpt lat="45.272790" lon="6.770430">
        <ele>2364.926</ele>
        <time>2018-07-21T09:45:10Z</time>
      </trkpt>
      <trkpt lat="45.272764" lon="6.770495">
        <ele>2364.447</ele>
        <time>2018-07-21T09:45:14Z</time>
      </trkpt>
      <trkpt lat="45.272726" lon="6.770555">
        <ele>2364.311</ele>
        <time>2018-07-21T09:45:18Z</time>
      </trkpt>
      <trkpt lat="45.272689" lon="6.770595">
        <ele>2363.808</ele>
        <time>2018-07-21T09:45:22Z</time>
      </trkpt>
      <trkpt lat="45.272652" lon="6.770640">
        <ele>2363.424</ele>
        <time>2018-07-21T09:45:26Z</time>
      </trkpt>
      <trkpt lat="45.272605" lon="6.770666">
        <ele>2363.129</ele>
        <time>2018-07-21T09:45:29Z</time>
      </trkpt>
      <trkpt lat="45.272551" lon="6.770679">
        <ele>2364.416</ele>
        <time>2018-07-21T09:45:32Z</time>
      </trkpt>
      <trkpt lat="45.272504" lon="6.770695">
        <ele>2362.931</ele>
        <time>2018-07-21T09:45:35Z</time>
      </trkpt>
      <trkpt lat="45.272455" lon="6.770728">
        <ele>2363.420</ele>
        <time>2018-07-21T09:45:38Z</time>
      </trkpt>
      <trkpt lat="45.272428" lon="6.770792">
        <ele>2362.042</ele>
        <time>2018-07-21T09:45:42Z</time>
      </trkpt>
      <trkpt lat="45.272387" lon="6.770849">
        <ele>2361.830</ele>
        <time>2018-07-21T09:45:46Z</time>
      </trkpt>
      <trkpt lat="45.272338" lon="6.770878">
        <ele>2361.396</ele>
        <time>2018-07-21T09:45:50Z</time>
      </trkpt>
      <trkpt lat="45.272295" lon="6.770914">
        <ele>2361.318</ele>
        <time>2018-07-21T09:45:55Z</time>
      </trkpt>
      <trkpt lat="45.272263" lon="6.770961">
        <ele>2361.298</ele>
        <time>2018-07-21T09:46:02Z</time>
      </trkpt>
      <trkpt lat="45.272261" lon="6.771040">
        <ele>2361.317</ele>
        <time>2018-07-21T09:46:10Z</time>
      </trkpt>
      <trkpt lat="45.272261" lon="6.771105">
        <ele>2361.908</ele>
        <time>2018-07-21T09:46:14Z</time>
      </trkpt>
      <trkpt lat="45.272263" lon="6.771172">
        <ele>2362.573</ele>
        <time>2018-07-21T09:46:20Z</time>
      </trkpt>
      <trkpt lat="45.272268" lon="6.771236">
        <ele>2362.428</ele>
        <time>2018-07-21T09:46:27Z</time>
      </trkpt>
      <trkpt lat="45.272266" lon="6.771304">
        <ele>2362.175</ele>
        <time>2018-07-21T09:46:32Z</time>
      </trkpt>
      <trkpt lat="45.272267" lon="6.771370">
        <ele>2362.260</ele>
        <time>2018-07-21T09:46:37Z</time>
      </trkpt>
      <trkpt lat="45.272250" lon="6.771445">
        <ele>2362.019</ele>
        <time>2018-07-21T09:46:46Z</time>
      </trkpt>
      <trkpt lat="45.272239" lon="6.771508">
        <ele>2361.331</ele>
        <time>2018-07-21T09:46:50Z</time>
      </trkpt>
      <trkpt lat="45.272210" lon="6.771573">
        <ele>2361.019</ele>
        <time>2018-07-21T09:46:55Z</time>
      </trkpt>
      <trkpt lat="45.272184" lon="6.771632">
        <ele>2360.345</ele>
        <time>2018-07-21T09:47:00Z</time>
      </trkpt>
      <trkpt lat="45.272194" lon="6.771696">
        <ele>2360.111</ele>
        <time>2018-07-21T09:47:06Z</time>
      </trkpt>
      <trkpt lat="45.272230" lon="6.771738">
        <ele>2359.621</ele>
        <time>2018-07-21T09:47:24Z</time>
      </trkpt>
      <trkpt lat="45.272189" lon="6.771778">
        <ele>2359.703</ele>
        <time>2018-07-21T09:47:33Z</time>
      </trkpt>
      <trkpt lat="45.272148" lon="6.771818">
        <ele>2359.008</ele>
        <time>2018-07-21T09:47:40Z</time>
      </trkpt>
      <trkpt lat="45.272105" lon="6.771838">
        <ele>2357.143</ele>
        <time>2018-07-21T09:47:46Z</time>
      </trkpt>
      <trkpt lat="45.272060" lon="6.771859">
        <ele>2356.268</ele>
        <time>2018-07-21T09:47:52Z</time>
      </trkpt>
      <trkpt lat="45.272016" lon="6.771887">
        <ele>2356.025</ele>
        <time>2018-07-21T09:47:59Z</time>
      </trkpt>
      <trkpt lat="45.271977" lon="6.771920">
        <ele>2355.210</ele>
        <time>2018-07-21T09:48:04Z</time>
      </trkpt>
      <trkpt lat="45.271939" lon="6.771974">
        <ele>2354.469</ele>
        <time>2018-07-21T09:48:11Z</time>
      </trkpt>
      <trkpt lat="45.271902" lon="6.772016">
        <ele>2353.551</ele>
        <time>2018-07-21T09:48:15Z</time>
      </trkpt>
      <trkpt lat="45.271866" lon="6.772060">
        <ele>2352.699</ele>
        <time>2018-07-21T09:48:20Z</time>
      </trkpt>
      <trkpt lat="45.271832" lon="6.772119">
        <ele>2351.885</ele>
        <time>2018-07-21T09:48:25Z</time>
      </trkpt>
      <trkpt lat="45.271813" lon="6.772179">
        <ele>2351.394</ele>
        <time>2018-07-21T09:48:29Z</time>
      </trkpt>
      <trkpt lat="45.271797" lon="6.772247">
        <ele>2350.457</ele>
        <time>2018-07-21T09:48:35Z</time>
      </trkpt>
      <trkpt lat="45.271772" lon="6.772303">
        <ele>2349.722</ele>
        <time>2018-07-21T09:48:39Z</time>
      </trkpt>
      <trkpt lat="45.271749" lon="6.772361">
        <ele>2349.208</ele>
        <time>2018-07-21T09:48:42Z</time>
      </trkpt>
      <trkpt lat="45.271721" lon="6.772418">
        <ele>2348.671</ele>
        <time>2018-07-21T09:48:46Z</time>
      </trkpt>
      <trkpt lat="45.271689" lon="6.772477">
        <ele>2348.846</ele>
        <time>2018-07-21T09:48:50Z</time>
      </trkpt>
      <trkpt lat="45.271657" lon="6.772533">
        <ele>2348.433</ele>
        <time>2018-07-21T09:48:54Z</time>
      </trkpt>
      <trkpt lat="45.271628" lon="6.772596">
        <ele>2348.278</ele>
        <time>2018-07-21T09:48:59Z</time>
      </trkpt>
      <trkpt lat="45.271590" lon="6.772653">
        <ele>2346.887</ele>
        <time>2018-07-21T09:49:04Z</time>
      </trkpt>
      <trkpt lat="45.271556" lon="6.772702">
        <ele>2347.049</ele>
        <time>2018-07-21T09:49:08Z</time>
      </trkpt>
      <trkpt lat="45.271524" lon="6.772769">
        <ele>2345.687</ele>
        <time>2018-07-21T09:49:13Z</time>
      </trkpt>
      <trkpt lat="45.271512" lon="6.772840">
        <ele>2344.783</ele>
        <time>2018-07-21T09:49:18Z</time>
      </trkpt>
      <trkpt lat="45.271508" lon="6.772910">
        <ele>2344.632</ele>
        <time>2018-07-21T09:49:22Z</time>
      </trkpt>
      <trkpt lat="45.271508" lon="6.772986">
        <ele>2344.692</ele>
        <time>2018-07-21T09:49:26Z</time>
      </trkpt>
      <trkpt lat="45.271499" lon="6.773055">
        <ele>2344.611</ele>
        <time>2018-07-21T09:49:30Z</time>
      </trkpt>
      <trkpt lat="45.271478" lon="6.773130">
        <ele>2344.308</ele>
        <time>2018-07-21T09:49:35Z</time>
      </trkpt>
      <trkpt lat="45.271463" lon="6.773210">
        <ele>2343.875</ele>
        <time>2018-07-21T09:49:39Z</time>
      </trkpt>
      <trkpt lat="45.271450" lon="6.773281">
        <ele>2344.360</ele>
        <time>2018-07-21T09:49:43Z</time>
      </trkpt>
      <trkpt lat="45.271441" lon="6.773350">
        <ele>2344.697</ele>
        <time>2018-07-21T09:49:47Z</time>
      </trkpt>
      <trkpt lat="45.271418" lon="6.773408">
        <ele>2345.522</ele>
        <time>2018-07-21T09:49:55Z</time>
      </trkpt>
      <trkpt lat="45.271416" lon="6.773488">
        <ele>2347.741</ele>
        <time>2018-07-21T09:49:59Z</time>
      </trkpt>
      <trkpt lat="45.271422" lon="6.773559">
        <ele>2346.423</ele>
        <time>2018-07-21T09:50:02Z</time>
      </trkpt>
      <trkpt lat="45.271421" lon="6.773632">
        <ele>2346.161</ele>
        <time>2018-07-21T09:50:05Z</time>
      </trkpt>
      <trkpt lat="45.271405" lon="6.773701">
        <ele>2346.797</ele>
        <time>2018-07-21T09:50:10Z</time>
      </trkpt>
      <trkpt lat="45.271396" lon="6.773770">
        <ele>2347.996</ele>
        <time>2018-07-21T09:50:15Z</time>
      </trkpt>
      <trkpt lat="45.271427" lon="6.773827">
        <ele>2348.431</ele>
        <time>2018-07-21T09:50:20Z</time>
      </trkpt>
      <trkpt lat="45.271453" lon="6.773885">
        <ele>2347.924</ele>
        <time>2018-07-21T09:50:23Z</time>
      </trkpt>
      <trkpt lat="45.271421" lon="6.773942">
        <ele>2349.208</ele>
        <time>2018-07-21T09:50:29Z</time>
      </trkpt>
      <trkpt lat="45.271391" lon="6.773996">
        <ele>2351.121</ele>
        <time>2018-07-21T09:50:55Z</time>
      </trkpt>
      <trkpt lat="45.271403" lon="6.774058">
        <ele>2351.696</ele>
        <time>2018-07-21T09:50:59Z</time>
      </trkpt>
      <trkpt lat="45.271412" lon="6.774121">
        <ele>2351.533</ele>
        <time>2018-07-21T09:51:03Z</time>
      </trkpt>
      <trkpt lat="45.271411" lon="6.774193">
        <ele>2351.478</ele>
        <time>2018-07-21T09:51:07Z</time>
      </trkpt>
      <trkpt lat="45.271400" lon="6.774264">
        <ele>2351.237</ele>
        <time>2018-07-21T09:51:12Z</time>
      </trkpt>
      <trkpt lat="45.271386" lon="6.774331">
        <ele>2352.389</ele>
        <time>2018-07-21T09:51:18Z</time>
      </trkpt>
      <trkpt lat="45.271366" lon="6.774402">
        <ele>2352.767</ele>
        <time>2018-07-21T09:51:24Z</time>
      </trkpt>
      <trkpt lat="45.271328" lon="6.774452">
        <ele>2353.853</ele>
        <time>2018-07-21T09:51:32Z</time>
      </trkpt>
      <trkpt lat="45.271309" lon="6.774510">
        <ele>2355.587</ele>
        <time>2018-07-21T09:51:45Z</time>
      </trkpt>
      <trkpt lat="45.271267" lon="6.774547">
        <ele>2356.942</ele>
        <time>2018-07-21T09:51:58Z</time>
      </trkpt>
      <trkpt lat="45.271256" lon="6.774614">
        <ele>2357.726</ele>
        <time>2018-07-21T09:52:08Z</time>
      </trkpt>
      <trkpt lat="45.271208" lon="6.774626">
        <ele>2357.808</ele>
        <time>2018-07-21T09:52:15Z</time>
      </trkpt>
      <trkpt lat="45.271182" lon="6.774694">
        <ele>2357.470</ele>
        <time>2018-07-21T09:52:22Z</time>
      </trkpt>
      <trkpt lat="45.271145" lon="6.774745">
        <ele>2356.795</ele>
        <time>2018-07-21T09:52:26Z</time>
      </trkpt>
      <trkpt lat="45.271111" lon="6.774802">
        <ele>2356.742</ele>
        <time>2018-07-21T09:52:30Z</time>
      </trkpt>
      <trkpt lat="45.271079" lon="6.774868">
        <ele>2356.697</ele>
        <time>2018-07-21T09:52:34Z</time>
      </trkpt>
      <trkpt lat="45.271056" lon="6.774928">
        <ele>2358.436</ele>
        <time>2018-07-21T09:52:38Z</time>
      </trkpt>
      <trkpt lat="45.271011" lon="6.774951">
        <ele>2356.598</ele>
        <time>2018-07-21T09:52:43Z</time>
      </trkpt>
      <trkpt lat="45.270975" lon="6.775012">
        <ele>2355.816</ele>
        <time>2018-07-21T09:52:48Z</time>
      </trkpt>
      <trkpt lat="45.270948" lon="6.775074">
        <ele>2355.942</ele>
        <time>2018-07-21T09:52:52Z</time>
      </trkpt>
      <trkpt lat="45.270916" lon="6.775133">
        <ele>2355.717</ele>
        <time>2018-07-21T09:52:56Z</time>
      </trkpt>
      <trkpt lat="45.270872" lon="6.775169">
        <ele>2356.087</ele>
        <time>2018-07-21T09:53:00Z</time>
      </trkpt>
      <trkpt lat="45.270840" lon="6.775216">
        <ele>2356.115</ele>
        <time>2018-07-21T09:53:04Z</time>
      </trkpt>
      <trkpt lat="45.270806" lon="6.775259">
        <ele>2358.008</ele>
        <time>2018-07-21T09:53:08Z</time>
      </trkpt>
      <trkpt lat="45.270768" lon="6.775301">
        <ele>2358.273</ele>
        <time>2018-07-21T09:53:13Z</time>
      </trkpt>
      <trkpt lat="45.270737" lon="6.775363">
        <ele>2356.438</ele>
        <time>2018-07-21T09:53:18Z</time>
      </trkpt>
      <trkpt lat="45.270736" lon="6.775427">
        <ele>2356.265</ele>
        <time>2018-07-21T09:53:20Z</time>
      </trkpt>
      <trkpt lat="45.270718" lon="6.775496">
        <ele>2356.460</ele>
        <time>2018-07-21T09:53:22Z</time>
      </trkpt>
      <trkpt lat="45.270685" lon="6.775545">
        <ele>2357.159</ele>
        <time>2018-07-21T09:53:26Z</time>
      </trkpt>
      <trkpt lat="45.270647" lon="6.775598">
        <ele>2357.281</ele>
        <time>2018-07-21T09:53:31Z</time>
      </trkpt>
      <trkpt lat="45.270611" lon="6.775637">
        <ele>2357.849</ele>
        <time>2018-07-21T09:53:37Z</time>
      </trkpt>
      <trkpt lat="45.270572" lon="6.775695">
        <ele>2357.695</ele>
        <time>2018-07-21T09:53:43Z</time>
      </trkpt>
      <trkpt lat="45.270539" lon="6.775740">
        <ele>2358.284</ele>
        <time>2018-07-21T09:53:48Z</time>
      </trkpt>
      <trkpt lat="45.270497" lon="6.775784">
        <ele>2358.307</ele>
        <time>2018-07-21T09:53:54Z</time>
      </trkpt>
      <trkpt lat="45.270469" lon="6.775848">
        <ele>2358.417</ele>
        <time>2018-07-21T09:53:58Z</time>
      </trkpt>
      <trkpt lat="45.270437" lon="6.775897">
        <ele>2358.408</ele>
        <time>2018-07-21T09:54:02Z</time>
      </trkpt>
      <trkpt lat="45.270398" lon="6.775933">
        <ele>2359.830</ele>
        <time>2018-07-21T09:54:05Z</time>
      </trkpt>
      <trkpt lat="45.270339" lon="6.775925">
        <ele>2359.145</ele>
        <time>2018-07-21T09:54:09Z</time>
      </trkpt>
      <trkpt lat="45.270293" lon="6.775919">
        <ele>2359.172</ele>
        <time>2018-07-21T09:54:12Z</time>
      </trkpt>
      <trkpt lat="45.270256" lon="6.775956">
        <ele>2360.877</ele>
        <time>2018-07-21T09:54:16Z</time>
      </trkpt>
      <trkpt lat="45.270209" lon="6.775983">
        <ele>2360.426</ele>
        <time>2018-07-21T09:54:23Z</time>
      </trkpt>
      <trkpt lat="45.270103" lon="6.775962">
        <ele>2358.338</ele>
        <time>2018-07-21T09:54:40Z</time>
      </trkpt>
      <trkpt lat="45.270030" lon="6.775970">
        <ele>2358.446</ele>
        <time>2018-07-21T09:54:41Z</time>
      </trkpt>
      <trkpt lat="45.269967" lon="6.776031">
        <ele>2356.832</ele>
        <time>2018-07-21T09:54:43Z</time>
      </trkpt>
      <trkpt lat="45.269919" lon="6.776058">
        <ele>2355.666</ele>
        <time>2018-07-21T09:54:51Z</time>
      </trkpt>
      <trkpt lat="45.269889" lon="6.776005">
        <ele>2355.729</ele>
        <time>2018-07-21T09:55:42Z</time>
      </trkpt>
      <trkpt lat="45.269847" lon="6.775951">
        <ele>2356.621</ele>
        <time>2018-07-21T09:55:50Z</time>
      </trkpt>
      <trkpt lat="45.269809" lon="6.775896">
        <ele>2356.208</ele>
        <time>2018-07-21T09:55:56Z</time>
      </trkpt>
      <trkpt lat="45.269776" lon="6.775851">
        <ele>2356.738</ele>
        <time>2018-07-21T09:56:00Z</time>
      </trkpt>
      <trkpt lat="45.269734" lon="6.775800">
        <ele>2356.383</ele>
        <time>2018-07-21T09:56:05Z</time>
      </trkpt>
      <trkpt lat="45.269695" lon="6.775763">
        <ele>2356.640</ele>
        <time>2018-07-21T09:56:09Z</time>
      </trkpt>
      <trkpt lat="45.269652" lon="6.775727">
        <ele>2356.825</ele>
        <time>2018-07-21T09:56:13Z</time>
      </trkpt>
      <trkpt lat="45.269606" lon="6.775700">
        <ele>2357.184</ele>
        <time>2018-07-21T09:56:17Z</time>
      </trkpt>
      <trkpt lat="45.269560" lon="6.775676">
        <ele>2357.146</ele>
        <time>2018-07-21T09:56:21Z</time>
      </trkpt>
      <trkpt lat="45.269516" lon="6.775652">
        <ele>2357.244</ele>
        <time>2018-07-21T09:56:25Z</time>
      </trkpt>
      <trkpt lat="45.269469" lon="6.775627">
        <ele>2358.030</ele>
        <time>2018-07-21T09:56:29Z</time>
      </trkpt>
      <trkpt lat="45.269419" lon="6.775603">
        <ele>2357.258</ele>
        <time>2018-07-21T09:56:33Z</time>
      </trkpt>
      <trkpt lat="45.269377" lon="6.775570">
        <ele>2357.752</ele>
        <time>2018-07-21T09:56:37Z</time>
      </trkpt>
      <trkpt lat="45.269328" lon="6.775542">
        <ele>2357.717</ele>
        <time>2018-07-21T09:56:41Z</time>
      </trkpt>
      <trkpt lat="45.269289" lon="6.775500">
        <ele>2357.908</ele>
        <time>2018-07-21T09:56:45Z</time>
      </trkpt>
      <trkpt lat="45.269250" lon="6.775465">
        <ele>2358.097</ele>
        <time>2018-07-21T09:56:49Z</time>
      </trkpt>
      <trkpt lat="45.269211" lon="6.775432">
        <ele>2358.122</ele>
        <time>2018-07-21T09:56:53Z</time>
      </trkpt>
      <trkpt lat="45.269166" lon="6.775401">
        <ele>2358.039</ele>
        <time>2018-07-21T09:56:57Z</time>
      </trkpt>
      <trkpt lat="45.269117" lon="6.775376">
        <ele>2358.444</ele>
        <time>2018-07-21T09:57:01Z</time>
      </trkpt>
      <trkpt lat="45.269067" lon="6.775359">
        <ele>2358.663</ele>
        <time>2018-07-21T09:57:05Z</time>
      </trkpt>
      <trkpt lat="45.269019" lon="6.775347">
        <ele>2358.515</ele>
        <time>2018-07-21T09:57:09Z</time>
      </trkpt>
      <trkpt lat="45.268974" lon="6.775333">
        <ele>2358.543</ele>
        <time>2018-07-21T09:57:13Z</time>
      </trkpt>
      <trkpt lat="45.268931" lon="6.775309">
        <ele>2358.489</ele>
        <time>2018-07-21T09:57:17Z</time>
      </trkpt>
      <trkpt lat="45.268886" lon="6.775286">
        <ele>2358.813</ele>
        <time>2018-07-21T09:57:21Z</time>
      </trkpt>
      <trkpt lat="45.268838" lon="6.775264">
        <ele>2359.143</ele>
        <time>2018-07-21T09:57:25Z</time>
      </trkpt>
      <trkpt lat="45.268797" lon="6.775232">
        <ele>2359.207</ele>
        <time>2018-07-21T09:57:29Z</time>
      </trkpt>
      <trkpt lat="45.268757" lon="6.775199">
        <ele>2359.708</ele>
        <time>2018-07-21T09:57:33Z</time>
      </trkpt>
      <trkpt lat="45.268711" lon="6.775157">
        <ele>2359.743</ele>
        <time>2018-07-21T09:57:38Z</time>
      </trkpt>
      <trkpt lat="45.268671" lon="6.775126">
        <ele>2359.918</ele>
        <time>2018-07-21T09:57:42Z</time>
      </trkpt>
      <trkpt lat="45.268629" lon="6.775101">
        <ele>2360.195</ele>
        <time>2018-07-21T09:57:46Z</time>
      </trkpt>
      <trkpt lat="45.268580" lon="6.775066">
        <ele>2361.150</ele>
        <time>2018-07-21T09:57:51Z</time>
      </trkpt>
      <trkpt lat="45.268544" lon="6.775027">
        <ele>2361.219</ele>
        <time>2018-07-21T09:57:55Z</time>
      </trkpt>
      <trkpt lat="45.268509" lon="6.774987">
        <ele>2361.631</ele>
        <time>2018-07-21T09:57:59Z</time>
      </trkpt>
      <trkpt lat="45.268469" lon="6.774944">
        <ele>2362.269</ele>
        <time>2018-07-21T09:58:04Z</time>
      </trkpt>
      <trkpt lat="45.268439" lon="6.774887">
        <ele>2361.995</ele>
        <time>2018-07-21T09:58:09Z</time>
      </trkpt>
      <trkpt lat="45.268416" lon="6.774823">
        <ele>2362.432</ele>
        <time>2018-07-21T09:58:15Z</time>
      </trkpt>
      <trkpt lat="45.268377" lon="6.774766">
        <ele>2362.492</ele>
        <time>2018-07-21T09:58:20Z</time>
      </trkpt>
      <trkpt lat="45.268341" lon="6.774720">
        <ele>2362.611</ele>
        <time>2018-07-21T09:58:24Z</time>
      </trkpt>
      <trkpt lat="45.268302" lon="6.774664">
        <ele>2363.108</ele>
        <time>2018-07-21T09:58:29Z</time>
      </trkpt>
      <trkpt lat="45.268266" lon="6.774620">
        <ele>2363.555</ele>
        <time>2018-07-21T09:58:33Z</time>
      </trkpt>
      <trkpt lat="45.268230" lon="6.774572">
        <ele>2363.830</ele>
        <time>2018-07-21T09:58:37Z</time>
      </trkpt>
      <trkpt lat="45.268197" lon="6.774508">
        <ele>2363.757</ele>
        <time>2018-07-21T09:58:41Z</time>
      </trkpt>
      <trkpt lat="45.268177" lon="6.774450">
        <ele>2363.772</ele>
        <time>2018-07-21T09:58:45Z</time>
      </trkpt>
      <trkpt lat="45.268154" lon="6.774391">
        <ele>2364.271</ele>
        <time>2018-07-21T09:58:49Z</time>
      </trkpt>
      <trkpt lat="45.268126" lon="6.774328">
        <ele>2364.333</ele>
        <time>2018-07-21T09:58:54Z</time>
      </trkpt>
      <trkpt lat="45.268114" lon="6.774258">
        <ele>2364.821</ele>
        <time>2018-07-21T09:58:59Z</time>
      </trkpt>
      <trkpt lat="45.268099" lon="6.774189">
        <ele>2366.097</ele>
        <time>2018-07-21T09:59:04Z</time>
      </trkpt>
      <trkpt lat="45.268073" lon="6.774132">
        <ele>2365.812</ele>
        <time>2018-07-21T09:59:09Z</time>
      </trkpt>
      <trkpt lat="45.268038" lon="6.774078">
        <ele>2365.832</ele>
        <time>2018-07-21T09:59:14Z</time>
      </trkpt>
      <trkpt lat="45.268002" lon="6.774027">
        <ele>2366.805</ele>
        <time>2018-07-21T09:59:19Z</time>
      </trkpt>
      <trkpt lat="45.267968" lon="6.773969">
        <ele>2367.208</ele>
        <time>2018-07-21T09:59:24Z</time>
      </trkpt>
      <trkpt lat="45.267939" lon="6.773916">
        <ele>2367.483</ele>
        <time>2018-07-21T09:59:28Z</time>
      </trkpt>
      <trkpt lat="45.267904" lon="6.773871">
        <ele>2367.918</ele>
        <time>2018-07-21T09:59:33Z</time>
      </trkpt>
      <trkpt lat="45.267882" lon="6.773809">
        <ele>2368.215</ele>
        <time>2018-07-21T09:59:38Z</time>
      </trkpt>
      <trkpt lat="45.267873" lon="6.773735">
        <ele>2368.590</ele>
        <time>2018-07-21T09:59:43Z</time>
      </trkpt>
      <trkpt lat="45.267851" lon="6.773662">
        <ele>2368.989</ele>
        <time>2018-07-21T09:59:48Z</time>
      </trkpt>
      <trkpt lat="45.267828" lon="6.773604">
        <ele>2369.371</ele>
        <time>2018-07-21T09:59:52Z</time>
      </trkpt>
      <trkpt lat="45.267804" lon="6.773548">
        <ele>2369.669</ele>
        <time>2018-07-21T09:59:56Z</time>
      </trkpt>
      <trkpt lat="45.267778" lon="6.773492">
        <ele>2372.375</ele>
        <time>2018-07-21T10:00:00Z</time>
      </trkpt>
      <trkpt lat="45.267749" lon="6.773438">
        <ele>2370.691</ele>
        <time>2018-07-21T10:00:06Z</time>
      </trkpt>
      <trkpt lat="45.267717" lon="6.773379">
        <ele>2371.081</ele>
        <time>2018-07-21T10:00:12Z</time>
      </trkpt>
      <trkpt lat="45.267688" lon="6.773321">
        <ele>2371.319</ele>
        <time>2018-07-21T10:00:17Z</time>
      </trkpt>
      <trkpt lat="45.267659" lon="6.773268">
        <ele>2371.908</ele>
        <time>2018-07-21T10:00:22Z</time>
      </trkpt>
      <trkpt lat="45.267632" lon="6.773207">
        <ele>2372.221</ele>
        <time>2018-07-21T10:00:27Z</time>
      </trkpt>
      <trkpt lat="45.267604" lon="6.773154">
        <ele>2373.266</ele>
        <time>2018-07-21T10:00:32Z</time>
      </trkpt>
      <trkpt lat="45.267572" lon="6.773099">
        <ele>2373.783</ele>
        <time>2018-07-21T10:00:37Z</time>
      </trkpt>
      <trkpt lat="45.267527" lon="6.773052">
        <ele>2374.488</ele>
        <time>2018-07-21T10:00:42Z</time>
      </trkpt>
      <trkpt lat="45.267491" lon="6.772998">
        <ele>2374.447</ele>
        <time>2018-07-21T10:00:47Z</time>
      </trkpt>
      <trkpt lat="45.267451" lon="6.772945">
        <ele>2374.619</ele>
        <time>2018-07-21T10:00:52Z</time>
      </trkpt>
      <trkpt lat="45.267422" lon="6.772892">
        <ele>2375.177</ele>
        <time>2018-07-21T10:00:57Z</time>
      </trkpt>
      <trkpt lat="45.267394" lon="6.772837">
        <ele>2376.013</ele>
        <time>2018-07-21T10:01:02Z</time>
      </trkpt>
      <trkpt lat="45.267367" lon="6.772777">
        <ele>2375.684</ele>
        <time>2018-07-21T10:01:07Z</time>
      </trkpt>
      <trkpt lat="45.267337" lon="6.772716">
        <ele>2375.707</ele>
        <time>2018-07-21T10:01:12Z</time>
      </trkpt>
      <trkpt lat="45.267314" lon="6.772656">
        <ele>2375.817</ele>
        <time>2018-07-21T10:01:17Z</time>
      </trkpt>
      <trkpt lat="45.267286" lon="6.772606">
        <ele>2376.208</ele>
        <time>2018-07-21T10:01:22Z</time>
      </trkpt>
      <trkpt lat="45.267257" lon="6.772553">
        <ele>2376.460</ele>
        <time>2018-07-21T10:01:26Z</time>
      </trkpt>
      <trkpt lat="45.267230" lon="6.772489">
        <ele>2376.585</ele>
        <time>2018-07-21T10:01:31Z</time>
      </trkpt>
      <trkpt lat="45.267189" lon="6.772434">
        <ele>2376.392</ele>
        <time>2018-07-21T10:01:36Z</time>
      </trkpt>
      <trkpt lat="45.267164" lon="6.772375">
        <ele>2376.617</ele>
        <time>2018-07-21T10:01:40Z</time>
      </trkpt>
      <trkpt lat="45.267140" lon="6.772315">
        <ele>2376.126</ele>
        <time>2018-07-21T10:01:44Z</time>
      </trkpt>
      <trkpt lat="45.267115" lon="6.772258">
        <ele>2376.168</ele>
        <time>2018-07-21T10:01:48Z</time>
      </trkpt>
      <trkpt lat="45.267099" lon="6.772195">
        <ele>2376.296</ele>
        <time>2018-07-21T10:01:52Z</time>
      </trkpt>
      <trkpt lat="45.267088" lon="6.772128">
        <ele>2376.592</ele>
        <time>2018-07-21T10:01:56Z</time>
      </trkpt>
      <trkpt lat="45.267086" lon="6.772064">
        <ele>2377.162</ele>
        <time>2018-07-21T10:02:00Z</time>
      </trkpt>
      <trkpt lat="45.267069" lon="6.771992">
        <ele>2376.883</ele>
        <time>2018-07-21T10:02:05Z</time>
      </trkpt>
      <trkpt lat="45.267046" lon="6.771931">
        <ele>2376.711</ele>
        <time>2018-07-21T10:02:09Z</time>
      </trkpt>
      <trkpt lat="45.267029" lon="6.771856">
        <ele>2376.508</ele>
        <time>2018-07-21T10:02:13Z</time>
      </trkpt>
      <trkpt lat="45.267006" lon="6.771785">
        <ele>2376.938</ele>
        <time>2018-07-21T10:02:17Z</time>
      </trkpt>
      <trkpt lat="45.266982" lon="6.771720">
        <ele>2377.293</ele>
        <time>2018-07-21T10:02:21Z</time>
      </trkpt>
      <trkpt lat="45.266953" lon="6.771654">
        <ele>2377.430</ele>
        <time>2018-07-21T10:02:26Z</time>
      </trkpt>
      <trkpt lat="45.266926" lon="6.771587">
        <ele>2377.015</ele>
        <time>2018-07-21T10:02:31Z</time>
      </trkpt>
      <trkpt lat="45.266910" lon="6.771525">
        <ele>2377.414</ele>
        <time>2018-07-21T10:02:35Z</time>
      </trkpt>
      <trkpt lat="45.266895" lon="6.771454">
        <ele>2378.246</ele>
        <time>2018-07-21T10:02:40Z</time>
      </trkpt>
      <trkpt lat="45.266889" lon="6.771377">
        <ele>2378.324</ele>
        <time>2018-07-21T10:02:45Z</time>
      </trkpt>
      <trkpt lat="45.266876" lon="6.771312">
        <ele>2378.570</ele>
        <time>2018-07-21T10:02:49Z</time>
      </trkpt>
      <trkpt lat="45.266854" lon="6.771250">
        <ele>2378.285</ele>
        <time>2018-07-21T10:02:53Z</time>
      </trkpt>
      <trkpt lat="45.266832" lon="6.771187">
        <ele>2378.689</ele>
        <time>2018-07-21T10:02:57Z</time>
      </trkpt>
      <trkpt lat="45.266810" lon="6.771130">
        <ele>2378.817</ele>
        <time>2018-07-21T10:03:02Z</time>
      </trkpt>
      <trkpt lat="45.266779" lon="6.771073">
        <ele>2378.908</ele>
        <time>2018-07-21T10:03:06Z</time>
      </trkpt>
      <trkpt lat="45.266759" lon="6.771012">
        <ele>2378.940</ele>
        <time>2018-07-21T10:03:10Z</time>
      </trkpt>
      <trkpt lat="45.266745" lon="6.770942">
        <ele>2379.245</ele>
        <time>2018-07-21T10:03:14Z</time>
      </trkpt>
      <trkpt lat="45.266726" lon="6.770873">
        <ele>2379.542</ele>
        <time>2018-07-21T10:03:18Z</time>
      </trkpt>
      <trkpt lat="45.266721" lon="6.770793">
        <ele>2379.837</ele>
        <time>2018-07-21T10:03:22Z</time>
      </trkpt>
      <trkpt lat="45.266727" lon="6.770729">
        <ele>2379.966</ele>
        <time>2018-07-21T10:03:26Z</time>
      </trkpt>
      <trkpt lat="45.266729" lon="6.770656">
        <ele>2380.458</ele>
        <time>2018-07-21T10:03:31Z</time>
      </trkpt>
      <trkpt lat="45.266741" lon="6.770584">
        <ele>2380.956</ele>
        <time>2018-07-21T10:03:36Z</time>
      </trkpt>
      <trkpt lat="45.266737" lon="6.770517">
        <ele>2380.522</ele>
        <time>2018-07-21T10:03:41Z</time>
      </trkpt>
      <trkpt lat="45.266707" lon="6.770446">
        <ele>2381.392</ele>
        <time>2018-07-21T10:03:46Z</time>
      </trkpt>
      <trkpt lat="45.266668" lon="6.770398">
        <ele>2381.473</ele>
        <time>2018-07-21T10:03:50Z</time>
      </trkpt>
      <trkpt lat="45.266635" lon="6.770350">
        <ele>2381.520</ele>
        <time>2018-07-21T10:03:54Z</time>
      </trkpt>
      <trkpt lat="45.266609" lon="6.770296">
        <ele>2381.608</ele>
        <time>2018-07-21T10:03:58Z</time>
      </trkpt>
      <trkpt lat="45.266565" lon="6.770248">
        <ele>2383.471</ele>
        <time>2018-07-21T10:04:03Z</time>
      </trkpt>
      <trkpt lat="45.266526" lon="6.770209">
        <ele>2383.786</ele>
        <time>2018-07-21T10:04:07Z</time>
      </trkpt>
      <trkpt lat="45.266485" lon="6.770162">
        <ele>2383.353</ele>
        <time>2018-07-21T10:04:12Z</time>
      </trkpt>
      <trkpt lat="45.266452" lon="6.770101">
        <ele>2383.648</ele>
        <time>2018-07-21T10:04:16Z</time>
      </trkpt>
      <trkpt lat="45.266419" lon="6.770043">
        <ele>2382.617</ele>
        <time>2018-07-21T10:04:20Z</time>
      </trkpt>
      <trkpt lat="45.266386" lon="6.769990">
        <ele>2382.819</ele>
        <time>2018-07-21T10:04:24Z</time>
      </trkpt>
      <trkpt lat="45.266352" lon="6.769932">
        <ele>2382.957</ele>
        <time>2018-07-21T10:04:28Z</time>
      </trkpt>
      <trkpt lat="45.266324" lon="6.769880">
        <ele>2383.183</ele>
        <time>2018-07-21T10:04:32Z</time>
      </trkpt>
      <trkpt lat="45.266303" lon="6.769820">
        <ele>2385.058</ele>
        <time>2018-07-21T10:04:36Z</time>
      </trkpt>
      <trkpt lat="45.266292" lon="6.769757">
        <ele>2385.152</ele>
        <time>2018-07-21T10:04:41Z</time>
      </trkpt>
      <trkpt lat="45.266268" lon="6.769703">
        <ele>2385.617</ele>
        <time>2018-07-21T10:04:45Z</time>
      </trkpt>
      <trkpt lat="45.266238" lon="6.769637">
        <ele>2385.408</ele>
        <time>2018-07-21T10:04:49Z</time>
      </trkpt>
      <trkpt lat="45.266217" lon="6.769569">
        <ele>2384.137</ele>
        <time>2018-07-21T10:04:53Z</time>
      </trkpt>
      <trkpt lat="45.266205" lon="6.769501">
        <ele>2384.482</ele>
        <time>2018-07-21T10:04:57Z</time>
      </trkpt>
      <trkpt lat="45.266194" lon="6.769433">
        <ele>2387.459</ele>
        <time>2018-07-21T10:05:02Z</time>
      </trkpt>
      <trkpt lat="45.266177" lon="6.769372">
        <ele>2384.874</ele>
        <time>2018-07-21T10:05:06Z</time>
      </trkpt>
      <trkpt lat="45.266150" lon="6.769306">
        <ele>2387.343</ele>
        <time>2018-07-21T10:05:11Z</time>
      </trkpt>
      <trkpt lat="45.266119" lon="6.769254">
        <ele>2386.835</ele>
        <time>2018-07-21T10:05:16Z</time>
      </trkpt>
      <trkpt lat="45.266081" lon="6.769214">
        <ele>2387.123</ele>
        <time>2018-07-21T10:05:19Z</time>
      </trkpt>
      <trkpt lat="45.266040" lon="6.769168">
        <ele>2386.069</ele>
        <time>2018-07-21T10:05:23Z</time>
      </trkpt>
      <trkpt lat="45.266012" lon="6.769115">
        <ele>2386.096</ele>
        <time>2018-07-21T10:05:27Z</time>
      </trkpt>
      <trkpt lat="45.265991" lon="6.769050">
        <ele>2386.331</ele>
        <time>2018-07-21T10:05:31Z</time>
      </trkpt>
      <trkpt lat="45.265977" lon="6.768989">
        <ele>2388.124</ele>
        <time>2018-07-21T10:05:35Z</time>
      </trkpt>
      <trkpt lat="45.265951" lon="6.768934">
        <ele>2388.608</ele>
        <time>2018-07-21T10:05:39Z</time>
      </trkpt>
      <trkpt lat="45.265940" lon="6.768869">
        <ele>2387.511</ele>
        <time>2018-07-21T10:05:45Z</time>
      </trkpt>
      <trkpt lat="45.265917" lon="6.768812">
        <ele>2387.566</ele>
        <time>2018-07-21T10:05:50Z</time>
      </trkpt>
      <trkpt lat="45.265890" lon="6.768756">
        <ele>2387.373</ele>
        <time>2018-07-21T10:05:55Z</time>
      </trkpt>
      <trkpt lat="45.265866" lon="6.768695">
        <ele>2387.558</ele>
        <time>2018-07-21T10:05:59Z</time>
      </trkpt>
      <trkpt lat="45.265843" lon="6.768637">
        <ele>2387.567</ele>
        <time>2018-07-21T10:06:03Z</time>
      </trkpt>
      <trkpt lat="45.265809" lon="6.768576">
        <ele>2387.889</ele>
        <time>2018-07-21T10:06:08Z</time>
      </trkpt>
      <trkpt lat="45.265771" lon="6.768530">
        <ele>2387.957</ele>
        <time>2018-07-21T10:06:14Z</time>
      </trkpt>
      <trkpt lat="45.265721" lon="6.768496">
        <ele>2387.783</ele>
        <time>2018-07-21T10:06:19Z</time>
      </trkpt>
      <trkpt lat="45.265675" lon="6.768464">
        <ele>2387.816</ele>
        <time>2018-07-21T10:06:23Z</time>
      </trkpt>
      <trkpt lat="45.265626" lon="6.768424">
        <ele>2387.676</ele>
        <time>2018-07-21T10:06:27Z</time>
      </trkpt>
      <trkpt lat="45.265580" lon="6.768386">
        <ele>2388.013</ele>
        <time>2018-07-21T10:06:31Z</time>
      </trkpt>
      <trkpt lat="45.265537" lon="6.768356">
        <ele>2388.008</ele>
        <time>2018-07-21T10:06:35Z</time>
      </trkpt>
      <trkpt lat="45.265488" lon="6.768316">
        <ele>2387.833</ele>
        <time>2018-07-21T10:06:40Z</time>
      </trkpt>
      <trkpt lat="45.265443" lon="6.768282">
        <ele>2387.598</ele>
        <time>2018-07-21T10:06:44Z</time>
      </trkpt>
      <trkpt lat="45.265392" lon="6.768256">
        <ele>2387.715</ele>
        <time>2018-07-21T10:06:48Z</time>
      </trkpt>
      <trkpt lat="45.265349" lon="6.768220">
        <ele>2387.520</ele>
        <time>2018-07-21T10:06:52Z</time>
      </trkpt>
      <trkpt lat="45.265307" lon="6.768192">
        <ele>2387.839</ele>
        <time>2018-07-21T10:06:56Z</time>
      </trkpt>
      <trkpt lat="45.265264" lon="6.768156">
        <ele>2387.691</ele>
        <time>2018-07-21T10:07:00Z</time>
      </trkpt>
      <trkpt lat="45.265222" lon="6.768122">
        <ele>2388.299</ele>
        <time>2018-07-21T10:07:04Z</time>
      </trkpt>
      <trkpt lat="45.265198" lon="6.768056">
        <ele>2390.325</ele>
        <time>2018-07-21T10:07:09Z</time>
      </trkpt>
      <trkpt lat="45.265184" lon="6.767986">
        <ele>2389.377</ele>
        <time>2018-07-21T10:07:13Z</time>
      </trkpt>
      <trkpt lat="45.265161" lon="6.767922">
        <ele>2388.561</ele>
        <time>2018-07-21T10:07:18Z</time>
      </trkpt>
      <trkpt lat="45.265126" lon="6.767869">
        <ele>2387.827</ele>
        <time>2018-07-21T10:07:22Z</time>
      </trkpt>
      <trkpt lat="45.265086" lon="6.767830">
        <ele>2387.408</ele>
        <time>2018-07-21T10:07:26Z</time>
      </trkpt>
      <trkpt lat="45.265040" lon="6.767788">
        <ele>2387.589</ele>
        <time>2018-07-21T10:07:31Z</time>
      </trkpt>
      <trkpt lat="45.264992" lon="6.767746">
        <ele>2387.594</ele>
        <time>2018-07-21T10:07:36Z</time>
      </trkpt>
      <trkpt lat="45.264946" lon="6.767715">
        <ele>2387.651</ele>
        <time>2018-07-21T10:07:41Z</time>
      </trkpt>
      <trkpt lat="45.264902" lon="6.767685">
        <ele>2388.146</ele>
        <time>2018-07-21T10:07:46Z</time>
      </trkpt>
      <trkpt lat="45.264869" lon="6.767634">
        <ele>2388.125</ele>
        <time>2018-07-21T10:07:51Z</time>
      </trkpt>
      <trkpt lat="45.264842" lon="6.767581">
        <ele>2388.617</ele>
        <time>2018-07-21T10:07:56Z</time>
      </trkpt>
      <trkpt lat="45.264813" lon="6.767530">
        <ele>2389.255</ele>
        <time>2018-07-21T10:08:03Z</time>
      </trkpt>
      <trkpt lat="45.264787" lon="6.767467">
        <ele>2389.411</ele>
        <time>2018-07-21T10:08:09Z</time>
      </trkpt>
      <trkpt lat="45.264771" lon="6.767406">
        <ele>2390.056</ele>
        <time>2018-07-21T10:08:14Z</time>
      </trkpt>
      <trkpt lat="45.264760" lon="6.767338">
        <ele>2391.059</ele>
        <time>2018-07-21T10:08:20Z</time>
      </trkpt>
      <trkpt lat="45.264741" lon="6.767277">
        <ele>2391.014</ele>
        <time>2018-07-21T10:08:26Z</time>
      </trkpt>
      <trkpt lat="45.264711" lon="6.767220">
        <ele>2391.508</ele>
        <time>2018-07-21T10:08:32Z</time>
      </trkpt>
      <trkpt lat="45.264677" lon="6.767177">
        <ele>2391.957</ele>
        <time>2018-07-21T10:08:37Z</time>
      </trkpt>
      <trkpt lat="45.264637" lon="6.767143">
        <ele>2392.532</ele>
        <time>2018-07-21T10:08:43Z</time>
      </trkpt>
      <trkpt lat="45.264594" lon="6.767105">
        <ele>2393.279</ele>
        <time>2018-07-21T10:08:50Z</time>
      </trkpt>
      <trkpt lat="45.264557" lon="6.767053">
        <ele>2393.324</ele>
        <time>2018-07-21T10:08:56Z</time>
      </trkpt>
      <trkpt lat="45.264512" lon="6.767027">
        <ele>2393.743</ele>
        <time>2018-07-21T10:09:02Z</time>
      </trkpt>
      <trkpt lat="45.264468" lon="6.766996">
        <ele>2394.465</ele>
        <time>2018-07-21T10:09:08Z</time>
      </trkpt>
      <trkpt lat="45.264424" lon="6.766974">
        <ele>2394.863</ele>
        <time>2018-07-21T10:09:13Z</time>
      </trkpt>
      <trkpt lat="45.264380" lon="6.766956">
        <ele>2395.429</ele>
        <time>2018-07-21T10:09:19Z</time>
      </trkpt>
      <trkpt lat="45.264334" lon="6.766938">
        <ele>2395.535</ele>
        <time>2018-07-21T10:09:24Z</time>
      </trkpt>
      <trkpt lat="45.264291" lon="6.766919">
        <ele>2395.686</ele>
        <time>2018-07-21T10:09:29Z</time>
      </trkpt>
      <trkpt lat="45.264242" lon="6.766890">
        <ele>2396.614</ele>
        <time>2018-07-21T10:09:35Z</time>
      </trkpt>
      <trkpt lat="45.264197" lon="6.766860">
        <ele>2397.108</ele>
        <time>2018-07-21T10:09:42Z</time>
      </trkpt>
      <trkpt lat="45.264150" lon="6.766841">
        <ele>2397.735</ele>
        <time>2018-07-21T10:09:48Z</time>
      </trkpt>
      <trkpt lat="45.264103" lon="6.766821">
        <ele>2398.150</ele>
        <time>2018-07-21T10:09:54Z</time>
      </trkpt>
      <trkpt lat="45.264057" lon="6.766810">
        <ele>2401.097</ele>
        <time>2018-07-21T10:10:00Z</time>
      </trkpt>
      <trkpt lat="45.264012" lon="6.766795">
        <ele>2399.092</ele>
        <time>2018-07-21T10:10:06Z</time>
      </trkpt>
      <trkpt lat="45.263962" lon="6.766766">
        <ele>2399.891</ele>
        <time>2018-07-21T10:10:15Z</time>
      </trkpt>
      <trkpt lat="45.263914" lon="6.766754">
        <ele>2400.583</ele>
        <time>2018-07-21T10:10:20Z</time>
      </trkpt>
      <trkpt lat="45.263868" lon="6.766740">
        <ele>2400.651</ele>
        <time>2018-07-21T10:10:25Z</time>
      </trkpt>
      <trkpt lat="45.263819" lon="6.766717">
        <ele>2401.317</ele>
        <time>2018-07-21T10:10:31Z</time>
      </trkpt>
      <trkpt lat="45.263773" lon="6.766709">
        <ele>2402.065</ele>
        <time>2018-07-21T10:10:36Z</time>
      </trkpt>
      <trkpt lat="45.263723" lon="6.766711">
        <ele>2403.268</ele>
        <time>2018-07-21T10:10:41Z</time>
      </trkpt>
      <trkpt lat="45.263677" lon="6.766716">
        <ele>2402.914</ele>
        <time>2018-07-21T10:10:46Z</time>
      </trkpt>
      <trkpt lat="45.263628" lon="6.766728">
        <ele>2403.708</ele>
        <time>2018-07-21T10:10:52Z</time>
      </trkpt>
      <trkpt lat="45.263584" lon="6.766750">
        <ele>2403.868</ele>
        <time>2018-07-21T10:11:00Z</time>
      </trkpt>
      <trkpt lat="45.263539" lon="6.766740">
        <ele>2404.293</ele>
        <time>2018-07-21T10:11:06Z</time>
      </trkpt>
      <trkpt lat="45.263491" lon="6.766715">
        <ele>2404.950</ele>
        <time>2018-07-21T10:11:12Z</time>
      </trkpt>
      <trkpt lat="45.263447" lon="6.766665">
        <ele>2405.285</ele>
        <time>2018-07-21T10:11:17Z</time>
      </trkpt>
      <trkpt lat="45.263413" lon="6.766616">
        <ele>2404.844</ele>
        <time>2018-07-21T10:11:21Z</time>
      </trkpt>
      <trkpt lat="45.263392" lon="6.766558">
        <ele>2404.766</ele>
        <time>2018-07-21T10:11:25Z</time>
      </trkpt>
      <trkpt lat="45.263382" lon="6.766492">
        <ele>2405.014</ele>
        <time>2018-07-21T10:11:30Z</time>
      </trkpt>
      <trkpt lat="45.263376" lon="6.766420">
        <ele>2405.620</ele>
        <time>2018-07-21T10:11:35Z</time>
      </trkpt>
      <trkpt lat="45.263384" lon="6.766348">
        <ele>2406.039</ele>
        <time>2018-07-21T10:11:40Z</time>
      </trkpt>
      <trkpt lat="45.263397" lon="6.766285">
        <ele>2406.301</ele>
        <time>2018-07-21T10:11:44Z</time>
      </trkpt>
      <trkpt lat="45.263415" lon="6.766223">
        <ele>2406.421</ele>
        <time>2018-07-21T10:11:48Z</time>
      </trkpt>
      <trkpt lat="45.263441" lon="6.766163">
        <ele>2406.808</ele>
        <time>2018-07-21T10:11:53Z</time>
      </trkpt>
      <trkpt lat="45.263472" lon="6.766102">
        <ele>2407.295</ele>
        <time>2018-07-21T10:11:58Z</time>
      </trkpt>
      <trkpt lat="45.263483" lon="6.766030">
        <ele>2407.710</ele>
        <time>2018-07-21T10:12:02Z</time>
      </trkpt>
      <trkpt lat="45.263515" lon="6.765979">
        <ele>2407.977</ele>
        <time>2018-07-21T10:12:07Z</time>
      </trkpt>
      <trkpt lat="45.263561" lon="6.765951">
        <ele>2408.512</ele>
        <time>2018-07-21T10:12:12Z</time>
      </trkpt>
      <trkpt lat="45.263610" lon="6.765930">
        <ele>2408.541</ele>
        <time>2018-07-21T10:12:17Z</time>
      </trkpt>
      <trkpt lat="45.263651" lon="6.765889">
        <ele>2409.693</ele>
        <time>2018-07-21T10:12:22Z</time>
      </trkpt>
      <trkpt lat="45.263690" lon="6.765840">
        <ele>2410.171</ele>
        <time>2018-07-21T10:12:28Z</time>
      </trkpt>
      <trkpt lat="45.263727" lon="6.765785">
        <ele>2410.647</ele>
        <time>2018-07-21T10:12:35Z</time>
      </trkpt>
      <trkpt lat="45.263763" lon="6.765733">
        <ele>2411.526</ele>
        <time>2018-07-21T10:12:41Z</time>
      </trkpt>
      <trkpt lat="45.263791" lon="6.765681">
        <ele>2411.647</ele>
        <time>2018-07-21T10:12:46Z</time>
      </trkpt>
      <trkpt lat="45.263813" lon="6.765620">
        <ele>2412.011</ele>
        <time>2018-07-21T10:12:50Z</time>
      </trkpt>
      <trkpt lat="45.263838" lon="6.765554">
        <ele>2412.508</ele>
        <time>2018-07-21T10:12:55Z</time>
      </trkpt>
      <trkpt lat="45.263866" lon="6.765501">
        <ele>2413.164</ele>
        <time>2018-07-21T10:13:00Z</time>
      </trkpt>
      <trkpt lat="45.263884" lon="6.765431">
        <ele>2413.719</ele>
        <time>2018-07-21T10:13:06Z</time>
      </trkpt>
      <trkpt lat="45.263894" lon="6.765358">
        <ele>2414.016</ele>
        <time>2018-07-21T10:13:11Z</time>
      </trkpt>
      <trkpt lat="45.263905" lon="6.765291">
        <ele>2415.281</ele>
        <time>2018-07-21T10:13:15Z</time>
      </trkpt>
      <trkpt lat="45.263933" lon="6.765238">
        <ele>2415.190</ele>
        <time>2018-07-21T10:13:21Z</time>
      </trkpt>
      <trkpt lat="45.263953" lon="6.765172">
        <ele>2416.832</ele>
        <time>2018-07-21T10:13:26Z</time>
      </trkpt>
      <trkpt lat="45.263969" lon="6.765104">
        <ele>2418.160</ele>
        <time>2018-07-21T10:13:31Z</time>
      </trkpt>
      <trkpt lat="45.263976" lon="6.765038">
        <ele>2418.746</ele>
        <time>2018-07-21T10:13:36Z</time>
      </trkpt>
      <trkpt lat="45.263985" lon="6.764962">
        <ele>2419.337</ele>
        <time>2018-07-21T10:13:41Z</time>
      </trkpt>
      <trkpt lat="45.264013" lon="6.764897">
        <ele>2417.849</ele>
        <time>2018-07-21T10:13:48Z</time>
      </trkpt>
      <trkpt lat="45.264015" lon="6.764830">
        <ele>2418.213</ele>
        <time>2018-07-21T10:13:53Z</time>
      </trkpt>
      <trkpt lat="45.264017" lon="6.764756">
        <ele>2419.208</ele>
        <time>2018-07-21T10:13:58Z</time>
      </trkpt>
      <trkpt lat="45.264020" lon="6.764691">
        <ele>2419.335</ele>
        <time>2018-07-21T10:14:03Z</time>
      </trkpt>
      <trkpt lat="45.264029" lon="6.764627">
        <ele>2422.090</ele>
        <time>2018-07-21T10:14:10Z</time>
      </trkpt>
      <trkpt lat="45.264027" lon="6.764559">
        <ele>2422.057</ele>
        <time>2018-07-21T10:14:15Z</time>
      </trkpt>
      <trkpt lat="45.264038" lon="6.764490">
        <ele>2421.062</ele>
        <time>2018-07-21T10:14:20Z</time>
      </trkpt>
      <trkpt lat="45.264038" lon="6.764425">
        <ele>2421.241</ele>
        <time>2018-07-21T10:14:25Z</time>
      </trkpt>
      <trkpt lat="45.264056" lon="6.764352">
        <ele>2423.963</ele>
        <time>2018-07-21T10:14:34Z</time>
      </trkpt>
      <trkpt lat="45.264061" lon="6.764284">
        <ele>2422.371</ele>
        <time>2018-07-21T10:14:38Z</time>
      </trkpt>
      <trkpt lat="45.264076" lon="6.764222">
        <ele>2424.297</ele>
        <time>2018-07-21T10:14:42Z</time>
      </trkpt>
      <trkpt lat="45.264073" lon="6.764154">
        <ele>2423.996</ele>
        <time>2018-07-21T10:14:46Z</time>
      </trkpt>
      <trkpt lat="45.264077" lon="6.764084">
        <ele>2423.831</ele>
        <time>2018-07-21T10:14:53Z</time>
      </trkpt>
      <trkpt lat="45.264081" lon="6.764011">
        <ele>2426.224</ele>
        <time>2018-07-21T10:15:01Z</time>
      </trkpt>
      <trkpt lat="45.264085" lon="6.763943">
        <ele>2426.008</ele>
        <time>2018-07-21T10:15:08Z</time>
      </trkpt>
      <trkpt lat="45.264084" lon="6.763874">
        <ele>2425.661</ele>
        <time>2018-07-21T10:15:14Z</time>
      </trkpt>
      <trkpt lat="45.264082" lon="6.763799">
        <ele>2425.586</ele>
        <time>2018-07-21T10:15:21Z</time>
      </trkpt>
      <trkpt lat="45.264088" lon="6.763730">
        <ele>2426.083</ele>
        <time>2018-07-21T10:15:27Z</time>
      </trkpt>
      <trkpt lat="45.264105" lon="6.763668">
        <ele>2426.678</ele>
        <time>2018-07-21T10:15:32Z</time>
      </trkpt>
      <trkpt lat="45.264123" lon="6.763598">
        <ele>2426.947</ele>
        <time>2018-07-21T10:15:38Z</time>
      </trkpt>
      <trkpt lat="45.264134" lon="6.763523">
        <ele>2427.359</ele>
        <time>2018-07-21T10:15:43Z</time>
      </trkpt>
      <trkpt lat="45.264149" lon="6.763460">
        <ele>2428.227</ele>
        <time>2018-07-21T10:15:50Z</time>
      </trkpt>
      <trkpt lat="45.264165" lon="6.763393">
        <ele>2428.823</ele>
        <time>2018-07-21T10:15:56Z</time>
      </trkpt>
      <trkpt lat="45.264177" lon="6.763321">
        <ele>2429.331</ele>
        <time>2018-07-21T10:16:02Z</time>
      </trkpt>
      <trkpt lat="45.264180" lon="6.763247">
        <ele>2429.661</ele>
        <time>2018-07-21T10:16:07Z</time>
      </trkpt>
      <trkpt lat="45.264185" lon="6.763175">
        <ele>2430.107</ele>
        <time>2018-07-21T10:16:14Z</time>
      </trkpt>
      <trkpt lat="45.264192" lon="6.763098">
        <ele>2431.008</ele>
        <time>2018-07-21T10:16:20Z</time>
      </trkpt>
      <trkpt lat="45.264201" lon="6.763026">
        <ele>2431.285</ele>
        <time>2018-07-21T10:16:25Z</time>
      </trkpt>
      <trkpt lat="45.264203" lon="6.762956">
        <ele>2434.420</ele>
        <time>2018-07-21T10:16:31Z</time>
      </trkpt>
      <trkpt lat="45.264205" lon="6.762889">
        <ele>2433.247</ele>
        <time>2018-07-21T10:16:35Z</time>
      </trkpt>
      <trkpt lat="45.264211" lon="6.762824">
        <ele>2433.722</ele>
        <time>2018-07-21T10:16:39Z</time>
      </trkpt>
      <trkpt lat="45.264229" lon="6.762764">
        <ele>2433.471</ele>
        <time>2018-07-21T10:16:43Z</time>
      </trkpt>
      <trkpt lat="45.264250" lon="6.762696">
        <ele>2433.793</ele>
        <time>2018-07-21T10:16:48Z</time>
      </trkpt>
      <trkpt lat="45.264280" lon="6.762636">
        <ele>2434.471</ele>
        <time>2018-07-21T10:16:54Z</time>
      </trkpt>
      <trkpt lat="45.264312" lon="6.762575">
        <ele>2435.177</ele>
        <time>2018-07-21T10:17:00Z</time>
      </trkpt>
      <trkpt lat="45.264333" lon="6.762508">
        <ele>2435.439</ele>
        <time>2018-07-21T10:17:05Z</time>
      </trkpt>
      <trkpt lat="45.264347" lon="6.762445">
        <ele>2436.601</ele>
        <time>2018-07-21T10:17:10Z</time>
      </trkpt>
      <trkpt lat="45.264365" lon="6.762379">
        <ele>2437.021</ele>
        <time>2018-07-21T10:17:17Z</time>
      </trkpt>
      <trkpt lat="45.264377" lon="6.762307">
        <ele>2437.108</ele>
        <time>2018-07-21T10:17:23Z</time>
      </trkpt>
      <trkpt lat="45.264382" lon="6.762240">
        <ele>2437.725</ele>
        <time>2018-07-21T10:17:28Z</time>
      </trkpt>
      <trkpt lat="45.264388" lon="6.762144">
        <ele>2439.770</ele>
        <time>2018-07-21T10:17:36Z</time>
      </trkpt>
      <trkpt lat="45.264388" lon="6.762071">
        <ele>2441.117</ele>
        <time>2018-07-21T10:17:44Z</time>
      </trkpt>
      <trkpt lat="45.264413" lon="6.762002">
        <ele>2439.152</ele>
        <time>2018-07-21T10:17:51Z</time>
      </trkpt>
      <trkpt lat="45.264429" lon="6.761938">
        <ele>2439.781</ele>
        <time>2018-07-21T10:17:56Z</time>
      </trkpt>
      <trkpt lat="45.264434" lon="6.761867">
        <ele>2440.263</ele>
        <time>2018-07-21T10:18:02Z</time>
      </trkpt>
      <trkpt lat="45.264426" lon="6.761795">
        <ele>2443.011</ele>
        <time>2018-07-21T10:18:10Z</time>
      </trkpt>
      <trkpt lat="45.264423" lon="6.761722">
        <ele>2444.357</ele>
        <time>2018-07-21T10:18:16Z</time>
      </trkpt>
      <trkpt lat="45.264428" lon="6.761645">
        <ele>2444.536</ele>
        <time>2018-07-21T10:18:22Z</time>
      </trkpt>
      <trkpt lat="45.264424" lon="6.761579">
        <ele>2442.717</ele>
        <time>2018-07-21T10:18:27Z</time>
      </trkpt>
      <trkpt lat="45.264403" lon="6.761508">
        <ele>2442.718</ele>
        <time>2018-07-21T10:18:31Z</time>
      </trkpt>
      <trkpt lat="45.264387" lon="6.761444">
        <ele>2443.208</ele>
        <time>2018-07-21T10:18:36Z</time>
      </trkpt>
      <trkpt lat="45.264376" lon="6.761377">
        <ele>2443.735</ele>
        <time>2018-07-21T10:18:42Z</time>
      </trkpt>
      <trkpt lat="45.264368" lon="6.761304">
        <ele>2444.190</ele>
        <time>2018-07-21T10:18:49Z</time>
      </trkpt>
      <trkpt lat="45.264366" lon="6.761228">
        <ele>2444.667</ele>
        <time>2018-07-21T10:18:56Z</time>
      </trkpt>
      <trkpt lat="45.264379" lon="6.761165">
        <ele>2445.642</ele>
        <time>2018-07-21T10:19:01Z</time>
      </trkpt>
      <trkpt lat="45.264393" lon="6.761103">
        <ele>2448.211</ele>
        <time>2018-07-21T10:19:06Z</time>
      </trkpt>
      <trkpt lat="45.264408" lon="6.761032">
        <ele>2448.713</ele>
        <time>2018-07-21T10:19:12Z</time>
      </trkpt>
      <trkpt lat="45.264428" lon="6.760972">
        <ele>2449.681</ele>
        <time>2018-07-21T10:19:17Z</time>
      </trkpt>
      <trkpt lat="45.264440" lon="6.760907">
        <ele>2447.767</ele>
        <time>2018-07-21T10:19:22Z</time>
      </trkpt>
      <trkpt lat="45.264447" lon="6.760834">
        <ele>2448.413</ele>
        <time>2018-07-21T10:19:27Z</time>
      </trkpt>
      <trkpt lat="45.264461" lon="6.760772">
        <ele>2448.943</ele>
        <time>2018-07-21T10:19:33Z</time>
      </trkpt>
      <trkpt lat="45.264489" lon="6.760721">
        <ele>2449.407</ele>
        <time>2018-07-21T10:19:40Z</time>
      </trkpt>
      <trkpt lat="45.264521" lon="6.760659">
        <ele>2449.408</ele>
        <time>2018-07-21T10:19:45Z</time>
      </trkpt>
      <trkpt lat="45.264546" lon="6.760604">
        <ele>2450.433</ele>
        <time>2018-07-21T10:19:51Z</time>
      </trkpt>
      <trkpt lat="45.264545" lon="6.760531">
        <ele>2453.428</ele>
        <time>2018-07-21T10:20:02Z</time>
      </trkpt>
      <trkpt lat="45.264543" lon="6.760458">
        <ele>2453.765</ele>
        <time>2018-07-21T10:20:10Z</time>
      </trkpt>
      <trkpt lat="45.264553" lon="6.760388">
        <ele>2454.440</ele>
        <time>2018-07-21T10:20:16Z</time>
      </trkpt>
      <trkpt lat="45.264542" lon="6.760321">
        <ele>2451.759</ele>
        <time>2018-07-21T10:20:23Z</time>
      </trkpt>
      <trkpt lat="45.264512" lon="6.760265">
        <ele>2451.271</ele>
        <time>2018-07-21T10:20:30Z</time>
      </trkpt>
      <trkpt lat="45.264476" lon="6.760217">
        <ele>2452.039</ele>
        <time>2018-07-21T10:20:37Z</time>
      </trkpt>
      <trkpt lat="45.264450" lon="6.760164">
        <ele>2452.925</ele>
        <time>2018-07-21T10:20:42Z</time>
      </trkpt>
      <trkpt lat="45.264393" lon="6.760133">
        <ele>2452.618</ele>
        <time>2018-07-21T10:21:38Z</time>
      </trkpt>
      <trkpt lat="45.264361" lon="6.760084">
        <ele>2452.598</ele>
        <time>2018-07-21T10:21:45Z</time>
      </trkpt>
      <trkpt lat="45.264317" lon="6.760041">
        <ele>2452.717</ele>
        <time>2018-07-21T10:21:50Z</time>
      </trkpt>
      <trkpt lat="45.264284" lon="6.759992">
        <ele>2452.908</ele>
        <time>2018-07-21T10:21:54Z</time>
      </trkpt>
      <trkpt lat="45.264242" lon="6.759941">
        <ele>2454.383</ele>
        <time>2018-07-21T10:21:59Z</time>
      </trkpt>
      <trkpt lat="45.264204" lon="6.759903">
        <ele>2453.188</ele>
        <time>2018-07-21T10:22:03Z</time>
      </trkpt>
      <trkpt lat="45.264155" lon="6.759878">
        <ele>2452.895</ele>
        <time>2018-07-21T10:22:07Z</time>
      </trkpt>
      <trkpt lat="45.264111" lon="6.759844">
        <ele>2453.120</ele>
        <time>2018-07-21T10:22:11Z</time>
      </trkpt>
      <trkpt lat="45.264064" lon="6.759807">
        <ele>2453.389</ele>
        <time>2018-07-21T10:22:15Z</time>
      </trkpt>
      <trkpt lat="45.264022" lon="6.759769">
        <ele>2453.051</ele>
        <time>2018-07-21T10:22:20Z</time>
      </trkpt>
      <trkpt lat="45.263978" lon="6.759727">
        <ele>2453.049</ele>
        <time>2018-07-21T10:22:25Z</time>
      </trkpt>
      <trkpt lat="45.263936" lon="6.759701">
        <ele>2454.095</ele>
        <time>2018-07-21T10:22:29Z</time>
      </trkpt>
      <trkpt lat="45.263902" lon="6.759656">
        <ele>2453.464</ele>
        <time>2018-07-21T10:22:33Z</time>
      </trkpt>
      <trkpt lat="45.263860" lon="6.759615">
        <ele>2453.406</ele>
        <time>2018-07-21T10:22:37Z</time>
      </trkpt>
      <trkpt lat="45.263819" lon="6.759587">
        <ele>2454.016</ele>
        <time>2018-07-21T10:22:41Z</time>
      </trkpt>
      <trkpt lat="45.263779" lon="6.759554">
        <ele>2453.908</ele>
        <time>2018-07-21T10:22:45Z</time>
      </trkpt>
      <trkpt lat="45.263728" lon="6.759527">
        <ele>2453.818</ele>
        <time>2018-07-21T10:22:50Z</time>
      </trkpt>
      <trkpt lat="45.263681" lon="6.759534">
        <ele>2453.773</ele>
        <time>2018-07-21T10:22:54Z</time>
      </trkpt>
      <trkpt lat="45.263631" lon="6.759549">
        <ele>2453.290</ele>
        <time>2018-07-21T10:22:58Z</time>
      </trkpt>
      <trkpt lat="45.263585" lon="6.759574">
        <ele>2453.765</ele>
        <time>2018-07-21T10:23:03Z</time>
      </trkpt>
      <trkpt lat="45.263535" lon="6.759551">
        <ele>2455.384</ele>
        <time>2018-07-21T10:23:17Z</time>
      </trkpt>
      <trkpt lat="45.263491" lon="6.759595">
        <ele>2453.656</ele>
        <time>2018-07-21T10:23:21Z</time>
      </trkpt>
      <trkpt lat="45.263455" lon="6.759635">
        <ele>2453.554</ele>
        <time>2018-07-21T10:23:24Z</time>
      </trkpt>
      <trkpt lat="45.263423" lon="6.759687">
        <ele>2453.440</ele>
        <time>2018-07-21T10:23:27Z</time>
      </trkpt>
      <trkpt lat="45.263385" lon="6.759727">
        <ele>2453.391</ele>
        <time>2018-07-21T10:23:37Z</time>
      </trkpt>
      <trkpt lat="45.263340" lon="6.759757">
        <ele>2453.181</ele>
        <time>2018-07-21T10:23:43Z</time>
      </trkpt>
      <trkpt lat="45.263295" lon="6.759768">
        <ele>2453.019</ele>
        <time>2018-07-21T10:23:47Z</time>
      </trkpt>
      <trkpt lat="45.263242" lon="6.759749">
        <ele>2453.008</ele>
        <time>2018-07-21T10:23:52Z</time>
      </trkpt>
      <trkpt lat="45.263199" lon="6.759725">
        <ele>2453.041</ele>
        <time>2018-07-21T10:23:56Z</time>
      </trkpt>
      <trkpt lat="45.263153" lon="6.759707">
        <ele>2454.876</ele>
        <time>2018-07-21T10:24:00Z</time>
      </trkpt>
      <trkpt lat="45.263102" lon="6.759700">
        <ele>2455.013</ele>
        <time>2018-07-21T10:24:04Z</time>
      </trkpt>
      <trkpt lat="45.263047" lon="6.759690">
        <ele>2453.278</ele>
        <time>2018-07-21T10:24:08Z</time>
      </trkpt>
      <trkpt lat="45.263002" lon="6.759683">
        <ele>2453.467</ele>
        <time>2018-07-21T10:24:12Z</time>
      </trkpt>
      <trkpt lat="45.262956" lon="6.759666">
        <ele>2453.889</ele>
        <time>2018-07-21T10:24:16Z</time>
      </trkpt>
      <trkpt lat="45.262911" lon="6.759653">
        <ele>2455.987</ele>
        <time>2018-07-21T10:24:20Z</time>
      </trkpt>
      <trkpt lat="45.262865" lon="6.759635">
        <ele>2456.473</ele>
        <time>2018-07-21T10:24:24Z</time>
      </trkpt>
      <trkpt lat="45.262823" lon="6.759600">
        <ele>2454.386</ele>
        <time>2018-07-21T10:24:28Z</time>
      </trkpt>
      <trkpt lat="45.262776" lon="6.759572">
        <ele>2454.860</ele>
        <time>2018-07-21T10:24:32Z</time>
      </trkpt>
      <trkpt lat="45.262730" lon="6.759536">
        <ele>2455.026</ele>
        <time>2018-07-21T10:24:36Z</time>
      </trkpt>
      <trkpt lat="45.262690" lon="6.759481">
        <ele>2456.908</ele>
        <time>2018-07-21T10:24:40Z</time>
      </trkpt>
      <trkpt lat="45.262662" lon="6.759425">
        <ele>2455.080</ele>
        <time>2018-07-21T10:24:44Z</time>
      </trkpt>
      <trkpt lat="45.262617" lon="6.759400">
        <ele>2456.065</ele>
        <time>2018-07-21T10:24:48Z</time>
      </trkpt>
      <trkpt lat="45.262570" lon="6.759380">
        <ele>2455.082</ele>
        <time>2018-07-21T10:24:52Z</time>
      </trkpt>
      <trkpt lat="45.262523" lon="6.759353">
        <ele>2456.447</ele>
        <time>2018-07-21T10:24:56Z</time>
      </trkpt>
      <trkpt lat="45.262466" lon="6.759339">
        <ele>2456.886</ele>
        <time>2018-07-21T10:25:00Z</time>
      </trkpt>
      <trkpt lat="45.262414" lon="6.759316">
        <ele>2457.178</ele>
        <time>2018-07-21T10:25:04Z</time>
      </trkpt>
      <trkpt lat="45.262366" lon="6.759291">
        <ele>2457.456</ele>
        <time>2018-07-21T10:25:07Z</time>
      </trkpt>
      <trkpt lat="45.262331" lon="6.759240">
        <ele>2456.262</ele>
        <time>2018-07-21T10:25:12Z</time>
      </trkpt>
      <trkpt lat="45.262286" lon="6.759215">
        <ele>2457.694</ele>
        <time>2018-07-21T10:25:16Z</time>
      </trkpt>
      <trkpt lat="45.262237" lon="6.759186">
        <ele>2457.557</ele>
        <time>2018-07-21T10:25:20Z</time>
      </trkpt>
      <trkpt lat="45.262185" lon="6.759174">
        <ele>2456.822</ele>
        <time>2018-07-21T10:25:25Z</time>
      </trkpt>
      <trkpt lat="45.262135" lon="6.759184">
        <ele>2457.208</ele>
        <time>2018-07-21T10:25:30Z</time>
      </trkpt>
      <trkpt lat="45.262088" lon="6.759207">
        <ele>2457.511</ele>
        <time>2018-07-21T10:25:34Z</time>
      </trkpt>
      <trkpt lat="45.262040" lon="6.759237">
        <ele>2456.626</ele>
        <time>2018-07-21T10:25:39Z</time>
      </trkpt>
      <trkpt lat="45.261992" lon="6.759253">
        <ele>2457.723</ele>
        <time>2018-07-21T10:25:42Z</time>
      </trkpt>
      <trkpt lat="45.261944" lon="6.759268">
        <ele>2457.728</ele>
        <time>2018-07-21T10:25:46Z</time>
      </trkpt>
      <trkpt lat="45.261898" lon="6.759286">
        <ele>2457.537</ele>
        <time>2018-07-21T10:25:50Z</time>
      </trkpt>
      <trkpt lat="45.261851" lon="6.759307">
        <ele>2457.749</ele>
        <time>2018-07-21T10:25:54Z</time>
      </trkpt>
      <trkpt lat="45.261803" lon="6.759322">
        <ele>2457.297</ele>
        <time>2018-07-21T10:25:58Z</time>
      </trkpt>
      <trkpt lat="45.261753" lon="6.759356">
        <ele>2455.243</ele>
        <time>2018-07-21T10:26:03Z</time>
      </trkpt>
      <trkpt lat="45.261702" lon="6.759373">
        <ele>2457.752</ele>
        <time>2018-07-21T10:26:06Z</time>
      </trkpt>
      <trkpt lat="45.261657" lon="6.759371">
        <ele>2457.453</ele>
        <time>2018-07-21T10:26:10Z</time>
      </trkpt>
      <trkpt lat="45.261605" lon="6.759373">
        <ele>2457.508</ele>
        <time>2018-07-21T10:26:15Z</time>
      </trkpt>
      <trkpt lat="45.261547" lon="6.759391">
        <ele>2457.708</ele>
        <time>2018-07-21T10:26:20Z</time>
      </trkpt>
      <trkpt lat="45.261501" lon="6.759417">
        <ele>2458.017</ele>
        <time>2018-07-21T10:26:24Z</time>
      </trkpt>
      <trkpt lat="45.261445" lon="6.759432">
        <ele>2458.032</ele>
        <time>2018-07-21T10:26:28Z</time>
      </trkpt>
      <trkpt lat="45.261403" lon="6.759469">
        <ele>2456.069</ele>
        <time>2018-07-21T10:26:31Z</time>
      </trkpt>
      <trkpt lat="45.261354" lon="6.759484">
        <ele>2457.834</ele>
        <time>2018-07-21T10:26:35Z</time>
      </trkpt>
      <trkpt lat="45.261305" lon="6.759489">
        <ele>2457.753</ele>
        <time>2018-07-21T10:26:38Z</time>
      </trkpt>
      <trkpt lat="45.261261" lon="6.759510">
        <ele>2456.935</ele>
        <time>2018-07-21T10:26:43Z</time>
      </trkpt>
      <trkpt lat="45.261216" lon="6.759516">
        <ele>2456.193</ele>
        <time>2018-07-21T10:26:46Z</time>
      </trkpt>
      <trkpt lat="45.261171" lon="6.759504">
        <ele>2458.019</ele>
        <time>2018-07-21T10:26:50Z</time>
      </trkpt>
      <trkpt lat="45.261119" lon="6.759508">
        <ele>2458.288</ele>
        <time>2018-07-21T10:26:55Z</time>
      </trkpt>
      <trkpt lat="45.261073" lon="6.759501">
        <ele>2457.124</ele>
        <time>2018-07-21T10:26:59Z</time>
      </trkpt>
      <trkpt lat="45.261015" lon="6.759513">
        <ele>2459.326</ele>
        <time>2018-07-21T10:27:03Z</time>
      </trkpt>
      <trkpt lat="45.260975" lon="6.759545">
        <ele>2457.308</ele>
        <time>2018-07-21T10:27:06Z</time>
      </trkpt>
      <trkpt lat="45.260916" lon="6.759581">
        <ele>2458.970</ele>
        <time>2018-07-21T10:27:11Z</time>
      </trkpt>
      <trkpt lat="45.260858" lon="6.759618">
        <ele>2457.175</ele>
        <time>2018-07-21T10:27:16Z</time>
      </trkpt>
      <trkpt lat="45.260820" lon="6.759657">
        <ele>2457.322</ele>
        <time>2018-07-21T10:27:20Z</time>
      </trkpt>
      <trkpt lat="45.260776" lon="6.759693">
        <ele>2457.257</ele>
        <time>2018-07-21T10:27:24Z</time>
      </trkpt>
      <trkpt lat="45.260728" lon="6.759726">
        <ele>2457.756</ele>
        <time>2018-07-21T10:27:28Z</time>
      </trkpt>
      <trkpt lat="45.260686" lon="6.759756">
        <ele>2457.898</ele>
        <time>2018-07-21T10:27:31Z</time>
      </trkpt>
      <trkpt lat="45.260634" lon="6.759770">
        <ele>2457.756</ele>
        <time>2018-07-21T10:27:38Z</time>
      </trkpt>
      <trkpt lat="45.260587" lon="6.759810">
        <ele>2457.752</ele>
        <time>2018-07-21T10:27:41Z</time>
      </trkpt>
      <trkpt lat="45.260536" lon="6.759858">
        <ele>2457.792</ele>
        <time>2018-07-21T10:27:46Z</time>
      </trkpt>
      <trkpt lat="45.260499" lon="6.759898">
        <ele>2457.573</ele>
        <time>2018-07-21T10:27:50Z</time>
      </trkpt>
      <trkpt lat="45.260448" lon="6.759933">
        <ele>2459.720</ele>
        <time>2018-07-21T10:27:54Z</time>
      </trkpt>
      <trkpt lat="45.260397" lon="6.759914">
        <ele>2456.808</ele>
        <time>2018-07-21T10:27:59Z</time>
      </trkpt>
      <trkpt lat="45.260365" lon="6.759855">
        <ele>2455.861</ele>
        <time>2018-07-21T10:28:03Z</time>
      </trkpt>
      <trkpt lat="45.260362" lon="6.759782">
        <ele>2455.136</ele>
        <time>2018-07-21T10:28:08Z</time>
      </trkpt>
      <trkpt lat="45.260379" lon="6.759710">
        <ele>2454.653</ele>
        <time>2018-07-21T10:28:13Z</time>
      </trkpt>
      <trkpt lat="45.260363" lon="6.759643">
        <ele>2453.888</ele>
        <time>2018-07-21T10:28:17Z</time>
      </trkpt>
      <trkpt lat="45.260360" lon="6.759571">
        <ele>2453.367</ele>
        <time>2018-07-21T10:28:20Z</time>
      </trkpt>
      <trkpt lat="45.260353" lon="6.759494">
        <ele>2452.859</ele>
        <time>2018-07-21T10:28:24Z</time>
      </trkpt>
      <trkpt lat="45.260328" lon="6.759428">
        <ele>2452.137</ele>
        <time>2018-07-21T10:28:28Z</time>
      </trkpt>
      <trkpt lat="45.260311" lon="6.759352">
        <ele>2451.483</ele>
        <time>2018-07-21T10:28:32Z</time>
      </trkpt>
      <trkpt lat="45.260305" lon="6.759276">
        <ele>2450.926</ele>
        <time>2018-07-21T10:28:36Z</time>
      </trkpt>
      <trkpt lat="45.260287" lon="6.759202">
        <ele>2451.547</ele>
        <time>2018-07-21T10:28:40Z</time>
      </trkpt>
      <trkpt lat="45.260276" lon="6.759124">
        <ele>2450.011</ele>
        <time>2018-07-21T10:28:45Z</time>
      </trkpt>
      <trkpt lat="45.260256" lon="6.759056">
        <ele>2449.808</ele>
        <time>2018-07-21T10:28:49Z</time>
      </trkpt>
      <trkpt lat="45.260237" lon="6.758993">
        <ele>2449.554</ele>
        <time>2018-07-21T10:28:53Z</time>
      </trkpt>
      <trkpt lat="45.260235" lon="6.758919">
        <ele>2448.359</ele>
        <time>2018-07-21T10:28:57Z</time>
      </trkpt>
      <trkpt lat="45.260212" lon="6.758858">
        <ele>2448.216</ele>
        <time>2018-07-21T10:29:00Z</time>
      </trkpt>
      <trkpt lat="45.260190" lon="6.758784">
        <ele>2447.881</ele>
        <time>2018-07-21T10:29:04Z</time>
      </trkpt>
      <trkpt lat="45.260196" lon="6.758711">
        <ele>2447.630</ele>
        <time>2018-07-21T10:29:09Z</time>
      </trkpt>
      <trkpt lat="45.260196" lon="6.758642">
        <ele>2449.842</ele>
        <time>2018-07-21T10:29:13Z</time>
      </trkpt>
      <trkpt lat="45.260197" lon="6.758566">
        <ele>2447.850</ele>
        <time>2018-07-21T10:29:17Z</time>
      </trkpt>
      <trkpt lat="45.260164" lon="6.758511">
        <ele>2447.666</ele>
        <time>2018-07-21T10:29:22Z</time>
      </trkpt>
      <trkpt lat="45.260122" lon="6.758477">
        <ele>2449.841</ele>
        <time>2018-07-21T10:29:26Z</time>
      </trkpt>
      <trkpt lat="45.260082" lon="6.758443">
        <ele>2448.881</ele>
        <time>2018-07-21T10:29:30Z</time>
      </trkpt>
      <trkpt lat="45.260037" lon="6.758419">
        <ele>2447.809</ele>
        <time>2018-07-21T10:29:34Z</time>
      </trkpt>
      <trkpt lat="45.259988" lon="6.758391">
        <ele>2447.608</ele>
        <time>2018-07-21T10:29:38Z</time>
      </trkpt>
      <trkpt lat="45.259945" lon="6.758366">
        <ele>2448.826</ele>
        <time>2018-07-21T10:29:41Z</time>
      </trkpt>
      <trkpt lat="45.259898" lon="6.758333">
        <ele>2448.941</ele>
        <time>2018-07-21T10:29:45Z</time>
      </trkpt>
      <trkpt lat="45.259850" lon="6.758300">
        <ele>2446.448</ele>
        <time>2018-07-21T10:29:49Z</time>
      </trkpt>
      <trkpt lat="45.259809" lon="6.758269">
        <ele>2446.343</ele>
        <time>2018-07-21T10:29:54Z</time>
      </trkpt>
      <trkpt lat="45.259767" lon="6.758233">
        <ele>2446.532</ele>
        <time>2018-07-21T10:29:58Z</time>
      </trkpt>
      <trkpt lat="45.259715" lon="6.758211">
        <ele>2443.884</ele>
        <time>2018-07-21T10:30:05Z</time>
      </trkpt>
      <trkpt lat="45.259667" lon="6.758220">
        <ele>2444.962</ele>
        <time>2018-07-21T10:30:08Z</time>
      </trkpt>
      <trkpt lat="45.259620" lon="6.758222">
        <ele>2445.388</ele>
        <time>2018-07-21T10:30:11Z</time>
      </trkpt>
      <trkpt lat="45.259573" lon="6.758228">
        <ele>2444.575</ele>
        <time>2018-07-21T10:30:14Z</time>
      </trkpt>
      <trkpt lat="45.259519" lon="6.758206">
        <ele>2442.428</ele>
        <time>2018-07-21T10:30:18Z</time>
      </trkpt>
      <trkpt lat="45.259472" lon="6.758210">
        <ele>2441.820</ele>
        <time>2018-07-21T10:30:21Z</time>
      </trkpt>
      <trkpt lat="45.259418" lon="6.758222">
        <ele>2441.008</ele>
        <time>2018-07-21T10:30:25Z</time>
      </trkpt>
      <trkpt lat="45.259368" lon="6.758207">
        <ele>2440.729</ele>
        <time>2018-07-21T10:30:29Z</time>
      </trkpt>
      <trkpt lat="45.259311" lon="6.758202">
        <ele>2440.114</ele>
        <time>2018-07-21T10:30:33Z</time>
      </trkpt>
      <trkpt lat="45.259262" lon="6.758182">
        <ele>2438.941</ele>
        <time>2018-07-21T10:30:37Z</time>
      </trkpt>
      <trkpt lat="45.259213" lon="6.758165">
        <ele>2438.566</ele>
        <time>2018-07-21T10:30:41Z</time>
      </trkpt>
      <trkpt lat="45.259159" lon="6.758141">
        <ele>2438.115</ele>
        <time>2018-07-21T10:30:45Z</time>
      </trkpt>
      <trkpt lat="45.259114" lon="6.758102">
        <ele>2436.947</ele>
        <time>2018-07-21T10:30:49Z</time>
      </trkpt>
      <trkpt lat="45.259067" lon="6.758069">
        <ele>2436.215</ele>
        <time>2018-07-21T10:30:53Z</time>
      </trkpt>
      <trkpt lat="45.259019" lon="6.758036">
        <ele>2435.131</ele>
        <time>2018-07-21T10:30:57Z</time>
      </trkpt>
      <trkpt lat="45.258967" lon="6.758008">
        <ele>2434.755</ele>
        <time>2018-07-21T10:31:01Z</time>
      </trkpt>
      <trkpt lat="45.258916" lon="6.757983">
        <ele>2434.307</ele>
        <time>2018-07-21T10:31:05Z</time>
      </trkpt>
      <trkpt lat="45.258871" lon="6.757963">
        <ele>2434.317</ele>
        <time>2018-07-21T10:31:08Z</time>
      </trkpt>
      <trkpt lat="45.258817" lon="6.757952">
        <ele>2433.508</ele>
        <time>2018-07-21T10:31:12Z</time>
      </trkpt>
      <trkpt lat="45.258767" lon="6.757963">
        <ele>2431.537</ele>
        <time>2018-07-21T10:31:21Z</time>
      </trkpt>
      <trkpt lat="45.258719" lon="6.757983">
        <ele>2430.252</ele>
        <time>2018-07-21T10:31:27Z</time>
      </trkpt>
      <trkpt lat="45.258672" lon="6.758003">
        <ele>2428.599</ele>
        <time>2018-07-21T10:31:34Z</time>
      </trkpt>
      <trkpt lat="45.258638" lon="6.758048">
        <ele>2426.524</ele>
        <time>2018-07-21T10:31:45Z</time>
      </trkpt>
      <trkpt lat="45.258610" lon="6.758109">
        <ele>2424.753</ele>
        <time>2018-07-21T10:31:53Z</time>
      </trkpt>
      <trkpt lat="45.258576" lon="6.758156">
        <ele>2421.235</ele>
        <time>2018-07-21T10:32:11Z</time>
      </trkpt>
      <trkpt lat="45.258531" lon="6.758177">
        <ele>2419.593</ele>
        <time>2018-07-21T10:32:20Z</time>
      </trkpt>
      <trkpt lat="45.258486" lon="6.758198">
        <ele>2417.659</ele>
        <time>2018-07-21T10:32:30Z</time>
      </trkpt>
      <trkpt lat="45.258447" lon="6.758241">
        <ele>2416.038</ele>
        <time>2018-07-21T10:32:36Z</time>
      </trkpt>
      <trkpt lat="45.258401" lon="6.758254">
        <ele>2414.170</ele>
        <time>2018-07-21T10:32:43Z</time>
      </trkpt>
      <trkpt lat="45.258353" lon="6.758263">
        <ele>2412.617</ele>
        <time>2018-07-21T10:32:49Z</time>
      </trkpt>
      <trkpt lat="45.258308" lon="6.758260">
        <ele>2411.808</ele>
        <time>2018-07-21T10:32:54Z</time>
      </trkpt>
      <trkpt lat="45.258261" lon="6.758274">
        <ele>2410.075</ele>
        <time>2018-07-21T10:33:00Z</time>
      </trkpt>
      <trkpt lat="45.258218" lon="6.758298">
        <ele>2408.280</ele>
        <time>2018-07-21T10:33:07Z</time>
      </trkpt>
      <trkpt lat="45.258181" lon="6.758336">
        <ele>2406.937</ele>
        <time>2018-07-21T10:33:14Z</time>
      </trkpt>
      <trkpt lat="45.258163" lon="6.758395">
        <ele>2404.552</ele>
        <time>2018-07-21T10:33:24Z</time>
      </trkpt>
      <trkpt lat="45.258166" lon="6.758462">
        <ele>2402.841</ele>
        <time>2018-07-21T10:33:31Z</time>
      </trkpt>
      <trkpt lat="45.258121" lon="6.758477">
        <ele>2402.523</ele>
        <time>2018-07-21T10:33:43Z</time>
      </trkpt>
      <trkpt lat="45.258076" lon="6.758504">
        <ele>2400.631</ele>
        <time>2018-07-21T10:33:57Z</time>
      </trkpt>
      <trkpt lat="45.258028" lon="6.758511">
        <ele>2398.687</ele>
        <time>2018-07-21T10:34:07Z</time>
      </trkpt>
      <trkpt lat="45.257983" lon="6.758533">
        <ele>2396.672</ele>
        <time>2018-07-21T10:34:16Z</time>
      </trkpt>
      <trkpt lat="45.257937" lon="6.758539">
        <ele>2393.513</ele>
        <time>2018-07-21T10:34:30Z</time>
      </trkpt>
      <trkpt lat="45.257895" lon="6.758568">
        <ele>2391.514</ele>
        <time>2018-07-21T10:34:37Z</time>
      </trkpt>
      <trkpt lat="45.257860" lon="6.758621">
        <ele>2389.108</ele>
        <time>2018-07-21T10:34:47Z</time>
      </trkpt>
      <trkpt lat="45.257827" lon="6.758667">
        <ele>2387.889</ele>
        <time>2018-07-21T10:34:53Z</time>
      </trkpt>
      <trkpt lat="45.257797" lon="6.758714">
        <ele>2388.084</ele>
        <time>2018-07-21T10:35:03Z</time>
      </trkpt>
      <trkpt lat="45.257753" lon="6.758742">
        <ele>2384.111</ele>
        <time>2018-07-21T10:35:11Z</time>
      </trkpt>
      <trkpt lat="45.257760" lon="6.758816">
        <ele>2383.516</ele>
        <time>2018-07-21T10:35:17Z</time>
      </trkpt>
      <trkpt lat="45.257783" lon="6.758879">
        <ele>2382.735</ele>
        <time>2018-07-21T10:35:23Z</time>
      </trkpt>
      <trkpt lat="45.257810" lon="6.758938">
        <ele>2383.037</ele>
        <time>2018-07-21T10:35:28Z</time>
      </trkpt>
      <trkpt lat="45.257756" lon="6.758950">
        <ele>2381.345</ele>
        <time>2018-07-21T10:35:37Z</time>
      </trkpt>
      <trkpt lat="45.257712" lon="6.758934">
        <ele>2380.241</ele>
        <time>2018-07-21T10:35:41Z</time>
      </trkpt>
      <trkpt lat="45.257662" lon="6.758915">
        <ele>2379.185</ele>
        <time>2018-07-21T10:35:46Z</time>
      </trkpt>
      <trkpt lat="45.257618" lon="6.758895">
        <ele>2378.089</ele>
        <time>2018-07-21T10:35:51Z</time>
      </trkpt>
      <trkpt lat="45.257570" lon="6.758881">
        <ele>2376.817</ele>
        <time>2018-07-21T10:35:58Z</time>
      </trkpt>
      <trkpt lat="45.257561" lon="6.758949">
        <ele>2375.608</ele>
        <time>2018-07-21T10:36:04Z</time>
      </trkpt>
      <trkpt lat="45.257572" lon="6.759020">
        <ele>2374.620</ele>
        <time>2018-07-21T10:36:09Z</time>
      </trkpt>
      <trkpt lat="45.257578" lon="6.759087">
        <ele>2373.525</ele>
        <time>2018-07-21T10:36:14Z</time>
      </trkpt>
      <trkpt lat="45.257586" lon="6.759152">
        <ele>2372.352</ele>
        <time>2018-07-21T10:36:19Z</time>
      </trkpt>
      <trkpt lat="45.257614" lon="6.759217">
        <ele>2371.087</ele>
        <time>2018-07-21T10:36:24Z</time>
      </trkpt>
      <trkpt lat="45.257590" lon="6.759271">
        <ele>2369.736</ele>
        <time>2018-07-21T10:36:32Z</time>
      </trkpt>
      <trkpt lat="45.257550" lon="6.759240">
        <ele>2369.318</ele>
        <time>2018-07-21T10:36:36Z</time>
      </trkpt>
      <trkpt lat="45.257504" lon="6.759213">
        <ele>2368.236</ele>
        <time>2018-07-21T10:36:41Z</time>
      </trkpt>
      <trkpt lat="45.257462" lon="6.759171">
        <ele>2367.812</ele>
        <time>2018-07-21T10:36:46Z</time>
      </trkpt>
      <trkpt lat="45.257421" lon="6.759117">
        <ele>2366.719</ele>
        <time>2018-07-21T10:36:51Z</time>
      </trkpt>
      <trkpt lat="45.257389" lon="6.759070">
        <ele>2366.309</ele>
        <time>2018-07-21T10:36:55Z</time>
      </trkpt>
      <trkpt lat="45.257357" lon="6.759023">
        <ele>2366.019</ele>
        <time>2018-07-21T10:36:59Z</time>
      </trkpt>
      <trkpt lat="45.257321" lon="6.758962">
        <ele>2364.608</ele>
        <time>2018-07-21T10:37:04Z</time>
      </trkpt>
      <trkpt lat="45.257287" lon="6.758914">
        <ele>2364.283</ele>
        <time>2018-07-21T10:37:09Z</time>
      </trkpt>
      <trkpt lat="45.257257" lon="6.758856">
        <ele>2362.468</ele>
        <time>2018-07-21T10:37:25Z</time>
      </trkpt>
      <trkpt lat="45.257238" lon="6.758923">
        <ele>2361.235</ele>
        <time>2018-07-21T10:37:32Z</time>
      </trkpt>
      <trkpt lat="45.257229" lon="6.758992">
        <ele>2360.760</ele>
        <time>2018-07-21T10:37:38Z</time>
      </trkpt>
      <trkpt lat="45.257231" lon="6.759061">
        <ele>2359.899</ele>
        <time>2018-07-21T10:37:48Z</time>
      </trkpt>
      <trkpt lat="45.257219" lon="6.759123">
        <ele>2359.021</ele>
        <time>2018-07-21T10:37:53Z</time>
      </trkpt>
      <trkpt lat="45.257198" lon="6.759195">
        <ele>2358.299</ele>
        <time>2018-07-21T10:37:58Z</time>
      </trkpt>
      <trkpt lat="45.257179" lon="6.759270">
        <ele>2356.615</ele>
        <time>2018-07-21T10:38:03Z</time>
      </trkpt>
      <trkpt lat="45.257158" lon="6.759339">
        <ele>2355.215</ele>
        <time>2018-07-21T10:38:08Z</time>
      </trkpt>
      <trkpt lat="45.257145" lon="6.759411">
        <ele>2354.365</ele>
        <time>2018-07-21T10:38:13Z</time>
      </trkpt>
      <trkpt lat="45.257134" lon="6.759476">
        <ele>2353.111</ele>
        <time>2018-07-21T10:38:17Z</time>
      </trkpt>
      <trkpt lat="45.257122" lon="6.759541">
        <ele>2352.308</ele>
        <time>2018-07-21T10:38:21Z</time>
      </trkpt>
      <trkpt lat="45.257102" lon="6.759599">
        <ele>2352.163</ele>
        <time>2018-07-21T10:38:25Z</time>
      </trkpt>
      <trkpt lat="45.257030" lon="6.759694">
        <ele>2353.678</ele>
        <time>2018-07-21T10:39:55Z</time>
      </trkpt>
      <trkpt lat="45.257064" lon="6.759637">
        <ele>2353.895</ele>
        <time>2018-07-21T10:39:58Z</time>
      </trkpt>
      <trkpt lat="45.257012" lon="6.759606">
        <ele>2353.840</ele>
        <time>2018-07-21T10:40:00Z</time>
      </trkpt>
      <trkpt lat="45.256971" lon="6.759572">
        <ele>2353.869</ele>
        <time>2018-07-21T10:40:02Z</time>
      </trkpt>
      <trkpt lat="45.256929" lon="6.759536">
        <ele>2353.551</ele>
        <time>2018-07-21T10:40:07Z</time>
      </trkpt>
      <trkpt lat="45.256890" lon="6.759498">
        <ele>2352.829</ele>
        <time>2018-07-21T10:40:13Z</time>
      </trkpt>
      <trkpt lat="45.256862" lon="6.759442">
        <ele>2352.655</ele>
        <time>2018-07-21T10:40:17Z</time>
      </trkpt>
      <trkpt lat="45.256848" lon="6.759378">
        <ele>2352.396</ele>
        <time>2018-07-21T10:40:21Z</time>
      </trkpt>
      <trkpt lat="45.256835" lon="6.759303">
        <ele>2351.931</ele>
        <time>2018-07-21T10:40:25Z</time>
      </trkpt>
      <trkpt lat="45.256827" lon="6.759223">
        <ele>2351.724</ele>
        <time>2018-07-21T10:40:30Z</time>
      </trkpt>
      <trkpt lat="45.256808" lon="6.759155">
        <ele>2351.408</ele>
        <time>2018-07-21T10:40:34Z</time>
      </trkpt>
      <trkpt lat="45.256806" lon="6.759071">
        <ele>2351.241</ele>
        <time>2018-07-21T10:40:38Z</time>
      </trkpt>
      <trkpt lat="45.256803" lon="6.759000">
        <ele>2351.076</ele>
        <time>2018-07-21T10:40:41Z</time>
      </trkpt>
      <trkpt lat="45.256805" lon="6.758935">
        <ele>2350.763</ele>
        <time>2018-07-21T10:40:44Z</time>
      </trkpt>
      <trkpt lat="45.256797" lon="6.758865">
        <ele>2350.268</ele>
        <time>2018-07-21T10:40:48Z</time>
      </trkpt>
      <trkpt lat="45.256787" lon="6.758796">
        <ele>2350.697</ele>
        <time>2018-07-21T10:40:52Z</time>
      </trkpt>
      <trkpt lat="45.256778" lon="6.758721">
        <ele>2350.459</ele>
        <time>2018-07-21T10:40:56Z</time>
      </trkpt>
      <trkpt lat="45.256769" lon="6.758647">
        <ele>2349.547</ele>
        <time>2018-07-21T10:41:02Z</time>
      </trkpt>
      <trkpt lat="45.256781" lon="6.758579">
        <ele>2347.333</ele>
        <time>2018-07-21T10:41:15Z</time>
      </trkpt>
      <trkpt lat="45.256775" lon="6.758506">
        <ele>2346.283</ele>
        <time>2018-07-21T10:41:19Z</time>
      </trkpt>
      <trkpt lat="45.256754" lon="6.758440">
        <ele>2345.125</ele>
        <time>2018-07-21T10:41:23Z</time>
      </trkpt>
      <trkpt lat="45.256738" lon="6.758374">
        <ele>2344.417</ele>
        <time>2018-07-21T10:41:27Z</time>
      </trkpt>
      <trkpt lat="45.256720" lon="6.758313">
        <ele>2343.108</ele>
        <time>2018-07-21T10:41:32Z</time>
      </trkpt>
      <trkpt lat="45.256687" lon="6.758263">
        <ele>2340.690</ele>
        <time>2018-07-21T10:41:42Z</time>
      </trkpt>
      <trkpt lat="45.256677" lon="6.758196">
        <ele>2338.895</ele>
        <time>2018-07-21T10:41:50Z</time>
      </trkpt>
      <trkpt lat="45.256674" lon="6.758129">
        <ele>2336.062</ele>
        <time>2018-07-21T10:41:59Z</time>
      </trkpt>
      <trkpt lat="45.256671" lon="6.758059">
        <ele>2334.367</ele>
        <time>2018-07-21T10:42:06Z</time>
      </trkpt>
      <trkpt lat="45.256680" lon="6.757988">
        <ele>2333.956</ele>
        <time>2018-07-21T10:42:11Z</time>
      </trkpt>
      <trkpt lat="45.256698" lon="6.757924">
        <ele>2333.088</ele>
        <time>2018-07-21T10:42:15Z</time>
      </trkpt>
      <trkpt lat="45.256689" lon="6.757861">
        <ele>2332.946</ele>
        <time>2018-07-21T10:42:19Z</time>
      </trkpt>
      <trkpt lat="45.256639" lon="6.757848">
        <ele>2332.292</ele>
        <time>2018-07-21T10:42:23Z</time>
      </trkpt>
      <trkpt lat="45.256588" lon="6.757837">
        <ele>2331.864</ele>
        <time>2018-07-21T10:42:27Z</time>
      </trkpt>
      <trkpt lat="45.256543" lon="6.757812">
        <ele>2331.606</ele>
        <time>2018-07-21T10:42:31Z</time>
      </trkpt>
      <trkpt lat="45.256515" lon="6.757760">
        <ele>2331.116</ele>
        <time>2018-07-21T10:42:35Z</time>
      </trkpt>
      <trkpt lat="45.256472" lon="6.757714">
        <ele>2330.508</ele>
        <time>2018-07-21T10:42:40Z</time>
      </trkpt>
      <trkpt lat="45.256444" lon="6.757662">
        <ele>2330.188</ele>
        <time>2018-07-21T10:42:44Z</time>
      </trkpt>
      <trkpt lat="45.256407" lon="6.757624">
        <ele>2329.483</ele>
        <time>2018-07-21T10:42:48Z</time>
      </trkpt>
      <trkpt lat="45.256369" lon="6.757575">
        <ele>2328.710</ele>
        <time>2018-07-21T10:42:52Z</time>
      </trkpt>
      <trkpt lat="45.256327" lon="6.757535">
        <ele>2328.395</ele>
        <time>2018-07-21T10:42:56Z</time>
      </trkpt>
      <trkpt lat="45.256278" lon="6.757500">
        <ele>2327.724</ele>
        <time>2018-07-21T10:43:00Z</time>
      </trkpt>
      <trkpt lat="45.256227" lon="6.757476">
        <ele>2327.696</ele>
        <time>2018-07-21T10:43:04Z</time>
      </trkpt>
      <trkpt lat="45.256172" lon="6.757467">
        <ele>2327.154</ele>
        <time>2018-07-21T10:43:15Z</time>
      </trkpt>
      <trkpt lat="45.256121" lon="6.757468">
        <ele>2326.360</ele>
        <time>2018-07-21T10:43:19Z</time>
      </trkpt>
      <trkpt lat="45.256075" lon="6.757448">
        <ele>2326.057</ele>
        <time>2018-07-21T10:43:23Z</time>
      </trkpt>
      <trkpt lat="45.256021" lon="6.757439">
        <ele>2325.300</ele>
        <time>2018-07-21T10:43:28Z</time>
      </trkpt>
      <trkpt lat="45.255974" lon="6.757423">
        <ele>2323.020</ele>
        <time>2018-07-21T10:43:32Z</time>
      </trkpt>
      <trkpt lat="45.255916" lon="6.757418">
        <ele>2323.308</ele>
        <time>2018-07-21T10:43:36Z</time>
      </trkpt>
      <trkpt lat="45.255865" lon="6.757416">
        <ele>2323.897</ele>
        <time>2018-07-21T10:43:40Z</time>
      </trkpt>
      <trkpt lat="45.255897" lon="6.757364">
        <ele>2322.742</ele>
        <time>2018-07-21T10:43:52Z</time>
      </trkpt>
      <trkpt lat="45.255952" lon="6.757367">
        <ele>2322.239</ele>
        <time>2018-07-21T10:43:57Z</time>
      </trkpt>
      <trkpt lat="45.256005" lon="6.757383">
        <ele>2321.664</ele>
        <time>2018-07-21T10:44:01Z</time>
      </trkpt>
      <trkpt lat="45.256050" lon="6.757405">
        <ele>2321.573</ele>
        <time>2018-07-21T10:44:04Z</time>
      </trkpt>
      <trkpt lat="45.256099" lon="6.757423">
        <ele>2321.155</ele>
        <time>2018-07-21T10:44:07Z</time>
      </trkpt>
      <trkpt lat="45.256154" lon="6.757423">
        <ele>2320.653</ele>
        <time>2018-07-21T10:44:11Z</time>
      </trkpt>
      <trkpt lat="45.256202" lon="6.757407">
        <ele>2319.719</ele>
        <time>2018-07-21T10:44:15Z</time>
      </trkpt>
      <trkpt lat="45.256250" lon="6.757394">
        <ele>2319.385</ele>
        <time>2018-07-21T10:44:19Z</time>
      </trkpt>
      <trkpt lat="45.256297" lon="6.757401">
        <ele>2319.289</ele>
        <time>2018-07-21T10:44:23Z</time>
      </trkpt>
      <trkpt lat="45.256350" lon="6.757403">
        <ele>2318.717</ele>
        <time>2018-07-21T10:44:27Z</time>
      </trkpt>
      <trkpt lat="45.256401" lon="6.757395">
        <ele>2318.408</ele>
        <time>2018-07-21T10:44:30Z</time>
      </trkpt>
      <trkpt lat="45.256447" lon="6.757418">
        <ele>2317.950</ele>
        <time>2018-07-21T10:44:33Z</time>
      </trkpt>
      <trkpt lat="45.256495" lon="6.757435">
        <ele>2317.565</ele>
        <time>2018-07-21T10:44:37Z</time>
      </trkpt>
      <trkpt lat="45.256548" lon="6.757445">
        <ele>2317.182</ele>
        <time>2018-07-21T10:44:41Z</time>
      </trkpt>
      <trkpt lat="45.256594" lon="6.757436">
        <ele>2316.877</ele>
        <time>2018-07-21T10:44:45Z</time>
      </trkpt>
      <trkpt lat="45.256637" lon="6.757405">
        <ele>2316.656</ele>
        <time>2018-07-21T10:44:49Z</time>
      </trkpt>
      <trkpt lat="45.256637" lon="6.757327">
        <ele>2315.948</ele>
        <time>2018-07-21T10:44:54Z</time>
      </trkpt>
      <trkpt lat="45.256630" lon="6.757261">
        <ele>2315.236</ele>
        <time>2018-07-21T10:44:59Z</time>
      </trkpt>
      <trkpt lat="45.256631" lon="6.757185">
        <ele>2315.072</ele>
        <time>2018-07-21T10:45:03Z</time>
      </trkpt>
      <trkpt lat="45.256641" lon="6.757102">
        <ele>2314.692</ele>
        <time>2018-07-21T10:45:07Z</time>
      </trkpt>
      <trkpt lat="45.256653" lon="6.757030">
        <ele>2314.473</ele>
        <time>2018-07-21T10:45:11Z</time>
      </trkpt>
      <trkpt lat="45.256696" lon="6.756984">
        <ele>2313.920</ele>
        <time>2018-07-21T10:45:17Z</time>
      </trkpt>
      <trkpt lat="45.256752" lon="6.756952">
        <ele>2313.708</ele>
        <time>2018-07-21T10:45:21Z</time>
      </trkpt>
      <trkpt lat="45.256775" lon="6.756892">
        <ele>2313.751</ele>
        <time>2018-07-21T10:45:24Z</time>
      </trkpt>
      <trkpt lat="45.256798" lon="6.756834">
        <ele>2312.816</ele>
        <time>2018-07-21T10:45:29Z</time>
      </trkpt>
      <trkpt lat="45.256804" lon="6.756770">
        <ele>2310.213</ele>
        <time>2018-07-21T10:45:33Z</time>
      </trkpt>
      <trkpt lat="45.256819" lon="6.756701">
        <ele>2312.258</ele>
        <time>2018-07-21T10:45:39Z</time>
      </trkpt>
      <trkpt lat="45.256826" lon="6.756637">
        <ele>2309.117</ele>
        <time>2018-07-21T10:45:53Z</time>
      </trkpt>
      <trkpt lat="45.256836" lon="6.756567">
        <ele>2308.469</ele>
        <time>2018-07-21T10:45:59Z</time>
      </trkpt>
      <trkpt lat="45.256849" lon="6.756494">
        <ele>2307.857</ele>
        <time>2018-07-21T10:46:05Z</time>
      </trkpt>
      <trkpt lat="45.256861" lon="6.756430">
        <ele>2307.753</ele>
        <time>2018-07-21T10:46:09Z</time>
      </trkpt>
      <trkpt lat="45.256870" lon="6.756361">
        <ele>2306.791</ele>
        <time>2018-07-21T10:46:14Z</time>
      </trkpt>
      <trkpt lat="45.256827" lon="6.756342">
        <ele>2305.981</ele>
        <time>2018-07-21T10:46:22Z</time>
      </trkpt>
      <trkpt lat="45.256815" lon="6.756412">
        <ele>2305.719</ele>
        <time>2018-07-21T10:46:29Z</time>
      </trkpt>
      <trkpt lat="45.256797" lon="6.756479">
        <ele>2304.908</ele>
        <time>2018-07-21T10:46:35Z</time>
      </trkpt>
      <trkpt lat="45.256785" lon="6.756548">
        <ele>2304.721</ele>
        <time>2018-07-21T10:46:39Z</time>
      </trkpt>
      <trkpt lat="45.256761" lon="6.756613">
        <ele>2306.366</ele>
        <time>2018-07-21T10:46:43Z</time>
      </trkpt>
      <trkpt lat="45.256748" lon="6.756682">
        <ele>2304.733</ele>
        <time>2018-07-21T10:46:48Z</time>
      </trkpt>
      <trkpt lat="45.256721" lon="6.756736">
        <ele>2303.768</ele>
        <time>2018-07-21T10:46:53Z</time>
      </trkpt>
      <trkpt lat="45.256687" lon="6.756782">
        <ele>2302.957</ele>
        <time>2018-07-21T10:46:57Z</time>
      </trkpt>
      <trkpt lat="45.256636" lon="6.756813">
        <ele>2302.319</ele>
        <time>2018-07-21T10:47:02Z</time>
      </trkpt>
      <trkpt lat="45.256586" lon="6.756843">
        <ele>2302.037</ele>
        <time>2018-07-21T10:47:06Z</time>
      </trkpt>
      <trkpt lat="45.256537" lon="6.756873">
        <ele>2301.243</ele>
        <time>2018-07-21T10:47:10Z</time>
      </trkpt>
      <trkpt lat="45.256492" lon="6.756916">
        <ele>2301.489</ele>
        <time>2018-07-21T10:47:15Z</time>
      </trkpt>
      <trkpt lat="45.256493" lon="6.756850">
        <ele>2299.506</ele>
        <time>2018-07-21T10:47:24Z</time>
      </trkpt>
      <trkpt lat="45.256535" lon="6.756808">
        <ele>2299.726</ele>
        <time>2018-07-21T10:47:28Z</time>
      </trkpt>
      <trkpt lat="45.256575" lon="6.756768">
        <ele>2299.208</ele>
        <time>2018-07-21T10:47:32Z</time>
      </trkpt>
      <trkpt lat="45.256625" lon="6.756740">
        <ele>2298.710</ele>
        <time>2018-07-21T10:47:37Z</time>
      </trkpt>
      <trkpt lat="45.256664" lon="6.756701">
        <ele>2298.285</ele>
        <time>2018-07-21T10:47:42Z</time>
      </trkpt>
      <trkpt lat="45.256692" lon="6.756645">
        <ele>2298.352</ele>
        <time>2018-07-21T10:47:47Z</time>
      </trkpt>
      <trkpt lat="45.256704" lon="6.756579">
        <ele>2298.067</ele>
        <time>2018-07-21T10:47:52Z</time>
      </trkpt>
      <trkpt lat="45.256714" lon="6.756501">
        <ele>2297.046</ele>
        <time>2018-07-21T10:47:57Z</time>
      </trkpt>
      <trkpt lat="45.256717" lon="6.756421">
        <ele>2296.838</ele>
        <time>2018-07-21T10:48:02Z</time>
      </trkpt>
      <trkpt lat="45.256706" lon="6.756348">
        <ele>2296.376</ele>
        <time>2018-07-21T10:48:07Z</time>
      </trkpt>
      <trkpt lat="45.256691" lon="6.756275">
        <ele>2295.422</ele>
        <time>2018-07-21T10:48:12Z</time>
      </trkpt>
      <trkpt lat="45.256689" lon="6.756199">
        <ele>2294.581</ele>
        <time>2018-07-21T10:48:17Z</time>
      </trkpt>
      <trkpt lat="45.256718" lon="6.756132">
        <ele>2294.761</ele>
        <time>2018-07-21T10:48:22Z</time>
      </trkpt>
      <trkpt lat="45.256759" lon="6.756101">
        <ele>2294.817</ele>
        <time>2018-07-21T10:48:27Z</time>
      </trkpt>
      <trkpt lat="45.256802" lon="6.756074">
        <ele>2294.908</ele>
        <time>2018-07-21T10:48:32Z</time>
      </trkpt>
      <trkpt lat="45.256857" lon="6.756046">
        <ele>2294.470</ele>
        <time>2018-07-21T10:48:44Z</time>
      </trkpt>
      <trkpt lat="45.256870" lon="6.756112">
        <ele>2295.145</ele>
        <time>2018-07-21T10:49:39Z</time>
      </trkpt>
      <trkpt lat="45.256914" lon="6.756088">
        <ele>2293.872</ele>
        <time>2018-07-21T10:49:46Z</time>
      </trkpt>
      <trkpt lat="45.256947" lon="6.756038">
        <ele>2292.997</ele>
        <time>2018-07-21T10:49:59Z</time>
      </trkpt>
      <trkpt lat="45.256995" lon="6.756006">
        <ele>2292.166</ele>
        <time>2018-07-21T10:50:04Z</time>
      </trkpt>
      <trkpt lat="45.256981" lon="6.755937">
        <ele>2291.698</ele>
        <time>2018-07-21T10:50:36Z</time>
      </trkpt>
      <trkpt lat="45.256993" lon="6.755855">
        <ele>2290.486</ele>
        <time>2018-07-21T10:50:41Z</time>
      </trkpt>
      <trkpt lat="45.257007" lon="6.755785">
        <ele>2290.012</ele>
        <time>2018-07-21T10:50:45Z</time>
      </trkpt>
      <trkpt lat="45.257030" lon="6.755718">
        <ele>2288.775</ele>
        <time>2018-07-21T10:50:50Z</time>
      </trkpt>
      <trkpt lat="45.257055" lon="6.755660">
        <ele>2288.928</ele>
        <time>2018-07-21T10:50:54Z</time>
      </trkpt>
      <trkpt lat="45.257085" lon="6.755610">
        <ele>2288.520</ele>
        <time>2018-07-21T10:50:58Z</time>
      </trkpt>
      <trkpt lat="45.257103" lon="6.755548">
        <ele>2288.108</ele>
        <time>2018-07-21T10:51:02Z</time>
      </trkpt>
      <trkpt lat="45.257123" lon="6.755476">
        <ele>2287.659</ele>
        <time>2018-07-21T10:51:07Z</time>
      </trkpt>
      <trkpt lat="45.257121" lon="6.755408">
        <ele>2287.374</ele>
        <time>2018-07-21T10:51:12Z</time>
      </trkpt>
      <trkpt lat="45.257102" lon="6.755347">
        <ele>2286.871</ele>
        <time>2018-07-21T10:51:17Z</time>
      </trkpt>
      <trkpt lat="45.257085" lon="6.755276">
        <ele>2287.046</ele>
        <time>2018-07-21T10:51:21Z</time>
      </trkpt>
      <trkpt lat="45.257078" lon="6.755209">
        <ele>2286.955</ele>
        <time>2018-07-21T10:51:26Z</time>
      </trkpt>
      <trkpt lat="45.257051" lon="6.755155">
        <ele>2285.467</ele>
        <time>2018-07-21T10:51:53Z</time>
      </trkpt>
      <trkpt lat="45.257023" lon="6.755091">
        <ele>2284.125</ele>
        <time>2018-07-21T10:51:59Z</time>
      </trkpt>
      <trkpt lat="45.256991" lon="6.755044">
        <ele>2282.941</ele>
        <time>2018-07-21T10:52:04Z</time>
      </trkpt>
      <trkpt lat="45.256963" lon="6.754989">
        <ele>2281.762</ele>
        <time>2018-07-21T10:52:11Z</time>
      </trkpt>
      <trkpt lat="45.256941" lon="6.754925">
        <ele>2281.083</ele>
        <time>2018-07-21T10:52:16Z</time>
      </trkpt>
      <trkpt lat="45.256934" lon="6.754847">
        <ele>2280.311</ele>
        <time>2018-07-21T10:52:21Z</time>
      </trkpt>
      <trkpt lat="45.256935" lon="6.754773">
        <ele>2280.708</ele>
        <time>2018-07-21T10:52:26Z</time>
      </trkpt>
      <trkpt lat="45.256911" lon="6.754710">
        <ele>2281.298</ele>
        <time>2018-07-21T10:52:33Z</time>
      </trkpt>
      <trkpt lat="45.256886" lon="6.754654">
        <ele>2279.693</ele>
        <time>2018-07-21T10:52:45Z</time>
      </trkpt>
      <trkpt lat="45.256858" lon="6.754589">
        <ele>2277.570</ele>
        <time>2018-07-21T10:52:51Z</time>
      </trkpt>
      <trkpt lat="45.256839" lon="6.754527">
        <ele>2279.365</ele>
        <time>2018-07-21T10:52:56Z</time>
      </trkpt>
      <trkpt lat="45.256820" lon="6.754458">
        <ele>2276.594</ele>
        <time>2018-07-21T10:53:01Z</time>
      </trkpt>
      <trkpt lat="45.256781" lon="6.754417">
        <ele>2275.766</ele>
        <time>2018-07-21T10:53:07Z</time>
      </trkpt>
      <trkpt lat="45.256739" lon="6.754377">
        <ele>2274.684</ele>
        <time>2018-07-21T10:53:13Z</time>
      </trkpt>
      <trkpt lat="45.256710" lon="6.754318">
        <ele>2273.790</ele>
        <time>2018-07-21T10:53:18Z</time>
      </trkpt>
      <trkpt lat="45.256681" lon="6.754252">
        <ele>2272.858</ele>
        <time>2018-07-21T10:53:23Z</time>
      </trkpt>
      <trkpt lat="45.256656" lon="6.754183">
        <ele>2271.552</ele>
        <time>2018-07-21T10:53:28Z</time>
      </trkpt>
      <trkpt lat="45.256621" lon="6.754142">
        <ele>2271.317</ele>
        <time>2018-07-21T10:53:32Z</time>
      </trkpt>
      <trkpt lat="45.256573" lon="6.754104">
        <ele>2270.308</ele>
        <time>2018-07-21T10:53:37Z</time>
      </trkpt>
      <trkpt lat="45.256532" lon="6.754074">
        <ele>2270.077</ele>
        <time>2018-07-21T10:53:41Z</time>
      </trkpt>
      <trkpt lat="45.256488" lon="6.754048">
        <ele>2268.922</ele>
        <time>2018-07-21T10:53:46Z</time>
      </trkpt>
      <trkpt lat="45.256438" lon="6.754033">
        <ele>2268.299</ele>
        <time>2018-07-21T10:53:51Z</time>
      </trkpt>
      <trkpt lat="45.256401" lon="6.753996">
        <ele>2269.284</ele>
        <time>2018-07-21T10:53:56Z</time>
      </trkpt>
      <trkpt lat="45.256360" lon="6.753965">
        <ele>2266.893</ele>
        <time>2018-07-21T10:54:00Z</time>
      </trkpt>
      <trkpt lat="45.256318" lon="6.753936">
        <ele>2265.965</ele>
        <time>2018-07-21T10:54:04Z</time>
      </trkpt>
      <trkpt lat="45.256272" lon="6.753891">
        <ele>2264.923</ele>
        <time>2018-07-21T10:54:09Z</time>
      </trkpt>
      <trkpt lat="45.256242" lon="6.753842">
        <ele>2264.479</ele>
        <time>2018-07-21T10:54:13Z</time>
      </trkpt>
      <trkpt lat="45.256205" lon="6.753797">
        <ele>2264.283</ele>
        <time>2018-07-21T10:54:17Z</time>
      </trkpt>
      <trkpt lat="45.256189" lon="6.753729">
        <ele>2263.525</ele>
        <time>2018-07-21T10:54:22Z</time>
      </trkpt>
      <trkpt lat="45.256186" lon="6.753662">
        <ele>2263.017</ele>
        <time>2018-07-21T10:54:27Z</time>
      </trkpt>
      <trkpt lat="45.256189" lon="6.753589">
        <ele>2261.908</ele>
        <time>2018-07-21T10:54:33Z</time>
      </trkpt>
      <trkpt lat="45.256188" lon="6.753519">
        <ele>2261.210</ele>
        <time>2018-07-21T10:54:40Z</time>
      </trkpt>
      <trkpt lat="45.256184" lon="6.753436">
        <ele>2260.195</ele>
        <time>2018-07-21T10:54:45Z</time>
      </trkpt>
      <trkpt lat="45.256180" lon="6.753364">
        <ele>2259.632</ele>
        <time>2018-07-21T10:54:49Z</time>
      </trkpt>
      <trkpt lat="45.256183" lon="6.753288">
        <ele>2258.717</ele>
        <time>2018-07-21T10:54:53Z</time>
      </trkpt>
      <trkpt lat="45.256179" lon="6.753220">
        <ele>2258.156</ele>
        <time>2018-07-21T10:54:57Z</time>
      </trkpt>
      <trkpt lat="45.256177" lon="6.753155">
        <ele>2259.828</ele>
        <time>2018-07-21T10:55:03Z</time>
      </trkpt>
      <trkpt lat="45.256180" lon="6.753085">
        <ele>2258.016</ele>
        <time>2018-07-21T10:55:18Z</time>
      </trkpt>
      <trkpt lat="45.256210" lon="6.753020">
        <ele>2255.172</ele>
        <time>2018-07-21T10:55:24Z</time>
      </trkpt>
      <trkpt lat="45.256246" lon="6.752962">
        <ele>2254.469</ele>
        <time>2018-07-21T10:55:29Z</time>
      </trkpt>
      <trkpt lat="45.256286" lon="6.752910">
        <ele>2253.404</ele>
        <time>2018-07-21T10:55:34Z</time>
      </trkpt>
      <trkpt lat="45.256322" lon="6.752870">
        <ele>2252.924</ele>
        <time>2018-07-21T10:55:38Z</time>
      </trkpt>
      <trkpt lat="45.256362" lon="6.752837">
        <ele>2252.408</ele>
        <time>2018-07-21T10:55:42Z</time>
      </trkpt>
      <trkpt lat="45.256402" lon="6.752805">
        <ele>2251.588</ele>
        <time>2018-07-21T10:55:46Z</time>
      </trkpt>
      <trkpt lat="45.256443" lon="6.752766">
        <ele>2251.463</ele>
        <time>2018-07-21T10:55:50Z</time>
      </trkpt>
      <trkpt lat="45.256483" lon="6.752716">
        <ele>2250.420</ele>
        <time>2018-07-21T10:55:55Z</time>
      </trkpt>
      <trkpt lat="45.256524" lon="6.752679">
        <ele>2252.165</ele>
        <time>2018-07-21T10:55:59Z</time>
      </trkpt>
      <trkpt lat="45.256568" lon="6.752648">
        <ele>2249.494</ele>
        <time>2018-07-21T10:56:07Z</time>
      </trkpt>
      <trkpt lat="45.256621" lon="6.752633">
        <ele>2248.446</ele>
        <time>2018-07-21T10:56:23Z</time>
      </trkpt>
      <trkpt lat="45.256667" lon="6.752606">
        <ele>2247.364</ele>
        <time>2018-07-21T10:56:27Z</time>
      </trkpt>
      <trkpt lat="45.256717" lon="6.752578">
        <ele>2247.290</ele>
        <time>2018-07-21T10:56:32Z</time>
      </trkpt>
      <trkpt lat="45.256770" lon="6.752583">
        <ele>2246.655</ele>
        <time>2018-07-21T10:56:37Z</time>
      </trkpt>
      <trkpt lat="45.256815" lon="6.752600">
        <ele>2246.307</ele>
        <time>2018-07-21T10:56:41Z</time>
      </trkpt>
      <trkpt lat="45.256869" lon="6.752579">
        <ele>2245.817</ele>
        <time>2018-07-21T10:56:45Z</time>
      </trkpt>
      <trkpt lat="45.256919" lon="6.752572">
        <ele>2246.008</ele>
        <time>2018-07-21T10:56:49Z</time>
      </trkpt>
      <trkpt lat="45.256964" lon="6.752555">
        <ele>2246.727</ele>
        <time>2018-07-21T10:56:52Z</time>
      </trkpt>
      <trkpt lat="45.257019" lon="6.752548">
        <ele>2246.142</ele>
        <time>2018-07-21T10:56:56Z</time>
      </trkpt>
      <trkpt lat="45.257068" lon="6.752530">
        <ele>2246.349</ele>
        <time>2018-07-21T10:57:01Z</time>
      </trkpt>
      <trkpt lat="45.257119" lon="6.752514">
        <ele>2246.744</ele>
        <time>2018-07-21T10:57:07Z</time>
      </trkpt>
      <trkpt lat="45.257173" lon="6.752509">
        <ele>2246.583</ele>
        <time>2018-07-21T10:57:13Z</time>
      </trkpt>
      <trkpt lat="45.257223" lon="6.752501">
        <ele>2245.215</ele>
        <time>2018-07-21T10:57:18Z</time>
      </trkpt>
      <trkpt lat="45.257218" lon="6.752434">
        <ele>2244.363</ele>
        <time>2018-07-21T10:57:31Z</time>
      </trkpt>
      <trkpt lat="45.257200" lon="6.752366">
        <ele>2239.799</ele>
        <time>2018-07-21T10:57:42Z</time>
      </trkpt>
      <trkpt lat="45.257158" lon="6.752338">
        <ele>2238.275</ele>
        <time>2018-07-21T10:57:47Z</time>
      </trkpt>
      <trkpt lat="45.257103" lon="6.752323">
        <ele>2238.928</ele>
        <time>2018-07-21T10:57:52Z</time>
      </trkpt>
      <trkpt lat="45.257061" lon="6.752293">
        <ele>2237.720</ele>
        <time>2018-07-21T10:57:57Z</time>
      </trkpt>
      <trkpt lat="45.257016" lon="6.752282">
        <ele>2236.308</ele>
        <time>2018-07-21T10:58:02Z</time>
      </trkpt>
      <trkpt lat="45.256973" lon="6.752300">
        <ele>2235.139</ele>
        <time>2018-07-21T10:58:07Z</time>
      </trkpt>
      <trkpt lat="45.256919" lon="6.752289">
        <ele>2235.144</ele>
        <time>2018-07-21T10:58:13Z</time>
      </trkpt>
      <trkpt lat="45.256877" lon="6.752266">
        <ele>2234.021</ele>
        <time>2018-07-21T10:58:17Z</time>
      </trkpt>
      <trkpt lat="45.256836" lon="6.752237">
        <ele>2233.466</ele>
        <time>2018-07-21T10:58:22Z</time>
      </trkpt>
      <trkpt lat="45.256876" lon="6.752185">
        <ele>2229.765</ele>
        <time>2018-07-21T10:58:31Z</time>
      </trkpt>
      <trkpt lat="45.256907" lon="6.752138">
        <ele>2228.277</ele>
        <time>2018-07-21T10:58:40Z</time>
      </trkpt>
      <trkpt lat="45.256861" lon="6.752140">
        <ele>2225.215</ele>
        <time>2018-07-21T10:58:52Z</time>
      </trkpt>
      <trkpt lat="45.256813" lon="6.752156">
        <ele>2225.241</ele>
        <time>2018-07-21T10:59:00Z</time>
      </trkpt>
      <trkpt lat="45.256769" lon="6.752136">
        <ele>2224.359</ele>
        <time>2018-07-21T10:59:05Z</time>
      </trkpt>
      <trkpt lat="45.256720" lon="6.752146">
        <ele>2221.503</ele>
        <time>2018-07-21T10:59:12Z</time>
      </trkpt>
      <trkpt lat="45.256672" lon="6.752128">
        <ele>2220.023</ele>
        <time>2018-07-21T10:59:22Z</time>
      </trkpt>
      <trkpt lat="45.256648" lon="6.752061">
        <ele>2218.908</ele>
        <time>2018-07-21T10:59:29Z</time>
      </trkpt>
      <trkpt lat="45.256626" lon="6.751996">
        <ele>2219.737</ele>
        <time>2018-07-21T10:59:35Z</time>
      </trkpt>
      <trkpt lat="45.256588" lon="6.751951">
        <ele>2219.012</ele>
        <time>2018-07-21T10:59:53Z</time>
      </trkpt>
      <trkpt lat="45.256593" lon="6.751875">
        <ele>2217.589</ele>
        <time>2018-07-21T10:59:59Z</time>
      </trkpt>
      <trkpt lat="45.256578" lon="6.751800">
        <ele>2218.944</ele>
        <time>2018-07-21T11:00:03Z</time>
      </trkpt>
      <trkpt lat="45.256564" lon="6.751736">
        <ele>2219.233</ele>
        <time>2018-07-21T11:00:07Z</time>
      </trkpt>
      <trkpt lat="45.256544" lon="6.751666">
        <ele>2218.315</ele>
        <time>2018-07-21T11:00:12Z</time>
      </trkpt>
      <trkpt lat="45.256517" lon="6.751603">
        <ele>2220.083</ele>
        <time>2018-07-21T11:00:17Z</time>
      </trkpt>
      <trkpt lat="45.256500" lon="6.751540">
        <ele>2220.859</ele>
        <time>2018-07-21T11:00:23Z</time>
      </trkpt>
      <trkpt lat="45.256508" lon="6.751470">
        <ele>2219.782</ele>
        <time>2018-07-21T11:00:30Z</time>
      </trkpt>
      <trkpt lat="45.256510" lon="6.751405">
        <ele>2219.343</ele>
        <time>2018-07-21T11:00:36Z</time>
      </trkpt>
      <trkpt lat="45.256514" lon="6.751329">
        <ele>2219.317</ele>
        <time>2018-07-21T11:00:41Z</time>
      </trkpt>
      <trkpt lat="45.256533" lon="6.751268">
        <ele>2220.108</ele>
        <time>2018-07-21T11:00:46Z</time>
      </trkpt>
      <trkpt lat="45.256555" lon="6.751201">
        <ele>2220.730</ele>
        <time>2018-07-21T11:00:52Z</time>
      </trkpt>
      <trkpt lat="45.256564" lon="6.751133">
        <ele>2220.825</ele>
        <time>2018-07-21T11:00:57Z</time>
      </trkpt>
      <trkpt lat="45.256591" lon="6.751067">
        <ele>2222.612</ele>
        <time>2018-07-21T11:01:02Z</time>
      </trkpt>
      <trkpt lat="45.256620" lon="6.751013">
        <ele>2223.777</ele>
        <time>2018-07-21T11:01:07Z</time>
      </trkpt>
      <trkpt lat="45.256650" lon="6.750959">
        <ele>2222.976</ele>
        <time>2018-07-21T11:01:13Z</time>
      </trkpt>
      <trkpt lat="45.256673" lon="6.750892">
        <ele>2223.258</ele>
        <time>2018-07-21T11:01:19Z</time>
      </trkpt>
      <trkpt lat="45.256688" lon="6.750822">
        <ele>2225.566</ele>
        <time>2018-07-21T11:01:24Z</time>
      </trkpt>
      <trkpt lat="45.256710" lon="6.750756">
        <ele>2226.332</ele>
        <time>2018-07-21T11:01:30Z</time>
      </trkpt>
      <trkpt lat="45.256727" lon="6.750697">
        <ele>2224.617</ele>
        <time>2018-07-21T11:01:35Z</time>
      </trkpt>
      <trkpt lat="45.256758" lon="6.750642">
        <ele>2225.187</ele>
        <time>2018-07-21T11:01:42Z</time>
      </trkpt>
      <trkpt lat="45.256797" lon="6.750601">
        <ele>2225.515</ele>
        <time>2018-07-21T11:01:49Z</time>
      </trkpt>
      <trkpt lat="45.256828" lon="6.750550">
        <ele>2228.208</ele>
        <time>2018-07-21T11:02:06Z</time>
      </trkpt>
      <trkpt lat="45.256872" lon="6.750521">
        <ele>2228.063</ele>
        <time>2018-07-21T11:02:23Z</time>
      </trkpt>
      <trkpt lat="45.256911" lon="6.750479">
        <ele>2228.258</ele>
        <time>2018-07-21T11:02:30Z</time>
      </trkpt>
      <trkpt lat="45.256954" lon="6.750441">
        <ele>2227.355</ele>
        <time>2018-07-21T11:02:35Z</time>
      </trkpt>
      <trkpt lat="45.256995" lon="6.750395">
        <ele>2227.220</ele>
        <time>2018-07-21T11:02:40Z</time>
      </trkpt>
      <trkpt lat="45.257011" lon="6.750334">
        <ele>2227.849</ele>
        <time>2018-07-21T11:02:45Z</time>
      </trkpt>
      <trkpt lat="45.257025" lon="6.750268">
        <ele>2228.231</ele>
        <time>2018-07-21T11:02:50Z</time>
      </trkpt>
      <trkpt lat="45.257042" lon="6.750203">
        <ele>2229.429</ele>
        <time>2018-07-21T11:02:58Z</time>
      </trkpt>
      <trkpt lat="45.257027" lon="6.750136">
        <ele>2230.655</ele>
        <time>2018-07-21T11:03:09Z</time>
      </trkpt>
      <trkpt lat="45.257023" lon="6.750054">
        <ele>2230.932</ele>
        <time>2018-07-21T11:03:16Z</time>
      </trkpt>
      <trkpt lat="45.256999" lon="6.749990">
        <ele>2231.692</ele>
        <time>2018-07-21T11:03:21Z</time>
      </trkpt>
      <trkpt lat="45.256967" lon="6.749930">
        <ele>2231.411</ele>
        <time>2018-07-21T11:03:27Z</time>
      </trkpt>
      <trkpt lat="45.256941" lon="6.749868">
        <ele>2231.708</ele>
        <time>2018-07-21T11:03:32Z</time>
      </trkpt>
      <trkpt lat="45.256904" lon="6.749814">
        <ele>2231.295</ele>
        <time>2018-07-21T11:03:41Z</time>
      </trkpt>
      <trkpt lat="45.256868" lon="6.749774">
        <ele>2231.750</ele>
        <time>2018-07-21T11:03:47Z</time>
      </trkpt>
      <trkpt lat="45.256826" lon="6.749740">
        <ele>2234.057</ele>
        <time>2018-07-21T11:03:52Z</time>
      </trkpt>
      <trkpt lat="45.256779" lon="6.749727">
        <ele>2234.732</ele>
        <time>2018-07-21T11:03:58Z</time>
      </trkpt>
      <trkpt lat="45.256737" lon="6.749688">
        <ele>2233.371</ele>
        <time>2018-07-21T11:04:05Z</time>
      </trkpt>
      <trkpt lat="45.256709" lon="6.749624">
        <ele>2233.623</ele>
        <time>2018-07-21T11:04:11Z</time>
      </trkpt>
      <trkpt lat="45.256689" lon="6.749564">
        <ele>2233.581</ele>
        <time>2018-07-21T11:04:16Z</time>
      </trkpt>
      <trkpt lat="45.256660" lon="6.749511">
        <ele>2232.647</ele>
        <time>2018-07-21T11:04:23Z</time>
      </trkpt>
      <trkpt lat="45.256657" lon="6.749441">
        <ele>2233.029</ele>
        <time>2018-07-21T11:04:29Z</time>
      </trkpt>
      <trkpt lat="45.256638" lon="6.749374">
        <ele>2233.300</ele>
        <time>2018-07-21T11:04:36Z</time>
      </trkpt>
      <trkpt lat="45.256620" lon="6.749306">
        <ele>2233.220</ele>
        <time>2018-07-21T11:04:41Z</time>
      </trkpt>
      <trkpt lat="45.256597" lon="6.749245">
        <ele>2234.008</ele>
        <time>2018-07-21T11:04:47Z</time>
      </trkpt>
      <trkpt lat="45.256573" lon="6.749184">
        <ele>2234.114</ele>
        <time>2018-07-21T11:04:54Z</time>
      </trkpt>
      <trkpt lat="45.256558" lon="6.749120">
        <ele>2237.789</ele>
        <time>2018-07-21T11:05:02Z</time>
      </trkpt>
      <trkpt lat="45.256530" lon="6.749059">
        <ele>2236.236</ele>
        <time>2018-07-21T11:05:08Z</time>
      </trkpt>
      <trkpt lat="45.256507" lon="6.748996">
        <ele>2236.651</ele>
        <time>2018-07-21T11:05:15Z</time>
      </trkpt>
      <trkpt lat="45.256488" lon="6.748937">
        <ele>2239.150</ele>
        <time>2018-07-21T11:05:26Z</time>
      </trkpt>
      <trkpt lat="45.256470" lon="6.748877">
        <ele>2238.252</ele>
        <time>2018-07-21T11:05:47Z</time>
      </trkpt>
      <trkpt lat="45.256426" lon="6.748825">
        <ele>2241.690</ele>
        <time>2018-07-21T11:05:59Z</time>
      </trkpt>
      <trkpt lat="45.256393" lon="6.748776">
        <ele>2241.866</ele>
        <time>2018-07-21T11:06:06Z</time>
      </trkpt>
      <trkpt lat="45.256376" lon="6.748706">
        <ele>2241.599</ele>
        <time>2018-07-21T11:06:12Z</time>
      </trkpt>
      <trkpt lat="45.256356" lon="6.748639">
        <ele>2242.207</ele>
        <time>2018-07-21T11:06:17Z</time>
      </trkpt>
      <trkpt lat="45.256345" lon="6.748577">
        <ele>2242.127</ele>
        <time>2018-07-21T11:06:21Z</time>
      </trkpt>
      <trkpt lat="45.256330" lon="6.748504">
        <ele>2241.708</ele>
        <time>2018-07-21T11:06:26Z</time>
      </trkpt>
      <trkpt lat="45.256310" lon="6.748446">
        <ele>2240.821</ele>
        <time>2018-07-21T11:06:31Z</time>
      </trkpt>
      <trkpt lat="45.256287" lon="6.748381">
        <ele>2241.446</ele>
        <time>2018-07-21T11:06:36Z</time>
      </trkpt>
      <trkpt lat="45.256273" lon="6.748314">
        <ele>2242.123</ele>
        <time>2018-07-21T11:06:41Z</time>
      </trkpt>
      <trkpt lat="45.256276" lon="6.748249">
        <ele>2243.098</ele>
        <time>2018-07-21T11:06:49Z</time>
      </trkpt>
      <trkpt lat="45.256241" lon="6.748201">
        <ele>2242.887</ele>
        <time>2018-07-21T11:06:58Z</time>
      </trkpt>
      <trkpt lat="45.256220" lon="6.748140">
        <ele>2241.519</ele>
        <time>2018-07-21T11:07:03Z</time>
      </trkpt>
      <trkpt lat="45.256199" lon="6.748072">
        <ele>2241.097</ele>
        <time>2018-07-21T11:07:08Z</time>
      </trkpt>
      <trkpt lat="45.256177" lon="6.748013">
        <ele>2241.283</ele>
        <time>2018-07-21T11:07:12Z</time>
      </trkpt>
      <trkpt lat="45.256149" lon="6.747953">
        <ele>2241.394</ele>
        <time>2018-07-21T11:07:16Z</time>
      </trkpt>
      <trkpt lat="45.256131" lon="6.747893">
        <ele>2243.457</ele>
        <time>2018-07-21T11:07:20Z</time>
      </trkpt>
      <trkpt lat="45.256113" lon="6.747824">
        <ele>2243.422</ele>
        <time>2018-07-21T11:07:25Z</time>
      </trkpt>
      <trkpt lat="45.256088" lon="6.747769">
        <ele>2243.108</ele>
        <time>2018-07-21T11:07:31Z</time>
      </trkpt>
      <trkpt lat="45.256075" lon="6.747706">
        <ele>2242.231</ele>
        <time>2018-07-21T11:07:37Z</time>
      </trkpt>
      <trkpt lat="45.256088" lon="6.747633">
        <ele>2241.986</ele>
        <time>2018-07-21T11:07:42Z</time>
      </trkpt>
      <trkpt lat="45.256097" lon="6.747567">
        <ele>2241.473</ele>
        <time>2018-07-21T11:07:46Z</time>
      </trkpt>
      <trkpt lat="45.256089" lon="6.747494">
        <ele>2241.558</ele>
        <time>2018-07-21T11:07:50Z</time>
      </trkpt>
      <trkpt lat="45.256070" lon="6.747433">
        <ele>2241.747</ele>
        <time>2018-07-21T11:07:54Z</time>
      </trkpt>
      <trkpt lat="45.256044" lon="6.747365">
        <ele>2241.859</ele>
        <time>2018-07-21T11:07:59Z</time>
      </trkpt>
      <trkpt lat="45.256030" lon="6.747292">
        <ele>2242.727</ele>
        <time>2018-07-21T11:08:04Z</time>
      </trkpt>
      <trkpt lat="45.256014" lon="6.747223">
        <ele>2243.223</ele>
        <time>2018-07-21T11:08:09Z</time>
      </trkpt>
      <trkpt lat="45.256002" lon="6.747154">
        <ele>2243.979</ele>
        <time>2018-07-21T11:08:14Z</time>
      </trkpt>
      <trkpt lat="45.255983" lon="6.747089">
        <ele>2244.705</ele>
        <time>2018-07-21T11:08:20Z</time>
      </trkpt>
      <trkpt lat="45.255962" lon="6.747030">
        <ele>2245.725</ele>
        <time>2018-07-21T11:08:26Z</time>
      </trkpt>
      <trkpt lat="45.255938" lon="6.746972">
        <ele>2246.808</ele>
        <time>2018-07-21T11:08:33Z</time>
      </trkpt>
      <trkpt lat="45.255917" lon="6.746913">
        <ele>2247.269</ele>
        <time>2018-07-21T11:08:38Z</time>
      </trkpt>
      <trkpt lat="45.255925" lon="6.746847">
        <ele>2248.084</ele>
        <time>2018-07-21T11:08:43Z</time>
      </trkpt>
      <trkpt lat="45.255964" lon="6.746800">
        <ele>2249.081</ele>
        <time>2018-07-21T11:08:51Z</time>
      </trkpt>
      <trkpt lat="45.255997" lon="6.746747">
        <ele>2249.886</ele>
        <time>2018-07-21T11:08:59Z</time>
      </trkpt>
      <trkpt lat="45.256016" lon="6.746683">
        <ele>2250.855</ele>
        <time>2018-07-21T11:09:07Z</time>
      </trkpt>
      <trkpt lat="45.256044" lon="6.746627">
        <ele>2251.737</ele>
        <time>2018-07-21T11:09:16Z</time>
      </trkpt>
      <trkpt lat="45.256075" lon="6.746575">
        <ele>2252.565</ele>
        <time>2018-07-21T11:09:23Z</time>
      </trkpt>
      <trkpt lat="45.256107" lon="6.746525">
        <ele>2253.551</ele>
        <time>2018-07-21T11:09:32Z</time>
      </trkpt>
      <trkpt lat="45.256135" lon="6.746461">
        <ele>2254.556</ele>
        <time>2018-07-21T11:09:39Z</time>
      </trkpt>
      <trkpt lat="45.256174" lon="6.746416">
        <ele>2255.059</ele>
        <time>2018-07-21T11:09:47Z</time>
      </trkpt>
      <trkpt lat="45.256214" lon="6.746371">
        <ele>2256.114</ele>
        <time>2018-07-21T11:09:57Z</time>
      </trkpt>
      <trkpt lat="45.256246" lon="6.746324">
        <ele>2257.308</ele>
        <time>2018-07-21T11:10:05Z</time>
      </trkpt>
      <trkpt lat="45.256282" lon="6.746278">
        <ele>2257.857</ele>
        <time>2018-07-21T11:10:13Z</time>
      </trkpt>
      <trkpt lat="45.256313" lon="6.746227">
        <ele>2258.622</ele>
        <time>2018-07-21T11:10:19Z</time>
      </trkpt>
      <trkpt lat="45.256344" lon="6.746164">
        <ele>2259.079</ele>
        <time>2018-07-21T11:10:26Z</time>
      </trkpt>
      <trkpt lat="45.256380" lon="6.746107">
        <ele>2259.674</ele>
        <time>2018-07-21T11:10:33Z</time>
      </trkpt>
      <trkpt lat="45.256416" lon="6.746055">
        <ele>2260.653</ele>
        <time>2018-07-21T11:10:40Z</time>
      </trkpt>
      <trkpt lat="45.256454" lon="6.746017">
        <ele>2261.275</ele>
        <time>2018-07-21T11:10:48Z</time>
      </trkpt>
      <trkpt lat="45.256488" lon="6.745972">
        <ele>2262.583</ele>
        <time>2018-07-21T11:10:57Z</time>
      </trkpt>
      <trkpt lat="45.256531" lon="6.745949">
        <ele>2266.049</ele>
        <time>2018-07-21T11:11:05Z</time>
      </trkpt>
      <trkpt lat="45.256576" lon="6.745923">
        <ele>2264.232</ele>
        <time>2018-07-21T11:11:12Z</time>
      </trkpt>
      <trkpt lat="45.256607" lon="6.745876">
        <ele>2265.092</ele>
        <time>2018-07-21T11:11:19Z</time>
      </trkpt>
      <trkpt lat="45.256645" lon="6.745830">
        <ele>2266.511</ele>
        <time>2018-07-21T11:11:26Z</time>
      </trkpt>
      <trkpt lat="45.256688" lon="6.745800">
        <ele>2265.508</ele>
        <time>2018-07-21T11:11:34Z</time>
      </trkpt>
      <trkpt lat="45.256702" lon="6.745724">
        <ele>2266.545</ele>
        <time>2018-07-21T11:11:39Z</time>
      </trkpt>
      <trkpt lat="45.256733" lon="6.745672">
        <ele>2267.190</ele>
        <time>2018-07-21T11:11:45Z</time>
      </trkpt>
      <trkpt lat="45.256778" lon="6.745640">
        <ele>2268.317</ele>
        <time>2018-07-21T11:11:54Z</time>
      </trkpt>
      <trkpt lat="45.256817" lon="6.745591">
        <ele>2268.612</ele>
        <time>2018-07-21T11:12:00Z</time>
      </trkpt>
      <trkpt lat="45.256857" lon="6.745545">
        <ele>2268.751</ele>
        <time>2018-07-21T11:12:07Z</time>
      </trkpt>
      <trkpt lat="45.256885" lon="6.745485">
        <ele>2268.943</ele>
        <time>2018-07-21T11:12:14Z</time>
      </trkpt>
      <trkpt lat="45.256899" lon="6.745420">
        <ele>2270.811</ele>
        <time>2018-07-21T11:12:23Z</time>
      </trkpt>
      <trkpt lat="45.256911" lon="6.745344">
        <ele>2269.247</ele>
        <time>2018-07-21T11:12:30Z</time>
      </trkpt>
      <trkpt lat="45.256906" lon="6.745267">
        <ele>2269.148</ele>
        <time>2018-07-21T11:12:35Z</time>
      </trkpt>
      <trkpt lat="45.256882" lon="6.745198">
        <ele>2269.661</ele>
        <time>2018-07-21T11:12:39Z</time>
      </trkpt>
      <trkpt lat="45.256850" lon="6.745136">
        <ele>2270.917</ele>
        <time>2018-07-21T11:12:46Z</time>
      </trkpt>
      <trkpt lat="45.256805" lon="6.745103">
        <ele>2271.008</ele>
        <time>2018-07-21T11:12:51Z</time>
      </trkpt>
      <trkpt lat="45.256765" lon="6.745065">
        <ele>2269.036</ele>
        <time>2018-07-21T11:12:56Z</time>
      </trkpt>
      <trkpt lat="45.256717" lon="6.745030">
        <ele>2269.181</ele>
        <time>2018-07-21T11:13:02Z</time>
      </trkpt>
      <trkpt lat="45.256667" lon="6.744999">
        <ele>2268.518</ele>
        <time>2018-07-21T11:13:07Z</time>
      </trkpt>
      <trkpt lat="45.256616" lon="6.744971">
        <ele>2268.233</ele>
        <time>2018-07-21T11:13:12Z</time>
      </trkpt>
      <trkpt lat="45.256567" lon="6.744939">
        <ele>2268.512</ele>
        <time>2018-07-21T11:13:17Z</time>
      </trkpt>
      <trkpt lat="45.256523" lon="6.744911">
        <ele>2269.084</ele>
        <time>2018-07-21T11:13:22Z</time>
      </trkpt>
      <trkpt lat="45.256475" lon="6.744874">
        <ele>2269.192</ele>
        <time>2018-07-21T11:13:28Z</time>
      </trkpt>
      <trkpt lat="45.256434" lon="6.744836">
        <ele>2270.138</ele>
        <time>2018-07-21T11:13:33Z</time>
      </trkpt>
      <trkpt lat="45.256390" lon="6.744797">
        <ele>2271.069</ele>
        <time>2018-07-21T11:13:39Z</time>
      </trkpt>
      <trkpt lat="45.256347" lon="6.744776">
        <ele>2270.804</ele>
        <time>2018-07-21T11:13:43Z</time>
      </trkpt>
      <trkpt lat="45.256301" lon="6.744765">
        <ele>2270.324</ele>
        <time>2018-07-21T11:13:47Z</time>
      </trkpt>
      <trkpt lat="45.256245" lon="6.744750">
        <ele>2270.408</ele>
        <time>2018-07-21T11:13:52Z</time>
      </trkpt>
      <trkpt lat="45.256199" lon="6.744731">
        <ele>2270.418</ele>
        <time>2018-07-21T11:13:56Z</time>
      </trkpt>
      <trkpt lat="45.256154" lon="6.744702">
        <ele>2271.093</ele>
        <time>2018-07-21T11:14:01Z</time>
      </trkpt>
      <trkpt lat="45.256110" lon="6.744659">
        <ele>2272.010</ele>
        <time>2018-07-21T11:14:05Z</time>
      </trkpt>
      <trkpt lat="45.256073" lon="6.744613">
        <ele>2272.145</ele>
        <time>2018-07-21T11:14:08Z</time>
      </trkpt>
      <trkpt lat="45.256029" lon="6.744591">
        <ele>2272.554</ele>
        <time>2018-07-21T11:14:11Z</time>
      </trkpt>
      <trkpt lat="45.255982" lon="6.744592">
        <ele>2270.676</ele>
        <time>2018-07-21T11:14:18Z</time>
      </trkpt>
      <trkpt lat="45.255936" lon="6.744570">
        <ele>2271.144</ele>
        <time>2018-07-21T11:14:25Z</time>
      </trkpt>
      <trkpt lat="45.255899" lon="6.744526">
        <ele>2271.570</ele>
        <time>2018-07-21T11:14:31Z</time>
      </trkpt>
      <trkpt lat="45.255858" lon="6.744482">
        <ele>2271.479</ele>
        <time>2018-07-21T11:14:36Z</time>
      </trkpt>
      <trkpt lat="45.255814" lon="6.744436">
        <ele>2271.005</ele>
        <time>2018-07-21T11:14:41Z</time>
      </trkpt>
      <trkpt lat="45.255769" lon="6.744382">
        <ele>2271.025</ele>
        <time>2018-07-21T11:14:51Z</time>
      </trkpt>
      <trkpt lat="45.255724" lon="6.744343">
        <ele>2270.408</ele>
        <time>2018-07-21T11:14:57Z</time>
      </trkpt>
      <trkpt lat="45.255687" lon="6.744302">
        <ele>2272.629</ele>
        <time>2018-07-21T11:15:01Z</time>
      </trkpt>
      <trkpt lat="45.255650" lon="6.744258">
        <ele>2270.614</ele>
        <time>2018-07-21T11:15:05Z</time>
      </trkpt>
      <trkpt lat="45.255614" lon="6.744216">
        <ele>2269.781</ele>
        <time>2018-07-21T11:15:09Z</time>
      </trkpt>
      <trkpt lat="45.255573" lon="6.744167">
        <ele>2270.986</ele>
        <time>2018-07-21T11:15:14Z</time>
      </trkpt>
      <trkpt lat="45.255539" lon="6.744124">
        <ele>2270.065</ele>
        <time>2018-07-21T11:15:18Z</time>
      </trkpt>
      <trkpt lat="45.255504" lon="6.744080">
        <ele>2270.127</ele>
        <time>2018-07-21T11:15:22Z</time>
      </trkpt>
      <trkpt lat="45.255466" lon="6.744033">
        <ele>2269.875</ele>
        <time>2018-07-21T11:15:26Z</time>
      </trkpt>
      <trkpt lat="45.255429" lon="6.743989">
        <ele>2269.831</ele>
        <time>2018-07-21T11:15:30Z</time>
      </trkpt>
      <trkpt lat="45.255391" lon="6.743947">
        <ele>2269.493</ele>
        <time>2018-07-21T11:15:34Z</time>
      </trkpt>
      <trkpt lat="45.255351" lon="6.743894">
        <ele>2269.665</ele>
        <time>2018-07-21T11:15:39Z</time>
      </trkpt>
      <trkpt lat="45.255318" lon="6.743836">
        <ele>2269.921</ele>
        <time>2018-07-21T11:15:43Z</time>
      </trkpt>
      <trkpt lat="45.255289" lon="6.743781">
        <ele>2269.708</ele>
        <time>2018-07-21T11:15:47Z</time>
      </trkpt>
      <trkpt lat="45.255263" lon="6.743726">
        <ele>2269.311</ele>
        <time>2018-07-21T11:15:51Z</time>
      </trkpt>
      <trkpt lat="45.255235" lon="6.743662">
        <ele>2268.796</ele>
        <time>2018-07-21T11:15:56Z</time>
      </trkpt>
      <trkpt lat="45.255208" lon="6.743598">
        <ele>2268.753</ele>
        <time>2018-07-21T11:16:01Z</time>
      </trkpt>
      <trkpt lat="45.255197" lon="6.743532">
        <ele>2268.158</ele>
        <time>2018-07-21T11:16:06Z</time>
      </trkpt>
      <trkpt lat="45.255184" lon="6.743459">
        <ele>2268.057</ele>
        <time>2018-07-21T11:16:11Z</time>
      </trkpt>
      <trkpt lat="45.255173" lon="6.743391">
        <ele>2268.799</ele>
        <time>2018-07-21T11:16:16Z</time>
      </trkpt>
      <trkpt lat="45.255156" lon="6.743332">
        <ele>2267.357</ele>
        <time>2018-07-21T11:16:20Z</time>
      </trkpt>
      <trkpt lat="45.255141" lon="6.743267">
        <ele>2267.653</ele>
        <time>2018-07-21T11:16:24Z</time>
      </trkpt>
      <trkpt lat="45.255127" lon="6.743198">
        <ele>2265.531</ele>
        <time>2018-07-21T11:16:28Z</time>
      </trkpt>
      <trkpt lat="45.255117" lon="6.743132">
        <ele>2265.361</ele>
        <time>2018-07-21T11:16:32Z</time>
      </trkpt>
      <trkpt lat="45.255113" lon="6.743065">
        <ele>2267.207</ele>
        <time>2018-07-21T11:16:36Z</time>
      </trkpt>
      <trkpt lat="45.255104" lon="6.742988">
        <ele>2264.708</ele>
        <time>2018-07-21T11:16:41Z</time>
      </trkpt>
      <trkpt lat="45.255101" lon="6.742909">
        <ele>2264.065</ele>
        <time>2018-07-21T11:16:46Z</time>
      </trkpt>
      <trkpt lat="45.255108" lon="6.742845">
        <ele>2263.790</ele>
        <time>2018-07-21T11:17:05Z</time>
      </trkpt>
      <trkpt lat="45.255101" lon="6.742776">
        <ele>2263.427</ele>
        <time>2018-07-21T11:17:10Z</time>
      </trkpt>
      <trkpt lat="45.255099" lon="6.742710">
        <ele>2264.862</ele>
        <time>2018-07-21T11:17:14Z</time>
      </trkpt>
      <trkpt lat="45.255092" lon="6.742645">
        <ele>2264.241</ele>
        <time>2018-07-21T11:17:18Z</time>
      </trkpt>
      <trkpt lat="45.255071" lon="6.742582">
        <ele>2264.323</ele>
        <time>2018-07-21T11:17:23Z</time>
      </trkpt>
      <trkpt lat="45.255039" lon="6.742533">
        <ele>2263.971</ele>
        <time>2018-07-21T11:17:28Z</time>
      </trkpt>
      <trkpt lat="45.255009" lon="6.742477">
        <ele>2264.087</ele>
        <time>2018-07-21T11:17:33Z</time>
      </trkpt>
      <trkpt lat="45.254992" lon="6.742417">
        <ele>2263.768</ele>
        <time>2018-07-21T11:17:37Z</time>
      </trkpt>
      <trkpt lat="45.254971" lon="6.742357">
        <ele>2263.942</ele>
        <time>2018-07-21T11:17:41Z</time>
      </trkpt>
      <trkpt lat="45.254939" lon="6.742306">
        <ele>2263.726</ele>
        <time>2018-07-21T11:17:45Z</time>
      </trkpt>
      <trkpt lat="45.254900" lon="6.742270">
        <ele>2266.208</ele>
        <time>2018-07-21T11:17:49Z</time>
      </trkpt>
      <trkpt lat="45.254862" lon="6.742232">
        <ele>2264.728</ele>
        <time>2018-07-21T11:17:53Z</time>
      </trkpt>
      <trkpt lat="45.254831" lon="6.742186">
        <ele>2264.643</ele>
        <time>2018-07-21T11:17:57Z</time>
      </trkpt>
      <trkpt lat="45.254796" lon="6.742145">
        <ele>2265.160</ele>
        <time>2018-07-21T11:18:08Z</time>
      </trkpt>
      <trkpt lat="45.254749" lon="6.742130">
        <ele>2265.035</ele>
        <time>2018-07-21T11:18:13Z</time>
      </trkpt>
      <trkpt lat="45.254705" lon="6.742099">
        <ele>2266.054</ele>
        <time>2018-07-21T11:18:17Z</time>
      </trkpt>
      <trkpt lat="45.254666" lon="6.742055">
        <ele>2263.276</ele>
        <time>2018-07-21T11:18:21Z</time>
      </trkpt>
      <trkpt lat="45.254630" lon="6.742015">
        <ele>2263.394</ele>
        <time>2018-07-21T11:18:25Z</time>
      </trkpt>
      <trkpt lat="45.254596" lon="6.741969">
        <ele>2262.450</ele>
        <time>2018-07-21T11:18:29Z</time>
      </trkpt>
      <trkpt lat="45.254561" lon="6.741919">
        <ele>2261.989</ele>
        <time>2018-07-21T11:18:33Z</time>
      </trkpt>
      <trkpt lat="45.254527" lon="6.741872">
        <ele>2262.006</ele>
        <time>2018-07-21T11:18:37Z</time>
      </trkpt>
      <trkpt lat="45.254495" lon="6.741821">
        <ele>2260.926</ele>
        <time>2018-07-21T11:18:41Z</time>
      </trkpt>
      <trkpt lat="45.254461" lon="6.741773">
        <ele>2260.308</ele>
        <time>2018-07-21T11:18:45Z</time>
      </trkpt>
      <trkpt lat="45.254425" lon="6.741725">
        <ele>2259.750</ele>
        <time>2018-07-21T11:18:49Z</time>
      </trkpt>
      <trkpt lat="45.254384" lon="6.741680">
        <ele>2259.935</ele>
        <time>2018-07-21T11:18:53Z</time>
      </trkpt>
      <trkpt lat="45.254345" lon="6.741635">
        <ele>2260.772</ele>
        <time>2018-07-21T11:18:57Z</time>
      </trkpt>
      <trkpt lat="45.254308" lon="6.741598">
        <ele>2260.327</ele>
        <time>2018-07-21T11:19:01Z</time>
      </trkpt>
      <trkpt lat="45.254267" lon="6.741572">
        <ele>2259.146</ele>
        <time>2018-07-21T11:19:05Z</time>
      </trkpt>
      <trkpt lat="45.254216" lon="6.741553">
        <ele>2257.318</ele>
        <time>2018-07-21T11:19:10Z</time>
      </trkpt>
      <trkpt lat="45.254172" lon="6.741540">
        <ele>2256.996</ele>
        <time>2018-07-21T11:19:14Z</time>
      </trkpt>
      <trkpt lat="45.254127" lon="6.741528">
        <ele>2256.212</ele>
        <time>2018-07-21T11:19:18Z</time>
      </trkpt>
      <trkpt lat="45.254081" lon="6.741516">
        <ele>2255.644</ele>
        <time>2018-07-21T11:19:22Z</time>
      </trkpt>
      <trkpt lat="45.254034" lon="6.741511">
        <ele>2255.305</ele>
        <time>2018-07-21T11:19:26Z</time>
      </trkpt>
      <trkpt lat="45.253979" lon="6.741494">
        <ele>2254.915</ele>
        <time>2018-07-21T11:19:31Z</time>
      </trkpt>
      <trkpt lat="45.253932" lon="6.741466">
        <ele>2254.308</ele>
        <time>2018-07-21T11:19:36Z</time>
      </trkpt>
      <trkpt lat="45.253887" lon="6.741430">
        <ele>2252.976</ele>
        <time>2018-07-21T11:19:41Z</time>
      </trkpt>
      <trkpt lat="45.253845" lon="6.741390">
        <ele>2251.781</ele>
        <time>2018-07-21T11:19:46Z</time>
      </trkpt>
      <trkpt lat="45.253801" lon="6.741365">
        <ele>2251.588</ele>
        <time>2018-07-21T11:19:52Z</time>
      </trkpt>
      <trkpt lat="45.253755" lon="6.741333">
        <ele>2250.513</ele>
        <time>2018-07-21T11:19:59Z</time>
      </trkpt>
      <trkpt lat="45.253710" lon="6.741315">
        <ele>2248.632</ele>
        <time>2018-07-21T11:20:04Z</time>
      </trkpt>
      <trkpt lat="45.253664" lon="6.741285">
        <ele>2247.694</ele>
        <time>2018-07-21T11:20:09Z</time>
      </trkpt>
      <trkpt lat="45.253616" lon="6.741256">
        <ele>2246.992</ele>
        <time>2018-07-21T11:20:14Z</time>
      </trkpt>
      <trkpt lat="45.253566" lon="6.741229">
        <ele>2247.828</ele>
        <time>2018-07-21T11:20:19Z</time>
      </trkpt>
      <trkpt lat="45.253515" lon="6.741197">
        <ele>2246.881</ele>
        <time>2018-07-21T11:20:24Z</time>
      </trkpt>
      <trkpt lat="45.253483" lon="6.741147">
        <ele>2245.061</ele>
        <time>2018-07-21T11:20:28Z</time>
      </trkpt>
      <trkpt lat="45.253452" lon="6.741100">
        <ele>2244.517</ele>
        <time>2018-07-21T11:20:32Z</time>
      </trkpt>
      <trkpt lat="45.253417" lon="6.741043">
        <ele>2244.008</ele>
        <time>2018-07-21T11:20:37Z</time>
      </trkpt>
      <trkpt lat="45.253383" lon="6.740981">
        <ele>2243.340</ele>
        <time>2018-07-21T11:20:42Z</time>
      </trkpt>
      <trkpt lat="45.253353" lon="6.740929">
        <ele>2242.995</ele>
        <time>2018-07-21T11:20:46Z</time>
      </trkpt>
      <trkpt lat="45.253331" lon="6.740871">
        <ele>2243.012</ele>
        <time>2018-07-21T11:20:50Z</time>
      </trkpt>
      <trkpt lat="45.253310" lon="6.740811">
        <ele>2243.427</ele>
        <time>2018-07-21T11:20:54Z</time>
      </trkpt>
      <trkpt lat="45.253290" lon="6.740750">
        <ele>2243.026</ele>
        <time>2018-07-21T11:20:58Z</time>
      </trkpt>
      <trkpt lat="45.253276" lon="6.740681">
        <ele>2241.618</ele>
        <time>2018-07-21T11:21:02Z</time>
      </trkpt>
      <trkpt lat="45.253270" lon="6.740608">
        <ele>2240.716</ele>
        <time>2018-07-21T11:21:06Z</time>
      </trkpt>
      <trkpt lat="45.253257" lon="6.740535">
        <ele>2240.422</ele>
        <time>2018-07-21T11:21:10Z</time>
      </trkpt>
      <trkpt lat="45.253229" lon="6.740476">
        <ele>2240.787</ele>
        <time>2018-07-21T11:21:14Z</time>
      </trkpt>
      <trkpt lat="45.253191" lon="6.740429">
        <ele>2242.542</ele>
        <time>2018-07-21T11:21:19Z</time>
      </trkpt>
      <trkpt lat="45.253160" lon="6.740380">
        <ele>2243.626</ele>
        <time>2018-07-21T11:21:24Z</time>
      </trkpt>
      <trkpt lat="45.253152" lon="6.740305">
        <ele>2241.408</ele>
        <time>2018-07-21T11:21:30Z</time>
      </trkpt>
      <trkpt lat="45.253145" lon="6.740230">
        <ele>2241.940</ele>
        <time>2018-07-21T11:21:35Z</time>
      </trkpt>
      <trkpt lat="45.253125" lon="6.740163">
        <ele>2242.315</ele>
        <time>2018-07-21T11:21:40Z</time>
      </trkpt>
      <trkpt lat="45.253104" lon="6.740101">
        <ele>2242.752</ele>
        <time>2018-07-21T11:21:45Z</time>
      </trkpt>
      <trkpt lat="45.253089" lon="6.740028">
        <ele>2242.957</ele>
        <time>2018-07-21T11:21:50Z</time>
      </trkpt>
      <trkpt lat="45.253082" lon="6.739952">
        <ele>2242.696</ele>
        <time>2018-07-21T11:21:55Z</time>
      </trkpt>
      <trkpt lat="45.253073" lon="6.739888">
        <ele>2242.148</ele>
        <time>2018-07-21T11:21:59Z</time>
      </trkpt>
      <trkpt lat="45.253065" lon="6.739824">
        <ele>2241.686</ele>
        <time>2018-07-21T11:22:03Z</time>
      </trkpt>
      <trkpt lat="45.253063" lon="6.739759">
        <ele>2241.252</ele>
        <time>2018-07-21T11:22:07Z</time>
      </trkpt>
      <trkpt lat="45.253063" lon="6.739691">
        <ele>2240.932</ele>
        <time>2018-07-21T11:22:11Z</time>
      </trkpt>
      <trkpt lat="45.253062" lon="6.739623">
        <ele>2240.492</ele>
        <time>2018-07-21T11:22:15Z</time>
      </trkpt>
      <trkpt lat="45.253057" lon="6.739558">
        <ele>2240.511</ele>
        <time>2018-07-21T11:22:19Z</time>
      </trkpt>
      <trkpt lat="45.253052" lon="6.739492">
        <ele>2240.008</ele>
        <time>2018-07-21T11:22:23Z</time>
      </trkpt>
      <trkpt lat="45.253046" lon="6.739424">
        <ele>2240.525</ele>
        <time>2018-07-21T11:22:27Z</time>
      </trkpt>
      <trkpt lat="45.253038" lon="6.739353">
        <ele>2240.730</ele>
        <time>2018-07-21T11:22:32Z</time>
      </trkpt>
      <trkpt lat="45.253028" lon="6.739284">
        <ele>2240.937</ele>
        <time>2018-07-21T11:22:45Z</time>
      </trkpt>
      <trkpt lat="45.253017" lon="6.739207">
        <ele>2241.982</ele>
        <time>2018-07-21T11:22:50Z</time>
      </trkpt>
      <trkpt lat="45.253000" lon="6.739142">
        <ele>2242.961</ele>
        <time>2018-07-21T11:22:55Z</time>
      </trkpt>
      <trkpt lat="45.252977" lon="6.739080">
        <ele>2242.283</ele>
        <time>2018-07-21T11:23:00Z</time>
      </trkpt>
      <trkpt lat="45.252954" lon="6.739012">
        <ele>2241.761</ele>
        <time>2018-07-21T11:23:05Z</time>
      </trkpt>
      <trkpt lat="45.252946" lon="6.738936">
        <ele>2242.137</ele>
        <time>2018-07-21T11:23:10Z</time>
      </trkpt>
      <trkpt lat="45.252952" lon="6.738857">
        <ele>2241.278</ele>
        <time>2018-07-21T11:23:15Z</time>
      </trkpt>
      <trkpt lat="45.252962" lon="6.738791">
        <ele>2240.833</ele>
        <time>2018-07-21T11:23:19Z</time>
      </trkpt>
      <trkpt lat="45.252975" lon="6.738716">
        <ele>2239.926</ele>
        <time>2018-07-21T11:23:24Z</time>
      </trkpt>
      <trkpt lat="45.252988" lon="6.738641">
        <ele>2239.308</ele>
        <time>2018-07-21T11:23:29Z</time>
      </trkpt>
      <trkpt lat="45.252994" lon="6.738573">
        <ele>2238.819</ele>
        <time>2018-07-21T11:23:33Z</time>
      </trkpt>
      <trkpt lat="45.252995" lon="6.738505">
        <ele>2238.824</ele>
        <time>2018-07-21T11:23:37Z</time>
      </trkpt>
      <trkpt lat="45.252991" lon="6.738425">
        <ele>2238.461</ele>
        <time>2018-07-21T11:23:42Z</time>
      </trkpt>
      <trkpt lat="45.252980" lon="6.738360">
        <ele>2238.366</ele>
        <time>2018-07-21T11:23:46Z</time>
      </trkpt>
      <trkpt lat="45.252953" lon="6.738307">
        <ele>2237.865</ele>
        <time>2018-07-21T11:23:50Z</time>
      </trkpt>
      <trkpt lat="45.252906" lon="6.738268">
        <ele>2239.297</ele>
        <time>2018-07-21T11:23:55Z</time>
      </trkpt>
      <trkpt lat="45.252865" lon="6.738239">
        <ele>2239.245</ele>
        <time>2018-07-21T11:23:59Z</time>
      </trkpt>
      <trkpt lat="45.252824" lon="6.738205">
        <ele>2238.291</ele>
        <time>2018-07-21T11:24:04Z</time>
      </trkpt>
      <trkpt lat="45.252779" lon="6.738165">
        <ele>2238.782</ele>
        <time>2018-07-21T11:24:10Z</time>
      </trkpt>
      <trkpt lat="45.252741" lon="6.738130">
        <ele>2238.843</ele>
        <time>2018-07-21T11:24:15Z</time>
      </trkpt>
      <trkpt lat="45.252706" lon="6.738089">
        <ele>2239.217</ele>
        <time>2018-07-21T11:24:20Z</time>
      </trkpt>
      <trkpt lat="45.252665" lon="6.738049">
        <ele>2241.008</ele>
        <time>2018-07-21T11:24:26Z</time>
      </trkpt>
      <trkpt lat="45.252621" lon="6.738012">
        <ele>2241.160</ele>
        <time>2018-07-21T11:24:32Z</time>
      </trkpt>
      <trkpt lat="45.252580" lon="6.737978">
        <ele>2241.525</ele>
        <time>2018-07-21T11:24:38Z</time>
      </trkpt>
      <trkpt lat="45.252539" lon="6.737931">
        <ele>2243.332</ele>
        <time>2018-07-21T11:24:45Z</time>
      </trkpt>
      <trkpt lat="45.252505" lon="6.737888">
        <ele>2243.277</ele>
        <time>2018-07-21T11:24:50Z</time>
      </trkpt>
      <trkpt lat="45.252470" lon="6.737838">
        <ele>2244.126</ele>
        <time>2018-07-21T11:24:55Z</time>
      </trkpt>
      <trkpt lat="45.252432" lon="6.737792">
        <ele>2244.458</ele>
        <time>2018-07-21T11:25:00Z</time>
      </trkpt>
      <trkpt lat="45.252390" lon="6.737742">
        <ele>2242.826</ele>
        <time>2018-07-21T11:25:05Z</time>
      </trkpt>
      <trkpt lat="45.252349" lon="6.737698">
        <ele>2243.112</ele>
        <time>2018-07-21T11:25:10Z</time>
      </trkpt>
      <trkpt lat="45.252313" lon="6.737647">
        <ele>2244.297</ele>
        <time>2018-07-21T11:25:15Z</time>
      </trkpt>
      <trkpt lat="45.252282" lon="6.737589">
        <ele>2244.523</ele>
        <time>2018-07-21T11:25:20Z</time>
      </trkpt>
      <trkpt lat="45.252246" lon="6.737541">
        <ele>2244.725</ele>
        <time>2018-07-21T11:25:25Z</time>
      </trkpt>
      <trkpt lat="45.252209" lon="6.737497">
        <ele>2244.808</ele>
        <time>2018-07-21T11:25:30Z</time>
      </trkpt>
      <trkpt lat="45.252168" lon="6.737453">
        <ele>2244.911</ele>
        <time>2018-07-21T11:25:35Z</time>
      </trkpt>
      <trkpt lat="45.252124" lon="6.737414">
        <ele>2244.996</ele>
        <time>2018-07-21T11:25:40Z</time>
      </trkpt>
      <trkpt lat="45.252085" lon="6.737373">
        <ele>2245.433</ele>
        <time>2018-07-21T11:25:45Z</time>
      </trkpt>
      <trkpt lat="45.252036" lon="6.737337">
        <ele>2244.868</ele>
        <time>2018-07-21T11:25:50Z</time>
      </trkpt>
      <trkpt lat="45.251993" lon="6.737310">
        <ele>2245.887</ele>
        <time>2018-07-21T11:25:54Z</time>
      </trkpt>
      <trkpt lat="45.251950" lon="6.737286">
        <ele>2245.139</ele>
        <time>2018-07-21T11:25:58Z</time>
      </trkpt>
      <trkpt lat="45.251907" lon="6.737262">
        <ele>2245.127</ele>
        <time>2018-07-21T11:26:02Z</time>
      </trkpt>
      <trkpt lat="45.251866" lon="6.737230">
        <ele>2245.453</ele>
        <time>2018-07-21T11:26:06Z</time>
      </trkpt>
      <trkpt lat="45.251828" lon="6.737195">
        <ele>2245.294</ele>
        <time>2018-07-21T11:26:10Z</time>
      </trkpt>
      <trkpt lat="45.251788" lon="6.737162">
        <ele>2245.357</ele>
        <time>2018-07-21T11:26:14Z</time>
      </trkpt>
      <trkpt lat="45.251748" lon="6.737131">
        <ele>2245.322</ele>
        <time>2018-07-21T11:26:18Z</time>
      </trkpt>
      <trkpt lat="45.251706" lon="6.737099">
        <ele>2245.908</ele>
        <time>2018-07-21T11:26:23Z</time>
      </trkpt>
      <trkpt lat="45.251657" lon="6.737073">
        <ele>2245.821</ele>
        <time>2018-07-21T11:26:28Z</time>
      </trkpt>
      <trkpt lat="45.251613" lon="6.737053">
        <ele>2245.536</ele>
        <time>2018-07-21T11:26:32Z</time>
      </trkpt>
      <trkpt lat="45.251569" lon="6.737038">
        <ele>2245.563</ele>
        <time>2018-07-21T11:26:36Z</time>
      </trkpt>
      <trkpt lat="45.251520" lon="6.737007">
        <ele>2245.568</ele>
        <time>2018-07-21T11:26:41Z</time>
      </trkpt>
      <trkpt lat="45.251453" lon="6.736954">
        <ele>2247.837</ele>
        <time>2018-07-21T11:27:04Z</time>
      </trkpt>
      <trkpt lat="45.251420" lon="6.736900">
        <ele>2246.619</ele>
        <time>2018-07-21T11:28:06Z</time>
      </trkpt>
      <trkpt lat="45.251385" lon="6.736859">
        <ele>2245.857</ele>
        <time>2018-07-21T11:28:11Z</time>
      </trkpt>
      <trkpt lat="45.251342" lon="6.736824">
        <ele>2245.283</ele>
        <time>2018-07-21T11:28:19Z</time>
      </trkpt>
      <trkpt lat="45.251303" lon="6.736776">
        <ele>2244.852</ele>
        <time>2018-07-21T11:28:25Z</time>
      </trkpt>
      <trkpt lat="45.251257" lon="6.736739">
        <ele>2245.153</ele>
        <time>2018-07-21T11:28:30Z</time>
      </trkpt>
      <trkpt lat="45.251219" lon="6.736696">
        <ele>2245.108</ele>
        <time>2018-07-21T11:28:40Z</time>
      </trkpt>
      <trkpt lat="45.251189" lon="6.736630">
        <ele>2244.108</ele>
        <time>2018-07-21T11:28:48Z</time>
      </trkpt>
      <trkpt lat="45.251163" lon="6.736575">
        <ele>2245.587</ele>
        <time>2018-07-21T11:28:52Z</time>
      </trkpt>
      <trkpt lat="45.251136" lon="6.736514">
        <ele>2243.712</ele>
        <time>2018-07-21T11:28:56Z</time>
      </trkpt>
      <trkpt lat="45.251112" lon="6.736455">
        <ele>2244.019</ele>
        <time>2018-07-21T11:29:00Z</time>
      </trkpt>
      <trkpt lat="45.251085" lon="6.736390">
        <ele>2242.364</ele>
        <time>2018-07-21T11:29:05Z</time>
      </trkpt>
      <trkpt lat="45.251065" lon="6.736328">
        <ele>2241.673</ele>
        <time>2018-07-21T11:29:10Z</time>
      </trkpt>
      <trkpt lat="45.251047" lon="6.736267">
        <ele>2240.985</ele>
        <time>2018-07-21T11:29:16Z</time>
      </trkpt>
      <trkpt lat="45.251024" lon="6.736207">
        <ele>2239.643</ele>
        <time>2018-07-21T11:29:21Z</time>
      </trkpt>
      <trkpt lat="45.250996" lon="6.736138">
        <ele>2239.359</ele>
        <time>2018-07-21T11:29:26Z</time>
      </trkpt>
      <trkpt lat="45.250973" lon="6.736079">
        <ele>2238.753</ele>
        <time>2018-07-21T11:29:30Z</time>
      </trkpt>
      <trkpt lat="45.250955" lon="6.736015">
        <ele>2239.004</ele>
        <time>2018-07-21T11:29:34Z</time>
      </trkpt>
      <trkpt lat="45.250939" lon="6.735955">
        <ele>2238.814</ele>
        <time>2018-07-21T11:29:38Z</time>
      </trkpt>
      <trkpt lat="45.250925" lon="6.735891">
        <ele>2238.408</ele>
        <time>2018-07-21T11:29:42Z</time>
      </trkpt>
      <trkpt lat="45.250919" lon="6.735824">
        <ele>2240.797</ele>
        <time>2018-07-21T11:29:48Z</time>
      </trkpt>
      <trkpt lat="45.250895" lon="6.735766">
        <ele>2240.832</ele>
        <time>2018-07-21T11:30:07Z</time>
      </trkpt>
      <trkpt lat="45.250895" lon="6.735689">
        <ele>2239.499</ele>
        <time>2018-07-21T11:30:13Z</time>
      </trkpt>
      <trkpt lat="45.250888" lon="6.735620">
        <ele>2238.924</ele>
        <time>2018-07-21T11:30:18Z</time>
      </trkpt>
    </trkseg>
  </trk>
</gpx>
